<?xml version='1.0' encoding='UTF-8'?><gpx version="1.1" creator="JPX - https://github.com/jenetics/jpx" xmlns="http://www.topografix.com/GPX/1/1"><trk><trkseg><trkpt lat="43.9848433" lon="12.6907833"><ele>0.9999999999999999</ele><time>2026-05-02T04:11:48.787Z</time></trkpt><trkpt lat="43.984785" lon="12.6907233"><ele>1.0</ele><time>2026-05-02T04:11:50.786Z</time></trkpt><trkpt lat="43.9847233" lon="12.6906483"><ele>1.0</ele><time>2026-05-02T04:11:52.787Z</time></trkpt><trkpt lat="43.9846467" lon="12.69062"><ele>1.0</ele><time>2026-05-02T04:11:55.788Z</time></trkpt><trkpt lat="43.9845867" lon="12.6906933"><ele>0.9999999999999999</ele><time>2026-05-02T04:11:57.787Z</time></trkpt><trkpt lat="43.984515" lon="12.6908167"><ele>1.0</ele><time>2026-05-02T04:11:59.791Z</time></trkpt><trkpt lat="43.9844717" lon="12.6908917"><ele>0.9999999999999999</ele><time>2026-05-02T04:12:00.786Z</time></trkpt><trkpt lat="43.9844267" lon="12.6909667"><ele>1.0</ele><time>2026-05-02T04:12:01.787Z</time></trkpt><trkpt lat="43.9843733" lon="12.6910433"><ele>1.0</ele><time>2026-05-02T04:12:02.789Z</time></trkpt><trkpt lat="43.9843167" lon="12.6911233"><ele>1.0</ele><time>2026-05-02T04:12:03.789Z</time></trkpt><trkpt lat="43.9842583" lon="12.691205"><ele>0.9999999999999999</ele><time>2026-05-02T04:12:04.787Z</time></trkpt><trkpt lat="43.9842017" lon="12.6912867"><ele>1.0</ele><time>2026-05-02T04:12:05.79Z</time></trkpt><trkpt lat="43.9841483" lon="12.6913617"><ele>0.8</ele><time>2026-05-02T04:12:06.787Z</time></trkpt><trkpt lat="43.9841" lon="12.6914333"><ele>0.6000000000000001</ele><time>2026-05-02T04:12:07.786Z</time></trkpt><trkpt lat="43.9840583" lon="12.6915017"><ele>0.4</ele><time>2026-05-02T04:12:08.787Z</time></trkpt><trkpt lat="43.983985" lon="12.69161"><ele>0.2</ele><time>2026-05-02T04:12:10.787Z</time></trkpt><trkpt lat="43.98389" lon="12.6916383"><ele>0.0</ele><time>2026-05-02T04:12:12.787Z</time></trkpt><trkpt lat="43.983785" lon="12.69157"><ele>0.0</ele><time>2026-05-02T04:12:14.787Z</time></trkpt><trkpt lat="43.9837317" lon="12.69151"><ele>0.0</ele><time>2026-05-02T04:12:15.786Z</time></trkpt><trkpt lat="43.983675" lon="12.691445"><ele>0.0</ele><time>2026-05-02T04:12:16.787Z</time></trkpt><trkpt lat="43.9836167" lon="12.6913783"><ele>0.0</ele><time>2026-05-02T04:12:17.787Z</time></trkpt><trkpt lat="43.9835633" lon="12.6913167"><ele>0.0</ele><time>2026-05-02T04:12:18.786Z</time></trkpt><trkpt lat="43.9834867" lon="12.6911983"><ele>0.0</ele><time>2026-05-02T04:12:20.788Z</time></trkpt><trkpt lat="43.983405" lon="12.69109"><ele>0.16666666666666666</ele><time>2026-05-02T04:12:22.789Z</time></trkpt><trkpt lat="43.9833" lon="12.69101"><ele>0.3333333333333333</ele><time>2026-05-02T04:12:24.787Z</time></trkpt><trkpt lat="43.9831967" lon="12.6909083"><ele>0.5</ele><time>2026-05-02T04:12:26.787Z</time></trkpt><trkpt lat="43.9831467" lon="12.6908517"><ele>0.6666666666666666</ele><time>2026-05-02T04:12:27.786Z</time></trkpt><trkpt lat="43.9830967" lon="12.690795"><ele>0.8333333333333333</ele><time>2026-05-02T04:12:28.79Z</time></trkpt><trkpt lat="43.983045" lon="12.6907367"><ele>1.0</ele><time>2026-05-02T04:12:29.79Z</time></trkpt><trkpt lat="43.9829917" lon="12.6906733"><ele>1.0</ele><time>2026-05-02T04:12:30.79Z</time></trkpt><trkpt lat="43.9829383" lon="12.6905983"><ele>0.9999999999999999</ele><time>2026-05-02T04:12:31.791Z</time></trkpt><trkpt lat="43.9828917" lon="12.6905117"><ele>1.0</ele><time>2026-05-02T04:12:32.789Z</time></trkpt><trkpt lat="43.9828517" lon="12.69042"><ele>1.0</ele><time>2026-05-02T04:12:33.79Z</time></trkpt><trkpt lat="43.98282" lon="12.6903283"><ele>0.9999999999999999</ele><time>2026-05-02T04:12:34.79Z</time></trkpt><trkpt lat="43.9827917" lon="12.6902417"><ele>1.0</ele><time>2026-05-02T04:12:35.791Z</time></trkpt><trkpt lat="43.9827583" lon="12.6901567"><ele>1.0</ele><time>2026-05-02T04:12:36.79Z</time></trkpt><trkpt lat="43.98272" lon="12.6900767"><ele>1.3333333333333333</ele><time>2026-05-02T04:12:37.787Z</time></trkpt><trkpt lat="43.9826667" lon="12.6900083"><ele>1.6666666666666665</ele><time>2026-05-02T04:12:38.79Z</time></trkpt><trkpt lat="43.9826017" lon="12.68996"><ele>2.0</ele><time>2026-05-02T04:12:39.791Z</time></trkpt><trkpt lat="43.98253" lon="12.689945"><ele>2.3333333333333335</ele><time>2026-05-02T04:12:40.79Z</time></trkpt><trkpt lat="43.98246" lon="12.689965"><ele>2.6666666666666665</ele><time>2026-05-02T04:12:41.79Z</time></trkpt><trkpt lat="43.9823917" lon="12.6900317"><ele>3.0</ele><time>2026-05-02T04:12:42.79Z</time></trkpt><trkpt lat="43.9823417" lon="12.69014"><ele>2.1999999999999997</ele><time>2026-05-02T04:12:43.79Z</time></trkpt><trkpt lat="43.982315" lon="12.6902783"><ele>1.4</ele><time>2026-05-02T04:12:44.791Z</time></trkpt><trkpt lat="43.9822967" lon="12.6904333"><ele>0.5999999999999999</ele><time>2026-05-02T04:12:45.791Z</time></trkpt><trkpt lat="43.9822617" lon="12.6905833"><ele>-0.20000000000000007</ele><time>2026-05-02T04:12:46.79Z</time></trkpt><trkpt lat="43.982205" lon="12.6907267"><ele>-1.0</ele><time>2026-05-02T04:12:47.791Z</time></trkpt><trkpt lat="43.9821367" lon="12.690865"><ele>-1.0</ele><time>2026-05-02T04:12:48.79Z</time></trkpt><trkpt lat="43.9820567" lon="12.6910133"><ele>-1.0</ele><time>2026-05-02T04:12:49.79Z</time></trkpt><trkpt lat="43.981975" lon="12.691165"><ele>-1.0</ele><time>2026-05-02T04:12:50.791Z</time></trkpt><trkpt lat="43.9818933" lon="12.6913183"><ele>-1.0</ele><time>2026-05-02T04:12:51.791Z</time></trkpt><trkpt lat="43.98181" lon="12.691465"><ele>-1.0</ele><time>2026-05-02T04:12:52.79Z</time></trkpt><trkpt lat="43.9817267" lon="12.69161"><ele>-1.0</ele><time>2026-05-02T04:12:53.791Z</time></trkpt><trkpt lat="43.9816433" lon="12.6917567"><ele>-1.0</ele><time>2026-05-02T04:12:54.79Z</time></trkpt><trkpt lat="43.9815617" lon="12.6919083"><ele>-1.0</ele><time>2026-05-02T04:12:55.79Z</time></trkpt><trkpt lat="43.98148" lon="12.69206"><ele>-0.75</ele><time>2026-05-02T04:12:56.79Z</time></trkpt><trkpt lat="43.9813967" lon="12.6922117"><ele>-0.5</ele><time>2026-05-02T04:12:57.79Z</time></trkpt><trkpt lat="43.981315" lon="12.6923633"><ele>-0.25</ele><time>2026-05-02T04:12:58.79Z</time></trkpt><trkpt lat="43.9812333" lon="12.6925117"><ele>0.0</ele><time>2026-05-02T04:12:59.789Z</time></trkpt><trkpt lat="43.98115" lon="12.6926633"><ele>0.0</ele><time>2026-05-02T04:13:00.79Z</time></trkpt><trkpt lat="43.9810683" lon="12.692815"><ele>0.0</ele><time>2026-05-02T04:13:01.79Z</time></trkpt><trkpt lat="43.9809883" lon="12.6929667"><ele>0.0</ele><time>2026-05-02T04:13:02.79Z</time></trkpt><trkpt lat="43.9809067" lon="12.693115"><ele>0.0</ele><time>2026-05-02T04:13:03.79Z</time></trkpt><trkpt lat="43.980825" lon="12.6932633"><ele>0.0</ele><time>2026-05-02T04:13:04.79Z</time></trkpt><trkpt lat="43.9807467" lon="12.6934133"><ele>0.0</ele><time>2026-05-02T04:13:05.79Z</time></trkpt><trkpt lat="43.9806717" lon="12.69356"><ele>0.0</ele><time>2026-05-02T04:13:06.791Z</time></trkpt><trkpt lat="43.9805983" lon="12.6937"><ele>0.0</ele><time>2026-05-02T04:13:07.79Z</time></trkpt><trkpt lat="43.9805267" lon="12.6938283"><ele>0.0</ele><time>2026-05-02T04:13:08.79Z</time></trkpt><trkpt lat="43.980465" lon="12.6939467"><ele>0.0</ele><time>2026-05-02T04:13:09.79Z</time></trkpt><trkpt lat="43.980405" lon="12.6940517"><ele>0.0</ele><time>2026-05-02T04:13:10.79Z</time></trkpt><trkpt lat="43.9803483" lon="12.6941483"><ele>0.0</ele><time>2026-05-02T04:13:11.79Z</time></trkpt><trkpt lat="43.9802917" lon="12.69423"><ele>0.0</ele><time>2026-05-02T04:13:12.79Z</time></trkpt><trkpt lat="43.980235" lon="12.6942983"><ele>0.0</ele><time>2026-05-02T04:13:13.789Z</time></trkpt><trkpt lat="43.9801783" lon="12.6943467"><ele>0.0</ele><time>2026-05-02T04:13:14.791Z</time></trkpt><trkpt lat="43.980115" lon="12.6943633"><ele>0.0</ele><time>2026-05-02T04:13:15.791Z</time></trkpt><trkpt lat="43.9799867" lon="12.694305"><ele>0.0</ele><time>2026-05-02T04:13:17.79Z</time></trkpt><trkpt lat="43.9799017" lon="12.6942167"><ele>0.0</ele><time>2026-05-02T04:13:18.79Z</time></trkpt><trkpt lat="43.9798017" lon="12.694125"><ele>0.0</ele><time>2026-05-02T04:13:19.79Z</time></trkpt><trkpt lat="43.9797067" lon="12.69404"><ele>0.5</ele><time>2026-05-02T04:13:20.79Z</time></trkpt><trkpt lat="43.979615" lon="12.6939683"><ele>1.0</ele><time>2026-05-02T04:13:21.79Z</time></trkpt><trkpt lat="43.9795317" lon="12.693915"><ele>1.5</ele><time>2026-05-02T04:13:22.791Z</time></trkpt><trkpt lat="43.9794517" lon="12.693885"><ele>2.0</ele><time>2026-05-02T04:13:23.791Z</time></trkpt><trkpt lat="43.9793667" lon="12.6938733"><ele>2.5</ele><time>2026-05-02T04:13:24.79Z</time></trkpt><trkpt lat="43.97929" lon="12.6938867"><ele>3.0</ele><time>2026-05-02T04:13:25.79Z</time></trkpt><trkpt lat="43.97922" lon="12.6939383"><ele>2.8</ele><time>2026-05-02T04:13:26.79Z</time></trkpt><trkpt lat="43.9791617" lon="12.6940283"><ele>2.5999999999999996</ele><time>2026-05-02T04:13:27.786Z</time></trkpt><trkpt lat="43.979105" lon="12.6941283"><ele>2.4000000000000004</ele><time>2026-05-02T04:13:28.787Z</time></trkpt><trkpt lat="43.9790433" lon="12.694255"><ele>2.2</ele><time>2026-05-02T04:13:29.791Z</time></trkpt><trkpt lat="43.9789817" lon="12.6944"><ele>2.0</ele><time>2026-05-02T04:13:30.79Z</time></trkpt><trkpt lat="43.9789167" lon="12.69455"><ele>2.0</ele><time>2026-05-02T04:13:31.787Z</time></trkpt><trkpt lat="43.9788483" lon="12.6947033"><ele>2.0</ele><time>2026-05-02T04:13:32.786Z</time></trkpt><trkpt lat="43.9787767" lon="12.6948567"><ele>2.0</ele><time>2026-05-02T04:13:33.787Z</time></trkpt><trkpt lat="43.9787033" lon="12.6950133"><ele>2.0</ele><time>2026-05-02T04:13:34.788Z</time></trkpt><trkpt lat="43.9786283" lon="12.69517"><ele>2.0</ele><time>2026-05-02T04:13:35.787Z</time></trkpt><trkpt lat="43.9785517" lon="12.695325"><ele>2.0</ele><time>2026-05-02T04:13:36.786Z</time></trkpt><trkpt lat="43.9784733" lon="12.695475"><ele>2.0</ele><time>2026-05-02T04:13:37.786Z</time></trkpt><trkpt lat="43.9784017" lon="12.6956217"><ele>2.0</ele><time>2026-05-02T04:13:38.79Z</time></trkpt><trkpt lat="43.97834" lon="12.6957583"><ele>2.0</ele><time>2026-05-02T04:13:39.79Z</time></trkpt><trkpt lat="43.9782833" lon="12.6958833"><ele>2.0</ele><time>2026-05-02T04:13:40.787Z</time></trkpt><trkpt lat="43.9782267" lon="12.6960017"><ele>2.0</ele><time>2026-05-02T04:13:41.786Z</time></trkpt><trkpt lat="43.9781767" lon="12.6961083"><ele>2.0</ele><time>2026-05-02T04:13:42.79Z</time></trkpt><trkpt lat="43.9781283" lon="12.69621"><ele>2.0</ele><time>2026-05-02T04:13:43.79Z</time></trkpt><trkpt lat="43.9780767" lon="12.6963183"><ele>2.0</ele><time>2026-05-02T04:13:44.79Z</time></trkpt><trkpt lat="43.9780217" lon="12.6964367"><ele>2.0</ele><time>2026-05-02T04:13:45.79Z</time></trkpt><trkpt lat="43.97796" lon="12.6965617"><ele>2.0</ele><time>2026-05-02T04:13:46.791Z</time></trkpt><trkpt lat="43.9778983" lon="12.6966933"><ele>2.0</ele><time>2026-05-02T04:13:47.79Z</time></trkpt><trkpt lat="43.9778333" lon="12.6968283"><ele>2.0</ele><time>2026-05-02T04:13:48.79Z</time></trkpt><trkpt lat="43.97777" lon="12.6969733"><ele>2.0</ele><time>2026-05-02T04:13:49.79Z</time></trkpt><trkpt lat="43.9777067" lon="12.697125"><ele>2.0</ele><time>2026-05-02T04:13:50.79Z</time></trkpt><trkpt lat="43.97764" lon="12.6972717"><ele>2.0</ele><time>2026-05-02T04:13:51.79Z</time></trkpt><trkpt lat="43.9775717" lon="12.6974183"><ele>2.0</ele><time>2026-05-02T04:13:52.79Z</time></trkpt><trkpt lat="43.9775067" lon="12.6975667"><ele>2.25</ele><time>2026-05-02T04:13:53.79Z</time></trkpt><trkpt lat="43.977445" lon="12.6977167"><ele>2.5</ele><time>2026-05-02T04:13:54.79Z</time></trkpt><trkpt lat="43.9773783" lon="12.6978683"><ele>2.75</ele><time>2026-05-02T04:13:55.79Z</time></trkpt><trkpt lat="43.97731" lon="12.6980217"><ele>3.0</ele><time>2026-05-02T04:13:56.79Z</time></trkpt><trkpt lat="43.9772417" lon="12.6981733"><ele>3.0</ele><time>2026-05-02T04:13:57.791Z</time></trkpt><trkpt lat="43.9771717" lon="12.6983283"><ele>3.0</ele><time>2026-05-02T04:13:58.786Z</time></trkpt><trkpt lat="43.9771033" lon="12.6984833"><ele>3.0</ele><time>2026-05-02T04:13:59.788Z</time></trkpt><trkpt lat="43.9770383" lon="12.69864"><ele>3.0</ele><time>2026-05-02T04:14:00.786Z</time></trkpt><trkpt lat="43.9769817" lon="12.6987983"><ele>3.0</ele><time>2026-05-02T04:14:01.788Z</time></trkpt><trkpt lat="43.9769367" lon="12.6989683"><ele>3.0</ele><time>2026-05-02T04:14:02.79Z</time></trkpt><trkpt lat="43.9769" lon="12.6991417"><ele>3.0</ele><time>2026-05-02T04:14:03.787Z</time></trkpt><trkpt lat="43.976865" lon="12.6993167"><ele>3.0</ele><time>2026-05-02T04:14:04.788Z</time></trkpt><trkpt lat="43.97682" lon="12.69949"><ele>3.0</ele><time>2026-05-02T04:14:05.787Z</time></trkpt><trkpt lat="43.97676" lon="12.6996567"><ele>3.0</ele><time>2026-05-02T04:14:06.787Z</time></trkpt><trkpt lat="43.9766917" lon="12.699815"><ele>3.0</ele><time>2026-05-02T04:14:07.788Z</time></trkpt><trkpt lat="43.976625" lon="12.6999567"><ele>3.0</ele><time>2026-05-02T04:14:08.791Z</time></trkpt><trkpt lat="43.9765667" lon="12.7000783"><ele>3.0</ele><time>2026-05-02T04:14:09.79Z</time></trkpt><trkpt lat="43.976515" lon="12.700185"><ele>3.0</ele><time>2026-05-02T04:14:10.792Z</time></trkpt><trkpt lat="43.97647" lon="12.7002783"><ele>3.0</ele><time>2026-05-02T04:14:11.79Z</time></trkpt><trkpt lat="43.976435" lon="12.7003667"><ele>3.0</ele><time>2026-05-02T04:14:12.789Z</time></trkpt><trkpt lat="43.9764017" lon="12.7004467"><ele>3.0</ele><time>2026-05-02T04:14:13.789Z</time></trkpt><trkpt lat="43.9763333" lon="12.70057"><ele>3.0</ele><time>2026-05-02T04:14:15.789Z</time></trkpt><trkpt lat="43.9762633" lon="12.7006733"><ele>3.0</ele><time>2026-05-02T04:14:17.789Z</time></trkpt><trkpt lat="43.9762167" lon="12.700795"><ele>3.0</ele><time>2026-05-02T04:14:19.789Z</time></trkpt><trkpt lat="43.976255" lon="12.70092"><ele>3.0</ele><time>2026-05-02T04:14:21.789Z</time></trkpt><trkpt lat="43.9763483" lon="12.7009417"><ele>3.0</ele><time>2026-05-02T04:14:23.79Z</time></trkpt><trkpt lat="43.9764217" lon="12.7007933"><ele>3.0</ele><time>2026-05-02T04:14:25.79Z</time></trkpt><trkpt lat="43.9764533" lon="12.700665"><ele>3.0</ele><time>2026-05-02T04:14:26.788Z</time></trkpt><trkpt lat="43.976485" lon="12.7005183"><ele>3.0</ele><time>2026-05-02T04:14:27.785Z</time></trkpt><trkpt lat="43.9765267" lon="12.7003717"><ele>3.0</ele><time>2026-05-02T04:14:28.788Z</time></trkpt><trkpt lat="43.9765783" lon="12.7002233"><ele>3.0</ele><time>2026-05-02T04:14:29.788Z</time></trkpt><trkpt lat="43.9766383" lon="12.7000767"><ele>3.0</ele><time>2026-05-02T04:14:30.787Z</time></trkpt><trkpt lat="43.976705" lon="12.69992"><ele>3.0</ele><time>2026-05-02T04:14:31.788Z</time></trkpt><trkpt lat="43.9767717" lon="12.6997567"><ele>3.0</ele><time>2026-05-02T04:14:32.788Z</time></trkpt><trkpt lat="43.9768317" lon="12.6995867"><ele>3.0</ele><time>2026-05-02T04:14:33.79Z</time></trkpt><trkpt lat="43.9768833" lon="12.6994083"><ele>3.25</ele><time>2026-05-02T04:14:34.789Z</time></trkpt><trkpt lat="43.976925" lon="12.6992283"><ele>3.5</ele><time>2026-05-02T04:14:35.788Z</time></trkpt><trkpt lat="43.9769633" lon="12.6990483"><ele>3.75</ele><time>2026-05-02T04:14:36.787Z</time></trkpt><trkpt lat="43.977005" lon="12.6988767"><ele>4.0</ele><time>2026-05-02T04:14:37.787Z</time></trkpt><trkpt lat="43.9770567" lon="12.69871"><ele>3.75</ele><time>2026-05-02T04:14:38.788Z</time></trkpt><trkpt lat="43.9771183" lon="12.6985433"><ele>3.5</ele><time>2026-05-02T04:14:39.788Z</time></trkpt><trkpt lat="43.9771867" lon="12.6983883"><ele>3.25</ele><time>2026-05-02T04:14:40.789Z</time></trkpt><trkpt lat="43.97725" lon="12.6982367"><ele>3.0</ele><time>2026-05-02T04:14:41.789Z</time></trkpt><trkpt lat="43.97731" lon="12.698105"><ele>3.0</ele><time>2026-05-02T04:14:42.788Z</time></trkpt><trkpt lat="43.97736" lon="12.6979867"><ele>3.0</ele><time>2026-05-02T04:14:43.789Z</time></trkpt><trkpt lat="43.9774083" lon="12.6978733"><ele>3.0</ele><time>2026-05-02T04:14:44.791Z</time></trkpt><trkpt lat="43.977455" lon="12.6977683"><ele>3.0</ele><time>2026-05-02T04:14:45.79Z</time></trkpt><trkpt lat="43.9774967" lon="12.697675"><ele>3.0</ele><time>2026-05-02T04:14:46.786Z</time></trkpt><trkpt lat="43.9775333" lon="12.6975967"><ele>3.0</ele><time>2026-05-02T04:14:47.789Z</time></trkpt><trkpt lat="43.9775933" lon="12.6974917"><ele>3.0</ele><time>2026-05-02T04:14:49.789Z</time></trkpt><trkpt lat="43.977655" lon="12.6973767"><ele>3.0</ele><time>2026-05-02T04:27:07.786Z</time></trkpt><trkpt lat="43.9775917" lon="12.6974783"><ele>3.0</ele><time>2026-05-02T04:27:09.786Z</time></trkpt><trkpt lat="43.977515" lon="12.69763"><ele>3.0</ele><time>2026-05-02T04:27:11.786Z</time></trkpt><trkpt lat="43.9774717" lon="12.697725"><ele>3.0</ele><time>2026-05-02T04:27:12.786Z</time></trkpt><trkpt lat="43.9774267" lon="12.6978283"><ele>3.0</ele><time>2026-05-02T04:27:13.787Z</time></trkpt><trkpt lat="43.9773783" lon="12.6979383"><ele>3.0</ele><time>2026-05-02T04:27:14.791Z</time></trkpt><trkpt lat="43.9773267" lon="12.6980583"><ele>3.0</ele><time>2026-05-02T04:27:15.786Z</time></trkpt><trkpt lat="43.9772683" lon="12.69818"><ele>3.0</ele><time>2026-05-02T04:27:16.786Z</time></trkpt><trkpt lat="43.9772033" lon="12.6983083"><ele>3.0</ele><time>2026-05-02T04:27:17.788Z</time></trkpt><trkpt lat="43.9771367" lon="12.698445"><ele>3.25</ele><time>2026-05-02T04:27:18.786Z</time></trkpt><trkpt lat="43.97707" lon="12.69859"><ele>3.5</ele><time>2026-05-02T04:27:19.787Z</time></trkpt><trkpt lat="43.977015" lon="12.6987367"><ele>3.75</ele><time>2026-05-02T04:27:20.786Z</time></trkpt><trkpt lat="43.9769717" lon="12.6988883"><ele>4.0</ele><time>2026-05-02T04:27:21.787Z</time></trkpt><trkpt lat="43.9769383" lon="12.6990467"><ele>4.0</ele><time>2026-05-02T04:27:22.787Z</time></trkpt><trkpt lat="43.97691" lon="12.6992083"><ele>4.0</ele><time>2026-05-02T04:27:23.787Z</time></trkpt><trkpt lat="43.9768717" lon="12.6993733"><ele>4.0</ele><time>2026-05-02T04:27:24.786Z</time></trkpt><trkpt lat="43.9768217" lon="12.699535"><ele>4.0</ele><time>2026-05-02T04:27:25.786Z</time></trkpt><trkpt lat="43.97676" lon="12.69969"><ele>3.75</ele><time>2026-05-02T04:27:26.788Z</time></trkpt><trkpt lat="43.9766933" lon="12.6998417"><ele>3.5</ele><time>2026-05-02T04:27:27.786Z</time></trkpt><trkpt lat="43.9766217" lon="12.69999"><ele>3.25</ele><time>2026-05-02T04:27:28.787Z</time></trkpt><trkpt lat="43.976555" lon="12.700135"><ele>3.0</ele><time>2026-05-02T04:27:29.787Z</time></trkpt><trkpt lat="43.9764933" lon="12.70027"><ele>3.0</ele><time>2026-05-02T04:27:30.786Z</time></trkpt><trkpt lat="43.976435" lon="12.700395"><ele>3.0</ele><time>2026-05-02T04:27:31.787Z</time></trkpt><trkpt lat="43.9763733" lon="12.7005083"><ele>3.0</ele><time>2026-05-02T04:27:32.787Z</time></trkpt><trkpt lat="43.9763067" lon="12.70062"><ele>3.0</ele><time>2026-05-02T04:27:33.787Z</time></trkpt><trkpt lat="43.9762417" lon="12.700735"><ele>3.0</ele><time>2026-05-02T04:27:34.788Z</time></trkpt><trkpt lat="43.9761833" lon="12.700865"><ele>3.0</ele><time>2026-05-02T04:27:35.786Z</time></trkpt><trkpt lat="43.976125" lon="12.7010033"><ele>3.0</ele><time>2026-05-02T04:27:36.787Z</time></trkpt><trkpt lat="43.9760583" lon="12.7011417"><ele>3.0</ele><time>2026-05-02T04:27:37.786Z</time></trkpt><trkpt lat="43.9759767" lon="12.70128"><ele>3.0</ele><time>2026-05-02T04:27:38.786Z</time></trkpt><trkpt lat="43.9758867" lon="12.7014183"><ele>2.5</ele><time>2026-05-02T04:27:39.786Z</time></trkpt><trkpt lat="43.9757917" lon="12.70156"><ele>2.0</ele><time>2026-05-02T04:27:40.788Z</time></trkpt><trkpt lat="43.97569" lon="12.7017"><ele>1.5</ele><time>2026-05-02T04:27:41.789Z</time></trkpt><trkpt lat="43.97558" lon="12.7018367"><ele>1.0</ele><time>2026-05-02T04:27:42.786Z</time></trkpt><trkpt lat="43.9754633" lon="12.7019633"><ele>1.0</ele><time>2026-05-02T04:27:43.786Z</time></trkpt><trkpt lat="43.9753483" lon="12.7020883"><ele>1.0</ele><time>2026-05-02T04:27:44.787Z</time></trkpt><trkpt lat="43.9752317" lon="12.702215"><ele>1.0</ele><time>2026-05-02T04:27:45.786Z</time></trkpt><trkpt lat="43.9751183" lon="12.7023467"><ele>1.0</ele><time>2026-05-02T04:27:46.786Z</time></trkpt><trkpt lat="43.9750117" lon="12.7024933"><ele>1.0</ele><time>2026-05-02T04:27:47.787Z</time></trkpt><trkpt lat="43.9749133" lon="12.7026467"><ele>1.0</ele><time>2026-05-02T04:27:48.786Z</time></trkpt><trkpt lat="43.9748167" lon="12.70281"><ele>1.0</ele><time>2026-05-02T04:27:49.786Z</time></trkpt><trkpt lat="43.9747233" lon="12.7029867"><ele>1.0</ele><time>2026-05-02T04:27:50.786Z</time></trkpt><trkpt lat="43.974635" lon="12.7031717"><ele>1.0</ele><time>2026-05-02T04:27:51.786Z</time></trkpt><trkpt lat="43.9745433" lon="12.7033633"><ele>1.0</ele><time>2026-05-02T04:27:52.789Z</time></trkpt><trkpt lat="43.974445" lon="12.7035583"><ele>1.0</ele><time>2026-05-02T04:27:53.786Z</time></trkpt><trkpt lat="43.9743467" lon="12.703755"><ele>1.0</ele><time>2026-05-02T04:27:54.786Z</time></trkpt><trkpt lat="43.9742483" lon="12.7039517"><ele>1.0</ele><time>2026-05-02T04:27:55.786Z</time></trkpt><trkpt lat="43.97415" lon="12.7041517"><ele>1.0</ele><time>2026-05-02T04:27:56.787Z</time></trkpt><trkpt lat="43.97405" lon="12.704355"><ele>1.0</ele><time>2026-05-02T04:27:57.786Z</time></trkpt><trkpt lat="43.97395" lon="12.7045617"><ele>1.0</ele><time>2026-05-02T04:27:58.788Z</time></trkpt><trkpt lat="43.97385" lon="12.70477"><ele>1.0</ele><time>2026-05-02T04:27:59.786Z</time></trkpt><trkpt lat="43.9737483" lon="12.704975"><ele>1.0</ele><time>2026-05-02T04:28:00.786Z</time></trkpt><trkpt lat="43.97365" lon="12.7051783"><ele>1.0</ele><time>2026-05-02T04:28:01.786Z</time></trkpt><trkpt lat="43.9735517" lon="12.70538"><ele>1.0</ele><time>2026-05-02T04:28:02.786Z</time></trkpt><trkpt lat="43.97345" lon="12.70558"><ele>1.0</ele><time>2026-05-02T04:28:03.789Z</time></trkpt><trkpt lat="43.9733517" lon="12.7057817"><ele>1.0</ele><time>2026-05-02T04:28:04.79Z</time></trkpt><trkpt lat="43.9732517" lon="12.705985"><ele>0.3333333333333333</ele><time>2026-05-02T04:28:05.787Z</time></trkpt><trkpt lat="43.9731483" lon="12.706185"><ele>-0.3333333333333333</ele><time>2026-05-02T04:28:06.786Z</time></trkpt><trkpt lat="43.973045" lon="12.706385"><ele>-1.0</ele><time>2026-05-02T04:28:07.786Z</time></trkpt><trkpt lat="43.97294" lon="12.7065833"><ele>-1.0</ele><time>2026-05-02T04:28:08.787Z</time></trkpt><trkpt lat="43.9728383" lon="12.7067833"><ele>-1.0</ele><time>2026-05-02T04:28:09.787Z</time></trkpt><trkpt lat="43.9727367" lon="12.7069767"><ele>-1.0</ele><time>2026-05-02T04:28:10.787Z</time></trkpt><trkpt lat="43.9726317" lon="12.707165"><ele>-1.0</ele><time>2026-05-02T04:28:11.787Z</time></trkpt><trkpt lat="43.972525" lon="12.707355"><ele>-1.0</ele><time>2026-05-02T04:28:12.786Z</time></trkpt><trkpt lat="43.9724217" lon="12.7075467"><ele>-1.0</ele><time>2026-05-02T04:28:13.786Z</time></trkpt><trkpt lat="43.9723183" lon="12.70774"><ele>-0.6666666666666666</ele><time>2026-05-02T04:28:14.788Z</time></trkpt><trkpt lat="43.9722167" lon="12.70793"><ele>-0.3333333333333333</ele><time>2026-05-02T04:28:15.788Z</time></trkpt><trkpt lat="43.9721183" lon="12.7081233"><ele>0.0</ele><time>2026-05-02T04:28:16.786Z</time></trkpt><trkpt lat="43.9720167" lon="12.70831"><ele>0.0</ele><time>2026-05-02T04:28:17.786Z</time></trkpt><trkpt lat="43.971915" lon="12.7085033"><ele>0.0</ele><time>2026-05-02T04:28:18.786Z</time></trkpt><trkpt lat="43.971815" lon="12.708695"><ele>0.0</ele><time>2026-05-02T04:28:19.787Z</time></trkpt><trkpt lat="43.9717167" lon="12.7088867"><ele>0.0</ele><time>2026-05-02T04:28:20.787Z</time></trkpt><trkpt lat="43.9716167" lon="12.7090767"><ele>0.0</ele><time>2026-05-02T04:28:21.787Z</time></trkpt><trkpt lat="43.971515" lon="12.7092667"><ele>0.0</ele><time>2026-05-02T04:28:22.786Z</time></trkpt><trkpt lat="43.971415" lon="12.7094583"><ele>0.0</ele><time>2026-05-02T04:28:23.786Z</time></trkpt><trkpt lat="43.971315" lon="12.7096483"><ele>0.0</ele><time>2026-05-02T04:28:24.787Z</time></trkpt><trkpt lat="43.971215" lon="12.7098367"><ele>0.0</ele><time>2026-05-02T04:28:25.789Z</time></trkpt><trkpt lat="43.97112" lon="12.7100217"><ele>0.0</ele><time>2026-05-02T04:28:26.786Z</time></trkpt><trkpt lat="43.97103" lon="12.7102133"><ele>0.0</ele><time>2026-05-02T04:28:27.79Z</time></trkpt><trkpt lat="43.9709533" lon="12.710405"><ele>0.0</ele><time>2026-05-02T04:28:28.789Z</time></trkpt><trkpt lat="43.9708883" lon="12.7106017"><ele>0.25</ele><time>2026-05-02T04:28:29.789Z</time></trkpt><trkpt lat="43.970835" lon="12.7107933"><ele>0.5</ele><time>2026-05-02T04:28:30.789Z</time></trkpt><trkpt lat="43.97079" lon="12.7109733"><ele>0.75</ele><time>2026-05-02T04:28:31.79Z</time></trkpt><trkpt lat="43.970755" lon="12.71114"><ele>1.0</ele><time>2026-05-02T04:28:32.789Z</time></trkpt><trkpt lat="43.9707267" lon="12.7112967"><ele>1.0</ele><time>2026-05-02T04:28:33.789Z</time></trkpt><trkpt lat="43.9707" lon="12.7114367"><ele>1.0</ele><time>2026-05-02T04:28:34.789Z</time></trkpt><trkpt lat="43.97068" lon="12.7115667"><ele>1.0</ele><time>2026-05-02T04:28:35.789Z</time></trkpt><trkpt lat="43.97066" lon="12.71168"><ele>1.0</ele><time>2026-05-02T04:28:36.79Z</time></trkpt><trkpt lat="43.97064" lon="12.7117783"><ele>1.0</ele><time>2026-05-02T04:28:37.786Z</time></trkpt><trkpt lat="43.97058" lon="12.7119117"><ele>1.0</ele><time>2026-05-02T04:28:39.786Z</time></trkpt><trkpt lat="43.9704817" lon="12.7120433"><ele>1.0</ele><time>2026-05-02T04:28:41.788Z</time></trkpt><trkpt lat="43.9704317" lon="12.7121367"><ele>1.0</ele><time>2026-05-02T04:28:42.787Z</time></trkpt><trkpt lat="43.9703767" lon="12.71224"><ele>1.0</ele><time>2026-05-02T04:28:43.786Z</time></trkpt><trkpt lat="43.9703067" lon="12.7123317"><ele>1.0</ele><time>2026-05-02T04:28:44.786Z</time></trkpt><trkpt lat="43.9702183" lon="12.71241"><ele>1.0</ele><time>2026-05-02T04:28:45.786Z</time></trkpt><trkpt lat="43.9701217" lon="12.712485"><ele>1.0</ele><time>2026-05-02T04:28:46.786Z</time></trkpt><trkpt lat="43.9700217" lon="12.7125667"><ele>1.0</ele><time>2026-05-02T04:28:47.788Z</time></trkpt><trkpt lat="43.96992" lon="12.7126667"><ele>1.0</ele><time>2026-05-02T04:28:48.786Z</time></trkpt><trkpt lat="43.9698217" lon="12.7127783"><ele>1.5</ele><time>2026-05-02T04:28:49.787Z</time></trkpt><trkpt lat="43.9697267" lon="12.71291"><ele>2.0</ele><time>2026-05-02T04:28:50.789Z</time></trkpt><trkpt lat="43.9696383" lon="12.713055"><ele>2.5</ele><time>2026-05-02T04:28:51.789Z</time></trkpt><trkpt lat="43.9695533" lon="12.713215"><ele>3.0</ele><time>2026-05-02T04:28:52.789Z</time></trkpt><trkpt lat="43.9694783" lon="12.71339"><ele>3.333333333333333</ele><time>2026-05-02T04:28:53.789Z</time></trkpt><trkpt lat="43.969405" lon="12.7135733"><ele>3.6666666666666665</ele><time>2026-05-02T04:28:54.789Z</time></trkpt><trkpt lat="43.9693333" lon="12.7137667"><ele>4.0</ele><time>2026-05-02T04:28:55.789Z</time></trkpt><trkpt lat="43.969265" lon="12.713965"><ele>4.0</ele><time>2026-05-02T04:28:56.789Z</time></trkpt><trkpt lat="43.9691983" lon="12.7141617"><ele>4.0</ele><time>2026-05-02T04:28:57.789Z</time></trkpt><trkpt lat="43.9691333" lon="12.7143517"><ele>4.0</ele><time>2026-05-02T04:28:58.79Z</time></trkpt><trkpt lat="43.969075" lon="12.7145317"><ele>3.75</ele><time>2026-05-02T04:28:59.789Z</time></trkpt><trkpt lat="43.9690317" lon="12.71471"><ele>3.5</ele><time>2026-05-02T04:29:00.789Z</time></trkpt><trkpt lat="43.969005" lon="12.7148867"><ele>3.25</ele><time>2026-05-02T04:29:01.789Z</time></trkpt><trkpt lat="43.9689883" lon="12.7150667"><ele>3.0</ele><time>2026-05-02T04:29:02.789Z</time></trkpt><trkpt lat="43.9689817" lon="12.7152483"><ele>2.5</ele><time>2026-05-02T04:29:03.789Z</time></trkpt><trkpt lat="43.9689883" lon="12.7154383"><ele>2.0</ele><time>2026-05-02T04:29:04.79Z</time></trkpt><trkpt lat="43.96901" lon="12.71563"><ele>1.5</ele><time>2026-05-02T04:29:05.789Z</time></trkpt><trkpt lat="43.96904" lon="12.7158183"><ele>1.0</ele><time>2026-05-02T04:29:06.789Z</time></trkpt><trkpt lat="43.9690783" lon="12.7159933"><ele>1.1666666666666665</ele><time>2026-05-02T04:29:07.786Z</time></trkpt><trkpt lat="43.9691183" lon="12.716135"><ele>1.3333333333333333</ele><time>2026-05-02T04:29:08.786Z</time></trkpt><trkpt lat="43.9691483" lon="12.7162317"><ele>1.5</ele><time>2026-05-02T04:29:09.786Z</time></trkpt><trkpt lat="43.9691783" lon="12.716325"><ele>1.6666666666666665</ele><time>2026-05-02T04:29:11.787Z</time></trkpt><trkpt lat="43.9692033" lon="12.7164117"><ele>1.8333333333333333</ele><time>2026-05-02T04:29:15.786Z</time></trkpt><trkpt lat="43.9692683" lon="12.7165217"><ele>2.0</ele><time>2026-05-02T04:29:17.787Z</time></trkpt><trkpt lat="43.9693267" lon="12.7166633"><ele>1.9999999999999998</ele><time>2026-05-02T04:29:19.787Z</time></trkpt><trkpt lat="43.969355" lon="12.7167483"><ele>2.0</ele><time>2026-05-02T04:29:20.79Z</time></trkpt><trkpt lat="43.9693833" lon="12.7168383"><ele>2.0</ele><time>2026-05-02T04:29:21.789Z</time></trkpt><trkpt lat="43.96941" lon="12.7169383"><ele>2.0</ele><time>2026-05-02T04:29:22.789Z</time></trkpt><trkpt lat="43.9694367" lon="12.7170467"><ele>1.9999999999999998</ele><time>2026-05-02T04:29:23.789Z</time></trkpt><trkpt lat="43.9694567" lon="12.7171633"><ele>2.0</ele><time>2026-05-02T04:29:24.791Z</time></trkpt><trkpt lat="43.9694717" lon="12.71728"><ele>2.0</ele><time>2026-05-02T04:29:25.791Z</time></trkpt><trkpt lat="43.9694817" lon="12.7174133"><ele>2.0</ele><time>2026-05-02T04:29:26.789Z</time></trkpt><trkpt lat="43.9694817" lon="12.71756"><ele>2.0</ele><time>2026-05-02T04:29:27.789Z</time></trkpt><trkpt lat="43.9694783" lon="12.717715"><ele>2.0</ele><time>2026-05-02T04:29:28.789Z</time></trkpt><trkpt lat="43.9694667" lon="12.7178667"><ele>2.0</ele><time>2026-05-02T04:29:29.789Z</time></trkpt><trkpt lat="43.9694483" lon="12.7180117"><ele>2.0</ele><time>2026-05-02T04:29:30.789Z</time></trkpt><trkpt lat="43.96942" lon="12.71816"><ele>2.0</ele><time>2026-05-02T04:29:31.787Z</time></trkpt><trkpt lat="43.9693867" lon="12.718315"><ele>2.0</ele><time>2026-05-02T04:29:32.787Z</time></trkpt><trkpt lat="43.9693483" lon="12.7184717"><ele>2.0</ele><time>2026-05-02T04:29:33.79Z</time></trkpt><trkpt lat="43.96931" lon="12.7186383"><ele>2.0</ele><time>2026-05-02T04:29:34.786Z</time></trkpt><trkpt lat="43.9692683" lon="12.718805"><ele>2.0</ele><time>2026-05-02T04:29:35.787Z</time></trkpt><trkpt lat="43.9692267" lon="12.7189767"><ele>2.0</ele><time>2026-05-02T04:29:36.789Z</time></trkpt><trkpt lat="43.9691867" lon="12.7191533"><ele>2.0</ele><time>2026-05-02T04:29:37.786Z</time></trkpt><trkpt lat="43.9691467" lon="12.7193167"><ele>2.25</ele><time>2026-05-02T04:29:38.787Z</time></trkpt><trkpt lat="43.9691067" lon="12.7194817"><ele>2.5</ele><time>2026-05-02T04:29:39.787Z</time></trkpt><trkpt lat="43.9690633" lon="12.7196533"><ele>2.75</ele><time>2026-05-02T04:29:40.787Z</time></trkpt><trkpt lat="43.9690217" lon="12.719835"><ele>3.0</ele><time>2026-05-02T04:29:41.789Z</time></trkpt><trkpt lat="43.9689783" lon="12.72002"><ele>3.0</ele><time>2026-05-02T04:29:42.789Z</time></trkpt><trkpt lat="43.968935" lon="12.7202083"><ele>3.0</ele><time>2026-05-02T04:29:43.79Z</time></trkpt><trkpt lat="43.9688867" lon="12.7203917"><ele>3.0</ele><time>2026-05-02T04:29:44.788Z</time></trkpt><trkpt lat="43.96884" lon="12.7205733"><ele>3.0</ele><time>2026-05-02T04:29:45.787Z</time></trkpt><trkpt lat="43.9687933" lon="12.7207567"><ele>3.0</ele><time>2026-05-02T04:29:46.788Z</time></trkpt><trkpt lat="43.9687433" lon="12.7209383"><ele>3.0</ele><time>2026-05-02T04:29:47.788Z</time></trkpt><trkpt lat="43.9686867" lon="12.721125"><ele>3.0</ele><time>2026-05-02T04:29:48.787Z</time></trkpt><trkpt lat="43.9686333" lon="12.7213117"><ele>3.0</ele><time>2026-05-02T04:29:49.787Z</time></trkpt><trkpt lat="43.9685817" lon="12.7214933"><ele>3.0</ele><time>2026-05-02T04:29:50.79Z</time></trkpt><trkpt lat="43.968525" lon="12.721675"><ele>3.0</ele><time>2026-05-02T04:29:51.789Z</time></trkpt><trkpt lat="43.9684733" lon="12.7218417"><ele>3.0</ele><time>2026-05-02T04:29:52.787Z</time></trkpt><trkpt lat="43.96842" lon="12.722005"><ele>3.0</ele><time>2026-05-02T04:29:53.786Z</time></trkpt><trkpt lat="43.96837" lon="12.7221583"><ele>3.0</ele><time>2026-05-02T04:29:54.789Z</time></trkpt><trkpt lat="43.968325" lon="12.7223017"><ele>3.0</ele><time>2026-05-02T04:29:55.79Z</time></trkpt><trkpt lat="43.9682833" lon="12.72244"><ele>3.0</ele><time>2026-05-02T04:29:56.787Z</time></trkpt><trkpt lat="43.9682383" lon="12.7225633"><ele>3.0</ele><time>2026-05-02T04:29:57.787Z</time></trkpt><trkpt lat="43.9681917" lon="12.72267"><ele>3.0</ele><time>2026-05-02T04:29:58.79Z</time></trkpt><trkpt lat="43.9681483" lon="12.72277"><ele>2.8</ele><time>2026-05-02T04:29:59.789Z</time></trkpt><trkpt lat="43.9681083" lon="12.7228667"><ele>2.5999999999999996</ele><time>2026-05-02T04:30:00.789Z</time></trkpt><trkpt lat="43.9680817" lon="12.722985"><ele>2.4000000000000004</ele><time>2026-05-02T04:30:01.789Z</time></trkpt><trkpt lat="43.9680533" lon="12.7231167"><ele>2.2</ele><time>2026-05-02T04:30:02.792Z</time></trkpt><trkpt lat="43.9680183" lon="12.723255"><ele>2.0</ele><time>2026-05-02T04:30:03.789Z</time></trkpt><trkpt lat="43.9679733" lon="12.7233967"><ele>2.0</ele><time>2026-05-02T04:30:04.789Z</time></trkpt><trkpt lat="43.967925" lon="12.7235517"><ele>2.0</ele><time>2026-05-02T04:30:05.789Z</time></trkpt><trkpt lat="43.9678733" lon="12.7237117"><ele>2.0</ele><time>2026-05-02T04:30:06.789Z</time></trkpt><trkpt lat="43.9678217" lon="12.72387"><ele>2.0</ele><time>2026-05-02T04:30:07.786Z</time></trkpt><trkpt lat="43.967765" lon="12.7240333"><ele>2.5</ele><time>2026-05-02T04:30:08.787Z</time></trkpt><trkpt lat="43.9677133" lon="12.724195"><ele>3.0</ele><time>2026-05-02T04:30:09.788Z</time></trkpt><trkpt lat="43.9676633" lon="12.7243583"><ele>3.5</ele><time>2026-05-02T04:30:10.787Z</time></trkpt><trkpt lat="43.9676183" lon="12.724525"><ele>4.0</ele><time>2026-05-02T04:30:11.787Z</time></trkpt><trkpt lat="43.9675683" lon="12.724685"><ele>4.0</ele><time>2026-05-02T04:30:12.787Z</time></trkpt><trkpt lat="43.9675183" lon="12.7248333"><ele>4.0</ele><time>2026-05-02T04:30:13.786Z</time></trkpt><trkpt lat="43.9674633" lon="12.724965"><ele>4.0</ele><time>2026-05-02T04:30:14.787Z</time></trkpt><trkpt lat="43.96741" lon="12.7250767"><ele>4.0</ele><time>2026-05-02T04:30:15.787Z</time></trkpt><trkpt lat="43.9673517" lon="12.725175"><ele>4.0</ele><time>2026-05-02T04:30:16.788Z</time></trkpt><trkpt lat="43.96729" lon="12.7252617"><ele>4.0</ele><time>2026-05-02T04:30:17.787Z</time></trkpt><trkpt lat="43.96724" lon="12.7253517"><ele>4.0</ele><time>2026-05-02T04:30:18.787Z</time></trkpt><trkpt lat="43.9671983" lon="12.7254633"><ele>4.0</ele><time>2026-05-02T04:30:19.788Z</time></trkpt><trkpt lat="43.96718" lon="12.7255933"><ele>4.0</ele><time>2026-05-02T04:30:20.788Z</time></trkpt><trkpt lat="43.96717" lon="12.72573"><ele>4.0</ele><time>2026-05-02T04:30:21.788Z</time></trkpt><trkpt lat="43.9671533" lon="12.7258833"><ele>4.0</ele><time>2026-05-02T04:30:22.787Z</time></trkpt><trkpt lat="43.9671133" lon="12.72604"><ele>4.0</ele><time>2026-05-02T04:30:23.787Z</time></trkpt><trkpt lat="43.9670683" lon="12.7262067"><ele>4.0</ele><time>2026-05-02T04:30:24.789Z</time></trkpt><trkpt lat="43.9670217" lon="12.7263833"><ele>4.0</ele><time>2026-05-02T04:30:25.79Z</time></trkpt><trkpt lat="43.9669767" lon="12.726565"><ele>4.25</ele><time>2026-05-02T04:30:26.79Z</time></trkpt><trkpt lat="43.9669283" lon="12.7267417"><ele>4.5</ele><time>2026-05-02T04:30:27.786Z</time></trkpt><trkpt lat="43.96688" lon="12.7269133"><ele>4.75</ele><time>2026-05-02T04:30:28.786Z</time></trkpt><trkpt lat="43.9668317" lon="12.727085"><ele>5.0</ele><time>2026-05-02T04:30:29.79Z</time></trkpt><trkpt lat="43.96678" lon="12.7272633"><ele>5.0</ele><time>2026-05-02T04:30:30.789Z</time></trkpt><trkpt lat="43.9667283" lon="12.7274417"><ele>5.0</ele><time>2026-05-02T04:30:31.789Z</time></trkpt><trkpt lat="43.96668" lon="12.7276267"><ele>5.0</ele><time>2026-05-02T04:30:32.79Z</time></trkpt><trkpt lat="43.9666333" lon="12.7278183"><ele>5.0</ele><time>2026-05-02T04:30:33.79Z</time></trkpt><trkpt lat="43.9665883" lon="12.728005"><ele>5.0</ele><time>2026-05-02T04:30:34.79Z</time></trkpt><trkpt lat="43.9665417" lon="12.7281817"><ele>5.0</ele><time>2026-05-02T04:30:35.79Z</time></trkpt><trkpt lat="43.9665" lon="12.7283433"><ele>5.0</ele><time>2026-05-02T04:30:36.79Z</time></trkpt><trkpt lat="43.9664617" lon="12.7284983"><ele>5.0</ele><time>2026-05-02T04:30:37.789Z</time></trkpt><trkpt lat="43.9664233" lon="12.7286467"><ele>5.0</ele><time>2026-05-02T04:30:38.791Z</time></trkpt><trkpt lat="43.9663883" lon="12.7288067"><ele>5.0</ele><time>2026-05-02T04:30:39.786Z</time></trkpt><trkpt lat="43.966355" lon="12.7289633"><ele>5.0</ele><time>2026-05-02T04:30:40.786Z</time></trkpt><trkpt lat="43.9663233" lon="12.7291267"><ele>5.0</ele><time>2026-05-02T04:30:41.786Z</time></trkpt><trkpt lat="43.9663" lon="12.72928"><ele>5.0</ele><time>2026-05-02T04:30:42.789Z</time></trkpt><trkpt lat="43.96628" lon="12.7294267"><ele>5.0</ele><time>2026-05-02T04:30:43.789Z</time></trkpt><trkpt lat="43.9662567" lon="12.7295633"><ele>5.0</ele><time>2026-05-02T04:30:44.788Z</time></trkpt><trkpt lat="43.966235" lon="12.7296967"><ele>5.0</ele><time>2026-05-02T04:30:45.79Z</time></trkpt><trkpt lat="43.9662233" lon="12.72982"><ele>5.0</ele><time>2026-05-02T04:30:46.786Z</time></trkpt><trkpt lat="43.9662033" lon="12.7299267"><ele>5.0</ele><time>2026-05-02T04:30:47.787Z</time></trkpt><trkpt lat="43.9661833" lon="12.7300367"><ele>5.0</ele><time>2026-05-02T04:30:48.787Z</time></trkpt><trkpt lat="43.9661667" lon="12.7301567"><ele>5.0</ele><time>2026-05-02T04:30:49.786Z</time></trkpt><trkpt lat="43.96615" lon="12.730285"><ele>5.0</ele><time>2026-05-02T04:30:50.788Z</time></trkpt><trkpt lat="43.9661317" lon="12.7304167"><ele>5.0</ele><time>2026-05-02T04:30:51.787Z</time></trkpt><trkpt lat="43.966105" lon="12.7305533"><ele>5.2</ele><time>2026-05-02T04:30:52.788Z</time></trkpt><trkpt lat="43.9660833" lon="12.7307"><ele>5.4</ele><time>2026-05-02T04:30:53.787Z</time></trkpt><trkpt lat="43.96606" lon="12.7308533"><ele>5.6</ele><time>2026-05-02T04:30:54.786Z</time></trkpt><trkpt lat="43.966035" lon="12.731005"><ele>5.8</ele><time>2026-05-02T04:30:55.787Z</time></trkpt><trkpt lat="43.9660067" lon="12.7311617"><ele>6.0</ele><time>2026-05-02T04:30:56.789Z</time></trkpt><trkpt lat="43.9659833" lon="12.7313217"><ele>6.0</ele><time>2026-05-02T04:30:57.786Z</time></trkpt><trkpt lat="43.9659567" lon="12.7314717"><ele>6.0</ele><time>2026-05-02T04:30:58.789Z</time></trkpt><trkpt lat="43.9659383" lon="12.73161"><ele>6.0</ele><time>2026-05-02T04:30:59.788Z</time></trkpt><trkpt lat="43.9659233" lon="12.7317433"><ele>6.0</ele><time>2026-05-02T04:31:00.787Z</time></trkpt><trkpt lat="43.965905" lon="12.73187"><ele>6.0</ele><time>2026-05-02T04:31:01.787Z</time></trkpt><trkpt lat="43.9658883" lon="12.7319917"><ele>6.199999999999999</ele><time>2026-05-02T04:31:02.787Z</time></trkpt><trkpt lat="43.9658667" lon="12.7321117"><ele>6.3999999999999995</ele><time>2026-05-02T04:31:03.79Z</time></trkpt><trkpt lat="43.9658517" lon="12.73224"><ele>6.6</ele><time>2026-05-02T04:31:04.791Z</time></trkpt><trkpt lat="43.9658367" lon="12.732365"><ele>6.8</ele><time>2026-05-02T04:31:05.786Z</time></trkpt><trkpt lat="43.9658217" lon="12.73249"><ele>7.0</ele><time>2026-05-02T04:31:06.786Z</time></trkpt><trkpt lat="43.9658067" lon="12.73261"><ele>6.6</ele><time>2026-05-02T04:31:07.786Z</time></trkpt><trkpt lat="43.96579" lon="12.7327383"><ele>6.199999999999999</ele><time>2026-05-02T04:31:08.786Z</time></trkpt><trkpt lat="43.9657733" lon="12.7328683"><ele>5.8</ele><time>2026-05-02T04:31:09.786Z</time></trkpt><trkpt lat="43.9657433" lon="12.7330117"><ele>5.4</ele><time>2026-05-02T04:31:10.789Z</time></trkpt><trkpt lat="43.965715" lon="12.73315"><ele>5.0</ele><time>2026-05-02T04:31:11.787Z</time></trkpt><trkpt lat="43.9656967" lon="12.7332783"><ele>5.0</ele><time>2026-05-02T04:31:12.789Z</time></trkpt><trkpt lat="43.9656733" lon="12.7334017"><ele>5.0</ele><time>2026-05-02T04:31:13.79Z</time></trkpt><trkpt lat="43.9656433" lon="12.7335217"><ele>5.0</ele><time>2026-05-02T04:31:14.786Z</time></trkpt><trkpt lat="43.9656183" lon="12.7336483"><ele>5.0</ele><time>2026-05-02T04:31:15.786Z</time></trkpt><trkpt lat="43.9655967" lon="12.733775"><ele>5.0</ele><time>2026-05-02T04:31:16.786Z</time></trkpt><trkpt lat="43.9655767" lon="12.7338933"><ele>5.0</ele><time>2026-05-02T04:31:17.788Z</time></trkpt><trkpt lat="43.9655583" lon="12.7340017"><ele>5.0</ele><time>2026-05-02T04:31:18.786Z</time></trkpt><trkpt lat="43.9655383" lon="12.734105"><ele>5.0</ele><time>2026-05-02T04:31:19.787Z</time></trkpt><trkpt lat="43.965515" lon="12.7342017"><ele>5.0</ele><time>2026-05-02T04:31:20.79Z</time></trkpt><trkpt lat="43.9654967" lon="12.7342867"><ele>5.0</ele><time>2026-05-02T04:31:21.786Z</time></trkpt><trkpt lat="43.9654717" lon="12.7344367"><ele>5.0</ele><time>2026-05-02T04:31:23.789Z</time></trkpt><trkpt lat="43.9654317" lon="12.734555"><ele>5.0</ele><time>2026-05-02T04:31:25.789Z</time></trkpt><trkpt lat="43.9653533" lon="12.734605"><ele>5.0</ele><time>2026-05-02T04:31:27.789Z</time></trkpt><trkpt lat="43.9652433" lon="12.7346183"><ele>5.0</ele><time>2026-05-02T04:31:29.79Z</time></trkpt><trkpt lat="43.9651683" lon="12.734605"><ele>5.0</ele><time>2026-05-02T04:31:30.787Z</time></trkpt><trkpt lat="43.9650583" lon="12.7345833"><ele>5.0</ele><time>2026-05-02T04:31:31.786Z</time></trkpt><trkpt lat="43.9649333" lon="12.7345617"><ele>5.25</ele><time>2026-05-02T04:31:32.786Z</time></trkpt><trkpt lat="43.9647933" lon="12.7345283"><ele>5.5</ele><time>2026-05-02T04:31:33.787Z</time></trkpt><trkpt lat="43.9646617" lon="12.7345067"><ele>5.75</ele><time>2026-05-02T04:31:34.786Z</time></trkpt><trkpt lat="43.9645233" lon="12.7344883"><ele>6.0</ele><time>2026-05-02T04:31:35.789Z</time></trkpt><trkpt lat="43.9644" lon="12.73446"><ele>6.0</ele><time>2026-05-02T04:31:36.786Z</time></trkpt><trkpt lat="43.96428" lon="12.7344317"><ele>6.0</ele><time>2026-05-02T04:31:37.787Z</time></trkpt><trkpt lat="43.9641567" lon="12.7344083"><ele>6.0</ele><time>2026-05-02T04:31:38.787Z</time></trkpt><trkpt lat="43.9640367" lon="12.73438"><ele>6.0</ele><time>2026-05-02T04:31:39.786Z</time></trkpt><trkpt lat="43.96392" lon="12.7343483"><ele>5.6</ele><time>2026-05-02T04:31:40.787Z</time></trkpt><trkpt lat="43.9637967" lon="12.7343167"><ele>5.199999999999999</ele><time>2026-05-02T04:31:41.789Z</time></trkpt><trkpt lat="43.9636917" lon="12.734285"><ele>4.800000000000001</ele><time>2026-05-02T04:31:42.789Z</time></trkpt><trkpt lat="43.9635817" lon="12.7342633"><ele>4.4</ele><time>2026-05-02T04:31:43.786Z</time></trkpt><trkpt lat="43.9634817" lon="12.7342417"><ele>4.0</ele><time>2026-05-02T04:31:44.787Z</time></trkpt><trkpt lat="43.963405" lon="12.7342317"><ele>4.2</ele><time>2026-05-02T04:31:45.787Z</time></trkpt><trkpt lat="43.9633" lon="12.7341817"><ele>4.4</ele><time>2026-05-02T04:31:47.787Z</time></trkpt><trkpt lat="43.96321" lon="12.7340817"><ele>4.6</ele><time>2026-05-02T04:31:49.786Z</time></trkpt><trkpt lat="43.963105" lon="12.7340467"><ele>4.8</ele><time>2026-05-02T04:31:51.789Z</time></trkpt><trkpt lat="43.9630367" lon="12.7340583"><ele>5.0</ele><time>2026-05-02T04:31:52.789Z</time></trkpt><trkpt lat="43.9629483" lon="12.73407"><ele>5.0</ele><time>2026-05-02T04:31:53.789Z</time></trkpt><trkpt lat="43.9628483" lon="12.7340667"><ele>5.0</ele><time>2026-05-02T04:31:54.79Z</time></trkpt><trkpt lat="43.9627433" lon="12.73406"><ele>5.0</ele><time>2026-05-02T04:31:55.789Z</time></trkpt><trkpt lat="43.962635" lon="12.7340533"><ele>5.0</ele><time>2026-05-02T04:31:56.79Z</time></trkpt><trkpt lat="43.9625133" lon="12.73404"><ele>5.0</ele><time>2026-05-02T04:31:57.787Z</time></trkpt><trkpt lat="43.9623917" lon="12.7340267"><ele>5.75</ele><time>2026-05-02T04:31:58.788Z</time></trkpt><trkpt lat="43.9622617" lon="12.7340117"><ele>6.5</ele><time>2026-05-02T04:31:59.787Z</time></trkpt><trkpt lat="43.9621267" lon="12.7340017"><ele>7.25</ele><time>2026-05-02T04:32:00.787Z</time></trkpt><trkpt lat="43.9619917" lon="12.7339867"><ele>8.0</ele><time>2026-05-02T04:32:01.787Z</time></trkpt><trkpt lat="43.9618567" lon="12.73397"><ele>8.0</ele><time>2026-05-02T04:32:02.787Z</time></trkpt><trkpt lat="43.9617083" lon="12.7339633"><ele>8.0</ele><time>2026-05-02T04:32:03.787Z</time></trkpt><trkpt lat="43.9615717" lon="12.73395"><ele>8.0</ele><time>2026-05-02T04:32:04.787Z</time></trkpt><trkpt lat="43.9614417" lon="12.7339333"><ele>8.0</ele><time>2026-05-02T04:32:05.787Z</time></trkpt><trkpt lat="43.961315" lon="12.73391"><ele>8.5</ele><time>2026-05-02T04:32:06.787Z</time></trkpt><trkpt lat="43.96119" lon="12.73389"><ele>9.0</ele><time>2026-05-02T04:32:07.788Z</time></trkpt><trkpt lat="43.96106" lon="12.7338683"><ele>9.5</ele><time>2026-05-02T04:32:08.787Z</time></trkpt><trkpt lat="43.960935" lon="12.7338533"><ele>10.0</ele><time>2026-05-02T04:32:09.788Z</time></trkpt><trkpt lat="43.9608133" lon="12.733835"><ele>10.4</ele><time>2026-05-02T04:32:10.787Z</time></trkpt><trkpt lat="43.9606967" lon="12.733825"><ele>10.8</ele><time>2026-05-02T04:32:11.787Z</time></trkpt><trkpt lat="43.9605933" lon="12.733815"><ele>11.2</ele><time>2026-05-02T04:32:12.788Z</time></trkpt><trkpt lat="43.9604933" lon="12.7338033"><ele>11.6</ele><time>2026-05-02T04:32:13.79Z</time></trkpt><trkpt lat="43.9603783" lon="12.733785"><ele>12.0</ele><time>2026-05-02T04:32:15.787Z</time></trkpt><trkpt lat="43.96028" lon="12.73385"><ele>12.0</ele><time>2026-05-02T04:32:17.791Z</time></trkpt><trkpt lat="43.960225" lon="12.7339167"><ele>12.0</ele><time>2026-05-02T04:32:18.789Z</time></trkpt><trkpt lat="43.9601483" lon="12.73399"><ele>12.0</ele><time>2026-05-02T04:32:19.786Z</time></trkpt><trkpt lat="43.9600583" lon="12.73407"><ele>12.0</ele><time>2026-05-02T04:32:20.786Z</time></trkpt><trkpt lat="43.9599483" lon="12.7341633"><ele>12.0</ele><time>2026-05-02T04:32:21.786Z</time></trkpt><trkpt lat="43.9598367" lon="12.7342433"><ele>12.0</ele><time>2026-05-02T04:32:22.786Z</time></trkpt><trkpt lat="43.9597367" lon="12.7343283"><ele>12.0</ele><time>2026-05-02T04:32:23.79Z</time></trkpt><trkpt lat="43.9596417" lon="12.73441"><ele>12.0</ele><time>2026-05-02T04:32:24.79Z</time></trkpt><trkpt lat="43.9595417" lon="12.7344917"><ele>12.0</ele><time>2026-05-02T04:32:25.79Z</time></trkpt><trkpt lat="43.9594383" lon="12.7345717"><ele>11.75</ele><time>2026-05-02T04:32:26.786Z</time></trkpt><trkpt lat="43.959335" lon="12.7346517"><ele>11.5</ele><time>2026-05-02T04:32:27.789Z</time></trkpt><trkpt lat="43.9592267" lon="12.734735"><ele>11.25</ele><time>2026-05-02T04:32:28.787Z</time></trkpt><trkpt lat="43.9591167" lon="12.7348267"><ele>11.0</ele><time>2026-05-02T04:32:29.787Z</time></trkpt><trkpt lat="43.959005" lon="12.7349217"><ele>11.0</ele><time>2026-05-02T04:32:30.787Z</time></trkpt><trkpt lat="43.9588933" lon="12.73502"><ele>11.0</ele><time>2026-05-02T04:32:31.788Z</time></trkpt><trkpt lat="43.958785" lon="12.73511"><ele>11.0</ele><time>2026-05-02T04:32:32.789Z</time></trkpt><trkpt lat="43.9586867" lon="12.7351983"><ele>11.0</ele><time>2026-05-02T04:32:33.787Z</time></trkpt><trkpt lat="43.9586017" lon="12.7352933"><ele>11.0</ele><time>2026-05-02T04:32:34.79Z</time></trkpt><trkpt lat="43.9585167" lon="12.7353933"><ele>11.0</ele><time>2026-05-02T04:32:35.791Z</time></trkpt><trkpt lat="43.9584383" lon="12.7355167"><ele>11.0</ele><time>2026-05-02T04:32:36.789Z</time></trkpt><trkpt lat="43.958365" lon="12.7356483"><ele>11.0</ele><time>2026-05-02T04:32:37.791Z</time></trkpt><trkpt lat="43.958295" lon="12.7357967"><ele>11.0</ele><time>2026-05-02T04:32:38.789Z</time></trkpt><trkpt lat="43.95823" lon="12.7359483"><ele>11.0</ele><time>2026-05-02T04:32:39.79Z</time></trkpt><trkpt lat="43.9581667" lon="12.7361"><ele>11.0</ele><time>2026-05-02T04:32:40.787Z</time></trkpt><trkpt lat="43.9581067" lon="12.7362367"><ele>11.0</ele><time>2026-05-02T04:32:41.789Z</time></trkpt><trkpt lat="43.9580483" lon="12.7363617"><ele>11.0</ele><time>2026-05-02T04:32:42.789Z</time></trkpt><trkpt lat="43.957995" lon="12.7364783"><ele>11.0</ele><time>2026-05-02T04:32:43.789Z</time></trkpt><trkpt lat="43.9579417" lon="12.7365767"><ele>11.0</ele><time>2026-05-02T04:32:44.789Z</time></trkpt><trkpt lat="43.95788" lon="12.736655"><ele>11.0</ele><time>2026-05-02T04:32:45.789Z</time></trkpt><trkpt lat="43.9578183" lon="12.7367233"><ele>11.0</ele><time>2026-05-02T04:32:46.789Z</time></trkpt><trkpt lat="43.9577667" lon="12.736795"><ele>11.0</ele><time>2026-05-02T04:32:47.79Z</time></trkpt><trkpt lat="43.95772" lon="12.7369533"><ele>11.0</ele><time>2026-05-02T04:32:49.789Z</time></trkpt><trkpt lat="43.95771" lon="12.7370533"><ele>11.0</ele><time>2026-05-02T04:32:50.789Z</time></trkpt><trkpt lat="43.957685" lon="12.7371633"><ele>11.0</ele><time>2026-05-02T04:32:51.789Z</time></trkpt><trkpt lat="43.957645" lon="12.73728"><ele>11.0</ele><time>2026-05-02T04:32:52.789Z</time></trkpt><trkpt lat="43.9575867" lon="12.737395"><ele>11.0</ele><time>2026-05-02T04:32:53.789Z</time></trkpt><trkpt lat="43.9575167" lon="12.7375083"><ele>10.600000000000001</ele><time>2026-05-02T04:32:54.786Z</time></trkpt><trkpt lat="43.9574367" lon="12.7376167"><ele>10.200000000000001</ele><time>2026-05-02T04:32:55.786Z</time></trkpt><trkpt lat="43.9573483" lon="12.737725"><ele>9.8</ele><time>2026-05-02T04:32:56.787Z</time></trkpt><trkpt lat="43.9572567" lon="12.7378183"><ele>9.4</ele><time>2026-05-02T04:32:57.786Z</time></trkpt><trkpt lat="43.9571683" lon="12.7378883"><ele>9.0</ele><time>2026-05-02T04:32:58.787Z</time></trkpt><trkpt lat="43.9570867" lon="12.73793"><ele>9.0</ele><time>2026-05-02T04:32:59.787Z</time></trkpt><trkpt lat="43.957" lon="12.7379533"><ele>9.0</ele><time>2026-05-02T04:33:00.787Z</time></trkpt><trkpt lat="43.9569067" lon="12.7379867"><ele>9.0</ele><time>2026-05-02T04:33:01.787Z</time></trkpt><trkpt lat="43.9567967" lon="12.7380267"><ele>9.0</ele><time>2026-05-02T04:33:02.788Z</time></trkpt><trkpt lat="43.9566733" lon="12.7380617"><ele>9.0</ele><time>2026-05-02T04:33:03.79Z</time></trkpt><trkpt lat="43.95654" lon="12.738085"><ele>9.25</ele><time>2026-05-02T04:33:04.79Z</time></trkpt><trkpt lat="43.9564083" lon="12.7380983"><ele>9.5</ele><time>2026-05-02T04:33:05.789Z</time></trkpt><trkpt lat="43.9562883" lon="12.7381083"><ele>9.75</ele><time>2026-05-02T04:33:06.79Z</time></trkpt><trkpt lat="43.9561817" lon="12.7381133"><ele>10.0</ele><time>2026-05-02T04:33:07.788Z</time></trkpt><trkpt lat="43.956085" lon="12.7381"><ele>10.0</ele><time>2026-05-02T04:33:08.787Z</time></trkpt><trkpt lat="43.9560033" lon="12.738075"><ele>10.0</ele><time>2026-05-02T04:33:09.786Z</time></trkpt><trkpt lat="43.9559283" lon="12.7380567"><ele>10.0</ele><time>2026-05-02T04:33:10.786Z</time></trkpt><trkpt lat="43.9558267" lon="12.7381"><ele>10.0</ele><time>2026-05-02T04:33:12.79Z</time></trkpt><trkpt lat="43.95576" lon="12.7382417"><ele>10.0</ele><time>2026-05-02T04:33:14.786Z</time></trkpt><trkpt lat="43.95576" lon="12.7383767"><ele>10.4</ele><time>2026-05-02T04:33:15.79Z</time></trkpt><trkpt lat="43.95575" lon="12.7385367"><ele>10.8</ele><time>2026-05-02T04:33:16.789Z</time></trkpt><trkpt lat="43.9557267" lon="12.738685"><ele>11.2</ele><time>2026-05-02T04:33:17.789Z</time></trkpt><trkpt lat="43.9557067" lon="12.7388317"><ele>11.6</ele><time>2026-05-02T04:33:18.789Z</time></trkpt><trkpt lat="43.9556833" lon="12.7389767"><ele>12.0</ele><time>2026-05-02T04:33:19.79Z</time></trkpt><trkpt lat="43.9556533" lon="12.73913"><ele>12.5</ele><time>2026-05-02T04:33:20.791Z</time></trkpt><trkpt lat="43.9556233" lon="12.73929"><ele>13.0</ele><time>2026-05-02T04:33:21.789Z</time></trkpt><trkpt lat="43.9555917" lon="12.73946"><ele>13.5</ele><time>2026-05-02T04:33:22.789Z</time></trkpt><trkpt lat="43.9555583" lon="12.7396367"><ele>14.0</ele><time>2026-05-02T04:33:23.79Z</time></trkpt><trkpt lat="43.9555267" lon="12.7398133"><ele>14.25</ele><time>2026-05-02T04:33:24.789Z</time></trkpt><trkpt lat="43.9554983" lon="12.7399867"><ele>14.5</ele><time>2026-05-02T04:33:25.79Z</time></trkpt><trkpt lat="43.9554717" lon="12.7401517"><ele>14.75</ele><time>2026-05-02T04:33:26.786Z</time></trkpt><trkpt lat="43.9554417" lon="12.7403117"><ele>15.0</ele><time>2026-05-02T04:33:27.787Z</time></trkpt><trkpt lat="43.9554133" lon="12.7404733"><ele>15.2</ele><time>2026-05-02T04:33:28.787Z</time></trkpt><trkpt lat="43.9553867" lon="12.74063"><ele>15.4</ele><time>2026-05-02T04:33:29.787Z</time></trkpt><trkpt lat="43.95536" lon="12.740775"><ele>15.600000000000001</ele><time>2026-05-02T04:33:30.788Z</time></trkpt><trkpt lat="43.9553283" lon="12.7409033"><ele>15.8</ele><time>2026-05-02T04:33:31.787Z</time></trkpt><trkpt lat="43.9552883" lon="12.7410083"><ele>16.0</ele><time>2026-05-02T04:33:32.788Z</time></trkpt><trkpt lat="43.95524" lon="12.7411"><ele>15.600000000000001</ele><time>2026-05-02T04:33:33.787Z</time></trkpt><trkpt lat="43.9551883" lon="12.741185"><ele>15.200000000000001</ele><time>2026-05-02T04:33:34.787Z</time></trkpt><trkpt lat="43.955135" lon="12.7412767"><ele>14.799999999999999</ele><time>2026-05-02T04:33:35.79Z</time></trkpt><trkpt lat="43.95508" lon="12.7413817"><ele>14.399999999999999</ele><time>2026-05-02T04:33:36.79Z</time></trkpt><trkpt lat="43.9550233" lon="12.7414983"><ele>14.0</ele><time>2026-05-02T04:33:37.79Z</time></trkpt><trkpt lat="43.9549617" lon="12.741625"><ele>14.0</ele><time>2026-05-02T04:33:38.787Z</time></trkpt><trkpt lat="43.9548983" lon="12.7417567"><ele>13.999999999999998</ele><time>2026-05-02T04:33:39.789Z</time></trkpt><trkpt lat="43.9548333" lon="12.74189"><ele>13.999999999999998</ele><time>2026-05-02T04:33:40.789Z</time></trkpt><trkpt lat="43.95477" lon="12.7420167"><ele>14.0</ele><time>2026-05-02T04:33:41.789Z</time></trkpt><trkpt lat="43.9547083" lon="12.74214"><ele>14.0</ele><time>2026-05-02T04:33:42.789Z</time></trkpt><trkpt lat="43.954645" lon="12.7422633"><ele>14.0</ele><time>2026-05-02T04:33:43.79Z</time></trkpt><trkpt lat="43.9545783" lon="12.7423783"><ele>13.999999999999998</ele><time>2026-05-02T04:33:44.79Z</time></trkpt><trkpt lat="43.9545133" lon="12.7424733"><ele>13.999999999999998</ele><time>2026-05-02T04:33:45.789Z</time></trkpt><trkpt lat="43.954455" lon="12.7425517"><ele>14.0</ele><time>2026-05-02T04:33:46.789Z</time></trkpt><trkpt lat="43.9543983" lon="12.7425983"><ele>14.0</ele><time>2026-05-02T04:33:47.789Z</time></trkpt><trkpt lat="43.95429" lon="12.7425933"><ele>14.0</ele><time>2026-05-02T04:33:49.786Z</time></trkpt><trkpt lat="43.95424" lon="12.74254"><ele>13.999999999999998</ele><time>2026-05-02T04:33:50.79Z</time></trkpt><trkpt lat="43.9541783" lon="12.7424567"><ele>13.999999999999998</ele><time>2026-05-02T04:33:51.79Z</time></trkpt><trkpt lat="43.9541033" lon="12.7423517"><ele>14.0</ele><time>2026-05-02T04:33:52.789Z</time></trkpt><trkpt lat="43.95402" lon="12.74224"><ele>14.0</ele><time>2026-05-02T04:33:53.79Z</time></trkpt><trkpt lat="43.9539317" lon="12.742135"><ele>13.75</ele><time>2026-05-02T04:33:54.789Z</time></trkpt><trkpt lat="43.9538367" lon="12.74202"><ele>13.5</ele><time>2026-05-02T04:33:55.789Z</time></trkpt><trkpt lat="43.9537467" lon="12.7419017"><ele>13.25</ele><time>2026-05-02T04:33:56.791Z</time></trkpt><trkpt lat="43.9536567" lon="12.7417817"><ele>13.0</ele><time>2026-05-02T04:33:57.789Z</time></trkpt><trkpt lat="43.9535667" lon="12.7416567"><ele>13.0</ele><time>2026-05-02T04:33:58.789Z</time></trkpt><trkpt lat="43.9534667" lon="12.741525"><ele>13.0</ele><time>2026-05-02T04:33:59.79Z</time></trkpt><trkpt lat="43.9533633" lon="12.7413967"><ele>13.0</ele><time>2026-05-02T04:34:00.79Z</time></trkpt><trkpt lat="43.9532583" lon="12.7412633"><ele>13.0</ele><time>2026-05-02T04:34:01.789Z</time></trkpt><trkpt lat="43.95315" lon="12.7411283"><ele>13.5</ele><time>2026-05-02T04:34:02.789Z</time></trkpt><trkpt lat="43.9530383" lon="12.7409917"><ele>14.0</ele><time>2026-05-02T04:34:03.786Z</time></trkpt><trkpt lat="43.9529317" lon="12.7408583"><ele>14.5</ele><time>2026-05-02T04:34:04.787Z</time></trkpt><trkpt lat="43.9528267" lon="12.7407283"><ele>15.0</ele><time>2026-05-02T04:34:05.79Z</time></trkpt><trkpt lat="43.9527267" lon="12.7406"><ele>15.0</ele><time>2026-05-02T04:34:06.789Z</time></trkpt><trkpt lat="43.9526283" lon="12.7404717"><ele>15.0</ele><time>2026-05-02T04:34:07.788Z</time></trkpt><trkpt lat="43.9525317" lon="12.7403467"><ele>15.0</ele><time>2026-05-02T04:34:08.787Z</time></trkpt><trkpt lat="43.9524433" lon="12.7402333"><ele>15.0</ele><time>2026-05-02T04:34:09.786Z</time></trkpt><trkpt lat="43.9523617" lon="12.74013"><ele>14.833333333333334</ele><time>2026-05-02T04:34:10.786Z</time></trkpt><trkpt lat="43.952295" lon="12.7400417"><ele>14.666666666666668</ele><time>2026-05-02T04:34:11.788Z</time></trkpt><trkpt lat="43.95224" lon="12.73996"><ele>14.5</ele><time>2026-05-02T04:34:12.787Z</time></trkpt><trkpt lat="43.952195" lon="12.7398967"><ele>14.333333333333334</ele><time>2026-05-02T04:34:13.786Z</time></trkpt><trkpt lat="43.9521217" lon="12.73988"><ele>14.166666666666668</ele><time>2026-05-02T04:34:16.787Z</time></trkpt><trkpt lat="43.9520817" lon="12.7399817"><ele>14.0</ele><time>2026-05-02T04:34:18.789Z</time></trkpt><trkpt lat="43.952085" lon="12.7400833"><ele>14.0</ele><time>2026-05-02T04:34:19.787Z</time></trkpt><trkpt lat="43.9520833" lon="12.7402033"><ele>13.999999999999998</ele><time>2026-05-02T04:34:20.789Z</time></trkpt><trkpt lat="43.9520683" lon="12.740335"><ele>13.999999999999998</ele><time>2026-05-02T04:34:21.789Z</time></trkpt><trkpt lat="43.9520267" lon="12.74046"><ele>14.0</ele><time>2026-05-02T04:34:22.789Z</time></trkpt><trkpt lat="43.951965" lon="12.740585"><ele>14.0</ele><time>2026-05-02T04:34:23.79Z</time></trkpt><trkpt lat="43.951885" lon="12.7406983"><ele>14.0</ele><time>2026-05-02T04:34:24.79Z</time></trkpt><trkpt lat="43.951785" lon="12.7407867"><ele>14.0</ele><time>2026-05-02T04:34:25.789Z</time></trkpt><trkpt lat="43.95168" lon="12.7408583"><ele>14.0</ele><time>2026-05-02T04:34:26.79Z</time></trkpt><trkpt lat="43.9515667" lon="12.7409233"><ele>14.0</ele><time>2026-05-02T04:34:27.789Z</time></trkpt><trkpt lat="43.9514517" lon="12.74099"><ele>14.0</ele><time>2026-05-02T04:34:28.79Z</time></trkpt><trkpt lat="43.9513317" lon="12.74106"><ele>14.0</ele><time>2026-05-02T04:34:29.79Z</time></trkpt><trkpt lat="43.9512133" lon="12.74113"><ele>14.0</ele><time>2026-05-02T04:34:30.789Z</time></trkpt><trkpt lat="43.9510917" lon="12.74121"><ele>14.0</ele><time>2026-05-02T04:34:31.791Z</time></trkpt><trkpt lat="43.950965" lon="12.7412917"><ele>14.0</ele><time>2026-05-02T04:34:32.789Z</time></trkpt><trkpt lat="43.9508333" lon="12.741375"><ele>14.0</ele><time>2026-05-02T04:34:33.789Z</time></trkpt><trkpt lat="43.95069" lon="12.7414583"><ele>14.0</ele><time>2026-05-02T04:34:34.789Z</time></trkpt><trkpt lat="43.9505467" lon="12.7415483"><ele>14.0</ele><time>2026-05-02T04:34:35.79Z</time></trkpt><trkpt lat="43.9504067" lon="12.7416367"><ele>14.0</ele><time>2026-05-02T04:34:36.79Z</time></trkpt><trkpt lat="43.95027" lon="12.74172"><ele>14.0</ele><time>2026-05-02T04:34:37.789Z</time></trkpt><trkpt lat="43.9501383" lon="12.7418017"><ele>14.0</ele><time>2026-05-02T04:34:38.792Z</time></trkpt><trkpt lat="43.9500067" lon="12.7418783"><ele>14.25</ele><time>2026-05-02T04:34:39.79Z</time></trkpt><trkpt lat="43.9498817" lon="12.741955"><ele>14.5</ele><time>2026-05-02T04:34:40.79Z</time></trkpt><trkpt lat="43.9497683" lon="12.7420233"><ele>14.75</ele><time>2026-05-02T04:34:41.789Z</time></trkpt><trkpt lat="43.9496683" lon="12.7420867"><ele>15.0</ele><time>2026-05-02T04:34:42.79Z</time></trkpt><trkpt lat="43.94958" lon="12.7421383"><ele>15.0</ele><time>2026-05-02T04:34:43.789Z</time></trkpt><trkpt lat="43.9495067" lon="12.742175"><ele>15.0</ele><time>2026-05-02T04:34:44.789Z</time></trkpt><trkpt lat="43.94944" lon="12.742195"><ele>15.0</ele><time>2026-05-02T04:34:45.787Z</time></trkpt><trkpt lat="43.9493317" lon="12.742145"><ele>15.0</ele><time>2026-05-02T04:34:47.787Z</time></trkpt><trkpt lat="43.9492933" lon="12.7420667"><ele>15.0</ele><time>2026-05-02T04:34:48.789Z</time></trkpt><trkpt lat="43.9492467" lon="12.741955"><ele>15.0</ele><time>2026-05-02T04:34:49.787Z</time></trkpt><trkpt lat="43.9491933" lon="12.74182"><ele>15.75</ele><time>2026-05-02T04:34:50.79Z</time></trkpt><trkpt lat="43.9491367" lon="12.7416683"><ele>16.5</ele><time>2026-05-02T04:34:51.791Z</time></trkpt><trkpt lat="43.9490767" lon="12.7414983"><ele>17.25</ele><time>2026-05-02T04:34:52.789Z</time></trkpt><trkpt lat="43.9490217" lon="12.7413183"><ele>18.0</ele><time>2026-05-02T04:34:53.789Z</time></trkpt><trkpt lat="43.9489667" lon="12.7411317"><ele>18.0</ele><time>2026-05-02T04:34:54.79Z</time></trkpt><trkpt lat="43.9489017" lon="12.7409383"><ele>18.0</ele><time>2026-05-02T04:34:55.789Z</time></trkpt><trkpt lat="43.948835" lon="12.7407417"><ele>18.0</ele><time>2026-05-02T04:34:56.789Z</time></trkpt><trkpt lat="43.948765" lon="12.7405417"><ele>18.0</ele><time>2026-05-02T04:34:57.79Z</time></trkpt><trkpt lat="43.9487" lon="12.7403417"><ele>18.0</ele><time>2026-05-02T04:34:58.789Z</time></trkpt><trkpt lat="43.9486333" lon="12.7401433"><ele>18.0</ele><time>2026-05-02T04:34:59.789Z</time></trkpt><trkpt lat="43.9485667" lon="12.7399483"><ele>17.666666666666668</ele><time>2026-05-02T04:35:00.79Z</time></trkpt><trkpt lat="43.9485017" lon="12.739755"><ele>17.333333333333336</ele><time>2026-05-02T04:35:01.789Z</time></trkpt><trkpt lat="43.948435" lon="12.7395633"><ele>17.0</ele><time>2026-05-02T04:35:02.79Z</time></trkpt><trkpt lat="43.9483683" lon="12.7393717"><ele>16.333333333333336</ele><time>2026-05-02T04:35:03.786Z</time></trkpt><trkpt lat="43.9483" lon="12.7391767"><ele>15.666666666666668</ele><time>2026-05-02T04:35:04.789Z</time></trkpt><trkpt lat="43.94823" lon="12.73898"><ele>15.0</ele><time>2026-05-02T04:35:05.787Z</time></trkpt><trkpt lat="43.9481583" lon="12.73878"><ele>15.0</ele><time>2026-05-02T04:35:06.788Z</time></trkpt><trkpt lat="43.9480833" lon="12.7385767"><ele>15.0</ele><time>2026-05-02T04:35:07.787Z</time></trkpt><trkpt lat="43.94801" lon="12.7383683"><ele>15.0</ele><time>2026-05-02T04:35:08.787Z</time></trkpt><trkpt lat="43.947935" lon="12.7381583"><ele>14.333333333333332</ele><time>2026-05-02T04:35:09.787Z</time></trkpt><trkpt lat="43.9478617" lon="12.7379483"><ele>13.666666666666666</ele><time>2026-05-02T04:35:10.787Z</time></trkpt><trkpt lat="43.94779" lon="12.7377383"><ele>13.0</ele><time>2026-05-02T04:35:11.787Z</time></trkpt><trkpt lat="43.94772" lon="12.7375283"><ele>13.0</ele><time>2026-05-02T04:35:12.788Z</time></trkpt><trkpt lat="43.9476417" lon="12.73732"><ele>13.0</ele><time>2026-05-02T04:35:13.789Z</time></trkpt><trkpt lat="43.9475683" lon="12.737115"><ele>13.0</ele><time>2026-05-02T04:35:14.789Z</time></trkpt><trkpt lat="43.947495" lon="12.73691"><ele>13.5</ele><time>2026-05-02T04:35:15.786Z</time></trkpt><trkpt lat="43.947425" lon="12.73671"><ele>14.0</ele><time>2026-05-02T04:35:16.787Z</time></trkpt><trkpt lat="43.9473617" lon="12.7365267"><ele>14.5</ele><time>2026-05-02T04:35:17.791Z</time></trkpt><trkpt lat="43.9473" lon="12.7363533"><ele>15.0</ele><time>2026-05-02T04:35:18.79Z</time></trkpt><trkpt lat="43.9472417" lon="12.7361917"><ele>15.2</ele><time>2026-05-02T04:35:19.787Z</time></trkpt><trkpt lat="43.9471883" lon="12.73604"><ele>15.4</ele><time>2026-05-02T04:35:20.788Z</time></trkpt><trkpt lat="43.9471417" lon="12.7358967"><ele>15.600000000000001</ele><time>2026-05-02T04:35:21.791Z</time></trkpt><trkpt lat="43.9470983" lon="12.7357667"><ele>15.8</ele><time>2026-05-02T04:35:22.79Z</time></trkpt><trkpt lat="43.9470617" lon="12.73566"><ele>16.0</ele><time>2026-05-02T04:35:23.79Z</time></trkpt><trkpt lat="43.94703" lon="12.73558"><ele>16.0</ele><time>2026-05-02T04:35:24.79Z</time></trkpt><trkpt lat="43.9469817" lon="12.7355017"><ele>16.0</ele><time>2026-05-02T04:35:26.786Z</time></trkpt><trkpt lat="43.946865" lon="12.7355083"><ele>16.0</ele><time>2026-05-02T04:35:28.788Z</time></trkpt><trkpt lat="43.946775" lon="12.73554"><ele>16.0</ele><time>2026-05-02T04:35:29.787Z</time></trkpt><trkpt lat="43.9466767" lon="12.7355783"><ele>16.0</ele><time>2026-05-02T04:35:30.787Z</time></trkpt><trkpt lat="43.9465667" lon="12.7356183"><ele>15.75</ele><time>2026-05-02T04:35:31.787Z</time></trkpt><trkpt lat="43.94645" lon="12.7356567"><ele>15.5</ele><time>2026-05-02T04:35:32.787Z</time></trkpt><trkpt lat="43.946325" lon="12.735695"><ele>15.25</ele><time>2026-05-02T04:35:33.789Z</time></trkpt><trkpt lat="43.9461917" lon="12.73573"><ele>15.0</ele><time>2026-05-02T04:35:34.79Z</time></trkpt><trkpt lat="43.946055" lon="12.7357467"><ele>15.0</ele><time>2026-05-02T04:35:35.79Z</time></trkpt><trkpt lat="43.9459167" lon="12.7357433"><ele>15.0</ele><time>2026-05-02T04:35:36.789Z</time></trkpt><trkpt lat="43.9457933" lon="12.7357117"><ele>15.0</ele><time>2026-05-02T04:35:37.79Z</time></trkpt><trkpt lat="43.945675" lon="12.735655"><ele>15.0</ele><time>2026-05-02T04:35:38.79Z</time></trkpt><trkpt lat="43.9455617" lon="12.7355967"><ele>15.25</ele><time>2026-05-02T04:35:39.787Z</time></trkpt><trkpt lat="43.9454533" lon="12.7355567"><ele>15.5</ele><time>2026-05-02T04:35:40.789Z</time></trkpt><trkpt lat="43.9453383" lon="12.7355467"><ele>15.75</ele><time>2026-05-02T04:35:41.79Z</time></trkpt><trkpt lat="43.9452217" lon="12.7355667"><ele>16.0</ele><time>2026-05-02T04:35:42.789Z</time></trkpt><trkpt lat="43.9451033" lon="12.7356133"><ele>16.0</ele><time>2026-05-02T04:35:43.789Z</time></trkpt><trkpt lat="43.9449833" lon="12.7356717"><ele>16.0</ele><time>2026-05-02T04:35:44.789Z</time></trkpt><trkpt lat="43.94486" lon="12.7357383"><ele>16.0</ele><time>2026-05-02T04:35:45.79Z</time></trkpt><trkpt lat="43.9447417" lon="12.7358133"><ele>16.0</ele><time>2026-05-02T04:35:46.79Z</time></trkpt><trkpt lat="43.9446283" lon="12.735905"><ele>16.0</ele><time>2026-05-02T04:35:47.791Z</time></trkpt><trkpt lat="43.9445217" lon="12.736015"><ele>16.0</ele><time>2026-05-02T04:35:48.789Z</time></trkpt><trkpt lat="43.9444167" lon="12.73614"><ele>16.0</ele><time>2026-05-02T04:35:49.79Z</time></trkpt><trkpt lat="43.9443117" lon="12.736275"><ele>16.0</ele><time>2026-05-02T04:35:50.789Z</time></trkpt><trkpt lat="43.9442033" lon="12.7364083"><ele>15.5</ele><time>2026-05-02T04:35:51.79Z</time></trkpt><trkpt lat="43.9440867" lon="12.7365333"><ele>15.0</ele><time>2026-05-02T04:35:52.789Z</time></trkpt><trkpt lat="43.943965" lon="12.736645"><ele>14.5</ele><time>2026-05-02T04:35:53.789Z</time></trkpt><trkpt lat="43.9438417" lon="12.7367433"><ele>14.0</ele><time>2026-05-02T04:35:54.791Z</time></trkpt><trkpt lat="43.94372" lon="12.7368283"><ele>14.0</ele><time>2026-05-02T04:35:55.789Z</time></trkpt><trkpt lat="43.9436067" lon="12.736905"><ele>13.999999999999998</ele><time>2026-05-02T04:35:56.789Z</time></trkpt><trkpt lat="43.943505" lon="12.736975"><ele>13.999999999999998</ele><time>2026-05-02T04:35:57.789Z</time></trkpt><trkpt lat="43.9434167" lon="12.7370317"><ele>14.0</ele><time>2026-05-02T04:35:58.789Z</time></trkpt><trkpt lat="43.94334" lon="12.7370717"><ele>14.0</ele><time>2026-05-02T04:35:59.793Z</time></trkpt><trkpt lat="43.9432433" lon="12.7371067"><ele>14.000000000000002</ele><time>2026-05-02T04:36:01.789Z</time></trkpt><trkpt lat="43.94318" lon="12.73711"><ele>14.0</ele><time>2026-05-02T04:36:03.79Z</time></trkpt><trkpt lat="43.9430933" lon="12.737025"><ele>14.0</ele><time>2026-05-02T04:36:06.789Z</time></trkpt><trkpt lat="43.9430533" lon="12.73695"><ele>14.0</ele><time>2026-05-02T04:36:07.789Z</time></trkpt><trkpt lat="43.9430117" lon="12.7368583"><ele>14.000000000000002</ele><time>2026-05-02T04:36:08.789Z</time></trkpt><trkpt lat="43.9429633" lon="12.7367717"><ele>14.0</ele><time>2026-05-02T04:36:09.789Z</time></trkpt><trkpt lat="43.9429" lon="12.7366783"><ele>14.2</ele><time>2026-05-02T04:36:10.789Z</time></trkpt><trkpt lat="43.9428283" lon="12.7365817"><ele>14.399999999999999</ele><time>2026-05-02T04:36:11.79Z</time></trkpt><trkpt lat="43.9427567" lon="12.7364767"><ele>14.6</ele><time>2026-05-02T04:36:12.79Z</time></trkpt><trkpt lat="43.9426817" lon="12.736365"><ele>14.8</ele><time>2026-05-02T04:36:13.786Z</time></trkpt><trkpt lat="43.9426033" lon="12.73625"><ele>15.0</ele><time>2026-05-02T04:36:14.787Z</time></trkpt><trkpt lat="43.94252" lon="12.7361283"><ele>15.25</ele><time>2026-05-02T04:36:15.787Z</time></trkpt><trkpt lat="43.942435" lon="12.7360067"><ele>15.5</ele><time>2026-05-02T04:36:16.792Z</time></trkpt><trkpt lat="43.94235" lon="12.7358867"><ele>15.75</ele><time>2026-05-02T04:36:17.79Z</time></trkpt><trkpt lat="43.9422667" lon="12.735765"><ele>16.0</ele><time>2026-05-02T04:36:18.789Z</time></trkpt><trkpt lat="43.9421783" lon="12.73565"><ele>16.0</ele><time>2026-05-02T04:36:19.79Z</time></trkpt><trkpt lat="43.9420983" lon="12.7355417"><ele>16.0</ele><time>2026-05-02T04:36:20.789Z</time></trkpt><trkpt lat="43.9420267" lon="12.73544"><ele>16.0</ele><time>2026-05-02T04:36:21.79Z</time></trkpt><trkpt lat="43.94196" lon="12.735345"><ele>16.0</ele><time>2026-05-02T04:36:22.787Z</time></trkpt><trkpt lat="43.9418917" lon="12.7352533"><ele>16.0</ele><time>2026-05-02T04:36:23.788Z</time></trkpt><trkpt lat="43.941825" lon="12.7351583"><ele>15.999999999999998</ele><time>2026-05-02T04:36:24.786Z</time></trkpt><trkpt lat="43.9417633" lon="12.7350633"><ele>16.0</ele><time>2026-05-02T04:36:25.79Z</time></trkpt><trkpt lat="43.9417067" lon="12.73497"><ele>16.0</ele><time>2026-05-02T04:36:26.789Z</time></trkpt><trkpt lat="43.941655" lon="12.734885"><ele>16.0</ele><time>2026-05-02T04:36:27.79Z</time></trkpt><trkpt lat="43.9416017" lon="12.7348033"><ele>15.999999999999998</ele><time>2026-05-02T04:36:28.79Z</time></trkpt><trkpt lat="43.9415517" lon="12.7347283"><ele>16.0</ele><time>2026-05-02T04:36:29.79Z</time></trkpt><trkpt lat="43.94151" lon="12.7346617"><ele>16.0</ele><time>2026-05-02T04:36:30.786Z</time></trkpt><trkpt lat="43.9414367" lon="12.7345533"><ele>16.0</ele><time>2026-05-02T04:36:32.79Z</time></trkpt><trkpt lat="43.9413567" lon="12.7344467"><ele>16.0</ele><time>2026-05-02T04:36:34.789Z</time></trkpt><trkpt lat="43.9413067" lon="12.7343783"><ele>16.0</ele><time>2026-05-02T04:36:35.789Z</time></trkpt><trkpt lat="43.9412467" lon="12.7343067"><ele>16.0</ele><time>2026-05-02T04:36:36.792Z</time></trkpt><trkpt lat="43.9411833" lon="12.73422"><ele>16.0</ele><time>2026-05-02T04:36:37.791Z</time></trkpt><trkpt lat="43.9411083" lon="12.7341317"><ele>16.0</ele><time>2026-05-02T04:36:38.791Z</time></trkpt><trkpt lat="43.9410267" lon="12.7340217"><ele>16.0</ele><time>2026-05-02T04:36:39.79Z</time></trkpt><trkpt lat="43.9409217" lon="12.733885"><ele>16.0</ele><time>2026-05-02T04:36:40.79Z</time></trkpt><trkpt lat="43.9408017" lon="12.73372"><ele>17.0</ele><time>2026-05-02T04:36:41.79Z</time></trkpt><trkpt lat="43.94067" lon="12.733535"><ele>18.0</ele><time>2026-05-02T04:36:42.789Z</time></trkpt><trkpt lat="43.9405367" lon="12.733355"><ele>19.0</ele><time>2026-05-02T04:36:43.79Z</time></trkpt><trkpt lat="43.940405" lon="12.7331767"><ele>19.0</ele><time>2026-05-02T04:36:44.791Z</time></trkpt><trkpt lat="43.9402733" lon="12.7330017"><ele>19.0</ele><time>2026-05-02T04:36:45.79Z</time></trkpt><trkpt lat="43.940145" lon="12.732835"><ele>19.0</ele><time>2026-05-02T04:36:46.789Z</time></trkpt><trkpt lat="43.94001" lon="12.732675"><ele>18.333333333333332</ele><time>2026-05-02T04:36:47.789Z</time></trkpt><trkpt lat="43.9398817" lon="12.732515"><ele>17.666666666666668</ele><time>2026-05-02T04:36:48.79Z</time></trkpt><trkpt lat="43.939745" lon="12.7323767"><ele>17.0</ele><time>2026-05-02T04:36:49.789Z</time></trkpt><trkpt lat="43.9396033" lon="12.73226"><ele>17.0</ele><time>2026-05-02T04:36:50.79Z</time></trkpt><trkpt lat="43.9394583" lon="12.732155"><ele>17.0</ele><time>2026-05-02T04:36:51.789Z</time></trkpt><trkpt lat="43.93931" lon="12.7320517"><ele>17.0</ele><time>2026-05-02T04:36:52.791Z</time></trkpt><trkpt lat="43.9391667" lon="12.731945"><ele>17.75</ele><time>2026-05-02T04:36:53.79Z</time></trkpt><trkpt lat="43.9390333" lon="12.731835"><ele>18.5</ele><time>2026-05-02T04:36:54.786Z</time></trkpt><trkpt lat="43.93892" lon="12.7317283"><ele>19.25</ele><time>2026-05-02T04:36:55.79Z</time></trkpt><trkpt lat="43.9388283" lon="12.7316317"><ele>20.0</ele><time>2026-05-02T04:36:56.79Z</time></trkpt><trkpt lat="43.9387717" lon="12.73155"><ele>20.0</ele><time>2026-05-02T04:36:57.791Z</time></trkpt><trkpt lat="43.93873" lon="12.7314183"><ele>20.0</ele><time>2026-05-02T04:36:59.79Z</time></trkpt><trkpt lat="43.9387717" lon="12.73124"><ele>20.0</ele><time>2026-05-02T04:37:01.789Z</time></trkpt><trkpt lat="43.9387983" lon="12.7311167"><ele>20.0</ele><time>2026-05-02T04:37:02.791Z</time></trkpt><trkpt lat="43.9388017" lon="12.7309783"><ele>20.0</ele><time>2026-05-02T04:37:03.789Z</time></trkpt><trkpt lat="43.9387733" lon="12.73083"><ele>20.0</ele><time>2026-05-02T04:37:04.789Z</time></trkpt><trkpt lat="43.93872" lon="12.73068"><ele>20.0</ele><time>2026-05-02T04:37:05.79Z</time></trkpt><trkpt lat="43.93865" lon="12.7305317"><ele>20.0</ele><time>2026-05-02T04:37:06.79Z</time></trkpt><trkpt lat="43.9385783" lon="12.730375"><ele>20.0</ele><time>2026-05-02T04:37:07.79Z</time></trkpt><trkpt lat="43.938505" lon="12.7302083"><ele>20.0</ele><time>2026-05-02T04:37:08.79Z</time></trkpt><trkpt lat="43.9384333" lon="12.73003"><ele>20.0</ele><time>2026-05-02T04:37:09.789Z</time></trkpt><trkpt lat="43.9383617" lon="12.7298383"><ele>20.0</ele><time>2026-05-02T04:37:10.79Z</time></trkpt><trkpt lat="43.9382917" lon="12.7296383"><ele>20.333333333333336</ele><time>2026-05-02T04:37:11.789Z</time></trkpt><trkpt lat="43.9382233" lon="12.7294367"><ele>20.666666666666668</ele><time>2026-05-02T04:37:12.787Z</time></trkpt><trkpt lat="43.938155" lon="12.7292317"><ele>21.0</ele><time>2026-05-02T04:37:13.79Z</time></trkpt><trkpt lat="43.9380867" lon="12.7290233"><ele>21.0</ele><time>2026-05-02T04:37:14.789Z</time></trkpt><trkpt lat="43.93802" lon="12.7288183"><ele>21.0</ele><time>2026-05-02T04:37:15.79Z</time></trkpt><trkpt lat="43.9379517" lon="12.7286117"><ele>21.0</ele><time>2026-05-02T04:37:16.789Z</time></trkpt><trkpt lat="43.9378833" lon="12.728405"><ele>21.0</ele><time>2026-05-02T04:37:17.79Z</time></trkpt><trkpt lat="43.937815" lon="12.7282033"><ele>21.0</ele><time>2026-05-02T04:37:18.789Z</time></trkpt><trkpt lat="43.9377383" lon="12.7280117"><ele>21.0</ele><time>2026-05-02T04:37:19.789Z</time></trkpt><trkpt lat="43.9376583" lon="12.7278233"><ele>21.0</ele><time>2026-05-02T04:37:20.789Z</time></trkpt><trkpt lat="43.93757" lon="12.7276367"><ele>21.0</ele><time>2026-05-02T04:37:21.79Z</time></trkpt><trkpt lat="43.93748" lon="12.7274567"><ele>21.0</ele><time>2026-05-02T04:37:22.789Z</time></trkpt><trkpt lat="43.9373867" lon="12.727275"><ele>21.333333333333332</ele><time>2026-05-02T04:37:23.789Z</time></trkpt><trkpt lat="43.9372917" lon="12.727085"><ele>21.666666666666664</ele><time>2026-05-02T04:37:24.789Z</time></trkpt><trkpt lat="43.9371967" lon="12.72688"><ele>22.0</ele><time>2026-05-02T04:37:25.789Z</time></trkpt><trkpt lat="43.9371017" lon="12.72666"><ele>22.0</ele><time>2026-05-02T04:37:26.79Z</time></trkpt><trkpt lat="43.9370083" lon="12.7264333"><ele>22.0</ele><time>2026-05-02T04:37:27.787Z</time></trkpt><trkpt lat="43.9369183" lon="12.7262033"><ele>22.0</ele><time>2026-05-02T04:37:28.787Z</time></trkpt><trkpt lat="43.93683" lon="12.7259767"><ele>21.666666666666664</ele><time>2026-05-02T04:37:29.787Z</time></trkpt><trkpt lat="43.936745" lon="12.725765"><ele>21.333333333333332</ele><time>2026-05-02T04:37:30.786Z</time></trkpt><trkpt lat="43.936665" lon="12.7255767"><ele>21.0</ele><time>2026-05-02T04:37:31.787Z</time></trkpt><trkpt lat="43.9365933" lon="12.725405"><ele>21.0</ele><time>2026-05-02T04:37:32.786Z</time></trkpt><trkpt lat="43.9365283" lon="12.7252317"><ele>21.0</ele><time>2026-05-02T04:37:33.786Z</time></trkpt><trkpt lat="43.9364733" lon="12.725045"><ele>21.0</ele><time>2026-05-02T04:37:34.787Z</time></trkpt><trkpt lat="43.93643" lon="12.72485"><ele>21.0</ele><time>2026-05-02T04:37:35.787Z</time></trkpt><trkpt lat="43.93639" lon="12.7246483"><ele>21.666666666666668</ele><time>2026-05-02T04:37:36.787Z</time></trkpt><trkpt lat="43.9363467" lon="12.7244467"><ele>22.333333333333336</ele><time>2026-05-02T04:37:37.787Z</time></trkpt><trkpt lat="43.936295" lon="12.724245"><ele>23.0</ele><time>2026-05-02T04:37:38.789Z</time></trkpt><trkpt lat="43.936225" lon="12.7240583"><ele>23.25</ele><time>2026-05-02T04:37:39.789Z</time></trkpt><trkpt lat="43.93614" lon="12.7238883"><ele>23.5</ele><time>2026-05-02T04:37:40.789Z</time></trkpt><trkpt lat="43.9360383" lon="12.72374"><ele>23.75</ele><time>2026-05-02T04:37:41.79Z</time></trkpt><trkpt lat="43.9359267" lon="12.7236033"><ele>24.0</ele><time>2026-05-02T04:37:42.789Z</time></trkpt><trkpt lat="43.9358083" lon="12.7234767"><ele>24.0</ele><time>2026-05-02T04:37:43.79Z</time></trkpt><trkpt lat="43.9356933" lon="12.7233517"><ele>24.0</ele><time>2026-05-02T04:37:44.79Z</time></trkpt><trkpt lat="43.935585" lon="12.7232183"><ele>24.0</ele><time>2026-05-02T04:37:45.791Z</time></trkpt><trkpt lat="43.93548" lon="12.723065"><ele>24.0</ele><time>2026-05-02T04:37:46.789Z</time></trkpt><trkpt lat="43.93539" lon="12.722905"><ele>24.0</ele><time>2026-05-02T04:37:47.788Z</time></trkpt><trkpt lat="43.93531" lon="12.722755"><ele>24.0</ele><time>2026-05-02T04:37:48.786Z</time></trkpt><trkpt lat="43.9352283" lon="12.722605"><ele>24.0</ele><time>2026-05-02T04:37:49.786Z</time></trkpt><trkpt lat="43.93515" lon="12.7224517"><ele>24.0</ele><time>2026-05-02T04:37:50.789Z</time></trkpt><trkpt lat="43.935065" lon="12.7222883"><ele>24.0</ele><time>2026-05-02T04:37:51.79Z</time></trkpt><trkpt lat="43.934975" lon="12.7221233"><ele>24.0</ele><time>2026-05-02T04:37:52.789Z</time></trkpt><trkpt lat="43.93488" lon="12.721955"><ele>24.0</ele><time>2026-05-02T04:37:53.789Z</time></trkpt><trkpt lat="43.9347867" lon="12.721785"><ele>24.0</ele><time>2026-05-02T04:37:54.79Z</time></trkpt><trkpt lat="43.9346933" lon="12.7216133"><ele>24.0</ele><time>2026-05-02T04:37:55.79Z</time></trkpt><trkpt lat="43.9346" lon="12.7214417"><ele>24.0</ele><time>2026-05-02T04:37:56.79Z</time></trkpt><trkpt lat="43.9345067" lon="12.7212683"><ele>24.0</ele><time>2026-05-02T04:37:57.787Z</time></trkpt><trkpt lat="43.93441" lon="12.7210967"><ele>24.0</ele><time>2026-05-02T04:37:58.789Z</time></trkpt><trkpt lat="43.93431" lon="12.720925"><ele>24.0</ele><time>2026-05-02T04:37:59.787Z</time></trkpt><trkpt lat="43.934205" lon="12.7207567"><ele>24.333333333333336</ele><time>2026-05-02T04:38:00.788Z</time></trkpt><trkpt lat="43.934095" lon="12.72059"><ele>24.666666666666668</ele><time>2026-05-02T04:38:01.787Z</time></trkpt><trkpt lat="43.9339833" lon="12.720425"><ele>25.0</ele><time>2026-05-02T04:38:02.787Z</time></trkpt><trkpt lat="43.933875" lon="12.720265"><ele>25.5</ele><time>2026-05-02T04:38:03.787Z</time></trkpt><trkpt lat="43.933775" lon="12.7201117"><ele>26.0</ele><time>2026-05-02T04:38:04.787Z</time></trkpt><trkpt lat="43.9336817" lon="12.7199667"><ele>26.5</ele><time>2026-05-02T04:38:05.787Z</time></trkpt><trkpt lat="43.9336" lon="12.7198317"><ele>27.0</ele><time>2026-05-02T04:38:06.787Z</time></trkpt><trkpt lat="43.9335317" lon="12.7197067"><ele>27.0</ele><time>2026-05-02T04:38:07.787Z</time></trkpt><trkpt lat="43.9334767" lon="12.7196017"><ele>27.0</ele><time>2026-05-02T04:38:08.787Z</time></trkpt><trkpt lat="43.93343" lon="12.719525"><ele>27.0</ele><time>2026-05-02T04:38:09.788Z</time></trkpt><trkpt lat="43.933355" lon="12.7194667"><ele>27.0</ele><time>2026-05-02T04:38:11.788Z</time></trkpt><trkpt lat="43.9332767" lon="12.71953"><ele>27.0</ele><time>2026-05-02T04:38:13.786Z</time></trkpt><trkpt lat="43.9332183" lon="12.7195983"><ele>27.0</ele><time>2026-05-02T04:38:14.791Z</time></trkpt><trkpt lat="43.9331483" lon="12.7196817"><ele>27.200000000000003</ele><time>2026-05-02T04:38:15.79Z</time></trkpt><trkpt lat="43.9330683" lon="12.7197683"><ele>27.400000000000002</ele><time>2026-05-02T04:38:16.79Z</time></trkpt><trkpt lat="43.9329817" lon="12.719855"><ele>27.599999999999998</ele><time>2026-05-02T04:38:17.789Z</time></trkpt><trkpt lat="43.9328867" lon="12.7199333"><ele>27.799999999999997</ele><time>2026-05-02T04:38:18.79Z</time></trkpt><trkpt lat="43.9327833" lon="12.72001"><ele>28.0</ele><time>2026-05-02T04:38:19.786Z</time></trkpt><trkpt lat="43.9326717" lon="12.7200833"><ele>28.25</ele><time>2026-05-02T04:38:20.79Z</time></trkpt><trkpt lat="43.9325533" lon="12.7201517"><ele>28.5</ele><time>2026-05-02T04:38:21.79Z</time></trkpt><trkpt lat="43.9324267" lon="12.7202133"><ele>28.75</ele><time>2026-05-02T04:38:22.789Z</time></trkpt><trkpt lat="43.932295" lon="12.7202683"><ele>29.0</ele><time>2026-05-02T04:38:23.791Z</time></trkpt><trkpt lat="43.9321533" lon="12.7203167"><ele>28.25</ele><time>2026-05-02T04:38:24.789Z</time></trkpt><trkpt lat="43.9320083" lon="12.72036"><ele>27.5</ele><time>2026-05-02T04:38:25.79Z</time></trkpt><trkpt lat="43.9318617" lon="12.7204"><ele>26.75</ele><time>2026-05-02T04:38:26.786Z</time></trkpt><trkpt lat="43.9317133" lon="12.7204383"><ele>26.0</ele><time>2026-05-02T04:38:27.786Z</time></trkpt><trkpt lat="43.9315617" lon="12.7204783"><ele>25.666666666666664</ele><time>2026-05-02T04:38:28.786Z</time></trkpt><trkpt lat="43.9314067" lon="12.7205183"><ele>25.333333333333336</ele><time>2026-05-02T04:38:29.787Z</time></trkpt><trkpt lat="43.9312467" lon="12.72056"><ele>25.0</ele><time>2026-05-02T04:38:30.786Z</time></trkpt><trkpt lat="43.9310817" lon="12.720605"><ele>25.0</ele><time>2026-05-02T04:38:31.787Z</time></trkpt><trkpt lat="43.9309183" lon="12.7206467"><ele>25.0</ele><time>2026-05-02T04:38:32.786Z</time></trkpt><trkpt lat="43.9307533" lon="12.7206883"><ele>25.0</ele><time>2026-05-02T04:38:33.787Z</time></trkpt><trkpt lat="43.93059" lon="12.7207333"><ele>26.0</ele><time>2026-05-02T04:38:34.786Z</time></trkpt><trkpt lat="43.9304283" lon="12.720775"><ele>27.0</ele><time>2026-05-02T04:38:35.787Z</time></trkpt><trkpt lat="43.9302683" lon="12.7208117"><ele>28.0</ele><time>2026-05-02T04:38:36.786Z</time></trkpt><trkpt lat="43.9301083" lon="12.7208483"><ele>28.333333333333336</ele><time>2026-05-02T04:38:37.786Z</time></trkpt><trkpt lat="43.92994" lon="12.7208833"><ele>28.666666666666664</ele><time>2026-05-02T04:38:38.79Z</time></trkpt><trkpt lat="43.929775" lon="12.7209167"><ele>29.0</ele><time>2026-05-02T04:38:39.79Z</time></trkpt><trkpt lat="43.9296117" lon="12.72095"><ele>29.0</ele><time>2026-05-02T04:38:40.79Z</time></trkpt><trkpt lat="43.9294467" lon="12.7209833"><ele>29.0</ele><time>2026-05-02T04:38:41.789Z</time></trkpt><trkpt lat="43.9292833" lon="12.7210117"><ele>29.0</ele><time>2026-05-02T04:38:42.79Z</time></trkpt><trkpt lat="43.9291233" lon="12.7210417"><ele>29.666666666666664</ele><time>2026-05-02T04:38:43.787Z</time></trkpt><trkpt lat="43.928965" lon="12.72107"><ele>30.333333333333336</ele><time>2026-05-02T04:38:44.786Z</time></trkpt><trkpt lat="43.928805" lon="12.721105"><ele>31.0</ele><time>2026-05-02T04:38:45.786Z</time></trkpt><trkpt lat="43.9286517" lon="12.7211417"><ele>31.0</ele><time>2026-05-02T04:38:46.79Z</time></trkpt><trkpt lat="43.9285117" lon="12.7211817"><ele>31.0</ele><time>2026-05-02T04:38:47.787Z</time></trkpt><trkpt lat="43.9283817" lon="12.7212233"><ele>31.0</ele><time>2026-05-02T04:38:48.787Z</time></trkpt><trkpt lat="43.9282583" lon="12.7212717"><ele>31.0</ele><time>2026-05-02T04:38:49.786Z</time></trkpt><trkpt lat="43.9281433" lon="12.7213217"><ele>30.8</ele><time>2026-05-02T04:38:50.786Z</time></trkpt><trkpt lat="43.9280333" lon="12.7213717"><ele>30.6</ele><time>2026-05-02T04:38:51.79Z</time></trkpt><trkpt lat="43.9279267" lon="12.721415"><ele>30.4</ele><time>2026-05-02T04:38:52.789Z</time></trkpt><trkpt lat="43.9278233" lon="12.72147"><ele>30.2</ele><time>2026-05-02T04:38:53.789Z</time></trkpt><trkpt lat="43.9277267" lon="12.7215183"><ele>30.0</ele><time>2026-05-02T04:38:54.789Z</time></trkpt><trkpt lat="43.9276283" lon="12.72157"><ele>29.833333333333332</ele><time>2026-05-02T04:38:55.789Z</time></trkpt><trkpt lat="43.9275367" lon="12.7216233"><ele>29.666666666666664</ele><time>2026-05-02T04:38:56.788Z</time></trkpt><trkpt lat="43.927455" lon="12.721675"><ele>29.5</ele><time>2026-05-02T04:38:57.787Z</time></trkpt><trkpt lat="43.9273783" lon="12.7217183"><ele>29.333333333333332</ele><time>2026-05-02T04:38:58.788Z</time></trkpt><trkpt lat="43.9273067" lon="12.721755"><ele>29.166666666666664</ele><time>2026-05-02T04:38:59.788Z</time></trkpt><trkpt lat="43.9272417" lon="12.721765"><ele>29.0</ele><time>2026-05-02T04:39:00.787Z</time></trkpt><trkpt lat="43.927145" lon="12.7216983"><ele>28.999999999999996</ele><time>2026-05-02T04:39:02.787Z</time></trkpt><trkpt lat="43.9271167" lon="12.72162"><ele>29.0</ele><time>2026-05-02T04:39:03.787Z</time></trkpt><trkpt lat="43.92708" lon="12.7215217"><ele>29.0</ele><time>2026-05-02T04:39:04.787Z</time></trkpt><trkpt lat="43.9270333" lon="12.7214067"><ele>29.0</ele><time>2026-05-02T04:39:05.788Z</time></trkpt><trkpt lat="43.92698" lon="12.7212917"><ele>28.999999999999996</ele><time>2026-05-02T04:39:06.789Z</time></trkpt><trkpt lat="43.92691" lon="12.72117"><ele>29.0</ele><time>2026-05-02T04:39:07.787Z</time></trkpt><trkpt lat="43.9268333" lon="12.7210533"><ele>29.0</ele><time>2026-05-02T04:39:08.788Z</time></trkpt><trkpt lat="43.9267483" lon="12.7209367"><ele>29.0</ele><time>2026-05-02T04:39:09.787Z</time></trkpt><trkpt lat="43.9266667" lon="12.7208167"><ele>29.0</ele><time>2026-05-02T04:39:10.789Z</time></trkpt><trkpt lat="43.9265717" lon="12.720705"><ele>29.0</ele><time>2026-05-02T04:39:11.787Z</time></trkpt><trkpt lat="43.926465" lon="12.7206"><ele>29.25</ele><time>2026-05-02T04:39:12.788Z</time></trkpt><trkpt lat="43.926345" lon="12.7205083"><ele>29.5</ele><time>2026-05-02T04:39:13.788Z</time></trkpt><trkpt lat="43.9262233" lon="12.72042"><ele>29.75</ele><time>2026-05-02T04:39:14.789Z</time></trkpt><trkpt lat="43.9261067" lon="12.7203283"><ele>30.0</ele><time>2026-05-02T04:39:15.791Z</time></trkpt><trkpt lat="43.9259983" lon="12.720225"><ele>30.25</ele><time>2026-05-02T04:39:16.789Z</time></trkpt><trkpt lat="43.92589" lon="12.720115"><ele>30.5</ele><time>2026-05-02T04:39:17.786Z</time></trkpt><trkpt lat="43.9257883" lon="12.7200017"><ele>30.75</ele><time>2026-05-02T04:39:18.786Z</time></trkpt><trkpt lat="43.925685" lon="12.719895"><ele>31.0</ele><time>2026-05-02T04:39:19.789Z</time></trkpt><trkpt lat="43.9255967" lon="12.719785"><ele>31.0</ele><time>2026-05-02T04:39:20.789Z</time></trkpt><trkpt lat="43.9255183" lon="12.7196833"><ele>31.0</ele><time>2026-05-02T04:39:21.789Z</time></trkpt><trkpt lat="43.9254433" lon="12.7195833"><ele>31.0</ele><time>2026-05-02T04:39:22.789Z</time></trkpt><trkpt lat="43.925365" lon="12.719475"><ele>31.0</ele><time>2026-05-02T04:39:23.789Z</time></trkpt><trkpt lat="43.9252917" lon="12.7193567"><ele>31.0</ele><time>2026-05-02T04:39:24.789Z</time></trkpt><trkpt lat="43.9252117" lon="12.71923"><ele>31.6</ele><time>2026-05-02T04:39:25.79Z</time></trkpt><trkpt lat="43.92513" lon="12.7191083"><ele>32.2</ele><time>2026-05-02T04:39:26.786Z</time></trkpt><trkpt lat="43.925065" lon="12.7189833"><ele>32.8</ele><time>2026-05-02T04:39:27.786Z</time></trkpt><trkpt lat="43.9250233" lon="12.71886"><ele>33.4</ele><time>2026-05-02T04:39:28.786Z</time></trkpt><trkpt lat="43.9250183" lon="12.7187317"><ele>34.0</ele><time>2026-05-02T04:39:29.786Z</time></trkpt><trkpt lat="43.9250433" lon="12.7186083"><ele>36.5</ele><time>2026-05-02T04:39:30.786Z</time></trkpt><trkpt lat="43.9250967" lon="12.71849"><ele>39.0</ele><time>2026-05-02T04:39:31.786Z</time></trkpt><trkpt lat="43.9251633" lon="12.7183733"><ele>41.5</ele><time>2026-05-02T04:39:32.786Z</time></trkpt><trkpt lat="43.92524" lon="12.7182433"><ele>44.0</ele><time>2026-05-02T04:39:33.786Z</time></trkpt><trkpt lat="43.92533" lon="12.7181083"><ele>44.0</ele><time>2026-05-02T04:39:34.786Z</time></trkpt><trkpt lat="43.9254167" lon="12.717985"><ele>44.0</ele><time>2026-05-02T04:39:35.789Z</time></trkpt><trkpt lat="43.9254967" lon="12.717865"><ele>44.0</ele><time>2026-05-02T04:39:36.789Z</time></trkpt><trkpt lat="43.9255733" lon="12.71777"><ele>44.0</ele><time>2026-05-02T04:39:37.789Z</time></trkpt><trkpt lat="43.92564" lon="12.71769"><ele>44.0</ele><time>2026-05-02T04:39:38.789Z</time></trkpt><trkpt lat="43.925695" lon="12.7176383"><ele>45.33333333333333</ele><time>2026-05-02T04:39:39.786Z</time></trkpt><trkpt lat="43.925785" lon="12.7175767"><ele>46.666666666666664</ele><time>2026-05-02T04:39:41.791Z</time></trkpt><trkpt lat="43.925895" lon="12.7175117"><ele>48.0</ele><time>2026-05-02T04:39:43.789Z</time></trkpt><trkpt lat="43.92596" lon="12.717465"><ele>49.33333333333333</ele><time>2026-05-02T04:39:44.789Z</time></trkpt><trkpt lat="43.9260217" lon="12.717405"><ele>50.666666666666664</ele><time>2026-05-02T04:39:45.786Z</time></trkpt><trkpt lat="43.9260783" lon="12.7173283"><ele>52.0</ele><time>2026-05-02T04:39:46.789Z</time></trkpt><trkpt lat="43.9261183" lon="12.7172333"><ele>52.0</ele><time>2026-05-02T04:39:47.789Z</time></trkpt><trkpt lat="43.926145" lon="12.71712"><ele>52.0</ele><time>2026-05-02T04:39:48.789Z</time></trkpt><trkpt lat="43.9261617" lon="12.71699"><ele>52.0</ele><time>2026-05-02T04:39:49.786Z</time></trkpt><trkpt lat="43.9261833" lon="12.71685"><ele>52.0</ele><time>2026-05-02T04:39:50.787Z</time></trkpt><trkpt lat="43.926205" lon="12.7167083"><ele>52.0</ele><time>2026-05-02T04:39:51.787Z</time></trkpt><trkpt lat="43.92624" lon="12.7165583"><ele>53.2</ele><time>2026-05-02T04:39:52.787Z</time></trkpt><trkpt lat="43.926275" lon="12.71642"><ele>54.400000000000006</ele><time>2026-05-02T04:39:53.79Z</time></trkpt><trkpt lat="43.92631" lon="12.716305"><ele>55.599999999999994</ele><time>2026-05-02T04:39:54.786Z</time></trkpt><trkpt lat="43.9263517" lon="12.716205"><ele>56.8</ele><time>2026-05-02T04:39:55.786Z</time></trkpt><trkpt lat="43.9263967" lon="12.7160933"><ele>58.0</ele><time>2026-05-02T04:39:56.786Z</time></trkpt><trkpt lat="43.926445" lon="12.7159783"><ele>58.4</ele><time>2026-05-02T04:39:57.787Z</time></trkpt><trkpt lat="43.9265017" lon="12.7158617"><ele>58.8</ele><time>2026-05-02T04:39:58.786Z</time></trkpt><trkpt lat="43.926565" lon="12.71574"><ele>59.2</ele><time>2026-05-02T04:39:59.791Z</time></trkpt><trkpt lat="43.9266333" lon="12.715615"><ele>59.6</ele><time>2026-05-02T04:40:00.787Z</time></trkpt><trkpt lat="43.9267033" lon="12.715495"><ele>60.0</ele><time>2026-05-02T04:40:01.789Z</time></trkpt><trkpt lat="43.9267783" lon="12.7153683"><ele>59.6</ele><time>2026-05-02T04:40:02.786Z</time></trkpt><trkpt lat="43.9268583" lon="12.7152433"><ele>59.2</ele><time>2026-05-02T04:40:03.786Z</time></trkpt><trkpt lat="43.92694" lon="12.7151283"><ele>58.8</ele><time>2026-05-02T04:40:04.789Z</time></trkpt><trkpt lat="43.9270067" lon="12.71502"><ele>58.4</ele><time>2026-05-02T04:40:05.789Z</time></trkpt><trkpt lat="43.9270567" lon="12.7149017"><ele>58.0</ele><time>2026-05-02T04:40:06.789Z</time></trkpt><trkpt lat="43.9270867" lon="12.7147783"><ele>58.0</ele><time>2026-05-02T04:40:07.787Z</time></trkpt><trkpt lat="43.9271117" lon="12.71464"><ele>58.0</ele><time>2026-05-02T04:40:08.79Z</time></trkpt><trkpt lat="43.9271417" lon="12.7144933"><ele>58.0</ele><time>2026-05-02T04:40:09.786Z</time></trkpt><trkpt lat="43.9271817" lon="12.7143533"><ele>58.0</ele><time>2026-05-02T04:40:10.789Z</time></trkpt><trkpt lat="43.92723" lon="12.7142117"><ele>58.0</ele><time>2026-05-02T04:40:11.79Z</time></trkpt><trkpt lat="43.9272867" lon="12.7140783"><ele>58.75</ele><time>2026-05-02T04:40:12.791Z</time></trkpt><trkpt lat="43.9273583" lon="12.7139567"><ele>59.5</ele><time>2026-05-02T04:40:13.786Z</time></trkpt><trkpt lat="43.9274483" lon="12.7138433"><ele>60.25</ele><time>2026-05-02T04:40:14.789Z</time></trkpt><trkpt lat="43.9275517" lon="12.713735"><ele>61.0</ele><time>2026-05-02T04:40:15.79Z</time></trkpt><trkpt lat="43.9276667" lon="12.7136317"><ele>63.5</ele><time>2026-05-02T04:40:16.786Z</time></trkpt><trkpt lat="43.9277833" lon="12.7135433"><ele>66.0</ele><time>2026-05-02T04:40:17.787Z</time></trkpt><trkpt lat="43.9279083" lon="12.71345"><ele>68.5</ele><time>2026-05-02T04:40:18.79Z</time></trkpt><trkpt lat="43.928035" lon="12.713355"><ele>71.0</ele><time>2026-05-02T04:40:19.789Z</time></trkpt><trkpt lat="43.9281617" lon="12.7132533"><ele>71.0</ele><time>2026-05-02T04:40:20.789Z</time></trkpt><trkpt lat="43.928285" lon="12.7131433"><ele>71.0</ele><time>2026-05-02T04:40:21.787Z</time></trkpt><trkpt lat="43.9283917" lon="12.71303"><ele>71.0</ele><time>2026-05-02T04:40:22.789Z</time></trkpt><trkpt lat="43.9284817" lon="12.71293"><ele>71.0</ele><time>2026-05-02T04:40:23.789Z</time></trkpt><trkpt lat="43.9285617" lon="12.712835"><ele>70.6</ele><time>2026-05-02T04:40:24.79Z</time></trkpt><trkpt lat="43.92863" lon="12.71275"><ele>70.19999999999999</ele><time>2026-05-02T04:40:25.789Z</time></trkpt><trkpt lat="43.928705" lon="12.7126633"><ele>69.80000000000001</ele><time>2026-05-02T04:40:26.789Z</time></trkpt><trkpt lat="43.9287767" lon="12.71257"><ele>69.4</ele><time>2026-05-02T04:40:27.79Z</time></trkpt><trkpt lat="43.9288517" lon="12.7124783"><ele>69.0</ele><time>2026-05-02T04:40:28.789Z</time></trkpt><trkpt lat="43.92893" lon="12.7123817"><ele>69.0</ele><time>2026-05-02T04:40:29.789Z</time></trkpt><trkpt lat="43.9290117" lon="12.7122817"><ele>69.0</ele><time>2026-05-02T04:40:30.786Z</time></trkpt><trkpt lat="43.9290967" lon="12.712175"><ele>69.0</ele><time>2026-05-02T04:40:31.79Z</time></trkpt><trkpt lat="43.929185" lon="12.712065"><ele>69.0</ele><time>2026-05-02T04:40:32.792Z</time></trkpt><trkpt lat="43.9292767" lon="12.7119567"><ele>71.5</ele><time>2026-05-02T04:40:33.789Z</time></trkpt><trkpt lat="43.92937" lon="12.7118467"><ele>74.0</ele><time>2026-05-02T04:40:34.787Z</time></trkpt><trkpt lat="43.929465" lon="12.7117367"><ele>76.5</ele><time>2026-05-02T04:40:35.789Z</time></trkpt><trkpt lat="43.9295667" lon="12.7116233"><ele>79.0</ele><time>2026-05-02T04:40:36.79Z</time></trkpt><trkpt lat="43.9296667" lon="12.711505"><ele>79.0</ele><time>2026-05-02T04:40:37.789Z</time></trkpt><trkpt lat="43.929765" lon="12.711385"><ele>79.0</ele><time>2026-05-02T04:40:38.789Z</time></trkpt><trkpt lat="43.9298633" lon="12.7112633"><ele>79.0</ele><time>2026-05-02T04:40:39.787Z</time></trkpt><trkpt lat="43.929965" lon="12.7111383"><ele>79.0</ele><time>2026-05-02T04:40:40.79Z</time></trkpt><trkpt lat="43.93006" lon="12.7110083"><ele>79.5</ele><time>2026-05-02T04:40:41.79Z</time></trkpt><trkpt lat="43.9301583" lon="12.7108767"><ele>80.0</ele><time>2026-05-02T04:40:42.789Z</time></trkpt><trkpt lat="43.9302617" lon="12.7107367"><ele>80.5</ele><time>2026-05-02T04:40:43.789Z</time></trkpt><trkpt lat="43.9303617" lon="12.7105967"><ele>81.0</ele><time>2026-05-02T04:40:44.79Z</time></trkpt><trkpt lat="43.9304633" lon="12.7104567"><ele>81.0</ele><time>2026-05-02T04:40:45.79Z</time></trkpt><trkpt lat="43.9305667" lon="12.7103167"><ele>81.0</ele><time>2026-05-02T04:40:46.789Z</time></trkpt><trkpt lat="43.9306717" lon="12.710175"><ele>81.0</ele><time>2026-05-02T04:40:47.79Z</time></trkpt><trkpt lat="43.93078" lon="12.7100333"><ele>81.0</ele><time>2026-05-02T04:40:48.79Z</time></trkpt><trkpt lat="43.9308817" lon="12.7099"><ele>81.0</ele><time>2026-05-02T04:40:49.789Z</time></trkpt><trkpt lat="43.9309817" lon="12.7097817"><ele>81.0</ele><time>2026-05-02T04:40:50.79Z</time></trkpt><trkpt lat="43.9310767" lon="12.709675"><ele>81.0</ele><time>2026-05-02T04:40:51.789Z</time></trkpt><trkpt lat="43.9311683" lon="12.7095767"><ele>81.0</ele><time>2026-05-02T04:40:52.789Z</time></trkpt><trkpt lat="43.93126" lon="12.7094767"><ele>82.5</ele><time>2026-05-02T04:40:53.789Z</time></trkpt><trkpt lat="43.9313517" lon="12.709375"><ele>84.0</ele><time>2026-05-02T04:40:54.792Z</time></trkpt><trkpt lat="43.9314467" lon="12.70927"><ele>85.5</ele><time>2026-05-02T04:40:55.79Z</time></trkpt><trkpt lat="43.9315417" lon="12.7091667"><ele>87.0</ele><time>2026-05-02T04:40:56.789Z</time></trkpt><trkpt lat="43.931635" lon="12.7090717"><ele>84.5</ele><time>2026-05-02T04:40:57.789Z</time></trkpt><trkpt lat="43.9317333" lon="12.7089817"><ele>82.0</ele><time>2026-05-02T04:40:58.789Z</time></trkpt><trkpt lat="43.9318283" lon="12.7088983"><ele>79.5</ele><time>2026-05-02T04:40:59.79Z</time></trkpt><trkpt lat="43.9319233" lon="12.7088117"><ele>77.0</ele><time>2026-05-02T04:41:00.79Z</time></trkpt><trkpt lat="43.9320083" lon="12.7087233"><ele>77.0</ele><time>2026-05-02T04:41:01.789Z</time></trkpt><trkpt lat="43.93208" lon="12.7086483"><ele>77.0</ele><time>2026-05-02T04:41:02.79Z</time></trkpt><trkpt lat="43.9321333" lon="12.70859"><ele>77.0</ele><time>2026-05-02T04:41:03.789Z</time></trkpt><trkpt lat="43.9321917" lon="12.7085"><ele>77.0</ele><time>2026-05-02T04:41:05.789Z</time></trkpt><trkpt lat="43.9321767" lon="12.7083783"><ele>77.0</ele><time>2026-05-02T04:41:09.786Z</time></trkpt><trkpt lat="43.9320817" lon="12.7082733"><ele>77.33333333333334</ele><time>2026-05-02T04:41:11.786Z</time></trkpt><trkpt lat="43.9320217" lon="12.7082117"><ele>77.66666666666667</ele><time>2026-05-02T04:41:12.786Z</time></trkpt><trkpt lat="43.931955" lon="12.7081383"><ele>78.0</ele><time>2026-05-02T04:41:13.786Z</time></trkpt><trkpt lat="43.9318867" lon="12.70806"><ele>78.33333333333333</ele><time>2026-05-02T04:41:14.787Z</time></trkpt><trkpt lat="43.9318133" lon="12.7079783"><ele>78.66666666666666</ele><time>2026-05-02T04:41:15.786Z</time></trkpt><trkpt lat="43.93173" lon="12.7078983"><ele>79.0</ele><time>2026-05-02T04:41:16.787Z</time></trkpt><trkpt lat="43.93164" lon="12.7078233"><ele>80.25</ele><time>2026-05-02T04:41:17.787Z</time></trkpt><trkpt lat="43.9315383" lon="12.70775"><ele>81.5</ele><time>2026-05-02T04:41:18.786Z</time></trkpt><trkpt lat="43.9314283" lon="12.7076833"><ele>82.75</ele><time>2026-05-02T04:41:19.789Z</time></trkpt><trkpt lat="43.9313183" lon="12.7076217"><ele>84.0</ele><time>2026-05-02T04:41:20.79Z</time></trkpt><trkpt lat="43.9312083" lon="12.7075467"><ele>84.0</ele><time>2026-05-02T04:41:21.79Z</time></trkpt><trkpt lat="43.9311033" lon="12.70745"><ele>84.0</ele><time>2026-05-02T04:41:22.789Z</time></trkpt><trkpt lat="43.9310117" lon="12.7073333"><ele>84.0</ele><time>2026-05-02T04:41:23.789Z</time></trkpt><trkpt lat="43.93093" lon="12.7072083"><ele>84.0</ele><time>2026-05-02T04:41:24.789Z</time></trkpt><trkpt lat="43.93085" lon="12.7070867"><ele>85.5</ele><time>2026-05-02T04:41:25.79Z</time></trkpt><trkpt lat="43.9307617" lon="12.7069783"><ele>87.0</ele><time>2026-05-02T04:41:26.789Z</time></trkpt><trkpt lat="43.9306583" lon="12.706895"><ele>88.5</ele><time>2026-05-02T04:41:27.789Z</time></trkpt><trkpt lat="43.93055" lon="12.7068383"><ele>90.0</ele><time>2026-05-02T04:41:28.789Z</time></trkpt><trkpt lat="43.9304383" lon="12.7067883"><ele>90.0</ele><time>2026-05-02T04:41:29.79Z</time></trkpt><trkpt lat="43.9303333" lon="12.70673"><ele>90.0</ele><time>2026-05-02T04:41:30.79Z</time></trkpt><trkpt lat="43.9302367" lon="12.7066517"><ele>90.0</ele><time>2026-05-02T04:41:31.789Z</time></trkpt><trkpt lat="43.930145" lon="12.7065533"><ele>90.0</ele><time>2026-05-02T04:41:32.79Z</time></trkpt><trkpt lat="43.93006" lon="12.706435"><ele>92.0</ele><time>2026-05-02T04:41:33.79Z</time></trkpt><trkpt lat="43.9299767" lon="12.70631"><ele>94.0</ele><time>2026-05-02T04:41:34.789Z</time></trkpt><trkpt lat="43.92989" lon="12.706185"><ele>96.0</ele><time>2026-05-02T04:41:35.789Z</time></trkpt><trkpt lat="43.9297983" lon="12.7060633"><ele>98.0</ele><time>2026-05-02T04:41:36.79Z</time></trkpt><trkpt lat="43.92971" lon="12.7059433"><ele>98.25</ele><time>2026-05-02T04:41:37.786Z</time></trkpt><trkpt lat="43.9296283" lon="12.7058267"><ele>98.5</ele><time>2026-05-02T04:41:38.787Z</time></trkpt><trkpt lat="43.929545" lon="12.7057083"><ele>98.75</ele><time>2026-05-02T04:41:39.786Z</time></trkpt><trkpt lat="43.9294683" lon="12.7055783"><ele>99.0</ele><time>2026-05-02T04:41:40.788Z</time></trkpt><trkpt lat="43.9294033" lon="12.7054333"><ele>99.0</ele><time>2026-05-02T04:41:41.79Z</time></trkpt><trkpt lat="43.9293467" lon="12.70528"><ele>99.0</ele><time>2026-05-02T04:41:42.789Z</time></trkpt><trkpt lat="43.9292933" lon="12.705125"><ele>99.0</ele><time>2026-05-02T04:41:43.789Z</time></trkpt><trkpt lat="43.9292417" lon="12.7049667"><ele>99.0</ele><time>2026-05-02T04:41:44.79Z</time></trkpt><trkpt lat="43.9291883" lon="12.7048217"><ele>98.75</ele><time>2026-05-02T04:41:45.787Z</time></trkpt><trkpt lat="43.9291217" lon="12.704685"><ele>98.5</ele><time>2026-05-02T04:41:46.788Z</time></trkpt><trkpt lat="43.9290483" lon="12.70456"><ele>98.25</ele><time>2026-05-02T04:41:47.79Z</time></trkpt><trkpt lat="43.9289583" lon="12.7044483"><ele>98.0</ele><time>2026-05-02T04:41:48.786Z</time></trkpt><trkpt lat="43.928855" lon="12.7043467"><ele>97.0</ele><time>2026-05-02T04:41:49.786Z</time></trkpt><trkpt lat="43.92875" lon="12.7042483"><ele>96.0</ele><time>2026-05-02T04:41:50.789Z</time></trkpt><trkpt lat="43.9286433" lon="12.7041533"><ele>95.0</ele><time>2026-05-02T04:41:51.791Z</time></trkpt><trkpt lat="43.9285383" lon="12.70406"><ele>94.0</ele><time>2026-05-02T04:41:52.789Z</time></trkpt><trkpt lat="43.9284317" lon="12.7039667"><ele>94.5</ele><time>2026-05-02T04:41:53.79Z</time></trkpt><trkpt lat="43.928325" lon="12.7038717"><ele>95.0</ele><time>2026-05-02T04:41:54.789Z</time></trkpt><trkpt lat="43.92822" lon="12.7037667"><ele>95.5</ele><time>2026-05-02T04:41:55.789Z</time></trkpt><trkpt lat="43.928115" lon="12.7036533"><ele>96.0</ele><time>2026-05-02T04:41:56.789Z</time></trkpt><trkpt lat="43.9280167" lon="12.7035317"><ele>96.0</ele><time>2026-05-02T04:41:57.79Z</time></trkpt><trkpt lat="43.927925" lon="12.70341"><ele>96.0</ele><time>2026-05-02T04:41:58.789Z</time></trkpt><trkpt lat="43.927835" lon="12.7032883"><ele>96.0</ele><time>2026-05-02T04:41:59.789Z</time></trkpt><trkpt lat="43.9277483" lon="12.703165"><ele>96.0</ele><time>2026-05-02T04:42:00.79Z</time></trkpt><trkpt lat="43.9276617" lon="12.70304"><ele>96.0</ele><time>2026-05-02T04:42:01.789Z</time></trkpt><trkpt lat="43.9275767" lon="12.7029167"><ele>96.0</ele><time>2026-05-02T04:42:02.792Z</time></trkpt><trkpt lat="43.9274833" lon="12.7028"><ele>96.0</ele><time>2026-05-02T04:42:03.789Z</time></trkpt><trkpt lat="43.927385" lon="12.702685"><ele>96.0</ele><time>2026-05-02T04:42:04.789Z</time></trkpt><trkpt lat="43.9272783" lon="12.702575"><ele>97.5</ele><time>2026-05-02T04:42:05.79Z</time></trkpt><trkpt lat="43.9271567" lon="12.7024667"><ele>99.0</ele><time>2026-05-02T04:42:06.79Z</time></trkpt><trkpt lat="43.9270283" lon="12.7023533"><ele>100.5</ele><time>2026-05-02T04:42:07.787Z</time></trkpt><trkpt lat="43.9269033" lon="12.7022317"><ele>102.0</ele><time>2026-05-02T04:42:08.786Z</time></trkpt><trkpt lat="43.92678" lon="12.7021033"><ele>104.0</ele><time>2026-05-02T04:42:09.786Z</time></trkpt><trkpt lat="43.92666" lon="12.70197"><ele>106.0</ele><time>2026-05-02T04:42:10.786Z</time></trkpt><trkpt lat="43.926545" lon="12.701835"><ele>108.0</ele><time>2026-05-02T04:42:11.786Z</time></trkpt><trkpt lat="43.92643" lon="12.7016983"><ele>108.0</ele><time>2026-05-02T04:42:12.787Z</time></trkpt><trkpt lat="43.92632" lon="12.70157"><ele>108.0</ele><time>2026-05-02T04:42:13.786Z</time></trkpt><trkpt lat="43.9262267" lon="12.7014367"><ele>108.0</ele><time>2026-05-02T04:42:14.787Z</time></trkpt><trkpt lat="43.9261383" lon="12.7012933"><ele>108.0</ele><time>2026-05-02T04:42:15.786Z</time></trkpt><trkpt lat="43.926075" lon="12.7011233"><ele>109.5</ele><time>2026-05-02T04:42:16.786Z</time></trkpt><trkpt lat="43.9260117" lon="12.70094"><ele>111.0</ele><time>2026-05-02T04:42:17.789Z</time></trkpt><trkpt lat="43.92595" lon="12.7007517"><ele>112.5</ele><time>2026-05-02T04:42:18.79Z</time></trkpt><trkpt lat="43.9258867" lon="12.7005633"><ele>114.0</ele><time>2026-05-02T04:42:19.789Z</time></trkpt><trkpt lat="43.9258233" lon="12.7003733"><ele>112.0</ele><time>2026-05-02T04:42:20.789Z</time></trkpt><trkpt lat="43.9257567" lon="12.7001833"><ele>110.0</ele><time>2026-05-02T04:42:21.79Z</time></trkpt><trkpt lat="43.9256833" lon="12.6999983"><ele>108.0</ele><time>2026-05-02T04:42:22.789Z</time></trkpt><trkpt lat="43.925605" lon="12.6998233"><ele>108.0</ele><time>2026-05-02T04:42:23.789Z</time></trkpt><trkpt lat="43.9255217" lon="12.69966"><ele>108.0</ele><time>2026-05-02T04:42:24.79Z</time></trkpt><trkpt lat="43.9254333" lon="12.6995017"><ele>108.0</ele><time>2026-05-02T04:42:25.789Z</time></trkpt><trkpt lat="43.9253517" lon="12.6993367"><ele>108.0</ele><time>2026-05-02T04:42:26.79Z</time></trkpt><trkpt lat="43.92527" lon="12.69916"><ele>106.0</ele><time>2026-05-02T04:42:27.79Z</time></trkpt><trkpt lat="43.9251983" lon="12.6989733"><ele>104.0</ele><time>2026-05-02T04:42:28.789Z</time></trkpt><trkpt lat="43.9251333" lon="12.69878"><ele>102.0</ele><time>2026-05-02T04:42:29.789Z</time></trkpt><trkpt lat="43.9250767" lon="12.6985783"><ele>104.66666666666666</ele><time>2026-05-02T04:42:30.789Z</time></trkpt><trkpt lat="43.9250217" lon="12.698375"><ele>107.33333333333333</ele><time>2026-05-02T04:42:31.789Z</time></trkpt><trkpt lat="43.92497" lon="12.6981733"><ele>110.0</ele><time>2026-05-02T04:42:32.79Z</time></trkpt><trkpt lat="43.9249217" lon="12.697975"><ele>110.0</ele><time>2026-05-02T04:42:33.789Z</time></trkpt><trkpt lat="43.9248667" lon="12.6977817"><ele>110.0</ele><time>2026-05-02T04:42:34.79Z</time></trkpt><trkpt lat="43.924805" lon="12.69759"><ele>110.0</ele><time>2026-05-02T04:42:35.789Z</time></trkpt><trkpt lat="43.9247317" lon="12.6974"><ele>109.66666666666666</ele><time>2026-05-02T04:42:36.789Z</time></trkpt><trkpt lat="43.9246483" lon="12.697215"><ele>109.33333333333334</ele><time>2026-05-02T04:42:37.786Z</time></trkpt><trkpt lat="43.9245483" lon="12.6970383"><ele>109.0</ele><time>2026-05-02T04:42:38.787Z</time></trkpt><trkpt lat="43.9244367" lon="12.696875"><ele>109.0</ele><time>2026-05-02T04:42:39.787Z</time></trkpt><trkpt lat="43.92432" lon="12.696735"><ele>109.0</ele><time>2026-05-02T04:42:40.787Z</time></trkpt><trkpt lat="43.9242" lon="12.6966167"><ele>109.0</ele><time>2026-05-02T04:42:41.787Z</time></trkpt><trkpt lat="43.924075" lon="12.69652"><ele>109.0</ele><time>2026-05-02T04:42:42.786Z</time></trkpt><trkpt lat="43.9239483" lon="12.6964333"><ele>109.0</ele><time>2026-05-02T04:42:43.786Z</time></trkpt><trkpt lat="43.9238217" lon="12.6963517"><ele>109.0</ele><time>2026-05-02T04:42:44.787Z</time></trkpt><trkpt lat="43.9236967" lon="12.6962733"><ele>109.0</ele><time>2026-05-02T04:42:45.786Z</time></trkpt><trkpt lat="43.923575" lon="12.6961933"><ele>109.0</ele><time>2026-05-02T04:42:46.787Z</time></trkpt><trkpt lat="43.923455" lon="12.6961117"><ele>109.0</ele><time>2026-05-02T04:42:47.787Z</time></trkpt><trkpt lat="43.9233367" lon="12.69603"><ele>109.0</ele><time>2026-05-02T04:42:48.787Z</time></trkpt><trkpt lat="43.923215" lon="12.6959467"><ele>109.0</ele><time>2026-05-02T04:42:49.787Z</time></trkpt><trkpt lat="43.9230967" lon="12.6958667"><ele>109.0</ele><time>2026-05-02T04:42:50.787Z</time></trkpt><trkpt lat="43.9229817" lon="12.6957883"><ele>109.0</ele><time>2026-05-02T04:42:51.787Z</time></trkpt><trkpt lat="43.9228733" lon="12.6957033"><ele>109.0</ele><time>2026-05-02T04:42:52.786Z</time></trkpt><trkpt lat="43.92277" lon="12.6956017"><ele>109.0</ele><time>2026-05-02T04:42:53.786Z</time></trkpt><trkpt lat="43.9226667" lon="12.6954833"><ele>109.0</ele><time>2026-05-02T04:42:54.79Z</time></trkpt><trkpt lat="43.922565" lon="12.69535"><ele>109.5</ele><time>2026-05-02T04:42:55.79Z</time></trkpt><trkpt lat="43.9224633" lon="12.69521"><ele>110.0</ele><time>2026-05-02T04:42:56.789Z</time></trkpt><trkpt lat="43.9223617" lon="12.6950767"><ele>110.5</ele><time>2026-05-02T04:42:57.79Z</time></trkpt><trkpt lat="43.922255" lon="12.694965"><ele>111.0</ele><time>2026-05-02T04:42:58.789Z</time></trkpt><trkpt lat="43.9221417" lon="12.6948783"><ele>111.0</ele><time>2026-05-02T04:42:59.792Z</time></trkpt><trkpt lat="43.9220167" lon="12.694805"><ele>111.0</ele><time>2026-05-02T04:43:00.79Z</time></trkpt><trkpt lat="43.9218867" lon="12.6947317"><ele>111.0</ele><time>2026-05-02T04:43:01.789Z</time></trkpt><trkpt lat="43.9217567" lon="12.6946617"><ele>111.0</ele><time>2026-05-02T04:43:02.789Z</time></trkpt><trkpt lat="43.92163" lon="12.6945933"><ele>110.0</ele><time>2026-05-02T04:43:03.79Z</time></trkpt><trkpt lat="43.92151" lon="12.6945233"><ele>109.0</ele><time>2026-05-02T04:43:04.789Z</time></trkpt><trkpt lat="43.9213933" lon="12.6944567"><ele>108.0</ele><time>2026-05-02T04:43:05.789Z</time></trkpt><trkpt lat="43.9212767" lon="12.6943967"><ele>107.0</ele><time>2026-05-02T04:43:06.79Z</time></trkpt><trkpt lat="43.92116" lon="12.6943367"><ele>109.25</ele><time>2026-05-02T04:43:07.79Z</time></trkpt><trkpt lat="43.9210367" lon="12.69428"><ele>111.5</ele><time>2026-05-02T04:43:08.79Z</time></trkpt><trkpt lat="43.9209117" lon="12.6942233"><ele>113.75</ele><time>2026-05-02T04:43:09.789Z</time></trkpt><trkpt lat="43.920785" lon="12.6941683"><ele>116.0</ele><time>2026-05-02T04:43:10.789Z</time></trkpt><trkpt lat="43.9206617" lon="12.6941233"><ele>116.4</ele><time>2026-05-02T04:43:11.789Z</time></trkpt><trkpt lat="43.9205533" lon="12.6940867"><ele>116.8</ele><time>2026-05-02T04:43:12.789Z</time></trkpt><trkpt lat="43.9204683" lon="12.694055"><ele>117.20000000000002</ele><time>2026-05-02T04:43:13.789Z</time></trkpt><trkpt lat="43.9204067" lon="12.69402"><ele>117.60000000000001</ele><time>2026-05-02T04:43:14.79Z</time></trkpt><trkpt lat="43.92035" lon="12.6938583"><ele>118.0</ele><time>2026-05-02T04:43:16.789Z</time></trkpt><trkpt lat="43.9203333" lon="12.693725"><ele>118.0</ele><time>2026-05-02T04:43:17.789Z</time></trkpt><trkpt lat="43.920315" lon="12.6936"><ele>118.00000000000001</ele><time>2026-05-02T04:43:18.789Z</time></trkpt><trkpt lat="43.9202917" lon="12.6934683"><ele>118.00000000000001</ele><time>2026-05-02T04:43:19.791Z</time></trkpt><trkpt lat="43.9202667" lon="12.6933367"><ele>118.0</ele><time>2026-05-02T04:43:20.786Z</time></trkpt><trkpt lat="43.920245" lon="12.6932133"><ele>118.0</ele><time>2026-05-02T04:43:21.789Z</time></trkpt><trkpt lat="43.9202233" lon="12.6930917"><ele>118.2</ele><time>2026-05-02T04:43:22.789Z</time></trkpt><trkpt lat="43.9202017" lon="12.69297"><ele>118.4</ele><time>2026-05-02T04:43:23.79Z</time></trkpt><trkpt lat="43.9201783" lon="12.6928433"><ele>118.60000000000001</ele><time>2026-05-02T04:43:24.789Z</time></trkpt><trkpt lat="43.920155" lon="12.6927133"><ele>118.80000000000001</ele><time>2026-05-02T04:43:25.79Z</time></trkpt><trkpt lat="43.92013" lon="12.6925783"><ele>119.0</ele><time>2026-05-02T04:43:26.79Z</time></trkpt><trkpt lat="43.920105" lon="12.6924367"><ele>119.0</ele><time>2026-05-02T04:43:27.789Z</time></trkpt><trkpt lat="43.920075" lon="12.692285"><ele>119.0</ele><time>2026-05-02T04:43:28.79Z</time></trkpt><trkpt lat="43.9200433" lon="12.6921217"><ele>119.0</ele><time>2026-05-02T04:43:29.789Z</time></trkpt><trkpt lat="43.9200117" lon="12.6919533"><ele>119.0</ele><time>2026-05-02T04:43:30.79Z</time></trkpt><trkpt lat="43.9199783" lon="12.6917767"><ele>115.75</ele><time>2026-05-02T04:43:31.79Z</time></trkpt><trkpt lat="43.9199467" lon="12.6915967"><ele>112.5</ele><time>2026-05-02T04:43:32.79Z</time></trkpt><trkpt lat="43.9199133" lon="12.6914133"><ele>109.25</ele><time>2026-05-02T04:43:33.789Z</time></trkpt><trkpt lat="43.9198833" lon="12.691225"><ele>106.0</ele><time>2026-05-02T04:43:34.79Z</time></trkpt><trkpt lat="43.9198533" lon="12.6910333"><ele>104.25</ele><time>2026-05-02T04:43:35.789Z</time></trkpt><trkpt lat="43.9198217" lon="12.690835"><ele>102.5</ele><time>2026-05-02T04:43:36.789Z</time></trkpt><trkpt lat="43.9197917" lon="12.6906367"><ele>100.75</ele><time>2026-05-02T04:43:37.789Z</time></trkpt><trkpt lat="43.9197633" lon="12.690435"><ele>99.0</ele><time>2026-05-02T04:43:38.789Z</time></trkpt><trkpt lat="43.9197333" lon="12.6902317"><ele>96.33333333333333</ele><time>2026-05-02T04:43:39.789Z</time></trkpt><trkpt lat="43.919705" lon="12.690025"><ele>93.66666666666666</ele><time>2026-05-02T04:43:40.79Z</time></trkpt><trkpt lat="43.9196783" lon="12.6898117"><ele>91.0</ele><time>2026-05-02T04:43:41.789Z</time></trkpt><trkpt lat="43.919655" lon="12.6895933"><ele>88.33333333333333</ele><time>2026-05-02T04:43:42.789Z</time></trkpt><trkpt lat="43.91963" lon="12.68938"><ele>85.66666666666667</ele><time>2026-05-02T04:43:43.79Z</time></trkpt><trkpt lat="43.9196033" lon="12.68916"><ele>83.0</ele><time>2026-05-02T04:43:44.79Z</time></trkpt><trkpt lat="43.9195683" lon="12.688945"><ele>83.0</ele><time>2026-05-02T04:43:45.789Z</time></trkpt><trkpt lat="43.919535" lon="12.688735"><ele>83.0</ele><time>2026-05-02T04:43:46.79Z</time></trkpt><trkpt lat="43.919505" lon="12.688535"><ele>83.0</ele><time>2026-05-02T04:43:47.79Z</time></trkpt><trkpt lat="43.9194817" lon="12.688335"><ele>83.0</ele><time>2026-05-02T04:43:48.789Z</time></trkpt><trkpt lat="43.9194617" lon="12.68813"><ele>79.66666666666667</ele><time>2026-05-02T04:43:49.79Z</time></trkpt><trkpt lat="43.9194433" lon="12.68792"><ele>76.33333333333333</ele><time>2026-05-02T04:43:50.789Z</time></trkpt><trkpt lat="43.9194217" lon="12.6877117"><ele>73.0</ele><time>2026-05-02T04:43:51.789Z</time></trkpt><trkpt lat="43.9193867" lon="12.6875083"><ele>71.0</ele><time>2026-05-02T04:43:52.789Z</time></trkpt><trkpt lat="43.919345" lon="12.68731"><ele>69.0</ele><time>2026-05-02T04:43:53.789Z</time></trkpt><trkpt lat="43.9193033" lon="12.6871133"><ele>67.0</ele><time>2026-05-02T04:43:54.79Z</time></trkpt><trkpt lat="43.9192717" lon="12.686915"><ele>65.0</ele><time>2026-05-02T04:43:55.79Z</time></trkpt><trkpt lat="43.9192567" lon="12.6867133"><ele>62.66666666666667</ele><time>2026-05-02T04:43:56.788Z</time></trkpt><trkpt lat="43.9192617" lon="12.686505"><ele>60.33333333333333</ele><time>2026-05-02T04:43:57.786Z</time></trkpt><trkpt lat="43.9192967" lon="12.68629"><ele>58.0</ele><time>2026-05-02T04:43:58.786Z</time></trkpt><trkpt lat="43.9193467" lon="12.6860733"><ele>56.33333333333333</ele><time>2026-05-02T04:43:59.789Z</time></trkpt><trkpt lat="43.9194017" lon="12.6858517"><ele>54.66666666666667</ele><time>2026-05-02T04:44:00.789Z</time></trkpt><trkpt lat="43.9194467" lon="12.685635"><ele>53.0</ele><time>2026-05-02T04:44:01.786Z</time></trkpt><trkpt lat="43.9194817" lon="12.6854417"><ele>53.0</ele><time>2026-05-02T04:44:02.788Z</time></trkpt><trkpt lat="43.9195133" lon="12.685275"><ele>53.0</ele><time>2026-05-02T04:44:03.79Z</time></trkpt><trkpt lat="43.9195417" lon="12.685135"><ele>53.0</ele><time>2026-05-02T04:44:04.79Z</time></trkpt><trkpt lat="43.9195733" lon="12.6850217"><ele>53.0</ele><time>2026-05-02T04:44:05.789Z</time></trkpt><trkpt lat="43.9196067" lon="12.6849083"><ele>53.0</ele><time>2026-05-02T04:44:06.79Z</time></trkpt><trkpt lat="43.91965" lon="12.6847733"><ele>53.0</ele><time>2026-05-02T04:44:07.789Z</time></trkpt><trkpt lat="43.9197033" lon="12.6846133"><ele>53.0</ele><time>2026-05-02T04:44:08.79Z</time></trkpt><trkpt lat="43.9197617" lon="12.6844367"><ele>53.0</ele><time>2026-05-02T04:44:09.789Z</time></trkpt><trkpt lat="43.9198167" lon="12.6842517"><ele>53.0</ele><time>2026-05-02T04:44:10.789Z</time></trkpt><trkpt lat="43.9198683" lon="12.6840717"><ele>52.0</ele><time>2026-05-02T04:44:11.789Z</time></trkpt><trkpt lat="43.919925" lon="12.6839017"><ele>51.0</ele><time>2026-05-02T04:44:12.789Z</time></trkpt><trkpt lat="43.9199967" lon="12.6837633"><ele>50.0</ele><time>2026-05-02T04:44:13.789Z</time></trkpt><trkpt lat="43.9200783" lon="12.6836633"><ele>49.0</ele><time>2026-05-02T04:44:14.786Z</time></trkpt><trkpt lat="43.92017" lon="12.683585"><ele>48.6</ele><time>2026-05-02T04:44:15.79Z</time></trkpt><trkpt lat="43.9202583" lon="12.68353"><ele>48.2</ele><time>2026-05-02T04:44:16.79Z</time></trkpt><trkpt lat="43.9203483" lon="12.68349"><ele>47.800000000000004</ele><time>2026-05-02T04:44:17.789Z</time></trkpt><trkpt lat="43.9204267" lon="12.6834583"><ele>47.400000000000006</ele><time>2026-05-02T04:44:18.789Z</time></trkpt><trkpt lat="43.92049" lon="12.6834133"><ele>47.0</ele><time>2026-05-02T04:44:19.789Z</time></trkpt><trkpt lat="43.920555" lon="12.6832783"><ele>47.0</ele><time>2026-05-02T04:44:21.789Z</time></trkpt><trkpt lat="43.9205533" lon="12.683175"><ele>47.0</ele><time>2026-05-02T04:44:22.789Z</time></trkpt><trkpt lat="43.9205517" lon="12.6830633"><ele>47.0</ele><time>2026-05-02T04:44:23.79Z</time></trkpt><trkpt lat="43.9205583" lon="12.6829567"><ele>47.0</ele><time>2026-05-02T04:44:24.789Z</time></trkpt><trkpt lat="43.920565" lon="12.68286"><ele>47.0</ele><time>2026-05-02T04:44:25.789Z</time></trkpt><trkpt lat="43.92056" lon="12.68271"><ele>47.0</ele><time>2026-05-02T04:44:27.787Z</time></trkpt><trkpt lat="43.9205833" lon="12.682605"><ele>47.8</ele><time>2026-05-02T04:44:29.79Z</time></trkpt><trkpt lat="43.9206817" lon="12.6825167"><ele>48.6</ele><time>2026-05-02T04:44:31.786Z</time></trkpt><trkpt lat="43.9207517" lon="12.6824633"><ele>49.4</ele><time>2026-05-02T04:44:32.786Z</time></trkpt><trkpt lat="43.92084" lon="12.68241"><ele>50.199999999999996</ele><time>2026-05-02T04:44:33.789Z</time></trkpt><trkpt lat="43.9209467" lon="12.6823517"><ele>51.0</ele><time>2026-05-02T04:44:34.79Z</time></trkpt><trkpt lat="43.92105" lon="12.6822917"><ele>51.0</ele><time>2026-05-02T04:44:35.789Z</time></trkpt><trkpt lat="43.921155" lon="12.6822317"><ele>51.0</ele><time>2026-05-02T04:44:36.789Z</time></trkpt><trkpt lat="43.9212617" lon="12.6821717"><ele>51.0</ele><time>2026-05-02T04:44:37.791Z</time></trkpt><trkpt lat="43.9213667" lon="12.6821117"><ele>51.0</ele><time>2026-05-02T04:44:38.79Z</time></trkpt><trkpt lat="43.9214617" lon="12.6820533"><ele>51.0</ele><time>2026-05-02T04:44:39.789Z</time></trkpt><trkpt lat="43.9215567" lon="12.6820017"><ele>51.0</ele><time>2026-05-02T04:44:40.79Z</time></trkpt><trkpt lat="43.9216517" lon="12.68195"><ele>51.0</ele><time>2026-05-02T04:44:41.789Z</time></trkpt><trkpt lat="43.921755" lon="12.681895"><ele>51.0</ele><time>2026-05-02T04:44:42.789Z</time></trkpt><trkpt lat="43.9218633" lon="12.6818367"><ele>51.0</ele><time>2026-05-02T04:44:43.79Z</time></trkpt><trkpt lat="43.9219733" lon="12.681775"><ele>51.0</ele><time>2026-05-02T04:44:44.789Z</time></trkpt><trkpt lat="43.9220817" lon="12.68171"><ele>51.25</ele><time>2026-05-02T04:44:45.789Z</time></trkpt><trkpt lat="43.9221867" lon="12.6816433"><ele>51.5</ele><time>2026-05-02T04:44:46.789Z</time></trkpt><trkpt lat="43.9222883" lon="12.6815817"><ele>51.75</ele><time>2026-05-02T04:44:47.79Z</time></trkpt><trkpt lat="43.9223933" lon="12.6815183"><ele>52.0</ele><time>2026-05-02T04:44:48.789Z</time></trkpt><trkpt lat="43.9224967" lon="12.6814517"><ele>52.25</ele><time>2026-05-02T04:44:49.789Z</time></trkpt><trkpt lat="43.9226033" lon="12.6813867"><ele>52.5</ele><time>2026-05-02T04:44:50.787Z</time></trkpt><trkpt lat="43.922715" lon="12.6813167"><ele>52.75</ele><time>2026-05-02T04:44:51.881Z</time></trkpt><trkpt lat="43.9228333" lon="12.681245"><ele>53.0</ele><time>2026-05-02T04:44:52.789Z</time></trkpt><trkpt lat="43.9229533" lon="12.6811717"><ele>53.0</ele><time>2026-05-02T04:44:53.79Z</time></trkpt><trkpt lat="43.9230667" lon="12.6811117"><ele>53.0</ele><time>2026-05-02T04:44:54.79Z</time></trkpt><trkpt lat="43.923165" lon="12.6810617"><ele>53.0</ele><time>2026-05-02T04:44:55.786Z</time></trkpt><trkpt lat="43.92325" lon="12.681015"><ele>53.0</ele><time>2026-05-02T04:44:56.786Z</time></trkpt><trkpt lat="43.9233217" lon="12.680975"><ele>53.0</ele><time>2026-05-02T04:44:57.786Z</time></trkpt><trkpt lat="43.92338" lon="12.6809417"><ele>53.0</ele><time>2026-05-02T04:44:58.79Z</time></trkpt><trkpt lat="43.9234383" lon="12.680855"><ele>53.0</ele><time>2026-05-02T04:45:01.787Z</time></trkpt><trkpt lat="43.9234167" lon="12.680725"><ele>53.0</ele><time>2026-05-02T04:45:03.787Z</time></trkpt><trkpt lat="43.9233867" lon="12.6806283"><ele>53.0</ele><time>2026-05-02T04:45:04.789Z</time></trkpt><trkpt lat="43.9233567" lon="12.68051"><ele>53.0</ele><time>2026-05-02T04:45:05.789Z</time></trkpt><trkpt lat="43.9233217" lon="12.6803733"><ele>53.75</ele><time>2026-05-02T04:45:06.79Z</time></trkpt><trkpt lat="43.9232867" lon="12.680225"><ele>54.5</ele><time>2026-05-02T04:45:07.789Z</time></trkpt><trkpt lat="43.9232533" lon="12.68007"><ele>55.25</ele><time>2026-05-02T04:45:08.789Z</time></trkpt><trkpt lat="43.92322" lon="12.679915"><ele>56.0</ele><time>2026-05-02T04:45:09.786Z</time></trkpt><trkpt lat="43.9231817" lon="12.6797467"><ele>56.0</ele><time>2026-05-02T04:45:10.79Z</time></trkpt><trkpt lat="43.9231367" lon="12.6795667"><ele>56.0</ele><time>2026-05-02T04:45:11.789Z</time></trkpt><trkpt lat="43.92309" lon="12.6793767"><ele>56.0</ele><time>2026-05-02T04:45:12.791Z</time></trkpt><trkpt lat="43.9230417" lon="12.67918"><ele>56.0</ele><time>2026-05-02T04:45:13.79Z</time></trkpt><trkpt lat="43.9229917" lon="12.67898"><ele>56.0</ele><time>2026-05-02T04:45:14.786Z</time></trkpt><trkpt lat="43.922945" lon="12.6787783"><ele>56.0</ele><time>2026-05-02T04:45:15.789Z</time></trkpt><trkpt lat="43.9229" lon="12.6785817"><ele>56.0</ele><time>2026-05-02T04:45:16.79Z</time></trkpt><trkpt lat="43.9228483" lon="12.6783817"><ele>56.333333333333336</ele><time>2026-05-02T04:45:17.789Z</time></trkpt><trkpt lat="43.9227983" lon="12.6781817"><ele>56.66666666666667</ele><time>2026-05-02T04:45:18.786Z</time></trkpt><trkpt lat="43.92275" lon="12.6779833"><ele>57.0</ele><time>2026-05-02T04:45:19.787Z</time></trkpt><trkpt lat="43.9227017" lon="12.6777883"><ele>57.0</ele><time>2026-05-02T04:45:20.789Z</time></trkpt><trkpt lat="43.9226533" lon="12.6775967"><ele>57.0</ele><time>2026-05-02T04:45:21.789Z</time></trkpt><trkpt lat="43.9226083" lon="12.6774133"><ele>57.0</ele><time>2026-05-02T04:45:22.79Z</time></trkpt><trkpt lat="43.9225667" lon="12.6772417"><ele>57.0</ele><time>2026-05-02T04:45:23.79Z</time></trkpt><trkpt lat="43.922525" lon="12.6770867"><ele>57.0</ele><time>2026-05-02T04:45:24.789Z</time></trkpt><trkpt lat="43.9224833" lon="12.6769433"><ele>57.0</ele><time>2026-05-02T04:45:25.789Z</time></trkpt><trkpt lat="43.922445" lon="12.67681"><ele>57.0</ele><time>2026-05-02T04:45:26.787Z</time></trkpt><trkpt lat="43.9224133" lon="12.6766833"><ele>57.0</ele><time>2026-05-02T04:45:27.787Z</time></trkpt><trkpt lat="43.92238" lon="12.676555"><ele>57.0</ele><time>2026-05-02T04:45:28.786Z</time></trkpt><trkpt lat="43.9223533" lon="12.676415"><ele>56.75</ele><time>2026-05-02T04:45:29.787Z</time></trkpt><trkpt lat="43.9223267" lon="12.67627"><ele>56.5</ele><time>2026-05-02T04:45:30.786Z</time></trkpt><trkpt lat="43.9222933" lon="12.6761167"><ele>56.25</ele><time>2026-05-02T04:45:31.787Z</time></trkpt><trkpt lat="43.9222617" lon="12.6759533"><ele>56.0</ele><time>2026-05-02T04:45:32.787Z</time></trkpt><trkpt lat="43.92223" lon="12.6757817"><ele>55.75</ele><time>2026-05-02T04:45:33.79Z</time></trkpt><trkpt lat="43.9222033" lon="12.6756033"><ele>55.5</ele><time>2026-05-02T04:45:34.79Z</time></trkpt><trkpt lat="43.9221733" lon="12.67542"><ele>55.25</ele><time>2026-05-02T04:45:35.789Z</time></trkpt><trkpt lat="43.9221433" lon="12.6752333"><ele>55.0</ele><time>2026-05-02T04:45:36.791Z</time></trkpt><trkpt lat="43.922115" lon="12.6750383"><ele>55.0</ele><time>2026-05-02T04:45:37.789Z</time></trkpt><trkpt lat="43.9220883" lon="12.6748433"><ele>55.0</ele><time>2026-05-02T04:45:38.789Z</time></trkpt><trkpt lat="43.9220617" lon="12.6746483"><ele>55.0</ele><time>2026-05-02T04:45:39.79Z</time></trkpt><trkpt lat="43.922035" lon="12.67445"><ele>55.0</ele><time>2026-05-02T04:45:40.791Z</time></trkpt><trkpt lat="43.9220067" lon="12.6742483"><ele>55.25</ele><time>2026-05-02T04:45:41.786Z</time></trkpt><trkpt lat="43.92198" lon="12.6740433"><ele>55.5</ele><time>2026-05-02T04:45:42.79Z</time></trkpt><trkpt lat="43.9219567" lon="12.67384"><ele>55.75</ele><time>2026-05-02T04:45:43.786Z</time></trkpt><trkpt lat="43.92193" lon="12.673635"><ele>56.0</ele><time>2026-05-02T04:45:44.786Z</time></trkpt><trkpt lat="43.9219033" lon="12.6734317"><ele>56.0</ele><time>2026-05-02T04:45:45.791Z</time></trkpt><trkpt lat="43.9218767" lon="12.6732283"><ele>56.0</ele><time>2026-05-02T04:45:46.79Z</time></trkpt><trkpt lat="43.921855" lon="12.673025"><ele>56.0</ele><time>2026-05-02T04:45:47.789Z</time></trkpt><trkpt lat="43.9218317" lon="12.6728317"><ele>56.0</ele><time>2026-05-02T04:45:48.79Z</time></trkpt><trkpt lat="43.92181" lon="12.67265"><ele>56.4</ele><time>2026-05-02T04:45:49.79Z</time></trkpt><trkpt lat="43.9217883" lon="12.67248"><ele>56.8</ele><time>2026-05-02T04:45:50.79Z</time></trkpt><trkpt lat="43.92177" lon="12.6723317"><ele>57.199999999999996</ele><time>2026-05-02T04:45:51.791Z</time></trkpt><trkpt lat="43.9217583" lon="12.672205"><ele>57.599999999999994</ele><time>2026-05-02T04:45:52.789Z</time></trkpt><trkpt lat="43.9217583" lon="12.672095"><ele>58.0</ele><time>2026-05-02T04:45:53.79Z</time></trkpt><trkpt lat="43.9217667" lon="12.6719983"><ele>57.83333333333333</ele><time>2026-05-02T04:45:54.79Z</time></trkpt><trkpt lat="43.92178" lon="12.671905"><ele>57.666666666666664</ele><time>2026-05-02T04:45:55.79Z</time></trkpt><trkpt lat="43.921785" lon="12.6718083"><ele>57.5</ele><time>2026-05-02T04:45:56.79Z</time></trkpt><trkpt lat="43.9217617" lon="12.6717083"><ele>57.33333333333333</ele><time>2026-05-02T04:45:57.789Z</time></trkpt><trkpt lat="43.9217217" lon="12.6715967"><ele>57.166666666666664</ele><time>2026-05-02T04:45:58.789Z</time></trkpt><trkpt lat="43.9216733" lon="12.6714617"><ele>57.0</ele><time>2026-05-02T04:45:59.79Z</time></trkpt><trkpt lat="43.9216367" lon="12.6713067"><ele>57.6</ele><time>2026-05-02T04:46:00.789Z</time></trkpt><trkpt lat="43.9216117" lon="12.67115"><ele>58.2</ele><time>2026-05-02T04:46:01.786Z</time></trkpt><trkpt lat="43.9215933" lon="12.671005"><ele>58.8</ele><time>2026-05-02T04:46:02.79Z</time></trkpt><trkpt lat="43.921575" lon="12.6708567"><ele>59.4</ele><time>2026-05-02T04:46:03.789Z</time></trkpt><trkpt lat="43.921555" lon="12.6707033"><ele>60.0</ele><time>2026-05-02T04:46:04.79Z</time></trkpt><trkpt lat="43.921535" lon="12.6705517"><ele>60.0</ele><time>2026-05-02T04:46:05.788Z</time></trkpt><trkpt lat="43.921515" lon="12.6704"><ele>60.0</ele><time>2026-05-02T04:46:06.787Z</time></trkpt><trkpt lat="43.921495" lon="12.670245"><ele>60.0</ele><time>2026-05-02T04:46:07.789Z</time></trkpt><trkpt lat="43.921475" lon="12.6700883"><ele>60.0</ele><time>2026-05-02T04:46:08.787Z</time></trkpt><trkpt lat="43.92145" lon="12.6699267"><ele>60.25</ele><time>2026-05-02T04:46:09.79Z</time></trkpt><trkpt lat="43.921425" lon="12.6697633"><ele>60.5</ele><time>2026-05-02T04:46:10.79Z</time></trkpt><trkpt lat="43.921405" lon="12.6695933"><ele>60.75</ele><time>2026-05-02T04:46:11.789Z</time></trkpt><trkpt lat="43.9213817" lon="12.6694233"><ele>61.0</ele><time>2026-05-02T04:46:12.786Z</time></trkpt><trkpt lat="43.92136" lon="12.6692483"><ele>60.0</ele><time>2026-05-02T04:46:13.789Z</time></trkpt><trkpt lat="43.9213367" lon="12.66907"><ele>59.0</ele><time>2026-05-02T04:46:14.79Z</time></trkpt><trkpt lat="43.92131" lon="12.6688933"><ele>58.0</ele><time>2026-05-02T04:46:15.789Z</time></trkpt><trkpt lat="43.9212867" lon="12.668715"><ele>57.0</ele><time>2026-05-02T04:46:16.789Z</time></trkpt><trkpt lat="43.92126" lon="12.6685333"><ele>57.0</ele><time>2026-05-02T04:46:17.787Z</time></trkpt><trkpt lat="43.9212367" lon="12.6683517"><ele>57.0</ele><time>2026-05-02T04:46:18.792Z</time></trkpt><trkpt lat="43.921215" lon="12.6681667"><ele>57.0</ele><time>2026-05-02T04:46:19.79Z</time></trkpt><trkpt lat="43.9211933" lon="12.6679817"><ele>57.0</ele><time>2026-05-02T04:46:20.79Z</time></trkpt><trkpt lat="43.9211667" lon="12.6677967"><ele>57.0</ele><time>2026-05-02T04:46:21.789Z</time></trkpt><trkpt lat="43.9211433" lon="12.6676117"><ele>57.0</ele><time>2026-05-02T04:46:22.79Z</time></trkpt><trkpt lat="43.9211167" lon="12.6674267"><ele>57.0</ele><time>2026-05-02T04:46:23.791Z</time></trkpt><trkpt lat="43.9210867" lon="12.6672433"><ele>57.0</ele><time>2026-05-02T04:46:24.79Z</time></trkpt><trkpt lat="43.9210517" lon="12.6670583"><ele>57.0</ele><time>2026-05-02T04:46:25.789Z</time></trkpt><trkpt lat="43.921015" lon="12.6668767"><ele>57.0</ele><time>2026-05-02T04:46:26.79Z</time></trkpt><trkpt lat="43.92097" lon="12.6667"><ele>57.0</ele><time>2026-05-02T04:46:27.79Z</time></trkpt><trkpt lat="43.9209167" lon="12.666535"><ele>57.0</ele><time>2026-05-02T04:46:28.79Z</time></trkpt><trkpt lat="43.9208567" lon="12.6663783"><ele>58.5</ele><time>2026-05-02T04:46:29.789Z</time></trkpt><trkpt lat="43.92079" lon="12.666225"><ele>60.0</ele><time>2026-05-02T04:46:30.79Z</time></trkpt><trkpt lat="43.92072" lon="12.66607"><ele>61.5</ele><time>2026-05-02T04:46:31.79Z</time></trkpt><trkpt lat="43.9206533" lon="12.66592"><ele>63.0</ele><time>2026-05-02T04:46:32.789Z</time></trkpt><trkpt lat="43.920585" lon="12.6657667"><ele>63.0</ele><time>2026-05-02T04:46:33.789Z</time></trkpt><trkpt lat="43.9205167" lon="12.6656067"><ele>63.0</ele><time>2026-05-02T04:46:34.79Z</time></trkpt><trkpt lat="43.9204467" lon="12.6654433"><ele>63.0</ele><time>2026-05-02T04:46:35.789Z</time></trkpt><trkpt lat="43.9203767" lon="12.66528"><ele>63.0</ele><time>2026-05-02T04:46:36.79Z</time></trkpt><trkpt lat="43.920305" lon="12.6651133"><ele>63.25</ele><time>2026-05-02T04:46:37.789Z</time></trkpt><trkpt lat="43.9202333" lon="12.664945"><ele>63.5</ele><time>2026-05-02T04:46:38.79Z</time></trkpt><trkpt lat="43.920165" lon="12.6647733"><ele>63.75</ele><time>2026-05-02T04:46:39.79Z</time></trkpt><trkpt lat="43.9201" lon="12.664595"><ele>64.0</ele><time>2026-05-02T04:46:40.789Z</time></trkpt><trkpt lat="43.9200383" lon="12.6644117"><ele>64.5</ele><time>2026-05-02T04:46:41.79Z</time></trkpt><trkpt lat="43.9199833" lon="12.6642233"><ele>65.0</ele><time>2026-05-02T04:46:42.789Z</time></trkpt><trkpt lat="43.919935" lon="12.6640333"><ele>65.5</ele><time>2026-05-02T04:46:43.789Z</time></trkpt><trkpt lat="43.9198883" lon="12.6638383"><ele>66.0</ele><time>2026-05-02T04:46:44.791Z</time></trkpt><trkpt lat="43.919845" lon="12.66364"><ele>65.75</ele><time>2026-05-02T04:46:45.789Z</time></trkpt><trkpt lat="43.9198" lon="12.663445"><ele>65.5</ele><time>2026-05-02T04:46:46.787Z</time></trkpt><trkpt lat="43.9197567" lon="12.6632483"><ele>65.25</ele><time>2026-05-02T04:46:47.789Z</time></trkpt><trkpt lat="43.9197117" lon="12.663055"><ele>65.0</ele><time>2026-05-02T04:46:48.79Z</time></trkpt><trkpt lat="43.919665" lon="12.66286"><ele>65.25</ele><time>2026-05-02T04:46:49.786Z</time></trkpt><trkpt lat="43.9196167" lon="12.6626667"><ele>65.5</ele><time>2026-05-02T04:46:50.787Z</time></trkpt><trkpt lat="43.91956" lon="12.6624783"><ele>65.75</ele><time>2026-05-02T04:46:51.79Z</time></trkpt><trkpt lat="43.9194933" lon="12.662295"><ele>66.0</ele><time>2026-05-02T04:46:52.791Z</time></trkpt><trkpt lat="43.919415" lon="12.6621183"><ele>66.0</ele><time>2026-05-02T04:46:53.789Z</time></trkpt><trkpt lat="43.9193267" lon="12.6619433"><ele>66.0</ele><time>2026-05-02T04:46:54.79Z</time></trkpt><trkpt lat="43.919235" lon="12.6617717"><ele>66.0</ele><time>2026-05-02T04:46:55.79Z</time></trkpt><trkpt lat="43.91914" lon="12.6615983"><ele>66.66666666666667</ele><time>2026-05-02T04:46:56.789Z</time></trkpt><trkpt lat="43.9190417" lon="12.6614267"><ele>67.33333333333334</ele><time>2026-05-02T04:46:57.789Z</time></trkpt><trkpt lat="43.918945" lon="12.6612533"><ele>68.0</ele><time>2026-05-02T04:46:58.789Z</time></trkpt><trkpt lat="43.9188483" lon="12.6610783"><ele>68.66666666666667</ele><time>2026-05-02T04:46:59.789Z</time></trkpt><trkpt lat="43.9187483" lon="12.6609033"><ele>69.33333333333333</ele><time>2026-05-02T04:47:00.789Z</time></trkpt><trkpt lat="43.91865" lon="12.66073"><ele>70.0</ele><time>2026-05-02T04:47:01.791Z</time></trkpt><trkpt lat="43.918555" lon="12.660555"><ele>70.0</ele><time>2026-05-02T04:47:02.79Z</time></trkpt><trkpt lat="43.91846" lon="12.66038"><ele>70.0</ele><time>2026-05-02T04:47:03.789Z</time></trkpt><trkpt lat="43.9183717" lon="12.6602183"><ele>70.0</ele><time>2026-05-02T04:47:04.789Z</time></trkpt><trkpt lat="43.9182833" lon="12.66007"><ele>70.0</ele><time>2026-05-02T04:47:05.789Z</time></trkpt><trkpt lat="43.9182017" lon="12.6599233"><ele>70.0</ele><time>2026-05-02T04:47:06.79Z</time></trkpt><trkpt lat="43.9181217" lon="12.659775"><ele>70.0</ele><time>2026-05-02T04:47:07.789Z</time></trkpt><trkpt lat="43.9180433" lon="12.6596333"><ele>70.0</ele><time>2026-05-02T04:47:08.789Z</time></trkpt><trkpt lat="43.91797" lon="12.6595017"><ele>70.0</ele><time>2026-05-02T04:47:09.789Z</time></trkpt><trkpt lat="43.9179" lon="12.6593833"><ele>70.0</ele><time>2026-05-02T04:47:10.789Z</time></trkpt><trkpt lat="43.9178317" lon="12.6592767"><ele>70.0</ele><time>2026-05-02T04:47:11.79Z</time></trkpt><trkpt lat="43.9177667" lon="12.6591817"><ele>70.0</ele><time>2026-05-02T04:47:12.789Z</time></trkpt><trkpt lat="43.9177017" lon="12.6590867"><ele>70.0</ele><time>2026-05-02T04:47:13.789Z</time></trkpt><trkpt lat="43.9176383" lon="12.65898"><ele>70.0</ele><time>2026-05-02T04:47:14.789Z</time></trkpt><trkpt lat="43.917575" lon="12.65886"><ele>70.25</ele><time>2026-05-02T04:47:15.789Z</time></trkpt><trkpt lat="43.9175133" lon="12.6587317"><ele>70.5</ele><time>2026-05-02T04:47:16.79Z</time></trkpt><trkpt lat="43.917455" lon="12.6585983"><ele>70.75</ele><time>2026-05-02T04:47:17.79Z</time></trkpt><trkpt lat="43.9173917" lon="12.6584683"><ele>71.0</ele><time>2026-05-02T04:47:18.79Z</time></trkpt><trkpt lat="43.91732" lon="12.6583333"><ele>71.25</ele><time>2026-05-02T04:47:19.786Z</time></trkpt><trkpt lat="43.9172417" lon="12.6581933"><ele>71.5</ele><time>2026-05-02T04:47:20.789Z</time></trkpt><trkpt lat="43.9171567" lon="12.6580517"><ele>71.75</ele><time>2026-05-02T04:47:21.789Z</time></trkpt><trkpt lat="43.917075" lon="12.657905"><ele>72.0</ele><time>2026-05-02T04:47:22.789Z</time></trkpt><trkpt lat="43.9169917" lon="12.65776"><ele>72.5</ele><time>2026-05-02T04:47:23.789Z</time></trkpt><trkpt lat="43.9169117" lon="12.6576183"><ele>73.0</ele><time>2026-05-02T04:47:24.789Z</time></trkpt><trkpt lat="43.9168317" lon="12.65748"><ele>73.5</ele><time>2026-05-02T04:47:25.79Z</time></trkpt><trkpt lat="43.91675" lon="12.6573433"><ele>74.0</ele><time>2026-05-02T04:47:26.786Z</time></trkpt><trkpt lat="43.9166733" lon="12.6572083"><ele>74.0</ele><time>2026-05-02T04:47:27.786Z</time></trkpt><trkpt lat="43.9166067" lon="12.6570817"><ele>74.0</ele><time>2026-05-02T04:47:28.787Z</time></trkpt><trkpt lat="43.9165483" lon="12.6569667"><ele>74.0</ele><time>2026-05-02T04:47:29.787Z</time></trkpt><trkpt lat="43.9164867" lon="12.6568517"><ele>74.0</ele><time>2026-05-02T04:47:30.786Z</time></trkpt><trkpt lat="43.9164167" lon="12.6567417"><ele>74.0</ele><time>2026-05-02T04:47:31.786Z</time></trkpt><trkpt lat="43.9163467" lon="12.6566217"><ele>74.0</ele><time>2026-05-02T04:47:32.786Z</time></trkpt><trkpt lat="43.916275" lon="12.6564917"><ele>74.0</ele><time>2026-05-02T04:47:33.789Z</time></trkpt><trkpt lat="43.9161983" lon="12.6563533"><ele>74.0</ele><time>2026-05-02T04:47:34.79Z</time></trkpt><trkpt lat="43.9161233" lon="12.6562083"><ele>74.0</ele><time>2026-05-02T04:47:35.789Z</time></trkpt><trkpt lat="43.91605" lon="12.6560633"><ele>74.25</ele><time>2026-05-02T04:47:36.787Z</time></trkpt><trkpt lat="43.915985" lon="12.6559133"><ele>74.5</ele><time>2026-05-02T04:47:37.79Z</time></trkpt><trkpt lat="43.9159283" lon="12.6557617"><ele>74.75</ele><time>2026-05-02T04:47:38.789Z</time></trkpt><trkpt lat="43.9158883" lon="12.6556083"><ele>75.0</ele><time>2026-05-02T04:47:39.789Z</time></trkpt><trkpt lat="43.9158567" lon="12.6554467"><ele>75.25</ele><time>2026-05-02T04:47:40.789Z</time></trkpt><trkpt lat="43.9158283" lon="12.6552783"><ele>75.5</ele><time>2026-05-02T04:47:41.789Z</time></trkpt><trkpt lat="43.9157967" lon="12.6551083"><ele>75.75</ele><time>2026-05-02T04:47:42.791Z</time></trkpt><trkpt lat="43.915765" lon="12.6549317"><ele>76.0</ele><time>2026-05-02T04:47:43.789Z</time></trkpt><trkpt lat="43.9157283" lon="12.654755"><ele>76.0</ele><time>2026-05-02T04:47:44.79Z</time></trkpt><trkpt lat="43.9156883" lon="12.6545733"><ele>76.0</ele><time>2026-05-02T04:47:45.79Z</time></trkpt><trkpt lat="43.9156533" lon="12.6543867"><ele>76.0</ele><time>2026-05-02T04:47:46.79Z</time></trkpt><trkpt lat="43.9156167" lon="12.6542"><ele>76.0</ele><time>2026-05-02T04:47:47.789Z</time></trkpt><trkpt lat="43.9155733" lon="12.6540133"><ele>76.25</ele><time>2026-05-02T04:47:48.789Z</time></trkpt><trkpt lat="43.9155317" lon="12.6538217"><ele>76.5</ele><time>2026-05-02T04:47:49.79Z</time></trkpt><trkpt lat="43.9154917" lon="12.6536283"><ele>76.75</ele><time>2026-05-02T04:47:50.789Z</time></trkpt><trkpt lat="43.9154567" lon="12.6534333"><ele>77.0</ele><time>2026-05-02T04:47:51.786Z</time></trkpt><trkpt lat="43.9154233" lon="12.6532417"><ele>77.0</ele><time>2026-05-02T04:47:52.787Z</time></trkpt><trkpt lat="43.9153867" lon="12.653055"><ele>77.0</ele><time>2026-05-02T04:47:53.787Z</time></trkpt><trkpt lat="43.9153533" lon="12.6528817"><ele>77.0</ele><time>2026-05-02T04:47:54.786Z</time></trkpt><trkpt lat="43.91532" lon="12.65272"><ele>77.0</ele><time>2026-05-02T04:47:55.789Z</time></trkpt><trkpt lat="43.91529" lon="12.6525683"><ele>77.2</ele><time>2026-05-02T04:47:56.79Z</time></trkpt><trkpt lat="43.9152633" lon="12.6524267"><ele>77.4</ele><time>2026-05-02T04:47:57.789Z</time></trkpt><trkpt lat="43.9152417" lon="12.652295"><ele>77.6</ele><time>2026-05-02T04:47:58.789Z</time></trkpt><trkpt lat="43.91522" lon="12.65217"><ele>77.8</ele><time>2026-05-02T04:47:59.789Z</time></trkpt><trkpt lat="43.91519" lon="12.6520417"><ele>78.0</ele><time>2026-05-02T04:48:00.789Z</time></trkpt><trkpt lat="43.9151567" lon="12.6519083"><ele>78.0</ele><time>2026-05-02T04:48:01.79Z</time></trkpt><trkpt lat="43.9151267" lon="12.6517683"><ele>78.0</ele><time>2026-05-02T04:48:02.789Z</time></trkpt><trkpt lat="43.9150983" lon="12.65162"><ele>78.0</ele><time>2026-05-02T04:48:03.789Z</time></trkpt><trkpt lat="43.9150667" lon="12.6514667"><ele>78.0</ele><time>2026-05-02T04:48:04.786Z</time></trkpt><trkpt lat="43.915035" lon="12.6513083"><ele>78.0</ele><time>2026-05-02T04:48:05.789Z</time></trkpt><trkpt lat="43.9150017" lon="12.6511467"><ele>77.5</ele><time>2026-05-02T04:48:06.789Z</time></trkpt><trkpt lat="43.9149683" lon="12.6509817"><ele>77.0</ele><time>2026-05-02T04:48:07.789Z</time></trkpt><trkpt lat="43.9149367" lon="12.6508183"><ele>76.5</ele><time>2026-05-02T04:48:08.79Z</time></trkpt><trkpt lat="43.9149067" lon="12.65066"><ele>76.0</ele><time>2026-05-02T04:48:09.79Z</time></trkpt><trkpt lat="43.914875" lon="12.650515"><ele>76.0</ele><time>2026-05-02T04:48:10.789Z</time></trkpt><trkpt lat="43.9148483" lon="12.6503817"><ele>76.0</ele><time>2026-05-02T04:48:11.789Z</time></trkpt><trkpt lat="43.9148317" lon="12.6502517"><ele>76.0</ele><time>2026-05-02T04:48:12.79Z</time></trkpt><trkpt lat="43.9148117" lon="12.6501283"><ele>76.0</ele><time>2026-05-02T04:48:13.789Z</time></trkpt><trkpt lat="43.9147783" lon="12.650005"><ele>76.0</ele><time>2026-05-02T04:48:14.789Z</time></trkpt><trkpt lat="43.9147483" lon="12.6498733"><ele>76.2</ele><time>2026-05-02T04:48:15.79Z</time></trkpt><trkpt lat="43.914725" lon="12.6497283"><ele>76.39999999999999</ele><time>2026-05-02T04:48:16.789Z</time></trkpt><trkpt lat="43.9146983" lon="12.649585"><ele>76.6</ele><time>2026-05-02T04:48:17.789Z</time></trkpt><trkpt lat="43.9146683" lon="12.6494433"><ele>76.8</ele><time>2026-05-02T04:48:18.789Z</time></trkpt><trkpt lat="43.9146367" lon="12.6493033"><ele>77.0</ele><time>2026-05-02T04:48:19.786Z</time></trkpt><trkpt lat="43.91461" lon="12.6491717"><ele>77.0</ele><time>2026-05-02T04:48:20.789Z</time></trkpt><trkpt lat="43.9145883" lon="12.6490433"><ele>77.0</ele><time>2026-05-02T04:48:21.786Z</time></trkpt><trkpt lat="43.914575" lon="12.6489267"><ele>77.0</ele><time>2026-05-02T04:48:22.787Z</time></trkpt><trkpt lat="43.9145633" lon="12.6488183"><ele>77.0</ele><time>2026-05-02T04:48:23.786Z</time></trkpt><trkpt lat="43.914565" lon="12.6487233"><ele>77.0</ele><time>2026-05-02T04:48:24.789Z</time></trkpt><trkpt lat="43.9145533" lon="12.6485667"><ele>77.0</ele><time>2026-05-02T04:48:26.789Z</time></trkpt><trkpt lat="43.9144783" lon="12.6484083"><ele>77.0</ele><time>2026-05-02T04:48:28.789Z</time></trkpt><trkpt lat="43.9144317" lon="12.64829"><ele>77.0</ele><time>2026-05-02T04:48:29.789Z</time></trkpt><trkpt lat="43.9144" lon="12.6481617"><ele>77.0</ele><time>2026-05-02T04:48:30.79Z</time></trkpt><trkpt lat="43.91437" lon="12.6480183"><ele>77.0</ele><time>2026-05-02T04:48:31.789Z</time></trkpt><trkpt lat="43.9143467" lon="12.647865"><ele>77.0</ele><time>2026-05-02T04:48:32.789Z</time></trkpt><trkpt lat="43.9143233" lon="12.6477083"><ele>76.25</ele><time>2026-05-02T04:48:33.791Z</time></trkpt><trkpt lat="43.91431" lon="12.64755"><ele>75.5</ele><time>2026-05-02T04:48:34.786Z</time></trkpt><trkpt lat="43.9143067" lon="12.64739"><ele>74.75</ele><time>2026-05-02T04:48:35.789Z</time></trkpt><trkpt lat="43.9143067" lon="12.647225"><ele>74.0</ele><time>2026-05-02T04:48:36.79Z</time></trkpt><trkpt lat="43.9143033" lon="12.6470517"><ele>73.5</ele><time>2026-05-02T04:48:37.79Z</time></trkpt><trkpt lat="43.9143033" lon="12.6468783"><ele>73.0</ele><time>2026-05-02T04:48:38.79Z</time></trkpt><trkpt lat="43.914305" lon="12.6467033"><ele>72.5</ele><time>2026-05-02T04:48:39.789Z</time></trkpt><trkpt lat="43.9143017" lon="12.646535"><ele>72.0</ele><time>2026-05-02T04:48:40.79Z</time></trkpt><trkpt lat="43.9143017" lon="12.646375"><ele>72.0</ele><time>2026-05-02T04:48:41.787Z</time></trkpt><trkpt lat="43.914305" lon="12.6462233"><ele>72.0</ele><time>2026-05-02T04:48:42.79Z</time></trkpt><trkpt lat="43.91431" lon="12.6460817"><ele>72.0</ele><time>2026-05-02T04:48:43.79Z</time></trkpt><trkpt lat="43.914315" lon="12.6459483"><ele>72.0</ele><time>2026-05-02T04:48:44.787Z</time></trkpt><trkpt lat="43.9143183" lon="12.6458217"><ele>72.0</ele><time>2026-05-02T04:48:45.789Z</time></trkpt><trkpt lat="43.91432" lon="12.6457133"><ele>71.8</ele><time>2026-05-02T04:48:46.79Z</time></trkpt><trkpt lat="43.9143517" lon="12.64557"><ele>71.6</ele><time>2026-05-02T04:48:48.79Z</time></trkpt><trkpt lat="43.91446" lon="12.6455483"><ele>71.39999999999999</ele><time>2026-05-02T04:48:50.79Z</time></trkpt><trkpt lat="43.9145417" lon="12.645455"><ele>71.2</ele><time>2026-05-02T04:48:52.79Z</time></trkpt><trkpt lat="43.9145633" lon="12.6453567"><ele>71.0</ele><time>2026-05-02T04:48:53.787Z</time></trkpt><trkpt lat="43.91457" lon="12.6452283"><ele>71.0</ele><time>2026-05-02T04:48:54.79Z</time></trkpt><trkpt lat="43.9145667" lon="12.6450867"><ele>71.0</ele><time>2026-05-02T04:48:55.79Z</time></trkpt><trkpt lat="43.9145617" lon="12.6449367"><ele>71.0</ele><time>2026-05-02T04:48:56.791Z</time></trkpt><trkpt lat="43.9145533" lon="12.6447783"><ele>71.0</ele><time>2026-05-02T04:48:57.79Z</time></trkpt><trkpt lat="43.9145417" lon="12.6446017"><ele>71.0</ele><time>2026-05-02T04:48:58.789Z</time></trkpt><trkpt lat="43.9145283" lon="12.6444267"><ele>71.0</ele><time>2026-05-02T04:48:59.79Z</time></trkpt><trkpt lat="43.9145083" lon="12.6442433"><ele>71.0</ele><time>2026-05-02T04:49:00.789Z</time></trkpt><trkpt lat="43.9144833" lon="12.6440633"><ele>71.0</ele><time>2026-05-02T04:49:01.79Z</time></trkpt><trkpt lat="43.9144517" lon="12.64388"><ele>71.0</ele><time>2026-05-02T04:49:02.789Z</time></trkpt><trkpt lat="43.9144167" lon="12.6436983"><ele>71.0</ele><time>2026-05-02T04:49:03.79Z</time></trkpt><trkpt lat="43.9143833" lon="12.6435233"><ele>71.0</ele><time>2026-05-02T04:49:04.79Z</time></trkpt><trkpt lat="43.9143467" lon="12.6433517"><ele>71.0</ele><time>2026-05-02T04:49:05.789Z</time></trkpt><trkpt lat="43.914325" lon="12.64319"><ele>70.75</ele><time>2026-05-02T04:49:06.789Z</time></trkpt><trkpt lat="43.9143083" lon="12.64303"><ele>70.5</ele><time>2026-05-02T04:49:07.786Z</time></trkpt><trkpt lat="43.9143017" lon="12.6428617"><ele>70.25</ele><time>2026-05-02T04:49:08.79Z</time></trkpt><trkpt lat="43.9143033" lon="12.6426883"><ele>70.0</ele><time>2026-05-02T04:49:09.789Z</time></trkpt><trkpt lat="43.9143167" lon="12.6425167"><ele>69.0</ele><time>2026-05-02T04:49:10.789Z</time></trkpt><trkpt lat="43.914345" lon="12.6423383"><ele>68.0</ele><time>2026-05-02T04:49:11.789Z</time></trkpt><trkpt lat="43.9143783" lon="12.6421567"><ele>67.0</ele><time>2026-05-02T04:49:12.79Z</time></trkpt><trkpt lat="43.9144083" lon="12.64197"><ele>66.0</ele><time>2026-05-02T04:49:13.79Z</time></trkpt><trkpt lat="43.9144383" lon="12.64178"><ele>66.0</ele><time>2026-05-02T04:49:14.79Z</time></trkpt><trkpt lat="43.9144717" lon="12.6415883"><ele>66.0</ele><time>2026-05-02T04:49:15.786Z</time></trkpt><trkpt lat="43.9145067" lon="12.641395"><ele>66.0</ele><time>2026-05-02T04:49:16.788Z</time></trkpt><trkpt lat="43.91454" lon="12.6412033"><ele>66.0</ele><time>2026-05-02T04:49:17.787Z</time></trkpt><trkpt lat="43.914575" lon="12.6410117"><ele>66.0</ele><time>2026-05-02T04:49:18.787Z</time></trkpt><trkpt lat="43.9146083" lon="12.64082"><ele>66.0</ele><time>2026-05-02T04:49:19.789Z</time></trkpt><trkpt lat="43.9146417" lon="12.6406283"><ele>66.0</ele><time>2026-05-02T04:49:20.788Z</time></trkpt><trkpt lat="43.9146717" lon="12.6404383"><ele>66.0</ele><time>2026-05-02T04:49:21.787Z</time></trkpt><trkpt lat="43.9147017" lon="12.6402567"><ele>67.2</ele><time>2026-05-02T04:49:22.788Z</time></trkpt><trkpt lat="43.9147283" lon="12.640085"><ele>68.39999999999999</ele><time>2026-05-02T04:49:23.787Z</time></trkpt><trkpt lat="43.9147533" lon="12.6399233"><ele>69.6</ele><time>2026-05-02T04:49:24.791Z</time></trkpt><trkpt lat="43.91478" lon="12.6397817"><ele>70.8</ele><time>2026-05-02T04:49:25.791Z</time></trkpt><trkpt lat="43.91481" lon="12.6396633"><ele>72.0</ele><time>2026-05-02T04:49:26.789Z</time></trkpt><trkpt lat="43.9148367" lon="12.6395567"><ele>72.2</ele><time>2026-05-02T04:49:27.786Z</time></trkpt><trkpt lat="43.9148467" lon="12.63946"><ele>72.4</ele><time>2026-05-02T04:49:28.787Z</time></trkpt><trkpt lat="43.91479" lon="12.6393033"><ele>72.6</ele><time>2026-05-02T04:49:30.787Z</time></trkpt><trkpt lat="43.9147333" lon="12.6392317"><ele>72.8</ele><time>2026-05-02T04:49:31.786Z</time></trkpt><trkpt lat="43.914665" lon="12.6391483"><ele>73.0</ele><time>2026-05-02T04:49:32.788Z</time></trkpt><trkpt lat="43.9145933" lon="12.6390517"><ele>73.0</ele><time>2026-05-02T04:49:33.787Z</time></trkpt><trkpt lat="43.9145183" lon="12.6389383"><ele>73.0</ele><time>2026-05-02T04:49:34.786Z</time></trkpt><trkpt lat="43.9144467" lon="12.63881"><ele>73.0</ele><time>2026-05-02T04:49:35.786Z</time></trkpt><trkpt lat="43.9143767" lon="12.6386667"><ele>73.0</ele><time>2026-05-02T04:49:36.786Z</time></trkpt><trkpt lat="43.9143017" lon="12.638515"><ele>73.25</ele><time>2026-05-02T04:49:37.787Z</time></trkpt><trkpt lat="43.9142183" lon="12.63836"><ele>73.5</ele><time>2026-05-02T04:49:38.786Z</time></trkpt><trkpt lat="43.9141333" lon="12.6382017"><ele>73.75</ele><time>2026-05-02T04:49:39.789Z</time></trkpt><trkpt lat="43.9140517" lon="12.6380417"><ele>74.0</ele><time>2026-05-02T04:49:40.79Z</time></trkpt><trkpt lat="43.9139667" lon="12.6378817"><ele>73.75</ele><time>2026-05-02T04:49:41.791Z</time></trkpt><trkpt lat="43.9138883" lon="12.6377267"><ele>73.5</ele><time>2026-05-02T04:49:42.79Z</time></trkpt><trkpt lat="43.91381" lon="12.6375767"><ele>73.25</ele><time>2026-05-02T04:49:43.789Z</time></trkpt><trkpt lat="43.9137333" lon="12.6374233"><ele>73.0</ele><time>2026-05-02T04:49:44.786Z</time></trkpt><trkpt lat="43.9136583" lon="12.6372717"><ele>73.0</ele><time>2026-05-02T04:49:45.789Z</time></trkpt><trkpt lat="43.9135867" lon="12.6371233"><ele>73.0</ele><time>2026-05-02T04:49:46.791Z</time></trkpt><trkpt lat="43.913515" lon="12.63697"><ele>73.0</ele><time>2026-05-02T04:49:47.789Z</time></trkpt><trkpt lat="43.913445" lon="12.6368117"><ele>73.0</ele><time>2026-05-02T04:49:48.791Z</time></trkpt><trkpt lat="43.91338" lon="12.6366467"><ele>73.0</ele><time>2026-05-02T04:49:49.79Z</time></trkpt><trkpt lat="43.913325" lon="12.6364783"><ele>73.0</ele><time>2026-05-02T04:49:50.79Z</time></trkpt><trkpt lat="43.913275" lon="12.6363017"><ele>73.0</ele><time>2026-05-02T04:49:51.79Z</time></trkpt><trkpt lat="43.91324" lon="12.6361167"><ele>73.0</ele><time>2026-05-02T04:49:52.789Z</time></trkpt><trkpt lat="43.91322" lon="12.635925"><ele>73.0</ele><time>2026-05-02T04:49:53.786Z</time></trkpt><trkpt lat="43.9132117" lon="12.6357317"><ele>73.0</ele><time>2026-05-02T04:49:54.786Z</time></trkpt><trkpt lat="43.9132133" lon="12.6355367"><ele>73.0</ele><time>2026-05-02T04:49:55.787Z</time></trkpt><trkpt lat="43.91322" lon="12.6353417"><ele>73.0</ele><time>2026-05-02T04:49:56.79Z</time></trkpt><trkpt lat="43.913225" lon="12.635145"><ele>73.25</ele><time>2026-05-02T04:49:57.786Z</time></trkpt><trkpt lat="43.91323" lon="12.6349467"><ele>73.5</ele><time>2026-05-02T04:49:58.786Z</time></trkpt><trkpt lat="43.9132333" lon="12.634745"><ele>73.75</ele><time>2026-05-02T04:49:59.787Z</time></trkpt><trkpt lat="43.9132383" lon="12.6345433"><ele>74.0</ele><time>2026-05-02T04:50:00.788Z</time></trkpt><trkpt lat="43.9132433" lon="12.6343383"><ele>74.5</ele><time>2026-05-02T04:50:01.786Z</time></trkpt><trkpt lat="43.91325" lon="12.6341333"><ele>75.0</ele><time>2026-05-02T04:50:02.787Z</time></trkpt><trkpt lat="43.913255" lon="12.6339267"><ele>75.5</ele><time>2026-05-02T04:50:03.787Z</time></trkpt><trkpt lat="43.9132583" lon="12.6337183"><ele>76.0</ele><time>2026-05-02T04:50:04.788Z</time></trkpt><trkpt lat="43.9132633" lon="12.6335117"><ele>77.33333333333333</ele><time>2026-05-02T04:50:05.787Z</time></trkpt><trkpt lat="43.9132683" lon="12.6333033"><ele>78.66666666666667</ele><time>2026-05-02T04:50:06.788Z</time></trkpt><trkpt lat="43.9132733" lon="12.633095"><ele>80.0</ele><time>2026-05-02T04:50:07.787Z</time></trkpt><trkpt lat="43.9132783" lon="12.6328867"><ele>80.5</ele><time>2026-05-02T04:50:08.791Z</time></trkpt><trkpt lat="43.9132833" lon="12.6326817"><ele>81.0</ele><time>2026-05-02T04:50:09.79Z</time></trkpt><trkpt lat="43.9132867" lon="12.63248"><ele>81.5</ele><time>2026-05-02T04:50:10.786Z</time></trkpt><trkpt lat="43.9132917" lon="12.63228"><ele>82.0</ele><time>2026-05-02T04:50:11.786Z</time></trkpt><trkpt lat="43.9132967" lon="12.63208"><ele>82.25</ele><time>2026-05-02T04:50:12.79Z</time></trkpt><trkpt lat="43.9133017" lon="12.6318817"><ele>82.5</ele><time>2026-05-02T04:50:13.787Z</time></trkpt><trkpt lat="43.9133067" lon="12.6316817"><ele>82.75</ele><time>2026-05-02T04:50:14.786Z</time></trkpt><trkpt lat="43.9133117" lon="12.63148"><ele>83.0</ele><time>2026-05-02T04:50:15.79Z</time></trkpt><trkpt lat="43.9133183" lon="12.6312783"><ele>83.0</ele><time>2026-05-02T04:50:16.79Z</time></trkpt><trkpt lat="43.913325" lon="12.631075"><ele>83.0</ele><time>2026-05-02T04:50:17.789Z</time></trkpt><trkpt lat="43.9133317" lon="12.6308667"><ele>83.0</ele><time>2026-05-02T04:50:18.79Z</time></trkpt><trkpt lat="43.9133383" lon="12.6306567"><ele>83.0</ele><time>2026-05-02T04:50:19.79Z</time></trkpt><trkpt lat="43.9133433" lon="12.630445"><ele>83.0</ele><time>2026-05-02T04:50:20.789Z</time></trkpt><trkpt lat="43.9133467" lon="12.6302317"><ele>83.0</ele><time>2026-05-02T04:50:21.79Z</time></trkpt><trkpt lat="43.9133483" lon="12.6300183"><ele>83.0</ele><time>2026-05-02T04:50:22.789Z</time></trkpt><trkpt lat="43.9133517" lon="12.6298017"><ele>83.0</ele><time>2026-05-02T04:50:23.79Z</time></trkpt><trkpt lat="43.913355" lon="12.629585"><ele>83.0</ele><time>2026-05-02T04:50:24.786Z</time></trkpt><trkpt lat="43.9133583" lon="12.6293717"><ele>83.0</ele><time>2026-05-02T04:50:25.789Z</time></trkpt><trkpt lat="43.9133617" lon="12.62916"><ele>83.33333333333334</ele><time>2026-05-02T04:50:26.79Z</time></trkpt><trkpt lat="43.9133667" lon="12.6289467"><ele>83.66666666666667</ele><time>2026-05-02T04:50:27.787Z</time></trkpt><trkpt lat="43.9133733" lon="12.628735"><ele>84.0</ele><time>2026-05-02T04:50:28.791Z</time></trkpt><trkpt lat="43.91338" lon="12.6285217"><ele>84.25</ele><time>2026-05-02T04:50:29.788Z</time></trkpt><trkpt lat="43.9133867" lon="12.62831"><ele>84.5</ele><time>2026-05-02T04:50:30.788Z</time></trkpt><trkpt lat="43.9133933" lon="12.6281017"><ele>84.75</ele><time>2026-05-02T04:50:31.789Z</time></trkpt><trkpt lat="43.9133983" lon="12.6279017"><ele>85.0</ele><time>2026-05-02T04:50:32.787Z</time></trkpt><trkpt lat="43.9134017" lon="12.627715"><ele>85.25</ele><time>2026-05-02T04:50:33.788Z</time></trkpt><trkpt lat="43.913405" lon="12.6275333"><ele>85.5</ele><time>2026-05-02T04:50:34.787Z</time></trkpt><trkpt lat="43.9134083" lon="12.62736"><ele>85.75</ele><time>2026-05-02T04:50:35.789Z</time></trkpt><trkpt lat="43.9134117" lon="12.6271883"><ele>86.0</ele><time>2026-05-02T04:50:36.787Z</time></trkpt><trkpt lat="43.9134133" lon="12.6270183"><ele>86.19999999999999</ele><time>2026-05-02T04:50:37.787Z</time></trkpt><trkpt lat="43.9134117" lon="12.6268533"><ele>86.39999999999999</ele><time>2026-05-02T04:50:38.791Z</time></trkpt><trkpt lat="43.913405" lon="12.6266967"><ele>86.6</ele><time>2026-05-02T04:50:39.79Z</time></trkpt><trkpt lat="43.9134" lon="12.6265483"><ele>86.8</ele><time>2026-05-02T04:50:40.789Z</time></trkpt><trkpt lat="43.9134033" lon="12.6263967"><ele>87.0</ele><time>2026-05-02T04:50:41.787Z</time></trkpt><trkpt lat="43.9134083" lon="12.6262383"><ele>88.25</ele><time>2026-05-02T04:50:42.791Z</time></trkpt><trkpt lat="43.9134183" lon="12.6260733"><ele>89.5</ele><time>2026-05-02T04:50:43.79Z</time></trkpt><trkpt lat="43.9134317" lon="12.6259033"><ele>90.75</ele><time>2026-05-02T04:50:44.79Z</time></trkpt><trkpt lat="43.913445" lon="12.62573"><ele>92.0</ele><time>2026-05-02T04:50:45.79Z</time></trkpt><trkpt lat="43.913455" lon="12.625545"><ele>92.0</ele><time>2026-05-02T04:50:46.79Z</time></trkpt><trkpt lat="43.9134633" lon="12.6253533"><ele>92.0</ele><time>2026-05-02T04:50:47.786Z</time></trkpt><trkpt lat="43.91347" lon="12.6251583"><ele>92.0</ele><time>2026-05-02T04:50:48.79Z</time></trkpt><trkpt lat="43.913475" lon="12.6249617"><ele>92.0</ele><time>2026-05-02T04:50:49.79Z</time></trkpt><trkpt lat="43.91348" lon="12.6247617"><ele>91.5</ele><time>2026-05-02T04:50:50.789Z</time></trkpt><trkpt lat="43.9134867" lon="12.6245633"><ele>91.0</ele><time>2026-05-02T04:50:51.79Z</time></trkpt><trkpt lat="43.9134983" lon="12.6243667"><ele>90.5</ele><time>2026-05-02T04:50:52.789Z</time></trkpt><trkpt lat="43.9135033" lon="12.6241683"><ele>90.0</ele><time>2026-05-02T04:50:53.789Z</time></trkpt><trkpt lat="43.9135067" lon="12.6239683"><ele>89.75</ele><time>2026-05-02T04:50:54.789Z</time></trkpt><trkpt lat="43.9135083" lon="12.6237683"><ele>89.5</ele><time>2026-05-02T04:50:55.789Z</time></trkpt><trkpt lat="43.9135117" lon="12.6235633"><ele>89.25</ele><time>2026-05-02T04:50:56.786Z</time></trkpt><trkpt lat="43.913515" lon="12.6233583"><ele>89.0</ele><time>2026-05-02T04:50:57.786Z</time></trkpt><trkpt lat="43.9135183" lon="12.6231567"><ele>90.0</ele><time>2026-05-02T04:50:58.787Z</time></trkpt><trkpt lat="43.9135217" lon="12.6229517"><ele>91.0</ele><time>2026-05-02T04:50:59.787Z</time></trkpt><trkpt lat="43.913525" lon="12.622745"><ele>92.0</ele><time>2026-05-02T04:51:00.786Z</time></trkpt><trkpt lat="43.9135283" lon="12.6225417"><ele>93.0</ele><time>2026-05-02T04:51:01.786Z</time></trkpt><trkpt lat="43.91353" lon="12.6223417"><ele>93.0</ele><time>2026-05-02T04:51:02.787Z</time></trkpt><trkpt lat="43.913535" lon="12.62214"><ele>93.0</ele><time>2026-05-02T04:51:03.787Z</time></trkpt><trkpt lat="43.91354" lon="12.6219433"><ele>93.0</ele><time>2026-05-02T04:51:04.786Z</time></trkpt><trkpt lat="43.913545" lon="12.6217467"><ele>93.0</ele><time>2026-05-02T04:51:05.788Z</time></trkpt><trkpt lat="43.9135467" lon="12.621555"><ele>94.25</ele><time>2026-05-02T04:51:06.786Z</time></trkpt><trkpt lat="43.9135483" lon="12.6213617"><ele>95.5</ele><time>2026-05-02T04:51:07.786Z</time></trkpt><trkpt lat="43.9135533" lon="12.6211633"><ele>96.75</ele><time>2026-05-02T04:51:08.79Z</time></trkpt><trkpt lat="43.91356" lon="12.6209567"><ele>98.0</ele><time>2026-05-02T04:51:09.79Z</time></trkpt><trkpt lat="43.9135667" lon="12.6207483"><ele>99.33333333333333</ele><time>2026-05-02T04:51:10.79Z</time></trkpt><trkpt lat="43.913575" lon="12.620535"><ele>100.66666666666666</ele><time>2026-05-02T04:51:11.789Z</time></trkpt><trkpt lat="43.9135817" lon="12.6203183"><ele>102.0</ele><time>2026-05-02T04:51:12.79Z</time></trkpt><trkpt lat="43.913585" lon="12.6201033"><ele>102.33333333333334</ele><time>2026-05-02T04:51:13.789Z</time></trkpt><trkpt lat="43.91359" lon="12.6198883"><ele>102.66666666666667</ele><time>2026-05-02T04:51:14.789Z</time></trkpt><trkpt lat="43.913595" lon="12.619675"><ele>103.0</ele><time>2026-05-02T04:51:15.789Z</time></trkpt><trkpt lat="43.9135983" lon="12.619465"><ele>103.66666666666667</ele><time>2026-05-02T04:51:16.789Z</time></trkpt><trkpt lat="43.9136017" lon="12.6192533"><ele>104.33333333333334</ele><time>2026-05-02T04:51:17.789Z</time></trkpt><trkpt lat="43.9136083" lon="12.6190433"><ele>105.0</ele><time>2026-05-02T04:51:18.79Z</time></trkpt><trkpt lat="43.9136133" lon="12.618835"><ele>106.0</ele><time>2026-05-02T04:51:19.786Z</time></trkpt><trkpt lat="43.9136217" lon="12.6186233"><ele>107.0</ele><time>2026-05-02T04:51:20.79Z</time></trkpt><trkpt lat="43.9136283" lon="12.61841"><ele>108.0</ele><time>2026-05-02T04:51:21.79Z</time></trkpt><trkpt lat="43.913635" lon="12.618195"><ele>108.0</ele><time>2026-05-02T04:51:22.789Z</time></trkpt><trkpt lat="43.9136383" lon="12.61798"><ele>108.0</ele><time>2026-05-02T04:51:23.786Z</time></trkpt><trkpt lat="43.9136417" lon="12.6177667"><ele>108.0</ele><time>2026-05-02T04:51:24.79Z</time></trkpt><trkpt lat="43.9136433" lon="12.6175517"><ele>107.66666666666666</ele><time>2026-05-02T04:51:25.79Z</time></trkpt><trkpt lat="43.9136467" lon="12.6173333"><ele>107.33333333333333</ele><time>2026-05-02T04:51:26.787Z</time></trkpt><trkpt lat="43.9136533" lon="12.6171117"><ele>107.0</ele><time>2026-05-02T04:51:27.787Z</time></trkpt><trkpt lat="43.9136633" lon="12.61689"><ele>106.33333333333333</ele><time>2026-05-02T04:51:28.787Z</time></trkpt><trkpt lat="43.91367" lon="12.6166683"><ele>105.66666666666666</ele><time>2026-05-02T04:51:29.787Z</time></trkpt><trkpt lat="43.913675" lon="12.616445"><ele>105.0</ele><time>2026-05-02T04:51:30.788Z</time></trkpt><trkpt lat="43.91368" lon="12.6162233"><ele>105.66666666666666</ele><time>2026-05-02T04:51:31.787Z</time></trkpt><trkpt lat="43.913685" lon="12.6160017"><ele>106.33333333333333</ele><time>2026-05-02T04:51:32.787Z</time></trkpt><trkpt lat="43.9136917" lon="12.6157783"><ele>107.0</ele><time>2026-05-02T04:51:33.789Z</time></trkpt><trkpt lat="43.9136967" lon="12.6155533"><ele>107.0</ele><time>2026-05-02T04:51:34.79Z</time></trkpt><trkpt lat="43.913705" lon="12.6153267"><ele>107.0</ele><time>2026-05-02T04:51:35.79Z</time></trkpt><trkpt lat="43.91371" lon="12.6151017"><ele>107.0</ele><time>2026-05-02T04:51:36.789Z</time></trkpt><trkpt lat="43.9137183" lon="12.6148767"><ele>107.33333333333333</ele><time>2026-05-02T04:51:37.79Z</time></trkpt><trkpt lat="43.9137283" lon="12.6146567"><ele>107.66666666666666</ele><time>2026-05-02T04:51:38.789Z</time></trkpt><trkpt lat="43.9137417" lon="12.614435"><ele>108.0</ele><time>2026-05-02T04:51:39.79Z</time></trkpt><trkpt lat="43.9137583" lon="12.6142133"><ele>107.33333333333334</ele><time>2026-05-02T04:51:40.789Z</time></trkpt><trkpt lat="43.91378" lon="12.6139917"><ele>106.66666666666667</ele><time>2026-05-02T04:51:41.79Z</time></trkpt><trkpt lat="43.913805" lon="12.6137733"><ele>106.0</ele><time>2026-05-02T04:51:42.789Z</time></trkpt><trkpt lat="43.913835" lon="12.6135533"><ele>105.66666666666667</ele><time>2026-05-02T04:51:43.79Z</time></trkpt><trkpt lat="43.9138717" lon="12.6133383"><ele>105.33333333333334</ele><time>2026-05-02T04:51:44.789Z</time></trkpt><trkpt lat="43.91391" lon="12.6131217"><ele>105.0</ele><time>2026-05-02T04:51:45.79Z</time></trkpt><trkpt lat="43.913955" lon="12.6129067"><ele>105.0</ele><time>2026-05-02T04:51:46.789Z</time></trkpt><trkpt lat="43.914005" lon="12.6126933"><ele>105.0</ele><time>2026-05-02T04:51:47.789Z</time></trkpt><trkpt lat="43.9140617" lon="12.6124867"><ele>105.0</ele><time>2026-05-02T04:51:48.789Z</time></trkpt><trkpt lat="43.91412" lon="12.6122817"><ele>105.0</ele><time>2026-05-02T04:51:49.791Z</time></trkpt><trkpt lat="43.9141767" lon="12.612075"><ele>105.0</ele><time>2026-05-02T04:51:50.791Z</time></trkpt><trkpt lat="43.91424" lon="12.6118733"><ele>105.0</ele><time>2026-05-02T04:51:51.789Z</time></trkpt><trkpt lat="43.9143033" lon="12.6116783"><ele>106.33333333333334</ele><time>2026-05-02T04:51:52.79Z</time></trkpt><trkpt lat="43.9143683" lon="12.611485"><ele>107.66666666666667</ele><time>2026-05-02T04:51:53.789Z</time></trkpt><trkpt lat="43.914435" lon="12.6112917"><ele>109.0</ele><time>2026-05-02T04:51:54.789Z</time></trkpt><trkpt lat="43.9145" lon="12.6110917"><ele>109.0</ele><time>2026-05-02T04:51:55.79Z</time></trkpt><trkpt lat="43.9145617" lon="12.6108833"><ele>109.0</ele><time>2026-05-02T04:51:56.786Z</time></trkpt><trkpt lat="43.9146233" lon="12.6106717"><ele>109.0</ele><time>2026-05-02T04:51:57.786Z</time></trkpt><trkpt lat="43.9146783" lon="12.6104533"><ele>109.0</ele><time>2026-05-02T04:51:58.787Z</time></trkpt><trkpt lat="43.9147267" lon="12.610225"><ele>109.0</ele><time>2026-05-02T04:51:59.787Z</time></trkpt><trkpt lat="43.9147683" lon="12.6099867"><ele>109.0</ele><time>2026-05-02T04:52:00.787Z</time></trkpt><trkpt lat="43.9147983" lon="12.6097417"><ele>109.0</ele><time>2026-05-02T04:52:01.786Z</time></trkpt><trkpt lat="43.91483" lon="12.6094983"><ele>109.0</ele><time>2026-05-02T04:52:02.787Z</time></trkpt><trkpt lat="43.9148583" lon="12.6092533"><ele>109.0</ele><time>2026-05-02T04:52:03.789Z</time></trkpt><trkpt lat="43.9148883" lon="12.6090083"><ele>109.0</ele><time>2026-05-02T04:52:04.79Z</time></trkpt><trkpt lat="43.91492" lon="12.6087633"><ele>109.0</ele><time>2026-05-02T04:52:05.789Z</time></trkpt><trkpt lat="43.9149483" lon="12.6085217"><ele>109.0</ele><time>2026-05-02T04:52:06.789Z</time></trkpt><trkpt lat="43.9149783" lon="12.6082833"><ele>109.66666666666667</ele><time>2026-05-02T04:52:07.789Z</time></trkpt><trkpt lat="43.9150083" lon="12.60804"><ele>110.33333333333334</ele><time>2026-05-02T04:52:08.789Z</time></trkpt><trkpt lat="43.9150417" lon="12.6078017"><ele>111.0</ele><time>2026-05-02T04:52:09.787Z</time></trkpt><trkpt lat="43.9150733" lon="12.607565"><ele>112.0</ele><time>2026-05-02T04:52:10.79Z</time></trkpt><trkpt lat="43.9151017" lon="12.607325"><ele>113.0</ele><time>2026-05-02T04:52:11.787Z</time></trkpt><trkpt lat="43.9151317" lon="12.6070917"><ele>114.0</ele><time>2026-05-02T04:52:12.791Z</time></trkpt><trkpt lat="43.9151567" lon="12.6068517"><ele>114.0</ele><time>2026-05-02T04:52:13.789Z</time></trkpt><trkpt lat="43.9151817" lon="12.6066167"><ele>114.0</ele><time>2026-05-02T04:52:14.79Z</time></trkpt><trkpt lat="43.9152083" lon="12.60638"><ele>114.0</ele><time>2026-05-02T04:52:15.79Z</time></trkpt><trkpt lat="43.9152333" lon="12.6061417"><ele>113.66666666666666</ele><time>2026-05-02T04:52:16.789Z</time></trkpt><trkpt lat="43.9152617" lon="12.605905"><ele>113.33333333333333</ele><time>2026-05-02T04:52:17.789Z</time></trkpt><trkpt lat="43.91529" lon="12.6056717"><ele>113.0</ele><time>2026-05-02T04:52:18.789Z</time></trkpt><trkpt lat="43.9153217" lon="12.60544"><ele>113.33333333333333</ele><time>2026-05-02T04:52:19.79Z</time></trkpt><trkpt lat="43.91535" lon="12.60521"><ele>113.66666666666666</ele><time>2026-05-02T04:52:20.789Z</time></trkpt><trkpt lat="43.9153783" lon="12.60498"><ele>114.0</ele><time>2026-05-02T04:52:21.79Z</time></trkpt><trkpt lat="43.9154033" lon="12.6047533"><ele>114.0</ele><time>2026-05-02T04:52:22.789Z</time></trkpt><trkpt lat="43.9154317" lon="12.604525"><ele>114.0</ele><time>2026-05-02T04:52:23.789Z</time></trkpt><trkpt lat="43.9154583" lon="12.604305"><ele>114.0</ele><time>2026-05-02T04:52:24.786Z</time></trkpt><trkpt lat="43.9154833" lon="12.6040867"><ele>114.33333333333334</ele><time>2026-05-02T04:52:25.79Z</time></trkpt><trkpt lat="43.9155083" lon="12.6038717"><ele>114.66666666666667</ele><time>2026-05-02T04:52:26.79Z</time></trkpt><trkpt lat="43.9155333" lon="12.6036583"><ele>115.0</ele><time>2026-05-02T04:52:27.789Z</time></trkpt><trkpt lat="43.9155617" lon="12.6034467"><ele>116.0</ele><time>2026-05-02T04:52:28.791Z</time></trkpt><trkpt lat="43.9155917" lon="12.603235"><ele>117.0</ele><time>2026-05-02T04:52:29.79Z</time></trkpt><trkpt lat="43.915625" lon="12.6030283"><ele>118.0</ele><time>2026-05-02T04:52:30.79Z</time></trkpt><trkpt lat="43.9156667" lon="12.6028217"><ele>118.66666666666667</ele><time>2026-05-02T04:52:31.789Z</time></trkpt><trkpt lat="43.9157183" lon="12.6026133"><ele>119.33333333333334</ele><time>2026-05-02T04:52:32.79Z</time></trkpt><trkpt lat="43.915775" lon="12.6024083"><ele>120.0</ele><time>2026-05-02T04:52:33.789Z</time></trkpt><trkpt lat="43.9158333" lon="12.6022017"><ele>120.0</ele><time>2026-05-02T04:52:34.789Z</time></trkpt><trkpt lat="43.9158933" lon="12.6020017"><ele>120.0</ele><time>2026-05-02T04:52:35.789Z</time></trkpt><trkpt lat="43.9159517" lon="12.6018133"><ele>120.0</ele><time>2026-05-02T04:52:36.79Z</time></trkpt><trkpt lat="43.9160067" lon="12.60164"><ele>120.0</ele><time>2026-05-02T04:52:37.79Z</time></trkpt><trkpt lat="43.916055" lon="12.6014767"><ele>120.2</ele><time>2026-05-02T04:52:38.789Z</time></trkpt><trkpt lat="43.9161033" lon="12.601325"><ele>120.4</ele><time>2026-05-02T04:52:39.789Z</time></trkpt><trkpt lat="43.916145" lon="12.601185"><ele>120.6</ele><time>2026-05-02T04:52:40.79Z</time></trkpt><trkpt lat="43.916185" lon="12.6010533"><ele>120.8</ele><time>2026-05-02T04:52:41.789Z</time></trkpt><trkpt lat="43.9162183" lon="12.6009367"><ele>121.0</ele><time>2026-05-02T04:52:42.791Z</time></trkpt><trkpt lat="43.91624" lon="12.6008333"><ele>121.16666666666667</ele><time>2026-05-02T04:52:43.792Z</time></trkpt><trkpt lat="43.9162433" lon="12.600745"><ele>121.33333333333334</ele><time>2026-05-02T04:52:44.787Z</time></trkpt><trkpt lat="43.9162183" lon="12.6006617"><ele>121.5</ele><time>2026-05-02T04:52:45.789Z</time></trkpt><trkpt lat="43.9161583" lon="12.600595"><ele>121.66666666666666</ele><time>2026-05-02T04:52:46.79Z</time></trkpt><trkpt lat="43.9160783" lon="12.6005417"><ele>121.83333333333333</ele><time>2026-05-02T04:52:47.789Z</time></trkpt><trkpt lat="43.9159883" lon="12.600485"><ele>122.0</ele><time>2026-05-02T04:52:48.79Z</time></trkpt><trkpt lat="43.91589" lon="12.600425"><ele>121.25</ele><time>2026-05-02T04:52:49.79Z</time></trkpt><trkpt lat="43.9157867" lon="12.6003567"><ele>120.5</ele><time>2026-05-02T04:52:50.789Z</time></trkpt><trkpt lat="43.9156767" lon="12.600285"><ele>119.75</ele><time>2026-05-02T04:52:51.785Z</time></trkpt><trkpt lat="43.9155667" lon="12.6002117"><ele>119.0</ele><time>2026-05-02T04:52:52.791Z</time></trkpt><trkpt lat="43.91545" lon="12.6001333"><ele>118.5</ele><time>2026-05-02T04:52:53.79Z</time></trkpt><trkpt lat="43.9153233" lon="12.6000533"><ele>118.0</ele><time>2026-05-02T04:52:54.79Z</time></trkpt><trkpt lat="43.9151917" lon="12.59997"><ele>117.5</ele><time>2026-05-02T04:52:55.79Z</time></trkpt><trkpt lat="43.9150567" lon="12.59988"><ele>117.0</ele><time>2026-05-02T04:52:56.79Z</time></trkpt><trkpt lat="43.9149183" lon="12.5997883"><ele>115.66666666666666</ele><time>2026-05-02T04:52:57.79Z</time></trkpt><trkpt lat="43.9147783" lon="12.5997"><ele>114.33333333333333</ele><time>2026-05-02T04:52:58.789Z</time></trkpt><trkpt lat="43.91464" lon="12.5996117"><ele>113.0</ele><time>2026-05-02T04:52:59.789Z</time></trkpt><trkpt lat="43.9145033" lon="12.5995217"><ele>113.25</ele><time>2026-05-02T04:53:00.789Z</time></trkpt><trkpt lat="43.9143667" lon="12.5994333"><ele>113.5</ele><time>2026-05-02T04:53:01.789Z</time></trkpt><trkpt lat="43.9142333" lon="12.5993467"><ele>113.75</ele><time>2026-05-02T04:53:02.789Z</time></trkpt><trkpt lat="43.9141017" lon="12.5992617"><ele>114.0</ele><time>2026-05-02T04:53:03.791Z</time></trkpt><trkpt lat="43.9139733" lon="12.59917"><ele>112.75</ele><time>2026-05-02T04:53:04.79Z</time></trkpt><trkpt lat="43.9138467" lon="12.5990883"><ele>111.5</ele><time>2026-05-02T04:53:05.789Z</time></trkpt><trkpt lat="43.9137267" lon="12.5990083"><ele>110.25</ele><time>2026-05-02T04:53:06.79Z</time></trkpt><trkpt lat="43.913615" lon="12.5989317"><ele>109.0</ele><time>2026-05-02T04:53:07.789Z</time></trkpt><trkpt lat="43.9135033" lon="12.5988567"><ele>108.75</ele><time>2026-05-02T04:53:08.787Z</time></trkpt><trkpt lat="43.91339" lon="12.5987817"><ele>108.5</ele><time>2026-05-02T04:53:09.786Z</time></trkpt><trkpt lat="43.9132783" lon="12.5987017"><ele>108.25</ele><time>2026-05-02T04:53:10.789Z</time></trkpt><trkpt lat="43.91317" lon="12.5986217"><ele>108.0</ele><time>2026-05-02T04:53:11.789Z</time></trkpt><trkpt lat="43.9130617" lon="12.5985533"><ele>108.0</ele><time>2026-05-02T04:53:12.791Z</time></trkpt><trkpt lat="43.912955" lon="12.598495"><ele>108.00000000000001</ele><time>2026-05-02T04:53:13.789Z</time></trkpt><trkpt lat="43.912855" lon="12.5984433"><ele>108.00000000000001</ele><time>2026-05-02T04:53:14.789Z</time></trkpt><trkpt lat="43.91276" lon="12.5984017"><ele>108.0</ele><time>2026-05-02T04:53:15.789Z</time></trkpt><trkpt lat="43.9126783" lon="12.5983633"><ele>108.0</ele><time>2026-05-02T04:53:16.789Z</time></trkpt><trkpt lat="43.91262" lon="12.59832"><ele>108.0</ele><time>2026-05-02T04:53:17.789Z</time></trkpt><trkpt lat="43.912585" lon="12.5981817"><ele>108.00000000000001</ele><time>2026-05-02T04:53:19.791Z</time></trkpt><trkpt lat="43.9126083" lon="12.5980883"><ele>108.00000000000001</ele><time>2026-05-02T04:53:20.789Z</time></trkpt><trkpt lat="43.91265" lon="12.5979783"><ele>108.0</ele><time>2026-05-02T04:53:21.79Z</time></trkpt><trkpt lat="43.9127017" lon="12.5978567"><ele>108.0</ele><time>2026-05-02T04:53:22.791Z</time></trkpt><trkpt lat="43.9127583" lon="12.5977283"><ele>108.0</ele><time>2026-05-02T04:53:23.79Z</time></trkpt><trkpt lat="43.9128167" lon="12.59759"><ele>108.0</ele><time>2026-05-02T04:53:24.79Z</time></trkpt><trkpt lat="43.912875" lon="12.597445"><ele>108.0</ele><time>2026-05-02T04:53:25.787Z</time></trkpt><trkpt lat="43.9129317" lon="12.5972983"><ele>108.0</ele><time>2026-05-02T04:53:26.787Z</time></trkpt><trkpt lat="43.912995" lon="12.5971383"><ele>108.0</ele><time>2026-05-02T04:53:27.79Z</time></trkpt><trkpt lat="43.9130583" lon="12.5969733"><ele>108.0</ele><time>2026-05-02T04:53:28.79Z</time></trkpt><trkpt lat="43.9131183" lon="12.5968017"><ele>108.0</ele><time>2026-05-02T04:53:29.789Z</time></trkpt><trkpt lat="43.9131817" lon="12.5966317"><ele>108.0</ele><time>2026-05-02T04:53:30.79Z</time></trkpt><trkpt lat="43.91325" lon="12.59646"><ele>108.0</ele><time>2026-05-02T04:53:31.789Z</time></trkpt><trkpt lat="43.9133183" lon="12.5962867"><ele>108.0</ele><time>2026-05-02T04:53:32.789Z</time></trkpt><trkpt lat="43.9133833" lon="12.596115"><ele>108.0</ele><time>2026-05-02T04:53:33.786Z</time></trkpt><trkpt lat="43.91345" lon="12.595945"><ele>108.0</ele><time>2026-05-02T04:53:34.787Z</time></trkpt><trkpt lat="43.9135167" lon="12.5957767"><ele>108.25</ele><time>2026-05-02T04:53:35.787Z</time></trkpt><trkpt lat="43.9135817" lon="12.595605"><ele>108.5</ele><time>2026-05-02T04:53:36.79Z</time></trkpt><trkpt lat="43.9136517" lon="12.5954317"><ele>108.75</ele><time>2026-05-02T04:53:37.79Z</time></trkpt><trkpt lat="43.9137233" lon="12.5952533"><ele>109.0</ele><time>2026-05-02T04:53:38.79Z</time></trkpt><trkpt lat="43.9138" lon="12.5950867"><ele>109.25</ele><time>2026-05-02T04:53:39.79Z</time></trkpt><trkpt lat="43.9138833" lon="12.5949217"><ele>109.5</ele><time>2026-05-02T04:53:40.789Z</time></trkpt><trkpt lat="43.9139717" lon="12.59477"><ele>109.75</ele><time>2026-05-02T04:53:41.787Z</time></trkpt><trkpt lat="43.9140667" lon="12.594625"><ele>110.0</ele><time>2026-05-02T04:53:42.791Z</time></trkpt><trkpt lat="43.9141517" lon="12.594495"><ele>110.5</ele><time>2026-05-02T04:53:43.786Z</time></trkpt><trkpt lat="43.91423" lon="12.5943583"><ele>111.0</ele><time>2026-05-02T04:53:44.79Z</time></trkpt><trkpt lat="43.9143" lon="12.5942067"><ele>111.5</ele><time>2026-05-02T04:53:45.79Z</time></trkpt><trkpt lat="43.914365" lon="12.5940433"><ele>112.0</ele><time>2026-05-02T04:53:46.789Z</time></trkpt><trkpt lat="43.9144183" lon="12.5938733"><ele>112.25</ele><time>2026-05-02T04:53:47.79Z</time></trkpt><trkpt lat="43.91446" lon="12.5936917"><ele>112.5</ele><time>2026-05-02T04:53:48.786Z</time></trkpt><trkpt lat="43.9144983" lon="12.5935017"><ele>112.75</ele><time>2026-05-02T04:53:49.787Z</time></trkpt><trkpt lat="43.914535" lon="12.5933083"><ele>113.0</ele><time>2026-05-02T04:53:50.787Z</time></trkpt><trkpt lat="43.91458" lon="12.593115"><ele>112.75</ele><time>2026-05-02T04:53:51.788Z</time></trkpt><trkpt lat="43.91463" lon="12.5929233"><ele>112.5</ele><time>2026-05-02T04:53:52.788Z</time></trkpt><trkpt lat="43.9146867" lon="12.5927317"><ele>112.25</ele><time>2026-05-02T04:53:53.79Z</time></trkpt><trkpt lat="43.914745" lon="12.5925433"><ele>112.0</ele><time>2026-05-02T04:53:54.791Z</time></trkpt><trkpt lat="43.914805" lon="12.5923533"><ele>112.0</ele><time>2026-05-02T04:53:55.786Z</time></trkpt><trkpt lat="43.914865" lon="12.59216"><ele>112.0</ele><time>2026-05-02T04:53:56.787Z</time></trkpt><trkpt lat="43.9149217" lon="12.59197"><ele>112.0</ele><time>2026-05-02T04:53:57.787Z</time></trkpt><trkpt lat="43.9149767" lon="12.59179"><ele>112.0</ele><time>2026-05-02T04:53:58.787Z</time></trkpt><trkpt lat="43.9150317" lon="12.5915967"><ele>112.33333333333334</ele><time>2026-05-02T04:53:59.791Z</time></trkpt><trkpt lat="43.91509" lon="12.591405"><ele>112.66666666666666</ele><time>2026-05-02T04:54:00.789Z</time></trkpt><trkpt lat="43.9151467" lon="12.59121"><ele>113.0</ele><time>2026-05-02T04:54:01.791Z</time></trkpt><trkpt lat="43.915205" lon="12.591015"><ele>113.25</ele><time>2026-05-02T04:54:02.789Z</time></trkpt><trkpt lat="43.9152633" lon="12.5908267"><ele>113.5</ele><time>2026-05-02T04:54:03.791Z</time></trkpt><trkpt lat="43.9153217" lon="12.5906383"><ele>113.75</ele><time>2026-05-02T04:54:04.789Z</time></trkpt><trkpt lat="43.9153817" lon="12.5904433"><ele>114.0</ele><time>2026-05-02T04:54:05.787Z</time></trkpt><trkpt lat="43.9154383" lon="12.590245"><ele>114.33333333333334</ele><time>2026-05-02T04:54:06.791Z</time></trkpt><trkpt lat="43.9154967" lon="12.5900467"><ele>114.66666666666667</ele><time>2026-05-02T04:54:07.79Z</time></trkpt><trkpt lat="43.9155583" lon="12.5898483"><ele>115.0</ele><time>2026-05-02T04:54:08.79Z</time></trkpt><trkpt lat="43.9156167" lon="12.5896533"><ele>115.33333333333334</ele><time>2026-05-02T04:54:09.786Z</time></trkpt><trkpt lat="43.9156767" lon="12.589455"><ele>115.66666666666666</ele><time>2026-05-02T04:54:10.789Z</time></trkpt><trkpt lat="43.91573" lon="12.58926"><ele>116.0</ele><time>2026-05-02T04:54:11.879Z</time></trkpt><trkpt lat="43.9157883" lon="12.5890667"><ele>116.0</ele><time>2026-05-02T04:54:12.786Z</time></trkpt><trkpt lat="43.9158467" lon="12.5888717"><ele>116.0</ele><time>2026-05-02T04:54:13.787Z</time></trkpt><trkpt lat="43.9159017" lon="12.5886867"><ele>116.0</ele><time>2026-05-02T04:54:14.789Z</time></trkpt><trkpt lat="43.9159533" lon="12.58851"><ele>116.0</ele><time>2026-05-02T04:54:15.787Z</time></trkpt><trkpt lat="43.9160033" lon="12.5883383"><ele>115.75</ele><time>2026-05-02T04:54:16.79Z</time></trkpt><trkpt lat="43.916055" lon="12.5881867"><ele>115.5</ele><time>2026-05-02T04:54:17.791Z</time></trkpt><trkpt lat="43.9161033" lon="12.58804"><ele>115.25</ele><time>2026-05-02T04:54:18.79Z</time></trkpt><trkpt lat="43.9161483" lon="12.5879"><ele>115.0</ele><time>2026-05-02T04:54:19.791Z</time></trkpt><trkpt lat="43.9161933" lon="12.5877633"><ele>115.5</ele><time>2026-05-02T04:54:20.789Z</time></trkpt><trkpt lat="43.9162467" lon="12.5876367"><ele>116.0</ele><time>2026-05-02T04:54:21.79Z</time></trkpt><trkpt lat="43.916315" lon="12.5875083"><ele>116.5</ele><time>2026-05-02T04:54:22.79Z</time></trkpt><trkpt lat="43.916395" lon="12.587375"><ele>117.0</ele><time>2026-05-02T04:54:23.79Z</time></trkpt><trkpt lat="43.91648" lon="12.5872367"><ele>117.0</ele><time>2026-05-02T04:54:24.79Z</time></trkpt><trkpt lat="43.916565" lon="12.5870917"><ele>117.0</ele><time>2026-05-02T04:54:25.79Z</time></trkpt><trkpt lat="43.91665" lon="12.5869483"><ele>117.0</ele><time>2026-05-02T04:54:26.79Z</time></trkpt><trkpt lat="43.9167367" lon="12.5868017"><ele>117.0</ele><time>2026-05-02T04:54:27.789Z</time></trkpt><trkpt lat="43.916825" lon="12.58665"><ele>117.25</ele><time>2026-05-02T04:54:28.791Z</time></trkpt><trkpt lat="43.9169117" lon="12.5864967"><ele>117.5</ele><time>2026-05-02T04:54:29.789Z</time></trkpt><trkpt lat="43.9169933" lon="12.586345"><ele>117.75</ele><time>2026-05-02T04:54:30.791Z</time></trkpt><trkpt lat="43.9170783" lon="12.5861933"><ele>118.0</ele><time>2026-05-02T04:54:31.79Z</time></trkpt><trkpt lat="43.917165" lon="12.58604"><ele>118.75</ele><time>2026-05-02T04:54:32.789Z</time></trkpt><trkpt lat="43.9172517" lon="12.58589"><ele>119.5</ele><time>2026-05-02T04:54:33.789Z</time></trkpt><trkpt lat="43.9173367" lon="12.585745"><ele>120.25</ele><time>2026-05-02T04:54:34.79Z</time></trkpt><trkpt lat="43.9174217" lon="12.5855983"><ele>121.0</ele><time>2026-05-02T04:54:35.79Z</time></trkpt><trkpt lat="43.9175017" lon="12.5854533"><ele>121.25</ele><time>2026-05-02T04:54:36.789Z</time></trkpt><trkpt lat="43.917575" lon="12.5853167"><ele>121.5</ele><time>2026-05-02T04:54:37.79Z</time></trkpt><trkpt lat="43.9176433" lon="12.5851933"><ele>121.75</ele><time>2026-05-02T04:54:38.791Z</time></trkpt><trkpt lat="43.9177167" lon="12.5850683"><ele>122.0</ele><time>2026-05-02T04:54:39.79Z</time></trkpt><trkpt lat="43.9177983" lon="12.58494"><ele>122.0</ele><time>2026-05-02T04:54:40.791Z</time></trkpt><trkpt lat="43.917885" lon="12.5848167"><ele>122.0</ele><time>2026-05-02T04:54:41.789Z</time></trkpt><trkpt lat="43.9179717" lon="12.584695"><ele>122.0</ele><time>2026-05-02T04:54:42.79Z</time></trkpt><trkpt lat="43.91805" lon="12.5845567"><ele>122.0</ele><time>2026-05-02T04:54:43.79Z</time></trkpt><trkpt lat="43.9181" lon="12.584405"><ele>122.0</ele><time>2026-05-02T04:54:44.791Z</time></trkpt><trkpt lat="43.9181217" lon="12.5842367"><ele>122.0</ele><time>2026-05-02T04:54:45.79Z</time></trkpt><trkpt lat="43.9181367" lon="12.5840567"><ele>122.0</ele><time>2026-05-02T04:54:46.789Z</time></trkpt><trkpt lat="43.9181483" lon="12.5838633"><ele>122.0</ele><time>2026-05-02T04:54:47.787Z</time></trkpt><trkpt lat="43.9181667" lon="12.5836567"><ele>121.66666666666666</ele><time>2026-05-02T04:54:48.787Z</time></trkpt><trkpt lat="43.9181883" lon="12.5834383"><ele>121.33333333333334</ele><time>2026-05-02T04:54:49.79Z</time></trkpt><trkpt lat="43.9182117" lon="12.58322"><ele>121.0</ele><time>2026-05-02T04:54:50.79Z</time></trkpt><trkpt lat="43.9182367" lon="12.5829967"><ele>121.33333333333334</ele><time>2026-05-02T04:54:51.789Z</time></trkpt><trkpt lat="43.9182633" lon="12.5827717"><ele>121.66666666666666</ele><time>2026-05-02T04:54:52.79Z</time></trkpt><trkpt lat="43.91829" lon="12.582555"><ele>122.0</ele><time>2026-05-02T04:54:53.79Z</time></trkpt><trkpt lat="43.918315" lon="12.5823533"><ele>122.0</ele><time>2026-05-02T04:54:54.787Z</time></trkpt><trkpt lat="43.9183367" lon="12.5821667"><ele>122.0</ele><time>2026-05-02T04:54:55.787Z</time></trkpt><trkpt lat="43.9183517" lon="12.5819883"><ele>122.0</ele><time>2026-05-02T04:54:56.79Z</time></trkpt><trkpt lat="43.9183467" lon="12.581825"><ele>122.0</ele><time>2026-05-02T04:54:57.786Z</time></trkpt><trkpt lat="43.9183117" lon="12.5816783"><ele>122.19999999999999</ele><time>2026-05-02T04:54:58.786Z</time></trkpt><trkpt lat="43.9182533" lon="12.5815433"><ele>122.39999999999999</ele><time>2026-05-02T04:54:59.789Z</time></trkpt><trkpt lat="43.91818" lon="12.5814283"><ele>122.60000000000001</ele><time>2026-05-02T04:55:00.79Z</time></trkpt><trkpt lat="43.9181" lon="12.5813267"><ele>122.80000000000001</ele><time>2026-05-02T04:55:01.789Z</time></trkpt><trkpt lat="43.9180267" lon="12.5812283"><ele>123.0</ele><time>2026-05-02T04:55:02.79Z</time></trkpt><trkpt lat="43.9179567" lon="12.5811233"><ele>123.16666666666667</ele><time>2026-05-02T04:55:03.79Z</time></trkpt><trkpt lat="43.9179" lon="12.58101"><ele>123.33333333333334</ele><time>2026-05-02T04:55:04.79Z</time></trkpt><trkpt lat="43.9178533" lon="12.5809067"><ele>123.5</ele><time>2026-05-02T04:55:05.789Z</time></trkpt><trkpt lat="43.9178117" lon="12.5808083"><ele>123.66666666666667</ele><time>2026-05-02T04:55:06.789Z</time></trkpt><trkpt lat="43.9177583" lon="12.5806817"><ele>123.83333333333334</ele><time>2026-05-02T04:55:08.786Z</time></trkpt><trkpt lat="43.9177833" lon="12.5805933"><ele>124.0</ele><time>2026-05-02T04:59:22.788Z</time></trkpt><trkpt lat="43.9177433" lon="12.580495"><ele>124.0</ele><time>2026-05-02T04:59:24.788Z</time></trkpt><trkpt lat="43.91765" lon="12.5803933"><ele>124.0</ele><time>2026-05-02T04:59:26.788Z</time></trkpt><trkpt lat="43.9175417" lon="12.580305"><ele>124.0</ele><time>2026-05-02T04:59:28.789Z</time></trkpt><trkpt lat="43.9174767" lon="12.5802833"><ele>124.0</ele><time>2026-05-02T04:59:29.789Z</time></trkpt><trkpt lat="43.9174" lon="12.5802717"><ele>124.0</ele><time>2026-05-02T04:59:30.788Z</time></trkpt><trkpt lat="43.9172717" lon="12.5802383"><ele>124.25</ele><time>2026-05-02T04:59:32.789Z</time></trkpt><trkpt lat="43.91716" lon="12.5802267"><ele>124.5</ele><time>2026-05-02T04:59:33.79Z</time></trkpt><trkpt lat="43.9170333" lon="12.5802083"><ele>124.75</ele><time>2026-05-02T04:59:34.788Z</time></trkpt><trkpt lat="43.9169117" lon="12.5801817"><ele>125.0</ele><time>2026-05-02T04:59:35.79Z</time></trkpt><trkpt lat="43.9168083" lon="12.58014"><ele>125.8</ele><time>2026-05-02T04:59:36.788Z</time></trkpt><trkpt lat="43.9167017" lon="12.5800917"><ele>126.6</ele><time>2026-05-02T04:59:37.787Z</time></trkpt><trkpt lat="43.9165983" lon="12.58005"><ele>127.4</ele><time>2026-05-02T04:59:38.788Z</time></trkpt><trkpt lat="43.9165067" lon="12.5800183"><ele>128.2</ele><time>2026-05-02T04:59:39.789Z</time></trkpt><trkpt lat="43.9164067" lon="12.579985"><ele>129.0</ele><time>2026-05-02T04:59:40.789Z</time></trkpt><trkpt lat="43.9163" lon="12.5799567"><ele>129.0</ele><time>2026-05-02T04:59:41.789Z</time></trkpt><trkpt lat="43.9161917" lon="12.5799233"><ele>129.0</ele><time>2026-05-02T04:59:42.79Z</time></trkpt><trkpt lat="43.9160817" lon="12.57989"><ele>129.0</ele><time>2026-05-02T04:59:43.789Z</time></trkpt><trkpt lat="43.915975" lon="12.5798533"><ele>129.0</ele><time>2026-05-02T04:59:44.789Z</time></trkpt><trkpt lat="43.9158717" lon="12.5798167"><ele>129.0</ele><time>2026-05-02T04:59:45.79Z</time></trkpt><trkpt lat="43.9157683" lon="12.5797717"><ele>131.0</ele><time>2026-05-02T04:59:46.79Z</time></trkpt><trkpt lat="43.9156617" lon="12.5797183"><ele>133.0</ele><time>2026-05-02T04:59:47.789Z</time></trkpt><trkpt lat="43.915555" lon="12.579665"><ele>135.0</ele><time>2026-05-02T04:59:48.789Z</time></trkpt><trkpt lat="43.9154433" lon="12.5796183"><ele>137.0</ele><time>2026-05-02T04:59:49.788Z</time></trkpt><trkpt lat="43.915325" lon="12.57958"><ele>137.0</ele><time>2026-05-02T04:59:50.789Z</time></trkpt><trkpt lat="43.915205" lon="12.5795483"><ele>137.0</ele><time>2026-05-02T04:59:51.79Z</time></trkpt><trkpt lat="43.91509" lon="12.5795017"><ele>137.0</ele><time>2026-05-02T04:59:52.789Z</time></trkpt><trkpt lat="43.91497" lon="12.57944"><ele>137.0</ele><time>2026-05-02T04:59:53.789Z</time></trkpt><trkpt lat="43.914855" lon="12.5793667"><ele>138.75</ele><time>2026-05-02T04:59:54.788Z</time></trkpt><trkpt lat="43.9147417" lon="12.5792833"><ele>140.5</ele><time>2026-05-02T04:59:55.789Z</time></trkpt><trkpt lat="43.9146317" lon="12.579185"><ele>142.25</ele><time>2026-05-02T04:59:56.789Z</time></trkpt><trkpt lat="43.914525" lon="12.5790783"><ele>144.0</ele><time>2026-05-02T04:59:57.79Z</time></trkpt><trkpt lat="43.9144233" lon="12.5789633"><ele>144.0</ele><time>2026-05-02T04:59:58.789Z</time></trkpt><trkpt lat="43.9143233" lon="12.57885"><ele>144.0</ele><time>2026-05-02T04:59:59.792Z</time></trkpt><trkpt lat="43.9142167" lon="12.5787617"><ele>144.0</ele><time>2026-05-02T05:00:00.788Z</time></trkpt><trkpt lat="43.9141017" lon="12.5787117"><ele>144.0</ele><time>2026-05-02T05:00:01.79Z</time></trkpt><trkpt lat="43.91398" lon="12.5786883"><ele>145.5</ele><time>2026-05-02T05:00:02.788Z</time></trkpt><trkpt lat="43.913855" lon="12.5786767"><ele>147.0</ele><time>2026-05-02T05:00:03.788Z</time></trkpt><trkpt lat="43.913735" lon="12.5786717"><ele>148.5</ele><time>2026-05-02T05:00:04.79Z</time></trkpt><trkpt lat="43.913615" lon="12.57868"><ele>150.0</ele><time>2026-05-02T05:00:05.789Z</time></trkpt><trkpt lat="43.9134933" lon="12.5786917"><ele>154.75</ele><time>2026-05-02T05:00:06.788Z</time></trkpt><trkpt lat="43.9133783" lon="12.57869"><ele>159.5</ele><time>2026-05-02T05:00:07.787Z</time></trkpt><trkpt lat="43.913265" lon="12.5786683"><ele>164.25</ele><time>2026-05-02T05:00:08.786Z</time></trkpt><trkpt lat="43.91315" lon="12.5786133"><ele>169.0</ele><time>2026-05-02T05:00:09.787Z</time></trkpt><trkpt lat="43.9130483" lon="12.5785283"><ele>169.39999999999998</ele><time>2026-05-02T05:00:10.789Z</time></trkpt><trkpt lat="43.9129683" lon="12.5784333"><ele>169.8</ele><time>2026-05-02T05:00:11.787Z</time></trkpt><trkpt lat="43.912905" lon="12.5783367"><ele>170.2</ele><time>2026-05-02T05:00:12.786Z</time></trkpt><trkpt lat="43.912845" lon="12.5782567"><ele>170.60000000000002</ele><time>2026-05-02T05:00:13.786Z</time></trkpt><trkpt lat="43.912775" lon="12.5781983"><ele>171.0</ele><time>2026-05-02T05:00:14.787Z</time></trkpt><trkpt lat="43.91268" lon="12.5781567"><ele>171.0</ele><time>2026-05-02T05:00:15.788Z</time></trkpt><trkpt lat="43.9125783" lon="12.5781167"><ele>171.0</ele><time>2026-05-02T05:00:16.786Z</time></trkpt><trkpt lat="43.91247" lon="12.5780683"><ele>171.0</ele><time>2026-05-02T05:00:17.788Z</time></trkpt><trkpt lat="43.9123567" lon="12.5780183"><ele>171.0</ele><time>2026-05-02T05:00:18.788Z</time></trkpt><trkpt lat="43.9122483" lon="12.5779667"><ele>173.8</ele><time>2026-05-02T05:00:19.791Z</time></trkpt><trkpt lat="43.912155" lon="12.5779183"><ele>176.60000000000002</ele><time>2026-05-02T05:00:20.786Z</time></trkpt><trkpt lat="43.9120767" lon="12.5778733"><ele>179.4</ele><time>2026-05-02T05:00:21.787Z</time></trkpt><trkpt lat="43.912025" lon="12.577815"><ele>182.2</ele><time>2026-05-02T05:00:22.787Z</time></trkpt><trkpt lat="43.9120433" lon="12.577695"><ele>185.0</ele><time>2026-05-02T05:00:24.787Z</time></trkpt><trkpt lat="43.9121083" lon="12.57756"><ele>185.16666666666666</ele><time>2026-05-02T05:00:26.786Z</time></trkpt><trkpt lat="43.91216" lon="12.5774783"><ele>185.33333333333331</ele><time>2026-05-02T05:00:27.789Z</time></trkpt><trkpt lat="43.9122167" lon="12.5773883"><ele>185.5</ele><time>2026-05-02T05:00:28.786Z</time></trkpt><trkpt lat="43.9122667" lon="12.5772917"><ele>185.66666666666666</ele><time>2026-05-02T05:00:29.791Z</time></trkpt><trkpt lat="43.91231" lon="12.5771917"><ele>185.83333333333334</ele><time>2026-05-02T05:00:30.789Z</time></trkpt><trkpt lat="43.9123517" lon="12.5770967"><ele>186.0</ele><time>2026-05-02T05:00:31.789Z</time></trkpt><trkpt lat="43.9123933" lon="12.5770083"><ele>186.66666666666666</ele><time>2026-05-02T05:00:32.789Z</time></trkpt><trkpt lat="43.912435" lon="12.5769183"><ele>187.33333333333334</ele><time>2026-05-02T05:00:33.789Z</time></trkpt><trkpt lat="43.9124817" lon="12.5768283"><ele>188.0</ele><time>2026-05-02T05:00:34.786Z</time></trkpt><trkpt lat="43.91253" lon="12.5767433"><ele>188.66666666666669</ele><time>2026-05-02T05:00:35.79Z</time></trkpt><trkpt lat="43.9125817" lon="12.5766733"><ele>189.33333333333334</ele><time>2026-05-02T05:00:36.789Z</time></trkpt><trkpt lat="43.9126333" lon="12.576615"><ele>190.0</ele><time>2026-05-02T05:00:37.789Z</time></trkpt><trkpt lat="43.9127" lon="12.5764917"><ele>185.4</ele><time>2026-05-02T05:00:39.79Z</time></trkpt><trkpt lat="43.9127167" lon="12.5764"><ele>180.8</ele><time>2026-05-02T05:00:40.789Z</time></trkpt><trkpt lat="43.9127233" lon="12.576275"><ele>176.2</ele><time>2026-05-02T05:00:41.789Z</time></trkpt><trkpt lat="43.9127217" lon="12.57611"><ele>171.6</ele><time>2026-05-02T05:00:42.789Z</time></trkpt><trkpt lat="43.9127417" lon="12.5759283"><ele>167.0</ele><time>2026-05-02T05:00:43.79Z</time></trkpt><trkpt lat="43.91276" lon="12.5757417"><ele>166.75</ele><time>2026-05-02T05:00:44.789Z</time></trkpt><trkpt lat="43.912785" lon="12.5755633"><ele>166.5</ele><time>2026-05-02T05:00:45.789Z</time></trkpt><trkpt lat="43.912815" lon="12.5753933"><ele>166.25</ele><time>2026-05-02T05:00:46.79Z</time></trkpt><trkpt lat="43.9128517" lon="12.5752333"><ele>166.0</ele><time>2026-05-02T05:00:47.789Z</time></trkpt><trkpt lat="43.9128983" lon="12.5750783"><ele>166.0</ele><time>2026-05-02T05:00:48.789Z</time></trkpt><trkpt lat="43.91294" lon="12.5749333"><ele>166.0</ele><time>2026-05-02T05:00:49.787Z</time></trkpt><trkpt lat="43.9129883" lon="12.5747983"><ele>166.0</ele><time>2026-05-02T05:00:50.789Z</time></trkpt><trkpt lat="43.913025" lon="12.574665"><ele>166.0</ele><time>2026-05-02T05:00:51.786Z</time></trkpt><trkpt lat="43.913045" lon="12.5745267"><ele>166.0</ele><time>2026-05-02T05:00:52.786Z</time></trkpt><trkpt lat="43.913045" lon="12.5743817"><ele>165.20000000000002</ele><time>2026-05-02T05:00:53.789Z</time></trkpt><trkpt lat="43.9130333" lon="12.57423"><ele>164.4</ele><time>2026-05-02T05:00:54.792Z</time></trkpt><trkpt lat="43.9130067" lon="12.5740867"><ele>163.6</ele><time>2026-05-02T05:00:55.789Z</time></trkpt><trkpt lat="43.912955" lon="12.573965"><ele>162.8</ele><time>2026-05-02T05:00:56.787Z</time></trkpt><trkpt lat="43.912895" lon="12.573875"><ele>162.0</ele><time>2026-05-02T05:00:57.789Z</time></trkpt><trkpt lat="43.9128233" lon="12.5737983"><ele>162.0</ele><time>2026-05-02T05:00:58.789Z</time></trkpt><trkpt lat="43.91276" lon="12.57373"><ele>162.0</ele><time>2026-05-02T05:00:59.79Z</time></trkpt><trkpt lat="43.9127117" lon="12.5736667"><ele>162.0</ele><time>2026-05-02T05:01:00.786Z</time></trkpt><trkpt lat="43.912685" lon="12.5735517"><ele>162.0</ele><time>2026-05-02T05:01:02.788Z</time></trkpt><trkpt lat="43.9128083" lon="12.5735333"><ele>162.0</ele><time>2026-05-02T05:01:05.791Z</time></trkpt><trkpt lat="43.9129167" lon="12.5735683"><ele>162.75</ele><time>2026-05-02T05:01:06.786Z</time></trkpt><trkpt lat="43.9130683" lon="12.57361"><ele>163.5</ele><time>2026-05-02T05:01:07.789Z</time></trkpt><trkpt lat="43.91319" lon="12.5735983"><ele>164.25</ele><time>2026-05-02T05:01:08.787Z</time></trkpt><trkpt lat="43.9132917" lon="12.57357"><ele>165.0</ele><time>2026-05-02T05:01:09.79Z</time></trkpt><trkpt lat="43.9133483" lon="12.573495"><ele>165.0</ele><time>2026-05-02T05:01:10.79Z</time></trkpt><trkpt lat="43.913395" lon="12.5734283"><ele>165.0</ele><time>2026-05-02T05:01:11.789Z</time></trkpt><trkpt lat="43.9133833" lon="12.5733167"><ele>165.0</ele><time>2026-05-02T05:01:12.789Z</time></trkpt><trkpt lat="43.9133333" lon="12.5731733"><ele>165.0</ele><time>2026-05-02T05:01:13.789Z</time></trkpt><trkpt lat="43.9132917" lon="12.573035"><ele>165.0</ele><time>2026-05-02T05:01:14.789Z</time></trkpt><trkpt lat="43.9132533" lon="12.57288"><ele>166.4</ele><time>2026-05-02T05:01:15.789Z</time></trkpt><trkpt lat="43.913235" lon="12.5727267"><ele>167.8</ele><time>2026-05-02T05:01:16.789Z</time></trkpt><trkpt lat="43.9132333" lon="12.5725933"><ele>169.2</ele><time>2026-05-02T05:01:17.79Z</time></trkpt><trkpt lat="43.9132433" lon="12.5724733"><ele>170.6</ele><time>2026-05-02T05:01:18.789Z</time></trkpt><trkpt lat="43.913265" lon="12.57235"><ele>172.0</ele><time>2026-05-02T05:01:19.786Z</time></trkpt><trkpt lat="43.9132917" lon="12.572215"><ele>172.0</ele><time>2026-05-02T05:01:20.788Z</time></trkpt><trkpt lat="43.913325" lon="12.57207"><ele>172.0</ele><time>2026-05-02T05:01:21.788Z</time></trkpt><trkpt lat="43.9133583" lon="12.5719167"><ele>172.0</ele><time>2026-05-02T05:01:22.788Z</time></trkpt><trkpt lat="43.9133933" lon="12.57176"><ele>172.0</ele><time>2026-05-02T05:01:23.787Z</time></trkpt><trkpt lat="43.91344" lon="12.5716"><ele>169.75</ele><time>2026-05-02T05:01:24.788Z</time></trkpt><trkpt lat="43.9134933" lon="12.5714333"><ele>167.5</ele><time>2026-05-02T05:01:25.787Z</time></trkpt><trkpt lat="43.9135467" lon="12.5712683"><ele>165.25</ele><time>2026-05-02T05:01:26.788Z</time></trkpt><trkpt lat="43.9135967" lon="12.5711133"><ele>163.0</ele><time>2026-05-02T05:01:27.787Z</time></trkpt><trkpt lat="43.913645" lon="12.5709683"><ele>163.0</ele><time>2026-05-02T05:01:28.788Z</time></trkpt><trkpt lat="43.9136917" lon="12.5708333"><ele>163.0</ele><time>2026-05-02T05:01:29.789Z</time></trkpt><trkpt lat="43.9137333" lon="12.5707117"><ele>163.0</ele><time>2026-05-02T05:01:30.787Z</time></trkpt><trkpt lat="43.9137717" lon="12.5706017"><ele>163.0</ele><time>2026-05-02T05:01:31.787Z</time></trkpt><trkpt lat="43.9137983" lon="12.5704933"><ele>163.0</ele><time>2026-05-02T05:01:32.787Z</time></trkpt><trkpt lat="43.91381" lon="12.570365"><ele>162.4</ele><time>2026-05-02T05:01:33.787Z</time></trkpt><trkpt lat="43.9138017" lon="12.5702183"><ele>161.8</ele><time>2026-05-02T05:01:34.787Z</time></trkpt><trkpt lat="43.913795" lon="12.5700733"><ele>161.2</ele><time>2026-05-02T05:01:35.788Z</time></trkpt><trkpt lat="43.9138083" lon="12.569935"><ele>160.6</ele><time>2026-05-02T05:01:36.788Z</time></trkpt><trkpt lat="43.9138383" lon="12.5697983"><ele>160.0</ele><time>2026-05-02T05:01:37.787Z</time></trkpt><trkpt lat="43.91388" lon="12.5696633"><ele>160.0</ele><time>2026-05-02T05:01:38.789Z</time></trkpt><trkpt lat="43.9139233" lon="12.5695333"><ele>160.0</ele><time>2026-05-02T05:01:39.789Z</time></trkpt><trkpt lat="43.9139683" lon="12.5694033"><ele>160.0</ele><time>2026-05-02T05:01:40.789Z</time></trkpt><trkpt lat="43.914015" lon="12.5692717"><ele>160.0</ele><time>2026-05-02T05:01:41.791Z</time></trkpt><trkpt lat="43.9140633" lon="12.56913"><ele>160.0</ele><time>2026-05-02T05:01:42.789Z</time></trkpt><trkpt lat="43.9141167" lon="12.56899"><ele>160.2</ele><time>2026-05-02T05:01:43.79Z</time></trkpt><trkpt lat="43.91417" lon="12.5688517"><ele>160.4</ele><time>2026-05-02T05:01:44.789Z</time></trkpt><trkpt lat="43.9142233" lon="12.5687167"><ele>160.60000000000002</ele><time>2026-05-02T05:01:45.789Z</time></trkpt><trkpt lat="43.9142633" lon="12.5686"><ele>160.8</ele><time>2026-05-02T05:01:46.79Z</time></trkpt><trkpt lat="43.914285" lon="12.5685033"><ele>161.0</ele><time>2026-05-02T05:01:47.789Z</time></trkpt><trkpt lat="43.9142783" lon="12.5683317"><ele>158.4</ele><time>2026-05-02T05:01:49.789Z</time></trkpt><trkpt lat="43.9142683" lon="12.5682167"><ele>155.8</ele><time>2026-05-02T05:01:50.788Z</time></trkpt><trkpt lat="43.9142567" lon="12.56807"><ele>153.20000000000002</ele><time>2026-05-02T05:01:51.787Z</time></trkpt><trkpt lat="43.9142467" lon="12.56791"><ele>150.60000000000002</ele><time>2026-05-02T05:01:52.787Z</time></trkpt><trkpt lat="43.9142417" lon="12.5677467"><ele>148.0</ele><time>2026-05-02T05:01:53.787Z</time></trkpt><trkpt lat="43.9142417" lon="12.5675883"><ele>148.0</ele><time>2026-05-02T05:01:54.789Z</time></trkpt><trkpt lat="43.9142483" lon="12.5674483"><ele>148.0</ele><time>2026-05-02T05:01:55.789Z</time></trkpt><trkpt lat="43.9142683" lon="12.5673267"><ele>148.0</ele><time>2026-05-02T05:01:56.789Z</time></trkpt><trkpt lat="43.9142983" lon="12.56721"><ele>148.0</ele><time>2026-05-02T05:01:57.787Z</time></trkpt><trkpt lat="43.914355" lon="12.5671017"><ele>148.0</ele><time>2026-05-02T05:01:58.787Z</time></trkpt><trkpt lat="43.91442" lon="12.5670033"><ele>147.5</ele><time>2026-05-02T05:01:59.787Z</time></trkpt><trkpt lat="43.9144833" lon="12.566905"><ele>147.0</ele><time>2026-05-02T05:02:00.787Z</time></trkpt><trkpt lat="43.9145317" lon="12.5668117"><ele>146.5</ele><time>2026-05-02T05:02:01.787Z</time></trkpt><trkpt lat="43.9145583" lon="12.566715"><ele>146.0</ele><time>2026-05-02T05:02:02.787Z</time></trkpt><trkpt lat="43.91457" lon="12.5666217"><ele>145.5</ele><time>2026-05-02T05:02:03.787Z</time></trkpt><trkpt lat="43.9145533" lon="12.5665217"><ele>145.0</ele><time>2026-05-02T05:02:04.788Z</time></trkpt><trkpt lat="43.914515" lon="12.5664"><ele>145.0</ele><time>2026-05-02T05:02:05.787Z</time></trkpt><trkpt lat="43.914455" lon="12.5662617"><ele>145.0</ele><time>2026-05-02T05:02:06.787Z</time></trkpt><trkpt lat="43.9143883" lon="12.5661217"><ele>145.0</ele><time>2026-05-02T05:02:07.787Z</time></trkpt><trkpt lat="43.914305" lon="12.5659883"><ele>145.0</ele><time>2026-05-02T05:02:08.789Z</time></trkpt><trkpt lat="43.914215" lon="12.565865"><ele>145.0</ele><time>2026-05-02T05:02:09.789Z</time></trkpt><trkpt lat="43.9141267" lon="12.565755"><ele>145.0</ele><time>2026-05-02T05:02:10.789Z</time></trkpt><trkpt lat="43.91404" lon="12.5656733"><ele>145.0</ele><time>2026-05-02T05:02:11.789Z</time></trkpt><trkpt lat="43.9139483" lon="12.565615"><ele>145.0</ele><time>2026-05-02T05:02:12.789Z</time></trkpt><trkpt lat="43.9138517" lon="12.56558"><ele>145.0</ele><time>2026-05-02T05:02:13.79Z</time></trkpt><trkpt lat="43.9137517" lon="12.5655483"><ele>145.0</ele><time>2026-05-02T05:02:14.789Z</time></trkpt><trkpt lat="43.9136517" lon="12.565515"><ele>145.0</ele><time>2026-05-02T05:02:15.789Z</time></trkpt><trkpt lat="43.9135567" lon="12.5654833"><ele>145.0</ele><time>2026-05-02T05:02:16.789Z</time></trkpt><trkpt lat="43.9134717" lon="12.5654317"><ele>145.0</ele><time>2026-05-02T05:02:17.789Z</time></trkpt><trkpt lat="43.913395" lon="12.5653633"><ele>145.0</ele><time>2026-05-02T05:02:18.789Z</time></trkpt><trkpt lat="43.913315" lon="12.5652733"><ele>145.2</ele><time>2026-05-02T05:02:19.789Z</time></trkpt><trkpt lat="43.91323" lon="12.565185"><ele>145.4</ele><time>2026-05-02T05:02:20.787Z</time></trkpt><trkpt lat="43.9131467" lon="12.5651033"><ele>145.6</ele><time>2026-05-02T05:02:21.789Z</time></trkpt><trkpt lat="43.9130483" lon="12.5650333"><ele>145.8</ele><time>2026-05-02T05:02:22.789Z</time></trkpt><trkpt lat="43.9129433" lon="12.564975"><ele>146.0</ele><time>2026-05-02T05:02:23.79Z</time></trkpt><trkpt lat="43.9128317" lon="12.5649217"><ele>146.0</ele><time>2026-05-02T05:02:24.789Z</time></trkpt><trkpt lat="43.9127183" lon="12.56486"><ele>146.0</ele><time>2026-05-02T05:02:25.79Z</time></trkpt><trkpt lat="43.912615" lon="12.56479"><ele>146.0</ele><time>2026-05-02T05:02:26.789Z</time></trkpt><trkpt lat="43.9125133" lon="12.5647117"><ele>146.0</ele><time>2026-05-02T05:02:27.787Z</time></trkpt><trkpt lat="43.9124183" lon="12.5646283"><ele>146.2</ele><time>2026-05-02T05:02:28.787Z</time></trkpt><trkpt lat="43.91233" lon="12.5645383"><ele>146.39999999999998</ele><time>2026-05-02T05:02:29.787Z</time></trkpt><trkpt lat="43.91225" lon="12.5644417"><ele>146.6</ele><time>2026-05-02T05:02:30.787Z</time></trkpt><trkpt lat="43.9121733" lon="12.5643333"><ele>146.79999999999998</ele><time>2026-05-02T05:02:31.787Z</time></trkpt><trkpt lat="43.9121" lon="12.56422"><ele>147.0</ele><time>2026-05-02T05:02:32.787Z</time></trkpt><trkpt lat="43.9120267" lon="12.5640967"><ele>147.0</ele><time>2026-05-02T05:02:33.787Z</time></trkpt><trkpt lat="43.9119517" lon="12.5639733"><ele>147.0</ele><time>2026-05-02T05:02:34.788Z</time></trkpt><trkpt lat="43.9118683" lon="12.56384"><ele>147.0</ele><time>2026-05-02T05:02:35.787Z</time></trkpt><trkpt lat="43.9117983" lon="12.5637117"><ele>147.0</ele><time>2026-05-02T05:02:36.787Z</time></trkpt><trkpt lat="43.9117217" lon="12.563575"><ele>147.75</ele><time>2026-05-02T05:02:37.787Z</time></trkpt><trkpt lat="43.9116533" lon="12.5634433"><ele>148.5</ele><time>2026-05-02T05:02:38.79Z</time></trkpt><trkpt lat="43.9115883" lon="12.5633067"><ele>149.25</ele><time>2026-05-02T05:02:39.787Z</time></trkpt><trkpt lat="43.911525" lon="12.5631633"><ele>150.0</ele><time>2026-05-02T05:02:40.788Z</time></trkpt><trkpt lat="43.9114617" lon="12.5630217"><ele>150.0</ele><time>2026-05-02T05:02:41.787Z</time></trkpt><trkpt lat="43.9113983" lon="12.56289"><ele>150.0</ele><time>2026-05-02T05:02:42.787Z</time></trkpt><trkpt lat="43.9113183" lon="12.56277"><ele>150.0</ele><time>2026-05-02T05:02:43.787Z</time></trkpt><trkpt lat="43.91124" lon="12.5626517"><ele>150.0</ele><time>2026-05-02T05:02:44.788Z</time></trkpt><trkpt lat="43.9111633" lon="12.5625417"><ele>149.5</ele><time>2026-05-02T05:02:45.789Z</time></trkpt><trkpt lat="43.9110883" lon="12.5624267"><ele>149.0</ele><time>2026-05-02T05:02:46.788Z</time></trkpt><trkpt lat="43.911005" lon="12.5623033"><ele>148.5</ele><time>2026-05-02T05:02:47.787Z</time></trkpt><trkpt lat="43.9109217" lon="12.5621817"><ele>148.0</ele><time>2026-05-02T05:02:48.787Z</time></trkpt><trkpt lat="43.910835" lon="12.5620717"><ele>148.0</ele><time>2026-05-02T05:02:49.788Z</time></trkpt><trkpt lat="43.9107467" lon="12.56196"><ele>148.0</ele><time>2026-05-02T05:02:50.787Z</time></trkpt><trkpt lat="43.9106683" lon="12.5618617"><ele>148.0</ele><time>2026-05-02T05:02:51.787Z</time></trkpt><trkpt lat="43.9105983" lon="12.5617733"><ele>148.0</ele><time>2026-05-02T05:02:52.787Z</time></trkpt><trkpt lat="43.910525" lon="12.5616917"><ele>148.0</ele><time>2026-05-02T05:02:53.789Z</time></trkpt><trkpt lat="43.910445" lon="12.5615933"><ele>148.0</ele><time>2026-05-02T05:02:54.789Z</time></trkpt><trkpt lat="43.91036" lon="12.5614883"><ele>148.0</ele><time>2026-05-02T05:02:55.786Z</time></trkpt><trkpt lat="43.9102717" lon="12.561385"><ele>148.0</ele><time>2026-05-02T05:02:56.787Z</time></trkpt><trkpt lat="43.9101917" lon="12.5612833"><ele>148.0</ele><time>2026-05-02T05:02:57.786Z</time></trkpt><trkpt lat="43.9101067" lon="12.5611733"><ele>149.0</ele><time>2026-05-02T05:02:58.786Z</time></trkpt><trkpt lat="43.9100117" lon="12.5610517"><ele>150.0</ele><time>2026-05-02T05:02:59.786Z</time></trkpt><trkpt lat="43.90993" lon="12.5609317"><ele>151.0</ele><time>2026-05-02T05:03:00.787Z</time></trkpt><trkpt lat="43.9098383" lon="12.5608083"><ele>152.0</ele><time>2026-05-02T05:03:01.786Z</time></trkpt><trkpt lat="43.9097417" lon="12.56068"><ele>152.0</ele><time>2026-05-02T05:03:02.786Z</time></trkpt><trkpt lat="43.9096467" lon="12.5605533"><ele>152.0</ele><time>2026-05-02T05:03:03.787Z</time></trkpt><trkpt lat="43.9095533" lon="12.5604317"><ele>152.0</ele><time>2026-05-02T05:03:04.787Z</time></trkpt><trkpt lat="43.90947" lon="12.5603067"><ele>152.0</ele><time>2026-05-02T05:03:05.787Z</time></trkpt><trkpt lat="43.9093767" lon="12.5601817"><ele>152.25</ele><time>2026-05-02T05:03:06.786Z</time></trkpt><trkpt lat="43.9092767" lon="12.5600517"><ele>152.5</ele><time>2026-05-02T05:03:07.787Z</time></trkpt><trkpt lat="43.909175" lon="12.5599183"><ele>152.75</ele><time>2026-05-02T05:03:08.789Z</time></trkpt><trkpt lat="43.9090883" lon="12.5597783"><ele>153.0</ele><time>2026-05-02T05:03:09.786Z</time></trkpt><trkpt lat="43.909005" lon="12.5596283"><ele>152.75</ele><time>2026-05-02T05:03:10.787Z</time></trkpt><trkpt lat="43.9089317" lon="12.5594717"><ele>152.5</ele><time>2026-05-02T05:03:11.786Z</time></trkpt><trkpt lat="43.9088767" lon="12.5593033"><ele>152.25</ele><time>2026-05-02T05:03:12.786Z</time></trkpt><trkpt lat="43.9088233" lon="12.5591267"><ele>152.0</ele><time>2026-05-02T05:03:13.787Z</time></trkpt><trkpt lat="43.908775" lon="12.5589433"><ele>152.0</ele><time>2026-05-02T05:03:14.786Z</time></trkpt><trkpt lat="43.9087417" lon="12.5587633"><ele>152.0</ele><time>2026-05-02T05:03:15.79Z</time></trkpt><trkpt lat="43.9086983" lon="12.5585883"><ele>152.0</ele><time>2026-05-02T05:03:16.791Z</time></trkpt><trkpt lat="43.9086517" lon="12.558405"><ele>152.0</ele><time>2026-05-02T05:03:17.79Z</time></trkpt><trkpt lat="43.90861" lon="12.55823"><ele>152.5</ele><time>2026-05-02T05:03:18.789Z</time></trkpt><trkpt lat="43.9085767" lon="12.5580617"><ele>153.0</ele><time>2026-05-02T05:03:19.786Z</time></trkpt><trkpt lat="43.9085367" lon="12.5578917"><ele>153.5</ele><time>2026-05-02T05:03:20.787Z</time></trkpt><trkpt lat="43.908495" lon="12.5577167"><ele>154.0</ele><time>2026-05-02T05:03:21.79Z</time></trkpt><trkpt lat="43.908455" lon="12.5575433"><ele>154.0</ele><time>2026-05-02T05:03:22.789Z</time></trkpt><trkpt lat="43.9084167" lon="12.55736"><ele>154.0</ele><time>2026-05-02T05:03:23.792Z</time></trkpt><trkpt lat="43.9083833" lon="12.5571733"><ele>154.0</ele><time>2026-05-02T05:03:24.786Z</time></trkpt><trkpt lat="43.908355" lon="12.5569883"><ele>154.0</ele><time>2026-05-02T05:03:25.789Z</time></trkpt><trkpt lat="43.9083233" lon="12.55681"><ele>154.0</ele><time>2026-05-02T05:03:26.786Z</time></trkpt><trkpt lat="43.908295" lon="12.5566333"><ele>154.0</ele><time>2026-05-02T05:03:27.786Z</time></trkpt><trkpt lat="43.9082667" lon="12.55647"><ele>154.0</ele><time>2026-05-02T05:03:28.788Z</time></trkpt><trkpt lat="43.908235" lon="12.556305"><ele>154.0</ele><time>2026-05-02T05:03:29.787Z</time></trkpt><trkpt lat="43.9081967" lon="12.5561283"><ele>154.25</ele><time>2026-05-02T05:03:30.787Z</time></trkpt><trkpt lat="43.9081567" lon="12.5559483"><ele>154.5</ele><time>2026-05-02T05:03:31.787Z</time></trkpt><trkpt lat="43.9081183" lon="12.5557667"><ele>154.75</ele><time>2026-05-02T05:03:32.786Z</time></trkpt><trkpt lat="43.90808" lon="12.555585"><ele>155.0</ele><time>2026-05-02T05:03:33.789Z</time></trkpt><trkpt lat="43.9080383" lon="12.55541"><ele>155.25</ele><time>2026-05-02T05:03:34.789Z</time></trkpt><trkpt lat="43.9079917" lon="12.5552267"><ele>155.5</ele><time>2026-05-02T05:03:35.79Z</time></trkpt><trkpt lat="43.9079483" lon="12.5550483"><ele>155.75</ele><time>2026-05-02T05:03:36.786Z</time></trkpt><trkpt lat="43.9079033" lon="12.5548683"><ele>156.0</ele><time>2026-05-02T05:03:37.786Z</time></trkpt><trkpt lat="43.9078583" lon="12.55469"><ele>156.25</ele><time>2026-05-02T05:03:38.789Z</time></trkpt><trkpt lat="43.9078117" lon="12.5545083"><ele>156.5</ele><time>2026-05-02T05:03:39.787Z</time></trkpt><trkpt lat="43.9077667" lon="12.5543267"><ele>156.75</ele><time>2026-05-02T05:03:40.789Z</time></trkpt><trkpt lat="43.9077267" lon="12.5541417"><ele>157.0</ele><time>2026-05-02T05:03:41.789Z</time></trkpt><trkpt lat="43.9076867" lon="12.5539583"><ele>157.0</ele><time>2026-05-02T05:03:42.789Z</time></trkpt><trkpt lat="43.907645" lon="12.553775"><ele>157.0</ele><time>2026-05-02T05:03:43.789Z</time></trkpt><trkpt lat="43.9076083" lon="12.5535967"><ele>157.0</ele><time>2026-05-02T05:03:44.79Z</time></trkpt><trkpt lat="43.9075333" lon="12.55328"><ele>157.75</ele><time>2026-05-02T05:03:46.787Z</time></trkpt><trkpt lat="43.9074967" lon="12.553125"><ele>158.5</ele><time>2026-05-02T05:03:47.789Z</time></trkpt><trkpt lat="43.9074617" lon="12.5529667"><ele>159.25</ele><time>2026-05-02T05:03:48.787Z</time></trkpt><trkpt lat="43.90743" lon="12.5528133"><ele>160.0</ele><time>2026-05-02T05:03:49.789Z</time></trkpt><trkpt lat="43.9074033" lon="12.552675"><ele>160.0</ele><time>2026-05-02T05:03:50.789Z</time></trkpt><trkpt lat="43.90738" lon="12.552555"><ele>160.0</ele><time>2026-05-02T05:03:51.789Z</time></trkpt><trkpt lat="43.90736" lon="12.5524567"><ele>160.0</ele><time>2026-05-02T05:03:52.789Z</time></trkpt><trkpt lat="43.907325" lon="12.5523333"><ele>160.0</ele><time>2026-05-02T05:03:54.789Z</time></trkpt><trkpt lat="43.9072683" lon="12.552275"><ele>160.0</ele><time>2026-05-02T05:03:56.788Z</time></trkpt><trkpt lat="43.9071483" lon="12.552225"><ele>160.0</ele><time>2026-05-02T05:03:58.788Z</time></trkpt><trkpt lat="43.9070717" lon="12.5521983"><ele>160.0</ele><time>2026-05-02T05:03:59.788Z</time></trkpt><trkpt lat="43.906985" lon="12.5521717"><ele>160.0</ele><time>2026-05-02T05:04:00.787Z</time></trkpt><trkpt lat="43.9068883" lon="12.5521483"><ele>160.0</ele><time>2026-05-02T05:04:01.787Z</time></trkpt><trkpt lat="43.90678" lon="12.552135"><ele>160.0</ele><time>2026-05-02T05:04:02.787Z</time></trkpt><trkpt lat="43.9066617" lon="12.5521333"><ele>160.5</ele><time>2026-05-02T05:04:03.79Z</time></trkpt><trkpt lat="43.90654" lon="12.5521417"><ele>161.0</ele><time>2026-05-02T05:04:04.79Z</time></trkpt><trkpt lat="43.9064133" lon="12.55216"><ele>161.5</ele><time>2026-05-02T05:04:05.79Z</time></trkpt><trkpt lat="43.9062833" lon="12.5521917"><ele>162.0</ele><time>2026-05-02T05:04:06.791Z</time></trkpt><trkpt lat="43.90615" lon="12.552235"><ele>162.0</ele><time>2026-05-02T05:04:07.789Z</time></trkpt><trkpt lat="43.90602" lon="12.5522817"><ele>162.0</ele><time>2026-05-02T05:04:08.789Z</time></trkpt><trkpt lat="43.905885" lon="12.552315"><ele>162.0</ele><time>2026-05-02T05:04:09.79Z</time></trkpt><trkpt lat="43.9057533" lon="12.552325"><ele>162.0</ele><time>2026-05-02T05:04:10.789Z</time></trkpt><trkpt lat="43.9056183" lon="12.5523133"><ele>163.25</ele><time>2026-05-02T05:04:11.789Z</time></trkpt><trkpt lat="43.9054767" lon="12.55228"><ele>164.5</ele><time>2026-05-02T05:04:12.788Z</time></trkpt><trkpt lat="43.90533" lon="12.5522333"><ele>165.75</ele><time>2026-05-02T05:04:13.789Z</time></trkpt><trkpt lat="43.9051867" lon="12.5521933"><ele>167.0</ele><time>2026-05-02T05:04:14.79Z</time></trkpt><trkpt lat="43.9050483" lon="12.55216"><ele>168.0</ele><time>2026-05-02T05:04:15.786Z</time></trkpt><trkpt lat="43.9049067" lon="12.5521383"><ele>169.0</ele><time>2026-05-02T05:04:16.79Z</time></trkpt><trkpt lat="43.9047933" lon="12.5521483"><ele>170.0</ele><time>2026-05-02T05:04:17.79Z</time></trkpt><trkpt lat="43.90471" lon="12.5521617"><ele>171.0</ele><time>2026-05-02T05:04:18.786Z</time></trkpt><trkpt lat="43.9046283" lon="12.5521867"><ele>172.0</ele><time>2026-05-02T05:04:19.789Z</time></trkpt><trkpt lat="43.9045567" lon="12.5522083"><ele>172.0</ele><time>2026-05-02T05:04:20.79Z</time></trkpt><trkpt lat="43.904495" lon="12.5522283"><ele>172.0</ele><time>2026-05-02T05:04:21.786Z</time></trkpt><trkpt lat="43.9044033" lon="12.5522717"><ele>172.0</ele><time>2026-05-02T05:04:24.786Z</time></trkpt><trkpt lat="43.9042833" lon="12.5523067"><ele>172.0</ele><time>2026-05-02T05:04:26.786Z</time></trkpt><trkpt lat="43.9041833" lon="12.5522583"><ele>172.0</ele><time>2026-05-02T05:04:28.789Z</time></trkpt><trkpt lat="43.9041233" lon="12.5520983"><ele>172.2</ele><time>2026-05-02T05:04:30.79Z</time></trkpt><trkpt lat="43.90413" lon="12.5519767"><ele>172.39999999999998</ele><time>2026-05-02T05:04:31.789Z</time></trkpt><trkpt lat="43.90415" lon="12.5518367"><ele>172.60000000000002</ele><time>2026-05-02T05:04:32.789Z</time></trkpt><trkpt lat="43.9041833" lon="12.5517033"><ele>172.8</ele><time>2026-05-02T05:04:33.789Z</time></trkpt><trkpt lat="43.9042317" lon="12.5515583"><ele>173.0</ele><time>2026-05-02T05:04:34.789Z</time></trkpt><trkpt lat="43.9043083" lon="12.5514117"><ele>173.0</ele><time>2026-05-02T05:04:35.789Z</time></trkpt><trkpt lat="43.904375" lon="12.5512967"><ele>173.0</ele><time>2026-05-02T05:04:36.789Z</time></trkpt><trkpt lat="43.9044383" lon="12.5511883"><ele>173.0</ele><time>2026-05-02T05:04:37.79Z</time></trkpt><trkpt lat="43.9044817" lon="12.5510917"><ele>173.0</ele><time>2026-05-02T05:04:38.791Z</time></trkpt><trkpt lat="43.904525" lon="12.5509683"><ele>173.0</ele><time>2026-05-02T05:04:40.788Z</time></trkpt><trkpt lat="43.9045317" lon="12.5508583"><ele>174.4</ele><time>2026-05-02T05:04:42.789Z</time></trkpt><trkpt lat="43.9044783" lon="12.55071"><ele>175.8</ele><time>2026-05-02T05:04:44.787Z</time></trkpt><trkpt lat="43.9044483" lon="12.5505983"><ele>177.2</ele><time>2026-05-02T05:04:45.792Z</time></trkpt><trkpt lat="43.904415" lon="12.5504733"><ele>178.6</ele><time>2026-05-02T05:04:46.789Z</time></trkpt><trkpt lat="43.9043817" lon="12.5503233"><ele>180.0</ele><time>2026-05-02T05:04:47.786Z</time></trkpt><trkpt lat="43.9043533" lon="12.5501717"><ele>180.0</ele><time>2026-05-02T05:04:48.786Z</time></trkpt><trkpt lat="43.9043217" lon="12.5500183"><ele>180.0</ele><time>2026-05-02T05:04:49.789Z</time></trkpt><trkpt lat="43.904295" lon="12.5498767"><ele>180.0</ele><time>2026-05-02T05:04:50.789Z</time></trkpt><trkpt lat="43.9042783" lon="12.5497383"><ele>180.0</ele><time>2026-05-02T05:04:51.789Z</time></trkpt><trkpt lat="43.9042733" lon="12.5496183"><ele>180.0</ele><time>2026-05-02T05:04:52.791Z</time></trkpt><trkpt lat="43.904275" lon="12.5495133"><ele>179.28571428571428</ele><time>2026-05-02T05:04:53.79Z</time></trkpt><trkpt lat="43.904295" lon="12.5494217"><ele>178.57142857142858</ele><time>2026-05-02T05:04:54.79Z</time></trkpt><trkpt lat="43.9043283" lon="12.54934"><ele>177.85714285714286</ele><time>2026-05-02T05:04:55.79Z</time></trkpt><trkpt lat="43.9043583" lon="12.5492533"><ele>177.14285714285714</ele><time>2026-05-02T05:04:56.789Z</time></trkpt><trkpt lat="43.90438" lon="12.5491683"><ele>176.42857142857144</ele><time>2026-05-02T05:04:57.789Z</time></trkpt><trkpt lat="43.9043817" lon="12.5490783"><ele>175.71428571428572</ele><time>2026-05-02T05:04:58.786Z</time></trkpt><trkpt lat="43.904365" lon="12.548985"><ele>175.0</ele><time>2026-05-02T05:04:59.79Z</time></trkpt><trkpt lat="43.9043333" lon="12.5488867"><ele>175.0</ele><time>2026-05-02T05:05:00.789Z</time></trkpt><trkpt lat="43.9042983" lon="12.54879"><ele>175.0</ele><time>2026-05-02T05:05:01.789Z</time></trkpt><trkpt lat="43.9042533" lon="12.54869"><ele>175.0</ele><time>2026-05-02T05:05:02.79Z</time></trkpt><trkpt lat="43.904205" lon="12.548575"><ele>175.0</ele><time>2026-05-02T05:05:03.79Z</time></trkpt><trkpt lat="43.904155" lon="12.54845"><ele>175.0</ele><time>2026-05-02T05:05:04.789Z</time></trkpt><trkpt lat="43.9041067" lon="12.54834"><ele>175.0</ele><time>2026-05-02T05:05:05.79Z</time></trkpt><trkpt lat="43.9040583" lon="12.5482467"><ele>175.0</ele><time>2026-05-02T05:05:06.79Z</time></trkpt><trkpt lat="43.904005" lon="12.5481733"><ele>175.0</ele><time>2026-05-02T05:05:07.789Z</time></trkpt><trkpt lat="43.903925" lon="12.54812"><ele>175.0</ele><time>2026-05-02T05:05:08.789Z</time></trkpt><trkpt lat="43.9038367" lon="12.5480867"><ele>175.0</ele><time>2026-05-02T05:05:09.789Z</time></trkpt><trkpt lat="43.90375" lon="12.548045"><ele>175.0</ele><time>2026-05-02T05:05:10.787Z</time></trkpt><trkpt lat="43.903655" lon="12.5479867"><ele>175.0</ele><time>2026-05-02T05:05:11.787Z</time></trkpt><trkpt lat="43.9035683" lon="12.5479"><ele>175.0</ele><time>2026-05-02T05:05:12.786Z</time></trkpt><trkpt lat="43.90348" lon="12.5477867"><ele>175.0</ele><time>2026-05-02T05:05:13.786Z</time></trkpt><trkpt lat="43.90339" lon="12.547655"><ele>175.0</ele><time>2026-05-02T05:05:14.787Z</time></trkpt><trkpt lat="43.9033083" lon="12.547515"><ele>175.6</ele><time>2026-05-02T05:05:15.786Z</time></trkpt><trkpt lat="43.9032317" lon="12.54738"><ele>176.2</ele><time>2026-05-02T05:05:16.786Z</time></trkpt><trkpt lat="43.9031517" lon="12.5472617"><ele>176.8</ele><time>2026-05-02T05:05:17.791Z</time></trkpt><trkpt lat="43.903075" lon="12.54718"><ele>177.4</ele><time>2026-05-02T05:05:18.789Z</time></trkpt><trkpt lat="43.903005" lon="12.547105"><ele>178.0</ele><time>2026-05-02T05:05:19.786Z</time></trkpt><trkpt lat="43.902945" lon="12.54703"><ele>178.0</ele><time>2026-05-02T05:05:20.787Z</time></trkpt><trkpt lat="43.9028933" lon="12.5469433"><ele>178.0</ele><time>2026-05-02T05:05:21.787Z</time></trkpt><trkpt lat="43.90285" lon="12.5468283"><ele>178.0</ele><time>2026-05-02T05:05:22.788Z</time></trkpt><trkpt lat="43.9027967" lon="12.5467"><ele>178.0</ele><time>2026-05-02T05:05:23.786Z</time></trkpt><trkpt lat="43.90274" lon="12.5465617"><ele>178.0</ele><time>2026-05-02T05:05:24.786Z</time></trkpt><trkpt lat="43.9026883" lon="12.546415"><ele>178.0</ele><time>2026-05-02T05:05:25.787Z</time></trkpt><trkpt lat="43.902635" lon="12.5462583"><ele>178.0</ele><time>2026-05-02T05:05:26.787Z</time></trkpt><trkpt lat="43.90258" lon="12.54609"><ele>178.0</ele><time>2026-05-02T05:05:27.786Z</time></trkpt><trkpt lat="43.902535" lon="12.5459117"><ele>178.0</ele><time>2026-05-02T05:05:28.786Z</time></trkpt><trkpt lat="43.9025067" lon="12.5457267"><ele>178.25</ele><time>2026-05-02T05:05:29.786Z</time></trkpt><trkpt lat="43.90249" lon="12.5455483"><ele>178.5</ele><time>2026-05-02T05:05:30.786Z</time></trkpt><trkpt lat="43.90248" lon="12.5453683"><ele>178.75</ele><time>2026-05-02T05:05:31.786Z</time></trkpt><trkpt lat="43.9024667" lon="12.54519"><ele>179.0</ele><time>2026-05-02T05:05:32.786Z</time></trkpt><trkpt lat="43.9024517" lon="12.54501"><ele>177.75</ele><time>2026-05-02T05:05:33.789Z</time></trkpt><trkpt lat="43.902425" lon="12.5448333"><ele>176.5</ele><time>2026-05-02T05:05:34.789Z</time></trkpt><trkpt lat="43.902375" lon="12.5446583"><ele>175.25</ele><time>2026-05-02T05:05:35.789Z</time></trkpt><trkpt lat="43.902305" lon="12.5444867"><ele>174.0</ele><time>2026-05-02T05:05:36.79Z</time></trkpt><trkpt lat="43.9022283" lon="12.5443217"><ele>173.5</ele><time>2026-05-02T05:05:37.79Z</time></trkpt><trkpt lat="43.9021567" lon="12.5441617"><ele>173.0</ele><time>2026-05-02T05:05:38.789Z</time></trkpt><trkpt lat="43.9020883" lon="12.544015"><ele>172.5</ele><time>2026-05-02T05:05:39.786Z</time></trkpt><trkpt lat="43.902015" lon="12.5438817"><ele>172.0</ele><time>2026-05-02T05:05:40.79Z</time></trkpt><trkpt lat="43.90194" lon="12.54377"><ele>172.25</ele><time>2026-05-02T05:05:41.79Z</time></trkpt><trkpt lat="43.9018533" lon="12.543675"><ele>172.5</ele><time>2026-05-02T05:05:42.791Z</time></trkpt><trkpt lat="43.9017533" lon="12.5435967"><ele>172.75</ele><time>2026-05-02T05:05:43.791Z</time></trkpt><trkpt lat="43.9016367" lon="12.5435267"><ele>173.0</ele><time>2026-05-02T05:05:44.79Z</time></trkpt><trkpt lat="43.901515" lon="12.5434633"><ele>173.25</ele><time>2026-05-02T05:05:45.791Z</time></trkpt><trkpt lat="43.9014" lon="12.5433767"><ele>173.5</ele><time>2026-05-02T05:05:46.789Z</time></trkpt><trkpt lat="43.9012917" lon="12.5432617"><ele>173.75</ele><time>2026-05-02T05:05:47.789Z</time></trkpt><trkpt lat="43.901195" lon="12.5431317"><ele>174.0</ele><time>2026-05-02T05:05:48.789Z</time></trkpt><trkpt lat="43.901105" lon="12.542995"><ele>174.0</ele><time>2026-05-02T05:05:49.789Z</time></trkpt><trkpt lat="43.9010217" lon="12.542855"><ele>174.0</ele><time>2026-05-02T05:05:50.79Z</time></trkpt><trkpt lat="43.9009467" lon="12.5427283"><ele>174.0</ele><time>2026-05-02T05:05:51.79Z</time></trkpt><trkpt lat="43.90088" lon="12.5426233"><ele>174.0</ele><time>2026-05-02T05:05:52.789Z</time></trkpt><trkpt lat="43.9008083" lon="12.5425317"><ele>174.0</ele><time>2026-05-02T05:05:53.789Z</time></trkpt><trkpt lat="43.9007183" lon="12.5424467"><ele>175.5</ele><time>2026-05-02T05:05:54.789Z</time></trkpt><trkpt lat="43.900615" lon="12.54236"><ele>177.0</ele><time>2026-05-02T05:05:55.79Z</time></trkpt><trkpt lat="43.9005067" lon="12.542265"><ele>178.5</ele><time>2026-05-02T05:05:56.79Z</time></trkpt><trkpt lat="43.9003967" lon="12.5421583"><ele>180.0</ele><time>2026-05-02T05:05:57.789Z</time></trkpt><trkpt lat="43.90029" lon="12.5420517"><ele>179.5</ele><time>2026-05-02T05:05:58.787Z</time></trkpt><trkpt lat="43.9001817" lon="12.5419433"><ele>179.0</ele><time>2026-05-02T05:05:59.789Z</time></trkpt><trkpt lat="43.9000733" lon="12.54185"><ele>178.5</ele><time>2026-05-02T05:06:00.789Z</time></trkpt><trkpt lat="43.899975" lon="12.54176"><ele>178.0</ele><time>2026-05-02T05:06:01.786Z</time></trkpt><trkpt lat="43.8998817" lon="12.541665"><ele>178.8</ele><time>2026-05-02T05:06:02.788Z</time></trkpt><trkpt lat="43.8998" lon="12.5415683"><ele>179.60000000000002</ele><time>2026-05-02T05:06:03.79Z</time></trkpt><trkpt lat="43.8997217" lon="12.54147"><ele>180.39999999999998</ele><time>2026-05-02T05:06:04.787Z</time></trkpt><trkpt lat="43.89963" lon="12.5413833"><ele>181.2</ele><time>2026-05-02T05:06:05.789Z</time></trkpt><trkpt lat="43.8995367" lon="12.5413117"><ele>182.0</ele><time>2026-05-02T05:06:06.79Z</time></trkpt><trkpt lat="43.8994383" lon="12.5412483"><ele>181.75</ele><time>2026-05-02T05:06:07.79Z</time></trkpt><trkpt lat="43.8993333" lon="12.5411817"><ele>181.5</ele><time>2026-05-02T05:06:08.786Z</time></trkpt><trkpt lat="43.8992267" lon="12.5410983"><ele>181.25</ele><time>2026-05-02T05:06:09.789Z</time></trkpt><trkpt lat="43.8991267" lon="12.5410033"><ele>181.0</ele><time>2026-05-02T05:06:10.787Z</time></trkpt><trkpt lat="43.8990217" lon="12.5409067"><ele>181.0</ele><time>2026-05-02T05:06:11.79Z</time></trkpt><trkpt lat="43.898915" lon="12.5408167"><ele>181.0</ele><time>2026-05-02T05:06:12.789Z</time></trkpt><trkpt lat="43.8988033" lon="12.5407317"><ele>181.0</ele><time>2026-05-02T05:06:13.791Z</time></trkpt><trkpt lat="43.89869" lon="12.5406417"><ele>181.0</ele><time>2026-05-02T05:06:14.789Z</time></trkpt><trkpt lat="43.8985783" lon="12.5405483"><ele>181.0</ele><time>2026-05-02T05:06:15.786Z</time></trkpt><trkpt lat="43.898465" lon="12.5404567"><ele>181.0</ele><time>2026-05-02T05:06:16.789Z</time></trkpt><trkpt lat="43.8983517" lon="12.5403767"><ele>181.0</ele><time>2026-05-02T05:06:17.789Z</time></trkpt><trkpt lat="43.8982433" lon="12.5403"><ele>181.0</ele><time>2026-05-02T05:06:18.789Z</time></trkpt><trkpt lat="43.898135" lon="12.54022"><ele>181.5</ele><time>2026-05-02T05:06:19.789Z</time></trkpt><trkpt lat="43.8980217" lon="12.5401417"><ele>182.0</ele><time>2026-05-02T05:06:20.791Z</time></trkpt><trkpt lat="43.897915" lon="12.5400617"><ele>182.5</ele><time>2026-05-02T05:06:21.786Z</time></trkpt><trkpt lat="43.897815" lon="12.539985"><ele>183.0</ele><time>2026-05-02T05:06:22.786Z</time></trkpt><trkpt lat="43.8977233" lon="12.5399117"><ele>183.0</ele><time>2026-05-02T05:06:23.786Z</time></trkpt><trkpt lat="43.8976383" lon="12.53984"><ele>183.0</ele><time>2026-05-02T05:06:24.786Z</time></trkpt><trkpt lat="43.89756" lon="12.5397683"><ele>183.0</ele><time>2026-05-02T05:06:25.786Z</time></trkpt><trkpt lat="43.8974817" lon="12.5397033"><ele>183.0</ele><time>2026-05-02T05:06:26.786Z</time></trkpt><trkpt lat="43.8974017" lon="12.539635"><ele>183.0</ele><time>2026-05-02T05:06:27.786Z</time></trkpt><trkpt lat="43.8973183" lon="12.5395617"><ele>183.8</ele><time>2026-05-02T05:06:28.786Z</time></trkpt><trkpt lat="43.8972217" lon="12.53949"><ele>184.60000000000002</ele><time>2026-05-02T05:06:29.787Z</time></trkpt><trkpt lat="43.897125" lon="12.5394217"><ele>185.39999999999998</ele><time>2026-05-02T05:06:30.786Z</time></trkpt><trkpt lat="43.8970217" lon="12.539365"><ele>186.2</ele><time>2026-05-02T05:06:31.789Z</time></trkpt><trkpt lat="43.8969167" lon="12.539315"><ele>187.0</ele><time>2026-05-02T05:06:32.786Z</time></trkpt><trkpt lat="43.896815" lon="12.5392683"><ele>187.6</ele><time>2026-05-02T05:06:33.786Z</time></trkpt><trkpt lat="43.8967183" lon="12.5392217"><ele>188.2</ele><time>2026-05-02T05:06:34.787Z</time></trkpt><trkpt lat="43.89662" lon="12.539175"><ele>188.8</ele><time>2026-05-02T05:06:35.786Z</time></trkpt><trkpt lat="43.8965317" lon="12.5391233"><ele>189.4</ele><time>2026-05-02T05:06:36.786Z</time></trkpt><trkpt lat="43.8964433" lon="12.5390717"><ele>190.0</ele><time>2026-05-02T05:06:37.787Z</time></trkpt><trkpt lat="43.8963617" lon="12.5390183"><ele>190.0</ele><time>2026-05-02T05:06:38.789Z</time></trkpt><trkpt lat="43.896295" lon="12.5389667"><ele>190.0</ele><time>2026-05-02T05:06:39.786Z</time></trkpt><trkpt lat="43.8961983" lon="12.538865"><ele>190.0</ele><time>2026-05-02T05:06:41.786Z</time></trkpt><trkpt lat="43.8961433" lon="12.5388167"><ele>190.0</ele><time>2026-05-02T05:06:42.79Z</time></trkpt><trkpt lat="43.8960833" lon="12.5387767"><ele>190.0</ele><time>2026-05-02T05:06:43.79Z</time></trkpt><trkpt lat="43.8960233" lon="12.538735"><ele>190.0</ele><time>2026-05-02T05:06:44.791Z</time></trkpt><trkpt lat="43.895965" lon="12.5386967"><ele>189.83333333333334</ele><time>2026-05-02T05:06:45.79Z</time></trkpt><trkpt lat="43.8958667" lon="12.5386667"><ele>189.66666666666669</ele><time>2026-05-02T05:06:47.789Z</time></trkpt><trkpt lat="43.89578" lon="12.538715"><ele>189.5</ele><time>2026-05-02T05:06:49.788Z</time></trkpt><trkpt lat="43.8957317" lon="12.538775"><ele>189.33333333333334</ele><time>2026-05-02T05:06:50.787Z</time></trkpt><trkpt lat="43.8956683" lon="12.5388433"><ele>189.16666666666666</ele><time>2026-05-02T05:06:51.787Z</time></trkpt><trkpt lat="43.8956017" lon="12.5389017"><ele>189.0</ele><time>2026-05-02T05:06:52.787Z</time></trkpt><trkpt lat="43.8955317" lon="12.5389333"><ele>189.16666666666666</ele><time>2026-05-02T05:06:53.787Z</time></trkpt><trkpt lat="43.89546" lon="12.5389483"><ele>189.33333333333334</ele><time>2026-05-02T05:06:54.787Z</time></trkpt><trkpt lat="43.8953867" lon="12.5389333"><ele>189.5</ele><time>2026-05-02T05:06:55.787Z</time></trkpt><trkpt lat="43.8953117" lon="12.5388917"><ele>189.66666666666669</ele><time>2026-05-02T05:06:56.789Z</time></trkpt><trkpt lat="43.89523" lon="12.5388283"><ele>189.83333333333334</ele><time>2026-05-02T05:06:57.788Z</time></trkpt><trkpt lat="43.8951483" lon="12.5387367"><ele>190.0</ele><time>2026-05-02T05:06:58.786Z</time></trkpt><trkpt lat="43.895085" lon="12.5386417"><ele>190.0</ele><time>2026-05-02T05:06:59.787Z</time></trkpt><trkpt lat="43.8950133" lon="12.53854"><ele>190.0</ele><time>2026-05-02T05:07:00.787Z</time></trkpt><trkpt lat="43.8949367" lon="12.5384317"><ele>190.0</ele><time>2026-05-02T05:07:01.79Z</time></trkpt><trkpt lat="43.89486" lon="12.53832"><ele>190.0</ele><time>2026-05-02T05:07:02.789Z</time></trkpt><trkpt lat="43.894785" lon="12.5382183"><ele>190.0</ele><time>2026-05-02T05:07:03.79Z</time></trkpt><trkpt lat="43.89471" lon="12.5381217"><ele>190.0</ele><time>2026-05-02T05:07:04.787Z</time></trkpt><trkpt lat="43.8946367" lon="12.5380417"><ele>190.0</ele><time>2026-05-02T05:07:05.789Z</time></trkpt><trkpt lat="43.8945717" lon="12.537985"><ele>190.0</ele><time>2026-05-02T05:07:06.789Z</time></trkpt><trkpt lat="43.8945067" lon="12.5379517"><ele>190.0</ele><time>2026-05-02T05:07:07.786Z</time></trkpt><trkpt lat="43.8943983" lon="12.5379467"><ele>190.0</ele><time>2026-05-02T05:07:09.79Z</time></trkpt><trkpt lat="43.89429" lon="12.5379367"><ele>190.6</ele><time>2026-05-02T05:07:11.79Z</time></trkpt><trkpt lat="43.8941717" lon="12.5379083"><ele>191.2</ele><time>2026-05-02T05:07:13.79Z</time></trkpt><trkpt lat="43.8940533" lon="12.537875"><ele>191.8</ele><time>2026-05-02T05:07:15.785Z</time></trkpt><trkpt lat="43.8939883" lon="12.537855"><ele>192.4</ele><time>2026-05-02T05:07:16.789Z</time></trkpt><trkpt lat="43.893925" lon="12.5378383"><ele>193.0</ele><time>2026-05-02T05:07:17.789Z</time></trkpt><trkpt lat="43.89381" lon="12.537795"><ele>192.99999999999997</ele><time>2026-05-02T05:07:19.789Z</time></trkpt><trkpt lat="43.8937033" lon="12.537775"><ele>193.0</ele><time>2026-05-02T05:07:21.79Z</time></trkpt><trkpt lat="43.8936383" lon="12.5377767"><ele>193.0</ele><time>2026-05-02T05:07:22.79Z</time></trkpt><trkpt lat="43.893555" lon="12.5377733"><ele>193.0</ele><time>2026-05-02T05:07:23.789Z</time></trkpt><trkpt lat="43.893485" lon="12.5377667"><ele>192.99999999999997</ele><time>2026-05-02T05:07:24.789Z</time></trkpt><trkpt lat="43.893405" lon="12.5377517"><ele>193.0</ele><time>2026-05-02T05:07:25.79Z</time></trkpt><trkpt lat="43.8933283" lon="12.537735"><ele>193.00000000000003</ele><time>2026-05-02T05:07:26.792Z</time></trkpt><trkpt lat="43.8932617" lon="12.5377083"><ele>193.0</ele><time>2026-05-02T05:07:27.789Z</time></trkpt><trkpt lat="43.8931883" lon="12.5376733"><ele>193.0</ele><time>2026-05-02T05:07:28.789Z</time></trkpt><trkpt lat="43.89312" lon="12.537635"><ele>193.0</ele><time>2026-05-02T05:07:29.789Z</time></trkpt><trkpt lat="43.8930633" lon="12.537595"><ele>193.0</ele><time>2026-05-02T05:07:30.79Z</time></trkpt><trkpt lat="43.8930033" lon="12.5375533"><ele>193.00000000000003</ele><time>2026-05-02T05:07:31.789Z</time></trkpt><trkpt lat="43.8929383" lon="12.53751"><ele>193.0</ele><time>2026-05-02T05:07:32.789Z</time></trkpt><trkpt lat="43.89288" lon="12.53747"><ele>193.0</ele><time>2026-05-02T05:07:33.785Z</time></trkpt><trkpt lat="43.89282" lon="12.5374383"><ele>193.0</ele><time>2026-05-02T05:07:34.791Z</time></trkpt><trkpt lat="43.8927167" lon="12.5374367"><ele>193.0</ele><time>2026-05-02T05:07:36.787Z</time></trkpt><trkpt lat="43.8926483" lon="12.5375"><ele>193.0</ele><time>2026-05-02T05:07:38.787Z</time></trkpt><trkpt lat="43.89257" lon="12.537595"><ele>193.0</ele><time>2026-05-02T05:07:40.787Z</time></trkpt><trkpt lat="43.8924467" lon="12.5376617"><ele>192.99999999999997</ele><time>2026-05-02T05:07:42.788Z</time></trkpt><trkpt lat="43.8923517" lon="12.53768"><ele>193.0</ele><time>2026-05-02T05:07:44.788Z</time></trkpt><trkpt lat="43.8922883" lon="12.5376833"><ele>193.0</ele><time>2026-05-02T05:07:46.787Z</time></trkpt><trkpt lat="43.89221" lon="12.5376867"><ele>193.0</ele><time>2026-05-02T05:07:49.788Z</time></trkpt><trkpt lat="43.892135" lon="12.5376583"><ele>192.99999999999997</ele><time>2026-05-02T05:07:52.788Z</time></trkpt><trkpt lat="43.8920633" lon="12.5375933"><ele>193.0</ele><time>2026-05-02T05:07:54.789Z</time></trkpt><trkpt lat="43.8919883" lon="12.5375667"><ele>193.0</ele><time>2026-05-02T05:07:56.787Z</time></trkpt><trkpt lat="43.8919133" lon="12.537605"><ele>193.0</ele><time>2026-05-02T05:07:58.786Z</time></trkpt><trkpt lat="43.8918333" lon="12.5376933"><ele>193.0</ele><time>2026-05-02T05:08:00.786Z</time></trkpt><trkpt lat="43.8917483" lon="12.5377617"><ele>193.0</ele><time>2026-05-02T05:08:02.788Z</time></trkpt><trkpt lat="43.8916683" lon="12.5378233"><ele>193.0</ele><time>2026-05-02T05:08:04.789Z</time></trkpt><trkpt lat="43.8915817" lon="12.537855"><ele>192.8</ele><time>2026-05-02T05:08:07.789Z</time></trkpt><trkpt lat="43.8914883" lon="12.5378067"><ele>192.60000000000002</ele><time>2026-05-02T05:08:09.79Z</time></trkpt><trkpt lat="43.8913833" lon="12.537755"><ele>192.39999999999998</ele><time>2026-05-02T05:08:11.788Z</time></trkpt><trkpt lat="43.89127" lon="12.5377533"><ele>192.2</ele><time>2026-05-02T05:08:13.786Z</time></trkpt><trkpt lat="43.8911733" lon="12.5377317"><ele>192.0</ele><time>2026-05-02T05:08:15.789Z</time></trkpt><trkpt lat="43.8911017" lon="12.5377033"><ele>192.0</ele><time>2026-05-02T05:08:17.786Z</time></trkpt><trkpt lat="43.8910117" lon="12.5376867"><ele>192.0</ele><time>2026-05-02T05:08:19.789Z</time></trkpt><trkpt lat="43.8909517" lon="12.5377267"><ele>192.0</ele><time>2026-05-02T05:08:21.785Z</time></trkpt><trkpt lat="43.8909217" lon="12.5378183"><ele>192.0</ele><time>2026-05-02T05:08:23.786Z</time></trkpt><trkpt lat="43.890885" lon="12.53789"><ele>192.0</ele><time>2026-05-02T05:08:26.787Z</time></trkpt><trkpt lat="43.8908" lon="12.5379133"><ele>192.0</ele><time>2026-05-02T05:08:29.786Z</time></trkpt><trkpt lat="43.89068" lon="12.5379317"><ele>192.2</ele><time>2026-05-02T05:11:30.787Z</time></trkpt><trkpt lat="43.8905867" lon="12.5379533"><ele>192.39999999999998</ele><time>2026-05-02T05:11:32.787Z</time></trkpt><trkpt lat="43.8904983" lon="12.5379217"><ele>192.60000000000002</ele><time>2026-05-02T05:11:34.786Z</time></trkpt><trkpt lat="43.8904117" lon="12.5378583"><ele>192.8</ele><time>2026-05-02T05:11:36.786Z</time></trkpt><trkpt lat="43.8902983" lon="12.5378133"><ele>193.0</ele><time>2026-05-02T05:11:38.787Z</time></trkpt><trkpt lat="43.8902317" lon="12.5377867"><ele>193.00000000000003</ele><time>2026-05-02T05:11:39.786Z</time></trkpt><trkpt lat="43.8901683" lon="12.5377533"><ele>193.0</ele><time>2026-05-02T05:11:40.787Z</time></trkpt><trkpt lat="43.890105" lon="12.53771"><ele>193.0</ele><time>2026-05-02T05:11:41.787Z</time></trkpt><trkpt lat="43.8900417" lon="12.5376533"><ele>193.0</ele><time>2026-05-02T05:11:42.786Z</time></trkpt><trkpt lat="43.88998" lon="12.5375817"><ele>193.0</ele><time>2026-05-02T05:11:43.787Z</time></trkpt><trkpt lat="43.88992" lon="12.5375117"><ele>193.00000000000003</ele><time>2026-05-02T05:11:44.788Z</time></trkpt><trkpt lat="43.8898667" lon="12.5374417"><ele>193.0</ele><time>2026-05-02T05:11:45.787Z</time></trkpt><trkpt lat="43.88981" lon="12.53737"><ele>193.33333333333331</ele><time>2026-05-02T05:11:46.786Z</time></trkpt><trkpt lat="43.889755" lon="12.5372933"><ele>193.66666666666666</ele><time>2026-05-02T05:11:47.786Z</time></trkpt><trkpt lat="43.8897017" lon="12.53722"><ele>194.0</ele><time>2026-05-02T05:11:48.786Z</time></trkpt><trkpt lat="43.8896517" lon="12.53715"><ele>194.33333333333331</ele><time>2026-05-02T05:11:49.786Z</time></trkpt><trkpt lat="43.889605" lon="12.5370767"><ele>194.66666666666666</ele><time>2026-05-02T05:11:50.786Z</time></trkpt><trkpt lat="43.88956" lon="12.537005"><ele>195.0</ele><time>2026-05-02T05:11:51.786Z</time></trkpt><trkpt lat="43.8894933" lon="12.536885"><ele>195.0</ele><time>2026-05-02T05:11:53.786Z</time></trkpt><trkpt lat="43.8894267" lon="12.536755"><ele>195.0</ele><time>2026-05-02T05:11:55.786Z</time></trkpt><trkpt lat="43.8893817" lon="12.536675"><ele>195.0</ele><time>2026-05-02T05:11:56.789Z</time></trkpt><trkpt lat="43.88933" lon="12.536595"><ele>195.0</ele><time>2026-05-02T05:11:57.786Z</time></trkpt><trkpt lat="43.889285" lon="12.5365183"><ele>195.0</ele><time>2026-05-02T05:11:58.788Z</time></trkpt><trkpt lat="43.8892383" lon="12.5364433"><ele>195.0</ele><time>2026-05-02T05:11:59.786Z</time></trkpt><trkpt lat="43.8891617" lon="12.5363217"><ele>195.4</ele><time>2026-05-02T05:12:01.786Z</time></trkpt><trkpt lat="43.8890817" lon="12.5362067"><ele>195.8</ele><time>2026-05-02T05:12:03.786Z</time></trkpt><trkpt lat="43.889005" lon="12.5360933"><ele>196.2</ele><time>2026-05-02T05:12:05.787Z</time></trkpt><trkpt lat="43.888935" lon="12.5359833"><ele>196.6</ele><time>2026-05-02T05:12:07.786Z</time></trkpt><trkpt lat="43.888865" lon="12.5358667"><ele>197.0</ele><time>2026-05-02T05:12:09.786Z</time></trkpt><trkpt lat="43.888805" lon="12.5357683"><ele>197.0</ele><time>2026-05-02T05:12:11.788Z</time></trkpt><trkpt lat="43.8887533" lon="12.53568"><ele>197.0</ele><time>2026-05-02T05:12:13.786Z</time></trkpt><trkpt lat="43.8887017" lon="12.5355733"><ele>197.0</ele><time>2026-05-02T05:12:15.787Z</time></trkpt><trkpt lat="43.8886517" lon="12.5354433"><ele>197.0</ele><time>2026-05-02T05:12:17.786Z</time></trkpt><trkpt lat="43.88862" lon="12.5353267"><ele>197.0</ele><time>2026-05-02T05:12:19.786Z</time></trkpt><trkpt lat="43.8885883" lon="12.5352067"><ele>197.2</ele><time>2026-05-02T05:12:21.786Z</time></trkpt><trkpt lat="43.88856" lon="12.5351133"><ele>197.39999999999998</ele><time>2026-05-02T05:12:23.786Z</time></trkpt><trkpt lat="43.888495" lon="12.5349567"><ele>197.60000000000002</ele><time>2026-05-02T05:12:42.786Z</time></trkpt><trkpt lat="43.8884317" lon="12.53491"><ele>197.8</ele><time>2026-05-02T05:12:55.786Z</time></trkpt><trkpt lat="43.8883517" lon="12.5348683"><ele>198.0</ele><time>2026-05-02T05:12:57.787Z</time></trkpt><trkpt lat="43.8882317" lon="12.5347883"><ele>198.2</ele><time>2026-05-02T05:12:59.787Z</time></trkpt><trkpt lat="43.888175" lon="12.534735"><ele>198.4</ele><time>2026-05-02T05:13:00.787Z</time></trkpt><trkpt lat="43.8880983" lon="12.5346217"><ele>198.6</ele><time>2026-05-02T05:13:02.786Z</time></trkpt><trkpt lat="43.888035" lon="12.53447"><ele>198.79999999999998</ele><time>2026-05-02T05:13:04.786Z</time></trkpt><trkpt lat="43.88799" lon="12.5343867"><ele>199.0</ele><time>2026-05-02T05:13:05.788Z</time></trkpt><trkpt lat="43.8879433" lon="12.5343083"><ele>199.33333333333331</ele><time>2026-05-02T05:13:06.79Z</time></trkpt><trkpt lat="43.8878967" lon="12.5342283"><ele>199.66666666666666</ele><time>2026-05-02T05:13:07.79Z</time></trkpt><trkpt lat="43.8878467" lon="12.534145"><ele>200.0</ele><time>2026-05-02T05:13:08.789Z</time></trkpt><trkpt lat="43.8877967" lon="12.5340633"><ele>200.33333333333331</ele><time>2026-05-02T05:13:09.789Z</time></trkpt><trkpt lat="43.88775" lon="12.5339783"><ele>200.66666666666666</ele><time>2026-05-02T05:13:10.789Z</time></trkpt><trkpt lat="43.8877033" lon="12.5338983"><ele>201.0</ele><time>2026-05-02T05:13:11.791Z</time></trkpt><trkpt lat="43.8876533" lon="12.53381"><ele>201.0</ele><time>2026-05-02T05:13:12.789Z</time></trkpt><trkpt lat="43.8876133" lon="12.5337233"><ele>201.0</ele><time>2026-05-02T05:13:13.786Z</time></trkpt><trkpt lat="43.8875783" lon="12.53365"><ele>201.0</ele><time>2026-05-02T05:13:14.786Z</time></trkpt><trkpt lat="43.8875383" lon="12.5335817"><ele>201.0</ele><time>2026-05-02T05:13:15.787Z</time></trkpt><trkpt lat="43.887445" lon="12.5334617"><ele>201.0</ele><time>2026-05-02T05:13:17.789Z</time></trkpt><trkpt lat="43.887395" lon="12.533405"><ele>201.0</ele><time>2026-05-02T05:13:18.786Z</time></trkpt><trkpt lat="43.88734" lon="12.5333483"><ele>201.0</ele><time>2026-05-02T05:13:19.787Z</time></trkpt><trkpt lat="43.8872583" lon="12.5332617"><ele>201.0</ele><time>2026-05-02T05:13:21.79Z</time></trkpt><trkpt lat="43.887195" lon="12.5331633"><ele>201.0</ele><time>2026-05-02T05:13:23.787Z</time></trkpt><trkpt lat="43.8871433" lon="12.533045"><ele>201.0</ele><time>2026-05-02T05:13:25.787Z</time></trkpt><trkpt lat="43.8870633" lon="12.532935"><ele>201.0</ele><time>2026-05-02T05:13:27.786Z</time></trkpt><trkpt lat="43.887" lon="12.532875"><ele>200.66666666666666</ele><time>2026-05-02T05:13:28.786Z</time></trkpt><trkpt lat="43.8869383" lon="12.5328067"><ele>200.33333333333331</ele><time>2026-05-02T05:13:29.787Z</time></trkpt><trkpt lat="43.886865" lon="12.5327283"><ele>200.0</ele><time>2026-05-02T05:13:30.787Z</time></trkpt><trkpt lat="43.886785" lon="12.5326583"><ele>199.66666666666666</ele><time>2026-05-02T05:13:31.786Z</time></trkpt><trkpt lat="43.8867067" lon="12.5325967"><ele>199.33333333333331</ele><time>2026-05-02T05:13:32.787Z</time></trkpt><trkpt lat="43.88663" lon="12.5325383"><ele>199.0</ele><time>2026-05-02T05:13:33.786Z</time></trkpt><trkpt lat="43.8865533" lon="12.5324733"><ele>199.49999999999997</ele><time>2026-05-02T05:13:34.787Z</time></trkpt><trkpt lat="43.886475" lon="12.5324033"><ele>200.0</ele><time>2026-05-02T05:13:35.788Z</time></trkpt><trkpt lat="43.8864033" lon="12.5323317"><ele>200.5</ele><time>2026-05-02T05:13:36.786Z</time></trkpt><trkpt lat="43.8863383" lon="12.5322567"><ele>201.0</ele><time>2026-05-02T05:13:37.786Z</time></trkpt><trkpt lat="43.8862833" lon="12.5321867"><ele>201.49999999999997</ele><time>2026-05-02T05:13:38.787Z</time></trkpt><trkpt lat="43.8862383" lon="12.5321167"><ele>202.0</ele><time>2026-05-02T05:13:39.786Z</time></trkpt><trkpt lat="43.8861633" lon="12.5319833"><ele>202.0</ele><time>2026-05-02T05:13:41.788Z</time></trkpt><trkpt lat="43.8860933" lon="12.5318633"><ele>202.0</ele><time>2026-05-02T05:13:43.786Z</time></trkpt><trkpt lat="43.8860233" lon="12.531725"><ele>202.0</ele><time>2026-05-02T05:13:45.787Z</time></trkpt><trkpt lat="43.8859667" lon="12.5316467"><ele>202.0</ele><time>2026-05-02T05:13:46.789Z</time></trkpt><trkpt lat="43.8859033" lon="12.531565"><ele>202.0</ele><time>2026-05-02T05:13:47.789Z</time></trkpt><trkpt lat="43.8858367" lon="12.5314983"><ele>202.83333333333331</ele><time>2026-05-02T05:13:48.789Z</time></trkpt><trkpt lat="43.8857633" lon="12.5314433"><ele>203.66666666666666</ele><time>2026-05-02T05:13:49.79Z</time></trkpt><trkpt lat="43.885685" lon="12.531395"><ele>204.5</ele><time>2026-05-02T05:13:50.786Z</time></trkpt><trkpt lat="43.8856133" lon="12.531345"><ele>205.33333333333331</ele><time>2026-05-02T05:13:51.79Z</time></trkpt><trkpt lat="43.8855417" lon="12.5312983"><ele>206.16666666666666</ele><time>2026-05-02T05:13:52.786Z</time></trkpt><trkpt lat="43.8854733" lon="12.5312567"><ele>207.0</ele><time>2026-05-02T05:13:53.787Z</time></trkpt><trkpt lat="43.885405" lon="12.5312133"><ele>207.00000000000003</ele><time>2026-05-02T05:13:54.79Z</time></trkpt><trkpt lat="43.8853333" lon="12.53117"><ele>207.0</ele><time>2026-05-02T05:13:55.786Z</time></trkpt><trkpt lat="43.8852633" lon="12.5311317"><ele>207.0</ele><time>2026-05-02T05:13:56.789Z</time></trkpt><trkpt lat="43.8851983" lon="12.5311"><ele>207.0</ele><time>2026-05-02T05:13:57.787Z</time></trkpt><trkpt lat="43.885135" lon="12.5310683"><ele>207.0</ele><time>2026-05-02T05:13:58.786Z</time></trkpt><trkpt lat="43.88507" lon="12.5310383"><ele>207.00000000000003</ele><time>2026-05-02T05:13:59.788Z</time></trkpt><trkpt lat="43.8849983" lon="12.5310083"><ele>207.0</ele><time>2026-05-02T05:14:00.788Z</time></trkpt><trkpt lat="43.8849317" lon="12.53097"><ele>207.16666666666666</ele><time>2026-05-02T05:14:01.786Z</time></trkpt><trkpt lat="43.88487" lon="12.53092"><ele>207.33333333333331</ele><time>2026-05-02T05:14:02.786Z</time></trkpt><trkpt lat="43.8848083" lon="12.5308583"><ele>207.5</ele><time>2026-05-02T05:14:03.786Z</time></trkpt><trkpt lat="43.884745" lon="12.5307917"><ele>207.66666666666666</ele><time>2026-05-02T05:14:04.786Z</time></trkpt><trkpt lat="43.884675" lon="12.5307283"><ele>207.83333333333331</ele><time>2026-05-02T05:14:05.787Z</time></trkpt><trkpt lat="43.8846" lon="12.5306683"><ele>208.0</ele><time>2026-05-02T05:14:06.787Z</time></trkpt><trkpt lat="43.8845217" lon="12.5306033"><ele>207.99999999999997</ele><time>2026-05-02T05:14:07.786Z</time></trkpt><trkpt lat="43.8844417" lon="12.5305383"><ele>208.0</ele><time>2026-05-02T05:14:08.791Z</time></trkpt><trkpt lat="43.8843683" lon="12.530475"><ele>208.0</ele><time>2026-05-02T05:14:09.785Z</time></trkpt><trkpt lat="43.8843033" lon="12.5304117"><ele>208.0</ele><time>2026-05-02T05:14:10.788Z</time></trkpt><trkpt lat="43.884245" lon="12.5303433"><ele>207.99999999999997</ele><time>2026-05-02T05:14:11.787Z</time></trkpt><trkpt lat="43.8842017" lon="12.5302767"><ele>208.0</ele><time>2026-05-02T05:14:12.787Z</time></trkpt><trkpt lat="43.8841633" lon="12.5302017"><ele>208.16666666666666</ele><time>2026-05-02T05:14:13.789Z</time></trkpt><trkpt lat="43.8841267" lon="12.5301283"><ele>208.33333333333331</ele><time>2026-05-02T05:14:14.786Z</time></trkpt><trkpt lat="43.88406" lon="12.5300067"><ele>208.5</ele><time>2026-05-02T05:14:16.786Z</time></trkpt><trkpt lat="43.8840083" lon="12.5299533"><ele>208.66666666666669</ele><time>2026-05-02T05:14:17.789Z</time></trkpt><trkpt lat="43.883955" lon="12.529895"><ele>208.83333333333334</ele><time>2026-05-02T05:14:18.791Z</time></trkpt><trkpt lat="43.8838933" lon="12.5298317"><ele>209.0</ele><time>2026-05-02T05:14:19.787Z</time></trkpt><trkpt lat="43.88383" lon="12.52977"><ele>209.00000000000003</ele><time>2026-05-02T05:14:20.787Z</time></trkpt><trkpt lat="43.88376" lon="12.5297083"><ele>209.0</ele><time>2026-05-02T05:14:21.787Z</time></trkpt><trkpt lat="43.8836967" lon="12.5296533"><ele>209.0</ele><time>2026-05-02T05:14:22.787Z</time></trkpt><trkpt lat="43.8836467" lon="12.5295967"><ele>209.0</ele><time>2026-05-02T05:14:23.787Z</time></trkpt><trkpt lat="43.8836033" lon="12.529475"><ele>209.00000000000003</ele><time>2026-05-02T05:14:25.786Z</time></trkpt><trkpt lat="43.8836" lon="12.529305"><ele>209.0</ele><time>2026-05-02T05:14:27.787Z</time></trkpt><trkpt lat="43.8836183" lon="12.5292017"><ele>208.83333333333334</ele><time>2026-05-02T05:14:28.787Z</time></trkpt><trkpt lat="43.88365" lon="12.5290933"><ele>208.66666666666669</ele><time>2026-05-02T05:14:29.787Z</time></trkpt><trkpt lat="43.8837017" lon="12.5289933"><ele>208.5</ele><time>2026-05-02T05:14:30.786Z</time></trkpt><trkpt lat="43.8837567" lon="12.5288983"><ele>208.33333333333331</ele><time>2026-05-02T05:14:31.786Z</time></trkpt><trkpt lat="43.8838133" lon="12.5288017"><ele>208.16666666666666</ele><time>2026-05-02T05:14:32.787Z</time></trkpt><trkpt lat="43.8838683" lon="12.5287067"><ele>208.0</ele><time>2026-05-02T05:14:33.786Z</time></trkpt><trkpt lat="43.8839283" lon="12.5286067"><ele>208.4</ele><time>2026-05-02T05:14:34.786Z</time></trkpt><trkpt lat="43.8839883" lon="12.5285033"><ele>208.8</ele><time>2026-05-02T05:14:35.788Z</time></trkpt><trkpt lat="43.8840533" lon="12.5284017"><ele>209.2</ele><time>2026-05-02T05:14:36.786Z</time></trkpt><trkpt lat="43.8841183" lon="12.5282983"><ele>209.6</ele><time>2026-05-02T05:14:37.788Z</time></trkpt><trkpt lat="43.884185" lon="12.5281883"><ele>210.0</ele><time>2026-05-02T05:14:38.787Z</time></trkpt><trkpt lat="43.8842567" lon="12.5280633"><ele>210.0</ele><time>2026-05-02T05:14:39.786Z</time></trkpt><trkpt lat="43.8843267" lon="12.5279333"><ele>210.0</ele><time>2026-05-02T05:14:40.787Z</time></trkpt><trkpt lat="43.884395" lon="12.5277933"><ele>210.0</ele><time>2026-05-02T05:14:41.788Z</time></trkpt><trkpt lat="43.8844633" lon="12.5276517"><ele>210.0</ele><time>2026-05-02T05:14:42.786Z</time></trkpt><trkpt lat="43.8845233" lon="12.5275117"><ele>210.0</ele><time>2026-05-02T05:14:43.788Z</time></trkpt><trkpt lat="43.8845817" lon="12.52738"><ele>210.0</ele><time>2026-05-02T05:14:44.788Z</time></trkpt><trkpt lat="43.8846383" lon="12.5272517"><ele>210.0</ele><time>2026-05-02T05:14:45.786Z</time></trkpt><trkpt lat="43.8846967" lon="12.5271383"><ele>210.0</ele><time>2026-05-02T05:14:46.786Z</time></trkpt><trkpt lat="43.8847617" lon="12.527045"><ele>210.0</ele><time>2026-05-02T05:14:47.787Z</time></trkpt><trkpt lat="43.8848317" lon="12.526975"><ele>210.28571428571428</ele><time>2026-05-02T05:14:48.787Z</time></trkpt><trkpt lat="43.8849017" lon="12.5269183"><ele>210.57142857142856</ele><time>2026-05-02T05:14:49.789Z</time></trkpt><trkpt lat="43.8849567" lon="12.5268467"><ele>210.85714285714286</ele><time>2026-05-02T05:14:50.786Z</time></trkpt><trkpt lat="43.88499" lon="12.5267583"><ele>211.14285714285714</ele><time>2026-05-02T05:14:51.787Z</time></trkpt><trkpt lat="43.88498" lon="12.52667"><ele>211.42857142857142</ele><time>2026-05-02T05:14:52.79Z</time></trkpt><trkpt lat="43.8849467" lon="12.5265933"><ele>211.71428571428572</ele><time>2026-05-02T05:14:53.787Z</time></trkpt><trkpt lat="43.8848667" lon="12.5265483"><ele>212.0</ele><time>2026-05-02T05:14:54.789Z</time></trkpt><trkpt lat="43.884785" lon="12.5265217"><ele>212.0</ele><time>2026-05-02T05:14:55.789Z</time></trkpt><trkpt lat="43.8846883" lon="12.52649"><ele>212.0</ele><time>2026-05-02T05:14:56.787Z</time></trkpt><trkpt lat="43.8845833" lon="12.5264283"><ele>212.0</ele><time>2026-05-02T05:14:57.786Z</time></trkpt><trkpt lat="43.8844783" lon="12.5263483"><ele>212.0</ele><time>2026-05-02T05:14:58.787Z</time></trkpt><trkpt lat="43.8843667" lon="12.5262583"><ele>212.25</ele><time>2026-05-02T05:14:59.788Z</time></trkpt><trkpt lat="43.884255" lon="12.5261583"><ele>212.5</ele><time>2026-05-02T05:15:00.787Z</time></trkpt><trkpt lat="43.8841417" lon="12.5260533"><ele>212.75</ele><time>2026-05-02T05:15:01.786Z</time></trkpt><trkpt lat="43.884025" lon="12.525945"><ele>213.0</ele><time>2026-05-02T05:15:02.786Z</time></trkpt><trkpt lat="43.883905" lon="12.52583"><ele>213.0</ele><time>2026-05-02T05:15:03.786Z</time></trkpt><trkpt lat="43.8837783" lon="12.5257033"><ele>213.0</ele><time>2026-05-02T05:15:04.786Z</time></trkpt><trkpt lat="43.8836483" lon="12.5255683"><ele>213.0</ele><time>2026-05-02T05:15:05.786Z</time></trkpt><trkpt lat="43.8835183" lon="12.5254283"><ele>214.0</ele><time>2026-05-02T05:15:06.786Z</time></trkpt><trkpt lat="43.88339" lon="12.5252817"><ele>215.0</ele><time>2026-05-02T05:15:07.786Z</time></trkpt><trkpt lat="43.8832767" lon="12.5251217"><ele>216.0</ele><time>2026-05-02T05:15:08.786Z</time></trkpt><trkpt lat="43.8831667" lon="12.5249583"><ele>216.0</ele><time>2026-05-02T05:15:09.786Z</time></trkpt><trkpt lat="43.8830633" lon="12.5247867"><ele>216.0</ele><time>2026-05-02T05:15:10.791Z</time></trkpt><trkpt lat="43.8829683" lon="12.52461"><ele>216.0</ele><time>2026-05-02T05:15:11.789Z</time></trkpt><trkpt lat="43.88289" lon="12.524425"><ele>217.33333333333331</ele><time>2026-05-02T05:15:12.791Z</time></trkpt><trkpt lat="43.8828183" lon="12.5242367"><ele>218.66666666666666</ele><time>2026-05-02T05:15:13.789Z</time></trkpt><trkpt lat="43.8827567" lon="12.5240417"><ele>220.0</ele><time>2026-05-02T05:15:14.79Z</time></trkpt><trkpt lat="43.882705" lon="12.5238433"><ele>223.33333333333331</ele><time>2026-05-02T05:15:15.79Z</time></trkpt><trkpt lat="43.88267" lon="12.52364"><ele>226.66666666666669</ele><time>2026-05-02T05:15:16.786Z</time></trkpt><trkpt lat="43.8826367" lon="12.52343"><ele>230.0</ele><time>2026-05-02T05:15:17.791Z</time></trkpt><trkpt lat="43.8826117" lon="12.5232117"><ele>229.33333333333334</ele><time>2026-05-02T05:15:18.789Z</time></trkpt><trkpt lat="43.882595" lon="12.5229883"><ele>228.66666666666669</ele><time>2026-05-02T05:15:19.789Z</time></trkpt><trkpt lat="43.88258" lon="12.52276"><ele>228.0</ele><time>2026-05-02T05:15:20.787Z</time></trkpt><trkpt lat="43.8825683" lon="12.5225233"><ele>228.0</ele><time>2026-05-02T05:15:21.789Z</time></trkpt><trkpt lat="43.882555" lon="12.5222833"><ele>228.0</ele><time>2026-05-02T05:15:22.786Z</time></trkpt><trkpt lat="43.88254" lon="12.52204"><ele>228.0</ele><time>2026-05-02T05:15:23.787Z</time></trkpt><trkpt lat="43.882525" lon="12.5217967"><ele>228.66666666666669</ele><time>2026-05-02T05:15:24.787Z</time></trkpt><trkpt lat="43.8825067" lon="12.5215533"><ele>229.33333333333334</ele><time>2026-05-02T05:15:25.786Z</time></trkpt><trkpt lat="43.88249" lon="12.52131"><ele>230.0</ele><time>2026-05-02T05:15:26.787Z</time></trkpt><trkpt lat="43.8824733" lon="12.5210667"><ele>228.66666666666669</ele><time>2026-05-02T05:15:27.788Z</time></trkpt><trkpt lat="43.882455" lon="12.5208233"><ele>227.33333333333331</ele><time>2026-05-02T05:15:28.788Z</time></trkpt><trkpt lat="43.8824367" lon="12.52058"><ele>226.0</ele><time>2026-05-02T05:15:29.788Z</time></trkpt><trkpt lat="43.88242" lon="12.5203367"><ele>225.66666666666666</ele><time>2026-05-02T05:15:30.787Z</time></trkpt><trkpt lat="43.8824017" lon="12.520095"><ele>225.33333333333331</ele><time>2026-05-02T05:15:31.788Z</time></trkpt><trkpt lat="43.88238" lon="12.51986"><ele>225.0</ele><time>2026-05-02T05:15:32.787Z</time></trkpt><trkpt lat="43.8823583" lon="12.519625"><ele>226.0</ele><time>2026-05-02T05:15:33.788Z</time></trkpt><trkpt lat="43.882335" lon="12.51939"><ele>227.0</ele><time>2026-05-02T05:15:34.787Z</time></trkpt><trkpt lat="43.8823083" lon="12.5191517"><ele>228.0</ele><time>2026-05-02T05:15:35.788Z</time></trkpt><trkpt lat="43.88228" lon="12.5189133"><ele>229.66666666666669</ele><time>2026-05-02T05:15:36.787Z</time></trkpt><trkpt lat="43.8822517" lon="12.518675"><ele>231.33333333333334</ele><time>2026-05-02T05:15:37.79Z</time></trkpt><trkpt lat="43.8822217" lon="12.5184383"><ele>233.0</ele><time>2026-05-02T05:15:38.789Z</time></trkpt><trkpt lat="43.88219" lon="12.5182033"><ele>233.0</ele><time>2026-05-02T05:15:39.787Z</time></trkpt><trkpt lat="43.882155" lon="12.5179667"><ele>233.0</ele><time>2026-05-02T05:15:40.787Z</time></trkpt><trkpt lat="43.8821217" lon="12.5177283"><ele>233.0</ele><time>2026-05-02T05:15:41.791Z</time></trkpt><trkpt lat="43.882085" lon="12.5174883"><ele>235.0</ele><time>2026-05-02T05:15:42.786Z</time></trkpt><trkpt lat="43.88205" lon="12.5172417"><ele>237.0</ele><time>2026-05-02T05:15:43.786Z</time></trkpt><trkpt lat="43.8820133" lon="12.5169933"><ele>239.0</ele><time>2026-05-02T05:15:44.787Z</time></trkpt><trkpt lat="43.8819783" lon="12.5167433"><ele>240.0</ele><time>2026-05-02T05:15:45.786Z</time></trkpt><trkpt lat="43.8819433" lon="12.516495"><ele>241.0</ele><time>2026-05-02T05:15:46.786Z</time></trkpt><trkpt lat="43.8819067" lon="12.5162467"><ele>242.0</ele><time>2026-05-02T05:15:47.787Z</time></trkpt><trkpt lat="43.8818733" lon="12.5159983"><ele>242.66666666666669</ele><time>2026-05-02T05:15:48.786Z</time></trkpt><trkpt lat="43.88184" lon="12.5157517"><ele>243.33333333333331</ele><time>2026-05-02T05:15:49.787Z</time></trkpt><trkpt lat="43.8818083" lon="12.5155083"><ele>244.0</ele><time>2026-05-02T05:15:50.786Z</time></trkpt><trkpt lat="43.8817817" lon="12.5152667"><ele>241.66666666666666</ele><time>2026-05-02T05:15:51.786Z</time></trkpt><trkpt lat="43.8817633" lon="12.5150267"><ele>239.33333333333331</ele><time>2026-05-02T05:15:52.786Z</time></trkpt><trkpt lat="43.88175" lon="12.5147867"><ele>237.0</ele><time>2026-05-02T05:15:53.787Z</time></trkpt><trkpt lat="43.88174" lon="12.5145483"><ele>237.0</ele><time>2026-05-02T05:15:54.786Z</time></trkpt><trkpt lat="43.8817317" lon="12.514305"><ele>237.0</ele><time>2026-05-02T05:15:55.786Z</time></trkpt><trkpt lat="43.8817233" lon="12.51406"><ele>237.0</ele><time>2026-05-02T05:15:56.786Z</time></trkpt><trkpt lat="43.8817133" lon="12.51382"><ele>238.0</ele><time>2026-05-02T05:15:57.786Z</time></trkpt><trkpt lat="43.8817033" lon="12.5135783"><ele>239.0</ele><time>2026-05-02T05:15:58.787Z</time></trkpt><trkpt lat="43.8816833" lon="12.513335"><ele>240.0</ele><time>2026-05-02T05:15:59.787Z</time></trkpt><trkpt lat="43.88166" lon="12.51309"><ele>240.33333333333331</ele><time>2026-05-02T05:16:00.787Z</time></trkpt><trkpt lat="43.88163" lon="12.5128467"><ele>240.66666666666666</ele><time>2026-05-02T05:16:01.787Z</time></trkpt><trkpt lat="43.88159" lon="12.5126067"><ele>241.0</ele><time>2026-05-02T05:16:02.786Z</time></trkpt><trkpt lat="43.8815417" lon="12.5123667"><ele>241.0</ele><time>2026-05-02T05:16:03.789Z</time></trkpt><trkpt lat="43.88149" lon="12.5121333"><ele>241.0</ele><time>2026-05-02T05:16:04.79Z</time></trkpt><trkpt lat="43.881435" lon="12.5119"><ele>241.0</ele><time>2026-05-02T05:16:05.787Z</time></trkpt><trkpt lat="43.8813783" lon="12.5116783"><ele>241.33333333333331</ele><time>2026-05-02T05:16:06.786Z</time></trkpt><trkpt lat="43.8813183" lon="12.51145"><ele>241.66666666666669</ele><time>2026-05-02T05:16:07.791Z</time></trkpt><trkpt lat="43.8812567" lon="12.511225"><ele>242.0</ele><time>2026-05-02T05:16:08.787Z</time></trkpt><trkpt lat="43.8811983" lon="12.5109983"><ele>244.0</ele><time>2026-05-02T05:16:09.786Z</time></trkpt><trkpt lat="43.881135" lon="12.510775"><ele>246.0</ele><time>2026-05-02T05:16:10.787Z</time></trkpt><trkpt lat="43.8810683" lon="12.51055"><ele>248.0</ele><time>2026-05-02T05:16:11.787Z</time></trkpt><trkpt lat="43.881" lon="12.51033"><ele>247.33333333333334</ele><time>2026-05-02T05:16:12.786Z</time></trkpt><trkpt lat="43.8809333" lon="12.5101117"><ele>246.66666666666669</ele><time>2026-05-02T05:16:13.786Z</time></trkpt><trkpt lat="43.8808633" lon="12.509895"><ele>246.0</ele><time>2026-05-02T05:16:14.786Z</time></trkpt><trkpt lat="43.8807883" lon="12.5096783"><ele>248.66666666666669</ele><time>2026-05-02T05:16:15.79Z</time></trkpt><trkpt lat="43.880705" lon="12.509475"><ele>251.33333333333334</ele><time>2026-05-02T05:16:16.789Z</time></trkpt><trkpt lat="43.8806167" lon="12.5092717"><ele>254.0</ele><time>2026-05-02T05:16:17.789Z</time></trkpt><trkpt lat="43.8805267" lon="12.50907"><ele>254.0</ele><time>2026-05-02T05:16:18.791Z</time></trkpt><trkpt lat="43.88044" lon="12.5088683"><ele>254.0</ele><time>2026-05-02T05:16:19.786Z</time></trkpt><trkpt lat="43.8803567" lon="12.5086633"><ele>254.0</ele><time>2026-05-02T05:16:20.786Z</time></trkpt><trkpt lat="43.8802733" lon="12.5084617"><ele>254.33333333333334</ele><time>2026-05-02T05:16:21.79Z</time></trkpt><trkpt lat="43.8801867" lon="12.5082617"><ele>254.66666666666669</ele><time>2026-05-02T05:16:22.787Z</time></trkpt><trkpt lat="43.8801033" lon="12.50806"><ele>255.0</ele><time>2026-05-02T05:16:23.788Z</time></trkpt><trkpt lat="43.8800167" lon="12.5078533"><ele>253.33333333333331</ele><time>2026-05-02T05:16:24.787Z</time></trkpt><trkpt lat="43.8799283" lon="12.5076467"><ele>251.66666666666666</ele><time>2026-05-02T05:16:25.787Z</time></trkpt><trkpt lat="43.8798433" lon="12.50744"><ele>250.0</ele><time>2026-05-02T05:16:26.787Z</time></trkpt><trkpt lat="43.8797567" lon="12.5072267"><ele>252.33333333333331</ele><time>2026-05-02T05:16:27.787Z</time></trkpt><trkpt lat="43.8796783" lon="12.50701"><ele>254.66666666666669</ele><time>2026-05-02T05:16:28.788Z</time></trkpt><trkpt lat="43.8796117" lon="12.5067883"><ele>257.0</ele><time>2026-05-02T05:16:29.787Z</time></trkpt><trkpt lat="43.8795533" lon="12.5065633"><ele>257.0</ele><time>2026-05-02T05:16:30.788Z</time></trkpt><trkpt lat="43.8795017" lon="12.5063367"><ele>257.0</ele><time>2026-05-02T05:16:31.789Z</time></trkpt><trkpt lat="43.8794517" lon="12.5061133"><ele>257.0</ele><time>2026-05-02T05:16:32.79Z</time></trkpt><trkpt lat="43.8793933" lon="12.505895"><ele>258.0</ele><time>2026-05-02T05:16:33.79Z</time></trkpt><trkpt lat="43.8793167" lon="12.5056833"><ele>259.0</ele><time>2026-05-02T05:16:34.788Z</time></trkpt><trkpt lat="43.8792283" lon="12.5054833"><ele>260.0</ele><time>2026-05-02T05:16:35.789Z</time></trkpt><trkpt lat="43.879135" lon="12.50529"><ele>260.0</ele><time>2026-05-02T05:16:36.79Z</time></trkpt><trkpt lat="43.8790317" lon="12.5051017"><ele>260.0</ele><time>2026-05-02T05:16:37.787Z</time></trkpt><trkpt lat="43.878925" lon="12.5049117"><ele>260.0</ele><time>2026-05-02T05:16:38.788Z</time></trkpt><trkpt lat="43.8788183" lon="12.5047217"><ele>262.0</ele><time>2026-05-02T05:16:39.789Z</time></trkpt><trkpt lat="43.8787133" lon="12.5045333"><ele>264.0</ele><time>2026-05-02T05:16:40.787Z</time></trkpt><trkpt lat="43.8786067" lon="12.504345"><ele>266.0</ele><time>2026-05-02T05:16:41.787Z</time></trkpt><trkpt lat="43.8785067" lon="12.5041567"><ele>265.33333333333337</ele><time>2026-05-02T05:16:42.79Z</time></trkpt><trkpt lat="43.8784083" lon="12.50396"><ele>264.6666666666667</ele><time>2026-05-02T05:16:43.786Z</time></trkpt><trkpt lat="43.87831" lon="12.5037617"><ele>264.0</ele><time>2026-05-02T05:16:44.791Z</time></trkpt><trkpt lat="43.8782167" lon="12.50356"><ele>264.0</ele><time>2026-05-02T05:16:45.79Z</time></trkpt><trkpt lat="43.87813" lon="12.503355"><ele>264.0</ele><time>2026-05-02T05:16:46.79Z</time></trkpt><trkpt lat="43.8780417" lon="12.5031483"><ele>264.0</ele><time>2026-05-02T05:16:47.79Z</time></trkpt><trkpt lat="43.877955" lon="12.5029383"><ele>266.0</ele><time>2026-05-02T05:16:48.79Z</time></trkpt><trkpt lat="43.8778683" lon="12.502725"><ele>268.0</ele><time>2026-05-02T05:16:49.789Z</time></trkpt><trkpt lat="43.87778" lon="12.50251"><ele>270.0</ele><time>2026-05-02T05:16:50.786Z</time></trkpt><trkpt lat="43.8776917" lon="12.5022933"><ele>271.0</ele><time>2026-05-02T05:16:51.789Z</time></trkpt><trkpt lat="43.8776033" lon="12.5020733"><ele>272.0</ele><time>2026-05-02T05:16:52.787Z</time></trkpt><trkpt lat="43.87751" lon="12.50185"><ele>273.0</ele><time>2026-05-02T05:16:53.79Z</time></trkpt><trkpt lat="43.8774183" lon="12.5016283"><ele>271.0</ele><time>2026-05-02T05:16:54.79Z</time></trkpt><trkpt lat="43.8773233" lon="12.5014017"><ele>269.0</ele><time>2026-05-02T05:16:55.787Z</time></trkpt><trkpt lat="43.8772283" lon="12.5011733"><ele>267.0</ele><time>2026-05-02T05:16:56.79Z</time></trkpt><trkpt lat="43.87713" lon="12.500945"><ele>267.0</ele><time>2026-05-02T05:16:57.79Z</time></trkpt><trkpt lat="43.877035" lon="12.5007133"><ele>267.0</ele><time>2026-05-02T05:16:58.79Z</time></trkpt><trkpt lat="43.87694" lon="12.5004883"><ele>267.0</ele><time>2026-05-02T05:16:59.789Z</time></trkpt><trkpt lat="43.87685" lon="12.5002817"><ele>266.0</ele><time>2026-05-02T05:17:00.79Z</time></trkpt><trkpt lat="43.876765" lon="12.5000817"><ele>265.0</ele><time>2026-05-02T05:17:01.786Z</time></trkpt><trkpt lat="43.876685" lon="12.49989"><ele>264.0</ele><time>2026-05-02T05:17:02.791Z</time></trkpt><trkpt lat="43.8766067" lon="12.499705"><ele>265.0</ele><time>2026-05-02T05:17:03.79Z</time></trkpt><trkpt lat="43.8765283" lon="12.499515"><ele>266.0</ele><time>2026-05-02T05:17:04.786Z</time></trkpt><trkpt lat="43.8764517" lon="12.4993183"><ele>267.0</ele><time>2026-05-02T05:17:05.787Z</time></trkpt><trkpt lat="43.87638" lon="12.4991133"><ele>267.0</ele><time>2026-05-02T05:17:06.788Z</time></trkpt><trkpt lat="43.8763133" lon="12.4989033"><ele>267.0</ele><time>2026-05-02T05:17:07.787Z</time></trkpt><trkpt lat="43.8762567" lon="12.4986867"><ele>267.0</ele><time>2026-05-02T05:17:08.79Z</time></trkpt><trkpt lat="43.876205" lon="12.49847"><ele>268.6666666666667</ele><time>2026-05-02T05:17:09.79Z</time></trkpt><trkpt lat="43.8761583" lon="12.4982467"><ele>270.33333333333337</ele><time>2026-05-02T05:17:10.789Z</time></trkpt><trkpt lat="43.8761167" lon="12.4980233"><ele>272.0</ele><time>2026-05-02T05:17:11.789Z</time></trkpt><trkpt lat="43.8760733" lon="12.4977983"><ele>275.33333333333337</ele><time>2026-05-02T05:17:12.79Z</time></trkpt><trkpt lat="43.876035" lon="12.49758"><ele>278.6666666666667</ele><time>2026-05-02T05:17:13.787Z</time></trkpt><trkpt lat="43.8759983" lon="12.4973783"><ele>282.0</ele><time>2026-05-02T05:17:14.787Z</time></trkpt><trkpt lat="43.87596" lon="12.49719"><ele>280.0</ele><time>2026-05-02T05:17:15.787Z</time></trkpt><trkpt lat="43.8759217" lon="12.4970233"><ele>278.0</ele><time>2026-05-02T05:17:16.787Z</time></trkpt><trkpt lat="43.87588" lon="12.4968767"><ele>276.0</ele><time>2026-05-02T05:17:17.787Z</time></trkpt><trkpt lat="43.8758283" lon="12.4967533"><ele>274.0</ele><time>2026-05-02T05:17:18.79Z</time></trkpt><trkpt lat="43.8757717" lon="12.49665"><ele>272.0</ele><time>2026-05-02T05:17:19.786Z</time></trkpt><trkpt lat="43.8757133" lon="12.4965583"><ele>272.0</ele><time>2026-05-02T05:17:20.786Z</time></trkpt><trkpt lat="43.8756617" lon="12.4964817"><ele>272.0</ele><time>2026-05-02T05:17:21.789Z</time></trkpt><trkpt lat="43.8756133" lon="12.4964217"><ele>272.0</ele><time>2026-05-02T05:17:22.79Z</time></trkpt><trkpt lat="43.8755133" lon="12.4963533"><ele>272.0</ele><time>2026-05-02T05:17:24.79Z</time></trkpt><trkpt lat="43.8754017" lon="12.4964033"><ele>272.0</ele><time>2026-05-02T05:17:26.79Z</time></trkpt><trkpt lat="43.875345" lon="12.496505"><ele>272.0</ele><time>2026-05-02T05:17:27.79Z</time></trkpt><trkpt lat="43.8752667" lon="12.4966133"><ele>272.0</ele><time>2026-05-02T05:17:28.79Z</time></trkpt><trkpt lat="43.8751667" lon="12.4967617"><ele>272.0</ele><time>2026-05-02T05:17:29.79Z</time></trkpt><trkpt lat="43.87505" lon="12.4968783"><ele>272.0</ele><time>2026-05-02T05:17:30.789Z</time></trkpt><trkpt lat="43.87493" lon="12.4969783"><ele>270.25</ele><time>2026-05-02T05:17:31.79Z</time></trkpt><trkpt lat="43.8748133" lon="12.49706"><ele>268.5</ele><time>2026-05-02T05:17:32.79Z</time></trkpt><trkpt lat="43.8747017" lon="12.4971333"><ele>266.75</ele><time>2026-05-02T05:17:33.786Z</time></trkpt><trkpt lat="43.8745933" lon="12.497185"><ele>265.0</ele><time>2026-05-02T05:17:34.79Z</time></trkpt><trkpt lat="43.874475" lon="12.497225"><ele>264.0</ele><time>2026-05-02T05:17:35.789Z</time></trkpt><trkpt lat="43.8743467" lon="12.4972467"><ele>263.0</ele><time>2026-05-02T05:17:36.791Z</time></trkpt><trkpt lat="43.87421" lon="12.4972533"><ele>262.0</ele><time>2026-05-02T05:17:37.789Z</time></trkpt><trkpt lat="43.8740783" lon="12.4972467"><ele>261.0</ele><time>2026-05-02T05:17:38.79Z</time></trkpt><trkpt lat="43.87395" lon="12.4972217"><ele>261.0</ele><time>2026-05-02T05:17:39.789Z</time></trkpt><trkpt lat="43.8738183" lon="12.4971817"><ele>261.0</ele><time>2026-05-02T05:17:40.789Z</time></trkpt><trkpt lat="43.8736933" lon="12.497125"><ele>261.0</ele><time>2026-05-02T05:17:41.789Z</time></trkpt><trkpt lat="43.87357" lon="12.49704"><ele>261.0</ele><time>2026-05-02T05:17:42.79Z</time></trkpt><trkpt lat="43.8734483" lon="12.4969417"><ele>261.75</ele><time>2026-05-02T05:17:43.791Z</time></trkpt><trkpt lat="43.873325" lon="12.4968333"><ele>262.5</ele><time>2026-05-02T05:17:44.79Z</time></trkpt><trkpt lat="43.8731983" lon="12.4967283"><ele>263.25</ele><time>2026-05-02T05:17:45.79Z</time></trkpt><trkpt lat="43.8730767" lon="12.4966267"><ele>264.0</ele><time>2026-05-02T05:17:46.787Z</time></trkpt><trkpt lat="43.8729533" lon="12.4965267"><ele>264.0</ele><time>2026-05-02T05:17:47.79Z</time></trkpt><trkpt lat="43.8728283" lon="12.4964267"><ele>264.0</ele><time>2026-05-02T05:17:48.789Z</time></trkpt><trkpt lat="43.8727067" lon="12.4963217"><ele>264.0</ele><time>2026-05-02T05:17:49.789Z</time></trkpt><trkpt lat="43.8725817" lon="12.4962117"><ele>264.0</ele><time>2026-05-02T05:17:50.786Z</time></trkpt><trkpt lat="43.8724533" lon="12.4961033"><ele>264.25</ele><time>2026-05-02T05:17:51.786Z</time></trkpt><trkpt lat="43.8723233" lon="12.4959983"><ele>264.5</ele><time>2026-05-02T05:17:52.788Z</time></trkpt><trkpt lat="43.8721983" lon="12.495895"><ele>264.75</ele><time>2026-05-02T05:17:53.787Z</time></trkpt><trkpt lat="43.8720817" lon="12.4957967"><ele>265.0</ele><time>2026-05-02T05:17:54.788Z</time></trkpt><trkpt lat="43.8719717" lon="12.4956983"><ele>265.0</ele><time>2026-05-02T05:17:55.788Z</time></trkpt><trkpt lat="43.8718617" lon="12.4956"><ele>265.0</ele><time>2026-05-02T05:17:56.788Z</time></trkpt><trkpt lat="43.8717583" lon="12.4955017"><ele>265.0</ele><time>2026-05-02T05:17:57.787Z</time></trkpt><trkpt lat="43.8716633" lon="12.4953967"><ele>265.0</ele><time>2026-05-02T05:17:58.789Z</time></trkpt><trkpt lat="43.87157" lon="12.4952867"><ele>266.0</ele><time>2026-05-02T05:17:59.789Z</time></trkpt><trkpt lat="43.8714783" lon="12.4951767"><ele>267.0</ele><time>2026-05-02T05:18:00.789Z</time></trkpt><trkpt lat="43.871385" lon="12.4950683"><ele>268.0</ele><time>2026-05-02T05:18:01.791Z</time></trkpt><trkpt lat="43.8712967" lon="12.4949533"><ele>269.0</ele><time>2026-05-02T05:18:02.789Z</time></trkpt><trkpt lat="43.871205" lon="12.494835"><ele>269.0</ele><time>2026-05-02T05:18:03.79Z</time></trkpt><trkpt lat="43.8711083" lon="12.4947183"><ele>269.0</ele><time>2026-05-02T05:18:04.786Z</time></trkpt><trkpt lat="43.8710117" lon="12.4946033"><ele>269.0</ele><time>2026-05-02T05:18:05.786Z</time></trkpt><trkpt lat="43.870915" lon="12.4944933"><ele>269.0</ele><time>2026-05-02T05:18:06.787Z</time></trkpt><trkpt lat="43.87082" lon="12.4943817"><ele>269.4</ele><time>2026-05-02T05:18:07.79Z</time></trkpt><trkpt lat="43.8707233" lon="12.4942683"><ele>269.79999999999995</ele><time>2026-05-02T05:18:08.786Z</time></trkpt><trkpt lat="43.8706333" lon="12.4941617"><ele>270.20000000000005</ele><time>2026-05-02T05:18:09.787Z</time></trkpt><trkpt lat="43.870555" lon="12.4940667"><ele>270.6</ele><time>2026-05-02T05:18:10.79Z</time></trkpt><trkpt lat="43.8704867" lon="12.49398"><ele>271.0</ele><time>2026-05-02T05:18:11.79Z</time></trkpt><trkpt lat="43.8704383" lon="12.4939083"><ele>271.0</ele><time>2026-05-02T05:18:12.787Z</time></trkpt><trkpt lat="43.8704033" lon="12.4937917"><ele>271.0</ele><time>2026-05-02T05:18:14.789Z</time></trkpt><trkpt lat="43.8704483" lon="12.493695"><ele>271.0</ele><time>2026-05-02T05:18:16.787Z</time></trkpt><trkpt lat="43.8705033" lon="12.4936467"><ele>271.0</ele><time>2026-05-02T05:18:17.789Z</time></trkpt><trkpt lat="43.8705533" lon="12.49352"><ele>271.0</ele><time>2026-05-02T05:18:19.79Z</time></trkpt><trkpt lat="43.87052" lon="12.4933783"><ele>271.8333333333333</ele><time>2026-05-02T05:18:21.79Z</time></trkpt><trkpt lat="43.8704683" lon="12.4933083"><ele>272.66666666666663</ele><time>2026-05-02T05:18:22.79Z</time></trkpt><trkpt lat="43.8704117" lon="12.4932367"><ele>273.5</ele><time>2026-05-02T05:18:23.786Z</time></trkpt><trkpt lat="43.87036" lon="12.4931517"><ele>274.3333333333333</ele><time>2026-05-02T05:18:24.786Z</time></trkpt><trkpt lat="43.8703" lon="12.49305"><ele>275.1666666666667</ele><time>2026-05-02T05:18:25.788Z</time></trkpt><trkpt lat="43.8702383" lon="12.4929333"><ele>276.0</ele><time>2026-05-02T05:18:26.788Z</time></trkpt><trkpt lat="43.87017" lon="12.492815"><ele>275.75</ele><time>2026-05-02T05:18:27.787Z</time></trkpt><trkpt lat="43.8700983" lon="12.4926967"><ele>275.5</ele><time>2026-05-02T05:18:28.787Z</time></trkpt><trkpt lat="43.870025" lon="12.4925767"><ele>275.25</ele><time>2026-05-02T05:18:29.787Z</time></trkpt><trkpt lat="43.8699567" lon="12.4924533"><ele>275.0</ele><time>2026-05-02T05:18:30.787Z</time></trkpt><trkpt lat="43.8698883" lon="12.4923283"><ele>275.0</ele><time>2026-05-02T05:18:31.789Z</time></trkpt><trkpt lat="43.8698183" lon="12.4922033"><ele>275.0</ele><time>2026-05-02T05:18:32.788Z</time></trkpt><trkpt lat="43.8697467" lon="12.4920733"><ele>275.0</ele><time>2026-05-02T05:18:33.788Z</time></trkpt><trkpt lat="43.8696783" lon="12.4919367"><ele>275.0</ele><time>2026-05-02T05:18:34.788Z</time></trkpt><trkpt lat="43.8696083" lon="12.4918067"><ele>275.75</ele><time>2026-05-02T05:18:35.788Z</time></trkpt><trkpt lat="43.8695367" lon="12.49168"><ele>276.5</ele><time>2026-05-02T05:18:36.788Z</time></trkpt><trkpt lat="43.8694667" lon="12.4915483"><ele>277.25</ele><time>2026-05-02T05:18:37.789Z</time></trkpt><trkpt lat="43.869405" lon="12.491415"><ele>278.0</ele><time>2026-05-02T05:18:38.787Z</time></trkpt><trkpt lat="43.8693483" lon="12.4912767"><ele>278.4</ele><time>2026-05-02T05:18:39.789Z</time></trkpt><trkpt lat="43.8693033" lon="12.4911383"><ele>278.8</ele><time>2026-05-02T05:18:40.787Z</time></trkpt><trkpt lat="43.8692733" lon="12.4909983"><ele>279.2</ele><time>2026-05-02T05:18:41.788Z</time></trkpt><trkpt lat="43.86926" lon="12.4908517"><ele>279.6</ele><time>2026-05-02T05:18:42.79Z</time></trkpt><trkpt lat="43.8692567" lon="12.490705"><ele>280.0</ele><time>2026-05-02T05:18:43.79Z</time></trkpt><trkpt lat="43.869265" lon="12.4905567"><ele>280.5</ele><time>2026-05-02T05:18:44.787Z</time></trkpt><trkpt lat="43.869275" lon="12.49041"><ele>281.0</ele><time>2026-05-02T05:18:45.787Z</time></trkpt><trkpt lat="43.86929" lon="12.4902733"><ele>281.5</ele><time>2026-05-02T05:18:46.789Z</time></trkpt><trkpt lat="43.8692967" lon="12.49015"><ele>282.0</ele><time>2026-05-02T05:18:47.787Z</time></trkpt><trkpt lat="43.86931" lon="12.4900467"><ele>282.5</ele><time>2026-05-02T05:18:48.786Z</time></trkpt><trkpt lat="43.8693183" lon="12.4899467"><ele>283.0</ele><time>2026-05-02T05:18:49.79Z</time></trkpt><trkpt lat="43.8693217" lon="12.4898483"><ele>283.0</ele><time>2026-05-02T05:18:50.789Z</time></trkpt><trkpt lat="43.8693083" lon="12.489755"><ele>283.0</ele><time>2026-05-02T05:18:51.785Z</time></trkpt><trkpt lat="43.869275" lon="12.4896683"><ele>283.0</ele><time>2026-05-02T05:18:52.79Z</time></trkpt><trkpt lat="43.869235" lon="12.4895983"><ele>283.0</ele><time>2026-05-02T05:18:53.789Z</time></trkpt><trkpt lat="43.8691817" lon="12.4895233"><ele>283.0</ele><time>2026-05-02T05:18:55.787Z</time></trkpt><trkpt lat="43.869105" lon="12.4894917"><ele>283.0</ele><time>2026-05-02T05:18:58.787Z</time></trkpt><trkpt lat="43.869145" lon="12.4895633"><ele>283.0</ele><time>2026-05-02T05:19:02.787Z</time></trkpt><trkpt lat="43.869225" lon="12.4896333"><ele>283.0</ele><time>2026-05-02T05:19:04.787Z</time></trkpt><trkpt lat="43.86927" lon="12.4897167"><ele>283.0</ele><time>2026-05-02T05:19:05.786Z</time></trkpt><trkpt lat="43.8692983" lon="12.4898483"><ele>283.0</ele><time>2026-05-02T05:19:06.79Z</time></trkpt><trkpt lat="43.8693083" lon="12.4899583"><ele>283.0</ele><time>2026-05-02T05:19:07.787Z</time></trkpt><trkpt lat="43.8693217" lon="12.4900483"><ele>283.0</ele><time>2026-05-02T05:19:08.789Z</time></trkpt><trkpt lat="43.8694017" lon="12.4901417"><ele>283.0</ele><time>2026-05-02T05:19:10.786Z</time></trkpt><trkpt lat="43.8695067" lon="12.4901517"><ele>284.8</ele><time>2026-05-02T05:19:12.788Z</time></trkpt><trkpt lat="43.869575" lon="12.4900883"><ele>286.6</ele><time>2026-05-02T05:19:14.787Z</time></trkpt><trkpt lat="43.8695983" lon="12.4899117"><ele>288.4</ele><time>2026-05-02T05:19:16.787Z</time></trkpt><trkpt lat="43.869605" lon="12.4897933"><ele>290.2</ele><time>2026-05-02T05:19:17.789Z</time></trkpt><trkpt lat="43.8696167" lon="12.4896567"><ele>292.0</ele><time>2026-05-02T05:19:18.786Z</time></trkpt><trkpt lat="43.8696267" lon="12.4895133"><ele>292.16666666666663</ele><time>2026-05-02T05:19:19.79Z</time></trkpt><trkpt lat="43.8696383" lon="12.489385"><ele>292.3333333333333</ele><time>2026-05-02T05:19:20.791Z</time></trkpt><trkpt lat="43.869645" lon="12.4892783"><ele>292.5</ele><time>2026-05-02T05:19:21.79Z</time></trkpt><trkpt lat="43.8696283" lon="12.48912"><ele>292.6666666666667</ele><time>2026-05-02T05:19:23.789Z</time></trkpt><trkpt lat="43.8696017" lon="12.48904"><ele>292.83333333333337</ele><time>2026-05-02T05:19:24.786Z</time></trkpt><trkpt lat="43.86956" lon="12.4889483"><ele>293.0</ele><time>2026-05-02T05:19:25.791Z</time></trkpt><trkpt lat="43.8695133" lon="12.4888433"><ele>292.0</ele><time>2026-05-02T05:19:26.789Z</time></trkpt><trkpt lat="43.8694633" lon="12.4887183"><ele>291.0</ele><time>2026-05-02T05:19:27.787Z</time></trkpt><trkpt lat="43.8694067" lon="12.4885633"><ele>290.0</ele><time>2026-05-02T05:19:28.787Z</time></trkpt><trkpt lat="43.86934" lon="12.4883833"><ele>289.0</ele><time>2026-05-02T05:19:29.787Z</time></trkpt><trkpt lat="43.86927" lon="12.4882067"><ele>288.25</ele><time>2026-05-02T05:19:30.791Z</time></trkpt><trkpt lat="43.8691967" lon="12.4880383"><ele>287.5</ele><time>2026-05-02T05:19:31.786Z</time></trkpt><trkpt lat="43.86911" lon="12.4878917"><ele>286.75</ele><time>2026-05-02T05:19:32.789Z</time></trkpt><trkpt lat="43.869" lon="12.4877767"><ele>286.0</ele><time>2026-05-02T05:19:33.79Z</time></trkpt><trkpt lat="43.8688783" lon="12.48769"><ele>287.75</ele><time>2026-05-02T05:19:34.789Z</time></trkpt><trkpt lat="43.86877" lon="12.487625"><ele>289.5</ele><time>2026-05-02T05:19:35.789Z</time></trkpt><trkpt lat="43.868665" lon="12.4875583"><ele>291.25</ele><time>2026-05-02T05:19:36.79Z</time></trkpt><trkpt lat="43.8685667" lon="12.4874783"><ele>293.0</ele><time>2026-05-02T05:19:37.789Z</time></trkpt><trkpt lat="43.86848" lon="12.4873717"><ele>293.0</ele><time>2026-05-02T05:19:38.791Z</time></trkpt><trkpt lat="43.8683967" lon="12.487225"><ele>293.0</ele><time>2026-05-02T05:19:39.791Z</time></trkpt><trkpt lat="43.8683117" lon="12.4870483"><ele>293.0</ele><time>2026-05-02T05:19:40.789Z</time></trkpt><trkpt lat="43.8682167" lon="12.4868667"><ele>295.75</ele><time>2026-05-02T05:19:41.788Z</time></trkpt><trkpt lat="43.8681117" lon="12.4867067"><ele>298.5</ele><time>2026-05-02T05:19:42.787Z</time></trkpt><trkpt lat="43.8679967" lon="12.486595"><ele>301.25</ele><time>2026-05-02T05:19:43.79Z</time></trkpt><trkpt lat="43.86787" lon="12.4865267"><ele>304.0</ele><time>2026-05-02T05:19:44.789Z</time></trkpt><trkpt lat="43.8677383" lon="12.48649"><ele>305.5</ele><time>2026-05-02T05:19:45.79Z</time></trkpt><trkpt lat="43.8676017" lon="12.48646"><ele>307.0</ele><time>2026-05-02T05:19:46.791Z</time></trkpt><trkpt lat="43.8674683" lon="12.486405"><ele>308.5</ele><time>2026-05-02T05:19:47.79Z</time></trkpt><trkpt lat="43.86734" lon="12.4863167"><ele>310.0</ele><time>2026-05-02T05:19:48.786Z</time></trkpt><trkpt lat="43.8672167" lon="12.4861883"><ele>310.0</ele><time>2026-05-02T05:19:49.791Z</time></trkpt><trkpt lat="43.867095" lon="12.4860283"><ele>310.0</ele><time>2026-05-02T05:19:50.79Z</time></trkpt><trkpt lat="43.8669667" lon="12.485855"><ele>310.0</ele><time>2026-05-02T05:19:51.787Z</time></trkpt><trkpt lat="43.866835" lon="12.485685"><ele>311.0</ele><time>2026-05-02T05:19:52.786Z</time></trkpt><trkpt lat="43.866695" lon="12.4855367"><ele>312.0</ele><time>2026-05-02T05:19:53.79Z</time></trkpt><trkpt lat="43.8665517" lon="12.4854333"><ele>313.0</ele><time>2026-05-02T05:19:54.79Z</time></trkpt><trkpt lat="43.8664133" lon="12.4853617"><ele>313.0</ele><time>2026-05-02T05:19:55.789Z</time></trkpt><trkpt lat="43.866285" lon="12.4852817"><ele>313.0</ele><time>2026-05-02T05:19:56.786Z</time></trkpt><trkpt lat="43.86618" lon="12.4851783"><ele>313.0</ele><time>2026-05-02T05:19:57.786Z</time></trkpt><trkpt lat="43.866105" lon="12.485055"><ele>313.0</ele><time>2026-05-02T05:19:58.788Z</time></trkpt><trkpt lat="43.866055" lon="12.4848983"><ele>313.0</ele><time>2026-05-02T05:19:59.789Z</time></trkpt><trkpt lat="43.8660267" lon="12.4847133"><ele>313.0</ele><time>2026-05-02T05:20:00.786Z</time></trkpt><trkpt lat="43.8660067" lon="12.4845017"><ele>313.0</ele><time>2026-05-02T05:20:01.786Z</time></trkpt><trkpt lat="43.8659883" lon="12.4842717"><ele>316.66666666666663</ele><time>2026-05-02T05:20:02.788Z</time></trkpt><trkpt lat="43.8659733" lon="12.4840333"><ele>320.3333333333333</ele><time>2026-05-02T05:20:03.791Z</time></trkpt><trkpt lat="43.8659583" lon="12.4837883"><ele>324.0</ele><time>2026-05-02T05:20:04.789Z</time></trkpt><trkpt lat="43.8659583" lon="12.4835383"><ele>325.3333333333333</ele><time>2026-05-02T05:20:05.79Z</time></trkpt><trkpt lat="43.8659767" lon="12.4832833"><ele>326.66666666666663</ele><time>2026-05-02T05:20:06.79Z</time></trkpt><trkpt lat="43.8659983" lon="12.4830233"><ele>328.0</ele><time>2026-05-02T05:20:07.786Z</time></trkpt><trkpt lat="43.866015" lon="12.482765"><ele>329.0</ele><time>2026-05-02T05:20:08.788Z</time></trkpt><trkpt lat="43.8660283" lon="12.4825217"><ele>330.0</ele><time>2026-05-02T05:20:09.787Z</time></trkpt><trkpt lat="43.8660233" lon="12.4823033"><ele>331.0</ele><time>2026-05-02T05:20:10.787Z</time></trkpt><trkpt lat="43.8660017" lon="12.482085"><ele>330.3333333333333</ele><time>2026-05-02T05:20:11.789Z</time></trkpt><trkpt lat="43.8659733" lon="12.48186"><ele>329.6666666666667</ele><time>2026-05-02T05:20:12.787Z</time></trkpt><trkpt lat="43.8659467" lon="12.4816383"><ele>329.0</ele><time>2026-05-02T05:20:13.787Z</time></trkpt><trkpt lat="43.8659217" lon="12.481425"><ele>330.5</ele><time>2026-05-02T05:20:14.788Z</time></trkpt><trkpt lat="43.8658983" lon="12.4812433"><ele>332.0</ele><time>2026-05-02T05:20:15.789Z</time></trkpt><trkpt lat="43.8658583" lon="12.48109"><ele>333.5</ele><time>2026-05-02T05:20:16.788Z</time></trkpt><trkpt lat="43.8658" lon="12.4809567"><ele>335.0</ele><time>2026-05-02T05:20:17.788Z</time></trkpt><trkpt lat="43.8657283" lon="12.4808433"><ele>335.0</ele><time>2026-05-02T05:20:18.788Z</time></trkpt><trkpt lat="43.8656383" lon="12.4807467"><ele>335.0</ele><time>2026-05-02T05:20:19.788Z</time></trkpt><trkpt lat="43.8655383" lon="12.480655"><ele>335.0</ele><time>2026-05-02T05:20:20.788Z</time></trkpt><trkpt lat="43.8654333" lon="12.48056"><ele>335.0</ele><time>2026-05-02T05:20:21.788Z</time></trkpt><trkpt lat="43.8653233" lon="12.48045"><ele>335.25</ele><time>2026-05-02T05:20:22.787Z</time></trkpt><trkpt lat="43.8652233" lon="12.4803167"><ele>335.5</ele><time>2026-05-02T05:20:23.788Z</time></trkpt><trkpt lat="43.86513" lon="12.4801533"><ele>335.75</ele><time>2026-05-02T05:20:24.788Z</time></trkpt><trkpt lat="43.8650517" lon="12.4799717"><ele>336.0</ele><time>2026-05-02T05:20:25.79Z</time></trkpt><trkpt lat="43.864985" lon="12.4797833"><ele>340.0</ele><time>2026-05-02T05:20:26.787Z</time></trkpt><trkpt lat="43.86492" lon="12.47959"><ele>344.0</ele><time>2026-05-02T05:20:27.788Z</time></trkpt><trkpt lat="43.8648517" lon="12.4793967"><ele>348.0</ele><time>2026-05-02T05:20:28.787Z</time></trkpt><trkpt lat="43.864785" lon="12.4792067"><ele>348.0</ele><time>2026-05-02T05:20:29.787Z</time></trkpt><trkpt lat="43.8647217" lon="12.47902"><ele>348.0</ele><time>2026-05-02T05:20:30.787Z</time></trkpt><trkpt lat="43.8646567" lon="12.478835"><ele>348.0</ele><time>2026-05-02T05:20:31.787Z</time></trkpt><trkpt lat="43.8645783" lon="12.4786517"><ele>348.0</ele><time>2026-05-02T05:20:32.788Z</time></trkpt><trkpt lat="43.86449" lon="12.478475"><ele>348.0</ele><time>2026-05-02T05:20:33.788Z</time></trkpt><trkpt lat="43.864385" lon="12.4783"><ele>348.0</ele><time>2026-05-02T05:20:34.79Z</time></trkpt><trkpt lat="43.8642683" lon="12.4781383"><ele>348.0</ele><time>2026-05-02T05:20:35.787Z</time></trkpt><trkpt lat="43.8641417" lon="12.4780017"><ele>348.0</ele><time>2026-05-02T05:20:36.787Z</time></trkpt><trkpt lat="43.86401" lon="12.4778817"><ele>348.0</ele><time>2026-05-02T05:20:37.786Z</time></trkpt><trkpt lat="43.86387" lon="12.4777883"><ele>349.6666666666667</ele><time>2026-05-02T05:20:38.786Z</time></trkpt><trkpt lat="43.8637267" lon="12.4777133"><ele>351.33333333333337</ele><time>2026-05-02T05:20:39.786Z</time></trkpt><trkpt lat="43.8635733" lon="12.47765"><ele>353.0</ele><time>2026-05-02T05:20:40.787Z</time></trkpt><trkpt lat="43.863415" lon="12.47759"><ele>353.0</ele><time>2026-05-02T05:20:41.787Z</time></trkpt><trkpt lat="43.8632567" lon="12.477515"><ele>353.0</ele><time>2026-05-02T05:20:42.786Z</time></trkpt><trkpt lat="43.8631033" lon="12.477425"><ele>353.0</ele><time>2026-05-02T05:20:43.789Z</time></trkpt><trkpt lat="43.8629567" lon="12.4773083"><ele>353.0</ele><time>2026-05-02T05:20:44.791Z</time></trkpt><trkpt lat="43.8628133" lon="12.4771867"><ele>353.0</ele><time>2026-05-02T05:20:45.786Z</time></trkpt><trkpt lat="43.8626683" lon="12.4770633"><ele>353.0</ele><time>2026-05-02T05:20:46.791Z</time></trkpt><trkpt lat="43.8625233" lon="12.4769383"><ele>354.0</ele><time>2026-05-02T05:20:47.791Z</time></trkpt><trkpt lat="43.8623767" lon="12.4768117"><ele>355.0</ele><time>2026-05-02T05:20:48.787Z</time></trkpt><trkpt lat="43.8622283" lon="12.4766867"><ele>356.0</ele><time>2026-05-02T05:20:49.787Z</time></trkpt><trkpt lat="43.86208" lon="12.47656"><ele>356.0</ele><time>2026-05-02T05:20:50.787Z</time></trkpt><trkpt lat="43.8619333" lon="12.4764333"><ele>356.0</ele><time>2026-05-02T05:20:51.787Z</time></trkpt><trkpt lat="43.8617883" lon="12.4763133"><ele>356.0</ele><time>2026-05-02T05:20:52.787Z</time></trkpt><trkpt lat="43.861645" lon="12.4761983"><ele>358.0</ele><time>2026-05-02T05:20:53.787Z</time></trkpt><trkpt lat="43.8615083" lon="12.4760833"><ele>360.0</ele><time>2026-05-02T05:20:54.79Z</time></trkpt><trkpt lat="43.861375" lon="12.4759667"><ele>362.0</ele><time>2026-05-02T05:20:55.789Z</time></trkpt><trkpt lat="43.8612467" lon="12.47585"><ele>362.0</ele><time>2026-05-02T05:20:56.787Z</time></trkpt><trkpt lat="43.861125" lon="12.47573"><ele>362.0</ele><time>2026-05-02T05:20:57.786Z</time></trkpt><trkpt lat="43.8610067" lon="12.4756033"><ele>362.0</ele><time>2026-05-02T05:20:58.788Z</time></trkpt><trkpt lat="43.8608883" lon="12.475475"><ele>362.0</ele><time>2026-05-02T05:20:59.789Z</time></trkpt><trkpt lat="43.8607717" lon="12.4753483"><ele>361.75</ele><time>2026-05-02T05:21:00.786Z</time></trkpt><trkpt lat="43.86066" lon="12.47522"><ele>361.5</ele><time>2026-05-02T05:21:01.786Z</time></trkpt><trkpt lat="43.86055" lon="12.4750967"><ele>361.25</ele><time>2026-05-02T05:21:02.787Z</time></trkpt><trkpt lat="43.86044" lon="12.4749767"><ele>361.0</ele><time>2026-05-02T05:21:03.786Z</time></trkpt><trkpt lat="43.8603267" lon="12.4748717"><ele>361.0</ele><time>2026-05-02T05:21:04.791Z</time></trkpt><trkpt lat="43.86021" lon="12.4747883"><ele>361.0</ele><time>2026-05-02T05:21:05.791Z</time></trkpt><trkpt lat="43.8600867" lon="12.4747317"><ele>361.0</ele><time>2026-05-02T05:21:06.79Z</time></trkpt><trkpt lat="43.8599633" lon="12.4746967"><ele>361.0</ele><time>2026-05-02T05:21:07.79Z</time></trkpt><trkpt lat="43.8598433" lon="12.4746817"><ele>357.0</ele><time>2026-05-02T05:21:08.788Z</time></trkpt><trkpt lat="43.859725" lon="12.4746833"><ele>353.0</ele><time>2026-05-02T05:21:09.79Z</time></trkpt><trkpt lat="43.8596017" lon="12.4747033"><ele>349.0</ele><time>2026-05-02T05:21:10.791Z</time></trkpt><trkpt lat="43.8594783" lon="12.474745"><ele>345.0</ele><time>2026-05-02T05:21:11.787Z</time></trkpt><trkpt lat="43.85936" lon="12.4748"><ele>346.8</ele><time>2026-05-02T05:21:12.786Z</time></trkpt><trkpt lat="43.859255" lon="12.47485"><ele>348.6</ele><time>2026-05-02T05:21:13.787Z</time></trkpt><trkpt lat="43.859155" lon="12.474885"><ele>350.4</ele><time>2026-05-02T05:21:14.789Z</time></trkpt><trkpt lat="43.8590617" lon="12.474885"><ele>352.2</ele><time>2026-05-02T05:21:15.789Z</time></trkpt><trkpt lat="43.858975" lon="12.4748467"><ele>354.0</ele><time>2026-05-02T05:21:16.788Z</time></trkpt><trkpt lat="43.8589067" lon="12.474785"><ele>354.0</ele><time>2026-05-02T05:21:17.789Z</time></trkpt><trkpt lat="43.8588567" lon="12.4747"><ele>354.0</ele><time>2026-05-02T05:21:18.789Z</time></trkpt><trkpt lat="43.858815" lon="12.4745983"><ele>354.0</ele><time>2026-05-02T05:21:19.787Z</time></trkpt><trkpt lat="43.85879" lon="12.4744567"><ele>354.0</ele><time>2026-05-02T05:21:20.788Z</time></trkpt><trkpt lat="43.85876" lon="12.4742933"><ele>354.0</ele><time>2026-05-02T05:21:21.791Z</time></trkpt><trkpt lat="43.8587283" lon="12.4741133"><ele>357.25</ele><time>2026-05-02T05:21:22.79Z</time></trkpt><trkpt lat="43.8586933" lon="12.4739383"><ele>360.5</ele><time>2026-05-02T05:21:23.79Z</time></trkpt><trkpt lat="43.85864" lon="12.4737567"><ele>363.75</ele><time>2026-05-02T05:21:24.79Z</time></trkpt><trkpt lat="43.8585817" lon="12.47357"><ele>367.0</ele><time>2026-05-02T05:21:25.787Z</time></trkpt><trkpt lat="43.8585167" lon="12.4733917"><ele>365.66666666666663</ele><time>2026-05-02T05:21:26.786Z</time></trkpt><trkpt lat="43.858445" lon="12.473215"><ele>364.3333333333333</ele><time>2026-05-02T05:21:27.786Z</time></trkpt><trkpt lat="43.8583683" lon="12.4730333"><ele>363.0</ele><time>2026-05-02T05:21:28.787Z</time></trkpt><trkpt lat="43.85829" lon="12.4728483"><ele>363.0</ele><time>2026-05-02T05:21:29.788Z</time></trkpt><trkpt lat="43.8582133" lon="12.4726517"><ele>363.0</ele><time>2026-05-02T05:21:30.788Z</time></trkpt><trkpt lat="43.8581383" lon="12.4724583"><ele>363.0</ele><time>2026-05-02T05:21:31.786Z</time></trkpt><trkpt lat="43.8580733" lon="12.47227"><ele>366.0</ele><time>2026-05-02T05:21:32.787Z</time></trkpt><trkpt lat="43.85802" lon="12.4720783"><ele>369.0</ele><time>2026-05-02T05:21:33.787Z</time></trkpt><trkpt lat="43.85798" lon="12.4718883"><ele>372.0</ele><time>2026-05-02T05:21:34.787Z</time></trkpt><trkpt lat="43.8579533" lon="12.4716917"><ele>375.0</ele><time>2026-05-02T05:21:35.79Z</time></trkpt><trkpt lat="43.85793" lon="12.4714917"><ele>375.0</ele><time>2026-05-02T05:21:36.789Z</time></trkpt><trkpt lat="43.857895" lon="12.471285"><ele>375.0</ele><time>2026-05-02T05:21:37.787Z</time></trkpt><trkpt lat="43.8578417" lon="12.4710883"><ele>375.0</ele><time>2026-05-02T05:21:38.789Z</time></trkpt><trkpt lat="43.8577633" lon="12.470905"><ele>377.0</ele><time>2026-05-02T05:21:39.786Z</time></trkpt><trkpt lat="43.85766" lon="12.4707367"><ele>379.0</ele><time>2026-05-02T05:21:40.787Z</time></trkpt><trkpt lat="43.8575333" lon="12.4705833"><ele>381.0</ele><time>2026-05-02T05:21:41.787Z</time></trkpt><trkpt lat="43.8573933" lon="12.4704533"><ele>382.66666666666663</ele><time>2026-05-02T05:21:42.789Z</time></trkpt><trkpt lat="43.8572467" lon="12.47033"><ele>384.3333333333333</ele><time>2026-05-02T05:21:43.787Z</time></trkpt><trkpt lat="43.8571067" lon="12.4701933"><ele>386.0</ele><time>2026-05-02T05:21:44.787Z</time></trkpt><trkpt lat="43.856975" lon="12.47004"><ele>386.0</ele><time>2026-05-02T05:21:45.788Z</time></trkpt><trkpt lat="43.856855" lon="12.4698733"><ele>386.0</ele><time>2026-05-02T05:21:46.788Z</time></trkpt><trkpt lat="43.8567467" lon="12.4696917"><ele>386.0</ele><time>2026-05-02T05:21:47.789Z</time></trkpt><trkpt lat="43.8566367" lon="12.4695083"><ele>385.66666666666663</ele><time>2026-05-02T05:21:48.788Z</time></trkpt><trkpt lat="43.856525" lon="12.4693217"><ele>385.33333333333337</ele><time>2026-05-02T05:21:49.787Z</time></trkpt><trkpt lat="43.8564083" lon="12.4691417"><ele>385.0</ele><time>2026-05-02T05:21:50.787Z</time></trkpt><trkpt lat="43.856285" lon="12.4689617"><ele>385.0</ele><time>2026-05-02T05:21:51.786Z</time></trkpt><trkpt lat="43.8561567" lon="12.4687967"><ele>385.0</ele><time>2026-05-02T05:21:52.787Z</time></trkpt><trkpt lat="43.856025" lon="12.4686467"><ele>385.0</ele><time>2026-05-02T05:21:53.787Z</time></trkpt><trkpt lat="43.855885" lon="12.468525"><ele>383.6666666666667</ele><time>2026-05-02T05:21:54.787Z</time></trkpt><trkpt lat="43.8557367" lon="12.4684183"><ele>382.33333333333337</ele><time>2026-05-02T05:21:55.79Z</time></trkpt><trkpt lat="43.8555783" lon="12.4683283"><ele>381.0</ele><time>2026-05-02T05:21:56.788Z</time></trkpt><trkpt lat="43.855415" lon="12.46825"><ele>381.0</ele><time>2026-05-02T05:21:57.787Z</time></trkpt><trkpt lat="43.8552483" lon="12.4681683"><ele>381.0</ele><time>2026-05-02T05:21:58.789Z</time></trkpt><trkpt lat="43.8550867" lon="12.468075"><ele>381.0</ele><time>2026-05-02T05:21:59.787Z</time></trkpt><trkpt lat="43.8549233" lon="12.4679717"><ele>385.66666666666663</ele><time>2026-05-02T05:22:00.787Z</time></trkpt><trkpt lat="43.854765" lon="12.4678467"><ele>390.3333333333333</ele><time>2026-05-02T05:22:01.786Z</time></trkpt><trkpt lat="43.85461" lon="12.46771"><ele>395.0</ele><time>2026-05-02T05:22:02.787Z</time></trkpt><trkpt lat="43.8544567" lon="12.4675817"><ele>395.0</ele><time>2026-05-02T05:22:03.789Z</time></trkpt><trkpt lat="43.854295" lon="12.467465"><ele>395.0</ele><time>2026-05-02T05:22:04.79Z</time></trkpt><trkpt lat="43.8541283" lon="12.46737"><ele>395.0</ele><time>2026-05-02T05:22:05.791Z</time></trkpt><trkpt lat="43.8539667" lon="12.467295"><ele>387.66666666666663</ele><time>2026-05-02T05:22:06.792Z</time></trkpt><trkpt lat="43.85381" lon="12.4672433"><ele>380.3333333333333</ele><time>2026-05-02T05:22:07.787Z</time></trkpt><trkpt lat="43.853655" lon="12.4672033"><ele>373.0</ele><time>2026-05-02T05:22:08.787Z</time></trkpt><trkpt lat="43.8535017" lon="12.4671967"><ele>367.66666666666663</ele><time>2026-05-02T05:22:09.788Z</time></trkpt><trkpt lat="43.8533467" lon="12.46719"><ele>362.3333333333333</ele><time>2026-05-02T05:22:10.788Z</time></trkpt><trkpt lat="43.853195" lon="12.4671583"><ele>357.0</ele><time>2026-05-02T05:22:11.787Z</time></trkpt><trkpt lat="43.8530467" lon="12.4671067"><ele>359.75</ele><time>2026-05-02T05:22:12.787Z</time></trkpt><trkpt lat="43.85291" lon="12.46703"><ele>362.5</ele><time>2026-05-02T05:22:13.79Z</time></trkpt><trkpt lat="43.85279" lon="12.4669317"><ele>365.25</ele><time>2026-05-02T05:22:14.787Z</time></trkpt><trkpt lat="43.852695" lon="12.466805"><ele>368.0</ele><time>2026-05-02T05:22:15.79Z</time></trkpt><trkpt lat="43.8526217" lon="12.46665"><ele>368.0</ele><time>2026-05-02T05:22:16.787Z</time></trkpt><trkpt lat="43.852555" lon="12.4664817"><ele>368.0</ele><time>2026-05-02T05:22:17.787Z</time></trkpt><trkpt lat="43.85248" lon="12.4663317"><ele>368.0</ele><time>2026-05-02T05:22:18.787Z</time></trkpt><trkpt lat="43.852385" lon="12.466205"><ele>368.0</ele><time>2026-05-02T05:22:19.79Z</time></trkpt><trkpt lat="43.85227" lon="12.466105"><ele>366.5</ele><time>2026-05-02T05:22:20.79Z</time></trkpt><trkpt lat="43.8521417" lon="12.46603"><ele>365.0</ele><time>2026-05-02T05:22:21.791Z</time></trkpt><trkpt lat="43.8520083" lon="12.465955"><ele>363.5</ele><time>2026-05-02T05:22:22.79Z</time></trkpt><trkpt lat="43.8518783" lon="12.4658567"><ele>362.0</ele><time>2026-05-02T05:22:23.79Z</time></trkpt><trkpt lat="43.8517467" lon="12.46573"><ele>362.0</ele><time>2026-05-02T05:22:24.791Z</time></trkpt><trkpt lat="43.8516217" lon="12.4655817"><ele>362.0</ele><time>2026-05-02T05:22:25.79Z</time></trkpt><trkpt lat="43.8515017" lon="12.46543"><ele>362.0</ele><time>2026-05-02T05:22:26.786Z</time></trkpt><trkpt lat="43.851385" lon="12.4652833"><ele>362.0</ele><time>2026-05-02T05:22:27.786Z</time></trkpt><trkpt lat="43.8512683" lon="12.4651517"><ele>362.0</ele><time>2026-05-02T05:22:28.788Z</time></trkpt><trkpt lat="43.85115" lon="12.465035"><ele>362.0</ele><time>2026-05-02T05:22:29.787Z</time></trkpt><trkpt lat="43.85102" lon="12.4649317"><ele>362.0</ele><time>2026-05-02T05:22:30.787Z</time></trkpt><trkpt lat="43.8508867" lon="12.4648367"><ele>362.0</ele><time>2026-05-02T05:22:31.788Z</time></trkpt><trkpt lat="43.8507533" lon="12.4647483"><ele>362.0</ele><time>2026-05-02T05:22:32.788Z</time></trkpt><trkpt lat="43.8506167" lon="12.464665"><ele>362.0</ele><time>2026-05-02T05:22:33.789Z</time></trkpt><trkpt lat="43.8504883" lon="12.4645833"><ele>362.0</ele><time>2026-05-02T05:22:34.788Z</time></trkpt><trkpt lat="43.85037" lon="12.4645067"><ele>362.8</ele><time>2026-05-02T05:22:35.791Z</time></trkpt><trkpt lat="43.8502583" lon="12.4644383"><ele>363.6</ele><time>2026-05-02T05:22:36.786Z</time></trkpt><trkpt lat="43.85015" lon="12.4643783"><ele>364.40000000000003</ele><time>2026-05-02T05:22:37.786Z</time></trkpt><trkpt lat="43.85005" lon="12.4643333"><ele>365.20000000000005</ele><time>2026-05-02T05:22:38.79Z</time></trkpt><trkpt lat="43.8499533" lon="12.4642917"><ele>366.0</ele><time>2026-05-02T05:22:39.787Z</time></trkpt><trkpt lat="43.8498517" lon="12.4642383"><ele>366.0</ele><time>2026-05-02T05:22:40.787Z</time></trkpt><trkpt lat="43.849755" lon="12.464165"><ele>366.0</ele><time>2026-05-02T05:22:41.787Z</time></trkpt><trkpt lat="43.8496517" lon="12.4640783"><ele>366.0</ele><time>2026-05-02T05:22:42.787Z</time></trkpt><trkpt lat="43.8495483" lon="12.4639833"><ele>366.0</ele><time>2026-05-02T05:22:43.79Z</time></trkpt><trkpt lat="43.849445" lon="12.463885"><ele>366.0</ele><time>2026-05-02T05:22:44.791Z</time></trkpt><trkpt lat="43.84934" lon="12.463785"><ele>366.0</ele><time>2026-05-02T05:22:45.791Z</time></trkpt><trkpt lat="43.8492283" lon="12.4636967"><ele>366.0</ele><time>2026-05-02T05:22:46.787Z</time></trkpt><trkpt lat="43.8491217" lon="12.4636217"><ele>366.0</ele><time>2026-05-02T05:22:47.787Z</time></trkpt><trkpt lat="43.84902" lon="12.4635683"><ele>366.0</ele><time>2026-05-02T05:22:48.79Z</time></trkpt><trkpt lat="43.8489233" lon="12.4635383"><ele>366.0</ele><time>2026-05-02T05:22:49.79Z</time></trkpt><trkpt lat="43.8488367" lon="12.4635333"><ele>366.0</ele><time>2026-05-02T05:22:50.79Z</time></trkpt><trkpt lat="43.84876" lon="12.4635433"><ele>366.0</ele><time>2026-05-02T05:22:51.786Z</time></trkpt><trkpt lat="43.8486867" lon="12.46357"><ele>366.0</ele><time>2026-05-02T05:22:52.787Z</time></trkpt><trkpt lat="43.84861" lon="12.46361"><ele>366.0</ele><time>2026-05-02T05:22:53.788Z</time></trkpt><trkpt lat="43.848535" lon="12.4636583"><ele>366.0</ele><time>2026-05-02T05:22:54.79Z</time></trkpt><trkpt lat="43.8484633" lon="12.46371"><ele>366.0</ele><time>2026-05-02T05:22:55.79Z</time></trkpt><trkpt lat="43.8484" lon="12.4637633"><ele>366.0</ele><time>2026-05-02T05:22:56.787Z</time></trkpt><trkpt lat="43.84834" lon="12.46382"><ele>366.0</ele><time>2026-05-02T05:22:57.786Z</time></trkpt><trkpt lat="43.8482767" lon="12.4638883"><ele>366.0</ele><time>2026-05-02T05:22:58.787Z</time></trkpt><trkpt lat="43.8482133" lon="12.463965"><ele>366.0</ele><time>2026-05-02T05:22:59.788Z</time></trkpt><trkpt lat="43.8481467" lon="12.4640517"><ele>362.6</ele><time>2026-05-02T05:23:00.787Z</time></trkpt><trkpt lat="43.8480783" lon="12.46415"><ele>359.20000000000005</ele><time>2026-05-02T05:23:01.787Z</time></trkpt><trkpt lat="43.8480033" lon="12.4642533"><ele>355.79999999999995</ele><time>2026-05-02T05:23:02.787Z</time></trkpt><trkpt lat="43.84792" lon="12.464365"><ele>352.4</ele><time>2026-05-02T05:23:03.788Z</time></trkpt><trkpt lat="43.8478317" lon="12.46448"><ele>349.0</ele><time>2026-05-02T05:23:04.789Z</time></trkpt><trkpt lat="43.8477417" lon="12.4645967"><ele>348.75</ele><time>2026-05-02T05:23:05.788Z</time></trkpt><trkpt lat="43.847655" lon="12.4647133"><ele>348.5</ele><time>2026-05-02T05:23:06.788Z</time></trkpt><trkpt lat="43.84757" lon="12.4648333"><ele>348.25</ele><time>2026-05-02T05:23:07.788Z</time></trkpt><trkpt lat="43.8474817" lon="12.4649567"><ele>348.0</ele><time>2026-05-02T05:23:08.788Z</time></trkpt><trkpt lat="43.8473867" lon="12.4650833"><ele>348.0</ele><time>2026-05-02T05:23:09.789Z</time></trkpt><trkpt lat="43.8472933" lon="12.4652067"><ele>348.0</ele><time>2026-05-02T05:23:10.787Z</time></trkpt><trkpt lat="43.847205" lon="12.4653217"><ele>348.0</ele><time>2026-05-02T05:23:11.788Z</time></trkpt><trkpt lat="43.84712" lon="12.4654317"><ele>348.0</ele><time>2026-05-02T05:23:12.788Z</time></trkpt><trkpt lat="43.8470367" lon="12.4655233"><ele>348.0</ele><time>2026-05-02T05:23:13.788Z</time></trkpt><trkpt lat="43.8469567" lon="12.4655833"><ele>348.0</ele><time>2026-05-02T05:23:14.788Z</time></trkpt><trkpt lat="43.84687" lon="12.4656083"><ele>348.0</ele><time>2026-05-02T05:23:15.788Z</time></trkpt><trkpt lat="43.8467767" lon="12.4655983"><ele>348.0</ele><time>2026-05-02T05:23:16.787Z</time></trkpt><trkpt lat="43.8466817" lon="12.46555"><ele>348.0</ele><time>2026-05-02T05:23:17.789Z</time></trkpt><trkpt lat="43.8465817" lon="12.4654517"><ele>350.0</ele><time>2026-05-02T05:23:18.787Z</time></trkpt><trkpt lat="43.8464817" lon="12.465305"><ele>352.0</ele><time>2026-05-02T05:23:19.791Z</time></trkpt><trkpt lat="43.84638" lon="12.4651317"><ele>354.0</ele><time>2026-05-02T05:23:20.786Z</time></trkpt><trkpt lat="43.8462683" lon="12.464945"><ele>354.0</ele><time>2026-05-02T05:23:21.787Z</time></trkpt><trkpt lat="43.8461467" lon="12.4647617"><ele>354.0</ele><time>2026-05-02T05:23:22.79Z</time></trkpt><trkpt lat="43.8460233" lon="12.464585"><ele>354.0</ele><time>2026-05-02T05:23:23.786Z</time></trkpt><trkpt lat="43.8458917" lon="12.4644033"><ele>357.3333333333333</ele><time>2026-05-02T05:23:24.786Z</time></trkpt><trkpt lat="43.8457633" lon="12.46423"><ele>360.66666666666663</ele><time>2026-05-02T05:23:25.787Z</time></trkpt><trkpt lat="43.8456283" lon="12.464065"><ele>364.0</ele><time>2026-05-02T05:23:26.787Z</time></trkpt><trkpt lat="43.84549" lon="12.4639033"><ele>360.66666666666663</ele><time>2026-05-02T05:23:27.786Z</time></trkpt><trkpt lat="43.8453617" lon="12.463745"><ele>357.3333333333333</ele><time>2026-05-02T05:23:28.787Z</time></trkpt><trkpt lat="43.8452367" lon="12.463595"><ele>354.0</ele><time>2026-05-02T05:23:29.787Z</time></trkpt><trkpt lat="43.84512" lon="12.4634517"><ele>359.25</ele><time>2026-05-02T05:23:30.788Z</time></trkpt><trkpt lat="43.8450133" lon="12.46331"><ele>364.5</ele><time>2026-05-02T05:23:31.786Z</time></trkpt><trkpt lat="43.8449117" lon="12.4631867"><ele>369.75</ele><time>2026-05-02T05:23:32.787Z</time></trkpt><trkpt lat="43.84481" lon="12.4630817"><ele>375.0</ele><time>2026-05-02T05:23:33.786Z</time></trkpt><trkpt lat="43.8447167" lon="12.4630217"><ele>375.0</ele><time>2026-05-02T05:23:34.79Z</time></trkpt><trkpt lat="43.8446283" lon="12.4630033"><ele>375.0</ele><time>2026-05-02T05:23:35.79Z</time></trkpt><trkpt lat="43.8445417" lon="12.4630133"><ele>375.0</ele><time>2026-05-02T05:23:36.786Z</time></trkpt><trkpt lat="43.8444583" lon="12.4630483"><ele>375.0</ele><time>2026-05-02T05:23:37.791Z</time></trkpt><trkpt lat="43.8443683" lon="12.4630933"><ele>375.0</ele><time>2026-05-02T05:23:38.79Z</time></trkpt><trkpt lat="43.8442633" lon="12.4631483"><ele>377.25</ele><time>2026-05-02T05:23:39.786Z</time></trkpt><trkpt lat="43.8441533" lon="12.4632083"><ele>379.5</ele><time>2026-05-02T05:23:40.787Z</time></trkpt><trkpt lat="43.844035" lon="12.4632783"><ele>381.75</ele><time>2026-05-02T05:23:41.787Z</time></trkpt><trkpt lat="43.8439083" lon="12.463355"><ele>384.0</ele><time>2026-05-02T05:23:42.787Z</time></trkpt><trkpt lat="43.843795" lon="12.46343"><ele>384.0</ele><time>2026-05-02T05:23:43.79Z</time></trkpt><trkpt lat="43.8436983" lon="12.4635083"><ele>384.0</ele><time>2026-05-02T05:23:44.79Z</time></trkpt><trkpt lat="43.8436217" lon="12.46359"><ele>384.0</ele><time>2026-05-02T05:23:45.786Z</time></trkpt><trkpt lat="43.843565" lon="12.46367"><ele>384.0</ele><time>2026-05-02T05:23:46.787Z</time></trkpt><trkpt lat="43.8435267" lon="12.463755"><ele>384.0</ele><time>2026-05-02T05:23:47.789Z</time></trkpt><trkpt lat="43.8435067" lon="12.4638433"><ele>384.0</ele><time>2026-05-02T05:23:48.79Z</time></trkpt><trkpt lat="43.8435517" lon="12.4639767"><ele>387.0</ele><time>2026-05-02T05:23:50.79Z</time></trkpt><trkpt lat="43.8436283" lon="12.46399"><ele>390.0</ele><time>2026-05-02T05:23:51.787Z</time></trkpt><trkpt lat="43.8437133" lon="12.4639767"><ele>393.0</ele><time>2026-05-02T05:23:52.787Z</time></trkpt><trkpt lat="43.843845" lon="12.4639083"><ele>396.0</ele><time>2026-05-02T05:23:53.788Z</time></trkpt><trkpt lat="43.8439783" lon="12.4638367"><ele>399.0</ele><time>2026-05-02T05:23:54.787Z</time></trkpt><trkpt lat="43.844095" lon="12.4637917"><ele>399.0</ele><time>2026-05-02T05:23:55.787Z</time></trkpt><trkpt lat="43.8442117" lon="12.4637817"><ele>399.0</ele><time>2026-05-02T05:23:56.789Z</time></trkpt><trkpt lat="43.8443167" lon="12.4638283"><ele>399.0</ele><time>2026-05-02T05:23:57.79Z</time></trkpt><trkpt lat="43.8444167" lon="12.4639367"><ele>399.0</ele><time>2026-05-02T05:23:58.791Z</time></trkpt><trkpt lat="43.84452" lon="12.46408"><ele>400.25</ele><time>2026-05-02T05:23:59.79Z</time></trkpt><trkpt lat="43.844615" lon="12.4642333"><ele>401.5</ele><time>2026-05-02T05:24:00.791Z</time></trkpt><trkpt lat="43.8446967" lon="12.4643867"><ele>402.75</ele><time>2026-05-02T05:24:01.791Z</time></trkpt><trkpt lat="43.8447683" lon="12.4645483"><ele>404.0</ele><time>2026-05-02T05:24:02.786Z</time></trkpt><trkpt lat="43.8448367" lon="12.4647117"><ele>404.0</ele><time>2026-05-02T05:24:03.788Z</time></trkpt><trkpt lat="43.8449017" lon="12.464885"><ele>404.0</ele><time>2026-05-02T05:24:04.791Z</time></trkpt><trkpt lat="43.84497" lon="12.4650667"><ele>404.0</ele><time>2026-05-02T05:24:05.788Z</time></trkpt><trkpt lat="43.8450417" lon="12.4652483"><ele>404.0</ele><time>2026-05-02T05:24:06.787Z</time></trkpt><trkpt lat="43.8451133" lon="12.465425"><ele>402.75</ele><time>2026-05-02T05:24:07.789Z</time></trkpt><trkpt lat="43.84518" lon="12.465595"><ele>401.5</ele><time>2026-05-02T05:24:08.789Z</time></trkpt><trkpt lat="43.845245" lon="12.4657567"><ele>400.25</ele><time>2026-05-02T05:24:09.788Z</time></trkpt><trkpt lat="43.8453" lon="12.4658967"><ele>399.0</ele><time>2026-05-02T05:24:10.788Z</time></trkpt><trkpt lat="43.8453383" lon="12.4660183"><ele>399.0</ele><time>2026-05-02T05:24:11.788Z</time></trkpt><trkpt lat="43.84536" lon="12.4661217"><ele>399.0</ele><time>2026-05-02T05:24:12.787Z</time></trkpt><trkpt lat="43.8453683" lon="12.466225"><ele>399.0</ele><time>2026-05-02T05:24:13.788Z</time></trkpt><trkpt lat="43.8453683" lon="12.4663267"><ele>399.0</ele><time>2026-05-02T05:24:14.787Z</time></trkpt><trkpt lat="43.8453533" lon="12.4664217"><ele>399.0</ele><time>2026-05-02T05:24:15.789Z</time></trkpt><trkpt lat="43.8453017" lon="12.4665033"><ele>399.0</ele><time>2026-05-02T05:24:16.79Z</time></trkpt><trkpt lat="43.8452133" lon="12.4665683"><ele>403.25</ele><time>2026-05-02T05:24:17.792Z</time></trkpt><trkpt lat="43.8451067" lon="12.4666283"><ele>407.5</ele><time>2026-05-02T05:24:18.786Z</time></trkpt><trkpt lat="43.8449683" lon="12.466665"><ele>411.75</ele><time>2026-05-02T05:24:19.787Z</time></trkpt><trkpt lat="43.8448367" lon="12.4667133"><ele>416.0</ele><time>2026-05-02T05:24:20.788Z</time></trkpt><trkpt lat="43.8447133" lon="12.46677"><ele>416.0</ele><time>2026-05-02T05:24:21.787Z</time></trkpt><trkpt lat="43.8446067" lon="12.4668433"><ele>416.0</ele><time>2026-05-02T05:24:22.787Z</time></trkpt><trkpt lat="43.8445017" lon="12.466935"><ele>416.0</ele><time>2026-05-02T05:24:23.787Z</time></trkpt><trkpt lat="43.8444133" lon="12.4670483"><ele>416.0</ele><time>2026-05-02T05:24:24.787Z</time></trkpt><trkpt lat="43.8443383" lon="12.4671833"><ele>418.6</ele><time>2026-05-02T05:24:25.79Z</time></trkpt><trkpt lat="43.8442867" lon="12.46733"><ele>421.20000000000005</ele><time>2026-05-02T05:24:26.79Z</time></trkpt><trkpt lat="43.84426" lon="12.46747"><ele>423.79999999999995</ele><time>2026-05-02T05:24:27.788Z</time></trkpt><trkpt lat="43.84423" lon="12.4675933"><ele>426.4</ele><time>2026-05-02T05:24:28.789Z</time></trkpt><trkpt lat="43.8441933" lon="12.4676833"><ele>429.0</ele><time>2026-05-02T05:24:29.788Z</time></trkpt><trkpt lat="43.844095" lon="12.46774"><ele>429.0</ele><time>2026-05-02T05:24:31.788Z</time></trkpt><trkpt lat="43.8440567" lon="12.46767"><ele>429.0</ele><time>2026-05-02T05:24:32.787Z</time></trkpt><trkpt lat="43.8440233" lon="12.4675567"><ele>429.0</ele><time>2026-05-02T05:24:33.788Z</time></trkpt><trkpt lat="43.8439783" lon="12.4674467"><ele>429.0</ele><time>2026-05-02T05:24:34.788Z</time></trkpt><trkpt lat="43.8439217" lon="12.4673417"><ele>429.0</ele><time>2026-05-02T05:24:35.79Z</time></trkpt><trkpt lat="43.84385" lon="12.4672517"><ele>429.0</ele><time>2026-05-02T05:24:36.786Z</time></trkpt><trkpt lat="43.8437767" lon="12.4671933"><ele>429.0</ele><time>2026-05-02T05:24:37.787Z</time></trkpt><trkpt lat="43.843695" lon="12.4671583"><ele>429.0</ele><time>2026-05-02T05:24:38.787Z</time></trkpt><trkpt lat="43.8436117" lon="12.4671467"><ele>429.0</ele><time>2026-05-02T05:24:39.789Z</time></trkpt><trkpt lat="43.8435267" lon="12.4671667"><ele>429.0</ele><time>2026-05-02T05:24:40.789Z</time></trkpt><trkpt lat="43.8434583" lon="12.4672217"><ele>429.0</ele><time>2026-05-02T05:24:41.789Z</time></trkpt><trkpt lat="43.843395" lon="12.46732"><ele>429.0</ele><time>2026-05-02T05:24:42.789Z</time></trkpt><trkpt lat="43.8433367" lon="12.467385"><ele>429.0</ele><time>2026-05-02T05:24:43.789Z</time></trkpt><trkpt lat="43.8433383" lon="12.4674967"><ele>429.0</ele><time>2026-05-02T05:24:44.789Z</time></trkpt><trkpt lat="43.8434167" lon="12.4676467"><ele>429.0</ele><time>2026-05-02T05:24:45.785Z</time></trkpt><trkpt lat="43.84346" lon="12.4677567"><ele>429.0</ele><time>2026-05-02T05:24:46.786Z</time></trkpt><trkpt lat="43.8435317" lon="12.4678917"><ele>429.0</ele><time>2026-05-02T05:24:47.786Z</time></trkpt><trkpt lat="43.843585" lon="12.4680217"><ele>429.6</ele><time>2026-05-02T05:24:48.79Z</time></trkpt><trkpt lat="43.8436183" lon="12.4681533"><ele>430.2</ele><time>2026-05-02T05:24:49.786Z</time></trkpt><trkpt lat="43.8436217" lon="12.4682817"><ele>430.80000000000007</ele><time>2026-05-02T05:24:50.786Z</time></trkpt><trkpt lat="43.8436133" lon="12.4684117"><ele>431.40000000000003</ele><time>2026-05-02T05:24:51.785Z</time></trkpt><trkpt lat="43.8435817" lon="12.4685433"><ele>432.0</ele><time>2026-05-02T05:24:52.786Z</time></trkpt><trkpt lat="43.84351" lon="12.4686667"><ele>433.5</ele><time>2026-05-02T05:24:53.79Z</time></trkpt><trkpt lat="43.8434333" lon="12.4688017"><ele>435.0</ele><time>2026-05-02T05:24:54.787Z</time></trkpt><trkpt lat="43.8433567" lon="12.4689533"><ele>436.5</ele><time>2026-05-02T05:24:55.789Z</time></trkpt><trkpt lat="43.8432983" lon="12.4691117"><ele>438.0</ele><time>2026-05-02T05:24:56.789Z</time></trkpt><trkpt lat="43.8432583" lon="12.4692717"><ele>438.0</ele><time>2026-05-02T05:24:57.785Z</time></trkpt><trkpt lat="43.8432417" lon="12.469435"><ele>438.0</ele><time>2026-05-02T05:24:58.786Z</time></trkpt><trkpt lat="43.8432467" lon="12.469595"><ele>438.0</ele><time>2026-05-02T05:24:59.787Z</time></trkpt><trkpt lat="43.8432633" lon="12.4697533"><ele>438.0</ele><time>2026-05-02T05:25:00.785Z</time></trkpt><trkpt lat="43.8432883" lon="12.4699033"><ele>438.5</ele><time>2026-05-02T05:25:01.787Z</time></trkpt><trkpt lat="43.84332" lon="12.4700517"><ele>439.0</ele><time>2026-05-02T05:25:02.787Z</time></trkpt><trkpt lat="43.8433583" lon="12.4702117"><ele>439.5</ele><time>2026-05-02T05:25:03.785Z</time></trkpt><trkpt lat="43.8433983" lon="12.4703817"><ele>440.0</ele><time>2026-05-02T05:25:04.787Z</time></trkpt><trkpt lat="43.8434417" lon="12.4705517"><ele>444.0</ele><time>2026-05-02T05:25:05.786Z</time></trkpt><trkpt lat="43.8434983" lon="12.4707133"><ele>448.0</ele><time>2026-05-02T05:25:06.785Z</time></trkpt><trkpt lat="43.8435717" lon="12.47086"><ele>452.0</ele><time>2026-05-02T05:25:07.786Z</time></trkpt><trkpt lat="43.8436617" lon="12.470985"><ele>456.0</ele><time>2026-05-02T05:25:08.786Z</time></trkpt><trkpt lat="43.8437633" lon="12.4710933"><ele>456.0</ele><time>2026-05-02T05:25:09.785Z</time></trkpt><trkpt lat="43.843865" lon="12.4711733"><ele>456.0</ele><time>2026-05-02T05:25:10.786Z</time></trkpt><trkpt lat="43.8439667" lon="12.47121"><ele>456.0</ele><time>2026-05-02T05:25:11.786Z</time></trkpt><trkpt lat="43.84407" lon="12.4712067"><ele>456.0</ele><time>2026-05-02T05:25:12.786Z</time></trkpt><trkpt lat="43.84418" lon="12.4711683"><ele>456.0</ele><time>2026-05-02T05:25:13.787Z</time></trkpt><trkpt lat="43.8442917" lon="12.4711033"><ele>456.6</ele><time>2026-05-02T05:25:14.787Z</time></trkpt><trkpt lat="43.8444033" lon="12.4710167"><ele>457.20000000000005</ele><time>2026-05-02T05:25:15.786Z</time></trkpt><trkpt lat="43.8445117" lon="12.4709267"><ele>457.79999999999995</ele><time>2026-05-02T05:25:16.787Z</time></trkpt><trkpt lat="43.844605" lon="12.4708617"><ele>458.4</ele><time>2026-05-02T05:25:17.786Z</time></trkpt><trkpt lat="43.84469" lon="12.4708417"><ele>459.0</ele><time>2026-05-02T05:25:18.786Z</time></trkpt><trkpt lat="43.8447683" lon="12.470865"><ele>459.0</ele><time>2026-05-02T05:25:19.787Z</time></trkpt><trkpt lat="43.8448383" lon="12.4709317"><ele>459.0</ele><time>2026-05-02T05:25:20.788Z</time></trkpt><trkpt lat="43.8448967" lon="12.47104"><ele>459.0</ele><time>2026-05-02T05:25:21.786Z</time></trkpt><trkpt lat="43.8449367" lon="12.4711917"><ele>459.0</ele><time>2026-05-02T05:25:22.787Z</time></trkpt><trkpt lat="43.8450017" lon="12.471335"><ele>459.0</ele><time>2026-05-02T05:25:23.786Z</time></trkpt><trkpt lat="43.8450817" lon="12.4714683"><ele>462.0</ele><time>2026-05-02T05:25:24.789Z</time></trkpt><trkpt lat="43.8451867" lon="12.4715867"><ele>465.0</ele><time>2026-05-02T05:25:25.79Z</time></trkpt><trkpt lat="43.8453017" lon="12.4716983"><ele>468.0</ele><time>2026-05-02T05:25:26.787Z</time></trkpt><trkpt lat="43.8454233" lon="12.471805"><ele>471.0</ele><time>2026-05-02T05:25:27.786Z</time></trkpt><trkpt lat="43.8455433" lon="12.4719183"><ele>471.0</ele><time>2026-05-02T05:25:28.786Z</time></trkpt><trkpt lat="43.845665" lon="12.4720183"><ele>471.0</ele><time>2026-05-02T05:25:29.786Z</time></trkpt><trkpt lat="43.8457867" lon="12.4720883"><ele>471.0</ele><time>2026-05-02T05:25:30.785Z</time></trkpt><trkpt lat="43.8459033" lon="12.4721283"><ele>471.0</ele><time>2026-05-02T05:25:31.786Z</time></trkpt><trkpt lat="43.84601" lon="12.47216"><ele>470.6</ele><time>2026-05-02T05:25:32.786Z</time></trkpt><trkpt lat="43.846105" lon="12.4722183"><ele>470.20000000000005</ele><time>2026-05-02T05:25:33.786Z</time></trkpt><trkpt lat="43.8461733" lon="12.4723167"><ele>469.79999999999995</ele><time>2026-05-02T05:25:34.786Z</time></trkpt><trkpt lat="43.84622" lon="12.472445"><ele>469.4</ele><time>2026-05-02T05:25:35.786Z</time></trkpt><trkpt lat="43.846245" lon="12.4726017"><ele>469.0</ele><time>2026-05-02T05:25:36.786Z</time></trkpt><trkpt lat="43.8462533" lon="12.4727783"><ele>472.75</ele><time>2026-05-02T05:25:37.787Z</time></trkpt><trkpt lat="43.8462667" lon="12.4729517"><ele>476.5</ele><time>2026-05-02T05:25:38.786Z</time></trkpt><trkpt lat="43.8463067" lon="12.4731233"><ele>480.25</ele><time>2026-05-02T05:25:39.786Z</time></trkpt><trkpt lat="43.8463717" lon="12.473285"><ele>484.0</ele><time>2026-05-02T05:25:40.786Z</time></trkpt><trkpt lat="43.8464533" lon="12.4734467"><ele>484.0</ele><time>2026-05-02T05:25:41.787Z</time></trkpt><trkpt lat="43.8465367" lon="12.4736083"><ele>484.0</ele><time>2026-05-02T05:25:42.785Z</time></trkpt><trkpt lat="43.846605" lon="12.47378"><ele>484.0</ele><time>2026-05-02T05:25:43.786Z</time></trkpt><trkpt lat="43.8466533" lon="12.473955"><ele>484.0</ele><time>2026-05-02T05:25:44.789Z</time></trkpt><trkpt lat="43.8466833" lon="12.4741367"><ele>485.75</ele><time>2026-05-02T05:25:45.785Z</time></trkpt><trkpt lat="43.8466967" lon="12.474315"><ele>487.5</ele><time>2026-05-02T05:25:46.786Z</time></trkpt><trkpt lat="43.8466833" lon="12.4744833"><ele>489.25</ele><time>2026-05-02T05:25:47.786Z</time></trkpt><trkpt lat="43.8466433" lon="12.4746283"><ele>491.0</ele><time>2026-05-02T05:25:48.786Z</time></trkpt><trkpt lat="43.8465817" lon="12.474745"><ele>491.0</ele><time>2026-05-02T05:25:49.786Z</time></trkpt><trkpt lat="43.8464917" lon="12.47484"><ele>491.0</ele><time>2026-05-02T05:25:50.79Z</time></trkpt><trkpt lat="43.8463783" lon="12.4749183"><ele>491.0</ele><time>2026-05-02T05:25:51.789Z</time></trkpt><trkpt lat="43.8462467" lon="12.4749767"><ele>491.0</ele><time>2026-05-02T05:25:52.79Z</time></trkpt><trkpt lat="43.8461117" lon="12.475025"><ele>491.0</ele><time>2026-05-02T05:25:53.789Z</time></trkpt><trkpt lat="43.8459833" lon="12.4750667"><ele>491.0</ele><time>2026-05-02T05:25:54.879Z</time></trkpt><trkpt lat="43.845875" lon="12.47511"><ele>491.0</ele><time>2026-05-02T05:25:55.786Z</time></trkpt><trkpt lat="43.8457867" lon="12.475145"><ele>491.0</ele><time>2026-05-02T05:25:56.789Z</time></trkpt><trkpt lat="43.8457067" lon="12.4751817"><ele>491.0</ele><time>2026-05-02T05:25:57.786Z</time></trkpt><trkpt lat="43.8456367" lon="12.4752133"><ele>492.6</ele><time>2026-05-02T05:25:58.787Z</time></trkpt><trkpt lat="43.8455733" lon="12.4752433"><ele>494.20000000000005</ele><time>2026-05-02T05:25:59.786Z</time></trkpt><trkpt lat="43.8454683" lon="12.4752967"><ele>495.79999999999995</ele><time>2026-05-02T05:26:01.786Z</time></trkpt><trkpt lat="43.8453783" lon="12.47534"><ele>497.4</ele><time>2026-05-02T05:26:03.786Z</time></trkpt><trkpt lat="43.8452917" lon="12.4753833"><ele>499.0</ele><time>2026-05-02T05:26:05.787Z</time></trkpt><trkpt lat="43.8452133" lon="12.4754433"><ele>498.75</ele><time>2026-05-02T05:26:07.787Z</time></trkpt><trkpt lat="43.8451417" lon="12.475525"><ele>498.5</ele><time>2026-05-02T05:26:09.787Z</time></trkpt><trkpt lat="43.845085" lon="12.4756033"><ele>498.25</ele><time>2026-05-02T05:26:11.787Z</time></trkpt><trkpt lat="43.8450333" lon="12.4754067"><ele>498.0</ele><time>2026-05-02T05:31:11.445Z</time></trkpt><trkpt lat="43.84506" lon="12.4756283"><ele>498.0</ele><time>2026-05-02T05:31:12.786Z</time></trkpt><trkpt lat="43.8450467" lon="12.47573"><ele>498.0</ele><time>2026-05-02T05:31:13.788Z</time></trkpt><trkpt lat="43.8450217" lon="12.4758233"><ele>498.0</ele><time>2026-05-02T05:31:14.786Z</time></trkpt><trkpt lat="43.8449867" lon="12.4759267"><ele>498.0</ele><time>2026-05-02T05:31:15.785Z</time></trkpt><trkpt lat="43.8449417" lon="12.476045"><ele>498.0</ele><time>2026-05-02T05:31:16.786Z</time></trkpt><trkpt lat="43.8448817" lon="12.4761467"><ele>498.0</ele><time>2026-05-02T05:31:17.786Z</time></trkpt><trkpt lat="43.8448133" lon="12.4762433"><ele>497.79999999999995</ele><time>2026-05-02T05:31:18.786Z</time></trkpt><trkpt lat="43.844745" lon="12.47634"><ele>497.59999999999997</ele><time>2026-05-02T05:31:19.786Z</time></trkpt><trkpt lat="43.8446767" lon="12.4764383"><ele>497.40000000000003</ele><time>2026-05-02T05:31:20.786Z</time></trkpt><trkpt lat="43.8446017" lon="12.47656"><ele>497.20000000000005</ele><time>2026-05-02T05:31:21.786Z</time></trkpt><trkpt lat="43.84454" lon="12.4766733"><ele>497.0</ele><time>2026-05-02T05:31:22.787Z</time></trkpt><trkpt lat="43.84448" lon="12.476795"><ele>497.0</ele><time>2026-05-02T05:31:23.786Z</time></trkpt><trkpt lat="43.844425" lon="12.476905"><ele>497.00000000000006</ele><time>2026-05-02T05:31:24.786Z</time></trkpt><trkpt lat="43.844375" lon="12.4770217"><ele>497.00000000000006</ele><time>2026-05-02T05:31:25.786Z</time></trkpt><trkpt lat="43.8443267" lon="12.4771333"><ele>497.0</ele><time>2026-05-02T05:31:26.787Z</time></trkpt><trkpt lat="43.8442783" lon="12.47724"><ele>497.0</ele><time>2026-05-02T05:31:27.786Z</time></trkpt><trkpt lat="43.844225" lon="12.47733"><ele>493.40000000000003</ele><time>2026-05-02T05:31:28.786Z</time></trkpt><trkpt lat="43.8441583" lon="12.4774"><ele>489.80000000000007</ele><time>2026-05-02T05:31:29.786Z</time></trkpt><trkpt lat="43.8440767" lon="12.4774433"><ele>486.2</ele><time>2026-05-02T05:31:30.786Z</time></trkpt><trkpt lat="43.843975" lon="12.4774767"><ele>482.6</ele><time>2026-05-02T05:31:31.787Z</time></trkpt><trkpt lat="43.8438767" lon="12.4775067"><ele>479.0</ele><time>2026-05-02T05:31:32.787Z</time></trkpt><trkpt lat="43.8437867" lon="12.4775467"><ele>479.0</ele><time>2026-05-02T05:31:33.786Z</time></trkpt><trkpt lat="43.843705" lon="12.477595"><ele>479.0</ele><time>2026-05-02T05:31:34.788Z</time></trkpt><trkpt lat="43.8436233" lon="12.4776433"><ele>479.0</ele><time>2026-05-02T05:31:35.786Z</time></trkpt><trkpt lat="43.84354" lon="12.4776817"><ele>479.0</ele><time>2026-05-02T05:31:36.786Z</time></trkpt><trkpt lat="43.8434533" lon="12.4777117"><ele>479.0</ele><time>2026-05-02T05:31:37.786Z</time></trkpt><trkpt lat="43.8433567" lon="12.47773"><ele>477.79999999999995</ele><time>2026-05-02T05:31:38.788Z</time></trkpt><trkpt lat="43.8432533" lon="12.4777417"><ele>476.59999999999997</ele><time>2026-05-02T05:31:39.786Z</time></trkpt><trkpt lat="43.8431467" lon="12.4777417"><ele>475.4</ele><time>2026-05-02T05:31:40.787Z</time></trkpt><trkpt lat="43.8430433" lon="12.4777383"><ele>474.2</ele><time>2026-05-02T05:31:41.787Z</time></trkpt><trkpt lat="43.8429383" lon="12.4777267"><ele>473.0</ele><time>2026-05-02T05:31:42.787Z</time></trkpt><trkpt lat="43.8428283" lon="12.4777117"><ele>473.0</ele><time>2026-05-02T05:31:43.786Z</time></trkpt><trkpt lat="43.842715" lon="12.4776967"><ele>473.0</ele><time>2026-05-02T05:31:44.786Z</time></trkpt><trkpt lat="43.8425983" lon="12.477685"><ele>473.0</ele><time>2026-05-02T05:31:45.786Z</time></trkpt><trkpt lat="43.8424833" lon="12.4776767"><ele>473.0</ele><time>2026-05-02T05:31:46.786Z</time></trkpt><trkpt lat="43.8423717" lon="12.4776717"><ele>471.59999999999997</ele><time>2026-05-02T05:31:47.787Z</time></trkpt><trkpt lat="43.8422633" lon="12.47767"><ele>470.19999999999993</ele><time>2026-05-02T05:31:48.786Z</time></trkpt><trkpt lat="43.8421617" lon="12.4776733"><ele>468.8</ele><time>2026-05-02T05:31:49.786Z</time></trkpt><trkpt lat="43.8420633" lon="12.47768"><ele>467.4</ele><time>2026-05-02T05:31:50.786Z</time></trkpt><trkpt lat="43.8419633" lon="12.477695"><ele>466.0</ele><time>2026-05-02T05:31:51.786Z</time></trkpt><trkpt lat="43.84186" lon="12.477715"><ele>465.6</ele><time>2026-05-02T05:31:52.788Z</time></trkpt><trkpt lat="43.8417583" lon="12.4777417"><ele>465.20000000000005</ele><time>2026-05-02T05:31:53.787Z</time></trkpt><trkpt lat="43.8416633" lon="12.47778"><ele>464.79999999999995</ele><time>2026-05-02T05:31:54.788Z</time></trkpt><trkpt lat="43.841575" lon="12.4778317"><ele>464.4</ele><time>2026-05-02T05:31:55.786Z</time></trkpt><trkpt lat="43.8414867" lon="12.477885"><ele>464.0</ele><time>2026-05-02T05:31:56.788Z</time></trkpt><trkpt lat="43.8413933" lon="12.477925"><ele>464.0</ele><time>2026-05-02T05:31:57.786Z</time></trkpt><trkpt lat="43.84129" lon="12.4779433"><ele>464.0</ele><time>2026-05-02T05:31:58.787Z</time></trkpt><trkpt lat="43.8411817" lon="12.4779433"><ele>464.0</ele><time>2026-05-02T05:31:59.786Z</time></trkpt><trkpt lat="43.84107" lon="12.4779333"><ele>464.0</ele><time>2026-05-02T05:32:00.786Z</time></trkpt><trkpt lat="43.8409533" lon="12.47792"><ele>464.0</ele><time>2026-05-02T05:32:01.787Z</time></trkpt><trkpt lat="43.8408383" lon="12.4779083"><ele>464.2</ele><time>2026-05-02T05:32:02.787Z</time></trkpt><trkpt lat="43.8407233" lon="12.47789"><ele>464.4</ele><time>2026-05-02T05:32:03.787Z</time></trkpt><trkpt lat="43.8406117" lon="12.4778733"><ele>464.6</ele><time>2026-05-02T05:32:04.787Z</time></trkpt><trkpt lat="43.8405033" lon="12.4778583"><ele>464.8</ele><time>2026-05-02T05:32:05.787Z</time></trkpt><trkpt lat="43.8404" lon="12.4778517"><ele>465.0</ele><time>2026-05-02T05:32:06.786Z</time></trkpt><trkpt lat="43.8403" lon="12.4778617"><ele>465.0</ele><time>2026-05-02T05:32:07.786Z</time></trkpt><trkpt lat="43.8402033" lon="12.47789"><ele>465.0</ele><time>2026-05-02T05:32:08.786Z</time></trkpt><trkpt lat="43.8401117" lon="12.4779283"><ele>465.0</ele><time>2026-05-02T05:32:09.786Z</time></trkpt><trkpt lat="43.8400233" lon="12.477965"><ele>465.0</ele><time>2026-05-02T05:32:10.786Z</time></trkpt><trkpt lat="43.8399333" lon="12.477995"><ele>465.0</ele><time>2026-05-02T05:32:11.787Z</time></trkpt><trkpt lat="43.8398383" lon="12.478015"><ele>464.6666666666667</ele><time>2026-05-02T05:32:12.786Z</time></trkpt><trkpt lat="43.8397417" lon="12.4780133"><ele>464.33333333333337</ele><time>2026-05-02T05:32:13.79Z</time></trkpt><trkpt lat="43.8396467" lon="12.4779833"><ele>464.0</ele><time>2026-05-02T05:32:14.789Z</time></trkpt><trkpt lat="43.839565" lon="12.4779283"><ele>463.6666666666667</ele><time>2026-05-02T05:32:15.789Z</time></trkpt><trkpt lat="43.8395" lon="12.4778567"><ele>463.33333333333337</ele><time>2026-05-02T05:32:16.79Z</time></trkpt><trkpt lat="43.8394483" lon="12.4777717"><ele>463.0</ele><time>2026-05-02T05:32:17.79Z</time></trkpt><trkpt lat="43.8394267" lon="12.4776733"><ele>463.00000000000006</ele><time>2026-05-02T05:32:18.789Z</time></trkpt><trkpt lat="43.8394333" lon="12.4775667"><ele>463.0</ele><time>2026-05-02T05:32:19.79Z</time></trkpt><trkpt lat="43.839455" lon="12.47746"><ele>463.0</ele><time>2026-05-02T05:32:20.789Z</time></trkpt><trkpt lat="43.8394667" lon="12.477355"><ele>463.0</ele><time>2026-05-02T05:32:21.789Z</time></trkpt><trkpt lat="43.839455" lon="12.47725"><ele>463.00000000000006</ele><time>2026-05-02T05:32:22.79Z</time></trkpt><trkpt lat="43.8394217" lon="12.4771567"><ele>463.0</ele><time>2026-05-02T05:32:23.79Z</time></trkpt><trkpt lat="43.839375" lon="12.4770833"><ele>461.0</ele><time>2026-05-02T05:32:24.789Z</time></trkpt><trkpt lat="43.8393133" lon="12.477045"><ele>458.99999999999994</ele><time>2026-05-02T05:32:25.789Z</time></trkpt><trkpt lat="43.8392233" lon="12.4770583"><ele>456.99999999999994</ele><time>2026-05-02T05:32:26.786Z</time></trkpt><trkpt lat="43.8391333" lon="12.4771117"><ele>455.0</ele><time>2026-05-02T05:32:27.786Z</time></trkpt><trkpt lat="43.8390433" lon="12.4772133"><ele>453.0</ele><time>2026-05-02T05:32:28.786Z</time></trkpt><trkpt lat="43.83898" lon="12.47731"><ele>453.0</ele><time>2026-05-02T05:32:29.786Z</time></trkpt><trkpt lat="43.838935" lon="12.4774383"><ele>453.0</ele><time>2026-05-02T05:32:30.787Z</time></trkpt><trkpt lat="43.8389067" lon="12.4775883"><ele>453.0</ele><time>2026-05-02T05:32:31.787Z</time></trkpt><trkpt lat="43.838885" lon="12.4777633"><ele>453.0</ele><time>2026-05-02T05:32:32.786Z</time></trkpt><trkpt lat="43.8388583" lon="12.4779317"><ele>451.5</ele><time>2026-05-02T05:32:33.789Z</time></trkpt><trkpt lat="43.83883" lon="12.4781067"><ele>450.0</ele><time>2026-05-02T05:32:34.789Z</time></trkpt><trkpt lat="43.8388033" lon="12.4782783"><ele>448.5</ele><time>2026-05-02T05:32:35.79Z</time></trkpt><trkpt lat="43.8387717" lon="12.4784483"><ele>447.0</ele><time>2026-05-02T05:32:36.79Z</time></trkpt><trkpt lat="43.838735" lon="12.478615"><ele>444.0</ele><time>2026-05-02T05:32:37.786Z</time></trkpt><trkpt lat="43.8386883" lon="12.4787733"><ele>441.0</ele><time>2026-05-02T05:32:38.786Z</time></trkpt><trkpt lat="43.8386383" lon="12.4789233"><ele>438.0</ele><time>2026-05-02T05:32:39.786Z</time></trkpt><trkpt lat="43.83858" lon="12.4790583"><ele>435.0</ele><time>2026-05-02T05:32:40.786Z</time></trkpt><trkpt lat="43.8385183" lon="12.4791717"><ele>434.2</ele><time>2026-05-02T05:32:41.786Z</time></trkpt><trkpt lat="43.8384367" lon="12.47926"><ele>433.4</ele><time>2026-05-02T05:32:42.786Z</time></trkpt><trkpt lat="43.83834" lon="12.479325"><ele>432.6</ele><time>2026-05-02T05:32:43.787Z</time></trkpt><trkpt lat="43.8382367" lon="12.4793783"><ele>431.8</ele><time>2026-05-02T05:32:44.786Z</time></trkpt><trkpt lat="43.8381217" lon="12.479425"><ele>431.0</ele><time>2026-05-02T05:32:45.786Z</time></trkpt><trkpt lat="43.838005" lon="12.4794717"><ele>431.0</ele><time>2026-05-02T05:32:46.79Z</time></trkpt><trkpt lat="43.8378817" lon="12.4795117"><ele>431.0</ele><time>2026-05-02T05:32:47.786Z</time></trkpt><trkpt lat="43.837755" lon="12.4795483"><ele>431.0</ele><time>2026-05-02T05:32:48.786Z</time></trkpt><trkpt lat="43.8376233" lon="12.479575"><ele>431.0</ele><time>2026-05-02T05:32:49.786Z</time></trkpt><trkpt lat="43.837495" lon="12.4795983"><ele>429.8</ele><time>2026-05-02T05:32:50.786Z</time></trkpt><trkpt lat="43.837375" lon="12.4796167"><ele>428.6</ele><time>2026-05-02T05:32:51.787Z</time></trkpt><trkpt lat="43.8372617" lon="12.47963"><ele>427.4</ele><time>2026-05-02T05:32:52.786Z</time></trkpt><trkpt lat="43.8371567" lon="12.4796417"><ele>426.2</ele><time>2026-05-02T05:32:53.787Z</time></trkpt><trkpt lat="43.8370567" lon="12.479655"><ele>425.0</ele><time>2026-05-02T05:32:54.789Z</time></trkpt><trkpt lat="43.8369683" lon="12.47968"><ele>424.99999999999994</ele><time>2026-05-02T05:32:55.789Z</time></trkpt><trkpt lat="43.8368933" lon="12.479715"><ele>425.0</ele><time>2026-05-02T05:32:56.786Z</time></trkpt><trkpt lat="43.8368317" lon="12.4797533"><ele>425.0</ele><time>2026-05-02T05:32:57.789Z</time></trkpt><trkpt lat="43.8367217" lon="12.47981"><ele>425.0</ele><time>2026-05-02T05:32:59.787Z</time></trkpt><trkpt lat="43.83666" lon="12.4798333"><ele>424.99999999999994</ele><time>2026-05-02T05:33:00.787Z</time></trkpt><trkpt lat="43.83659" lon="12.47986"><ele>425.0</ele><time>2026-05-02T05:33:01.787Z</time></trkpt><trkpt lat="43.8365083" lon="12.4798783"><ele>423.4</ele><time>2026-05-02T05:33:02.789Z</time></trkpt><trkpt lat="43.8364233" lon="12.479875"><ele>421.8</ele><time>2026-05-02T05:33:03.791Z</time></trkpt><trkpt lat="43.8363383" lon="12.479845"><ele>420.20000000000005</ele><time>2026-05-02T05:33:04.79Z</time></trkpt><trkpt lat="43.8362483" lon="12.479785"><ele>418.6</ele><time>2026-05-02T05:33:05.79Z</time></trkpt><trkpt lat="43.8361583" lon="12.47971"><ele>417.0</ele><time>2026-05-02T05:33:06.791Z</time></trkpt><trkpt lat="43.836075" lon="12.4796333"><ele>416.0</ele><time>2026-05-02T05:33:07.789Z</time></trkpt><trkpt lat="43.8360017" lon="12.4795617"><ele>415.0</ele><time>2026-05-02T05:33:08.79Z</time></trkpt><trkpt lat="43.83593" lon="12.4795017"><ele>414.0</ele><time>2026-05-02T05:33:09.789Z</time></trkpt><trkpt lat="43.8358517" lon="12.4794533"><ele>413.0</ele><time>2026-05-02T05:33:10.79Z</time></trkpt><trkpt lat="43.835765" lon="12.4794283"><ele>412.0</ele><time>2026-05-02T05:33:11.789Z</time></trkpt><trkpt lat="43.8356783" lon="12.4794333"><ele>411.0</ele><time>2026-05-02T05:33:12.791Z</time></trkpt><trkpt lat="43.8355967" lon="12.4794533"><ele>409.20000000000005</ele><time>2026-05-02T05:33:13.789Z</time></trkpt><trkpt lat="43.8355183" lon="12.4795017"><ele>407.40000000000003</ele><time>2026-05-02T05:33:14.787Z</time></trkpt><trkpt lat="43.8354433" lon="12.4795633"><ele>405.6</ele><time>2026-05-02T05:33:15.79Z</time></trkpt><trkpt lat="43.835365" lon="12.4796283"><ele>403.8</ele><time>2026-05-02T05:33:16.79Z</time></trkpt><trkpt lat="43.8352833" lon="12.4796967"><ele>402.0</ele><time>2026-05-02T05:33:17.79Z</time></trkpt><trkpt lat="43.835195" lon="12.4797617"><ele>399.6666666666667</ele><time>2026-05-02T05:33:18.789Z</time></trkpt><trkpt lat="43.835105" lon="12.4798033"><ele>397.33333333333337</ele><time>2026-05-02T05:33:19.789Z</time></trkpt><trkpt lat="43.835015" lon="12.479815"><ele>395.0</ele><time>2026-05-02T05:33:20.79Z</time></trkpt><trkpt lat="43.83493" lon="12.4797983"><ele>392.6666666666667</ele><time>2026-05-02T05:33:21.789Z</time></trkpt><trkpt lat="43.8348533" lon="12.4797483"><ele>390.33333333333337</ele><time>2026-05-02T05:33:22.79Z</time></trkpt><trkpt lat="43.8347833" lon="12.4796783"><ele>388.0</ele><time>2026-05-02T05:33:23.79Z</time></trkpt><trkpt lat="43.8347217" lon="12.47961"><ele>388.00000000000006</ele><time>2026-05-02T05:33:24.79Z</time></trkpt><trkpt lat="43.8346583" lon="12.4795533"><ele>388.0</ele><time>2026-05-02T05:33:25.787Z</time></trkpt><trkpt lat="43.8345883" lon="12.4795183"><ele>388.0</ele><time>2026-05-02T05:33:26.79Z</time></trkpt><trkpt lat="43.8345167" lon="12.4795217"><ele>388.0</ele><time>2026-05-02T05:33:27.788Z</time></trkpt><trkpt lat="43.8344417" lon="12.4795533"><ele>388.00000000000006</ele><time>2026-05-02T05:33:28.79Z</time></trkpt><trkpt lat="43.8343733" lon="12.4796283"><ele>388.0</ele><time>2026-05-02T05:33:29.789Z</time></trkpt><trkpt lat="43.83431" lon="12.4797333"><ele>386.2</ele><time>2026-05-02T05:33:30.788Z</time></trkpt><trkpt lat="43.8342433" lon="12.47984"><ele>384.4</ele><time>2026-05-02T05:33:31.788Z</time></trkpt><trkpt lat="43.8341717" lon="12.4799567"><ele>382.59999999999997</ele><time>2026-05-02T05:33:32.789Z</time></trkpt><trkpt lat="43.8340917" lon="12.48007"><ele>380.79999999999995</ele><time>2026-05-02T05:33:33.789Z</time></trkpt><trkpt lat="43.83401" lon="12.4801783"><ele>379.0</ele><time>2026-05-02T05:33:34.789Z</time></trkpt><trkpt lat="43.8339317" lon="12.4802767"><ele>379.0</ele><time>2026-05-02T05:33:35.789Z</time></trkpt><trkpt lat="43.8338467" lon="12.4803667"><ele>379.0</ele><time>2026-05-02T05:33:36.786Z</time></trkpt><trkpt lat="43.833765" lon="12.480445"><ele>379.0</ele><time>2026-05-02T05:33:37.79Z</time></trkpt><trkpt lat="43.83368" lon="12.4805083"><ele>379.0</ele><time>2026-05-02T05:33:38.79Z</time></trkpt><trkpt lat="43.8335933" lon="12.4805517"><ele>379.0</ele><time>2026-05-02T05:33:39.789Z</time></trkpt><trkpt lat="43.8335" lon="12.4805733"><ele>378.2</ele><time>2026-05-02T05:33:40.79Z</time></trkpt><trkpt lat="43.8334033" lon="12.4805733"><ele>377.4</ele><time>2026-05-02T05:33:41.789Z</time></trkpt><trkpt lat="43.833305" lon="12.480545"><ele>376.6</ele><time>2026-05-02T05:33:42.789Z</time></trkpt><trkpt lat="43.833205" lon="12.4804933"><ele>375.8</ele><time>2026-05-02T05:33:43.789Z</time></trkpt><trkpt lat="43.8331067" lon="12.4804283"><ele>375.0</ele><time>2026-05-02T05:33:44.789Z</time></trkpt><trkpt lat="43.8330133" lon="12.480355"><ele>375.0</ele><time>2026-05-02T05:33:45.789Z</time></trkpt><trkpt lat="43.8329267" lon="12.4802817"><ele>375.0</ele><time>2026-05-02T05:33:46.787Z</time></trkpt><trkpt lat="43.83284" lon="12.4802117"><ele>375.0</ele><time>2026-05-02T05:33:47.787Z</time></trkpt><trkpt lat="43.8327483" lon="12.4801517"><ele>375.0</ele><time>2026-05-02T05:33:48.786Z</time></trkpt><trkpt lat="43.8326483" lon="12.4800983"><ele>375.0</ele><time>2026-05-02T05:33:49.789Z</time></trkpt><trkpt lat="43.83254" lon="12.4800583"><ele>374.25</ele><time>2026-05-02T05:33:50.789Z</time></trkpt><trkpt lat="43.832425" lon="12.4800333"><ele>373.5</ele><time>2026-05-02T05:33:51.79Z</time></trkpt><trkpt lat="43.8323117" lon="12.4800233"><ele>372.75</ele><time>2026-05-02T05:33:52.789Z</time></trkpt><trkpt lat="43.8321967" lon="12.4800183"><ele>372.0</ele><time>2026-05-02T05:33:53.787Z</time></trkpt><trkpt lat="43.8320867" lon="12.480005"><ele>372.0</ele><time>2026-05-02T05:33:54.786Z</time></trkpt><trkpt lat="43.831965" lon="12.479975"><ele>372.0</ele><time>2026-05-02T05:33:55.79Z</time></trkpt><trkpt lat="43.8318433" lon="12.479925"><ele>372.0</ele><time>2026-05-02T05:33:56.786Z</time></trkpt><trkpt lat="43.83173" lon="12.47987"><ele>372.0</ele><time>2026-05-02T05:33:57.786Z</time></trkpt><trkpt lat="43.83162" lon="12.4798233"><ele>372.0</ele><time>2026-05-02T05:33:58.787Z</time></trkpt><trkpt lat="43.8315" lon="12.47979"><ele>372.0</ele><time>2026-05-02T05:33:59.788Z</time></trkpt><trkpt lat="43.8313833" lon="12.47976"><ele>372.0</ele><time>2026-05-02T05:34:00.786Z</time></trkpt><trkpt lat="43.8312733" lon="12.4797333"><ele>372.0</ele><time>2026-05-02T05:34:01.786Z</time></trkpt><trkpt lat="43.8311667" lon="12.4797067"><ele>372.0</ele><time>2026-05-02T05:34:02.787Z</time></trkpt><trkpt lat="43.8310717" lon="12.4796717"><ele>372.0</ele><time>2026-05-02T05:34:03.79Z</time></trkpt><trkpt lat="43.830985" lon="12.479635"><ele>372.0</ele><time>2026-05-02T05:34:04.789Z</time></trkpt><trkpt lat="43.83091" lon="12.4796033"><ele>372.0</ele><time>2026-05-02T05:34:05.79Z</time></trkpt><trkpt lat="43.8308417" lon="12.4795883"><ele>372.0</ele><time>2026-05-02T05:34:06.789Z</time></trkpt><trkpt lat="43.83078" lon="12.4796117"><ele>372.0</ele><time>2026-05-02T05:34:07.79Z</time></trkpt><trkpt lat="43.8307233" lon="12.4796583"><ele>371.0</ele><time>2026-05-02T05:34:08.79Z</time></trkpt><trkpt lat="43.8306917" lon="12.47976"><ele>370.0</ele><time>2026-05-02T05:34:09.787Z</time></trkpt><trkpt lat="43.83067" lon="12.47987"><ele>369.0</ele><time>2026-05-02T05:34:10.79Z</time></trkpt><trkpt lat="43.8306417" lon="12.479975"><ele>368.0</ele><time>2026-05-02T05:34:11.791Z</time></trkpt><trkpt lat="43.8306067" lon="12.4800733"><ele>367.0</ele><time>2026-05-02T05:34:12.786Z</time></trkpt><trkpt lat="43.830565" lon="12.4801567"><ele>366.0</ele><time>2026-05-02T05:34:13.79Z</time></trkpt><trkpt lat="43.830505" lon="12.4802233"><ele>366.0</ele><time>2026-05-02T05:34:14.788Z</time></trkpt><trkpt lat="43.8304283" lon="12.480265"><ele>366.0</ele><time>2026-05-02T05:34:15.79Z</time></trkpt><trkpt lat="43.8303483" lon="12.4803117"><ele>366.0</ele><time>2026-05-02T05:34:16.788Z</time></trkpt><trkpt lat="43.8302683" lon="12.48038"><ele>366.0</ele><time>2026-05-02T05:34:17.79Z</time></trkpt><trkpt lat="43.8302033" lon="12.4804733"><ele>366.0</ele><time>2026-05-02T05:34:18.79Z</time></trkpt><trkpt lat="43.83015" lon="12.48057"><ele>366.0</ele><time>2026-05-02T05:34:19.79Z</time></trkpt><trkpt lat="43.83009" lon="12.4806633"><ele>363.8</ele><time>2026-05-02T05:34:20.79Z</time></trkpt><trkpt lat="43.83002" lon="12.4807333"><ele>361.6</ele><time>2026-05-02T05:34:21.79Z</time></trkpt><trkpt lat="43.829935" lon="12.48079"><ele>359.4</ele><time>2026-05-02T05:34:22.786Z</time></trkpt><trkpt lat="43.8298333" lon="12.480815"><ele>357.2</ele><time>2026-05-02T05:34:23.79Z</time></trkpt><trkpt lat="43.8297283" lon="12.4808217"><ele>355.0</ele><time>2026-05-02T05:34:24.788Z</time></trkpt><trkpt lat="43.8296217" lon="12.4808267"><ele>355.0</ele><time>2026-05-02T05:34:25.788Z</time></trkpt><trkpt lat="43.8295183" lon="12.4808383"><ele>355.0</ele><time>2026-05-02T05:34:26.785Z</time></trkpt><trkpt lat="43.829415" lon="12.4808717"><ele>355.0</ele><time>2026-05-02T05:34:27.785Z</time></trkpt><trkpt lat="43.8293117" lon="12.48093"><ele>355.0</ele><time>2026-05-02T05:34:28.786Z</time></trkpt><trkpt lat="43.8292133" lon="12.4810267"><ele>355.0</ele><time>2026-05-02T05:34:29.786Z</time></trkpt><trkpt lat="43.8291233" lon="12.4811467"><ele>353.0</ele><time>2026-05-02T05:34:30.785Z</time></trkpt><trkpt lat="43.82904" lon="12.481275"><ele>351.0</ele><time>2026-05-02T05:34:31.785Z</time></trkpt><trkpt lat="43.8289567" lon="12.48139"><ele>349.0</ele><time>2026-05-02T05:34:32.786Z</time></trkpt><trkpt lat="43.8288683" lon="12.4814917"><ele>347.0</ele><time>2026-05-02T05:34:33.79Z</time></trkpt><trkpt lat="43.8287767" lon="12.48159"><ele>347.0</ele><time>2026-05-02T05:34:34.789Z</time></trkpt><trkpt lat="43.8286867" lon="12.4816767"><ele>347.0</ele><time>2026-05-02T05:34:35.789Z</time></trkpt><trkpt lat="43.8286067" lon="12.4817633"><ele>347.0</ele><time>2026-05-02T05:34:36.785Z</time></trkpt><trkpt lat="43.8285317" lon="12.4818483"><ele>347.0</ele><time>2026-05-02T05:34:37.788Z</time></trkpt><trkpt lat="43.8284633" lon="12.4819483"><ele>347.0</ele><time>2026-05-02T05:34:38.789Z</time></trkpt><trkpt lat="43.8283983" lon="12.48206"><ele>346.40000000000003</ele><time>2026-05-02T05:34:39.788Z</time></trkpt><trkpt lat="43.8283383" lon="12.4821783"><ele>345.8</ele><time>2026-05-02T05:34:40.789Z</time></trkpt><trkpt lat="43.8282833" lon="12.4823"><ele>345.2</ele><time>2026-05-02T05:34:41.789Z</time></trkpt><trkpt lat="43.8282283" lon="12.4824317"><ele>344.6</ele><time>2026-05-02T05:34:42.788Z</time></trkpt><trkpt lat="43.8281783" lon="12.4825633"><ele>344.0</ele><time>2026-05-02T05:34:43.79Z</time></trkpt><trkpt lat="43.8281217" lon="12.4826833"><ele>344.0</ele><time>2026-05-02T05:34:44.786Z</time></trkpt><trkpt lat="43.82806" lon="12.4828017"><ele>344.0</ele><time>2026-05-02T05:34:45.789Z</time></trkpt><trkpt lat="43.8279917" lon="12.4829167"><ele>344.0</ele><time>2026-05-02T05:34:46.789Z</time></trkpt><trkpt lat="43.82791" lon="12.483015"><ele>344.0</ele><time>2026-05-02T05:34:47.789Z</time></trkpt><trkpt lat="43.8278167" lon="12.4831117"><ele>344.0</ele><time>2026-05-02T05:34:48.789Z</time></trkpt><trkpt lat="43.82772" lon="12.4831967"><ele>347.25</ele><time>2026-05-02T05:34:49.789Z</time></trkpt><trkpt lat="43.8276167" lon="12.48328"><ele>350.5</ele><time>2026-05-02T05:34:50.789Z</time></trkpt><trkpt lat="43.82752" lon="12.48336"><ele>353.75</ele><time>2026-05-02T05:34:51.789Z</time></trkpt><trkpt lat="43.8274267" lon="12.4834383"><ele>357.0</ele><time>2026-05-02T05:34:52.786Z</time></trkpt><trkpt lat="43.8273283" lon="12.4835083"><ele>357.0</ele><time>2026-05-02T05:34:53.789Z</time></trkpt><trkpt lat="43.8272183" lon="12.483565"><ele>357.0</ele><time>2026-05-02T05:34:54.789Z</time></trkpt><trkpt lat="43.8271" lon="12.4836083"><ele>357.0</ele><time>2026-05-02T05:34:55.79Z</time></trkpt><trkpt lat="43.826975" lon="12.483645"><ele>357.0</ele><time>2026-05-02T05:34:56.786Z</time></trkpt><trkpt lat="43.8268467" lon="12.48368"><ele>357.0</ele><time>2026-05-02T05:34:57.786Z</time></trkpt><trkpt lat="43.8267183" lon="12.48371"><ele>357.0</ele><time>2026-05-02T05:34:58.787Z</time></trkpt><trkpt lat="43.8265967" lon="12.48374"><ele>357.0</ele><time>2026-05-02T05:34:59.786Z</time></trkpt><trkpt lat="43.8264833" lon="12.4837767"><ele>357.0</ele><time>2026-05-02T05:35:00.786Z</time></trkpt><trkpt lat="43.8263733" lon="12.4838283"><ele>357.0</ele><time>2026-05-02T05:35:01.786Z</time></trkpt><trkpt lat="43.8262667" lon="12.4839"><ele>357.0</ele><time>2026-05-02T05:35:02.786Z</time></trkpt><trkpt lat="43.8261733" lon="12.484"><ele>357.0</ele><time>2026-05-02T05:35:03.789Z</time></trkpt><trkpt lat="43.826095" lon="12.4841183"><ele>357.0</ele><time>2026-05-02T05:35:04.79Z</time></trkpt><trkpt lat="43.8260233" lon="12.48424"><ele>356.20000000000005</ele><time>2026-05-02T05:35:05.791Z</time></trkpt><trkpt lat="43.8259667" lon="12.484365"><ele>355.4</ele><time>2026-05-02T05:35:06.785Z</time></trkpt><trkpt lat="43.8259117" lon="12.484485"><ele>354.6</ele><time>2026-05-02T05:35:07.79Z</time></trkpt><trkpt lat="43.8258533" lon="12.4846017"><ele>353.79999999999995</ele><time>2026-05-02T05:35:08.786Z</time></trkpt><trkpt lat="43.8257933" lon="12.4847083"><ele>353.0</ele><time>2026-05-02T05:35:09.789Z</time></trkpt><trkpt lat="43.8257283" lon="12.484805"><ele>353.0</ele><time>2026-05-02T05:35:10.786Z</time></trkpt><trkpt lat="43.8256517" lon="12.4848883"><ele>353.0</ele><time>2026-05-02T05:35:11.79Z</time></trkpt><trkpt lat="43.8255683" lon="12.4849767"><ele>353.0</ele><time>2026-05-02T05:35:12.786Z</time></trkpt><trkpt lat="43.8254833" lon="12.4850583"><ele>353.0</ele><time>2026-05-02T05:35:13.785Z</time></trkpt><trkpt lat="43.825395" lon="12.4851333"><ele>353.0</ele><time>2026-05-02T05:35:14.786Z</time></trkpt><trkpt lat="43.8253083" lon="12.4852183"><ele>353.0</ele><time>2026-05-02T05:35:15.788Z</time></trkpt><trkpt lat="43.82523" lon="12.4853133"><ele>353.0</ele><time>2026-05-02T05:35:16.786Z</time></trkpt><trkpt lat="43.82516" lon="12.4854267"><ele>353.0</ele><time>2026-05-02T05:35:17.787Z</time></trkpt><trkpt lat="43.8250967" lon="12.4855383"><ele>353.0</ele><time>2026-05-02T05:35:18.786Z</time></trkpt><trkpt lat="43.825025" lon="12.4856333"><ele>353.0</ele><time>2026-05-02T05:35:19.789Z</time></trkpt><trkpt lat="43.8249417" lon="12.48572"><ele>352.0</ele><time>2026-05-02T05:35:20.789Z</time></trkpt><trkpt lat="43.8248467" lon="12.4857983"><ele>351.0</ele><time>2026-05-02T05:35:21.79Z</time></trkpt><trkpt lat="43.8247517" lon="12.4858733"><ele>350.0</ele><time>2026-05-02T05:35:22.789Z</time></trkpt><trkpt lat="43.8246483" lon="12.485945"><ele>349.0</ele><time>2026-05-02T05:35:23.789Z</time></trkpt><trkpt lat="43.8245467" lon="12.4860133"><ele>348.0</ele><time>2026-05-02T05:35:24.789Z</time></trkpt><trkpt lat="43.8244517" lon="12.4860733"><ele>348.0</ele><time>2026-05-02T05:35:25.79Z</time></trkpt><trkpt lat="43.8243633" lon="12.4861233"><ele>348.0</ele><time>2026-05-02T05:35:26.786Z</time></trkpt><trkpt lat="43.8242867" lon="12.4861717"><ele>348.0</ele><time>2026-05-02T05:35:27.787Z</time></trkpt><trkpt lat="43.8242183" lon="12.4862133"><ele>348.0</ele><time>2026-05-02T05:35:28.786Z</time></trkpt><trkpt lat="43.8241567" lon="12.4862417"><ele>348.0</ele><time>2026-05-02T05:35:29.786Z</time></trkpt><trkpt lat="43.8240433" lon="12.48623"><ele>348.0</ele><time>2026-05-02T05:35:31.786Z</time></trkpt><trkpt lat="43.8239917" lon="12.48618"><ele>347.5</ele><time>2026-05-02T05:35:32.786Z</time></trkpt><trkpt lat="43.8239583" lon="12.486105"><ele>347.0</ele><time>2026-05-02T05:35:33.79Z</time></trkpt><trkpt lat="43.8239417" lon="12.486"><ele>346.5</ele><time>2026-05-02T05:35:34.789Z</time></trkpt><trkpt lat="43.8239333" lon="12.485885"><ele>346.0</ele><time>2026-05-02T05:35:35.789Z</time></trkpt><trkpt lat="43.823925" lon="12.48577"><ele>345.5</ele><time>2026-05-02T05:35:36.788Z</time></trkpt><trkpt lat="43.8239317" lon="12.4856533"><ele>345.0</ele><time>2026-05-02T05:35:37.793Z</time></trkpt><trkpt lat="43.8239483" lon="12.485535"><ele>344.0</ele><time>2026-05-02T05:35:38.789Z</time></trkpt><trkpt lat="43.8239767" lon="12.485415"><ele>343.0</ele><time>2026-05-02T05:35:39.79Z</time></trkpt><trkpt lat="43.8240283" lon="12.4853033"><ele>342.0</ele><time>2026-05-02T05:35:40.789Z</time></trkpt><trkpt lat="43.8240883" lon="12.485195"><ele>341.0</ele><time>2026-05-02T05:35:41.79Z</time></trkpt><trkpt lat="43.8241433" lon="12.485095"><ele>340.0</ele><time>2026-05-02T05:35:42.789Z</time></trkpt><trkpt lat="43.8241817" lon="12.48499"><ele>340.0</ele><time>2026-05-02T05:35:43.789Z</time></trkpt><trkpt lat="43.8241967" lon="12.484885"><ele>340.0</ele><time>2026-05-02T05:35:44.789Z</time></trkpt><trkpt lat="43.8241967" lon="12.484785"><ele>340.0</ele><time>2026-05-02T05:35:45.79Z</time></trkpt><trkpt lat="43.82417" lon="12.4846917"><ele>340.0</ele><time>2026-05-02T05:35:46.789Z</time></trkpt><trkpt lat="43.8241183" lon="12.48459"><ele>340.0</ele><time>2026-05-02T05:35:47.789Z</time></trkpt><trkpt lat="43.82406" lon="12.4844817"><ele>340.0</ele><time>2026-05-02T05:35:48.789Z</time></trkpt><trkpt lat="43.8239967" lon="12.4843717"><ele>341.0</ele><time>2026-05-02T05:35:49.789Z</time></trkpt><trkpt lat="43.8239333" lon="12.4842567"><ele>342.0</ele><time>2026-05-02T05:35:50.79Z</time></trkpt><trkpt lat="43.8238767" lon="12.484135"><ele>343.0</ele><time>2026-05-02T05:35:51.789Z</time></trkpt><trkpt lat="43.823825" lon="12.4839933"><ele>344.0</ele><time>2026-05-02T05:35:52.789Z</time></trkpt><trkpt lat="43.8237733" lon="12.4838417"><ele>345.0</ele><time>2026-05-02T05:35:53.789Z</time></trkpt><trkpt lat="43.8237267" lon="12.4836883"><ele>346.2</ele><time>2026-05-02T05:35:54.786Z</time></trkpt><trkpt lat="43.823685" lon="12.4835417"><ele>347.4</ele><time>2026-05-02T05:35:55.786Z</time></trkpt><trkpt lat="43.8236467" lon="12.4834083"><ele>348.6</ele><time>2026-05-02T05:35:56.786Z</time></trkpt><trkpt lat="43.823605" lon="12.4832733"><ele>349.8</ele><time>2026-05-02T05:35:57.789Z</time></trkpt><trkpt lat="43.823545" lon="12.483145"><ele>351.0</ele><time>2026-05-02T05:35:58.789Z</time></trkpt><trkpt lat="43.8234767" lon="12.4830367"><ele>348.20000000000005</ele><time>2026-05-02T05:35:59.789Z</time></trkpt><trkpt lat="43.8234067" lon="12.482935"><ele>345.40000000000003</ele><time>2026-05-02T05:36:00.785Z</time></trkpt><trkpt lat="43.82333" lon="12.4828383"><ele>342.6</ele><time>2026-05-02T05:36:01.787Z</time></trkpt><trkpt lat="43.82325" lon="12.4827517"><ele>339.8</ele><time>2026-05-02T05:36:02.789Z</time></trkpt><trkpt lat="43.8231633" lon="12.4826933"><ele>337.0</ele><time>2026-05-02T05:36:03.786Z</time></trkpt><trkpt lat="43.823075" lon="12.482665"><ele>337.0</ele><time>2026-05-02T05:36:04.789Z</time></trkpt><trkpt lat="43.8229733" lon="12.48266"><ele>337.0</ele><time>2026-05-02T05:36:05.789Z</time></trkpt><trkpt lat="43.822865" lon="12.4826517"><ele>337.0</ele><time>2026-05-02T05:36:06.789Z</time></trkpt><trkpt lat="43.8227517" lon="12.4826217"><ele>337.0</ele><time>2026-05-02T05:36:07.79Z</time></trkpt><trkpt lat="43.8226367" lon="12.4825783"><ele>337.0</ele><time>2026-05-02T05:36:08.789Z</time></trkpt><trkpt lat="43.822525" lon="12.4825317"><ele>332.75</ele><time>2026-05-02T05:36:09.789Z</time></trkpt><trkpt lat="43.8224133" lon="12.48249"><ele>328.5</ele><time>2026-05-02T05:36:10.789Z</time></trkpt><trkpt lat="43.8222967" lon="12.4824517"><ele>324.25</ele><time>2026-05-02T05:36:11.789Z</time></trkpt><trkpt lat="43.8221833" lon="12.4824317"><ele>320.0</ele><time>2026-05-02T05:36:12.789Z</time></trkpt><trkpt lat="43.8220783" lon="12.482425"><ele>320.0</ele><time>2026-05-02T05:36:13.789Z</time></trkpt><trkpt lat="43.821985" lon="12.4824183"><ele>320.0</ele><time>2026-05-02T05:36:14.79Z</time></trkpt><trkpt lat="43.821905" lon="12.4824033"><ele>320.0</ele><time>2026-05-02T05:36:15.79Z</time></trkpt><trkpt lat="43.8218333" lon="12.4823667"><ele>320.0</ele><time>2026-05-02T05:36:16.789Z</time></trkpt><trkpt lat="43.82178" lon="12.48231"><ele>320.0</ele><time>2026-05-02T05:36:17.786Z</time></trkpt><trkpt lat="43.8217317" lon="12.4822333"><ele>320.0</ele><time>2026-05-02T05:36:18.789Z</time></trkpt><trkpt lat="43.8217017" lon="12.4821333"><ele>318.83333333333337</ele><time>2026-05-02T05:36:19.789Z</time></trkpt><trkpt lat="43.82169" lon="12.4820267"><ele>317.6666666666667</ele><time>2026-05-02T05:36:20.789Z</time></trkpt><trkpt lat="43.8216867" lon="12.4819117"><ele>316.5</ele><time>2026-05-02T05:36:21.789Z</time></trkpt><trkpt lat="43.8216883" lon="12.4818017"><ele>315.3333333333333</ele><time>2026-05-02T05:36:22.789Z</time></trkpt><trkpt lat="43.8216817" lon="12.4816933"><ele>314.16666666666663</ele><time>2026-05-02T05:36:23.789Z</time></trkpt><trkpt lat="43.82166" lon="12.4816017"><ele>313.0</ele><time>2026-05-02T05:36:24.789Z</time></trkpt><trkpt lat="43.8215817" lon="12.4815"><ele>313.0</ele><time>2026-05-02T05:36:26.791Z</time></trkpt><trkpt lat="43.82146" lon="12.4815183"><ele>313.0</ele><time>2026-05-02T05:36:28.789Z</time></trkpt><trkpt lat="43.82137" lon="12.4815917"><ele>313.0</ele><time>2026-05-02T05:36:29.789Z</time></trkpt><trkpt lat="43.821275" lon="12.481675"><ele>313.0</ele><time>2026-05-02T05:36:30.79Z</time></trkpt><trkpt lat="43.8211817" lon="12.4817767"><ele>313.0</ele><time>2026-05-02T05:36:31.789Z</time></trkpt><trkpt lat="43.8210933" lon="12.4818683"><ele>313.0</ele><time>2026-05-02T05:36:32.79Z</time></trkpt><trkpt lat="43.8210033" lon="12.48195"><ele>313.0</ele><time>2026-05-02T05:36:33.789Z</time></trkpt><trkpt lat="43.820915" lon="12.4820167"><ele>313.0</ele><time>2026-05-02T05:36:34.79Z</time></trkpt><trkpt lat="43.820835" lon="12.4820733"><ele>313.0</ele><time>2026-05-02T05:36:35.789Z</time></trkpt><trkpt lat="43.82076" lon="12.4821167"><ele>310.8333333333333</ele><time>2026-05-02T05:36:36.789Z</time></trkpt><trkpt lat="43.820695" lon="12.4821417"><ele>308.66666666666663</ele><time>2026-05-02T05:36:37.79Z</time></trkpt><trkpt lat="43.8205983" lon="12.4821283"><ele>306.5</ele><time>2026-05-02T05:36:39.789Z</time></trkpt><trkpt lat="43.8205517" lon="12.4820283"><ele>304.3333333333333</ele><time>2026-05-02T05:36:41.789Z</time></trkpt><trkpt lat="43.8205583" lon="12.4819317"><ele>302.1666666666667</ele><time>2026-05-02T05:36:42.79Z</time></trkpt><trkpt lat="43.820595" lon="12.4818233"><ele>300.0</ele><time>2026-05-02T05:36:43.789Z</time></trkpt><trkpt lat="43.82061" lon="12.48172"><ele>298.8333333333333</ele><time>2026-05-02T05:36:44.79Z</time></trkpt><trkpt lat="43.820615" lon="12.4816067"><ele>297.6666666666667</ele><time>2026-05-02T05:36:45.789Z</time></trkpt><trkpt lat="43.820605" lon="12.4814867"><ele>296.5</ele><time>2026-05-02T05:36:46.789Z</time></trkpt><trkpt lat="43.8205817" lon="12.4813733"><ele>295.33333333333337</ele><time>2026-05-02T05:36:47.79Z</time></trkpt><trkpt lat="43.8205533" lon="12.48126"><ele>294.1666666666667</ele><time>2026-05-02T05:36:48.789Z</time></trkpt><trkpt lat="43.820525" lon="12.4811467"><ele>293.0</ele><time>2026-05-02T05:36:49.789Z</time></trkpt><trkpt lat="43.8205033" lon="12.4810333"><ele>291.8</ele><time>2026-05-02T05:36:50.789Z</time></trkpt><trkpt lat="43.8204917" lon="12.4809317"><ele>290.6</ele><time>2026-05-02T05:36:51.789Z</time></trkpt><trkpt lat="43.8204733" lon="12.4807733"><ele>289.4</ele><time>2026-05-02T05:36:53.79Z</time></trkpt><trkpt lat="43.8204083" lon="12.480705"><ele>288.2</ele><time>2026-05-02T05:36:55.789Z</time></trkpt><trkpt lat="43.8202967" lon="12.4807683"><ele>287.0</ele><time>2026-05-02T05:36:57.791Z</time></trkpt><trkpt lat="43.82025" lon="12.48083"><ele>287.0</ele><time>2026-05-02T05:36:58.789Z</time></trkpt><trkpt lat="43.8201983" lon="12.4809367"><ele>287.0</ele><time>2026-05-02T05:36:59.789Z</time></trkpt><trkpt lat="43.8201567" lon="12.4810533"><ele>287.0</ele><time>2026-05-02T05:37:00.789Z</time></trkpt><trkpt lat="43.8201117" lon="12.4811683"><ele>287.0</ele><time>2026-05-02T05:37:01.789Z</time></trkpt><trkpt lat="43.8200583" lon="12.4812667"><ele>287.0</ele><time>2026-05-02T05:37:02.789Z</time></trkpt><trkpt lat="43.8199933" lon="12.48135"><ele>283.2</ele><time>2026-05-02T05:37:03.79Z</time></trkpt><trkpt lat="43.81991" lon="12.4814167"><ele>279.4</ele><time>2026-05-02T05:37:04.789Z</time></trkpt><trkpt lat="43.81981" lon="12.4814583"><ele>275.6</ele><time>2026-05-02T05:37:05.79Z</time></trkpt><trkpt lat="43.8197167" lon="12.481495"><ele>271.8</ele><time>2026-05-02T05:37:06.789Z</time></trkpt><trkpt lat="43.81963" lon="12.4815233"><ele>268.0</ele><time>2026-05-02T05:37:07.789Z</time></trkpt><trkpt lat="43.8195517" lon="12.4815617"><ele>268.0</ele><time>2026-05-02T05:37:08.789Z</time></trkpt><trkpt lat="43.8194833" lon="12.481615"><ele>268.0</ele><time>2026-05-02T05:37:09.79Z</time></trkpt><trkpt lat="43.819425" lon="12.4816767"><ele>268.0</ele><time>2026-05-02T05:37:10.789Z</time></trkpt><trkpt lat="43.81938" lon="12.4817583"><ele>268.0</ele><time>2026-05-02T05:37:11.789Z</time></trkpt><trkpt lat="43.8193433" lon="12.48184"><ele>268.0</ele><time>2026-05-02T05:37:12.789Z</time></trkpt><trkpt lat="43.8192667" lon="12.481965"><ele>268.0</ele><time>2026-05-02T05:37:14.789Z</time></trkpt><trkpt lat="43.819165" lon="12.4820117"><ele>263.0</ele><time>2026-05-02T05:37:16.79Z</time></trkpt><trkpt lat="43.8190883" lon="12.4818967"><ele>258.0</ele><time>2026-05-02T05:37:18.79Z</time></trkpt><trkpt lat="43.8190683" lon="12.4817867"><ele>253.0</ele><time>2026-05-02T05:37:19.789Z</time></trkpt><trkpt lat="43.8190683" lon="12.4816483"><ele>248.0</ele><time>2026-05-02T05:37:20.79Z</time></trkpt><trkpt lat="43.8190833" lon="12.4815083"><ele>243.0</ele><time>2026-05-02T05:37:21.789Z</time></trkpt><trkpt lat="43.81909" lon="12.4813833"><ele>242.5</ele><time>2026-05-02T05:37:22.789Z</time></trkpt><trkpt lat="43.8191033" lon="12.48126"><ele>242.0</ele><time>2026-05-02T05:37:23.79Z</time></trkpt><trkpt lat="43.8191167" lon="12.48114"><ele>241.5</ele><time>2026-05-02T05:37:24.787Z</time></trkpt><trkpt lat="43.8191283" lon="12.481015"><ele>241.0</ele><time>2026-05-02T05:37:25.79Z</time></trkpt><trkpt lat="43.81914" lon="12.48089"><ele>240.5</ele><time>2026-05-02T05:37:26.79Z</time></trkpt><trkpt lat="43.8191483" lon="12.4807733"><ele>240.0</ele><time>2026-05-02T05:37:27.785Z</time></trkpt><trkpt lat="43.8191483" lon="12.4806667"><ele>240.0</ele><time>2026-05-02T05:37:28.788Z</time></trkpt><trkpt lat="43.81914" lon="12.48057"><ele>240.0</ele><time>2026-05-02T05:37:29.786Z</time></trkpt><trkpt lat="43.8190767" lon="12.48046"><ele>240.0</ele><time>2026-05-02T05:37:31.787Z</time></trkpt><trkpt lat="43.81901" lon="12.4804183"><ele>240.0</ele><time>2026-05-02T05:37:32.786Z</time></trkpt><trkpt lat="43.8189383" lon="12.4803783"><ele>240.0</ele><time>2026-05-02T05:37:33.786Z</time></trkpt><trkpt lat="43.8188683" lon="12.4803317"><ele>240.0</ele><time>2026-05-02T05:37:34.786Z</time></trkpt><trkpt lat="43.8188067" lon="12.4802917"><ele>240.0</ele><time>2026-05-02T05:37:35.787Z</time></trkpt><trkpt lat="43.81869" lon="12.4802767"><ele>240.0</ele><time>2026-05-02T05:37:37.788Z</time></trkpt><trkpt lat="43.8186317" lon="12.4803167"><ele>240.0</ele><time>2026-05-02T05:37:38.789Z</time></trkpt><trkpt lat="43.8185783" lon="12.48041"><ele>240.0</ele><time>2026-05-02T05:37:39.787Z</time></trkpt><trkpt lat="43.81853" lon="12.4805433"><ele>240.0</ele><time>2026-05-02T05:37:40.79Z</time></trkpt><trkpt lat="43.8184867" lon="12.4806683"><ele>237.33333333333334</ele><time>2026-05-02T05:37:41.789Z</time></trkpt><trkpt lat="43.8184567" lon="12.4807867"><ele>234.66666666666669</ele><time>2026-05-02T05:37:42.789Z</time></trkpt><trkpt lat="43.8184233" lon="12.4808983"><ele>232.0</ele><time>2026-05-02T05:37:43.786Z</time></trkpt><trkpt lat="43.81839" lon="12.4809833"><ele>229.33333333333334</ele><time>2026-05-02T05:37:44.789Z</time></trkpt><trkpt lat="43.818355" lon="12.481105"><ele>226.66666666666669</ele><time>2026-05-02T05:37:46.787Z</time></trkpt><trkpt lat="43.8183383" lon="12.481"><ele>224.0</ele><time>2026-05-02T05:37:53.791Z</time></trkpt><trkpt lat="43.8183567" lon="12.480915"><ele>224.0</ele><time>2026-05-02T05:37:55.789Z</time></trkpt><trkpt lat="43.8183717" lon="12.4808183"><ele>223.99999999999997</ele><time>2026-05-02T05:37:57.786Z</time></trkpt><trkpt lat="43.8183983" lon="12.4807017"><ele>223.99999999999997</ele><time>2026-05-02T05:37:59.786Z</time></trkpt><trkpt lat="43.8184267" lon="12.4805617"><ele>224.0</ele><time>2026-05-02T05:38:01.793Z</time></trkpt><trkpt lat="43.818445" lon="12.4804117"><ele>224.0</ele><time>2026-05-02T05:38:03.786Z</time></trkpt><trkpt lat="43.81847" lon="12.4802567"><ele>225.39999999999998</ele><time>2026-05-02T05:38:05.786Z</time></trkpt><trkpt lat="43.8185017" lon="12.4801"><ele>226.79999999999998</ele><time>2026-05-02T05:38:07.786Z</time></trkpt><trkpt lat="43.818515" lon="12.4799883"><ele>228.20000000000002</ele><time>2026-05-02T05:38:08.786Z</time></trkpt><trkpt lat="43.818545" lon="12.4798783"><ele>229.60000000000002</ele><time>2026-05-02T05:38:09.786Z</time></trkpt><trkpt lat="43.8185933" lon="12.4797667"><ele>231.0</ele><time>2026-05-02T05:38:10.786Z</time></trkpt><trkpt lat="43.8186683" lon="12.4796767"><ele>231.0</ele><time>2026-05-02T05:38:11.786Z</time></trkpt><trkpt lat="43.8187667" lon="12.4796117"><ele>231.0</ele><time>2026-05-02T05:38:12.786Z</time></trkpt><trkpt lat="43.8188783" lon="12.4795317"><ele>231.0</ele><time>2026-05-02T05:38:13.786Z</time></trkpt><trkpt lat="43.818975" lon="12.479415"><ele>231.0</ele><time>2026-05-02T05:38:14.786Z</time></trkpt><trkpt lat="43.8190633" lon="12.479265"><ele>231.5</ele><time>2026-05-02T05:38:15.786Z</time></trkpt><trkpt lat="43.8191367" lon="12.479095"><ele>232.0</ele><time>2026-05-02T05:38:16.789Z</time></trkpt><trkpt lat="43.8191883" lon="12.4789217"><ele>232.5</ele><time>2026-05-02T05:38:17.79Z</time></trkpt><trkpt lat="43.81925" lon="12.478775"><ele>233.0</ele><time>2026-05-02T05:38:18.789Z</time></trkpt><trkpt lat="43.819335" lon="12.4786467"><ele>233.75</ele><time>2026-05-02T05:38:19.786Z</time></trkpt><trkpt lat="43.8194583" lon="12.4785583"><ele>234.5</ele><time>2026-05-02T05:38:20.786Z</time></trkpt><trkpt lat="43.81957" lon="12.4784517"><ele>235.25</ele><time>2026-05-02T05:38:21.789Z</time></trkpt><trkpt lat="43.8196783" lon="12.4783417"><ele>236.0</ele><time>2026-05-02T05:38:22.786Z</time></trkpt><trkpt lat="43.8197733" lon="12.478215"><ele>236.0</ele><time>2026-05-02T05:38:23.79Z</time></trkpt><trkpt lat="43.8198567" lon="12.4780967"><ele>236.0</ele><time>2026-05-02T05:38:24.786Z</time></trkpt><trkpt lat="43.81993" lon="12.477975"><ele>236.0</ele><time>2026-05-02T05:38:25.786Z</time></trkpt><trkpt lat="43.8199967" lon="12.4778533"><ele>236.0</ele><time>2026-05-02T05:38:26.789Z</time></trkpt><trkpt lat="43.8200667" lon="12.4777383"><ele>235.75</ele><time>2026-05-02T05:38:27.787Z</time></trkpt><trkpt lat="43.82014" lon="12.4776167"><ele>235.5</ele><time>2026-05-02T05:38:28.786Z</time></trkpt><trkpt lat="43.8202083" lon="12.4774817"><ele>235.25</ele><time>2026-05-02T05:38:29.786Z</time></trkpt><trkpt lat="43.8202683" lon="12.4773317"><ele>235.0</ele><time>2026-05-02T05:38:30.787Z</time></trkpt><trkpt lat="43.820315" lon="12.47718"><ele>237.2</ele><time>2026-05-02T05:38:31.79Z</time></trkpt><trkpt lat="43.8203583" lon="12.4770333"><ele>239.4</ele><time>2026-05-02T05:38:32.786Z</time></trkpt><trkpt lat="43.8203917" lon="12.4768967"><ele>241.60000000000002</ele><time>2026-05-02T05:38:33.786Z</time></trkpt><trkpt lat="43.820425" lon="12.476765"><ele>243.8</ele><time>2026-05-02T05:38:34.786Z</time></trkpt><trkpt lat="43.8204567" lon="12.4766333"><ele>246.0</ele><time>2026-05-02T05:38:35.787Z</time></trkpt><trkpt lat="43.82049" lon="12.4765167"><ele>246.0</ele><time>2026-05-02T05:38:36.786Z</time></trkpt><trkpt lat="43.8205283" lon="12.4764033"><ele>246.0</ele><time>2026-05-02T05:38:37.785Z</time></trkpt><trkpt lat="43.8205583" lon="12.4762867"><ele>246.0</ele><time>2026-05-02T05:38:38.786Z</time></trkpt><trkpt lat="43.8205917" lon="12.4761867"><ele>246.0</ele><time>2026-05-02T05:38:39.786Z</time></trkpt><trkpt lat="43.8206233" lon="12.4760917"><ele>246.0</ele><time>2026-05-02T05:38:40.791Z</time></trkpt><trkpt lat="43.820655" lon="12.476005"><ele>246.0</ele><time>2026-05-02T05:38:41.789Z</time></trkpt><trkpt lat="43.8206833" lon="12.4759217"><ele>247.8</ele><time>2026-05-02T05:38:42.789Z</time></trkpt><trkpt lat="43.8207167" lon="12.4758367"><ele>249.60000000000002</ele><time>2026-05-02T05:38:43.789Z</time></trkpt><trkpt lat="43.8207583" lon="12.4757383"><ele>251.4</ele><time>2026-05-02T05:38:44.789Z</time></trkpt><trkpt lat="43.8207983" lon="12.4756333"><ele>253.2</ele><time>2026-05-02T05:38:45.79Z</time></trkpt><trkpt lat="43.8208433" lon="12.4755067"><ele>255.0</ele><time>2026-05-02T05:38:46.789Z</time></trkpt><trkpt lat="43.820895" lon="12.4753717"><ele>257.25</ele><time>2026-05-02T05:38:47.789Z</time></trkpt><trkpt lat="43.820965" lon="12.4752267"><ele>259.5</ele><time>2026-05-02T05:38:48.79Z</time></trkpt><trkpt lat="43.821045" lon="12.4750817"><ele>261.75</ele><time>2026-05-02T05:38:49.789Z</time></trkpt><trkpt lat="43.82113" lon="12.474935"><ele>264.0</ele><time>2026-05-02T05:38:50.789Z</time></trkpt><trkpt lat="43.821215" lon="12.474785"><ele>261.75</ele><time>2026-05-02T05:38:51.79Z</time></trkpt><trkpt lat="43.821295" lon="12.47463"><ele>259.5</ele><time>2026-05-02T05:38:52.79Z</time></trkpt><trkpt lat="43.8213617" lon="12.4744817"><ele>257.25</ele><time>2026-05-02T05:38:53.789Z</time></trkpt><trkpt lat="43.8214183" lon="12.4743417"><ele>255.0</ele><time>2026-05-02T05:38:54.789Z</time></trkpt><trkpt lat="43.82147" lon="12.4742067"><ele>255.0</ele><time>2026-05-02T05:38:55.789Z</time></trkpt><trkpt lat="43.8215167" lon="12.4740867"><ele>255.0</ele><time>2026-05-02T05:38:56.787Z</time></trkpt><trkpt lat="43.8215583" lon="12.4739833"><ele>255.0</ele><time>2026-05-02T05:38:57.786Z</time></trkpt><trkpt lat="43.82159" lon="12.4738983"><ele>255.0</ele><time>2026-05-02T05:38:58.787Z</time></trkpt><trkpt lat="43.821605" lon="12.47378"><ele>255.0</ele><time>2026-05-02T05:39:00.787Z</time></trkpt><trkpt lat="43.8215317" lon="12.47377"><ele>255.0</ele><time>2026-05-02T05:39:03.787Z</time></trkpt><trkpt lat="43.8214383" lon="12.4738833"><ele>255.0</ele><time>2026-05-02T05:39:05.787Z</time></trkpt><trkpt lat="43.8213833" lon="12.473965"><ele>255.0</ele><time>2026-05-02T05:39:06.786Z</time></trkpt><trkpt lat="43.82133" lon="12.47404"><ele>255.0</ele><time>2026-05-02T05:39:07.789Z</time></trkpt><trkpt lat="43.8212617" lon="12.4741333"><ele>255.0</ele><time>2026-05-02T05:39:08.788Z</time></trkpt><trkpt lat="43.8211917" lon="12.47423"><ele>255.0</ele><time>2026-05-02T05:39:09.786Z</time></trkpt><trkpt lat="43.82111" lon="12.474325"><ele>255.0</ele><time>2026-05-02T05:39:10.786Z</time></trkpt><trkpt lat="43.821015" lon="12.4744117"><ele>255.0</ele><time>2026-05-02T05:39:11.787Z</time></trkpt><trkpt lat="43.8209067" lon="12.4744817"><ele>255.0</ele><time>2026-05-02T05:39:12.786Z</time></trkpt><trkpt lat="43.8207983" lon="12.474535"><ele>255.0</ele><time>2026-05-02T05:39:13.786Z</time></trkpt><trkpt lat="43.82069" lon="12.47458"><ele>257.25</ele><time>2026-05-02T05:39:14.79Z</time></trkpt><trkpt lat="43.8205683" lon="12.474615"><ele>259.5</ele><time>2026-05-02T05:39:15.785Z</time></trkpt><trkpt lat="43.820445" lon="12.4746533"><ele>261.75</ele><time>2026-05-02T05:39:16.786Z</time></trkpt><trkpt lat="43.8203183" lon="12.4746983"><ele>264.0</ele><time>2026-05-02T05:39:17.787Z</time></trkpt><trkpt lat="43.8201867" lon="12.4747567"><ele>269.5</ele><time>2026-05-02T05:39:18.786Z</time></trkpt><trkpt lat="43.82005" lon="12.4748083"><ele>275.0</ele><time>2026-05-02T05:39:19.789Z</time></trkpt><trkpt lat="43.8199167" lon="12.4748517"><ele>280.5</ele><time>2026-05-02T05:39:20.788Z</time></trkpt><trkpt lat="43.8197933" lon="12.474895"><ele>286.0</ele><time>2026-05-02T05:39:21.786Z</time></trkpt><trkpt lat="43.8196833" lon="12.4749383"><ele>286.0</ele><time>2026-05-02T05:39:22.786Z</time></trkpt><trkpt lat="43.8195817" lon="12.47498"><ele>286.0</ele><time>2026-05-02T05:39:23.787Z</time></trkpt><trkpt lat="43.8194983" lon="12.47502"><ele>286.0</ele><time>2026-05-02T05:39:24.786Z</time></trkpt><trkpt lat="43.819425" lon="12.4750283"><ele>286.0</ele><time>2026-05-02T05:39:26.787Z</time></trkpt><trkpt lat="43.819545" lon="12.4750667"><ele>286.0</ele><time>2026-05-02T05:39:46.787Z</time></trkpt><trkpt lat="43.8195083" lon="12.4751517"><ele>286.0</ele><time>2026-05-02T05:39:48.786Z</time></trkpt><trkpt lat="43.819465" lon="12.47522"><ele>286.0</ele><time>2026-05-02T05:39:49.786Z</time></trkpt><trkpt lat="43.819395" lon="12.4753083"><ele>286.0</ele><time>2026-05-02T05:39:50.789Z</time></trkpt><trkpt lat="43.8193267" lon="12.4753817"><ele>286.0</ele><time>2026-05-02T05:39:51.79Z</time></trkpt><trkpt lat="43.8192717" lon="12.4754467"><ele>286.0</ele><time>2026-05-02T05:39:52.79Z</time></trkpt><trkpt lat="43.8191767" lon="12.4755167"><ele>286.0</ele><time>2026-05-02T05:39:54.789Z</time></trkpt><trkpt lat="43.8191383" lon="12.4754183"><ele>289.8333333333333</ele><time>2026-05-02T05:39:57.787Z</time></trkpt><trkpt lat="43.8191617" lon="12.4752867"><ele>293.66666666666663</ele><time>2026-05-02T05:39:59.786Z</time></trkpt><trkpt lat="43.8191733" lon="12.4751933"><ele>297.5</ele><time>2026-05-02T05:40:00.786Z</time></trkpt><trkpt lat="43.8191883" lon="12.4750883"><ele>301.3333333333333</ele><time>2026-05-02T05:40:01.786Z</time></trkpt><trkpt lat="43.8192117" lon="12.4749767"><ele>305.1666666666667</ele><time>2026-05-02T05:40:02.786Z</time></trkpt><trkpt lat="43.81925" lon="12.4748567"><ele>309.0</ele><time>2026-05-02T05:40:03.791Z</time></trkpt><trkpt lat="43.8192833" lon="12.47474"><ele>307.2</ele><time>2026-05-02T05:40:04.786Z</time></trkpt><trkpt lat="43.81932" lon="12.4746167"><ele>305.4</ele><time>2026-05-02T05:40:05.79Z</time></trkpt><trkpt lat="43.81937" lon="12.4745017"><ele>303.6</ele><time>2026-05-02T05:40:06.786Z</time></trkpt><trkpt lat="43.8194383" lon="12.4743967"><ele>301.8</ele><time>2026-05-02T05:40:07.787Z</time></trkpt><trkpt lat="43.819515" lon="12.4742983"><ele>300.0</ele><time>2026-05-02T05:40:08.786Z</time></trkpt><trkpt lat="43.8196017" lon="12.4742033"><ele>300.0</ele><time>2026-05-02T05:40:09.788Z</time></trkpt><trkpt lat="43.8196833" lon="12.4741"><ele>300.0</ele><time>2026-05-02T05:40:10.786Z</time></trkpt><trkpt lat="43.8197433" lon="12.4739883"><ele>300.0</ele><time>2026-05-02T05:40:11.786Z</time></trkpt><trkpt lat="43.8198033" lon="12.4738617"><ele>300.0</ele><time>2026-05-02T05:40:12.789Z</time></trkpt><trkpt lat="43.8198533" lon="12.4737183"><ele>300.0</ele><time>2026-05-02T05:40:13.786Z</time></trkpt><trkpt lat="43.8199" lon="12.473565"><ele>304.25</ele><time>2026-05-02T05:40:14.789Z</time></trkpt><trkpt lat="43.8199483" lon="12.47341"><ele>308.5</ele><time>2026-05-02T05:40:15.786Z</time></trkpt><trkpt lat="43.8199983" lon="12.4732533"><ele>312.75</ele><time>2026-05-02T05:40:16.787Z</time></trkpt><trkpt lat="43.8200683" lon="12.4730983"><ele>317.0</ele><time>2026-05-02T05:40:17.787Z</time></trkpt><trkpt lat="43.8201217" lon="12.4729583"><ele>314.8</ele><time>2026-05-02T05:40:18.786Z</time></trkpt><trkpt lat="43.82019" lon="12.4728317"><ele>312.6</ele><time>2026-05-02T05:40:19.786Z</time></trkpt><trkpt lat="43.8202417" lon="12.4726933"><ele>310.40000000000003</ele><time>2026-05-02T05:40:20.789Z</time></trkpt><trkpt lat="43.8202733" lon="12.472555"><ele>308.2</ele><time>2026-05-02T05:40:21.789Z</time></trkpt><trkpt lat="43.8202883" lon="12.47241"><ele>306.0</ele><time>2026-05-02T05:40:22.786Z</time></trkpt><trkpt lat="43.8202917" lon="12.472255"><ele>308.0</ele><time>2026-05-02T05:40:23.791Z</time></trkpt><trkpt lat="43.8202817" lon="12.4720967"><ele>310.0</ele><time>2026-05-02T05:40:24.789Z</time></trkpt><trkpt lat="43.8202767" lon="12.471945"><ele>312.0</ele><time>2026-05-02T05:40:25.789Z</time></trkpt><trkpt lat="43.8202967" lon="12.471805"><ele>314.0</ele><time>2026-05-02T05:40:26.786Z</time></trkpt><trkpt lat="43.8203317" lon="12.4716683"><ele>316.0</ele><time>2026-05-02T05:40:27.79Z</time></trkpt><trkpt lat="43.8203883" lon="12.4715317"><ele>316.0</ele><time>2026-05-02T05:40:28.789Z</time></trkpt><trkpt lat="43.8204583" lon="12.471395"><ele>316.0</ele><time>2026-05-02T05:40:29.786Z</time></trkpt><trkpt lat="43.8205367" lon="12.4712533"><ele>316.0</ele><time>2026-05-02T05:40:30.79Z</time></trkpt><trkpt lat="43.8206167" lon="12.47111"><ele>316.0</ele><time>2026-05-02T05:40:31.79Z</time></trkpt><trkpt lat="43.8206917" lon="12.4709583"><ele>319.75</ele><time>2026-05-02T05:40:32.789Z</time></trkpt><trkpt lat="43.8207617" lon="12.4708033"><ele>323.5</ele><time>2026-05-02T05:40:33.786Z</time></trkpt><trkpt lat="43.8208317" lon="12.4706417"><ele>327.25</ele><time>2026-05-02T05:40:34.786Z</time></trkpt><trkpt lat="43.820905" lon="12.470475"><ele>331.0</ele><time>2026-05-02T05:40:35.787Z</time></trkpt><trkpt lat="43.820975" lon="12.470315"><ele>329.5</ele><time>2026-05-02T05:40:36.786Z</time></trkpt><trkpt lat="43.8210333" lon="12.4701467"><ele>328.0</ele><time>2026-05-02T05:40:37.786Z</time></trkpt><trkpt lat="43.8210833" lon="12.46997"><ele>326.5</ele><time>2026-05-02T05:40:38.787Z</time></trkpt><trkpt lat="43.8211283" lon="12.4697917"><ele>325.0</ele><time>2026-05-02T05:40:39.786Z</time></trkpt><trkpt lat="43.82117" lon="12.46963"><ele>325.8333333333333</ele><time>2026-05-02T05:40:40.786Z</time></trkpt><trkpt lat="43.821205" lon="12.469485"><ele>326.66666666666663</ele><time>2026-05-02T05:40:41.786Z</time></trkpt><trkpt lat="43.821225" lon="12.4693533"><ele>327.5</ele><time>2026-05-02T05:40:42.786Z</time></trkpt><trkpt lat="43.8212217" lon="12.46924"><ele>328.3333333333333</ele><time>2026-05-02T05:40:43.786Z</time></trkpt><trkpt lat="43.8212" lon="12.4691417"><ele>329.1666666666667</ele><time>2026-05-02T05:40:44.787Z</time></trkpt><trkpt lat="43.8211517" lon="12.4690567"><ele>330.0</ele><time>2026-05-02T05:40:45.787Z</time></trkpt><trkpt lat="43.8210783" lon="12.46899"><ele>330.0</ele><time>2026-05-02T05:40:46.788Z</time></trkpt><trkpt lat="43.8209867" lon="12.4689317"><ele>330.0</ele><time>2026-05-02T05:40:47.787Z</time></trkpt><trkpt lat="43.8208783" lon="12.4688783"><ele>330.0</ele><time>2026-05-02T05:40:48.787Z</time></trkpt><trkpt lat="43.82077" lon="12.468825"><ele>330.0</ele><time>2026-05-02T05:40:49.79Z</time></trkpt><trkpt lat="43.820665" lon="12.46877"><ele>330.0</ele><time>2026-05-02T05:40:50.789Z</time></trkpt><trkpt lat="43.820575" lon="12.4687267"><ele>331.8333333333333</ele><time>2026-05-02T05:40:51.789Z</time></trkpt><trkpt lat="43.8204917" lon="12.468705"><ele>333.6666666666667</ele><time>2026-05-02T05:40:52.789Z</time></trkpt><trkpt lat="43.8204067" lon="12.4687017"><ele>335.5</ele><time>2026-05-02T05:40:53.79Z</time></trkpt><trkpt lat="43.8203267" lon="12.4687267"><ele>337.33333333333337</ele><time>2026-05-02T05:40:54.789Z</time></trkpt><trkpt lat="43.8202783" lon="12.4687983"><ele>339.1666666666667</ele><time>2026-05-02T05:40:55.79Z</time></trkpt><trkpt lat="43.8202567" lon="12.4688833"><ele>341.0</ele><time>2026-05-02T05:40:56.789Z</time></trkpt><trkpt lat="43.8202683" lon="12.4689883"><ele>341.6</ele><time>2026-05-02T05:40:57.789Z</time></trkpt><trkpt lat="43.82029" lon="12.4691"><ele>342.20000000000005</ele><time>2026-05-02T05:40:58.789Z</time></trkpt><trkpt lat="43.8203317" lon="12.4692417"><ele>342.79999999999995</ele><time>2026-05-02T05:40:59.791Z</time></trkpt><trkpt lat="43.82039" lon="12.4694017"><ele>343.4</ele><time>2026-05-02T05:41:00.789Z</time></trkpt><trkpt lat="43.8204383" lon="12.4695383"><ele>344.0</ele><time>2026-05-02T05:41:01.789Z</time></trkpt><trkpt lat="43.820465" lon="12.4696517"><ele>344.0</ele><time>2026-05-02T05:41:02.79Z</time></trkpt><trkpt lat="43.8204767" lon="12.4697583"><ele>344.0</ele><time>2026-05-02T05:41:03.789Z</time></trkpt><trkpt lat="43.8204733" lon="12.46986"><ele>344.0</ele><time>2026-05-02T05:41:04.79Z</time></trkpt><trkpt lat="43.8204433" lon="12.4699433"><ele>344.0</ele><time>2026-05-02T05:41:05.789Z</time></trkpt><trkpt lat="43.82038" lon="12.4700067"><ele>344.0</ele><time>2026-05-02T05:41:06.79Z</time></trkpt><trkpt lat="43.8202983" lon="12.47003"><ele>344.0</ele><time>2026-05-02T05:41:07.789Z</time></trkpt><trkpt lat="43.82022" lon="12.4700117"><ele>347.5</ele><time>2026-05-02T05:41:08.79Z</time></trkpt><trkpt lat="43.8201267" lon="12.4699217"><ele>351.0</ele><time>2026-05-02T05:41:09.791Z</time></trkpt><trkpt lat="43.8200333" lon="12.4698117"><ele>354.5</ele><time>2026-05-02T05:41:10.789Z</time></trkpt><trkpt lat="43.8199167" lon="12.4696717"><ele>358.0</ele><time>2026-05-02T05:41:11.79Z</time></trkpt><trkpt lat="43.8198017" lon="12.469545"><ele>358.0</ele><time>2026-05-02T05:41:12.79Z</time></trkpt><trkpt lat="43.819685" lon="12.4694033"><ele>358.0</ele><time>2026-05-02T05:41:13.79Z</time></trkpt><trkpt lat="43.8195817" lon="12.4692433"><ele>358.0</ele><time>2026-05-02T05:41:14.789Z</time></trkpt><trkpt lat="43.819485" lon="12.469065"><ele>358.0</ele><time>2026-05-02T05:41:15.79Z</time></trkpt><trkpt lat="43.8194017" lon="12.46888"><ele>358.0</ele><time>2026-05-02T05:41:16.791Z</time></trkpt><trkpt lat="43.8193317" lon="12.4687017"><ele>358.0</ele><time>2026-05-02T05:41:17.79Z</time></trkpt><trkpt lat="43.8192733" lon="12.468545"><ele>358.0</ele><time>2026-05-02T05:41:18.789Z</time></trkpt><trkpt lat="43.8192217" lon="12.4683933"><ele>362.75</ele><time>2026-05-02T05:41:19.786Z</time></trkpt><trkpt lat="43.8191817" lon="12.4682283"><ele>367.5</ele><time>2026-05-02T05:41:20.788Z</time></trkpt><trkpt lat="43.81915" lon="12.468055"><ele>372.25</ele><time>2026-05-02T05:41:21.79Z</time></trkpt><trkpt lat="43.8191183" lon="12.4678667"><ele>377.0</ele><time>2026-05-02T05:41:22.787Z</time></trkpt><trkpt lat="43.81909" lon="12.4676767"><ele>377.0</ele><time>2026-05-02T05:41:23.79Z</time></trkpt><trkpt lat="43.8190533" lon="12.467495"><ele>377.0</ele><time>2026-05-02T05:41:24.787Z</time></trkpt><trkpt lat="43.8190117" lon="12.4673317"><ele>377.0</ele><time>2026-05-02T05:41:25.79Z</time></trkpt><trkpt lat="43.8189717" lon="12.46718"><ele>377.0</ele><time>2026-05-02T05:41:26.79Z</time></trkpt><trkpt lat="43.8189283" lon="12.4670333"><ele>377.40000000000003</ele><time>2026-05-02T05:41:27.791Z</time></trkpt><trkpt lat="43.818885" lon="12.466905"><ele>377.8</ele><time>2026-05-02T05:41:28.791Z</time></trkpt><trkpt lat="43.8188567" lon="12.4667817"><ele>378.2</ele><time>2026-05-02T05:41:29.79Z</time></trkpt><trkpt lat="43.8188367" lon="12.46666"><ele>378.6</ele><time>2026-05-02T05:41:30.787Z</time></trkpt><trkpt lat="43.8188333" lon="12.46652"><ele>379.0</ele><time>2026-05-02T05:41:31.786Z</time></trkpt><trkpt lat="43.8188467" lon="12.4663767"><ele>380.6</ele><time>2026-05-02T05:41:32.787Z</time></trkpt><trkpt lat="43.818875" lon="12.4662183"><ele>382.2</ele><time>2026-05-02T05:41:33.787Z</time></trkpt><trkpt lat="43.81892" lon="12.46607"><ele>383.8</ele><time>2026-05-02T05:41:34.787Z</time></trkpt><trkpt lat="43.8189717" lon="12.4659367"><ele>385.40000000000003</ele><time>2026-05-02T05:41:35.791Z</time></trkpt><trkpt lat="43.8190167" lon="12.46582"><ele>387.0</ele><time>2026-05-02T05:41:36.787Z</time></trkpt><trkpt lat="43.81904" lon="12.4657017"><ele>387.0</ele><time>2026-05-02T05:41:37.786Z</time></trkpt><trkpt lat="43.81905" lon="12.4655783"><ele>387.0</ele><time>2026-05-02T05:41:38.786Z</time></trkpt><trkpt lat="43.8190533" lon="12.4654383"><ele>387.0</ele><time>2026-05-02T05:41:39.787Z</time></trkpt><trkpt lat="43.8190433" lon="12.4652767"><ele>387.0</ele><time>2026-05-02T05:41:40.787Z</time></trkpt><trkpt lat="43.819025" lon="12.465105"><ele>387.0</ele><time>2026-05-02T05:41:41.79Z</time></trkpt><trkpt lat="43.8190017" lon="12.464945"><ele>388.25</ele><time>2026-05-02T05:41:42.79Z</time></trkpt><trkpt lat="43.8189533" lon="12.4647883"><ele>389.5</ele><time>2026-05-02T05:41:43.79Z</time></trkpt><trkpt lat="43.8188867" lon="12.4646433"><ele>390.75</ele><time>2026-05-02T05:41:44.788Z</time></trkpt><trkpt lat="43.8188167" lon="12.464505"><ele>392.0</ele><time>2026-05-02T05:41:45.791Z</time></trkpt><trkpt lat="43.8187417" lon="12.4643617"><ele>392.25</ele><time>2026-05-02T05:41:46.786Z</time></trkpt><trkpt lat="43.8186717" lon="12.4642083"><ele>392.5</ele><time>2026-05-02T05:41:47.79Z</time></trkpt><trkpt lat="43.8186083" lon="12.46402"><ele>392.75</ele><time>2026-05-02T05:41:48.789Z</time></trkpt><trkpt lat="43.818555" lon="12.4638083"><ele>393.0</ele><time>2026-05-02T05:41:49.791Z</time></trkpt><trkpt lat="43.8185117" lon="12.4635867"><ele>396.66666666666663</ele><time>2026-05-02T05:41:50.79Z</time></trkpt><trkpt lat="43.8184683" lon="12.463365"><ele>400.3333333333333</ele><time>2026-05-02T05:41:51.79Z</time></trkpt><trkpt lat="43.818425" lon="12.4631567"><ele>404.0</ele><time>2026-05-02T05:41:52.789Z</time></trkpt><trkpt lat="43.8183883" lon="12.4629633"><ele>404.25</ele><time>2026-05-02T05:41:53.789Z</time></trkpt><trkpt lat="43.8183583" lon="12.46279"><ele>404.5</ele><time>2026-05-02T05:41:54.789Z</time></trkpt><trkpt lat="43.8183467" lon="12.4626317"><ele>404.75</ele><time>2026-05-02T05:41:55.789Z</time></trkpt><trkpt lat="43.8183617" lon="12.4624767"><ele>405.0</ele><time>2026-05-02T05:41:56.789Z</time></trkpt><trkpt lat="43.8184017" lon="12.4623233"><ele>405.0</ele><time>2026-05-02T05:41:57.79Z</time></trkpt><trkpt lat="43.818465" lon="12.4621683"><ele>405.0</ele><time>2026-05-02T05:41:58.789Z</time></trkpt><trkpt lat="43.8185433" lon="12.4620233"><ele>405.0</ele><time>2026-05-02T05:41:59.789Z</time></trkpt><trkpt lat="43.8186333" lon="12.4618883"><ele>405.0</ele><time>2026-05-02T05:42:00.789Z</time></trkpt><trkpt lat="43.8187383" lon="12.4617667"><ele>408.25</ele><time>2026-05-02T05:42:01.789Z</time></trkpt><trkpt lat="43.8188567" lon="12.4616767"><ele>411.5</ele><time>2026-05-02T05:42:02.789Z</time></trkpt><trkpt lat="43.8189817" lon="12.46161"><ele>414.75</ele><time>2026-05-02T05:42:03.788Z</time></trkpt><trkpt lat="43.8191133" lon="12.461575"><ele>418.0</ele><time>2026-05-02T05:42:04.789Z</time></trkpt><trkpt lat="43.8192433" lon="12.46158"><ele>421.25</ele><time>2026-05-02T05:42:05.789Z</time></trkpt><trkpt lat="43.819365" lon="12.4616217"><ele>424.5</ele><time>2026-05-02T05:42:06.789Z</time></trkpt><trkpt lat="43.8194867" lon="12.4616683"><ele>427.75</ele><time>2026-05-02T05:42:07.789Z</time></trkpt><trkpt lat="43.819605" lon="12.4617183"><ele>431.0</ele><time>2026-05-02T05:42:08.789Z</time></trkpt><trkpt lat="43.81972" lon="12.4617583"><ele>431.0</ele><time>2026-05-02T05:42:09.789Z</time></trkpt><trkpt lat="43.81983" lon="12.4617933"><ele>431.0</ele><time>2026-05-02T05:42:10.789Z</time></trkpt><trkpt lat="43.8199417" lon="12.4618217"><ele>431.0</ele><time>2026-05-02T05:42:11.789Z</time></trkpt><trkpt lat="43.8200567" lon="12.4618467"><ele>431.0</ele><time>2026-05-02T05:42:12.785Z</time></trkpt><trkpt lat="43.8201717" lon="12.4618583"><ele>429.4</ele><time>2026-05-02T05:42:13.786Z</time></trkpt><trkpt lat="43.82028" lon="12.4618617"><ele>427.8</ele><time>2026-05-02T05:42:14.79Z</time></trkpt><trkpt lat="43.8203883" lon="12.4618517"><ele>426.2</ele><time>2026-05-02T05:42:15.789Z</time></trkpt><trkpt lat="43.8204933" lon="12.4618183"><ele>424.59999999999997</ele><time>2026-05-02T05:42:16.79Z</time></trkpt><trkpt lat="43.8205883" lon="12.46178"><ele>423.0</ele><time>2026-05-02T05:42:17.785Z</time></trkpt><trkpt lat="43.8206733" lon="12.4617133"><ele>423.0</ele><time>2026-05-02T05:42:18.785Z</time></trkpt><trkpt lat="43.820735" lon="12.461615"><ele>423.0</ele><time>2026-05-02T05:42:19.789Z</time></trkpt><trkpt lat="43.8207717" lon="12.461525"><ele>423.0</ele><time>2026-05-02T05:42:20.789Z</time></trkpt><trkpt lat="43.8207217" lon="12.4613767"><ele>423.0</ele><time>2026-05-02T05:42:22.789Z</time></trkpt><trkpt lat="43.8206517" lon="12.4613283"><ele>423.0</ele><time>2026-05-02T05:42:23.79Z</time></trkpt><trkpt lat="43.8205717" lon="12.461305"><ele>423.0</ele><time>2026-05-02T05:42:24.789Z</time></trkpt><trkpt lat="43.8204717" lon="12.4612833"><ele>422.4</ele><time>2026-05-02T05:42:25.788Z</time></trkpt><trkpt lat="43.8203667" lon="12.4612333"><ele>421.79999999999995</ele><time>2026-05-02T05:42:26.789Z</time></trkpt><trkpt lat="43.8202833" lon="12.4611383"><ele>421.2</ele><time>2026-05-02T05:42:27.789Z</time></trkpt><trkpt lat="43.8202233" lon="12.461015"><ele>420.6</ele><time>2026-05-02T05:42:28.792Z</time></trkpt><trkpt lat="43.820175" lon="12.4608683"><ele>420.0</ele><time>2026-05-02T05:42:29.789Z</time></trkpt><trkpt lat="43.8201267" lon="12.4607117"><ele>424.25</ele><time>2026-05-02T05:42:30.789Z</time></trkpt><trkpt lat="43.820075" lon="12.46055"><ele>428.5</ele><time>2026-05-02T05:42:31.789Z</time></trkpt><trkpt lat="43.8200117" lon="12.4603867"><ele>432.75</ele><time>2026-05-02T05:42:32.787Z</time></trkpt><trkpt lat="43.8199517" lon="12.460225"><ele>437.0</ele><time>2026-05-02T05:42:33.79Z</time></trkpt><trkpt lat="43.8199017" lon="12.4600633"><ele>437.0</ele><time>2026-05-02T05:42:34.789Z</time></trkpt><trkpt lat="43.81986" lon="12.4598983"><ele>437.0</ele><time>2026-05-02T05:42:35.787Z</time></trkpt><trkpt lat="43.81984" lon="12.4597267"><ele>437.0</ele><time>2026-05-02T05:42:36.789Z</time></trkpt><trkpt lat="43.8198433" lon="12.4595483"><ele>437.0</ele><time>2026-05-02T05:42:37.789Z</time></trkpt><trkpt lat="43.819855" lon="12.459355"><ele>439.25</ele><time>2026-05-02T05:42:38.785Z</time></trkpt><trkpt lat="43.81988" lon="12.459155"><ele>441.5</ele><time>2026-05-02T05:42:39.786Z</time></trkpt><trkpt lat="43.819925" lon="12.45896"><ele>443.75</ele><time>2026-05-02T05:42:40.789Z</time></trkpt><trkpt lat="43.8199733" lon="12.45876"><ele>446.0</ele><time>2026-05-02T05:42:41.79Z</time></trkpt><trkpt lat="43.8200167" lon="12.45858"><ele>448.6</ele><time>2026-05-02T05:42:42.789Z</time></trkpt><trkpt lat="43.8200417" lon="12.45843"><ele>451.20000000000005</ele><time>2026-05-02T05:42:43.789Z</time></trkpt><trkpt lat="43.8200367" lon="12.4583133"><ele>453.79999999999995</ele><time>2026-05-02T05:42:44.789Z</time></trkpt><trkpt lat="43.8200117" lon="12.458195"><ele>456.4</ele><time>2026-05-02T05:42:45.789Z</time></trkpt><trkpt lat="43.81997" lon="12.4580833"><ele>459.0</ele><time>2026-05-02T05:42:46.79Z</time></trkpt><trkpt lat="43.8199083" lon="12.4579867"><ele>461.79999999999995</ele><time>2026-05-02T05:42:47.789Z</time></trkpt><trkpt lat="43.81982" lon="12.4579283"><ele>464.59999999999997</ele><time>2026-05-02T05:42:48.788Z</time></trkpt><trkpt lat="43.819745" lon="12.4578683"><ele>467.4</ele><time>2026-05-02T05:42:49.791Z</time></trkpt><trkpt lat="43.81965" lon="12.4578417"><ele>470.2</ele><time>2026-05-02T05:42:50.786Z</time></trkpt><trkpt lat="43.8195433" lon="12.4578683"><ele>473.0</ele><time>2026-05-02T05:42:51.787Z</time></trkpt><trkpt lat="43.8194333" lon="12.4578833"><ele>478.75</ele><time>2026-05-02T05:42:52.786Z</time></trkpt><trkpt lat="43.819315" lon="12.4579033"><ele>484.5</ele><time>2026-05-02T05:42:53.786Z</time></trkpt><trkpt lat="43.8192083" lon="12.4578983"><ele>490.25</ele><time>2026-05-02T05:42:54.785Z</time></trkpt><trkpt lat="43.81909" lon="12.4578733"><ele>496.0</ele><time>2026-05-02T05:42:55.786Z</time></trkpt><trkpt lat="43.81897" lon="12.45785"><ele>496.0</ele><time>2026-05-02T05:42:56.785Z</time></trkpt><trkpt lat="43.8188433" lon="12.4578283"><ele>496.0</ele><time>2026-05-02T05:42:57.786Z</time></trkpt><trkpt lat="43.8187183" lon="12.4577983"><ele>496.0</ele><time>2026-05-02T05:42:58.787Z</time></trkpt><trkpt lat="43.8186017" lon="12.45779"><ele>496.0</ele><time>2026-05-02T05:42:59.786Z</time></trkpt><trkpt lat="43.8184967" lon="12.4577717"><ele>492.8</ele><time>2026-05-02T05:43:00.785Z</time></trkpt><trkpt lat="43.81841" lon="12.457735"><ele>489.6</ele><time>2026-05-02T05:43:01.786Z</time></trkpt><trkpt lat="43.8183417" lon="12.457695"><ele>486.4</ele><time>2026-05-02T05:43:02.789Z</time></trkpt><trkpt lat="43.81832" lon="12.457545"><ele>483.2</ele><time>2026-05-02T05:43:04.786Z</time></trkpt><trkpt lat="43.8183567" lon="12.4574183"><ele>480.0</ele><time>2026-05-02T05:43:05.79Z</time></trkpt><trkpt lat="43.8183767" lon="12.45729"><ele>480.0</ele><time>2026-05-02T05:43:06.789Z</time></trkpt><trkpt lat="43.818385" lon="12.45715"><ele>480.0</ele><time>2026-05-02T05:43:07.786Z</time></trkpt><trkpt lat="43.81839" lon="12.4569983"><ele>480.0</ele><time>2026-05-02T05:43:08.79Z</time></trkpt><trkpt lat="43.8183533" lon="12.45685"><ele>480.0</ele><time>2026-05-02T05:43:09.789Z</time></trkpt><trkpt lat="43.8182917" lon="12.4567283"><ele>480.0</ele><time>2026-05-02T05:43:10.79Z</time></trkpt><trkpt lat="43.8182017" lon="12.4566633"><ele>482.4</ele><time>2026-05-02T05:43:11.786Z</time></trkpt><trkpt lat="43.8180917" lon="12.4566483"><ele>484.8</ele><time>2026-05-02T05:43:12.789Z</time></trkpt><trkpt lat="43.817985" lon="12.4566417"><ele>487.20000000000005</ele><time>2026-05-02T05:43:13.789Z</time></trkpt><trkpt lat="43.8178733" lon="12.4566383"><ele>489.6</ele><time>2026-05-02T05:43:14.787Z</time></trkpt><trkpt lat="43.8177683" lon="12.4566183"><ele>492.0</ele><time>2026-05-02T05:43:15.786Z</time></trkpt><trkpt lat="43.8176617" lon="12.4565933"><ele>489.75</ele><time>2026-05-02T05:43:16.786Z</time></trkpt><trkpt lat="43.817545" lon="12.456565"><ele>487.5</ele><time>2026-05-02T05:43:17.789Z</time></trkpt><trkpt lat="43.8174133" lon="12.456525"><ele>485.25</ele><time>2026-05-02T05:43:18.785Z</time></trkpt><trkpt lat="43.8172733" lon="12.45648"><ele>483.0</ele><time>2026-05-02T05:43:19.787Z</time></trkpt><trkpt lat="43.8171283" lon="12.45644"><ele>483.0</ele><time>2026-05-02T05:43:20.787Z</time></trkpt><trkpt lat="43.816975" lon="12.456395"><ele>483.0</ele><time>2026-05-02T05:43:21.786Z</time></trkpt><trkpt lat="43.8168233" lon="12.4563333"><ele>483.0</ele><time>2026-05-02T05:43:22.79Z</time></trkpt><trkpt lat="43.8166767" lon="12.45627"><ele>486.25</ele><time>2026-05-02T05:43:23.788Z</time></trkpt><trkpt lat="43.8165233" lon="12.4562033"><ele>489.5</ele><time>2026-05-02T05:43:24.785Z</time></trkpt><trkpt lat="43.8163833" lon="12.4561367"><ele>492.75</ele><time>2026-05-02T05:43:25.786Z</time></trkpt><trkpt lat="43.81625" lon="12.4560783"><ele>496.0</ele><time>2026-05-02T05:43:26.785Z</time></trkpt><trkpt lat="43.8161317" lon="12.45602"><ele>496.0</ele><time>2026-05-02T05:43:27.79Z</time></trkpt><trkpt lat="43.8160167" lon="12.4559683"><ele>496.0</ele><time>2026-05-02T05:43:28.786Z</time></trkpt><trkpt lat="43.8159083" lon="12.455905"><ele>496.0</ele><time>2026-05-02T05:43:29.786Z</time></trkpt><trkpt lat="43.815805" lon="12.455865"><ele>496.0</ele><time>2026-05-02T05:43:30.785Z</time></trkpt><trkpt lat="43.8157083" lon="12.4558483"><ele>496.0</ele><time>2026-05-02T05:43:31.789Z</time></trkpt><trkpt lat="43.8156217" lon="12.4558583"><ele>494.33333333333337</ele><time>2026-05-02T05:43:32.786Z</time></trkpt><trkpt lat="43.8155333" lon="12.4559"><ele>492.6666666666667</ele><time>2026-05-02T05:43:33.785Z</time></trkpt><trkpt lat="43.8154483" lon="12.4559467"><ele>491.0</ele><time>2026-05-02T05:43:34.786Z</time></trkpt><trkpt lat="43.8153633" lon="12.4559783"><ele>489.33333333333337</ele><time>2026-05-02T05:43:35.786Z</time></trkpt><trkpt lat="43.8152817" lon="12.4559883"><ele>487.6666666666667</ele><time>2026-05-02T05:43:36.787Z</time></trkpt><trkpt lat="43.815205" lon="12.455975"><ele>486.0</ele><time>2026-05-02T05:43:37.788Z</time></trkpt><trkpt lat="43.8151483" lon="12.4559317"><ele>482.6</ele><time>2026-05-02T05:43:38.789Z</time></trkpt><trkpt lat="43.8150917" lon="12.4558717"><ele>479.20000000000005</ele><time>2026-05-02T05:43:39.789Z</time></trkpt><trkpt lat="43.8150583" lon="12.4557583"><ele>475.79999999999995</ele><time>2026-05-02T05:43:40.789Z</time></trkpt><trkpt lat="43.81504" lon="12.4556083"><ele>472.4</ele><time>2026-05-02T05:43:41.789Z</time></trkpt><trkpt lat="43.81504" lon="12.4554267"><ele>469.0</ele><time>2026-05-02T05:43:42.786Z</time></trkpt><trkpt lat="43.8150483" lon="12.4552217"><ele>469.0</ele><time>2026-05-02T05:43:43.787Z</time></trkpt><trkpt lat="43.81506" lon="12.4550283"><ele>469.0</ele><time>2026-05-02T05:43:44.787Z</time></trkpt><trkpt lat="43.8150617" lon="12.4548583"><ele>469.0</ele><time>2026-05-02T05:43:45.786Z</time></trkpt><trkpt lat="43.8150517" lon="12.4546817"><ele>469.0</ele><time>2026-05-02T05:43:46.786Z</time></trkpt><trkpt lat="43.8150367" lon="12.454505"><ele>467.75</ele><time>2026-05-02T05:43:47.786Z</time></trkpt><trkpt lat="43.815" lon="12.4543133"><ele>466.5</ele><time>2026-05-02T05:43:48.789Z</time></trkpt><trkpt lat="43.8149483" lon="12.45414"><ele>465.25</ele><time>2026-05-02T05:43:49.786Z</time></trkpt><trkpt lat="43.8148833" lon="12.4539667"><ele>464.0</ele><time>2026-05-02T05:43:50.79Z</time></trkpt><trkpt lat="43.8148017" lon="12.4537883"><ele>461.75</ele><time>2026-05-02T05:43:51.79Z</time></trkpt><trkpt lat="43.8147167" lon="12.453615"><ele>459.5</ele><time>2026-05-02T05:43:52.79Z</time></trkpt><trkpt lat="43.8146267" lon="12.4534633"><ele>457.25</ele><time>2026-05-02T05:43:53.79Z</time></trkpt><trkpt lat="43.8145283" lon="12.4533367"><ele>455.0</ele><time>2026-05-02T05:43:54.79Z</time></trkpt><trkpt lat="43.814425" lon="12.4532267"><ele>455.75</ele><time>2026-05-02T05:43:55.789Z</time></trkpt><trkpt lat="43.814315" lon="12.4531367"><ele>456.5</ele><time>2026-05-02T05:43:56.787Z</time></trkpt><trkpt lat="43.8141967" lon="12.4530633"><ele>457.25</ele><time>2026-05-02T05:43:57.786Z</time></trkpt><trkpt lat="43.81407" lon="12.4530067"><ele>458.0</ele><time>2026-05-02T05:43:58.787Z</time></trkpt><trkpt lat="43.81394" lon="12.452955"><ele>457.0</ele><time>2026-05-02T05:43:59.787Z</time></trkpt><trkpt lat="43.81381" lon="12.452905"><ele>456.0</ele><time>2026-05-02T05:44:00.786Z</time></trkpt><trkpt lat="43.8136783" lon="12.4528583"><ele>455.0</ele><time>2026-05-02T05:44:01.785Z</time></trkpt><trkpt lat="43.81354" lon="12.4528117"><ele>454.0</ele><time>2026-05-02T05:44:02.787Z</time></trkpt><trkpt lat="43.8134017" lon="12.4527617"><ele>454.0</ele><time>2026-05-02T05:44:03.789Z</time></trkpt><trkpt lat="43.813265" lon="12.4527133"><ele>454.0</ele><time>2026-05-02T05:44:04.786Z</time></trkpt><trkpt lat="43.8131333" lon="12.4526717"><ele>454.0</ele><time>2026-05-02T05:44:05.787Z</time></trkpt><trkpt lat="43.8129967" lon="12.4526233"><ele>454.0</ele><time>2026-05-02T05:44:06.786Z</time></trkpt><trkpt lat="43.812875" lon="12.4525533"><ele>454.0</ele><time>2026-05-02T05:44:07.789Z</time></trkpt><trkpt lat="43.8127533" lon="12.4524783"><ele>454.0</ele><time>2026-05-02T05:44:08.789Z</time></trkpt><trkpt lat="43.8126267" lon="12.4523933"><ele>454.0</ele><time>2026-05-02T05:44:09.789Z</time></trkpt><trkpt lat="43.8125" lon="12.45229"><ele>454.0</ele><time>2026-05-02T05:44:10.79Z</time></trkpt><trkpt lat="43.8123683" lon="12.45217"><ele>449.75</ele><time>2026-05-02T05:44:11.789Z</time></trkpt><trkpt lat="43.812245" lon="12.4520383"><ele>445.5</ele><time>2026-05-02T05:44:12.881Z</time></trkpt><trkpt lat="43.8121317" lon="12.45191"><ele>441.25</ele><time>2026-05-02T05:44:13.787Z</time></trkpt><trkpt lat="43.8120333" lon="12.4517967"><ele>437.0</ele><time>2026-05-02T05:44:14.786Z</time></trkpt><trkpt lat="43.811945" lon="12.4517033"><ele>437.0</ele><time>2026-05-02T05:44:15.788Z</time></trkpt><trkpt lat="43.811855" lon="12.4516367"><ele>437.00000000000006</ele><time>2026-05-02T05:44:16.789Z</time></trkpt><trkpt lat="43.811745" lon="12.4516083"><ele>437.00000000000006</ele><time>2026-05-02T05:44:17.789Z</time></trkpt><trkpt lat="43.81163" lon="12.451595"><ele>437.0</ele><time>2026-05-02T05:44:18.79Z</time></trkpt><trkpt lat="43.8115233" lon="12.4515733"><ele>437.0</ele><time>2026-05-02T05:44:19.789Z</time></trkpt><trkpt lat="43.8114283" lon="12.451515"><ele>435.0</ele><time>2026-05-02T05:44:20.786Z</time></trkpt><trkpt lat="43.8113417" lon="12.4514233"><ele>433.0</ele><time>2026-05-02T05:44:21.786Z</time></trkpt><trkpt lat="43.8112583" lon="12.45131"><ele>431.0</ele><time>2026-05-02T05:44:22.789Z</time></trkpt><trkpt lat="43.8111633" lon="12.4511883"><ele>429.0</ele><time>2026-05-02T05:44:23.789Z</time></trkpt><trkpt lat="43.8110517" lon="12.4510883"><ele>430.5</ele><time>2026-05-02T05:44:24.789Z</time></trkpt><trkpt lat="43.8109383" lon="12.4510267"><ele>432.0</ele><time>2026-05-02T05:44:25.786Z</time></trkpt><trkpt lat="43.8108183" lon="12.4510067"><ele>433.5</ele><time>2026-05-02T05:44:26.786Z</time></trkpt><trkpt lat="43.810695" lon="12.4510233"><ele>435.0</ele><time>2026-05-02T05:44:27.787Z</time></trkpt><trkpt lat="43.8105667" lon="12.45107"><ele>435.0</ele><time>2026-05-02T05:44:28.786Z</time></trkpt><trkpt lat="43.8104367" lon="12.45113"><ele>435.0</ele><time>2026-05-02T05:44:29.787Z</time></trkpt><trkpt lat="43.8103083" lon="12.4511967"><ele>435.0</ele><time>2026-05-02T05:44:30.786Z</time></trkpt><trkpt lat="43.81019" lon="12.45127"><ele>435.0</ele><time>2026-05-02T05:44:31.786Z</time></trkpt><trkpt lat="43.81008" lon="12.4513533"><ele>435.75</ele><time>2026-05-02T05:44:32.786Z</time></trkpt><trkpt lat="43.81" lon="12.4514717"><ele>436.5</ele><time>2026-05-02T05:44:33.789Z</time></trkpt><trkpt lat="43.8099467" lon="12.4516283"><ele>437.25</ele><time>2026-05-02T05:44:34.789Z</time></trkpt><trkpt lat="43.80991" lon="12.451805"><ele>438.0</ele><time>2026-05-02T05:44:35.786Z</time></trkpt><trkpt lat="43.8098633" lon="12.4519817"><ele>438.5</ele><time>2026-05-02T05:44:36.787Z</time></trkpt><trkpt lat="43.80982" lon="12.452155"><ele>439.0</ele><time>2026-05-02T05:44:37.79Z</time></trkpt><trkpt lat="43.80979" lon="12.4523367"><ele>439.5</ele><time>2026-05-02T05:44:38.789Z</time></trkpt><trkpt lat="43.8097767" lon="12.452525"><ele>440.0</ele><time>2026-05-02T05:44:39.789Z</time></trkpt><trkpt lat="43.809785" lon="12.4527217"><ele>440.0</ele><time>2026-05-02T05:44:40.789Z</time></trkpt><trkpt lat="43.8098067" lon="12.452925"><ele>440.0</ele><time>2026-05-02T05:44:41.789Z</time></trkpt><trkpt lat="43.8098233" lon="12.4531233"><ele>440.0</ele><time>2026-05-02T05:44:42.789Z</time></trkpt><trkpt lat="43.8098483" lon="12.4533183"><ele>440.0</ele><time>2026-05-02T05:44:43.789Z</time></trkpt><trkpt lat="43.8098717" lon="12.45351"><ele>438.25</ele><time>2026-05-02T05:44:44.789Z</time></trkpt><trkpt lat="43.8098917" lon="12.45369"><ele>436.5</ele><time>2026-05-02T05:44:45.789Z</time></trkpt><trkpt lat="43.8099" lon="12.453855"><ele>434.75</ele><time>2026-05-02T05:44:46.789Z</time></trkpt><trkpt lat="43.8098917" lon="12.4540017"><ele>433.0</ele><time>2026-05-02T05:44:47.789Z</time></trkpt><trkpt lat="43.8098517" lon="12.4541317"><ele>430.4</ele><time>2026-05-02T05:44:48.789Z</time></trkpt><trkpt lat="43.8097917" lon="12.4542467"><ele>427.79999999999995</ele><time>2026-05-02T05:44:49.789Z</time></trkpt><trkpt lat="43.8097167" lon="12.45434"><ele>425.2</ele><time>2026-05-02T05:44:50.789Z</time></trkpt><trkpt lat="43.809625" lon="12.4544183"><ele>422.6</ele><time>2026-05-02T05:44:51.789Z</time></trkpt><trkpt lat="43.8095267" lon="12.4544833"><ele>420.0</ele><time>2026-05-02T05:44:52.786Z</time></trkpt><trkpt lat="43.8094133" lon="12.4545283"><ele>418.25</ele><time>2026-05-02T05:44:53.789Z</time></trkpt><trkpt lat="43.8092933" lon="12.4545533"><ele>416.5</ele><time>2026-05-02T05:44:54.789Z</time></trkpt><trkpt lat="43.809165" lon="12.4545617"><ele>414.75</ele><time>2026-05-02T05:44:55.789Z</time></trkpt><trkpt lat="43.8090333" lon="12.4545567"><ele>413.0</ele><time>2026-05-02T05:44:56.786Z</time></trkpt><trkpt lat="43.8088967" lon="12.4545383"><ele>413.0</ele><time>2026-05-02T05:44:57.786Z</time></trkpt><trkpt lat="43.8087567" lon="12.4545083"><ele>413.0</ele><time>2026-05-02T05:44:58.786Z</time></trkpt><trkpt lat="43.8086133" lon="12.454475"><ele>413.0</ele><time>2026-05-02T05:44:59.786Z</time></trkpt><trkpt lat="43.8084717" lon="12.4544367"><ele>413.0</ele><time>2026-05-02T05:45:00.787Z</time></trkpt><trkpt lat="43.8083333" lon="12.4543883"><ele>410.66666666666663</ele><time>2026-05-02T05:45:01.786Z</time></trkpt><trkpt lat="43.8081983" lon="12.4543233"><ele>408.33333333333337</ele><time>2026-05-02T05:45:02.786Z</time></trkpt><trkpt lat="43.8080583" lon="12.4542367"><ele>406.0</ele><time>2026-05-02T05:45:03.789Z</time></trkpt><trkpt lat="43.8079167" lon="12.45414"><ele>406.0</ele><time>2026-05-02T05:45:04.79Z</time></trkpt><trkpt lat="43.8077733" lon="12.4540383"><ele>406.0</ele><time>2026-05-02T05:45:05.789Z</time></trkpt><trkpt lat="43.8076317" lon="12.4539417"><ele>406.0</ele><time>2026-05-02T05:45:06.789Z</time></trkpt><trkpt lat="43.8074983" lon="12.4538483"><ele>402.75</ele><time>2026-05-02T05:45:07.786Z</time></trkpt><trkpt lat="43.8073683" lon="12.453745"><ele>399.5</ele><time>2026-05-02T05:45:08.786Z</time></trkpt><trkpt lat="43.80725" lon="12.453645"><ele>396.25</ele><time>2026-05-02T05:45:09.787Z</time></trkpt><trkpt lat="43.8071467" lon="12.453555"><ele>393.0</ele><time>2026-05-02T05:45:10.787Z</time></trkpt><trkpt lat="43.8070533" lon="12.4534717"><ele>393.0</ele><time>2026-05-02T05:45:11.787Z</time></trkpt><trkpt lat="43.8069683" lon="12.4534017"><ele>393.0</ele><time>2026-05-02T05:45:12.786Z</time></trkpt><trkpt lat="43.806885" lon="12.453345"><ele>393.0</ele><time>2026-05-02T05:45:13.786Z</time></trkpt><trkpt lat="43.806805" lon="12.4532817"><ele>393.0</ele><time>2026-05-02T05:45:14.787Z</time></trkpt><trkpt lat="43.80673" lon="12.4532467"><ele>393.0</ele><time>2026-05-02T05:45:15.786Z</time></trkpt><trkpt lat="43.8066617" lon="12.4532217"><ele>393.0</ele><time>2026-05-02T05:45:16.787Z</time></trkpt><trkpt lat="43.8065483" lon="12.4531667"><ele>393.75</ele><time>2026-05-02T05:45:18.786Z</time></trkpt><trkpt lat="43.8064667" lon="12.453115"><ele>394.5</ele><time>2026-05-02T05:45:19.787Z</time></trkpt><trkpt lat="43.8063533" lon="12.4530583"><ele>395.25</ele><time>2026-05-02T05:45:20.788Z</time></trkpt><trkpt lat="43.8062117" lon="12.4529883"><ele>396.0</ele><time>2026-05-02T05:45:21.786Z</time></trkpt><trkpt lat="43.8060767" lon="12.4529267"><ele>396.5</ele><time>2026-05-02T05:45:22.786Z</time></trkpt><trkpt lat="43.8059433" lon="12.4528667"><ele>397.0</ele><time>2026-05-02T05:45:23.786Z</time></trkpt><trkpt lat="43.8058183" lon="12.4528033"><ele>397.5</ele><time>2026-05-02T05:45:24.789Z</time></trkpt><trkpt lat="43.8057067" lon="12.4527317"><ele>398.0</ele><time>2026-05-02T05:45:25.789Z</time></trkpt><trkpt lat="43.805615" lon="12.452635"><ele>398.0</ele><time>2026-05-02T05:45:26.786Z</time></trkpt><trkpt lat="43.8055317" lon="12.4525367"><ele>398.0</ele><time>2026-05-02T05:45:27.786Z</time></trkpt><trkpt lat="43.8054567" lon="12.45244"><ele>398.0</ele><time>2026-05-02T05:45:28.787Z</time></trkpt><trkpt lat="43.8053867" lon="12.4523567"><ele>398.0</ele><time>2026-05-02T05:45:29.787Z</time></trkpt><trkpt lat="43.8053167" lon="12.4522933"><ele>398.0</ele><time>2026-05-02T05:45:30.786Z</time></trkpt><trkpt lat="43.8052517" lon="12.4522533"><ele>397.99999999999994</ele><time>2026-05-02T05:45:31.787Z</time></trkpt><trkpt lat="43.8051633" lon="12.45222"><ele>398.0</ele><time>2026-05-02T05:45:33.79Z</time></trkpt><trkpt lat="43.8050667" lon="12.4522867"><ele>398.0</ele><time>2026-05-02T05:45:35.789Z</time></trkpt><trkpt lat="43.8050217" lon="12.452355"><ele>398.0</ele><time>2026-05-02T05:45:36.789Z</time></trkpt><trkpt lat="43.8049833" lon="12.4524383"><ele>397.99999999999994</ele><time>2026-05-02T05:45:37.789Z</time></trkpt><trkpt lat="43.8049383" lon="12.4525233"><ele>398.0</ele><time>2026-05-02T05:45:38.79Z</time></trkpt><trkpt lat="43.8049017" lon="12.4526117"><ele>400.2857142857143</ele><time>2026-05-02T05:45:39.79Z</time></trkpt><trkpt lat="43.804865" lon="12.4526933"><ele>402.57142857142856</ele><time>2026-05-02T05:45:40.789Z</time></trkpt><trkpt lat="43.8048267" lon="12.4527683"><ele>404.8571428571429</ele><time>2026-05-02T05:45:41.79Z</time></trkpt><trkpt lat="43.8047883" lon="12.4528433"><ele>407.1428571428571</ele><time>2026-05-02T05:45:42.79Z</time></trkpt><trkpt lat="43.8047483" lon="12.4529233"><ele>409.42857142857144</ele><time>2026-05-02T05:45:43.786Z</time></trkpt><trkpt lat="43.8047117" lon="12.4530017"><ele>411.7142857142857</ele><time>2026-05-02T05:45:44.789Z</time></trkpt><trkpt lat="43.804675" lon="12.45308"><ele>414.0</ele><time>2026-05-02T05:45:45.79Z</time></trkpt><trkpt lat="43.8046433" lon="12.45316"><ele>415.2</ele><time>2026-05-02T05:45:46.789Z</time></trkpt><trkpt lat="43.8045883" lon="12.4532967"><ele>416.4</ele><time>2026-05-02T05:45:48.787Z</time></trkpt><trkpt lat="43.8045517" lon="12.4534117"><ele>417.6</ele><time>2026-05-02T05:45:50.789Z</time></trkpt><trkpt lat="43.804525" lon="12.453495"><ele>418.8</ele><time>2026-05-02T05:45:52.788Z</time></trkpt><trkpt lat="43.8045883" lon="12.4534033"><ele>420.0</ele><time>2026-05-02T05:46:26.786Z</time></trkpt><trkpt lat="43.80464" lon="12.4532267"><ele>420.0</ele><time>2026-05-02T05:46:28.787Z</time></trkpt><trkpt lat="43.804685" lon="12.453115"><ele>420.0</ele><time>2026-05-02T05:46:29.786Z</time></trkpt><trkpt lat="43.804735" lon="12.453005"><ele>420.0</ele><time>2026-05-02T05:46:30.788Z</time></trkpt><trkpt lat="43.8047833" lon="12.45291"><ele>420.0</ele><time>2026-05-02T05:46:31.786Z</time></trkpt><trkpt lat="43.804835" lon="12.4528117"><ele>420.0</ele><time>2026-05-02T05:46:32.787Z</time></trkpt><trkpt lat="43.80489" lon="12.4527167"><ele>420.0</ele><time>2026-05-02T05:46:33.786Z</time></trkpt><trkpt lat="43.80494" lon="12.452625"><ele>419.0</ele><time>2026-05-02T05:46:34.786Z</time></trkpt><trkpt lat="43.804985" lon="12.4525333"><ele>418.0</ele><time>2026-05-02T05:46:35.788Z</time></trkpt><trkpt lat="43.8050317" lon="12.4524483"><ele>417.0</ele><time>2026-05-02T05:46:36.786Z</time></trkpt><trkpt lat="43.805085" lon="12.4523717"><ele>416.0</ele><time>2026-05-02T05:46:37.787Z</time></trkpt><trkpt lat="43.80515" lon="12.4523083"><ele>415.0</ele><time>2026-05-02T05:46:38.786Z</time></trkpt><trkpt lat="43.8052233" lon="12.4522717"><ele>414.0</ele><time>2026-05-02T05:46:39.787Z</time></trkpt><trkpt lat="43.8053033" lon="12.45226"><ele>410.0</ele><time>2026-05-02T05:46:40.786Z</time></trkpt><trkpt lat="43.8053917" lon="12.452285"><ele>406.0</ele><time>2026-05-02T05:46:41.787Z</time></trkpt><trkpt lat="43.8054883" lon="12.452395"><ele>402.0</ele><time>2026-05-02T05:46:42.789Z</time></trkpt><trkpt lat="43.8055783" lon="12.4525183"><ele>398.0</ele><time>2026-05-02T05:46:43.786Z</time></trkpt><trkpt lat="43.80567" lon="12.452635"><ele>398.0</ele><time>2026-05-02T05:46:44.786Z</time></trkpt><trkpt lat="43.8057667" lon="12.452735"><ele>398.0</ele><time>2026-05-02T05:46:45.786Z</time></trkpt><trkpt lat="43.8058717" lon="12.45281"><ele>398.0</ele><time>2026-05-02T05:46:46.786Z</time></trkpt><trkpt lat="43.8059817" lon="12.452865"><ele>398.0</ele><time>2026-05-02T05:46:47.787Z</time></trkpt><trkpt lat="43.8060867" lon="12.4529117"><ele>397.59999999999997</ele><time>2026-05-02T05:46:48.786Z</time></trkpt><trkpt lat="43.8061933" lon="12.4529617"><ele>397.2</ele><time>2026-05-02T05:46:49.787Z</time></trkpt><trkpt lat="43.8063" lon="12.4530083"><ele>396.8</ele><time>2026-05-02T05:46:50.787Z</time></trkpt><trkpt lat="43.8064033" lon="12.453055"><ele>396.4</ele><time>2026-05-02T05:46:51.787Z</time></trkpt><trkpt lat="43.8065033" lon="12.4530967"><ele>396.0</ele><time>2026-05-02T05:46:52.787Z</time></trkpt><trkpt lat="43.8066017" lon="12.4531183"><ele>396.0</ele><time>2026-05-02T05:46:53.788Z</time></trkpt><trkpt lat="43.80669" lon="12.4531267"><ele>396.0</ele><time>2026-05-02T05:46:54.786Z</time></trkpt><trkpt lat="43.8067733" lon="12.4531017"><ele>396.0</ele><time>2026-05-02T05:46:55.787Z</time></trkpt><trkpt lat="43.8068433" lon="12.453065"><ele>396.0</ele><time>2026-05-02T05:46:56.787Z</time></trkpt><trkpt lat="43.8068967" lon="12.4529933"><ele>396.0</ele><time>2026-05-02T05:46:57.788Z</time></trkpt><trkpt lat="43.8069433" lon="12.4529017"><ele>396.0</ele><time>2026-05-02T05:46:58.786Z</time></trkpt><trkpt lat="43.8069867" lon="12.4528"><ele>394.4</ele><time>2026-05-02T05:46:59.788Z</time></trkpt><trkpt lat="43.8070317" lon="12.45269"><ele>392.8</ele><time>2026-05-02T05:47:00.786Z</time></trkpt><trkpt lat="43.80708" lon="12.4525783"><ele>391.2</ele><time>2026-05-02T05:47:01.786Z</time></trkpt><trkpt lat="43.8071333" lon="12.4524633"><ele>389.59999999999997</ele><time>2026-05-02T05:47:02.786Z</time></trkpt><trkpt lat="43.8071833" lon="12.4523417"><ele>388.0</ele><time>2026-05-02T05:47:03.786Z</time></trkpt><trkpt lat="43.80724" lon="12.45221"><ele>385.75</ele><time>2026-05-02T05:47:04.786Z</time></trkpt><trkpt lat="43.8072967" lon="12.4520617"><ele>383.5</ele><time>2026-05-02T05:47:05.788Z</time></trkpt><trkpt lat="43.807345" lon="12.4519117"><ele>381.25</ele><time>2026-05-02T05:47:06.788Z</time></trkpt><trkpt lat="43.80738" lon="12.4517617"><ele>379.0</ele><time>2026-05-02T05:47:07.786Z</time></trkpt><trkpt lat="43.8074067" lon="12.4516"><ele>379.0</ele><time>2026-05-02T05:47:08.786Z</time></trkpt><trkpt lat="43.807425" lon="12.45143"><ele>379.0</ele><time>2026-05-02T05:47:09.786Z</time></trkpt><trkpt lat="43.807435" lon="12.4512567"><ele>379.0</ele><time>2026-05-02T05:47:10.787Z</time></trkpt><trkpt lat="43.8074367" lon="12.4510933"><ele>379.0</ele><time>2026-05-02T05:47:11.787Z</time></trkpt><trkpt lat="43.8074567" lon="12.450945"><ele>376.4</ele><time>2026-05-02T05:47:12.786Z</time></trkpt><trkpt lat="43.8074767" lon="12.450805"><ele>373.79999999999995</ele><time>2026-05-02T05:47:13.786Z</time></trkpt><trkpt lat="43.8075083" lon="12.4506717"><ele>371.20000000000005</ele><time>2026-05-02T05:47:14.787Z</time></trkpt><trkpt lat="43.8075483" lon="12.4505517"><ele>368.6</ele><time>2026-05-02T05:47:15.786Z</time></trkpt><trkpt lat="43.8075883" lon="12.450425"><ele>366.0</ele><time>2026-05-02T05:47:16.789Z</time></trkpt><trkpt lat="43.807625" lon="12.4502867"><ele>366.0</ele><time>2026-05-02T05:47:17.79Z</time></trkpt><trkpt lat="43.8076533" lon="12.4501333"><ele>366.0</ele><time>2026-05-02T05:47:18.789Z</time></trkpt><trkpt lat="43.80766" lon="12.449955"><ele>366.0</ele><time>2026-05-02T05:47:19.789Z</time></trkpt><trkpt lat="43.8076433" lon="12.4497517"><ele>366.0</ele><time>2026-05-02T05:47:20.79Z</time></trkpt><trkpt lat="43.8076" lon="12.4495467"><ele>366.0</ele><time>2026-05-02T05:47:21.79Z</time></trkpt><trkpt lat="43.8075467" lon="12.44936"><ele>366.0</ele><time>2026-05-02T05:47:22.787Z</time></trkpt><trkpt lat="43.80748" lon="12.4491933"><ele>366.0</ele><time>2026-05-02T05:47:23.788Z</time></trkpt><trkpt lat="43.80739" lon="12.44905"><ele>366.0</ele><time>2026-05-02T05:47:24.786Z</time></trkpt><trkpt lat="43.8072733" lon="12.448935"><ele>366.0</ele><time>2026-05-02T05:47:25.787Z</time></trkpt><trkpt lat="43.807145" lon="12.4488317"><ele>366.0</ele><time>2026-05-02T05:47:26.787Z</time></trkpt><trkpt lat="43.8070217" lon="12.448725"><ele>366.0</ele><time>2026-05-02T05:47:27.787Z</time></trkpt><trkpt lat="43.8069133" lon="12.448585"><ele>366.0</ele><time>2026-05-02T05:47:28.787Z</time></trkpt><trkpt lat="43.8068133" lon="12.4484183"><ele>366.3333333333333</ele><time>2026-05-02T05:47:29.789Z</time></trkpt><trkpt lat="43.80671" lon="12.4482433"><ele>366.66666666666663</ele><time>2026-05-02T05:47:30.787Z</time></trkpt><trkpt lat="43.80661" lon="12.44808"><ele>367.0</ele><time>2026-05-02T05:47:31.787Z</time></trkpt><trkpt lat="43.806525" lon="12.447925"><ele>370.25</ele><time>2026-05-02T05:47:32.787Z</time></trkpt><trkpt lat="43.8064567" lon="12.447775"><ele>373.5</ele><time>2026-05-02T05:47:33.787Z</time></trkpt><trkpt lat="43.80639" lon="12.4476183"><ele>376.75</ele><time>2026-05-02T05:47:34.787Z</time></trkpt><trkpt lat="43.80632" lon="12.44745"><ele>380.0</ele><time>2026-05-02T05:47:35.788Z</time></trkpt><trkpt lat="43.8062517" lon="12.4472633"><ele>381.33333333333337</ele><time>2026-05-02T05:47:36.786Z</time></trkpt><trkpt lat="43.8061817" lon="12.4470683"><ele>382.6666666666667</ele><time>2026-05-02T05:47:37.786Z</time></trkpt><trkpt lat="43.8061083" lon="12.4468783"><ele>384.0</ele><time>2026-05-02T05:47:38.788Z</time></trkpt><trkpt lat="43.8060267" lon="12.4466967"><ele>378.25</ele><time>2026-05-02T05:47:39.788Z</time></trkpt><trkpt lat="43.805945" lon="12.446535"><ele>372.5</ele><time>2026-05-02T05:47:40.787Z</time></trkpt><trkpt lat="43.80588" lon="12.4463917"><ele>366.75</ele><time>2026-05-02T05:47:41.79Z</time></trkpt><trkpt lat="43.805815" lon="12.446265"><ele>361.0</ele><time>2026-05-02T05:47:42.786Z</time></trkpt><trkpt lat="43.8057633" lon="12.4461483"><ele>361.0</ele><time>2026-05-02T05:47:43.787Z</time></trkpt><trkpt lat="43.8057217" lon="12.4460433"><ele>361.0</ele><time>2026-05-02T05:47:44.789Z</time></trkpt><trkpt lat="43.80569" lon="12.4459417"><ele>361.0</ele><time>2026-05-02T05:47:45.791Z</time></trkpt><trkpt lat="43.8056783" lon="12.44585"><ele>361.0</ele><time>2026-05-02T05:47:46.789Z</time></trkpt><trkpt lat="43.80566" lon="12.4457583"><ele>361.0</ele><time>2026-05-02T05:47:47.791Z</time></trkpt><trkpt lat="43.805645" lon="12.4456717"><ele>361.0</ele><time>2026-05-02T05:47:48.789Z</time></trkpt><trkpt lat="43.8056117" lon="12.4455183"><ele>361.0</ele><time>2026-05-02T05:47:50.789Z</time></trkpt><trkpt lat="43.8055867" lon="12.4454267"><ele>361.0</ele><time>2026-05-02T05:47:52.786Z</time></trkpt><trkpt lat="43.80549" lon="12.4454083"><ele>361.0</ele><time>2026-05-02T05:47:55.789Z</time></trkpt><trkpt lat="43.8054067" lon="12.4454667"><ele>361.0</ele><time>2026-05-02T05:47:57.789Z</time></trkpt><trkpt lat="43.805315" lon="12.4454633"><ele>361.0</ele><time>2026-05-02T05:47:59.79Z</time></trkpt><trkpt lat="43.8052333" lon="12.445405"><ele>361.0</ele><time>2026-05-02T05:48:01.789Z</time></trkpt><trkpt lat="43.8051567" lon="12.445345"><ele>358.6</ele><time>2026-05-02T05:48:03.789Z</time></trkpt><trkpt lat="43.805095" lon="12.4453117"><ele>356.20000000000005</ele><time>2026-05-02T05:48:05.787Z</time></trkpt><trkpt lat="43.8050133" lon="12.4453233"><ele>353.79999999999995</ele><time>2026-05-02T05:48:07.792Z</time></trkpt><trkpt lat="43.80491" lon="12.4453233"><ele>351.4</ele><time>2026-05-02T05:48:09.79Z</time></trkpt><trkpt lat="43.804805" lon="12.4453117"><ele>349.0</ele><time>2026-05-02T05:48:11.787Z</time></trkpt><trkpt lat="43.8046933" lon="12.44527"><ele>349.0</ele><time>2026-05-02T05:48:13.789Z</time></trkpt><trkpt lat="43.8046117" lon="12.4451967"><ele>349.0</ele><time>2026-05-02T05:48:15.79Z</time></trkpt><trkpt lat="43.8045717" lon="12.44506"><ele>349.0</ele><time>2026-05-02T05:48:18.787Z</time></trkpt><trkpt lat="43.80456" lon="12.4449233"><ele>349.0</ele><time>2026-05-02T05:48:20.789Z</time></trkpt><trkpt lat="43.8045217" lon="12.4448133"><ele>349.0</ele><time>2026-05-02T05:48:22.79Z</time></trkpt><trkpt lat="43.80451" lon="12.4447217"><ele>349.0</ele><time>2026-05-02T05:48:24.791Z</time></trkpt><trkpt lat="43.8045183" lon="12.44463"><ele>349.0</ele><time>2026-05-02T05:48:26.79Z</time></trkpt><trkpt lat="43.80448" lon="12.4444967"><ele>349.0</ele><time>2026-05-02T05:48:52.442Z</time></trkpt><trkpt lat="43.80451" lon="12.44458"><ele>349.0</ele><time>2026-05-02T05:49:02.786Z</time></trkpt><trkpt lat="43.8044967" lon="12.4446933"><ele>349.0</ele><time>2026-05-02T05:49:06.788Z</time></trkpt><trkpt lat="43.804515" lon="12.4448067"><ele>349.0</ele><time>2026-05-02T05:49:20.787Z</time></trkpt><trkpt lat="43.8045583" lon="12.4449"><ele>349.0</ele><time>2026-05-02T05:49:22.787Z</time></trkpt><trkpt lat="43.8045933" lon="12.4450033"><ele>349.0</ele><time>2026-05-02T05:49:24.788Z</time></trkpt><trkpt lat="43.8045983" lon="12.4451167"><ele>349.0</ele><time>2026-05-02T05:49:27.788Z</time></trkpt><trkpt lat="43.8046333" lon="12.4452067"><ele>349.0</ele><time>2026-05-02T05:49:30.788Z</time></trkpt><trkpt lat="43.8047067" lon="12.4452667"><ele>349.0</ele><time>2026-05-02T05:49:32.788Z</time></trkpt><trkpt lat="43.8047983" lon="12.4453017"><ele>349.0</ele><time>2026-05-02T05:49:34.787Z</time></trkpt><trkpt lat="43.80489" lon="12.4453183"><ele>349.0</ele><time>2026-05-02T05:49:36.788Z</time></trkpt><trkpt lat="43.8049767" lon="12.4453033"><ele>349.0</ele><time>2026-05-02T05:49:38.788Z</time></trkpt><trkpt lat="43.80506" lon="12.445325"><ele>349.0</ele><time>2026-05-02T05:49:40.789Z</time></trkpt><trkpt lat="43.8051633" lon="12.4453917"><ele>349.0</ele><time>2026-05-02T05:49:42.788Z</time></trkpt><trkpt lat="43.8052767" lon="12.445445"><ele>349.0</ele><time>2026-05-02T05:49:44.787Z</time></trkpt><trkpt lat="43.80534" lon="12.4454683"><ele>349.8333333333333</ele><time>2026-05-02T05:49:45.787Z</time></trkpt><trkpt lat="43.805405" lon="12.4454767"><ele>350.66666666666663</ele><time>2026-05-02T05:49:46.789Z</time></trkpt><trkpt lat="43.805515" lon="12.4454783"><ele>351.5</ele><time>2026-05-02T05:49:48.787Z</time></trkpt><trkpt lat="43.8055817" lon="12.4454067"><ele>352.3333333333333</ele><time>2026-05-02T05:49:51.787Z</time></trkpt><trkpt lat="43.80558" lon="12.4452483"><ele>353.1666666666667</ele><time>2026-05-02T05:49:53.787Z</time></trkpt><trkpt lat="43.80558" lon="12.4451483"><ele>354.0</ele><time>2026-05-02T05:49:54.79Z</time></trkpt><trkpt lat="43.8056" lon="12.44504"><ele>354.0</ele><time>2026-05-02T05:49:55.79Z</time></trkpt><trkpt lat="43.805635" lon="12.4449267"><ele>354.0</ele><time>2026-05-02T05:49:56.79Z</time></trkpt><trkpt lat="43.8056817" lon="12.4448083"><ele>354.0</ele><time>2026-05-02T05:49:57.786Z</time></trkpt><trkpt lat="43.8057417" lon="12.444685"><ele>354.0</ele><time>2026-05-02T05:49:58.788Z</time></trkpt><trkpt lat="43.8058133" lon="12.4445717"><ele>354.0</ele><time>2026-05-02T05:49:59.787Z</time></trkpt><trkpt lat="43.8059" lon="12.4444633"><ele>352.75</ele><time>2026-05-02T05:50:00.787Z</time></trkpt><trkpt lat="43.806" lon="12.44435"><ele>351.5</ele><time>2026-05-02T05:50:01.787Z</time></trkpt><trkpt lat="43.8061083" lon="12.44424"><ele>350.25</ele><time>2026-05-02T05:50:02.787Z</time></trkpt><trkpt lat="43.8062217" lon="12.444135"><ele>349.0</ele><time>2026-05-02T05:50:03.789Z</time></trkpt><trkpt lat="43.8063383" lon="12.444025"><ele>349.0</ele><time>2026-05-02T05:50:04.788Z</time></trkpt><trkpt lat="43.8064517" lon="12.4439083"><ele>349.0</ele><time>2026-05-02T05:50:05.788Z</time></trkpt><trkpt lat="43.8065633" lon="12.4437983"><ele>349.0</ele><time>2026-05-02T05:50:06.788Z</time></trkpt><trkpt lat="43.8066767" lon="12.4436983"><ele>349.0</ele><time>2026-05-02T05:50:07.788Z</time></trkpt><trkpt lat="43.8067883" lon="12.44361"><ele>346.0</ele><time>2026-05-02T05:50:08.79Z</time></trkpt><trkpt lat="43.8068983" lon="12.443545"><ele>343.0</ele><time>2026-05-02T05:50:09.787Z</time></trkpt><trkpt lat="43.80701" lon="12.443505"><ele>340.0</ele><time>2026-05-02T05:50:10.786Z</time></trkpt><trkpt lat="43.807125" lon="12.44348"><ele>337.0</ele><time>2026-05-02T05:50:11.786Z</time></trkpt><trkpt lat="43.8072467" lon="12.4434683"><ele>337.0</ele><time>2026-05-02T05:50:12.789Z</time></trkpt><trkpt lat="43.8073733" lon="12.4434617"><ele>337.0</ele><time>2026-05-02T05:50:13.789Z</time></trkpt><trkpt lat="43.8075083" lon="12.4434567"><ele>337.0</ele><time>2026-05-02T05:50:14.789Z</time></trkpt><trkpt lat="43.8076517" lon="12.4434517"><ele>337.0</ele><time>2026-05-02T05:50:15.789Z</time></trkpt><trkpt lat="43.8078017" lon="12.4434467"><ele>336.0</ele><time>2026-05-02T05:50:16.787Z</time></trkpt><trkpt lat="43.8079567" lon="12.4434383"><ele>335.0</ele><time>2026-05-02T05:50:17.786Z</time></trkpt><trkpt lat="43.808115" lon="12.4434283"><ele>334.0</ele><time>2026-05-02T05:50:18.789Z</time></trkpt><trkpt lat="43.8082767" lon="12.4434217"><ele>334.0</ele><time>2026-05-02T05:50:19.789Z</time></trkpt><trkpt lat="43.8084383" lon="12.4434217"><ele>334.0</ele><time>2026-05-02T05:50:20.786Z</time></trkpt><trkpt lat="43.8085967" lon="12.443425"><ele>334.0</ele><time>2026-05-02T05:50:21.789Z</time></trkpt><trkpt lat="43.80875" lon="12.4434283"><ele>334.0</ele><time>2026-05-02T05:50:22.786Z</time></trkpt><trkpt lat="43.808895" lon="12.4434317"><ele>334.0</ele><time>2026-05-02T05:50:23.788Z</time></trkpt><trkpt lat="43.809025" lon="12.4434317"><ele>334.0</ele><time>2026-05-02T05:50:24.786Z</time></trkpt><trkpt lat="43.80913" lon="12.4434233"><ele>334.0</ele><time>2026-05-02T05:50:25.79Z</time></trkpt><trkpt lat="43.8092167" lon="12.4434"><ele>334.0</ele><time>2026-05-02T05:50:26.786Z</time></trkpt><trkpt lat="43.8092917" lon="12.4433733"><ele>334.0</ele><time>2026-05-02T05:50:27.785Z</time></trkpt><trkpt lat="43.809345" lon="12.4433217"><ele>334.0</ele><time>2026-05-02T05:50:28.786Z</time></trkpt><trkpt lat="43.80939" lon="12.44321"><ele>334.0</ele><time>2026-05-02T05:50:30.786Z</time></trkpt><trkpt lat="43.80941" lon="12.4430917"><ele>334.0</ele><time>2026-05-02T05:50:35.786Z</time></trkpt><trkpt lat="43.809475" lon="12.4429833"><ele>334.0</ele><time>2026-05-02T05:50:37.786Z</time></trkpt><trkpt lat="43.8095317" lon="12.4429317"><ele>333.6</ele><time>2026-05-02T05:50:38.789Z</time></trkpt><trkpt lat="43.8096067" lon="12.4428733"><ele>333.2</ele><time>2026-05-02T05:50:39.789Z</time></trkpt><trkpt lat="43.809685" lon="12.4428"><ele>332.8</ele><time>2026-05-02T05:50:40.791Z</time></trkpt><trkpt lat="43.8097633" lon="12.4427167"><ele>332.40000000000003</ele><time>2026-05-02T05:50:41.787Z</time></trkpt><trkpt lat="43.8098417" lon="12.44263"><ele>332.0</ele><time>2026-05-02T05:50:42.785Z</time></trkpt><trkpt lat="43.8099233" lon="12.4425383"><ele>332.0</ele><time>2026-05-02T05:50:43.786Z</time></trkpt><trkpt lat="43.8099967" lon="12.44244"><ele>332.0</ele><time>2026-05-02T05:50:44.789Z</time></trkpt><trkpt lat="43.81006" lon="12.4423383"><ele>332.0</ele><time>2026-05-02T05:50:45.786Z</time></trkpt><trkpt lat="43.8101033" lon="12.4422167"><ele>332.0</ele><time>2026-05-02T05:50:46.786Z</time></trkpt><trkpt lat="43.8101183" lon="12.4420917"><ele>332.0</ele><time>2026-05-02T05:50:47.786Z</time></trkpt><trkpt lat="43.810125" lon="12.4419533"><ele>336.0</ele><time>2026-05-02T05:50:48.786Z</time></trkpt><trkpt lat="43.8101283" lon="12.44179"><ele>340.0</ele><time>2026-05-02T05:50:49.786Z</time></trkpt><trkpt lat="43.8101333" lon="12.4416167"><ele>344.0</ele><time>2026-05-02T05:50:50.786Z</time></trkpt><trkpt lat="43.8101317" lon="12.44144"><ele>348.0</ele><time>2026-05-02T05:50:51.785Z</time></trkpt><trkpt lat="43.81013" lon="12.4412583"><ele>349.75</ele><time>2026-05-02T05:50:52.786Z</time></trkpt><trkpt lat="43.8101183" lon="12.4410767"><ele>351.5</ele><time>2026-05-02T05:50:53.786Z</time></trkpt><trkpt lat="43.8101033" lon="12.4409"><ele>353.25</ele><time>2026-05-02T05:50:54.787Z</time></trkpt><trkpt lat="43.8100917" lon="12.4407267"><ele>355.0</ele><time>2026-05-02T05:50:55.786Z</time></trkpt><trkpt lat="43.8100883" lon="12.440555"><ele>354.5</ele><time>2026-05-02T05:50:56.786Z</time></trkpt><trkpt lat="43.8100883" lon="12.4403783"><ele>354.0</ele><time>2026-05-02T05:50:57.785Z</time></trkpt><trkpt lat="43.8101" lon="12.4401933"><ele>353.5</ele><time>2026-05-02T05:50:58.786Z</time></trkpt><trkpt lat="43.810105" lon="12.4400133"><ele>353.0</ele><time>2026-05-02T05:50:59.787Z</time></trkpt><trkpt lat="43.8101133" lon="12.4398567"><ele>353.0</ele><time>2026-05-02T05:51:00.786Z</time></trkpt><trkpt lat="43.81013" lon="12.4397117"><ele>353.0</ele><time>2026-05-02T05:51:01.786Z</time></trkpt><trkpt lat="43.8101633" lon="12.4395867"><ele>353.0</ele><time>2026-05-02T05:51:02.787Z</time></trkpt><trkpt lat="43.8102333" lon="12.4394983"><ele>353.0</ele><time>2026-05-02T05:51:03.786Z</time></trkpt><trkpt lat="43.81031" lon="12.4394017"><ele>353.0</ele><time>2026-05-02T05:51:04.786Z</time></trkpt><trkpt lat="43.8103967" lon="12.4393"><ele>357.0</ele><time>2026-05-02T05:51:05.786Z</time></trkpt><trkpt lat="43.8104867" lon="12.439185"><ele>361.0</ele><time>2026-05-02T05:51:06.786Z</time></trkpt><trkpt lat="43.8105867" lon="12.439075"><ele>365.0</ele><time>2026-05-02T05:51:07.786Z</time></trkpt><trkpt lat="43.8106767" lon="12.43896"><ele>369.0</ele><time>2026-05-02T05:51:08.789Z</time></trkpt><trkpt lat="43.8107433" lon="12.4388217"><ele>368.75</ele><time>2026-05-02T05:51:09.789Z</time></trkpt><trkpt lat="43.8107983" lon="12.4386717"><ele>368.5</ele><time>2026-05-02T05:51:10.789Z</time></trkpt><trkpt lat="43.81086" lon="12.438525"><ele>368.25</ele><time>2026-05-02T05:51:11.789Z</time></trkpt><trkpt lat="43.8109383" lon="12.4383867"><ele>368.0</ele><time>2026-05-02T05:51:12.786Z</time></trkpt><trkpt lat="43.8110367" lon="12.4382567"><ele>371.25</ele><time>2026-05-02T05:51:13.788Z</time></trkpt><trkpt lat="43.8111333" lon="12.43814"><ele>374.5</ele><time>2026-05-02T05:51:14.789Z</time></trkpt><trkpt lat="43.8112217" lon="12.4380167"><ele>377.75</ele><time>2026-05-02T05:51:15.791Z</time></trkpt><trkpt lat="43.811305" lon="12.4378817"><ele>381.0</ele><time>2026-05-02T05:51:16.789Z</time></trkpt><trkpt lat="43.811395" lon="12.4377417"><ele>381.0</ele><time>2026-05-02T05:51:17.787Z</time></trkpt><trkpt lat="43.811495" lon="12.4376117"><ele>381.0</ele><time>2026-05-02T05:51:18.786Z</time></trkpt><trkpt lat="43.811595" lon="12.4374883"><ele>381.0</ele><time>2026-05-02T05:51:19.787Z</time></trkpt><trkpt lat="43.81168" lon="12.43737"><ele>381.0</ele><time>2026-05-02T05:51:20.79Z</time></trkpt><trkpt lat="43.8117483" lon="12.437235"><ele>381.25</ele><time>2026-05-02T05:51:21.789Z</time></trkpt><trkpt lat="43.8118067" lon="12.4370817"><ele>381.5</ele><time>2026-05-02T05:51:22.789Z</time></trkpt><trkpt lat="43.8118567" lon="12.4369067"><ele>381.75</ele><time>2026-05-02T05:51:23.789Z</time></trkpt><trkpt lat="43.8119117" lon="12.436725"><ele>382.0</ele><time>2026-05-02T05:51:24.785Z</time></trkpt><trkpt lat="43.8119767" lon="12.43655"><ele>384.0</ele><time>2026-05-02T05:51:25.79Z</time></trkpt><trkpt lat="43.8120467" lon="12.4364083"><ele>386.0</ele><time>2026-05-02T05:51:26.787Z</time></trkpt><trkpt lat="43.81212" lon="12.43631"><ele>388.0</ele><time>2026-05-02T05:51:27.787Z</time></trkpt><trkpt lat="43.8121967" lon="12.4362917"><ele>390.0</ele><time>2026-05-02T05:51:28.786Z</time></trkpt><trkpt lat="43.8122833" lon="12.4362917"><ele>392.0</ele><time>2026-05-02T05:51:29.787Z</time></trkpt><trkpt lat="43.8123883" lon="12.4363233"><ele>392.0</ele><time>2026-05-02T05:51:30.786Z</time></trkpt><trkpt lat="43.8125083" lon="12.43638"><ele>392.0</ele><time>2026-05-02T05:51:31.786Z</time></trkpt><trkpt lat="43.8126317" lon="12.4364667"><ele>392.0</ele><time>2026-05-02T05:51:32.787Z</time></trkpt><trkpt lat="43.8127633" lon="12.4365833"><ele>392.0</ele><time>2026-05-02T05:51:33.789Z</time></trkpt><trkpt lat="43.8129083" lon="12.4367083"><ele>399.66666666666663</ele><time>2026-05-02T05:51:34.79Z</time></trkpt><trkpt lat="43.8130617" lon="12.43684"><ele>407.33333333333337</ele><time>2026-05-02T05:51:35.79Z</time></trkpt><trkpt lat="43.8132083" lon="12.4369717"><ele>415.0</ele><time>2026-05-02T05:51:36.789Z</time></trkpt><trkpt lat="43.813335" lon="12.4370967"><ele>413.2</ele><time>2026-05-02T05:51:37.789Z</time></trkpt><trkpt lat="43.8134367" lon="12.4371967"><ele>411.4</ele><time>2026-05-02T05:51:38.789Z</time></trkpt><trkpt lat="43.8135233" lon="12.43725"><ele>409.6</ele><time>2026-05-02T05:51:39.789Z</time></trkpt><trkpt lat="43.8136017" lon="12.4372783"><ele>407.8</ele><time>2026-05-02T05:51:40.79Z</time></trkpt><trkpt lat="43.8136783" lon="12.4372733"><ele>406.0</ele><time>2026-05-02T05:51:41.789Z</time></trkpt><trkpt lat="43.8137733" lon="12.4372167"><ele>409.5</ele><time>2026-05-02T05:51:42.785Z</time></trkpt><trkpt lat="43.813855" lon="12.4371183"><ele>413.0</ele><time>2026-05-02T05:51:43.79Z</time></trkpt><trkpt lat="43.81394" lon="12.4370283"><ele>416.5</ele><time>2026-05-02T05:51:44.789Z</time></trkpt><trkpt lat="43.814015" lon="12.4369083"><ele>420.0</ele><time>2026-05-02T05:51:45.789Z</time></trkpt><trkpt lat="43.8140933" lon="12.4367617"><ele>420.0</ele><time>2026-05-02T05:51:46.79Z</time></trkpt><trkpt lat="43.8141783" lon="12.4366133"><ele>420.0</ele><time>2026-05-02T05:51:47.789Z</time></trkpt><trkpt lat="43.8142667" lon="12.436475"><ele>420.0</ele><time>2026-05-02T05:51:48.789Z</time></trkpt><trkpt lat="43.8143533" lon="12.4363333"><ele>420.0</ele><time>2026-05-02T05:51:49.79Z</time></trkpt><trkpt lat="43.814435" lon="12.4362117"><ele>421.1666666666667</ele><time>2026-05-02T05:51:50.789Z</time></trkpt><trkpt lat="43.8144967" lon="12.4361067"><ele>422.33333333333337</ele><time>2026-05-02T05:51:51.79Z</time></trkpt><trkpt lat="43.814545" lon="12.4360083"><ele>423.5</ele><time>2026-05-02T05:51:52.786Z</time></trkpt><trkpt lat="43.8145817" lon="12.435905"><ele>424.6666666666667</ele><time>2026-05-02T05:51:53.787Z</time></trkpt><trkpt lat="43.8146133" lon="12.4358033"><ele>425.83333333333337</ele><time>2026-05-02T05:51:54.789Z</time></trkpt><trkpt lat="43.814645" lon="12.4357"><ele>427.0</ele><time>2026-05-02T05:51:55.789Z</time></trkpt><trkpt lat="43.8146667" lon="12.4355933"><ele>427.0</ele><time>2026-05-02T05:51:56.786Z</time></trkpt><trkpt lat="43.8146667" lon="12.4354733"><ele>427.00000000000006</ele><time>2026-05-02T05:51:57.786Z</time></trkpt><trkpt lat="43.8146533" lon="12.43534"><ele>427.00000000000006</ele><time>2026-05-02T05:51:58.787Z</time></trkpt><trkpt lat="43.8146283" lon="12.4351933"><ele>427.0</ele><time>2026-05-02T05:51:59.787Z</time></trkpt><trkpt lat="43.8145883" lon="12.4350383"><ele>427.0</ele><time>2026-05-02T05:52:00.785Z</time></trkpt><trkpt lat="43.8145417" lon="12.4348867"><ele>428.40000000000003</ele><time>2026-05-02T05:52:01.786Z</time></trkpt><trkpt lat="43.81449" lon="12.434745"><ele>429.80000000000007</ele><time>2026-05-02T05:52:02.786Z</time></trkpt><trkpt lat="43.814435" lon="12.4346083"><ele>431.2</ele><time>2026-05-02T05:52:03.79Z</time></trkpt><trkpt lat="43.8143817" lon="12.434475"><ele>432.6</ele><time>2026-05-02T05:52:04.789Z</time></trkpt><trkpt lat="43.8143317" lon="12.4343467"><ele>434.0</ele><time>2026-05-02T05:52:05.789Z</time></trkpt><trkpt lat="43.8142883" lon="12.434215"><ele>436.0</ele><time>2026-05-02T05:52:06.789Z</time></trkpt><trkpt lat="43.8142533" lon="12.4340867"><ele>438.0</ele><time>2026-05-02T05:52:07.789Z</time></trkpt><trkpt lat="43.8142283" lon="12.4339533"><ele>440.0</ele><time>2026-05-02T05:52:08.786Z</time></trkpt><trkpt lat="43.8142233" lon="12.4338083"><ele>442.0</ele><time>2026-05-02T05:52:09.79Z</time></trkpt><trkpt lat="43.814245" lon="12.4336767"><ele>444.0</ele><time>2026-05-02T05:52:10.786Z</time></trkpt><trkpt lat="43.8142883" lon="12.433545"><ele>446.75</ele><time>2026-05-02T05:52:11.788Z</time></trkpt><trkpt lat="43.8143467" lon="12.43342"><ele>449.5</ele><time>2026-05-02T05:52:12.789Z</time></trkpt><trkpt lat="43.8144117" lon="12.4332967"><ele>452.25</ele><time>2026-05-02T05:52:13.789Z</time></trkpt><trkpt lat="43.814485" lon="12.433165"><ele>455.0</ele><time>2026-05-02T05:52:14.786Z</time></trkpt><trkpt lat="43.814555" lon="12.43304"><ele>458.49999999999994</ele><time>2026-05-02T05:52:15.789Z</time></trkpt><trkpt lat="43.8146233" lon="12.4329183"><ele>462.0</ele><time>2026-05-02T05:52:16.787Z</time></trkpt><trkpt lat="43.81468" lon="12.43281"><ele>465.5</ele><time>2026-05-02T05:52:17.786Z</time></trkpt><trkpt lat="43.8147183" lon="12.4327067"><ele>469.0</ele><time>2026-05-02T05:52:18.787Z</time></trkpt><trkpt lat="43.8147283" lon="12.4326033"><ele>472.49999999999994</ele><time>2026-05-02T05:52:19.79Z</time></trkpt><trkpt lat="43.8147183" lon="12.4325083"><ele>476.0</ele><time>2026-05-02T05:52:20.789Z</time></trkpt><trkpt lat="43.8146817" lon="12.432435"><ele>475.99999999999994</ele><time>2026-05-02T05:52:21.79Z</time></trkpt><trkpt lat="43.814605" lon="12.4323817"><ele>476.0</ele><time>2026-05-02T05:52:22.79Z</time></trkpt><trkpt lat="43.8145367" lon="12.4323317"><ele>476.0</ele><time>2026-05-02T05:52:23.789Z</time></trkpt><trkpt lat="43.814485" lon="12.4322717"><ele>476.0</ele><time>2026-05-02T05:52:24.789Z</time></trkpt><trkpt lat="43.8144367" lon="12.4321233"><ele>475.99999999999994</ele><time>2026-05-02T05:52:26.79Z</time></trkpt><trkpt lat="43.8144783" lon="12.432035"><ele>476.0</ele><time>2026-05-02T05:52:27.789Z</time></trkpt><trkpt lat="43.8145417" lon="12.4319083"><ele>479.16666666666663</ele><time>2026-05-02T05:52:28.786Z</time></trkpt><trkpt lat="43.8145767" lon="12.4317717"><ele>482.3333333333333</ele><time>2026-05-02T05:52:29.79Z</time></trkpt><trkpt lat="43.814595" lon="12.4316367"><ele>485.5</ele><time>2026-05-02T05:52:30.79Z</time></trkpt><trkpt lat="43.8145933" lon="12.43152"><ele>488.66666666666663</ele><time>2026-05-02T05:52:31.789Z</time></trkpt><trkpt lat="43.8145783" lon="12.431415"><ele>491.8333333333333</ele><time>2026-05-02T05:52:32.789Z</time></trkpt><trkpt lat="43.81455" lon="12.4313283"><ele>495.0</ele><time>2026-05-02T05:52:33.789Z</time></trkpt><trkpt lat="43.81444" lon="12.43124"><ele>494.5</ele><time>2026-05-02T05:52:35.789Z</time></trkpt><trkpt lat="43.8143683" lon="12.431195"><ele>494.0</ele><time>2026-05-02T05:52:36.789Z</time></trkpt><trkpt lat="43.8143067" lon="12.4311317"><ele>493.5</ele><time>2026-05-02T05:52:37.785Z</time></trkpt><trkpt lat="43.8142583" lon="12.4310617"><ele>493.0</ele><time>2026-05-02T05:52:38.789Z</time></trkpt><trkpt lat="43.81424" lon="12.4309767"><ele>492.5</ele><time>2026-05-02T05:52:39.789Z</time></trkpt><trkpt lat="43.8142783" lon="12.4308433"><ele>492.0</ele><time>2026-05-02T05:52:41.789Z</time></trkpt><trkpt lat="43.8144" lon="12.4308367"><ele>495.20000000000005</ele><time>2026-05-02T05:52:43.79Z</time></trkpt><trkpt lat="43.8144867" lon="12.4308633"><ele>498.40000000000003</ele><time>2026-05-02T05:52:44.789Z</time></trkpt><trkpt lat="43.8145717" lon="12.4308783"><ele>501.59999999999997</ele><time>2026-05-02T05:52:45.789Z</time></trkpt><trkpt lat="43.8146617" lon="12.4308733"><ele>504.79999999999995</ele><time>2026-05-02T05:52:46.79Z</time></trkpt><trkpt lat="43.8147533" lon="12.4308433"><ele>508.0</ele><time>2026-05-02T05:52:47.79Z</time></trkpt><trkpt lat="43.814845" lon="12.4307767"><ele>508.0</ele><time>2026-05-02T05:52:48.79Z</time></trkpt><trkpt lat="43.8149333" lon="12.430705"><ele>507.99999999999994</ele><time>2026-05-02T05:52:49.79Z</time></trkpt><trkpt lat="43.8150283" lon="12.43064"><ele>507.99999999999994</ele><time>2026-05-02T05:52:50.789Z</time></trkpt><trkpt lat="43.8151333" lon="12.4305867"><ele>508.0</ele><time>2026-05-02T05:52:51.791Z</time></trkpt><trkpt lat="43.8152433" lon="12.4305667"><ele>508.0</ele><time>2026-05-02T05:52:52.789Z</time></trkpt><trkpt lat="43.8153533" lon="12.4305767"><ele>509.79999999999995</ele><time>2026-05-02T05:52:53.789Z</time></trkpt><trkpt lat="43.8154567" lon="12.4306133"><ele>511.59999999999997</ele><time>2026-05-02T05:52:54.789Z</time></trkpt><trkpt lat="43.8155567" lon="12.4306433"><ele>513.4000000000001</ele><time>2026-05-02T05:52:55.789Z</time></trkpt><trkpt lat="43.81565" lon="12.4306467"><ele>515.2</ele><time>2026-05-02T05:52:56.79Z</time></trkpt><trkpt lat="43.81574" lon="12.430615"><ele>517.0</ele><time>2026-05-02T05:52:57.791Z</time></trkpt><trkpt lat="43.8158167" lon="12.4305583"><ele>517.0</ele><time>2026-05-02T05:52:58.789Z</time></trkpt><trkpt lat="43.8158817" lon="12.43048"><ele>517.0</ele><time>2026-05-02T05:52:59.791Z</time></trkpt><trkpt lat="43.815935" lon="12.4303883"><ele>517.0</ele><time>2026-05-02T05:53:00.789Z</time></trkpt><trkpt lat="43.8159883" lon="12.4302833"><ele>517.0</ele><time>2026-05-02T05:53:01.79Z</time></trkpt><trkpt lat="43.816045" lon="12.43016"><ele>517.0</ele><time>2026-05-02T05:53:02.79Z</time></trkpt><trkpt lat="43.8161117" lon="12.4300317"><ele>519.5</ele><time>2026-05-02T05:53:03.791Z</time></trkpt><trkpt lat="43.816195" lon="12.429915"><ele>522.0</ele><time>2026-05-02T05:53:04.79Z</time></trkpt><trkpt lat="43.8162983" lon="12.4298067"><ele>524.5</ele><time>2026-05-02T05:53:05.789Z</time></trkpt><trkpt lat="43.8164217" lon="12.4297017"><ele>527.0</ele><time>2026-05-02T05:53:06.789Z</time></trkpt><trkpt lat="43.8165517" lon="12.4296067"><ele>528.0</ele><time>2026-05-02T05:53:07.789Z</time></trkpt><trkpt lat="43.81667" lon="12.4295083"><ele>529.0</ele><time>2026-05-02T05:53:08.789Z</time></trkpt><trkpt lat="43.816775" lon="12.4293967"><ele>530.0</ele><time>2026-05-02T05:53:09.789Z</time></trkpt><trkpt lat="43.81687" lon="12.4292733"><ele>531.0</ele><time>2026-05-02T05:53:10.789Z</time></trkpt><trkpt lat="43.8169683" lon="12.4291417"><ele>532.75</ele><time>2026-05-02T05:53:11.791Z</time></trkpt><trkpt lat="43.8170633" lon="12.429005"><ele>534.5</ele><time>2026-05-02T05:53:12.789Z</time></trkpt><trkpt lat="43.8171567" lon="12.4288667"><ele>536.25</ele><time>2026-05-02T05:53:13.789Z</time></trkpt><trkpt lat="43.817235" lon="12.42873"><ele>538.0</ele><time>2026-05-02T05:53:14.79Z</time></trkpt><trkpt lat="43.8172833" lon="12.428585"><ele>538.0</ele><time>2026-05-02T05:53:15.791Z</time></trkpt><trkpt lat="43.817305" lon="12.42843"><ele>538.0</ele><time>2026-05-02T05:53:16.789Z</time></trkpt><trkpt lat="43.8172933" lon="12.4282683"><ele>538.0</ele><time>2026-05-02T05:53:17.79Z</time></trkpt><trkpt lat="43.8172533" lon="12.4281017"><ele>538.0</ele><time>2026-05-02T05:53:18.79Z</time></trkpt><trkpt lat="43.8172017" lon="12.42793"><ele>540.0</ele><time>2026-05-02T05:53:19.789Z</time></trkpt><trkpt lat="43.8171433" lon="12.42775"><ele>542.0</ele><time>2026-05-02T05:53:20.791Z</time></trkpt><trkpt lat="43.8170817" lon="12.4275667"><ele>544.0</ele><time>2026-05-02T05:53:21.785Z</time></trkpt><trkpt lat="43.8170283" lon="12.42739"><ele>546.0</ele><time>2026-05-02T05:53:22.789Z</time></trkpt><trkpt lat="43.8169867" lon="12.4272367"><ele>547.0</ele><time>2026-05-02T05:53:23.788Z</time></trkpt><trkpt lat="43.816965" lon="12.4270983"><ele>548.0</ele><time>2026-05-02T05:53:24.789Z</time></trkpt><trkpt lat="43.8169617" lon="12.42696"><ele>549.0</ele><time>2026-05-02T05:53:25.789Z</time></trkpt><trkpt lat="43.81699" lon="12.426835"><ele>550.0</ele><time>2026-05-02T05:53:26.789Z</time></trkpt><trkpt lat="43.817035" lon="12.4267333"><ele>551.0</ele><time>2026-05-02T05:53:27.789Z</time></trkpt><trkpt lat="43.81709" lon="12.4266483"><ele>551.0</ele><time>2026-05-02T05:53:28.79Z</time></trkpt><trkpt lat="43.8171517" lon="12.4265917"><ele>551.0</ele><time>2026-05-02T05:53:29.789Z</time></trkpt><trkpt lat="43.8172267" lon="12.4265783"><ele>551.0</ele><time>2026-05-02T05:53:30.79Z</time></trkpt><trkpt lat="43.8173067" lon="12.4265933"><ele>551.0</ele><time>2026-05-02T05:53:31.789Z</time></trkpt><trkpt lat="43.8173917" lon="12.426615"><ele>551.0</ele><time>2026-05-02T05:53:32.79Z</time></trkpt><trkpt lat="43.8175" lon="12.4266883"><ele>551.0</ele><time>2026-05-02T05:53:33.789Z</time></trkpt><trkpt lat="43.8176033" lon="12.4267483"><ele>552.25</ele><time>2026-05-02T05:53:34.79Z</time></trkpt><trkpt lat="43.817715" lon="12.4268"><ele>553.5</ele><time>2026-05-02T05:53:35.789Z</time></trkpt><trkpt lat="43.8178283" lon="12.42682"><ele>554.75</ele><time>2026-05-02T05:53:36.79Z</time></trkpt><trkpt lat="43.8179433" lon="12.42681"><ele>556.0</ele><time>2026-05-02T05:53:37.79Z</time></trkpt><trkpt lat="43.8180617" lon="12.426785"><ele>556.0</ele><time>2026-05-02T05:53:38.789Z</time></trkpt><trkpt lat="43.81818" lon="12.4267567"><ele>556.0</ele><time>2026-05-02T05:53:39.789Z</time></trkpt><trkpt lat="43.8182967" lon="12.426725"><ele>556.0</ele><time>2026-05-02T05:53:40.789Z</time></trkpt><trkpt lat="43.818415" lon="12.4266867"><ele>556.0</ele><time>2026-05-02T05:53:41.789Z</time></trkpt><trkpt lat="43.8185367" lon="12.426645"><ele>557.5</ele><time>2026-05-02T05:53:42.79Z</time></trkpt><trkpt lat="43.8186617" lon="12.426605"><ele>559.0</ele><time>2026-05-02T05:53:43.789Z</time></trkpt><trkpt lat="43.8187883" lon="12.4265667"><ele>560.5</ele><time>2026-05-02T05:53:44.789Z</time></trkpt><trkpt lat="43.8189167" lon="12.4265283"><ele>562.0</ele><time>2026-05-02T05:53:45.79Z</time></trkpt><trkpt lat="43.819045" lon="12.426495"><ele>562.0</ele><time>2026-05-02T05:53:46.79Z</time></trkpt><trkpt lat="43.8191717" lon="12.4264667"><ele>562.0</ele><time>2026-05-02T05:53:47.787Z</time></trkpt><trkpt lat="43.8192967" lon="12.4264383"><ele>562.0</ele><time>2026-05-02T05:53:48.789Z</time></trkpt><trkpt lat="43.81942" lon="12.4264033"><ele>562.0</ele><time>2026-05-02T05:53:49.786Z</time></trkpt><trkpt lat="43.81954" lon="12.42636"><ele>564.25</ele><time>2026-05-02T05:53:50.787Z</time></trkpt><trkpt lat="43.8196583" lon="12.4263033"><ele>566.5</ele><time>2026-05-02T05:53:51.787Z</time></trkpt><trkpt lat="43.819775" lon="12.4262367"><ele>568.75</ele><time>2026-05-02T05:53:52.788Z</time></trkpt><trkpt lat="43.8198917" lon="12.426155"><ele>571.0</ele><time>2026-05-02T05:53:53.79Z</time></trkpt><trkpt lat="43.8200017" lon="12.4260583"><ele>571.0</ele><time>2026-05-02T05:53:54.789Z</time></trkpt><trkpt lat="43.8201033" lon="12.425945"><ele>571.0</ele><time>2026-05-02T05:53:55.789Z</time></trkpt><trkpt lat="43.8201933" lon="12.42581"><ele>571.0</ele><time>2026-05-02T05:53:56.786Z</time></trkpt><trkpt lat="43.820265" lon="12.425655"><ele>571.0</ele><time>2026-05-02T05:53:57.786Z</time></trkpt><trkpt lat="43.820325" lon="12.4254833"><ele>575.75</ele><time>2026-05-02T05:53:58.79Z</time></trkpt><trkpt lat="43.82037" lon="12.4253"><ele>580.5</ele><time>2026-05-02T05:53:59.789Z</time></trkpt><trkpt lat="43.8204" lon="12.425105"><ele>585.25</ele><time>2026-05-02T05:54:00.785Z</time></trkpt><trkpt lat="43.820405" lon="12.4249067"><ele>590.0</ele><time>2026-05-02T05:54:01.791Z</time></trkpt><trkpt lat="43.820385" lon="12.4247117"><ele>592.0</ele><time>2026-05-02T05:54:02.79Z</time></trkpt><trkpt lat="43.8203533" lon="12.4245283"><ele>594.0</ele><time>2026-05-02T05:54:03.792Z</time></trkpt><trkpt lat="43.82032" lon="12.42437"><ele>596.0</ele><time>2026-05-02T05:54:04.789Z</time></trkpt><trkpt lat="43.82029" lon="12.4242367"><ele>598.0</ele><time>2026-05-02T05:54:05.789Z</time></trkpt><trkpt lat="43.820265" lon="12.424125"><ele>600.0</ele><time>2026-05-02T05:54:06.786Z</time></trkpt><trkpt lat="43.82025" lon="12.4240267"><ele>600.0</ele><time>2026-05-02T05:54:07.786Z</time></trkpt><trkpt lat="43.820245" lon="12.4239233"><ele>600.0</ele><time>2026-05-02T05:54:08.788Z</time></trkpt><trkpt lat="43.8202483" lon="12.4238117"><ele>600.0</ele><time>2026-05-02T05:54:09.786Z</time></trkpt><trkpt lat="43.8202633" lon="12.4236883"><ele>600.0</ele><time>2026-05-02T05:54:10.786Z</time></trkpt><trkpt lat="43.8202867" lon="12.4235583"><ele>600.0</ele><time>2026-05-02T05:54:11.789Z</time></trkpt><trkpt lat="43.82031" lon="12.4234233"><ele>600.0</ele><time>2026-05-02T05:54:12.786Z</time></trkpt><trkpt lat="43.820335" lon="12.4232783"><ele>601.4</ele><time>2026-05-02T05:54:13.786Z</time></trkpt><trkpt lat="43.8203517" lon="12.4231283"><ele>602.8</ele><time>2026-05-02T05:54:14.786Z</time></trkpt><trkpt lat="43.8203583" lon="12.4229883"><ele>604.2</ele><time>2026-05-02T05:54:15.786Z</time></trkpt><trkpt lat="43.8203583" lon="12.4228583"><ele>605.6</ele><time>2026-05-02T05:54:16.786Z</time></trkpt><trkpt lat="43.82034" lon="12.4227283"><ele>607.0</ele><time>2026-05-02T05:54:17.787Z</time></trkpt><trkpt lat="43.8203183" lon="12.422605"><ele>607.0</ele><time>2026-05-02T05:54:18.786Z</time></trkpt><trkpt lat="43.8203167" lon="12.4224967"><ele>607.0</ele><time>2026-05-02T05:54:19.789Z</time></trkpt><trkpt lat="43.8203317" lon="12.4223933"><ele>607.0</ele><time>2026-05-02T05:54:20.79Z</time></trkpt><trkpt lat="43.8204167" lon="12.42226"><ele>607.0</ele><time>2026-05-02T05:54:22.789Z</time></trkpt><trkpt lat="43.8205183" lon="12.4222833"><ele>607.0</ele><time>2026-05-02T05:54:23.789Z</time></trkpt><trkpt lat="43.8205883" lon="12.4223267"><ele>607.0</ele><time>2026-05-02T05:54:24.789Z</time></trkpt><trkpt lat="43.8206717" lon="12.4224483"><ele>607.0</ele><time>2026-05-02T05:54:25.79Z</time></trkpt><trkpt lat="43.8207433" lon="12.422555"><ele>607.0</ele><time>2026-05-02T05:54:26.789Z</time></trkpt><trkpt lat="43.8208117" lon="12.4227333"><ele>607.0</ele><time>2026-05-02T05:54:27.79Z</time></trkpt><trkpt lat="43.8208833" lon="12.4228683"><ele>607.0</ele><time>2026-05-02T05:54:28.79Z</time></trkpt><trkpt lat="43.8209533" lon="12.423005"><ele>607.0</ele><time>2026-05-02T05:54:29.789Z</time></trkpt><trkpt lat="43.8210233" lon="12.4231433"><ele>607.0</ele><time>2026-05-02T05:54:30.791Z</time></trkpt><trkpt lat="43.8210933" lon="12.4232817"><ele>607.0</ele><time>2026-05-02T05:54:31.789Z</time></trkpt><trkpt lat="43.82117" lon="12.4234183"><ele>610.6</ele><time>2026-05-02T05:54:32.79Z</time></trkpt><trkpt lat="43.8212533" lon="12.423525"><ele>614.2</ele><time>2026-05-02T05:54:33.787Z</time></trkpt><trkpt lat="43.8213433" lon="12.4236117"><ele>617.8</ele><time>2026-05-02T05:54:34.787Z</time></trkpt><trkpt lat="43.8214383" lon="12.42368"><ele>621.4</ele><time>2026-05-02T05:54:35.786Z</time></trkpt><trkpt lat="43.821535" lon="12.4237183"><ele>625.0</ele><time>2026-05-02T05:54:36.786Z</time></trkpt><trkpt lat="43.8216133" lon="12.4237217"><ele>625.0</ele><time>2026-05-02T05:54:37.787Z</time></trkpt><trkpt lat="43.8216817" lon="12.4236917"><ele>625.0</ele><time>2026-05-02T05:54:38.787Z</time></trkpt><trkpt lat="43.8217367" lon="12.4236383"><ele>625.0</ele><time>2026-05-02T05:54:39.786Z</time></trkpt><trkpt lat="43.8217867" lon="12.423565"><ele>625.0</ele><time>2026-05-02T05:54:40.789Z</time></trkpt><trkpt lat="43.8218417" lon="12.4234733"><ele>625.0</ele><time>2026-05-02T05:54:41.786Z</time></trkpt><trkpt lat="43.8219067" lon="12.4233917"><ele>625.0</ele><time>2026-05-02T05:54:42.787Z</time></trkpt><trkpt lat="43.8219817" lon="12.4233283"><ele>627.8</ele><time>2026-05-02T05:54:43.79Z</time></trkpt><trkpt lat="43.822065" lon="12.4232717"><ele>630.6</ele><time>2026-05-02T05:54:44.789Z</time></trkpt><trkpt lat="43.822185" lon="12.4232633"><ele>633.4</ele><time>2026-05-02T05:54:45.79Z</time></trkpt><trkpt lat="43.8223" lon="12.423245"><ele>636.2</ele><time>2026-05-02T05:54:46.79Z</time></trkpt><trkpt lat="43.8224183" lon="12.4232267"><ele>639.0</ele><time>2026-05-02T05:54:47.789Z</time></trkpt><trkpt lat="43.8225383" lon="12.4232083"><ele>640.0</ele><time>2026-05-02T05:54:48.789Z</time></trkpt><trkpt lat="43.8226617" lon="12.4231917"><ele>641.0</ele><time>2026-05-02T05:54:49.789Z</time></trkpt><trkpt lat="43.822785" lon="12.4231783"><ele>642.0</ele><time>2026-05-02T05:54:50.79Z</time></trkpt><trkpt lat="43.8229017" lon="12.4231617"><ele>643.0</ele><time>2026-05-02T05:54:51.789Z</time></trkpt><trkpt lat="43.82301" lon="12.4231367"><ele>643.0</ele><time>2026-05-02T05:54:52.786Z</time></trkpt><trkpt lat="43.8231083" lon="12.4230883"><ele>643.0</ele><time>2026-05-02T05:54:53.792Z</time></trkpt><trkpt lat="43.823195" lon="12.4230167"><ele>643.0</ele><time>2026-05-02T05:54:54.787Z</time></trkpt><trkpt lat="43.8232783" lon="12.422925"><ele>643.0</ele><time>2026-05-02T05:54:55.79Z</time></trkpt><trkpt lat="43.8233617" lon="12.4228217"><ele>643.0</ele><time>2026-05-02T05:54:56.786Z</time></trkpt><trkpt lat="43.8234383" lon="12.422725"><ele>645.6666666666667</ele><time>2026-05-02T05:54:57.787Z</time></trkpt><trkpt lat="43.823505" lon="12.4226483"><ele>648.3333333333334</ele><time>2026-05-02T05:54:58.786Z</time></trkpt><trkpt lat="43.8235567" lon="12.422575"><ele>651.0</ele><time>2026-05-02T05:54:59.787Z</time></trkpt><trkpt lat="43.8235917" lon="12.4224883"><ele>653.6666666666666</ele><time>2026-05-02T05:55:00.788Z</time></trkpt><trkpt lat="43.8236067" lon="12.4223833"><ele>656.3333333333333</ele><time>2026-05-02T05:55:01.786Z</time></trkpt><trkpt lat="43.8236133" lon="12.422265"><ele>659.0</ele><time>2026-05-02T05:55:02.79Z</time></trkpt><trkpt lat="43.823615" lon="12.42214"><ele>660.8333333333333</ele><time>2026-05-02T05:55:03.788Z</time></trkpt><trkpt lat="43.8236167" lon="12.4220133"><ele>662.6666666666666</ele><time>2026-05-02T05:55:04.79Z</time></trkpt><trkpt lat="43.8236133" lon="12.42189"><ele>664.5</ele><time>2026-05-02T05:55:05.787Z</time></trkpt><trkpt lat="43.8236117" lon="12.4217717"><ele>666.3333333333334</ele><time>2026-05-02T05:55:06.786Z</time></trkpt><trkpt lat="43.8236183" lon="12.4216717"><ele>668.1666666666667</ele><time>2026-05-02T05:55:07.787Z</time></trkpt><trkpt lat="43.8236383" lon="12.42157"><ele>670.0</ele><time>2026-05-02T05:55:08.787Z</time></trkpt><trkpt lat="43.8236717" lon="12.4214683"><ele>670.0</ele><time>2026-05-02T05:55:09.789Z</time></trkpt><trkpt lat="43.82372" lon="12.4213617"><ele>670.0</ele><time>2026-05-02T05:55:10.79Z</time></trkpt><trkpt lat="43.823775" lon="12.4212533"><ele>670.0</ele><time>2026-05-02T05:55:11.789Z</time></trkpt><trkpt lat="43.8238367" lon="12.4211433"><ele>670.0</ele><time>2026-05-02T05:55:12.79Z</time></trkpt><trkpt lat="43.823905" lon="12.4210283"><ele>670.0</ele><time>2026-05-02T05:55:13.786Z</time></trkpt><trkpt lat="43.8239733" lon="12.42091"><ele>671.0</ele><time>2026-05-02T05:55:14.787Z</time></trkpt><trkpt lat="43.8240367" lon="12.4207833"><ele>672.0</ele><time>2026-05-02T05:55:15.789Z</time></trkpt><trkpt lat="43.8240933" lon="12.4206533"><ele>673.0</ele><time>2026-05-02T05:55:16.789Z</time></trkpt><trkpt lat="43.8241433" lon="12.4205233"><ele>674.0</ele><time>2026-05-02T05:55:17.79Z</time></trkpt><trkpt lat="43.8241833" lon="12.420395"><ele>675.0</ele><time>2026-05-02T05:55:18.786Z</time></trkpt><trkpt lat="43.82422" lon="12.420255"><ele>675.0</ele><time>2026-05-02T05:55:19.79Z</time></trkpt><trkpt lat="43.8242567" lon="12.4201067"><ele>675.0</ele><time>2026-05-02T05:55:20.789Z</time></trkpt><trkpt lat="43.8242967" lon="12.4199533"><ele>675.0</ele><time>2026-05-02T05:55:21.786Z</time></trkpt><trkpt lat="43.8243317" lon="12.4198033"><ele>675.0</ele><time>2026-05-02T05:55:22.786Z</time></trkpt><trkpt lat="43.82437" lon="12.4196483"><ele>679.5</ele><time>2026-05-02T05:55:23.789Z</time></trkpt><trkpt lat="43.82441" lon="12.41949"><ele>684.0</ele><time>2026-05-02T05:55:24.786Z</time></trkpt><trkpt lat="43.8244517" lon="12.4193333"><ele>688.5</ele><time>2026-05-02T05:55:25.787Z</time></trkpt><trkpt lat="43.8244967" lon="12.4191767"><ele>693.0</ele><time>2026-05-02T05:55:26.79Z</time></trkpt><trkpt lat="43.824535" lon="12.4190233"><ele>693.0</ele><time>2026-05-02T05:55:27.789Z</time></trkpt><trkpt lat="43.8245717" lon="12.418875"><ele>693.0</ele><time>2026-05-02T05:55:28.787Z</time></trkpt><trkpt lat="43.8245883" lon="12.4187567"><ele>693.0</ele><time>2026-05-02T05:55:29.788Z</time></trkpt><trkpt lat="43.8245983" lon="12.418655"><ele>693.0</ele><time>2026-05-02T05:55:30.79Z</time></trkpt><trkpt lat="43.8246017" lon="12.4185467"><ele>693.0</ele><time>2026-05-02T05:55:31.79Z</time></trkpt><trkpt lat="43.82459" lon="12.41843"><ele>693.0</ele><time>2026-05-02T05:55:32.786Z</time></trkpt><trkpt lat="43.82457" lon="12.4183117"><ele>692.4</ele><time>2026-05-02T05:55:33.791Z</time></trkpt><trkpt lat="43.82453" lon="12.4181833"><ele>691.8</ele><time>2026-05-02T05:55:34.787Z</time></trkpt><trkpt lat="43.824485" lon="12.4180533"><ele>691.2</ele><time>2026-05-02T05:55:35.786Z</time></trkpt><trkpt lat="43.8244533" lon="12.4179383"><ele>690.6</ele><time>2026-05-02T05:55:36.788Z</time></trkpt><trkpt lat="43.8244283" lon="12.417825"><ele>690.0</ele><time>2026-05-02T05:55:37.791Z</time></trkpt><trkpt lat="43.824425" lon="12.4177067"><ele>690.0</ele><time>2026-05-02T05:55:38.79Z</time></trkpt><trkpt lat="43.8244267" lon="12.417575"><ele>690.0</ele><time>2026-05-02T05:55:39.786Z</time></trkpt><trkpt lat="43.8244367" lon="12.417425"><ele>690.0</ele><time>2026-05-02T05:55:40.789Z</time></trkpt><trkpt lat="43.8244417" lon="12.4172667"><ele>690.0</ele><time>2026-05-02T05:55:41.789Z</time></trkpt><trkpt lat="43.8244417" lon="12.4171033"><ele>690.0</ele><time>2026-05-02T05:55:42.789Z</time></trkpt><trkpt lat="43.82444" lon="12.4169433"><ele>690.4</ele><time>2026-05-02T05:55:43.787Z</time></trkpt><trkpt lat="43.82444" lon="12.4167883"><ele>690.8</ele><time>2026-05-02T05:55:44.788Z</time></trkpt><trkpt lat="43.824445" lon="12.4166383"><ele>691.2</ele><time>2026-05-02T05:55:45.787Z</time></trkpt><trkpt lat="43.8244517" lon="12.41649"><ele>691.6</ele><time>2026-05-02T05:55:46.788Z</time></trkpt><trkpt lat="43.824455" lon="12.4163417"><ele>692.0</ele><time>2026-05-02T05:55:47.787Z</time></trkpt><trkpt lat="43.8244567" lon="12.4161917"><ele>692.8</ele><time>2026-05-02T05:55:48.788Z</time></trkpt><trkpt lat="43.82446" lon="12.4160417"><ele>693.6</ele><time>2026-05-02T05:55:49.789Z</time></trkpt><trkpt lat="43.8244667" lon="12.4158967"><ele>694.4</ele><time>2026-05-02T05:55:50.79Z</time></trkpt><trkpt lat="43.82447" lon="12.4157667"><ele>695.1999999999999</ele><time>2026-05-02T05:55:51.79Z</time></trkpt><trkpt lat="43.8244683" lon="12.4156417"><ele>696.0</ele><time>2026-05-02T05:55:52.787Z</time></trkpt><trkpt lat="43.824455" lon="12.415525"><ele>697.6666666666666</ele><time>2026-05-02T05:55:53.786Z</time></trkpt><trkpt lat="43.824435" lon="12.4154267"><ele>699.3333333333334</ele><time>2026-05-02T05:55:54.79Z</time></trkpt><trkpt lat="43.8244067" lon="12.415345"><ele>701.0</ele><time>2026-05-02T05:55:55.787Z</time></trkpt><trkpt lat="43.824305" lon="12.415235"><ele>702.6666666666667</ele><time>2026-05-02T05:55:57.787Z</time></trkpt><trkpt lat="43.82423" lon="12.415215"><ele>704.3333333333334</ele><time>2026-05-02T05:55:58.787Z</time></trkpt><trkpt lat="43.82415" lon="12.4152033"><ele>706.0</ele><time>2026-05-02T05:55:59.787Z</time></trkpt><trkpt lat="43.8240417" lon="12.4152217"><ele>701.5999999999999</ele><time>2026-05-02T05:56:00.786Z</time></trkpt><trkpt lat="43.823945" lon="12.4152183"><ele>697.2</ele><time>2026-05-02T05:56:01.787Z</time></trkpt><trkpt lat="43.82385" lon="12.4151933"><ele>692.8</ele><time>2026-05-02T05:56:02.787Z</time></trkpt><trkpt lat="43.82376" lon="12.4151533"><ele>688.4000000000001</ele><time>2026-05-02T05:56:03.787Z</time></trkpt><trkpt lat="43.8236633" lon="12.4151133"><ele>684.0</ele><time>2026-05-02T05:56:04.788Z</time></trkpt><trkpt lat="43.8235683" lon="12.4150783"><ele>684.0</ele><time>2026-05-02T05:56:05.789Z</time></trkpt><trkpt lat="43.8234883" lon="12.41504"><ele>684.0</ele><time>2026-05-02T05:56:06.79Z</time></trkpt><trkpt lat="43.8234217" lon="12.415005"><ele>684.0</ele><time>2026-05-02T05:56:07.791Z</time></trkpt><trkpt lat="43.8233167" lon="12.4149417"><ele>684.0</ele><time>2026-05-02T05:56:09.786Z</time></trkpt><trkpt lat="43.8232467" lon="12.4148683"><ele>684.0</ele><time>2026-05-02T05:56:11.789Z</time></trkpt><trkpt lat="43.8232233" lon="12.414755"><ele>684.0</ele><time>2026-05-02T05:56:13.79Z</time></trkpt><trkpt lat="43.82325" lon="12.4145933"><ele>683.8333333333334</ele><time>2026-05-02T05:56:15.88Z</time></trkpt><trkpt lat="43.8232867" lon="12.4144983"><ele>683.6666666666666</ele><time>2026-05-02T05:56:16.786Z</time></trkpt><trkpt lat="43.8233217" lon="12.4144133"><ele>683.5</ele><time>2026-05-02T05:56:17.795Z</time></trkpt><trkpt lat="43.8233567" lon="12.4143383"><ele>683.3333333333333</ele><time>2026-05-02T05:56:18.79Z</time></trkpt><trkpt lat="43.8234067" lon="12.4142"><ele>683.1666666666666</ele><time>2026-05-02T05:56:20.79Z</time></trkpt><trkpt lat="43.8234583" lon="12.41407"><ele>683.0</ele><time>2026-05-02T05:56:22.787Z</time></trkpt><trkpt lat="43.8234883" lon="12.4139883"><ele>683.0</ele><time>2026-05-02T05:56:23.789Z</time></trkpt><trkpt lat="43.8235283" lon="12.4138983"><ele>683.0</ele><time>2026-05-02T05:56:24.791Z</time></trkpt><trkpt lat="43.8235667" lon="12.4138"><ele>683.0</ele><time>2026-05-02T05:56:25.789Z</time></trkpt><trkpt lat="43.8236067" lon="12.4137"><ele>683.0</ele><time>2026-05-02T05:56:26.786Z</time></trkpt><trkpt lat="43.82365" lon="12.4136"><ele>683.0</ele><time>2026-05-02T05:56:27.786Z</time></trkpt><trkpt lat="43.8236917" lon="12.4134967"><ele>683.0</ele><time>2026-05-02T05:56:28.787Z</time></trkpt><trkpt lat="43.8237317" lon="12.413395"><ele>682.0</ele><time>2026-05-02T05:56:29.788Z</time></trkpt><trkpt lat="43.8237717" lon="12.4132867"><ele>681.0</ele><time>2026-05-02T05:56:30.786Z</time></trkpt><trkpt lat="43.823815" lon="12.4131733"><ele>680.0</ele><time>2026-05-02T05:56:31.786Z</time></trkpt><trkpt lat="43.82386" lon="12.4130533"><ele>679.0</ele><time>2026-05-02T05:56:32.787Z</time></trkpt><trkpt lat="43.823905" lon="12.4129283"><ele>678.0</ele><time>2026-05-02T05:56:33.786Z</time></trkpt><trkpt lat="43.823955" lon="12.4128017"><ele>676.8</ele><time>2026-05-02T05:56:34.787Z</time></trkpt><trkpt lat="43.8240017" lon="12.4126767"><ele>675.5999999999999</ele><time>2026-05-02T05:56:35.788Z</time></trkpt><trkpt lat="43.82405" lon="12.4125483"><ele>674.4000000000001</ele><time>2026-05-02T05:56:36.786Z</time></trkpt><trkpt lat="43.8241" lon="12.4124217"><ele>673.2</ele><time>2026-05-02T05:56:37.787Z</time></trkpt><trkpt lat="43.8241533" lon="12.4123017"><ele>672.0</ele><time>2026-05-02T05:56:38.787Z</time></trkpt><trkpt lat="43.8242033" lon="12.41218"><ele>671.0</ele><time>2026-05-02T05:56:39.786Z</time></trkpt><trkpt lat="43.8242483" lon="12.4120667"><ele>670.0</ele><time>2026-05-02T05:56:40.787Z</time></trkpt><trkpt lat="43.8242917" lon="12.4119567"><ele>669.0</ele><time>2026-05-02T05:56:41.787Z</time></trkpt><trkpt lat="43.8243367" lon="12.411845"><ele>668.0</ele><time>2026-05-02T05:56:42.79Z</time></trkpt><trkpt lat="43.824375" lon="12.41174"><ele>667.0</ele><time>2026-05-02T05:56:43.79Z</time></trkpt><trkpt lat="43.8243933" lon="12.4116417"><ele>666.0</ele><time>2026-05-02T05:56:44.79Z</time></trkpt><trkpt lat="43.8243933" lon="12.4115433"><ele>665.8333333333334</ele><time>2026-05-02T05:56:45.791Z</time></trkpt><trkpt lat="43.8243783" lon="12.4114333"><ele>665.6666666666666</ele><time>2026-05-02T05:56:46.789Z</time></trkpt><trkpt lat="43.824365" lon="12.4113283"><ele>665.5</ele><time>2026-05-02T05:56:47.788Z</time></trkpt><trkpt lat="43.824335" lon="12.4112133"><ele>665.3333333333333</ele><time>2026-05-02T05:56:48.787Z</time></trkpt><trkpt lat="43.8242983" lon="12.4111"><ele>665.1666666666666</ele><time>2026-05-02T05:56:49.79Z</time></trkpt><trkpt lat="43.8242617" lon="12.4109817"><ele>665.0</ele><time>2026-05-02T05:56:50.787Z</time></trkpt><trkpt lat="43.8242233" lon="12.4108617"><ele>664.8</ele><time>2026-05-02T05:56:51.787Z</time></trkpt><trkpt lat="43.8241883" lon="12.41074"><ele>664.6</ele><time>2026-05-02T05:56:52.787Z</time></trkpt><trkpt lat="43.82416" lon="12.410615"><ele>664.4000000000001</ele><time>2026-05-02T05:56:53.79Z</time></trkpt><trkpt lat="43.8241317" lon="12.4104883"><ele>664.2</ele><time>2026-05-02T05:56:54.789Z</time></trkpt><trkpt lat="43.8241017" lon="12.4103633"><ele>664.0</ele><time>2026-05-02T05:56:55.791Z</time></trkpt><trkpt lat="43.8240667" lon="12.410235"><ele>664.0</ele><time>2026-05-02T05:56:56.787Z</time></trkpt><trkpt lat="43.8240317" lon="12.4101067"><ele>664.0</ele><time>2026-05-02T05:56:57.786Z</time></trkpt><trkpt lat="43.823995" lon="12.4099733"><ele>664.0</ele><time>2026-05-02T05:56:58.788Z</time></trkpt><trkpt lat="43.8239617" lon="12.409835"><ele>664.0</ele><time>2026-05-02T05:56:59.787Z</time></trkpt><trkpt lat="43.8239267" lon="12.4096933"><ele>664.0</ele><time>2026-05-02T05:57:00.786Z</time></trkpt><trkpt lat="43.82389" lon="12.4095467"><ele>663.2</ele><time>2026-05-02T05:57:01.787Z</time></trkpt><trkpt lat="43.8238533" lon="12.4093983"><ele>662.4000000000001</ele><time>2026-05-02T05:57:02.788Z</time></trkpt><trkpt lat="43.8238167" lon="12.40925"><ele>661.6</ele><time>2026-05-02T05:57:03.79Z</time></trkpt><trkpt lat="43.8237833" lon="12.4091067"><ele>660.8</ele><time>2026-05-02T05:57:04.79Z</time></trkpt><trkpt lat="43.8237567" lon="12.4089683"><ele>660.0</ele><time>2026-05-02T05:57:05.79Z</time></trkpt><trkpt lat="43.8237433" lon="12.4088333"><ele>660.6</ele><time>2026-05-02T05:57:06.789Z</time></trkpt><trkpt lat="43.823745" lon="12.4087033"><ele>661.2</ele><time>2026-05-02T05:57:07.79Z</time></trkpt><trkpt lat="43.8237567" lon="12.4085783"><ele>661.8</ele><time>2026-05-02T05:57:08.79Z</time></trkpt><trkpt lat="43.8237767" lon="12.4084583"><ele>662.4</ele><time>2026-05-02T05:57:09.787Z</time></trkpt><trkpt lat="43.82381" lon="12.4083417"><ele>663.0</ele><time>2026-05-02T05:57:10.789Z</time></trkpt><trkpt lat="43.823865" lon="12.4082317"><ele>663.0</ele><time>2026-05-02T05:57:11.79Z</time></trkpt><trkpt lat="43.8239333" lon="12.4081433"><ele>663.0</ele><time>2026-05-02T05:57:12.791Z</time></trkpt><trkpt lat="43.8240033" lon="12.408065"><ele>663.0</ele><time>2026-05-02T05:57:13.788Z</time></trkpt><trkpt lat="43.8240633" lon="12.4079917"><ele>663.0</ele><time>2026-05-02T05:57:14.786Z</time></trkpt><trkpt lat="43.824105" lon="12.407905"><ele>663.0</ele><time>2026-05-02T05:57:15.791Z</time></trkpt><trkpt lat="43.8241267" lon="12.4078017"><ele>663.0</ele><time>2026-05-02T05:57:16.79Z</time></trkpt><trkpt lat="43.824145" lon="12.4076967"><ele>662.8333333333334</ele><time>2026-05-02T05:57:17.787Z</time></trkpt><trkpt lat="43.824165" lon="12.4076017"><ele>662.6666666666666</ele><time>2026-05-02T05:57:18.79Z</time></trkpt><trkpt lat="43.824195" lon="12.40752"><ele>662.5</ele><time>2026-05-02T05:57:19.787Z</time></trkpt><trkpt lat="43.8242633" lon="12.407415"><ele>662.3333333333333</ele><time>2026-05-02T05:57:21.787Z</time></trkpt><trkpt lat="43.824355" lon="12.40748"><ele>662.1666666666666</ele><time>2026-05-02T05:57:23.787Z</time></trkpt><trkpt lat="43.8244017" lon="12.407555"><ele>662.0</ele><time>2026-05-02T05:57:24.786Z</time></trkpt><trkpt lat="43.8244767" lon="12.4076767"><ele>658.6666666666666</ele><time>2026-05-02T05:57:25.79Z</time></trkpt><trkpt lat="43.824555" lon="12.40776"><ele>655.3333333333333</ele><time>2026-05-02T05:57:26.786Z</time></trkpt><trkpt lat="43.8246367" lon="12.407805"><ele>652.0</ele><time>2026-05-02T05:57:27.787Z</time></trkpt><trkpt lat="43.8247083" lon="12.40781"><ele>648.6666666666666</ele><time>2026-05-02T05:57:28.789Z</time></trkpt><trkpt lat="43.8247767" lon="12.407775"><ele>645.3333333333334</ele><time>2026-05-02T05:57:29.787Z</time></trkpt><trkpt lat="43.8248117" lon="12.4076933"><ele>642.0</ele><time>2026-05-02T05:57:30.788Z</time></trkpt><trkpt lat="43.8248183" lon="12.4075867"><ele>642.0</ele><time>2026-05-02T05:57:31.787Z</time></trkpt><trkpt lat="43.8247867" lon="12.4074517"><ele>642.0</ele><time>2026-05-02T05:57:32.788Z</time></trkpt><trkpt lat="43.8247683" lon="12.4073333"><ele>642.0</ele><time>2026-05-02T05:57:33.789Z</time></trkpt><trkpt lat="43.8247217" lon="12.4072133"><ele>642.0</ele><time>2026-05-02T05:57:34.786Z</time></trkpt><trkpt lat="43.8246517" lon="12.4070867"><ele>642.0</ele><time>2026-05-02T05:57:35.788Z</time></trkpt><trkpt lat="43.824565" lon="12.4069767"><ele>643.0</ele><time>2026-05-02T05:57:36.79Z</time></trkpt><trkpt lat="43.8244917" lon="12.4068817"><ele>644.0</ele><time>2026-05-02T05:57:37.787Z</time></trkpt><trkpt lat="43.8244117" lon="12.4067867"><ele>645.0</ele><time>2026-05-02T05:57:38.788Z</time></trkpt><trkpt lat="43.82434" lon="12.4066867"><ele>646.0</ele><time>2026-05-02T05:57:39.788Z</time></trkpt><trkpt lat="43.8242683" lon="12.4065917"><ele>647.0</ele><time>2026-05-02T05:57:40.788Z</time></trkpt><trkpt lat="43.8241983" lon="12.4065017"><ele>647.0</ele><time>2026-05-02T05:57:41.789Z</time></trkpt><trkpt lat="43.8241367" lon="12.406415"><ele>647.0</ele><time>2026-05-02T05:57:42.787Z</time></trkpt><trkpt lat="43.8240783" lon="12.40633"><ele>647.0</ele><time>2026-05-02T05:57:43.789Z</time></trkpt><trkpt lat="43.82401" lon="12.4062483"><ele>647.0</ele><time>2026-05-02T05:57:44.788Z</time></trkpt><trkpt lat="43.8239483" lon="12.406165"><ele>647.0</ele><time>2026-05-02T05:57:45.788Z</time></trkpt><trkpt lat="43.8238867" lon="12.4060767"><ele>647.0</ele><time>2026-05-02T05:57:46.791Z</time></trkpt><trkpt lat="43.8238317" lon="12.4059783"><ele>643.6</ele><time>2026-05-02T05:57:47.787Z</time></trkpt><trkpt lat="43.8237583" lon="12.40582"><ele>640.2</ele><time>2026-05-02T05:57:49.788Z</time></trkpt><trkpt lat="43.823715" lon="12.4057317"><ele>636.8</ele><time>2026-05-02T05:57:50.788Z</time></trkpt><trkpt lat="43.82367" lon="12.4056267"><ele>633.4</ele><time>2026-05-02T05:57:51.787Z</time></trkpt><trkpt lat="43.8236283" lon="12.405505"><ele>630.0</ele><time>2026-05-02T05:57:52.787Z</time></trkpt><trkpt lat="43.8235867" lon="12.4053667"><ele>631.25</ele><time>2026-05-02T05:57:53.787Z</time></trkpt><trkpt lat="43.823555" lon="12.4052183"><ele>632.5</ele><time>2026-05-02T05:57:54.791Z</time></trkpt><trkpt lat="43.82353" lon="12.4050667"><ele>633.75</ele><time>2026-05-02T05:57:55.79Z</time></trkpt><trkpt lat="43.823505" lon="12.404915"><ele>635.0</ele><time>2026-05-02T05:57:56.786Z</time></trkpt><trkpt lat="43.8234783" lon="12.4047583"><ele>633.75</ele><time>2026-05-02T05:57:57.788Z</time></trkpt><trkpt lat="43.8234483" lon="12.4045933"><ele>632.5</ele><time>2026-05-02T05:57:58.787Z</time></trkpt><trkpt lat="43.8234117" lon="12.4044333"><ele>631.25</ele><time>2026-05-02T05:57:59.788Z</time></trkpt><trkpt lat="43.823355" lon="12.404285"><ele>630.0</ele><time>2026-05-02T05:58:00.788Z</time></trkpt><trkpt lat="43.8232783" lon="12.40415"><ele>630.0</ele><time>2026-05-02T05:58:01.788Z</time></trkpt><trkpt lat="43.82319" lon="12.4040233"><ele>630.0</ele><time>2026-05-02T05:58:02.787Z</time></trkpt><trkpt lat="43.823095" lon="12.4038883"><ele>630.0</ele><time>2026-05-02T05:58:03.789Z</time></trkpt><trkpt lat="43.8229967" lon="12.403745"><ele>630.0</ele><time>2026-05-02T05:58:04.79Z</time></trkpt><trkpt lat="43.8229117" lon="12.403585"><ele>628.0</ele><time>2026-05-02T05:58:05.79Z</time></trkpt><trkpt lat="43.8228367" lon="12.4034083"><ele>626.0</ele><time>2026-05-02T05:58:06.79Z</time></trkpt><trkpt lat="43.8227633" lon="12.4032233"><ele>624.0</ele><time>2026-05-02T05:58:07.786Z</time></trkpt><trkpt lat="43.8226933" lon="12.4030367"><ele>626.6666666666666</ele><time>2026-05-02T05:58:08.785Z</time></trkpt><trkpt lat="43.822625" lon="12.4028433"><ele>629.3333333333333</ele><time>2026-05-02T05:58:09.786Z</time></trkpt><trkpt lat="43.8225617" lon="12.4026467"><ele>632.0</ele><time>2026-05-02T05:58:10.787Z</time></trkpt><trkpt lat="43.8225" lon="12.4024483"><ele>632.0</ele><time>2026-05-02T05:58:11.787Z</time></trkpt><trkpt lat="43.8224417" lon="12.4022483"><ele>632.0</ele><time>2026-05-02T05:58:12.787Z</time></trkpt><trkpt lat="43.8223867" lon="12.4020467"><ele>632.0</ele><time>2026-05-02T05:58:13.786Z</time></trkpt><trkpt lat="43.82233" lon="12.4018417"><ele>632.0</ele><time>2026-05-02T05:58:14.786Z</time></trkpt><trkpt lat="43.822275" lon="12.4016383"><ele>632.0</ele><time>2026-05-02T05:58:15.786Z</time></trkpt><trkpt lat="43.8222233" lon="12.401435"><ele>632.0</ele><time>2026-05-02T05:58:16.787Z</time></trkpt><trkpt lat="43.8221717" lon="12.4012317"><ele>630.3333333333333</ele><time>2026-05-02T05:58:17.787Z</time></trkpt><trkpt lat="43.8221217" lon="12.4010317"><ele>628.6666666666666</ele><time>2026-05-02T05:58:18.788Z</time></trkpt><trkpt lat="43.8220783" lon="12.4008317"><ele>627.0</ele><time>2026-05-02T05:58:19.785Z</time></trkpt><trkpt lat="43.8220417" lon="12.4006317"><ele>626.75</ele><time>2026-05-02T05:58:20.789Z</time></trkpt><trkpt lat="43.8220117" lon="12.400435"><ele>626.5</ele><time>2026-05-02T05:58:21.791Z</time></trkpt><trkpt lat="43.8219917" lon="12.40024"><ele>626.25</ele><time>2026-05-02T05:58:22.788Z</time></trkpt><trkpt lat="43.8219717" lon="12.400045"><ele>626.0</ele><time>2026-05-02T05:58:23.789Z</time></trkpt><trkpt lat="43.8219567" lon="12.3998533"><ele>627.0</ele><time>2026-05-02T05:58:24.788Z</time></trkpt><trkpt lat="43.8219483" lon="12.399655"><ele>628.0</ele><time>2026-05-02T05:58:25.788Z</time></trkpt><trkpt lat="43.8219483" lon="12.3994517"><ele>629.0</ele><time>2026-05-02T05:58:26.786Z</time></trkpt><trkpt lat="43.82195" lon="12.3992467"><ele>630.0</ele><time>2026-05-02T05:58:27.786Z</time></trkpt><trkpt lat="43.8219583" lon="12.39904"><ele>630.0</ele><time>2026-05-02T05:58:28.786Z</time></trkpt><trkpt lat="43.8219783" lon="12.3988367"><ele>630.0</ele><time>2026-05-02T05:58:29.786Z</time></trkpt><trkpt lat="43.8220083" lon="12.398635"><ele>630.0</ele><time>2026-05-02T05:58:30.786Z</time></trkpt><trkpt lat="43.822055" lon="12.398435"><ele>630.0</ele><time>2026-05-02T05:58:31.786Z</time></trkpt><trkpt lat="43.8221167" lon="12.3982383"><ele>632.0</ele><time>2026-05-02T05:58:32.787Z</time></trkpt><trkpt lat="43.822185" lon="12.398035"><ele>634.0</ele><time>2026-05-02T05:58:33.789Z</time></trkpt><trkpt lat="43.822255" lon="12.3978333"><ele>636.0</ele><time>2026-05-02T05:58:34.791Z</time></trkpt><trkpt lat="43.822325" lon="12.3976267"><ele>636.0</ele><time>2026-05-02T05:58:35.789Z</time></trkpt><trkpt lat="43.8223967" lon="12.3974217"><ele>636.0</ele><time>2026-05-02T05:58:36.789Z</time></trkpt><trkpt lat="43.8224617" lon="12.3972217"><ele>636.0</ele><time>2026-05-02T05:58:37.785Z</time></trkpt><trkpt lat="43.8225183" lon="12.3970283"><ele>637.5</ele><time>2026-05-02T05:58:38.786Z</time></trkpt><trkpt lat="43.822565" lon="12.3968433"><ele>639.0</ele><time>2026-05-02T05:58:39.786Z</time></trkpt><trkpt lat="43.8225967" lon="12.39667"><ele>640.5</ele><time>2026-05-02T05:58:40.786Z</time></trkpt><trkpt lat="43.8226017" lon="12.3965017"><ele>642.0</ele><time>2026-05-02T05:58:41.786Z</time></trkpt><trkpt lat="43.8225717" lon="12.3963317"><ele>643.5</ele><time>2026-05-02T05:58:42.785Z</time></trkpt><trkpt lat="43.8225017" lon="12.39617"><ele>645.0</ele><time>2026-05-02T05:58:43.787Z</time></trkpt><trkpt lat="43.822405" lon="12.396025"><ele>646.5</ele><time>2026-05-02T05:58:44.786Z</time></trkpt><trkpt lat="43.8222917" lon="12.3958933"><ele>648.0</ele><time>2026-05-02T05:58:45.786Z</time></trkpt><trkpt lat="43.8221717" lon="12.3957633"><ele>648.0</ele><time>2026-05-02T05:58:46.786Z</time></trkpt><trkpt lat="43.82205" lon="12.3956317"><ele>648.0</ele><time>2026-05-02T05:58:47.787Z</time></trkpt><trkpt lat="43.821935" lon="12.3955"><ele>648.0</ele><time>2026-05-02T05:58:48.785Z</time></trkpt><trkpt lat="43.8218217" lon="12.39536"><ele>650.25</ele><time>2026-05-02T05:58:49.785Z</time></trkpt><trkpt lat="43.8217183" lon="12.3952083"><ele>652.5</ele><time>2026-05-02T05:58:50.789Z</time></trkpt><trkpt lat="43.8216233" lon="12.39505"><ele>654.75</ele><time>2026-05-02T05:58:51.789Z</time></trkpt><trkpt lat="43.8215383" lon="12.39488"><ele>657.0</ele><time>2026-05-02T05:58:52.789Z</time></trkpt><trkpt lat="43.8214617" lon="12.3947"><ele>658.0</ele><time>2026-05-02T05:58:53.786Z</time></trkpt><trkpt lat="43.821395" lon="12.3945283"><ele>659.0</ele><time>2026-05-02T05:58:54.789Z</time></trkpt><trkpt lat="43.8213467" lon="12.3943533"><ele>660.0</ele><time>2026-05-02T05:58:55.787Z</time></trkpt><trkpt lat="43.8213217" lon="12.39417"><ele>661.0</ele><time>2026-05-02T05:58:56.787Z</time></trkpt><trkpt lat="43.82132" lon="12.3939917"><ele>660.0</ele><time>2026-05-02T05:58:57.787Z</time></trkpt><trkpt lat="43.8213133" lon="12.3938117"><ele>659.0</ele><time>2026-05-02T05:58:58.787Z</time></trkpt><trkpt lat="43.8212783" lon="12.3936367"><ele>658.0</ele><time>2026-05-02T05:58:59.789Z</time></trkpt><trkpt lat="43.8212167" lon="12.3934683"><ele>657.0</ele><time>2026-05-02T05:59:00.785Z</time></trkpt><trkpt lat="43.821135" lon="12.3933033"><ele>657.0</ele><time>2026-05-02T05:59:01.786Z</time></trkpt><trkpt lat="43.821045" lon="12.393135"><ele>657.0</ele><time>2026-05-02T05:59:02.786Z</time></trkpt><trkpt lat="43.820945" lon="12.39297"><ele>657.0</ele><time>2026-05-02T05:59:03.786Z</time></trkpt><trkpt lat="43.8208367" lon="12.392805"><ele>656.0</ele><time>2026-05-02T05:59:04.789Z</time></trkpt><trkpt lat="43.82072" lon="12.3926417"><ele>655.0</ele><time>2026-05-02T05:59:05.789Z</time></trkpt><trkpt lat="43.8206033" lon="12.3924817"><ele>654.0</ele><time>2026-05-02T05:59:06.789Z</time></trkpt><trkpt lat="43.8204933" lon="12.39232"><ele>653.75</ele><time>2026-05-02T05:59:07.786Z</time></trkpt><trkpt lat="43.8203867" lon="12.392155"><ele>653.5</ele><time>2026-05-02T05:59:08.787Z</time></trkpt><trkpt lat="43.820295" lon="12.392"><ele>653.25</ele><time>2026-05-02T05:59:09.787Z</time></trkpt><trkpt lat="43.8202233" lon="12.3918583"><ele>653.0</ele><time>2026-05-02T05:59:10.787Z</time></trkpt><trkpt lat="43.8201683" lon="12.39173"><ele>653.6666666666666</ele><time>2026-05-02T05:59:11.786Z</time></trkpt><trkpt lat="43.8201233" lon="12.3916183"><ele>654.3333333333333</ele><time>2026-05-02T05:59:12.787Z</time></trkpt><trkpt lat="43.8200867" lon="12.39152"><ele>655.0</ele><time>2026-05-02T05:59:13.786Z</time></trkpt><trkpt lat="43.8200583" lon="12.3914383"><ele>655.6666666666666</ele><time>2026-05-02T05:59:14.788Z</time></trkpt><trkpt lat="43.820015" lon="12.3913367"><ele>656.3333333333334</ele><time>2026-05-02T05:59:16.786Z</time></trkpt><trkpt lat="43.8200217" lon="12.3914633"><ele>657.0</ele><time>2026-05-02T05:59:21.786Z</time></trkpt><trkpt lat="43.82009" lon="12.3916167"><ele>657.0</ele><time>2026-05-02T05:59:23.786Z</time></trkpt><trkpt lat="43.82012" lon="12.3916967"><ele>657.0</ele><time>2026-05-02T05:59:24.786Z</time></trkpt><trkpt lat="43.8201683" lon="12.39182"><ele>657.0</ele><time>2026-05-02T05:59:26.788Z</time></trkpt><trkpt lat="43.8202117" lon="12.3919083"><ele>657.0</ele><time>2026-05-02T05:59:28.786Z</time></trkpt><trkpt lat="43.820265" lon="12.3919883"><ele>657.0</ele><time>2026-05-02T05:59:30.786Z</time></trkpt><trkpt lat="43.8202483" lon="12.392095"><ele>657.0</ele><time>2026-05-02T05:59:33.789Z</time></trkpt><trkpt lat="43.8201683" lon="12.392065"><ele>657.0</ele><time>2026-05-02T05:59:35.788Z</time></trkpt><trkpt lat="43.82011" lon="12.3920283"><ele>657.0</ele><time>2026-05-02T05:59:36.786Z</time></trkpt><trkpt lat="43.8199967" lon="12.3919533"><ele>657.0</ele><time>2026-05-02T05:59:38.787Z</time></trkpt><trkpt lat="43.8199333" lon="12.391915"><ele>657.0</ele><time>2026-05-02T05:59:39.786Z</time></trkpt><trkpt lat="43.81986" lon="12.3918783"><ele>657.0</ele><time>2026-05-02T05:59:40.787Z</time></trkpt><trkpt lat="43.8197767" lon="12.3918383"><ele>657.0</ele><time>2026-05-02T05:59:41.786Z</time></trkpt><trkpt lat="43.8196867" lon="12.3917983"><ele>657.0</ele><time>2026-05-02T05:59:42.786Z</time></trkpt><trkpt lat="43.8195967" lon="12.3917617"><ele>657.0</ele><time>2026-05-02T05:59:43.788Z</time></trkpt><trkpt lat="43.819505" lon="12.391725"><ele>657.0</ele><time>2026-05-02T05:59:44.788Z</time></trkpt><trkpt lat="43.8194117" lon="12.3916933"><ele>657.0</ele><time>2026-05-02T05:59:45.788Z</time></trkpt><trkpt lat="43.8193183" lon="12.3916583"><ele>657.0</ele><time>2026-05-02T05:59:46.787Z</time></trkpt><trkpt lat="43.8192183" lon="12.39162"><ele>654.75</ele><time>2026-05-02T05:59:47.787Z</time></trkpt><trkpt lat="43.8191133" lon="12.3915767"><ele>652.5</ele><time>2026-05-02T05:59:48.789Z</time></trkpt><trkpt lat="43.8190017" lon="12.3915267"><ele>650.25</ele><time>2026-05-02T05:59:49.787Z</time></trkpt><trkpt lat="43.818885" lon="12.3914633"><ele>648.0</ele><time>2026-05-02T05:59:50.79Z</time></trkpt><trkpt lat="43.8187633" lon="12.3913933"><ele>648.5</ele><time>2026-05-02T05:59:51.785Z</time></trkpt><trkpt lat="43.81864" lon="12.39132"><ele>649.0</ele><time>2026-05-02T05:59:52.789Z</time></trkpt><trkpt lat="43.8185167" lon="12.391245"><ele>649.5</ele><time>2026-05-02T05:59:53.787Z</time></trkpt><trkpt lat="43.8183967" lon="12.391175"><ele>650.0</ele><time>2026-05-02T05:59:54.794Z</time></trkpt><trkpt lat="43.818275" lon="12.39111"><ele>650.0</ele><time>2026-05-02T05:59:55.789Z</time></trkpt><trkpt lat="43.818155" lon="12.3910483"><ele>650.0</ele><time>2026-05-02T05:59:56.786Z</time></trkpt><trkpt lat="43.81804" lon="12.3909967"><ele>650.0</ele><time>2026-05-02T05:59:57.786Z</time></trkpt><trkpt lat="43.8179283" lon="12.390945"><ele>650.0</ele><time>2026-05-02T05:59:58.786Z</time></trkpt><trkpt lat="43.8178167" lon="12.3908883"><ele>650.0</ele><time>2026-05-02T05:59:59.789Z</time></trkpt><trkpt lat="43.8177067" lon="12.3908317"><ele>650.0</ele><time>2026-05-02T06:00:00.79Z</time></trkpt><trkpt lat="43.8175917" lon="12.3907717"><ele>650.0</ele><time>2026-05-02T06:00:01.79Z</time></trkpt><trkpt lat="43.817475" lon="12.3907117"><ele>650.0</ele><time>2026-05-02T06:00:02.79Z</time></trkpt><trkpt lat="43.81736" lon="12.3906517"><ele>650.25</ele><time>2026-05-02T06:00:03.79Z</time></trkpt><trkpt lat="43.817245" lon="12.3905917"><ele>650.5</ele><time>2026-05-02T06:00:04.79Z</time></trkpt><trkpt lat="43.81713" lon="12.39054"><ele>650.75</ele><time>2026-05-02T06:00:05.789Z</time></trkpt><trkpt lat="43.817015" lon="12.3904867"><ele>651.0</ele><time>2026-05-02T06:00:06.79Z</time></trkpt><trkpt lat="43.8168983" lon="12.3904283"><ele>648.5</ele><time>2026-05-02T06:00:07.789Z</time></trkpt><trkpt lat="43.8167783" lon="12.3903617"><ele>646.0</ele><time>2026-05-02T06:00:08.789Z</time></trkpt><trkpt lat="43.8166567" lon="12.3902883"><ele>643.5</ele><time>2026-05-02T06:00:09.79Z</time></trkpt><trkpt lat="43.8165417" lon="12.3902117"><ele>641.0</ele><time>2026-05-02T06:00:10.789Z</time></trkpt><trkpt lat="43.8164267" lon="12.3901333"><ele>641.0</ele><time>2026-05-02T06:00:11.788Z</time></trkpt><trkpt lat="43.8163167" lon="12.3900633"><ele>641.0</ele><time>2026-05-02T06:00:12.787Z</time></trkpt><trkpt lat="43.8162067" lon="12.390005"><ele>641.0</ele><time>2026-05-02T06:00:13.789Z</time></trkpt><trkpt lat="43.8160917" lon="12.3899633"><ele>641.0</ele><time>2026-05-02T06:00:14.786Z</time></trkpt><trkpt lat="43.81597" lon="12.3899267"><ele>638.75</ele><time>2026-05-02T06:00:15.786Z</time></trkpt><trkpt lat="43.8158417" lon="12.3898867"><ele>636.5</ele><time>2026-05-02T06:00:16.788Z</time></trkpt><trkpt lat="43.8157117" lon="12.3898467"><ele>634.25</ele><time>2026-05-02T06:00:17.789Z</time></trkpt><trkpt lat="43.8155833" lon="12.3897983"><ele>632.0</ele><time>2026-05-02T06:00:18.788Z</time></trkpt><trkpt lat="43.8154617" lon="12.3897483"><ele>632.0</ele><time>2026-05-02T06:00:19.786Z</time></trkpt><trkpt lat="43.8153517" lon="12.3897"><ele>632.0</ele><time>2026-05-02T06:00:20.788Z</time></trkpt><trkpt lat="43.8152467" lon="12.3896467"><ele>632.0</ele><time>2026-05-02T06:00:21.789Z</time></trkpt><trkpt lat="43.8151467" lon="12.389595"><ele>632.0</ele><time>2026-05-02T06:00:22.789Z</time></trkpt><trkpt lat="43.8150483" lon="12.3895467"><ele>632.0</ele><time>2026-05-02T06:00:23.789Z</time></trkpt><trkpt lat="43.8149467" lon="12.3894917"><ele>633.0</ele><time>2026-05-02T06:00:24.79Z</time></trkpt><trkpt lat="43.8148417" lon="12.389425"><ele>634.0</ele><time>2026-05-02T06:00:25.788Z</time></trkpt><trkpt lat="43.8147433" lon="12.38935"><ele>635.0</ele><time>2026-05-02T06:00:26.789Z</time></trkpt><trkpt lat="43.814655" lon="12.38927"><ele>636.0</ele><time>2026-05-02T06:00:27.785Z</time></trkpt><trkpt lat="43.8145717" lon="12.3891867"><ele>637.0</ele><time>2026-05-02T06:00:28.788Z</time></trkpt><trkpt lat="43.8145033" lon="12.3890933"><ele>637.0</ele><time>2026-05-02T06:00:29.787Z</time></trkpt><trkpt lat="43.81445" lon="12.3889967"><ele>637.0</ele><time>2026-05-02T06:00:30.786Z</time></trkpt><trkpt lat="43.8144033" lon="12.388885"><ele>637.0</ele><time>2026-05-02T06:00:31.786Z</time></trkpt><trkpt lat="43.8143617" lon="12.38876"><ele>637.0</ele><time>2026-05-02T06:00:32.789Z</time></trkpt><trkpt lat="43.814315" lon="12.3886317"><ele>637.0</ele><time>2026-05-02T06:00:33.789Z</time></trkpt><trkpt lat="43.81426" lon="12.388505"><ele>636.4</ele><time>2026-05-02T06:00:34.793Z</time></trkpt><trkpt lat="43.814205" lon="12.38838"><ele>635.8000000000001</ele><time>2026-05-02T06:00:35.789Z</time></trkpt><trkpt lat="43.81416" lon="12.3882533"><ele>635.2</ele><time>2026-05-02T06:00:36.79Z</time></trkpt><trkpt lat="43.81411" lon="12.38812"><ele>634.6</ele><time>2026-05-02T06:00:37.79Z</time></trkpt><trkpt lat="43.81405" lon="12.38799"><ele>634.0</ele><time>2026-05-02T06:00:38.789Z</time></trkpt><trkpt lat="43.8139817" lon="12.38786"><ele>634.0</ele><time>2026-05-02T06:00:39.793Z</time></trkpt><trkpt lat="43.813905" lon="12.3877333"><ele>634.0</ele><time>2026-05-02T06:00:40.79Z</time></trkpt><trkpt lat="43.81383" lon="12.38761"><ele>634.0</ele><time>2026-05-02T06:00:41.789Z</time></trkpt><trkpt lat="43.81375" lon="12.38749"><ele>634.0</ele><time>2026-05-02T06:00:42.79Z</time></trkpt><trkpt lat="43.813665" lon="12.38738"><ele>634.0</ele><time>2026-05-02T06:00:43.79Z</time></trkpt><trkpt lat="43.8135767" lon="12.3872917"><ele>634.0</ele><time>2026-05-02T06:00:44.787Z</time></trkpt><trkpt lat="43.81349" lon="12.387215"><ele>634.0</ele><time>2026-05-02T06:00:45.786Z</time></trkpt><trkpt lat="43.8134117" lon="12.3871433"><ele>634.0</ele><time>2026-05-02T06:00:46.788Z</time></trkpt><trkpt lat="43.8133367" lon="12.38707"><ele>634.0</ele><time>2026-05-02T06:00:47.788Z</time></trkpt><trkpt lat="43.813265" lon="12.3869867"><ele>632.4</ele><time>2026-05-02T06:00:48.79Z</time></trkpt><trkpt lat="43.813195" lon="12.3868933"><ele>630.8</ele><time>2026-05-02T06:00:49.786Z</time></trkpt><trkpt lat="43.8131267" lon="12.386785"><ele>629.2</ele><time>2026-05-02T06:00:50.788Z</time></trkpt><trkpt lat="43.8130617" lon="12.3866583"><ele>627.6</ele><time>2026-05-02T06:00:51.788Z</time></trkpt><trkpt lat="43.812995" lon="12.3865233"><ele>626.0</ele><time>2026-05-02T06:00:52.787Z</time></trkpt><trkpt lat="43.8129233" lon="12.3863883"><ele>625.25</ele><time>2026-05-02T06:00:53.788Z</time></trkpt><trkpt lat="43.8128483" lon="12.38625"><ele>624.5</ele><time>2026-05-02T06:00:54.788Z</time></trkpt><trkpt lat="43.8127717" lon="12.3861117"><ele>623.75</ele><time>2026-05-02T06:00:55.789Z</time></trkpt><trkpt lat="43.8126983" lon="12.3859733"><ele>623.0</ele><time>2026-05-02T06:00:56.787Z</time></trkpt><trkpt lat="43.8126233" lon="12.3858367"><ele>623.0</ele><time>2026-05-02T06:00:57.787Z</time></trkpt><trkpt lat="43.81255" lon="12.3856983"><ele>623.0</ele><time>2026-05-02T06:00:58.787Z</time></trkpt><trkpt lat="43.8124783" lon="12.3855617"><ele>623.0</ele><time>2026-05-02T06:00:59.789Z</time></trkpt><trkpt lat="43.8124083" lon="12.38543"><ele>623.0</ele><time>2026-05-02T06:01:00.788Z</time></trkpt><trkpt lat="43.812335" lon="12.38531"><ele>624.1999999999999</ele><time>2026-05-02T06:01:01.788Z</time></trkpt><trkpt lat="43.812265" lon="12.385195"><ele>625.4</ele><time>2026-05-02T06:01:02.787Z</time></trkpt><trkpt lat="43.8121933" lon="12.3850783"><ele>626.5999999999999</ele><time>2026-05-02T06:01:03.788Z</time></trkpt><trkpt lat="43.8121233" lon="12.3849683"><ele>627.8</ele><time>2026-05-02T06:01:04.789Z</time></trkpt><trkpt lat="43.8120483" lon="12.3848633"><ele>629.0</ele><time>2026-05-02T06:01:05.786Z</time></trkpt><trkpt lat="43.8119633" lon="12.3847733"><ele>629.0</ele><time>2026-05-02T06:01:06.786Z</time></trkpt><trkpt lat="43.81187" lon="12.384715"><ele>629.0</ele><time>2026-05-02T06:01:07.786Z</time></trkpt><trkpt lat="43.8117717" lon="12.384675"><ele>629.0</ele><time>2026-05-02T06:01:08.787Z</time></trkpt><trkpt lat="43.8116683" lon="12.3846383"><ele>629.0</ele><time>2026-05-02T06:01:09.786Z</time></trkpt><trkpt lat="43.8115567" lon="12.3845983"><ele>629.0</ele><time>2026-05-02T06:01:10.79Z</time></trkpt><trkpt lat="43.8114433" lon="12.3845567"><ele>626.6</ele><time>2026-05-02T06:01:11.789Z</time></trkpt><trkpt lat="43.8113367" lon="12.3845183"><ele>624.2</ele><time>2026-05-02T06:01:12.789Z</time></trkpt><trkpt lat="43.811235" lon="12.38448"><ele>621.8000000000001</ele><time>2026-05-02T06:01:13.79Z</time></trkpt><trkpt lat="43.8111483" lon="12.3844383"><ele>619.4</ele><time>2026-05-02T06:01:14.789Z</time></trkpt><trkpt lat="43.8110767" lon="12.38439"><ele>617.0</ele><time>2026-05-02T06:01:15.789Z</time></trkpt><trkpt lat="43.8110233" lon="12.3843267"><ele>614.6</ele><time>2026-05-02T06:01:16.789Z</time></trkpt><trkpt lat="43.810985" lon="12.38425"><ele>612.2</ele><time>2026-05-02T06:01:17.792Z</time></trkpt><trkpt lat="43.8109583" lon="12.38414"><ele>609.8</ele><time>2026-05-02T06:01:18.787Z</time></trkpt><trkpt lat="43.8109517" lon="12.3840017"><ele>607.4</ele><time>2026-05-02T06:01:19.79Z</time></trkpt><trkpt lat="43.8109567" lon="12.3838567"><ele>605.0</ele><time>2026-05-02T06:01:20.789Z</time></trkpt><trkpt lat="43.8109633" lon="12.383725"><ele>605.0</ele><time>2026-05-02T06:01:21.789Z</time></trkpt><trkpt lat="43.8109683" lon="12.3836033"><ele>605.0</ele><time>2026-05-02T06:01:22.79Z</time></trkpt><trkpt lat="43.8109717" lon="12.3834917"><ele>605.0</ele><time>2026-05-02T06:01:23.787Z</time></trkpt><trkpt lat="43.8109533" lon="12.383405"><ele>605.0</ele><time>2026-05-02T06:01:24.789Z</time></trkpt><trkpt lat="43.81086" lon="12.38333"><ele>605.0</ele><time>2026-05-02T06:01:26.786Z</time></trkpt><trkpt lat="43.8107967" lon="12.3833783"><ele>605.0</ele><time>2026-05-02T06:01:27.787Z</time></trkpt><trkpt lat="43.81073" lon="12.3834767"><ele>605.0</ele><time>2026-05-02T06:01:28.787Z</time></trkpt><trkpt lat="43.810665" lon="12.3836267"><ele>605.0</ele><time>2026-05-02T06:01:29.787Z</time></trkpt><trkpt lat="43.8106067" lon="12.3838083"><ele>605.0</ele><time>2026-05-02T06:01:30.79Z</time></trkpt><trkpt lat="43.81055" lon="12.3839833"><ele>605.0</ele><time>2026-05-02T06:01:31.787Z</time></trkpt><trkpt lat="43.8104933" lon="12.3841333"><ele>604.4</ele><time>2026-05-02T06:01:32.787Z</time></trkpt><trkpt lat="43.8104383" lon="12.38426"><ele>603.8</ele><time>2026-05-02T06:01:33.787Z</time></trkpt><trkpt lat="43.8103733" lon="12.384365"><ele>603.2</ele><time>2026-05-02T06:01:34.786Z</time></trkpt><trkpt lat="43.8102917" lon="12.3844417"><ele>602.6</ele><time>2026-05-02T06:01:35.787Z</time></trkpt><trkpt lat="43.8101967" lon="12.3844917"><ele>602.0</ele><time>2026-05-02T06:01:36.786Z</time></trkpt><trkpt lat="43.810095" lon="12.3845367"><ele>599.2</ele><time>2026-05-02T06:01:37.787Z</time></trkpt><trkpt lat="43.80999" lon="12.3845717"><ele>596.4000000000001</ele><time>2026-05-02T06:01:38.787Z</time></trkpt><trkpt lat="43.8098883" lon="12.3846"><ele>593.5999999999999</ele><time>2026-05-02T06:01:39.787Z</time></trkpt><trkpt lat="43.80979" lon="12.38463"><ele>590.8</ele><time>2026-05-02T06:01:40.787Z</time></trkpt><trkpt lat="43.8096967" lon="12.38466"><ele>588.0</ele><time>2026-05-02T06:01:41.786Z</time></trkpt><trkpt lat="43.8096067" lon="12.384685"><ele>587.8333333333334</ele><time>2026-05-02T06:01:42.787Z</time></trkpt><trkpt lat="43.8095183" lon="12.384715"><ele>587.6666666666666</ele><time>2026-05-02T06:01:43.786Z</time></trkpt><trkpt lat="43.8094317" lon="12.38474"><ele>587.5</ele><time>2026-05-02T06:01:44.786Z</time></trkpt><trkpt lat="43.8093483" lon="12.3847667"><ele>587.3333333333333</ele><time>2026-05-02T06:01:45.787Z</time></trkpt><trkpt lat="43.8092733" lon="12.3847917"><ele>587.1666666666666</ele><time>2026-05-02T06:01:46.787Z</time></trkpt><trkpt lat="43.809205" lon="12.3847983"><ele>587.0</ele><time>2026-05-02T06:01:47.787Z</time></trkpt><trkpt lat="43.8091167" lon="12.3847733"><ele>584.6</ele><time>2026-05-02T06:01:49.789Z</time></trkpt><trkpt lat="43.8090833" lon="12.3845983"><ele>582.2</ele><time>2026-05-02T06:01:52.789Z</time></trkpt><trkpt lat="43.8090867" lon="12.384495"><ele>579.8</ele><time>2026-05-02T06:01:53.789Z</time></trkpt><trkpt lat="43.8090983" lon="12.3843617"><ele>577.4</ele><time>2026-05-02T06:01:54.786Z</time></trkpt><trkpt lat="43.8091233" lon="12.384205"><ele>575.0</ele><time>2026-05-02T06:01:55.79Z</time></trkpt><trkpt lat="43.80916" lon="12.38404"><ele>575.0</ele><time>2026-05-02T06:01:56.79Z</time></trkpt><trkpt lat="43.8091967" lon="12.3838717"><ele>575.0</ele><time>2026-05-02T06:01:57.786Z</time></trkpt><trkpt lat="43.809235" lon="12.38371"><ele>575.0</ele><time>2026-05-02T06:01:58.787Z</time></trkpt><trkpt lat="43.80927" lon="12.3835567"><ele>575.0</ele><time>2026-05-02T06:01:59.787Z</time></trkpt><trkpt lat="43.8093" lon="12.3834083"><ele>574.2</ele><time>2026-05-02T06:02:00.789Z</time></trkpt><trkpt lat="43.809315" lon="12.38326"><ele>573.4</ele><time>2026-05-02T06:02:01.788Z</time></trkpt><trkpt lat="43.80931" lon="12.383115"><ele>572.6</ele><time>2026-05-02T06:02:02.787Z</time></trkpt><trkpt lat="43.8092833" lon="12.3829733"><ele>571.8</ele><time>2026-05-02T06:02:03.787Z</time></trkpt><trkpt lat="43.8092383" lon="12.382845"><ele>571.0</ele><time>2026-05-02T06:02:04.788Z</time></trkpt><trkpt lat="43.80917" lon="12.3827333"><ele>571.0</ele><time>2026-05-02T06:02:05.788Z</time></trkpt><trkpt lat="43.80909" lon="12.3826417"><ele>571.0</ele><time>2026-05-02T06:02:06.787Z</time></trkpt><trkpt lat="43.80901" lon="12.382555"><ele>571.0</ele><time>2026-05-02T06:02:07.787Z</time></trkpt><trkpt lat="43.8089417" lon="12.382455"><ele>571.0</ele><time>2026-05-02T06:02:08.787Z</time></trkpt><trkpt lat="43.8088983" lon="12.382325"><ele>571.0</ele><time>2026-05-02T06:02:09.79Z</time></trkpt><trkpt lat="43.8088817" lon="12.3821733"><ele>570.75</ele><time>2026-05-02T06:02:10.786Z</time></trkpt><trkpt lat="43.8088767" lon="12.3820133"><ele>570.5</ele><time>2026-05-02T06:02:11.789Z</time></trkpt><trkpt lat="43.8088817" lon="12.3818433"><ele>570.25</ele><time>2026-05-02T06:02:12.786Z</time></trkpt><trkpt lat="43.8088867" lon="12.3816633"><ele>570.0</ele><time>2026-05-02T06:02:13.791Z</time></trkpt><trkpt lat="43.80889" lon="12.3814833"><ele>569.5</ele><time>2026-05-02T06:02:14.79Z</time></trkpt><trkpt lat="43.80889" lon="12.381315"><ele>569.0</ele><time>2026-05-02T06:02:15.79Z</time></trkpt><trkpt lat="43.8088867" lon="12.381155"><ele>568.5</ele><time>2026-05-02T06:02:16.786Z</time></trkpt><trkpt lat="43.8088933" lon="12.3809983"><ele>568.0</ele><time>2026-05-02T06:02:17.786Z</time></trkpt><trkpt lat="43.8089133" lon="12.3808433"><ele>568.0</ele><time>2026-05-02T06:02:18.786Z</time></trkpt><trkpt lat="43.80894" lon="12.38068"><ele>568.0</ele><time>2026-05-02T06:02:19.79Z</time></trkpt><trkpt lat="43.80896" lon="12.380515"><ele>568.0</ele><time>2026-05-02T06:02:20.79Z</time></trkpt><trkpt lat="43.8089583" lon="12.380365"><ele>568.0</ele><time>2026-05-02T06:02:21.79Z</time></trkpt><trkpt lat="43.8089433" lon="12.3802417"><ele>568.0</ele><time>2026-05-02T06:02:22.79Z</time></trkpt><trkpt lat="43.808915" lon="12.3801383"><ele>568.0</ele><time>2026-05-02T06:02:23.789Z</time></trkpt><trkpt lat="43.8088783" lon="12.38006"><ele>568.0</ele><time>2026-05-02T06:02:24.789Z</time></trkpt><trkpt lat="43.808815" lon="12.3800283"><ele>568.0</ele><time>2026-05-02T06:02:25.791Z</time></trkpt><trkpt lat="43.808735" lon="12.3800467"><ele>568.0</ele><time>2026-05-02T06:02:26.789Z</time></trkpt><trkpt lat="43.8086467" lon="12.3801017"><ele>568.0</ele><time>2026-05-02T06:02:27.786Z</time></trkpt><trkpt lat="43.808555" lon="12.3801533"><ele>568.0</ele><time>2026-05-02T06:02:28.786Z</time></trkpt><trkpt lat="43.8084617" lon="12.3801817"><ele>566.1999999999999</ele><time>2026-05-02T06:02:29.787Z</time></trkpt><trkpt lat="43.8083683" lon="12.38017"><ele>564.4</ele><time>2026-05-02T06:02:30.787Z</time></trkpt><trkpt lat="43.8082733" lon="12.3801067"><ele>562.5999999999999</ele><time>2026-05-02T06:02:31.786Z</time></trkpt><trkpt lat="43.8081683" lon="12.3800067"><ele>560.8</ele><time>2026-05-02T06:02:32.787Z</time></trkpt><trkpt lat="43.808075" lon="12.3798983"><ele>559.0</ele><time>2026-05-02T06:02:33.787Z</time></trkpt><trkpt lat="43.8079933" lon="12.3797833"><ele>559.75</ele><time>2026-05-02T06:02:34.788Z</time></trkpt><trkpt lat="43.8079283" lon="12.379655"><ele>560.5</ele><time>2026-05-02T06:02:35.786Z</time></trkpt><trkpt lat="43.807875" lon="12.3795083"><ele>561.25</ele><time>2026-05-02T06:02:36.787Z</time></trkpt><trkpt lat="43.8078267" lon="12.3793517"><ele>562.0</ele><time>2026-05-02T06:02:37.787Z</time></trkpt><trkpt lat="43.80778" lon="12.3791983"><ele>562.0</ele><time>2026-05-02T06:02:38.791Z</time></trkpt><trkpt lat="43.8077417" lon="12.3790483"><ele>562.0</ele><time>2026-05-02T06:02:39.79Z</time></trkpt><trkpt lat="43.8077167" lon="12.3788983"><ele>562.0</ele><time>2026-05-02T06:02:40.79Z</time></trkpt><trkpt lat="43.8076967" lon="12.3787517"><ele>562.0</ele><time>2026-05-02T06:02:41.789Z</time></trkpt><trkpt lat="43.8076667" lon="12.3786033"><ele>562.0</ele><time>2026-05-02T06:02:42.787Z</time></trkpt><trkpt lat="43.8076117" lon="12.3784567"><ele>560.75</ele><time>2026-05-02T06:02:43.79Z</time></trkpt><trkpt lat="43.8075367" lon="12.3783133"><ele>559.5</ele><time>2026-05-02T06:02:44.79Z</time></trkpt><trkpt lat="43.8074533" lon="12.3781783"><ele>558.25</ele><time>2026-05-02T06:02:45.79Z</time></trkpt><trkpt lat="43.8073717" lon="12.3780483"><ele>557.0</ele><time>2026-05-02T06:02:46.791Z</time></trkpt><trkpt lat="43.8073" lon="12.3779233"><ele>559.6</ele><time>2026-05-02T06:02:47.79Z</time></trkpt><trkpt lat="43.8072467" lon="12.3777917"><ele>562.2</ele><time>2026-05-02T06:02:48.787Z</time></trkpt><trkpt lat="43.8072167" lon="12.3776467"><ele>564.8</ele><time>2026-05-02T06:02:49.787Z</time></trkpt><trkpt lat="43.8072" lon="12.3775083"><ele>567.4</ele><time>2026-05-02T06:02:50.787Z</time></trkpt><trkpt lat="43.80718" lon="12.3774"><ele>570.0</ele><time>2026-05-02T06:02:51.787Z</time></trkpt><trkpt lat="43.8071633" lon="12.37731"><ele>570.0</ele><time>2026-05-02T06:02:52.787Z</time></trkpt><trkpt lat="43.80706" lon="12.3772683"><ele>570.0</ele><time>2026-05-02T06:02:54.788Z</time></trkpt><trkpt lat="43.80698" lon="12.3773083"><ele>570.0</ele><time>2026-05-02T06:02:55.788Z</time></trkpt><trkpt lat="43.8068767" lon="12.3774267"><ele>570.0</ele><time>2026-05-02T06:02:57.788Z</time></trkpt><trkpt lat="43.8068433" lon="12.377585"><ele>570.0</ele><time>2026-05-02T06:02:58.788Z</time></trkpt><trkpt lat="43.8068233" lon="12.3777767"><ele>568.0</ele><time>2026-05-02T06:02:59.787Z</time></trkpt><trkpt lat="43.806825" lon="12.378005"><ele>566.0</ele><time>2026-05-02T06:03:00.787Z</time></trkpt><trkpt lat="43.8068083" lon="12.3781967"><ele>564.0</ele><time>2026-05-02T06:03:01.787Z</time></trkpt><trkpt lat="43.8067833" lon="12.3783617"><ele>562.0</ele><time>2026-05-02T06:03:02.788Z</time></trkpt><trkpt lat="43.80675" lon="12.3785"><ele>560.5</ele><time>2026-05-02T06:03:03.788Z</time></trkpt><trkpt lat="43.8067033" lon="12.3786183"><ele>559.0</ele><time>2026-05-02T06:03:04.788Z</time></trkpt><trkpt lat="43.8066433" lon="12.37874"><ele>557.5</ele><time>2026-05-02T06:03:05.788Z</time></trkpt><trkpt lat="43.8065783" lon="12.3788817"><ele>556.0</ele><time>2026-05-02T06:03:06.788Z</time></trkpt><trkpt lat="43.8065083" lon="12.3790383"><ele>554.5</ele><time>2026-05-02T06:03:07.787Z</time></trkpt><trkpt lat="43.8064333" lon="12.3792117"><ele>553.0</ele><time>2026-05-02T06:03:08.787Z</time></trkpt><trkpt lat="43.8063567" lon="12.37939"><ele>551.5</ele><time>2026-05-02T06:03:09.787Z</time></trkpt><trkpt lat="43.8062817" lon="12.3795533"><ele>550.0</ele><time>2026-05-02T06:03:10.787Z</time></trkpt><trkpt lat="43.8062067" lon="12.3796883"><ele>550.2</ele><time>2026-05-02T06:03:11.788Z</time></trkpt><trkpt lat="43.8061167" lon="12.3797717"><ele>550.4</ele><time>2026-05-02T06:03:12.787Z</time></trkpt><trkpt lat="43.806025" lon="12.3798167"><ele>550.6</ele><time>2026-05-02T06:03:13.789Z</time></trkpt><trkpt lat="43.8059217" lon="12.3797933"><ele>550.8</ele><time>2026-05-02T06:03:14.787Z</time></trkpt><trkpt lat="43.8058083" lon="12.37973"><ele>551.0</ele><time>2026-05-02T06:03:15.791Z</time></trkpt><trkpt lat="43.8056817" lon="12.3796467"><ele>553.2</ele><time>2026-05-02T06:03:16.792Z</time></trkpt><trkpt lat="43.8055567" lon="12.3795633"><ele>555.4000000000001</ele><time>2026-05-02T06:03:17.789Z</time></trkpt><trkpt lat="43.8054517" lon="12.379495"><ele>557.6</ele><time>2026-05-02T06:03:18.786Z</time></trkpt><trkpt lat="43.8053717" lon="12.3794333"><ele>559.8000000000001</ele><time>2026-05-02T06:03:19.787Z</time></trkpt><trkpt lat="43.80531" lon="12.3793933"><ele>562.0</ele><time>2026-05-02T06:03:20.79Z</time></trkpt><trkpt lat="43.805245" lon="12.37936"><ele>562.0</ele><time>2026-05-02T06:03:22.791Z</time></trkpt><trkpt lat="43.80518" lon="12.3794283"><ele>562.0</ele><time>2026-05-02T06:03:27.788Z</time></trkpt><trkpt lat="43.8051083" lon="12.37957"><ele>562.0</ele><time>2026-05-02T06:03:29.788Z</time></trkpt><trkpt lat="43.805035" lon="12.37966"><ele>562.0</ele><time>2026-05-02T06:03:31.786Z</time></trkpt><trkpt lat="43.8049883" lon="12.37959"><ele>562.0</ele><time>2026-05-02T06:03:34.791Z</time></trkpt><trkpt lat="43.80498" lon="12.3794183"><ele>562.0</ele><time>2026-05-02T06:03:36.791Z</time></trkpt><trkpt lat="43.8049833" lon="12.3792783"><ele>562.0</ele><time>2026-05-02T06:03:38.79Z</time></trkpt><trkpt lat="43.8050083" lon="12.3791567"><ele>562.0</ele><time>2026-05-02T06:03:40.79Z</time></trkpt><trkpt lat="43.8050483" lon="12.37906"><ele>562.0</ele><time>2026-05-02T06:03:42.788Z</time></trkpt><trkpt lat="43.8051283" lon="12.379"><ele>562.0</ele><time>2026-05-02T06:03:44.789Z</time></trkpt><trkpt lat="43.805225" lon="12.3789333"><ele>562.0</ele><time>2026-05-02T06:03:46.788Z</time></trkpt><trkpt lat="43.80532" lon="12.37889"><ele>562.0</ele><time>2026-05-02T06:03:48.79Z</time></trkpt><trkpt lat="43.8054" lon="12.3788967"><ele>562.0</ele><time>2026-05-02T06:03:51.791Z</time></trkpt><trkpt lat="43.8054617" lon="12.3788317"><ele>562.0</ele><time>2026-05-02T06:03:53.787Z</time></trkpt><trkpt lat="43.8054933" lon="12.3787517"><ele>562.0</ele><time>2026-05-02T06:03:54.786Z</time></trkpt><trkpt lat="43.8055233" lon="12.3786367"><ele>562.0</ele><time>2026-05-02T06:03:55.788Z</time></trkpt><trkpt lat="43.8055383" lon="12.3785167"><ele>563.5</ele><time>2026-05-02T06:03:56.787Z</time></trkpt><trkpt lat="43.805535" lon="12.3783933"><ele>565.0</ele><time>2026-05-02T06:03:57.788Z</time></trkpt><trkpt lat="43.8055083" lon="12.3782867"><ele>566.5</ele><time>2026-05-02T06:03:58.787Z</time></trkpt><trkpt lat="43.8054683" lon="12.3781967"><ele>568.0</ele><time>2026-05-02T06:03:59.788Z</time></trkpt><trkpt lat="43.8054183" lon="12.37812"><ele>569.5</ele><time>2026-05-02T06:04:00.787Z</time></trkpt><trkpt lat="43.805355" lon="12.3780467"><ele>571.0</ele><time>2026-05-02T06:04:01.787Z</time></trkpt><trkpt lat="43.8052833" lon="12.377975"><ele>571.3333333333334</ele><time>2026-05-02T06:04:02.787Z</time></trkpt><trkpt lat="43.8052117" lon="12.3779067"><ele>571.6666666666667</ele><time>2026-05-02T06:04:03.79Z</time></trkpt><trkpt lat="43.80514" lon="12.37784"><ele>572.0</ele><time>2026-05-02T06:04:04.788Z</time></trkpt><trkpt lat="43.8050667" lon="12.37777"><ele>572.3333333333334</ele><time>2026-05-02T06:04:05.789Z</time></trkpt><trkpt lat="43.8049983" lon="12.3777133"><ele>572.6666666666666</ele><time>2026-05-02T06:04:06.788Z</time></trkpt><trkpt lat="43.8049433" lon="12.3776533"><ele>573.0</ele><time>2026-05-02T06:04:07.79Z</time></trkpt><trkpt lat="43.8048883" lon="12.3775933"><ele>574.0</ele><time>2026-05-02T06:04:08.788Z</time></trkpt><trkpt lat="43.8048267" lon="12.37754"><ele>575.0</ele><time>2026-05-02T06:04:09.789Z</time></trkpt><trkpt lat="43.8047617" lon="12.377485"><ele>576.0</ele><time>2026-05-02T06:04:10.787Z</time></trkpt><trkpt lat="43.8046967" lon="12.3774283"><ele>577.0</ele><time>2026-05-02T06:04:11.79Z</time></trkpt><trkpt lat="43.8046217" lon="12.377365"><ele>578.0</ele><time>2026-05-02T06:04:12.79Z</time></trkpt><trkpt lat="43.804545" lon="12.3772983"><ele>579.0</ele><time>2026-05-02T06:04:13.79Z</time></trkpt><trkpt lat="43.8044733" lon="12.37722"><ele>580.4</ele><time>2026-05-02T06:04:14.79Z</time></trkpt><trkpt lat="43.8044067" lon="12.3771283"><ele>581.8</ele><time>2026-05-02T06:04:15.79Z</time></trkpt><trkpt lat="43.8043517" lon="12.3770217"><ele>583.2</ele><time>2026-05-02T06:04:16.787Z</time></trkpt><trkpt lat="43.8043117" lon="12.3769067"><ele>584.6</ele><time>2026-05-02T06:04:17.792Z</time></trkpt><trkpt lat="43.8042783" lon="12.3767867"><ele>586.0</ele><time>2026-05-02T06:04:18.79Z</time></trkpt><trkpt lat="43.8042617" lon="12.3766667"><ele>586.4</ele><time>2026-05-02T06:04:19.79Z</time></trkpt><trkpt lat="43.8042583" lon="12.37654"><ele>586.8</ele><time>2026-05-02T06:04:20.79Z</time></trkpt><trkpt lat="43.8042667" lon="12.3764133"><ele>587.1999999999999</ele><time>2026-05-02T06:04:21.789Z</time></trkpt><trkpt lat="43.8042883" lon="12.3762917"><ele>587.6</ele><time>2026-05-02T06:04:22.788Z</time></trkpt><trkpt lat="43.80433" lon="12.37618"><ele>588.0</ele><time>2026-05-02T06:04:23.791Z</time></trkpt><trkpt lat="43.8043883" lon="12.37607"><ele>589.5</ele><time>2026-05-02T06:04:24.787Z</time></trkpt><trkpt lat="43.8044633" lon="12.3759567"><ele>591.0</ele><time>2026-05-02T06:04:25.788Z</time></trkpt><trkpt lat="43.804555" lon="12.3758467"><ele>592.5</ele><time>2026-05-02T06:04:26.787Z</time></trkpt><trkpt lat="43.8046517" lon="12.37574"><ele>594.0</ele><time>2026-05-02T06:04:27.787Z</time></trkpt><trkpt lat="43.8047517" lon="12.37564"><ele>594.0</ele><time>2026-05-02T06:04:28.787Z</time></trkpt><trkpt lat="43.8048583" lon="12.375535"><ele>594.0</ele><time>2026-05-02T06:04:29.789Z</time></trkpt><trkpt lat="43.804965" lon="12.375425"><ele>594.0</ele><time>2026-05-02T06:04:30.785Z</time></trkpt><trkpt lat="43.805065" lon="12.3753"><ele>594.0</ele><time>2026-05-02T06:04:31.786Z</time></trkpt><trkpt lat="43.80515" lon="12.3751517"><ele>594.5</ele><time>2026-05-02T06:04:32.787Z</time></trkpt><trkpt lat="43.80522" lon="12.3749817"><ele>595.0</ele><time>2026-05-02T06:04:33.786Z</time></trkpt><trkpt lat="43.8052833" lon="12.37481"><ele>595.5</ele><time>2026-05-02T06:04:34.788Z</time></trkpt><trkpt lat="43.8053483" lon="12.37463"><ele>596.0</ele><time>2026-05-02T06:04:35.786Z</time></trkpt><trkpt lat="43.805415" lon="12.3744483"><ele>596.0</ele><time>2026-05-02T06:04:36.786Z</time></trkpt><trkpt lat="43.8054833" lon="12.37427"><ele>596.0</ele><time>2026-05-02T06:04:37.789Z</time></trkpt><trkpt lat="43.8055517" lon="12.3740933"><ele>596.0</ele><time>2026-05-02T06:04:38.786Z</time></trkpt><trkpt lat="43.8056183" lon="12.3739133"><ele>596.0</ele><time>2026-05-02T06:04:39.786Z</time></trkpt><trkpt lat="43.8056833" lon="12.3737367"><ele>600.3333333333333</ele><time>2026-05-02T06:04:40.789Z</time></trkpt><trkpt lat="43.8058167" lon="12.3733717"><ele>604.6666666666666</ele><time>2026-05-02T06:04:42.79Z</time></trkpt><trkpt lat="43.8058817" lon="12.3731867"><ele>609.0</ele><time>2026-05-02T06:04:43.785Z</time></trkpt><trkpt lat="43.80594" lon="12.3729967"><ele>609.5</ele><time>2026-05-02T06:04:44.786Z</time></trkpt><trkpt lat="43.8059933" lon="12.3728017"><ele>610.0</ele><time>2026-05-02T06:04:45.785Z</time></trkpt><trkpt lat="43.8060367" lon="12.372605"><ele>610.5</ele><time>2026-05-02T06:04:46.789Z</time></trkpt><trkpt lat="43.806075" lon="12.3724033"><ele>611.0</ele><time>2026-05-02T06:04:47.79Z</time></trkpt><trkpt lat="43.8061133" lon="12.3722033"><ele>613.3333333333333</ele><time>2026-05-02T06:04:48.787Z</time></trkpt><trkpt lat="43.80615" lon="12.3720033"><ele>615.6666666666666</ele><time>2026-05-02T06:04:49.789Z</time></trkpt><trkpt lat="43.806185" lon="12.3717983"><ele>618.0</ele><time>2026-05-02T06:04:50.789Z</time></trkpt><trkpt lat="43.80622" lon="12.371595"><ele>618.0</ele><time>2026-05-02T06:04:51.787Z</time></trkpt><trkpt lat="43.80626" lon="12.3713933"><ele>618.0</ele><time>2026-05-02T06:04:52.786Z</time></trkpt><trkpt lat="43.8062933" lon="12.3711917"><ele>618.0</ele><time>2026-05-02T06:04:53.789Z</time></trkpt><trkpt lat="43.80633" lon="12.3709917"><ele>618.0</ele><time>2026-05-02T06:04:54.787Z</time></trkpt><trkpt lat="43.8063617" lon="12.3707917"><ele>620.25</ele><time>2026-05-02T06:04:55.785Z</time></trkpt><trkpt lat="43.8063833" lon="12.3705933"><ele>622.5</ele><time>2026-05-02T06:04:56.786Z</time></trkpt><trkpt lat="43.806385" lon="12.3703967"><ele>624.75</ele><time>2026-05-02T06:04:57.785Z</time></trkpt><trkpt lat="43.80636" lon="12.3702017"><ele>627.0</ele><time>2026-05-02T06:04:58.786Z</time></trkpt><trkpt lat="43.8063067" lon="12.3700167"><ele>628.5</ele><time>2026-05-02T06:04:59.786Z</time></trkpt><trkpt lat="43.8062267" lon="12.3698483"><ele>630.0</ele><time>2026-05-02T06:05:00.786Z</time></trkpt><trkpt lat="43.8061317" lon="12.3696983"><ele>631.5</ele><time>2026-05-02T06:05:01.786Z</time></trkpt><trkpt lat="43.8060267" lon="12.36956"><ele>633.0</ele><time>2026-05-02T06:05:02.787Z</time></trkpt><trkpt lat="43.8059167" lon="12.3694233"><ele>634.3333333333334</ele><time>2026-05-02T06:05:03.786Z</time></trkpt><trkpt lat="43.8058033" lon="12.36928"><ele>635.6666666666667</ele><time>2026-05-02T06:05:04.787Z</time></trkpt><trkpt lat="43.8056867" lon="12.369135"><ele>637.0</ele><time>2026-05-02T06:05:05.786Z</time></trkpt><trkpt lat="43.8055717" lon="12.3689867"><ele>637.3333333333334</ele><time>2026-05-02T06:05:06.786Z</time></trkpt><trkpt lat="43.8054467" lon="12.3688417"><ele>637.6666666666666</ele><time>2026-05-02T06:05:07.789Z</time></trkpt><trkpt lat="43.8053283" lon="12.3686933"><ele>638.0</ele><time>2026-05-02T06:05:08.79Z</time></trkpt><trkpt lat="43.8052033" lon="12.3685467"><ele>640.0</ele><time>2026-05-02T06:05:09.786Z</time></trkpt><trkpt lat="43.8050817" lon="12.3683983"><ele>642.0</ele><time>2026-05-02T06:05:10.789Z</time></trkpt><trkpt lat="43.8049583" lon="12.36825"><ele>644.0</ele><time>2026-05-02T06:05:11.789Z</time></trkpt><trkpt lat="43.804835" lon="12.3681"><ele>645.6666666666666</ele><time>2026-05-02T06:05:12.789Z</time></trkpt><trkpt lat="43.8047117" lon="12.3679467"><ele>647.3333333333334</ele><time>2026-05-02T06:05:13.789Z</time></trkpt><trkpt lat="43.8045883" lon="12.3677933"><ele>649.0</ele><time>2026-05-02T06:05:14.789Z</time></trkpt><trkpt lat="43.8044583" lon="12.3676367"><ele>649.0</ele><time>2026-05-02T06:05:15.79Z</time></trkpt><trkpt lat="43.80433" lon="12.36748"><ele>649.0</ele><time>2026-05-02T06:05:16.789Z</time></trkpt><trkpt lat="43.8041983" lon="12.36732"><ele>649.0</ele><time>2026-05-02T06:05:17.789Z</time></trkpt><trkpt lat="43.8040633" lon="12.3671567"><ele>651.6666666666667</ele><time>2026-05-02T06:05:18.789Z</time></trkpt><trkpt lat="43.8039267" lon="12.36699"><ele>654.3333333333334</ele><time>2026-05-02T06:05:19.787Z</time></trkpt><trkpt lat="43.8037967" lon="12.36682"><ele>657.0</ele><time>2026-05-02T06:05:20.789Z</time></trkpt><trkpt lat="43.803665" lon="12.3666467"><ele>657.0</ele><time>2026-05-02T06:05:21.789Z</time></trkpt><trkpt lat="43.8035417" lon="12.3664633"><ele>657.0</ele><time>2026-05-02T06:05:22.786Z</time></trkpt><trkpt lat="43.8034233" lon="12.3662717"><ele>657.0</ele><time>2026-05-02T06:05:23.787Z</time></trkpt><trkpt lat="43.8033067" lon="12.3660767"><ele>660.0</ele><time>2026-05-02T06:05:24.79Z</time></trkpt><trkpt lat="43.8031967" lon="12.3658783"><ele>663.0</ele><time>2026-05-02T06:05:25.788Z</time></trkpt><trkpt lat="43.803085" lon="12.36568"><ele>666.0</ele><time>2026-05-02T06:05:26.788Z</time></trkpt><trkpt lat="43.8029717" lon="12.3654883"><ele>668.0</ele><time>2026-05-02T06:05:27.787Z</time></trkpt><trkpt lat="43.8028567" lon="12.3653033"><ele>670.0</ele><time>2026-05-02T06:05:28.787Z</time></trkpt><trkpt lat="43.802735" lon="12.3651267"><ele>672.0</ele><time>2026-05-02T06:05:29.788Z</time></trkpt><trkpt lat="43.8026083" lon="12.36496"><ele>672.0</ele><time>2026-05-02T06:05:30.79Z</time></trkpt><trkpt lat="43.8024783" lon="12.3648033"><ele>672.0</ele><time>2026-05-02T06:05:31.789Z</time></trkpt><trkpt lat="43.8023467" lon="12.364645"><ele>672.0</ele><time>2026-05-02T06:05:32.79Z</time></trkpt><trkpt lat="43.802225" lon="12.36448"><ele>674.6666666666666</ele><time>2026-05-02T06:05:33.789Z</time></trkpt><trkpt lat="43.8021183" lon="12.3643"><ele>677.3333333333333</ele><time>2026-05-02T06:05:34.79Z</time></trkpt><trkpt lat="43.8020267" lon="12.3641133"><ele>680.0</ele><time>2026-05-02T06:05:35.79Z</time></trkpt><trkpt lat="43.801945" lon="12.363925"><ele>681.5</ele><time>2026-05-02T06:05:36.789Z</time></trkpt><trkpt lat="43.80187" lon="12.3637467"><ele>683.0</ele><time>2026-05-02T06:05:37.786Z</time></trkpt><trkpt lat="43.801795" lon="12.36358"><ele>684.5</ele><time>2026-05-02T06:05:38.786Z</time></trkpt><trkpt lat="43.8017183" lon="12.3634333"><ele>686.0</ele><time>2026-05-02T06:05:39.79Z</time></trkpt><trkpt lat="43.8016233" lon="12.3633183"><ele>686.0</ele><time>2026-05-02T06:05:40.791Z</time></trkpt><trkpt lat="43.8015083" lon="12.3632283"><ele>686.0</ele><time>2026-05-02T06:05:41.79Z</time></trkpt><trkpt lat="43.80138" lon="12.3631467"><ele>686.0</ele><time>2026-05-02T06:05:42.787Z</time></trkpt><trkpt lat="43.8012367" lon="12.3630617"><ele>686.0</ele><time>2026-05-02T06:05:43.786Z</time></trkpt><trkpt lat="43.801085" lon="12.36297"><ele>687.6666666666666</ele><time>2026-05-02T06:05:44.788Z</time></trkpt><trkpt lat="43.8009217" lon="12.36288"><ele>689.3333333333334</ele><time>2026-05-02T06:05:45.789Z</time></trkpt><trkpt lat="43.80076" lon="12.3627917"><ele>691.0</ele><time>2026-05-02T06:05:46.786Z</time></trkpt><trkpt lat="43.800595" lon="12.3626983"><ele>691.0</ele><time>2026-05-02T06:05:47.787Z</time></trkpt><trkpt lat="43.8004317" lon="12.3626033"><ele>691.0</ele><time>2026-05-02T06:05:48.787Z</time></trkpt><trkpt lat="43.8002767" lon="12.362515"><ele>691.0</ele><time>2026-05-02T06:05:49.787Z</time></trkpt><trkpt lat="43.800135" lon="12.36243"><ele>691.75</ele><time>2026-05-02T06:05:50.789Z</time></trkpt><trkpt lat="43.7999983" lon="12.3623483"><ele>692.5</ele><time>2026-05-02T06:05:51.788Z</time></trkpt><trkpt lat="43.79987" lon="12.3622717"><ele>693.25</ele><time>2026-05-02T06:05:52.787Z</time></trkpt><trkpt lat="43.799745" lon="12.3622033"><ele>694.0</ele><time>2026-05-02T06:05:53.881Z</time></trkpt><trkpt lat="43.7996217" lon="12.3621567"><ele>695.5</ele><time>2026-05-02T06:05:54.786Z</time></trkpt><trkpt lat="43.799495" lon="12.3621467"><ele>697.0</ele><time>2026-05-02T06:05:55.787Z</time></trkpt><trkpt lat="43.7993767" lon="12.3621917"><ele>698.5</ele><time>2026-05-02T06:05:56.787Z</time></trkpt><trkpt lat="43.7992717" lon="12.36229"><ele>700.0</ele><time>2026-05-02T06:05:57.789Z</time></trkpt><trkpt lat="43.7991767" lon="12.3624383"><ele>701.0</ele><time>2026-05-02T06:05:58.788Z</time></trkpt><trkpt lat="43.799085" lon="12.3626017"><ele>702.0</ele><time>2026-05-02T06:05:59.789Z</time></trkpt><trkpt lat="43.7989867" lon="12.3627667"><ele>703.0</ele><time>2026-05-02T06:06:00.786Z</time></trkpt><trkpt lat="43.798865" lon="12.3629117"><ele>701.0</ele><time>2026-05-02T06:06:01.789Z</time></trkpt><trkpt lat="43.7987317" lon="12.363035"><ele>699.0</ele><time>2026-05-02T06:06:02.789Z</time></trkpt><trkpt lat="43.7985917" lon="12.3631333"><ele>697.0</ele><time>2026-05-02T06:06:03.785Z</time></trkpt><trkpt lat="43.798445" lon="12.3631883"><ele>702.0</ele><time>2026-05-02T06:06:04.787Z</time></trkpt><trkpt lat="43.7982883" lon="12.3632133"><ele>707.0</ele><time>2026-05-02T06:06:05.787Z</time></trkpt><trkpt lat="43.7981283" lon="12.363235"><ele>712.0</ele><time>2026-05-02T06:06:06.788Z</time></trkpt><trkpt lat="43.7979683" lon="12.3632883"><ele>712.0</ele><time>2026-05-02T06:06:07.787Z</time></trkpt><trkpt lat="43.7978133" lon="12.3633567"><ele>712.0</ele><time>2026-05-02T06:06:08.787Z</time></trkpt><trkpt lat="43.797665" lon="12.3634283"><ele>712.0</ele><time>2026-05-02T06:06:09.787Z</time></trkpt><trkpt lat="43.7975367" lon="12.3635017"><ele>712.5</ele><time>2026-05-02T06:06:10.79Z</time></trkpt><trkpt lat="43.7974233" lon="12.3635783"><ele>713.0</ele><time>2026-05-02T06:06:11.788Z</time></trkpt><trkpt lat="43.7973233" lon="12.3636733"><ele>713.5</ele><time>2026-05-02T06:06:12.787Z</time></trkpt><trkpt lat="43.79724" lon="12.3638"><ele>714.0</ele><time>2026-05-02T06:06:13.788Z</time></trkpt><trkpt lat="43.7971717" lon="12.363955"><ele>714.0</ele><time>2026-05-02T06:06:14.787Z</time></trkpt><trkpt lat="43.7971317" lon="12.3641317"><ele>714.0</ele><time>2026-05-02T06:06:15.788Z</time></trkpt><trkpt lat="43.7971233" lon="12.3643233"><ele>714.0</ele><time>2026-05-02T06:06:16.787Z</time></trkpt><trkpt lat="43.7971383" lon="12.3645183"><ele>714.0</ele><time>2026-05-02T06:06:17.789Z</time></trkpt><trkpt lat="43.79716" lon="12.3646983"><ele>714.25</ele><time>2026-05-02T06:06:18.788Z</time></trkpt><trkpt lat="43.7971667" lon="12.3648733"><ele>714.5</ele><time>2026-05-02T06:06:19.787Z</time></trkpt><trkpt lat="43.7971467" lon="12.36505"><ele>714.75</ele><time>2026-05-02T06:06:20.789Z</time></trkpt><trkpt lat="43.79711" lon="12.3652183"><ele>715.0</ele><time>2026-05-02T06:06:21.789Z</time></trkpt><trkpt lat="43.7970617" lon="12.3653917"><ele>714.25</ele><time>2026-05-02T06:06:22.787Z</time></trkpt><trkpt lat="43.7970067" lon="12.365575"><ele>713.5</ele><time>2026-05-02T06:06:23.787Z</time></trkpt><trkpt lat="43.79695" lon="12.3657567"><ele>712.75</ele><time>2026-05-02T06:06:24.789Z</time></trkpt><trkpt lat="43.7968933" lon="12.36593"><ele>712.0</ele><time>2026-05-02T06:06:25.79Z</time></trkpt><trkpt lat="43.7968383" lon="12.3660867"><ele>714.0</ele><time>2026-05-02T06:06:26.787Z</time></trkpt><trkpt lat="43.7967817" lon="12.36622"><ele>716.0</ele><time>2026-05-02T06:06:27.786Z</time></trkpt><trkpt lat="43.796715" lon="12.366315"><ele>718.0</ele><time>2026-05-02T06:06:28.787Z</time></trkpt><trkpt lat="43.79664" lon="12.3663833"><ele>720.0</ele><time>2026-05-02T06:06:29.789Z</time></trkpt><trkpt lat="43.7965567" lon="12.3663983"><ele>722.0</ele><time>2026-05-02T06:06:30.786Z</time></trkpt><trkpt lat="43.7964717" lon="12.36636"><ele>723.25</ele><time>2026-05-02T06:06:31.789Z</time></trkpt><trkpt lat="43.7963833" lon="12.3662683"><ele>724.5</ele><time>2026-05-02T06:06:32.789Z</time></trkpt><trkpt lat="43.79629" lon="12.36613"><ele>725.75</ele><time>2026-05-02T06:06:33.79Z</time></trkpt><trkpt lat="43.7962033" lon="12.3660067"><ele>727.0</ele><time>2026-05-02T06:06:34.789Z</time></trkpt><trkpt lat="43.7961133" lon="12.3658783"><ele>727.0</ele><time>2026-05-02T06:06:35.789Z</time></trkpt><trkpt lat="43.79602" lon="12.365745"><ele>727.0</ele><time>2026-05-02T06:06:36.789Z</time></trkpt><trkpt lat="43.7959133" lon="12.365625"><ele>727.0</ele><time>2026-05-02T06:06:37.789Z</time></trkpt><trkpt lat="43.7957933" lon="12.3655083"><ele>727.0</ele><time>2026-05-02T06:06:38.789Z</time></trkpt><trkpt lat="43.7956617" lon="12.365415"><ele>730.0</ele><time>2026-05-02T06:06:39.785Z</time></trkpt><trkpt lat="43.7955167" lon="12.3653383"><ele>733.0</ele><time>2026-05-02T06:06:40.79Z</time></trkpt><trkpt lat="43.795365" lon="12.3652633"><ele>736.0</ele><time>2026-05-02T06:06:41.789Z</time></trkpt><trkpt lat="43.795215" lon="12.3651833"><ele>734.3333333333334</ele><time>2026-05-02T06:06:42.789Z</time></trkpt><trkpt lat="43.7950567" lon="12.3650983"><ele>732.6666666666666</ele><time>2026-05-02T06:06:43.788Z</time></trkpt><trkpt lat="43.7948867" lon="12.3650083"><ele>731.0</ele><time>2026-05-02T06:06:44.789Z</time></trkpt><trkpt lat="43.7947117" lon="12.364925"><ele>731.0</ele><time>2026-05-02T06:06:45.789Z</time></trkpt><trkpt lat="43.79453" lon="12.3648617"><ele>731.0</ele><time>2026-05-02T06:06:46.787Z</time></trkpt><trkpt lat="43.7943417" lon="12.36483"><ele>731.0</ele><time>2026-05-02T06:06:47.787Z</time></trkpt><trkpt lat="43.7941533" lon="12.3648283"><ele>730.3333333333333</ele><time>2026-05-02T06:06:48.786Z</time></trkpt><trkpt lat="43.793975" lon="12.364865"><ele>729.6666666666666</ele><time>2026-05-02T06:06:49.788Z</time></trkpt><trkpt lat="43.7938067" lon="12.3649233"><ele>729.0</ele><time>2026-05-02T06:06:50.786Z</time></trkpt><trkpt lat="43.793655" lon="12.36499"><ele>729.0</ele><time>2026-05-02T06:06:51.787Z</time></trkpt><trkpt lat="43.7935133" lon="12.3650583"><ele>729.0</ele><time>2026-05-02T06:06:52.79Z</time></trkpt><trkpt lat="43.793375" lon="12.3651217"><ele>729.0</ele><time>2026-05-02T06:06:53.787Z</time></trkpt><trkpt lat="43.79324" lon="12.3651767"><ele>729.0</ele><time>2026-05-02T06:06:54.786Z</time></trkpt><trkpt lat="43.793105" lon="12.3652333"><ele>729.5</ele><time>2026-05-02T06:06:55.786Z</time></trkpt><trkpt lat="43.7929883" lon="12.3653017"><ele>730.0</ele><time>2026-05-02T06:06:56.787Z</time></trkpt><trkpt lat="43.7928833" lon="12.3654"><ele>730.5</ele><time>2026-05-02T06:06:57.789Z</time></trkpt><trkpt lat="43.7927883" lon="12.365525"><ele>731.0</ele><time>2026-05-02T06:06:58.787Z</time></trkpt><trkpt lat="43.7927017" lon="12.365665"><ele>734.75</ele><time>2026-05-02T06:06:59.786Z</time></trkpt><trkpt lat="43.79262" lon="12.3658117"><ele>738.5</ele><time>2026-05-02T06:07:00.788Z</time></trkpt><trkpt lat="43.7925317" lon="12.365965"><ele>742.25</ele><time>2026-05-02T06:07:01.786Z</time></trkpt><trkpt lat="43.7924433" lon="12.3661217"><ele>746.0</ele><time>2026-05-02T06:07:02.789Z</time></trkpt><trkpt lat="43.7923583" lon="12.3662733"><ele>744.4</ele><time>2026-05-02T06:07:03.786Z</time></trkpt><trkpt lat="43.7922667" lon="12.3663967"><ele>742.8</ele><time>2026-05-02T06:07:04.787Z</time></trkpt><trkpt lat="43.7921783" lon="12.3664783"><ele>741.1999999999999</ele><time>2026-05-02T06:07:05.79Z</time></trkpt><trkpt lat="43.7920967" lon="12.3665"><ele>739.5999999999999</ele><time>2026-05-02T06:07:06.79Z</time></trkpt><trkpt lat="43.7920183" lon="12.366505"><ele>738.0</ele><time>2026-05-02T06:07:07.788Z</time></trkpt><trkpt lat="43.7919333" lon="12.3665"><ele>738.0</ele><time>2026-05-02T06:07:09.789Z</time></trkpt><trkpt lat="43.7919033" lon="12.3666367"><ele>738.0</ele><time>2026-05-02T06:07:12.79Z</time></trkpt><trkpt lat="43.7919033" lon="12.366735"><ele>738.0</ele><time>2026-05-02T06:07:13.79Z</time></trkpt><trkpt lat="43.7918917" lon="12.3668483"><ele>738.0</ele><time>2026-05-02T06:07:14.79Z</time></trkpt><trkpt lat="43.7918617" lon="12.3669767"><ele>738.0</ele><time>2026-05-02T06:07:15.785Z</time></trkpt><trkpt lat="43.79183" lon="12.3670883"><ele>738.0</ele><time>2026-05-02T06:07:16.789Z</time></trkpt><trkpt lat="43.7918017" lon="12.367185"><ele>737.5999999999999</ele><time>2026-05-02T06:07:17.79Z</time></trkpt><trkpt lat="43.79178" lon="12.3672733"><ele>737.1999999999999</ele><time>2026-05-02T06:07:18.791Z</time></trkpt><trkpt lat="43.7917517" lon="12.367425"><ele>736.8</ele><time>2026-05-02T06:07:20.786Z</time></trkpt><trkpt lat="43.7917117" lon="12.3675217"><ele>736.4</ele><time>2026-05-02T06:07:23.789Z</time></trkpt><trkpt lat="43.7918583" lon="12.3675467"><ele>736.0</ele><time>2026-05-02T06:11:03.885Z</time></trkpt><trkpt lat="43.7917267" lon="12.3675183"><ele>736.0</ele><time>2026-05-02T06:11:07.787Z</time></trkpt><trkpt lat="43.7916983" lon="12.3676017"><ele>736.0</ele><time>2026-05-02T06:11:18.786Z</time></trkpt><trkpt lat="43.7916967" lon="12.3677"><ele>736.0</ele><time>2026-05-02T06:11:20.786Z</time></trkpt><trkpt lat="43.79167" lon="12.3678717"><ele>736.0</ele><time>2026-05-02T06:11:22.787Z</time></trkpt><trkpt lat="43.7916417" lon="12.3679683"><ele>736.0</ele><time>2026-05-02T06:11:23.788Z</time></trkpt><trkpt lat="43.7916033" lon="12.368075"><ele>736.0</ele><time>2026-05-02T06:11:24.787Z</time></trkpt><trkpt lat="43.7915567" lon="12.36819"><ele>735.5999999999999</ele><time>2026-05-02T06:11:25.786Z</time></trkpt><trkpt lat="43.7915033" lon="12.3683133"><ele>735.2</ele><time>2026-05-02T06:11:26.786Z</time></trkpt><trkpt lat="43.7914483" lon="12.3684367"><ele>734.8</ele><time>2026-05-02T06:11:27.787Z</time></trkpt><trkpt lat="43.7913933" lon="12.3685567"><ele>734.4000000000001</ele><time>2026-05-02T06:11:28.786Z</time></trkpt><trkpt lat="43.791345" lon="12.3686717"><ele>734.0</ele><time>2026-05-02T06:11:29.787Z</time></trkpt><trkpt lat="43.7912983" lon="12.36878"><ele>732.4000000000001</ele><time>2026-05-02T06:11:30.786Z</time></trkpt><trkpt lat="43.791255" lon="12.368885"><ele>730.8</ele><time>2026-05-02T06:11:31.786Z</time></trkpt><trkpt lat="43.79121" lon="12.3689933"><ele>729.2</ele><time>2026-05-02T06:11:32.787Z</time></trkpt><trkpt lat="43.79116" lon="12.3691133"><ele>727.5999999999999</ele><time>2026-05-02T06:11:33.786Z</time></trkpt><trkpt lat="43.7910967" lon="12.369245"><ele>726.0</ele><time>2026-05-02T06:11:34.786Z</time></trkpt><trkpt lat="43.7910267" lon="12.36939"><ele>725.75</ele><time>2026-05-02T06:11:35.788Z</time></trkpt><trkpt lat="43.79095" lon="12.369545"><ele>725.5</ele><time>2026-05-02T06:11:36.786Z</time></trkpt><trkpt lat="43.790875" lon="12.3696983"><ele>725.25</ele><time>2026-05-02T06:11:37.786Z</time></trkpt><trkpt lat="43.7908" lon="12.3698417"><ele>725.0</ele><time>2026-05-02T06:11:38.789Z</time></trkpt><trkpt lat="43.790725" lon="12.36997"><ele>724.5</ele><time>2026-05-02T06:11:39.786Z</time></trkpt><trkpt lat="43.7906467" lon="12.3700967"><ele>724.0</ele><time>2026-05-02T06:11:40.788Z</time></trkpt><trkpt lat="43.7905783" lon="12.3702233"><ele>723.5</ele><time>2026-05-02T06:11:41.788Z</time></trkpt><trkpt lat="43.7905267" lon="12.370355"><ele>723.0</ele><time>2026-05-02T06:11:42.786Z</time></trkpt><trkpt lat="43.7904917" lon="12.370495"><ele>722.75</ele><time>2026-05-02T06:11:43.786Z</time></trkpt><trkpt lat="43.7904767" lon="12.3706367"><ele>722.5</ele><time>2026-05-02T06:11:44.787Z</time></trkpt><trkpt lat="43.7904833" lon="12.37079"><ele>722.25</ele><time>2026-05-02T06:11:45.787Z</time></trkpt><trkpt lat="43.7904983" lon="12.3709517"><ele>722.0</ele><time>2026-05-02T06:11:46.788Z</time></trkpt><trkpt lat="43.7905217" lon="12.3711183"><ele>722.0</ele><time>2026-05-02T06:11:47.787Z</time></trkpt><trkpt lat="43.79054" lon="12.3712817"><ele>722.0</ele><time>2026-05-02T06:11:48.786Z</time></trkpt><trkpt lat="43.7905517" lon="12.3714383"><ele>722.0</ele><time>2026-05-02T06:11:49.786Z</time></trkpt><trkpt lat="43.7905533" lon="12.3715817"><ele>722.0</ele><time>2026-05-02T06:11:50.789Z</time></trkpt><trkpt lat="43.790545" lon="12.3717283"><ele>722.0</ele><time>2026-05-02T06:11:51.786Z</time></trkpt><trkpt lat="43.790525" lon="12.3718683"><ele>722.2</ele><time>2026-05-02T06:11:52.787Z</time></trkpt><trkpt lat="43.7904917" lon="12.3719933"><ele>722.4000000000001</ele><time>2026-05-02T06:11:53.79Z</time></trkpt><trkpt lat="43.7904417" lon="12.3721117"><ele>722.5999999999999</ele><time>2026-05-02T06:11:54.787Z</time></trkpt><trkpt lat="43.7903783" lon="12.37222"><ele>722.8</ele><time>2026-05-02T06:11:55.786Z</time></trkpt><trkpt lat="43.7903" lon="12.3723183"><ele>723.0</ele><time>2026-05-02T06:11:56.786Z</time></trkpt><trkpt lat="43.790215" lon="12.3724067"><ele>726.8</ele><time>2026-05-02T06:11:57.786Z</time></trkpt><trkpt lat="43.7901267" lon="12.3724867"><ele>730.5999999999999</ele><time>2026-05-02T06:11:58.786Z</time></trkpt><trkpt lat="43.790035" lon="12.3725483"><ele>734.4000000000001</ele><time>2026-05-02T06:11:59.787Z</time></trkpt><trkpt lat="43.7899367" lon="12.37258"><ele>738.2</ele><time>2026-05-02T06:12:00.786Z</time></trkpt><trkpt lat="43.7898317" lon="12.37259"><ele>742.0</ele><time>2026-05-02T06:12:01.786Z</time></trkpt><trkpt lat="43.7897283" lon="12.3726117"><ele>742.0</ele><time>2026-05-02T06:12:02.786Z</time></trkpt><trkpt lat="43.7896317" lon="12.3726583"><ele>742.0</ele><time>2026-05-02T06:12:03.787Z</time></trkpt><trkpt lat="43.789545" lon="12.3727333"><ele>742.0</ele><time>2026-05-02T06:12:04.787Z</time></trkpt><trkpt lat="43.7894583" lon="12.3728117"><ele>742.0</ele><time>2026-05-02T06:12:05.786Z</time></trkpt><trkpt lat="43.7893683" lon="12.3728817"><ele>742.0</ele><time>2026-05-02T06:12:06.789Z</time></trkpt><trkpt lat="43.7892733" lon="12.3729383"><ele>743.2</ele><time>2026-05-02T06:12:07.79Z</time></trkpt><trkpt lat="43.7891783" lon="12.372995"><ele>744.4000000000001</ele><time>2026-05-02T06:12:08.789Z</time></trkpt><trkpt lat="43.7890883" lon="12.3730667"><ele>745.5999999999999</ele><time>2026-05-02T06:12:09.789Z</time></trkpt><trkpt lat="43.7890133" lon="12.373155"><ele>746.8</ele><time>2026-05-02T06:12:10.789Z</time></trkpt><trkpt lat="43.7889417" lon="12.37325"><ele>748.0</ele><time>2026-05-02T06:12:11.788Z</time></trkpt><trkpt lat="43.7888633" lon="12.3733333"><ele>747.5999999999999</ele><time>2026-05-02T06:12:12.79Z</time></trkpt><trkpt lat="43.7887767" lon="12.3734167"><ele>747.1999999999999</ele><time>2026-05-02T06:12:13.786Z</time></trkpt><trkpt lat="43.7886933" lon="12.3735083"><ele>746.8</ele><time>2026-05-02T06:12:14.79Z</time></trkpt><trkpt lat="43.7886183" lon="12.3736117"><ele>746.4</ele><time>2026-05-02T06:12:15.789Z</time></trkpt><trkpt lat="43.7885533" lon="12.3737183"><ele>746.0</ele><time>2026-05-02T06:12:16.79Z</time></trkpt><trkpt lat="43.7884967" lon="12.3738267"><ele>747.8</ele><time>2026-05-02T06:12:17.789Z</time></trkpt><trkpt lat="43.7884433" lon="12.37394"><ele>749.5999999999999</ele><time>2026-05-02T06:12:18.789Z</time></trkpt><trkpt lat="43.788395" lon="12.3740617"><ele>751.4</ele><time>2026-05-02T06:12:19.79Z</time></trkpt><trkpt lat="43.7883517" lon="12.3741833"><ele>753.2</ele><time>2026-05-02T06:12:20.79Z</time></trkpt><trkpt lat="43.788315" lon="12.3743067"><ele>755.0</ele><time>2026-05-02T06:12:21.789Z</time></trkpt><trkpt lat="43.7882917" lon="12.3744283"><ele>755.0</ele><time>2026-05-02T06:12:22.79Z</time></trkpt><trkpt lat="43.78829" lon="12.3745633"><ele>755.0</ele><time>2026-05-02T06:12:23.789Z</time></trkpt><trkpt lat="43.7883133" lon="12.3747083"><ele>755.0</ele><time>2026-05-02T06:12:24.789Z</time></trkpt><trkpt lat="43.78836" lon="12.37485"><ele>755.0</ele><time>2026-05-02T06:12:25.79Z</time></trkpt><trkpt lat="43.78842" lon="12.3749867"><ele>755.0</ele><time>2026-05-02T06:12:26.789Z</time></trkpt><trkpt lat="43.7884817" lon="12.375125"><ele>758.5</ele><time>2026-05-02T06:12:27.789Z</time></trkpt><trkpt lat="43.78853" lon="12.3752733"><ele>762.0</ele><time>2026-05-02T06:12:28.79Z</time></trkpt><trkpt lat="43.78857" lon="12.37543"><ele>765.5</ele><time>2026-05-02T06:12:29.789Z</time></trkpt><trkpt lat="43.78861" lon="12.3755917"><ele>769.0</ele><time>2026-05-02T06:12:30.786Z</time></trkpt><trkpt lat="43.78865" lon="12.3757483"><ele>769.0</ele><time>2026-05-02T06:12:31.788Z</time></trkpt><trkpt lat="43.78868" lon="12.3759083"><ele>769.0</ele><time>2026-05-02T06:12:32.787Z</time></trkpt><trkpt lat="43.7886933" lon="12.37608"><ele>769.0</ele><time>2026-05-02T06:12:33.787Z</time></trkpt><trkpt lat="43.7886967" lon="12.3762533"><ele>769.0</ele><time>2026-05-02T06:12:34.789Z</time></trkpt><trkpt lat="43.788705" lon="12.3764283"><ele>767.75</ele><time>2026-05-02T06:12:35.789Z</time></trkpt><trkpt lat="43.7887117" lon="12.3766033"><ele>766.5</ele><time>2026-05-02T06:12:36.786Z</time></trkpt><trkpt lat="43.7887167" lon="12.3767717"><ele>765.25</ele><time>2026-05-02T06:12:37.787Z</time></trkpt><trkpt lat="43.7887217" lon="12.3769467"><ele>764.0</ele><time>2026-05-02T06:12:38.786Z</time></trkpt><trkpt lat="43.78873" lon="12.37711"><ele>763.8000000000001</ele><time>2026-05-02T06:12:39.786Z</time></trkpt><trkpt lat="43.7887483" lon="12.377265"><ele>763.6</ele><time>2026-05-02T06:12:40.786Z</time></trkpt><trkpt lat="43.788785" lon="12.3774033"><ele>763.4</ele><time>2026-05-02T06:12:41.787Z</time></trkpt><trkpt lat="43.78883" lon="12.377525"><ele>763.2</ele><time>2026-05-02T06:12:42.786Z</time></trkpt><trkpt lat="43.7888667" lon="12.3776383"><ele>763.0</ele><time>2026-05-02T06:12:43.787Z</time></trkpt><trkpt lat="43.788885" lon="12.3777567"><ele>763.0</ele><time>2026-05-02T06:12:44.786Z</time></trkpt><trkpt lat="43.78888" lon="12.3778817"><ele>763.0</ele><time>2026-05-02T06:12:45.789Z</time></trkpt><trkpt lat="43.788855" lon="12.3780067"><ele>763.0</ele><time>2026-05-02T06:12:46.79Z</time></trkpt><trkpt lat="43.788815" lon="12.3781317"><ele>763.0</ele><time>2026-05-02T06:12:47.789Z</time></trkpt><trkpt lat="43.788755" lon="12.3782283"><ele>763.0</ele><time>2026-05-02T06:12:48.786Z</time></trkpt><trkpt lat="43.7886867" lon="12.3783067"><ele>762.5999999999999</ele><time>2026-05-02T06:12:49.789Z</time></trkpt><trkpt lat="43.78862" lon="12.3783867"><ele>762.1999999999999</ele><time>2026-05-02T06:12:50.789Z</time></trkpt><trkpt lat="43.7885567" lon="12.3784933"><ele>761.8</ele><time>2026-05-02T06:12:51.79Z</time></trkpt><trkpt lat="43.7885" lon="12.378625"><ele>761.4</ele><time>2026-05-02T06:12:52.79Z</time></trkpt><trkpt lat="43.78844" lon="12.3787733"><ele>761.0</ele><time>2026-05-02T06:12:53.789Z</time></trkpt><trkpt lat="43.7883767" lon="12.3789333"><ele>761.0</ele><time>2026-05-02T06:12:54.786Z</time></trkpt><trkpt lat="43.7883117" lon="12.3791017"><ele>761.0</ele><time>2026-05-02T06:12:55.79Z</time></trkpt><trkpt lat="43.7882433" lon="12.379275"><ele>761.0</ele><time>2026-05-02T06:12:56.787Z</time></trkpt><trkpt lat="43.7881717" lon="12.3794533"><ele>761.0</ele><time>2026-05-02T06:12:57.789Z</time></trkpt><trkpt lat="43.7881017" lon="12.3796333"><ele>762.25</ele><time>2026-05-02T06:12:58.789Z</time></trkpt><trkpt lat="43.78803" lon="12.379815"><ele>763.5</ele><time>2026-05-02T06:12:59.789Z</time></trkpt><trkpt lat="43.7879583" lon="12.37999"><ele>764.75</ele><time>2026-05-02T06:13:00.789Z</time></trkpt><trkpt lat="43.7878817" lon="12.3801717"><ele>766.0</ele><time>2026-05-02T06:13:01.79Z</time></trkpt><trkpt lat="43.7878083" lon="12.3803533"><ele>765.5</ele><time>2026-05-02T06:13:02.787Z</time></trkpt><trkpt lat="43.787745" lon="12.38053"><ele>765.0</ele><time>2026-05-02T06:13:03.789Z</time></trkpt><trkpt lat="43.7876817" lon="12.380695"><ele>764.5</ele><time>2026-05-02T06:13:04.79Z</time></trkpt><trkpt lat="43.787615" lon="12.380855"><ele>764.0</ele><time>2026-05-02T06:13:05.789Z</time></trkpt><trkpt lat="43.7875483" lon="12.3809967"><ele>762.2</ele><time>2026-05-02T06:13:06.789Z</time></trkpt><trkpt lat="43.78748" lon="12.381125"><ele>760.4000000000001</ele><time>2026-05-02T06:13:07.79Z</time></trkpt><trkpt lat="43.7874217" lon="12.3812317"><ele>758.6</ele><time>2026-05-02T06:13:08.79Z</time></trkpt><trkpt lat="43.7873783" lon="12.381315"><ele>756.8</ele><time>2026-05-02T06:13:09.789Z</time></trkpt><trkpt lat="43.787355" lon="12.3814667"><ele>755.0</ele><time>2026-05-02T06:13:11.79Z</time></trkpt><trkpt lat="43.7873567" lon="12.3816367"><ele>755.0</ele><time>2026-05-02T06:13:13.79Z</time></trkpt><trkpt lat="43.78737" lon="12.381745"><ele>755.0</ele><time>2026-05-02T06:13:14.787Z</time></trkpt><trkpt lat="43.78738" lon="12.3818567"><ele>755.0</ele><time>2026-05-02T06:13:15.786Z</time></trkpt><trkpt lat="43.787375" lon="12.3819733"><ele>755.0</ele><time>2026-05-02T06:13:16.789Z</time></trkpt><trkpt lat="43.7873467" lon="12.382105"><ele>755.0</ele><time>2026-05-02T06:13:17.786Z</time></trkpt><trkpt lat="43.7873" lon="12.3822433"><ele>754.4</ele><time>2026-05-02T06:13:18.79Z</time></trkpt><trkpt lat="43.78725" lon="12.3823833"><ele>753.8</ele><time>2026-05-02T06:13:19.789Z</time></trkpt><trkpt lat="43.7872017" lon="12.38251"><ele>753.2</ele><time>2026-05-02T06:13:20.791Z</time></trkpt><trkpt lat="43.7871483" lon="12.3826117"><ele>752.6</ele><time>2026-05-02T06:13:21.789Z</time></trkpt><trkpt lat="43.7870917" lon="12.3826833"><ele>752.0</ele><time>2026-05-02T06:13:22.791Z</time></trkpt><trkpt lat="43.7870333" lon="12.3827333"><ele>752.0</ele><time>2026-05-02T06:13:23.79Z</time></trkpt><trkpt lat="43.7869617" lon="12.3827517"><ele>752.0</ele><time>2026-05-02T06:13:24.79Z</time></trkpt><trkpt lat="43.7868783" lon="12.3827717"><ele>752.0</ele><time>2026-05-02T06:13:25.79Z</time></trkpt><trkpt lat="43.786795" lon="12.3828"><ele>752.0</ele><time>2026-05-02T06:13:26.79Z</time></trkpt><trkpt lat="43.7867217" lon="12.3828367"><ele>752.0</ele><time>2026-05-02T06:13:27.786Z</time></trkpt><trkpt lat="43.7866667" lon="12.3828867"><ele>752.0</ele><time>2026-05-02T06:13:28.787Z</time></trkpt><trkpt lat="43.7866317" lon="12.3829683"><ele>752.2</ele><time>2026-05-02T06:13:29.786Z</time></trkpt><trkpt lat="43.7866283" lon="12.3830833"><ele>752.4000000000001</ele><time>2026-05-02T06:13:30.786Z</time></trkpt><trkpt lat="43.7866617" lon="12.3832217"><ele>752.5999999999999</ele><time>2026-05-02T06:13:31.788Z</time></trkpt><trkpt lat="43.7867" lon="12.3833533"><ele>752.8</ele><time>2026-05-02T06:13:32.787Z</time></trkpt><trkpt lat="43.7867683" lon="12.38347"><ele>753.0</ele><time>2026-05-02T06:13:33.788Z</time></trkpt><trkpt lat="43.7868483" lon="12.3835667"><ele>753.0</ele><time>2026-05-02T06:13:34.787Z</time></trkpt><trkpt lat="43.7869283" lon="12.38365"><ele>753.0</ele><time>2026-05-02T06:13:35.787Z</time></trkpt><trkpt lat="43.787005" lon="12.3837233"><ele>753.0</ele><time>2026-05-02T06:13:36.786Z</time></trkpt><trkpt lat="43.7870783" lon="12.3838033"><ele>753.0</ele><time>2026-05-02T06:13:37.786Z</time></trkpt><trkpt lat="43.7871433" lon="12.3839183"><ele>753.0</ele><time>2026-05-02T06:13:38.79Z</time></trkpt><trkpt lat="43.7872083" lon="12.3840333"><ele>750.0</ele><time>2026-05-02T06:13:39.79Z</time></trkpt><trkpt lat="43.7872683" lon="12.3841433"><ele>747.0</ele><time>2026-05-02T06:13:40.791Z</time></trkpt><trkpt lat="43.78732" lon="12.38425"><ele>744.0</ele><time>2026-05-02T06:13:41.787Z</time></trkpt><trkpt lat="43.7873533" lon="12.3843567"><ele>741.0</ele><time>2026-05-02T06:13:42.786Z</time></trkpt><trkpt lat="43.7873683" lon="12.3844733"><ele>738.0</ele><time>2026-05-02T06:13:43.786Z</time></trkpt><trkpt lat="43.78736" lon="12.384595"><ele>735.0</ele><time>2026-05-02T06:13:44.789Z</time></trkpt><trkpt lat="43.7873617" lon="12.3847267"><ele>732.0</ele><time>2026-05-02T06:13:45.789Z</time></trkpt><trkpt lat="43.78734" lon="12.3848767"><ele>729.0</ele><time>2026-05-02T06:13:46.79Z</time></trkpt><trkpt lat="43.7873033" lon="12.3850183"><ele>726.0</ele><time>2026-05-02T06:13:47.789Z</time></trkpt><trkpt lat="43.7872617" lon="12.3851317"><ele>723.0</ele><time>2026-05-02T06:13:48.791Z</time></trkpt><trkpt lat="43.7872183" lon="12.3852267"><ele>723.0</ele><time>2026-05-02T06:13:49.786Z</time></trkpt><trkpt lat="43.78715" lon="12.3852867"><ele>723.0</ele><time>2026-05-02T06:13:50.79Z</time></trkpt><trkpt lat="43.7870683" lon="12.3853283"><ele>723.0</ele><time>2026-05-02T06:13:51.79Z</time></trkpt><trkpt lat="43.78697" lon="12.3853667"><ele>723.0</ele><time>2026-05-02T06:13:52.79Z</time></trkpt><trkpt lat="43.7868733" lon="12.3854333"><ele>723.0</ele><time>2026-05-02T06:13:53.789Z</time></trkpt><trkpt lat="43.7867967" lon="12.3855283"><ele>719.4</ele><time>2026-05-02T06:13:54.79Z</time></trkpt><trkpt lat="43.7867317" lon="12.38564"><ele>715.8</ele><time>2026-05-02T06:13:55.79Z</time></trkpt><trkpt lat="43.7866733" lon="12.385755"><ele>712.2</ele><time>2026-05-02T06:13:56.79Z</time></trkpt><trkpt lat="43.78661" lon="12.3858533"><ele>708.6</ele><time>2026-05-02T06:13:57.786Z</time></trkpt><trkpt lat="43.7865333" lon="12.3859283"><ele>705.0</ele><time>2026-05-02T06:13:58.788Z</time></trkpt><trkpt lat="43.7864433" lon="12.38598"><ele>705.0</ele><time>2026-05-02T06:13:59.786Z</time></trkpt><trkpt lat="43.7863317" lon="12.38601"><ele>705.0</ele><time>2026-05-02T06:14:00.786Z</time></trkpt><trkpt lat="43.7862217" lon="12.3860267"><ele>705.0</ele><time>2026-05-02T06:14:01.787Z</time></trkpt><trkpt lat="43.7861117" lon="12.3860417"><ele>705.0</ele><time>2026-05-02T06:14:02.787Z</time></trkpt><trkpt lat="43.7860117" lon="12.3860683"><ele>705.0</ele><time>2026-05-02T06:14:03.787Z</time></trkpt><trkpt lat="43.7859233" lon="12.3861117"><ele>702.6</ele><time>2026-05-02T06:14:04.786Z</time></trkpt><trkpt lat="43.7858383" lon="12.386185"><ele>700.2</ele><time>2026-05-02T06:14:05.787Z</time></trkpt><trkpt lat="43.78576" lon="12.3862733"><ele>697.8</ele><time>2026-05-02T06:14:06.786Z</time></trkpt><trkpt lat="43.7856883" lon="12.3863783"><ele>695.4</ele><time>2026-05-02T06:14:07.787Z</time></trkpt><trkpt lat="43.785625" lon="12.3865"><ele>693.0</ele><time>2026-05-02T06:14:08.79Z</time></trkpt><trkpt lat="43.7855667" lon="12.3866367"><ele>693.0</ele><time>2026-05-02T06:14:09.786Z</time></trkpt><trkpt lat="43.785515" lon="12.38678"><ele>693.0</ele><time>2026-05-02T06:14:10.79Z</time></trkpt><trkpt lat="43.78547" lon="12.3869383"><ele>693.0</ele><time>2026-05-02T06:14:11.788Z</time></trkpt><trkpt lat="43.78543" lon="12.387115"><ele>693.0</ele><time>2026-05-02T06:14:12.787Z</time></trkpt><trkpt lat="43.7854" lon="12.3873067"><ele>693.0</ele><time>2026-05-02T06:14:13.79Z</time></trkpt><trkpt lat="43.7853667" lon="12.3875"><ele>693.0</ele><time>2026-05-02T06:14:14.79Z</time></trkpt><trkpt lat="43.7853433" lon="12.3876883"><ele>693.0</ele><time>2026-05-02T06:14:15.79Z</time></trkpt><trkpt lat="43.7853283" lon="12.3878683"><ele>693.0</ele><time>2026-05-02T06:14:16.788Z</time></trkpt><trkpt lat="43.78532" lon="12.388025"><ele>690.8333333333334</ele><time>2026-05-02T06:14:17.787Z</time></trkpt><trkpt lat="43.7853233" lon="12.388155"><ele>688.6666666666666</ele><time>2026-05-02T06:14:18.786Z</time></trkpt><trkpt lat="43.7853433" lon="12.3882667"><ele>686.5</ele><time>2026-05-02T06:14:19.787Z</time></trkpt><trkpt lat="43.7853833" lon="12.38837"><ele>684.3333333333333</ele><time>2026-05-02T06:14:20.788Z</time></trkpt><trkpt lat="43.785435" lon="12.388465"><ele>682.1666666666666</ele><time>2026-05-02T06:14:21.789Z</time></trkpt><trkpt lat="43.7855133" lon="12.3885367"><ele>680.0</ele><time>2026-05-02T06:14:22.79Z</time></trkpt><trkpt lat="43.7856117" lon="12.388575"><ele>680.0</ele><time>2026-05-02T06:14:23.791Z</time></trkpt><trkpt lat="43.7856967" lon="12.3886217"><ele>680.0</ele><time>2026-05-02T06:14:24.791Z</time></trkpt><trkpt lat="43.7857633" lon="12.38869"><ele>680.0</ele><time>2026-05-02T06:14:25.791Z</time></trkpt><trkpt lat="43.78581" lon="12.3887833"><ele>680.0</ele><time>2026-05-02T06:14:26.79Z</time></trkpt><trkpt lat="43.7858433" lon="12.388895"><ele>680.0</ele><time>2026-05-02T06:14:27.787Z</time></trkpt><trkpt lat="43.7858667" lon="12.389015"><ele>680.0</ele><time>2026-05-02T06:14:28.787Z</time></trkpt><trkpt lat="43.785875" lon="12.3891467"><ele>678.6</ele><time>2026-05-02T06:14:29.789Z</time></trkpt><trkpt lat="43.7858667" lon="12.38928"><ele>677.2</ele><time>2026-05-02T06:14:30.786Z</time></trkpt><trkpt lat="43.7858467" lon="12.3894183"><ele>675.8</ele><time>2026-05-02T06:14:31.789Z</time></trkpt><trkpt lat="43.7858083" lon="12.389565"><ele>674.4</ele><time>2026-05-02T06:14:32.786Z</time></trkpt><trkpt lat="43.7857617" lon="12.3897117"><ele>673.0</ele><time>2026-05-02T06:14:33.788Z</time></trkpt><trkpt lat="43.7857067" lon="12.38985"><ele>672.0</ele><time>2026-05-02T06:14:34.787Z</time></trkpt><trkpt lat="43.78564" lon="12.3899767"><ele>671.0</ele><time>2026-05-02T06:14:35.787Z</time></trkpt><trkpt lat="43.7855683" lon="12.3901017"><ele>670.0</ele><time>2026-05-02T06:14:36.787Z</time></trkpt><trkpt lat="43.785495" lon="12.390225"><ele>669.0</ele><time>2026-05-02T06:14:37.787Z</time></trkpt><trkpt lat="43.78542" lon="12.390345"><ele>669.0</ele><time>2026-05-02T06:14:38.79Z</time></trkpt><trkpt lat="43.7853417" lon="12.3904617"><ele>669.0</ele><time>2026-05-02T06:14:39.79Z</time></trkpt><trkpt lat="43.7852667" lon="12.3905733"><ele>669.0</ele><time>2026-05-02T06:14:40.787Z</time></trkpt><trkpt lat="43.7851983" lon="12.3906833"><ele>669.0</ele><time>2026-05-02T06:14:41.788Z</time></trkpt><trkpt lat="43.78513" lon="12.39079"><ele>669.0</ele><time>2026-05-02T06:14:42.786Z</time></trkpt><trkpt lat="43.78505" lon="12.3908817"><ele>667.5</ele><time>2026-05-02T06:14:43.791Z</time></trkpt><trkpt lat="43.7849533" lon="12.3909533"><ele>666.0</ele><time>2026-05-02T06:14:44.79Z</time></trkpt><trkpt lat="43.7848517" lon="12.3910217"><ele>664.5</ele><time>2026-05-02T06:14:45.79Z</time></trkpt><trkpt lat="43.784745" lon="12.391085"><ele>663.0</ele><time>2026-05-02T06:14:46.787Z</time></trkpt><trkpt lat="43.7846317" lon="12.391145"><ele>663.0</ele><time>2026-05-02T06:14:47.787Z</time></trkpt><trkpt lat="43.7845067" lon="12.3912033"><ele>663.0</ele><time>2026-05-02T06:14:48.786Z</time></trkpt><trkpt lat="43.7843817" lon="12.3912583"><ele>663.0</ele><time>2026-05-02T06:14:49.787Z</time></trkpt><trkpt lat="43.78426" lon="12.3913117"><ele>663.0</ele><time>2026-05-02T06:14:50.79Z</time></trkpt><trkpt lat="43.78414" lon="12.3913733"><ele>658.75</ele><time>2026-05-02T06:14:51.787Z</time></trkpt><trkpt lat="43.7840183" lon="12.39144"><ele>654.5</ele><time>2026-05-02T06:14:52.787Z</time></trkpt><trkpt lat="43.783895" lon="12.3915"><ele>650.25</ele><time>2026-05-02T06:14:53.791Z</time></trkpt><trkpt lat="43.7837667" lon="12.3915567"><ele>646.0</ele><time>2026-05-02T06:14:54.788Z</time></trkpt><trkpt lat="43.7836317" lon="12.3916317"><ele>645.25</ele><time>2026-05-02T06:14:55.787Z</time></trkpt><trkpt lat="43.7835017" lon="12.3917167"><ele>644.5</ele><time>2026-05-02T06:14:56.788Z</time></trkpt><trkpt lat="43.7833767" lon="12.39181"><ele>643.75</ele><time>2026-05-02T06:14:57.787Z</time></trkpt><trkpt lat="43.783255" lon="12.3919133"><ele>643.0</ele><time>2026-05-02T06:14:58.789Z</time></trkpt><trkpt lat="43.7831367" lon="12.3920083"><ele>643.0</ele><time>2026-05-02T06:14:59.787Z</time></trkpt><trkpt lat="43.7830283" lon="12.392095"><ele>643.0</ele><time>2026-05-02T06:15:00.787Z</time></trkpt><trkpt lat="43.782935" lon="12.3921717"><ele>643.0</ele><time>2026-05-02T06:15:01.788Z</time></trkpt><trkpt lat="43.782845" lon="12.3922433"><ele>643.0</ele><time>2026-05-02T06:15:02.788Z</time></trkpt><trkpt lat="43.7827467" lon="12.3923167"><ele>643.0</ele><time>2026-05-02T06:15:03.787Z</time></trkpt><trkpt lat="43.7826467" lon="12.392395"><ele>645.75</ele><time>2026-05-02T06:15:04.787Z</time></trkpt><trkpt lat="43.7825417" lon="12.392485"><ele>648.5</ele><time>2026-05-02T06:15:05.788Z</time></trkpt><trkpt lat="43.7824317" lon="12.3925883"><ele>651.25</ele><time>2026-05-02T06:15:06.787Z</time></trkpt><trkpt lat="43.7823233" lon="12.3926967"><ele>654.0</ele><time>2026-05-02T06:15:07.787Z</time></trkpt><trkpt lat="43.7822167" lon="12.3928033"><ele>654.0</ele><time>2026-05-02T06:15:08.788Z</time></trkpt><trkpt lat="43.78211" lon="12.39291"><ele>654.0</ele><time>2026-05-02T06:15:09.791Z</time></trkpt><trkpt lat="43.7820067" lon="12.3930133"><ele>654.0</ele><time>2026-05-02T06:15:10.787Z</time></trkpt><trkpt lat="43.7819067" lon="12.3931167"><ele>654.0</ele><time>2026-05-02T06:15:11.789Z</time></trkpt><trkpt lat="43.7818033" lon="12.39322"><ele>657.5</ele><time>2026-05-02T06:15:12.789Z</time></trkpt><trkpt lat="43.781695" lon="12.3933167"><ele>661.0</ele><time>2026-05-02T06:15:13.79Z</time></trkpt><trkpt lat="43.7815833" lon="12.3934167"><ele>664.5</ele><time>2026-05-02T06:15:14.79Z</time></trkpt><trkpt lat="43.781475" lon="12.3935133"><ele>668.0</ele><time>2026-05-02T06:15:15.79Z</time></trkpt><trkpt lat="43.7813833" lon="12.3936033"><ele>668.0</ele><time>2026-05-02T06:15:16.79Z</time></trkpt><trkpt lat="43.78131" lon="12.3936933"><ele>668.0</ele><time>2026-05-02T06:15:17.787Z</time></trkpt><trkpt lat="43.7812533" lon="12.3937933"><ele>668.0</ele><time>2026-05-02T06:15:18.79Z</time></trkpt><trkpt lat="43.78121" lon="12.3939117"><ele>668.0</ele><time>2026-05-02T06:15:19.792Z</time></trkpt><trkpt lat="43.7811767" lon="12.3940467"><ele>668.0</ele><time>2026-05-02T06:15:20.792Z</time></trkpt><trkpt lat="43.7811417" lon="12.3941817"><ele>669.0</ele><time>2026-05-02T06:15:21.791Z</time></trkpt><trkpt lat="43.7811033" lon="12.3943133"><ele>670.0</ele><time>2026-05-02T06:15:22.79Z</time></trkpt><trkpt lat="43.7810583" lon="12.3944383"><ele>671.0</ele><time>2026-05-02T06:15:23.79Z</time></trkpt><trkpt lat="43.7810033" lon="12.3945517"><ele>672.0</ele><time>2026-05-02T06:15:24.79Z</time></trkpt><trkpt lat="43.7809417" lon="12.3946567"><ele>673.0</ele><time>2026-05-02T06:15:25.79Z</time></trkpt><trkpt lat="43.780875" lon="12.394745"><ele>675.1666666666667</ele><time>2026-05-02T06:15:26.788Z</time></trkpt><trkpt lat="43.780815" lon="12.3948217"><ele>677.3333333333334</ele><time>2026-05-02T06:15:27.788Z</time></trkpt><trkpt lat="43.7807633" lon="12.3948967"><ele>679.5</ele><time>2026-05-02T06:15:28.789Z</time></trkpt><trkpt lat="43.78073" lon="12.39499"><ele>681.6666666666666</ele><time>2026-05-02T06:15:29.787Z</time></trkpt><trkpt lat="43.7807217" lon="12.3950983"><ele>683.8333333333333</ele><time>2026-05-02T06:15:30.787Z</time></trkpt><trkpt lat="43.7807283" lon="12.3952167"><ele>686.0</ele><time>2026-05-02T06:15:31.787Z</time></trkpt><trkpt lat="43.78073" lon="12.3953333"><ele>686.0</ele><time>2026-05-02T06:15:32.787Z</time></trkpt><trkpt lat="43.7807217" lon="12.395455"><ele>686.0</ele><time>2026-05-02T06:15:33.787Z</time></trkpt><trkpt lat="43.7807033" lon="12.39558"><ele>686.0</ele><time>2026-05-02T06:15:34.791Z</time></trkpt><trkpt lat="43.7806717" lon="12.3957"><ele>686.0</ele><time>2026-05-02T06:15:35.79Z</time></trkpt><trkpt lat="43.7806217" lon="12.3958067"><ele>686.0</ele><time>2026-05-02T06:15:36.787Z</time></trkpt><trkpt lat="43.7805567" lon="12.3959117"><ele>687.6666666666666</ele><time>2026-05-02T06:15:37.79Z</time></trkpt><trkpt lat="43.7804817" lon="12.3959917"><ele>689.3333333333333</ele><time>2026-05-02T06:15:38.79Z</time></trkpt><trkpt lat="43.7804133" lon="12.3960633"><ele>691.0</ele><time>2026-05-02T06:15:39.79Z</time></trkpt><trkpt lat="43.780345" lon="12.3961367"><ele>692.6666666666666</ele><time>2026-05-02T06:15:40.791Z</time></trkpt><trkpt lat="43.78028" lon="12.396215"><ele>694.3333333333334</ele><time>2026-05-02T06:15:41.791Z</time></trkpt><trkpt lat="43.7802133" lon="12.3962967"><ele>696.0</ele><time>2026-05-02T06:15:42.791Z</time></trkpt><trkpt lat="43.780145" lon="12.3963783"><ele>696.0</ele><time>2026-05-02T06:15:43.79Z</time></trkpt><trkpt lat="43.7800783" lon="12.3964633"><ele>696.0</ele><time>2026-05-02T06:15:44.79Z</time></trkpt><trkpt lat="43.7800183" lon="12.39655"><ele>696.0</ele><time>2026-05-02T06:15:45.786Z</time></trkpt><trkpt lat="43.77997" lon="12.396635"><ele>696.0</ele><time>2026-05-02T06:15:46.788Z</time></trkpt><trkpt lat="43.7799267" lon="12.396725"><ele>696.0</ele><time>2026-05-02T06:15:47.788Z</time></trkpt><trkpt lat="43.7799" lon="12.3968267"><ele>696.0</ele><time>2026-05-02T06:15:48.787Z</time></trkpt><trkpt lat="43.7798933" lon="12.3969283"><ele>696.0</ele><time>2026-05-02T06:15:49.79Z</time></trkpt><trkpt lat="43.7799" lon="12.3970483"><ele>696.0</ele><time>2026-05-02T06:15:50.788Z</time></trkpt><trkpt lat="43.7799033" lon="12.3971667"><ele>696.0</ele><time>2026-05-02T06:15:51.791Z</time></trkpt><trkpt lat="43.779905" lon="12.397295"><ele>696.0</ele><time>2026-05-02T06:15:52.787Z</time></trkpt><trkpt lat="43.779905" lon="12.39742"><ele>696.0</ele><time>2026-05-02T06:15:53.786Z</time></trkpt><trkpt lat="43.7798633" lon="12.3975267"><ele>696.0</ele><time>2026-05-02T06:15:54.786Z</time></trkpt><trkpt lat="43.7798117" lon="12.39763"><ele>695.8</ele><time>2026-05-02T06:15:55.786Z</time></trkpt><trkpt lat="43.7797583" lon="12.397735"><ele>695.5999999999999</ele><time>2026-05-02T06:15:56.787Z</time></trkpt><trkpt lat="43.779685" lon="12.397815"><ele>695.4</ele><time>2026-05-02T06:15:57.788Z</time></trkpt><trkpt lat="43.7796033" lon="12.3978917"><ele>695.2</ele><time>2026-05-02T06:15:58.787Z</time></trkpt><trkpt lat="43.7795183" lon="12.39798"><ele>695.0</ele><time>2026-05-02T06:15:59.788Z</time></trkpt><trkpt lat="43.7794417" lon="12.3980883"><ele>692.6</ele><time>2026-05-02T06:16:00.788Z</time></trkpt><trkpt lat="43.7793733" lon="12.3982133"><ele>690.2</ele><time>2026-05-02T06:16:01.787Z</time></trkpt><trkpt lat="43.77931" lon="12.398345"><ele>687.8</ele><time>2026-05-02T06:16:02.788Z</time></trkpt><trkpt lat="43.7792517" lon="12.3984783"><ele>685.4</ele><time>2026-05-02T06:16:03.788Z</time></trkpt><trkpt lat="43.779195" lon="12.3986067"><ele>683.0</ele><time>2026-05-02T06:16:04.79Z</time></trkpt><trkpt lat="43.7791367" lon="12.3987383"><ele>685.8</ele><time>2026-05-02T06:16:05.787Z</time></trkpt><trkpt lat="43.7790733" lon="12.3988583"><ele>688.5999999999999</ele><time>2026-05-02T06:16:06.787Z</time></trkpt><trkpt lat="43.7790067" lon="12.3989717"><ele>691.4000000000001</ele><time>2026-05-02T06:16:07.788Z</time></trkpt><trkpt lat="43.7789317" lon="12.39908"><ele>694.2</ele><time>2026-05-02T06:16:08.787Z</time></trkpt><trkpt lat="43.7788667" lon="12.399195"><ele>697.0</ele><time>2026-05-02T06:16:09.788Z</time></trkpt><trkpt lat="43.7788167" lon="12.3993167"><ele>697.0</ele><time>2026-05-02T06:16:10.787Z</time></trkpt><trkpt lat="43.7787733" lon="12.39944"><ele>697.0</ele><time>2026-05-02T06:16:11.787Z</time></trkpt><trkpt lat="43.7787283" lon="12.3995667"><ele>697.0</ele><time>2026-05-02T06:16:12.788Z</time></trkpt><trkpt lat="43.7786733" lon="12.3996883"><ele>697.0</ele><time>2026-05-02T06:16:13.788Z</time></trkpt><trkpt lat="43.7786083" lon="12.3998033"><ele>697.0</ele><time>2026-05-02T06:16:14.787Z</time></trkpt><trkpt lat="43.7785367" lon="12.3999183"><ele>701.25</ele><time>2026-05-02T06:16:15.787Z</time></trkpt><trkpt lat="43.778455" lon="12.4000283"><ele>705.5</ele><time>2026-05-02T06:16:16.787Z</time></trkpt><trkpt lat="43.77837" lon="12.4001383"><ele>709.75</ele><time>2026-05-02T06:16:17.79Z</time></trkpt><trkpt lat="43.7782833" lon="12.4002417"><ele>714.0</ele><time>2026-05-02T06:16:18.786Z</time></trkpt><trkpt lat="43.7782" lon="12.400345"><ele>714.0</ele><time>2026-05-02T06:16:19.787Z</time></trkpt><trkpt lat="43.7781217" lon="12.4004583"><ele>714.0</ele><time>2026-05-02T06:16:20.787Z</time></trkpt><trkpt lat="43.778055" lon="12.4005817"><ele>714.0</ele><time>2026-05-02T06:16:21.79Z</time></trkpt><trkpt lat="43.7779917" lon="12.4007067"><ele>714.0</ele><time>2026-05-02T06:16:22.79Z</time></trkpt><trkpt lat="43.77793" lon="12.400835"><ele>714.0</ele><time>2026-05-02T06:16:23.787Z</time></trkpt><trkpt lat="43.7778683" lon="12.400965"><ele>715.6</ele><time>2026-05-02T06:16:24.79Z</time></trkpt><trkpt lat="43.7778083" lon="12.4011"><ele>717.2</ele><time>2026-05-02T06:16:25.789Z</time></trkpt><trkpt lat="43.7777517" lon="12.4012417"><ele>718.8000000000001</ele><time>2026-05-02T06:16:26.79Z</time></trkpt><trkpt lat="43.7776917" lon="12.401375"><ele>720.4000000000001</ele><time>2026-05-02T06:16:27.786Z</time></trkpt><trkpt lat="43.7776317" lon="12.4014933"><ele>722.0</ele><time>2026-05-02T06:16:28.79Z</time></trkpt><trkpt lat="43.7775667" lon="12.4016017"><ele>723.6666666666666</ele><time>2026-05-02T06:16:29.79Z</time></trkpt><trkpt lat="43.7774933" lon="12.4017"><ele>725.3333333333333</ele><time>2026-05-02T06:16:30.786Z</time></trkpt><trkpt lat="43.77741" lon="12.401765"><ele>727.0</ele><time>2026-05-02T06:16:31.785Z</time></trkpt><trkpt lat="43.7773283" lon="12.4018217"><ele>728.6666666666666</ele><time>2026-05-02T06:16:32.79Z</time></trkpt><trkpt lat="43.7772517" lon="12.401845"><ele>730.3333333333334</ele><time>2026-05-02T06:16:33.79Z</time></trkpt><trkpt lat="43.777175" lon="12.4018383"><ele>732.0</ele><time>2026-05-02T06:16:34.789Z</time></trkpt><trkpt lat="43.7771117" lon="12.4018033"><ele>732.0</ele><time>2026-05-02T06:16:35.789Z</time></trkpt><trkpt lat="43.7770483" lon="12.4017817"><ele>732.0</ele><time>2026-05-02T06:16:36.789Z</time></trkpt><trkpt lat="43.776925" lon="12.4017717"><ele>732.0</ele><time>2026-05-02T06:16:38.786Z</time></trkpt><trkpt lat="43.7768617" lon="12.4017967"><ele>732.0</ele><time>2026-05-02T06:16:39.789Z</time></trkpt><trkpt lat="43.776795" lon="12.4018383"><ele>732.0</ele><time>2026-05-02T06:16:40.789Z</time></trkpt><trkpt lat="43.7767283" lon="12.4018933"><ele>732.0</ele><time>2026-05-02T06:16:41.789Z</time></trkpt><trkpt lat="43.776665" lon="12.4019683"><ele>731.2</ele><time>2026-05-02T06:16:42.789Z</time></trkpt><trkpt lat="43.77661" lon="12.4020567"><ele>730.4000000000001</ele><time>2026-05-02T06:16:43.789Z</time></trkpt><trkpt lat="43.7765567" lon="12.4021633"><ele>729.5999999999999</ele><time>2026-05-02T06:16:44.789Z</time></trkpt><trkpt lat="43.7765067" lon="12.40228"><ele>728.8</ele><time>2026-05-02T06:16:45.789Z</time></trkpt><trkpt lat="43.77646" lon="12.402395"><ele>728.0</ele><time>2026-05-02T06:16:46.789Z</time></trkpt><trkpt lat="43.7764083" lon="12.4025133"><ele>728.0</ele><time>2026-05-02T06:16:47.79Z</time></trkpt><trkpt lat="43.7763517" lon="12.4026283"><ele>728.0</ele><time>2026-05-02T06:16:48.79Z</time></trkpt><trkpt lat="43.7762967" lon="12.40274"><ele>728.0</ele><time>2026-05-02T06:16:49.789Z</time></trkpt><trkpt lat="43.776245" lon="12.4028483"><ele>728.0</ele><time>2026-05-02T06:16:50.789Z</time></trkpt><trkpt lat="43.7761933" lon="12.4029567"><ele>728.0</ele><time>2026-05-02T06:16:51.785Z</time></trkpt><trkpt lat="43.776145" lon="12.4030567"><ele>726.8333333333333</ele><time>2026-05-02T06:16:52.786Z</time></trkpt><trkpt lat="43.7761017" lon="12.4031517"><ele>725.6666666666666</ele><time>2026-05-02T06:16:53.787Z</time></trkpt><trkpt lat="43.7760583" lon="12.4032483"><ele>724.5</ele><time>2026-05-02T06:16:54.79Z</time></trkpt><trkpt lat="43.7760217" lon="12.403345"><ele>723.3333333333334</ele><time>2026-05-02T06:16:55.789Z</time></trkpt><trkpt lat="43.77599" lon="12.4034433"><ele>722.1666666666667</ele><time>2026-05-02T06:16:56.789Z</time></trkpt><trkpt lat="43.7759633" lon="12.4035317"><ele>721.0</ele><time>2026-05-02T06:16:57.789Z</time></trkpt><trkpt lat="43.7759333" lon="12.40367"><ele>717.6666666666667</ele><time>2026-05-02T06:16:59.789Z</time></trkpt><trkpt lat="43.7759367" lon="12.4037583"><ele>714.3333333333334</ele><time>2026-05-02T06:17:02.789Z</time></trkpt><trkpt lat="43.7759633" lon="12.4038567"><ele>711.0</ele><time>2026-05-02T06:17:19.789Z</time></trkpt><trkpt lat="43.776025" lon="12.4039783"><ele>707.6666666666666</ele><time>2026-05-02T06:17:21.789Z</time></trkpt><trkpt lat="43.7760767" lon="12.4040433"><ele>704.3333333333333</ele><time>2026-05-02T06:17:22.786Z</time></trkpt><trkpt lat="43.7761367" lon="12.4041117"><ele>701.0</ele><time>2026-05-02T06:17:23.789Z</time></trkpt><trkpt lat="43.7762033" lon="12.404175"><ele>700.4</ele><time>2026-05-02T06:17:24.786Z</time></trkpt><trkpt lat="43.77626" lon="12.4042267"><ele>699.8</ele><time>2026-05-02T06:17:25.789Z</time></trkpt><trkpt lat="43.776325" lon="12.4043517"><ele>699.1999999999999</ele><time>2026-05-02T06:17:27.789Z</time></trkpt><trkpt lat="43.7763233" lon="12.4045083"><ele>698.5999999999999</ele><time>2026-05-02T06:17:29.79Z</time></trkpt><trkpt lat="43.7763" lon="12.404605"><ele>698.0</ele><time>2026-05-02T06:17:30.789Z</time></trkpt><trkpt lat="43.7762633" lon="12.4047133"><ele>696.4</ele><time>2026-05-02T06:17:31.79Z</time></trkpt><trkpt lat="43.7762167" lon="12.404835"><ele>694.8</ele><time>2026-05-02T06:17:32.789Z</time></trkpt><trkpt lat="43.7761667" lon="12.4049533"><ele>693.2</ele><time>2026-05-02T06:17:33.785Z</time></trkpt><trkpt lat="43.776115" lon="12.4050733"><ele>691.6</ele><time>2026-05-02T06:17:34.785Z</time></trkpt><trkpt lat="43.77606" lon="12.4051983"><ele>690.0</ele><time>2026-05-02T06:17:35.786Z</time></trkpt><trkpt lat="43.7760017" lon="12.405315"><ele>690.0</ele><time>2026-05-02T06:17:36.785Z</time></trkpt><trkpt lat="43.775935" lon="12.4054267"><ele>690.0</ele><time>2026-05-02T06:17:37.787Z</time></trkpt><trkpt lat="43.7758683" lon="12.4055433"><ele>690.0</ele><time>2026-05-02T06:17:38.787Z</time></trkpt><trkpt lat="43.7757983" lon="12.405655"><ele>690.0</ele><time>2026-05-02T06:17:39.787Z</time></trkpt><trkpt lat="43.7757217" lon="12.4057567"><ele>690.0</ele><time>2026-05-02T06:17:40.787Z</time></trkpt><trkpt lat="43.7756433" lon="12.4058467"><ele>687.0</ele><time>2026-05-02T06:17:41.79Z</time></trkpt><trkpt lat="43.7755617" lon="12.405935"><ele>684.0</ele><time>2026-05-02T06:17:42.786Z</time></trkpt><trkpt lat="43.77548" lon="12.40602"><ele>681.0</ele><time>2026-05-02T06:17:43.786Z</time></trkpt><trkpt lat="43.775395" lon="12.4061133"><ele>678.0</ele><time>2026-05-02T06:17:44.789Z</time></trkpt><trkpt lat="43.7753033" lon="12.4062167"><ele>675.0</ele><time>2026-05-02T06:17:45.789Z</time></trkpt><trkpt lat="43.77521" lon="12.4063217"><ele>676.5</ele><time>2026-05-02T06:17:46.787Z</time></trkpt><trkpt lat="43.77512" lon="12.40644"><ele>678.0</ele><time>2026-05-02T06:17:47.786Z</time></trkpt><trkpt lat="43.775035" lon="12.4065617"><ele>679.5</ele><time>2026-05-02T06:17:48.786Z</time></trkpt><trkpt lat="43.7749617" lon="12.4066833"><ele>681.0</ele><time>2026-05-02T06:17:49.786Z</time></trkpt><trkpt lat="43.7748933" lon="12.4067833"><ele>681.0</ele><time>2026-05-02T06:17:50.789Z</time></trkpt><trkpt lat="43.7748267" lon="12.4068717"><ele>681.0</ele><time>2026-05-02T06:17:51.785Z</time></trkpt><trkpt lat="43.774765" lon="12.4069433"><ele>681.0</ele><time>2026-05-02T06:17:52.789Z</time></trkpt><trkpt lat="43.7747" lon="12.4069983"><ele>681.0</ele><time>2026-05-02T06:17:53.789Z</time></trkpt><trkpt lat="43.77463" lon="12.40703"><ele>681.0</ele><time>2026-05-02T06:17:54.789Z</time></trkpt><trkpt lat="43.77455" lon="12.4070317"><ele>681.0</ele><time>2026-05-02T06:17:55.789Z</time></trkpt><trkpt lat="43.77446" lon="12.407015"><ele>681.0</ele><time>2026-05-02T06:17:56.789Z</time></trkpt><trkpt lat="43.7743567" lon="12.4069783"><ele>681.0</ele><time>2026-05-02T06:17:57.79Z</time></trkpt><trkpt lat="43.7742483" lon="12.4069467"><ele>681.0</ele><time>2026-05-02T06:17:58.79Z</time></trkpt><trkpt lat="43.7741367" lon="12.4069267"><ele>681.0</ele><time>2026-05-02T06:17:59.79Z</time></trkpt><trkpt lat="43.7740267" lon="12.4069267"><ele>681.0</ele><time>2026-05-02T06:18:00.789Z</time></trkpt><trkpt lat="43.7739117" lon="12.4069333"><ele>682.8</ele><time>2026-05-02T06:18:01.789Z</time></trkpt><trkpt lat="43.773795" lon="12.40694"><ele>684.5999999999999</ele><time>2026-05-02T06:18:02.787Z</time></trkpt><trkpt lat="43.7736917" lon="12.40693"><ele>686.4</ele><time>2026-05-02T06:18:03.786Z</time></trkpt><trkpt lat="43.7735833" lon="12.4069117"><ele>688.2</ele><time>2026-05-02T06:18:04.787Z</time></trkpt><trkpt lat="43.7734817" lon="12.40687"><ele>690.0</ele><time>2026-05-02T06:18:05.787Z</time></trkpt><trkpt lat="43.77338" lon="12.4068017"><ele>690.0</ele><time>2026-05-02T06:18:06.786Z</time></trkpt><trkpt lat="43.7732817" lon="12.40672"><ele>690.0</ele><time>2026-05-02T06:18:07.788Z</time></trkpt><trkpt lat="43.7731783" lon="12.4066317"><ele>690.0</ele><time>2026-05-02T06:18:08.787Z</time></trkpt><trkpt lat="43.7730783" lon="12.40655"><ele>690.0</ele><time>2026-05-02T06:18:09.788Z</time></trkpt><trkpt lat="43.77298" lon="12.4064717"><ele>690.0</ele><time>2026-05-02T06:18:10.785Z</time></trkpt><trkpt lat="43.7728933" lon="12.4063933"><ele>690.0</ele><time>2026-05-02T06:18:11.788Z</time></trkpt><trkpt lat="43.7728183" lon="12.406315"><ele>690.0</ele><time>2026-05-02T06:18:12.787Z</time></trkpt><trkpt lat="43.77275" lon="12.4062467"><ele>690.0</ele><time>2026-05-02T06:18:13.786Z</time></trkpt><trkpt lat="43.7726817" lon="12.406195"><ele>690.0</ele><time>2026-05-02T06:18:14.787Z</time></trkpt><trkpt lat="43.77262" lon="12.4061583"><ele>690.0</ele><time>2026-05-02T06:18:15.786Z</time></trkpt><trkpt lat="43.7725567" lon="12.406145"><ele>688.2</ele><time>2026-05-02T06:18:16.787Z</time></trkpt><trkpt lat="43.7724817" lon="12.406155"><ele>686.4</ele><time>2026-05-02T06:18:17.79Z</time></trkpt><trkpt lat="43.7724133" lon="12.4061867"><ele>684.5999999999999</ele><time>2026-05-02T06:18:18.786Z</time></trkpt><trkpt lat="43.7723517" lon="12.4062867"><ele>682.8</ele><time>2026-05-02T06:18:19.787Z</time></trkpt><trkpt lat="43.7723017" lon="12.40646"><ele>681.0</ele><time>2026-05-02T06:18:20.79Z</time></trkpt><trkpt lat="43.7722533" lon="12.4066067"><ele>681.0</ele><time>2026-05-02T06:18:21.791Z</time></trkpt><trkpt lat="43.772205" lon="12.4067667"><ele>681.0</ele><time>2026-05-02T06:18:22.789Z</time></trkpt><trkpt lat="43.77215" lon="12.40692"><ele>681.0</ele><time>2026-05-02T06:18:23.79Z</time></trkpt><trkpt lat="43.77209" lon="12.40706"><ele>681.0</ele><time>2026-05-02T06:18:24.786Z</time></trkpt><trkpt lat="43.7720283" lon="12.4071967"><ele>682.0</ele><time>2026-05-02T06:18:25.787Z</time></trkpt><trkpt lat="43.7719667" lon="12.4073317"><ele>683.0</ele><time>2026-05-02T06:18:26.789Z</time></trkpt><trkpt lat="43.771905" lon="12.4074717"><ele>684.0</ele><time>2026-05-02T06:18:27.786Z</time></trkpt><trkpt lat="43.7718417" lon="12.407615"><ele>685.0</ele><time>2026-05-02T06:18:28.787Z</time></trkpt><trkpt lat="43.7717733" lon="12.407755"><ele>685.0</ele><time>2026-05-02T06:18:29.79Z</time></trkpt><trkpt lat="43.7717017" lon="12.4078933"><ele>685.0</ele><time>2026-05-02T06:18:30.786Z</time></trkpt><trkpt lat="43.771625" lon="12.4080267"><ele>685.0</ele><time>2026-05-02T06:18:31.792Z</time></trkpt><trkpt lat="43.7715517" lon="12.4081583"><ele>685.0</ele><time>2026-05-02T06:18:32.786Z</time></trkpt><trkpt lat="43.7714783" lon="12.4082917"><ele>684.5</ele><time>2026-05-02T06:18:33.787Z</time></trkpt><trkpt lat="43.7714083" lon="12.40843"><ele>684.0</ele><time>2026-05-02T06:18:34.788Z</time></trkpt><trkpt lat="43.7713583" lon="12.4085683"><ele>683.5</ele><time>2026-05-02T06:18:35.79Z</time></trkpt><trkpt lat="43.7713117" lon="12.408705"><ele>683.0</ele><time>2026-05-02T06:18:36.787Z</time></trkpt><trkpt lat="43.7712617" lon="12.4088417"><ele>681.25</ele><time>2026-05-02T06:18:37.787Z</time></trkpt><trkpt lat="43.77122" lon="12.4089833"><ele>679.5</ele><time>2026-05-02T06:18:38.787Z</time></trkpt><trkpt lat="43.7711817" lon="12.409135"><ele>677.75</ele><time>2026-05-02T06:18:39.787Z</time></trkpt><trkpt lat="43.77114" lon="12.4092833"><ele>676.0</ele><time>2026-05-02T06:18:40.79Z</time></trkpt><trkpt lat="43.771085" lon="12.40942"><ele>676.5</ele><time>2026-05-02T06:18:41.788Z</time></trkpt><trkpt lat="43.77102" lon="12.4095517"><ele>677.0</ele><time>2026-05-02T06:18:42.791Z</time></trkpt><trkpt lat="43.7709467" lon="12.4096733"><ele>677.5</ele><time>2026-05-02T06:18:43.788Z</time></trkpt><trkpt lat="43.770865" lon="12.409775"><ele>678.0</ele><time>2026-05-02T06:18:44.79Z</time></trkpt><trkpt lat="43.7707733" lon="12.4098617"><ele>681.5</ele><time>2026-05-02T06:18:45.787Z</time></trkpt><trkpt lat="43.7706733" lon="12.4099483"><ele>685.0</ele><time>2026-05-02T06:18:46.79Z</time></trkpt><trkpt lat="43.77057" lon="12.41003"><ele>688.5</ele><time>2026-05-02T06:18:47.789Z</time></trkpt><trkpt lat="43.7704667" lon="12.41011"><ele>692.0</ele><time>2026-05-02T06:18:48.786Z</time></trkpt><trkpt lat="43.7703567" lon="12.4101967"><ele>692.0</ele><time>2026-05-02T06:18:49.786Z</time></trkpt><trkpt lat="43.7702483" lon="12.4102967"><ele>692.0</ele><time>2026-05-02T06:18:50.791Z</time></trkpt><trkpt lat="43.77014" lon="12.4104017"><ele>692.0</ele><time>2026-05-02T06:18:51.786Z</time></trkpt><trkpt lat="43.7700267" lon="12.4105133"><ele>692.0</ele><time>2026-05-02T06:18:52.788Z</time></trkpt><trkpt lat="43.7699183" lon="12.41062"><ele>696.25</ele><time>2026-05-02T06:18:53.787Z</time></trkpt><trkpt lat="43.7698083" lon="12.4107233"><ele>700.5</ele><time>2026-05-02T06:18:54.787Z</time></trkpt><trkpt lat="43.7696983" lon="12.4108283"><ele>704.75</ele><time>2026-05-02T06:18:55.787Z</time></trkpt><trkpt lat="43.76959" lon="12.4109333"><ele>709.0</ele><time>2026-05-02T06:18:56.787Z</time></trkpt><trkpt lat="43.769485" lon="12.41103"><ele>709.0</ele><time>2026-05-02T06:18:57.787Z</time></trkpt><trkpt lat="43.7693933" lon="12.4111133"><ele>709.0</ele><time>2026-05-02T06:18:58.787Z</time></trkpt><trkpt lat="43.76931" lon="12.4111883"><ele>709.0</ele><time>2026-05-02T06:18:59.788Z</time></trkpt><trkpt lat="43.76924" lon="12.41127"><ele>709.0</ele><time>2026-05-02T06:19:00.789Z</time></trkpt><trkpt lat="43.76918" lon="12.41135"><ele>709.0</ele><time>2026-05-02T06:19:01.789Z</time></trkpt><trkpt lat="43.76913" lon="12.4114433"><ele>709.0</ele><time>2026-05-02T06:19:02.787Z</time></trkpt><trkpt lat="43.76909" lon="12.4115583"><ele>709.0</ele><time>2026-05-02T06:19:03.787Z</time></trkpt><trkpt lat="43.769055" lon="12.4116883"><ele>709.0</ele><time>2026-05-02T06:19:04.789Z</time></trkpt><trkpt lat="43.769025" lon="12.4118267"><ele>709.0</ele><time>2026-05-02T06:19:05.787Z</time></trkpt><trkpt lat="43.7689967" lon="12.411965"><ele>709.0</ele><time>2026-05-02T06:19:06.787Z</time></trkpt><trkpt lat="43.7689617" lon="12.4121"><ele>710.4000000000001</ele><time>2026-05-02T06:19:07.789Z</time></trkpt><trkpt lat="43.7689133" lon="12.412225"><ele>711.8</ele><time>2026-05-02T06:19:08.786Z</time></trkpt><trkpt lat="43.7688617" lon="12.412345"><ele>713.2</ele><time>2026-05-02T06:19:09.787Z</time></trkpt><trkpt lat="43.768805" lon="12.41246"><ele>714.5999999999999</ele><time>2026-05-02T06:19:10.789Z</time></trkpt><trkpt lat="43.7687417" lon="12.41258"><ele>716.0</ele><time>2026-05-02T06:19:11.789Z</time></trkpt><trkpt lat="43.768665" lon="12.412705"><ele>716.0</ele><time>2026-05-02T06:19:12.79Z</time></trkpt><trkpt lat="43.7685817" lon="12.412825"><ele>716.0</ele><time>2026-05-02T06:19:13.787Z</time></trkpt><trkpt lat="43.7684967" lon="12.41294"><ele>716.0</ele><time>2026-05-02T06:19:14.789Z</time></trkpt><trkpt lat="43.7684167" lon="12.4130567"><ele>716.0</ele><time>2026-05-02T06:19:15.787Z</time></trkpt><trkpt lat="43.7683417" lon="12.413175"><ele>712.8</ele><time>2026-05-02T06:19:16.789Z</time></trkpt><trkpt lat="43.768275" lon="12.4132967"><ele>709.5999999999999</ele><time>2026-05-02T06:19:17.789Z</time></trkpt><trkpt lat="43.7682167" lon="12.4134233"><ele>706.4</ele><time>2026-05-02T06:19:18.789Z</time></trkpt><trkpt lat="43.7681633" lon="12.4135517"><ele>703.2</ele><time>2026-05-02T06:19:19.789Z</time></trkpt><trkpt lat="43.7681083" lon="12.4136733"><ele>700.0</ele><time>2026-05-02T06:19:20.79Z</time></trkpt><trkpt lat="43.7680433" lon="12.4137717"><ele>702.6</ele><time>2026-05-02T06:19:21.789Z</time></trkpt><trkpt lat="43.7679633" lon="12.41386"><ele>705.2</ele><time>2026-05-02T06:19:22.791Z</time></trkpt><trkpt lat="43.7678733" lon="12.4139317"><ele>707.8</ele><time>2026-05-02T06:19:23.789Z</time></trkpt><trkpt lat="43.767785" lon="12.41399"><ele>710.4</ele><time>2026-05-02T06:19:24.79Z</time></trkpt><trkpt lat="43.767705" lon="12.414045"><ele>713.0</ele><time>2026-05-02T06:19:25.786Z</time></trkpt><trkpt lat="43.7676417" lon="12.414105"><ele>709.6666666666666</ele><time>2026-05-02T06:19:26.79Z</time></trkpt><trkpt lat="43.7675967" lon="12.4141817"><ele>706.3333333333333</ele><time>2026-05-02T06:19:27.789Z</time></trkpt><trkpt lat="43.7675667" lon="12.4142767"><ele>703.0</ele><time>2026-05-02T06:19:28.789Z</time></trkpt><trkpt lat="43.7675383" lon="12.4143867"><ele>699.6666666666666</ele><time>2026-05-02T06:19:29.787Z</time></trkpt><trkpt lat="43.7675117" lon="12.4145117"><ele>696.3333333333334</ele><time>2026-05-02T06:19:30.79Z</time></trkpt><trkpt lat="43.7674817" lon="12.4146517"><ele>693.0</ele><time>2026-05-02T06:19:31.789Z</time></trkpt><trkpt lat="43.76744" lon="12.4147917"><ele>693.0</ele><time>2026-05-02T06:19:32.789Z</time></trkpt><trkpt lat="43.7673817" lon="12.4149217"><ele>693.0</ele><time>2026-05-02T06:19:33.789Z</time></trkpt><trkpt lat="43.7673183" lon="12.4150333"><ele>693.0</ele><time>2026-05-02T06:19:34.79Z</time></trkpt><trkpt lat="43.76725" lon="12.4151333"><ele>693.0</ele><time>2026-05-02T06:19:35.789Z</time></trkpt><trkpt lat="43.7671783" lon="12.4152267"><ele>693.0</ele><time>2026-05-02T06:19:36.789Z</time></trkpt><trkpt lat="43.7671133" lon="12.4153183"><ele>693.0</ele><time>2026-05-02T06:19:37.789Z</time></trkpt><trkpt lat="43.7670617" lon="12.4154167"><ele>693.0</ele><time>2026-05-02T06:19:38.79Z</time></trkpt><trkpt lat="43.76701" lon="12.41552"><ele>693.0</ele><time>2026-05-02T06:19:39.789Z</time></trkpt><trkpt lat="43.766955" lon="12.415625"><ele>693.0</ele><time>2026-05-02T06:19:40.789Z</time></trkpt><trkpt lat="43.7668967" lon="12.41573"><ele>693.0</ele><time>2026-05-02T06:19:41.789Z</time></trkpt><trkpt lat="43.7668267" lon="12.4158167"><ele>689.3333333333334</ele><time>2026-05-02T06:19:42.787Z</time></trkpt><trkpt lat="43.7667633" lon="12.415895"><ele>685.6666666666666</ele><time>2026-05-02T06:19:43.789Z</time></trkpt><trkpt lat="43.7667067" lon="12.415955"><ele>682.0</ele><time>2026-05-02T06:19:44.789Z</time></trkpt><trkpt lat="43.766625" lon="12.4159967"><ele>678.3333333333333</ele><time>2026-05-02T06:19:46.786Z</time></trkpt><trkpt lat="43.7665617" lon="12.4159433"><ele>674.6666666666666</ele><time>2026-05-02T06:19:49.789Z</time></trkpt><trkpt lat="43.7664967" lon="12.4159817"><ele>671.0</ele><time>2026-05-02T06:19:51.79Z</time></trkpt><trkpt lat="43.766425" lon="12.4161133"><ele>671.0</ele><time>2026-05-02T06:19:53.789Z</time></trkpt><trkpt lat="43.76639" lon="12.4162083"><ele>671.0</ele><time>2026-05-02T06:19:54.79Z</time></trkpt><trkpt lat="43.7663567" lon="12.4162983"><ele>671.0</ele><time>2026-05-02T06:19:55.789Z</time></trkpt><trkpt lat="43.7663167" lon="12.41638"><ele>671.0</ele><time>2026-05-02T06:19:56.786Z</time></trkpt><trkpt lat="43.7662767" lon="12.4164567"><ele>671.0</ele><time>2026-05-02T06:19:57.787Z</time></trkpt><trkpt lat="43.7662317" lon="12.416525"><ele>671.0</ele><time>2026-05-02T06:19:58.787Z</time></trkpt><trkpt lat="43.7661733" lon="12.4165833"><ele>671.0</ele><time>2026-05-02T06:19:59.787Z</time></trkpt><trkpt lat="43.7661083" lon="12.4166433"><ele>671.5714285714286</ele><time>2026-05-02T06:20:00.788Z</time></trkpt><trkpt lat="43.7660483" lon="12.4166917"><ele>672.1428571428572</ele><time>2026-05-02T06:20:01.787Z</time></trkpt><trkpt lat="43.7659833" lon="12.4167217"><ele>672.7142857142858</ele><time>2026-05-02T06:20:02.786Z</time></trkpt><trkpt lat="43.7659183" lon="12.4167317"><ele>673.2857142857142</ele><time>2026-05-02T06:20:03.79Z</time></trkpt><trkpt lat="43.76585" lon="12.41672"><ele>673.8571428571429</ele><time>2026-05-02T06:20:04.79Z</time></trkpt><trkpt lat="43.7657733" lon="12.4167133"><ele>674.4285714285714</ele><time>2026-05-02T06:20:05.791Z</time></trkpt><trkpt lat="43.7656883" lon="12.4167167"><ele>675.0</ele><time>2026-05-02T06:20:06.789Z</time></trkpt><trkpt lat="43.7656" lon="12.416735"><ele>671.0</ele><time>2026-05-02T06:20:07.789Z</time></trkpt><trkpt lat="43.7655217" lon="12.4167533"><ele>667.0</ele><time>2026-05-02T06:20:08.787Z</time></trkpt><trkpt lat="43.7654483" lon="12.41678"><ele>663.0</ele><time>2026-05-02T06:20:09.789Z</time></trkpt><trkpt lat="43.76538" lon="12.41682"><ele>659.0</ele><time>2026-05-02T06:20:10.789Z</time></trkpt><trkpt lat="43.76531" lon="12.4168783"><ele>655.0</ele><time>2026-05-02T06:20:11.789Z</time></trkpt><trkpt lat="43.76524" lon="12.4169483"><ele>651.0</ele><time>2026-05-02T06:20:12.789Z</time></trkpt><trkpt lat="43.765165" lon="12.4170233"><ele>651.3333333333334</ele><time>2026-05-02T06:20:13.79Z</time></trkpt><trkpt lat="43.765095" lon="12.41709"><ele>651.6666666666666</ele><time>2026-05-02T06:20:14.786Z</time></trkpt><trkpt lat="43.7650333" lon="12.417155"><ele>652.0</ele><time>2026-05-02T06:20:15.79Z</time></trkpt><trkpt lat="43.7649833" lon="12.4172283"><ele>652.3333333333333</ele><time>2026-05-02T06:20:16.789Z</time></trkpt><trkpt lat="43.7649433" lon="12.4173183"><ele>652.6666666666666</ele><time>2026-05-02T06:20:17.789Z</time></trkpt><trkpt lat="43.764895" lon="12.417415"><ele>653.0</ele><time>2026-05-02T06:20:18.79Z</time></trkpt><trkpt lat="43.764845" lon="12.417495"><ele>653.0</ele><time>2026-05-02T06:20:19.791Z</time></trkpt><trkpt lat="43.7647917" lon="12.417555"><ele>653.0</ele><time>2026-05-02T06:20:20.791Z</time></trkpt><trkpt lat="43.7646867" lon="12.417615"><ele>653.0</ele><time>2026-05-02T06:20:22.79Z</time></trkpt><trkpt lat="43.7645717" lon="12.4176383"><ele>653.0</ele><time>2026-05-02T06:20:24.79Z</time></trkpt><trkpt lat="43.7645083" lon="12.4176767"><ele>653.0</ele><time>2026-05-02T06:20:25.789Z</time></trkpt><trkpt lat="43.76444" lon="12.41772"><ele>653.0</ele><time>2026-05-02T06:20:26.786Z</time></trkpt><trkpt lat="43.764365" lon="12.41776"><ele>649.5</ele><time>2026-05-02T06:20:27.786Z</time></trkpt><trkpt lat="43.7642867" lon="12.4177983"><ele>646.0</ele><time>2026-05-02T06:20:28.786Z</time></trkpt><trkpt lat="43.764205" lon="12.4178317"><ele>642.5</ele><time>2026-05-02T06:20:29.786Z</time></trkpt><trkpt lat="43.7641217" lon="12.41786"><ele>639.0</ele><time>2026-05-02T06:20:30.786Z</time></trkpt><trkpt lat="43.7640333" lon="12.417885"><ele>635.5</ele><time>2026-05-02T06:20:31.787Z</time></trkpt><trkpt lat="43.7639517" lon="12.41789"><ele>632.0</ele><time>2026-05-02T06:20:32.786Z</time></trkpt><trkpt lat="43.7638767" lon="12.4178933"><ele>632.0</ele><time>2026-05-02T06:20:33.787Z</time></trkpt><trkpt lat="43.7638083" lon="12.417875"><ele>632.0</ele><time>2026-05-02T06:20:34.786Z</time></trkpt><trkpt lat="43.7637333" lon="12.417835"><ele>632.0</ele><time>2026-05-02T06:20:35.786Z</time></trkpt><trkpt lat="43.763665" lon="12.417795"><ele>632.0</ele><time>2026-05-02T06:20:36.79Z</time></trkpt><trkpt lat="43.7635967" lon="12.4177617"><ele>632.0</ele><time>2026-05-02T06:20:37.791Z</time></trkpt><trkpt lat="43.763525" lon="12.4177483"><ele>632.0</ele><time>2026-05-02T06:20:38.789Z</time></trkpt><trkpt lat="43.76343" lon="12.41772"><ele>632.0</ele><time>2026-05-02T06:20:40.789Z</time></trkpt><trkpt lat="43.7634483" lon="12.41761"><ele>632.0</ele><time>2026-05-02T06:20:43.79Z</time></trkpt><trkpt lat="43.7635367" lon="12.4175367"><ele>632.0</ele><time>2026-05-02T06:20:45.789Z</time></trkpt><trkpt lat="43.7635233" lon="12.417435"><ele>632.0</ele><time>2026-05-02T06:20:48.791Z</time></trkpt><trkpt lat="43.7634633" lon="12.4174083"><ele>632.0</ele><time>2026-05-02T06:20:49.789Z</time></trkpt><trkpt lat="43.7633917" lon="12.417395"><ele>632.0</ele><time>2026-05-02T06:20:50.789Z</time></trkpt><trkpt lat="43.763315" lon="12.4174033"><ele>630.1666666666666</ele><time>2026-05-02T06:20:51.789Z</time></trkpt><trkpt lat="43.7632367" lon="12.4174283"><ele>628.3333333333333</ele><time>2026-05-02T06:20:52.792Z</time></trkpt><trkpt lat="43.7631583" lon="12.4174567"><ele>626.5</ele><time>2026-05-02T06:20:53.789Z</time></trkpt><trkpt lat="43.7630867" lon="12.4174633"><ele>624.6666666666666</ele><time>2026-05-02T06:20:54.79Z</time></trkpt><trkpt lat="43.76301" lon="12.4174433"><ele>622.8333333333334</ele><time>2026-05-02T06:20:55.789Z</time></trkpt><trkpt lat="43.7629383" lon="12.4174017"><ele>621.0</ele><time>2026-05-02T06:20:56.786Z</time></trkpt><trkpt lat="43.7628683" lon="12.4173317"><ele>621.0</ele><time>2026-05-02T06:20:57.787Z</time></trkpt><trkpt lat="43.7627917" lon="12.4172433"><ele>621.0</ele><time>2026-05-02T06:20:58.786Z</time></trkpt><trkpt lat="43.7627117" lon="12.4171517"><ele>621.0</ele><time>2026-05-02T06:20:59.787Z</time></trkpt><trkpt lat="43.762635" lon="12.417065"><ele>621.0</ele><time>2026-05-02T06:21:00.786Z</time></trkpt><trkpt lat="43.7625567" lon="12.4169733"><ele>621.0</ele><time>2026-05-02T06:21:01.787Z</time></trkpt><trkpt lat="43.7624833" lon="12.4168917"><ele>617.8333333333334</ele><time>2026-05-02T06:21:02.788Z</time></trkpt><trkpt lat="43.7624133" lon="12.416835"><ele>614.6666666666666</ele><time>2026-05-02T06:21:03.786Z</time></trkpt><trkpt lat="43.7623367" lon="12.4168067"><ele>611.5</ele><time>2026-05-02T06:21:04.791Z</time></trkpt><trkpt lat="43.7622483" lon="12.416795"><ele>608.3333333333333</ele><time>2026-05-02T06:21:05.786Z</time></trkpt><trkpt lat="43.7621467" lon="12.4168033"><ele>605.1666666666666</ele><time>2026-05-02T06:21:06.791Z</time></trkpt><trkpt lat="43.7620517" lon="12.4168267"><ele>602.0</ele><time>2026-05-02T06:21:07.789Z</time></trkpt><trkpt lat="43.7619567" lon="12.4168783"><ele>604.0</ele><time>2026-05-02T06:21:08.79Z</time></trkpt><trkpt lat="43.761865" lon="12.4169367"><ele>606.0</ele><time>2026-05-02T06:21:09.786Z</time></trkpt><trkpt lat="43.76178" lon="12.4170017"><ele>608.0</ele><time>2026-05-02T06:21:10.787Z</time></trkpt><trkpt lat="43.7616983" lon="12.4170733"><ele>610.0</ele><time>2026-05-02T06:21:11.787Z</time></trkpt><trkpt lat="43.761625" lon="12.4171633"><ele>612.0</ele><time>2026-05-02T06:21:12.79Z</time></trkpt><trkpt lat="43.7615567" lon="12.4172683"><ele>612.0</ele><time>2026-05-02T06:21:13.786Z</time></trkpt><trkpt lat="43.7614833" lon="12.4173717"><ele>612.0</ele><time>2026-05-02T06:21:14.788Z</time></trkpt><trkpt lat="43.7613983" lon="12.417475"><ele>612.0</ele><time>2026-05-02T06:21:15.791Z</time></trkpt><trkpt lat="43.7613083" lon="12.4175867"><ele>612.0</ele><time>2026-05-02T06:21:16.788Z</time></trkpt><trkpt lat="43.7612217" lon="12.4177"><ele>612.0</ele><time>2026-05-02T06:21:17.787Z</time></trkpt><trkpt lat="43.7611367" lon="12.4177983"><ele>612.0</ele><time>2026-05-02T06:21:18.79Z</time></trkpt><trkpt lat="43.76105" lon="12.4178783"><ele>612.0</ele><time>2026-05-02T06:21:19.786Z</time></trkpt><trkpt lat="43.76096" lon="12.4179317"><ele>612.0</ele><time>2026-05-02T06:21:20.786Z</time></trkpt><trkpt lat="43.7608683" lon="12.41796"><ele>612.0</ele><time>2026-05-02T06:21:21.787Z</time></trkpt><trkpt lat="43.76078" lon="12.4179583"><ele>611.4</ele><time>2026-05-02T06:21:22.786Z</time></trkpt><trkpt lat="43.76069" lon="12.41794"><ele>610.8000000000001</ele><time>2026-05-02T06:21:23.789Z</time></trkpt><trkpt lat="43.7605967" lon="12.4179183"><ele>610.2</ele><time>2026-05-02T06:21:24.789Z</time></trkpt><trkpt lat="43.7605017" lon="12.417915"><ele>609.6</ele><time>2026-05-02T06:21:25.789Z</time></trkpt><trkpt lat="43.7604083" lon="12.4179383"><ele>609.0</ele><time>2026-05-02T06:21:26.786Z</time></trkpt><trkpt lat="43.7603167" lon="12.4179917"><ele>609.0</ele><time>2026-05-02T06:21:27.788Z</time></trkpt><trkpt lat="43.760225" lon="12.4180667"><ele>609.0</ele><time>2026-05-02T06:21:28.787Z</time></trkpt><trkpt lat="43.7601333" lon="12.4181533"><ele>609.0</ele><time>2026-05-02T06:21:29.788Z</time></trkpt><trkpt lat="43.7600333" lon="12.41825"><ele>609.0</ele><time>2026-05-02T06:21:30.787Z</time></trkpt><trkpt lat="43.75993" lon="12.41835"><ele>610.2</ele><time>2026-05-02T06:21:31.787Z</time></trkpt><trkpt lat="43.759835" lon="12.41844"><ele>611.4</ele><time>2026-05-02T06:21:32.787Z</time></trkpt><trkpt lat="43.7597517" lon="12.4185117"><ele>612.6</ele><time>2026-05-02T06:21:33.787Z</time></trkpt><trkpt lat="43.7596783" lon="12.4185717"><ele>613.8</ele><time>2026-05-02T06:21:34.786Z</time></trkpt><trkpt lat="43.7596117" lon="12.4186333"><ele>615.0</ele><time>2026-05-02T06:21:35.787Z</time></trkpt><trkpt lat="43.7595483" lon="12.4187117"><ele>615.0</ele><time>2026-05-02T06:21:36.789Z</time></trkpt><trkpt lat="43.7594783" lon="12.4188067"><ele>615.0</ele><time>2026-05-02T06:21:37.79Z</time></trkpt><trkpt lat="43.7594083" lon="12.4189083"><ele>615.0</ele><time>2026-05-02T06:21:38.786Z</time></trkpt><trkpt lat="43.7593333" lon="12.4190183"><ele>615.0</ele><time>2026-05-02T06:21:39.787Z</time></trkpt><trkpt lat="43.7592617" lon="12.4191217"><ele>615.0</ele><time>2026-05-02T06:21:40.787Z</time></trkpt><trkpt lat="43.7591917" lon="12.41922"><ele>613.2</ele><time>2026-05-02T06:21:41.789Z</time></trkpt><trkpt lat="43.75912" lon="12.4193283"><ele>611.4</ele><time>2026-05-02T06:21:42.787Z</time></trkpt><trkpt lat="43.759055" lon="12.4194433"><ele>609.6</ele><time>2026-05-02T06:21:43.79Z</time></trkpt><trkpt lat="43.7589933" lon="12.4195633"><ele>607.8</ele><time>2026-05-02T06:21:44.786Z</time></trkpt><trkpt lat="43.758935" lon="12.4196783"><ele>606.0</ele><time>2026-05-02T06:21:45.787Z</time></trkpt><trkpt lat="43.7588717" lon="12.4197767"><ele>605.4</ele><time>2026-05-02T06:21:46.787Z</time></trkpt><trkpt lat="43.7588017" lon="12.41988"><ele>604.8</ele><time>2026-05-02T06:21:47.79Z</time></trkpt><trkpt lat="43.7587283" lon="12.4199917"><ele>604.1999999999999</ele><time>2026-05-02T06:21:48.786Z</time></trkpt><trkpt lat="43.758645" lon="12.420105"><ele>603.6</ele><time>2026-05-02T06:21:49.787Z</time></trkpt><trkpt lat="43.7585667" lon="12.4202317"><ele>603.0</ele><time>2026-05-02T06:21:50.787Z</time></trkpt><trkpt lat="43.7584983" lon="12.420365"><ele>599.1999999999999</ele><time>2026-05-02T06:21:51.786Z</time></trkpt><trkpt lat="43.7584367" lon="12.420495"><ele>595.4</ele><time>2026-05-02T06:21:52.787Z</time></trkpt><trkpt lat="43.7583783" lon="12.42062"><ele>591.5999999999999</ele><time>2026-05-02T06:21:53.79Z</time></trkpt><trkpt lat="43.7583167" lon="12.42074"><ele>587.8</ele><time>2026-05-02T06:21:54.789Z</time></trkpt><trkpt lat="43.7582517" lon="12.4208467"><ele>584.0</ele><time>2026-05-02T06:21:55.786Z</time></trkpt><trkpt lat="43.758185" lon="12.4209533"><ele>584.0</ele><time>2026-05-02T06:21:56.787Z</time></trkpt><trkpt lat="43.7581033" lon="12.4210583"><ele>584.0</ele><time>2026-05-02T06:21:57.788Z</time></trkpt><trkpt lat="43.7580183" lon="12.4211583"><ele>584.0</ele><time>2026-05-02T06:21:58.787Z</time></trkpt><trkpt lat="43.7579283" lon="12.4212533"><ele>584.0</ele><time>2026-05-02T06:21:59.787Z</time></trkpt><trkpt lat="43.7578417" lon="12.421345"><ele>584.0</ele><time>2026-05-02T06:22:00.787Z</time></trkpt><trkpt lat="43.757745" lon="12.4214233"><ele>581.8</ele><time>2026-05-02T06:22:01.787Z</time></trkpt><trkpt lat="43.757665" lon="12.4215217"><ele>579.5999999999999</ele><time>2026-05-02T06:22:02.786Z</time></trkpt><trkpt lat="43.7575917" lon="12.4216233"><ele>577.4</ele><time>2026-05-02T06:22:03.787Z</time></trkpt><trkpt lat="43.7575117" lon="12.4217317"><ele>575.1999999999999</ele><time>2026-05-02T06:22:04.79Z</time></trkpt><trkpt lat="43.7574283" lon="12.4218367"><ele>573.0</ele><time>2026-05-02T06:22:05.787Z</time></trkpt><trkpt lat="43.7573517" lon="12.4219483"><ele>573.0</ele><time>2026-05-02T06:22:06.79Z</time></trkpt><trkpt lat="43.757275" lon="12.4220417"><ele>573.0</ele><time>2026-05-02T06:22:07.79Z</time></trkpt><trkpt lat="43.757205" lon="12.4221067"><ele>573.0</ele><time>2026-05-02T06:22:08.789Z</time></trkpt><trkpt lat="43.7571467" lon="12.422155"><ele>573.0</ele><time>2026-05-02T06:22:09.789Z</time></trkpt><trkpt lat="43.7570367" lon="12.4221833"><ele>573.0</ele><time>2026-05-02T06:22:11.79Z</time></trkpt><trkpt lat="43.756965" lon="12.4221517"><ele>573.0</ele><time>2026-05-02T06:22:12.79Z</time></trkpt><trkpt lat="43.7569117" lon="12.4221"><ele>573.1428571428571</ele><time>2026-05-02T06:22:13.789Z</time></trkpt><trkpt lat="43.756865" lon="12.4220383"><ele>573.2857142857143</ele><time>2026-05-02T06:22:14.791Z</time></trkpt><trkpt lat="43.756835" lon="12.4219383"><ele>573.4285714285714</ele><time>2026-05-02T06:22:15.79Z</time></trkpt><trkpt lat="43.75681" lon="12.4218317"><ele>573.5714285714286</ele><time>2026-05-02T06:22:16.789Z</time></trkpt><trkpt lat="43.7567683" lon="12.4217483"><ele>573.7142857142858</ele><time>2026-05-02T06:22:17.79Z</time></trkpt><trkpt lat="43.7567167" lon="12.421695"><ele>573.8571428571429</ele><time>2026-05-02T06:22:18.79Z</time></trkpt><trkpt lat="43.756655" lon="12.4216583"><ele>574.0</ele><time>2026-05-02T06:22:19.79Z</time></trkpt><trkpt lat="43.7565833" lon="12.4216383"><ele>574.0</ele><time>2026-05-02T06:22:20.786Z</time></trkpt><trkpt lat="43.7565017" lon="12.4216367"><ele>574.0</ele><time>2026-05-02T06:22:21.791Z</time></trkpt><trkpt lat="43.7564167" lon="12.421645"><ele>574.0</ele><time>2026-05-02T06:22:22.789Z</time></trkpt><trkpt lat="43.7563267" lon="12.4216583"><ele>574.0</ele><time>2026-05-02T06:22:23.791Z</time></trkpt><trkpt lat="43.7562383" lon="12.42167"><ele>574.0</ele><time>2026-05-02T06:22:24.789Z</time></trkpt><trkpt lat="43.756155" lon="12.4216683"><ele>574.0</ele><time>2026-05-02T06:22:25.789Z</time></trkpt><trkpt lat="43.7560783" lon="12.4216633"><ele>572.0</ele><time>2026-05-02T06:22:26.787Z</time></trkpt><trkpt lat="43.7560067" lon="12.4216667"><ele>570.0</ele><time>2026-05-02T06:22:27.786Z</time></trkpt><trkpt lat="43.7559367" lon="12.42167"><ele>568.0</ele><time>2026-05-02T06:22:28.786Z</time></trkpt><trkpt lat="43.7558683" lon="12.4216883"><ele>566.0</ele><time>2026-05-02T06:22:29.789Z</time></trkpt><trkpt lat="43.7558033" lon="12.4217133"><ele>564.0</ele><time>2026-05-02T06:22:30.786Z</time></trkpt><trkpt lat="43.75574" lon="12.4217383"><ele>562.0</ele><time>2026-05-02T06:22:31.786Z</time></trkpt><trkpt lat="43.7556717" lon="12.4217533"><ele>560.0</ele><time>2026-05-02T06:22:32.787Z</time></trkpt><trkpt lat="43.7556083" lon="12.4217617"><ele>560.0</ele><time>2026-05-02T06:22:33.79Z</time></trkpt><trkpt lat="43.7555433" lon="12.421745"><ele>560.0</ele><time>2026-05-02T06:22:34.789Z</time></trkpt><trkpt lat="43.75547" lon="12.4217017"><ele>560.0</ele><time>2026-05-02T06:22:35.79Z</time></trkpt><trkpt lat="43.7554017" lon="12.4216533"><ele>560.0</ele><time>2026-05-02T06:22:36.789Z</time></trkpt><trkpt lat="43.7553367" lon="12.4215983"><ele>560.0</ele><time>2026-05-02T06:22:37.786Z</time></trkpt><trkpt lat="43.7552717" lon="12.4215633"><ele>560.0</ele><time>2026-05-02T06:22:38.787Z</time></trkpt><trkpt lat="43.7552083" lon="12.4215467"><ele>560.0</ele><time>2026-05-02T06:22:39.788Z</time></trkpt><trkpt lat="43.7550783" lon="12.421595"><ele>556.5</ele><time>2026-05-02T06:22:41.788Z</time></trkpt><trkpt lat="43.75501" lon="12.4216567"><ele>553.0</ele><time>2026-05-02T06:22:42.787Z</time></trkpt><trkpt lat="43.7549433" lon="12.4217267"><ele>549.5</ele><time>2026-05-02T06:22:43.788Z</time></trkpt><trkpt lat="43.7548733" lon="12.4218033"><ele>546.0</ele><time>2026-05-02T06:22:44.789Z</time></trkpt><trkpt lat="43.7548" lon="12.4218783"><ele>542.5</ele><time>2026-05-02T06:22:45.787Z</time></trkpt><trkpt lat="43.75472" lon="12.421955"><ele>539.0</ele><time>2026-05-02T06:22:46.787Z</time></trkpt><trkpt lat="43.7546433" lon="12.4220317"><ele>539.0</ele><time>2026-05-02T06:22:47.789Z</time></trkpt><trkpt lat="43.75457" lon="12.4221033"><ele>539.0</ele><time>2026-05-02T06:22:48.787Z</time></trkpt><trkpt lat="43.7545067" lon="12.422175"><ele>539.0</ele><time>2026-05-02T06:22:49.787Z</time></trkpt><trkpt lat="43.7544533" lon="12.4222467"><ele>539.0</ele><time>2026-05-02T06:22:50.787Z</time></trkpt><trkpt lat="43.7544067" lon="12.42232"><ele>539.0</ele><time>2026-05-02T06:22:51.788Z</time></trkpt><trkpt lat="43.7543633" lon="12.4224033"><ele>539.0</ele><time>2026-05-02T06:22:52.788Z</time></trkpt><trkpt lat="43.7543283" lon="12.422495"><ele>537.0</ele><time>2026-05-02T06:22:53.788Z</time></trkpt><trkpt lat="43.7543017" lon="12.42259"><ele>535.0</ele><time>2026-05-02T06:22:54.789Z</time></trkpt><trkpt lat="43.75429" lon="12.4226833"><ele>533.0</ele><time>2026-05-02T06:22:55.79Z</time></trkpt><trkpt lat="43.7542683" lon="12.4228083"><ele>531.0</ele><time>2026-05-02T06:22:57.788Z</time></trkpt><trkpt lat="43.754215" lon="12.4227383"><ele>529.0</ele><time>2026-05-02T06:23:01.788Z</time></trkpt><trkpt lat="43.75423" lon="12.4225733"><ele>527.0</ele><time>2026-05-02T06:23:03.791Z</time></trkpt><trkpt lat="43.7542583" lon="12.4224767"><ele>527.0</ele><time>2026-05-02T06:23:04.791Z</time></trkpt><trkpt lat="43.75429" lon="12.4223783"><ele>527.0</ele><time>2026-05-02T06:23:05.79Z</time></trkpt><trkpt lat="43.7543183" lon="12.422275"><ele>527.0</ele><time>2026-05-02T06:23:06.789Z</time></trkpt><trkpt lat="43.7543367" lon="12.422175"><ele>527.0</ele><time>2026-05-02T06:23:07.79Z</time></trkpt><trkpt lat="43.7543333" lon="12.4220833"><ele>527.0</ele><time>2026-05-02T06:23:08.79Z</time></trkpt><trkpt lat="43.754275" lon="12.4219467"><ele>527.0</ele><time>2026-05-02T06:23:10.787Z</time></trkpt><trkpt lat="43.7541683" lon="12.4219017"><ele>527.0</ele><time>2026-05-02T06:23:12.79Z</time></trkpt><trkpt lat="43.754045" lon="12.4219633"><ele>527.0</ele><time>2026-05-02T06:23:14.79Z</time></trkpt><trkpt lat="43.7539833" lon="12.422055"><ele>527.0</ele><time>2026-05-02T06:23:15.789Z</time></trkpt><trkpt lat="43.7539217" lon="12.4221667"><ele>527.0</ele><time>2026-05-02T06:23:16.789Z</time></trkpt><trkpt lat="43.7538617" lon="12.422305"><ele>527.0</ele><time>2026-05-02T06:23:17.79Z</time></trkpt><trkpt lat="43.7538" lon="12.4224383"><ele>527.0</ele><time>2026-05-02T06:23:18.789Z</time></trkpt><trkpt lat="43.7537383" lon="12.422565"><ele>527.0</ele><time>2026-05-02T06:23:19.791Z</time></trkpt><trkpt lat="43.75367" lon="12.422685"><ele>527.0</ele><time>2026-05-02T06:23:20.79Z</time></trkpt><trkpt lat="43.7535917" lon="12.422795"><ele>527.0</ele><time>2026-05-02T06:23:21.79Z</time></trkpt><trkpt lat="43.7535083" lon="12.4228917"><ele>527.0</ele><time>2026-05-02T06:23:22.79Z</time></trkpt><trkpt lat="43.75342" lon="12.4229783"><ele>523.8000000000001</ele><time>2026-05-02T06:23:23.791Z</time></trkpt><trkpt lat="43.75333" lon="12.4230533"><ele>520.6</ele><time>2026-05-02T06:23:24.789Z</time></trkpt><trkpt lat="43.7532367" lon="12.4231267"><ele>517.4000000000001</ele><time>2026-05-02T06:23:25.789Z</time></trkpt><trkpt lat="43.75314" lon="12.4232017"><ele>514.2</ele><time>2026-05-02T06:23:26.786Z</time></trkpt><trkpt lat="43.7530417" lon="12.4232667"><ele>511.0</ele><time>2026-05-02T06:23:27.787Z</time></trkpt><trkpt lat="43.752945" lon="12.4233317"><ele>511.0</ele><time>2026-05-02T06:23:28.788Z</time></trkpt><trkpt lat="43.752845" lon="12.42339"><ele>511.0</ele><time>2026-05-02T06:23:29.787Z</time></trkpt><trkpt lat="43.75274" lon="12.423445"><ele>511.0</ele><time>2026-05-02T06:23:30.787Z</time></trkpt><trkpt lat="43.7526283" lon="12.4235"><ele>511.0</ele><time>2026-05-02T06:23:31.789Z</time></trkpt><trkpt lat="43.7525167" lon="12.423555"><ele>507.25</ele><time>2026-05-02T06:23:32.787Z</time></trkpt><trkpt lat="43.7524033" lon="12.423605"><ele>503.5</ele><time>2026-05-02T06:23:33.789Z</time></trkpt><trkpt lat="43.7522933" lon="12.423655"><ele>499.75</ele><time>2026-05-02T06:23:34.79Z</time></trkpt><trkpt lat="43.7521833" lon="12.4237"><ele>496.0</ele><time>2026-05-02T06:23:35.789Z</time></trkpt><trkpt lat="43.7520817" lon="12.4237483"><ele>496.0</ele><time>2026-05-02T06:23:36.79Z</time></trkpt><trkpt lat="43.7519783" lon="12.4237867"><ele>496.0</ele><time>2026-05-02T06:23:37.791Z</time></trkpt><trkpt lat="43.75188" lon="12.4238217"><ele>496.0</ele><time>2026-05-02T06:23:38.788Z</time></trkpt><trkpt lat="43.7517817" lon="12.42385"><ele>496.0</ele><time>2026-05-02T06:23:39.787Z</time></trkpt><trkpt lat="43.751685" lon="12.4238617"><ele>496.0</ele><time>2026-05-02T06:23:40.788Z</time></trkpt><trkpt lat="43.75158" lon="12.4238517"><ele>494.20000000000005</ele><time>2026-05-02T06:23:41.788Z</time></trkpt><trkpt lat="43.75148" lon="12.4238217"><ele>492.40000000000003</ele><time>2026-05-02T06:23:42.788Z</time></trkpt><trkpt lat="43.7513867" lon="12.4237717"><ele>490.6</ele><time>2026-05-02T06:23:43.79Z</time></trkpt><trkpt lat="43.751295" lon="12.4236983"><ele>488.8</ele><time>2026-05-02T06:23:44.789Z</time></trkpt><trkpt lat="43.75121" lon="12.4236133"><ele>487.0</ele><time>2026-05-02T06:23:45.79Z</time></trkpt><trkpt lat="43.75112" lon="12.42352"><ele>484.5</ele><time>2026-05-02T06:23:46.79Z</time></trkpt><trkpt lat="43.7510283" lon="12.4234167"><ele>482.0</ele><time>2026-05-02T06:23:47.79Z</time></trkpt><trkpt lat="43.7509367" lon="12.4233067"><ele>479.5</ele><time>2026-05-02T06:23:48.789Z</time></trkpt><trkpt lat="43.7508467" lon="12.42319"><ele>477.0</ele><time>2026-05-02T06:23:49.791Z</time></trkpt><trkpt lat="43.7507667" lon="12.423065"><ele>475.5</ele><time>2026-05-02T06:23:50.79Z</time></trkpt><trkpt lat="43.7506933" lon="12.42294"><ele>474.0</ele><time>2026-05-02T06:23:51.791Z</time></trkpt><trkpt lat="43.75063" lon="12.4228"><ele>472.5</ele><time>2026-05-02T06:23:52.79Z</time></trkpt><trkpt lat="43.750575" lon="12.4226533"><ele>471.0</ele><time>2026-05-02T06:23:53.79Z</time></trkpt><trkpt lat="43.750525" lon="12.4225083"><ele>471.0</ele><time>2026-05-02T06:23:54.79Z</time></trkpt><trkpt lat="43.750475" lon="12.4223683"><ele>471.0</ele><time>2026-05-02T06:23:55.79Z</time></trkpt><trkpt lat="43.75043" lon="12.422235"><ele>471.0</ele><time>2026-05-02T06:23:56.79Z</time></trkpt><trkpt lat="43.7503917" lon="12.4221067"><ele>471.0</ele><time>2026-05-02T06:23:57.79Z</time></trkpt><trkpt lat="43.7503583" lon="12.421985"><ele>471.0</ele><time>2026-05-02T06:23:58.79Z</time></trkpt><trkpt lat="43.7503233" lon="12.42188"><ele>471.6666666666667</ele><time>2026-05-02T06:23:59.79Z</time></trkpt><trkpt lat="43.7502883" lon="12.4217933"><ele>472.33333333333337</ele><time>2026-05-02T06:24:00.789Z</time></trkpt><trkpt lat="43.7502383" lon="12.4217333"><ele>473.0</ele><time>2026-05-02T06:24:01.791Z</time></trkpt><trkpt lat="43.75018" lon="12.4216967"><ele>473.6666666666667</ele><time>2026-05-02T06:24:02.79Z</time></trkpt><trkpt lat="43.7500983" lon="12.4216717"><ele>474.33333333333337</ele><time>2026-05-02T06:24:03.79Z</time></trkpt><trkpt lat="43.7500067" lon="12.4216533"><ele>475.0</ele><time>2026-05-02T06:24:04.789Z</time></trkpt><trkpt lat="43.74991" lon="12.4216317"><ele>475.0</ele><time>2026-05-02T06:24:05.791Z</time></trkpt><trkpt lat="43.7498183" lon="12.4216"><ele>475.0</ele><time>2026-05-02T06:24:06.79Z</time></trkpt><trkpt lat="43.7497333" lon="12.421555"><ele>475.0</ele><time>2026-05-02T06:24:07.789Z</time></trkpt><trkpt lat="43.749655" lon="12.42149"><ele>475.0</ele><time>2026-05-02T06:24:08.788Z</time></trkpt><trkpt lat="43.7495867" lon="12.421385"><ele>475.0</ele><time>2026-05-02T06:24:09.789Z</time></trkpt><trkpt lat="43.74952" lon="12.42127"><ele>473.1666666666667</ele><time>2026-05-02T06:24:10.789Z</time></trkpt><trkpt lat="43.74945" lon="12.4211633"><ele>471.33333333333337</ele><time>2026-05-02T06:24:11.789Z</time></trkpt><trkpt lat="43.7493917" lon="12.4210717"><ele>469.5</ele><time>2026-05-02T06:24:12.789Z</time></trkpt><trkpt lat="43.749335" lon="12.4209917"><ele>467.66666666666663</ele><time>2026-05-02T06:24:13.79Z</time></trkpt><trkpt lat="43.7492867" lon="12.420925"><ele>465.8333333333333</ele><time>2026-05-02T06:24:14.789Z</time></trkpt><trkpt lat="43.7492133" lon="12.4208233"><ele>464.0</ele><time>2026-05-02T06:24:16.79Z</time></trkpt><trkpt lat="43.7491567" lon="12.4207583"><ele>464.0</ele><time>2026-05-02T06:24:18.789Z</time></trkpt><trkpt lat="43.7492417" lon="12.4206733"><ele>464.0</ele><time>2026-05-02T06:33:06.593Z</time></trkpt><trkpt lat="43.7490467" lon="12.4206167"><ele>464.0</ele><time>2026-05-02T06:33:07.786Z</time></trkpt><trkpt lat="43.7489433" lon="12.42055"><ele>464.0</ele><time>2026-05-02T06:33:09.786Z</time></trkpt><trkpt lat="43.7488283" lon="12.4204633"><ele>462.3333333333333</ele><time>2026-05-02T06:33:11.787Z</time></trkpt><trkpt lat="43.748765" lon="12.4203883"><ele>460.66666666666663</ele><time>2026-05-02T06:33:12.785Z</time></trkpt><trkpt lat="43.7487033" lon="12.4203033"><ele>459.0</ele><time>2026-05-02T06:33:13.786Z</time></trkpt><trkpt lat="43.748645" lon="12.4202117"><ele>457.33333333333337</ele><time>2026-05-02T06:33:14.786Z</time></trkpt><trkpt lat="43.748595" lon="12.4201133"><ele>455.6666666666667</ele><time>2026-05-02T06:33:15.787Z</time></trkpt><trkpt lat="43.7485533" lon="12.4200083"><ele>454.0</ele><time>2026-05-02T06:33:16.787Z</time></trkpt><trkpt lat="43.7485267" lon="12.4199017"><ele>453.6666666666667</ele><time>2026-05-02T06:33:17.787Z</time></trkpt><trkpt lat="43.7485017" lon="12.4197917"><ele>453.33333333333337</ele><time>2026-05-02T06:33:18.786Z</time></trkpt><trkpt lat="43.748475" lon="12.419695"><ele>453.0</ele><time>2026-05-02T06:33:19.787Z</time></trkpt><trkpt lat="43.74845" lon="12.4196083"><ele>452.66666666666663</ele><time>2026-05-02T06:33:20.787Z</time></trkpt><trkpt lat="43.748415" lon="12.419535"><ele>452.3333333333333</ele><time>2026-05-02T06:33:21.786Z</time></trkpt><trkpt lat="43.7483283" lon="12.4194283"><ele>452.0</ele><time>2026-05-02T06:33:23.786Z</time></trkpt><trkpt lat="43.74823" lon="12.41943"><ele>452.0</ele><time>2026-05-02T06:33:25.786Z</time></trkpt><trkpt lat="43.74815" lon="12.4195483"><ele>452.00000000000006</ele><time>2026-05-02T06:33:27.786Z</time></trkpt><trkpt lat="43.748125" lon="12.419645"><ele>452.00000000000006</ele><time>2026-05-02T06:33:28.786Z</time></trkpt><trkpt lat="43.7481167" lon="12.4197633"><ele>452.0</ele><time>2026-05-02T06:33:29.787Z</time></trkpt><trkpt lat="43.7481283" lon="12.41991"><ele>452.0</ele><time>2026-05-02T06:33:30.786Z</time></trkpt><trkpt lat="43.7481467" lon="12.420065"><ele>452.0</ele><time>2026-05-02T06:33:31.786Z</time></trkpt><trkpt lat="43.7481567" lon="12.4202117"><ele>452.00000000000006</ele><time>2026-05-02T06:33:32.786Z</time></trkpt><trkpt lat="43.7481617" lon="12.4203583"><ele>452.00000000000006</ele><time>2026-05-02T06:33:33.786Z</time></trkpt><trkpt lat="43.7481617" lon="12.420505"><ele>452.0</ele><time>2026-05-02T06:33:34.786Z</time></trkpt><trkpt lat="43.748165" lon="12.420655"><ele>452.0</ele><time>2026-05-02T06:33:35.786Z</time></trkpt><trkpt lat="43.74817" lon="12.4207967"><ele>452.16666666666663</ele><time>2026-05-02T06:33:36.786Z</time></trkpt><trkpt lat="43.7481833" lon="12.4209317"><ele>452.3333333333333</ele><time>2026-05-02T06:33:37.786Z</time></trkpt><trkpt lat="43.7481933" lon="12.4210517"><ele>452.5</ele><time>2026-05-02T06:33:38.786Z</time></trkpt><trkpt lat="43.7481983" lon="12.4211567"><ele>452.66666666666663</ele><time>2026-05-02T06:33:39.787Z</time></trkpt><trkpt lat="43.7481867" lon="12.4212433"><ele>452.8333333333333</ele><time>2026-05-02T06:33:40.786Z</time></trkpt><trkpt lat="43.7481117" lon="12.42135"><ele>453.0</ele><time>2026-05-02T06:33:42.786Z</time></trkpt><trkpt lat="43.7479933" lon="12.4213317"><ele>453.0</ele><time>2026-05-02T06:33:44.787Z</time></trkpt><trkpt lat="43.7479583" lon="12.421235"><ele>452.99999999999994</ele><time>2026-05-02T06:33:45.786Z</time></trkpt><trkpt lat="43.7479183" lon="12.4210817"><ele>452.99999999999994</ele><time>2026-05-02T06:33:46.786Z</time></trkpt><trkpt lat="43.7478933" lon="12.4209467"><ele>453.0</ele><time>2026-05-02T06:33:47.788Z</time></trkpt><trkpt lat="43.7478617" lon="12.42083"><ele>453.0</ele><time>2026-05-02T06:33:48.786Z</time></trkpt><trkpt lat="43.7478167" lon="12.4207433"><ele>453.0</ele><time>2026-05-02T06:33:49.787Z</time></trkpt><trkpt lat="43.7477583" lon="12.42067"><ele>453.0</ele><time>2026-05-02T06:33:50.787Z</time></trkpt><trkpt lat="43.7476917" lon="12.4206267"><ele>453.0</ele><time>2026-05-02T06:33:51.786Z</time></trkpt><trkpt lat="43.747615" lon="12.4206167"><ele>453.0</ele><time>2026-05-02T06:33:52.787Z</time></trkpt><trkpt lat="43.7475367" lon="12.4206533"><ele>453.0</ele><time>2026-05-02T06:33:53.786Z</time></trkpt><trkpt lat="43.7474683" lon="12.42073"><ele>453.0</ele><time>2026-05-02T06:33:54.787Z</time></trkpt><trkpt lat="43.74741" lon="12.420825"><ele>449.3333333333333</ele><time>2026-05-02T06:33:55.786Z</time></trkpt><trkpt lat="43.7473517" lon="12.4209133"><ele>445.66666666666663</ele><time>2026-05-02T06:33:56.787Z</time></trkpt><trkpt lat="43.74729" lon="12.421"><ele>442.0</ele><time>2026-05-02T06:33:57.786Z</time></trkpt><trkpt lat="43.74722" lon="12.4210517"><ele>438.3333333333333</ele><time>2026-05-02T06:33:58.786Z</time></trkpt><trkpt lat="43.7471417" lon="12.4210683"><ele>434.66666666666663</ele><time>2026-05-02T06:33:59.787Z</time></trkpt><trkpt lat="43.74705" lon="12.4210533"><ele>431.0</ele><time>2026-05-02T06:34:00.786Z</time></trkpt><trkpt lat="43.746945" lon="12.421025"><ele>428.20000000000005</ele><time>2026-05-02T06:34:01.787Z</time></trkpt><trkpt lat="43.7468383" lon="12.420995"><ele>425.40000000000003</ele><time>2026-05-02T06:34:02.786Z</time></trkpt><trkpt lat="43.74673" lon="12.4209583"><ele>422.6</ele><time>2026-05-02T06:34:03.786Z</time></trkpt><trkpt lat="43.746625" lon="12.420925"><ele>419.8</ele><time>2026-05-02T06:34:04.786Z</time></trkpt><trkpt lat="43.7465233" lon="12.4208933"><ele>417.0</ele><time>2026-05-02T06:34:05.788Z</time></trkpt><trkpt lat="43.7464217" lon="12.4208617"><ele>417.0</ele><time>2026-05-02T06:34:06.787Z</time></trkpt><trkpt lat="43.746325" lon="12.4208383"><ele>417.0</ele><time>2026-05-02T06:34:07.786Z</time></trkpt><trkpt lat="43.7462317" lon="12.4208267"><ele>417.0</ele><time>2026-05-02T06:34:08.789Z</time></trkpt><trkpt lat="43.7461317" lon="12.420825"><ele>417.0</ele><time>2026-05-02T06:34:09.791Z</time></trkpt><trkpt lat="43.7460317" lon="12.4208233"><ele>417.0</ele><time>2026-05-02T06:34:10.79Z</time></trkpt><trkpt lat="43.74593" lon="12.4208283"><ele>415.40000000000003</ele><time>2026-05-02T06:34:11.786Z</time></trkpt><trkpt lat="43.7458283" lon="12.4208367"><ele>413.8</ele><time>2026-05-02T06:34:12.79Z</time></trkpt><trkpt lat="43.7457317" lon="12.4208483"><ele>412.2</ele><time>2026-05-02T06:34:13.789Z</time></trkpt><trkpt lat="43.7456433" lon="12.4208467"><ele>410.6</ele><time>2026-05-02T06:34:14.789Z</time></trkpt><trkpt lat="43.745555" lon="12.420835"><ele>409.0</ele><time>2026-05-02T06:34:15.79Z</time></trkpt><trkpt lat="43.74547" lon="12.4208067"><ele>409.00000000000006</ele><time>2026-05-02T06:34:16.79Z</time></trkpt><trkpt lat="43.745395" lon="12.4207683"><ele>409.0</ele><time>2026-05-02T06:34:17.79Z</time></trkpt><trkpt lat="43.74533" lon="12.420715"><ele>409.0</ele><time>2026-05-02T06:34:18.79Z</time></trkpt><trkpt lat="43.7452717" lon="12.42066"><ele>409.0</ele><time>2026-05-02T06:34:19.789Z</time></trkpt><trkpt lat="43.7452067" lon="12.4205333"><ele>409.00000000000006</ele><time>2026-05-02T06:34:21.787Z</time></trkpt><trkpt lat="43.74519" lon="12.4204433"><ele>409.0</ele><time>2026-05-02T06:34:22.789Z</time></trkpt><trkpt lat="43.7451917" lon="12.420325"><ele>407.83333333333337</ele><time>2026-05-02T06:34:23.786Z</time></trkpt><trkpt lat="43.7451867" lon="12.4201983"><ele>406.6666666666667</ele><time>2026-05-02T06:34:24.787Z</time></trkpt><trkpt lat="43.7451967" lon="12.42008"><ele>405.5</ele><time>2026-05-02T06:34:25.787Z</time></trkpt><trkpt lat="43.7452083" lon="12.4199733"><ele>404.33333333333337</ele><time>2026-05-02T06:34:26.788Z</time></trkpt><trkpt lat="43.74524" lon="12.41989"><ele>403.1666666666667</ele><time>2026-05-02T06:34:27.787Z</time></trkpt><trkpt lat="43.745285" lon="12.4198167"><ele>402.0</ele><time>2026-05-02T06:34:28.788Z</time></trkpt><trkpt lat="43.7453417" lon="12.4197517"><ele>402.0</ele><time>2026-05-02T06:34:29.788Z</time></trkpt><trkpt lat="43.745445" lon="12.4197083"><ele>402.0</ele><time>2026-05-02T06:34:30.788Z</time></trkpt><trkpt lat="43.74559" lon="12.4196617"><ele>402.0</ele><time>2026-05-02T06:34:31.787Z</time></trkpt><trkpt lat="43.7457383" lon="12.419605"><ele>402.0</ele><time>2026-05-02T06:34:32.789Z</time></trkpt><trkpt lat="43.7458667" lon="12.4195583"><ele>402.3333333333333</ele><time>2026-05-02T06:34:33.789Z</time></trkpt><trkpt lat="43.745985" lon="12.4194983"><ele>402.66666666666663</ele><time>2026-05-02T06:34:34.787Z</time></trkpt><trkpt lat="43.7460767" lon="12.4194433"><ele>403.0</ele><time>2026-05-02T06:34:35.79Z</time></trkpt><trkpt lat="43.7461317" lon="12.41936"><ele>403.3333333333333</ele><time>2026-05-02T06:34:36.787Z</time></trkpt><trkpt lat="43.7461683" lon="12.4192717"><ele>403.66666666666663</ele><time>2026-05-02T06:34:37.79Z</time></trkpt><trkpt lat="43.7461517" lon="12.4191867"><ele>404.0</ele><time>2026-05-02T06:34:38.791Z</time></trkpt><trkpt lat="43.7460617" lon="12.4191283"><ele>400.5</ele><time>2026-05-02T06:34:39.791Z</time></trkpt><trkpt lat="43.7459633" lon="12.4191467"><ele>397.0</ele><time>2026-05-02T06:34:40.787Z</time></trkpt><trkpt lat="43.7458633" lon="12.4191683"><ele>393.5</ele><time>2026-05-02T06:34:41.787Z</time></trkpt><trkpt lat="43.7457383" lon="12.4192117"><ele>390.0</ele><time>2026-05-02T06:34:42.788Z</time></trkpt><trkpt lat="43.7456033" lon="12.4192967"><ele>390.0</ele><time>2026-05-02T06:34:43.787Z</time></trkpt><trkpt lat="43.7454767" lon="12.419335"><ele>390.0</ele><time>2026-05-02T06:34:44.787Z</time></trkpt><trkpt lat="43.7453483" lon="12.4193367"><ele>390.0</ele><time>2026-05-02T06:34:45.791Z</time></trkpt><trkpt lat="43.74523" lon="12.4192733"><ele>390.0</ele><time>2026-05-02T06:34:46.789Z</time></trkpt><trkpt lat="43.7451167" lon="12.4191633"><ele>386.75</ele><time>2026-05-02T06:34:47.79Z</time></trkpt><trkpt lat="43.7450067" lon="12.4190533"><ele>383.5</ele><time>2026-05-02T06:34:48.79Z</time></trkpt><trkpt lat="43.7448983" lon="12.4189567"><ele>380.25</ele><time>2026-05-02T06:34:49.788Z</time></trkpt><trkpt lat="43.7448017" lon="12.41889"><ele>377.0</ele><time>2026-05-02T06:34:50.789Z</time></trkpt><trkpt lat="43.7447067" lon="12.4188633"><ele>377.0</ele><time>2026-05-02T06:34:51.789Z</time></trkpt><trkpt lat="43.7446167" lon="12.418885"><ele>377.0</ele><time>2026-05-02T06:34:52.789Z</time></trkpt><trkpt lat="43.744525" lon="12.418965"><ele>377.0</ele><time>2026-05-02T06:34:53.789Z</time></trkpt><trkpt lat="43.7444283" lon="12.4190883"><ele>377.0</ele><time>2026-05-02T06:34:54.79Z</time></trkpt><trkpt lat="43.7443233" lon="12.41922"><ele>374.6666666666667</ele><time>2026-05-02T06:34:55.788Z</time></trkpt><trkpt lat="43.7442133" lon="12.4193617"><ele>372.3333333333333</ele><time>2026-05-02T06:34:56.786Z</time></trkpt><trkpt lat="43.7441067" lon="12.4195167"><ele>370.0</ele><time>2026-05-02T06:34:57.786Z</time></trkpt><trkpt lat="43.74401" lon="12.41967"><ele>370.0</ele><time>2026-05-02T06:34:58.785Z</time></trkpt><trkpt lat="43.7439117" lon="12.4198083"><ele>370.0</ele><time>2026-05-02T06:34:59.786Z</time></trkpt><trkpt lat="43.7438183" lon="12.4199567"><ele>370.0</ele><time>2026-05-02T06:35:00.785Z</time></trkpt><trkpt lat="43.7437267" lon="12.4200933"><ele>370.0</ele><time>2026-05-02T06:35:01.786Z</time></trkpt><trkpt lat="43.7436517" lon="12.42022"><ele>370.0</ele><time>2026-05-02T06:35:02.786Z</time></trkpt><trkpt lat="43.7435817" lon="12.420325"><ele>370.0</ele><time>2026-05-02T06:35:03.789Z</time></trkpt><trkpt lat="43.7435067" lon="12.420385"><ele>370.0</ele><time>2026-05-02T06:35:04.788Z</time></trkpt><trkpt lat="43.7434317" lon="12.42042"><ele>370.0</ele><time>2026-05-02T06:35:05.789Z</time></trkpt><trkpt lat="43.7433633" lon="12.4204317"><ele>370.0</ele><time>2026-05-02T06:35:06.785Z</time></trkpt><trkpt lat="43.7432783" lon="12.420375"><ele>370.0</ele><time>2026-05-02T06:35:08.786Z</time></trkpt><trkpt lat="43.743315" lon="12.4202717"><ele>370.0</ele><time>2026-05-02T06:35:10.787Z</time></trkpt><trkpt lat="43.743375" lon="12.4201917"><ele>370.0</ele><time>2026-05-02T06:35:11.787Z</time></trkpt><trkpt lat="43.743435" lon="12.42011"><ele>370.0</ele><time>2026-05-02T06:35:12.787Z</time></trkpt><trkpt lat="43.74352" lon="12.419975"><ele>370.0</ele><time>2026-05-02T06:35:13.787Z</time></trkpt><trkpt lat="43.7436217" lon="12.4198033"><ele>365.66666666666663</ele><time>2026-05-02T06:35:14.787Z</time></trkpt><trkpt lat="43.7437117" lon="12.4196317"><ele>361.3333333333333</ele><time>2026-05-02T06:35:15.788Z</time></trkpt><trkpt lat="43.7437933" lon="12.419455"><ele>357.0</ele><time>2026-05-02T06:35:16.787Z</time></trkpt><trkpt lat="43.7438717" lon="12.4192833"><ele>357.0</ele><time>2026-05-02T06:35:17.786Z</time></trkpt><trkpt lat="43.7439517" lon="12.419105"><ele>357.0</ele><time>2026-05-02T06:35:18.787Z</time></trkpt><trkpt lat="43.744035" lon="12.418925"><ele>357.0</ele><time>2026-05-02T06:35:19.786Z</time></trkpt><trkpt lat="43.7441183" lon="12.4187467"><ele>352.6666666666667</ele><time>2026-05-02T06:35:20.786Z</time></trkpt><trkpt lat="43.7442033" lon="12.4185683"><ele>348.33333333333337</ele><time>2026-05-02T06:35:21.787Z</time></trkpt><trkpt lat="43.744285" lon="12.4183833"><ele>344.0</ele><time>2026-05-02T06:35:22.788Z</time></trkpt><trkpt lat="43.7443667" lon="12.4181983"><ele>349.6666666666667</ele><time>2026-05-02T06:35:23.786Z</time></trkpt><trkpt lat="43.7444483" lon="12.4180183"><ele>355.3333333333333</ele><time>2026-05-02T06:35:24.79Z</time></trkpt><trkpt lat="43.7445283" lon="12.417835"><ele>361.0</ele><time>2026-05-02T06:35:25.789Z</time></trkpt><trkpt lat="43.7446033" lon="12.417645"><ele>361.0</ele><time>2026-05-02T06:35:26.786Z</time></trkpt><trkpt lat="43.7446733" lon="12.4174483"><ele>361.0</ele><time>2026-05-02T06:35:27.786Z</time></trkpt><trkpt lat="43.744725" lon="12.4172533"><ele>361.0</ele><time>2026-05-02T06:35:28.786Z</time></trkpt><trkpt lat="43.74477" lon="12.4170583"><ele>356.3333333333333</ele><time>2026-05-02T06:35:29.786Z</time></trkpt><trkpt lat="43.7448167" lon="12.416855"><ele>351.6666666666667</ele><time>2026-05-02T06:35:30.786Z</time></trkpt><trkpt lat="43.74486" lon="12.4166517"><ele>347.0</ele><time>2026-05-02T06:35:31.785Z</time></trkpt><trkpt lat="43.7449033" lon="12.4164533"><ele>344.0</ele><time>2026-05-02T06:35:32.786Z</time></trkpt><trkpt lat="43.744955" lon="12.4162583"><ele>341.0</ele><time>2026-05-02T06:35:33.786Z</time></trkpt><trkpt lat="43.7449967" lon="12.41606"><ele>338.0</ele><time>2026-05-02T06:35:34.789Z</time></trkpt><trkpt lat="43.7450383" lon="12.4158567"><ele>338.0</ele><time>2026-05-02T06:35:35.789Z</time></trkpt><trkpt lat="43.7450817" lon="12.41565"><ele>338.0</ele><time>2026-05-02T06:35:36.789Z</time></trkpt><trkpt lat="43.7451283" lon="12.4154467"><ele>338.0</ele><time>2026-05-02T06:35:37.789Z</time></trkpt><trkpt lat="43.7451783" lon="12.4152483"><ele>339.6666666666667</ele><time>2026-05-02T06:35:38.792Z</time></trkpt><trkpt lat="43.74523" lon="12.4150533"><ele>341.3333333333333</ele><time>2026-05-02T06:35:39.79Z</time></trkpt><trkpt lat="43.74528" lon="12.4148517"><ele>343.0</ele><time>2026-05-02T06:35:40.786Z</time></trkpt><trkpt lat="43.7453233" lon="12.4146533"><ele>343.0</ele><time>2026-05-02T06:35:41.79Z</time></trkpt><trkpt lat="43.745365" lon="12.414455"><ele>343.0</ele><time>2026-05-02T06:35:42.786Z</time></trkpt><trkpt lat="43.7454067" lon="12.4142467"><ele>343.0</ele><time>2026-05-02T06:35:43.789Z</time></trkpt><trkpt lat="43.7454517" lon="12.4140383"><ele>343.0</ele><time>2026-05-02T06:35:44.79Z</time></trkpt><trkpt lat="43.7455017" lon="12.4138367"><ele>343.0</ele><time>2026-05-02T06:35:45.789Z</time></trkpt><trkpt lat="43.7455617" lon="12.4136433"><ele>343.0</ele><time>2026-05-02T06:35:46.789Z</time></trkpt><trkpt lat="43.7456333" lon="12.4134533"><ele>343.0</ele><time>2026-05-02T06:35:47.789Z</time></trkpt><trkpt lat="43.7457233" lon="12.4132833"><ele>343.0</ele><time>2026-05-02T06:35:48.879Z</time></trkpt><trkpt lat="43.74582" lon="12.413125"><ele>343.0</ele><time>2026-05-02T06:35:49.786Z</time></trkpt><trkpt lat="43.7459267" lon="12.4129683"><ele>341.3333333333333</ele><time>2026-05-02T06:35:50.786Z</time></trkpt><trkpt lat="43.7460333" lon="12.4128117"><ele>339.6666666666667</ele><time>2026-05-02T06:35:51.789Z</time></trkpt><trkpt lat="43.74614" lon="12.412655"><ele>338.0</ele><time>2026-05-02T06:35:52.79Z</time></trkpt><trkpt lat="43.746245" lon="12.4124933"><ele>342.0</ele><time>2026-05-02T06:35:53.789Z</time></trkpt><trkpt lat="43.7463467" lon="12.4123317"><ele>346.0</ele><time>2026-05-02T06:35:54.79Z</time></trkpt><trkpt lat="43.74645" lon="12.412175"><ele>350.0</ele><time>2026-05-02T06:35:55.789Z</time></trkpt><trkpt lat="43.746555" lon="12.4120183"><ele>350.0</ele><time>2026-05-02T06:35:56.786Z</time></trkpt><trkpt lat="43.7466633" lon="12.411865"><ele>350.0</ele><time>2026-05-02T06:35:57.791Z</time></trkpt><trkpt lat="43.746775" lon="12.4117067"><ele>350.0</ele><time>2026-05-02T06:35:58.789Z</time></trkpt><trkpt lat="43.7468833" lon="12.4115583"><ele>351.6666666666667</ele><time>2026-05-02T06:35:59.789Z</time></trkpt><trkpt lat="43.7469917" lon="12.4113983"><ele>353.3333333333333</ele><time>2026-05-02T06:36:00.786Z</time></trkpt><trkpt lat="43.7471" lon="12.4112483"><ele>355.0</ele><time>2026-05-02T06:36:01.79Z</time></trkpt><trkpt lat="43.747215" lon="12.4110917"><ele>355.0</ele><time>2026-05-02T06:36:02.79Z</time></trkpt><trkpt lat="43.74733" lon="12.4109517"><ele>355.0</ele><time>2026-05-02T06:36:03.789Z</time></trkpt><trkpt lat="43.7474383" lon="12.4108117"><ele>355.0</ele><time>2026-05-02T06:36:04.787Z</time></trkpt><trkpt lat="43.7475517" lon="12.4106817"><ele>355.0</ele><time>2026-05-02T06:36:05.787Z</time></trkpt><trkpt lat="43.7476633" lon="12.4105567"><ele>356.75</ele><time>2026-05-02T06:36:06.786Z</time></trkpt><trkpt lat="43.7477583" lon="12.4104283"><ele>358.5</ele><time>2026-05-02T06:36:07.789Z</time></trkpt><trkpt lat="43.74784" lon="12.41028"><ele>360.25</ele><time>2026-05-02T06:36:08.786Z</time></trkpt><trkpt lat="43.74792" lon="12.4101233"><ele>362.0</ele><time>2026-05-02T06:36:09.789Z</time></trkpt><trkpt lat="43.7479933" lon="12.4099667"><ele>362.0</ele><time>2026-05-02T06:36:10.79Z</time></trkpt><trkpt lat="43.7480633" lon="12.4097933"><ele>362.0</ele><time>2026-05-02T06:36:11.789Z</time></trkpt><trkpt lat="43.7481283" lon="12.4096117"><ele>362.0</ele><time>2026-05-02T06:36:12.786Z</time></trkpt><trkpt lat="43.74819" lon="12.4094267"><ele>362.0</ele><time>2026-05-02T06:36:13.786Z</time></trkpt><trkpt lat="43.7482617" lon="12.4092417"><ele>359.6666666666667</ele><time>2026-05-02T06:36:14.789Z</time></trkpt><trkpt lat="43.7483483" lon="12.4090683"><ele>357.3333333333333</ele><time>2026-05-02T06:36:15.789Z</time></trkpt><trkpt lat="43.7484483" lon="12.40891"><ele>355.0</ele><time>2026-05-02T06:36:16.787Z</time></trkpt><trkpt lat="43.7485583" lon="12.40876"><ele>355.0</ele><time>2026-05-02T06:36:17.786Z</time></trkpt><trkpt lat="43.7486783" lon="12.4086283"><ele>355.0</ele><time>2026-05-02T06:36:18.786Z</time></trkpt><trkpt lat="43.7488" lon="12.4084933"><ele>355.0</ele><time>2026-05-02T06:36:19.786Z</time></trkpt><trkpt lat="43.74892" lon="12.4083617"><ele>355.0</ele><time>2026-05-02T06:36:20.787Z</time></trkpt><trkpt lat="43.7490367" lon="12.408235"><ele>355.0</ele><time>2026-05-02T06:36:21.787Z</time></trkpt><trkpt lat="43.749165" lon="12.4081217"><ele>355.0</ele><time>2026-05-02T06:36:22.79Z</time></trkpt><trkpt lat="43.7492983" lon="12.4080217"><ele>356.0</ele><time>2026-05-02T06:36:23.787Z</time></trkpt><trkpt lat="43.7494317" lon="12.4079233"><ele>357.0</ele><time>2026-05-02T06:36:24.789Z</time></trkpt><trkpt lat="43.7495733" lon="12.4078267"><ele>358.0</ele><time>2026-05-02T06:36:25.786Z</time></trkpt><trkpt lat="43.7497133" lon="12.4077367"><ele>358.0</ele><time>2026-05-02T06:36:26.791Z</time></trkpt><trkpt lat="43.7498567" lon="12.40765"><ele>358.0</ele><time>2026-05-02T06:36:27.786Z</time></trkpt><trkpt lat="43.749995" lon="12.4075667"><ele>358.0</ele><time>2026-05-02T06:36:28.787Z</time></trkpt><trkpt lat="43.750135" lon="12.4074767"><ele>356.0</ele><time>2026-05-02T06:36:29.787Z</time></trkpt><trkpt lat="43.7502733" lon="12.40739"><ele>354.0</ele><time>2026-05-02T06:36:30.792Z</time></trkpt><trkpt lat="43.7504083" lon="12.407305"><ele>352.0</ele><time>2026-05-02T06:36:31.786Z</time></trkpt><trkpt lat="43.750535" lon="12.407225"><ele>350.0</ele><time>2026-05-02T06:36:32.787Z</time></trkpt><trkpt lat="43.7506533" lon="12.4071483"><ele>350.0</ele><time>2026-05-02T06:36:33.787Z</time></trkpt><trkpt lat="43.7507633" lon="12.40706"><ele>350.0</ele><time>2026-05-02T06:36:34.788Z</time></trkpt><trkpt lat="43.7508667" lon="12.4069617"><ele>350.0</ele><time>2026-05-02T06:36:35.787Z</time></trkpt><trkpt lat="43.75097" lon="12.40686"><ele>350.0</ele><time>2026-05-02T06:36:36.786Z</time></trkpt><trkpt lat="43.7510633" lon="12.4067517"><ele>351.0</ele><time>2026-05-02T06:36:37.789Z</time></trkpt><trkpt lat="43.7511517" lon="12.40665"><ele>352.0</ele><time>2026-05-02T06:36:38.789Z</time></trkpt><trkpt lat="43.75123" lon="12.4065483"><ele>353.0</ele><time>2026-05-02T06:36:39.789Z</time></trkpt><trkpt lat="43.7513117" lon="12.4064517"><ele>354.0</ele><time>2026-05-02T06:36:40.786Z</time></trkpt><trkpt lat="43.751385" lon="12.40636"><ele>355.0</ele><time>2026-05-02T06:36:41.789Z</time></trkpt><trkpt lat="43.7514533" lon="12.4062733"><ele>355.0</ele><time>2026-05-02T06:36:42.791Z</time></trkpt><trkpt lat="43.7515233" lon="12.4061883"><ele>355.0</ele><time>2026-05-02T06:36:43.791Z</time></trkpt><trkpt lat="43.7516017" lon="12.4060933"><ele>355.0</ele><time>2026-05-02T06:36:44.789Z</time></trkpt><trkpt lat="43.75168" lon="12.4059967"><ele>355.0</ele><time>2026-05-02T06:36:45.789Z</time></trkpt><trkpt lat="43.7517617" lon="12.4058917"><ele>355.0</ele><time>2026-05-02T06:36:46.789Z</time></trkpt><trkpt lat="43.751845" lon="12.4057833"><ele>356.25</ele><time>2026-05-02T06:36:47.789Z</time></trkpt><trkpt lat="43.751935" lon="12.40568"><ele>357.5</ele><time>2026-05-02T06:36:48.789Z</time></trkpt><trkpt lat="43.752035" lon="12.4055783"><ele>358.75</ele><time>2026-05-02T06:36:49.79Z</time></trkpt><trkpt lat="43.7521333" lon="12.4054767"><ele>360.0</ele><time>2026-05-02T06:36:50.791Z</time></trkpt><trkpt lat="43.7522233" lon="12.4053867"><ele>360.0</ele><time>2026-05-02T06:36:51.789Z</time></trkpt><trkpt lat="43.752305" lon="12.4052983"><ele>360.0</ele><time>2026-05-02T06:36:52.79Z</time></trkpt><trkpt lat="43.75238" lon="12.4052117"><ele>360.0</ele><time>2026-05-02T06:36:53.79Z</time></trkpt><trkpt lat="43.7524567" lon="12.4051233"><ele>360.0</ele><time>2026-05-02T06:36:54.789Z</time></trkpt><trkpt lat="43.7525283" lon="12.40504"><ele>360.0</ele><time>2026-05-02T06:36:55.787Z</time></trkpt><trkpt lat="43.7525917" lon="12.4049617"><ele>360.0</ele><time>2026-05-02T06:36:56.79Z</time></trkpt><trkpt lat="43.752645" lon="12.404905"><ele>360.0</ele><time>2026-05-02T06:36:57.789Z</time></trkpt><trkpt lat="43.7526883" lon="12.40483"><ele>360.0</ele><time>2026-05-02T06:36:59.79Z</time></trkpt><trkpt lat="43.7525983" lon="12.4047617"><ele>360.0</ele><time>2026-05-02T06:37:01.789Z</time></trkpt><trkpt lat="43.7525383" lon="12.4047317"><ele>360.0</ele><time>2026-05-02T06:37:02.79Z</time></trkpt><trkpt lat="43.7524717" lon="12.4047017"><ele>360.0</ele><time>2026-05-02T06:37:03.789Z</time></trkpt><trkpt lat="43.7523933" lon="12.4046633"><ele>358.1666666666667</ele><time>2026-05-02T06:37:04.789Z</time></trkpt><trkpt lat="43.7523167" lon="12.404625"><ele>356.3333333333333</ele><time>2026-05-02T06:37:05.789Z</time></trkpt><trkpt lat="43.7522433" lon="12.40458"><ele>354.5</ele><time>2026-05-02T06:37:06.79Z</time></trkpt><trkpt lat="43.752175" lon="12.404535"><ele>352.66666666666663</ele><time>2026-05-02T06:37:07.79Z</time></trkpt><trkpt lat="43.7521133" lon="12.4044833"><ele>350.8333333333333</ele><time>2026-05-02T06:37:08.789Z</time></trkpt><trkpt lat="43.752055" lon="12.4044317"><ele>349.0</ele><time>2026-05-02T06:37:09.786Z</time></trkpt><trkpt lat="43.7519383" lon="12.4043717"><ele>348.0</ele><time>2026-05-02T06:37:11.792Z</time></trkpt><trkpt lat="43.7518167" lon="12.4043783"><ele>347.0</ele><time>2026-05-02T06:37:13.79Z</time></trkpt><trkpt lat="43.7517467" lon="12.4043967"><ele>346.0</ele><time>2026-05-02T06:37:14.788Z</time></trkpt><trkpt lat="43.7516767" lon="12.4044267"><ele>345.0</ele><time>2026-05-02T06:37:15.791Z</time></trkpt><trkpt lat="43.75161" lon="12.4044533"><ele>344.0</ele><time>2026-05-02T06:37:16.79Z</time></trkpt><trkpt lat="43.751545" lon="12.4044767"><ele>343.0</ele><time>2026-05-02T06:37:17.79Z</time></trkpt><trkpt lat="43.751435" lon="12.4044833"><ele>343.0</ele><time>2026-05-02T06:37:19.789Z</time></trkpt><trkpt lat="43.7513783" lon="12.4044183"><ele>343.0</ele><time>2026-05-02T06:37:21.789Z</time></trkpt><trkpt lat="43.7513533" lon="12.4042933"><ele>343.0</ele><time>2026-05-02T06:37:23.789Z</time></trkpt><trkpt lat="43.7513217" lon="12.4041417"><ele>343.0</ele><time>2026-05-02T06:37:25.791Z</time></trkpt><trkpt lat="43.751275" lon="12.403975"><ele>343.0</ele><time>2026-05-02T06:37:27.786Z</time></trkpt><trkpt lat="43.7512517" lon="12.4038833"><ele>342.5</ele><time>2026-05-02T06:37:28.788Z</time></trkpt><trkpt lat="43.7512233" lon="12.4037817"><ele>342.0</ele><time>2026-05-02T06:37:29.788Z</time></trkpt><trkpt lat="43.7511917" lon="12.403675"><ele>341.5</ele><time>2026-05-02T06:37:30.786Z</time></trkpt><trkpt lat="43.7511583" lon="12.4035667"><ele>341.0</ele><time>2026-05-02T06:37:31.786Z</time></trkpt><trkpt lat="43.7511233" lon="12.4034533"><ele>340.5</ele><time>2026-05-02T06:37:32.788Z</time></trkpt><trkpt lat="43.7510883" lon="12.403345"><ele>340.0</ele><time>2026-05-02T06:37:33.786Z</time></trkpt><trkpt lat="43.7510567" lon="12.4032383"><ele>339.8333333333333</ele><time>2026-05-02T06:37:34.786Z</time></trkpt><trkpt lat="43.7510267" lon="12.4031233"><ele>339.66666666666663</ele><time>2026-05-02T06:37:35.788Z</time></trkpt><trkpt lat="43.7509967" lon="12.4030117"><ele>339.5</ele><time>2026-05-02T06:37:36.786Z</time></trkpt><trkpt lat="43.7509617" lon="12.4029167"><ele>339.3333333333333</ele><time>2026-05-02T06:37:37.788Z</time></trkpt><trkpt lat="43.7509167" lon="12.4028317"><ele>339.1666666666667</ele><time>2026-05-02T06:37:38.791Z</time></trkpt><trkpt lat="43.750865" lon="12.40276"><ele>339.0</ele><time>2026-05-02T06:37:39.789Z</time></trkpt><trkpt lat="43.7507917" lon="12.4026983"><ele>342.6666666666667</ele><time>2026-05-02T06:37:40.787Z</time></trkpt><trkpt lat="43.75072" lon="12.402645"><ele>346.3333333333333</ele><time>2026-05-02T06:37:41.79Z</time></trkpt><trkpt lat="43.7506367" lon="12.4025933"><ele>350.0</ele><time>2026-05-02T06:37:42.789Z</time></trkpt><trkpt lat="43.750555" lon="12.4025383"><ele>353.66666666666663</ele><time>2026-05-02T06:37:43.79Z</time></trkpt><trkpt lat="43.7504833" lon="12.4024817"><ele>357.3333333333333</ele><time>2026-05-02T06:37:44.789Z</time></trkpt><trkpt lat="43.7504183" lon="12.4024217"><ele>361.0</ele><time>2026-05-02T06:37:45.791Z</time></trkpt><trkpt lat="43.7503683" lon="12.402355"><ele>361.0</ele><time>2026-05-02T06:37:46.789Z</time></trkpt><trkpt lat="43.7503317" lon="12.402265"><ele>361.0</ele><time>2026-05-02T06:37:47.79Z</time></trkpt><trkpt lat="43.7502983" lon="12.4021667"><ele>361.0</ele><time>2026-05-02T06:37:48.79Z</time></trkpt><trkpt lat="43.7502633" lon="12.4020583"><ele>361.0</ele><time>2026-05-02T06:37:49.786Z</time></trkpt><trkpt lat="43.7502233" lon="12.40194"><ele>361.0</ele><time>2026-05-02T06:37:50.786Z</time></trkpt><trkpt lat="43.75018" lon="12.4018167"><ele>361.0</ele><time>2026-05-02T06:37:51.786Z</time></trkpt><trkpt lat="43.7501367" lon="12.4017033"><ele>361.8333333333333</ele><time>2026-05-02T06:37:52.786Z</time></trkpt><trkpt lat="43.7501067" lon="12.401605"><ele>362.66666666666663</ele><time>2026-05-02T06:37:53.788Z</time></trkpt><trkpt lat="43.7500933" lon="12.4015133"><ele>363.5</ele><time>2026-05-02T06:37:54.79Z</time></trkpt><trkpt lat="43.7501017" lon="12.4013367"><ele>364.3333333333333</ele><time>2026-05-02T06:37:56.79Z</time></trkpt><trkpt lat="43.7501117" lon="12.40124"><ele>365.1666666666667</ele><time>2026-05-02T06:37:57.786Z</time></trkpt><trkpt lat="43.7501117" lon="12.40113"><ele>366.0</ele><time>2026-05-02T06:37:58.788Z</time></trkpt><trkpt lat="43.7501033" lon="12.401005"><ele>366.8</ele><time>2026-05-02T06:37:59.788Z</time></trkpt><trkpt lat="43.7500833" lon="12.4008717"><ele>367.6</ele><time>2026-05-02T06:38:00.787Z</time></trkpt><trkpt lat="43.7500633" lon="12.4007317"><ele>368.4</ele><time>2026-05-02T06:38:01.789Z</time></trkpt><trkpt lat="43.7500533" lon="12.40059"><ele>369.2</ele><time>2026-05-02T06:38:02.789Z</time></trkpt><trkpt lat="43.75005" lon="12.4004533"><ele>370.0</ele><time>2026-05-02T06:38:03.789Z</time></trkpt><trkpt lat="43.7500533" lon="12.40033"><ele>371.0</ele><time>2026-05-02T06:38:04.787Z</time></trkpt><trkpt lat="43.750075" lon="12.4002183"><ele>372.0</ele><time>2026-05-02T06:38:05.788Z</time></trkpt><trkpt lat="43.75011" lon="12.4001167"><ele>373.0</ele><time>2026-05-02T06:38:06.788Z</time></trkpt><trkpt lat="43.7501467" lon="12.4000317"><ele>374.0</ele><time>2026-05-02T06:38:07.787Z</time></trkpt><trkpt lat="43.75016" lon="12.3998733"><ele>375.0</ele><time>2026-05-02T06:38:09.79Z</time></trkpt><trkpt lat="43.75011" lon="12.3997133"><ele>378.2</ele><time>2026-05-02T06:38:11.788Z</time></trkpt><trkpt lat="43.750065" lon="12.3996167"><ele>381.4</ele><time>2026-05-02T06:38:12.787Z</time></trkpt><trkpt lat="43.7500233" lon="12.3995083"><ele>384.6</ele><time>2026-05-02T06:38:13.79Z</time></trkpt><trkpt lat="43.7499783" lon="12.3994"><ele>387.8</ele><time>2026-05-02T06:38:14.79Z</time></trkpt><trkpt lat="43.7499333" lon="12.3992867"><ele>391.0</ele><time>2026-05-02T06:38:15.79Z</time></trkpt><trkpt lat="43.7498933" lon="12.3991667"><ele>391.0</ele><time>2026-05-02T06:38:16.79Z</time></trkpt><trkpt lat="43.7498633" lon="12.39904"><ele>391.0</ele><time>2026-05-02T06:38:17.787Z</time></trkpt><trkpt lat="43.749835" lon="12.398905"><ele>391.0</ele><time>2026-05-02T06:38:18.79Z</time></trkpt><trkpt lat="43.7498067" lon="12.398765"><ele>391.0</ele><time>2026-05-02T06:38:19.791Z</time></trkpt><trkpt lat="43.7497767" lon="12.39862"><ele>391.0</ele><time>2026-05-02T06:38:20.79Z</time></trkpt><trkpt lat="43.7497433" lon="12.398475"><ele>396.0</ele><time>2026-05-02T06:38:21.79Z</time></trkpt><trkpt lat="43.7497083" lon="12.39833"><ele>401.0</ele><time>2026-05-02T06:38:22.787Z</time></trkpt><trkpt lat="43.749675" lon="12.3981833"><ele>406.0</ele><time>2026-05-02T06:38:23.787Z</time></trkpt><trkpt lat="43.7496333" lon="12.3980383"><ele>411.0</ele><time>2026-05-02T06:38:24.787Z</time></trkpt><trkpt lat="43.7495933" lon="12.3978883"><ele>413.5</ele><time>2026-05-02T06:38:25.791Z</time></trkpt><trkpt lat="43.7495483" lon="12.3977317"><ele>416.0</ele><time>2026-05-02T06:38:26.786Z</time></trkpt><trkpt lat="43.7495067" lon="12.3975817"><ele>418.5</ele><time>2026-05-02T06:38:27.787Z</time></trkpt><trkpt lat="43.74946" lon="12.3974333"><ele>421.0</ele><time>2026-05-02T06:38:28.787Z</time></trkpt><trkpt lat="43.7494117" lon="12.39729"><ele>415.33333333333337</ele><time>2026-05-02T06:38:29.788Z</time></trkpt><trkpt lat="43.7493667" lon="12.39717"><ele>409.6666666666667</ele><time>2026-05-02T06:38:30.789Z</time></trkpt><trkpt lat="43.7493317" lon="12.3970567"><ele>404.0</ele><time>2026-05-02T06:38:31.788Z</time></trkpt><trkpt lat="43.7493033" lon="12.396955"><ele>398.33333333333337</ele><time>2026-05-02T06:38:32.789Z</time></trkpt><trkpt lat="43.7492833" lon="12.3968517"><ele>392.6666666666667</ele><time>2026-05-02T06:38:33.788Z</time></trkpt><trkpt lat="43.74929" lon="12.3967567"><ele>387.0</ele><time>2026-05-02T06:38:34.788Z</time></trkpt><trkpt lat="43.7493117" lon="12.39667"><ele>391.8</ele><time>2026-05-02T06:38:35.788Z</time></trkpt><trkpt lat="43.7493983" lon="12.3965633"><ele>396.6</ele><time>2026-05-02T06:38:37.786Z</time></trkpt><trkpt lat="43.7494667" lon="12.39654"><ele>401.40000000000003</ele><time>2026-05-02T06:38:38.79Z</time></trkpt><trkpt lat="43.7495583" lon="12.396535"><ele>406.20000000000005</ele><time>2026-05-02T06:38:39.789Z</time></trkpt><trkpt lat="43.7496533" lon="12.396535"><ele>411.0</ele><time>2026-05-02T06:38:40.791Z</time></trkpt><trkpt lat="43.7497533" lon="12.3965333"><ele>411.0</ele><time>2026-05-02T06:38:41.79Z</time></trkpt><trkpt lat="43.7498467" lon="12.3965283"><ele>411.0</ele><time>2026-05-02T06:38:42.791Z</time></trkpt><trkpt lat="43.7499333" lon="12.3965083"><ele>411.0</ele><time>2026-05-02T06:38:43.791Z</time></trkpt><trkpt lat="43.7500083" lon="12.3964717"><ele>411.0</ele><time>2026-05-02T06:38:44.789Z</time></trkpt><trkpt lat="43.7500683" lon="12.3964167"><ele>411.0</ele><time>2026-05-02T06:38:45.79Z</time></trkpt><trkpt lat="43.7501217" lon="12.3963483"><ele>411.0</ele><time>2026-05-02T06:38:46.79Z</time></trkpt><trkpt lat="43.7501617" lon="12.3962517"><ele>411.20000000000005</ele><time>2026-05-02T06:38:47.79Z</time></trkpt><trkpt lat="43.75018" lon="12.39614"><ele>411.40000000000003</ele><time>2026-05-02T06:38:48.79Z</time></trkpt><trkpt lat="43.7501717" lon="12.3960083"><ele>411.6</ele><time>2026-05-02T06:38:49.79Z</time></trkpt><trkpt lat="43.750155" lon="12.395875"><ele>411.8</ele><time>2026-05-02T06:38:50.789Z</time></trkpt><trkpt lat="43.750115" lon="12.3957433"><ele>412.0</ele><time>2026-05-02T06:38:51.789Z</time></trkpt><trkpt lat="43.7500667" lon="12.3956167"><ele>415.0</ele><time>2026-05-02T06:38:52.789Z</time></trkpt><trkpt lat="43.750005" lon="12.3954933"><ele>418.0</ele><time>2026-05-02T06:38:53.791Z</time></trkpt><trkpt lat="43.7499317" lon="12.395375"><ele>421.00000000000006</ele><time>2026-05-02T06:38:54.79Z</time></trkpt><trkpt lat="43.7498533" lon="12.395265"><ele>424.0</ele><time>2026-05-02T06:38:55.789Z</time></trkpt><trkpt lat="43.7497733" lon="12.39515"><ele>427.0</ele><time>2026-05-02T06:38:56.785Z</time></trkpt><trkpt lat="43.7496983" lon="12.39504"><ele>427.0</ele><time>2026-05-02T06:38:57.785Z</time></trkpt><trkpt lat="43.7496317" lon="12.3949317"><ele>427.00000000000006</ele><time>2026-05-02T06:38:58.786Z</time></trkpt><trkpt lat="43.749575" lon="12.3948167"><ele>427.00000000000006</ele><time>2026-05-02T06:38:59.786Z</time></trkpt><trkpt lat="43.7495283" lon="12.3947"><ele>427.0</ele><time>2026-05-02T06:39:00.785Z</time></trkpt><trkpt lat="43.749495" lon="12.39458"><ele>427.0</ele><time>2026-05-02T06:39:01.786Z</time></trkpt><trkpt lat="43.7494767" lon="12.3944617"><ele>426.6666666666667</ele><time>2026-05-02T06:39:02.786Z</time></trkpt><trkpt lat="43.7494783" lon="12.3943467"><ele>426.33333333333337</ele><time>2026-05-02T06:39:03.785Z</time></trkpt><trkpt lat="43.7495" lon="12.3942383"><ele>426.0</ele><time>2026-05-02T06:39:04.786Z</time></trkpt><trkpt lat="43.7495367" lon="12.39414"><ele>425.66666666666663</ele><time>2026-05-02T06:39:05.787Z</time></trkpt><trkpt lat="43.7495883" lon="12.3940433"><ele>425.3333333333333</ele><time>2026-05-02T06:39:06.785Z</time></trkpt><trkpt lat="43.7496667" lon="12.393955"><ele>425.0</ele><time>2026-05-02T06:39:07.785Z</time></trkpt><trkpt lat="43.74975" lon="12.3938717"><ele>422.99999999999994</ele><time>2026-05-02T06:39:08.786Z</time></trkpt><trkpt lat="43.7498283" lon="12.393795"><ele>421.0</ele><time>2026-05-02T06:39:09.787Z</time></trkpt><trkpt lat="43.7499067" lon="12.393725"><ele>419.0</ele><time>2026-05-02T06:39:10.786Z</time></trkpt><trkpt lat="43.7499783" lon="12.39365"><ele>417.0</ele><time>2026-05-02T06:39:11.787Z</time></trkpt><trkpt lat="43.7500283" lon="12.39357"><ele>414.99999999999994</ele><time>2026-05-02T06:39:12.79Z</time></trkpt><trkpt lat="43.7500533" lon="12.3934817"><ele>413.0</ele><time>2026-05-02T06:39:13.789Z</time></trkpt><trkpt lat="43.7500483" lon="12.3933817"><ele>413.0</ele><time>2026-05-02T06:39:14.785Z</time></trkpt><trkpt lat="43.7500267" lon="12.3932883"><ele>413.0</ele><time>2026-05-02T06:39:15.79Z</time></trkpt><trkpt lat="43.749975" lon="12.3931983"><ele>413.0</ele><time>2026-05-02T06:39:16.79Z</time></trkpt><trkpt lat="43.7499067" lon="12.3931167"><ele>413.0</ele><time>2026-05-02T06:39:17.788Z</time></trkpt><trkpt lat="43.749815" lon="12.3930333"><ele>413.0</ele><time>2026-05-02T06:39:18.785Z</time></trkpt><trkpt lat="43.7497267" lon="12.392945"><ele>415.0</ele><time>2026-05-02T06:39:19.789Z</time></trkpt><trkpt lat="43.7496433" lon="12.3928583"><ele>417.0</ele><time>2026-05-02T06:39:20.789Z</time></trkpt><trkpt lat="43.7495667" lon="12.39277"><ele>419.0</ele><time>2026-05-02T06:39:21.79Z</time></trkpt><trkpt lat="43.7494867" lon="12.392685"><ele>421.0</ele><time>2026-05-02T06:39:22.79Z</time></trkpt><trkpt lat="43.749405" lon="12.3926033"><ele>423.0</ele><time>2026-05-02T06:39:23.79Z</time></trkpt><trkpt lat="43.7493283" lon="12.392515"><ele>419.1666666666667</ele><time>2026-05-02T06:39:24.789Z</time></trkpt><trkpt lat="43.749265" lon="12.39242"><ele>415.33333333333337</ele><time>2026-05-02T06:39:25.79Z</time></trkpt><trkpt lat="43.749225" lon="12.3923267"><ele>411.5</ele><time>2026-05-02T06:39:26.786Z</time></trkpt><trkpt lat="43.74919" lon="12.3922233"><ele>407.6666666666667</ele><time>2026-05-02T06:39:27.786Z</time></trkpt><trkpt lat="43.7491783" lon="12.3921067"><ele>403.83333333333337</ele><time>2026-05-02T06:39:28.787Z</time></trkpt><trkpt lat="43.7491833" lon="12.3919633"><ele>400.0</ele><time>2026-05-02T06:39:29.786Z</time></trkpt><trkpt lat="43.7492017" lon="12.391815"><ele>399.5</ele><time>2026-05-02T06:39:30.785Z</time></trkpt><trkpt lat="43.7492267" lon="12.39166"><ele>399.0</ele><time>2026-05-02T06:39:31.786Z</time></trkpt><trkpt lat="43.74925" lon="12.3914983"><ele>398.5</ele><time>2026-05-02T06:39:32.786Z</time></trkpt><trkpt lat="43.74928" lon="12.3913317"><ele>398.0</ele><time>2026-05-02T06:39:33.786Z</time></trkpt><trkpt lat="43.74931" lon="12.3911683"><ele>397.75</ele><time>2026-05-02T06:39:34.79Z</time></trkpt><trkpt lat="43.74933" lon="12.391015"><ele>397.5</ele><time>2026-05-02T06:39:35.789Z</time></trkpt><trkpt lat="43.7493417" lon="12.39086"><ele>397.25</ele><time>2026-05-02T06:39:36.789Z</time></trkpt><trkpt lat="43.7493533" lon="12.390705"><ele>397.0</ele><time>2026-05-02T06:39:37.788Z</time></trkpt><trkpt lat="43.7493683" lon="12.3905467"><ele>401.5</ele><time>2026-05-02T06:39:38.786Z</time></trkpt><trkpt lat="43.7493867" lon="12.3903867"><ele>406.0</ele><time>2026-05-02T06:39:39.79Z</time></trkpt><trkpt lat="43.7494133" lon="12.39023"><ele>410.5</ele><time>2026-05-02T06:39:40.789Z</time></trkpt><trkpt lat="43.74945" lon="12.390085"><ele>415.0</ele><time>2026-05-02T06:39:41.789Z</time></trkpt><trkpt lat="43.7495033" lon="12.3899467"><ele>415.0</ele><time>2026-05-02T06:39:42.789Z</time></trkpt><trkpt lat="43.7495583" lon="12.389815"><ele>415.0</ele><time>2026-05-02T06:39:43.789Z</time></trkpt><trkpt lat="43.74961" lon="12.38969"><ele>415.0</ele><time>2026-05-02T06:39:44.786Z</time></trkpt><trkpt lat="43.7496367" lon="12.389555"><ele>415.0</ele><time>2026-05-02T06:39:45.789Z</time></trkpt><trkpt lat="43.7496483" lon="12.389425"><ele>415.0</ele><time>2026-05-02T06:39:46.789Z</time></trkpt><trkpt lat="43.74964" lon="12.389305"><ele>415.1666666666667</ele><time>2026-05-02T06:39:47.789Z</time></trkpt><trkpt lat="43.7496167" lon="12.389205"><ele>415.33333333333337</ele><time>2026-05-02T06:39:48.789Z</time></trkpt><trkpt lat="43.749575" lon="12.3891217"><ele>415.5</ele><time>2026-05-02T06:39:49.789Z</time></trkpt><trkpt lat="43.7495233" lon="12.3890583"><ele>415.66666666666663</ele><time>2026-05-02T06:39:50.791Z</time></trkpt><trkpt lat="43.7494267" lon="12.3889933"><ele>415.8333333333333</ele><time>2026-05-02T06:39:52.789Z</time></trkpt><trkpt lat="43.7493633" lon="12.3890217"><ele>416.0</ele><time>2026-05-02T06:39:53.786Z</time></trkpt><trkpt lat="43.7492783" lon="12.3890583"><ele>415.99999999999994</ele><time>2026-05-02T06:39:54.785Z</time></trkpt><trkpt lat="43.7492083" lon="12.38907"><ele>416.0</ele><time>2026-05-02T06:39:55.786Z</time></trkpt><trkpt lat="43.7491383" lon="12.3890633"><ele>416.0</ele><time>2026-05-02T06:39:56.786Z</time></trkpt><trkpt lat="43.7490717" lon="12.3890533"><ele>416.0</ele><time>2026-05-02T06:39:57.786Z</time></trkpt><trkpt lat="43.748995" lon="12.3889333"><ele>415.99999999999994</ele><time>2026-05-02T06:39:59.786Z</time></trkpt><trkpt lat="43.74898" lon="12.3888383"><ele>416.0</ele><time>2026-05-02T06:40:00.785Z</time></trkpt><trkpt lat="43.74899" lon="12.3887"><ele>417.6</ele><time>2026-05-02T06:40:01.786Z</time></trkpt><trkpt lat="43.7489867" lon="12.388555"><ele>419.20000000000005</ele><time>2026-05-02T06:40:02.787Z</time></trkpt><trkpt lat="43.74896" lon="12.3884133"><ele>420.79999999999995</ele><time>2026-05-02T06:40:03.789Z</time></trkpt><trkpt lat="43.7489083" lon="12.3882767"><ele>422.4</ele><time>2026-05-02T06:40:04.789Z</time></trkpt><trkpt lat="43.7488567" lon="12.3881433"><ele>424.0</ele><time>2026-05-02T06:40:05.789Z</time></trkpt><trkpt lat="43.7488083" lon="12.3880183"><ele>425.00000000000006</ele><time>2026-05-02T06:40:06.789Z</time></trkpt><trkpt lat="43.7487533" lon="12.3879083"><ele>426.0</ele><time>2026-05-02T06:40:07.789Z</time></trkpt><trkpt lat="43.7486967" lon="12.3878283"><ele>427.0</ele><time>2026-05-02T06:40:08.789Z</time></trkpt><trkpt lat="43.7486333" lon="12.3877717"><ele>428.0</ele><time>2026-05-02T06:40:09.79Z</time></trkpt><trkpt lat="43.7485583" lon="12.387755"><ele>429.00000000000006</ele><time>2026-05-02T06:40:10.789Z</time></trkpt><trkpt lat="43.7484783" lon="12.387765"><ele>430.0</ele><time>2026-05-02T06:40:11.79Z</time></trkpt><trkpt lat="43.7483917" lon="12.3877817"><ele>430.00000000000006</ele><time>2026-05-02T06:40:12.789Z</time></trkpt><trkpt lat="43.748315" lon="12.3877733"><ele>430.0</ele><time>2026-05-02T06:40:13.79Z</time></trkpt><trkpt lat="43.74825" lon="12.38775"><ele>430.0</ele><time>2026-05-02T06:40:14.789Z</time></trkpt><trkpt lat="43.7481683" lon="12.38763"><ele>430.0</ele><time>2026-05-02T06:40:16.789Z</time></trkpt><trkpt lat="43.748145" lon="12.3875317"><ele>430.00000000000006</ele><time>2026-05-02T06:40:17.789Z</time></trkpt><trkpt lat="43.748125" lon="12.3874183"><ele>430.0</ele><time>2026-05-02T06:40:18.79Z</time></trkpt><trkpt lat="43.7480983" lon="12.38728"><ele>432.4</ele><time>2026-05-02T06:40:19.789Z</time></trkpt><trkpt lat="43.7480733" lon="12.3871333"><ele>434.8</ele><time>2026-05-02T06:40:20.788Z</time></trkpt><trkpt lat="43.74804" lon="12.3869983"><ele>437.20000000000005</ele><time>2026-05-02T06:40:21.789Z</time></trkpt><trkpt lat="43.74801" lon="12.3868617"><ele>439.6</ele><time>2026-05-02T06:40:22.789Z</time></trkpt><trkpt lat="43.7479833" lon="12.3867217"><ele>442.0</ele><time>2026-05-02T06:40:23.79Z</time></trkpt><trkpt lat="43.747965" lon="12.3865783"><ele>442.00000000000006</ele><time>2026-05-02T06:40:24.787Z</time></trkpt><trkpt lat="43.7479633" lon="12.3864467"><ele>442.0</ele><time>2026-05-02T06:40:25.789Z</time></trkpt><trkpt lat="43.747975" lon="12.3863317"><ele>442.0</ele><time>2026-05-02T06:40:26.789Z</time></trkpt><trkpt lat="43.7479983" lon="12.3862317"><ele>442.0</ele><time>2026-05-02T06:40:27.789Z</time></trkpt><trkpt lat="43.748035" lon="12.3861567"><ele>442.00000000000006</ele><time>2026-05-02T06:40:28.786Z</time></trkpt><trkpt lat="43.7480933" lon="12.3860983"><ele>442.0</ele><time>2026-05-02T06:40:29.79Z</time></trkpt><trkpt lat="43.74816" lon="12.386045"><ele>442.0</ele><time>2026-05-02T06:40:30.789Z</time></trkpt><trkpt lat="43.748245" lon="12.3860017"><ele>442.00000000000006</ele><time>2026-05-02T06:40:31.789Z</time></trkpt><trkpt lat="43.7483517" lon="12.3859567"><ele>442.00000000000006</ele><time>2026-05-02T06:40:32.789Z</time></trkpt><trkpt lat="43.7484533" lon="12.3859"><ele>442.0</ele><time>2026-05-02T06:40:33.79Z</time></trkpt><trkpt lat="43.7485483" lon="12.3858333"><ele>442.0</ele><time>2026-05-02T06:40:34.789Z</time></trkpt><trkpt lat="43.7486433" lon="12.3857467"><ele>446.40000000000003</ele><time>2026-05-02T06:40:35.787Z</time></trkpt><trkpt lat="43.7487283" lon="12.3856517"><ele>450.80000000000007</ele><time>2026-05-02T06:40:36.787Z</time></trkpt><trkpt lat="43.7488" lon="12.3855417"><ele>455.2</ele><time>2026-05-02T06:40:37.786Z</time></trkpt><trkpt lat="43.7488533" lon="12.3854317"><ele>459.6</ele><time>2026-05-02T06:40:38.788Z</time></trkpt><trkpt lat="43.7488867" lon="12.3853117"><ele>464.0</ele><time>2026-05-02T06:40:39.79Z</time></trkpt><trkpt lat="43.7489017" lon="12.3851817"><ele>464.2</ele><time>2026-05-02T06:40:40.789Z</time></trkpt><trkpt lat="43.748895" lon="12.3850467"><ele>464.4</ele><time>2026-05-02T06:40:41.789Z</time></trkpt><trkpt lat="43.748885" lon="12.384905"><ele>464.6</ele><time>2026-05-02T06:40:42.79Z</time></trkpt><trkpt lat="43.7488717" lon="12.3847583"><ele>464.8</ele><time>2026-05-02T06:40:43.789Z</time></trkpt><trkpt lat="43.7488567" lon="12.384615"><ele>465.0</ele><time>2026-05-02T06:40:44.789Z</time></trkpt><trkpt lat="43.7488383" lon="12.38448"><ele>464.5</ele><time>2026-05-02T06:40:45.789Z</time></trkpt><trkpt lat="43.74883" lon="12.3843633"><ele>464.0</ele><time>2026-05-02T06:40:46.789Z</time></trkpt><trkpt lat="43.7488317" lon="12.3842567"><ele>463.5</ele><time>2026-05-02T06:40:47.789Z</time></trkpt><trkpt lat="43.7488867" lon="12.3841317"><ele>463.0</ele><time>2026-05-02T06:40:49.789Z</time></trkpt><trkpt lat="43.748985" lon="12.3840883"><ele>462.5</ele><time>2026-05-02T06:40:51.789Z</time></trkpt><trkpt lat="43.7490533" lon="12.3840917"><ele>462.0</ele><time>2026-05-02T06:40:52.786Z</time></trkpt><trkpt lat="43.7491383" lon="12.3841067"><ele>462.0</ele><time>2026-05-02T06:40:53.789Z</time></trkpt><trkpt lat="43.7492333" lon="12.3841417"><ele>462.00000000000006</ele><time>2026-05-02T06:40:54.791Z</time></trkpt><trkpt lat="43.7493333" lon="12.38422"><ele>462.00000000000006</ele><time>2026-05-02T06:40:55.79Z</time></trkpt><trkpt lat="43.7494367" lon="12.3842917"><ele>462.0</ele><time>2026-05-02T06:40:56.786Z</time></trkpt><trkpt lat="43.74954" lon="12.384365"><ele>462.0</ele><time>2026-05-02T06:40:57.789Z</time></trkpt><trkpt lat="43.74965" lon="12.38443"><ele>460.5</ele><time>2026-05-02T06:40:58.789Z</time></trkpt><trkpt lat="43.7497617" lon="12.3844983"><ele>459.0</ele><time>2026-05-02T06:40:59.79Z</time></trkpt><trkpt lat="43.74987" lon="12.384575"><ele>457.5</ele><time>2026-05-02T06:41:00.786Z</time></trkpt><trkpt lat="43.7499833" lon="12.3846617"><ele>456.0</ele><time>2026-05-02T06:41:01.787Z</time></trkpt><trkpt lat="43.7500917" lon="12.3847633"><ele>456.25</ele><time>2026-05-02T06:41:02.788Z</time></trkpt><trkpt lat="43.7501983" lon="12.3848717"><ele>456.5</ele><time>2026-05-02T06:41:03.789Z</time></trkpt><trkpt lat="43.7503033" lon="12.384985"><ele>456.75</ele><time>2026-05-02T06:41:04.789Z</time></trkpt><trkpt lat="43.7504033" lon="12.3851"><ele>457.0</ele><time>2026-05-02T06:41:05.789Z</time></trkpt><trkpt lat="43.750505" lon="12.3852133"><ele>457.0</ele><time>2026-05-02T06:41:06.786Z</time></trkpt><trkpt lat="43.7505983" lon="12.385325"><ele>457.0</ele><time>2026-05-02T06:41:07.787Z</time></trkpt><trkpt lat="43.7506967" lon="12.3854183"><ele>457.0</ele><time>2026-05-02T06:41:08.788Z</time></trkpt><trkpt lat="43.7507933" lon="12.385515"><ele>457.0</ele><time>2026-05-02T06:41:09.787Z</time></trkpt><trkpt lat="43.7508817" lon="12.3856017"><ele>458.33333333333337</ele><time>2026-05-02T06:41:10.789Z</time></trkpt><trkpt lat="43.750965" lon="12.3856683"><ele>459.6666666666667</ele><time>2026-05-02T06:41:11.787Z</time></trkpt><trkpt lat="43.751045" lon="12.38571"><ele>461.0</ele><time>2026-05-02T06:41:12.789Z</time></trkpt><trkpt lat="43.7511183" lon="12.3857167"><ele>462.33333333333337</ele><time>2026-05-02T06:41:13.789Z</time></trkpt><trkpt lat="43.751185" lon="12.3856917"><ele>463.6666666666667</ele><time>2026-05-02T06:41:14.79Z</time></trkpt><trkpt lat="43.75125" lon="12.385635"><ele>465.0</ele><time>2026-05-02T06:41:15.789Z</time></trkpt><trkpt lat="43.7513067" lon="12.38554"><ele>464.6</ele><time>2026-05-02T06:41:16.789Z</time></trkpt><trkpt lat="43.7513467" lon="12.3854167"><ele>464.2</ele><time>2026-05-02T06:41:17.791Z</time></trkpt><trkpt lat="43.7513717" lon="12.3852867"><ele>463.79999999999995</ele><time>2026-05-02T06:41:18.789Z</time></trkpt><trkpt lat="43.75137" lon="12.3851417"><ele>463.4</ele><time>2026-05-02T06:41:19.789Z</time></trkpt><trkpt lat="43.7513417" lon="12.3849867"><ele>463.0</ele><time>2026-05-02T06:41:20.789Z</time></trkpt><trkpt lat="43.7512983" lon="12.3848367"><ele>463.0</ele><time>2026-05-02T06:41:21.79Z</time></trkpt><trkpt lat="43.7512567" lon="12.3847"><ele>462.99999999999994</ele><time>2026-05-02T06:41:22.789Z</time></trkpt><trkpt lat="43.7512117" lon="12.3845683"><ele>462.99999999999994</ele><time>2026-05-02T06:41:23.791Z</time></trkpt><trkpt lat="43.7511783" lon="12.38444"><ele>463.0</ele><time>2026-05-02T06:41:24.789Z</time></trkpt><trkpt lat="43.7511533" lon="12.3843067"><ele>463.0</ele><time>2026-05-02T06:41:25.79Z</time></trkpt><trkpt lat="43.7511467" lon="12.3841683"><ele>464.0</ele><time>2026-05-02T06:41:26.79Z</time></trkpt><trkpt lat="43.7511533" lon="12.3840233"><ele>465.0</ele><time>2026-05-02T06:41:27.785Z</time></trkpt><trkpt lat="43.7511717" lon="12.3838733"><ele>466.0</ele><time>2026-05-02T06:41:28.79Z</time></trkpt><trkpt lat="43.7512033" lon="12.3837183"><ele>467.0</ele><time>2026-05-02T06:41:29.789Z</time></trkpt><trkpt lat="43.7512383" lon="12.3835567"><ele>467.25</ele><time>2026-05-02T06:41:30.789Z</time></trkpt><trkpt lat="43.7512717" lon="12.38339"><ele>467.5</ele><time>2026-05-02T06:41:31.789Z</time></trkpt><trkpt lat="43.7513083" lon="12.3832167"><ele>467.75</ele><time>2026-05-02T06:41:32.789Z</time></trkpt><trkpt lat="43.7513433" lon="12.3830367"><ele>468.0</ele><time>2026-05-02T06:41:33.786Z</time></trkpt><trkpt lat="43.7513717" lon="12.3828567"><ele>468.25</ele><time>2026-05-02T06:41:34.786Z</time></trkpt><trkpt lat="43.7513983" lon="12.3826867"><ele>468.5</ele><time>2026-05-02T06:41:35.786Z</time></trkpt><trkpt lat="43.751425" lon="12.3825283"><ele>468.75</ele><time>2026-05-02T06:41:36.786Z</time></trkpt><trkpt lat="43.7514583" lon="12.3823817"><ele>469.0</ele><time>2026-05-02T06:41:37.786Z</time></trkpt><trkpt lat="43.7514983" lon="12.3822417"><ele>470.4</ele><time>2026-05-02T06:41:38.79Z</time></trkpt><trkpt lat="43.751545" lon="12.3821067"><ele>471.79999999999995</ele><time>2026-05-02T06:41:39.785Z</time></trkpt><trkpt lat="43.7515983" lon="12.38198"><ele>473.20000000000005</ele><time>2026-05-02T06:41:40.788Z</time></trkpt><trkpt lat="43.751645" lon="12.38186"><ele>474.6</ele><time>2026-05-02T06:41:41.787Z</time></trkpt><trkpt lat="43.7516667" lon="12.3817467"><ele>476.0</ele><time>2026-05-02T06:41:42.787Z</time></trkpt><trkpt lat="43.7516633" lon="12.3816433"><ele>475.99999999999994</ele><time>2026-05-02T06:41:43.788Z</time></trkpt><trkpt lat="43.7516333" lon="12.38155"><ele>476.0</ele><time>2026-05-02T06:41:44.79Z</time></trkpt><trkpt lat="43.7515817" lon="12.3814633"><ele>476.0</ele><time>2026-05-02T06:41:45.789Z</time></trkpt><trkpt lat="43.7515167" lon="12.3813767"><ele>476.0</ele><time>2026-05-02T06:41:46.786Z</time></trkpt><trkpt lat="43.7514383" lon="12.3813"><ele>475.99999999999994</ele><time>2026-05-02T06:41:47.789Z</time></trkpt><trkpt lat="43.7513517" lon="12.38124"><ele>476.0</ele><time>2026-05-02T06:41:48.79Z</time></trkpt><trkpt lat="43.7512633" lon="12.3812017"><ele>477.8333333333333</ele><time>2026-05-02T06:41:49.787Z</time></trkpt><trkpt lat="43.75117" lon="12.381195"><ele>479.66666666666663</ele><time>2026-05-02T06:41:50.786Z</time></trkpt><trkpt lat="43.75108" lon="12.3812017"><ele>481.5</ele><time>2026-05-02T06:41:51.786Z</time></trkpt><trkpt lat="43.7509967" lon="12.3812067"><ele>483.33333333333337</ele><time>2026-05-02T06:41:52.786Z</time></trkpt><trkpt lat="43.7509317" lon="12.3812033"><ele>485.1666666666667</ele><time>2026-05-02T06:41:53.786Z</time></trkpt><trkpt lat="43.7508667" lon="12.3811233"><ele>487.0</ele><time>2026-05-02T06:41:55.789Z</time></trkpt><trkpt lat="43.7509" lon="12.381005"><ele>487.0</ele><time>2026-05-02T06:41:57.789Z</time></trkpt><trkpt lat="43.75099" lon="12.3809"><ele>487.00000000000006</ele><time>2026-05-02T06:41:59.789Z</time></trkpt><trkpt lat="43.7510733" lon="12.3808733"><ele>487.00000000000006</ele><time>2026-05-02T06:42:00.79Z</time></trkpt><trkpt lat="43.751155" lon="12.3808683"><ele>487.0</ele><time>2026-05-02T06:42:01.79Z</time></trkpt><trkpt lat="43.7512333" lon="12.3808783"><ele>487.0</ele><time>2026-05-02T06:42:02.79Z</time></trkpt><trkpt lat="43.7513333" lon="12.38085"><ele>487.0</ele><time>2026-05-02T06:42:04.786Z</time></trkpt><trkpt lat="43.7513183" lon="12.3807417"><ele>487.00000000000006</ele><time>2026-05-02T06:42:07.789Z</time></trkpt><trkpt lat="43.75124" lon="12.3807067"><ele>487.00000000000006</ele><time>2026-05-02T06:42:08.786Z</time></trkpt><trkpt lat="43.7511367" lon="12.380665"><ele>487.0</ele><time>2026-05-02T06:42:09.786Z</time></trkpt><trkpt lat="43.751035" lon="12.3806283"><ele>487.0</ele><time>2026-05-02T06:42:10.786Z</time></trkpt><trkpt lat="43.7509283" lon="12.3805933"><ele>487.0</ele><time>2026-05-02T06:42:11.787Z</time></trkpt><trkpt lat="43.7508183" lon="12.380565"><ele>487.0</ele><time>2026-05-02T06:42:12.786Z</time></trkpt><trkpt lat="43.7507033" lon="12.3805417"><ele>487.0</ele><time>2026-05-02T06:42:13.786Z</time></trkpt><trkpt lat="43.7505867" lon="12.38052"><ele>487.0</ele><time>2026-05-02T06:42:14.786Z</time></trkpt><trkpt lat="43.7504583" lon="12.3804917"><ele>490.75</ele><time>2026-05-02T06:42:15.787Z</time></trkpt><trkpt lat="43.7503283" lon="12.3804683"><ele>494.5</ele><time>2026-05-02T06:42:16.786Z</time></trkpt><trkpt lat="43.7502" lon="12.3804433"><ele>498.25</ele><time>2026-05-02T06:42:17.786Z</time></trkpt><trkpt lat="43.7500717" lon="12.3804317"><ele>502.0</ele><time>2026-05-02T06:42:18.786Z</time></trkpt><trkpt lat="43.7499517" lon="12.3804283"><ele>502.8</ele><time>2026-05-02T06:42:19.786Z</time></trkpt><trkpt lat="43.7498483" lon="12.3804133"><ele>503.6</ele><time>2026-05-02T06:42:20.786Z</time></trkpt><trkpt lat="43.7497517" lon="12.38038"><ele>504.40000000000003</ele><time>2026-05-02T06:42:21.787Z</time></trkpt><trkpt lat="43.7496683" lon="12.3803167"><ele>505.20000000000005</ele><time>2026-05-02T06:42:22.791Z</time></trkpt><trkpt lat="43.7496067" lon="12.3802267"><ele>506.0</ele><time>2026-05-02T06:42:23.786Z</time></trkpt><trkpt lat="43.7495683" lon="12.3801083"><ele>506.0</ele><time>2026-05-02T06:42:24.786Z</time></trkpt><trkpt lat="43.749525" lon="12.3799883"><ele>506.0</ele><time>2026-05-02T06:42:25.79Z</time></trkpt><trkpt lat="43.7495017" lon="12.37983"><ele>506.0</ele><time>2026-05-02T06:42:26.789Z</time></trkpt><trkpt lat="43.74947" lon="12.379665"><ele>506.0</ele><time>2026-05-02T06:42:27.789Z</time></trkpt><trkpt lat="43.7494083" lon="12.379535"><ele>506.0</ele><time>2026-05-02T06:42:28.789Z</time></trkpt><trkpt lat="43.7493283" lon="12.3794367"><ele>506.8</ele><time>2026-05-02T06:42:29.79Z</time></trkpt><trkpt lat="43.74923" lon="12.379365"><ele>507.6</ele><time>2026-05-02T06:42:30.789Z</time></trkpt><trkpt lat="43.7491283" lon="12.3792967"><ele>508.4</ele><time>2026-05-02T06:42:31.789Z</time></trkpt><trkpt lat="43.74903" lon="12.379225"><ele>509.2</ele><time>2026-05-02T06:42:32.786Z</time></trkpt><trkpt lat="43.748935" lon="12.379145"><ele>510.0</ele><time>2026-05-02T06:42:33.786Z</time></trkpt><trkpt lat="43.7488433" lon="12.379045"><ele>510.0</ele><time>2026-05-02T06:42:34.786Z</time></trkpt><trkpt lat="43.748745" lon="12.378935"><ele>510.0</ele><time>2026-05-02T06:42:35.79Z</time></trkpt><trkpt lat="43.7486417" lon="12.3788217"><ele>510.0</ele><time>2026-05-02T06:42:36.788Z</time></trkpt><trkpt lat="43.748535" lon="12.3787183"><ele>510.0</ele><time>2026-05-02T06:42:37.787Z</time></trkpt><trkpt lat="43.7484217" lon="12.3786317"><ele>512.75</ele><time>2026-05-02T06:42:38.787Z</time></trkpt><trkpt lat="43.7482983" lon="12.3785867"><ele>515.5</ele><time>2026-05-02T06:42:39.787Z</time></trkpt><trkpt lat="43.7481717" lon="12.378585"><ele>518.25</ele><time>2026-05-02T06:42:40.788Z</time></trkpt><trkpt lat="43.74804" lon="12.3786033"><ele>521.0</ele><time>2026-05-02T06:42:41.79Z</time></trkpt><trkpt lat="43.7479067" lon="12.378645"><ele>521.0</ele><time>2026-05-02T06:42:42.787Z</time></trkpt><trkpt lat="43.7477767" lon="12.378705"><ele>521.0</ele><time>2026-05-02T06:42:43.787Z</time></trkpt><trkpt lat="43.7476467" lon="12.3787783"><ele>521.0</ele><time>2026-05-02T06:42:44.79Z</time></trkpt><trkpt lat="43.7475183" lon="12.3788617"><ele>521.0</ele><time>2026-05-02T06:42:45.787Z</time></trkpt><trkpt lat="43.7473933" lon="12.37895"><ele>522.0</ele><time>2026-05-02T06:42:46.789Z</time></trkpt><trkpt lat="43.7472617" lon="12.37904"><ele>523.0</ele><time>2026-05-02T06:42:47.791Z</time></trkpt><trkpt lat="43.747125" lon="12.3791183"><ele>524.0</ele><time>2026-05-02T06:42:48.788Z</time></trkpt><trkpt lat="43.74699" lon="12.37918"><ele>525.0</ele><time>2026-05-02T06:42:49.79Z</time></trkpt><trkpt lat="43.7468533" lon="12.3792217"><ele>525.0</ele><time>2026-05-02T06:42:50.788Z</time></trkpt><trkpt lat="43.7467083" lon="12.3792433"><ele>525.0</ele><time>2026-05-02T06:42:51.787Z</time></trkpt><trkpt lat="43.74657" lon="12.3792683"><ele>525.0</ele><time>2026-05-02T06:42:52.787Z</time></trkpt><trkpt lat="43.746455" lon="12.3792983"><ele>525.0</ele><time>2026-05-02T06:42:53.789Z</time></trkpt><trkpt lat="43.7463867" lon="12.3793183"><ele>525.0</ele><time>2026-05-02T06:42:54.789Z</time></trkpt><trkpt lat="43.74628" lon="12.379375"><ele>525.0</ele><time>2026-05-02T06:42:56.787Z</time></trkpt><trkpt lat="43.74623" lon="12.3794317"><ele>525.0</ele><time>2026-05-02T06:42:57.787Z</time></trkpt><trkpt lat="43.74618" lon="12.3795233"><ele>525.0</ele><time>2026-05-02T06:42:58.787Z</time></trkpt><trkpt lat="43.7461333" lon="12.37964"><ele>525.0</ele><time>2026-05-02T06:42:59.789Z</time></trkpt><trkpt lat="43.7460783" lon="12.379775"><ele>522.25</ele><time>2026-05-02T06:43:00.787Z</time></trkpt><trkpt lat="43.7460217" lon="12.3799267"><ele>519.5</ele><time>2026-05-02T06:43:01.786Z</time></trkpt><trkpt lat="43.7459633" lon="12.3800883"><ele>516.75</ele><time>2026-05-02T06:43:02.788Z</time></trkpt><trkpt lat="43.7458983" lon="12.3802333"><ele>514.0</ele><time>2026-05-02T06:43:03.789Z</time></trkpt><trkpt lat="43.7458183" lon="12.380355"><ele>514.0</ele><time>2026-05-02T06:43:04.789Z</time></trkpt><trkpt lat="43.745725" lon="12.3804533"><ele>514.0</ele><time>2026-05-02T06:43:05.789Z</time></trkpt><trkpt lat="43.745615" lon="12.38052"><ele>514.0</ele><time>2026-05-02T06:43:06.792Z</time></trkpt><trkpt lat="43.7454917" lon="12.3805567"><ele>514.0</ele><time>2026-05-02T06:43:07.787Z</time></trkpt><trkpt lat="43.74536" lon="12.3805717"><ele>513.5</ele><time>2026-05-02T06:43:08.788Z</time></trkpt><trkpt lat="43.7452233" lon="12.3805817"><ele>513.0</ele><time>2026-05-02T06:43:09.788Z</time></trkpt><trkpt lat="43.7450817" lon="12.38059"><ele>512.5</ele><time>2026-05-02T06:43:10.787Z</time></trkpt><trkpt lat="43.74494" lon="12.3806033"><ele>512.0</ele><time>2026-05-02T06:43:11.788Z</time></trkpt><trkpt lat="43.7447917" lon="12.3806183"><ele>511.5</ele><time>2026-05-02T06:43:12.787Z</time></trkpt><trkpt lat="43.7446417" lon="12.380635"><ele>511.0</ele><time>2026-05-02T06:43:13.788Z</time></trkpt><trkpt lat="43.7444983" lon="12.380665"><ele>510.5</ele><time>2026-05-02T06:43:14.788Z</time></trkpt><trkpt lat="43.7443583" lon="12.3807133"><ele>510.0</ele><time>2026-05-02T06:43:15.789Z</time></trkpt><trkpt lat="43.74422" lon="12.3807833"><ele>512.0</ele><time>2026-05-02T06:43:16.788Z</time></trkpt><trkpt lat="43.7440817" lon="12.3808617"><ele>514.0</ele><time>2026-05-02T06:43:17.789Z</time></trkpt><trkpt lat="43.74394" lon="12.3809467"><ele>516.0</ele><time>2026-05-02T06:43:18.787Z</time></trkpt><trkpt lat="43.7437967" lon="12.3810333"><ele>516.0</ele><time>2026-05-02T06:43:19.79Z</time></trkpt><trkpt lat="43.74365" lon="12.381125"><ele>516.0</ele><time>2026-05-02T06:43:20.789Z</time></trkpt><trkpt lat="43.7435183" lon="12.38122"><ele>516.0</ele><time>2026-05-02T06:43:21.79Z</time></trkpt><trkpt lat="43.7434067" lon="12.3813183"><ele>516.0</ele><time>2026-05-02T06:43:22.789Z</time></trkpt><trkpt lat="43.7433167" lon="12.3814483"><ele>516.5</ele><time>2026-05-02T06:43:23.789Z</time></trkpt><trkpt lat="43.7432433" lon="12.3815967"><ele>517.0</ele><time>2026-05-02T06:43:24.785Z</time></trkpt><trkpt lat="43.743185" lon="12.3817533"><ele>517.5</ele><time>2026-05-02T06:43:25.785Z</time></trkpt><trkpt lat="43.7431317" lon="12.381905"><ele>518.0</ele><time>2026-05-02T06:43:26.788Z</time></trkpt><trkpt lat="43.7430733" lon="12.382035"><ele>518.0</ele><time>2026-05-02T06:43:27.79Z</time></trkpt><trkpt lat="43.742995" lon="12.382145"><ele>518.0</ele><time>2026-05-02T06:43:28.788Z</time></trkpt><trkpt lat="43.7429" lon="12.3822433"><ele>518.0</ele><time>2026-05-02T06:43:29.788Z</time></trkpt><trkpt lat="43.7427867" lon="12.3823233"><ele>518.0</ele><time>2026-05-02T06:43:30.785Z</time></trkpt><trkpt lat="43.7426633" lon="12.3823967"><ele>519.75</ele><time>2026-05-02T06:43:31.786Z</time></trkpt><trkpt lat="43.7425383" lon="12.38247"><ele>521.5</ele><time>2026-05-02T06:43:32.789Z</time></trkpt><trkpt lat="43.7424183" lon="12.3825417"><ele>523.25</ele><time>2026-05-02T06:43:33.788Z</time></trkpt><trkpt lat="43.7423133" lon="12.3826167"><ele>525.0</ele><time>2026-05-02T06:43:34.785Z</time></trkpt><trkpt lat="43.742215" lon="12.3827217"><ele>525.0</ele><time>2026-05-02T06:43:35.789Z</time></trkpt><trkpt lat="43.7421283" lon="12.3828617"><ele>525.0</ele><time>2026-05-02T06:43:36.785Z</time></trkpt><trkpt lat="43.7420483" lon="12.3830217"><ele>525.0</ele><time>2026-05-02T06:43:37.789Z</time></trkpt><trkpt lat="43.7419717" lon="12.3831867"><ele>525.0</ele><time>2026-05-02T06:43:38.785Z</time></trkpt><trkpt lat="43.741895" lon="12.3833533"><ele>524.5</ele><time>2026-05-02T06:43:39.785Z</time></trkpt><trkpt lat="43.7418167" lon="12.3835217"><ele>524.0</ele><time>2026-05-02T06:43:40.787Z</time></trkpt><trkpt lat="43.7417417" lon="12.3836917"><ele>523.5</ele><time>2026-05-02T06:43:41.786Z</time></trkpt><trkpt lat="43.74167" lon="12.3838667"><ele>523.0</ele><time>2026-05-02T06:43:42.785Z</time></trkpt><trkpt lat="43.7415967" lon="12.3840417"><ele>524.5</ele><time>2026-05-02T06:43:43.786Z</time></trkpt><trkpt lat="43.7415267" lon="12.3842117"><ele>526.0</ele><time>2026-05-02T06:43:44.788Z</time></trkpt><trkpt lat="43.741455" lon="12.3843667"><ele>527.5</ele><time>2026-05-02T06:43:45.788Z</time></trkpt><trkpt lat="43.741395" lon="12.3845083"><ele>529.0</ele><time>2026-05-02T06:43:46.786Z</time></trkpt><trkpt lat="43.74134" lon="12.384635"><ele>529.6</ele><time>2026-05-02T06:43:47.786Z</time></trkpt><trkpt lat="43.7412833" lon="12.3847367"><ele>530.2</ele><time>2026-05-02T06:43:48.785Z</time></trkpt><trkpt lat="43.7412017" lon="12.3848083"><ele>530.8000000000001</ele><time>2026-05-02T06:43:49.785Z</time></trkpt><trkpt lat="43.741105" lon="12.3848433"><ele>531.4</ele><time>2026-05-02T06:43:50.789Z</time></trkpt><trkpt lat="43.741" lon="12.38486"><ele>532.0</ele><time>2026-05-02T06:43:51.789Z</time></trkpt><trkpt lat="43.740885" lon="12.3848733"><ele>532.5</ele><time>2026-05-02T06:43:52.788Z</time></trkpt><trkpt lat="43.7407633" lon="12.384875"><ele>533.0</ele><time>2026-05-02T06:43:53.789Z</time></trkpt><trkpt lat="43.7406417" lon="12.3848583"><ele>533.5</ele><time>2026-05-02T06:43:54.785Z</time></trkpt><trkpt lat="43.740525" lon="12.3848183"><ele>534.0</ele><time>2026-05-02T06:43:55.785Z</time></trkpt><trkpt lat="43.7404133" lon="12.38476"><ele>534.0</ele><time>2026-05-02T06:43:56.785Z</time></trkpt><trkpt lat="43.7403067" lon="12.3847"><ele>534.0</ele><time>2026-05-02T06:43:57.785Z</time></trkpt><trkpt lat="43.7401933" lon="12.384635"><ele>534.0</ele><time>2026-05-02T06:43:58.787Z</time></trkpt><trkpt lat="43.7400717" lon="12.384565"><ele>534.0</ele><time>2026-05-02T06:43:59.786Z</time></trkpt><trkpt lat="43.739955" lon="12.3844983"><ele>529.5</ele><time>2026-05-02T06:44:00.785Z</time></trkpt><trkpt lat="43.7398417" lon="12.3844167"><ele>525.0</ele><time>2026-05-02T06:44:01.787Z</time></trkpt><trkpt lat="43.7397383" lon="12.3843233"><ele>520.5</ele><time>2026-05-02T06:44:02.785Z</time></trkpt><trkpt lat="43.7396517" lon="12.384205"><ele>516.0</ele><time>2026-05-02T06:44:03.789Z</time></trkpt><trkpt lat="43.739575" lon="12.3840683"><ele>516.0</ele><time>2026-05-02T06:44:04.785Z</time></trkpt><trkpt lat="43.7395" lon="12.3839133"><ele>516.0</ele><time>2026-05-02T06:44:05.786Z</time></trkpt><trkpt lat="43.7394267" lon="12.38375"><ele>516.0</ele><time>2026-05-02T06:44:06.788Z</time></trkpt><trkpt lat="43.739355" lon="12.3835733"><ele>516.0</ele><time>2026-05-02T06:44:07.788Z</time></trkpt><trkpt lat="43.73928" lon="12.3834033"><ele>514.5</ele><time>2026-05-02T06:44:08.789Z</time></trkpt><trkpt lat="43.7392083" lon="12.3832367"><ele>513.0</ele><time>2026-05-02T06:44:09.789Z</time></trkpt><trkpt lat="43.7391383" lon="12.38307"><ele>511.5</ele><time>2026-05-02T06:44:10.789Z</time></trkpt><trkpt lat="43.7390717" lon="12.3829017"><ele>510.0</ele><time>2026-05-02T06:44:11.789Z</time></trkpt><trkpt lat="43.7390067" lon="12.3827367"><ele>510.0</ele><time>2026-05-02T06:44:12.788Z</time></trkpt><trkpt lat="43.738945" lon="12.3825733"><ele>510.0</ele><time>2026-05-02T06:44:13.785Z</time></trkpt><trkpt lat="43.7388983" lon="12.3824183"><ele>510.0</ele><time>2026-05-02T06:44:14.786Z</time></trkpt><trkpt lat="43.7388733" lon="12.3822567"><ele>510.0</ele><time>2026-05-02T06:44:15.79Z</time></trkpt><trkpt lat="43.73886" lon="12.3820783"><ele>507.75</ele><time>2026-05-02T06:44:16.788Z</time></trkpt><trkpt lat="43.738845" lon="12.3818867"><ele>505.5</ele><time>2026-05-02T06:44:17.789Z</time></trkpt><trkpt lat="43.7388333" lon="12.381695"><ele>503.25</ele><time>2026-05-02T06:44:18.787Z</time></trkpt><trkpt lat="43.73882" lon="12.3815083"><ele>501.0</ele><time>2026-05-02T06:44:19.789Z</time></trkpt><trkpt lat="43.7387883" lon="12.381335"><ele>499.0</ele><time>2026-05-02T06:44:20.789Z</time></trkpt><trkpt lat="43.738745" lon="12.3811683"><ele>497.0</ele><time>2026-05-02T06:44:21.785Z</time></trkpt><trkpt lat="43.7386883" lon="12.381005"><ele>495.0</ele><time>2026-05-02T06:44:22.79Z</time></trkpt><trkpt lat="43.738615" lon="12.38084"><ele>493.0</ele><time>2026-05-02T06:44:23.789Z</time></trkpt><trkpt lat="43.7385283" lon="12.3806783"><ele>493.0</ele><time>2026-05-02T06:44:24.786Z</time></trkpt><trkpt lat="43.7384433" lon="12.38052"><ele>493.0</ele><time>2026-05-02T06:44:25.788Z</time></trkpt><trkpt lat="43.73836" lon="12.380365"><ele>493.0</ele><time>2026-05-02T06:44:26.787Z</time></trkpt><trkpt lat="43.738285" lon="12.3802117"><ele>493.0</ele><time>2026-05-02T06:44:27.786Z</time></trkpt><trkpt lat="43.7382117" lon="12.3800567"><ele>493.79999999999995</ele><time>2026-05-02T06:44:28.785Z</time></trkpt><trkpt lat="43.73814" lon="12.3799167"><ele>494.59999999999997</ele><time>2026-05-02T06:44:29.786Z</time></trkpt><trkpt lat="43.738075" lon="12.3798033"><ele>495.40000000000003</ele><time>2026-05-02T06:44:30.785Z</time></trkpt><trkpt lat="43.7380033" lon="12.3797283"><ele>496.20000000000005</ele><time>2026-05-02T06:44:31.786Z</time></trkpt><trkpt lat="43.7379283" lon="12.3796833"><ele>497.0</ele><time>2026-05-02T06:44:32.786Z</time></trkpt><trkpt lat="43.73782" lon="12.3797"><ele>497.0</ele><time>2026-05-02T06:44:34.787Z</time></trkpt><trkpt lat="43.73778" lon="12.37982"><ele>497.00000000000006</ele><time>2026-05-02T06:44:36.786Z</time></trkpt><trkpt lat="43.7377967" lon="12.379935"><ele>497.00000000000006</ele><time>2026-05-02T06:44:37.788Z</time></trkpt><trkpt lat="43.73781" lon="12.3800467"><ele>497.0</ele><time>2026-05-02T06:44:38.788Z</time></trkpt><trkpt lat="43.7378717" lon="12.38018"><ele>497.0</ele><time>2026-05-02T06:44:39.789Z</time></trkpt><trkpt lat="43.7379533" lon="12.38034"><ele>496.0</ele><time>2026-05-02T06:44:40.79Z</time></trkpt><trkpt lat="43.73803" lon="12.3805167"><ele>495.0</ele><time>2026-05-02T06:44:41.789Z</time></trkpt><trkpt lat="43.7381" lon="12.380685"><ele>494.0</ele><time>2026-05-02T06:44:42.789Z</time></trkpt><trkpt lat="43.738155" lon="12.3808483"><ele>493.0</ele><time>2026-05-02T06:44:43.789Z</time></trkpt><trkpt lat="43.7382133" lon="12.381015"><ele>493.0</ele><time>2026-05-02T06:44:44.79Z</time></trkpt><trkpt lat="43.73826" lon="12.3811783"><ele>493.0</ele><time>2026-05-02T06:44:45.788Z</time></trkpt><trkpt lat="43.738295" lon="12.38134"><ele>493.0</ele><time>2026-05-02T06:44:46.785Z</time></trkpt><trkpt lat="43.73831" lon="12.3815067"><ele>493.0</ele><time>2026-05-02T06:44:47.786Z</time></trkpt><trkpt lat="43.7383083" lon="12.3816933"><ele>491.5</ele><time>2026-05-02T06:44:48.789Z</time></trkpt><trkpt lat="43.7382883" lon="12.3818883"><ele>490.0</ele><time>2026-05-02T06:44:49.788Z</time></trkpt><trkpt lat="43.7382567" lon="12.3820733"><ele>488.5</ele><time>2026-05-02T06:44:50.788Z</time></trkpt><trkpt lat="43.7382317" lon="12.3822583"><ele>487.0</ele><time>2026-05-02T06:44:51.788Z</time></trkpt><trkpt lat="43.7382233" lon="12.382435"><ele>486.20000000000005</ele><time>2026-05-02T06:44:52.789Z</time></trkpt><trkpt lat="43.738235" lon="12.3826"><ele>485.40000000000003</ele><time>2026-05-02T06:44:53.789Z</time></trkpt><trkpt lat="43.738255" lon="12.3827567"><ele>484.59999999999997</ele><time>2026-05-02T06:44:54.789Z</time></trkpt><trkpt lat="43.7382733" lon="12.3829033"><ele>483.79999999999995</ele><time>2026-05-02T06:44:55.785Z</time></trkpt><trkpt lat="43.7382683" lon="12.3830433"><ele>483.0</ele><time>2026-05-02T06:44:56.787Z</time></trkpt><trkpt lat="43.7382283" lon="12.3831717"><ele>482.4</ele><time>2026-05-02T06:44:57.786Z</time></trkpt><trkpt lat="43.7381633" lon="12.3832733"><ele>481.79999999999995</ele><time>2026-05-02T06:44:58.786Z</time></trkpt><trkpt lat="43.738085" lon="12.3833483"><ele>481.2</ele><time>2026-05-02T06:44:59.786Z</time></trkpt><trkpt lat="43.737995" lon="12.383375"><ele>480.6</ele><time>2026-05-02T06:45:00.786Z</time></trkpt><trkpt lat="43.7379017" lon="12.383345"><ele>480.0</ele><time>2026-05-02T06:45:01.786Z</time></trkpt><trkpt lat="43.737815" lon="12.3832683"><ele>480.0</ele><time>2026-05-02T06:45:02.786Z</time></trkpt><trkpt lat="43.73774" lon="12.3831417"><ele>480.0</ele><time>2026-05-02T06:45:03.79Z</time></trkpt><trkpt lat="43.7376733" lon="12.3829933"><ele>480.0</ele><time>2026-05-02T06:45:04.786Z</time></trkpt><trkpt lat="43.7376033" lon="12.382825"><ele>480.0</ele><time>2026-05-02T06:45:05.787Z</time></trkpt><trkpt lat="43.7375417" lon="12.3826467"><ele>475.5</ele><time>2026-05-02T06:45:06.785Z</time></trkpt><trkpt lat="43.7374883" lon="12.382465"><ele>471.0</ele><time>2026-05-02T06:45:07.787Z</time></trkpt><trkpt lat="43.737435" lon="12.3822817"><ele>466.5</ele><time>2026-05-02T06:45:08.792Z</time></trkpt><trkpt lat="43.7373817" lon="12.3820933"><ele>462.0</ele><time>2026-05-02T06:45:09.786Z</time></trkpt><trkpt lat="43.7373267" lon="12.3818983"><ele>461.33333333333337</ele><time>2026-05-02T06:45:10.787Z</time></trkpt><trkpt lat="43.7372767" lon="12.381695"><ele>460.6666666666667</ele><time>2026-05-02T06:45:11.788Z</time></trkpt><trkpt lat="43.737215" lon="12.3814867"><ele>460.0</ele><time>2026-05-02T06:45:12.787Z</time></trkpt><trkpt lat="43.7371483" lon="12.3812867"><ele>462.6666666666667</ele><time>2026-05-02T06:45:13.79Z</time></trkpt><trkpt lat="43.7370683" lon="12.3811033"><ele>465.33333333333337</ele><time>2026-05-02T06:45:14.787Z</time></trkpt><trkpt lat="43.7369767" lon="12.3809333"><ele>468.0</ele><time>2026-05-02T06:45:15.789Z</time></trkpt><trkpt lat="43.73688" lon="12.3807783"><ele>465.0</ele><time>2026-05-02T06:45:16.79Z</time></trkpt><trkpt lat="43.7367717" lon="12.3806317"><ele>462.0</ele><time>2026-05-02T06:45:17.789Z</time></trkpt><trkpt lat="43.7366567" lon="12.3805233"><ele>459.0</ele><time>2026-05-02T06:45:18.789Z</time></trkpt><trkpt lat="43.7365217" lon="12.380455"><ele>456.0</ele><time>2026-05-02T06:45:19.789Z</time></trkpt><trkpt lat="43.7363783" lon="12.3804117"><ele>456.0</ele><time>2026-05-02T06:45:20.787Z</time></trkpt><trkpt lat="43.7362333" lon="12.3803717"><ele>456.0</ele><time>2026-05-02T06:45:21.787Z</time></trkpt><trkpt lat="43.7360833" lon="12.3803333"><ele>456.0</ele><time>2026-05-02T06:45:22.787Z</time></trkpt><trkpt lat="43.735935" lon="12.380295"><ele>449.0</ele><time>2026-05-02T06:45:23.788Z</time></trkpt><trkpt lat="43.735785" lon="12.38026"><ele>442.0</ele><time>2026-05-02T06:45:24.789Z</time></trkpt><trkpt lat="43.735635" lon="12.380215"><ele>435.0</ele><time>2026-05-02T06:45:25.79Z</time></trkpt><trkpt lat="43.7354867" lon="12.3801567"><ele>435.0</ele><time>2026-05-02T06:45:26.787Z</time></trkpt><trkpt lat="43.735345" lon="12.3800783"><ele>435.0</ele><time>2026-05-02T06:45:27.788Z</time></trkpt><trkpt lat="43.7352117" lon="12.3799817"><ele>435.0</ele><time>2026-05-02T06:45:28.787Z</time></trkpt><trkpt lat="43.735075" lon="12.379875"><ele>433.25</ele><time>2026-05-02T06:45:29.787Z</time></trkpt><trkpt lat="43.734945" lon="12.3797683"><ele>431.5</ele><time>2026-05-02T06:45:30.787Z</time></trkpt><trkpt lat="43.7348283" lon="12.379665"><ele>429.75</ele><time>2026-05-02T06:45:31.787Z</time></trkpt><trkpt lat="43.7347283" lon="12.3795483"><ele>428.0</ele><time>2026-05-02T06:45:32.788Z</time></trkpt><trkpt lat="43.734645" lon="12.3794117"><ele>427.25</ele><time>2026-05-02T06:45:33.789Z</time></trkpt><trkpt lat="43.7345717" lon="12.3792517"><ele>426.5</ele><time>2026-05-02T06:45:34.789Z</time></trkpt><trkpt lat="43.734495" lon="12.3790767"><ele>425.75</ele><time>2026-05-02T06:45:35.786Z</time></trkpt><trkpt lat="43.734415" lon="12.3788967"><ele>425.0</ele><time>2026-05-02T06:45:36.787Z</time></trkpt><trkpt lat="43.734335" lon="12.37872"><ele>421.66666666666663</ele><time>2026-05-02T06:45:37.787Z</time></trkpt><trkpt lat="43.7342517" lon="12.378545"><ele>418.33333333333337</ele><time>2026-05-02T06:45:38.787Z</time></trkpt><trkpt lat="43.7341583" lon="12.3783617"><ele>415.0</ele><time>2026-05-02T06:45:39.79Z</time></trkpt><trkpt lat="43.7340583" lon="12.3781767"><ele>415.0</ele><time>2026-05-02T06:45:40.787Z</time></trkpt><trkpt lat="43.7339533" lon="12.3779967"><ele>415.0</ele><time>2026-05-02T06:45:41.79Z</time></trkpt><trkpt lat="43.733845" lon="12.3778117"><ele>415.0</ele><time>2026-05-02T06:45:42.786Z</time></trkpt><trkpt lat="43.73374" lon="12.3776283"><ele>415.0</ele><time>2026-05-02T06:45:43.789Z</time></trkpt><trkpt lat="43.7336283" lon="12.3774417"><ele>415.0</ele><time>2026-05-02T06:45:44.79Z</time></trkpt><trkpt lat="43.733515" lon="12.377255"><ele>415.0</ele><time>2026-05-02T06:45:45.789Z</time></trkpt><trkpt lat="43.7334067" lon="12.377075"><ele>412.33333333333337</ele><time>2026-05-02T06:45:46.79Z</time></trkpt><trkpt lat="43.7333017" lon="12.3769017"><ele>409.66666666666663</ele><time>2026-05-02T06:45:47.787Z</time></trkpt><trkpt lat="43.7332" lon="12.37673"><ele>407.0</ele><time>2026-05-02T06:45:48.786Z</time></trkpt><trkpt lat="43.7331033" lon="12.376565"><ele>407.0</ele><time>2026-05-02T06:45:49.787Z</time></trkpt><trkpt lat="43.733" lon="12.37641"><ele>407.0</ele><time>2026-05-02T06:45:50.788Z</time></trkpt><trkpt lat="43.7328917" lon="12.3762783"><ele>407.0</ele><time>2026-05-02T06:45:51.787Z</time></trkpt><trkpt lat="43.732775" lon="12.37617"><ele>407.0</ele><time>2026-05-02T06:45:52.788Z</time></trkpt><trkpt lat="43.7326583" lon="12.3760683"><ele>402.75</ele><time>2026-05-02T06:45:53.79Z</time></trkpt><trkpt lat="43.732555" lon="12.3759567"><ele>398.5</ele><time>2026-05-02T06:45:54.787Z</time></trkpt><trkpt lat="43.7324683" lon="12.37583"><ele>394.25</ele><time>2026-05-02T06:45:55.787Z</time></trkpt><trkpt lat="43.7323983" lon="12.3756833"><ele>390.0</ele><time>2026-05-02T06:45:56.788Z</time></trkpt><trkpt lat="43.7323483" lon="12.3755067"><ele>388.66666666666663</ele><time>2026-05-02T06:45:57.788Z</time></trkpt><trkpt lat="43.7323033" lon="12.3752983"><ele>387.3333333333333</ele><time>2026-05-02T06:45:58.788Z</time></trkpt><trkpt lat="43.7322583" lon="12.375085"><ele>386.0</ele><time>2026-05-02T06:45:59.788Z</time></trkpt><trkpt lat="43.7322117" lon="12.374865"><ele>389.0</ele><time>2026-05-02T06:46:00.786Z</time></trkpt><trkpt lat="43.7321617" lon="12.3746483"><ele>392.0</ele><time>2026-05-02T06:46:01.788Z</time></trkpt><trkpt lat="43.7321083" lon="12.3744433"><ele>395.0</ele><time>2026-05-02T06:46:02.788Z</time></trkpt><trkpt lat="43.73206" lon="12.3742567"><ele>395.0</ele><time>2026-05-02T06:46:03.789Z</time></trkpt><trkpt lat="43.732015" lon="12.3740967"><ele>395.0</ele><time>2026-05-02T06:46:04.789Z</time></trkpt><trkpt lat="43.7319633" lon="12.3739683"><ele>395.0</ele><time>2026-05-02T06:46:05.789Z</time></trkpt><trkpt lat="43.7318883" lon="12.3738717"><ele>395.0</ele><time>2026-05-02T06:46:06.789Z</time></trkpt><trkpt lat="43.731795" lon="12.3738033"><ele>395.0</ele><time>2026-05-02T06:46:07.789Z</time></trkpt><trkpt lat="43.73169" lon="12.373745"><ele>396.0</ele><time>2026-05-02T06:46:08.786Z</time></trkpt><trkpt lat="43.7315817" lon="12.3736933"><ele>397.0</ele><time>2026-05-02T06:46:09.787Z</time></trkpt><trkpt lat="43.731465" lon="12.3736367"><ele>398.0</ele><time>2026-05-02T06:46:10.788Z</time></trkpt><trkpt lat="43.73134" lon="12.373585"><ele>399.0</ele><time>2026-05-02T06:46:11.789Z</time></trkpt><trkpt lat="43.7312083" lon="12.3735483"><ele>399.0</ele><time>2026-05-02T06:46:12.787Z</time></trkpt><trkpt lat="43.7310717" lon="12.3735367"><ele>399.0</ele><time>2026-05-02T06:46:13.788Z</time></trkpt><trkpt lat="43.7309367" lon="12.3735417"><ele>399.0</ele><time>2026-05-02T06:46:14.786Z</time></trkpt><trkpt lat="43.73081" lon="12.3735483"><ele>399.0</ele><time>2026-05-02T06:46:15.788Z</time></trkpt><trkpt lat="43.73069" lon="12.3735417"><ele>398.25</ele><time>2026-05-02T06:46:16.789Z</time></trkpt><trkpt lat="43.7305783" lon="12.3735183"><ele>397.5</ele><time>2026-05-02T06:46:17.786Z</time></trkpt><trkpt lat="43.7304717" lon="12.3734717"><ele>396.75</ele><time>2026-05-02T06:46:18.789Z</time></trkpt><trkpt lat="43.7303583" lon="12.3734"><ele>396.0</ele><time>2026-05-02T06:46:19.789Z</time></trkpt><trkpt lat="43.7302383" lon="12.37331"><ele>393.75</ele><time>2026-05-02T06:46:20.789Z</time></trkpt><trkpt lat="43.7301133" lon="12.37322"><ele>391.5</ele><time>2026-05-02T06:46:21.79Z</time></trkpt><trkpt lat="43.72998" lon="12.3731467"><ele>389.25</ele><time>2026-05-02T06:46:22.789Z</time></trkpt><trkpt lat="43.72983" lon="12.37309"><ele>387.0</ele><time>2026-05-02T06:46:23.79Z</time></trkpt><trkpt lat="43.7296767" lon="12.3730433"><ele>387.66666666666663</ele><time>2026-05-02T06:46:24.786Z</time></trkpt><trkpt lat="43.7295167" lon="12.3730017"><ele>388.3333333333333</ele><time>2026-05-02T06:46:25.787Z</time></trkpt><trkpt lat="43.7293533" lon="12.3729617"><ele>389.0</ele><time>2026-05-02T06:46:26.787Z</time></trkpt><trkpt lat="43.72919" lon="12.3729183"><ele>389.0</ele><time>2026-05-02T06:46:27.787Z</time></trkpt><trkpt lat="43.7290267" lon="12.372875"><ele>389.0</ele><time>2026-05-02T06:46:28.788Z</time></trkpt><trkpt lat="43.7288667" lon="12.3728283"><ele>389.0</ele><time>2026-05-02T06:46:29.786Z</time></trkpt><trkpt lat="43.7287033" lon="12.3727883"><ele>385.66666666666663</ele><time>2026-05-02T06:46:30.787Z</time></trkpt><trkpt lat="43.72854" lon="12.37274"><ele>382.3333333333333</ele><time>2026-05-02T06:46:31.786Z</time></trkpt><trkpt lat="43.7283733" lon="12.37269"><ele>379.0</ele><time>2026-05-02T06:46:32.786Z</time></trkpt><trkpt lat="43.728215" lon="12.3726467"><ele>379.0</ele><time>2026-05-02T06:46:33.786Z</time></trkpt><trkpt lat="43.7280617" lon="12.3726"><ele>379.0</ele><time>2026-05-02T06:46:34.789Z</time></trkpt><trkpt lat="43.727905" lon="12.3725517"><ele>379.0</ele><time>2026-05-02T06:46:35.789Z</time></trkpt><trkpt lat="43.727755" lon="12.3725033"><ele>376.3333333333333</ele><time>2026-05-02T06:46:36.79Z</time></trkpt><trkpt lat="43.7276083" lon="12.372465"><ele>373.6666666666667</ele><time>2026-05-02T06:46:37.786Z</time></trkpt><trkpt lat="43.7274533" lon="12.37244"><ele>371.0</ele><time>2026-05-02T06:46:38.786Z</time></trkpt><trkpt lat="43.7272933" lon="12.3724367"><ele>371.0</ele><time>2026-05-02T06:46:39.786Z</time></trkpt><trkpt lat="43.7271233" lon="12.3724533"><ele>371.0</ele><time>2026-05-02T06:46:40.79Z</time></trkpt><trkpt lat="43.7269483" lon="12.3724883"><ele>371.0</ele><time>2026-05-02T06:46:41.786Z</time></trkpt><trkpt lat="43.7267717" lon="12.3725183"><ele>372.33333333333337</ele><time>2026-05-02T06:46:42.789Z</time></trkpt><trkpt lat="43.7265933" lon="12.3725567"><ele>373.6666666666667</ele><time>2026-05-02T06:46:43.789Z</time></trkpt><trkpt lat="43.7264183" lon="12.372595"><ele>375.0</ele><time>2026-05-02T06:46:44.786Z</time></trkpt><trkpt lat="43.726245" lon="12.37263"><ele>375.0</ele><time>2026-05-02T06:46:45.787Z</time></trkpt><trkpt lat="43.7260817" lon="12.3726683"><ele>375.0</ele><time>2026-05-02T06:46:46.786Z</time></trkpt><trkpt lat="43.7259217" lon="12.3727033"><ele>375.0</ele><time>2026-05-02T06:46:47.786Z</time></trkpt><trkpt lat="43.725765" lon="12.37273"><ele>376.75</ele><time>2026-05-02T06:46:48.787Z</time></trkpt><trkpt lat="43.7256217" lon="12.3727467"><ele>378.5</ele><time>2026-05-02T06:46:49.786Z</time></trkpt><trkpt lat="43.7254867" lon="12.3727717"><ele>380.25</ele><time>2026-05-02T06:46:50.786Z</time></trkpt><trkpt lat="43.7253683" lon="12.3727817"><ele>382.0</ele><time>2026-05-02T06:46:51.786Z</time></trkpt><trkpt lat="43.7252733" lon="12.3727833"><ele>383.20000000000005</ele><time>2026-05-02T06:46:52.787Z</time></trkpt><trkpt lat="43.7251433" lon="12.372815"><ele>384.4</ele><time>2026-05-02T06:46:54.789Z</time></trkpt><trkpt lat="43.7250633" lon="12.3728467"><ele>385.6</ele><time>2026-05-02T06:46:55.789Z</time></trkpt><trkpt lat="43.72497" lon="12.3728917"><ele>386.79999999999995</ele><time>2026-05-02T06:46:56.786Z</time></trkpt><trkpt lat="43.7248717" lon="12.3729483"><ele>388.0</ele><time>2026-05-02T06:46:57.789Z</time></trkpt><trkpt lat="43.724765" lon="12.373015"><ele>385.25</ele><time>2026-05-02T06:46:58.787Z</time></trkpt><trkpt lat="43.7246417" lon="12.3730833"><ele>382.5</ele><time>2026-05-02T06:46:59.787Z</time></trkpt><trkpt lat="43.7245067" lon="12.37315"><ele>379.75</ele><time>2026-05-02T06:47:00.786Z</time></trkpt><trkpt lat="43.7243567" lon="12.3732117"><ele>377.0</ele><time>2026-05-02T06:47:01.787Z</time></trkpt><trkpt lat="43.7241983" lon="12.3732567"><ele>377.0</ele><time>2026-05-02T06:47:02.786Z</time></trkpt><trkpt lat="43.7240317" lon="12.3732967"><ele>377.0</ele><time>2026-05-02T06:47:03.79Z</time></trkpt><trkpt lat="43.7238633" lon="12.3733283"><ele>377.0</ele><time>2026-05-02T06:47:04.79Z</time></trkpt><trkpt lat="43.723695" lon="12.3733667"><ele>376.0</ele><time>2026-05-02T06:47:05.787Z</time></trkpt><trkpt lat="43.7235233" lon="12.3734117"><ele>375.0</ele><time>2026-05-02T06:47:06.789Z</time></trkpt><trkpt lat="43.7233483" lon="12.373455"><ele>374.0</ele><time>2026-05-02T06:47:07.789Z</time></trkpt><trkpt lat="43.7231717" lon="12.3734967"><ele>374.0</ele><time>2026-05-02T06:47:08.791Z</time></trkpt><trkpt lat="43.722995" lon="12.3735433"><ele>374.0</ele><time>2026-05-02T06:47:09.789Z</time></trkpt><trkpt lat="43.7228183" lon="12.373595"><ele>374.0</ele><time>2026-05-02T06:47:10.789Z</time></trkpt><trkpt lat="43.7226483" lon="12.373645"><ele>373.6666666666667</ele><time>2026-05-02T06:47:11.789Z</time></trkpt><trkpt lat="43.7224783" lon="12.37369"><ele>373.3333333333333</ele><time>2026-05-02T06:47:12.79Z</time></trkpt><trkpt lat="43.7223083" lon="12.373735"><ele>373.0</ele><time>2026-05-02T06:47:13.79Z</time></trkpt><trkpt lat="43.7221383" lon="12.373775"><ele>373.0</ele><time>2026-05-02T06:47:14.786Z</time></trkpt><trkpt lat="43.7219667" lon="12.3738117"><ele>373.0</ele><time>2026-05-02T06:47:15.786Z</time></trkpt><trkpt lat="43.7217983" lon="12.373845"><ele>373.0</ele><time>2026-05-02T06:47:16.789Z</time></trkpt><trkpt lat="43.72163" lon="12.37387"><ele>370.66666666666663</ele><time>2026-05-02T06:47:17.79Z</time></trkpt><trkpt lat="43.72146" lon="12.3739"><ele>368.3333333333333</ele><time>2026-05-02T06:47:18.786Z</time></trkpt><trkpt lat="43.72129" lon="12.373925"><ele>366.0</ele><time>2026-05-02T06:47:19.786Z</time></trkpt><trkpt lat="43.72112" lon="12.37395"><ele>366.3333333333333</ele><time>2026-05-02T06:47:20.791Z</time></trkpt><trkpt lat="43.72095" lon="12.373975"><ele>366.66666666666663</ele><time>2026-05-02T06:47:21.789Z</time></trkpt><trkpt lat="43.72078" lon="12.374"><ele>367.0</ele><time>2026-05-02T06:47:22.789Z</time></trkpt><trkpt lat="43.7206117" lon="12.3740183"><ele>367.0</ele><time>2026-05-02T06:47:23.79Z</time></trkpt><trkpt lat="43.7204467" lon="12.3740317"><ele>367.0</ele><time>2026-05-02T06:47:24.789Z</time></trkpt><trkpt lat="43.7202883" lon="12.3740517"><ele>367.0</ele><time>2026-05-02T06:47:25.789Z</time></trkpt><trkpt lat="43.720135" lon="12.37408"><ele>366.3333333333333</ele><time>2026-05-02T06:47:26.787Z</time></trkpt><trkpt lat="43.7199867" lon="12.374125"><ele>365.6666666666667</ele><time>2026-05-02T06:47:27.787Z</time></trkpt><trkpt lat="43.7198383" lon="12.3741833"><ele>365.0</ele><time>2026-05-02T06:47:28.786Z</time></trkpt><trkpt lat="43.7196917" lon="12.3742567"><ele>365.0</ele><time>2026-05-02T06:47:29.787Z</time></trkpt><trkpt lat="43.719545" lon="12.3743417"><ele>365.0</ele><time>2026-05-02T06:47:30.788Z</time></trkpt><trkpt lat="43.7194017" lon="12.3744283"><ele>365.0</ele><time>2026-05-02T06:47:31.786Z</time></trkpt><trkpt lat="43.7192583" lon="12.3745133"><ele>365.0</ele><time>2026-05-02T06:47:32.786Z</time></trkpt><trkpt lat="43.71912" lon="12.3745933"><ele>365.0</ele><time>2026-05-02T06:47:33.79Z</time></trkpt><trkpt lat="43.7189833" lon="12.3746733"><ele>365.0</ele><time>2026-05-02T06:47:34.789Z</time></trkpt><trkpt lat="43.7188517" lon="12.37475"><ele>365.0</ele><time>2026-05-02T06:47:35.789Z</time></trkpt><trkpt lat="43.71872" lon="12.3748283"><ele>365.0</ele><time>2026-05-02T06:47:36.791Z</time></trkpt><trkpt lat="43.7185917" lon="12.3749067"><ele>365.0</ele><time>2026-05-02T06:47:37.786Z</time></trkpt><trkpt lat="43.718465" lon="12.3749867"><ele>365.0</ele><time>2026-05-02T06:47:38.787Z</time></trkpt><trkpt lat="43.7183367" lon="12.3750667"><ele>365.0</ele><time>2026-05-02T06:47:39.788Z</time></trkpt><trkpt lat="43.71821" lon="12.3751433"><ele>363.25</ele><time>2026-05-02T06:47:40.787Z</time></trkpt><trkpt lat="43.7180833" lon="12.3752183"><ele>361.5</ele><time>2026-05-02T06:47:41.789Z</time></trkpt><trkpt lat="43.71796" lon="12.3752933"><ele>359.75</ele><time>2026-05-02T06:47:42.787Z</time></trkpt><trkpt lat="43.7178383" lon="12.375375"><ele>358.0</ele><time>2026-05-02T06:47:43.787Z</time></trkpt><trkpt lat="43.71772" lon="12.3754583"><ele>356.25</ele><time>2026-05-02T06:47:44.788Z</time></trkpt><trkpt lat="43.7176067" lon="12.3755367"><ele>354.5</ele><time>2026-05-02T06:47:45.789Z</time></trkpt><trkpt lat="43.7174983" lon="12.3756167"><ele>352.75</ele><time>2026-05-02T06:47:46.789Z</time></trkpt><trkpt lat="43.71739" lon="12.375685"><ele>351.0</ele><time>2026-05-02T06:47:47.789Z</time></trkpt><trkpt lat="43.7172867" lon="12.37575"><ele>351.0</ele><time>2026-05-02T06:47:48.787Z</time></trkpt><trkpt lat="43.7172" lon="12.37581"><ele>351.0</ele><time>2026-05-02T06:47:49.787Z</time></trkpt><trkpt lat="43.7171267" lon="12.3758583"><ele>351.0</ele><time>2026-05-02T06:47:50.789Z</time></trkpt><trkpt lat="43.7170667" lon="12.37589"><ele>351.0</ele><time>2026-05-02T06:47:51.787Z</time></trkpt><trkpt lat="43.717005" lon="12.3759233"><ele>351.0</ele><time>2026-05-02T06:47:53.788Z</time></trkpt><trkpt lat="43.7169317" lon="12.375965"><ele>351.0</ele><time>2026-05-02T06:48:09.787Z</time></trkpt><trkpt lat="43.7168583" lon="12.3760183"><ele>350.0</ele><time>2026-05-02T06:48:11.787Z</time></trkpt><trkpt lat="43.7167883" lon="12.3761117"><ele>349.0</ele><time>2026-05-02T06:48:13.787Z</time></trkpt><trkpt lat="43.7166817" lon="12.3761983"><ele>348.0</ele><time>2026-05-02T06:48:15.787Z</time></trkpt><trkpt lat="43.7165733" lon="12.3762667"><ele>347.0</ele><time>2026-05-02T06:48:17.787Z</time></trkpt><trkpt lat="43.7164867" lon="12.3763283"><ele>346.0</ele><time>2026-05-02T06:48:19.791Z</time></trkpt><trkpt lat="43.7164033" lon="12.376385"><ele>345.6</ele><time>2026-05-02T06:48:21.789Z</time></trkpt><trkpt lat="43.716325" lon="12.3764217"><ele>345.20000000000005</ele><time>2026-05-02T06:48:23.791Z</time></trkpt><trkpt lat="43.7162517" lon="12.376445"><ele>344.79999999999995</ele><time>2026-05-02T06:48:25.789Z</time></trkpt><trkpt lat="43.716185" lon="12.3764667"><ele>344.4</ele><time>2026-05-02T06:48:27.789Z</time></trkpt><trkpt lat="43.7161017" lon="12.3764817"><ele>344.0</ele><time>2026-05-02T06:48:30.786Z</time></trkpt><trkpt lat="43.7159567" lon="12.3766533"><ele>342.83333333333337</ele><time>2026-05-02T07:14:45.353Z</time></trkpt><trkpt lat="43.7158967" lon="12.3766133"><ele>341.6666666666667</ele><time>2026-05-02T07:14:53.786Z</time></trkpt><trkpt lat="43.7158267" lon="12.37662"><ele>340.5</ele><time>2026-05-02T07:14:56.786Z</time></trkpt><trkpt lat="43.7157433" lon="12.37663"><ele>339.3333333333333</ele><time>2026-05-02T07:14:59.786Z</time></trkpt><trkpt lat="43.715655" lon="12.3766367"><ele>338.16666666666663</ele><time>2026-05-02T07:15:02.786Z</time></trkpt><trkpt lat="43.7155867" lon="12.3766417"><ele>337.0</ele><time>2026-05-02T07:15:05.786Z</time></trkpt><trkpt lat="43.7154833" lon="12.3766083"><ele>337.0</ele><time>2026-05-02T07:15:09.786Z</time></trkpt><trkpt lat="43.7153683" lon="12.376625"><ele>337.0</ele><time>2026-05-02T07:15:11.786Z</time></trkpt><trkpt lat="43.715295" lon="12.3766417"><ele>337.0</ele><time>2026-05-02T07:15:12.785Z</time></trkpt><trkpt lat="43.7151717" lon="12.376695"><ele>337.0</ele><time>2026-05-02T07:15:14.787Z</time></trkpt><trkpt lat="43.7150567" lon="12.3767783"><ele>337.0</ele><time>2026-05-02T07:15:16.785Z</time></trkpt><trkpt lat="43.7149917" lon="12.3768117"><ele>337.8333333333333</ele><time>2026-05-02T07:15:17.785Z</time></trkpt><trkpt lat="43.7149233" lon="12.376845"><ele>338.66666666666663</ele><time>2026-05-02T07:15:18.785Z</time></trkpt><trkpt lat="43.714855" lon="12.3768967"><ele>339.5</ele><time>2026-05-02T07:15:19.785Z</time></trkpt><trkpt lat="43.7147967" lon="12.376975"><ele>340.3333333333333</ele><time>2026-05-02T07:15:20.785Z</time></trkpt><trkpt lat="43.7147583" lon="12.3770917"><ele>341.1666666666667</ele><time>2026-05-02T07:15:21.785Z</time></trkpt><trkpt lat="43.7147633" lon="12.3772467"><ele>342.0</ele><time>2026-05-02T07:15:22.785Z</time></trkpt><trkpt lat="43.7148117" lon="12.3774317"><ele>342.0</ele><time>2026-05-02T07:15:23.785Z</time></trkpt><trkpt lat="43.7148683" lon="12.3776017"><ele>342.0</ele><time>2026-05-02T07:15:24.786Z</time></trkpt><trkpt lat="43.7149233" lon="12.3777783"><ele>342.0</ele><time>2026-05-02T07:15:25.786Z</time></trkpt><trkpt lat="43.7149633" lon="12.3779617"><ele>342.0</ele><time>2026-05-02T07:15:26.785Z</time></trkpt><trkpt lat="43.714985" lon="12.3781467"><ele>344.25</ele><time>2026-05-02T07:15:27.785Z</time></trkpt><trkpt lat="43.7149933" lon="12.3783383"><ele>346.5</ele><time>2026-05-02T07:15:28.787Z</time></trkpt><trkpt lat="43.7149983" lon="12.3785333"><ele>348.75</ele><time>2026-05-02T07:15:29.785Z</time></trkpt><trkpt lat="43.715015" lon="12.3787283"><ele>351.0</ele><time>2026-05-02T07:15:30.785Z</time></trkpt><trkpt lat="43.7150567" lon="12.3789067"><ele>352.6</ele><time>2026-05-02T07:15:31.785Z</time></trkpt><trkpt lat="43.7150967" lon="12.3790533"><ele>354.20000000000005</ele><time>2026-05-02T07:15:32.786Z</time></trkpt><trkpt lat="43.7151183" lon="12.3791717"><ele>355.79999999999995</ele><time>2026-05-02T07:15:33.785Z</time></trkpt><trkpt lat="43.7151283" lon="12.379275"><ele>357.4</ele><time>2026-05-02T07:15:34.785Z</time></trkpt><trkpt lat="43.71512" lon="12.3793617"><ele>359.0</ele><time>2026-05-02T07:15:35.785Z</time></trkpt><trkpt lat="43.7149867" lon="12.3793317"><ele>359.0</ele><time>2026-05-02T07:15:37.786Z</time></trkpt><trkpt lat="43.7148733" lon="12.3791767"><ele>359.0</ele><time>2026-05-02T07:15:38.785Z</time></trkpt><trkpt lat="43.7148267" lon="12.3790317"><ele>359.0</ele><time>2026-05-02T07:15:39.785Z</time></trkpt><trkpt lat="43.7147867" lon="12.37883"><ele>359.0</ele><time>2026-05-02T07:15:40.785Z</time></trkpt><trkpt lat="43.7147283" lon="12.3786917"><ele>360.0</ele><time>2026-05-02T07:15:41.786Z</time></trkpt><trkpt lat="43.7146483" lon="12.37861"><ele>361.0</ele><time>2026-05-02T07:15:42.785Z</time></trkpt><trkpt lat="43.7145517" lon="12.3785783"><ele>362.0</ele><time>2026-05-02T07:15:43.785Z</time></trkpt><trkpt lat="43.7144433" lon="12.3786033"><ele>363.0</ele><time>2026-05-02T07:15:44.786Z</time></trkpt><trkpt lat="43.7143267" lon="12.3786983"><ele>364.0</ele><time>2026-05-02T07:15:45.786Z</time></trkpt><trkpt lat="43.7142117" lon="12.3788233"><ele>365.5</ele><time>2026-05-02T07:15:46.785Z</time></trkpt><trkpt lat="43.7141083" lon="12.3789583"><ele>367.0</ele><time>2026-05-02T07:15:47.786Z</time></trkpt><trkpt lat="43.7140083" lon="12.379105"><ele>368.5</ele><time>2026-05-02T07:15:48.785Z</time></trkpt><trkpt lat="43.71392" lon="12.3792617"><ele>370.0</ele><time>2026-05-02T07:15:49.786Z</time></trkpt><trkpt lat="43.7138583" lon="12.3794333"><ele>370.0</ele><time>2026-05-02T07:15:50.785Z</time></trkpt><trkpt lat="43.7138267" lon="12.3796117"><ele>370.0</ele><time>2026-05-02T07:15:51.786Z</time></trkpt><trkpt lat="43.7138267" lon="12.37979"><ele>370.0</ele><time>2026-05-02T07:15:52.785Z</time></trkpt><trkpt lat="43.71387" lon="12.3799567"><ele>370.0</ele><time>2026-05-02T07:15:53.785Z</time></trkpt><trkpt lat="43.7139483" lon="12.38009"><ele>368.8</ele><time>2026-05-02T07:15:54.785Z</time></trkpt><trkpt lat="43.714045" lon="12.3801633"><ele>367.6</ele><time>2026-05-02T07:15:55.785Z</time></trkpt><trkpt lat="43.7141433" lon="12.3801683"><ele>366.4</ele><time>2026-05-02T07:15:56.785Z</time></trkpt><trkpt lat="43.7142433" lon="12.3801167"><ele>365.2</ele><time>2026-05-02T07:15:57.786Z</time></trkpt><trkpt lat="43.7143417" lon="12.38006"><ele>364.0</ele><time>2026-05-02T07:15:58.786Z</time></trkpt><trkpt lat="43.71444" lon="12.380025"><ele>364.0</ele><time>2026-05-02T07:15:59.785Z</time></trkpt><trkpt lat="43.7145317" lon="12.3800333"><ele>364.0</ele><time>2026-05-02T07:16:00.785Z</time></trkpt><trkpt lat="43.714605" lon="12.3800817"><ele>364.0</ele><time>2026-05-02T07:16:01.785Z</time></trkpt><trkpt lat="43.714665" lon="12.38016"><ele>364.0</ele><time>2026-05-02T07:16:02.785Z</time></trkpt><trkpt lat="43.7147033" lon="12.3802567"><ele>364.0</ele><time>2026-05-02T07:16:03.785Z</time></trkpt><trkpt lat="43.7147133" lon="12.380375"><ele>364.0</ele><time>2026-05-02T07:16:04.786Z</time></trkpt><trkpt lat="43.7146767" lon="12.38051"><ele>366.0</ele><time>2026-05-02T07:16:05.787Z</time></trkpt><trkpt lat="43.7145917" lon="12.3806483"><ele>368.0</ele><time>2026-05-02T07:16:06.786Z</time></trkpt><trkpt lat="43.7144533" lon="12.3807583"><ele>370.0</ele><time>2026-05-02T07:16:07.786Z</time></trkpt><trkpt lat="43.7143067" lon="12.3808717"><ele>375.66666666666663</ele><time>2026-05-02T07:16:08.788Z</time></trkpt><trkpt lat="43.7141783" lon="12.3809917"><ele>381.3333333333333</ele><time>2026-05-02T07:16:09.789Z</time></trkpt><trkpt lat="43.714045" lon="12.3811083"><ele>387.0</ele><time>2026-05-02T07:16:10.788Z</time></trkpt><trkpt lat="43.71391" lon="12.3812267"><ele>387.0</ele><time>2026-05-02T07:16:11.789Z</time></trkpt><trkpt lat="43.71377" lon="12.3813467"><ele>387.0</ele><time>2026-05-02T07:16:12.789Z</time></trkpt><trkpt lat="43.71363" lon="12.3814617"><ele>387.0</ele><time>2026-05-02T07:16:13.788Z</time></trkpt><trkpt lat="43.71348" lon="12.3815617"><ele>390.25</ele><time>2026-05-02T07:16:14.787Z</time></trkpt><trkpt lat="43.7133217" lon="12.3816383"><ele>393.5</ele><time>2026-05-02T07:16:15.788Z</time></trkpt><trkpt lat="43.7131717" lon="12.381685"><ele>396.75</ele><time>2026-05-02T07:16:16.788Z</time></trkpt><trkpt lat="43.7130467" lon="12.3817183"><ele>400.0</ele><time>2026-05-02T07:16:17.789Z</time></trkpt><trkpt lat="43.7129517" lon="12.38177"><ele>400.0</ele><time>2026-05-02T07:16:18.788Z</time></trkpt><trkpt lat="43.7129017" lon="12.3818517"><ele>400.0</ele><time>2026-05-02T07:16:19.788Z</time></trkpt><trkpt lat="43.7128683" lon="12.38194"><ele>400.0</ele><time>2026-05-02T07:16:20.788Z</time></trkpt><trkpt lat="43.7128833" lon="12.3820567"><ele>400.0</ele><time>2026-05-02T07:16:21.788Z</time></trkpt><trkpt lat="43.7129617" lon="12.3821867"><ele>400.0</ele><time>2026-05-02T07:16:22.787Z</time></trkpt><trkpt lat="43.7131133" lon="12.3823"><ele>404.0</ele><time>2026-05-02T07:16:23.786Z</time></trkpt><trkpt lat="43.7132533" lon="12.3824"><ele>408.0</ele><time>2026-05-02T07:16:24.787Z</time></trkpt><trkpt lat="43.7133983" lon="12.38251"><ele>412.0</ele><time>2026-05-02T07:16:25.789Z</time></trkpt><trkpt lat="43.71354" lon="12.382635"><ele>410.6666666666667</ele><time>2026-05-02T07:16:26.789Z</time></trkpt><trkpt lat="43.7136767" lon="12.38278"><ele>409.33333333333337</ele><time>2026-05-02T07:16:27.788Z</time></trkpt><trkpt lat="43.7138133" lon="12.3829317"><ele>408.0</ele><time>2026-05-02T07:16:28.788Z</time></trkpt><trkpt lat="43.713955" lon="12.3830833"><ele>412.33333333333337</ele><time>2026-05-02T07:16:29.789Z</time></trkpt><trkpt lat="43.71409" lon="12.3832367"><ele>416.6666666666667</ele><time>2026-05-02T07:16:30.79Z</time></trkpt><trkpt lat="43.7142133" lon="12.3833917"><ele>421.0</ele><time>2026-05-02T07:16:31.789Z</time></trkpt><trkpt lat="43.7143183" lon="12.3835433"><ele>421.0</ele><time>2026-05-02T07:16:32.788Z</time></trkpt><trkpt lat="43.7143983" lon="12.383685"><ele>421.0</ele><time>2026-05-02T07:16:33.791Z</time></trkpt><trkpt lat="43.7144467" lon="12.3838217"><ele>421.0</ele><time>2026-05-02T07:16:34.791Z</time></trkpt><trkpt lat="43.7144583" lon="12.3839633"><ele>421.0</ele><time>2026-05-02T07:16:35.788Z</time></trkpt><trkpt lat="43.71444" lon="12.3841133"><ele>423.5</ele><time>2026-05-02T07:16:36.789Z</time></trkpt><trkpt lat="43.7144" lon="12.3842733"><ele>426.0</ele><time>2026-05-02T07:16:37.786Z</time></trkpt><trkpt lat="43.71435" lon="12.3844533"><ele>428.5</ele><time>2026-05-02T07:16:38.789Z</time></trkpt><trkpt lat="43.7143083" lon="12.38465"><ele>431.0</ele><time>2026-05-02T07:16:39.789Z</time></trkpt><trkpt lat="43.7142767" lon="12.3848583"><ele>431.0</ele><time>2026-05-02T07:16:40.789Z</time></trkpt><trkpt lat="43.71427" lon="12.3850683"><ele>431.0</ele><time>2026-05-02T07:16:41.789Z</time></trkpt><trkpt lat="43.7142817" lon="12.3852583"><ele>431.0</ele><time>2026-05-02T07:16:42.789Z</time></trkpt><trkpt lat="43.714305" lon="12.3854217"><ele>431.0</ele><time>2026-05-02T07:16:43.789Z</time></trkpt><trkpt lat="43.7143183" lon="12.3855667"><ele>431.0</ele><time>2026-05-02T07:16:44.785Z</time></trkpt><trkpt lat="43.7143067" lon="12.385685"><ele>431.0</ele><time>2026-05-02T07:16:45.786Z</time></trkpt><trkpt lat="43.714255" lon="12.38583"><ele>431.0</ele><time>2026-05-02T07:16:47.789Z</time></trkpt><trkpt lat="43.71413" lon="12.385735"><ele>431.0</ele><time>2026-05-02T07:16:49.785Z</time></trkpt><trkpt lat="43.7140017" lon="12.3855383"><ele>432.3333333333333</ele><time>2026-05-02T07:16:50.786Z</time></trkpt><trkpt lat="43.71385" lon="12.3854133"><ele>433.66666666666663</ele><time>2026-05-02T07:16:51.785Z</time></trkpt><trkpt lat="43.7137083" lon="12.3852967"><ele>435.0</ele><time>2026-05-02T07:16:52.786Z</time></trkpt><trkpt lat="43.713545" lon="12.38518"><ele>440.0</ele><time>2026-05-02T07:16:53.786Z</time></trkpt><trkpt lat="43.71341" lon="12.3850667"><ele>445.0</ele><time>2026-05-02T07:16:54.79Z</time></trkpt><trkpt lat="43.7132517" lon="12.3849767"><ele>450.0</ele><time>2026-05-02T07:16:55.787Z</time></trkpt><trkpt lat="43.7130867" lon="12.38493"><ele>450.0</ele><time>2026-05-02T07:16:56.786Z</time></trkpt><trkpt lat="43.7129267" lon="12.3849333"><ele>450.0</ele><time>2026-05-02T07:16:57.789Z</time></trkpt><trkpt lat="43.7127783" lon="12.3849933"><ele>450.0</ele><time>2026-05-02T07:16:58.789Z</time></trkpt><trkpt lat="43.7126467" lon="12.3850483"><ele>450.8</ele><time>2026-05-02T07:16:59.789Z</time></trkpt><trkpt lat="43.71252" lon="12.38508"><ele>451.6</ele><time>2026-05-02T07:17:00.788Z</time></trkpt><trkpt lat="43.7124083" lon="12.385125"><ele>452.4</ele><time>2026-05-02T07:17:01.789Z</time></trkpt><trkpt lat="43.71233" lon="12.38518"><ele>453.2</ele><time>2026-05-02T07:17:02.788Z</time></trkpt><trkpt lat="43.71227" lon="12.3852567"><ele>454.0</ele><time>2026-05-02T07:17:03.785Z</time></trkpt><trkpt lat="43.7122417" lon="12.38535"><ele>454.0</ele><time>2026-05-02T07:17:04.789Z</time></trkpt><trkpt lat="43.7122483" lon="12.38545"><ele>454.0</ele><time>2026-05-02T07:17:05.789Z</time></trkpt><trkpt lat="43.7122617" lon="12.385555"><ele>454.0</ele><time>2026-05-02T07:17:06.789Z</time></trkpt><trkpt lat="43.7122967" lon="12.3856417"><ele>454.0</ele><time>2026-05-02T07:17:07.789Z</time></trkpt><trkpt lat="43.7123833" lon="12.3857183"><ele>454.0</ele><time>2026-05-02T07:17:08.786Z</time></trkpt><trkpt lat="43.712535" lon="12.3857483"><ele>456.2</ele><time>2026-05-02T07:17:09.788Z</time></trkpt><trkpt lat="43.7125917" lon="12.385845"><ele>458.4</ele><time>2026-05-02T07:17:10.787Z</time></trkpt><trkpt lat="43.712675" lon="12.3859367"><ele>460.6</ele><time>2026-05-02T07:17:11.788Z</time></trkpt><trkpt lat="43.7127333" lon="12.3860467"><ele>462.8</ele><time>2026-05-02T07:17:12.787Z</time></trkpt><trkpt lat="43.7127467" lon="12.3861733"><ele>465.0</ele><time>2026-05-02T07:17:13.789Z</time></trkpt><trkpt lat="43.7127183" lon="12.3862867"><ele>465.0</ele><time>2026-05-02T07:17:14.787Z</time></trkpt><trkpt lat="43.7126667" lon="12.3863667"><ele>465.0</ele><time>2026-05-02T07:17:15.785Z</time></trkpt><trkpt lat="43.7125967" lon="12.3864183"><ele>465.0</ele><time>2026-05-02T07:17:16.786Z</time></trkpt><trkpt lat="43.7124067" lon="12.3863183"><ele>465.0</ele><time>2026-05-02T07:17:17.785Z</time></trkpt><trkpt lat="43.7122217" lon="12.3862417"><ele>465.0</ele><time>2026-05-02T07:17:18.786Z</time></trkpt><trkpt lat="43.7120667" lon="12.38622"><ele>465.0</ele><time>2026-05-02T07:17:19.785Z</time></trkpt><trkpt lat="43.711905" lon="12.3862333"><ele>465.0</ele><time>2026-05-02T07:17:20.789Z</time></trkpt><trkpt lat="43.7117333" lon="12.3862817"><ele>467.0</ele><time>2026-05-02T07:17:21.789Z</time></trkpt><trkpt lat="43.711545" lon="12.3863617"><ele>469.0</ele><time>2026-05-02T07:17:22.789Z</time></trkpt><trkpt lat="43.7113417" lon="12.386455"><ele>471.0</ele><time>2026-05-02T07:17:23.789Z</time></trkpt><trkpt lat="43.71113" lon="12.38655"><ele>473.33333333333337</ele><time>2026-05-02T07:17:24.789Z</time></trkpt><trkpt lat="43.7109267" lon="12.3866417"><ele>475.6666666666667</ele><time>2026-05-02T07:17:25.789Z</time></trkpt><trkpt lat="43.7107417" lon="12.3867217"><ele>478.0</ele><time>2026-05-02T07:17:26.789Z</time></trkpt><trkpt lat="43.7105717" lon="12.3867917"><ele>478.0</ele><time>2026-05-02T07:17:27.786Z</time></trkpt><trkpt lat="43.710415" lon="12.386855"><ele>478.0</ele><time>2026-05-02T07:17:28.79Z</time></trkpt><trkpt lat="43.7102733" lon="12.3869233"><ele>478.0</ele><time>2026-05-02T07:17:29.789Z</time></trkpt><trkpt lat="43.710145" lon="12.3870117"><ele>481.0</ele><time>2026-05-02T07:17:30.789Z</time></trkpt><trkpt lat="43.71003" lon="12.3871433"><ele>484.0</ele><time>2026-05-02T07:17:31.789Z</time></trkpt><trkpt lat="43.7099267" lon="12.3873117"><ele>487.0</ele><time>2026-05-02T07:17:32.79Z</time></trkpt><trkpt lat="43.709825" lon="12.3874933"><ele>487.0</ele><time>2026-05-02T07:17:33.789Z</time></trkpt><trkpt lat="43.7097183" lon="12.38768"><ele>487.0</ele><time>2026-05-02T07:17:34.789Z</time></trkpt><trkpt lat="43.7096067" lon="12.3878583"><ele>487.0</ele><time>2026-05-02T07:17:35.789Z</time></trkpt><trkpt lat="43.7094917" lon="12.388025"><ele>496.0</ele><time>2026-05-02T07:17:36.786Z</time></trkpt><trkpt lat="43.7093833" lon="12.3882033"><ele>505.0</ele><time>2026-05-02T07:17:37.788Z</time></trkpt><trkpt lat="43.7092833" lon="12.3883967"><ele>514.0</ele><time>2026-05-02T07:17:38.789Z</time></trkpt><trkpt lat="43.7091983" lon="12.3885933"><ele>514.0</ele><time>2026-05-02T07:17:39.79Z</time></trkpt><trkpt lat="43.7091233" lon="12.3887783"><ele>514.0</ele><time>2026-05-02T07:17:40.789Z</time></trkpt><trkpt lat="43.7090667" lon="12.3889433"><ele>514.0</ele><time>2026-05-02T07:17:41.786Z</time></trkpt><trkpt lat="43.70902" lon="12.3890917"><ele>514.0</ele><time>2026-05-02T07:17:42.788Z</time></trkpt><trkpt lat="43.7090033" lon="12.3892367"><ele>513.3333333333334</ele><time>2026-05-02T07:17:43.786Z</time></trkpt><trkpt lat="43.7089967" lon="12.3893683"><ele>512.6666666666667</ele><time>2026-05-02T07:17:44.789Z</time></trkpt><trkpt lat="43.7090033" lon="12.389495"><ele>512.0</ele><time>2026-05-02T07:17:45.789Z</time></trkpt><trkpt lat="43.7090017" lon="12.389605"><ele>511.33333333333337</ele><time>2026-05-02T07:17:46.789Z</time></trkpt><trkpt lat="43.7089767" lon="12.38969"><ele>510.6666666666667</ele><time>2026-05-02T07:17:47.79Z</time></trkpt><trkpt lat="43.7088767" lon="12.3897417"><ele>510.0</ele><time>2026-05-02T07:17:49.786Z</time></trkpt><trkpt lat="43.7088117" lon="12.3896733"><ele>510.0</ele><time>2026-05-02T07:17:50.785Z</time></trkpt><trkpt lat="43.70874" lon="12.389545"><ele>510.0</ele><time>2026-05-02T07:17:51.789Z</time></trkpt><trkpt lat="43.7086883" lon="12.3893783"><ele>510.0</ele><time>2026-05-02T07:17:52.786Z</time></trkpt><trkpt lat="43.7086367" lon="12.3892033"><ele>510.0</ele><time>2026-05-02T07:17:53.79Z</time></trkpt><trkpt lat="43.70858" lon="12.389035"><ele>511.5</ele><time>2026-05-02T07:17:54.789Z</time></trkpt><trkpt lat="43.7084783" lon="12.3889"><ele>513.0</ele><time>2026-05-02T07:17:55.79Z</time></trkpt><trkpt lat="43.708355" lon="12.38882"><ele>514.5</ele><time>2026-05-02T07:17:56.789Z</time></trkpt><trkpt lat="43.7082183" lon="12.38881"><ele>516.0</ele><time>2026-05-02T07:17:57.79Z</time></trkpt><trkpt lat="43.7080767" lon="12.3888567"><ele>516.0</ele><time>2026-05-02T07:17:58.789Z</time></trkpt><trkpt lat="43.7079517" lon="12.3889067"><ele>516.0</ele><time>2026-05-02T07:17:59.789Z</time></trkpt><trkpt lat="43.7078367" lon="12.3889383"><ele>516.0</ele><time>2026-05-02T07:18:00.789Z</time></trkpt><trkpt lat="43.7077233" lon="12.3889283"><ele>516.0</ele><time>2026-05-02T07:18:01.789Z</time></trkpt><trkpt lat="43.7076133" lon="12.3888717"><ele>518.75</ele><time>2026-05-02T07:18:02.789Z</time></trkpt><trkpt lat="43.7075183" lon="12.3887517"><ele>521.5</ele><time>2026-05-02T07:18:03.789Z</time></trkpt><trkpt lat="43.7074233" lon="12.3886117"><ele>524.25</ele><time>2026-05-02T07:18:04.789Z</time></trkpt><trkpt lat="43.70732" lon="12.3884667"><ele>527.0</ele><time>2026-05-02T07:18:05.786Z</time></trkpt><trkpt lat="43.7072183" lon="12.3883117"><ele>527.0</ele><time>2026-05-02T07:18:06.79Z</time></trkpt><trkpt lat="43.707125" lon="12.3881583"><ele>527.0</ele><time>2026-05-02T07:18:07.789Z</time></trkpt><trkpt lat="43.7070467" lon="12.3880017"><ele>527.0</ele><time>2026-05-02T07:18:08.789Z</time></trkpt><trkpt lat="43.7069917" lon="12.3878167"><ele>527.0</ele><time>2026-05-02T07:18:09.791Z</time></trkpt><trkpt lat="43.7069567" lon="12.3876167"><ele>528.75</ele><time>2026-05-02T07:18:10.79Z</time></trkpt><trkpt lat="43.7069333" lon="12.3874067"><ele>530.5</ele><time>2026-05-02T07:18:11.789Z</time></trkpt><trkpt lat="43.70691" lon="12.387205"><ele>532.25</ele><time>2026-05-02T07:18:12.789Z</time></trkpt><trkpt lat="43.706875" lon="12.3870333"><ele>534.0</ele><time>2026-05-02T07:18:13.789Z</time></trkpt><trkpt lat="43.7068183" lon="12.38689"><ele>534.0</ele><time>2026-05-02T07:18:14.79Z</time></trkpt><trkpt lat="43.7067333" lon="12.3867833"><ele>534.0</ele><time>2026-05-02T07:18:15.789Z</time></trkpt><trkpt lat="43.7066217" lon="12.3867033"><ele>534.0</ele><time>2026-05-02T07:18:16.789Z</time></trkpt><trkpt lat="43.7065" lon="12.386615"><ele>534.0</ele><time>2026-05-02T07:18:17.789Z</time></trkpt><trkpt lat="43.7063733" lon="12.3865183"><ele>534.0</ele><time>2026-05-02T07:18:18.79Z</time></trkpt><trkpt lat="43.7062433" lon="12.38642"><ele>534.0</ele><time>2026-05-02T07:18:19.79Z</time></trkpt><trkpt lat="43.706095" lon="12.386355"><ele>534.0</ele><time>2026-05-02T07:18:20.789Z</time></trkpt><trkpt lat="43.7059383" lon="12.3863183"><ele>537.3333333333334</ele><time>2026-05-02T07:18:21.789Z</time></trkpt><trkpt lat="43.70578" lon="12.386295"><ele>540.6666666666667</ele><time>2026-05-02T07:18:22.789Z</time></trkpt><trkpt lat="43.70562" lon="12.3862933"><ele>544.0</ele><time>2026-05-02T07:18:23.789Z</time></trkpt><trkpt lat="43.705455" lon="12.3863167"><ele>535.6666666666667</ele><time>2026-05-02T07:18:24.791Z</time></trkpt><trkpt lat="43.7052883" lon="12.386355"><ele>527.3333333333334</ele><time>2026-05-02T07:18:25.789Z</time></trkpt><trkpt lat="43.7051233" lon="12.3864083"><ele>519.0</ele><time>2026-05-02T07:18:26.79Z</time></trkpt><trkpt lat="43.7049583" lon="12.386465"><ele>518.6666666666666</ele><time>2026-05-02T07:18:27.79Z</time></trkpt><trkpt lat="43.7047983" lon="12.386525"><ele>518.3333333333333</ele><time>2026-05-02T07:18:28.79Z</time></trkpt><trkpt lat="43.704645" lon="12.3865917"><ele>518.0</ele><time>2026-05-02T07:18:29.789Z</time></trkpt><trkpt lat="43.7044983" lon="12.3866667"><ele>517.3333333333333</ele><time>2026-05-02T07:18:30.789Z</time></trkpt><trkpt lat="43.704355" lon="12.3867617"><ele>516.6666666666666</ele><time>2026-05-02T07:18:31.789Z</time></trkpt><trkpt lat="43.7042133" lon="12.3868883"><ele>516.0</ele><time>2026-05-02T07:18:32.789Z</time></trkpt><trkpt lat="43.70408" lon="12.38704"><ele>514.3333333333334</ele><time>2026-05-02T07:18:33.79Z</time></trkpt><trkpt lat="43.7039517" lon="12.3872017"><ele>512.6666666666667</ele><time>2026-05-02T07:18:34.789Z</time></trkpt><trkpt lat="43.7038233" lon="12.3873583"><ele>511.0</ele><time>2026-05-02T07:18:35.79Z</time></trkpt><trkpt lat="43.703685" lon="12.387495"><ele>514.3333333333334</ele><time>2026-05-02T07:18:36.789Z</time></trkpt><trkpt lat="43.703535" lon="12.387615"><ele>517.6666666666666</ele><time>2026-05-02T07:18:37.789Z</time></trkpt><trkpt lat="43.70339" lon="12.3877233"><ele>521.0</ele><time>2026-05-02T07:18:38.788Z</time></trkpt><trkpt lat="43.7032483" lon="12.3878283"><ele>521.0</ele><time>2026-05-02T07:18:39.79Z</time></trkpt><trkpt lat="43.7031033" lon="12.3879433"><ele>521.0</ele><time>2026-05-02T07:18:40.789Z</time></trkpt><trkpt lat="43.7029617" lon="12.388075"><ele>521.0</ele><time>2026-05-02T07:18:41.787Z</time></trkpt><trkpt lat="43.70282" lon="12.3882183"><ele>520.3333333333333</ele><time>2026-05-02T07:18:42.786Z</time></trkpt><trkpt lat="43.702675" lon="12.3883667"><ele>519.6666666666666</ele><time>2026-05-02T07:18:43.786Z</time></trkpt><trkpt lat="43.7025267" lon="12.3885117"><ele>519.0</ele><time>2026-05-02T07:18:44.788Z</time></trkpt><trkpt lat="43.7023767" lon="12.3886483"><ele>519.0</ele><time>2026-05-02T07:18:45.789Z</time></trkpt><trkpt lat="43.7022333" lon="12.3887667"><ele>519.0</ele><time>2026-05-02T07:18:46.789Z</time></trkpt><trkpt lat="43.7021067" lon="12.3888717"><ele>519.0</ele><time>2026-05-02T07:18:47.786Z</time></trkpt><trkpt lat="43.7019767" lon="12.38896"><ele>515.6666666666666</ele><time>2026-05-02T07:18:48.789Z</time></trkpt><trkpt lat="43.7018317" lon="12.3890133"><ele>512.3333333333333</ele><time>2026-05-02T07:18:49.791Z</time></trkpt><trkpt lat="43.7016667" lon="12.389045"><ele>509.0</ele><time>2026-05-02T07:18:50.786Z</time></trkpt><trkpt lat="43.701495" lon="12.3890433"><ele>509.0</ele><time>2026-05-02T07:18:51.787Z</time></trkpt><trkpt lat="43.701335" lon="12.38904"><ele>509.0</ele><time>2026-05-02T07:18:52.79Z</time></trkpt><trkpt lat="43.7011833" lon="12.389065"><ele>509.0</ele><time>2026-05-02T07:18:53.789Z</time></trkpt><trkpt lat="43.701025" lon="12.3891467"><ele>509.0</ele><time>2026-05-02T07:18:54.786Z</time></trkpt><trkpt lat="43.7008633" lon="12.38928"><ele>509.0</ele><time>2026-05-02T07:18:55.789Z</time></trkpt><trkpt lat="43.700705" lon="12.3894433"><ele>509.0</ele><time>2026-05-02T07:18:56.789Z</time></trkpt><trkpt lat="43.70056" lon="12.389625"><ele>508.0</ele><time>2026-05-02T07:18:57.789Z</time></trkpt><trkpt lat="43.7004383" lon="12.3898217"><ele>507.0</ele><time>2026-05-02T07:18:58.789Z</time></trkpt><trkpt lat="43.70034" lon="12.3900217"><ele>506.0</ele><time>2026-05-02T07:18:59.789Z</time></trkpt><trkpt lat="43.700275" lon="12.39023"><ele>506.0</ele><time>2026-05-02T07:19:00.789Z</time></trkpt><trkpt lat="43.7002533" lon="12.3904567"><ele>506.0</ele><time>2026-05-02T07:19:01.786Z</time></trkpt><trkpt lat="43.7002517" lon="12.390675"><ele>506.0</ele><time>2026-05-02T07:19:02.79Z</time></trkpt><trkpt lat="43.7002533" lon="12.3908817"><ele>506.0</ele><time>2026-05-02T07:19:03.789Z</time></trkpt><trkpt lat="43.7002683" lon="12.3910833"><ele>506.0</ele><time>2026-05-02T07:19:04.789Z</time></trkpt><trkpt lat="43.7003083" lon="12.3912667"><ele>506.0</ele><time>2026-05-02T07:19:05.789Z</time></trkpt><trkpt lat="43.7003767" lon="12.391425"><ele>506.0</ele><time>2026-05-02T07:19:06.789Z</time></trkpt><trkpt lat="43.70048" lon="12.3915567"><ele>508.0</ele><time>2026-05-02T07:19:07.789Z</time></trkpt><trkpt lat="43.7005983" lon="12.391675"><ele>510.0</ele><time>2026-05-02T07:19:08.79Z</time></trkpt><trkpt lat="43.7007267" lon="12.3917883"><ele>512.0</ele><time>2026-05-02T07:19:09.789Z</time></trkpt><trkpt lat="43.7008417" lon="12.391905"><ele>514.0</ele><time>2026-05-02T07:19:10.789Z</time></trkpt><trkpt lat="43.7009367" lon="12.3920417"><ele>512.25</ele><time>2026-05-02T07:19:11.79Z</time></trkpt><trkpt lat="43.701015" lon="12.3921883"><ele>510.5</ele><time>2026-05-02T07:19:12.787Z</time></trkpt><trkpt lat="43.70107" lon="12.3923383"><ele>508.75</ele><time>2026-05-02T07:19:13.791Z</time></trkpt><trkpt lat="43.7011083" lon="12.3924883"><ele>507.0</ele><time>2026-05-02T07:19:14.789Z</time></trkpt><trkpt lat="43.701135" lon="12.3926433"><ele>507.0</ele><time>2026-05-02T07:19:15.789Z</time></trkpt><trkpt lat="43.70115" lon="12.3928017"><ele>507.0</ele><time>2026-05-02T07:19:16.789Z</time></trkpt><trkpt lat="43.70116" lon="12.3929667"><ele>507.0</ele><time>2026-05-02T07:19:17.79Z</time></trkpt><trkpt lat="43.701165" lon="12.3931333"><ele>507.0</ele><time>2026-05-02T07:19:18.789Z</time></trkpt><trkpt lat="43.701165" lon="12.393305"><ele>507.25</ele><time>2026-05-02T07:19:19.791Z</time></trkpt><trkpt lat="43.7011617" lon="12.393475"><ele>507.5</ele><time>2026-05-02T07:19:20.785Z</time></trkpt><trkpt lat="43.701155" lon="12.3936517"><ele>507.75</ele><time>2026-05-02T07:19:21.788Z</time></trkpt><trkpt lat="43.701145" lon="12.39383"><ele>508.0</ele><time>2026-05-02T07:19:22.785Z</time></trkpt><trkpt lat="43.7011267" lon="12.3940083"><ele>508.0</ele><time>2026-05-02T07:19:23.786Z</time></trkpt><trkpt lat="43.7010967" lon="12.394185"><ele>508.0</ele><time>2026-05-02T07:19:24.789Z</time></trkpt><trkpt lat="43.701035" lon="12.39436"><ele>508.0</ele><time>2026-05-02T07:19:25.788Z</time></trkpt><trkpt lat="43.700965" lon="12.3945283"><ele>508.0</ele><time>2026-05-02T07:19:26.786Z</time></trkpt><trkpt lat="43.70089" lon="12.3946817"><ele>510.2</ele><time>2026-05-02T07:19:27.789Z</time></trkpt><trkpt lat="43.7008133" lon="12.39481"><ele>512.4</ele><time>2026-05-02T07:19:28.785Z</time></trkpt><trkpt lat="43.70073" lon="12.3949033"><ele>514.5999999999999</ele><time>2026-05-02T07:19:29.785Z</time></trkpt><trkpt lat="43.7006317" lon="12.39495"><ele>516.8</ele><time>2026-05-02T07:19:30.786Z</time></trkpt><trkpt lat="43.7005283" lon="12.3949583"><ele>519.0</ele><time>2026-05-02T07:19:31.785Z</time></trkpt><trkpt lat="43.7004233" lon="12.3949283"><ele>519.0</ele><time>2026-05-02T07:19:32.788Z</time></trkpt><trkpt lat="43.7003033" lon="12.3948733"><ele>519.0</ele><time>2026-05-02T07:19:33.788Z</time></trkpt><trkpt lat="43.700185" lon="12.394805"><ele>519.0</ele><time>2026-05-02T07:19:34.788Z</time></trkpt><trkpt lat="43.70007" lon="12.39473"><ele>519.0</ele><time>2026-05-02T07:19:35.786Z</time></trkpt><trkpt lat="43.699965" lon="12.3946383"><ele>526.75</ele><time>2026-05-02T07:19:36.789Z</time></trkpt><trkpt lat="43.6998617" lon="12.394535"><ele>534.5</ele><time>2026-05-02T07:19:37.785Z</time></trkpt><trkpt lat="43.6997683" lon="12.3944083"><ele>542.25</ele><time>2026-05-02T07:19:38.787Z</time></trkpt><trkpt lat="43.6996717" lon="12.39428"><ele>550.0</ele><time>2026-05-02T07:19:39.787Z</time></trkpt><trkpt lat="43.6995733" lon="12.3941617"><ele>550.0</ele><time>2026-05-02T07:19:40.787Z</time></trkpt><trkpt lat="43.6994683" lon="12.3940633"><ele>550.0</ele><time>2026-05-02T07:19:41.789Z</time></trkpt><trkpt lat="43.6993567" lon="12.3939883"><ele>550.0</ele><time>2026-05-02T07:19:42.788Z</time></trkpt><trkpt lat="43.6992367" lon="12.3939317"><ele>550.0</ele><time>2026-05-02T07:19:43.788Z</time></trkpt><trkpt lat="43.699125" lon="12.3938883"><ele>551.6</ele><time>2026-05-02T07:19:44.789Z</time></trkpt><trkpt lat="43.6990167" lon="12.393855"><ele>553.2</ele><time>2026-05-02T07:19:45.789Z</time></trkpt><trkpt lat="43.6989083" lon="12.39383"><ele>554.8</ele><time>2026-05-02T07:19:46.789Z</time></trkpt><trkpt lat="43.6988017" lon="12.393825"><ele>556.4</ele><time>2026-05-02T07:19:47.789Z</time></trkpt><trkpt lat="43.6987033" lon="12.3938367"><ele>558.0</ele><time>2026-05-02T07:19:48.789Z</time></trkpt><trkpt lat="43.6986217" lon="12.3938533"><ele>556.1666666666666</ele><time>2026-05-02T07:19:49.788Z</time></trkpt><trkpt lat="43.69855" lon="12.3938733"><ele>554.3333333333334</ele><time>2026-05-02T07:19:50.788Z</time></trkpt><trkpt lat="43.6984333" lon="12.39389"><ele>552.5</ele><time>2026-05-02T07:19:52.789Z</time></trkpt><trkpt lat="43.6983317" lon="12.3938283"><ele>550.6666666666667</ele><time>2026-05-02T07:19:54.788Z</time></trkpt><trkpt lat="43.6982867" lon="12.3937617"><ele>548.8333333333334</ele><time>2026-05-02T07:19:55.789Z</time></trkpt><trkpt lat="43.6982483" lon="12.393675"><ele>547.0</ele><time>2026-05-02T07:19:56.785Z</time></trkpt><trkpt lat="43.698195" lon="12.3935717"><ele>547.0</ele><time>2026-05-02T07:19:57.785Z</time></trkpt><trkpt lat="43.698135" lon="12.3934567"><ele>547.0</ele><time>2026-05-02T07:19:58.785Z</time></trkpt><trkpt lat="43.6980717" lon="12.393335"><ele>547.0</ele><time>2026-05-02T07:19:59.786Z</time></trkpt><trkpt lat="43.698005" lon="12.3932117"><ele>547.0</ele><time>2026-05-02T07:20:00.785Z</time></trkpt><trkpt lat="43.6979383" lon="12.3930983"><ele>547.0</ele><time>2026-05-02T07:20:01.785Z</time></trkpt><trkpt lat="43.69787" lon="12.3929917"><ele>548.0</ele><time>2026-05-02T07:20:02.785Z</time></trkpt><trkpt lat="43.6977917" lon="12.3928967"><ele>549.0</ele><time>2026-05-02T07:20:03.785Z</time></trkpt><trkpt lat="43.6977133" lon="12.3928133"><ele>550.0</ele><time>2026-05-02T07:20:04.785Z</time></trkpt><trkpt lat="43.6976517" lon="12.3927317"><ele>551.0</ele><time>2026-05-02T07:20:05.787Z</time></trkpt><trkpt lat="43.6976083" lon="12.3926533"><ele>552.0</ele><time>2026-05-02T07:20:06.785Z</time></trkpt><trkpt lat="43.6975817" lon="12.3925017"><ele>552.0</ele><time>2026-05-02T07:20:08.789Z</time></trkpt><trkpt lat="43.697605" lon="12.39242"><ele>552.0</ele><time>2026-05-02T07:20:09.789Z</time></trkpt><trkpt lat="43.6976333" lon="12.3923367"><ele>552.0</ele><time>2026-05-02T07:20:10.788Z</time></trkpt><trkpt lat="43.697655" lon="12.392245"><ele>552.0</ele><time>2026-05-02T07:20:11.788Z</time></trkpt><trkpt lat="43.6976767" lon="12.392145"><ele>552.0</ele><time>2026-05-02T07:20:12.788Z</time></trkpt><trkpt lat="43.6976867" lon="12.392035"><ele>552.0</ele><time>2026-05-02T07:20:13.789Z</time></trkpt><trkpt lat="43.6976917" lon="12.3919183"><ele>552.0</ele><time>2026-05-02T07:20:14.79Z</time></trkpt><trkpt lat="43.697695" lon="12.3917967"><ele>554.0</ele><time>2026-05-02T07:20:15.785Z</time></trkpt><trkpt lat="43.6976983" lon="12.3916667"><ele>556.0</ele><time>2026-05-02T07:20:16.786Z</time></trkpt><trkpt lat="43.697685" lon="12.39153"><ele>558.0</ele><time>2026-05-02T07:20:17.788Z</time></trkpt><trkpt lat="43.6976617" lon="12.391395"><ele>560.0</ele><time>2026-05-02T07:20:18.785Z</time></trkpt><trkpt lat="43.6976267" lon="12.3912683"><ele>562.0</ele><time>2026-05-02T07:20:19.788Z</time></trkpt><trkpt lat="43.69759" lon="12.3911417"><ele>563.3333333333334</ele><time>2026-05-02T07:20:20.788Z</time></trkpt><trkpt lat="43.6975683" lon="12.39102"><ele>564.6666666666667</ele><time>2026-05-02T07:20:21.789Z</time></trkpt><trkpt lat="43.697565" lon="12.3908967"><ele>566.0</ele><time>2026-05-02T07:20:22.789Z</time></trkpt><trkpt lat="43.6975883" lon="12.3907883"><ele>567.3333333333334</ele><time>2026-05-02T07:20:23.788Z</time></trkpt><trkpt lat="43.69763" lon="12.3906833"><ele>568.6666666666666</ele><time>2026-05-02T07:20:24.785Z</time></trkpt><trkpt lat="43.6976867" lon="12.3905783"><ele>570.0</ele><time>2026-05-02T07:20:25.788Z</time></trkpt><trkpt lat="43.697745" lon="12.3904683"><ele>570.4</ele><time>2026-05-02T07:20:26.785Z</time></trkpt><trkpt lat="43.6977833" lon="12.3903433"><ele>570.8</ele><time>2026-05-02T07:20:27.787Z</time></trkpt><trkpt lat="43.6977917" lon="12.3902033"><ele>571.2</ele><time>2026-05-02T07:20:28.787Z</time></trkpt><trkpt lat="43.6977767" lon="12.39006"><ele>571.6</ele><time>2026-05-02T07:20:29.786Z</time></trkpt><trkpt lat="43.6977367" lon="12.38992"><ele>572.0</ele><time>2026-05-02T07:20:30.785Z</time></trkpt><trkpt lat="43.6976883" lon="12.3897867"><ele>572.75</ele><time>2026-05-02T07:20:31.785Z</time></trkpt><trkpt lat="43.6976317" lon="12.38966"><ele>573.5</ele><time>2026-05-02T07:20:32.785Z</time></trkpt><trkpt lat="43.6975717" lon="12.3895333"><ele>574.25</ele><time>2026-05-02T07:20:33.785Z</time></trkpt><trkpt lat="43.69751" lon="12.3894017"><ele>575.0</ele><time>2026-05-02T07:20:34.787Z</time></trkpt><trkpt lat="43.697445" lon="12.3892617"><ele>575.0</ele><time>2026-05-02T07:20:35.786Z</time></trkpt><trkpt lat="43.697385" lon="12.38912"><ele>575.0</ele><time>2026-05-02T07:20:36.785Z</time></trkpt><trkpt lat="43.6973317" lon="12.3889883"><ele>575.0</ele><time>2026-05-02T07:20:37.787Z</time></trkpt><trkpt lat="43.6972817" lon="12.3888633"><ele>575.0</ele><time>2026-05-02T07:20:38.788Z</time></trkpt><trkpt lat="43.6972367" lon="12.3887367"><ele>575.0</ele><time>2026-05-02T07:20:39.787Z</time></trkpt><trkpt lat="43.697195" lon="12.3886067"><ele>572.0</ele><time>2026-05-02T07:20:40.79Z</time></trkpt><trkpt lat="43.6971567" lon="12.3884667"><ele>569.0</ele><time>2026-05-02T07:20:41.788Z</time></trkpt><trkpt lat="43.69712" lon="12.3883133"><ele>566.0</ele><time>2026-05-02T07:20:42.785Z</time></trkpt><trkpt lat="43.6970817" lon="12.388145"><ele>563.0</ele><time>2026-05-02T07:20:43.788Z</time></trkpt><trkpt lat="43.6970467" lon="12.3879633"><ele>556.6666666666666</ele><time>2026-05-02T07:20:44.789Z</time></trkpt><trkpt lat="43.697" lon="12.3877633"><ele>550.3333333333334</ele><time>2026-05-02T07:20:45.788Z</time></trkpt><trkpt lat="43.6969583" lon="12.387555"><ele>544.0</ele><time>2026-05-02T07:20:46.789Z</time></trkpt><trkpt lat="43.69692" lon="12.3873583"><ele>548.75</ele><time>2026-05-02T07:20:47.788Z</time></trkpt><trkpt lat="43.6968833" lon="12.3871717"><ele>553.5</ele><time>2026-05-02T07:20:48.791Z</time></trkpt><trkpt lat="43.696855" lon="12.387"><ele>558.25</ele><time>2026-05-02T07:20:49.789Z</time></trkpt><trkpt lat="43.6968233" lon="12.386835"><ele>563.0</ele><time>2026-05-02T07:20:50.789Z</time></trkpt><trkpt lat="43.6967783" lon="12.3866717"><ele>563.0</ele><time>2026-05-02T07:20:51.788Z</time></trkpt><trkpt lat="43.6967183" lon="12.3865117"><ele>563.0</ele><time>2026-05-02T07:20:52.788Z</time></trkpt><trkpt lat="43.6966517" lon="12.38635"><ele>563.0</ele><time>2026-05-02T07:20:53.789Z</time></trkpt><trkpt lat="43.6965867" lon="12.3861817"><ele>563.0</ele><time>2026-05-02T07:20:54.79Z</time></trkpt><trkpt lat="43.696525" lon="12.3860117"><ele>561.8</ele><time>2026-05-02T07:20:55.788Z</time></trkpt><trkpt lat="43.69647" lon="12.3858467"><ele>560.5999999999999</ele><time>2026-05-02T07:20:56.786Z</time></trkpt><trkpt lat="43.696425" lon="12.385695"><ele>559.4000000000001</ele><time>2026-05-02T07:20:57.787Z</time></trkpt><trkpt lat="43.6963867" lon="12.3855583"><ele>558.2</ele><time>2026-05-02T07:20:58.787Z</time></trkpt><trkpt lat="43.6963467" lon="12.3854433"><ele>557.0</ele><time>2026-05-02T07:20:59.788Z</time></trkpt><trkpt lat="43.6962967" lon="12.38535"><ele>557.0</ele><time>2026-05-02T07:21:00.788Z</time></trkpt><trkpt lat="43.6962333" lon="12.3852717"><ele>557.0</ele><time>2026-05-02T07:21:01.788Z</time></trkpt><trkpt lat="43.6961517" lon="12.385205"><ele>557.0</ele><time>2026-05-02T07:21:02.789Z</time></trkpt><trkpt lat="43.6960467" lon="12.3851483"><ele>557.0</ele><time>2026-05-02T07:21:03.788Z</time></trkpt><trkpt lat="43.6959333" lon="12.3850983"><ele>557.0</ele><time>2026-05-02T07:21:04.788Z</time></trkpt><trkpt lat="43.6958117" lon="12.3850467"><ele>557.0</ele><time>2026-05-02T07:21:05.787Z</time></trkpt><trkpt lat="43.6956767" lon="12.3849933"><ele>557.0</ele><time>2026-05-02T07:21:06.788Z</time></trkpt><trkpt lat="43.69554" lon="12.3849317"><ele>557.0</ele><time>2026-05-02T07:21:07.787Z</time></trkpt><trkpt lat="43.6954033" lon="12.3848583"><ele>557.0</ele><time>2026-05-02T07:21:08.788Z</time></trkpt><trkpt lat="43.6952733" lon="12.384785"><ele>556.5</ele><time>2026-05-02T07:21:09.787Z</time></trkpt><trkpt lat="43.69515" lon="12.3847233"><ele>556.0</ele><time>2026-05-02T07:21:10.789Z</time></trkpt><trkpt lat="43.6950283" lon="12.3846767"><ele>555.5</ele><time>2026-05-02T07:21:11.789Z</time></trkpt><trkpt lat="43.6949083" lon="12.3846333"><ele>555.0</ele><time>2026-05-02T07:21:12.789Z</time></trkpt><trkpt lat="43.694785" lon="12.384585"><ele>555.0</ele><time>2026-05-02T07:21:13.788Z</time></trkpt><trkpt lat="43.6946583" lon="12.3845317"><ele>555.0</ele><time>2026-05-02T07:21:14.789Z</time></trkpt><trkpt lat="43.6945267" lon="12.38447"><ele>555.0</ele><time>2026-05-02T07:21:15.789Z</time></trkpt><trkpt lat="43.6943933" lon="12.3843967"><ele>555.0</ele><time>2026-05-02T07:21:16.788Z</time></trkpt><trkpt lat="43.6942617" lon="12.3843133"><ele>556.0</ele><time>2026-05-02T07:21:17.789Z</time></trkpt><trkpt lat="43.694135" lon="12.38423"><ele>557.0</ele><time>2026-05-02T07:21:18.785Z</time></trkpt><trkpt lat="43.6940167" lon="12.3841517"><ele>558.0</ele><time>2026-05-02T07:21:19.785Z</time></trkpt><trkpt lat="43.6939067" lon="12.38408"><ele>559.0</ele><time>2026-05-02T07:21:20.786Z</time></trkpt><trkpt lat="43.6938033" lon="12.3840083"><ele>559.0</ele><time>2026-05-02T07:21:21.785Z</time></trkpt><trkpt lat="43.6937" lon="12.3839217"><ele>559.0</ele><time>2026-05-02T07:21:22.787Z</time></trkpt><trkpt lat="43.6936033" lon="12.383805"><ele>559.0</ele><time>2026-05-02T07:21:23.786Z</time></trkpt><trkpt lat="43.6935133" lon="12.38367"><ele>559.0</ele><time>2026-05-02T07:21:24.789Z</time></trkpt><trkpt lat="43.6934317" lon="12.38354"><ele>561.75</ele><time>2026-05-02T07:21:25.788Z</time></trkpt><trkpt lat="43.693345" lon="12.3834283"><ele>564.5</ele><time>2026-05-02T07:21:26.789Z</time></trkpt><trkpt lat="43.6932467" lon="12.383335"><ele>567.25</ele><time>2026-05-02T07:21:27.785Z</time></trkpt><trkpt lat="43.69313" lon="12.383265"><ele>570.0</ele><time>2026-05-02T07:21:28.785Z</time></trkpt><trkpt lat="43.693005" lon="12.3832167"><ele>570.0</ele><time>2026-05-02T07:21:29.786Z</time></trkpt><trkpt lat="43.6928717" lon="12.383175"><ele>570.0</ele><time>2026-05-02T07:21:30.785Z</time></trkpt><trkpt lat="43.6927383" lon="12.3831283"><ele>570.0</ele><time>2026-05-02T07:21:31.785Z</time></trkpt><trkpt lat="43.69262" lon="12.38308"><ele>570.0</ele><time>2026-05-02T07:21:32.787Z</time></trkpt><trkpt lat="43.6925233" lon="12.3830317"><ele>571.5</ele><time>2026-05-02T07:21:33.786Z</time></trkpt><trkpt lat="43.6924567" lon="12.382975"><ele>573.0</ele><time>2026-05-02T07:21:34.789Z</time></trkpt><trkpt lat="43.6923983" lon="12.382915"><ele>574.5</ele><time>2026-05-02T07:21:35.792Z</time></trkpt><trkpt lat="43.6923333" lon="12.3828567"><ele>576.0</ele><time>2026-05-02T07:21:36.785Z</time></trkpt><trkpt lat="43.6922617" lon="12.3827833"><ele>577.5</ele><time>2026-05-02T07:21:37.787Z</time></trkpt><trkpt lat="43.6921817" lon="12.3826867"><ele>579.0</ele><time>2026-05-02T07:21:38.789Z</time></trkpt><trkpt lat="43.6921033" lon="12.3825817"><ele>579.0</ele><time>2026-05-02T07:21:39.788Z</time></trkpt><trkpt lat="43.692035" lon="12.3824667"><ele>579.0</ele><time>2026-05-02T07:21:40.788Z</time></trkpt><trkpt lat="43.6919783" lon="12.3823467"><ele>579.0</ele><time>2026-05-02T07:21:41.787Z</time></trkpt><trkpt lat="43.6919333" lon="12.38222"><ele>579.0</ele><time>2026-05-02T07:21:42.788Z</time></trkpt><trkpt lat="43.6918967" lon="12.3820867"><ele>579.0</ele><time>2026-05-02T07:21:43.787Z</time></trkpt><trkpt lat="43.6918683" lon="12.3819467"><ele>576.5</ele><time>2026-05-02T07:21:44.789Z</time></trkpt><trkpt lat="43.69184" lon="12.3817983"><ele>574.0</ele><time>2026-05-02T07:21:45.789Z</time></trkpt><trkpt lat="43.6918067" lon="12.3816483"><ele>571.5</ele><time>2026-05-02T07:21:46.788Z</time></trkpt><trkpt lat="43.691765" lon="12.3814933"><ele>569.0</ele><time>2026-05-02T07:21:47.79Z</time></trkpt><trkpt lat="43.6917183" lon="12.3813417"><ele>565.5</ele><time>2026-05-02T07:21:48.789Z</time></trkpt><trkpt lat="43.691665" lon="12.3811833"><ele>562.0</ele><time>2026-05-02T07:21:49.788Z</time></trkpt><trkpt lat="43.6916083" lon="12.381025"><ele>558.5</ele><time>2026-05-02T07:21:50.79Z</time></trkpt><trkpt lat="43.6915433" lon="12.3808533"><ele>555.0</ele><time>2026-05-02T07:21:51.788Z</time></trkpt><trkpt lat="43.691475" lon="12.3806733"><ele>551.0</ele><time>2026-05-02T07:21:52.785Z</time></trkpt><trkpt lat="43.691405" lon="12.3804967"><ele>547.0</ele><time>2026-05-02T07:21:53.79Z</time></trkpt><trkpt lat="43.69133" lon="12.3803183"><ele>543.0</ele><time>2026-05-02T07:21:54.789Z</time></trkpt><trkpt lat="43.6912533" lon="12.3801417"><ele>539.0</ele><time>2026-05-02T07:21:55.789Z</time></trkpt><trkpt lat="43.6911767" lon="12.37996"><ele>539.0</ele><time>2026-05-02T07:21:56.785Z</time></trkpt><trkpt lat="43.6911" lon="12.37977"><ele>539.0</ele><time>2026-05-02T07:21:57.787Z</time></trkpt><trkpt lat="43.69102" lon="12.37958"><ele>539.0</ele><time>2026-05-02T07:21:58.788Z</time></trkpt><trkpt lat="43.69095" lon="12.37939"><ele>542.5</ele><time>2026-05-02T07:21:59.788Z</time></trkpt><trkpt lat="43.69088" lon="12.37921"><ele>546.0</ele><time>2026-05-02T07:22:00.786Z</time></trkpt><trkpt lat="43.69081" lon="12.379035"><ele>549.5</ele><time>2026-05-02T07:22:01.787Z</time></trkpt><trkpt lat="43.6907333" lon="12.378865"><ele>553.0</ele><time>2026-05-02T07:22:02.789Z</time></trkpt><trkpt lat="43.690665" lon="12.3786967"><ele>556.0</ele><time>2026-05-02T07:22:03.789Z</time></trkpt><trkpt lat="43.6905983" lon="12.3785167"><ele>559.0</ele><time>2026-05-02T07:22:04.789Z</time></trkpt><trkpt lat="43.6905333" lon="12.3783333"><ele>562.0</ele><time>2026-05-02T07:22:05.789Z</time></trkpt><trkpt lat="43.69047" lon="12.3781567"><ele>565.0</ele><time>2026-05-02T07:22:06.789Z</time></trkpt><trkpt lat="43.6904083" lon="12.3779933"><ele>566.2</ele><time>2026-05-02T07:22:07.789Z</time></trkpt><trkpt lat="43.690355" lon="12.37785"><ele>567.4</ele><time>2026-05-02T07:22:08.786Z</time></trkpt><trkpt lat="43.6903083" lon="12.3777133"><ele>568.6</ele><time>2026-05-02T07:22:09.789Z</time></trkpt><trkpt lat="43.6902633" lon="12.3775867"><ele>569.8</ele><time>2026-05-02T07:22:10.785Z</time></trkpt><trkpt lat="43.6902183" lon="12.3774717"><ele>571.0</ele><time>2026-05-02T07:22:11.786Z</time></trkpt><trkpt lat="43.6901733" lon="12.37736"><ele>571.4</ele><time>2026-05-02T07:22:12.789Z</time></trkpt><trkpt lat="43.69012" lon="12.37725"><ele>571.8</ele><time>2026-05-02T07:22:13.793Z</time></trkpt><trkpt lat="43.6900583" lon="12.37714"><ele>572.1999999999999</ele><time>2026-05-02T07:22:14.789Z</time></trkpt><trkpt lat="43.6899867" lon="12.377025"><ele>572.6</ele><time>2026-05-02T07:22:15.79Z</time></trkpt><trkpt lat="43.6899183" lon="12.376905"><ele>573.0</ele><time>2026-05-02T07:22:16.789Z</time></trkpt><trkpt lat="43.68986" lon="12.3767833"><ele>573.1999999999999</ele><time>2026-05-02T07:22:17.786Z</time></trkpt><trkpt lat="43.6898117" lon="12.3766617"><ele>573.4</ele><time>2026-05-02T07:22:18.79Z</time></trkpt><trkpt lat="43.6897667" lon="12.3765367"><ele>573.5999999999999</ele><time>2026-05-02T07:22:19.789Z</time></trkpt><trkpt lat="43.6897367" lon="12.3764083"><ele>573.8</ele><time>2026-05-02T07:22:20.786Z</time></trkpt><trkpt lat="43.6897067" lon="12.3762683"><ele>574.0</ele><time>2026-05-02T07:22:21.786Z</time></trkpt><trkpt lat="43.6896833" lon="12.3761267"><ele>572.4</ele><time>2026-05-02T07:22:22.786Z</time></trkpt><trkpt lat="43.68966" lon="12.37599"><ele>570.8</ele><time>2026-05-02T07:22:23.789Z</time></trkpt><trkpt lat="43.68964" lon="12.3758567"><ele>569.2</ele><time>2026-05-02T07:22:24.791Z</time></trkpt><trkpt lat="43.6896217" lon="12.37573"><ele>567.6</ele><time>2026-05-02T07:22:25.79Z</time></trkpt><trkpt lat="43.6895933" lon="12.3756083"><ele>566.0</ele><time>2026-05-02T07:22:26.785Z</time></trkpt><trkpt lat="43.6895617" lon="12.3754783"><ele>567.2</ele><time>2026-05-02T07:22:27.787Z</time></trkpt><trkpt lat="43.6895267" lon="12.3753517"><ele>568.4000000000001</ele><time>2026-05-02T07:22:28.787Z</time></trkpt><trkpt lat="43.689495" lon="12.3752283"><ele>569.6</ele><time>2026-05-02T07:22:29.788Z</time></trkpt><trkpt lat="43.6894667" lon="12.3751067"><ele>570.8000000000001</ele><time>2026-05-02T07:22:30.788Z</time></trkpt><trkpt lat="43.6894467" lon="12.3749817"><ele>572.0</ele><time>2026-05-02T07:22:31.788Z</time></trkpt><trkpt lat="43.689425" lon="12.3748667"><ele>572.0</ele><time>2026-05-02T07:22:32.793Z</time></trkpt><trkpt lat="43.6894083" lon="12.3747583"><ele>572.0</ele><time>2026-05-02T07:22:33.789Z</time></trkpt><trkpt lat="43.689385" lon="12.3746533"><ele>572.0</ele><time>2026-05-02T07:22:34.789Z</time></trkpt><trkpt lat="43.6893533" lon="12.3745467"><ele>572.0</ele><time>2026-05-02T07:22:35.79Z</time></trkpt><trkpt lat="43.68932" lon="12.3744383"><ele>572.0</ele><time>2026-05-02T07:22:36.785Z</time></trkpt><trkpt lat="43.689295" lon="12.3743283"><ele>572.0</ele><time>2026-05-02T07:22:37.789Z</time></trkpt><trkpt lat="43.689275" lon="12.3742267"><ele>572.0</ele><time>2026-05-02T07:22:38.79Z</time></trkpt><trkpt lat="43.6892567" lon="12.3741417"><ele>572.0</ele><time>2026-05-02T07:22:39.789Z</time></trkpt><trkpt lat="43.68922" lon="12.3740367"><ele>572.0</ele><time>2026-05-02T07:22:41.789Z</time></trkpt><trkpt lat="43.6891733" lon="12.373955"><ele>572.0</ele><time>2026-05-02T07:23:11.79Z</time></trkpt><trkpt lat="43.68915" lon="12.3738317"><ele>572.0</ele><time>2026-05-02T07:23:13.789Z</time></trkpt><trkpt lat="43.6891483" lon="12.3737017"><ele>572.0</ele><time>2026-05-02T07:23:15.789Z</time></trkpt><trkpt lat="43.689155" lon="12.3736067"><ele>572.0</ele><time>2026-05-02T07:23:16.787Z</time></trkpt><trkpt lat="43.68916" lon="12.3735067"><ele>572.0</ele><time>2026-05-02T07:23:17.787Z</time></trkpt><trkpt lat="43.689155" lon="12.3734083"><ele>572.0</ele><time>2026-05-02T07:23:18.791Z</time></trkpt><trkpt lat="43.68914" lon="12.3733133"><ele>572.0</ele><time>2026-05-02T07:23:19.789Z</time></trkpt><trkpt lat="43.6891067" lon="12.37322"><ele>572.0</ele><time>2026-05-02T07:23:20.786Z</time></trkpt><trkpt lat="43.6890633" lon="12.3731267"><ele>572.0</ele><time>2026-05-02T07:23:21.791Z</time></trkpt><trkpt lat="43.6890183" lon="12.3730183"><ele>574.8000000000001</ele><time>2026-05-02T07:23:22.789Z</time></trkpt><trkpt lat="43.6889633" lon="12.3729083"><ele>577.6</ele><time>2026-05-02T07:23:23.791Z</time></trkpt><trkpt lat="43.6889067" lon="12.3728017"><ele>580.4000000000001</ele><time>2026-05-02T07:23:24.789Z</time></trkpt><trkpt lat="43.688855" lon="12.37269"><ele>583.2</ele><time>2026-05-02T07:23:25.789Z</time></trkpt><trkpt lat="43.6888017" lon="12.37257"><ele>586.0</ele><time>2026-05-02T07:23:26.786Z</time></trkpt><trkpt lat="43.6887483" lon="12.3724567"><ele>586.0</ele><time>2026-05-02T07:23:27.787Z</time></trkpt><trkpt lat="43.688685" lon="12.3723433"><ele>586.0</ele><time>2026-05-02T07:23:28.788Z</time></trkpt><trkpt lat="43.6886267" lon="12.3722183"><ele>586.0</ele><time>2026-05-02T07:23:29.786Z</time></trkpt><trkpt lat="43.6885883" lon="12.3720883"><ele>586.0</ele><time>2026-05-02T07:23:30.786Z</time></trkpt><trkpt lat="43.6885817" lon="12.37195"><ele>586.0</ele><time>2026-05-02T07:23:31.785Z</time></trkpt><trkpt lat="43.6885983" lon="12.3718083"><ele>587.0</ele><time>2026-05-02T07:23:32.787Z</time></trkpt><trkpt lat="43.6886267" lon="12.3716617"><ele>588.0</ele><time>2026-05-02T07:23:33.786Z</time></trkpt><trkpt lat="43.6886683" lon="12.371525"><ele>589.0</ele><time>2026-05-02T07:23:34.789Z</time></trkpt><trkpt lat="43.6887133" lon="12.3713917"><ele>590.0</ele><time>2026-05-02T07:23:35.785Z</time></trkpt><trkpt lat="43.68874" lon="12.37125"><ele>591.0</ele><time>2026-05-02T07:23:36.785Z</time></trkpt><trkpt lat="43.6887517" lon="12.3711117"><ele>591.5</ele><time>2026-05-02T07:23:37.788Z</time></trkpt><trkpt lat="43.6887533" lon="12.37096"><ele>592.0</ele><time>2026-05-02T07:23:38.788Z</time></trkpt><trkpt lat="43.6887517" lon="12.3707917"><ele>592.5</ele><time>2026-05-02T07:23:39.785Z</time></trkpt><trkpt lat="43.6887417" lon="12.3706117"><ele>593.0</ele><time>2026-05-02T07:23:40.788Z</time></trkpt><trkpt lat="43.6887283" lon="12.3704233"><ele>593.0</ele><time>2026-05-02T07:23:41.789Z</time></trkpt><trkpt lat="43.6887017" lon="12.37024"><ele>593.0</ele><time>2026-05-02T07:23:42.789Z</time></trkpt><trkpt lat="43.6886583" lon="12.37009"><ele>593.0</ele><time>2026-05-02T07:23:43.788Z</time></trkpt><trkpt lat="43.6885933" lon="12.36995"><ele>593.0</ele><time>2026-05-02T07:23:44.788Z</time></trkpt><trkpt lat="43.6885117" lon="12.3698167"><ele>593.25</ele><time>2026-05-02T07:23:45.784Z</time></trkpt><trkpt lat="43.6884183" lon="12.3696833"><ele>593.5</ele><time>2026-05-02T07:23:46.788Z</time></trkpt><trkpt lat="43.6883267" lon="12.3695533"><ele>593.75</ele><time>2026-05-02T07:23:47.788Z</time></trkpt><trkpt lat="43.688245" lon="12.3694417"><ele>594.0</ele><time>2026-05-02T07:23:48.789Z</time></trkpt><trkpt lat="43.688165" lon="12.36935"><ele>594.0</ele><time>2026-05-02T07:23:49.785Z</time></trkpt><trkpt lat="43.68807" lon="12.36928"><ele>594.0</ele><time>2026-05-02T07:23:50.788Z</time></trkpt><trkpt lat="43.6879667" lon="12.36922"><ele>594.0</ele><time>2026-05-02T07:23:51.789Z</time></trkpt><trkpt lat="43.6878517" lon="12.3691633"><ele>594.0</ele><time>2026-05-02T07:23:52.788Z</time></trkpt><trkpt lat="43.6877383" lon="12.3691067"><ele>595.6</ele><time>2026-05-02T07:23:53.788Z</time></trkpt><trkpt lat="43.6876417" lon="12.369045"><ele>597.2</ele><time>2026-05-02T07:23:54.788Z</time></trkpt><trkpt lat="43.6875583" lon="12.3689767"><ele>598.8000000000001</ele><time>2026-05-02T07:23:55.789Z</time></trkpt><trkpt lat="43.687475" lon="12.3689067"><ele>600.4</ele><time>2026-05-02T07:23:56.789Z</time></trkpt><trkpt lat="43.687385" lon="12.3688533"><ele>602.0</ele><time>2026-05-02T07:23:57.788Z</time></trkpt><trkpt lat="43.6872917" lon="12.36882"><ele>603.2</ele><time>2026-05-02T07:23:58.789Z</time></trkpt><trkpt lat="43.687185" lon="12.3687933"><ele>604.4000000000001</ele><time>2026-05-02T07:23:59.788Z</time></trkpt><trkpt lat="43.6870783" lon="12.3687567"><ele>605.5999999999999</ele><time>2026-05-02T07:24:00.788Z</time></trkpt><trkpt lat="43.686975" lon="12.368695"><ele>606.8</ele><time>2026-05-02T07:24:01.785Z</time></trkpt><trkpt lat="43.68689" lon="12.3685983"><ele>608.0</ele><time>2026-05-02T07:24:02.788Z</time></trkpt><trkpt lat="43.6868183" lon="12.3684783"><ele>608.5</ele><time>2026-05-02T07:24:03.788Z</time></trkpt><trkpt lat="43.6867417" lon="12.3683467"><ele>609.0</ele><time>2026-05-02T07:24:04.79Z</time></trkpt><trkpt lat="43.68667" lon="12.3682067"><ele>609.5</ele><time>2026-05-02T07:24:05.788Z</time></trkpt><trkpt lat="43.686595" lon="12.36807"><ele>610.0</ele><time>2026-05-02T07:24:06.789Z</time></trkpt><trkpt lat="43.68652" lon="12.367935"><ele>611.0</ele><time>2026-05-02T07:24:07.788Z</time></trkpt><trkpt lat="43.6864517" lon="12.3677917"><ele>612.0</ele><time>2026-05-02T07:24:08.787Z</time></trkpt><trkpt lat="43.6863883" lon="12.3676483"><ele>613.0</ele><time>2026-05-02T07:24:09.788Z</time></trkpt><trkpt lat="43.686335" lon="12.3675117"><ele>614.0</ele><time>2026-05-02T07:24:10.789Z</time></trkpt><trkpt lat="43.6862917" lon="12.367375"><ele>614.0</ele><time>2026-05-02T07:24:11.788Z</time></trkpt><trkpt lat="43.686255" lon="12.36724"><ele>614.0</ele><time>2026-05-02T07:24:12.786Z</time></trkpt><trkpt lat="43.6862267" lon="12.3671067"><ele>614.0</ele><time>2026-05-02T07:24:13.785Z</time></trkpt><trkpt lat="43.6862033" lon="12.3669717"><ele>614.0</ele><time>2026-05-02T07:24:14.788Z</time></trkpt><trkpt lat="43.6861733" lon="12.3668417"><ele>614.0</ele><time>2026-05-02T07:24:15.785Z</time></trkpt><trkpt lat="43.6861283" lon="12.3667267"><ele>613.0</ele><time>2026-05-02T07:24:16.785Z</time></trkpt><trkpt lat="43.6860717" lon="12.366625"><ele>612.0</ele><time>2026-05-02T07:24:17.789Z</time></trkpt><trkpt lat="43.6859917" lon="12.3665517"><ele>611.0</ele><time>2026-05-02T07:24:18.786Z</time></trkpt><trkpt lat="43.68589" lon="12.3664933"><ele>610.0</ele><time>2026-05-02T07:24:19.788Z</time></trkpt><trkpt lat="43.6857833" lon="12.3664483"><ele>609.0</ele><time>2026-05-02T07:24:20.788Z</time></trkpt><trkpt lat="43.685685" lon="12.3664117"><ele>609.0</ele><time>2026-05-02T07:24:21.785Z</time></trkpt><trkpt lat="43.6856017" lon="12.36637"><ele>609.0</ele><time>2026-05-02T07:24:22.786Z</time></trkpt><trkpt lat="43.6855283" lon="12.3663183"><ele>609.0</ele><time>2026-05-02T07:24:23.786Z</time></trkpt><trkpt lat="43.6854583" lon="12.366255"><ele>609.0</ele><time>2026-05-02T07:24:24.788Z</time></trkpt><trkpt lat="43.6853717" lon="12.3661983"><ele>609.0</ele><time>2026-05-02T07:24:25.788Z</time></trkpt><trkpt lat="43.68528" lon="12.366155"><ele>609.0</ele><time>2026-05-02T07:24:26.788Z</time></trkpt><trkpt lat="43.685185" lon="12.3661183"><ele>610.4</ele><time>2026-05-02T07:24:27.788Z</time></trkpt><trkpt lat="43.6850867" lon="12.3660767"><ele>611.8</ele><time>2026-05-02T07:24:28.789Z</time></trkpt><trkpt lat="43.6849867" lon="12.366025"><ele>613.2</ele><time>2026-05-02T07:24:29.789Z</time></trkpt><trkpt lat="43.68489" lon="12.3659567"><ele>614.6</ele><time>2026-05-02T07:24:30.789Z</time></trkpt><trkpt lat="43.6848" lon="12.3658683"><ele>616.0</ele><time>2026-05-02T07:24:31.788Z</time></trkpt><trkpt lat="43.6847217" lon="12.3657767"><ele>616.0</ele><time>2026-05-02T07:24:32.788Z</time></trkpt><trkpt lat="43.6846583" lon="12.3656767"><ele>616.0</ele><time>2026-05-02T07:24:33.786Z</time></trkpt><trkpt lat="43.6846083" lon="12.3655767"><ele>616.0</ele><time>2026-05-02T07:24:34.785Z</time></trkpt><trkpt lat="43.684565" lon="12.3654833"><ele>616.0</ele><time>2026-05-02T07:24:35.786Z</time></trkpt><trkpt lat="43.6845267" lon="12.36539"><ele>616.0</ele><time>2026-05-02T07:24:36.788Z</time></trkpt><trkpt lat="43.6844983" lon="12.365295"><ele>616.0</ele><time>2026-05-02T07:24:37.791Z</time></trkpt><trkpt lat="43.6844717" lon="12.365185"><ele>617.2</ele><time>2026-05-02T07:24:38.788Z</time></trkpt><trkpt lat="43.6844517" lon="12.3650567"><ele>618.4000000000001</ele><time>2026-05-02T07:24:39.788Z</time></trkpt><trkpt lat="43.68443" lon="12.36491"><ele>619.6</ele><time>2026-05-02T07:24:40.787Z</time></trkpt><trkpt lat="43.684395" lon="12.36476"><ele>620.8000000000001</ele><time>2026-05-02T07:24:41.788Z</time></trkpt><trkpt lat="43.6843583" lon="12.3646217"><ele>622.0</ele><time>2026-05-02T07:24:42.788Z</time></trkpt><trkpt lat="43.68432" lon="12.364505"><ele>618.6</ele><time>2026-05-02T07:24:43.785Z</time></trkpt><trkpt lat="43.6842767" lon="12.36439"><ele>615.2</ele><time>2026-05-02T07:24:44.785Z</time></trkpt><trkpt lat="43.6842383" lon="12.3642683"><ele>611.8</ele><time>2026-05-02T07:24:45.785Z</time></trkpt><trkpt lat="43.6842083" lon="12.3641317"><ele>608.4</ele><time>2026-05-02T07:24:46.786Z</time></trkpt><trkpt lat="43.6841783" lon="12.36399"><ele>605.0</ele><time>2026-05-02T07:24:47.785Z</time></trkpt><trkpt lat="43.68416" lon="12.3638517"><ele>604.8333333333333</ele><time>2026-05-02T07:24:48.788Z</time></trkpt><trkpt lat="43.684145" lon="12.3637217"><ele>604.6666666666666</ele><time>2026-05-02T07:24:49.785Z</time></trkpt><trkpt lat="43.684135" lon="12.3636017"><ele>604.5</ele><time>2026-05-02T07:24:50.787Z</time></trkpt><trkpt lat="43.6841167" lon="12.3634983"><ele>604.3333333333334</ele><time>2026-05-02T07:24:51.787Z</time></trkpt><trkpt lat="43.6840867" lon="12.3634033"><ele>604.1666666666667</ele><time>2026-05-02T07:24:52.786Z</time></trkpt><trkpt lat="43.6840467" lon="12.3633233"><ele>604.0</ele><time>2026-05-02T07:24:53.789Z</time></trkpt><trkpt lat="43.6839917" lon="12.3632617"><ele>604.0</ele><time>2026-05-02T07:24:54.788Z</time></trkpt><trkpt lat="43.6839283" lon="12.3632083"><ele>604.0</ele><time>2026-05-02T07:24:55.789Z</time></trkpt><trkpt lat="43.6838367" lon="12.3631567"><ele>604.0</ele><time>2026-05-02T07:24:56.786Z</time></trkpt><trkpt lat="43.6837433" lon="12.3631083"><ele>604.0</ele><time>2026-05-02T07:24:57.789Z</time></trkpt><trkpt lat="43.6836467" lon="12.3630633"><ele>604.0</ele><time>2026-05-02T07:24:58.785Z</time></trkpt><trkpt lat="43.6835617" lon="12.36299"><ele>605.0</ele><time>2026-05-02T07:24:59.787Z</time></trkpt><trkpt lat="43.6834883" lon="12.3628967"><ele>606.0</ele><time>2026-05-02T07:25:00.789Z</time></trkpt><trkpt lat="43.6834233" lon="12.3627917"><ele>607.0</ele><time>2026-05-02T07:25:01.787Z</time></trkpt><trkpt lat="43.68336" lon="12.36268"><ele>608.0</ele><time>2026-05-02T07:25:02.786Z</time></trkpt><trkpt lat="43.683295" lon="12.3625767"><ele>609.0</ele><time>2026-05-02T07:25:03.788Z</time></trkpt><trkpt lat="43.6832317" lon="12.3624983"><ele>609.0</ele><time>2026-05-02T07:25:04.788Z</time></trkpt><trkpt lat="43.6831533" lon="12.3624417"><ele>609.0</ele><time>2026-05-02T07:25:05.789Z</time></trkpt><trkpt lat="43.68307" lon="12.3623933"><ele>609.0</ele><time>2026-05-02T07:25:06.788Z</time></trkpt><trkpt lat="43.6829767" lon="12.3623483"><ele>609.0</ele><time>2026-05-02T07:25:07.785Z</time></trkpt><trkpt lat="43.682885" lon="12.3622883"><ele>609.0</ele><time>2026-05-02T07:25:08.786Z</time></trkpt><trkpt lat="43.6828" lon="12.3622133"><ele>610.6</ele><time>2026-05-02T07:25:09.79Z</time></trkpt><trkpt lat="43.682725" lon="12.3621117"><ele>612.2</ele><time>2026-05-02T07:25:10.787Z</time></trkpt><trkpt lat="43.6826717" lon="12.36199"><ele>613.8000000000001</ele><time>2026-05-02T07:25:11.789Z</time></trkpt><trkpt lat="43.6826333" lon="12.3618533"><ele>615.4</ele><time>2026-05-02T07:25:12.788Z</time></trkpt><trkpt lat="43.6826183" lon="12.361715"><ele>617.0</ele><time>2026-05-02T07:25:13.787Z</time></trkpt><trkpt lat="43.6826283" lon="12.36158"><ele>617.0</ele><time>2026-05-02T07:25:14.788Z</time></trkpt><trkpt lat="43.6826617" lon="12.36145"><ele>617.0</ele><time>2026-05-02T07:25:15.788Z</time></trkpt><trkpt lat="43.68271" lon="12.3613283"><ele>617.0</ele><time>2026-05-02T07:25:16.788Z</time></trkpt><trkpt lat="43.6827567" lon="12.3611983"><ele>617.0</ele><time>2026-05-02T07:25:17.791Z</time></trkpt><trkpt lat="43.6827883" lon="12.3610567"><ele>617.0</ele><time>2026-05-02T07:25:18.787Z</time></trkpt><trkpt lat="43.6828083" lon="12.360905"><ele>615.0</ele><time>2026-05-02T07:25:19.787Z</time></trkpt><trkpt lat="43.6828133" lon="12.3607467"><ele>613.0</ele><time>2026-05-02T07:25:20.788Z</time></trkpt><trkpt lat="43.6828083" lon="12.3605833"><ele>611.0</ele><time>2026-05-02T07:25:21.789Z</time></trkpt><trkpt lat="43.6827867" lon="12.3604283"><ele>609.0</ele><time>2026-05-02T07:25:22.788Z</time></trkpt><trkpt lat="43.6827467" lon="12.3602917"><ele>612.4</ele><time>2026-05-02T07:25:23.788Z</time></trkpt><trkpt lat="43.68269" lon="12.3601717"><ele>615.8</ele><time>2026-05-02T07:25:24.788Z</time></trkpt><trkpt lat="43.68262" lon="12.3600733"><ele>619.2</ele><time>2026-05-02T07:25:25.788Z</time></trkpt><trkpt lat="43.6825483" lon="12.3599867"><ele>622.6</ele><time>2026-05-02T07:25:26.789Z</time></trkpt><trkpt lat="43.6824717" lon="12.3599067"><ele>626.0</ele><time>2026-05-02T07:25:27.786Z</time></trkpt><trkpt lat="43.6823967" lon="12.3598233"><ele>626.0</ele><time>2026-05-02T07:25:28.788Z</time></trkpt><trkpt lat="43.6823267" lon="12.3597333"><ele>626.0</ele><time>2026-05-02T07:25:29.789Z</time></trkpt><trkpt lat="43.6822667" lon="12.3596317"><ele>626.0</ele><time>2026-05-02T07:25:30.786Z</time></trkpt><trkpt lat="43.6822033" lon="12.3595283"><ele>626.0</ele><time>2026-05-02T07:25:31.787Z</time></trkpt><trkpt lat="43.68215" lon="12.3594333"><ele>626.0</ele><time>2026-05-02T07:25:32.787Z</time></trkpt><trkpt lat="43.6821183" lon="12.359335"><ele>626.0</ele><time>2026-05-02T07:25:33.787Z</time></trkpt><trkpt lat="43.6821083" lon="12.3592333"><ele>626.0</ele><time>2026-05-02T07:25:34.787Z</time></trkpt><trkpt lat="43.68212" lon="12.359125"><ele>626.0</ele><time>2026-05-02T07:25:35.788Z</time></trkpt><trkpt lat="43.6821367" lon="12.3590117"><ele>626.0</ele><time>2026-05-02T07:25:36.787Z</time></trkpt><trkpt lat="43.6821467" lon="12.3588983"><ele>626.0</ele><time>2026-05-02T07:25:37.787Z</time></trkpt><trkpt lat="43.6821483" lon="12.3587933"><ele>626.0</ele><time>2026-05-02T07:25:38.789Z</time></trkpt><trkpt lat="43.6821233" lon="12.3586867"><ele>626.6666666666666</ele><time>2026-05-02T07:25:39.788Z</time></trkpt><trkpt lat="43.6820933" lon="12.3585717"><ele>627.3333333333333</ele><time>2026-05-02T07:25:40.789Z</time></trkpt><trkpt lat="43.68207" lon="12.3584583"><ele>628.0</ele><time>2026-05-02T07:25:41.789Z</time></trkpt><trkpt lat="43.6820633" lon="12.3583467"><ele>628.6666666666666</ele><time>2026-05-02T07:25:42.789Z</time></trkpt><trkpt lat="43.682065" lon="12.3582433"><ele>629.3333333333334</ele><time>2026-05-02T07:25:43.788Z</time></trkpt><trkpt lat="43.682085" lon="12.3581383"><ele>630.0</ele><time>2026-05-02T07:25:44.789Z</time></trkpt><trkpt lat="43.682105" lon="12.3580167"><ele>632.4</ele><time>2026-05-02T07:25:45.788Z</time></trkpt><trkpt lat="43.682115" lon="12.357875"><ele>634.8</ele><time>2026-05-02T07:25:46.788Z</time></trkpt><trkpt lat="43.6821133" lon="12.35773"><ele>637.2</ele><time>2026-05-02T07:25:47.789Z</time></trkpt><trkpt lat="43.6821133" lon="12.3575833"><ele>639.6</ele><time>2026-05-02T07:25:48.786Z</time></trkpt><trkpt lat="43.6821183" lon="12.3574383"><ele>642.0</ele><time>2026-05-02T07:25:49.79Z</time></trkpt><trkpt lat="43.682135" lon="12.357295"><ele>643.2</ele><time>2026-05-02T07:25:50.785Z</time></trkpt><trkpt lat="43.6821567" lon="12.3571583"><ele>644.4000000000001</ele><time>2026-05-02T07:25:51.785Z</time></trkpt><trkpt lat="43.682185" lon="12.3570283"><ele>645.5999999999999</ele><time>2026-05-02T07:25:52.788Z</time></trkpt><trkpt lat="43.68222" lon="12.3569033"><ele>646.8</ele><time>2026-05-02T07:25:53.786Z</time></trkpt><trkpt lat="43.682255" lon="12.3567817"><ele>648.0</ele><time>2026-05-02T07:25:54.788Z</time></trkpt><trkpt lat="43.6822783" lon="12.3566733"><ele>648.0</ele><time>2026-05-02T07:25:55.788Z</time></trkpt><trkpt lat="43.6822817" lon="12.3565667"><ele>648.0</ele><time>2026-05-02T07:25:56.788Z</time></trkpt><trkpt lat="43.6822367" lon="12.3564417"><ele>648.0</ele><time>2026-05-02T07:25:58.788Z</time></trkpt><trkpt lat="43.682125" lon="12.35648"><ele>648.0</ele><time>2026-05-02T07:26:00.788Z</time></trkpt><trkpt lat="43.682085" lon="12.3565583"><ele>648.0</ele><time>2026-05-02T07:26:01.786Z</time></trkpt><trkpt lat="43.6820017" lon="12.356695"><ele>648.0</ele><time>2026-05-02T07:26:03.787Z</time></trkpt><trkpt lat="43.6819583" lon="12.3567733"><ele>648.0</ele><time>2026-05-02T07:26:04.787Z</time></trkpt><trkpt lat="43.6819117" lon="12.35687"><ele>648.0</ele><time>2026-05-02T07:26:05.788Z</time></trkpt><trkpt lat="43.6818617" lon="12.356995"><ele>648.0</ele><time>2026-05-02T07:26:06.789Z</time></trkpt><trkpt lat="43.6818017" lon="12.35711"><ele>648.0</ele><time>2026-05-02T07:26:07.787Z</time></trkpt><trkpt lat="43.6817283" lon="12.3572267"><ele>653.4</ele><time>2026-05-02T07:26:08.789Z</time></trkpt><trkpt lat="43.68165" lon="12.3573467"><ele>658.8</ele><time>2026-05-02T07:26:09.787Z</time></trkpt><trkpt lat="43.6815783" lon="12.357465"><ele>664.2</ele><time>2026-05-02T07:26:10.788Z</time></trkpt><trkpt lat="43.6815033" lon="12.35758"><ele>669.6</ele><time>2026-05-02T07:26:11.788Z</time></trkpt><trkpt lat="43.68143" lon="12.35768"><ele>675.0</ele><time>2026-05-02T07:26:12.786Z</time></trkpt><trkpt lat="43.681355" lon="12.3577617"><ele>675.0</ele><time>2026-05-02T07:26:13.786Z</time></trkpt><trkpt lat="43.6812833" lon="12.3578133"><ele>675.0</ele><time>2026-05-02T07:26:14.786Z</time></trkpt><trkpt lat="43.6812117" lon="12.3578433"><ele>675.0</ele><time>2026-05-02T07:26:15.787Z</time></trkpt><trkpt lat="43.6811383" lon="12.3578283"><ele>675.0</ele><time>2026-05-02T07:26:16.789Z</time></trkpt><trkpt lat="43.6810483" lon="12.3577583"><ele>675.0</ele><time>2026-05-02T07:26:17.786Z</time></trkpt><trkpt lat="43.6809617" lon="12.3576933"><ele>675.0</ele><time>2026-05-02T07:26:18.789Z</time></trkpt><trkpt lat="43.680865" lon="12.3576017"><ele>677.75</ele><time>2026-05-02T07:26:19.789Z</time></trkpt><trkpt lat="43.6807667" lon="12.3575017"><ele>680.5</ele><time>2026-05-02T07:26:20.79Z</time></trkpt><trkpt lat="43.6806667" lon="12.3574167"><ele>683.25</ele><time>2026-05-02T07:26:21.79Z</time></trkpt><trkpt lat="43.6805633" lon="12.3573417"><ele>686.0</ele><time>2026-05-02T07:26:22.787Z</time></trkpt><trkpt lat="43.6804633" lon="12.3572717"><ele>689.5</ele><time>2026-05-02T07:26:23.786Z</time></trkpt><trkpt lat="43.680365" lon="12.3571967"><ele>693.0</ele><time>2026-05-02T07:26:24.786Z</time></trkpt><trkpt lat="43.680255" lon="12.357145"><ele>696.5</ele><time>2026-05-02T07:26:25.789Z</time></trkpt><trkpt lat="43.680145" lon="12.3571067"><ele>700.0</ele><time>2026-05-02T07:26:26.876Z</time></trkpt><trkpt lat="43.68003" lon="12.35709"><ele>700.0</ele><time>2026-05-02T07:26:27.786Z</time></trkpt><trkpt lat="43.679925" lon="12.3570917"><ele>700.0</ele><time>2026-05-02T07:26:28.787Z</time></trkpt><trkpt lat="43.6798383" lon="12.3570933"><ele>700.0</ele><time>2026-05-02T07:26:29.786Z</time></trkpt><trkpt lat="43.679765" lon="12.357075"><ele>700.0</ele><time>2026-05-02T07:26:30.787Z</time></trkpt><trkpt lat="43.6797283" lon="12.3569883"><ele>700.0</ele><time>2026-05-02T07:26:32.787Z</time></trkpt><trkpt lat="43.67981" lon="12.35694"><ele>700.0</ele><time>2026-05-02T07:26:34.786Z</time></trkpt><trkpt lat="43.6798733" lon="12.3569233"><ele>700.0</ele><time>2026-05-02T07:26:35.786Z</time></trkpt><trkpt lat="43.67997" lon="12.3568917"><ele>700.0</ele><time>2026-05-02T07:26:36.786Z</time></trkpt><trkpt lat="43.68006" lon="12.3568583"><ele>700.0</ele><time>2026-05-02T07:26:37.786Z</time></trkpt><trkpt lat="43.6801433" lon="12.3568167"><ele>700.0</ele><time>2026-05-02T07:26:38.786Z</time></trkpt><trkpt lat="43.6801817" lon="12.3567467"><ele>700.0</ele><time>2026-05-02T07:26:40.787Z</time></trkpt><trkpt lat="43.680135" lon="12.35668"><ele>700.0</ele><time>2026-05-02T07:26:42.786Z</time></trkpt><trkpt lat="43.680065" lon="12.3566317"><ele>700.0</ele><time>2026-05-02T07:26:43.786Z</time></trkpt><trkpt lat="43.679975" lon="12.35659"><ele>700.0</ele><time>2026-05-02T07:26:44.786Z</time></trkpt><trkpt lat="43.6798633" lon="12.35656"><ele>700.0</ele><time>2026-05-02T07:26:45.79Z</time></trkpt><trkpt lat="43.6797367" lon="12.3565467"><ele>700.0</ele><time>2026-05-02T07:26:46.789Z</time></trkpt><trkpt lat="43.6796033" lon="12.3565483"><ele>700.0</ele><time>2026-05-02T07:26:47.789Z</time></trkpt><trkpt lat="43.6794817" lon="12.35657"><ele>700.0</ele><time>2026-05-02T07:26:48.789Z</time></trkpt><trkpt lat="43.6793717" lon="12.3566"><ele>700.0</ele><time>2026-05-02T07:26:49.79Z</time></trkpt><trkpt lat="43.67927" lon="12.3566283"><ele>700.0</ele><time>2026-05-02T07:26:50.79Z</time></trkpt><trkpt lat="43.6791717" lon="12.3566467"><ele>700.0</ele><time>2026-05-02T07:26:51.789Z</time></trkpt><trkpt lat="43.6790817" lon="12.35666"><ele>700.6666666666667</ele><time>2026-05-02T07:26:52.786Z</time></trkpt><trkpt lat="43.6790033" lon="12.356665"><ele>701.3333333333334</ele><time>2026-05-02T07:26:53.789Z</time></trkpt><trkpt lat="43.6789217" lon="12.35667"><ele>702.0</ele><time>2026-05-02T07:26:54.789Z</time></trkpt><trkpt lat="43.6788333" lon="12.3566833"><ele>702.6666666666666</ele><time>2026-05-02T07:26:55.789Z</time></trkpt><trkpt lat="43.67875" lon="12.3567167"><ele>703.3333333333333</ele><time>2026-05-02T07:26:56.786Z</time></trkpt><trkpt lat="43.67868" lon="12.35676"><ele>704.0</ele><time>2026-05-02T07:26:57.786Z</time></trkpt><trkpt lat="43.678615" lon="12.3568283"><ele>704.3333333333333</ele><time>2026-05-02T07:26:58.786Z</time></trkpt><trkpt lat="43.6785667" lon="12.356925"><ele>704.6666666666666</ele><time>2026-05-02T07:26:59.786Z</time></trkpt><trkpt lat="43.67854" lon="12.3570433"><ele>705.0</ele><time>2026-05-02T07:27:00.786Z</time></trkpt><trkpt lat="43.6785283" lon="12.35718"><ele>705.3333333333334</ele><time>2026-05-02T07:27:01.786Z</time></trkpt><trkpt lat="43.6785067" lon="12.3572983"><ele>705.6666666666667</ele><time>2026-05-02T07:27:02.786Z</time></trkpt><trkpt lat="43.678475" lon="12.35741"><ele>706.0</ele><time>2026-05-02T07:27:03.787Z</time></trkpt><trkpt lat="43.6784267" lon="12.3575217"><ele>706.0</ele><time>2026-05-02T07:27:04.786Z</time></trkpt><trkpt lat="43.6783683" lon="12.3576333"><ele>706.0</ele><time>2026-05-02T07:27:05.787Z</time></trkpt><trkpt lat="43.6783017" lon="12.3577433"><ele>706.0</ele><time>2026-05-02T07:27:06.786Z</time></trkpt><trkpt lat="43.6782283" lon="12.3578433"><ele>706.0</ele><time>2026-05-02T07:27:07.785Z</time></trkpt><trkpt lat="43.6781483" lon="12.3579367"><ele>706.0</ele><time>2026-05-02T07:27:08.788Z</time></trkpt><trkpt lat="43.6780717" lon="12.3580317"><ele>707.5999999999999</ele><time>2026-05-02T07:27:09.788Z</time></trkpt><trkpt lat="43.6779933" lon="12.3581383"><ele>709.2</ele><time>2026-05-02T07:27:10.788Z</time></trkpt><trkpt lat="43.677915" lon="12.35825"><ele>710.8</ele><time>2026-05-02T07:27:11.789Z</time></trkpt><trkpt lat="43.6778367" lon="12.3583583"><ele>712.4000000000001</ele><time>2026-05-02T07:27:12.788Z</time></trkpt><trkpt lat="43.6777633" lon="12.35847"><ele>714.0</ele><time>2026-05-02T07:27:13.785Z</time></trkpt><trkpt lat="43.6776917" lon="12.3585717"><ele>714.0</ele><time>2026-05-02T07:27:14.785Z</time></trkpt><trkpt lat="43.67762" lon="12.358665"><ele>714.0</ele><time>2026-05-02T07:27:15.789Z</time></trkpt><trkpt lat="43.677545" lon="12.35875"><ele>714.0</ele><time>2026-05-02T07:27:16.788Z</time></trkpt><trkpt lat="43.67747" lon="12.3588283"><ele>714.0</ele><time>2026-05-02T07:27:17.788Z</time></trkpt><trkpt lat="43.677395" lon="12.3588967"><ele>714.0</ele><time>2026-05-02T07:27:18.788Z</time></trkpt><trkpt lat="43.6773183" lon="12.3589467"><ele>711.4000000000001</ele><time>2026-05-02T07:27:19.788Z</time></trkpt><trkpt lat="43.6772333" lon="12.3589733"><ele>708.8</ele><time>2026-05-02T07:27:20.788Z</time></trkpt><trkpt lat="43.6771417" lon="12.35898"><ele>706.2</ele><time>2026-05-02T07:27:21.788Z</time></trkpt><trkpt lat="43.6770383" lon="12.3589683"><ele>703.5999999999999</ele><time>2026-05-02T07:27:22.79Z</time></trkpt><trkpt lat="43.67693" lon="12.358965"><ele>701.0</ele><time>2026-05-02T07:27:23.786Z</time></trkpt><trkpt lat="43.676825" lon="12.358975"><ele>701.0</ele><time>2026-05-02T07:27:24.785Z</time></trkpt><trkpt lat="43.6767283" lon="12.3589817"><ele>701.0</ele><time>2026-05-02T07:27:25.786Z</time></trkpt><trkpt lat="43.6766417" lon="12.358985"><ele>701.0</ele><time>2026-05-02T07:27:26.785Z</time></trkpt><trkpt lat="43.6765567" lon="12.358985"><ele>701.0</ele><time>2026-05-02T07:27:27.785Z</time></trkpt><trkpt lat="43.6764783" lon="12.3589733"><ele>701.0</ele><time>2026-05-02T07:27:28.785Z</time></trkpt><trkpt lat="43.6764083" lon="12.358945"><ele>701.0</ele><time>2026-05-02T07:27:29.786Z</time></trkpt><trkpt lat="43.67634" lon="12.3589217"><ele>701.0</ele><time>2026-05-02T07:27:30.786Z</time></trkpt><trkpt lat="43.6762767" lon="12.3589183"><ele>701.0</ele><time>2026-05-02T07:27:31.785Z</time></trkpt><trkpt lat="43.676155" lon="12.3589783"><ele>701.0</ele><time>2026-05-02T07:27:33.788Z</time></trkpt><trkpt lat="43.6760767" lon="12.3590317"><ele>701.0</ele><time>2026-05-02T07:27:34.789Z</time></trkpt><trkpt lat="43.675985" lon="12.3590883"><ele>701.0</ele><time>2026-05-02T07:27:35.788Z</time></trkpt><trkpt lat="43.6758883" lon="12.3591317"><ele>702.4</ele><time>2026-05-02T07:27:36.788Z</time></trkpt><trkpt lat="43.6757917" lon="12.3591733"><ele>703.8</ele><time>2026-05-02T07:27:37.788Z</time></trkpt><trkpt lat="43.6756983" lon="12.35921"><ele>705.1999999999999</ele><time>2026-05-02T07:27:38.789Z</time></trkpt><trkpt lat="43.67561" lon="12.3592517"><ele>706.5999999999999</ele><time>2026-05-02T07:27:39.788Z</time></trkpt><trkpt lat="43.6755333" lon="12.35931"><ele>708.0</ele><time>2026-05-02T07:27:40.789Z</time></trkpt><trkpt lat="43.67546" lon="12.35936"><ele>708.0</ele><time>2026-05-02T07:27:41.788Z</time></trkpt><trkpt lat="43.6753867" lon="12.3594067"><ele>708.0</ele><time>2026-05-02T07:27:42.788Z</time></trkpt><trkpt lat="43.6753217" lon="12.35945"><ele>708.0</ele><time>2026-05-02T07:27:43.788Z</time></trkpt><trkpt lat="43.67526" lon="12.3595117"><ele>708.0</ele><time>2026-05-02T07:27:44.788Z</time></trkpt><trkpt lat="43.6752" lon="12.3596"><ele>708.0</ele><time>2026-05-02T07:27:45.785Z</time></trkpt><trkpt lat="43.67514" lon="12.359705"><ele>708.0</ele><time>2026-05-02T07:27:46.788Z</time></trkpt><trkpt lat="43.6750933" lon="12.3598317"><ele>708.0</ele><time>2026-05-02T07:27:47.789Z</time></trkpt><trkpt lat="43.67506" lon="12.359965"><ele>708.0</ele><time>2026-05-02T07:27:48.788Z</time></trkpt><trkpt lat="43.6750317" lon="12.3601017"><ele>708.0</ele><time>2026-05-02T07:27:49.789Z</time></trkpt><trkpt lat="43.6749983" lon="12.36024"><ele>708.0</ele><time>2026-05-02T07:27:50.788Z</time></trkpt><trkpt lat="43.6749567" lon="12.360365"><ele>708.0</ele><time>2026-05-02T07:27:51.788Z</time></trkpt><trkpt lat="43.674915" lon="12.3604833"><ele>704.75</ele><time>2026-05-02T07:27:52.785Z</time></trkpt><trkpt lat="43.67488" lon="12.360615"><ele>701.5</ele><time>2026-05-02T07:27:53.785Z</time></trkpt><trkpt lat="43.6748533" lon="12.3607733"><ele>698.25</ele><time>2026-05-02T07:27:54.788Z</time></trkpt><trkpt lat="43.6748267" lon="12.3609383"><ele>695.0</ele><time>2026-05-02T07:27:55.788Z</time></trkpt><trkpt lat="43.6747933" lon="12.3611083"><ele>695.0</ele><time>2026-05-02T07:27:56.786Z</time></trkpt><trkpt lat="43.6747633" lon="12.3612833"><ele>695.0</ele><time>2026-05-02T07:27:57.786Z</time></trkpt><trkpt lat="43.6747317" lon="12.3614517"><ele>695.0</ele><time>2026-05-02T07:27:58.785Z</time></trkpt><trkpt lat="43.6747033" lon="12.36162"><ele>695.0</ele><time>2026-05-02T07:27:59.786Z</time></trkpt><trkpt lat="43.674665" lon="12.3617867"><ele>693.25</ele><time>2026-05-02T07:28:00.786Z</time></trkpt><trkpt lat="43.6746217" lon="12.361955"><ele>691.5</ele><time>2026-05-02T07:28:01.785Z</time></trkpt><trkpt lat="43.6745783" lon="12.36212"><ele>689.75</ele><time>2026-05-02T07:28:02.785Z</time></trkpt><trkpt lat="43.6745383" lon="12.3622783"><ele>688.0</ele><time>2026-05-02T07:28:03.788Z</time></trkpt><trkpt lat="43.674505" lon="12.362425"><ele>686.4</ele><time>2026-05-02T07:28:04.79Z</time></trkpt><trkpt lat="43.6744733" lon="12.3625633"><ele>684.8</ele><time>2026-05-02T07:28:05.789Z</time></trkpt><trkpt lat="43.674435" lon="12.3626783"><ele>683.2</ele><time>2026-05-02T07:28:06.789Z</time></trkpt><trkpt lat="43.6743867" lon="12.362785"><ele>681.6</ele><time>2026-05-02T07:28:07.785Z</time></trkpt><trkpt lat="43.6743233" lon="12.3628767"><ele>680.0</ele><time>2026-05-02T07:28:08.785Z</time></trkpt><trkpt lat="43.6742617" lon="12.362945"><ele>680.3333333333333</ele><time>2026-05-02T07:28:09.787Z</time></trkpt><trkpt lat="43.6742017" lon="12.3629933"><ele>680.6666666666666</ele><time>2026-05-02T07:28:10.785Z</time></trkpt><trkpt lat="43.674095" lon="12.3630333"><ele>681.0</ele><time>2026-05-02T07:28:12.785Z</time></trkpt><trkpt lat="43.674" lon="12.3629783"><ele>681.3333333333334</ele><time>2026-05-02T07:28:14.785Z</time></trkpt><trkpt lat="43.6739517" lon="12.362915"><ele>681.6666666666667</ele><time>2026-05-02T07:28:15.789Z</time></trkpt><trkpt lat="43.673905" lon="12.3628333"><ele>682.0</ele><time>2026-05-02T07:28:16.785Z</time></trkpt><trkpt lat="43.67386" lon="12.36273"><ele>685.6</ele><time>2026-05-02T07:28:17.786Z</time></trkpt><trkpt lat="43.6738067" lon="12.36262"><ele>689.2</ele><time>2026-05-02T07:28:18.785Z</time></trkpt><trkpt lat="43.6737583" lon="12.3625033"><ele>692.8</ele><time>2026-05-02T07:28:19.785Z</time></trkpt><trkpt lat="43.6737133" lon="12.3623833"><ele>696.4</ele><time>2026-05-02T07:28:20.787Z</time></trkpt><trkpt lat="43.6736767" lon="12.3622617"><ele>700.0</ele><time>2026-05-02T07:28:21.785Z</time></trkpt><trkpt lat="43.67364" lon="12.362135"><ele>699.2</ele><time>2026-05-02T07:28:22.787Z</time></trkpt><trkpt lat="43.6735967" lon="12.36201"><ele>698.4</ele><time>2026-05-02T07:28:23.786Z</time></trkpt><trkpt lat="43.6735433" lon="12.3619"><ele>697.5999999999999</ele><time>2026-05-02T07:28:24.789Z</time></trkpt><trkpt lat="43.6734933" lon="12.361795"><ele>696.8</ele><time>2026-05-02T07:28:25.787Z</time></trkpt><trkpt lat="43.6734283" lon="12.361705"><ele>696.0</ele><time>2026-05-02T07:28:26.789Z</time></trkpt><trkpt lat="43.6733567" lon="12.3616183"><ele>696.0</ele><time>2026-05-02T07:28:27.788Z</time></trkpt><trkpt lat="43.67328" lon="12.3615417"><ele>696.0</ele><time>2026-05-02T07:28:28.788Z</time></trkpt><trkpt lat="43.6732033" lon="12.361475"><ele>696.0</ele><time>2026-05-02T07:28:29.789Z</time></trkpt><trkpt lat="43.673115" lon="12.361415"><ele>696.0</ele><time>2026-05-02T07:28:30.788Z</time></trkpt><trkpt lat="43.673025" lon="12.3613483"><ele>696.0</ele><time>2026-05-02T07:28:31.786Z</time></trkpt><trkpt lat="43.6729333" lon="12.3612967"><ele>697.0</ele><time>2026-05-02T07:28:32.785Z</time></trkpt><trkpt lat="43.6728417" lon="12.3612517"><ele>698.0</ele><time>2026-05-02T07:28:33.785Z</time></trkpt><trkpt lat="43.672745" lon="12.3612133"><ele>699.0</ele><time>2026-05-02T07:28:34.786Z</time></trkpt><trkpt lat="43.6726467" lon="12.36118"><ele>700.0</ele><time>2026-05-02T07:28:35.786Z</time></trkpt><trkpt lat="43.6725467" lon="12.3611617"><ele>701.0</ele><time>2026-05-02T07:28:36.785Z</time></trkpt><trkpt lat="43.67245" lon="12.3611533"><ele>701.0</ele><time>2026-05-02T07:28:37.785Z</time></trkpt><trkpt lat="43.6723617" lon="12.3611583"><ele>701.0</ele><time>2026-05-02T07:28:38.785Z</time></trkpt><trkpt lat="43.67227" lon="12.36118"><ele>701.0</ele><time>2026-05-02T07:28:39.786Z</time></trkpt><trkpt lat="43.67217" lon="12.3612133"><ele>701.0</ele><time>2026-05-02T07:28:40.786Z</time></trkpt><trkpt lat="43.672065" lon="12.3612583"><ele>701.0</ele><time>2026-05-02T07:28:41.787Z</time></trkpt><trkpt lat="43.6719583" lon="12.3613067"><ele>697.75</ele><time>2026-05-02T07:28:42.786Z</time></trkpt><trkpt lat="43.6718483" lon="12.36135"><ele>694.5</ele><time>2026-05-02T07:28:43.787Z</time></trkpt><trkpt lat="43.6717317" lon="12.361385"><ele>691.25</ele><time>2026-05-02T07:28:44.786Z</time></trkpt><trkpt lat="43.671615" lon="12.36141"><ele>688.0</ele><time>2026-05-02T07:28:45.785Z</time></trkpt><trkpt lat="43.6715117" lon="12.3614267"><ele>687.8</ele><time>2026-05-02T07:28:46.787Z</time></trkpt><trkpt lat="43.6714267" lon="12.3614317"><ele>687.5999999999999</ele><time>2026-05-02T07:28:47.786Z</time></trkpt><trkpt lat="43.67136" lon="12.3614317"><ele>687.4000000000001</ele><time>2026-05-02T07:28:48.785Z</time></trkpt><trkpt lat="43.6712733" lon="12.36146"><ele>687.2</ele><time>2026-05-02T07:28:50.79Z</time></trkpt><trkpt lat="43.6711583" lon="12.3614867"><ele>687.0</ele><time>2026-05-02T07:28:52.788Z</time></trkpt><trkpt lat="43.6710633" lon="12.3614917"><ele>687.0</ele><time>2026-05-02T07:28:53.789Z</time></trkpt><trkpt lat="43.6709667" lon="12.361505"><ele>687.0</ele><time>2026-05-02T07:28:54.789Z</time></trkpt><trkpt lat="43.6708617" lon="12.36155"><ele>687.0</ele><time>2026-05-02T07:28:55.789Z</time></trkpt><trkpt lat="43.6707567" lon="12.3616333"><ele>687.0</ele><time>2026-05-02T07:28:56.789Z</time></trkpt><trkpt lat="43.67066" lon="12.3617083"><ele>687.0</ele><time>2026-05-02T07:28:57.79Z</time></trkpt><trkpt lat="43.67057" lon="12.3617833"><ele>687.0</ele><time>2026-05-02T07:28:58.79Z</time></trkpt><trkpt lat="43.670475" lon="12.3618517"><ele>687.0</ele><time>2026-05-02T07:28:59.786Z</time></trkpt><trkpt lat="43.6703733" lon="12.36191"><ele>687.0</ele><time>2026-05-02T07:29:00.786Z</time></trkpt><trkpt lat="43.6702683" lon="12.36196"><ele>687.0</ele><time>2026-05-02T07:29:01.786Z</time></trkpt><trkpt lat="43.6701567" lon="12.362005"><ele>687.0</ele><time>2026-05-02T07:29:02.789Z</time></trkpt><trkpt lat="43.6700367" lon="12.362055"><ele>686.6</ele><time>2026-05-02T07:29:03.788Z</time></trkpt><trkpt lat="43.6699183" lon="12.362105"><ele>686.2</ele><time>2026-05-02T07:29:04.789Z</time></trkpt><trkpt lat="43.6698067" lon="12.36215"><ele>685.8</ele><time>2026-05-02T07:29:05.788Z</time></trkpt><trkpt lat="43.6697067" lon="12.3621917"><ele>685.4</ele><time>2026-05-02T07:29:06.789Z</time></trkpt><trkpt lat="43.66961" lon="12.3622367"><ele>685.0</ele><time>2026-05-02T07:29:07.785Z</time></trkpt><trkpt lat="43.6695233" lon="12.362285"><ele>683.8</ele><time>2026-05-02T07:29:08.787Z</time></trkpt><trkpt lat="43.66944" lon="12.3623383"><ele>682.6</ele><time>2026-05-02T07:29:09.785Z</time></trkpt><trkpt lat="43.6693617" lon="12.3624017"><ele>681.4000000000001</ele><time>2026-05-02T07:29:10.786Z</time></trkpt><trkpt lat="43.6692867" lon="12.3624767"><ele>680.2</ele><time>2026-05-02T07:29:11.786Z</time></trkpt><trkpt lat="43.66921" lon="12.3625617"><ele>679.0</ele><time>2026-05-02T07:29:12.785Z</time></trkpt><trkpt lat="43.6691383" lon="12.362655"><ele>679.0</ele><time>2026-05-02T07:29:13.787Z</time></trkpt><trkpt lat="43.6690717" lon="12.362755"><ele>679.0</ele><time>2026-05-02T07:29:14.789Z</time></trkpt><trkpt lat="43.6690117" lon="12.3628633"><ele>679.0</ele><time>2026-05-02T07:29:15.785Z</time></trkpt><trkpt lat="43.6689517" lon="12.3629717"><ele>679.0</ele><time>2026-05-02T07:29:16.788Z</time></trkpt><trkpt lat="43.668895" lon="12.36307"><ele>679.0</ele><time>2026-05-02T07:29:17.787Z</time></trkpt><trkpt lat="43.6688417" lon="12.3631567"><ele>678.6666666666667</ele><time>2026-05-02T07:29:18.788Z</time></trkpt><trkpt lat="43.6687833" lon="12.3632283"><ele>678.3333333333334</ele><time>2026-05-02T07:29:19.788Z</time></trkpt><trkpt lat="43.6687267" lon="12.3632817"><ele>678.0</ele><time>2026-05-02T07:29:20.787Z</time></trkpt><trkpt lat="43.6686567" lon="12.3633017"><ele>677.6666666666666</ele><time>2026-05-02T07:29:21.789Z</time></trkpt><trkpt lat="43.6685833" lon="12.363325"><ele>677.3333333333333</ele><time>2026-05-02T07:29:22.789Z</time></trkpt><trkpt lat="43.6685017" lon="12.36333"><ele>677.0</ele><time>2026-05-02T07:29:23.788Z</time></trkpt><trkpt lat="43.6684133" lon="12.3633367"><ele>677.0</ele><time>2026-05-02T07:29:24.788Z</time></trkpt><trkpt lat="43.6683317" lon="12.3633383"><ele>677.0</ele><time>2026-05-02T07:29:25.789Z</time></trkpt><trkpt lat="43.6682617" lon="12.3633833"><ele>677.0</ele><time>2026-05-02T07:29:26.789Z</time></trkpt><trkpt lat="43.6681883" lon="12.3634517"><ele>677.0</ele><time>2026-05-02T07:29:27.789Z</time></trkpt><trkpt lat="43.6681117" lon="12.3635367"><ele>677.0</ele><time>2026-05-02T07:29:28.789Z</time></trkpt><trkpt lat="43.6680333" lon="12.3636383"><ele>677.0</ele><time>2026-05-02T07:29:29.789Z</time></trkpt><trkpt lat="43.6679567" lon="12.363745"><ele>677.0</ele><time>2026-05-02T07:29:30.79Z</time></trkpt><trkpt lat="43.6678867" lon="12.36385"><ele>677.0</ele><time>2026-05-02T07:29:31.79Z</time></trkpt><trkpt lat="43.6678267" lon="12.3639417"><ele>677.0</ele><time>2026-05-02T07:29:32.789Z</time></trkpt><trkpt lat="43.6677667" lon="12.36402"><ele>677.0</ele><time>2026-05-02T07:29:33.79Z</time></trkpt><trkpt lat="43.667715" lon="12.36408"><ele>675.0</ele><time>2026-05-02T07:29:34.79Z</time></trkpt><trkpt lat="43.6676167" lon="12.3641317"><ele>673.0</ele><time>2026-05-02T07:29:36.791Z</time></trkpt><trkpt lat="43.66755" lon="12.3641383"><ele>671.0</ele><time>2026-05-02T07:29:37.787Z</time></trkpt><trkpt lat="43.6674717" lon="12.3641167"><ele>669.0</ele><time>2026-05-02T07:29:38.787Z</time></trkpt><trkpt lat="43.66738" lon="12.3640867"><ele>667.0</ele><time>2026-05-02T07:29:39.786Z</time></trkpt><trkpt lat="43.667285" lon="12.3640167"><ele>667.0</ele><time>2026-05-02T07:29:40.786Z</time></trkpt><trkpt lat="43.6671883" lon="12.363945"><ele>667.0</ele><time>2026-05-02T07:29:41.786Z</time></trkpt><trkpt lat="43.66709" lon="12.3638717"><ele>667.0</ele><time>2026-05-02T07:29:42.786Z</time></trkpt><trkpt lat="43.6669933" lon="12.363805"><ele>667.0</ele><time>2026-05-02T07:29:43.786Z</time></trkpt><trkpt lat="43.6669017" lon="12.3637417"><ele>667.0</ele><time>2026-05-02T07:29:44.786Z</time></trkpt><trkpt lat="43.6668233" lon="12.363675"><ele>665.8333333333334</ele><time>2026-05-02T07:29:45.786Z</time></trkpt><trkpt lat="43.666755" lon="12.363605"><ele>664.6666666666667</ele><time>2026-05-02T07:29:46.789Z</time></trkpt><trkpt lat="43.6667033" lon="12.3635233"><ele>663.5</ele><time>2026-05-02T07:29:47.787Z</time></trkpt><trkpt lat="43.6666583" lon="12.3634283"><ele>662.3333333333334</ele><time>2026-05-02T07:29:48.786Z</time></trkpt><trkpt lat="43.6666217" lon="12.3633067"><ele>661.1666666666666</ele><time>2026-05-02T07:29:49.787Z</time></trkpt><trkpt lat="43.6665967" lon="12.363165"><ele>660.0</ele><time>2026-05-02T07:29:50.789Z</time></trkpt><trkpt lat="43.6665817" lon="12.3630083"><ele>660.0</ele><time>2026-05-02T07:29:51.791Z</time></trkpt><trkpt lat="43.66657" lon="12.362865"><ele>660.0</ele><time>2026-05-02T07:29:52.791Z</time></trkpt><trkpt lat="43.666555" lon="12.362745"><ele>660.0</ele><time>2026-05-02T07:29:53.789Z</time></trkpt><trkpt lat="43.666545" lon="12.3626417"><ele>660.0</ele><time>2026-05-02T07:29:54.789Z</time></trkpt><trkpt lat="43.6665133" lon="12.36256"><ele>660.0</ele><time>2026-05-02T07:29:55.789Z</time></trkpt><trkpt lat="43.6664633" lon="12.3624933"><ele>660.0</ele><time>2026-05-02T07:29:56.789Z</time></trkpt><trkpt lat="43.6664017" lon="12.3624433"><ele>660.0</ele><time>2026-05-02T07:29:57.789Z</time></trkpt><trkpt lat="43.666325" lon="12.362415"><ele>660.0</ele><time>2026-05-02T07:29:58.786Z</time></trkpt><trkpt lat="43.6662433" lon="12.3624133"><ele>660.0</ele><time>2026-05-02T07:29:59.788Z</time></trkpt><trkpt lat="43.6661617" lon="12.3624383"><ele>660.0</ele><time>2026-05-02T07:30:00.79Z</time></trkpt><trkpt lat="43.6660967" lon="12.362505"><ele>660.0</ele><time>2026-05-02T07:30:01.789Z</time></trkpt><trkpt lat="43.666055" lon="12.3625983"><ele>660.0</ele><time>2026-05-02T07:30:02.789Z</time></trkpt><trkpt lat="43.6660383" lon="12.3627133"><ele>655.0</ele><time>2026-05-02T07:30:03.789Z</time></trkpt><trkpt lat="43.6660383" lon="12.3628417"><ele>650.0</ele><time>2026-05-02T07:30:04.786Z</time></trkpt><trkpt lat="43.66605" lon="12.3629833"><ele>645.0</ele><time>2026-05-02T07:30:05.789Z</time></trkpt><trkpt lat="43.6660667" lon="12.3631267"><ele>640.0</ele><time>2026-05-02T07:30:06.789Z</time></trkpt><trkpt lat="43.6660867" lon="12.363265"><ele>635.0</ele><time>2026-05-02T07:30:07.786Z</time></trkpt><trkpt lat="43.6661067" lon="12.3633983"><ele>635.0</ele><time>2026-05-02T07:30:08.788Z</time></trkpt><trkpt lat="43.6661233" lon="12.36352"><ele>635.0</ele><time>2026-05-02T07:30:09.788Z</time></trkpt><trkpt lat="43.6661283" lon="12.363625"><ele>635.0</ele><time>2026-05-02T07:30:10.788Z</time></trkpt><trkpt lat="43.6661167" lon="12.3637117"><ele>635.0</ele><time>2026-05-02T07:30:11.788Z</time></trkpt><trkpt lat="43.6660533" lon="12.3638383"><ele>635.0</ele><time>2026-05-02T07:30:13.789Z</time></trkpt><trkpt lat="43.6659417" lon="12.36391"><ele>635.5</ele><time>2026-05-02T07:30:15.789Z</time></trkpt><trkpt lat="43.6658767" lon="12.3639583"><ele>636.0</ele><time>2026-05-02T07:30:16.788Z</time></trkpt><trkpt lat="43.665805" lon="12.3640133"><ele>636.5</ele><time>2026-05-02T07:30:17.788Z</time></trkpt><trkpt lat="43.665725" lon="12.3640633"><ele>637.0</ele><time>2026-05-02T07:30:18.788Z</time></trkpt><trkpt lat="43.6656467" lon="12.36412"><ele>637.5</ele><time>2026-05-02T07:30:19.788Z</time></trkpt><trkpt lat="43.6655633" lon="12.3641717"><ele>638.0</ele><time>2026-05-02T07:30:20.787Z</time></trkpt><trkpt lat="43.665465" lon="12.3642083"><ele>638.0</ele><time>2026-05-02T07:30:21.788Z</time></trkpt><trkpt lat="43.6653533" lon="12.3642333"><ele>638.0</ele><time>2026-05-02T07:30:22.789Z</time></trkpt><trkpt lat="43.6652333" lon="12.3642483"><ele>638.0</ele><time>2026-05-02T07:30:23.789Z</time></trkpt><trkpt lat="43.665115" lon="12.36426"><ele>638.0</ele><time>2026-05-02T07:30:24.791Z</time></trkpt><trkpt lat="43.6649983" lon="12.364265"><ele>635.6666666666666</ele><time>2026-05-02T07:30:25.79Z</time></trkpt><trkpt lat="43.6648917" lon="12.3642783"><ele>633.3333333333333</ele><time>2026-05-02T07:30:26.789Z</time></trkpt><trkpt lat="43.664795" lon="12.364295"><ele>631.0</ele><time>2026-05-02T07:30:27.785Z</time></trkpt><trkpt lat="43.6647067" lon="12.3643083"><ele>628.6666666666666</ele><time>2026-05-02T07:30:28.789Z</time></trkpt><trkpt lat="43.664635" lon="12.36434"><ele>626.3333333333334</ele><time>2026-05-02T07:30:29.786Z</time></trkpt><trkpt lat="43.6645733" lon="12.3643667"><ele>624.0</ele><time>2026-05-02T07:30:30.791Z</time></trkpt><trkpt lat="43.6644767" lon="12.364375"><ele>624.0</ele><time>2026-05-02T07:30:32.786Z</time></trkpt><trkpt lat="43.6644217" lon="12.3642983"><ele>624.0</ele><time>2026-05-02T07:30:34.786Z</time></trkpt><trkpt lat="43.6644583" lon="12.364185"><ele>624.0</ele><time>2026-05-02T07:30:36.79Z</time></trkpt><trkpt lat="43.6645083" lon="12.3641033"><ele>624.0</ele><time>2026-05-02T07:30:37.786Z</time></trkpt><trkpt lat="43.664595" lon="12.3639767"><ele>624.0</ele><time>2026-05-02T07:30:38.789Z</time></trkpt><trkpt lat="43.6646783" lon="12.3638567"><ele>621.25</ele><time>2026-05-02T07:30:39.788Z</time></trkpt><trkpt lat="43.6647567" lon="12.3637317"><ele>618.5</ele><time>2026-05-02T07:30:40.789Z</time></trkpt><trkpt lat="43.664825" lon="12.3636"><ele>615.75</ele><time>2026-05-02T07:30:41.786Z</time></trkpt><trkpt lat="43.6648833" lon="12.3634683"><ele>613.0</ele><time>2026-05-02T07:30:42.786Z</time></trkpt><trkpt lat="43.6649317" lon="12.3633383"><ele>613.0</ele><time>2026-05-02T07:30:43.79Z</time></trkpt><trkpt lat="43.6649767" lon="12.36321"><ele>613.0</ele><time>2026-05-02T07:30:44.79Z</time></trkpt><trkpt lat="43.665015" lon="12.3630883"><ele>613.0</ele><time>2026-05-02T07:30:45.787Z</time></trkpt><trkpt lat="43.6650367" lon="12.3629667"><ele>613.0</ele><time>2026-05-02T07:30:46.788Z</time></trkpt><trkpt lat="43.665055" lon="12.36285"><ele>613.0</ele><time>2026-05-02T07:30:47.787Z</time></trkpt><trkpt lat="43.6650667" lon="12.3627383"><ele>612.8333333333334</ele><time>2026-05-02T07:30:48.787Z</time></trkpt><trkpt lat="43.6650667" lon="12.36264"><ele>612.6666666666667</ele><time>2026-05-02T07:30:49.787Z</time></trkpt><trkpt lat="43.665055" lon="12.3625367"><ele>612.5</ele><time>2026-05-02T07:30:50.788Z</time></trkpt><trkpt lat="43.6650283" lon="12.3624233"><ele>612.3333333333334</ele><time>2026-05-02T07:30:51.789Z</time></trkpt><trkpt lat="43.6649867" lon="12.3622967"><ele>612.1666666666666</ele><time>2026-05-02T07:30:52.789Z</time></trkpt><trkpt lat="43.664935" lon="12.3621683"><ele>612.0</ele><time>2026-05-02T07:30:53.79Z</time></trkpt><trkpt lat="43.6648867" lon="12.36204"><ele>612.0</ele><time>2026-05-02T07:30:54.789Z</time></trkpt><trkpt lat="43.6648333" lon="12.3619183"><ele>612.0</ele><time>2026-05-02T07:30:55.789Z</time></trkpt><trkpt lat="43.6647783" lon="12.3617983"><ele>612.0</ele><time>2026-05-02T07:30:56.789Z</time></trkpt><trkpt lat="43.6647233" lon="12.3616833"><ele>612.0</ele><time>2026-05-02T07:30:57.789Z</time></trkpt><trkpt lat="43.6646617" lon="12.3615733"><ele>612.0</ele><time>2026-05-02T07:30:58.789Z</time></trkpt><trkpt lat="43.6646017" lon="12.3614683"><ele>612.0</ele><time>2026-05-02T07:30:59.789Z</time></trkpt><trkpt lat="43.6645333" lon="12.36137"><ele>612.0</ele><time>2026-05-02T07:31:00.789Z</time></trkpt><trkpt lat="43.66446" lon="12.3612817"><ele>612.0</ele><time>2026-05-02T07:31:01.789Z</time></trkpt><trkpt lat="43.664385" lon="12.3611967"><ele>612.0</ele><time>2026-05-02T07:31:02.788Z</time></trkpt><trkpt lat="43.6643067" lon="12.3611183"><ele>612.0</ele><time>2026-05-02T07:31:03.786Z</time></trkpt><trkpt lat="43.6642317" lon="12.3610417"><ele>606.4</ele><time>2026-05-02T07:31:04.785Z</time></trkpt><trkpt lat="43.6641633" lon="12.36097"><ele>600.8000000000001</ele><time>2026-05-02T07:31:05.785Z</time></trkpt><trkpt lat="43.6641083" lon="12.3609017"><ele>595.2</ele><time>2026-05-02T07:31:06.789Z</time></trkpt><trkpt lat="43.66407" lon="12.36083"><ele>589.6</ele><time>2026-05-02T07:31:07.785Z</time></trkpt><trkpt lat="43.6640517" lon="12.3606717"><ele>584.0</ele><time>2026-05-02T07:31:09.788Z</time></trkpt><trkpt lat="43.6640783" lon="12.3605083"><ele>583.5</ele><time>2026-05-02T07:31:11.785Z</time></trkpt><trkpt lat="43.6640983" lon="12.36042"><ele>583.0</ele><time>2026-05-02T07:31:12.788Z</time></trkpt><trkpt lat="43.66412" lon="12.360325"><ele>582.5</ele><time>2026-05-02T07:31:13.786Z</time></trkpt><trkpt lat="43.6641417" lon="12.3602267"><ele>582.0</ele><time>2026-05-02T07:31:14.786Z</time></trkpt><trkpt lat="43.6641583" lon="12.3601233"><ele>581.5</ele><time>2026-05-02T07:31:15.787Z</time></trkpt><trkpt lat="43.6641633" lon="12.3600033"><ele>581.0</ele><time>2026-05-02T07:31:16.787Z</time></trkpt><trkpt lat="43.6641467" lon="12.3598783"><ele>581.0</ele><time>2026-05-02T07:31:17.787Z</time></trkpt><trkpt lat="43.6641117" lon="12.3597533"><ele>581.0</ele><time>2026-05-02T07:31:18.787Z</time></trkpt><trkpt lat="43.6640617" lon="12.3596317"><ele>581.0</ele><time>2026-05-02T07:31:19.786Z</time></trkpt><trkpt lat="43.6639967" lon="12.35953"><ele>581.0</ele><time>2026-05-02T07:31:20.788Z</time></trkpt><trkpt lat="43.6639133" lon="12.359435"><ele>581.0</ele><time>2026-05-02T07:31:21.788Z</time></trkpt><trkpt lat="43.6638233" lon="12.3593567"><ele>581.4</ele><time>2026-05-02T07:31:22.786Z</time></trkpt><trkpt lat="43.6637383" lon="12.359285"><ele>581.8</ele><time>2026-05-02T07:31:23.786Z</time></trkpt><trkpt lat="43.66365" lon="12.359215"><ele>582.1999999999999</ele><time>2026-05-02T07:31:24.787Z</time></trkpt><trkpt lat="43.66357" lon="12.35914"><ele>582.6</ele><time>2026-05-02T07:31:25.788Z</time></trkpt><trkpt lat="43.6634983" lon="12.359055"><ele>583.0</ele><time>2026-05-02T07:31:26.79Z</time></trkpt><trkpt lat="43.6634367" lon="12.358955"><ele>579.4</ele><time>2026-05-02T07:31:27.789Z</time></trkpt><trkpt lat="43.6633783" lon="12.3588417"><ele>575.8</ele><time>2026-05-02T07:31:28.788Z</time></trkpt><trkpt lat="43.66332" lon="12.358725"><ele>572.2</ele><time>2026-05-02T07:31:29.789Z</time></trkpt><trkpt lat="43.663265" lon="12.3586167"><ele>568.6</ele><time>2026-05-02T07:31:30.788Z</time></trkpt><trkpt lat="43.6632283" lon="12.3585133"><ele>565.0</ele><time>2026-05-02T07:31:31.785Z</time></trkpt><trkpt lat="43.6632033" lon="12.3584133"><ele>565.0</ele><time>2026-05-02T07:31:32.786Z</time></trkpt><trkpt lat="43.6631833" lon="12.358305"><ele>565.0</ele><time>2026-05-02T07:31:33.786Z</time></trkpt><trkpt lat="43.6631667" lon="12.3581917"><ele>565.0</ele><time>2026-05-02T07:31:34.787Z</time></trkpt><trkpt lat="43.66319" lon="12.3580383"><ele>565.0</ele><time>2026-05-02T07:31:35.787Z</time></trkpt><trkpt lat="43.66323" lon="12.3578683"><ele>565.0</ele><time>2026-05-02T07:31:36.789Z</time></trkpt><trkpt lat="43.6632567" lon="12.3577017"><ele>563.2</ele><time>2026-05-02T07:31:37.785Z</time></trkpt><trkpt lat="43.6632767" lon="12.35754"><ele>561.4</ele><time>2026-05-02T07:31:38.785Z</time></trkpt><trkpt lat="43.6632933" lon="12.3573867"><ele>559.6</ele><time>2026-05-02T07:31:39.785Z</time></trkpt><trkpt lat="43.6633067" lon="12.3572433"><ele>557.8</ele><time>2026-05-02T07:31:40.785Z</time></trkpt><trkpt lat="43.66332" lon="12.3571083"><ele>556.0</ele><time>2026-05-02T07:31:41.785Z</time></trkpt><trkpt lat="43.663345" lon="12.35698"><ele>553.2</ele><time>2026-05-02T07:31:42.787Z</time></trkpt><trkpt lat="43.6633833" lon="12.3568583"><ele>550.4000000000001</ele><time>2026-05-02T07:31:43.877Z</time></trkpt><trkpt lat="43.6634267" lon="12.3567433"><ele>547.6</ele><time>2026-05-02T07:31:44.786Z</time></trkpt><trkpt lat="43.6634733" lon="12.3566217"><ele>544.8000000000001</ele><time>2026-05-02T07:31:45.785Z</time></trkpt><trkpt lat="43.6635183" lon="12.3565017"><ele>542.0</ele><time>2026-05-02T07:31:46.786Z</time></trkpt><trkpt lat="43.6635717" lon="12.356375"><ele>543.2</ele><time>2026-05-02T07:31:47.785Z</time></trkpt><trkpt lat="43.66362" lon="12.35625"><ele>544.4000000000001</ele><time>2026-05-02T07:31:48.785Z</time></trkpt><trkpt lat="43.6636583" lon="12.3561317"><ele>545.5999999999999</ele><time>2026-05-02T07:31:49.786Z</time></trkpt><trkpt lat="43.6637" lon="12.3560267"><ele>546.8</ele><time>2026-05-02T07:31:50.786Z</time></trkpt><trkpt lat="43.6637483" lon="12.3559233"><ele>548.0</ele><time>2026-05-02T07:31:51.786Z</time></trkpt><trkpt lat="43.6638067" lon="12.35584"><ele>548.0</ele><time>2026-05-02T07:31:52.788Z</time></trkpt><trkpt lat="43.6638783" lon="12.3557733"><ele>548.0</ele><time>2026-05-02T07:31:53.785Z</time></trkpt><trkpt lat="43.6639483" lon="12.355715"><ele>548.0</ele><time>2026-05-02T07:31:54.784Z</time></trkpt><trkpt lat="43.6640067" lon="12.3556517"><ele>548.0</ele><time>2026-05-02T07:31:55.788Z</time></trkpt><trkpt lat="43.6640517" lon="12.3555867"><ele>548.0</ele><time>2026-05-02T07:31:56.785Z</time></trkpt><trkpt lat="43.6640833" lon="12.3554983"><ele>548.0</ele><time>2026-05-02T07:31:57.785Z</time></trkpt><trkpt lat="43.6640933" lon="12.35538"><ele>545.0</ele><time>2026-05-02T07:31:58.785Z</time></trkpt><trkpt lat="43.664085" lon="12.3552383"><ele>542.0</ele><time>2026-05-02T07:31:59.786Z</time></trkpt><trkpt lat="43.6640633" lon="12.355075"><ele>539.0</ele><time>2026-05-02T07:32:00.785Z</time></trkpt><trkpt lat="43.66405" lon="12.354925"><ele>536.0</ele><time>2026-05-02T07:32:01.786Z</time></trkpt><trkpt lat="43.6640517" lon="12.3547917"><ele>533.0</ele><time>2026-05-02T07:32:02.785Z</time></trkpt><trkpt lat="43.6640667" lon="12.3546767"><ele>531.8</ele><time>2026-05-02T07:32:03.79Z</time></trkpt><trkpt lat="43.664125" lon="12.3545517"><ele>530.5999999999999</ele><time>2026-05-02T07:32:05.788Z</time></trkpt><trkpt lat="43.6642283" lon="12.354545"><ele>529.4000000000001</ele><time>2026-05-02T07:32:07.785Z</time></trkpt><trkpt lat="43.664295" lon="12.354585"><ele>528.2</ele><time>2026-05-02T07:32:08.785Z</time></trkpt><trkpt lat="43.6643717" lon="12.3546383"><ele>527.0</ele><time>2026-05-02T07:32:09.788Z</time></trkpt><trkpt lat="43.6644917" lon="12.3546367"><ele>527.0</ele><time>2026-05-02T07:32:11.786Z</time></trkpt><trkpt lat="43.6645483" lon="12.3545817"><ele>527.0</ele><time>2026-05-02T07:32:12.787Z</time></trkpt><trkpt lat="43.664605" lon="12.3544933"><ele>527.0</ele><time>2026-05-02T07:32:13.786Z</time></trkpt><trkpt lat="43.6646433" lon="12.354365"><ele>527.0</ele><time>2026-05-02T07:32:14.789Z</time></trkpt><trkpt lat="43.6646683" lon="12.3542283"><ele>527.0</ele><time>2026-05-02T07:32:15.788Z</time></trkpt><trkpt lat="43.66469" lon="12.3540767"><ele>527.0</ele><time>2026-05-02T07:32:16.789Z</time></trkpt><trkpt lat="43.6647133" lon="12.3539417"><ele>527.0</ele><time>2026-05-02T07:32:17.789Z</time></trkpt><trkpt lat="43.6647367" lon="12.353815"><ele>527.0</ele><time>2026-05-02T07:32:18.786Z</time></trkpt><trkpt lat="43.6647617" lon="12.353705"><ele>527.0</ele><time>2026-05-02T07:32:19.785Z</time></trkpt><trkpt lat="43.6647883" lon="12.3536167"><ele>527.0</ele><time>2026-05-02T07:32:20.788Z</time></trkpt><trkpt lat="43.6648883" lon="12.35352"><ele>525.2</ele><time>2026-05-02T07:32:22.789Z</time></trkpt><trkpt lat="43.6649617" lon="12.3535017"><ele>523.4000000000001</ele><time>2026-05-02T07:32:23.789Z</time></trkpt><trkpt lat="43.6650467" lon="12.3534933"><ele>521.5999999999999</ele><time>2026-05-02T07:32:24.789Z</time></trkpt><trkpt lat="43.6651483" lon="12.3534817"><ele>519.8</ele><time>2026-05-02T07:32:25.788Z</time></trkpt><trkpt lat="43.6652433" lon="12.3534483"><ele>518.0</ele><time>2026-05-02T07:32:26.786Z</time></trkpt><trkpt lat="43.66533" lon="12.3533983"><ele>518.0</ele><time>2026-05-02T07:32:27.785Z</time></trkpt><trkpt lat="43.66541" lon="12.3533417"><ele>518.0</ele><time>2026-05-02T07:32:28.786Z</time></trkpt><trkpt lat="43.665485" lon="12.35328"><ele>518.0</ele><time>2026-05-02T07:32:29.786Z</time></trkpt><trkpt lat="43.66555" lon="12.35321"><ele>518.0</ele><time>2026-05-02T07:32:30.786Z</time></trkpt><trkpt lat="43.6655917" lon="12.3531317"><ele>518.0</ele><time>2026-05-02T07:32:31.785Z</time></trkpt><trkpt lat="43.665615" lon="12.35304"><ele>518.0</ele><time>2026-05-02T07:32:32.786Z</time></trkpt><trkpt lat="43.66562" lon="12.352925"><ele>516.8</ele><time>2026-05-02T07:32:33.789Z</time></trkpt><trkpt lat="43.6656133" lon="12.35278"><ele>515.5999999999999</ele><time>2026-05-02T07:32:34.788Z</time></trkpt><trkpt lat="43.665615" lon="12.35263"><ele>514.4000000000001</ele><time>2026-05-02T07:32:35.789Z</time></trkpt><trkpt lat="43.6656233" lon="12.3524833"><ele>513.2</ele><time>2026-05-02T07:32:36.788Z</time></trkpt><trkpt lat="43.66564" lon="12.3523467"><ele>512.0</ele><time>2026-05-02T07:32:37.787Z</time></trkpt><trkpt lat="43.66566" lon="12.3522233"><ele>511.3333333333333</ele><time>2026-05-02T07:32:38.789Z</time></trkpt><trkpt lat="43.66567" lon="12.35211"><ele>510.66666666666663</ele><time>2026-05-02T07:32:39.787Z</time></trkpt><trkpt lat="43.66567" lon="12.3520067"><ele>510.0</ele><time>2026-05-02T07:32:40.786Z</time></trkpt><trkpt lat="43.6656517" lon="12.35191"><ele>509.33333333333337</ele><time>2026-05-02T07:32:41.786Z</time></trkpt><trkpt lat="43.6656083" lon="12.351825"><ele>508.6666666666667</ele><time>2026-05-02T07:32:42.788Z</time></trkpt><trkpt lat="43.665545" lon="12.3517533"><ele>508.0</ele><time>2026-05-02T07:32:43.786Z</time></trkpt><trkpt lat="43.665475" lon="12.3517033"><ele>508.0</ele><time>2026-05-02T07:32:44.787Z</time></trkpt><trkpt lat="43.6653933" lon="12.3516883"><ele>507.99999999999994</ele><time>2026-05-02T07:32:45.786Z</time></trkpt><trkpt lat="43.6653117" lon="12.3516883"><ele>507.99999999999994</ele><time>2026-05-02T07:32:46.786Z</time></trkpt><trkpt lat="43.6652117" lon="12.351715"><ele>508.0</ele><time>2026-05-02T07:32:47.786Z</time></trkpt><trkpt lat="43.6651017" lon="12.3517583"><ele>508.0</ele><time>2026-05-02T07:32:48.785Z</time></trkpt><trkpt lat="43.6649917" lon="12.3517983"><ele>509.0</ele><time>2026-05-02T07:32:49.788Z</time></trkpt><trkpt lat="43.66488" lon="12.35184"><ele>509.99999999999994</ele><time>2026-05-02T07:32:50.789Z</time></trkpt><trkpt lat="43.6647783" lon="12.3518767"><ele>510.99999999999994</ele><time>2026-05-02T07:32:51.788Z</time></trkpt><trkpt lat="43.6646783" lon="12.351895"><ele>512.0</ele><time>2026-05-02T07:32:52.787Z</time></trkpt><trkpt lat="43.6645833" lon="12.3518983"><ele>513.0</ele><time>2026-05-02T07:32:53.788Z</time></trkpt><trkpt lat="43.6644817" lon="12.35188"><ele>516.1999999999999</ele><time>2026-05-02T07:32:54.785Z</time></trkpt><trkpt lat="43.6643783" lon="12.3518417"><ele>519.4</ele><time>2026-05-02T07:32:55.785Z</time></trkpt><trkpt lat="43.6642717" lon="12.3518017"><ele>522.5999999999999</ele><time>2026-05-02T07:32:56.785Z</time></trkpt><trkpt lat="43.6641617" lon="12.3517717"><ele>525.8</ele><time>2026-05-02T07:32:57.786Z</time></trkpt><trkpt lat="43.6640517" lon="12.3517617"><ele>529.0</ele><time>2026-05-02T07:32:58.786Z</time></trkpt><trkpt lat="43.6639617" lon="12.3517633"><ele>529.0</ele><time>2026-05-02T07:32:59.786Z</time></trkpt><trkpt lat="43.6638883" lon="12.3517783"><ele>529.0</ele><time>2026-05-02T07:33:00.786Z</time></trkpt><trkpt lat="43.663815" lon="12.3518083"><ele>529.0</ele><time>2026-05-02T07:33:01.786Z</time></trkpt><trkpt lat="43.6637383" lon="12.351845"><ele>529.0</ele><time>2026-05-02T07:33:02.786Z</time></trkpt><trkpt lat="43.66366" lon="12.3518733"><ele>529.0</ele><time>2026-05-02T07:33:03.787Z</time></trkpt><trkpt lat="43.6635767" lon="12.3519033"><ele>529.0</ele><time>2026-05-02T07:33:04.789Z</time></trkpt><trkpt lat="43.6634833" lon="12.3519167"><ele>531.8</ele><time>2026-05-02T07:33:05.786Z</time></trkpt><trkpt lat="43.6633867" lon="12.3519033"><ele>534.5999999999999</ele><time>2026-05-02T07:33:06.788Z</time></trkpt><trkpt lat="43.6632783" lon="12.351895"><ele>537.4</ele><time>2026-05-02T07:33:07.786Z</time></trkpt><trkpt lat="43.66317" lon="12.351895"><ele>540.1999999999999</ele><time>2026-05-02T07:33:08.786Z</time></trkpt><trkpt lat="43.6630633" lon="12.3519033"><ele>543.0</ele><time>2026-05-02T07:33:09.786Z</time></trkpt><trkpt lat="43.6629633" lon="12.3519017"><ele>543.0</ele><time>2026-05-02T07:33:10.786Z</time></trkpt><trkpt lat="43.6628633" lon="12.3518833"><ele>543.0</ele><time>2026-05-02T07:33:11.787Z</time></trkpt><trkpt lat="43.66276" lon="12.3518483"><ele>543.0</ele><time>2026-05-02T07:33:12.785Z</time></trkpt><trkpt lat="43.6626567" lon="12.3518017"><ele>543.0</ele><time>2026-05-02T07:33:13.789Z</time></trkpt><trkpt lat="43.662555" lon="12.351745"><ele>543.0</ele><time>2026-05-02T07:33:14.785Z</time></trkpt><trkpt lat="43.6624667" lon="12.3516733"><ele>541.4</ele><time>2026-05-02T07:33:15.788Z</time></trkpt><trkpt lat="43.6623833" lon="12.3515933"><ele>539.8</ele><time>2026-05-02T07:33:16.785Z</time></trkpt><trkpt lat="43.66231" lon="12.3514933"><ele>538.2</ele><time>2026-05-02T07:33:17.789Z</time></trkpt><trkpt lat="43.6622383" lon="12.3513933"><ele>536.6</ele><time>2026-05-02T07:33:18.785Z</time></trkpt><trkpt lat="43.6621667" lon="12.3513033"><ele>535.0</ele><time>2026-05-02T07:33:19.785Z</time></trkpt><trkpt lat="43.6620833" lon="12.3512333"><ele>537.2</ele><time>2026-05-02T07:33:20.789Z</time></trkpt><trkpt lat="43.6619983" lon="12.3511717"><ele>539.4</ele><time>2026-05-02T07:33:21.788Z</time></trkpt><trkpt lat="43.6619033" lon="12.3511283"><ele>541.6</ele><time>2026-05-02T07:33:22.789Z</time></trkpt><trkpt lat="43.6618067" lon="12.351095"><ele>543.8</ele><time>2026-05-02T07:33:23.789Z</time></trkpt><trkpt lat="43.6617" lon="12.3510867"><ele>546.0</ele><time>2026-05-02T07:33:24.785Z</time></trkpt><trkpt lat="43.6615983" lon="12.3510967"><ele>546.0</ele><time>2026-05-02T07:33:25.787Z</time></trkpt><trkpt lat="43.6615067" lon="12.3511233"><ele>546.0</ele><time>2026-05-02T07:33:26.786Z</time></trkpt><trkpt lat="43.6614317" lon="12.3511667"><ele>546.0</ele><time>2026-05-02T07:33:27.788Z</time></trkpt><trkpt lat="43.661375" lon="12.3512367"><ele>546.0</ele><time>2026-05-02T07:33:28.788Z</time></trkpt><trkpt lat="43.661355" lon="12.351335"><ele>546.0</ele><time>2026-05-02T07:33:29.788Z</time></trkpt><trkpt lat="43.6613683" lon="12.3514567"><ele>546.0</ele><time>2026-05-02T07:33:30.788Z</time></trkpt><trkpt lat="43.6613833" lon="12.35159"><ele>542.4</ele><time>2026-05-02T07:33:31.788Z</time></trkpt><trkpt lat="43.6613917" lon="12.351725"><ele>538.8</ele><time>2026-05-02T07:33:32.787Z</time></trkpt><trkpt lat="43.6613883" lon="12.3518633"><ele>535.1999999999999</ele><time>2026-05-02T07:33:33.787Z</time></trkpt><trkpt lat="43.661375" lon="12.352"><ele>531.6</ele><time>2026-05-02T07:33:34.787Z</time></trkpt><trkpt lat="43.6613683" lon="12.3521267"><ele>528.0</ele><time>2026-05-02T07:33:35.788Z</time></trkpt><trkpt lat="43.6613783" lon="12.3522417"><ele>526.6666666666666</ele><time>2026-05-02T07:33:36.79Z</time></trkpt><trkpt lat="43.6614083" lon="12.3523517"><ele>525.3333333333334</ele><time>2026-05-02T07:33:37.786Z</time></trkpt><trkpt lat="43.66145" lon="12.3524467"><ele>524.0</ele><time>2026-05-02T07:33:38.789Z</time></trkpt><trkpt lat="43.6614867" lon="12.35253"><ele>522.6666666666667</ele><time>2026-05-02T07:33:39.789Z</time></trkpt><trkpt lat="43.661515" lon="12.35261"><ele>521.3333333333334</ele><time>2026-05-02T07:33:40.786Z</time></trkpt><trkpt lat="43.6615" lon="12.35277"><ele>520.0</ele><time>2026-05-02T07:33:42.786Z</time></trkpt><trkpt lat="43.6614533" lon="12.3528383"><ele>520.0</ele><time>2026-05-02T07:33:43.785Z</time></trkpt><trkpt lat="43.6613933" lon="12.35291"><ele>520.0</ele><time>2026-05-02T07:33:44.786Z</time></trkpt><trkpt lat="43.6613017" lon="12.3529617"><ele>520.0</ele><time>2026-05-02T07:33:45.786Z</time></trkpt><trkpt lat="43.6611867" lon="12.3529917"><ele>520.0</ele><time>2026-05-02T07:33:46.787Z</time></trkpt><trkpt lat="43.6610783" lon="12.3530433"><ele>520.0</ele><time>2026-05-02T07:33:47.785Z</time></trkpt><trkpt lat="43.66097" lon="12.353095"><ele>521.25</ele><time>2026-05-02T07:33:48.785Z</time></trkpt><trkpt lat="43.6608567" lon="12.353155"><ele>522.5</ele><time>2026-05-02T07:33:49.787Z</time></trkpt><trkpt lat="43.6607467" lon="12.3532367"><ele>523.75</ele><time>2026-05-02T07:33:50.789Z</time></trkpt><trkpt lat="43.6606467" lon="12.353345"><ele>525.0</ele><time>2026-05-02T07:33:51.786Z</time></trkpt><trkpt lat="43.6605567" lon="12.3534667"><ele>525.0</ele><time>2026-05-02T07:33:52.787Z</time></trkpt><trkpt lat="43.66048" lon="12.3536"><ele>525.0</ele><time>2026-05-02T07:33:53.786Z</time></trkpt><trkpt lat="43.6604083" lon="12.3537333"><ele>525.0</ele><time>2026-05-02T07:33:54.785Z</time></trkpt><trkpt lat="43.6603417" lon="12.3538467"><ele>525.0</ele><time>2026-05-02T07:33:55.786Z</time></trkpt><trkpt lat="43.66026" lon="12.3539367"><ele>524.0</ele><time>2026-05-02T07:33:56.787Z</time></trkpt><trkpt lat="43.6601717" lon="12.35402"><ele>523.0</ele><time>2026-05-02T07:33:57.786Z</time></trkpt><trkpt lat="43.6600883" lon="12.3541017"><ele>522.0</ele><time>2026-05-02T07:33:58.786Z</time></trkpt><trkpt lat="43.66001" lon="12.35418"><ele>521.0</ele><time>2026-05-02T07:33:59.786Z</time></trkpt><trkpt lat="43.6599317" lon="12.3542567"><ele>520.0</ele><time>2026-05-02T07:34:00.786Z</time></trkpt><trkpt lat="43.659845" lon="12.3543083"><ele>520.0</ele><time>2026-05-02T07:34:01.786Z</time></trkpt><trkpt lat="43.659755" lon="12.3543533"><ele>520.0</ele><time>2026-05-02T07:34:02.786Z</time></trkpt><trkpt lat="43.6596617" lon="12.3543967"><ele>520.0</ele><time>2026-05-02T07:34:03.786Z</time></trkpt><trkpt lat="43.65957" lon="12.3544583"><ele>520.0</ele><time>2026-05-02T07:34:04.786Z</time></trkpt><trkpt lat="43.6594967" lon="12.3545383"><ele>520.0</ele><time>2026-05-02T07:34:05.79Z</time></trkpt><trkpt lat="43.6594283" lon="12.3546083"><ele>520.6</ele><time>2026-05-02T07:34:06.787Z</time></trkpt><trkpt lat="43.65937" lon="12.3546783"><ele>521.2</ele><time>2026-05-02T07:34:07.788Z</time></trkpt><trkpt lat="43.6592983" lon="12.35473"><ele>521.8</ele><time>2026-05-02T07:34:08.787Z</time></trkpt><trkpt lat="43.659215" lon="12.35475"><ele>522.4</ele><time>2026-05-02T07:34:09.787Z</time></trkpt><trkpt lat="43.659105" lon="12.3547567"><ele>523.0</ele><time>2026-05-02T07:34:10.788Z</time></trkpt><trkpt lat="43.65898" lon="12.354755"><ele>518.5</ele><time>2026-05-02T07:34:11.788Z</time></trkpt><trkpt lat="43.6588617" lon="12.3547517"><ele>514.0</ele><time>2026-05-02T07:34:12.788Z</time></trkpt><trkpt lat="43.6587367" lon="12.3547433"><ele>509.5</ele><time>2026-05-02T07:34:13.789Z</time></trkpt><trkpt lat="43.6586167" lon="12.35474"><ele>505.0</ele><time>2026-05-02T07:34:14.789Z</time></trkpt><trkpt lat="43.658505" lon="12.3547467"><ele>504.8</ele><time>2026-05-02T07:34:15.787Z</time></trkpt><trkpt lat="43.6583967" lon="12.354755"><ele>504.6</ele><time>2026-05-02T07:34:16.788Z</time></trkpt><trkpt lat="43.6582883" lon="12.3547683"><ele>504.4</ele><time>2026-05-02T07:34:17.788Z</time></trkpt><trkpt lat="43.6581817" lon="12.3547917"><ele>504.2</ele><time>2026-05-02T07:34:18.787Z</time></trkpt><trkpt lat="43.6580767" lon="12.35483"><ele>504.0</ele><time>2026-05-02T07:34:19.788Z</time></trkpt><trkpt lat="43.6579767" lon="12.3549017"><ele>504.0</ele><time>2026-05-02T07:34:20.787Z</time></trkpt><trkpt lat="43.6578733" lon="12.3549817"><ele>504.0</ele><time>2026-05-02T07:34:21.788Z</time></trkpt><trkpt lat="43.6577783" lon="12.3550517"><ele>504.0</ele><time>2026-05-02T07:34:22.789Z</time></trkpt><trkpt lat="43.6576733" lon="12.3551"><ele>504.0</ele><time>2026-05-02T07:34:23.79Z</time></trkpt><trkpt lat="43.65756" lon="12.355125"><ele>503.25</ele><time>2026-05-02T07:34:24.791Z</time></trkpt><trkpt lat="43.6574417" lon="12.3551233"><ele>502.5</ele><time>2026-05-02T07:34:25.789Z</time></trkpt><trkpt lat="43.6573233" lon="12.355105"><ele>501.75</ele><time>2026-05-02T07:34:26.787Z</time></trkpt><trkpt lat="43.6572067" lon="12.355085"><ele>501.0</ele><time>2026-05-02T07:34:27.787Z</time></trkpt><trkpt lat="43.6570967" lon="12.3550633"><ele>501.0</ele><time>2026-05-02T07:34:28.789Z</time></trkpt><trkpt lat="43.6569917" lon="12.3550433"><ele>501.0</ele><time>2026-05-02T07:34:29.787Z</time></trkpt><trkpt lat="43.656895" lon="12.35501"><ele>501.0</ele><time>2026-05-02T07:34:30.786Z</time></trkpt><trkpt lat="43.6568117" lon="12.3549533"><ele>501.0</ele><time>2026-05-02T07:34:31.788Z</time></trkpt><trkpt lat="43.65674" lon="12.354875"><ele>501.0</ele><time>2026-05-02T07:34:32.787Z</time></trkpt><trkpt lat="43.656685" lon="12.3547783"><ele>500.6</ele><time>2026-05-02T07:34:33.789Z</time></trkpt><trkpt lat="43.656635" lon="12.3546867"><ele>500.20000000000005</ele><time>2026-05-02T07:34:34.787Z</time></trkpt><trkpt lat="43.6565933" lon="12.3545867"><ele>499.79999999999995</ele><time>2026-05-02T07:34:35.786Z</time></trkpt><trkpt lat="43.656555" lon="12.3544667"><ele>499.4</ele><time>2026-05-02T07:34:36.789Z</time></trkpt><trkpt lat="43.656515" lon="12.3543383"><ele>499.0</ele><time>2026-05-02T07:34:37.786Z</time></trkpt><trkpt lat="43.6564633" lon="12.3542067"><ele>499.0</ele><time>2026-05-02T07:34:38.786Z</time></trkpt><trkpt lat="43.6563983" lon="12.3540867"><ele>499.0</ele><time>2026-05-02T07:34:39.787Z</time></trkpt><trkpt lat="43.6563267" lon="12.3539783"><ele>499.0</ele><time>2026-05-02T07:34:40.787Z</time></trkpt><trkpt lat="43.6562567" lon="12.3538917"><ele>499.0</ele><time>2026-05-02T07:34:41.786Z</time></trkpt><trkpt lat="43.656185" lon="12.3538317"><ele>499.0</ele><time>2026-05-02T07:34:42.786Z</time></trkpt><trkpt lat="43.65612" lon="12.3537933"><ele>499.6666666666667</ele><time>2026-05-02T07:34:43.788Z</time></trkpt><trkpt lat="43.656055" lon="12.3537733"><ele>500.33333333333337</ele><time>2026-05-02T07:34:44.787Z</time></trkpt><trkpt lat="43.6559883" lon="12.35378"><ele>501.0</ele><time>2026-05-02T07:34:45.786Z</time></trkpt><trkpt lat="43.65591" lon="12.35379"><ele>501.66666666666663</ele><time>2026-05-02T07:34:46.787Z</time></trkpt><trkpt lat="43.655835" lon="12.3538283"><ele>502.3333333333333</ele><time>2026-05-02T07:34:47.786Z</time></trkpt><trkpt lat="43.65577" lon="12.3538933"><ele>503.0</ele><time>2026-05-02T07:34:48.787Z</time></trkpt><trkpt lat="43.655715" lon="12.35398"><ele>500.2</ele><time>2026-05-02T07:34:49.786Z</time></trkpt><trkpt lat="43.6556633" lon="12.35405"><ele>497.4</ele><time>2026-05-02T07:34:50.786Z</time></trkpt><trkpt lat="43.6555883" lon="12.35417"><ele>494.59999999999997</ele><time>2026-05-02T07:34:52.786Z</time></trkpt><trkpt lat="43.6554933" lon="12.3542267"><ele>491.79999999999995</ele><time>2026-05-02T07:34:54.79Z</time></trkpt><trkpt lat="43.6553867" lon="12.3541417"><ele>489.0</ele><time>2026-05-02T07:34:56.787Z</time></trkpt><trkpt lat="43.655325" lon="12.3540483"><ele>489.2</ele><time>2026-05-02T07:34:57.787Z</time></trkpt><trkpt lat="43.6552617" lon="12.3539167"><ele>489.4</ele><time>2026-05-02T07:34:58.787Z</time></trkpt><trkpt lat="43.6552067" lon="12.3537883"><ele>489.6</ele><time>2026-05-02T07:34:59.788Z</time></trkpt><trkpt lat="43.65515" lon="12.3536667"><ele>489.8</ele><time>2026-05-02T07:35:00.787Z</time></trkpt><trkpt lat="43.65508" lon="12.3535667"><ele>490.0</ele><time>2026-05-02T07:35:01.789Z</time></trkpt><trkpt lat="43.654985" lon="12.3534933"><ele>490.0</ele><time>2026-05-02T07:35:02.788Z</time></trkpt><trkpt lat="43.6548733" lon="12.35345"><ele>490.0</ele><time>2026-05-02T07:35:03.788Z</time></trkpt><trkpt lat="43.6547533" lon="12.353435"><ele>490.0</ele><time>2026-05-02T07:35:04.788Z</time></trkpt><trkpt lat="43.6546367" lon="12.3534483"><ele>490.0</ele><time>2026-05-02T07:35:05.789Z</time></trkpt><trkpt lat="43.654525" lon="12.3535"><ele>488.0</ele><time>2026-05-02T07:35:06.787Z</time></trkpt><trkpt lat="43.6544233" lon="12.3535867"><ele>486.0</ele><time>2026-05-02T07:35:07.788Z</time></trkpt><trkpt lat="43.654335" lon="12.353705"><ele>484.0</ele><time>2026-05-02T07:35:08.788Z</time></trkpt><trkpt lat="43.6542567" lon="12.3538417"><ele>482.0</ele><time>2026-05-02T07:35:09.787Z</time></trkpt><trkpt lat="43.6541883" lon="12.353995"><ele>482.0</ele><time>2026-05-02T07:35:10.787Z</time></trkpt><trkpt lat="43.6541217" lon="12.3541517"><ele>482.0</ele><time>2026-05-02T07:35:11.788Z</time></trkpt><trkpt lat="43.6540567" lon="12.3543067"><ele>482.0</ele><time>2026-05-02T07:35:12.787Z</time></trkpt><trkpt lat="43.653985" lon="12.354455"><ele>482.0</ele><time>2026-05-02T07:35:13.787Z</time></trkpt><trkpt lat="43.6539117" lon="12.3546017"><ele>478.75</ele><time>2026-05-02T07:35:14.789Z</time></trkpt><trkpt lat="43.6538233" lon="12.354745"><ele>475.5</ele><time>2026-05-02T07:35:15.788Z</time></trkpt><trkpt lat="43.65373" lon="12.3548883"><ele>472.25</ele><time>2026-05-02T07:35:16.788Z</time></trkpt><trkpt lat="43.6536367" lon="12.35503"><ele>469.0</ele><time>2026-05-02T07:35:17.788Z</time></trkpt><trkpt lat="43.65355" lon="12.3551733"><ele>469.0</ele><time>2026-05-02T07:35:18.788Z</time></trkpt><trkpt lat="43.65346" lon="12.3553167"><ele>469.0</ele><time>2026-05-02T07:35:19.788Z</time></trkpt><trkpt lat="43.6533733" lon="12.3554517"><ele>469.0</ele><time>2026-05-02T07:35:20.791Z</time></trkpt><trkpt lat="43.6532867" lon="12.3555783"><ele>469.0</ele><time>2026-05-02T07:35:21.785Z</time></trkpt><trkpt lat="43.6532033" lon="12.3556967"><ele>464.4</ele><time>2026-05-02T07:35:22.789Z</time></trkpt><trkpt lat="43.65312" lon="12.3557883"><ele>459.79999999999995</ele><time>2026-05-02T07:35:23.789Z</time></trkpt><trkpt lat="43.6530267" lon="12.35585"><ele>455.20000000000005</ele><time>2026-05-02T07:35:24.787Z</time></trkpt><trkpt lat="43.65292" lon="12.3558867"><ele>450.6</ele><time>2026-05-02T07:35:25.788Z</time></trkpt><trkpt lat="43.6528067" lon="12.3558817"><ele>446.0</ele><time>2026-05-02T07:35:26.788Z</time></trkpt><trkpt lat="43.6526833" lon="12.35584"><ele>445.75</ele><time>2026-05-02T07:35:27.788Z</time></trkpt><trkpt lat="43.6525533" lon="12.3557817"><ele>445.5</ele><time>2026-05-02T07:35:28.789Z</time></trkpt><trkpt lat="43.652415" lon="12.35571"><ele>445.25</ele><time>2026-05-02T07:35:29.787Z</time></trkpt><trkpt lat="43.6522667" lon="12.3556367"><ele>445.0</ele><time>2026-05-02T07:35:30.786Z</time></trkpt><trkpt lat="43.652125" lon="12.3555633"><ele>445.75</ele><time>2026-05-02T07:35:31.786Z</time></trkpt><trkpt lat="43.6519917" lon="12.3554783"><ele>446.5</ele><time>2026-05-02T07:35:32.786Z</time></trkpt><trkpt lat="43.6518767" lon="12.3553783"><ele>447.25</ele><time>2026-05-02T07:35:33.788Z</time></trkpt><trkpt lat="43.6517583" lon="12.3552833"><ele>448.0</ele><time>2026-05-02T07:35:34.785Z</time></trkpt><trkpt lat="43.6516433" lon="12.3551967"><ele>448.0</ele><time>2026-05-02T07:35:35.786Z</time></trkpt><trkpt lat="43.6515233" lon="12.3551267"><ele>448.0</ele><time>2026-05-02T07:35:36.785Z</time></trkpt><trkpt lat="43.6514083" lon="12.3550667"><ele>448.0</ele><time>2026-05-02T07:35:37.785Z</time></trkpt><trkpt lat="43.651295" lon="12.3550233"><ele>448.0</ele><time>2026-05-02T07:35:38.786Z</time></trkpt><trkpt lat="43.6511917" lon="12.3549817"><ele>445.0</ele><time>2026-05-02T07:35:39.785Z</time></trkpt><trkpt lat="43.65109" lon="12.3549333"><ele>441.99999999999994</ele><time>2026-05-02T07:35:40.785Z</time></trkpt><trkpt lat="43.6510033" lon="12.3548517"><ele>438.99999999999994</ele><time>2026-05-02T07:35:41.785Z</time></trkpt><trkpt lat="43.6509383" lon="12.35474"><ele>436.0</ele><time>2026-05-02T07:35:42.785Z</time></trkpt><trkpt lat="43.650895" lon="12.3545967"><ele>433.0</ele><time>2026-05-02T07:35:43.785Z</time></trkpt><trkpt lat="43.6508733" lon="12.3544317"><ele>433.0</ele><time>2026-05-02T07:35:44.785Z</time></trkpt><trkpt lat="43.6508567" lon="12.354245"><ele>433.0</ele><time>2026-05-02T07:35:45.788Z</time></trkpt><trkpt lat="43.6508467" lon="12.3540433"><ele>433.0</ele><time>2026-05-02T07:35:46.785Z</time></trkpt><trkpt lat="43.6508383" lon="12.35384"><ele>433.0</ele><time>2026-05-02T07:35:47.785Z</time></trkpt><trkpt lat="43.6508267" lon="12.3536367"><ele>433.25</ele><time>2026-05-02T07:35:48.785Z</time></trkpt><trkpt lat="43.65081" lon="12.35344"><ele>433.5</ele><time>2026-05-02T07:35:49.789Z</time></trkpt><trkpt lat="43.6507917" lon="12.353245"><ele>433.75</ele><time>2026-05-02T07:35:50.788Z</time></trkpt><trkpt lat="43.65077" lon="12.35305"><ele>434.0</ele><time>2026-05-02T07:35:51.788Z</time></trkpt><trkpt lat="43.6507433" lon="12.3528467"><ele>434.0</ele><time>2026-05-02T07:35:52.788Z</time></trkpt><trkpt lat="43.6507133" lon="12.3526383"><ele>434.0</ele><time>2026-05-02T07:35:53.788Z</time></trkpt><trkpt lat="43.65068" lon="12.35243"><ele>434.0</ele><time>2026-05-02T07:35:54.788Z</time></trkpt><trkpt lat="43.6506533" lon="12.3522183"><ele>435.66666666666663</ele><time>2026-05-02T07:35:55.789Z</time></trkpt><trkpt lat="43.6506017" lon="12.3518233"><ele>437.33333333333337</ele><time>2026-05-02T07:35:57.788Z</time></trkpt><trkpt lat="43.6505767" lon="12.3516483"><ele>439.0</ele><time>2026-05-02T07:35:58.788Z</time></trkpt><trkpt lat="43.6505467" lon="12.351485"><ele>438.75</ele><time>2026-05-02T07:35:59.788Z</time></trkpt><trkpt lat="43.6505067" lon="12.35132"><ele>438.5</ele><time>2026-05-02T07:36:00.789Z</time></trkpt><trkpt lat="43.6504567" lon="12.3511533"><ele>438.25</ele><time>2026-05-02T07:36:01.789Z</time></trkpt><trkpt lat="43.6504" lon="12.350985"><ele>438.0</ele><time>2026-05-02T07:36:02.787Z</time></trkpt><trkpt lat="43.65034" lon="12.35081"><ele>433.5</ele><time>2026-05-02T07:36:03.786Z</time></trkpt><trkpt lat="43.65027" lon="12.3506417"><ele>429.0</ele><time>2026-05-02T07:36:04.786Z</time></trkpt><trkpt lat="43.6501967" lon="12.3504833"><ele>424.5</ele><time>2026-05-02T07:36:05.786Z</time></trkpt><trkpt lat="43.6501183" lon="12.3503367"><ele>420.0</ele><time>2026-05-02T07:36:06.789Z</time></trkpt><trkpt lat="43.650035" lon="12.3502017"><ele>420.0</ele><time>2026-05-02T07:36:07.787Z</time></trkpt><trkpt lat="43.6499483" lon="12.3500867"><ele>420.0</ele><time>2026-05-02T07:36:08.786Z</time></trkpt><trkpt lat="43.6498567" lon="12.3499967"><ele>420.0</ele><time>2026-05-02T07:36:09.786Z</time></trkpt><trkpt lat="43.6497583" lon="12.34993"><ele>420.0</ele><time>2026-05-02T07:36:10.787Z</time></trkpt><trkpt lat="43.649665" lon="12.3498733"><ele>420.0</ele><time>2026-05-02T07:36:11.788Z</time></trkpt><trkpt lat="43.649575" lon="12.349825"><ele>420.0</ele><time>2026-05-02T07:36:12.787Z</time></trkpt><trkpt lat="43.6494933" lon="12.349775"><ele>420.0</ele><time>2026-05-02T07:36:13.787Z</time></trkpt><trkpt lat="43.6494167" lon="12.3497167"><ele>420.0</ele><time>2026-05-02T07:36:14.786Z</time></trkpt><trkpt lat="43.6493483" lon="12.34964"><ele>420.0</ele><time>2026-05-02T07:36:15.788Z</time></trkpt><trkpt lat="43.6492967" lon="12.3495283"><ele>420.0</ele><time>2026-05-02T07:36:16.789Z</time></trkpt><trkpt lat="43.6492483" lon="12.3493883"><ele>418.25</ele><time>2026-05-02T07:36:17.785Z</time></trkpt><trkpt lat="43.6492" lon="12.3492333"><ele>416.5</ele><time>2026-05-02T07:36:18.785Z</time></trkpt><trkpt lat="43.64915" lon="12.3490583"><ele>414.75</ele><time>2026-05-02T07:36:19.785Z</time></trkpt><trkpt lat="43.6491017" lon="12.34887"><ele>413.0</ele><time>2026-05-02T07:36:20.785Z</time></trkpt><trkpt lat="43.64905" lon="12.348675"><ele>413.0</ele><time>2026-05-02T07:36:21.789Z</time></trkpt><trkpt lat="43.6489933" lon="12.3484833"><ele>413.0</ele><time>2026-05-02T07:36:22.788Z</time></trkpt><trkpt lat="43.648935" lon="12.3482967"><ele>413.0</ele><time>2026-05-02T07:36:23.789Z</time></trkpt><trkpt lat="43.6488833" lon="12.3481117"><ele>413.0</ele><time>2026-05-02T07:36:24.788Z</time></trkpt><trkpt lat="43.64884" lon="12.3479217"><ele>414.66666666666663</ele><time>2026-05-02T07:36:25.788Z</time></trkpt><trkpt lat="43.6488067" lon="12.3477217"><ele>416.33333333333337</ele><time>2026-05-02T07:36:26.788Z</time></trkpt><trkpt lat="43.6487867" lon="12.347515"><ele>418.0</ele><time>2026-05-02T07:36:27.788Z</time></trkpt><trkpt lat="43.6487717" lon="12.3473083"><ele>420.0</ele><time>2026-05-02T07:36:28.789Z</time></trkpt><trkpt lat="43.64876" lon="12.3471017"><ele>422.0</ele><time>2026-05-02T07:36:29.789Z</time></trkpt><trkpt lat="43.6487433" lon="12.3468933"><ele>424.0</ele><time>2026-05-02T07:36:30.789Z</time></trkpt><trkpt lat="43.64872" lon="12.346685"><ele>424.0</ele><time>2026-05-02T07:36:31.788Z</time></trkpt><trkpt lat="43.6486917" lon="12.3464967"><ele>424.0</ele><time>2026-05-02T07:36:32.789Z</time></trkpt><trkpt lat="43.6486683" lon="12.3463283"><ele>424.0</ele><time>2026-05-02T07:36:33.788Z</time></trkpt><trkpt lat="43.6486483" lon="12.3461767"><ele>424.0</ele><time>2026-05-02T07:36:34.789Z</time></trkpt><trkpt lat="43.648635" lon="12.3460417"><ele>423.4</ele><time>2026-05-02T07:36:35.788Z</time></trkpt><trkpt lat="43.6486233" lon="12.3459133"><ele>422.79999999999995</ele><time>2026-05-02T07:36:36.788Z</time></trkpt><trkpt lat="43.648615" lon="12.3457783"><ele>422.20000000000005</ele><time>2026-05-02T07:36:37.786Z</time></trkpt><trkpt lat="43.648615" lon="12.3456383"><ele>421.6</ele><time>2026-05-02T07:36:38.786Z</time></trkpt><trkpt lat="43.6486283" lon="12.34549"><ele>421.0</ele><time>2026-05-02T07:36:39.785Z</time></trkpt><trkpt lat="43.64865" lon="12.3453417"><ele>421.0</ele><time>2026-05-02T07:36:40.787Z</time></trkpt><trkpt lat="43.6486733" lon="12.3452017"><ele>421.0</ele><time>2026-05-02T07:36:41.787Z</time></trkpt><trkpt lat="43.6486883" lon="12.3450717"><ele>421.0</ele><time>2026-05-02T07:36:42.786Z</time></trkpt><trkpt lat="43.6486767" lon="12.344955"><ele>421.0</ele><time>2026-05-02T07:36:43.787Z</time></trkpt><trkpt lat="43.6486417" lon="12.3448433"><ele>421.0</ele><time>2026-05-02T07:36:44.786Z</time></trkpt><trkpt lat="43.64857" lon="12.3447483"><ele>416.75</ele><time>2026-05-02T07:36:45.785Z</time></trkpt><trkpt lat="43.6484767" lon="12.3446733"><ele>412.5</ele><time>2026-05-02T07:36:46.786Z</time></trkpt><trkpt lat="43.6483667" lon="12.3446083"><ele>408.25</ele><time>2026-05-02T07:36:47.787Z</time></trkpt><trkpt lat="43.6482567" lon="12.3445433"><ele>404.0</ele><time>2026-05-02T07:36:48.785Z</time></trkpt><trkpt lat="43.6481433" lon="12.3444783"><ele>404.0</ele><time>2026-05-02T07:36:49.786Z</time></trkpt><trkpt lat="43.64803" lon="12.34442"><ele>404.0</ele><time>2026-05-02T07:36:50.786Z</time></trkpt><trkpt lat="43.6479217" lon="12.3443683"><ele>404.0</ele><time>2026-05-02T07:36:51.786Z</time></trkpt><trkpt lat="43.647825" lon="12.34432"><ele>404.0</ele><time>2026-05-02T07:36:52.787Z</time></trkpt><trkpt lat="43.6477433" lon="12.3442733"><ele>404.0</ele><time>2026-05-02T07:36:53.789Z</time></trkpt><trkpt lat="43.6476767" lon="12.3442233"><ele>404.99999999999994</ele><time>2026-05-02T07:36:54.789Z</time></trkpt><trkpt lat="43.6476233" lon="12.3441717"><ele>406.0</ele><time>2026-05-02T07:36:55.789Z</time></trkpt><trkpt lat="43.6475817" lon="12.3440567"><ele>407.0</ele><time>2026-05-02T07:36:57.789Z</time></trkpt><trkpt lat="43.6476083" lon="12.3439717"><ele>408.0</ele><time>2026-05-02T07:36:58.788Z</time></trkpt><trkpt lat="43.64765" lon="12.3438667"><ele>408.99999999999994</ele><time>2026-05-02T07:36:59.789Z</time></trkpt><trkpt lat="43.6476917" lon="12.3437433"><ele>410.0</ele><time>2026-05-02T07:37:00.788Z</time></trkpt><trkpt lat="43.6477317" lon="12.3436017"><ele>410.0</ele><time>2026-05-02T07:37:01.788Z</time></trkpt><trkpt lat="43.647765" lon="12.3434433"><ele>410.0</ele><time>2026-05-02T07:37:02.787Z</time></trkpt><trkpt lat="43.647785" lon="12.3432783"><ele>410.0</ele><time>2026-05-02T07:37:03.786Z</time></trkpt><trkpt lat="43.6477917" lon="12.3430967"><ele>410.0</ele><time>2026-05-02T07:37:04.789Z</time></trkpt><trkpt lat="43.6477867" lon="12.3429033"><ele>410.0</ele><time>2026-05-02T07:37:05.789Z</time></trkpt><trkpt lat="43.6477783" lon="12.342715"><ele>410.0</ele><time>2026-05-02T07:37:06.785Z</time></trkpt><trkpt lat="43.6477683" lon="12.34254"><ele>410.0</ele><time>2026-05-02T07:37:07.786Z</time></trkpt><trkpt lat="43.6477583" lon="12.3423783"><ele>410.0</ele><time>2026-05-02T07:37:08.785Z</time></trkpt><trkpt lat="43.6477483" lon="12.34224"><ele>409.4</ele><time>2026-05-02T07:37:09.786Z</time></trkpt><trkpt lat="43.647735" lon="12.3421317"><ele>408.8</ele><time>2026-05-02T07:37:10.786Z</time></trkpt><trkpt lat="43.6476933" lon="12.3420083"><ele>408.20000000000005</ele><time>2026-05-02T07:37:12.786Z</time></trkpt><trkpt lat="43.6475783" lon="12.3420583"><ele>407.6</ele><time>2026-05-02T07:37:14.785Z</time></trkpt><trkpt lat="43.6474967" lon="12.3421183"><ele>407.0</ele><time>2026-05-02T07:37:15.786Z</time></trkpt><trkpt lat="43.6474117" lon="12.3421717"><ele>407.6</ele><time>2026-05-02T07:37:16.787Z</time></trkpt><trkpt lat="43.6473233" lon="12.3422183"><ele>408.20000000000005</ele><time>2026-05-02T07:37:17.788Z</time></trkpt><trkpt lat="43.6472283" lon="12.3422667"><ele>408.8</ele><time>2026-05-02T07:37:18.788Z</time></trkpt><trkpt lat="43.647125" lon="12.3423167"><ele>409.4</ele><time>2026-05-02T07:37:19.79Z</time></trkpt><trkpt lat="43.64702" lon="12.34237"><ele>410.0</ele><time>2026-05-02T07:37:20.789Z</time></trkpt><trkpt lat="43.6469133" lon="12.3424233"><ele>410.6</ele><time>2026-05-02T07:37:21.788Z</time></trkpt><trkpt lat="43.64681" lon="12.3424783"><ele>411.2</ele><time>2026-05-02T07:37:22.788Z</time></trkpt><trkpt lat="43.6467183" lon="12.3425267"><ele>411.79999999999995</ele><time>2026-05-02T07:37:23.79Z</time></trkpt><trkpt lat="43.646635" lon="12.3425767"><ele>412.4</ele><time>2026-05-02T07:37:24.789Z</time></trkpt><trkpt lat="43.6465517" lon="12.342635"><ele>413.0</ele><time>2026-05-02T07:37:25.789Z</time></trkpt><trkpt lat="43.6464683" lon="12.3426967"><ele>413.0</ele><time>2026-05-02T07:37:26.789Z</time></trkpt><trkpt lat="43.6463817" lon="12.3427633"><ele>413.0</ele><time>2026-05-02T07:37:27.786Z</time></trkpt><trkpt lat="43.6463017" lon="12.3428483"><ele>413.0</ele><time>2026-05-02T07:37:28.786Z</time></trkpt><trkpt lat="43.6462367" lon="12.3429567"><ele>413.0</ele><time>2026-05-02T07:37:29.786Z</time></trkpt><trkpt lat="43.6461833" lon="12.3430933"><ele>413.0</ele><time>2026-05-02T07:37:30.787Z</time></trkpt><trkpt lat="43.64614" lon="12.3432317"><ele>414.59999999999997</ele><time>2026-05-02T07:37:31.786Z</time></trkpt><trkpt lat="43.6461017" lon="12.343365"><ele>416.2</ele><time>2026-05-02T07:37:32.786Z</time></trkpt><trkpt lat="43.64606" lon="12.3434833"><ele>417.8</ele><time>2026-05-02T07:37:33.786Z</time></trkpt><trkpt lat="43.6460067" lon="12.3435817"><ele>419.4</ele><time>2026-05-02T07:37:34.787Z</time></trkpt><trkpt lat="43.6459383" lon="12.3436567"><ele>421.0</ele><time>2026-05-02T07:37:35.788Z</time></trkpt><trkpt lat="43.645865" lon="12.3437083"><ele>421.0</ele><time>2026-05-02T07:37:36.787Z</time></trkpt><trkpt lat="43.6457817" lon="12.3437183"><ele>421.0</ele><time>2026-05-02T07:37:37.786Z</time></trkpt><trkpt lat="43.645705" lon="12.34368"><ele>421.0</ele><time>2026-05-02T07:37:38.787Z</time></trkpt><trkpt lat="43.6456433" lon="12.3435867"><ele>421.0</ele><time>2026-05-02T07:37:39.787Z</time></trkpt><trkpt lat="43.6455883" lon="12.34349"><ele>421.0</ele><time>2026-05-02T07:37:40.787Z</time></trkpt><trkpt lat="43.6455567" lon="12.34333"><ele>421.0</ele><time>2026-05-02T07:37:41.787Z</time></trkpt><trkpt lat="43.6455167" lon="12.3431667"><ele>421.0</ele><time>2026-05-02T07:37:42.786Z</time></trkpt><trkpt lat="43.6454683" lon="12.343005"><ele>421.0</ele><time>2026-05-02T07:37:43.785Z</time></trkpt><trkpt lat="43.6454067" lon="12.3428533"><ele>421.0</ele><time>2026-05-02T07:37:44.785Z</time></trkpt><trkpt lat="43.6453367" lon="12.3427083"><ele>426.0</ele><time>2026-05-02T07:37:45.786Z</time></trkpt><trkpt lat="43.6452717" lon="12.342555"><ele>431.0</ele><time>2026-05-02T07:37:46.787Z</time></trkpt><trkpt lat="43.645215" lon="12.3423933"><ele>436.0</ele><time>2026-05-02T07:37:47.787Z</time></trkpt><trkpt lat="43.6451717" lon="12.342225"><ele>441.0</ele><time>2026-05-02T07:37:48.786Z</time></trkpt><trkpt lat="43.6451433" lon="12.34205"><ele>441.25</ele><time>2026-05-02T07:37:49.786Z</time></trkpt><trkpt lat="43.6451217" lon="12.341875"><ele>441.5</ele><time>2026-05-02T07:37:50.787Z</time></trkpt><trkpt lat="43.6451033" lon="12.341695"><ele>441.75</ele><time>2026-05-02T07:37:51.786Z</time></trkpt><trkpt lat="43.64508" lon="12.34151"><ele>442.0</ele><time>2026-05-02T07:37:52.789Z</time></trkpt><trkpt lat="43.6450467" lon="12.3413267"><ele>440.5</ele><time>2026-05-02T07:37:53.787Z</time></trkpt><trkpt lat="43.6450117" lon="12.34115"><ele>439.0</ele><time>2026-05-02T07:37:54.789Z</time></trkpt><trkpt lat="43.6449683" lon="12.3409767"><ele>437.5</ele><time>2026-05-02T07:37:55.789Z</time></trkpt><trkpt lat="43.644925" lon="12.3408117"><ele>436.0</ele><time>2026-05-02T07:37:56.788Z</time></trkpt><trkpt lat="43.6448733" lon="12.340655"><ele>434.25</ele><time>2026-05-02T07:37:57.785Z</time></trkpt><trkpt lat="43.6448167" lon="12.3405017"><ele>432.5</ele><time>2026-05-02T07:37:58.786Z</time></trkpt><trkpt lat="43.6447633" lon="12.3403467"><ele>430.75</ele><time>2026-05-02T07:37:59.786Z</time></trkpt><trkpt lat="43.6447017" lon="12.3402"><ele>429.0</ele><time>2026-05-02T07:38:00.789Z</time></trkpt><trkpt lat="43.6446283" lon="12.3400633"><ele>429.0</ele><time>2026-05-02T07:38:01.787Z</time></trkpt><trkpt lat="43.6445517" lon="12.33994"><ele>429.0</ele><time>2026-05-02T07:38:02.789Z</time></trkpt><trkpt lat="43.6444733" lon="12.3398383"><ele>429.0</ele><time>2026-05-02T07:38:03.786Z</time></trkpt><trkpt lat="43.64438" lon="12.3397583"><ele>429.0</ele><time>2026-05-02T07:38:04.786Z</time></trkpt><trkpt lat="43.64427" lon="12.339695"><ele>431.75</ele><time>2026-05-02T07:38:05.786Z</time></trkpt><trkpt lat="43.6441533" lon="12.339645"><ele>434.5</ele><time>2026-05-02T07:38:06.786Z</time></trkpt><trkpt lat="43.6440267" lon="12.3396067"><ele>437.25</ele><time>2026-05-02T07:38:07.789Z</time></trkpt><trkpt lat="43.6438933" lon="12.3395717"><ele>440.0</ele><time>2026-05-02T07:38:08.789Z</time></trkpt><trkpt lat="43.64376" lon="12.3395467"><ele>442.0</ele><time>2026-05-02T07:38:09.789Z</time></trkpt><trkpt lat="43.6436233" lon="12.3395217"><ele>444.0</ele><time>2026-05-02T07:38:10.785Z</time></trkpt><trkpt lat="43.6434833" lon="12.3394983"><ele>446.0</ele><time>2026-05-02T07:38:11.79Z</time></trkpt><trkpt lat="43.6433417" lon="12.339475"><ele>448.0</ele><time>2026-05-02T07:38:12.788Z</time></trkpt><trkpt lat="43.6431967" lon="12.33945"><ele>448.0</ele><time>2026-05-02T07:38:13.789Z</time></trkpt><trkpt lat="43.6430517" lon="12.3394283"><ele>448.0</ele><time>2026-05-02T07:38:14.786Z</time></trkpt><trkpt lat="43.6429067" lon="12.3394117"><ele>448.0</ele><time>2026-05-02T07:38:15.787Z</time></trkpt><trkpt lat="43.6427617" lon="12.339395"><ele>448.0</ele><time>2026-05-02T07:38:16.788Z</time></trkpt><trkpt lat="43.6426183" lon="12.3393767"><ele>450.25</ele><time>2026-05-02T07:38:17.79Z</time></trkpt><trkpt lat="43.6424883" lon="12.3393517"><ele>452.5</ele><time>2026-05-02T07:38:18.788Z</time></trkpt><trkpt lat="43.6423667" lon="12.33932"><ele>454.75</ele><time>2026-05-02T07:38:19.788Z</time></trkpt><trkpt lat="43.642245" lon="12.339275"><ele>457.0</ele><time>2026-05-02T07:38:20.789Z</time></trkpt><trkpt lat="43.6421233" lon="12.3392167"><ele>457.0</ele><time>2026-05-02T07:38:21.79Z</time></trkpt><trkpt lat="43.6420067" lon="12.3391567"><ele>457.0</ele><time>2026-05-02T07:38:22.786Z</time></trkpt><trkpt lat="43.6418933" lon="12.3391033"><ele>457.0</ele><time>2026-05-02T07:38:23.788Z</time></trkpt><trkpt lat="43.6417783" lon="12.3390433"><ele>457.0</ele><time>2026-05-02T07:38:24.789Z</time></trkpt><trkpt lat="43.641665" lon="12.338985"><ele>456.0</ele><time>2026-05-02T07:38:25.786Z</time></trkpt><trkpt lat="43.641545" lon="12.3389317"><ele>455.0</ele><time>2026-05-02T07:38:26.789Z</time></trkpt><trkpt lat="43.6414183" lon="12.33888"><ele>454.0</ele><time>2026-05-02T07:38:27.785Z</time></trkpt><trkpt lat="43.6412933" lon="12.3388233"><ele>453.0</ele><time>2026-05-02T07:38:28.786Z</time></trkpt><trkpt lat="43.641165" lon="12.338765"><ele>455.5</ele><time>2026-05-02T07:38:29.786Z</time></trkpt><trkpt lat="43.6410417" lon="12.3386983"><ele>458.0</ele><time>2026-05-02T07:38:30.786Z</time></trkpt><trkpt lat="43.640915" lon="12.338635"><ele>460.5</ele><time>2026-05-02T07:38:31.786Z</time></trkpt><trkpt lat="43.6407917" lon="12.338575"><ele>463.0</ele><time>2026-05-02T07:38:32.786Z</time></trkpt><trkpt lat="43.6406667" lon="12.33852"><ele>463.0</ele><time>2026-05-02T07:38:33.786Z</time></trkpt><trkpt lat="43.6405383" lon="12.3384783"><ele>463.0</ele><time>2026-05-02T07:38:34.789Z</time></trkpt><trkpt lat="43.6404083" lon="12.3384433"><ele>463.0</ele><time>2026-05-02T07:38:35.786Z</time></trkpt><trkpt lat="43.6402767" lon="12.338415"><ele>463.0</ele><time>2026-05-02T07:38:36.786Z</time></trkpt><trkpt lat="43.6401417" lon="12.3383917"><ele>465.0</ele><time>2026-05-02T07:38:37.786Z</time></trkpt><trkpt lat="43.6400117" lon="12.3383733"><ele>467.0</ele><time>2026-05-02T07:38:38.789Z</time></trkpt><trkpt lat="43.6398767" lon="12.33836"><ele>469.0</ele><time>2026-05-02T07:38:39.788Z</time></trkpt><trkpt lat="43.6397417" lon="12.3383433"><ele>471.0</ele><time>2026-05-02T07:38:40.787Z</time></trkpt><trkpt lat="43.6396033" lon="12.3383383"><ele>471.0</ele><time>2026-05-02T07:38:41.789Z</time></trkpt><trkpt lat="43.6394683" lon="12.3383367"><ele>471.0</ele><time>2026-05-02T07:38:42.789Z</time></trkpt><trkpt lat="43.639335" lon="12.33835"><ele>471.0</ele><time>2026-05-02T07:38:43.787Z</time></trkpt><trkpt lat="43.6392033" lon="12.3383767"><ele>471.0</ele><time>2026-05-02T07:38:44.788Z</time></trkpt><trkpt lat="43.6390717" lon="12.3384183"><ele>473.0</ele><time>2026-05-02T07:38:45.79Z</time></trkpt><trkpt lat="43.6389383" lon="12.3384667"><ele>475.0</ele><time>2026-05-02T07:38:46.789Z</time></trkpt><trkpt lat="43.6388083" lon="12.3385133"><ele>477.0</ele><time>2026-05-02T07:38:47.789Z</time></trkpt><trkpt lat="43.6386817" lon="12.33856"><ele>479.0</ele><time>2026-05-02T07:38:48.788Z</time></trkpt><trkpt lat="43.638555" lon="12.338605"><ele>480.0</ele><time>2026-05-02T07:38:49.789Z</time></trkpt><trkpt lat="43.6384283" lon="12.3386383"><ele>481.0</ele><time>2026-05-02T07:38:50.789Z</time></trkpt><trkpt lat="43.6383033" lon="12.3386517"><ele>482.0</ele><time>2026-05-02T07:38:51.789Z</time></trkpt><trkpt lat="43.6381867" lon="12.338645"><ele>483.0</ele><time>2026-05-02T07:38:52.788Z</time></trkpt><trkpt lat="43.6380817" lon="12.3386283"><ele>483.0</ele><time>2026-05-02T07:38:53.789Z</time></trkpt><trkpt lat="43.6379933" lon="12.33862"><ele>483.0</ele><time>2026-05-02T07:38:54.789Z</time></trkpt><trkpt lat="43.6379217" lon="12.3386383"><ele>483.0</ele><time>2026-05-02T07:38:55.789Z</time></trkpt><trkpt lat="43.6378617" lon="12.3386867"><ele>483.0</ele><time>2026-05-02T07:38:56.786Z</time></trkpt><trkpt lat="43.6378217" lon="12.3387683"><ele>483.0</ele><time>2026-05-02T07:38:57.786Z</time></trkpt><trkpt lat="43.6378017" lon="12.338875"><ele>483.0</ele><time>2026-05-02T07:38:58.787Z</time></trkpt><trkpt lat="43.6378067" lon="12.3389767"><ele>485.4</ele><time>2026-05-02T07:38:59.787Z</time></trkpt><trkpt lat="43.6378483" lon="12.3390667"><ele>487.79999999999995</ele><time>2026-05-02T07:39:00.786Z</time></trkpt><trkpt lat="43.6379217" lon="12.3391317"><ele>490.2</ele><time>2026-05-02T07:39:01.789Z</time></trkpt><trkpt lat="43.6380217" lon="12.339175"><ele>492.6</ele><time>2026-05-02T07:39:02.787Z</time></trkpt><trkpt lat="43.63814" lon="12.3392033"><ele>495.0</ele><time>2026-05-02T07:39:03.786Z</time></trkpt><trkpt lat="43.63826" lon="12.3392367"><ele>495.0</ele><time>2026-05-02T07:39:04.787Z</time></trkpt><trkpt lat="43.6383867" lon="12.3392667"><ele>495.0</ele><time>2026-05-02T07:39:05.787Z</time></trkpt><trkpt lat="43.6385167" lon="12.339295"><ele>495.0</ele><time>2026-05-02T07:39:06.786Z</time></trkpt><trkpt lat="43.6386467" lon="12.3393267"><ele>495.0</ele><time>2026-05-02T07:39:07.786Z</time></trkpt><trkpt lat="43.6387783" lon="12.3393633"><ele>494.4</ele><time>2026-05-02T07:39:08.789Z</time></trkpt><trkpt lat="43.638905" lon="12.3394033"><ele>493.8</ele><time>2026-05-02T07:39:09.786Z</time></trkpt><trkpt lat="43.6390183" lon="12.3394517"><ele>493.20000000000005</ele><time>2026-05-02T07:39:10.786Z</time></trkpt><trkpt lat="43.63911" lon="12.3395167"><ele>492.6</ele><time>2026-05-02T07:39:11.788Z</time></trkpt><trkpt lat="43.6391817" lon="12.3395933"><ele>492.0</ele><time>2026-05-02T07:39:12.785Z</time></trkpt><trkpt lat="43.63923" lon="12.3396733"><ele>494.28571428571433</ele><time>2026-05-02T07:39:13.786Z</time></trkpt><trkpt lat="43.6392533" lon="12.3397667"><ele>496.57142857142856</ele><time>2026-05-02T07:39:14.786Z</time></trkpt><trkpt lat="43.63924" lon="12.3398583"><ele>498.8571428571429</ele><time>2026-05-02T07:39:15.79Z</time></trkpt><trkpt lat="43.6392133" lon="12.3399417"><ele>501.14285714285717</ele><time>2026-05-02T07:39:16.789Z</time></trkpt><trkpt lat="43.639165" lon="12.3400017"><ele>503.42857142857144</ele><time>2026-05-02T07:39:17.79Z</time></trkpt><trkpt lat="43.6391" lon="12.3400333"><ele>505.7142857142857</ele><time>2026-05-02T07:39:18.789Z</time></trkpt><trkpt lat="43.6389967" lon="12.34"><ele>508.0</ele><time>2026-05-02T07:39:19.79Z</time></trkpt><trkpt lat="43.638875" lon="12.33993"><ele>508.0</ele><time>2026-05-02T07:39:20.79Z</time></trkpt><trkpt lat="43.638755" lon="12.339875"><ele>508.0</ele><time>2026-05-02T07:39:21.79Z</time></trkpt><trkpt lat="43.6386217" lon="12.3398217"><ele>508.0</ele><time>2026-05-02T07:39:22.789Z</time></trkpt><trkpt lat="43.6384917" lon="12.339805"><ele>508.0</ele><time>2026-05-02T07:39:23.789Z</time></trkpt><trkpt lat="43.638365" lon="12.3398067"><ele>508.75</ele><time>2026-05-02T07:39:24.789Z</time></trkpt><trkpt lat="43.6382433" lon="12.339845"><ele>509.5</ele><time>2026-05-02T07:39:25.79Z</time></trkpt><trkpt lat="43.6381267" lon="12.3399033"><ele>510.25</ele><time>2026-05-02T07:39:26.786Z</time></trkpt><trkpt lat="43.6380117" lon="12.3399683"><ele>511.0</ele><time>2026-05-02T07:39:27.785Z</time></trkpt><trkpt lat="43.6379" lon="12.3400383"><ele>513.0</ele><time>2026-05-02T07:39:28.786Z</time></trkpt><trkpt lat="43.6377883" lon="12.3400967"><ele>515.0</ele><time>2026-05-02T07:39:29.788Z</time></trkpt><trkpt lat="43.637675" lon="12.3401217"><ele>517.0</ele><time>2026-05-02T07:39:30.787Z</time></trkpt><trkpt lat="43.6375617" lon="12.3401183"><ele>519.0</ele><time>2026-05-02T07:39:31.786Z</time></trkpt><trkpt lat="43.637445" lon="12.340085"><ele>519.0</ele><time>2026-05-02T07:39:32.786Z</time></trkpt><trkpt lat="43.6373267" lon="12.3400283"><ele>519.0</ele><time>2026-05-02T07:39:33.789Z</time></trkpt><trkpt lat="43.6372183" lon="12.33994"><ele>519.0</ele><time>2026-05-02T07:39:34.789Z</time></trkpt><trkpt lat="43.6371217" lon="12.3398283"><ele>519.0</ele><time>2026-05-02T07:39:35.787Z</time></trkpt><trkpt lat="43.6370383" lon="12.3396967"><ele>520.5</ele><time>2026-05-02T07:39:36.789Z</time></trkpt><trkpt lat="43.63696" lon="12.3395617"><ele>522.0</ele><time>2026-05-02T07:39:37.789Z</time></trkpt><trkpt lat="43.63687" lon="12.3394367"><ele>523.5</ele><time>2026-05-02T07:39:38.789Z</time></trkpt><trkpt lat="43.63677" lon="12.3393283"><ele>525.0</ele><time>2026-05-02T07:39:39.791Z</time></trkpt><trkpt lat="43.6366667" lon="12.3392467"><ele>525.0</ele><time>2026-05-02T07:39:40.789Z</time></trkpt><trkpt lat="43.6365583" lon="12.3391867"><ele>525.0</ele><time>2026-05-02T07:39:41.79Z</time></trkpt><trkpt lat="43.6364417" lon="12.339155"><ele>525.0</ele><time>2026-05-02T07:39:42.789Z</time></trkpt><trkpt lat="43.636325" lon="12.3391383"><ele>525.0</ele><time>2026-05-02T07:39:43.789Z</time></trkpt><trkpt lat="43.6362083" lon="12.3391233"><ele>527.25</ele><time>2026-05-02T07:39:44.789Z</time></trkpt><trkpt lat="43.6360883" lon="12.3391083"><ele>529.5</ele><time>2026-05-02T07:39:45.79Z</time></trkpt><trkpt lat="43.6359733" lon="12.3390933"><ele>531.75</ele><time>2026-05-02T07:39:46.789Z</time></trkpt><trkpt lat="43.6358533" lon="12.339075"><ele>534.0</ele><time>2026-05-02T07:39:47.786Z</time></trkpt><trkpt lat="43.6357333" lon="12.3390517"><ele>534.0</ele><time>2026-05-02T07:39:48.787Z</time></trkpt><trkpt lat="43.63561" lon="12.3390233"><ele>534.0</ele><time>2026-05-02T07:39:49.786Z</time></trkpt><trkpt lat="43.6354867" lon="12.3389883"><ele>534.0</ele><time>2026-05-02T07:39:50.789Z</time></trkpt><trkpt lat="43.63537" lon="12.3389483"><ele>534.0</ele><time>2026-05-02T07:39:51.789Z</time></trkpt><trkpt lat="43.635265" lon="12.3389067"><ele>534.2</ele><time>2026-05-02T07:39:52.788Z</time></trkpt><trkpt lat="43.6351633" lon="12.3388633"><ele>534.4</ele><time>2026-05-02T07:39:53.788Z</time></trkpt><trkpt lat="43.6350617" lon="12.338825"><ele>534.6</ele><time>2026-05-02T07:39:54.785Z</time></trkpt><trkpt lat="43.6349633" lon="12.3388"><ele>534.8</ele><time>2026-05-02T07:39:55.788Z</time></trkpt><trkpt lat="43.63488" lon="12.3388033"><ele>535.0</ele><time>2026-05-02T07:39:56.786Z</time></trkpt><trkpt lat="43.6348167" lon="12.3388283"><ele>536.4</ele><time>2026-05-02T07:39:57.786Z</time></trkpt><trkpt lat="43.6347383" lon="12.3389367"><ele>537.8</ele><time>2026-05-02T07:39:59.785Z</time></trkpt><trkpt lat="43.6347433" lon="12.339095"><ele>539.2</ele><time>2026-05-02T07:40:01.785Z</time></trkpt><trkpt lat="43.63479" lon="12.339175"><ele>540.6</ele><time>2026-05-02T07:40:02.787Z</time></trkpt><trkpt lat="43.6348483" lon="12.33925"><ele>542.0</ele><time>2026-05-02T07:40:03.788Z</time></trkpt><trkpt lat="43.63493" lon="12.3393083"><ele>542.0</ele><time>2026-05-02T07:40:04.788Z</time></trkpt><trkpt lat="43.6350317" lon="12.3393517"><ele>542.0</ele><time>2026-05-02T07:40:05.788Z</time></trkpt><trkpt lat="43.635125" lon="12.33941"><ele>542.0</ele><time>2026-05-02T07:40:06.789Z</time></trkpt><trkpt lat="43.6352283" lon="12.3394617"><ele>542.0</ele><time>2026-05-02T07:40:07.789Z</time></trkpt><trkpt lat="43.6353267" lon="12.3395133"><ele>542.0</ele><time>2026-05-02T07:40:08.785Z</time></trkpt><trkpt lat="43.6354217" lon="12.3395567"><ele>540.4</ele><time>2026-05-02T07:40:09.786Z</time></trkpt><trkpt lat="43.635505" lon="12.3396017"><ele>538.8000000000001</ele><time>2026-05-02T07:40:10.785Z</time></trkpt><trkpt lat="43.63558" lon="12.339655"><ele>537.2</ele><time>2026-05-02T07:40:11.789Z</time></trkpt><trkpt lat="43.63563" lon="12.33972"><ele>535.6</ele><time>2026-05-02T07:40:12.787Z</time></trkpt><trkpt lat="43.63566" lon="12.3398717"><ele>534.0</ele><time>2026-05-02T07:40:14.788Z</time></trkpt><trkpt lat="43.6355967" lon="12.3400017"><ele>538.0</ele><time>2026-05-02T07:40:16.788Z</time></trkpt><trkpt lat="43.6355283" lon="12.34004"><ele>542.0</ele><time>2026-05-02T07:40:17.787Z</time></trkpt><trkpt lat="43.6354467" lon="12.34004"><ele>546.0</ele><time>2026-05-02T07:40:18.788Z</time></trkpt><trkpt lat="43.6353567" lon="12.3400067"><ele>550.0</ele><time>2026-05-02T07:40:19.788Z</time></trkpt><trkpt lat="43.6352617" lon="12.3399533"><ele>554.0</ele><time>2026-05-02T07:40:20.788Z</time></trkpt><trkpt lat="43.6351633" lon="12.33991"><ele>555.25</ele><time>2026-05-02T07:40:21.789Z</time></trkpt><trkpt lat="43.6350517" lon="12.3398683"><ele>556.5</ele><time>2026-05-02T07:40:22.788Z</time></trkpt><trkpt lat="43.63494" lon="12.3398383"><ele>557.75</ele><time>2026-05-02T07:40:23.787Z</time></trkpt><trkpt lat="43.6348183" lon="12.3398267"><ele>559.0</ele><time>2026-05-02T07:40:24.786Z</time></trkpt><trkpt lat="43.6346883" lon="12.33984"><ele>559.0</ele><time>2026-05-02T07:40:25.788Z</time></trkpt><trkpt lat="43.6345567" lon="12.3398633"><ele>559.0</ele><time>2026-05-02T07:40:26.788Z</time></trkpt><trkpt lat="43.634425" lon="12.3399"><ele>559.0</ele><time>2026-05-02T07:40:27.788Z</time></trkpt><trkpt lat="43.6342983" lon="12.3399433"><ele>559.0</ele><time>2026-05-02T07:40:28.789Z</time></trkpt><trkpt lat="43.634175" lon="12.34"><ele>559.75</ele><time>2026-05-02T07:40:29.788Z</time></trkpt><trkpt lat="43.63406" lon="12.3400767"><ele>560.5</ele><time>2026-05-02T07:40:30.788Z</time></trkpt><trkpt lat="43.6339483" lon="12.34017"><ele>561.25</ele><time>2026-05-02T07:40:31.789Z</time></trkpt><trkpt lat="43.6338433" lon="12.3402667"><ele>562.0</ele><time>2026-05-02T07:40:32.788Z</time></trkpt><trkpt lat="43.6337483" lon="12.340375"><ele>562.0</ele><time>2026-05-02T07:40:33.785Z</time></trkpt><trkpt lat="43.63366" lon="12.3404933"><ele>562.0</ele><time>2026-05-02T07:40:34.789Z</time></trkpt><trkpt lat="43.633575" lon="12.340615"><ele>562.0</ele><time>2026-05-02T07:40:35.788Z</time></trkpt><trkpt lat="43.633495" lon="12.34074"><ele>562.0</ele><time>2026-05-02T07:40:36.789Z</time></trkpt><trkpt lat="43.6334233" lon="12.340875"><ele>563.6666666666667</ele><time>2026-05-02T07:40:37.788Z</time></trkpt><trkpt lat="43.6333683" lon="12.341"><ele>565.3333333333334</ele><time>2026-05-02T07:40:38.785Z</time></trkpt><trkpt lat="43.6333317" lon="12.34111"><ele>567.0</ele><time>2026-05-02T07:40:39.785Z</time></trkpt><trkpt lat="43.63332" lon="12.34122"><ele>568.6666666666666</ele><time>2026-05-02T07:40:40.79Z</time></trkpt><trkpt lat="43.6333283" lon="12.3413233"><ele>570.3333333333333</ele><time>2026-05-02T07:40:41.788Z</time></trkpt><trkpt lat="43.6333617" lon="12.3414117"><ele>572.0</ele><time>2026-05-02T07:40:42.789Z</time></trkpt><trkpt lat="43.6334183" lon="12.34149"><ele>574.4</ele><time>2026-05-02T07:40:43.788Z</time></trkpt><trkpt lat="43.633495" lon="12.3415417"><ele>576.8000000000001</ele><time>2026-05-02T07:40:44.791Z</time></trkpt><trkpt lat="43.6335867" lon="12.3415733"><ele>579.2</ele><time>2026-05-02T07:40:45.786Z</time></trkpt><trkpt lat="43.6337" lon="12.3415817"><ele>581.6</ele><time>2026-05-02T07:40:46.786Z</time></trkpt><trkpt lat="43.63382" lon="12.341585"><ele>584.0</ele><time>2026-05-02T07:40:47.788Z</time></trkpt><trkpt lat="43.63394" lon="12.3415883"><ele>584.5</ele><time>2026-05-02T07:40:48.788Z</time></trkpt><trkpt lat="43.6340683" lon="12.3415917"><ele>585.0</ele><time>2026-05-02T07:40:49.788Z</time></trkpt><trkpt lat="43.634205" lon="12.3415917"><ele>585.5</ele><time>2026-05-02T07:40:50.786Z</time></trkpt><trkpt lat="43.6343383" lon="12.3416083"><ele>586.0</ele><time>2026-05-02T07:40:51.788Z</time></trkpt><trkpt lat="43.6344733" lon="12.3416167"><ele>586.0</ele><time>2026-05-02T07:40:52.786Z</time></trkpt><trkpt lat="43.6346083" lon="12.3416367"><ele>586.0</ele><time>2026-05-02T07:40:53.785Z</time></trkpt><trkpt lat="43.63474" lon="12.3416717"><ele>586.0</ele><time>2026-05-02T07:40:54.791Z</time></trkpt><trkpt lat="43.634865" lon="12.341735"><ele>586.0</ele><time>2026-05-02T07:40:55.79Z</time></trkpt><trkpt lat="43.6349867" lon="12.3418133"><ele>586.0</ele><time>2026-05-02T07:40:56.788Z</time></trkpt><trkpt lat="43.6351117" lon="12.3418833"><ele>586.0</ele><time>2026-05-02T07:40:57.788Z</time></trkpt><trkpt lat="43.6352433" lon="12.3419333"><ele>586.0</ele><time>2026-05-02T07:40:58.789Z</time></trkpt><trkpt lat="43.635375" lon="12.341965"><ele>586.0</ele><time>2026-05-02T07:40:59.789Z</time></trkpt><trkpt lat="43.635505" lon="12.3419733"><ele>587.0</ele><time>2026-05-02T07:41:00.788Z</time></trkpt><trkpt lat="43.6356183" lon="12.34195"><ele>588.0</ele><time>2026-05-02T07:41:01.789Z</time></trkpt><trkpt lat="43.635715" lon="12.3419117"><ele>589.0</ele><time>2026-05-02T07:41:02.788Z</time></trkpt><trkpt lat="43.6358" lon="12.34189"><ele>590.0</ele><time>2026-05-02T07:41:03.786Z</time></trkpt><trkpt lat="43.635885" lon="12.3418933"><ele>591.0</ele><time>2026-05-02T07:41:04.786Z</time></trkpt><trkpt lat="43.635965" lon="12.3419267"><ele>591.0</ele><time>2026-05-02T07:41:05.787Z</time></trkpt><trkpt lat="43.6360183" lon="12.3419917"><ele>591.0</ele><time>2026-05-02T07:41:06.786Z</time></trkpt><trkpt lat="43.636025" lon="12.3421033"><ele>591.0</ele><time>2026-05-02T07:41:07.785Z</time></trkpt><trkpt lat="43.63602" lon="12.3422067"><ele>591.0</ele><time>2026-05-02T07:41:08.786Z</time></trkpt><trkpt lat="43.6359883" lon="12.3423167"><ele>591.0</ele><time>2026-05-02T07:41:09.788Z</time></trkpt><trkpt lat="43.635945" lon="12.3424217"><ele>591.0</ele><time>2026-05-02T07:41:10.788Z</time></trkpt><trkpt lat="43.6358467" lon="12.3425017"><ele>594.25</ele><time>2026-05-02T07:41:11.789Z</time></trkpt><trkpt lat="43.6357283" lon="12.3425817"><ele>597.5</ele><time>2026-05-02T07:41:12.788Z</time></trkpt><trkpt lat="43.6356133" lon="12.3426717"><ele>600.75</ele><time>2026-05-02T07:41:13.788Z</time></trkpt><trkpt lat="43.6355" lon="12.3427733"><ele>604.0</ele><time>2026-05-02T07:41:14.788Z</time></trkpt><trkpt lat="43.63539" lon="12.3428667"><ele>603.25</ele><time>2026-05-02T07:41:15.788Z</time></trkpt><trkpt lat="43.6352783" lon="12.342935"><ele>602.5</ele><time>2026-05-02T07:41:16.789Z</time></trkpt><trkpt lat="43.6351567" lon="12.3429683"><ele>601.75</ele><time>2026-05-02T07:41:17.79Z</time></trkpt><trkpt lat="43.6350267" lon="12.3429667"><ele>601.0</ele><time>2026-05-02T07:41:18.788Z</time></trkpt><trkpt lat="43.6348933" lon="12.3429667"><ele>601.0</ele><time>2026-05-02T07:41:19.789Z</time></trkpt><trkpt lat="43.6347633" lon="12.3429917"><ele>601.0</ele><time>2026-05-02T07:41:20.788Z</time></trkpt><trkpt lat="43.63465" lon="12.3430383"><ele>601.0</ele><time>2026-05-02T07:41:21.789Z</time></trkpt><trkpt lat="43.6345567" lon="12.3431117"><ele>601.0</ele><time>2026-05-02T07:41:22.788Z</time></trkpt><trkpt lat="43.634475" lon="12.3432133"><ele>602.75</ele><time>2026-05-02T07:41:23.785Z</time></trkpt><trkpt lat="43.6343983" lon="12.3433383"><ele>604.5</ele><time>2026-05-02T07:41:24.79Z</time></trkpt><trkpt lat="43.63433" lon="12.3434817"><ele>606.25</ele><time>2026-05-02T07:41:25.788Z</time></trkpt><trkpt lat="43.6342533" lon="12.3436317"><ele>608.0</ele><time>2026-05-02T07:41:26.789Z</time></trkpt><trkpt lat="43.6341717" lon="12.34377"><ele>611.0</ele><time>2026-05-02T07:41:27.785Z</time></trkpt><trkpt lat="43.6340883" lon="12.3438917"><ele>614.0</ele><time>2026-05-02T07:41:28.787Z</time></trkpt><trkpt lat="43.633995" lon="12.34399"><ele>617.0</ele><time>2026-05-02T07:41:29.786Z</time></trkpt><trkpt lat="43.63389" lon="12.3440517"><ele>620.0</ele><time>2026-05-02T07:41:30.788Z</time></trkpt><trkpt lat="43.6337733" lon="12.3440833"><ele>620.0</ele><time>2026-05-02T07:41:31.788Z</time></trkpt><trkpt lat="43.6336533" lon="12.3441017"><ele>620.0</ele><time>2026-05-02T07:41:32.788Z</time></trkpt><trkpt lat="43.6335467" lon="12.3441267"><ele>620.0</ele><time>2026-05-02T07:41:33.789Z</time></trkpt><trkpt lat="43.6334533" lon="12.3441633"><ele>620.0</ele><time>2026-05-02T07:41:34.788Z</time></trkpt><trkpt lat="43.6333733" lon="12.344235"><ele>620.0</ele><time>2026-05-02T07:41:35.789Z</time></trkpt><trkpt lat="43.6333117" lon="12.3443467"><ele>619.25</ele><time>2026-05-02T07:41:36.789Z</time></trkpt><trkpt lat="43.6332583" lon="12.3444833"><ele>618.5</ele><time>2026-05-02T07:41:37.789Z</time></trkpt><trkpt lat="43.6332" lon="12.3446283"><ele>617.75</ele><time>2026-05-02T07:41:38.789Z</time></trkpt><trkpt lat="43.6331317" lon="12.3447767"><ele>617.0</ele><time>2026-05-02T07:41:39.788Z</time></trkpt><trkpt lat="43.63305" lon="12.3449133"><ele>617.75</ele><time>2026-05-02T07:41:40.788Z</time></trkpt><trkpt lat="43.6329667" lon="12.34505"><ele>618.5</ele><time>2026-05-02T07:41:41.789Z</time></trkpt><trkpt lat="43.6328783" lon="12.3451867"><ele>619.25</ele><time>2026-05-02T07:41:42.788Z</time></trkpt><trkpt lat="43.6327867" lon="12.34533"><ele>620.0</ele><time>2026-05-02T07:41:43.789Z</time></trkpt><trkpt lat="43.6326933" lon="12.3454767"><ele>622.75</ele><time>2026-05-02T07:41:44.788Z</time></trkpt><trkpt lat="43.6326017" lon="12.345625"><ele>625.5</ele><time>2026-05-02T07:41:45.789Z</time></trkpt><trkpt lat="43.6325117" lon="12.3457683"><ele>628.25</ele><time>2026-05-02T07:41:46.788Z</time></trkpt><trkpt lat="43.6324217" lon="12.345915"><ele>631.0</ele><time>2026-05-02T07:41:47.789Z</time></trkpt><trkpt lat="43.6323317" lon="12.3460633"><ele>631.0</ele><time>2026-05-02T07:41:48.785Z</time></trkpt><trkpt lat="43.632245" lon="12.3462133"><ele>631.0</ele><time>2026-05-02T07:41:49.788Z</time></trkpt><trkpt lat="43.632165" lon="12.3463717"><ele>631.0</ele><time>2026-05-02T07:41:50.788Z</time></trkpt><trkpt lat="43.6320917" lon="12.3465417"><ele>631.0</ele><time>2026-05-02T07:41:51.788Z</time></trkpt><trkpt lat="43.6320367" lon="12.3467083"><ele>634.0</ele><time>2026-05-02T07:41:52.789Z</time></trkpt><trkpt lat="43.632005" lon="12.3468883"><ele>637.0</ele><time>2026-05-02T07:41:53.789Z</time></trkpt><trkpt lat="43.6319933" lon="12.3470717"><ele>640.0</ele><time>2026-05-02T07:41:54.788Z</time></trkpt><trkpt lat="43.632" lon="12.3472567"><ele>643.0</ele><time>2026-05-02T07:41:55.788Z</time></trkpt><trkpt lat="43.6320033" lon="12.3474383"><ele>643.0</ele><time>2026-05-02T07:41:56.789Z</time></trkpt><trkpt lat="43.631995" lon="12.347605"><ele>643.0</ele><time>2026-05-02T07:41:57.788Z</time></trkpt><trkpt lat="43.6319617" lon="12.3477667"><ele>643.0</ele><time>2026-05-02T07:41:58.789Z</time></trkpt><trkpt lat="43.6319083" lon="12.3479167"><ele>643.0</ele><time>2026-05-02T07:41:59.789Z</time></trkpt><trkpt lat="43.6318433" lon="12.348065"><ele>645.8</ele><time>2026-05-02T07:42:00.79Z</time></trkpt><trkpt lat="43.6317717" lon="12.3481933"><ele>648.5999999999999</ele><time>2026-05-02T07:42:01.789Z</time></trkpt><trkpt lat="43.6316917" lon="12.3482967"><ele>651.4000000000001</ele><time>2026-05-02T07:42:02.789Z</time></trkpt><trkpt lat="43.631605" lon="12.34838"><ele>654.2</ele><time>2026-05-02T07:42:03.79Z</time></trkpt><trkpt lat="43.63151" lon="12.348435"><ele>657.0</ele><time>2026-05-02T07:42:04.789Z</time></trkpt><trkpt lat="43.6314067" lon="12.3484517"><ele>657.0</ele><time>2026-05-02T07:42:05.789Z</time></trkpt><trkpt lat="43.631305" lon="12.34844"><ele>657.0</ele><time>2026-05-02T07:42:06.788Z</time></trkpt><trkpt lat="43.6312117" lon="12.34839"><ele>657.0</ele><time>2026-05-02T07:42:07.785Z</time></trkpt><trkpt lat="43.6311217" lon="12.3483283"><ele>657.0</ele><time>2026-05-02T07:42:08.79Z</time></trkpt><trkpt lat="43.6310367" lon="12.3482467"><ele>657.0</ele><time>2026-05-02T07:42:09.789Z</time></trkpt><trkpt lat="43.6309467" lon="12.3481583"><ele>658.5</ele><time>2026-05-02T07:42:10.785Z</time></trkpt><trkpt lat="43.6308467" lon="12.3480733"><ele>660.0</ele><time>2026-05-02T07:42:11.787Z</time></trkpt><trkpt lat="43.6307417" lon="12.3479967"><ele>661.5</ele><time>2026-05-02T07:42:12.785Z</time></trkpt><trkpt lat="43.63064" lon="12.347925"><ele>663.0</ele><time>2026-05-02T07:42:13.786Z</time></trkpt><trkpt lat="43.6305483" lon="12.3478617"><ele>662.0</ele><time>2026-05-02T07:42:14.786Z</time></trkpt><trkpt lat="43.6304583" lon="12.3478183"><ele>661.0</ele><time>2026-05-02T07:42:15.786Z</time></trkpt><trkpt lat="43.630365" lon="12.347805"><ele>660.0</ele><time>2026-05-02T07:42:16.788Z</time></trkpt><trkpt lat="43.6302633" lon="12.3478233"><ele>659.0</ele><time>2026-05-02T07:42:17.789Z</time></trkpt><trkpt lat="43.63016" lon="12.3478617"><ele>658.0</ele><time>2026-05-02T07:42:18.789Z</time></trkpt><trkpt lat="43.6300517" lon="12.3479133"><ele>658.0</ele><time>2026-05-02T07:42:19.788Z</time></trkpt><trkpt lat="43.6299417" lon="12.347965"><ele>658.0</ele><time>2026-05-02T07:42:20.788Z</time></trkpt><trkpt lat="43.62983" lon="12.34802"><ele>658.0</ele><time>2026-05-02T07:42:21.788Z</time></trkpt><trkpt lat="43.629715" lon="12.3480683"><ele>658.0</ele><time>2026-05-02T07:42:22.788Z</time></trkpt><trkpt lat="43.6296017" lon="12.3481067"><ele>660.0</ele><time>2026-05-02T07:42:23.789Z</time></trkpt><trkpt lat="43.6294933" lon="12.348155"><ele>662.0</ele><time>2026-05-02T07:42:24.789Z</time></trkpt><trkpt lat="43.6293917" lon="12.3482267"><ele>664.0</ele><time>2026-05-02T07:42:25.785Z</time></trkpt><trkpt lat="43.6292867" lon="12.3483133"><ele>666.0</ele><time>2026-05-02T07:42:26.789Z</time></trkpt><trkpt lat="43.629185" lon="12.3484083"><ele>666.0</ele><time>2026-05-02T07:42:27.788Z</time></trkpt><trkpt lat="43.62909" lon="12.3485167"><ele>666.0</ele><time>2026-05-02T07:42:28.789Z</time></trkpt><trkpt lat="43.629" lon="12.3486467"><ele>666.0</ele><time>2026-05-02T07:42:29.789Z</time></trkpt><trkpt lat="43.6289167" lon="12.3487883"><ele>666.0</ele><time>2026-05-02T07:42:30.788Z</time></trkpt><trkpt lat="43.62884" lon="12.34893"><ele>666.5</ele><time>2026-05-02T07:42:31.788Z</time></trkpt><trkpt lat="43.6287633" lon="12.349075"><ele>667.0</ele><time>2026-05-02T07:42:32.791Z</time></trkpt><trkpt lat="43.6286933" lon="12.3492217"><ele>667.5</ele><time>2026-05-02T07:42:33.789Z</time></trkpt><trkpt lat="43.6286383" lon="12.34937"><ele>668.0</ele><time>2026-05-02T07:42:34.789Z</time></trkpt><trkpt lat="43.6285967" lon="12.3495383"><ele>670.5</ele><time>2026-05-02T07:42:35.789Z</time></trkpt><trkpt lat="43.6285633" lon="12.349715"><ele>673.0</ele><time>2026-05-02T07:42:36.788Z</time></trkpt><trkpt lat="43.6285417" lon="12.3498917"><ele>675.5</ele><time>2026-05-02T07:42:37.788Z</time></trkpt><trkpt lat="43.6285233" lon="12.3500783"><ele>678.0</ele><time>2026-05-02T07:42:38.789Z</time></trkpt><trkpt lat="43.6285083" lon="12.3502683"><ele>678.0</ele><time>2026-05-02T07:42:39.789Z</time></trkpt><trkpt lat="43.6284967" lon="12.3504617"><ele>678.0</ele><time>2026-05-02T07:42:40.789Z</time></trkpt><trkpt lat="43.6284833" lon="12.35066"><ele>678.0</ele><time>2026-05-02T07:42:41.79Z</time></trkpt><trkpt lat="43.6284683" lon="12.3508583"><ele>678.0</ele><time>2026-05-02T07:42:42.789Z</time></trkpt><trkpt lat="43.6284533" lon="12.3510583"><ele>679.75</ele><time>2026-05-02T07:42:43.789Z</time></trkpt><trkpt lat="43.6284417" lon="12.3512533"><ele>681.5</ele><time>2026-05-02T07:42:44.79Z</time></trkpt><trkpt lat="43.62843" lon="12.35145"><ele>683.25</ele><time>2026-05-02T07:42:45.79Z</time></trkpt><trkpt lat="43.6284133" lon="12.35164"><ele>685.0</ele><time>2026-05-02T07:42:46.79Z</time></trkpt><trkpt lat="43.62839" lon="12.3518267"><ele>688.0</ele><time>2026-05-02T07:42:47.789Z</time></trkpt><trkpt lat="43.6283567" lon="12.3519967"><ele>691.0</ele><time>2026-05-02T07:42:48.79Z</time></trkpt><trkpt lat="43.628315" lon="12.3521483"><ele>694.0</ele><time>2026-05-02T07:42:49.786Z</time></trkpt><trkpt lat="43.62825" lon="12.3522733"><ele>697.0</ele><time>2026-05-02T07:42:50.792Z</time></trkpt><trkpt lat="43.6281683" lon="12.352385"><ele>700.0</ele><time>2026-05-02T07:42:51.789Z</time></trkpt><trkpt lat="43.6280683" lon="12.3524817"><ele>703.0</ele><time>2026-05-02T07:42:52.789Z</time></trkpt><trkpt lat="43.6279667" lon="12.3525817"><ele>706.0</ele><time>2026-05-02T07:42:53.791Z</time></trkpt><trkpt lat="43.6278633" lon="12.35267"><ele>709.0</ele><time>2026-05-02T07:42:54.79Z</time></trkpt><trkpt lat="43.627765" lon="12.3527317"><ele>709.0</ele><time>2026-05-02T07:42:55.789Z</time></trkpt><trkpt lat="43.6276717" lon="12.352745"><ele>709.0</ele><time>2026-05-02T07:42:56.789Z</time></trkpt><trkpt lat="43.6275933" lon="12.3527233"><ele>709.0</ele><time>2026-05-02T07:42:57.789Z</time></trkpt><trkpt lat="43.62752" lon="12.3526717"><ele>709.0</ele><time>2026-05-02T07:42:58.789Z</time></trkpt><trkpt lat="43.6274717" lon="12.3525717"><ele>709.0</ele><time>2026-05-02T07:42:59.787Z</time></trkpt><trkpt lat="43.62742" lon="12.3524517"><ele>709.0</ele><time>2026-05-02T07:43:00.79Z</time></trkpt><trkpt lat="43.6273683" lon="12.3523183"><ele>708.4000000000001</ele><time>2026-05-02T07:43:01.789Z</time></trkpt><trkpt lat="43.6273217" lon="12.3521783"><ele>707.8</ele><time>2026-05-02T07:43:02.789Z</time></trkpt><trkpt lat="43.62729" lon="12.3520317"><ele>707.2</ele><time>2026-05-02T07:43:03.789Z</time></trkpt><trkpt lat="43.6272717" lon="12.3518833"><ele>706.5999999999999</ele><time>2026-05-02T07:43:04.789Z</time></trkpt><trkpt lat="43.6272483" lon="12.3517533"><ele>706.0</ele><time>2026-05-02T07:43:05.789Z</time></trkpt><trkpt lat="43.6272133" lon="12.351645"><ele>706.0</ele><time>2026-05-02T07:43:06.787Z</time></trkpt><trkpt lat="43.6271583" lon="12.3515483"><ele>706.0</ele><time>2026-05-02T07:43:07.789Z</time></trkpt><trkpt lat="43.6270817" lon="12.35147"><ele>706.0</ele><time>2026-05-02T07:43:08.79Z</time></trkpt><trkpt lat="43.6269867" lon="12.3514017"><ele>706.0</ele><time>2026-05-02T07:43:09.788Z</time></trkpt><trkpt lat="43.6268867" lon="12.3513333"><ele>706.0</ele><time>2026-05-02T07:43:10.79Z</time></trkpt><trkpt lat="43.62678" lon="12.351265"><ele>709.5</ele><time>2026-05-02T07:43:11.79Z</time></trkpt><trkpt lat="43.6266783" lon="12.35119"><ele>713.0</ele><time>2026-05-02T07:43:12.786Z</time></trkpt><trkpt lat="43.62658" lon="12.35111"><ele>716.5</ele><time>2026-05-02T07:43:13.789Z</time></trkpt><trkpt lat="43.6264867" lon="12.3510283"><ele>720.0</ele><time>2026-05-02T07:43:14.789Z</time></trkpt><trkpt lat="43.6263967" lon="12.35094"><ele>720.0</ele><time>2026-05-02T07:43:15.789Z</time></trkpt><trkpt lat="43.626325" lon="12.350845"><ele>720.0</ele><time>2026-05-02T07:43:16.786Z</time></trkpt><trkpt lat="43.6262833" lon="12.35074"><ele>720.0</ele><time>2026-05-02T07:43:17.79Z</time></trkpt><trkpt lat="43.62626" lon="12.3506233"><ele>720.0</ele><time>2026-05-02T07:43:18.789Z</time></trkpt><trkpt lat="43.6262717" lon="12.3504833"><ele>720.0</ele><time>2026-05-02T07:43:19.789Z</time></trkpt><trkpt lat="43.62629" lon="12.3503433"><ele>719.2</ele><time>2026-05-02T07:43:20.786Z</time></trkpt><trkpt lat="43.6263033" lon="12.3501967"><ele>718.4</ele><time>2026-05-02T07:43:21.79Z</time></trkpt><trkpt lat="43.6263167" lon="12.3500467"><ele>717.5999999999999</ele><time>2026-05-02T07:43:22.79Z</time></trkpt><trkpt lat="43.6263167" lon="12.349915"><ele>716.8</ele><time>2026-05-02T07:43:23.789Z</time></trkpt><trkpt lat="43.6263167" lon="12.3497967"><ele>716.0</ele><time>2026-05-02T07:43:24.79Z</time></trkpt><trkpt lat="43.626305" lon="12.3496933"><ele>714.8</ele><time>2026-05-02T07:43:25.789Z</time></trkpt><trkpt lat="43.6262683" lon="12.349605"><ele>713.5999999999999</ele><time>2026-05-02T07:43:26.79Z</time></trkpt><trkpt lat="43.6262083" lon="12.3495417"><ele>712.4</ele><time>2026-05-02T07:43:27.789Z</time></trkpt><trkpt lat="43.62612" lon="12.34951"><ele>711.2</ele><time>2026-05-02T07:43:28.789Z</time></trkpt><trkpt lat="43.6260217" lon="12.34948"><ele>710.0</ele><time>2026-05-02T07:43:29.789Z</time></trkpt><trkpt lat="43.6259083" lon="12.349445"><ele>715.5</ele><time>2026-05-02T07:43:30.789Z</time></trkpt><trkpt lat="43.6257967" lon="12.34939"><ele>721.0</ele><time>2026-05-02T07:43:31.789Z</time></trkpt><trkpt lat="43.6256883" lon="12.3493167"><ele>726.5</ele><time>2026-05-02T07:43:32.789Z</time></trkpt><trkpt lat="43.6255883" lon="12.3492283"><ele>732.0</ele><time>2026-05-02T07:43:33.79Z</time></trkpt><trkpt lat="43.625495" lon="12.34913"><ele>732.0</ele><time>2026-05-02T07:43:34.789Z</time></trkpt><trkpt lat="43.6254133" lon="12.3490167"><ele>732.0</ele><time>2026-05-02T07:43:35.789Z</time></trkpt><trkpt lat="43.6253367" lon="12.3488967"><ele>732.0</ele><time>2026-05-02T07:43:36.791Z</time></trkpt><trkpt lat="43.6252783" lon="12.34876"><ele>732.0</ele><time>2026-05-02T07:43:37.79Z</time></trkpt><trkpt lat="43.62523" lon="12.34861"><ele>734.25</ele><time>2026-05-02T07:43:38.79Z</time></trkpt><trkpt lat="43.6251783" lon="12.3484567"><ele>736.5</ele><time>2026-05-02T07:43:39.786Z</time></trkpt><trkpt lat="43.62513" lon="12.3482983"><ele>738.75</ele><time>2026-05-02T07:43:40.789Z</time></trkpt><trkpt lat="43.62508" lon="12.348135"><ele>741.0</ele><time>2026-05-02T07:43:41.786Z</time></trkpt><trkpt lat="43.6250267" lon="12.3479733"><ele>742.0</ele><time>2026-05-02T07:43:42.789Z</time></trkpt><trkpt lat="43.6249717" lon="12.3478133"><ele>743.0</ele><time>2026-05-02T07:43:43.788Z</time></trkpt><trkpt lat="43.6249233" lon="12.3476517"><ele>744.0</ele><time>2026-05-02T07:43:44.792Z</time></trkpt><trkpt lat="43.6248733" lon="12.347495"><ele>745.0</ele><time>2026-05-02T07:43:45.787Z</time></trkpt><trkpt lat="43.624825" lon="12.347335"><ele>746.0</ele><time>2026-05-02T07:43:46.787Z</time></trkpt><trkpt lat="43.62477" lon="12.3471783"><ele>747.0</ele><time>2026-05-02T07:43:47.789Z</time></trkpt><trkpt lat="43.62471" lon="12.347025"><ele>748.0</ele><time>2026-05-02T07:43:48.786Z</time></trkpt><trkpt lat="43.624655" lon="12.3468717"><ele>749.0</ele><time>2026-05-02T07:43:49.788Z</time></trkpt><trkpt lat="43.6246033" lon="12.346705"><ele>749.0</ele><time>2026-05-02T07:43:50.79Z</time></trkpt><trkpt lat="43.6245517" lon="12.34654"><ele>749.0</ele><time>2026-05-02T07:43:51.79Z</time></trkpt><trkpt lat="43.6245" lon="12.346375"><ele>749.0</ele><time>2026-05-02T07:43:52.79Z</time></trkpt><trkpt lat="43.6244483" lon="12.3462167"><ele>749.0</ele><time>2026-05-02T07:43:53.789Z</time></trkpt><trkpt lat="43.6244" lon="12.3460717"><ele>749.6</ele><time>2026-05-02T07:43:54.79Z</time></trkpt><trkpt lat="43.62436" lon="12.3459383"><ele>750.2</ele><time>2026-05-02T07:43:55.789Z</time></trkpt><trkpt lat="43.62433" lon="12.3458083"><ele>750.8000000000001</ele><time>2026-05-02T07:43:56.786Z</time></trkpt><trkpt lat="43.6243133" lon="12.3456867"><ele>751.4000000000001</ele><time>2026-05-02T07:43:57.789Z</time></trkpt><trkpt lat="43.6242983" lon="12.34558"><ele>752.0</ele><time>2026-05-02T07:43:58.789Z</time></trkpt><trkpt lat="43.624295" lon="12.3454283"><ele>750.2</ele><time>2026-05-02T07:44:00.788Z</time></trkpt><trkpt lat="43.6243217" lon="12.3453283"><ele>748.4000000000001</ele><time>2026-05-02T07:44:02.789Z</time></trkpt><trkpt lat="43.6243783" lon="12.3451967"><ele>746.5999999999999</ele><time>2026-05-02T07:44:04.789Z</time></trkpt><trkpt lat="43.6244167" lon="12.3451033"><ele>744.8</ele><time>2026-05-02T07:44:05.79Z</time></trkpt><trkpt lat="43.624465" lon="12.3450017"><ele>743.0</ele><time>2026-05-02T07:44:06.787Z</time></trkpt><trkpt lat="43.6245267" lon="12.3448967"><ele>742.4</ele><time>2026-05-02T07:44:07.788Z</time></trkpt><trkpt lat="43.6246017" lon="12.3448"><ele>741.8</ele><time>2026-05-02T07:44:08.79Z</time></trkpt><trkpt lat="43.6246833" lon="12.3447167"><ele>741.2</ele><time>2026-05-02T07:44:09.788Z</time></trkpt><trkpt lat="43.624765" lon="12.3446367"><ele>740.6</ele><time>2026-05-02T07:44:10.789Z</time></trkpt><trkpt lat="43.62485" lon="12.344545"><ele>740.0</ele><time>2026-05-02T07:44:11.79Z</time></trkpt><trkpt lat="43.6249367" lon="12.34444"><ele>739.6</ele><time>2026-05-02T07:44:12.787Z</time></trkpt><trkpt lat="43.6250167" lon="12.3443333"><ele>739.2</ele><time>2026-05-02T07:44:13.787Z</time></trkpt><trkpt lat="43.6250967" lon="12.344225"><ele>738.8</ele><time>2026-05-02T07:44:14.789Z</time></trkpt><trkpt lat="43.6251767" lon="12.34412"><ele>738.4</ele><time>2026-05-02T07:44:15.789Z</time></trkpt><trkpt lat="43.6252533" lon="12.3440167"><ele>738.0</ele><time>2026-05-02T07:44:16.789Z</time></trkpt><trkpt lat="43.62533" lon="12.343915"><ele>735.8</ele><time>2026-05-02T07:44:17.79Z</time></trkpt><trkpt lat="43.6254017" lon="12.34382"><ele>733.5999999999999</ele><time>2026-05-02T07:44:18.787Z</time></trkpt><trkpt lat="43.6254717" lon="12.3437217"><ele>731.4000000000001</ele><time>2026-05-02T07:44:19.788Z</time></trkpt><trkpt lat="43.6255383" lon="12.3436167"><ele>729.2</ele><time>2026-05-02T07:44:20.789Z</time></trkpt><trkpt lat="43.6255967" lon="12.34351"><ele>727.0</ele><time>2026-05-02T07:44:21.789Z</time></trkpt><trkpt lat="43.6256433" lon="12.3434033"><ele>727.0</ele><time>2026-05-02T07:44:22.788Z</time></trkpt><trkpt lat="43.625675" lon="12.3432867"><ele>727.0</ele><time>2026-05-02T07:44:23.789Z</time></trkpt><trkpt lat="43.6256917" lon="12.3431667"><ele>727.0</ele><time>2026-05-02T07:44:24.787Z</time></trkpt><trkpt lat="43.6256983" lon="12.3430367"><ele>727.0</ele><time>2026-05-02T07:44:25.79Z</time></trkpt><trkpt lat="43.6256967" lon="12.3428883"><ele>727.0</ele><time>2026-05-02T07:44:26.786Z</time></trkpt><trkpt lat="43.6256883" lon="12.3427283"><ele>727.0</ele><time>2026-05-02T07:44:27.786Z</time></trkpt><trkpt lat="43.6256817" lon="12.3425567"><ele>727.0</ele><time>2026-05-02T07:44:28.787Z</time></trkpt><trkpt lat="43.625675" lon="12.3423767"><ele>727.0</ele><time>2026-05-02T07:44:29.786Z</time></trkpt><trkpt lat="43.62566" lon="12.3421883"><ele>727.0</ele><time>2026-05-02T07:44:30.79Z</time></trkpt><trkpt lat="43.6256417" lon="12.342"><ele>728.25</ele><time>2026-05-02T07:44:31.787Z</time></trkpt><trkpt lat="43.625615" lon="12.3418117"><ele>729.5</ele><time>2026-05-02T07:44:32.787Z</time></trkpt><trkpt lat="43.625595" lon="12.3416283"><ele>730.75</ele><time>2026-05-02T07:44:33.79Z</time></trkpt><trkpt lat="43.6255767" lon="12.341455"><ele>732.0</ele><time>2026-05-02T07:44:34.788Z</time></trkpt><trkpt lat="43.62556" lon="12.3412817"><ele>732.0</ele><time>2026-05-02T07:44:35.788Z</time></trkpt><trkpt lat="43.62554" lon="12.34111"><ele>732.0</ele><time>2026-05-02T07:44:36.789Z</time></trkpt><trkpt lat="43.62552" lon="12.340935"><ele>732.0</ele><time>2026-05-02T07:44:37.788Z</time></trkpt><trkpt lat="43.6255" lon="12.340755"><ele>732.0</ele><time>2026-05-02T07:44:38.788Z</time></trkpt><trkpt lat="43.62548" lon="12.3405717"><ele>731.5</ele><time>2026-05-02T07:44:39.788Z</time></trkpt><trkpt lat="43.6254567" lon="12.3404"><ele>731.0</ele><time>2026-05-02T07:44:40.787Z</time></trkpt><trkpt lat="43.6254267" lon="12.34023"><ele>730.5</ele><time>2026-05-02T07:44:41.789Z</time></trkpt><trkpt lat="43.6253983" lon="12.340055"><ele>730.0</ele><time>2026-05-02T07:44:42.788Z</time></trkpt><trkpt lat="43.6253733" lon="12.3398883"><ele>730.0</ele><time>2026-05-02T07:44:43.788Z</time></trkpt><trkpt lat="43.625355" lon="12.33973"><ele>730.0</ele><time>2026-05-02T07:44:44.789Z</time></trkpt><trkpt lat="43.625335" lon="12.3395733"><ele>730.0</ele><time>2026-05-02T07:44:45.788Z</time></trkpt><trkpt lat="43.6253233" lon="12.3394233"><ele>730.0</ele><time>2026-05-02T07:44:46.788Z</time></trkpt><trkpt lat="43.625325" lon="12.339275"><ele>730.0</ele><time>2026-05-02T07:44:47.788Z</time></trkpt><trkpt lat="43.625345" lon="12.3391267"><ele>728.5</ele><time>2026-05-02T07:44:48.79Z</time></trkpt><trkpt lat="43.6253717" lon="12.3389733"><ele>727.0</ele><time>2026-05-02T07:44:49.789Z</time></trkpt><trkpt lat="43.625405" lon="12.338815"><ele>725.5</ele><time>2026-05-02T07:44:50.788Z</time></trkpt><trkpt lat="43.6254417" lon="12.3386517"><ele>724.0</ele><time>2026-05-02T07:44:51.789Z</time></trkpt><trkpt lat="43.625475" lon="12.3384967"><ele>724.0</ele><time>2026-05-02T07:44:52.788Z</time></trkpt><trkpt lat="43.6255017" lon="12.3383483"><ele>724.0</ele><time>2026-05-02T07:44:53.786Z</time></trkpt><trkpt lat="43.6255117" lon="12.33821"><ele>724.0</ele><time>2026-05-02T07:44:54.786Z</time></trkpt><trkpt lat="43.62551" lon="12.3380917"><ele>724.0</ele><time>2026-05-02T07:44:55.788Z</time></trkpt><trkpt lat="43.62549" lon="12.3379933"><ele>724.0</ele><time>2026-05-02T07:44:56.786Z</time></trkpt><trkpt lat="43.6254567" lon="12.3379033"><ele>724.0</ele><time>2026-05-02T07:44:57.785Z</time></trkpt><trkpt lat="43.62541" lon="12.3378333"><ele>725.3333333333334</ele><time>2026-05-02T07:44:58.787Z</time></trkpt><trkpt lat="43.62534" lon="12.3377933"><ele>726.6666666666667</ele><time>2026-05-02T07:44:59.787Z</time></trkpt><trkpt lat="43.6252683" lon="12.3377817"><ele>728.0</ele><time>2026-05-02T07:45:00.785Z</time></trkpt><trkpt lat="43.6251817" lon="12.3378117"><ele>729.3333333333334</ele><time>2026-05-02T07:45:01.785Z</time></trkpt><trkpt lat="43.62509" lon="12.33789"><ele>730.6666666666666</ele><time>2026-05-02T07:45:02.786Z</time></trkpt><trkpt lat="43.625005" lon="12.33797"><ele>732.0</ele><time>2026-05-02T07:45:03.786Z</time></trkpt><trkpt lat="43.6249133" lon="12.3380567"><ele>733.6</ele><time>2026-05-02T07:45:04.786Z</time></trkpt><trkpt lat="43.62482" lon="12.3381233"><ele>735.2</ele><time>2026-05-02T07:45:05.787Z</time></trkpt><trkpt lat="43.6247283" lon="12.3381733"><ele>736.8</ele><time>2026-05-02T07:45:06.79Z</time></trkpt><trkpt lat="43.6246333" lon="12.33818"><ele>738.4</ele><time>2026-05-02T07:45:07.789Z</time></trkpt><trkpt lat="43.6245467" lon="12.3381417"><ele>740.0</ele><time>2026-05-02T07:45:08.882Z</time></trkpt><trkpt lat="43.6244683" lon="12.33807"><ele>741.6</ele><time>2026-05-02T07:45:09.784Z</time></trkpt><trkpt lat="43.62441" lon="12.337965"><ele>743.2</ele><time>2026-05-02T07:45:10.788Z</time></trkpt><trkpt lat="43.624355" lon="12.3378417"><ele>744.8</ele><time>2026-05-02T07:45:11.789Z</time></trkpt><trkpt lat="43.6242933" lon="12.3377017"><ele>746.4</ele><time>2026-05-02T07:45:12.788Z</time></trkpt><trkpt lat="43.6242217" lon="12.3375667"><ele>748.0</ele><time>2026-05-02T07:45:13.789Z</time></trkpt><trkpt lat="43.6241567" lon="12.3374333"><ele>748.0</ele><time>2026-05-02T07:45:14.789Z</time></trkpt><trkpt lat="43.6241133" lon="12.3373033"><ele>748.0</ele><time>2026-05-02T07:45:15.788Z</time></trkpt><trkpt lat="43.624085" lon="12.3371633"><ele>748.0</ele><time>2026-05-02T07:45:16.786Z</time></trkpt><trkpt lat="43.624075" lon="12.337005"><ele>748.0</ele><time>2026-05-02T07:45:17.788Z</time></trkpt><trkpt lat="43.6240617" lon="12.336845"><ele>748.0</ele><time>2026-05-02T07:45:18.788Z</time></trkpt><trkpt lat="43.6240467" lon="12.3366817"><ele>749.75</ele><time>2026-05-02T07:45:19.79Z</time></trkpt><trkpt lat="43.6240333" lon="12.3365217"><ele>751.5</ele><time>2026-05-02T07:45:20.785Z</time></trkpt><trkpt lat="43.6240167" lon="12.3363567"><ele>753.25</ele><time>2026-05-02T07:45:21.788Z</time></trkpt><trkpt lat="43.6240033" lon="12.3362"><ele>755.0</ele><time>2026-05-02T07:45:22.787Z</time></trkpt><trkpt lat="43.6239883" lon="12.336055"><ele>756.8</ele><time>2026-05-02T07:45:23.788Z</time></trkpt><trkpt lat="43.6239633" lon="12.3359217"><ele>758.6</ele><time>2026-05-02T07:45:24.79Z</time></trkpt><trkpt lat="43.6239317" lon="12.3358067"><ele>760.4000000000001</ele><time>2026-05-02T07:45:25.789Z</time></trkpt><trkpt lat="43.6238867" lon="12.335705"><ele>762.2</ele><time>2026-05-02T07:45:26.785Z</time></trkpt><trkpt lat="43.6238333" lon="12.3356083"><ele>764.0</ele><time>2026-05-02T07:45:27.785Z</time></trkpt><trkpt lat="43.6237583" lon="12.3355417"><ele>763.2</ele><time>2026-05-02T07:45:28.787Z</time></trkpt><trkpt lat="43.623665" lon="12.3355167"><ele>762.4000000000001</ele><time>2026-05-02T07:45:29.786Z</time></trkpt><trkpt lat="43.6235767" lon="12.3355017"><ele>761.6</ele><time>2026-05-02T07:45:30.785Z</time></trkpt><trkpt lat="43.6234733" lon="12.3355083"><ele>760.8</ele><time>2026-05-02T07:45:31.786Z</time></trkpt><trkpt lat="43.6233733" lon="12.3354983"><ele>760.0</ele><time>2026-05-02T07:45:32.788Z</time></trkpt><trkpt lat="43.6232833" lon="12.3354567"><ele>760.0</ele><time>2026-05-02T07:45:33.786Z</time></trkpt><trkpt lat="43.6231967" lon="12.3353817"><ele>760.0</ele><time>2026-05-02T07:45:34.792Z</time></trkpt><trkpt lat="43.6231083" lon="12.3352867"><ele>760.0</ele><time>2026-05-02T07:45:35.789Z</time></trkpt><trkpt lat="43.623015" lon="12.33518"><ele>760.0</ele><time>2026-05-02T07:45:36.789Z</time></trkpt><trkpt lat="43.62292" lon="12.3350783"><ele>760.0</ele><time>2026-05-02T07:45:37.789Z</time></trkpt><trkpt lat="43.6228317" lon="12.3349767"><ele>760.0</ele><time>2026-05-02T07:45:38.79Z</time></trkpt><trkpt lat="43.6227517" lon="12.3348883"><ele>760.0</ele><time>2026-05-02T07:45:39.789Z</time></trkpt><trkpt lat="43.6226783" lon="12.33479"><ele>760.0</ele><time>2026-05-02T07:45:40.79Z</time></trkpt><trkpt lat="43.62261" lon="12.3346733"><ele>760.0</ele><time>2026-05-02T07:45:41.789Z</time></trkpt><trkpt lat="43.6225483" lon="12.33455"><ele>758.4</ele><time>2026-05-02T07:45:42.788Z</time></trkpt><trkpt lat="43.6224867" lon="12.334435"><ele>756.8</ele><time>2026-05-02T07:45:43.788Z</time></trkpt><trkpt lat="43.622415" lon="12.3343317"><ele>755.2</ele><time>2026-05-02T07:45:44.789Z</time></trkpt><trkpt lat="43.6223333" lon="12.3342467"><ele>753.6</ele><time>2026-05-02T07:45:45.789Z</time></trkpt><trkpt lat="43.622235" lon="12.334185"><ele>752.0</ele><time>2026-05-02T07:45:46.789Z</time></trkpt><trkpt lat="43.6221183" lon="12.334145"><ele>752.0</ele><time>2026-05-02T07:45:47.789Z</time></trkpt><trkpt lat="43.6219983" lon="12.3341133"><ele>752.0</ele><time>2026-05-02T07:45:48.789Z</time></trkpt><trkpt lat="43.6218733" lon="12.33409"><ele>752.0</ele><time>2026-05-02T07:45:49.79Z</time></trkpt><trkpt lat="43.6217533" lon="12.3340583"><ele>752.0</ele><time>2026-05-02T07:45:50.786Z</time></trkpt><trkpt lat="43.6216417" lon="12.3340217"><ele>752.2</ele><time>2026-05-02T07:45:51.786Z</time></trkpt><trkpt lat="43.6215333" lon="12.333995"><ele>752.4000000000001</ele><time>2026-05-02T07:45:52.786Z</time></trkpt><trkpt lat="43.621425" lon="12.3339783"><ele>752.5999999999999</ele><time>2026-05-02T07:45:53.786Z</time></trkpt><trkpt lat="43.6213117" lon="12.3339767"><ele>752.8</ele><time>2026-05-02T07:45:54.789Z</time></trkpt><trkpt lat="43.6211983" lon="12.3340017"><ele>753.0</ele><time>2026-05-02T07:45:55.788Z</time></trkpt><trkpt lat="43.6210867" lon="12.3340683"><ele>753.0</ele><time>2026-05-02T07:45:56.786Z</time></trkpt><trkpt lat="43.6209783" lon="12.3341517"><ele>753.0</ele><time>2026-05-02T07:45:57.786Z</time></trkpt><trkpt lat="43.6208767" lon="12.3342533"><ele>753.0</ele><time>2026-05-02T07:45:58.79Z</time></trkpt><trkpt lat="43.6207867" lon="12.33437"><ele>753.0</ele><time>2026-05-02T07:45:59.788Z</time></trkpt><trkpt lat="43.6207117" lon="12.3344783"><ele>753.0</ele><time>2026-05-02T07:46:00.785Z</time></trkpt><trkpt lat="43.6206367" lon="12.3345833"><ele>753.0</ele><time>2026-05-02T07:46:01.787Z</time></trkpt><trkpt lat="43.6205583" lon="12.3346817"><ele>753.0</ele><time>2026-05-02T07:46:02.785Z</time></trkpt><trkpt lat="43.62047" lon="12.3347667"><ele>753.0</ele><time>2026-05-02T07:46:03.79Z</time></trkpt><trkpt lat="43.6203833" lon="12.334835"><ele>753.0</ele><time>2026-05-02T07:46:04.786Z</time></trkpt><trkpt lat="43.620285" lon="12.3348633"><ele>752.5</ele><time>2026-05-02T07:46:05.789Z</time></trkpt><trkpt lat="43.62017" lon="12.3348517"><ele>752.0</ele><time>2026-05-02T07:46:06.789Z</time></trkpt><trkpt lat="43.6200467" lon="12.3348233"><ele>751.5</ele><time>2026-05-02T07:46:07.789Z</time></trkpt><trkpt lat="43.6199283" lon="12.3347967"><ele>751.0</ele><time>2026-05-02T07:46:08.789Z</time></trkpt><trkpt lat="43.61981" lon="12.3347883"><ele>751.0</ele><time>2026-05-02T07:46:09.789Z</time></trkpt><trkpt lat="43.6197067" lon="12.334805"><ele>751.0</ele><time>2026-05-02T07:46:10.789Z</time></trkpt><trkpt lat="43.61961" lon="12.334835"><ele>751.0</ele><time>2026-05-02T07:46:11.788Z</time></trkpt><trkpt lat="43.6195167" lon="12.3348767"><ele>751.0</ele><time>2026-05-02T07:46:12.789Z</time></trkpt><trkpt lat="43.6194333" lon="12.3349133"><ele>751.0</ele><time>2026-05-02T07:46:13.789Z</time></trkpt><trkpt lat="43.619365" lon="12.33494"><ele>750.4</ele><time>2026-05-02T07:46:14.789Z</time></trkpt><trkpt lat="43.6192783" lon="12.3349517"><ele>749.8</ele><time>2026-05-02T07:46:16.789Z</time></trkpt><trkpt lat="43.6192167" lon="12.3347667"><ele>749.1999999999999</ele><time>2026-05-02T07:51:13.404Z</time></trkpt><trkpt lat="43.6192383" lon="12.3346167"><ele>748.5999999999999</ele><time>2026-05-02T07:51:16.786Z</time></trkpt><trkpt lat="43.6192483" lon="12.3345217"><ele>748.0</ele><time>2026-05-02T07:51:17.785Z</time></trkpt><trkpt lat="43.6192633" lon="12.3344183"><ele>747.3333333333334</ele><time>2026-05-02T07:51:18.787Z</time></trkpt><trkpt lat="43.6192783" lon="12.3343067"><ele>746.6666666666667</ele><time>2026-05-02T07:51:19.787Z</time></trkpt><trkpt lat="43.6192917" lon="12.3341983"><ele>746.0</ele><time>2026-05-02T07:51:20.787Z</time></trkpt><trkpt lat="43.6193033" lon="12.3340983"><ele>745.3333333333334</ele><time>2026-05-02T07:51:21.787Z</time></trkpt><trkpt lat="43.6193067" lon="12.3339983"><ele>744.6666666666666</ele><time>2026-05-02T07:51:22.786Z</time></trkpt><trkpt lat="43.619305" lon="12.3338967"><ele>744.0</ele><time>2026-05-02T07:51:23.786Z</time></trkpt><trkpt lat="43.6193017" lon="12.3338"><ele>745.3333333333334</ele><time>2026-05-02T07:51:24.786Z</time></trkpt><trkpt lat="43.6192883" lon="12.3337067"><ele>746.6666666666666</ele><time>2026-05-02T07:51:25.786Z</time></trkpt><trkpt lat="43.6192667" lon="12.3336067"><ele>748.0</ele><time>2026-05-02T07:51:26.786Z</time></trkpt><trkpt lat="43.61923" lon="12.333505"><ele>749.3333333333333</ele><time>2026-05-02T07:51:27.787Z</time></trkpt><trkpt lat="43.6191667" lon="12.33341"><ele>750.6666666666666</ele><time>2026-05-02T07:51:28.786Z</time></trkpt><trkpt lat="43.6191" lon="12.3333183"><ele>752.0</ele><time>2026-05-02T07:51:29.786Z</time></trkpt><trkpt lat="43.6190117" lon="12.3332467"><ele>752.0</ele><time>2026-05-02T07:51:30.785Z</time></trkpt><trkpt lat="43.6189117" lon="12.3331733"><ele>752.0</ele><time>2026-05-02T07:51:31.788Z</time></trkpt><trkpt lat="43.6187983" lon="12.33311"><ele>752.0</ele><time>2026-05-02T07:51:32.786Z</time></trkpt><trkpt lat="43.6186883" lon="12.3330483"><ele>752.0</ele><time>2026-05-02T07:51:33.786Z</time></trkpt><trkpt lat="43.618575" lon="12.3329917"><ele>753.4000000000001</ele><time>2026-05-02T07:51:34.787Z</time></trkpt><trkpt lat="43.618475" lon="12.3329367"><ele>754.8000000000001</ele><time>2026-05-02T07:51:35.786Z</time></trkpt><trkpt lat="43.6183817" lon="12.33289"><ele>756.2</ele><time>2026-05-02T07:51:36.786Z</time></trkpt><trkpt lat="43.618285" lon="12.332855"><ele>757.6</ele><time>2026-05-02T07:51:37.787Z</time></trkpt><trkpt lat="43.6181867" lon="12.3328467"><ele>759.0</ele><time>2026-05-02T07:51:38.786Z</time></trkpt><trkpt lat="43.6180967" lon="12.332865"><ele>759.0</ele><time>2026-05-02T07:51:39.786Z</time></trkpt><trkpt lat="43.618015" lon="12.3328917"><ele>759.0</ele><time>2026-05-02T07:51:40.786Z</time></trkpt><trkpt lat="43.6179383" lon="12.3329117"><ele>759.0</ele><time>2026-05-02T07:51:41.786Z</time></trkpt><trkpt lat="43.617875" lon="12.332905"><ele>759.0</ele><time>2026-05-02T07:51:42.786Z</time></trkpt><trkpt lat="43.6177933" lon="12.3328"><ele>759.0</ele><time>2026-05-02T07:51:44.787Z</time></trkpt><trkpt lat="43.617775" lon="12.3326983"><ele>759.0</ele><time>2026-05-02T07:51:45.786Z</time></trkpt><trkpt lat="43.6177533" lon="12.33256"><ele>755.4000000000001</ele><time>2026-05-02T07:51:46.787Z</time></trkpt><trkpt lat="43.617725" lon="12.3324117"><ele>751.8</ele><time>2026-05-02T07:51:47.787Z</time></trkpt><trkpt lat="43.6177033" lon="12.3322683"><ele>748.2</ele><time>2026-05-02T07:51:48.786Z</time></trkpt><trkpt lat="43.6176933" lon="12.3321233"><ele>744.5999999999999</ele><time>2026-05-02T07:51:49.786Z</time></trkpt><trkpt lat="43.617675" lon="12.331995"><ele>741.0</ele><time>2026-05-02T07:51:50.788Z</time></trkpt><trkpt lat="43.6176383" lon="12.3318717"><ele>741.0</ele><time>2026-05-02T07:51:51.786Z</time></trkpt><trkpt lat="43.6175917" lon="12.3317467"><ele>741.0</ele><time>2026-05-02T07:51:52.787Z</time></trkpt><trkpt lat="43.61753" lon="12.3316283"><ele>741.0</ele><time>2026-05-02T07:51:53.787Z</time></trkpt><trkpt lat="43.6174567" lon="12.331525"><ele>741.0</ele><time>2026-05-02T07:51:54.787Z</time></trkpt><trkpt lat="43.617305" lon="12.33145"><ele>741.0</ele><time>2026-05-02T07:51:56.322Z</time></trkpt><trkpt lat="43.6171533" lon="12.3313783"><ele>741.0</ele><time>2026-05-02T07:51:57.785Z</time></trkpt><trkpt lat="43.6170683" lon="12.3313383"><ele>741.0</ele><time>2026-05-02T07:51:58.786Z</time></trkpt><trkpt lat="43.6169983" lon="12.3312067"><ele>741.0</ele><time>2026-05-02T07:52:00.786Z</time></trkpt><trkpt lat="43.6170017" lon="12.3311133"><ele>741.0</ele><time>2026-05-02T07:52:01.785Z</time></trkpt><trkpt lat="43.6170183" lon="12.3309983"><ele>741.0</ele><time>2026-05-02T07:52:02.786Z</time></trkpt><trkpt lat="43.6170367" lon="12.3308767"><ele>741.0</ele><time>2026-05-02T07:52:03.785Z</time></trkpt><trkpt lat="43.6170567" lon="12.3307483"><ele>741.0</ele><time>2026-05-02T07:52:04.787Z</time></trkpt><trkpt lat="43.61708" lon="12.3306233"><ele>741.0</ele><time>2026-05-02T07:52:05.785Z</time></trkpt><trkpt lat="43.6171183" lon="12.3305367"><ele>741.0</ele><time>2026-05-02T07:52:06.785Z</time></trkpt><trkpt lat="43.61717" lon="12.3304833"><ele>741.0</ele><time>2026-05-02T07:52:07.786Z</time></trkpt><trkpt lat="43.6172933" lon="12.33048"><ele>741.0</ele><time>2026-05-02T07:52:09.785Z</time></trkpt><trkpt lat="43.6173733" lon="12.3305117"><ele>741.0</ele><time>2026-05-02T07:52:10.786Z</time></trkpt><trkpt lat="43.61746" lon="12.3305617"><ele>741.0</ele><time>2026-05-02T07:52:11.786Z</time></trkpt><trkpt lat="43.61756" lon="12.3306217"><ele>741.0</ele><time>2026-05-02T07:52:12.786Z</time></trkpt><trkpt lat="43.6176633" lon="12.3306933"><ele>741.0</ele><time>2026-05-02T07:52:13.785Z</time></trkpt><trkpt lat="43.6177683" lon="12.3307567"><ele>741.25</ele><time>2026-05-02T07:52:14.787Z</time></trkpt><trkpt lat="43.6178867" lon="12.330815"><ele>741.5</ele><time>2026-05-02T07:52:15.787Z</time></trkpt><trkpt lat="43.618" lon="12.33087"><ele>741.75</ele><time>2026-05-02T07:52:16.786Z</time></trkpt><trkpt lat="43.61811" lon="12.3309367"><ele>742.0</ele><time>2026-05-02T07:52:17.785Z</time></trkpt><trkpt lat="43.6182167" lon="12.331"><ele>742.0</ele><time>2026-05-02T07:52:18.787Z</time></trkpt><trkpt lat="43.61832" lon="12.3310583"><ele>742.0</ele><time>2026-05-02T07:52:19.785Z</time></trkpt><trkpt lat="43.6184167" lon="12.3311"><ele>742.0</ele><time>2026-05-02T07:52:20.787Z</time></trkpt><trkpt lat="43.6185033" lon="12.3311283"><ele>742.0</ele><time>2026-05-02T07:52:21.786Z</time></trkpt><trkpt lat="43.618585" lon="12.3311417"><ele>742.0</ele><time>2026-05-02T07:52:22.786Z</time></trkpt><trkpt lat="43.6186583" lon="12.3311367"><ele>743.8333333333334</ele><time>2026-05-02T07:52:23.786Z</time></trkpt><trkpt lat="43.6187167" lon="12.3311033"><ele>745.6666666666667</ele><time>2026-05-02T07:52:24.785Z</time></trkpt><trkpt lat="43.6187683" lon="12.3310483"><ele>747.5</ele><time>2026-05-02T07:52:25.786Z</time></trkpt><trkpt lat="43.61877" lon="12.3308817"><ele>749.3333333333334</ele><time>2026-05-02T07:52:27.785Z</time></trkpt><trkpt lat="43.6187717" lon="12.33079"><ele>751.1666666666666</ele><time>2026-05-02T07:52:28.786Z</time></trkpt><trkpt lat="43.61879" lon="12.330695"><ele>753.0</ele><time>2026-05-02T07:52:29.787Z</time></trkpt><trkpt lat="43.6188317" lon="12.330585"><ele>750.2</ele><time>2026-05-02T07:52:30.786Z</time></trkpt><trkpt lat="43.6188867" lon="12.3304683"><ele>747.4</ele><time>2026-05-02T07:52:31.785Z</time></trkpt><trkpt lat="43.6189383" lon="12.330345"><ele>744.6</ele><time>2026-05-02T07:52:32.787Z</time></trkpt><trkpt lat="43.61897" lon="12.3302133"><ele>741.8000000000001</ele><time>2026-05-02T07:52:33.785Z</time></trkpt><trkpt lat="43.6189817" lon="12.3300867"><ele>739.0</ele><time>2026-05-02T07:52:34.785Z</time></trkpt><trkpt lat="43.6189883" lon="12.329975"><ele>739.0</ele><time>2026-05-02T07:52:35.785Z</time></trkpt><trkpt lat="43.61901" lon="12.3298883"><ele>739.0</ele><time>2026-05-02T07:52:36.785Z</time></trkpt><trkpt lat="43.6190533" lon="12.3298117"><ele>739.0</ele><time>2026-05-02T07:52:37.785Z</time></trkpt><trkpt lat="43.6191167" lon="12.3297633"><ele>739.0</ele><time>2026-05-02T07:52:38.785Z</time></trkpt><trkpt lat="43.6191967" lon="12.3297367"><ele>739.0</ele><time>2026-05-02T07:52:39.786Z</time></trkpt><trkpt lat="43.61928" lon="12.32972"><ele>739.0</ele><time>2026-05-02T07:52:40.785Z</time></trkpt><trkpt lat="43.6193667" lon="12.329725"><ele>739.0</ele><time>2026-05-02T07:52:41.785Z</time></trkpt><trkpt lat="43.6194583" lon="12.32975"><ele>739.0</ele><time>2026-05-02T07:52:42.785Z</time></trkpt><trkpt lat="43.61956" lon="12.3298017"><ele>739.0</ele><time>2026-05-02T07:52:43.786Z</time></trkpt><trkpt lat="43.619675" lon="12.3298783"><ele>739.0</ele><time>2026-05-02T07:52:44.786Z</time></trkpt><trkpt lat="43.6197917" lon="12.329975"><ele>740.25</ele><time>2026-05-02T07:52:45.786Z</time></trkpt><trkpt lat="43.6199033" lon="12.33008"><ele>741.5</ele><time>2026-05-02T07:52:46.787Z</time></trkpt><trkpt lat="43.6200067" lon="12.3301883"><ele>742.75</ele><time>2026-05-02T07:52:47.786Z</time></trkpt><trkpt lat="43.6200917" lon="12.33028"><ele>744.0</ele><time>2026-05-02T07:52:48.785Z</time></trkpt><trkpt lat="43.6201667" lon="12.330345"><ele>744.0</ele><time>2026-05-02T07:52:49.786Z</time></trkpt><trkpt lat="43.6202317" lon="12.3303917"><ele>744.0</ele><time>2026-05-02T07:52:50.785Z</time></trkpt><trkpt lat="43.6203533" lon="12.3303817"><ele>744.0</ele><time>2026-05-02T07:52:52.785Z</time></trkpt><trkpt lat="43.6203917" lon="12.3303083"><ele>744.0</ele><time>2026-05-02T07:52:53.786Z</time></trkpt><trkpt lat="43.6204167" lon="12.3301783"><ele>744.0</ele><time>2026-05-02T07:52:54.788Z</time></trkpt><trkpt lat="43.6204533" lon="12.3300333"><ele>745.4000000000001</ele><time>2026-05-02T07:52:55.786Z</time></trkpt><trkpt lat="43.62049" lon="12.3298767"><ele>746.8</ele><time>2026-05-02T07:52:56.786Z</time></trkpt><trkpt lat="43.6205233" lon="12.32973"><ele>748.2</ele><time>2026-05-02T07:52:57.786Z</time></trkpt><trkpt lat="43.620545" lon="12.32958"><ele>749.5999999999999</ele><time>2026-05-02T07:52:58.788Z</time></trkpt><trkpt lat="43.6205483" lon="12.3294517"><ele>751.0</ele><time>2026-05-02T07:52:59.787Z</time></trkpt><trkpt lat="43.620535" lon="12.3293067"><ele>751.0</ele><time>2026-05-02T07:53:00.787Z</time></trkpt><trkpt lat="43.6205167" lon="12.329145"><ele>751.0</ele><time>2026-05-02T07:53:01.788Z</time></trkpt><trkpt lat="43.6205183" lon="12.32901"><ele>751.0</ele><time>2026-05-02T07:53:02.789Z</time></trkpt><trkpt lat="43.62053" lon="12.3289033"><ele>751.0</ele><time>2026-05-02T07:53:03.79Z</time></trkpt><trkpt lat="43.620605" lon="12.3287817"><ele>751.0</ele><time>2026-05-02T07:53:05.79Z</time></trkpt><trkpt lat="43.6206767" lon="12.32876"><ele>750.8333333333334</ele><time>2026-05-02T07:53:06.788Z</time></trkpt><trkpt lat="43.6207417" lon="12.32873"><ele>750.6666666666667</ele><time>2026-05-02T07:53:07.789Z</time></trkpt><trkpt lat="43.6208" lon="12.328685"><ele>750.5</ele><time>2026-05-02T07:53:08.787Z</time></trkpt><trkpt lat="43.62085" lon="12.3286283"><ele>750.3333333333334</ele><time>2026-05-02T07:53:09.791Z</time></trkpt><trkpt lat="43.620875" lon="12.328535"><ele>750.1666666666666</ele><time>2026-05-02T07:53:10.788Z</time></trkpt><trkpt lat="43.620875" lon="12.3284217"><ele>750.0</ele><time>2026-05-02T07:53:11.789Z</time></trkpt><trkpt lat="43.62085" lon="12.32827"><ele>750.0</ele><time>2026-05-02T07:53:12.788Z</time></trkpt><trkpt lat="43.620795" lon="12.3280867"><ele>750.0</ele><time>2026-05-02T07:53:13.789Z</time></trkpt><trkpt lat="43.6207267" lon="12.327905"><ele>750.0</ele><time>2026-05-02T07:53:14.788Z</time></trkpt><trkpt lat="43.6206483" lon="12.3277433"><ele>750.0</ele><time>2026-05-02T07:53:15.789Z</time></trkpt><trkpt lat="43.6205433" lon="12.327595"><ele>752.5</ele><time>2026-05-02T07:53:16.789Z</time></trkpt><trkpt lat="43.6204233" lon="12.32747"><ele>755.0</ele><time>2026-05-02T07:53:17.79Z</time></trkpt><trkpt lat="43.6202917" lon="12.327375"><ele>757.5</ele><time>2026-05-02T07:53:18.789Z</time></trkpt><trkpt lat="43.6201533" lon="12.3273033"><ele>760.0</ele><time>2026-05-02T07:53:19.789Z</time></trkpt><trkpt lat="43.6200117" lon="12.32726"><ele>755.0</ele><time>2026-05-02T07:53:20.789Z</time></trkpt><trkpt lat="43.6198683" lon="12.3272517"><ele>750.0</ele><time>2026-05-02T07:53:21.789Z</time></trkpt><trkpt lat="43.6197417" lon="12.32726"><ele>745.0</ele><time>2026-05-02T07:53:22.785Z</time></trkpt><trkpt lat="43.6196333" lon="12.3272717"><ele>740.0</ele><time>2026-05-02T07:53:23.789Z</time></trkpt><trkpt lat="43.61954" lon="12.3272983"><ele>738.5</ele><time>2026-05-02T07:53:24.788Z</time></trkpt><trkpt lat="43.6194617" lon="12.3273417"><ele>737.0</ele><time>2026-05-02T07:53:25.787Z</time></trkpt><trkpt lat="43.6193967" lon="12.327405"><ele>735.5</ele><time>2026-05-02T07:53:26.789Z</time></trkpt><trkpt lat="43.6193383" lon="12.3274817"><ele>734.0</ele><time>2026-05-02T07:53:27.786Z</time></trkpt><trkpt lat="43.61928" lon="12.3275583"><ele>732.5</ele><time>2026-05-02T07:53:28.786Z</time></trkpt><trkpt lat="43.6192183" lon="12.3276133"><ele>731.0</ele><time>2026-05-02T07:53:29.789Z</time></trkpt><trkpt lat="43.6191567" lon="12.3276517"><ele>731.0</ele><time>2026-05-02T07:53:30.787Z</time></trkpt><trkpt lat="43.6190967" lon="12.3273217"><ele>731.0</ele><time>2026-05-02T07:53:34.786Z</time></trkpt><trkpt lat="43.6191233" lon="12.3272133"><ele>731.0</ele><time>2026-05-02T07:53:35.786Z</time></trkpt><trkpt lat="43.6191283" lon="12.3271033"><ele>731.0</ele><time>2026-05-02T07:53:36.786Z</time></trkpt><trkpt lat="43.61912" lon="12.3269483"><ele>733.75</ele><time>2026-05-02T07:53:37.786Z</time></trkpt><trkpt lat="43.6191083" lon="12.3267833"><ele>736.5</ele><time>2026-05-02T07:53:38.786Z</time></trkpt><trkpt lat="43.6191" lon="12.3266117"><ele>739.25</ele><time>2026-05-02T07:53:39.786Z</time></trkpt><trkpt lat="43.6190967" lon="12.32644"><ele>742.0</ele><time>2026-05-02T07:53:40.786Z</time></trkpt><trkpt lat="43.6190983" lon="12.326285"><ele>743.3333333333334</ele><time>2026-05-02T07:53:41.788Z</time></trkpt><trkpt lat="43.6191067" lon="12.3261533"><ele>744.6666666666667</ele><time>2026-05-02T07:53:42.785Z</time></trkpt><trkpt lat="43.61911" lon="12.3260383"><ele>746.0</ele><time>2026-05-02T07:53:43.787Z</time></trkpt><trkpt lat="43.619085" lon="12.325955"><ele>747.3333333333334</ele><time>2026-05-02T07:53:44.787Z</time></trkpt><trkpt lat="43.619035" lon="12.3258317"><ele>748.6666666666666</ele><time>2026-05-02T07:53:46.786Z</time></trkpt><trkpt lat="43.6189383" lon="12.325805"><ele>750.0</ele><time>2026-05-02T07:53:48.785Z</time></trkpt><trkpt lat="43.61885" lon="12.3258433"><ele>750.0</ele><time>2026-05-02T07:53:49.785Z</time></trkpt><trkpt lat="43.6187467" lon="12.325895"><ele>750.0</ele><time>2026-05-02T07:53:50.787Z</time></trkpt><trkpt lat="43.6186417" lon="12.3259483"><ele>750.0</ele><time>2026-05-02T07:53:51.786Z</time></trkpt><trkpt lat="43.6185467" lon="12.3260067"><ele>750.0</ele><time>2026-05-02T07:53:52.786Z</time></trkpt><trkpt lat="43.618465" lon="12.3260467"><ele>750.0</ele><time>2026-05-02T07:53:53.787Z</time></trkpt><trkpt lat="43.6183317" lon="12.326025"><ele>748.0</ele><time>2026-05-02T07:53:55.787Z</time></trkpt><trkpt lat="43.6183" lon="12.32594"><ele>746.0</ele><time>2026-05-02T07:53:56.786Z</time></trkpt><trkpt lat="43.6182667" lon="12.3258383"><ele>744.0</ele><time>2026-05-02T07:53:57.785Z</time></trkpt><trkpt lat="43.6182383" lon="12.32572"><ele>742.0</ele><time>2026-05-02T07:53:58.786Z</time></trkpt><trkpt lat="43.6182" lon="12.3256067"><ele>740.0</ele><time>2026-05-02T07:53:59.787Z</time></trkpt><trkpt lat="43.6181517" lon="12.3255083"><ele>738.0</ele><time>2026-05-02T07:54:00.786Z</time></trkpt><trkpt lat="43.618095" lon="12.3254217"><ele>740.6666666666666</ele><time>2026-05-02T07:54:01.785Z</time></trkpt><trkpt lat="43.618015" lon="12.325355"><ele>743.3333333333334</ele><time>2026-05-02T07:54:02.786Z</time></trkpt><trkpt lat="43.6179233" lon="12.3253033"><ele>746.0</ele><time>2026-05-02T07:54:03.785Z</time></trkpt><trkpt lat="43.617845" lon="12.325295"><ele>748.6666666666667</ele><time>2026-05-02T07:54:04.788Z</time></trkpt><trkpt lat="43.6177683" lon="12.3253117"><ele>751.3333333333334</ele><time>2026-05-02T07:54:05.786Z</time></trkpt><trkpt lat="43.617685" lon="12.3253567"><ele>754.0</ele><time>2026-05-02T07:54:06.785Z</time></trkpt><trkpt lat="43.61761" lon="12.3254267"><ele>754.0</ele><time>2026-05-02T07:54:07.786Z</time></trkpt><trkpt lat="43.6175417" lon="12.32549"><ele>754.0</ele><time>2026-05-02T07:54:08.786Z</time></trkpt><trkpt lat="43.617475" lon="12.3255533"><ele>754.0</ele><time>2026-05-02T07:54:09.786Z</time></trkpt><trkpt lat="43.6174133" lon="12.3255833"><ele>754.0</ele><time>2026-05-02T07:54:10.786Z</time></trkpt><trkpt lat="43.6172833" lon="12.325565"><ele>754.0</ele><time>2026-05-02T07:54:12.786Z</time></trkpt><trkpt lat="43.6172117" lon="12.325485"><ele>754.0</ele><time>2026-05-02T07:54:13.786Z</time></trkpt><trkpt lat="43.6171333" lon="12.3253917"><ele>754.0</ele><time>2026-05-02T07:54:14.786Z</time></trkpt><trkpt lat="43.617065" lon="12.3252967"><ele>754.0</ele><time>2026-05-02T07:54:15.786Z</time></trkpt><trkpt lat="43.6170083" lon="12.3252133"><ele>754.0</ele><time>2026-05-02T07:54:16.787Z</time></trkpt><trkpt lat="43.6169733" lon="12.3251067"><ele>754.0</ele><time>2026-05-02T07:54:17.786Z</time></trkpt><trkpt lat="43.616945" lon="12.3249817"><ele>749.8000000000001</ele><time>2026-05-02T07:54:18.785Z</time></trkpt><trkpt lat="43.6169083" lon="12.3248517"><ele>745.6</ele><time>2026-05-02T07:54:19.786Z</time></trkpt><trkpt lat="43.6168633" lon="12.3247367"><ele>741.4</ele><time>2026-05-02T07:54:20.788Z</time></trkpt><trkpt lat="43.616805" lon="12.3246367"><ele>737.2</ele><time>2026-05-02T07:54:21.786Z</time></trkpt><trkpt lat="43.6167417" lon="12.3245517"><ele>733.0</ele><time>2026-05-02T07:54:22.786Z</time></trkpt><trkpt lat="43.6166833" lon="12.324465"><ele>733.0</ele><time>2026-05-02T07:54:23.788Z</time></trkpt><trkpt lat="43.6166467" lon="12.324375"><ele>733.0</ele><time>2026-05-02T07:54:24.787Z</time></trkpt><trkpt lat="43.61662" lon="12.3242767"><ele>733.0</ele><time>2026-05-02T07:54:25.786Z</time></trkpt><trkpt lat="43.6166" lon="12.3241633"><ele>733.0</ele><time>2026-05-02T07:54:26.788Z</time></trkpt><trkpt lat="43.616585" lon="12.3240317"><ele>733.0</ele><time>2026-05-02T07:54:27.786Z</time></trkpt><trkpt lat="43.6165817" lon="12.3238983"><ele>733.0</ele><time>2026-05-02T07:54:28.786Z</time></trkpt><trkpt lat="43.6165883" lon="12.3237633"><ele>732.8333333333334</ele><time>2026-05-02T07:54:29.787Z</time></trkpt><trkpt lat="43.6166083" lon="12.323645"><ele>732.6666666666667</ele><time>2026-05-02T07:54:30.785Z</time></trkpt><trkpt lat="43.6166417" lon="12.3235383"><ele>732.5</ele><time>2026-05-02T07:54:31.786Z</time></trkpt><trkpt lat="43.6166733" lon="12.323455"><ele>732.3333333333334</ele><time>2026-05-02T07:54:32.787Z</time></trkpt><trkpt lat="43.6166967" lon="12.323335"><ele>732.1666666666666</ele><time>2026-05-02T07:54:34.788Z</time></trkpt><trkpt lat="43.6166383" lon="12.3232233"><ele>732.0</ele><time>2026-05-02T07:54:36.79Z</time></trkpt><trkpt lat="43.6165817" lon="12.3231617"><ele>732.0</ele><time>2026-05-02T07:54:37.787Z</time></trkpt><trkpt lat="43.6164983" lon="12.3231133"><ele>732.0</ele><time>2026-05-02T07:54:38.79Z</time></trkpt><trkpt lat="43.6164133" lon="12.3230617"><ele>732.0</ele><time>2026-05-02T07:54:39.789Z</time></trkpt><trkpt lat="43.6163317" lon="12.323005"><ele>732.0</ele><time>2026-05-02T07:54:40.789Z</time></trkpt><trkpt lat="43.6162467" lon="12.32297"><ele>732.0</ele><time>2026-05-02T07:54:41.79Z</time></trkpt><trkpt lat="43.6161517" lon="12.3229583"><ele>733.2</ele><time>2026-05-02T07:54:42.789Z</time></trkpt><trkpt lat="43.6160483" lon="12.3229683"><ele>734.4000000000001</ele><time>2026-05-02T07:54:43.785Z</time></trkpt><trkpt lat="43.6159517" lon="12.3230017"><ele>735.5999999999999</ele><time>2026-05-02T07:54:44.789Z</time></trkpt><trkpt lat="43.6158667" lon="12.3230483"><ele>736.8</ele><time>2026-05-02T07:54:45.79Z</time></trkpt><trkpt lat="43.6157867" lon="12.3231083"><ele>738.0</ele><time>2026-05-02T07:54:46.789Z</time></trkpt><trkpt lat="43.6157183" lon="12.32317"><ele>733.6666666666666</ele><time>2026-05-02T07:54:47.787Z</time></trkpt><trkpt lat="43.6156467" lon="12.32323"><ele>729.3333333333334</ele><time>2026-05-02T07:54:48.79Z</time></trkpt><trkpt lat="43.6155733" lon="12.3232767"><ele>725.0</ele><time>2026-05-02T07:54:49.789Z</time></trkpt><trkpt lat="43.6155033" lon="12.3232983"><ele>720.6666666666667</ele><time>2026-05-02T07:54:50.789Z</time></trkpt><trkpt lat="43.6153767" lon="12.32326"><ele>716.3333333333334</ele><time>2026-05-02T07:54:52.789Z</time></trkpt><trkpt lat="43.6153033" lon="12.323215"><ele>712.0</ele><time>2026-05-02T07:54:53.79Z</time></trkpt><trkpt lat="43.615225" lon="12.323145"><ele>714.0</ele><time>2026-05-02T07:54:54.79Z</time></trkpt><trkpt lat="43.6151483" lon="12.3230567"><ele>716.0</ele><time>2026-05-02T07:54:55.79Z</time></trkpt><trkpt lat="43.61507" lon="12.3229517"><ele>718.0</ele><time>2026-05-02T07:54:56.79Z</time></trkpt><trkpt lat="43.6149983" lon="12.322835"><ele>720.0</ele><time>2026-05-02T07:54:57.789Z</time></trkpt><trkpt lat="43.614945" lon="12.3227217"><ele>722.0</ele><time>2026-05-02T07:54:58.789Z</time></trkpt><trkpt lat="43.6148983" lon="12.32262"><ele>722.0</ele><time>2026-05-02T07:54:59.79Z</time></trkpt><trkpt lat="43.6148567" lon="12.322535"><ele>722.0</ele><time>2026-05-02T07:55:00.789Z</time></trkpt><trkpt lat="43.61482" lon="12.3224633"><ele>722.0</ele><time>2026-05-02T07:55:01.79Z</time></trkpt><trkpt lat="43.61474" lon="12.322425"><ele>722.0</ele><time>2026-05-02T07:55:03.789Z</time></trkpt><trkpt lat="43.6146617" lon="12.32256"><ele>722.0</ele><time>2026-05-02T07:55:05.79Z</time></trkpt><trkpt lat="43.61464" lon="12.3226433"><ele>722.0</ele><time>2026-05-02T07:55:06.791Z</time></trkpt><trkpt lat="43.6146517" lon="12.322785"><ele>722.0</ele><time>2026-05-02T07:55:07.786Z</time></trkpt><trkpt lat="43.6146633" lon="12.322935"><ele>722.0</ele><time>2026-05-02T07:55:08.788Z</time></trkpt><trkpt lat="43.6146883" lon="12.32312"><ele>722.0</ele><time>2026-05-02T07:55:09.787Z</time></trkpt><trkpt lat="43.6147117" lon="12.3232933"><ele>722.0</ele><time>2026-05-02T07:55:10.787Z</time></trkpt><trkpt lat="43.614735" lon="12.3234583"><ele>719.6</ele><time>2026-05-02T07:55:11.79Z</time></trkpt><trkpt lat="43.6147717" lon="12.323605"><ele>717.2</ele><time>2026-05-02T07:55:12.789Z</time></trkpt><trkpt lat="43.6148033" lon="12.3237533"><ele>714.8</ele><time>2026-05-02T07:55:13.789Z</time></trkpt><trkpt lat="43.6148283" lon="12.3239"><ele>712.4</ele><time>2026-05-02T07:55:14.786Z</time></trkpt><trkpt lat="43.614845" lon="12.3240517"><ele>710.0</ele><time>2026-05-02T07:55:15.789Z</time></trkpt><trkpt lat="43.6148433" lon="12.32419"><ele>708.4</ele><time>2026-05-02T07:55:16.789Z</time></trkpt><trkpt lat="43.61483" lon="12.3243283"><ele>706.8</ele><time>2026-05-02T07:55:17.787Z</time></trkpt><trkpt lat="43.6148133" lon="12.3244683"><ele>705.2</ele><time>2026-05-02T07:55:18.787Z</time></trkpt><trkpt lat="43.6147867" lon="12.3246033"><ele>703.6</ele><time>2026-05-02T07:55:19.786Z</time></trkpt><trkpt lat="43.6147483" lon="12.3247367"><ele>702.0</ele><time>2026-05-02T07:55:20.786Z</time></trkpt><trkpt lat="43.6146917" lon="12.32487"><ele>699.75</ele><time>2026-05-02T07:55:21.79Z</time></trkpt><trkpt lat="43.6146283" lon="12.3250067"><ele>697.5</ele><time>2026-05-02T07:55:22.788Z</time></trkpt><trkpt lat="43.6145633" lon="12.3251517"><ele>695.25</ele><time>2026-05-02T07:55:23.785Z</time></trkpt><trkpt lat="43.6144917" lon="12.3252967"><ele>693.0</ele><time>2026-05-02T07:55:24.787Z</time></trkpt><trkpt lat="43.614415" lon="12.32545"><ele>699.0</ele><time>2026-05-02T07:55:25.787Z</time></trkpt><trkpt lat="43.6143483" lon="12.3256083"><ele>705.0</ele><time>2026-05-02T07:55:26.787Z</time></trkpt><trkpt lat="43.6142833" lon="12.325765"><ele>711.0</ele><time>2026-05-02T07:55:27.786Z</time></trkpt><trkpt lat="43.6142233" lon="12.3259183"><ele>717.0</ele><time>2026-05-02T07:55:28.788Z</time></trkpt><trkpt lat="43.6141667" lon="12.3260683"><ele>717.0</ele><time>2026-05-02T07:55:29.786Z</time></trkpt><trkpt lat="43.6141133" lon="12.32622"><ele>717.0</ele><time>2026-05-02T07:55:30.787Z</time></trkpt><trkpt lat="43.6140567" lon="12.3263667"><ele>717.0</ele><time>2026-05-02T07:55:31.786Z</time></trkpt><trkpt lat="43.6140017" lon="12.32651"><ele>717.0</ele><time>2026-05-02T07:55:32.786Z</time></trkpt><trkpt lat="43.6139467" lon="12.3266467"><ele>717.1666666666666</ele><time>2026-05-02T07:55:33.787Z</time></trkpt><trkpt lat="43.61389" lon="12.3267783"><ele>717.3333333333334</ele><time>2026-05-02T07:55:34.786Z</time></trkpt><trkpt lat="43.613835" lon="12.326895"><ele>717.5</ele><time>2026-05-02T07:55:35.786Z</time></trkpt><trkpt lat="43.6137833" lon="12.3269983"><ele>717.6666666666667</ele><time>2026-05-02T07:55:36.787Z</time></trkpt><trkpt lat="43.6137233" lon="12.327075"><ele>717.8333333333334</ele><time>2026-05-02T07:55:37.788Z</time></trkpt><trkpt lat="43.6136683" lon="12.3271217"><ele>718.0</ele><time>2026-05-02T07:55:38.786Z</time></trkpt><trkpt lat="43.6135483" lon="12.3271083"><ele>718.0</ele><time>2026-05-02T07:55:40.789Z</time></trkpt><trkpt lat="43.6134983" lon="12.327035"><ele>718.0</ele><time>2026-05-02T07:55:41.789Z</time></trkpt><trkpt lat="43.6134367" lon="12.3269483"><ele>718.0</ele><time>2026-05-02T07:55:42.788Z</time></trkpt><trkpt lat="43.6133583" lon="12.32686"><ele>718.0</ele><time>2026-05-02T07:55:43.788Z</time></trkpt><trkpt lat="43.61327" lon="12.3267833"><ele>718.0</ele><time>2026-05-02T07:55:44.788Z</time></trkpt><trkpt lat="43.6131733" lon="12.3267317"><ele>718.0</ele><time>2026-05-02T07:55:45.789Z</time></trkpt><trkpt lat="43.6130833" lon="12.32669"><ele>718.0</ele><time>2026-05-02T07:55:46.789Z</time></trkpt><trkpt lat="43.6129917" lon="12.3266417"><ele>718.0</ele><time>2026-05-02T07:55:47.788Z</time></trkpt><trkpt lat="43.6128967" lon="12.3265767"><ele>718.0</ele><time>2026-05-02T07:55:48.788Z</time></trkpt><trkpt lat="43.6127983" lon="12.3265067"><ele>718.0</ele><time>2026-05-02T07:55:49.785Z</time></trkpt><trkpt lat="43.6126983" lon="12.3264517"><ele>719.5</ele><time>2026-05-02T07:55:50.786Z</time></trkpt><trkpt lat="43.6126017" lon="12.3264267"><ele>721.0</ele><time>2026-05-02T07:55:51.789Z</time></trkpt><trkpt lat="43.61252" lon="12.32641"><ele>722.5</ele><time>2026-05-02T07:55:52.785Z</time></trkpt><trkpt lat="43.6124533" lon="12.32638"><ele>724.0</ele><time>2026-05-02T07:55:53.789Z</time></trkpt><trkpt lat="43.6123817" lon="12.3263333"><ele>725.5</ele><time>2026-05-02T07:55:54.789Z</time></trkpt><trkpt lat="43.6123167" lon="12.3262567"><ele>727.0</ele><time>2026-05-02T07:55:55.788Z</time></trkpt><trkpt lat="43.6122633" lon="12.3261567"><ele>727.0</ele><time>2026-05-02T07:55:56.786Z</time></trkpt><trkpt lat="43.612205" lon="12.326045"><ele>727.0</ele><time>2026-05-02T07:55:57.785Z</time></trkpt><trkpt lat="43.6121433" lon="12.3259233"><ele>727.0</ele><time>2026-05-02T07:55:58.785Z</time></trkpt><trkpt lat="43.6120833" lon="12.3257933"><ele>727.0</ele><time>2026-05-02T07:55:59.786Z</time></trkpt><trkpt lat="43.612025" lon="12.3256733"><ele>727.0</ele><time>2026-05-02T07:56:00.785Z</time></trkpt><trkpt lat="43.6119567" lon="12.3255767"><ele>727.6666666666667</ele><time>2026-05-02T07:56:01.785Z</time></trkpt><trkpt lat="43.611885" lon="12.325505"><ele>728.3333333333334</ele><time>2026-05-02T07:56:02.785Z</time></trkpt><trkpt lat="43.6118133" lon="12.3254533"><ele>729.0</ele><time>2026-05-02T07:56:03.79Z</time></trkpt><trkpt lat="43.61174" lon="12.3254317"><ele>729.6666666666666</ele><time>2026-05-02T07:56:04.786Z</time></trkpt><trkpt lat="43.6116617" lon="12.3254367"><ele>730.3333333333333</ele><time>2026-05-02T07:56:05.788Z</time></trkpt><trkpt lat="43.6115867" lon="12.32548"><ele>731.0</ele><time>2026-05-02T07:56:06.789Z</time></trkpt><trkpt lat="43.6115117" lon="12.325535"><ele>726.8</ele><time>2026-05-02T07:56:07.785Z</time></trkpt><trkpt lat="43.611435" lon="12.3256333"><ele>722.5999999999999</ele><time>2026-05-02T07:56:08.785Z</time></trkpt><trkpt lat="43.61137" lon="12.32573"><ele>718.4</ele><time>2026-05-02T07:56:09.785Z</time></trkpt><trkpt lat="43.611315" lon="12.3258167"><ele>714.2</ele><time>2026-05-02T07:56:10.788Z</time></trkpt><trkpt lat="43.6112633" lon="12.325885"><ele>710.0</ele><time>2026-05-02T07:56:11.789Z</time></trkpt><trkpt lat="43.6111783" lon="12.3259867"><ele>709.6666666666666</ele><time>2026-05-02T07:56:13.789Z</time></trkpt><trkpt lat="43.61111" lon="12.3260217"><ele>709.3333333333333</ele><time>2026-05-02T07:56:15.789Z</time></trkpt><trkpt lat="43.6110417" lon="12.3259717"><ele>709.0</ele><time>2026-05-02T07:56:17.786Z</time></trkpt><trkpt lat="43.610965" lon="12.325855"><ele>708.6666666666666</ele><time>2026-05-02T07:56:19.785Z</time></trkpt><trkpt lat="43.6109183" lon="12.3257867"><ele>708.3333333333334</ele><time>2026-05-02T07:56:20.791Z</time></trkpt><trkpt lat="43.6108633" lon="12.3257083"><ele>708.0</ele><time>2026-05-02T07:56:21.789Z</time></trkpt><trkpt lat="43.6108083" lon="12.325625"><ele>711.2</ele><time>2026-05-02T07:56:22.79Z</time></trkpt><trkpt lat="43.6107517" lon="12.32553"><ele>714.4</ele><time>2026-05-02T07:56:23.788Z</time></trkpt><trkpt lat="43.610695" lon="12.3254217"><ele>717.6</ele><time>2026-05-02T07:56:24.789Z</time></trkpt><trkpt lat="43.61064" lon="12.325305"><ele>720.8000000000001</ele><time>2026-05-02T07:56:25.789Z</time></trkpt><trkpt lat="43.6105917" lon="12.325185"><ele>724.0</ele><time>2026-05-02T07:56:26.785Z</time></trkpt><trkpt lat="43.610545" lon="12.32507"><ele>724.0</ele><time>2026-05-02T07:56:27.786Z</time></trkpt><trkpt lat="43.610505" lon="12.3249567"><ele>724.0</ele><time>2026-05-02T07:56:28.786Z</time></trkpt><trkpt lat="43.6104717" lon="12.3248433"><ele>724.0</ele><time>2026-05-02T07:56:29.787Z</time></trkpt><trkpt lat="43.61044" lon="12.3247383"><ele>724.0</ele><time>2026-05-02T07:56:30.786Z</time></trkpt><trkpt lat="43.61041" lon="12.3246533"><ele>724.0</ele><time>2026-05-02T07:56:31.786Z</time></trkpt><trkpt lat="43.6103233" lon="12.3245683"><ele>724.0</ele><time>2026-05-02T07:56:33.79Z</time></trkpt><trkpt lat="43.610195" lon="12.3245967"><ele>724.25</ele><time>2026-05-02T07:56:35.789Z</time></trkpt><trkpt lat="43.6100983" lon="12.3246483"><ele>724.5</ele><time>2026-05-02T07:56:36.785Z</time></trkpt><trkpt lat="43.609975" lon="12.3247083"><ele>724.75</ele><time>2026-05-02T07:56:37.786Z</time></trkpt><trkpt lat="43.6098717" lon="12.3247367"><ele>725.0</ele><time>2026-05-02T07:56:38.787Z</time></trkpt><trkpt lat="43.6097517" lon="12.324745"><ele>724.5</ele><time>2026-05-02T07:56:39.786Z</time></trkpt><trkpt lat="43.6096167" lon="12.32475"><ele>724.0</ele><time>2026-05-02T07:56:40.787Z</time></trkpt><trkpt lat="43.6094817" lon="12.3247367"><ele>723.5</ele><time>2026-05-02T07:56:41.787Z</time></trkpt><trkpt lat="43.6093567" lon="12.3247033"><ele>723.0</ele><time>2026-05-02T07:56:42.789Z</time></trkpt><trkpt lat="43.609235" lon="12.32465"><ele>723.0</ele><time>2026-05-02T07:56:43.789Z</time></trkpt><trkpt lat="43.609135" lon="12.324595"><ele>723.0</ele><time>2026-05-02T07:56:44.788Z</time></trkpt><trkpt lat="43.6090367" lon="12.3245567"><ele>723.0</ele><time>2026-05-02T07:56:45.787Z</time></trkpt><trkpt lat="43.6089367" lon="12.3245433"><ele>723.0</ele><time>2026-05-02T07:56:46.788Z</time></trkpt><trkpt lat="43.6088283" lon="12.3245683"><ele>723.0</ele><time>2026-05-02T07:56:47.791Z</time></trkpt><trkpt lat="43.6087183" lon="12.3246083"><ele>723.0</ele><time>2026-05-02T07:56:48.785Z</time></trkpt><trkpt lat="43.6086217" lon="12.3246483"><ele>723.0</ele><time>2026-05-02T07:56:49.79Z</time></trkpt><trkpt lat="43.6085267" lon="12.3246767"><ele>723.0</ele><time>2026-05-02T07:56:50.786Z</time></trkpt><trkpt lat="43.6084317" lon="12.3246817"><ele>723.0</ele><time>2026-05-02T07:56:51.785Z</time></trkpt><trkpt lat="43.6083367" lon="12.324665"><ele>723.0</ele><time>2026-05-02T07:56:52.786Z</time></trkpt><trkpt lat="43.6082433" lon="12.324625"><ele>723.0</ele><time>2026-05-02T07:56:53.786Z</time></trkpt><trkpt lat="43.60815" lon="12.3245583"><ele>723.0</ele><time>2026-05-02T07:56:54.786Z</time></trkpt><trkpt lat="43.608065" lon="12.3244733"><ele>723.0</ele><time>2026-05-02T07:56:55.789Z</time></trkpt><trkpt lat="43.60798" lon="12.3244"><ele>723.0</ele><time>2026-05-02T07:56:56.786Z</time></trkpt><trkpt lat="43.6078917" lon="12.32434"><ele>723.0</ele><time>2026-05-02T07:56:57.785Z</time></trkpt><trkpt lat="43.6077917" lon="12.3243017"><ele>721.25</ele><time>2026-05-02T07:56:58.788Z</time></trkpt><trkpt lat="43.6076867" lon="12.32428"><ele>719.5</ele><time>2026-05-02T07:56:59.788Z</time></trkpt><trkpt lat="43.6075717" lon="12.32427"><ele>717.75</ele><time>2026-05-02T07:57:00.787Z</time></trkpt><trkpt lat="43.60745" lon="12.324275"><ele>716.0</ele><time>2026-05-02T07:57:01.786Z</time></trkpt><trkpt lat="43.6073433" lon="12.32428"><ele>716.0</ele><time>2026-05-02T07:57:02.786Z</time></trkpt><trkpt lat="43.60724" lon="12.32427"><ele>716.0</ele><time>2026-05-02T07:57:03.786Z</time></trkpt><trkpt lat="43.6071517" lon="12.32424"><ele>716.0</ele><time>2026-05-02T07:57:04.79Z</time></trkpt><trkpt lat="43.6070733" lon="12.3241867"><ele>716.0</ele><time>2026-05-02T07:57:05.786Z</time></trkpt><trkpt lat="43.6070017" lon="12.324115"><ele>716.0</ele><time>2026-05-02T07:57:06.785Z</time></trkpt><trkpt lat="43.6069233" lon="12.324015"><ele>716.0</ele><time>2026-05-02T07:57:07.79Z</time></trkpt><trkpt lat="43.6068533" lon="12.3239033"><ele>716.0</ele><time>2026-05-02T07:57:08.789Z</time></trkpt><trkpt lat="43.6067967" lon="12.3238017"><ele>716.0</ele><time>2026-05-02T07:57:09.79Z</time></trkpt><trkpt lat="43.6067633" lon="12.3237033"><ele>716.0</ele><time>2026-05-02T07:57:10.79Z</time></trkpt><trkpt lat="43.60675" lon="12.3236"><ele>716.0</ele><time>2026-05-02T07:57:11.787Z</time></trkpt><trkpt lat="43.6067567" lon="12.3234883"><ele>716.0</ele><time>2026-05-02T07:57:12.789Z</time></trkpt><trkpt lat="43.6067533" lon="12.32337"><ele>717.0</ele><time>2026-05-02T07:57:13.789Z</time></trkpt><trkpt lat="43.6067383" lon="12.3232583"><ele>718.0</ele><time>2026-05-02T07:57:14.791Z</time></trkpt><trkpt lat="43.60671" lon="12.32316"><ele>719.0</ele><time>2026-05-02T07:57:15.789Z</time></trkpt><trkpt lat="43.6066517" lon="12.32309"><ele>720.0</ele><time>2026-05-02T07:57:16.79Z</time></trkpt><trkpt lat="43.6065783" lon="12.3230217"><ele>721.0</ele><time>2026-05-02T07:57:17.789Z</time></trkpt><trkpt lat="43.6065067" lon="12.3229317"><ele>722.0</ele><time>2026-05-02T07:57:18.789Z</time></trkpt><trkpt lat="43.6064417" lon="12.3228167"><ele>722.5</ele><time>2026-05-02T07:57:19.789Z</time></trkpt><trkpt lat="43.6064033" lon="12.3226717"><ele>723.0</ele><time>2026-05-02T07:57:20.785Z</time></trkpt><trkpt lat="43.60637" lon="12.3225133"><ele>723.5</ele><time>2026-05-02T07:57:21.787Z</time></trkpt><trkpt lat="43.6063483" lon="12.322345"><ele>724.0</ele><time>2026-05-02T07:57:22.787Z</time></trkpt><trkpt lat="43.6063167" lon="12.3221917"><ele>727.2</ele><time>2026-05-02T07:57:23.786Z</time></trkpt><trkpt lat="43.6062817" lon="12.322055"><ele>730.4000000000001</ele><time>2026-05-02T07:57:24.79Z</time></trkpt><trkpt lat="43.606225" lon="12.3219333"><ele>733.6</ele><time>2026-05-02T07:57:25.787Z</time></trkpt><trkpt lat="43.60616" lon="12.3218133"><ele>736.8</ele><time>2026-05-02T07:57:26.786Z</time></trkpt><trkpt lat="43.6060917" lon="12.3216917"><ele>740.0</ele><time>2026-05-02T07:57:27.786Z</time></trkpt><trkpt lat="43.6060317" lon="12.3215583"><ele>740.75</ele><time>2026-05-02T07:57:28.786Z</time></trkpt><trkpt lat="43.6059733" lon="12.3214067"><ele>741.5</ele><time>2026-05-02T07:57:29.789Z</time></trkpt><trkpt lat="43.6059267" lon="12.3212383"><ele>742.25</ele><time>2026-05-02T07:57:30.788Z</time></trkpt><trkpt lat="43.6058733" lon="12.321085"><ele>743.0</ele><time>2026-05-02T07:57:31.787Z</time></trkpt><trkpt lat="43.6058033" lon="12.3209517"><ele>743.25</ele><time>2026-05-02T07:57:32.786Z</time></trkpt><trkpt lat="43.6057167" lon="12.32083"><ele>743.5</ele><time>2026-05-02T07:57:33.787Z</time></trkpt><trkpt lat="43.6056033" lon="12.3207133"><ele>743.75</ele><time>2026-05-02T07:57:34.786Z</time></trkpt><trkpt lat="43.6054783" lon="12.320595"><ele>744.0</ele><time>2026-05-02T07:57:35.79Z</time></trkpt><trkpt lat="43.6053583" lon="12.320485"><ele>747.25</ele><time>2026-05-02T07:57:36.786Z</time></trkpt><trkpt lat="43.6052517" lon="12.3203767"><ele>750.5</ele><time>2026-05-02T07:57:37.787Z</time></trkpt><trkpt lat="43.6051767" lon="12.320255"><ele>753.75</ele><time>2026-05-02T07:57:38.787Z</time></trkpt><trkpt lat="43.605125" lon="12.32011"><ele>757.0</ele><time>2026-05-02T07:57:39.787Z</time></trkpt><trkpt lat="43.6050833" lon="12.3199533"><ele>757.0</ele><time>2026-05-02T07:57:40.787Z</time></trkpt><trkpt lat="43.605025" lon="12.319805"><ele>757.0</ele><time>2026-05-02T07:57:41.79Z</time></trkpt><trkpt lat="43.6049733" lon="12.31967"><ele>757.0</ele><time>2026-05-02T07:57:42.789Z</time></trkpt><trkpt lat="43.6049483" lon="12.3195467"><ele>757.0</ele><time>2026-05-02T07:57:43.786Z</time></trkpt><trkpt lat="43.60493" lon="12.31944"><ele>757.0</ele><time>2026-05-02T07:57:44.786Z</time></trkpt><trkpt lat="43.604935" lon="12.3193233"><ele>757.2</ele><time>2026-05-02T07:57:45.786Z</time></trkpt><trkpt lat="43.6049767" lon="12.3191883"><ele>757.4000000000001</ele><time>2026-05-02T07:57:46.786Z</time></trkpt><trkpt lat="43.6050267" lon="12.3190667"><ele>757.5999999999999</ele><time>2026-05-02T07:57:47.787Z</time></trkpt><trkpt lat="43.6050833" lon="12.3189633"><ele>757.8</ele><time>2026-05-02T07:57:48.787Z</time></trkpt><trkpt lat="43.6051183" lon="12.3188667"><ele>758.0</ele><time>2026-05-02T07:57:50.791Z</time></trkpt><trkpt lat="43.6050767" lon="12.3189683"><ele>758.0</ele><time>2026-05-02T07:57:54.786Z</time></trkpt><trkpt lat="43.604975" lon="12.319065"><ele>758.0</ele><time>2026-05-02T07:57:56.787Z</time></trkpt><trkpt lat="43.6049" lon="12.31911"><ele>758.0</ele><time>2026-05-02T07:57:57.786Z</time></trkpt><trkpt lat="43.6048117" lon="12.3191517"><ele>758.0</ele><time>2026-05-02T07:57:58.787Z</time></trkpt><trkpt lat="43.60474" lon="12.319175"><ele>758.0</ele><time>2026-05-02T07:57:59.786Z</time></trkpt><trkpt lat="43.6046717" lon="12.31919"><ele>758.0</ele><time>2026-05-02T07:58:00.786Z</time></trkpt><trkpt lat="43.6047067" lon="12.3191033"><ele>758.0</ele><time>2026-05-02T07:58:02.786Z</time></trkpt><trkpt lat="43.6047817" lon="12.3190233"><ele>758.0</ele><time>2026-05-02T07:58:03.789Z</time></trkpt><trkpt lat="43.6048517" lon="12.3189267"><ele>758.0</ele><time>2026-05-02T07:58:04.789Z</time></trkpt><trkpt lat="43.6049067" lon="12.31882"><ele>758.0</ele><time>2026-05-02T07:58:05.789Z</time></trkpt><trkpt lat="43.6049367" lon="12.3187117"><ele>758.0</ele><time>2026-05-02T07:58:06.789Z</time></trkpt><trkpt lat="43.60495" lon="12.3185833"><ele>760.0</ele><time>2026-05-02T07:58:07.787Z</time></trkpt><trkpt lat="43.604945" lon="12.3184567"><ele>762.0</ele><time>2026-05-02T07:58:08.787Z</time></trkpt><trkpt lat="43.604895" lon="12.318335"><ele>764.0</ele><time>2026-05-02T07:58:09.787Z</time></trkpt><trkpt lat="43.6048267" lon="12.3182"><ele>766.0</ele><time>2026-05-02T07:58:10.79Z</time></trkpt><trkpt lat="43.6047467" lon="12.3180583"><ele>768.0</ele><time>2026-05-02T07:58:11.786Z</time></trkpt><trkpt lat="43.6046817" lon="12.317905"><ele>771.0</ele><time>2026-05-02T07:58:12.789Z</time></trkpt><trkpt lat="43.60462" lon="12.31775"><ele>774.0</ele><time>2026-05-02T07:58:13.786Z</time></trkpt><trkpt lat="43.604575" lon="12.3175933"><ele>777.0</ele><time>2026-05-02T07:58:14.787Z</time></trkpt><trkpt lat="43.6045283" lon="12.3174467"><ele>780.0</ele><time>2026-05-02T07:58:15.787Z</time></trkpt><trkpt lat="43.6044867" lon="12.3173033"><ele>784.5</ele><time>2026-05-02T07:58:16.787Z</time></trkpt><trkpt lat="43.6044467" lon="12.31715"><ele>789.0</ele><time>2026-05-02T07:58:17.789Z</time></trkpt><trkpt lat="43.6044217" lon="12.317"><ele>793.5</ele><time>2026-05-02T07:58:18.788Z</time></trkpt><trkpt lat="43.604405" lon="12.3168383"><ele>798.0</ele><time>2026-05-02T07:58:19.787Z</time></trkpt><trkpt lat="43.6043983" lon="12.31666"><ele>798.0</ele><time>2026-05-02T07:58:20.787Z</time></trkpt><trkpt lat="43.6044017" lon="12.31649"><ele>798.0</ele><time>2026-05-02T07:58:21.788Z</time></trkpt><trkpt lat="43.6044217" lon="12.3163383"><ele>798.0</ele><time>2026-05-02T07:58:22.79Z</time></trkpt><trkpt lat="43.6044467" lon="12.31621"><ele>798.0</ele><time>2026-05-02T07:58:23.789Z</time></trkpt><trkpt lat="43.6044833" lon="12.31612"><ele>798.0</ele><time>2026-05-02T07:58:24.787Z</time></trkpt><trkpt lat="43.6045783" lon="12.31605"><ele>799.1666666666666</ele><time>2026-05-02T07:58:26.786Z</time></trkpt><trkpt lat="43.604655" lon="12.3160167"><ele>800.3333333333333</ele><time>2026-05-02T07:58:28.786Z</time></trkpt><trkpt lat="43.6046283" lon="12.3159"><ele>801.5</ele><time>2026-05-02T07:58:31.786Z</time></trkpt><trkpt lat="43.6045417" lon="12.31587"><ele>802.6666666666666</ele><time>2026-05-02T07:58:32.787Z</time></trkpt><trkpt lat="43.60448" lon="12.3158433"><ele>803.8333333333333</ele><time>2026-05-02T07:58:33.79Z</time></trkpt><trkpt lat="43.604405" lon="12.3158383"><ele>805.0</ele><time>2026-05-02T07:58:34.787Z</time></trkpt><trkpt lat="43.604295" lon="12.3158867"><ele>805.0</ele><time>2026-05-02T07:58:35.786Z</time></trkpt><trkpt lat="43.60421" lon="12.3159433"><ele>805.0</ele><time>2026-05-02T07:58:36.787Z</time></trkpt><trkpt lat="43.6041433" lon="12.3160067"><ele>805.0</ele><time>2026-05-02T07:58:37.786Z</time></trkpt><trkpt lat="43.604085" lon="12.3160517"><ele>805.0</ele><time>2026-05-02T07:58:38.787Z</time></trkpt><trkpt lat="43.6040033" lon="12.3160683"><ele>805.0</ele><time>2026-05-02T07:58:40.786Z</time></trkpt><trkpt lat="43.60403" lon="12.3158833"><ele>805.0</ele><time>2026-05-02T07:58:43.786Z</time></trkpt><trkpt lat="43.6040767" lon="12.315745"><ele>805.0</ele><time>2026-05-02T07:58:44.787Z</time></trkpt><trkpt lat="43.604135" lon="12.31559"><ele>805.0</ele><time>2026-05-02T07:58:45.786Z</time></trkpt><trkpt lat="43.6041917" lon="12.3154417"><ele>805.0</ele><time>2026-05-02T07:58:46.786Z</time></trkpt><trkpt lat="43.604245" lon="12.31532"><ele>807.9999999999999</ele><time>2026-05-02T07:58:47.787Z</time></trkpt><trkpt lat="43.6043117" lon="12.31523"><ele>811.0</ele><time>2026-05-02T07:58:48.786Z</time></trkpt><trkpt lat="43.6043783" lon="12.3151833"><ele>814.0</ele><time>2026-05-02T07:58:49.786Z</time></trkpt><trkpt lat="43.6044417" lon="12.315185"><ele>817.0</ele><time>2026-05-02T07:58:50.789Z</time></trkpt><trkpt lat="43.6045067" lon="12.315265"><ele>819.9999999999999</ele><time>2026-05-02T07:58:51.79Z</time></trkpt><trkpt lat="43.60457" lon="12.3153417"><ele>823.0</ele><time>2026-05-02T07:58:52.789Z</time></trkpt><trkpt lat="43.6046433" lon="12.3153883"><ele>824.3333333333333</ele><time>2026-05-02T07:58:53.79Z</time></trkpt><trkpt lat="43.6047167" lon="12.3153933"><ele>825.6666666666666</ele><time>2026-05-02T07:58:54.789Z</time></trkpt><trkpt lat="43.6047883" lon="12.31537"><ele>827.0</ele><time>2026-05-02T07:58:55.789Z</time></trkpt><trkpt lat="43.6048717" lon="12.3153317"><ele>828.3333333333333</ele><time>2026-05-02T07:58:56.788Z</time></trkpt><trkpt lat="43.6049583" lon="12.3153017"><ele>829.6666666666666</ele><time>2026-05-02T07:58:57.786Z</time></trkpt><trkpt lat="43.6050483" lon="12.3152883"><ele>831.0</ele><time>2026-05-02T07:58:58.786Z</time></trkpt><trkpt lat="43.6051233" lon="12.31531"><ele>831.0</ele><time>2026-05-02T07:58:59.786Z</time></trkpt><trkpt lat="43.6051917" lon="12.3153667"><ele>831.0</ele><time>2026-05-02T07:59:00.787Z</time></trkpt><trkpt lat="43.6052567" lon="12.3154583"><ele>831.0</ele><time>2026-05-02T07:59:01.786Z</time></trkpt><trkpt lat="43.6053" lon="12.3155833"><ele>831.0</ele><time>2026-05-02T07:59:02.786Z</time></trkpt><trkpt lat="43.6053333" lon="12.3157017"><ele>831.0</ele><time>2026-05-02T07:59:03.789Z</time></trkpt><trkpt lat="43.6053667" lon="12.3158217"><ele>827.3333333333334</ele><time>2026-05-02T07:59:04.789Z</time></trkpt><trkpt lat="43.6054017" lon="12.3159117"><ele>823.6666666666667</ele><time>2026-05-02T07:59:05.786Z</time></trkpt><trkpt lat="43.6054483" lon="12.3159733"><ele>820.0</ele><time>2026-05-02T07:59:06.789Z</time></trkpt><trkpt lat="43.6055117" lon="12.3159917"><ele>816.3333333333334</ele><time>2026-05-02T07:59:07.786Z</time></trkpt><trkpt lat="43.6055733" lon="12.315965"><ele>812.6666666666667</ele><time>2026-05-02T07:59:08.788Z</time></trkpt><trkpt lat="43.6056433" lon="12.31586"><ele>809.0</ele><time>2026-05-02T07:59:09.786Z</time></trkpt><trkpt lat="43.605705" lon="12.3157533"><ele>809.0</ele><time>2026-05-02T07:59:10.786Z</time></trkpt><trkpt lat="43.6057583" lon="12.3156317"><ele>809.0</ele><time>2026-05-02T07:59:11.789Z</time></trkpt><trkpt lat="43.6058067" lon="12.315495"><ele>809.0</ele><time>2026-05-02T07:59:12.788Z</time></trkpt><trkpt lat="43.6058417" lon="12.315345"><ele>809.0</ele><time>2026-05-02T07:59:13.786Z</time></trkpt><trkpt lat="43.6058683" lon="12.3151833"><ele>809.0</ele><time>2026-05-02T07:59:14.786Z</time></trkpt><trkpt lat="43.6058883" lon="12.3150133"><ele>814.75</ele><time>2026-05-02T07:59:15.786Z</time></trkpt><trkpt lat="43.6059083" lon="12.3148383"><ele>820.5</ele><time>2026-05-02T07:59:16.786Z</time></trkpt><trkpt lat="43.6059233" lon="12.31467"><ele>826.25</ele><time>2026-05-02T07:59:17.787Z</time></trkpt><trkpt lat="43.6059433" lon="12.3145183"><ele>832.0</ele><time>2026-05-02T07:59:18.786Z</time></trkpt><trkpt lat="43.6059717" lon="12.314405"><ele>834.3333333333333</ele><time>2026-05-02T07:59:19.786Z</time></trkpt><trkpt lat="43.606005" lon="12.3143183"><ele>836.6666666666666</ele><time>2026-05-02T07:59:20.788Z</time></trkpt><trkpt lat="43.606045" lon="12.3142417"><ele>839.0</ele><time>2026-05-02T07:59:21.785Z</time></trkpt><trkpt lat="43.6061533" lon="12.31422"><ele>841.3333333333333</ele><time>2026-05-02T07:59:23.786Z</time></trkpt><trkpt lat="43.6062133" lon="12.3141683"><ele>843.6666666666666</ele><time>2026-05-02T07:59:24.789Z</time></trkpt><trkpt lat="43.6062733" lon="12.3140983"><ele>846.0</ele><time>2026-05-02T07:59:25.788Z</time></trkpt><trkpt lat="43.6063383" lon="12.3140417"><ele>846.0</ele><time>2026-05-02T07:59:26.785Z</time></trkpt><trkpt lat="43.6064" lon="12.3139983"><ele>846.0</ele><time>2026-05-02T07:59:27.785Z</time></trkpt><trkpt lat="43.6064717" lon="12.31398"><ele>846.0</ele><time>2026-05-02T07:59:28.785Z</time></trkpt><trkpt lat="43.6065467" lon="12.3140217"><ele>846.0</ele><time>2026-05-02T07:59:29.785Z</time></trkpt><trkpt lat="43.6066067" lon="12.3140683"><ele>846.0</ele><time>2026-05-02T07:59:30.785Z</time></trkpt><trkpt lat="43.6066717" lon="12.3140883"><ele>846.0</ele><time>2026-05-02T07:59:31.785Z</time></trkpt><trkpt lat="43.60674" lon="12.3140933"><ele>846.0</ele><time>2026-05-02T07:59:32.787Z</time></trkpt><trkpt lat="43.606805" lon="12.3140633"><ele>846.0</ele><time>2026-05-02T07:59:33.786Z</time></trkpt><trkpt lat="43.6068867" lon="12.3140183"><ele>846.0</ele><time>2026-05-02T07:59:34.787Z</time></trkpt><trkpt lat="43.6069783" lon="12.3139817"><ele>846.0</ele><time>2026-05-02T07:59:35.789Z</time></trkpt><trkpt lat="43.6070717" lon="12.31396"><ele>846.0</ele><time>2026-05-02T07:59:36.79Z</time></trkpt><trkpt lat="43.60718" lon="12.3139183"><ele>846.0</ele><time>2026-05-02T07:59:37.786Z</time></trkpt><trkpt lat="43.6072783" lon="12.313875"><ele>848.1999999999999</ele><time>2026-05-02T07:59:38.787Z</time></trkpt><trkpt lat="43.6073667" lon="12.3138433"><ele>850.4</ele><time>2026-05-02T07:59:39.786Z</time></trkpt><trkpt lat="43.6074517" lon="12.3138333"><ele>852.6</ele><time>2026-05-02T07:59:40.786Z</time></trkpt><trkpt lat="43.6075283" lon="12.31385"><ele>854.8</ele><time>2026-05-02T07:59:41.786Z</time></trkpt><trkpt lat="43.6075933" lon="12.3139"><ele>857.0</ele><time>2026-05-02T07:59:42.787Z</time></trkpt><trkpt lat="43.6077283" lon="12.3142117"><ele>863.5</ele><time>2026-05-02T07:59:45.448Z</time></trkpt><trkpt lat="43.60789" lon="12.3143033"><ele>870.0</ele><time>2026-05-02T07:59:47.787Z</time></trkpt><trkpt lat="43.6079233" lon="12.314385"><ele>876.5</ele><time>2026-05-02T07:59:48.785Z</time></trkpt><trkpt lat="43.6079417" lon="12.31454"><ele>883.0</ele><time>2026-05-02T07:59:50.79Z</time></trkpt><trkpt lat="43.6079033" lon="12.31469"><ele>882.9999999999999</ele><time>2026-05-02T07:59:52.786Z</time></trkpt><trkpt lat="43.60788" lon="12.3147883"><ele>883.0</ele><time>2026-05-02T07:59:53.785Z</time></trkpt><trkpt lat="43.6079" lon="12.3148983"><ele>883.0</ele><time>2026-05-02T07:59:55.785Z</time></trkpt><trkpt lat="43.6079817" lon="12.3148233"><ele>883.0</ele><time>2026-05-02T07:59:58.787Z</time></trkpt><trkpt lat="43.6080217" lon="12.314725"><ele>882.9999999999999</ele><time>2026-05-02T07:59:59.785Z</time></trkpt><trkpt lat="43.608075" lon="12.3146083"><ele>883.0</ele><time>2026-05-02T08:00:00.785Z</time></trkpt><trkpt lat="43.6081117" lon="12.3144767"><ele>883.0</ele><time>2026-05-02T08:00:01.786Z</time></trkpt><trkpt lat="43.6081367" lon="12.3143417"><ele>883.0</ele><time>2026-05-02T08:00:02.785Z</time></trkpt><trkpt lat="43.6081383" lon="12.31422"><ele>883.0</ele><time>2026-05-02T08:00:03.786Z</time></trkpt><trkpt lat="43.6081183" lon="12.314105"><ele>883.0</ele><time>2026-05-02T08:00:04.786Z</time></trkpt><trkpt lat="43.6080517" lon="12.313995"><ele>883.0</ele><time>2026-05-02T08:00:05.787Z</time></trkpt><trkpt lat="43.6079883" lon="12.3138933"><ele>882.3333333333333</ele><time>2026-05-02T08:00:06.785Z</time></trkpt><trkpt lat="43.60792" lon="12.3137983"><ele>881.6666666666666</ele><time>2026-05-02T08:00:07.785Z</time></trkpt><trkpt lat="43.6078633" lon="12.31369"><ele>881.0</ele><time>2026-05-02T08:00:08.785Z</time></trkpt><trkpt lat="43.6078317" lon="12.3135683"><ele>880.3333333333333</ele><time>2026-05-02T08:00:09.785Z</time></trkpt><trkpt lat="43.6078167" lon="12.3134567"><ele>879.6666666666666</ele><time>2026-05-02T08:00:10.785Z</time></trkpt><trkpt lat="43.6077883" lon="12.3133683"><ele>879.0</ele><time>2026-05-02T08:00:11.788Z</time></trkpt><trkpt lat="43.6077317" lon="12.3132467"><ele>877.8333333333334</ele><time>2026-05-02T08:00:13.786Z</time></trkpt><trkpt lat="43.6076733" lon="12.3131717"><ele>876.6666666666667</ele><time>2026-05-02T08:00:15.786Z</time></trkpt><trkpt lat="43.6076033" lon="12.31315"><ele>875.5</ele><time>2026-05-02T08:00:35.024Z</time></trkpt><trkpt lat="43.6075333" lon="12.3131733"><ele>874.3333333333334</ele><time>2026-05-02T08:00:36.787Z</time></trkpt><trkpt lat="43.6074167" lon="12.31319"><ele>873.1666666666667</ele><time>2026-05-02T08:00:38.785Z</time></trkpt><trkpt lat="43.6073433" lon="12.313205"><ele>872.0</ele><time>2026-05-02T08:00:39.785Z</time></trkpt><trkpt lat="43.6072767" lon="12.31322"><ele>872.0000000000001</ele><time>2026-05-02T08:00:40.787Z</time></trkpt><trkpt lat="43.607175" lon="12.3132533"><ele>872.0</ele><time>2026-05-02T08:00:42.786Z</time></trkpt><trkpt lat="43.6070517" lon="12.3132817"><ele>872.0</ele><time>2026-05-02T08:00:44.786Z</time></trkpt><trkpt lat="43.60698" lon="12.31328"><ele>872.0</ele><time>2026-05-02T08:00:45.785Z</time></trkpt><trkpt lat="43.6069117" lon="12.313265"><ele>872.0000000000001</ele><time>2026-05-02T08:00:46.785Z</time></trkpt><trkpt lat="43.6068467" lon="12.3132317"><ele>872.0</ele><time>2026-05-02T08:00:47.786Z</time></trkpt><trkpt lat="43.6067767" lon="12.3131817"><ele>871.8333333333334</ele><time>2026-05-02T08:00:48.785Z</time></trkpt><trkpt lat="43.6067067" lon="12.3131367"><ele>871.6666666666667</ele><time>2026-05-02T08:00:49.785Z</time></trkpt><trkpt lat="43.606635" lon="12.31311"><ele>871.5</ele><time>2026-05-02T08:00:50.787Z</time></trkpt><trkpt lat="43.6065533" lon="12.313105"><ele>871.3333333333333</ele><time>2026-05-02T08:00:51.785Z</time></trkpt><trkpt lat="43.6064667" lon="12.3131133"><ele>871.1666666666666</ele><time>2026-05-02T08:00:52.787Z</time></trkpt><trkpt lat="43.6063767" lon="12.3131233"><ele>871.0</ele><time>2026-05-02T08:00:53.786Z</time></trkpt><trkpt lat="43.6062867" lon="12.31314"><ele>870.9999999999999</ele><time>2026-05-02T08:00:54.786Z</time></trkpt><trkpt lat="43.6062" lon="12.3131667"><ele>871.0</ele><time>2026-05-02T08:00:55.785Z</time></trkpt><trkpt lat="43.6061183" lon="12.3132017"><ele>871.0</ele><time>2026-05-02T08:00:56.79Z</time></trkpt><trkpt lat="43.6060317" lon="12.3132433"><ele>871.0</ele><time>2026-05-02T08:00:57.785Z</time></trkpt><trkpt lat="43.6059533" lon="12.3132783"><ele>870.9999999999999</ele><time>2026-05-02T08:00:58.786Z</time></trkpt><trkpt lat="43.6058783" lon="12.3132983"><ele>871.0</ele><time>2026-05-02T08:00:59.786Z</time></trkpt><trkpt lat="43.605815" lon="12.313295"><ele>872.1666666666666</ele><time>2026-05-02T08:01:00.785Z</time></trkpt><trkpt lat="43.60575" lon="12.3132817"><ele>873.3333333333333</ele><time>2026-05-02T08:01:01.786Z</time></trkpt><trkpt lat="43.60568" lon="12.31326"><ele>874.5</ele><time>2026-05-02T08:01:02.785Z</time></trkpt><trkpt lat="43.6056033" lon="12.3132317"><ele>875.6666666666667</ele><time>2026-05-02T08:01:03.785Z</time></trkpt><trkpt lat="43.60552" lon="12.313205"><ele>876.8333333333334</ele><time>2026-05-02T08:01:04.786Z</time></trkpt><trkpt lat="43.6054333" lon="12.3131817"><ele>878.0</ele><time>2026-05-02T08:01:05.787Z</time></trkpt><trkpt lat="43.6053483" lon="12.313165"><ele>878.6666666666667</ele><time>2026-05-02T08:01:06.785Z</time></trkpt><trkpt lat="43.60527" lon="12.3131517"><ele>879.3333333333334</ele><time>2026-05-02T08:01:07.786Z</time></trkpt><trkpt lat="43.60519" lon="12.31313"><ele>880.0</ele><time>2026-05-02T08:01:08.787Z</time></trkpt><trkpt lat="43.60511" lon="12.3131"><ele>880.6666666666667</ele><time>2026-05-02T08:01:09.787Z</time></trkpt><trkpt lat="43.6050283" lon="12.3130617"><ele>881.3333333333334</ele><time>2026-05-02T08:01:10.786Z</time></trkpt><trkpt lat="43.604945" lon="12.3130267"><ele>882.0</ele><time>2026-05-02T08:01:11.786Z</time></trkpt><trkpt lat="43.60487" lon="12.3129967"><ele>882.1666666666666</ele><time>2026-05-02T08:01:12.785Z</time></trkpt><trkpt lat="43.6048017" lon="12.312965"><ele>882.3333333333333</ele><time>2026-05-02T08:01:13.786Z</time></trkpt><trkpt lat="43.6047383" lon="12.31293"><ele>882.5</ele><time>2026-05-02T08:01:14.786Z</time></trkpt><trkpt lat="43.604675" lon="12.3128933"><ele>882.6666666666666</ele><time>2026-05-02T08:01:15.785Z</time></trkpt><trkpt lat="43.604615" lon="12.3128583"><ele>882.8333333333333</ele><time>2026-05-02T08:01:16.786Z</time></trkpt><trkpt lat="43.6045" lon="12.3128083"><ele>883.0</ele><time>2026-05-02T08:01:18.786Z</time></trkpt><trkpt lat="43.604385" lon="12.3127683"><ele>884.4</ele><time>2026-05-02T08:01:20.786Z</time></trkpt><trkpt lat="43.6042917" lon="12.3127433"><ele>885.8</ele><time>2026-05-02T08:01:22.786Z</time></trkpt><trkpt lat="43.6041917" lon="12.31271"><ele>887.2</ele><time>2026-05-02T08:01:24.787Z</time></trkpt><trkpt lat="43.6041117" lon="12.312615"><ele>888.6</ele><time>2026-05-02T08:01:26.786Z</time></trkpt><trkpt lat="43.604055" lon="12.3124917"><ele>890.0</ele><time>2026-05-02T08:01:28.786Z</time></trkpt><trkpt lat="43.6039667" lon="12.3124117"><ele>890.0000000000001</ele><time>2026-05-02T08:01:30.786Z</time></trkpt><trkpt lat="43.60386" lon="12.3124067"><ele>890.0</ele><time>2026-05-02T08:01:32.787Z</time></trkpt><trkpt lat="43.6037533" lon="12.31247"><ele>890.0</ele><time>2026-05-02T08:01:34.786Z</time></trkpt><trkpt lat="43.6036983" lon="12.3125133"><ele>890.0</ele><time>2026-05-02T08:01:35.786Z</time></trkpt><trkpt lat="43.6036383" lon="12.3125467"><ele>890.0000000000001</ele><time>2026-05-02T08:01:36.787Z</time></trkpt><trkpt lat="43.6035733" lon="12.3125633"><ele>890.0</ele><time>2026-05-02T08:01:37.786Z</time></trkpt><trkpt lat="43.6035033" lon="12.312545"><ele>891.7142857142858</ele><time>2026-05-02T08:01:38.787Z</time></trkpt><trkpt lat="43.6034383" lon="12.3125283"><ele>893.4285714285713</ele><time>2026-05-02T08:01:39.786Z</time></trkpt><trkpt lat="43.603375" lon="12.31253"><ele>895.1428571428571</ele><time>2026-05-02T08:01:40.786Z</time></trkpt><trkpt lat="43.6033017" lon="12.3125433"><ele>896.8571428571429</ele><time>2026-05-02T08:01:41.787Z</time></trkpt><trkpt lat="43.6032283" lon="12.312565"><ele>898.5714285714287</ele><time>2026-05-02T08:01:42.785Z</time></trkpt><trkpt lat="43.6031567" lon="12.3125983"><ele>900.2857142857142</ele><time>2026-05-02T08:01:43.787Z</time></trkpt><trkpt lat="43.6030933" lon="12.3126567"><ele>902.0</ele><time>2026-05-02T08:01:44.786Z</time></trkpt><trkpt lat="43.6030383" lon="12.3127233"><ele>902.0000000000001</ele><time>2026-05-02T08:01:45.787Z</time></trkpt><trkpt lat="43.60299" lon="12.312785"><ele>902.0</ele><time>2026-05-02T08:01:46.786Z</time></trkpt><trkpt lat="43.6029367" lon="12.312845"><ele>902.0</ele><time>2026-05-02T08:01:47.789Z</time></trkpt><trkpt lat="43.6028817" lon="12.3129033"><ele>902.0</ele><time>2026-05-02T08:01:48.785Z</time></trkpt><trkpt lat="43.6027883" lon="12.3130083"><ele>902.0000000000001</ele><time>2026-05-02T08:01:50.786Z</time></trkpt><trkpt lat="43.6026983" lon="12.3131233"><ele>902.0</ele><time>2026-05-02T08:01:52.786Z</time></trkpt><trkpt lat="43.6026483" lon="12.313195"><ele>904.6666666666667</ele><time>2026-05-02T08:01:53.786Z</time></trkpt><trkpt lat="43.6025917" lon="12.3132717"><ele>907.3333333333334</ele><time>2026-05-02T08:01:54.787Z</time></trkpt><trkpt lat="43.6025317" lon="12.31336"><ele>910.0</ele><time>2026-05-02T08:01:55.786Z</time></trkpt><trkpt lat="43.6024767" lon="12.313455"><ele>912.6666666666667</ele><time>2026-05-02T08:01:56.786Z</time></trkpt><trkpt lat="43.6024267" lon="12.3135383"><ele>915.3333333333334</ele><time>2026-05-02T08:01:57.786Z</time></trkpt><trkpt lat="43.6023767" lon="12.3135933"><ele>918.0</ele><time>2026-05-02T08:01:58.787Z</time></trkpt><trkpt lat="43.6023133" lon="12.313615"><ele>918.0</ele><time>2026-05-02T08:01:59.786Z</time></trkpt><trkpt lat="43.602245" lon="12.3136183"><ele>918.0</ele><time>2026-05-02T08:02:00.786Z</time></trkpt><trkpt lat="43.6021667" lon="12.313595"><ele>918.0</ele><time>2026-05-02T08:02:01.785Z</time></trkpt><trkpt lat="43.6021017" lon="12.3135517"><ele>918.0</ele><time>2026-05-02T08:02:02.786Z</time></trkpt><trkpt lat="43.6020383" lon="12.31351"><ele>918.0</ele><time>2026-05-02T08:02:03.787Z</time></trkpt><trkpt lat="43.6019817" lon="12.3134517"><ele>918.0</ele><time>2026-05-02T08:02:04.786Z</time></trkpt><trkpt lat="43.6019267" lon="12.3133883"><ele>918.0</ele><time>2026-05-02T08:02:05.786Z</time></trkpt><trkpt lat="43.6018717" lon="12.31333"><ele>917.2</ele><time>2026-05-02T08:02:06.785Z</time></trkpt><trkpt lat="43.6017883" lon="12.3132183"><ele>916.4</ele><time>2026-05-02T08:02:08.787Z</time></trkpt><trkpt lat="43.601765" lon="12.3131033"><ele>915.6000000000001</ele><time>2026-05-02T08:02:10.788Z</time></trkpt><trkpt lat="43.6017317" lon="12.3129817"><ele>914.8000000000001</ele><time>2026-05-02T08:02:12.789Z</time></trkpt><trkpt lat="43.6016417" lon="12.3128733"><ele>914.0</ele><time>2026-05-02T08:02:14.789Z</time></trkpt><trkpt lat="43.60156" lon="12.3128317"><ele>914.0000000000001</ele><time>2026-05-02T08:02:16.787Z</time></trkpt><trkpt lat="43.6014883" lon="12.3127917"><ele>914.0</ele><time>2026-05-02T08:02:18.789Z</time></trkpt><trkpt lat="43.6014383" lon="12.3127233"><ele>914.0</ele><time>2026-05-02T08:02:20.785Z</time></trkpt><trkpt lat="43.601365" lon="12.31261"><ele>914.0</ele><time>2026-05-02T08:02:22.787Z</time></trkpt><trkpt lat="43.6013183" lon="12.312535"><ele>914.0000000000001</ele><time>2026-05-02T08:02:23.787Z</time></trkpt><trkpt lat="43.6012583" lon="12.3125"><ele>914.0</ele><time>2026-05-02T08:02:24.786Z</time></trkpt><trkpt lat="43.6011517" lon="12.312425"><ele>913.0</ele><time>2026-05-02T08:02:26.786Z</time></trkpt><trkpt lat="43.6010717" lon="12.3123183"><ele>912.0</ele><time>2026-05-02T08:02:28.786Z</time></trkpt><trkpt lat="43.6010183" lon="12.3121617"><ele>911.0</ele><time>2026-05-02T08:02:30.786Z</time></trkpt><trkpt lat="43.6009567" lon="12.3120167"><ele>910.0</ele><time>2026-05-02T08:02:32.786Z</time></trkpt><trkpt lat="43.60083" lon="12.3119167"><ele>911.4999999999999</ele><time>2026-05-02T08:02:34.786Z</time></trkpt><trkpt lat="43.6007417" lon="12.31188"><ele>913.0</ele><time>2026-05-02T08:02:35.787Z</time></trkpt><trkpt lat="43.6006633" lon="12.31185"><ele>914.5</ele><time>2026-05-02T08:02:36.787Z</time></trkpt><trkpt lat="43.6006" lon="12.311825"><ele>916.0</ele><time>2026-05-02T08:02:37.787Z</time></trkpt><trkpt lat="43.6005033" lon="12.3117217"><ele>917.4999999999999</ele><time>2026-05-02T08:02:39.786Z</time></trkpt><trkpt lat="43.6004583" lon="12.31164"><ele>919.0</ele><time>2026-05-02T08:02:40.786Z</time></trkpt><trkpt lat="43.6004083" lon="12.3115383"><ele>918.9999999999999</ele><time>2026-05-02T08:02:41.788Z</time></trkpt><trkpt lat="43.6003533" lon="12.3114433"><ele>919.0</ele><time>2026-05-02T08:02:42.787Z</time></trkpt><trkpt lat="43.6002983" lon="12.3113583"><ele>919.0</ele><time>2026-05-02T08:02:43.786Z</time></trkpt><trkpt lat="43.60024" lon="12.3112783"><ele>919.0</ele><time>2026-05-02T08:02:44.786Z</time></trkpt><trkpt lat="43.6001667" lon="12.3111917"><ele>918.9999999999999</ele><time>2026-05-02T08:02:45.787Z</time></trkpt><trkpt lat="43.60009" lon="12.3111083"><ele>919.0</ele><time>2026-05-02T08:02:46.786Z</time></trkpt><trkpt lat="43.6000117" lon="12.3110433"><ele>918.6</ele><time>2026-05-02T08:02:47.787Z</time></trkpt><trkpt lat="43.5999367" lon="12.3109933"><ele>918.2</ele><time>2026-05-02T08:02:48.786Z</time></trkpt><trkpt lat="43.599855" lon="12.3109633"><ele>917.8000000000001</ele><time>2026-05-02T08:02:49.786Z</time></trkpt><trkpt lat="43.59977" lon="12.3109517"><ele>917.4000000000001</ele><time>2026-05-02T08:02:50.786Z</time></trkpt><trkpt lat="43.599675" lon="12.3109517"><ele>917.0</ele><time>2026-05-02T08:02:51.786Z</time></trkpt><trkpt lat="43.59957" lon="12.3109567"><ele>917.3333333333334</ele><time>2026-05-02T08:02:52.788Z</time></trkpt><trkpt lat="43.5994733" lon="12.31095"><ele>917.6666666666667</ele><time>2026-05-02T08:02:53.788Z</time></trkpt><trkpt lat="43.5993817" lon="12.3109367"><ele>918.0</ele><time>2026-05-02T08:02:54.789Z</time></trkpt><trkpt lat="43.5992933" lon="12.3109367"><ele>918.3333333333333</ele><time>2026-05-02T08:02:55.786Z</time></trkpt><trkpt lat="43.5992217" lon="12.310965"><ele>918.6666666666666</ele><time>2026-05-02T08:02:56.786Z</time></trkpt><trkpt lat="43.59916" lon="12.3110367"><ele>919.0</ele><time>2026-05-02T08:02:57.788Z</time></trkpt><trkpt lat="43.5991133" lon="12.3111333"><ele>918.9999999999999</ele><time>2026-05-02T08:02:58.787Z</time></trkpt><trkpt lat="43.5990583" lon="12.31121"><ele>919.0</ele><time>2026-05-02T08:02:59.786Z</time></trkpt><trkpt lat="43.5989967" lon="12.3112767"><ele>919.0</ele><time>2026-05-02T08:03:00.786Z</time></trkpt><trkpt lat="43.5989383" lon="12.3113633"><ele>919.0</ele><time>2026-05-02T08:03:01.786Z</time></trkpt><trkpt lat="43.5988817" lon="12.311455"><ele>918.9999999999999</ele><time>2026-05-02T08:03:02.786Z</time></trkpt><trkpt lat="43.59883" lon="12.31155"><ele>919.0</ele><time>2026-05-02T08:03:03.786Z</time></trkpt><trkpt lat="43.5987717" lon="12.31162"><ele>920.6</ele><time>2026-05-02T08:03:04.787Z</time></trkpt><trkpt lat="43.5987067" lon="12.3116417"><ele>922.2</ele><time>2026-05-02T08:03:05.786Z</time></trkpt><trkpt lat="43.5985683" lon="12.3116233"><ele>923.8000000000001</ele><time>2026-05-02T08:03:07.788Z</time></trkpt><trkpt lat="43.5984817" lon="12.3116117"><ele>925.4000000000001</ele><time>2026-05-02T08:03:08.789Z</time></trkpt><trkpt lat="43.5984017" lon="12.311595"><ele>927.0</ele><time>2026-05-02T08:03:09.785Z</time></trkpt><trkpt lat="43.598315" lon="12.31157"><ele>927.9999999999999</ele><time>2026-05-02T08:03:10.789Z</time></trkpt><trkpt lat="43.5982367" lon="12.31156"><ele>929.0</ele><time>2026-05-02T08:03:11.788Z</time></trkpt><trkpt lat="43.598165" lon="12.3115517"><ele>929.9999999999999</ele><time>2026-05-02T08:03:12.788Z</time></trkpt><trkpt lat="43.5981" lon="12.3115333"><ele>930.9999999999999</ele><time>2026-05-02T08:03:13.785Z</time></trkpt><trkpt lat="43.598035" lon="12.311515"><ele>932.0</ele><time>2026-05-02T08:03:14.789Z</time></trkpt><trkpt lat="43.597965" lon="12.3115033"><ele>932.9999999999999</ele><time>2026-05-02T08:03:15.788Z</time></trkpt><trkpt lat="43.5978817" lon="12.31148"><ele>933.9999999999999</ele><time>2026-05-02T08:03:16.788Z</time></trkpt><trkpt lat="43.5977933" lon="12.3114517"><ele>933.6666666666666</ele><time>2026-05-02T08:03:17.785Z</time></trkpt><trkpt lat="43.59772" lon="12.311405"><ele>933.3333333333333</ele><time>2026-05-02T08:03:18.785Z</time></trkpt><trkpt lat="43.5976383" lon="12.31135"><ele>933.0</ele><time>2026-05-02T08:03:19.785Z</time></trkpt><trkpt lat="43.5975633" lon="12.3112833"><ele>932.6666666666667</ele><time>2026-05-02T08:03:20.785Z</time></trkpt><trkpt lat="43.5974917" lon="12.311225"><ele>932.3333333333334</ele><time>2026-05-02T08:03:21.786Z</time></trkpt><trkpt lat="43.597435" lon="12.311175"><ele>932.0</ele><time>2026-05-02T08:03:22.785Z</time></trkpt><trkpt lat="43.5973483" lon="12.31105"><ele>932.0000000000001</ele><time>2026-05-02T08:03:24.785Z</time></trkpt><trkpt lat="43.5972967" lon="12.3109783"><ele>932.0</ele><time>2026-05-02T08:03:25.786Z</time></trkpt><trkpt lat="43.5972367" lon="12.3109083"><ele>932.0</ele><time>2026-05-02T08:03:26.786Z</time></trkpt><trkpt lat="43.597165" lon="12.310835"><ele>932.0</ele><time>2026-05-02T08:03:27.785Z</time></trkpt><trkpt lat="43.5970883" lon="12.3107417"><ele>932.0000000000001</ele><time>2026-05-02T08:03:28.787Z</time></trkpt><trkpt lat="43.5970133" lon="12.3106517"><ele>932.0</ele><time>2026-05-02T08:03:29.785Z</time></trkpt><trkpt lat="43.5969567" lon="12.31058"><ele>932.6666666666667</ele><time>2026-05-02T08:03:30.788Z</time></trkpt><trkpt lat="43.5969067" lon="12.3105267"><ele>933.3333333333334</ele><time>2026-05-02T08:03:31.787Z</time></trkpt><trkpt lat="43.59683" lon="12.3104567"><ele>934.0</ele><time>2026-05-02T08:03:33.786Z</time></trkpt><trkpt lat="43.5967717" lon="12.31042"><ele>934.6666666666667</ele><time>2026-05-02T08:03:35.786Z</time></trkpt><trkpt lat="43.5966867" lon="12.310345"><ele>935.3333333333334</ele><time>2026-05-02T08:12:00.786Z</time></trkpt><trkpt lat="43.5966117" lon="12.31031"><ele>936.0</ele><time>2026-05-02T08:12:02.787Z</time></trkpt><trkpt lat="43.5965" lon="12.31024"><ele>936.0</ele><time>2026-05-02T08:12:04.786Z</time></trkpt><trkpt lat="43.5963917" lon="12.310165"><ele>935.9999999999999</ele><time>2026-05-02T08:12:06.786Z</time></trkpt><trkpt lat="43.5963333" lon="12.3101317"><ele>935.9999999999999</ele><time>2026-05-02T08:12:07.786Z</time></trkpt><trkpt lat="43.59622" lon="12.3100633"><ele>936.0</ele><time>2026-05-02T08:12:09.785Z</time></trkpt><trkpt lat="43.5961083" lon="12.3100167"><ele>936.0</ele><time>2026-05-02T08:12:11.785Z</time></trkpt><trkpt lat="43.5960433" lon="12.3100133"><ele>936.5</ele><time>2026-05-02T08:12:12.785Z</time></trkpt><trkpt lat="43.5959733" lon="12.3100183"><ele>937.0</ele><time>2026-05-02T08:12:13.785Z</time></trkpt><trkpt lat="43.595855" lon="12.3100267"><ele>937.5</ele><time>2026-05-02T08:12:15.785Z</time></trkpt><trkpt lat="43.5957333" lon="12.31"><ele>938.0</ele><time>2026-05-02T08:12:17.785Z</time></trkpt><trkpt lat="43.5956783" lon="12.3099567"><ele>938.5</ele><time>2026-05-02T08:12:18.785Z</time></trkpt><trkpt lat="43.59563" lon="12.3099"><ele>939.0</ele><time>2026-05-02T08:12:19.785Z</time></trkpt><trkpt lat="43.5955783" lon="12.3098383"><ele>939.0</ele><time>2026-05-02T08:12:20.785Z</time></trkpt><trkpt lat="43.5955183" lon="12.30978"><ele>939.0</ele><time>2026-05-02T08:12:21.785Z</time></trkpt><trkpt lat="43.595455" lon="12.309725"><ele>939.0</ele><time>2026-05-02T08:12:22.785Z</time></trkpt><trkpt lat="43.5953833" lon="12.3096683"><ele>939.0</ele><time>2026-05-02T08:12:23.786Z</time></trkpt><trkpt lat="43.59532" lon="12.3096167"><ele>939.0</ele><time>2026-05-02T08:12:24.785Z</time></trkpt><trkpt lat="43.595255" lon="12.309565"><ele>939.0</ele><time>2026-05-02T08:12:25.785Z</time></trkpt><trkpt lat="43.5951833" lon="12.3095133"><ele>936.8333333333334</ele><time>2026-05-02T08:12:26.785Z</time></trkpt><trkpt lat="43.5951117" lon="12.3094817"><ele>934.6666666666667</ele><time>2026-05-02T08:12:27.786Z</time></trkpt><trkpt lat="43.5950267" lon="12.3094817"><ele>932.5</ele><time>2026-05-02T08:12:28.785Z</time></trkpt><trkpt lat="43.5949417" lon="12.3094867"><ele>930.3333333333334</ele><time>2026-05-02T08:12:29.786Z</time></trkpt><trkpt lat="43.59486" lon="12.3094967"><ele>928.1666666666667</ele><time>2026-05-02T08:12:30.786Z</time></trkpt><trkpt lat="43.59478" lon="12.30952"><ele>926.0</ele><time>2026-05-02T08:12:31.785Z</time></trkpt><trkpt lat="43.5946967" lon="12.30954"><ele>926.0000000000001</ele><time>2026-05-02T08:12:32.786Z</time></trkpt><trkpt lat="43.5946133" lon="12.3095417"><ele>926.0</ele><time>2026-05-02T08:12:33.785Z</time></trkpt><trkpt lat="43.59453" lon="12.30953"><ele>926.0</ele><time>2026-05-02T08:12:34.787Z</time></trkpt><trkpt lat="43.5944467" lon="12.309515"><ele>926.0</ele><time>2026-05-02T08:12:35.786Z</time></trkpt><trkpt lat="43.5943683" lon="12.3094983"><ele>926.0000000000001</ele><time>2026-05-02T08:12:36.787Z</time></trkpt><trkpt lat="43.5942917" lon="12.3094817"><ele>926.0</ele><time>2026-05-02T08:12:37.785Z</time></trkpt><trkpt lat="43.5942183" lon="12.3094583"><ele>926.5714285714286</ele><time>2026-05-02T08:12:38.785Z</time></trkpt><trkpt lat="43.5941433" lon="12.3094267"><ele>927.1428571428571</ele><time>2026-05-02T08:12:39.785Z</time></trkpt><trkpt lat="43.5940767" lon="12.3093867"><ele>927.7142857142857</ele><time>2026-05-02T08:12:40.787Z</time></trkpt><trkpt lat="43.59402" lon="12.3093417"><ele>928.2857142857142</ele><time>2026-05-02T08:12:41.785Z</time></trkpt><trkpt lat="43.5939567" lon="12.3093017"><ele>928.8571428571429</ele><time>2026-05-02T08:12:42.786Z</time></trkpt><trkpt lat="43.5938883" lon="12.3092667"><ele>929.4285714285713</ele><time>2026-05-02T08:12:43.786Z</time></trkpt><trkpt lat="43.5938233" lon="12.3092267"><ele>930.0</ele><time>2026-05-02T08:12:44.785Z</time></trkpt><trkpt lat="43.59376" lon="12.3091767"><ele>930.0</ele><time>2026-05-02T08:12:45.785Z</time></trkpt><trkpt lat="43.59371" lon="12.3091183"><ele>930.0</ele><time>2026-05-02T08:12:46.787Z</time></trkpt><trkpt lat="43.593655" lon="12.30907"><ele>930.0</ele><time>2026-05-02T08:12:47.785Z</time></trkpt><trkpt lat="43.5935933" lon="12.3090233"><ele>930.0</ele><time>2026-05-02T08:12:48.785Z</time></trkpt><trkpt lat="43.5935233" lon="12.30899"><ele>930.0</ele><time>2026-05-02T08:12:49.785Z</time></trkpt><trkpt lat="43.5934467" lon="12.3089583"><ele>930.0</ele><time>2026-05-02T08:12:50.785Z</time></trkpt><trkpt lat="43.5933667" lon="12.3089233"><ele>930.0</ele><time>2026-05-02T08:12:51.786Z</time></trkpt><trkpt lat="43.59329" lon="12.3088717"><ele>930.4285714285713</ele><time>2026-05-02T08:12:52.787Z</time></trkpt><trkpt lat="43.593215" lon="12.3088117"><ele>930.8571428571429</ele><time>2026-05-02T08:12:53.786Z</time></trkpt><trkpt lat="43.5931467" lon="12.3087483"><ele>931.2857142857142</ele><time>2026-05-02T08:12:54.787Z</time></trkpt><trkpt lat="43.5930917" lon="12.3086867"><ele>931.7142857142857</ele><time>2026-05-02T08:12:55.786Z</time></trkpt><trkpt lat="43.59304" lon="12.308625"><ele>932.1428571428571</ele><time>2026-05-02T08:12:56.786Z</time></trkpt><trkpt lat="43.592985" lon="12.3085617"><ele>932.5714285714286</ele><time>2026-05-02T08:12:57.786Z</time></trkpt><trkpt lat="43.5929367" lon="12.3084933"><ele>933.0</ele><time>2026-05-02T08:12:58.789Z</time></trkpt><trkpt lat="43.5928833" lon="12.3084283"><ele>935.0</ele><time>2026-05-02T08:12:59.788Z</time></trkpt><trkpt lat="43.5927917" lon="12.3083167"><ele>937.0</ele><time>2026-05-02T08:13:01.788Z</time></trkpt><trkpt lat="43.5926833" lon="12.3082383"><ele>939.0</ele><time>2026-05-02T08:13:03.785Z</time></trkpt><trkpt lat="43.5926133" lon="12.3081933"><ele>941.0</ele><time>2026-05-02T08:13:04.789Z</time></trkpt><trkpt lat="43.59253" lon="12.3081433"><ele>943.0</ele><time>2026-05-02T08:13:05.789Z</time></trkpt><trkpt lat="43.5924517" lon="12.3081033"><ele>941.4999999999999</ele><time>2026-05-02T08:13:06.789Z</time></trkpt><trkpt lat="43.5923833" lon="12.308065"><ele>940.0</ele><time>2026-05-02T08:13:07.788Z</time></trkpt><trkpt lat="43.5923167" lon="12.30804"><ele>938.5</ele><time>2026-05-02T08:13:08.785Z</time></trkpt><trkpt lat="43.5921833" lon="12.30803"><ele>937.0</ele><time>2026-05-02T08:13:10.788Z</time></trkpt><trkpt lat="43.5921083" lon="12.3080367"><ele>935.4999999999999</ele><time>2026-05-02T08:13:11.79Z</time></trkpt><trkpt lat="43.5920283" lon="12.3080467"><ele>934.0</ele><time>2026-05-02T08:13:12.785Z</time></trkpt><trkpt lat="43.5919383" lon="12.3080533"><ele>936.8000000000001</ele><time>2026-05-02T08:13:13.789Z</time></trkpt><trkpt lat="43.5918467" lon="12.3080517"><ele>939.6000000000001</ele><time>2026-05-02T08:13:14.789Z</time></trkpt><trkpt lat="43.5917517" lon="12.3080483"><ele>942.4</ele><time>2026-05-02T08:13:15.788Z</time></trkpt><trkpt lat="43.591655" lon="12.3080483"><ele>945.2</ele><time>2026-05-02T08:13:16.79Z</time></trkpt><trkpt lat="43.5915617" lon="12.3080617"><ele>948.0</ele><time>2026-05-02T08:13:17.786Z</time></trkpt><trkpt lat="43.5914667" lon="12.30809"><ele>948.0</ele><time>2026-05-02T08:13:18.785Z</time></trkpt><trkpt lat="43.5913733" lon="12.3081417"><ele>948.0</ele><time>2026-05-02T08:13:19.785Z</time></trkpt><trkpt lat="43.59129" lon="12.3082133"><ele>948.0</ele><time>2026-05-02T08:13:20.788Z</time></trkpt><trkpt lat="43.5912133" lon="12.3083033"><ele>948.0</ele><time>2026-05-02T08:13:21.789Z</time></trkpt><trkpt lat="43.5911383" lon="12.3084067"><ele>948.0</ele><time>2026-05-02T08:13:22.788Z</time></trkpt><trkpt lat="43.59106" lon="12.308515"><ele>948.0</ele><time>2026-05-02T08:13:23.79Z</time></trkpt><trkpt lat="43.5909767" lon="12.3086233"><ele>948.0</ele><time>2026-05-02T08:13:24.788Z</time></trkpt><trkpt lat="43.5908867" lon="12.3087317"><ele>948.0</ele><time>2026-05-02T08:13:25.788Z</time></trkpt><trkpt lat="43.59079" lon="12.3088333"><ele>948.0</ele><time>2026-05-02T08:13:26.788Z</time></trkpt><trkpt lat="43.5906917" lon="12.3089317"><ele>950.5</ele><time>2026-05-02T08:13:27.786Z</time></trkpt><trkpt lat="43.5905917" lon="12.3090183"><ele>953.0</ele><time>2026-05-02T08:13:28.786Z</time></trkpt><trkpt lat="43.59049" lon="12.3090883"><ele>955.5</ele><time>2026-05-02T08:13:29.786Z</time></trkpt><trkpt lat="43.5903817" lon="12.3091533"><ele>958.0</ele><time>2026-05-02T08:13:30.785Z</time></trkpt><trkpt lat="43.5902683" lon="12.3092167"><ele>959.0</ele><time>2026-05-02T08:13:31.785Z</time></trkpt><trkpt lat="43.5901567" lon="12.30928"><ele>960.0</ele><time>2026-05-02T08:13:32.786Z</time></trkpt><trkpt lat="43.59005" lon="12.30935"><ele>961.0</ele><time>2026-05-02T08:13:33.785Z</time></trkpt><trkpt lat="43.58995" lon="12.3094167"><ele>962.0</ele><time>2026-05-02T08:13:34.786Z</time></trkpt><trkpt lat="43.5898533" lon="12.309465"><ele>962.0</ele><time>2026-05-02T08:13:35.787Z</time></trkpt><trkpt lat="43.5897583" lon="12.30949"><ele>962.0</ele><time>2026-05-02T08:13:36.786Z</time></trkpt><trkpt lat="43.589655" lon="12.3094867"><ele>962.0</ele><time>2026-05-02T08:13:37.785Z</time></trkpt><trkpt lat="43.5895467" lon="12.3094717"><ele>962.0</ele><time>2026-05-02T08:13:38.789Z</time></trkpt><trkpt lat="43.589435" lon="12.3094417"><ele>962.0</ele><time>2026-05-02T08:13:39.788Z</time></trkpt><trkpt lat="43.5893167" lon="12.309405"><ele>962.5</ele><time>2026-05-02T08:13:40.789Z</time></trkpt><trkpt lat="43.589185" lon="12.3093717"><ele>963.0</ele><time>2026-05-02T08:13:41.79Z</time></trkpt><trkpt lat="43.5890517" lon="12.309345"><ele>963.5</ele><time>2026-05-02T08:13:42.789Z</time></trkpt><trkpt lat="43.5889317" lon="12.3093217"><ele>964.0</ele><time>2026-05-02T08:13:43.877Z</time></trkpt><trkpt lat="43.5888183" lon="12.3093"><ele>964.0</ele><time>2026-05-02T08:13:44.787Z</time></trkpt><trkpt lat="43.5887067" lon="12.309275"><ele>964.0</ele><time>2026-05-02T08:13:45.786Z</time></trkpt><trkpt lat="43.58859" lon="12.3092383"><ele>964.0</ele><time>2026-05-02T08:13:46.787Z</time></trkpt><trkpt lat="43.5884717" lon="12.3091883"><ele>964.0</ele><time>2026-05-02T08:13:47.79Z</time></trkpt><trkpt lat="43.5883583" lon="12.3091267"><ele>962.8000000000001</ele><time>2026-05-02T08:13:48.788Z</time></trkpt><trkpt lat="43.588255" lon="12.3090617"><ele>961.6000000000001</ele><time>2026-05-02T08:13:49.789Z</time></trkpt><trkpt lat="43.5881517" lon="12.309005"><ele>960.4</ele><time>2026-05-02T08:13:50.788Z</time></trkpt><trkpt lat="43.588045" lon="12.3089667"><ele>959.2</ele><time>2026-05-02T08:13:51.788Z</time></trkpt><trkpt lat="43.5879317" lon="12.3089617"><ele>958.0</ele><time>2026-05-02T08:13:52.788Z</time></trkpt><trkpt lat="43.5878233" lon="12.308995"><ele>955.5</ele><time>2026-05-02T08:13:53.789Z</time></trkpt><trkpt lat="43.5877217" lon="12.3090617"><ele>953.0</ele><time>2026-05-02T08:13:54.789Z</time></trkpt><trkpt lat="43.5876367" lon="12.3091567"><ele>950.5</ele><time>2026-05-02T08:13:55.789Z</time></trkpt><trkpt lat="43.5875633" lon="12.3092817"><ele>948.0</ele><time>2026-05-02T08:13:56.788Z</time></trkpt><trkpt lat="43.5874967" lon="12.3094233"><ele>948.0</ele><time>2026-05-02T08:13:57.787Z</time></trkpt><trkpt lat="43.58743" lon="12.3095717"><ele>948.0</ele><time>2026-05-02T08:13:58.786Z</time></trkpt><trkpt lat="43.5873667" lon="12.3097283"><ele>948.0</ele><time>2026-05-02T08:13:59.787Z</time></trkpt><trkpt lat="43.5873033" lon="12.309885"><ele>948.0</ele><time>2026-05-02T08:14:00.786Z</time></trkpt><trkpt lat="43.5872433" lon="12.3100383"><ele>949.5</ele><time>2026-05-02T08:14:01.786Z</time></trkpt><trkpt lat="43.5871817" lon="12.310185"><ele>951.0</ele><time>2026-05-02T08:14:02.788Z</time></trkpt><trkpt lat="43.5871167" lon="12.310325"><ele>952.5</ele><time>2026-05-02T08:14:03.787Z</time></trkpt><trkpt lat="43.5870433" lon="12.310455"><ele>954.0</ele><time>2026-05-02T08:14:04.788Z</time></trkpt><trkpt lat="43.58696" lon="12.310575"><ele>956.25</ele><time>2026-05-02T08:14:05.786Z</time></trkpt><trkpt lat="43.586865" lon="12.3106783"><ele>958.5</ele><time>2026-05-02T08:14:06.785Z</time></trkpt><trkpt lat="43.586765" lon="12.31077"><ele>960.75</ele><time>2026-05-02T08:14:07.786Z</time></trkpt><trkpt lat="43.58666" lon="12.3108583"><ele>963.0</ele><time>2026-05-02T08:14:08.786Z</time></trkpt><trkpt lat="43.58655" lon="12.3109383"><ele>963.0</ele><time>2026-05-02T08:14:09.786Z</time></trkpt><trkpt lat="43.5864333" lon="12.3110067"><ele>963.0</ele><time>2026-05-02T08:14:10.786Z</time></trkpt><trkpt lat="43.5863083" lon="12.3110717"><ele>963.0</ele><time>2026-05-02T08:14:11.789Z</time></trkpt><trkpt lat="43.5861783" lon="12.3111233"><ele>963.0</ele><time>2026-05-02T08:14:12.791Z</time></trkpt><trkpt lat="43.5860467" lon="12.3111667"><ele>958.25</ele><time>2026-05-02T08:14:13.79Z</time></trkpt><trkpt lat="43.585915" lon="12.311215"><ele>953.5</ele><time>2026-05-02T08:14:14.789Z</time></trkpt><trkpt lat="43.5857917" lon="12.3112667"><ele>948.75</ele><time>2026-05-02T08:14:15.785Z</time></trkpt><trkpt lat="43.5856633" lon="12.311325"><ele>944.0</ele><time>2026-05-02T08:14:16.789Z</time></trkpt><trkpt lat="43.585525" lon="12.3113833"><ele>944.0</ele><time>2026-05-02T08:14:17.789Z</time></trkpt><trkpt lat="43.5853783" lon="12.3114367"><ele>944.0</ele><time>2026-05-02T08:14:18.79Z</time></trkpt><trkpt lat="43.5852283" lon="12.31148"><ele>944.0</ele><time>2026-05-02T08:14:19.789Z</time></trkpt><trkpt lat="43.5850833" lon="12.311515"><ele>943.5</ele><time>2026-05-02T08:14:20.789Z</time></trkpt><trkpt lat="43.58494" lon="12.31154"><ele>943.0</ele><time>2026-05-02T08:14:21.789Z</time></trkpt><trkpt lat="43.5847983" lon="12.31155"><ele>942.5</ele><time>2026-05-02T08:14:22.789Z</time></trkpt><trkpt lat="43.5846633" lon="12.3115417"><ele>942.0</ele><time>2026-05-02T08:14:23.789Z</time></trkpt><trkpt lat="43.5845267" lon="12.3115267"><ele>942.75</ele><time>2026-05-02T08:14:24.79Z</time></trkpt><trkpt lat="43.5843867" lon="12.3115067"><ele>943.5</ele><time>2026-05-02T08:14:25.792Z</time></trkpt><trkpt lat="43.584255" lon="12.3114733"><ele>944.25</ele><time>2026-05-02T08:14:26.789Z</time></trkpt><trkpt lat="43.584125" lon="12.311445"><ele>945.0</ele><time>2026-05-02T08:14:27.787Z</time></trkpt><trkpt lat="43.583995" lon="12.3114233"><ele>945.0</ele><time>2026-05-02T08:14:28.786Z</time></trkpt><trkpt lat="43.58387" lon="12.31141"><ele>945.0</ele><time>2026-05-02T08:14:29.786Z</time></trkpt><trkpt lat="43.583755" lon="12.3113917"><ele>945.0</ele><time>2026-05-02T08:14:30.787Z</time></trkpt><trkpt lat="43.5836483" lon="12.31136"><ele>945.0</ele><time>2026-05-02T08:14:31.786Z</time></trkpt><trkpt lat="43.5835467" lon="12.3113083"><ele>943.0</ele><time>2026-05-02T08:14:32.789Z</time></trkpt><trkpt lat="43.583455" lon="12.311245"><ele>941.0</ele><time>2026-05-02T08:14:33.786Z</time></trkpt><trkpt lat="43.5833617" lon="12.3111867"><ele>939.0</ele><time>2026-05-02T08:14:34.786Z</time></trkpt><trkpt lat="43.5832633" lon="12.311155"><ele>937.0</ele><time>2026-05-02T08:14:35.787Z</time></trkpt><trkpt lat="43.583145" lon="12.31115"><ele>935.0</ele><time>2026-05-02T08:14:36.786Z</time></trkpt><trkpt lat="43.58302" lon="12.3111567"><ele>935.0</ele><time>2026-05-02T08:14:37.786Z</time></trkpt><trkpt lat="43.5828967" lon="12.31115"><ele>935.0</ele><time>2026-05-02T08:14:38.789Z</time></trkpt><trkpt lat="43.5827767" lon="12.3111267"><ele>935.0</ele><time>2026-05-02T08:14:39.79Z</time></trkpt><trkpt lat="43.5826567" lon="12.3111"><ele>935.0</ele><time>2026-05-02T08:14:40.789Z</time></trkpt><trkpt lat="43.5825383" lon="12.3110717"><ele>935.75</ele><time>2026-05-02T08:14:41.789Z</time></trkpt><trkpt lat="43.5824233" lon="12.31103"><ele>936.5</ele><time>2026-05-02T08:14:42.789Z</time></trkpt><trkpt lat="43.5823083" lon="12.3109767"><ele>937.25</ele><time>2026-05-02T08:14:43.786Z</time></trkpt><trkpt lat="43.5822083" lon="12.31089"><ele>938.0</ele><time>2026-05-02T08:14:44.79Z</time></trkpt><trkpt lat="43.5821167" lon="12.3107817"><ele>938.0</ele><time>2026-05-02T08:14:45.789Z</time></trkpt><trkpt lat="43.582035" lon="12.3106567"><ele>938.0</ele><time>2026-05-02T08:14:46.79Z</time></trkpt><trkpt lat="43.58196" lon="12.3105217"><ele>938.0</ele><time>2026-05-02T08:14:47.787Z</time></trkpt><trkpt lat="43.581885" lon="12.3103933"><ele>938.0</ele><time>2026-05-02T08:14:48.79Z</time></trkpt><trkpt lat="43.5817967" lon="12.3102817"><ele>936.8</ele><time>2026-05-02T08:14:49.786Z</time></trkpt><trkpt lat="43.5817" lon="12.3101817"><ele>935.5999999999999</ele><time>2026-05-02T08:14:50.789Z</time></trkpt><trkpt lat="43.5816083" lon="12.3100883"><ele>934.4000000000001</ele><time>2026-05-02T08:14:51.789Z</time></trkpt><trkpt lat="43.5815183" lon="12.3100033"><ele>933.2</ele><time>2026-05-02T08:14:52.789Z</time></trkpt><trkpt lat="43.5814283" lon="12.309935"><ele>932.0</ele><time>2026-05-02T08:14:53.789Z</time></trkpt><trkpt lat="43.5813267" lon="12.3098833"><ele>932.0</ele><time>2026-05-02T08:14:54.788Z</time></trkpt><trkpt lat="43.581215" lon="12.30986"><ele>932.0</ele><time>2026-05-02T08:14:55.788Z</time></trkpt><trkpt lat="43.5811017" lon="12.3098583"><ele>932.0</ele><time>2026-05-02T08:14:56.785Z</time></trkpt><trkpt lat="43.5809867" lon="12.309875"><ele>932.0</ele><time>2026-05-02T08:14:57.785Z</time></trkpt><trkpt lat="43.580865" lon="12.3099033"><ele>928.75</ele><time>2026-05-02T08:14:58.785Z</time></trkpt><trkpt lat="43.58074" lon="12.3099533"><ele>925.5</ele><time>2026-05-02T08:14:59.786Z</time></trkpt><trkpt lat="43.580615" lon="12.3100167"><ele>922.25</ele><time>2026-05-02T08:15:00.787Z</time></trkpt><trkpt lat="43.5804933" lon="12.3100833"><ele>919.0</ele><time>2026-05-02T08:15:01.785Z</time></trkpt><trkpt lat="43.5803867" lon="12.310145"><ele>918.9999999999999</ele><time>2026-05-02T08:15:02.786Z</time></trkpt><trkpt lat="43.58029" lon="12.3101783"><ele>919.0</ele><time>2026-05-02T08:15:03.785Z</time></trkpt><trkpt lat="43.5801967" lon="12.3101817"><ele>919.0</ele><time>2026-05-02T08:15:04.786Z</time></trkpt><trkpt lat="43.5801183" lon="12.3101533"><ele>919.0</ele><time>2026-05-02T08:15:05.786Z</time></trkpt><trkpt lat="43.5800467" lon="12.3100967"><ele>918.9999999999999</ele><time>2026-05-02T08:15:06.786Z</time></trkpt><trkpt lat="43.5799933" lon="12.310005"><ele>919.0</ele><time>2026-05-02T08:15:07.786Z</time></trkpt><trkpt lat="43.579965" lon="12.3098917"><ele>919.0</ele><time>2026-05-02T08:15:08.785Z</time></trkpt><trkpt lat="43.5799517" lon="12.309755"><ele>919.0</ele><time>2026-05-02T08:15:09.786Z</time></trkpt><trkpt lat="43.5799483" lon="12.3095933"><ele>919.0</ele><time>2026-05-02T08:15:10.785Z</time></trkpt><trkpt lat="43.5799167" lon="12.309435"><ele>919.0</ele><time>2026-05-02T08:15:11.786Z</time></trkpt><trkpt lat="43.579875" lon="12.30927"><ele>916.0</ele><time>2026-05-02T08:15:12.785Z</time></trkpt><trkpt lat="43.5798283" lon="12.3091117"><ele>913.0</ele><time>2026-05-02T08:15:13.785Z</time></trkpt><trkpt lat="43.57979" lon="12.30896"><ele>910.0</ele><time>2026-05-02T08:15:14.785Z</time></trkpt><trkpt lat="43.5797583" lon="12.3088117"><ele>907.0</ele><time>2026-05-02T08:15:15.785Z</time></trkpt><trkpt lat="43.57973" lon="12.30867"><ele>906.6</ele><time>2026-05-02T08:15:16.785Z</time></trkpt><trkpt lat="43.57969" lon="12.3085467"><ele>906.2</ele><time>2026-05-02T08:15:17.786Z</time></trkpt><trkpt lat="43.5796267" lon="12.30844"><ele>905.8</ele><time>2026-05-02T08:15:18.785Z</time></trkpt><trkpt lat="43.5795433" lon="12.3083417"><ele>905.4</ele><time>2026-05-02T08:15:19.785Z</time></trkpt><trkpt lat="43.5794583" lon="12.3082417"><ele>905.0</ele><time>2026-05-02T08:15:20.787Z</time></trkpt><trkpt lat="43.5793733" lon="12.3081383"><ele>901.5</ele><time>2026-05-02T08:15:21.785Z</time></trkpt><trkpt lat="43.579295" lon="12.3080283"><ele>898.0</ele><time>2026-05-02T08:15:22.786Z</time></trkpt><trkpt lat="43.5792083" lon="12.30792"><ele>894.5</ele><time>2026-05-02T08:15:23.785Z</time></trkpt><trkpt lat="43.57911" lon="12.307825"><ele>891.0</ele><time>2026-05-02T08:15:24.79Z</time></trkpt><trkpt lat="43.5790083" lon="12.3077517"><ele>891.0</ele><time>2026-05-02T08:15:25.788Z</time></trkpt><trkpt lat="43.5789" lon="12.3076917"><ele>890.9999999999999</ele><time>2026-05-02T08:15:26.786Z</time></trkpt><trkpt lat="43.5788" lon="12.3076467"><ele>890.9999999999999</ele><time>2026-05-02T08:15:27.786Z</time></trkpt><trkpt lat="43.578715" lon="12.30758"><ele>891.0</ele><time>2026-05-02T08:15:28.785Z</time></trkpt><trkpt lat="43.57864" lon="12.3074967"><ele>891.0</ele><time>2026-05-02T08:15:29.786Z</time></trkpt><trkpt lat="43.5785933" lon="12.3073783"><ele>889.5999999999999</ele><time>2026-05-02T08:15:30.785Z</time></trkpt><trkpt lat="43.5785717" lon="12.30722"><ele>888.1999999999999</ele><time>2026-05-02T08:15:31.785Z</time></trkpt><trkpt lat="43.57856" lon="12.3070567"><ele>886.8000000000001</ele><time>2026-05-02T08:15:32.786Z</time></trkpt><trkpt lat="43.5785433" lon="12.3069133"><ele>885.4000000000001</ele><time>2026-05-02T08:15:33.786Z</time></trkpt><trkpt lat="43.5785083" lon="12.3067883"><ele>884.0</ele><time>2026-05-02T08:15:34.785Z</time></trkpt><trkpt lat="43.5784417" lon="12.3066867"><ele>884.0</ele><time>2026-05-02T08:15:35.786Z</time></trkpt><trkpt lat="43.5783467" lon="12.3066167"><ele>884.0</ele><time>2026-05-02T08:15:36.786Z</time></trkpt><trkpt lat="43.578235" lon="12.30658"><ele>884.0</ele><time>2026-05-02T08:15:37.785Z</time></trkpt><trkpt lat="43.5781117" lon="12.30658"><ele>884.0</ele><time>2026-05-02T08:15:38.785Z</time></trkpt><trkpt lat="43.577985" lon="12.3066067"><ele>884.0</ele><time>2026-05-02T08:15:39.787Z</time></trkpt><trkpt lat="43.5778633" lon="12.3066517"><ele>884.0</ele><time>2026-05-02T08:15:40.785Z</time></trkpt><trkpt lat="43.5799483" lon="12.3095933"><ele>889.75</ele><time>2026-05-02T08:15:10.785Z</time></trkpt><trkpt lat="43.5799167" lon="12.309435"><ele>895.5</ele><time>2026-05-02T08:15:11.786Z</time></trkpt><trkpt lat="43.579875" lon="12.30927"><ele>901.25</ele><time>2026-05-02T08:15:12.785Z</time></trkpt><trkpt lat="43.5798283" lon="12.3091117"><ele>907.0</ele><time>2026-05-02T08:15:13.785Z</time></trkpt><trkpt lat="43.57979" lon="12.30896"><ele>904.8</ele><time>2026-05-02T08:15:14.785Z</time></trkpt><trkpt lat="43.5797583" lon="12.3088117"><ele>902.6</ele><time>2026-05-02T08:15:15.785Z</time></trkpt><trkpt lat="43.57973" lon="12.30867"><ele>900.3999999999999</ele><time>2026-05-02T08:15:16.785Z</time></trkpt><trkpt lat="43.57969" lon="12.3085467"><ele>898.1999999999999</ele><time>2026-05-02T08:15:17.786Z</time></trkpt><trkpt lat="43.5796267" lon="12.30844"><ele>896.0</ele><time>2026-05-02T08:15:18.785Z</time></trkpt><trkpt lat="43.5795433" lon="12.3083417"><ele>894.75</ele><time>2026-05-02T08:15:19.785Z</time></trkpt><trkpt lat="43.5794583" lon="12.3082417"><ele>893.5</ele><time>2026-05-02T08:15:20.787Z</time></trkpt><trkpt lat="43.5793733" lon="12.3081383"><ele>892.25</ele><time>2026-05-02T08:15:21.785Z</time></trkpt><trkpt lat="43.579295" lon="12.3080283"><ele>891.0</ele><time>2026-05-02T08:15:22.786Z</time></trkpt><trkpt lat="43.5792083" lon="12.30792"><ele>891.0</ele><time>2026-05-02T08:15:23.785Z</time></trkpt><trkpt lat="43.57911" lon="12.307825"><ele>891.0</ele><time>2026-05-02T08:15:24.79Z</time></trkpt><trkpt lat="43.5790083" lon="12.3077517"><ele>891.0</ele><time>2026-05-02T08:15:25.788Z</time></trkpt><trkpt lat="43.5789" lon="12.3076917"><ele>891.0</ele><time>2026-05-02T08:15:26.786Z</time></trkpt><trkpt lat="43.5788" lon="12.3076467"><ele>891.0</ele><time>2026-05-02T08:15:27.786Z</time></trkpt><trkpt lat="43.578715" lon="12.30758"><ele>890.9999999999999</ele><time>2026-05-02T08:15:28.785Z</time></trkpt><trkpt lat="43.57864" lon="12.3074967"><ele>890.9999999999999</ele><time>2026-05-02T08:15:29.786Z</time></trkpt><trkpt lat="43.5785933" lon="12.3073783"><ele>891.0</ele><time>2026-05-02T08:15:30.785Z</time></trkpt><trkpt lat="43.5785717" lon="12.30722"><ele>891.0</ele><time>2026-05-02T08:15:31.785Z</time></trkpt><trkpt lat="43.57856" lon="12.3070567"><ele>889.5999999999999</ele><time>2026-05-02T08:15:32.786Z</time></trkpt><trkpt lat="43.5785433" lon="12.3069133"><ele>888.1999999999999</ele><time>2026-05-02T08:15:33.786Z</time></trkpt><trkpt lat="43.5785083" lon="12.3067883"><ele>886.8000000000001</ele><time>2026-05-02T08:15:34.785Z</time></trkpt><trkpt lat="43.5784417" lon="12.3066867"><ele>885.4000000000001</ele><time>2026-05-02T08:15:35.786Z</time></trkpt><trkpt lat="43.5783467" lon="12.3066167"><ele>884.0</ele><time>2026-05-02T08:15:36.786Z</time></trkpt><trkpt lat="43.578235" lon="12.30658"><ele>884.0</ele><time>2026-05-02T08:15:37.785Z</time></trkpt><trkpt lat="43.5781117" lon="12.30658"><ele>884.0</ele><time>2026-05-02T08:15:38.785Z</time></trkpt><trkpt lat="43.577985" lon="12.3066067"><ele>884.0</ele><time>2026-05-02T08:15:39.787Z</time></trkpt><trkpt lat="43.5778633" lon="12.3066517"><ele>884.0</ele><time>2026-05-02T08:15:40.785Z</time></trkpt><trkpt lat="43.577745" lon="12.3066933"><ele>883.8000000000001</ele><time>2026-05-02T08:15:41.788Z</time></trkpt><trkpt lat="43.577625" lon="12.30672"><ele>883.6000000000001</ele><time>2026-05-02T08:15:42.788Z</time></trkpt><trkpt lat="43.57751" lon="12.3067167"><ele>883.4</ele><time>2026-05-02T08:15:43.786Z</time></trkpt><trkpt lat="43.5774" lon="12.30669"><ele>883.2</ele><time>2026-05-02T08:15:44.789Z</time></trkpt><trkpt lat="43.5773133" lon="12.30663"><ele>883.0</ele><time>2026-05-02T08:15:45.788Z</time></trkpt><trkpt lat="43.57724" lon="12.3065583"><ele>883.0</ele><time>2026-05-02T08:15:46.788Z</time></trkpt><trkpt lat="43.5771767" lon="12.3064633"><ele>883.0</ele><time>2026-05-02T08:15:47.788Z</time></trkpt><trkpt lat="43.5771233" lon="12.3063533"><ele>883.0</ele><time>2026-05-02T08:15:48.786Z</time></trkpt><trkpt lat="43.5770983" lon="12.3062283"><ele>883.0</ele><time>2026-05-02T08:15:49.786Z</time></trkpt><trkpt lat="43.57709" lon="12.3060917"><ele>883.0</ele><time>2026-05-02T08:15:50.787Z</time></trkpt><trkpt lat="43.5771167" lon="12.3059567"><ele>882.5</ele><time>2026-05-02T08:15:51.785Z</time></trkpt><trkpt lat="43.5771567" lon="12.305825"><ele>882.0</ele><time>2026-05-02T08:15:52.785Z</time></trkpt><trkpt lat="43.577205" lon="12.3056917"><ele>881.5</ele><time>2026-05-02T08:15:53.787Z</time></trkpt><trkpt lat="43.5772717" lon="12.3055483"><ele>881.0</ele><time>2026-05-02T08:15:54.789Z</time></trkpt><trkpt lat="43.5773433" lon="12.305395"><ele>881.0</ele><time>2026-05-02T08:15:55.789Z</time></trkpt><trkpt lat="43.5774133" lon="12.305255"><ele>881.0</ele><time>2026-05-02T08:15:56.786Z</time></trkpt><trkpt lat="43.5774883" lon="12.3051167"><ele>881.0</ele><time>2026-05-02T08:15:57.785Z</time></trkpt><trkpt lat="43.577565" lon="12.3049767"><ele>881.0</ele><time>2026-05-02T08:15:58.785Z</time></trkpt><trkpt lat="43.5776317" lon="12.3048333"><ele>881.5999999999999</ele><time>2026-05-02T08:15:59.786Z</time></trkpt><trkpt lat="43.577685" lon="12.3046917"><ele>882.1999999999999</ele><time>2026-05-02T08:16:00.785Z</time></trkpt><trkpt lat="43.5777033" lon="12.30454"><ele>882.8000000000001</ele><time>2026-05-02T08:16:01.785Z</time></trkpt><trkpt lat="43.57769" lon="12.3043967"><ele>883.4000000000001</ele><time>2026-05-02T08:16:02.786Z</time></trkpt><trkpt lat="43.5776533" lon="12.3042717"><ele>884.0</ele><time>2026-05-02T08:16:03.786Z</time></trkpt><trkpt lat="43.5774233" lon="12.304255"><ele>884.0</ele><time>2026-05-02T08:16:04.928Z</time></trkpt><trkpt lat="43.5774167" lon="12.3040017"><ele>884.0</ele><time>2026-05-02T08:16:06.288Z</time></trkpt><trkpt lat="43.5773517" lon="12.3038067"><ele>884.0</ele><time>2026-05-02T08:16:07.787Z</time></trkpt><trkpt lat="43.577355" lon="12.3036567"><ele>884.0</ele><time>2026-05-02T08:16:08.787Z</time></trkpt><trkpt lat="43.5773783" lon="12.3035117"><ele>884.2</ele><time>2026-05-02T08:16:09.786Z</time></trkpt><trkpt lat="43.5774083" lon="12.303375"><ele>884.4000000000001</ele><time>2026-05-02T08:16:10.786Z</time></trkpt><trkpt lat="43.5774467" lon="12.3032417"><ele>884.6</ele><time>2026-05-02T08:16:11.786Z</time></trkpt><trkpt lat="43.5775017" lon="12.3031083"><ele>884.8</ele><time>2026-05-02T08:16:12.789Z</time></trkpt><trkpt lat="43.5775467" lon="12.30297"><ele>885.0</ele><time>2026-05-02T08:16:13.788Z</time></trkpt><trkpt lat="43.57761" lon="12.3028317"><ele>883.5</ele><time>2026-05-02T08:16:14.788Z</time></trkpt><trkpt lat="43.5776717" lon="12.3026933"><ele>882.0</ele><time>2026-05-02T08:16:15.787Z</time></trkpt><trkpt lat="43.5777267" lon="12.302555"><ele>880.5</ele><time>2026-05-02T08:16:16.786Z</time></trkpt><trkpt lat="43.57778" lon="12.30241"><ele>879.0</ele><time>2026-05-02T08:16:17.787Z</time></trkpt><trkpt lat="43.57783" lon="12.3022617"><ele>877.6</ele><time>2026-05-02T08:16:18.787Z</time></trkpt><trkpt lat="43.5778767" lon="12.302115"><ele>876.2</ele><time>2026-05-02T08:16:19.786Z</time></trkpt><trkpt lat="43.5779167" lon="12.3019733"><ele>874.8000000000001</ele><time>2026-05-02T08:16:20.786Z</time></trkpt><trkpt lat="43.5779567" lon="12.3018367"><ele>873.4000000000001</ele><time>2026-05-02T08:16:21.786Z</time></trkpt><trkpt lat="43.5779917" lon="12.3017067"><ele>872.0</ele><time>2026-05-02T08:16:22.788Z</time></trkpt><trkpt lat="43.5780233" lon="12.30158"><ele>872.0000000000001</ele><time>2026-05-02T08:16:23.786Z</time></trkpt><trkpt lat="43.5780483" lon="12.3014583"><ele>872.0</ele><time>2026-05-02T08:16:24.787Z</time></trkpt><trkpt lat="43.57807" lon="12.3013483"><ele>872.0</ele><time>2026-05-02T08:16:25.786Z</time></trkpt><trkpt lat="43.5780867" lon="12.301255"><ele>872.0</ele><time>2026-05-02T08:16:26.787Z</time></trkpt><trkpt lat="43.5781067" lon="12.3011183"><ele>872.0000000000001</ele><time>2026-05-02T08:16:28.788Z</time></trkpt><trkpt lat="43.57809" lon="12.30102"><ele>872.0</ele><time>2026-05-02T08:16:30.788Z</time></trkpt><trkpt lat="43.578045" lon="12.300905"><ele>873.5</ele><time>2026-05-02T08:16:32.786Z</time></trkpt><trkpt lat="43.5780317" lon="12.3007683"><ele>875.0</ele><time>2026-05-02T08:16:34.787Z</time></trkpt><trkpt lat="43.5780183" lon="12.30063"><ele>876.5</ele><time>2026-05-02T08:16:36.788Z</time></trkpt><trkpt lat="43.57803" lon="12.300535"><ele>878.0</ele><time>2026-05-02T08:16:38.787Z</time></trkpt><trkpt lat="43.5781667" lon="12.3003083"><ele>880.6666666666667</ele><time>2026-05-02T08:16:55.733Z</time></trkpt><trkpt lat="43.5780833" lon="12.300465"><ele>883.3333333333334</ele><time>2026-05-02T08:16:56.785Z</time></trkpt><trkpt lat="43.578115" lon="12.300355"><ele>886.0</ele><time>2026-05-02T08:16:58.786Z</time></trkpt><trkpt lat="43.5781567" lon="12.3002767"><ele>888.6666666666667</ele><time>2026-05-02T08:17:00.786Z</time></trkpt><trkpt lat="43.5781867" lon="12.3001833"><ele>891.3333333333334</ele><time>2026-05-02T08:17:34.787Z</time></trkpt><trkpt lat="43.57818" lon="12.3000783"><ele>894.0</ele><time>2026-05-02T08:17:36.787Z</time></trkpt><trkpt lat="43.5781367" lon="12.299915"><ele>894.0</ele><time>2026-05-02T08:17:38.786Z</time></trkpt><trkpt lat="43.57811" lon="12.2998317"><ele>894.0000000000001</ele><time>2026-05-02T08:17:39.786Z</time></trkpt><trkpt lat="43.5780733" lon="12.299755"><ele>894.0000000000001</ele><time>2026-05-02T08:17:40.787Z</time></trkpt><trkpt lat="43.5779917" lon="12.2996333"><ele>894.0</ele><time>2026-05-02T08:17:42.787Z</time></trkpt><trkpt lat="43.57792" lon="12.2995217"><ele>894.0</ele><time>2026-05-02T08:17:44.787Z</time></trkpt><trkpt lat="43.5778433" lon="12.299415"><ele>889.6</ele><time>2026-05-02T08:17:46.786Z</time></trkpt><trkpt lat="43.577765" lon="12.2993117"><ele>885.2</ele><time>2026-05-02T08:17:48.786Z</time></trkpt><trkpt lat="43.577685" lon="12.299225"><ele>880.8000000000001</ele><time>2026-05-02T08:17:50.786Z</time></trkpt><trkpt lat="43.57759" lon="12.2991517"><ele>876.4000000000001</ele><time>2026-05-02T08:17:52.788Z</time></trkpt><trkpt lat="43.577485" lon="12.2991083"><ele>872.0</ele><time>2026-05-02T08:17:54.786Z</time></trkpt><trkpt lat="43.57739" lon="12.2990583"><ele>872.0000000000001</ele><time>2026-05-02T08:17:56.786Z</time></trkpt><trkpt lat="43.5773083" lon="12.2990017"><ele>872.0</ele><time>2026-05-02T08:17:58.786Z</time></trkpt><trkpt lat="43.5772433" lon="12.2989283"><ele>872.0</ele><time>2026-05-02T08:18:00.788Z</time></trkpt><trkpt lat="43.5772" lon="12.298865"><ele>872.0</ele><time>2026-05-02T08:18:03.786Z</time></trkpt><trkpt lat="43.5771183" lon="12.298795"><ele>872.0000000000001</ele><time>2026-05-02T08:19:43.789Z</time></trkpt><trkpt lat="43.5770583" lon="12.29875"><ele>872.0</ele><time>2026-05-02T08:19:44.789Z</time></trkpt><trkpt lat="43.5769867" lon="12.2987"><ele>869.5000000000001</ele><time>2026-05-02T08:19:45.788Z</time></trkpt><trkpt lat="43.5769133" lon="12.2986417"><ele>867.0</ele><time>2026-05-02T08:19:46.789Z</time></trkpt><trkpt lat="43.57684" lon="12.2985717"><ele>864.5</ele><time>2026-05-02T08:19:47.789Z</time></trkpt><trkpt lat="43.576775" lon="12.298495"><ele>862.0</ele><time>2026-05-02T08:19:48.789Z</time></trkpt><trkpt lat="43.5767117" lon="12.2984067"><ele>859.5000000000001</ele><time>2026-05-02T08:19:49.79Z</time></trkpt><trkpt lat="43.576635" lon="12.2983217"><ele>857.0</ele><time>2026-05-02T08:19:50.79Z</time></trkpt><trkpt lat="43.5765617" lon="12.298235"><ele>857.0000000000001</ele><time>2026-05-02T08:19:51.789Z</time></trkpt><trkpt lat="43.5764917" lon="12.2981517"><ele>857.0</ele><time>2026-05-02T08:19:52.788Z</time></trkpt><trkpt lat="43.5764283" lon="12.2980683"><ele>857.0</ele><time>2026-05-02T08:19:53.789Z</time></trkpt><trkpt lat="43.5763717" lon="12.297985"><ele>857.0</ele><time>2026-05-02T08:19:54.789Z</time></trkpt><trkpt lat="43.5763233" lon="12.2979067"><ele>857.0000000000001</ele><time>2026-05-02T08:19:55.786Z</time></trkpt><trkpt lat="43.576265" lon="12.2978533"><ele>857.0</ele><time>2026-05-02T08:19:56.786Z</time></trkpt><trkpt lat="43.5762033" lon="12.2978217"><ele>857.0</ele><time>2026-05-02T08:19:57.785Z</time></trkpt><trkpt lat="43.5760933" lon="12.297845"><ele>857.0</ele><time>2026-05-02T08:19:59.786Z</time></trkpt><trkpt lat="43.57605" lon="12.2979933"><ele>857.0</ele><time>2026-05-02T08:20:01.786Z</time></trkpt><trkpt lat="43.5760683" lon="12.2980817"><ele>857.0</ele><time>2026-05-02T08:20:02.786Z</time></trkpt><trkpt lat="43.5761267" lon="12.2981767"><ele>857.0</ele><time>2026-05-02T08:20:03.789Z</time></trkpt><trkpt lat="43.5762033" lon="12.2982533"><ele>857.0</ele><time>2026-05-02T08:20:04.789Z</time></trkpt><trkpt lat="43.57629" lon="12.2983317"><ele>857.0</ele><time>2026-05-02T08:20:05.789Z</time></trkpt><trkpt lat="43.5763717" lon="12.2984167"><ele>857.0</ele><time>2026-05-02T08:20:06.789Z</time></trkpt><trkpt lat="43.5764367" lon="12.2985283"><ele>857.0</ele><time>2026-05-02T08:20:07.789Z</time></trkpt><trkpt lat="43.5764883" lon="12.2986517"><ele>857.0</ele><time>2026-05-02T08:20:08.789Z</time></trkpt><trkpt lat="43.5765333" lon="12.2987783"><ele>857.0</ele><time>2026-05-02T08:20:09.789Z</time></trkpt><trkpt lat="43.5765717" lon="12.29891"><ele>857.0</ele><time>2026-05-02T08:20:10.789Z</time></trkpt><trkpt lat="43.5766067" lon="12.2990467"><ele>857.0</ele><time>2026-05-02T08:20:11.789Z</time></trkpt><trkpt lat="43.5766317" lon="12.2991867"><ele>857.0</ele><time>2026-05-02T08:20:12.789Z</time></trkpt><trkpt lat="43.5766433" lon="12.2993267"><ele>857.0</ele><time>2026-05-02T08:20:13.789Z</time></trkpt><trkpt lat="43.57664" lon="12.2994817"><ele>853.25</ele><time>2026-05-02T08:20:14.789Z</time></trkpt><trkpt lat="43.576635" lon="12.2996533"><ele>849.5</ele><time>2026-05-02T08:20:15.789Z</time></trkpt><trkpt lat="43.5766417" lon="12.2998333"><ele>845.75</ele><time>2026-05-02T08:20:16.79Z</time></trkpt><trkpt lat="43.57666" lon="12.3000083"><ele>842.0</ele><time>2026-05-02T08:20:17.789Z</time></trkpt><trkpt lat="43.5766767" lon="12.3001733"><ele>840.0</ele><time>2026-05-02T08:20:18.79Z</time></trkpt><trkpt lat="43.57669" lon="12.3003233"><ele>838.0</ele><time>2026-05-02T08:20:19.789Z</time></trkpt><trkpt lat="43.5766833" lon="12.3004533"><ele>836.0</ele><time>2026-05-02T08:20:20.79Z</time></trkpt><trkpt lat="43.5766517" lon="12.3005683"><ele>834.0</ele><time>2026-05-02T08:20:21.789Z</time></trkpt><trkpt lat="43.576595" lon="12.3006733"><ele>832.0</ele><time>2026-05-02T08:20:22.79Z</time></trkpt><trkpt lat="43.57651" lon="12.3007583"><ele>831.75</ele><time>2026-05-02T08:20:23.789Z</time></trkpt><trkpt lat="43.5764133" lon="12.30084"><ele>831.5</ele><time>2026-05-02T08:20:24.789Z</time></trkpt><trkpt lat="43.5763217" lon="12.3009333"><ele>831.25</ele><time>2026-05-02T08:20:25.79Z</time></trkpt><trkpt lat="43.57624" lon="12.3010467"><ele>831.0</ele><time>2026-05-02T08:20:26.787Z</time></trkpt><trkpt lat="43.5761717" lon="12.3011633"><ele>829.1999999999999</ele><time>2026-05-02T08:20:27.786Z</time></trkpt><trkpt lat="43.5761" lon="12.3012783"><ele>827.4</ele><time>2026-05-02T08:20:28.785Z</time></trkpt><trkpt lat="43.5760283" lon="12.301375"><ele>825.6</ele><time>2026-05-02T08:20:29.786Z</time></trkpt><trkpt lat="43.57595" lon="12.3014383"><ele>823.8</ele><time>2026-05-02T08:20:30.787Z</time></trkpt><trkpt lat="43.5758683" lon="12.30147"><ele>822.0</ele><time>2026-05-02T08:20:31.786Z</time></trkpt><trkpt lat="43.57578" lon="12.30147"><ele>822.0</ele><time>2026-05-02T08:20:32.787Z</time></trkpt><trkpt lat="43.5756833" lon="12.3014167"><ele>822.0</ele><time>2026-05-02T08:20:33.789Z</time></trkpt><trkpt lat="43.5755717" lon="12.301335"><ele>822.0</ele><time>2026-05-02T08:20:34.789Z</time></trkpt><trkpt lat="43.5754517" lon="12.301255"><ele>822.0</ele><time>2026-05-02T08:20:35.789Z</time></trkpt><trkpt lat="43.5753317" lon="12.30119"><ele>815.0</ele><time>2026-05-02T08:20:36.79Z</time></trkpt><trkpt lat="43.5752117" lon="12.3011433"><ele>808.0</ele><time>2026-05-02T08:20:37.789Z</time></trkpt><trkpt lat="43.5750883" lon="12.3011117"><ele>801.0</ele><time>2026-05-02T08:20:38.789Z</time></trkpt><trkpt lat="43.5749567" lon="12.3011017"><ele>794.0</ele><time>2026-05-02T08:20:39.789Z</time></trkpt><trkpt lat="43.5748217" lon="12.3011083"><ele>794.0</ele><time>2026-05-02T08:20:40.79Z</time></trkpt><trkpt lat="43.574685" lon="12.3011183"><ele>794.0</ele><time>2026-05-02T08:20:41.789Z</time></trkpt><trkpt lat="43.5745517" lon="12.3011233"><ele>794.0</ele><time>2026-05-02T08:20:42.789Z</time></trkpt><trkpt lat="43.5744267" lon="12.3011217"><ele>794.0</ele><time>2026-05-02T08:20:43.789Z</time></trkpt><trkpt lat="43.574305" lon="12.3011117"><ele>792.5</ele><time>2026-05-02T08:20:44.791Z</time></trkpt><trkpt lat="43.5741833" lon="12.3010833"><ele>791.0</ele><time>2026-05-02T08:20:45.789Z</time></trkpt><trkpt lat="43.5740667" lon="12.3010333"><ele>789.5</ele><time>2026-05-02T08:20:46.789Z</time></trkpt><trkpt lat="43.5739467" lon="12.3009683"><ele>788.0</ele><time>2026-05-02T08:20:47.789Z</time></trkpt><trkpt lat="43.5738283" lon="12.3008883"><ele>788.0</ele><time>2026-05-02T08:20:48.789Z</time></trkpt><trkpt lat="43.5737183" lon="12.3008067"><ele>788.0</ele><time>2026-05-02T08:20:49.786Z</time></trkpt><trkpt lat="43.57363" lon="12.3007367"><ele>788.0</ele><time>2026-05-02T08:20:50.789Z</time></trkpt><trkpt lat="43.57356" lon="12.3006617"><ele>788.0</ele><time>2026-05-02T08:20:51.789Z</time></trkpt><trkpt lat="43.5734967" lon="12.3005717"><ele>788.0</ele><time>2026-05-02T08:20:52.79Z</time></trkpt><trkpt lat="43.5734517" lon="12.3004417"><ele>786.5</ele><time>2026-05-02T08:20:53.787Z</time></trkpt><trkpt lat="43.5734267" lon="12.300285"><ele>785.0</ele><time>2026-05-02T08:20:54.79Z</time></trkpt><trkpt lat="43.57339" lon="12.3001217"><ele>783.5</ele><time>2026-05-02T08:20:55.786Z</time></trkpt><trkpt lat="43.5733383" lon="12.29998"><ele>782.0</ele><time>2026-05-02T08:20:56.787Z</time></trkpt><trkpt lat="43.573275" lon="12.2998583"><ele>782.0</ele><time>2026-05-02T08:20:57.788Z</time></trkpt><trkpt lat="43.573195" lon="12.29976"><ele>782.0</ele><time>2026-05-02T08:20:58.787Z</time></trkpt><trkpt lat="43.573095" lon="12.2996867"><ele>782.0</ele><time>2026-05-02T08:20:59.788Z</time></trkpt><trkpt lat="43.57298" lon="12.2996217"><ele>782.0</ele><time>2026-05-02T08:21:00.788Z</time></trkpt><trkpt lat="43.57287" lon="12.2995517"><ele>778.0</ele><time>2026-05-02T08:21:01.788Z</time></trkpt><trkpt lat="43.5727717" lon="12.29946"><ele>774.0</ele><time>2026-05-02T08:21:02.788Z</time></trkpt><trkpt lat="43.5726917" lon="12.2993417"><ele>770.0</ele><time>2026-05-02T08:21:03.787Z</time></trkpt><trkpt lat="43.572625" lon="12.2992033"><ele>766.0</ele><time>2026-05-02T08:21:04.789Z</time></trkpt><trkpt lat="43.572575" lon="12.299065"><ele>766.0</ele><time>2026-05-02T08:21:05.788Z</time></trkpt><trkpt lat="43.572535" lon="12.298935"><ele>766.0</ele><time>2026-05-02T08:21:06.787Z</time></trkpt><trkpt lat="43.57249" lon="12.2988267"><ele>766.0</ele><time>2026-05-02T08:21:07.788Z</time></trkpt><trkpt lat="43.5724383" lon="12.2987333"><ele>766.0</ele><time>2026-05-02T08:21:08.789Z</time></trkpt><trkpt lat="43.5723717" lon="12.2986617"><ele>766.0</ele><time>2026-05-02T08:21:09.79Z</time></trkpt><trkpt lat="43.5722783" lon="12.29862"><ele>761.5</ele><time>2026-05-02T08:21:10.789Z</time></trkpt><trkpt lat="43.572155" lon="12.2986067"><ele>757.0</ele><time>2026-05-02T08:21:11.789Z</time></trkpt><trkpt lat="43.572035" lon="12.29859"><ele>752.5</ele><time>2026-05-02T08:21:12.789Z</time></trkpt><trkpt lat="43.57191" lon="12.2985667"><ele>748.0</ele><time>2026-05-02T08:21:13.79Z</time></trkpt><trkpt lat="43.571785" lon="12.298535"><ele>746.25</ele><time>2026-05-02T08:21:14.789Z</time></trkpt><trkpt lat="43.5716617" lon="12.2985017"><ele>744.5</ele><time>2026-05-02T08:21:15.79Z</time></trkpt><trkpt lat="43.5715383" lon="12.2984783"><ele>742.75</ele><time>2026-05-02T08:21:16.789Z</time></trkpt><trkpt lat="43.571405" lon="12.298465"><ele>741.0</ele><time>2026-05-02T08:21:17.789Z</time></trkpt><trkpt lat="43.5712783" lon="12.2984617"><ele>741.25</ele><time>2026-05-02T08:21:18.789Z</time></trkpt><trkpt lat="43.57116" lon="12.29845"><ele>741.5</ele><time>2026-05-02T08:21:19.79Z</time></trkpt><trkpt lat="43.5710533" lon="12.29841"><ele>741.75</ele><time>2026-05-02T08:21:20.79Z</time></trkpt><trkpt lat="43.5709417" lon="12.2983483"><ele>742.0</ele><time>2026-05-02T08:21:21.789Z</time></trkpt><trkpt lat="43.57083" lon="12.2982617"><ele>742.0</ele><time>2026-05-02T08:21:22.789Z</time></trkpt><trkpt lat="43.5707217" lon="12.298165"><ele>742.0</ele><time>2026-05-02T08:21:23.789Z</time></trkpt><trkpt lat="43.5706167" lon="12.2980533"><ele>742.0</ele><time>2026-05-02T08:21:24.789Z</time></trkpt><trkpt lat="43.57052" lon="12.2979217"><ele>742.0</ele><time>2026-05-02T08:21:25.79Z</time></trkpt><trkpt lat="43.5704317" lon="12.2977817"><ele>739.5</ele><time>2026-05-02T08:21:26.786Z</time></trkpt><trkpt lat="43.5703533" lon="12.29764"><ele>737.0</ele><time>2026-05-02T08:21:27.786Z</time></trkpt><trkpt lat="43.570295" lon="12.2975017"><ele>734.5</ele><time>2026-05-02T08:21:28.785Z</time></trkpt><trkpt lat="43.5702633" lon="12.2973633"><ele>732.0</ele><time>2026-05-02T08:21:29.785Z</time></trkpt><trkpt lat="43.570255" lon="12.2972133"><ele>732.0</ele><time>2026-05-02T08:21:30.785Z</time></trkpt><trkpt lat="43.57025" lon="12.29705"><ele>732.0</ele><time>2026-05-02T08:21:31.786Z</time></trkpt><trkpt lat="43.5702417" lon="12.2968833"><ele>732.0</ele><time>2026-05-02T08:21:32.787Z</time></trkpt><trkpt lat="43.5702133" lon="12.296725"><ele>732.0</ele><time>2026-05-02T08:21:33.788Z</time></trkpt><trkpt lat="43.570165" lon="12.2965617"><ele>726.5</ele><time>2026-05-02T08:21:34.788Z</time></trkpt><trkpt lat="43.5700917" lon="12.2963967"><ele>721.0</ele><time>2026-05-02T08:21:35.788Z</time></trkpt><trkpt lat="43.5700033" lon="12.2962283"><ele>715.5</ele><time>2026-05-02T08:21:36.789Z</time></trkpt><trkpt lat="43.5699083" lon="12.2960617"><ele>710.0</ele><time>2026-05-02T08:21:37.788Z</time></trkpt><trkpt lat="43.5698233" lon="12.2958933"><ele>710.0</ele><time>2026-05-02T08:21:38.791Z</time></trkpt><trkpt lat="43.5697467" lon="12.2957217"><ele>710.0</ele><time>2026-05-02T08:21:39.788Z</time></trkpt><trkpt lat="43.56969" lon="12.295545"><ele>710.0</ele><time>2026-05-02T08:21:40.788Z</time></trkpt><trkpt lat="43.5696417" lon="12.2953633"><ele>710.0</ele><time>2026-05-02T08:21:41.785Z</time></trkpt><trkpt lat="43.5696083" lon="12.2951767"><ele>711.0</ele><time>2026-05-02T08:21:42.785Z</time></trkpt><trkpt lat="43.56957" lon="12.2949933"><ele>712.0</ele><time>2026-05-02T08:21:43.789Z</time></trkpt><trkpt lat="43.5695133" lon="12.2948233"><ele>713.0</ele><time>2026-05-02T08:21:44.786Z</time></trkpt><trkpt lat="43.5694517" lon="12.2946567"><ele>714.0</ele><time>2026-05-02T08:21:45.785Z</time></trkpt><trkpt lat="43.5693883" lon="12.29449"><ele>710.25</ele><time>2026-05-02T08:21:46.789Z</time></trkpt><trkpt lat="43.5693367" lon="12.294325"><ele>706.5</ele><time>2026-05-02T08:21:47.788Z</time></trkpt><trkpt lat="43.5692883" lon="12.2941617"><ele>702.75</ele><time>2026-05-02T08:21:48.789Z</time></trkpt><trkpt lat="43.569245" lon="12.2939983"><ele>699.0</ele><time>2026-05-02T08:21:49.786Z</time></trkpt><trkpt lat="43.5691983" lon="12.2938433"><ele>696.4000000000001</ele><time>2026-05-02T08:21:50.787Z</time></trkpt><trkpt lat="43.5691517" lon="12.2936867"><ele>693.8</ele><time>2026-05-02T08:21:51.788Z</time></trkpt><trkpt lat="43.5691033" lon="12.2935417"><ele>691.2</ele><time>2026-05-02T08:21:52.791Z</time></trkpt><trkpt lat="43.5690517" lon="12.293425"><ele>688.5999999999999</ele><time>2026-05-02T08:21:53.788Z</time></trkpt><trkpt lat="43.568985" lon="12.293325"><ele>686.0</ele><time>2026-05-02T08:21:54.786Z</time></trkpt><trkpt lat="43.5688983" lon="12.2932383"><ele>686.0</ele><time>2026-05-02T08:21:55.788Z</time></trkpt><trkpt lat="43.568785" lon="12.2931667"><ele>686.0</ele><time>2026-05-02T08:21:56.786Z</time></trkpt><trkpt lat="43.5686567" lon="12.2931083"><ele>686.0</ele><time>2026-05-02T08:21:57.785Z</time></trkpt><trkpt lat="43.568525" lon="12.2930717"><ele>686.0</ele><time>2026-05-02T08:21:58.787Z</time></trkpt><trkpt lat="43.568395" lon="12.2930733"><ele>686.0</ele><time>2026-05-02T08:21:59.786Z</time></trkpt><trkpt lat="43.5682733" lon="12.293125"><ele>686.0</ele><time>2026-05-02T08:22:00.786Z</time></trkpt><trkpt lat="43.5681767" lon="12.2932117"><ele>686.0</ele><time>2026-05-02T08:22:01.785Z</time></trkpt><trkpt lat="43.5681033" lon="12.2933067"><ele>686.0</ele><time>2026-05-02T08:22:02.785Z</time></trkpt><trkpt lat="43.5680433" lon="12.2933967"><ele>686.0</ele><time>2026-05-02T08:22:03.786Z</time></trkpt><trkpt lat="43.5679917" lon="12.29347"><ele>686.0</ele><time>2026-05-02T08:22:04.789Z</time></trkpt><trkpt lat="43.5678867" lon="12.2935217"><ele>686.0</ele><time>2026-05-02T08:22:06.788Z</time></trkpt><trkpt lat="43.5677983" lon="12.2934883"><ele>686.0</ele><time>2026-05-02T08:22:08.788Z</time></trkpt><trkpt lat="43.567795" lon="12.2933167"><ele>686.0</ele><time>2026-05-02T08:22:10.79Z</time></trkpt><trkpt lat="43.56785" lon="12.29317"><ele>686.0</ele><time>2026-05-02T08:22:11.789Z</time></trkpt><trkpt lat="43.56793" lon="12.2930133"><ele>680.0</ele><time>2026-05-02T08:22:12.785Z</time></trkpt><trkpt lat="43.5680483" lon="12.2928417"><ele>674.0</ele><time>2026-05-02T08:22:13.785Z</time></trkpt><trkpt lat="43.5681617" lon="12.2927"><ele>668.0</ele><time>2026-05-02T08:22:14.79Z</time></trkpt><trkpt lat="43.5682933" lon="12.2925567"><ele>668.0</ele><time>2026-05-02T08:22:15.788Z</time></trkpt><trkpt lat="43.5684133" lon="12.2924367"><ele>668.0</ele><time>2026-05-02T08:22:16.789Z</time></trkpt><trkpt lat="43.568515" lon="12.29232"><ele>668.0</ele><time>2026-05-02T08:22:17.786Z</time></trkpt><trkpt lat="43.5685783" lon="12.2921967"><ele>668.0</ele><time>2026-05-02T08:22:18.79Z</time></trkpt><trkpt lat="43.568605" lon="12.29206"><ele>668.0</ele><time>2026-05-02T08:22:19.788Z</time></trkpt><trkpt lat="43.5685817" lon="12.2919233"><ele>668.0</ele><time>2026-05-02T08:22:20.788Z</time></trkpt><trkpt lat="43.56851" lon="12.2917917"><ele>668.0</ele><time>2026-05-02T08:22:21.788Z</time></trkpt><trkpt lat="43.5684033" lon="12.2916767"><ele>668.0</ele><time>2026-05-02T08:22:22.79Z</time></trkpt><trkpt lat="43.5682833" lon="12.29158"><ele>668.0</ele><time>2026-05-02T08:22:23.788Z</time></trkpt><trkpt lat="43.5681467" lon="12.2914833"><ele>668.0</ele><time>2026-05-02T08:22:24.785Z</time></trkpt><trkpt lat="43.5680067" lon="12.2913733"><ele>668.0</ele><time>2026-05-02T08:22:25.788Z</time></trkpt><trkpt lat="43.5678683" lon="12.2912517"><ele>666.6666666666666</ele><time>2026-05-02T08:22:26.785Z</time></trkpt><trkpt lat="43.56774" lon="12.291105"><ele>665.3333333333334</ele><time>2026-05-02T08:22:27.785Z</time></trkpt><trkpt lat="43.5676133" lon="12.290955"><ele>664.0</ele><time>2026-05-02T08:22:28.785Z</time></trkpt><trkpt lat="43.5674833" lon="12.29081"><ele>664.0</ele><time>2026-05-02T08:22:29.786Z</time></trkpt><trkpt lat="43.5673383" lon="12.2906767"><ele>664.0</ele><time>2026-05-02T08:22:30.786Z</time></trkpt><trkpt lat="43.56719" lon="12.29056"><ele>664.0</ele><time>2026-05-02T08:22:31.786Z</time></trkpt><trkpt lat="43.567045" lon="12.2904617"><ele>665.3333333333334</ele><time>2026-05-02T08:22:32.786Z</time></trkpt><trkpt lat="43.5669017" lon="12.2903767"><ele>666.6666666666666</ele><time>2026-05-02T08:22:33.785Z</time></trkpt><trkpt lat="43.5667467" lon="12.2902983"><ele>668.0</ele><time>2026-05-02T08:22:34.791Z</time></trkpt><trkpt lat="43.5666017" lon="12.2901967"><ele>668.0</ele><time>2026-05-02T08:22:35.788Z</time></trkpt><trkpt lat="43.5664633" lon="12.29008"><ele>668.0</ele><time>2026-05-02T08:22:36.789Z</time></trkpt><trkpt lat="43.5663267" lon="12.2899517"><ele>668.0</ele><time>2026-05-02T08:22:37.789Z</time></trkpt><trkpt lat="43.56619" lon="12.2898267"><ele>663.6666666666666</ele><time>2026-05-02T08:22:38.788Z</time></trkpt><trkpt lat="43.56605" lon="12.2897133"><ele>659.3333333333334</ele><time>2026-05-02T08:22:39.788Z</time></trkpt><trkpt lat="43.5659133" lon="12.2896117"><ele>655.0</ele><time>2026-05-02T08:22:40.789Z</time></trkpt><trkpt lat="43.5657933" lon="12.2895283"><ele>655.0</ele><time>2026-05-02T08:22:41.789Z</time></trkpt><trkpt lat="43.565705" lon="12.2894517"><ele>655.0</ele><time>2026-05-02T08:22:42.789Z</time></trkpt><trkpt lat="43.5656383" lon="12.289365"><ele>655.0</ele><time>2026-05-02T08:22:43.788Z</time></trkpt><trkpt lat="43.5655883" lon="12.28925"><ele>655.0</ele><time>2026-05-02T08:22:44.788Z</time></trkpt><trkpt lat="43.5655583" lon="12.2891167"><ele>655.0</ele><time>2026-05-02T08:22:45.785Z</time></trkpt><trkpt lat="43.5655517" lon="12.2889767"><ele>655.6</ele><time>2026-05-02T08:22:46.79Z</time></trkpt><trkpt lat="43.5655367" lon="12.2888317"><ele>656.2</ele><time>2026-05-02T08:22:47.789Z</time></trkpt><trkpt lat="43.5655117" lon="12.2886883"><ele>656.8</ele><time>2026-05-02T08:22:48.789Z</time></trkpt><trkpt lat="43.5654583" lon="12.2885667"><ele>657.4</ele><time>2026-05-02T08:22:49.788Z</time></trkpt><trkpt lat="43.5653683" lon="12.2885033"><ele>658.0</ele><time>2026-05-02T08:22:50.788Z</time></trkpt><trkpt lat="43.5652867" lon="12.288475"><ele>658.0</ele><time>2026-05-02T08:22:51.789Z</time></trkpt><trkpt lat="43.5652017" lon="12.2884883"><ele>658.0</ele><time>2026-05-02T08:22:52.786Z</time></trkpt><trkpt lat="43.5651133" lon="12.2885533"><ele>658.0</ele><time>2026-05-02T08:22:53.787Z</time></trkpt><trkpt lat="43.5650283" lon="12.288685"><ele>658.0</ele><time>2026-05-02T08:22:54.786Z</time></trkpt><trkpt lat="43.5649317" lon="12.28884"><ele>653.0</ele><time>2026-05-02T08:22:55.786Z</time></trkpt><trkpt lat="43.5648467" lon="12.2889733"><ele>648.0</ele><time>2026-05-02T08:22:56.785Z</time></trkpt><trkpt lat="43.5647483" lon="12.2890733"><ele>643.0</ele><time>2026-05-02T08:22:57.786Z</time></trkpt><trkpt lat="43.564655" lon="12.2891283"><ele>638.0</ele><time>2026-05-02T08:22:58.786Z</time></trkpt><trkpt lat="43.564535" lon="12.2891433"><ele>636.5</ele><time>2026-05-02T08:22:59.786Z</time></trkpt><trkpt lat="43.5643983" lon="12.2891133"><ele>635.0</ele><time>2026-05-02T08:23:00.785Z</time></trkpt><trkpt lat="43.564265" lon="12.289085"><ele>633.5</ele><time>2026-05-02T08:23:01.787Z</time></trkpt><trkpt lat="43.56413" lon="12.28906"><ele>632.0</ele><time>2026-05-02T08:23:02.787Z</time></trkpt><trkpt lat="43.5639983" lon="12.2890217"><ele>632.0</ele><time>2026-05-02T08:23:03.789Z</time></trkpt><trkpt lat="43.5638733" lon="12.2889433"><ele>632.0</ele><time>2026-05-02T08:23:04.789Z</time></trkpt><trkpt lat="43.56377" lon="12.2888117"><ele>632.0</ele><time>2026-05-02T08:23:05.789Z</time></trkpt><trkpt lat="43.5636867" lon="12.2886567"><ele>632.0</ele><time>2026-05-02T08:23:06.789Z</time></trkpt><trkpt lat="43.5636117" lon="12.2884983"><ele>631.0</ele><time>2026-05-02T08:23:07.788Z</time></trkpt><trkpt lat="43.5635167" lon="12.2883683"><ele>630.0</ele><time>2026-05-02T08:23:08.789Z</time></trkpt><trkpt lat="43.5633783" lon="12.2882867"><ele>629.0</ele><time>2026-05-02T08:23:09.789Z</time></trkpt><trkpt lat="43.5632217" lon="12.2882317"><ele>628.0</ele><time>2026-05-02T08:23:10.789Z</time></trkpt><trkpt lat="43.5630617" lon="12.2881817"><ele>628.0</ele><time>2026-05-02T08:23:11.789Z</time></trkpt><trkpt lat="43.5629083" lon="12.2881383"><ele>628.0</ele><time>2026-05-02T08:23:12.789Z</time></trkpt><trkpt lat="43.5627583" lon="12.288095"><ele>628.0</ele><time>2026-05-02T08:23:13.788Z</time></trkpt><trkpt lat="43.5626033" lon="12.2880333"><ele>626.3333333333334</ele><time>2026-05-02T08:23:14.789Z</time></trkpt><trkpt lat="43.5624617" lon="12.2879217"><ele>624.6666666666666</ele><time>2026-05-02T08:23:15.79Z</time></trkpt><trkpt lat="43.5623117" lon="12.2877933"><ele>623.0</ele><time>2026-05-02T08:23:16.79Z</time></trkpt><trkpt lat="43.562165" lon="12.2876483"><ele>620.3333333333333</ele><time>2026-05-02T08:23:17.789Z</time></trkpt><trkpt lat="43.5620267" lon="12.2874983"><ele>617.6666666666666</ele><time>2026-05-02T08:23:18.789Z</time></trkpt><trkpt lat="43.561885" lon="12.2873583"><ele>615.0</ele><time>2026-05-02T08:23:19.789Z</time></trkpt><trkpt lat="43.56173" lon="12.2872383"><ele>615.0</ele><time>2026-05-02T08:23:20.789Z</time></trkpt><trkpt lat="43.5615733" lon="12.2871433"><ele>615.0</ele><time>2026-05-02T08:23:21.789Z</time></trkpt><trkpt lat="43.5614133" lon="12.2870617"><ele>615.0</ele><time>2026-05-02T08:23:22.79Z</time></trkpt><trkpt lat="43.56126" lon="12.2869517"><ele>611.0</ele><time>2026-05-02T08:23:23.789Z</time></trkpt><trkpt lat="43.5611133" lon="12.2868317"><ele>607.0</ele><time>2026-05-02T08:23:24.789Z</time></trkpt><trkpt lat="43.5609617" lon="12.286735"><ele>603.0</ele><time>2026-05-02T08:23:25.788Z</time></trkpt><trkpt lat="43.5608067" lon="12.28667"><ele>603.0</ele><time>2026-05-02T08:23:26.785Z</time></trkpt><trkpt lat="43.560645" lon="12.2866317"><ele>603.0</ele><time>2026-05-02T08:23:27.785Z</time></trkpt><trkpt lat="43.5604733" lon="12.286595"><ele>603.0</ele><time>2026-05-02T08:23:28.786Z</time></trkpt><trkpt lat="43.5603" lon="12.28654"><ele>603.3333333333334</ele><time>2026-05-02T08:23:29.787Z</time></trkpt><trkpt lat="43.5601317" lon="12.2864817"><ele>603.6666666666667</ele><time>2026-05-02T08:23:30.786Z</time></trkpt><trkpt lat="43.5599867" lon="12.2864283"><ele>604.0</ele><time>2026-05-02T08:23:31.787Z</time></trkpt><trkpt lat="43.559865" lon="12.28637"><ele>604.0</ele><time>2026-05-02T08:23:32.788Z</time></trkpt><trkpt lat="43.5597683" lon="12.2862833"><ele>604.0</ele><time>2026-05-02T08:23:33.789Z</time></trkpt><trkpt lat="43.5596967" lon="12.2861683"><ele>604.0</ele><time>2026-05-02T08:23:34.789Z</time></trkpt><trkpt lat="43.5596333" lon="12.2860467"><ele>604.0</ele><time>2026-05-02T08:23:35.789Z</time></trkpt><trkpt lat="43.5595767" lon="12.285925"><ele>604.0</ele><time>2026-05-02T08:23:36.789Z</time></trkpt><trkpt lat="43.559515" lon="12.2858017"><ele>598.75</ele><time>2026-05-02T08:23:37.786Z</time></trkpt><trkpt lat="43.55945" lon="12.28567"><ele>593.5</ele><time>2026-05-02T08:23:38.788Z</time></trkpt><trkpt lat="43.5593783" lon="12.2855233"><ele>588.25</ele><time>2026-05-02T08:23:39.789Z</time></trkpt><trkpt lat="43.5593033" lon="12.28537"><ele>583.0</ele><time>2026-05-02T08:23:40.786Z</time></trkpt><trkpt lat="43.5592267" lon="12.2852233"><ele>583.0</ele><time>2026-05-02T08:23:41.785Z</time></trkpt><trkpt lat="43.5591483" lon="12.2850867"><ele>583.0</ele><time>2026-05-02T08:23:42.785Z</time></trkpt><trkpt lat="43.5590633" lon="12.2849683"><ele>583.0</ele><time>2026-05-02T08:23:43.789Z</time></trkpt><trkpt lat="43.55897" lon="12.28487"><ele>583.0</ele><time>2026-05-02T08:23:44.789Z</time></trkpt><trkpt lat="43.5588733" lon="12.2847867"><ele>583.25</ele><time>2026-05-02T08:23:45.79Z</time></trkpt><trkpt lat="43.558775" lon="12.284705"><ele>583.5</ele><time>2026-05-02T08:23:46.788Z</time></trkpt><trkpt lat="43.5586667" lon="12.284615"><ele>583.75</ele><time>2026-05-02T08:23:47.789Z</time></trkpt><trkpt lat="43.558545" lon="12.2845167"><ele>584.0</ele><time>2026-05-02T08:23:48.789Z</time></trkpt><trkpt lat="43.558415" lon="12.2844183"><ele>584.0</ele><time>2026-05-02T08:23:49.789Z</time></trkpt><trkpt lat="43.55828" lon="12.2843333"><ele>584.0</ele><time>2026-05-02T08:23:50.789Z</time></trkpt><trkpt lat="43.5581483" lon="12.2842633"><ele>584.0</ele><time>2026-05-02T08:23:51.789Z</time></trkpt><trkpt lat="43.55802" lon="12.2841933"><ele>584.0</ele><time>2026-05-02T08:23:52.789Z</time></trkpt><trkpt lat="43.5579083" lon="12.2841017"><ele>583.25</ele><time>2026-05-02T08:23:53.789Z</time></trkpt><trkpt lat="43.5578033" lon="12.2839967"><ele>582.5</ele><time>2026-05-02T08:23:54.788Z</time></trkpt><trkpt lat="43.5576883" lon="12.2838817"><ele>581.75</ele><time>2026-05-02T08:23:55.79Z</time></trkpt><trkpt lat="43.5575683" lon="12.283765"><ele>581.0</ele><time>2026-05-02T08:23:56.789Z</time></trkpt><trkpt lat="43.5574383" lon="12.2836583"><ele>581.0</ele><time>2026-05-02T08:23:57.789Z</time></trkpt><trkpt lat="43.5572917" lon="12.28357"><ele>581.0</ele><time>2026-05-02T08:23:58.79Z</time></trkpt><trkpt lat="43.5571333" lon="12.28349"><ele>581.0</ele><time>2026-05-02T08:23:59.79Z</time></trkpt><trkpt lat="43.556975" lon="12.2833983"><ele>583.3333333333333</ele><time>2026-05-02T08:24:00.789Z</time></trkpt><trkpt lat="43.556815" lon="12.2832883"><ele>585.6666666666666</ele><time>2026-05-02T08:24:01.79Z</time></trkpt><trkpt lat="43.5566583" lon="12.2831567"><ele>588.0</ele><time>2026-05-02T08:24:02.789Z</time></trkpt><trkpt lat="43.5565033" lon="12.2830183"><ele>588.0</ele><time>2026-05-02T08:24:03.79Z</time></trkpt><trkpt lat="43.556345" lon="12.28289"><ele>588.0</ele><time>2026-05-02T08:24:04.789Z</time></trkpt><trkpt lat="43.5561833" lon="12.28278"><ele>588.0</ele><time>2026-05-02T08:24:05.789Z</time></trkpt><trkpt lat="43.55603" lon="12.2826833"><ele>584.6666666666666</ele><time>2026-05-02T08:24:06.79Z</time></trkpt><trkpt lat="43.5558767" lon="12.28261"><ele>581.3333333333333</ele><time>2026-05-02T08:24:07.79Z</time></trkpt><trkpt lat="43.5557183" lon="12.28257"><ele>578.0</ele><time>2026-05-02T08:24:08.789Z</time></trkpt><trkpt lat="43.5555533" lon="12.282555"><ele>578.0</ele><time>2026-05-02T08:24:09.79Z</time></trkpt><trkpt lat="43.5553883" lon="12.2825517"><ele>578.0</ele><time>2026-05-02T08:24:10.789Z</time></trkpt><trkpt lat="43.5552283" lon="12.2825367"><ele>578.0</ele><time>2026-05-02T08:24:11.789Z</time></trkpt><trkpt lat="43.5550667" lon="12.2825183"><ele>574.3333333333333</ele><time>2026-05-02T08:24:12.79Z</time></trkpt><trkpt lat="43.55491" lon="12.2825083"><ele>570.6666666666666</ele><time>2026-05-02T08:24:13.789Z</time></trkpt><trkpt lat="43.55475" lon="12.2824967"><ele>567.0</ele><time>2026-05-02T08:24:14.789Z</time></trkpt><trkpt lat="43.554585" lon="12.2824617"><ele>563.0</ele><time>2026-05-02T08:24:15.789Z</time></trkpt><trkpt lat="43.55441" lon="12.28242"><ele>559.0</ele><time>2026-05-02T08:24:16.79Z</time></trkpt><trkpt lat="43.5542233" lon="12.2823733"><ele>555.0</ele><time>2026-05-02T08:24:17.789Z</time></trkpt><trkpt lat="43.5540333" lon="12.2823267"><ele>555.0</ele><time>2026-05-02T08:24:18.789Z</time></trkpt><trkpt lat="43.5538417" lon="12.2822833"><ele>555.0</ele><time>2026-05-02T08:24:19.789Z</time></trkpt><trkpt lat="43.55367" lon="12.2822433"><ele>555.0</ele><time>2026-05-02T08:24:20.791Z</time></trkpt><trkpt lat="43.5535183" lon="12.282205"><ele>560.3333333333334</ele><time>2026-05-02T08:24:21.79Z</time></trkpt><trkpt lat="43.5533817" lon="12.2821333"><ele>565.6666666666667</ele><time>2026-05-02T08:24:22.789Z</time></trkpt><trkpt lat="43.5532567" lon="12.2820167"><ele>571.0</ele><time>2026-05-02T08:24:23.789Z</time></trkpt><trkpt lat="43.5531317" lon="12.28185"><ele>571.0</ele><time>2026-05-02T08:24:24.789Z</time></trkpt><trkpt lat="43.5530083" lon="12.28166"><ele>571.0</ele><time>2026-05-02T08:24:25.789Z</time></trkpt><trkpt lat="43.5528783" lon="12.2814667"><ele>571.0</ele><time>2026-05-02T08:24:26.79Z</time></trkpt><trkpt lat="43.5527417" lon="12.2812733"><ele>567.3333333333334</ele><time>2026-05-02T08:24:27.789Z</time></trkpt><trkpt lat="43.5525967" lon="12.281095"><ele>563.6666666666666</ele><time>2026-05-02T08:24:28.789Z</time></trkpt><trkpt lat="43.552445" lon="12.2809267"><ele>560.0</ele><time>2026-05-02T08:24:29.79Z</time></trkpt><trkpt lat="43.5522883" lon="12.28079"><ele>560.0</ele><time>2026-05-02T08:24:30.789Z</time></trkpt><trkpt lat="43.552135" lon="12.2806717"><ele>560.0</ele><time>2026-05-02T08:24:31.79Z</time></trkpt><trkpt lat="43.5519817" lon="12.28058"><ele>560.0</ele><time>2026-05-02T08:24:32.79Z</time></trkpt><trkpt lat="43.5518467" lon="12.28048"><ele>556.3333333333333</ele><time>2026-05-02T08:24:33.789Z</time></trkpt><trkpt lat="43.5517267" lon="12.2803567"><ele>552.6666666666666</ele><time>2026-05-02T08:24:34.789Z</time></trkpt><trkpt lat="43.5516117" lon="12.2801883"><ele>549.0</ele><time>2026-05-02T08:24:35.789Z</time></trkpt><trkpt lat="43.5515017" lon="12.27998"><ele>552.6666666666666</ele><time>2026-05-02T08:24:36.79Z</time></trkpt><trkpt lat="43.5513867" lon="12.2797567"><ele>556.3333333333333</ele><time>2026-05-02T08:24:37.789Z</time></trkpt><trkpt lat="43.5512667" lon="12.2795183"><ele>560.0</ele><time>2026-05-02T08:24:38.789Z</time></trkpt><trkpt lat="43.5511417" lon="12.279275"><ele>554.0</ele><time>2026-05-02T08:24:39.79Z</time></trkpt><trkpt lat="43.55102" lon="12.2790233"><ele>548.0</ele><time>2026-05-02T08:24:40.786Z</time></trkpt><trkpt lat="43.5508933" lon="12.2787817"><ele>542.0</ele><time>2026-05-02T08:24:41.789Z</time></trkpt><trkpt lat="43.550765" lon="12.278555"><ele>542.0</ele><time>2026-05-02T08:24:42.787Z</time></trkpt><trkpt lat="43.5506467" lon="12.2783367"><ele>542.0</ele><time>2026-05-02T08:24:43.786Z</time></trkpt><trkpt lat="43.5505367" lon="12.2781233"><ele>542.0</ele><time>2026-05-02T08:24:44.786Z</time></trkpt><trkpt lat="43.5504283" lon="12.277925"><ele>536.3333333333333</ele><time>2026-05-02T08:24:45.787Z</time></trkpt><trkpt lat="43.5503283" lon="12.27773"><ele>530.6666666666666</ele><time>2026-05-02T08:24:46.79Z</time></trkpt><trkpt lat="43.55025" lon="12.2775267"><ele>525.0</ele><time>2026-05-02T08:24:47.789Z</time></trkpt><trkpt lat="43.5501767" lon="12.277325"><ele>525.5</ele><time>2026-05-02T08:24:48.789Z</time></trkpt><trkpt lat="43.550095" lon="12.27714"><ele>526.0</ele><time>2026-05-02T08:24:49.789Z</time></trkpt><trkpt lat="43.55001" lon="12.2769783"><ele>526.5</ele><time>2026-05-02T08:24:50.789Z</time></trkpt><trkpt lat="43.54994" lon="12.276825"><ele>527.0</ele><time>2026-05-02T08:24:51.79Z</time></trkpt><trkpt lat="43.5498883" lon="12.2766633"><ele>527.0</ele><time>2026-05-02T08:24:52.789Z</time></trkpt><trkpt lat="43.54986" lon="12.2764867"><ele>527.0</ele><time>2026-05-02T08:24:53.79Z</time></trkpt><trkpt lat="43.5498633" lon="12.276285"><ele>527.0</ele><time>2026-05-02T08:24:54.785Z</time></trkpt><trkpt lat="43.5498833" lon="12.2760583"><ele>527.0</ele><time>2026-05-02T08:24:55.786Z</time></trkpt><trkpt lat="43.5499067" lon="12.2758133"><ele>524.3333333333333</ele><time>2026-05-02T08:24:56.79Z</time></trkpt><trkpt lat="43.5499283" lon="12.2755567"><ele>521.6666666666666</ele><time>2026-05-02T08:24:57.789Z</time></trkpt><trkpt lat="43.54995" lon="12.275295"><ele>519.0</ele><time>2026-05-02T08:24:58.789Z</time></trkpt><trkpt lat="43.5499683" lon="12.275025"><ele>517.6666666666666</ele><time>2026-05-02T08:24:59.789Z</time></trkpt><trkpt lat="43.5499817" lon="12.27475"><ele>516.3333333333333</ele><time>2026-05-02T08:25:00.789Z</time></trkpt><trkpt lat="43.54999" lon="12.2744867"><ele>515.0</ele><time>2026-05-02T08:25:01.789Z</time></trkpt><trkpt lat="43.55" lon="12.274235"><ele>515.0</ele><time>2026-05-02T08:25:02.79Z</time></trkpt><trkpt lat="43.5500083" lon="12.274005"><ele>515.0</ele><time>2026-05-02T08:25:03.786Z</time></trkpt><trkpt lat="43.55" lon="12.2737933"><ele>515.0</ele><time>2026-05-02T08:25:04.79Z</time></trkpt><trkpt lat="43.5499517" lon="12.2735833"><ele>517.3333333333333</ele><time>2026-05-02T08:25:05.789Z</time></trkpt><trkpt lat="43.54986" lon="12.27338"><ele>519.6666666666666</ele><time>2026-05-02T08:25:06.79Z</time></trkpt><trkpt lat="43.5497333" lon="12.2731917"><ele>522.0</ele><time>2026-05-02T08:25:07.789Z</time></trkpt><trkpt lat="43.549595" lon="12.2730167"><ele>516.0</ele><time>2026-05-02T08:25:08.79Z</time></trkpt><trkpt lat="43.5494533" lon="12.2728583"><ele>510.0</ele><time>2026-05-02T08:25:09.789Z</time></trkpt><trkpt lat="43.5493117" lon="12.2727083"><ele>504.0</ele><time>2026-05-02T08:25:10.791Z</time></trkpt><trkpt lat="43.5491767" lon="12.272575"><ele>504.0</ele><time>2026-05-02T08:25:11.787Z</time></trkpt><trkpt lat="43.5490683" lon="12.2724483"><ele>504.0</ele><time>2026-05-02T08:25:12.79Z</time></trkpt><trkpt lat="43.548985" lon="12.27231"><ele>504.0</ele><time>2026-05-02T08:25:13.79Z</time></trkpt><trkpt lat="43.548925" lon="12.272135"><ele>504.0</ele><time>2026-05-02T08:25:14.789Z</time></trkpt><trkpt lat="43.5489017" lon="12.271915"><ele>508.33333333333337</ele><time>2026-05-02T08:25:15.789Z</time></trkpt><trkpt lat="43.5488933" lon="12.2716667"><ele>512.6666666666667</ele><time>2026-05-02T08:25:16.79Z</time></trkpt><trkpt lat="43.5488617" lon="12.27141"><ele>517.0</ele><time>2026-05-02T08:25:17.789Z</time></trkpt><trkpt lat="43.5487917" lon="12.2711517"><ele>511.0</ele><time>2026-05-02T08:25:18.791Z</time></trkpt><trkpt lat="43.5487017" lon="12.2709033"><ele>505.0</ele><time>2026-05-02T08:25:19.789Z</time></trkpt><trkpt lat="43.5486" lon="12.270675"><ele>499.0</ele><time>2026-05-02T08:25:20.79Z</time></trkpt><trkpt lat="43.5484983" lon="12.2704617"><ele>499.0</ele><time>2026-05-02T08:25:21.789Z</time></trkpt><trkpt lat="43.54839" lon="12.270265"><ele>499.0</ele><time>2026-05-02T08:25:22.786Z</time></trkpt><trkpt lat="43.5482867" lon="12.2700783"><ele>499.0</ele><time>2026-05-02T08:25:23.786Z</time></trkpt><trkpt lat="43.548205" lon="12.269905"><ele>499.33333333333337</ele><time>2026-05-02T08:25:24.791Z</time></trkpt><trkpt lat="43.5481567" lon="12.2697217"><ele>499.66666666666663</ele><time>2026-05-02T08:25:25.789Z</time></trkpt><trkpt lat="43.5481167" lon="12.2695217"><ele>500.0</ele><time>2026-05-02T08:25:26.788Z</time></trkpt><trkpt lat="43.5480983" lon="12.26929"><ele>500.0</ele><time>2026-05-02T08:25:27.786Z</time></trkpt><trkpt lat="43.548085" lon="12.2690383"><ele>500.0</ele><time>2026-05-02T08:25:28.785Z</time></trkpt><trkpt lat="43.5480667" lon="12.2687917"><ele>500.0</ele><time>2026-05-02T08:25:29.785Z</time></trkpt><trkpt lat="43.5480483" lon="12.268545"><ele>499.66666666666663</ele><time>2026-05-02T08:25:30.785Z</time></trkpt><trkpt lat="43.548035" lon="12.2683033"><ele>499.33333333333337</ele><time>2026-05-02T08:25:31.785Z</time></trkpt><trkpt lat="43.5480167" lon="12.268075"><ele>499.0</ele><time>2026-05-02T08:25:32.786Z</time></trkpt><trkpt lat="43.5479983" lon="12.2678717"><ele>496.2</ele><time>2026-05-02T08:25:33.785Z</time></trkpt><trkpt lat="43.5479817" lon="12.2676967"><ele>493.4</ele><time>2026-05-02T08:25:34.785Z</time></trkpt><trkpt lat="43.5479783" lon="12.2675483"><ele>490.6</ele><time>2026-05-02T08:25:35.785Z</time></trkpt><trkpt lat="43.5480067" lon="12.26743"><ele>487.8</ele><time>2026-05-02T08:25:36.786Z</time></trkpt><trkpt lat="43.54807" lon="12.2673417"><ele>485.0</ele><time>2026-05-02T08:25:37.787Z</time></trkpt><trkpt lat="43.5481533" lon="12.2672917"><ele>485.0</ele><time>2026-05-02T08:25:38.789Z</time></trkpt><trkpt lat="43.548245" lon="12.2672733"><ele>485.0</ele><time>2026-05-02T08:25:39.789Z</time></trkpt><trkpt lat="43.548345" lon="12.2673167"><ele>485.0</ele><time>2026-05-02T08:25:40.79Z</time></trkpt><trkpt lat="43.5484933" lon="12.267405"><ele>485.0</ele><time>2026-05-02T08:25:41.787Z</time></trkpt><trkpt lat="43.548625" lon="12.2674333"><ele>485.2</ele><time>2026-05-02T08:25:42.785Z</time></trkpt><trkpt lat="43.548755" lon="12.26744"><ele>485.4</ele><time>2026-05-02T08:25:43.789Z</time></trkpt><trkpt lat="43.548865" lon="12.26741"><ele>485.6</ele><time>2026-05-02T08:25:44.785Z</time></trkpt><trkpt lat="43.54896" lon="12.2673583"><ele>485.8</ele><time>2026-05-02T08:25:45.785Z</time></trkpt><trkpt lat="43.54905" lon="12.26729"><ele>486.0</ele><time>2026-05-02T08:25:46.785Z</time></trkpt><trkpt lat="43.549095" lon="12.2671867"><ele>484.8</ele><time>2026-05-02T08:25:47.785Z</time></trkpt><trkpt lat="43.5491133" lon="12.2670583"><ele>483.6</ele><time>2026-05-02T08:25:48.785Z</time></trkpt><trkpt lat="43.5490867" lon="12.26692"><ele>482.4</ele><time>2026-05-02T08:25:49.785Z</time></trkpt><trkpt lat="43.5490383" lon="12.2667817"><ele>481.2</ele><time>2026-05-02T08:25:50.789Z</time></trkpt><trkpt lat="43.5489667" lon="12.26667"><ele>480.0</ele><time>2026-05-02T08:25:51.789Z</time></trkpt><trkpt lat="43.5488417" lon="12.266605"><ele>477.75</ele><time>2026-05-02T08:25:52.786Z</time></trkpt><trkpt lat="43.5487067" lon="12.2665533"><ele>475.5</ele><time>2026-05-02T08:25:53.788Z</time></trkpt><trkpt lat="43.5485717" lon="12.2664833"><ele>473.25</ele><time>2026-05-02T08:25:54.788Z</time></trkpt><trkpt lat="43.5484433" lon="12.2663917"><ele>471.0</ele><time>2026-05-02T08:25:55.788Z</time></trkpt><trkpt lat="43.5483167" lon="12.26628"><ele>478.66666666666663</ele><time>2026-05-02T08:25:56.788Z</time></trkpt><trkpt lat="43.5481833" lon="12.2661683"><ele>486.3333333333333</ele><time>2026-05-02T08:25:57.786Z</time></trkpt><trkpt lat="43.5480433" lon="12.2660583"><ele>494.0</ele><time>2026-05-02T08:25:58.785Z</time></trkpt><trkpt lat="43.5479017" lon="12.26595"><ele>489.0</ele><time>2026-05-02T08:25:59.786Z</time></trkpt><trkpt lat="43.5477683" lon="12.2658433"><ele>484.0</ele><time>2026-05-02T08:26:00.785Z</time></trkpt><trkpt lat="43.5476417" lon="12.2657267"><ele>479.0</ele><time>2026-05-02T08:26:01.786Z</time></trkpt><trkpt lat="43.547525" lon="12.2656"><ele>479.0</ele><time>2026-05-02T08:26:02.785Z</time></trkpt><trkpt lat="43.547425" lon="12.2654533"><ele>479.0</ele><time>2026-05-02T08:26:03.786Z</time></trkpt><trkpt lat="43.547345" lon="12.2652917"><ele>479.0</ele><time>2026-05-02T08:26:04.787Z</time></trkpt><trkpt lat="43.5472683" lon="12.265115"><ele>479.0</ele><time>2026-05-02T08:26:05.785Z</time></trkpt><trkpt lat="43.5471917" lon="12.2649333"><ele>475.3333333333333</ele><time>2026-05-02T08:26:06.786Z</time></trkpt><trkpt lat="43.5471067" lon="12.2647517"><ele>471.66666666666663</ele><time>2026-05-02T08:26:07.785Z</time></trkpt><trkpt lat="43.546995" lon="12.264595"><ele>468.0</ele><time>2026-05-02T08:26:08.789Z</time></trkpt><trkpt lat="43.54688" lon="12.2644517"><ele>468.0</ele><time>2026-05-02T08:26:09.788Z</time></trkpt><trkpt lat="43.5467733" lon="12.2643167"><ele>468.0</ele><time>2026-05-02T08:26:10.785Z</time></trkpt><trkpt lat="43.5466833" lon="12.26418"><ele>468.0</ele><time>2026-05-02T08:26:11.788Z</time></trkpt><trkpt lat="43.5466183" lon="12.2640433"><ele>468.0</ele><time>2026-05-02T08:26:12.789Z</time></trkpt><trkpt lat="43.5465833" lon="12.2639017"><ele>468.0</ele><time>2026-05-02T08:26:13.789Z</time></trkpt><trkpt lat="43.5465833" lon="12.2637517"><ele>468.0</ele><time>2026-05-02T08:26:14.788Z</time></trkpt><trkpt lat="43.546615" lon="12.2636017"><ele>468.0</ele><time>2026-05-02T08:26:15.788Z</time></trkpt><trkpt lat="43.5466883" lon="12.2634533"><ele>468.0</ele><time>2026-05-02T08:26:16.789Z</time></trkpt><trkpt lat="43.5467683" lon="12.2632983"><ele>468.0</ele><time>2026-05-02T08:26:17.789Z</time></trkpt><trkpt lat="43.54684" lon="12.2631217"><ele>468.0</ele><time>2026-05-02T08:26:18.785Z</time></trkpt><trkpt lat="43.5468983" lon="12.2629433"><ele>468.0</ele><time>2026-05-02T08:26:19.785Z</time></trkpt><trkpt lat="43.54696" lon="12.2627717"><ele>468.0</ele><time>2026-05-02T08:26:20.789Z</time></trkpt><trkpt lat="43.5470167" lon="12.2626133"><ele>464.75</ele><time>2026-05-02T08:26:21.785Z</time></trkpt><trkpt lat="43.54705" lon="12.2624467"><ele>461.5</ele><time>2026-05-02T08:26:22.789Z</time></trkpt><trkpt lat="43.54705" lon="12.2622533"><ele>458.25</ele><time>2026-05-02T08:26:23.789Z</time></trkpt><trkpt lat="43.5470283" lon="12.2620517"><ele>455.0</ele><time>2026-05-02T08:26:24.786Z</time></trkpt><trkpt lat="43.546975" lon="12.2618567"><ele>455.0</ele><time>2026-05-02T08:26:25.786Z</time></trkpt><trkpt lat="43.5469067" lon="12.2616667"><ele>455.0</ele><time>2026-05-02T08:26:26.789Z</time></trkpt><trkpt lat="43.54683" lon="12.2614667"><ele>455.0</ele><time>2026-05-02T08:26:27.786Z</time></trkpt><trkpt lat="43.5467433" lon="12.2612783"><ele>459.0</ele><time>2026-05-02T08:26:28.786Z</time></trkpt><trkpt lat="43.54665" lon="12.261105"><ele>463.0</ele><time>2026-05-02T08:26:29.787Z</time></trkpt><trkpt lat="43.54655" lon="12.26095"><ele>467.0</ele><time>2026-05-02T08:26:30.786Z</time></trkpt><trkpt lat="43.5464533" lon="12.2608133"><ele>471.0</ele><time>2026-05-02T08:26:31.786Z</time></trkpt><trkpt lat="43.54636" lon="12.2606917"><ele>469.8</ele><time>2026-05-02T08:26:32.786Z</time></trkpt><trkpt lat="43.54628" lon="12.2605717"><ele>468.6</ele><time>2026-05-02T08:26:33.786Z</time></trkpt><trkpt lat="43.5462333" lon="12.2604383"><ele>467.4</ele><time>2026-05-02T08:26:34.788Z</time></trkpt><trkpt lat="43.5462233" lon="12.2603133"><ele>466.2</ele><time>2026-05-02T08:26:35.786Z</time></trkpt><trkpt lat="43.5462517" lon="12.260185"><ele>465.0</ele><time>2026-05-02T08:26:36.786Z</time></trkpt><trkpt lat="43.546315" lon="12.2600483"><ele>465.0</ele><time>2026-05-02T08:26:37.787Z</time></trkpt><trkpt lat="43.54641" lon="12.2599067"><ele>465.0</ele><time>2026-05-02T08:26:38.789Z</time></trkpt><trkpt lat="43.5464883" lon="12.2597733"><ele>465.0</ele><time>2026-05-02T08:26:39.788Z</time></trkpt><trkpt lat="43.5465517" lon="12.2596283"><ele>465.0</ele><time>2026-05-02T08:26:40.789Z</time></trkpt><trkpt lat="43.5465867" lon="12.259495"><ele>463.0</ele><time>2026-05-02T08:26:41.79Z</time></trkpt><trkpt lat="43.54659" lon="12.2593767"><ele>461.0</ele><time>2026-05-02T08:26:42.785Z</time></trkpt><trkpt lat="43.546575" lon="12.25926"><ele>459.0</ele><time>2026-05-02T08:26:43.788Z</time></trkpt><trkpt lat="43.5465233" lon="12.25917"><ele>457.0</ele><time>2026-05-02T08:26:44.789Z</time></trkpt><trkpt lat="43.5464417" lon="12.2590983"><ele>455.0</ele><time>2026-05-02T08:26:45.789Z</time></trkpt><trkpt lat="43.5463217" lon="12.2590333"><ele>453.75</ele><time>2026-05-02T08:26:46.789Z</time></trkpt><trkpt lat="43.5462133" lon="12.2589417"><ele>452.5</ele><time>2026-05-02T08:26:47.789Z</time></trkpt><trkpt lat="43.5461017" lon="12.2588433"><ele>451.25</ele><time>2026-05-02T08:26:48.789Z</time></trkpt><trkpt lat="43.5459917" lon="12.258725"><ele>450.0</ele><time>2026-05-02T08:26:49.788Z</time></trkpt><trkpt lat="43.5458833" lon="12.258595"><ele>450.0</ele><time>2026-05-02T08:26:50.786Z</time></trkpt><trkpt lat="43.5457783" lon="12.2584533"><ele>450.0</ele><time>2026-05-02T08:26:51.786Z</time></trkpt><trkpt lat="43.5456733" lon="12.2583083"><ele>450.0</ele><time>2026-05-02T08:26:52.88Z</time></trkpt><trkpt lat="43.545565" lon="12.2581717"><ele>450.0</ele><time>2026-05-02T08:26:53.785Z</time></trkpt><trkpt lat="43.545455" lon="12.2580433"><ele>450.75</ele><time>2026-05-02T08:26:54.788Z</time></trkpt><trkpt lat="43.5453433" lon="12.2579333"><ele>451.5</ele><time>2026-05-02T08:26:55.789Z</time></trkpt><trkpt lat="43.5452267" lon="12.257865"><ele>452.25</ele><time>2026-05-02T08:26:56.785Z</time></trkpt><trkpt lat="43.5451083" lon="12.2578283"><ele>453.0</ele><time>2026-05-02T08:26:57.785Z</time></trkpt><trkpt lat="43.544985" lon="12.25782"><ele>453.0</ele><time>2026-05-02T08:26:58.785Z</time></trkpt><trkpt lat="43.5448633" lon="12.25782"><ele>453.0</ele><time>2026-05-02T08:26:59.786Z</time></trkpt><trkpt lat="43.544745" lon="12.2578"><ele>453.0</ele><time>2026-05-02T08:27:00.786Z</time></trkpt><trkpt lat="43.54464" lon="12.2577467"><ele>453.0</ele><time>2026-05-02T08:27:01.786Z</time></trkpt><trkpt lat="43.5445467" lon="12.2576417"><ele>447.0</ele><time>2026-05-02T08:27:02.787Z</time></trkpt><trkpt lat="43.544465" lon="12.2574867"><ele>441.0</ele><time>2026-05-02T08:27:03.785Z</time></trkpt><trkpt lat="43.5443867" lon="12.2573117"><ele>435.0</ele><time>2026-05-02T08:27:04.785Z</time></trkpt><trkpt lat="43.544315" lon="12.2571117"><ele>435.0</ele><time>2026-05-02T08:27:05.786Z</time></trkpt><trkpt lat="43.5442417" lon="12.2569083"><ele>435.0</ele><time>2026-05-02T08:27:06.785Z</time></trkpt><trkpt lat="43.544175" lon="12.2567117"><ele>435.0</ele><time>2026-05-02T08:27:07.785Z</time></trkpt><trkpt lat="43.5441183" lon="12.25651"><ele>437.0</ele><time>2026-05-02T08:27:08.789Z</time></trkpt><trkpt lat="43.5440667" lon="12.256305"><ele>439.0</ele><time>2026-05-02T08:27:09.785Z</time></trkpt><trkpt lat="43.54402" lon="12.2560883"><ele>441.0</ele><time>2026-05-02T08:27:10.789Z</time></trkpt><trkpt lat="43.5439717" lon="12.2558633"><ele>441.0</ele><time>2026-05-02T08:27:11.789Z</time></trkpt><trkpt lat="43.5439133" lon="12.2556367"><ele>441.0</ele><time>2026-05-02T08:27:12.789Z</time></trkpt><trkpt lat="43.543845" lon="12.255405"><ele>441.0</ele><time>2026-05-02T08:27:13.788Z</time></trkpt><trkpt lat="43.5437683" lon="12.25518"><ele>436.66666666666663</ele><time>2026-05-02T08:27:14.786Z</time></trkpt><trkpt lat="43.5436867" lon="12.2549583"><ele>432.3333333333333</ele><time>2026-05-02T08:27:15.787Z</time></trkpt><trkpt lat="43.543615" lon="12.2547383"><ele>428.0</ele><time>2026-05-02T08:27:16.79Z</time></trkpt><trkpt lat="43.543555" lon="12.2545117"><ele>428.0</ele><time>2026-05-02T08:27:17.786Z</time></trkpt><trkpt lat="43.543495" lon="12.2542833"><ele>428.0</ele><time>2026-05-02T08:27:18.786Z</time></trkpt><trkpt lat="43.5434367" lon="12.25405"><ele>428.0</ele><time>2026-05-02T08:27:19.786Z</time></trkpt><trkpt lat="43.54337" lon="12.25382"><ele>433.3333333333333</ele><time>2026-05-02T08:27:20.789Z</time></trkpt><trkpt lat="43.54329" lon="12.2536033"><ele>438.66666666666663</ele><time>2026-05-02T08:27:21.789Z</time></trkpt><trkpt lat="43.5431917" lon="12.253415"><ele>444.0</ele><time>2026-05-02T08:27:22.789Z</time></trkpt><trkpt lat="43.5430717" lon="12.2532467"><ele>438.33333333333337</ele><time>2026-05-02T08:27:23.789Z</time></trkpt><trkpt lat="43.54293" lon="12.2531033"><ele>432.6666666666667</ele><time>2026-05-02T08:27:24.788Z</time></trkpt><trkpt lat="43.5427767" lon="12.2529783"><ele>427.0</ele><time>2026-05-02T08:27:25.788Z</time></trkpt><trkpt lat="43.5426283" lon="12.2528633"><ele>427.0</ele><time>2026-05-02T08:27:26.785Z</time></trkpt><trkpt lat="43.5424867" lon="12.2527683"><ele>427.0</ele><time>2026-05-02T08:27:27.785Z</time></trkpt><trkpt lat="43.5423717" lon="12.25268"><ele>427.0</ele><time>2026-05-02T08:27:28.785Z</time></trkpt><trkpt lat="43.5422883" lon="12.25258"><ele>427.0</ele><time>2026-05-02T08:27:29.786Z</time></trkpt><trkpt lat="43.54224" lon="12.2524467"><ele>428.5</ele><time>2026-05-02T08:27:30.786Z</time></trkpt><trkpt lat="43.5422083" lon="12.2522783"><ele>430.0</ele><time>2026-05-02T08:27:31.785Z</time></trkpt><trkpt lat="43.54219" lon="12.25208"><ele>431.5</ele><time>2026-05-02T08:27:32.785Z</time></trkpt><trkpt lat="43.5421667" lon="12.2518517"><ele>433.0</ele><time>2026-05-02T08:27:33.789Z</time></trkpt><trkpt lat="43.5421417" lon="12.251615"><ele>429.6666666666667</ele><time>2026-05-02T08:27:34.789Z</time></trkpt><trkpt lat="43.54211" lon="12.2513883"><ele>426.33333333333337</ele><time>2026-05-02T08:27:35.791Z</time></trkpt><trkpt lat="43.5420867" lon="12.251175"><ele>423.0</ele><time>2026-05-02T08:27:36.789Z</time></trkpt><trkpt lat="43.542085" lon="12.25097"><ele>423.0</ele><time>2026-05-02T08:27:37.786Z</time></trkpt><trkpt lat="43.5421083" lon="12.25077"><ele>423.0</ele><time>2026-05-02T08:27:38.785Z</time></trkpt><trkpt lat="43.5421483" lon="12.2505667"><ele>423.0</ele><time>2026-05-02T08:27:39.786Z</time></trkpt><trkpt lat="43.5421767" lon="12.2503567"><ele>419.33333333333337</ele><time>2026-05-02T08:27:40.785Z</time></trkpt><trkpt lat="43.54217" lon="12.2501383"><ele>415.6666666666667</ele><time>2026-05-02T08:27:41.786Z</time></trkpt><trkpt lat="43.5421283" lon="12.2499167"><ele>412.0</ele><time>2026-05-02T08:27:42.785Z</time></trkpt><trkpt lat="43.542065" lon="12.2496833"><ele>408.33333333333337</ele><time>2026-05-02T08:27:43.786Z</time></trkpt><trkpt lat="43.541995" lon="12.2494467"><ele>404.66666666666663</ele><time>2026-05-02T08:27:44.786Z</time></trkpt><trkpt lat="43.5419283" lon="12.24922"><ele>401.0</ele><time>2026-05-02T08:27:45.785Z</time></trkpt><trkpt lat="43.5418567" lon="12.249005"><ele>404.3333333333333</ele><time>2026-05-02T08:27:46.786Z</time></trkpt><trkpt lat="43.5417717" lon="12.248795"><ele>407.66666666666663</ele><time>2026-05-02T08:27:47.786Z</time></trkpt><trkpt lat="43.5416683" lon="12.2485883"><ele>411.0</ele><time>2026-05-02T08:27:48.785Z</time></trkpt><trkpt lat="43.541555" lon="12.2483817"><ele>411.0</ele><time>2026-05-02T08:27:49.785Z</time></trkpt><trkpt lat="43.5414433" lon="12.24817"><ele>411.0</ele><time>2026-05-02T08:27:50.787Z</time></trkpt><trkpt lat="43.5413317" lon="12.247955"><ele>411.0</ele><time>2026-05-02T08:27:51.786Z</time></trkpt><trkpt lat="43.5412217" lon="12.247735"><ele>411.0</ele><time>2026-05-02T08:27:52.787Z</time></trkpt><trkpt lat="43.5411117" lon="12.2475083"><ele>411.0</ele><time>2026-05-02T08:27:53.786Z</time></trkpt><trkpt lat="43.541005" lon="12.2472783"><ele>411.0</ele><time>2026-05-02T08:27:54.789Z</time></trkpt><trkpt lat="43.5409" lon="12.2470517"><ele>411.0</ele><time>2026-05-02T08:27:55.789Z</time></trkpt><trkpt lat="43.5408" lon="12.24683"><ele>411.0</ele><time>2026-05-02T08:27:56.787Z</time></trkpt><trkpt lat="43.5407017" lon="12.2466117"><ele>411.0</ele><time>2026-05-02T08:27:57.786Z</time></trkpt><trkpt lat="43.5406033" lon="12.2463967"><ele>407.0</ele><time>2026-05-02T08:27:58.786Z</time></trkpt><trkpt lat="43.5405067" lon="12.2461867"><ele>403.0</ele><time>2026-05-02T08:27:59.786Z</time></trkpt><trkpt lat="43.5404167" lon="12.2459833"><ele>399.0</ele><time>2026-05-02T08:28:00.785Z</time></trkpt><trkpt lat="43.5403267" lon="12.245785"><ele>403.66666666666663</ele><time>2026-05-02T08:28:01.786Z</time></trkpt><trkpt lat="43.5402333" lon="12.2455917"><ele>408.3333333333333</ele><time>2026-05-02T08:28:02.786Z</time></trkpt><trkpt lat="43.5401317" lon="12.2454"><ele>413.0</ele><time>2026-05-02T08:28:03.789Z</time></trkpt><trkpt lat="43.5400167" lon="12.2452233"><ele>413.0</ele><time>2026-05-02T08:28:04.789Z</time></trkpt><trkpt lat="43.5398983" lon="12.2450533"><ele>413.0</ele><time>2026-05-02T08:28:05.789Z</time></trkpt><trkpt lat="43.5397817" lon="12.2448883"><ele>413.0</ele><time>2026-05-02T08:28:06.789Z</time></trkpt><trkpt lat="43.5396783" lon="12.2447067"><ele>417.66666666666663</ele><time>2026-05-02T08:28:07.786Z</time></trkpt><trkpt lat="43.5395867" lon="12.2445083"><ele>422.33333333333337</ele><time>2026-05-02T08:28:08.787Z</time></trkpt><trkpt lat="43.5394917" lon="12.2443017"><ele>427.0</ele><time>2026-05-02T08:28:09.787Z</time></trkpt><trkpt lat="43.5393983" lon="12.2440833"><ele>419.33333333333337</ele><time>2026-05-02T08:28:10.786Z</time></trkpt><trkpt lat="43.5393183" lon="12.2438467"><ele>411.66666666666663</ele><time>2026-05-02T08:28:11.786Z</time></trkpt><trkpt lat="43.5392317" lon="12.2436083"><ele>404.0</ele><time>2026-05-02T08:28:12.787Z</time></trkpt><trkpt lat="43.5476417" lon="12.2657267"><ele>422.75</ele><time>2026-05-02T08:26:01.786Z</time></trkpt><trkpt lat="43.547525" lon="12.2656"><ele>441.5</ele><time>2026-05-02T08:26:02.785Z</time></trkpt><trkpt lat="43.547425" lon="12.2654533"><ele>460.25</ele><time>2026-05-02T08:26:03.786Z</time></trkpt><trkpt lat="43.547345" lon="12.2652917"><ele>479.0</ele><time>2026-05-02T08:26:04.787Z</time></trkpt><trkpt lat="43.5472683" lon="12.265115"><ele>479.0</ele><time>2026-05-02T08:26:05.785Z</time></trkpt><trkpt lat="43.5471917" lon="12.2649333"><ele>479.0</ele><time>2026-05-02T08:26:06.786Z</time></trkpt><trkpt lat="43.5471067" lon="12.2647517"><ele>479.0</ele><time>2026-05-02T08:26:07.785Z</time></trkpt><trkpt lat="43.546995" lon="12.264595"><ele>476.25</ele><time>2026-05-02T08:26:08.789Z</time></trkpt><trkpt lat="43.54688" lon="12.2644517"><ele>473.5</ele><time>2026-05-02T08:26:09.788Z</time></trkpt><trkpt lat="43.5467733" lon="12.2643167"><ele>470.75</ele><time>2026-05-02T08:26:10.785Z</time></trkpt><trkpt lat="43.5466833" lon="12.26418"><ele>468.0</ele><time>2026-05-02T08:26:11.788Z</time></trkpt><trkpt lat="43.5466183" lon="12.2640433"><ele>468.0</ele><time>2026-05-02T08:26:12.789Z</time></trkpt><trkpt lat="43.5465833" lon="12.2639017"><ele>468.0</ele><time>2026-05-02T08:26:13.789Z</time></trkpt><trkpt lat="43.5465833" lon="12.2637517"><ele>468.0</ele><time>2026-05-02T08:26:14.788Z</time></trkpt><trkpt lat="43.546615" lon="12.2636017"><ele>468.0</ele><time>2026-05-02T08:26:15.788Z</time></trkpt><trkpt lat="43.5466883" lon="12.2634533"><ele>468.0</ele><time>2026-05-02T08:26:16.789Z</time></trkpt><trkpt lat="43.5467683" lon="12.2632983"><ele>468.0</ele><time>2026-05-02T08:26:17.789Z</time></trkpt><trkpt lat="43.54684" lon="12.2631217"><ele>468.0</ele><time>2026-05-02T08:26:18.785Z</time></trkpt><trkpt lat="43.5468983" lon="12.2629433"><ele>468.0</ele><time>2026-05-02T08:26:19.785Z</time></trkpt><trkpt lat="43.54696" lon="12.2627717"><ele>464.75</ele><time>2026-05-02T08:26:20.789Z</time></trkpt><trkpt lat="43.5470167" lon="12.2626133"><ele>461.5</ele><time>2026-05-02T08:26:21.785Z</time></trkpt><trkpt lat="43.54705" lon="12.2624467"><ele>458.25</ele><time>2026-05-02T08:26:22.789Z</time></trkpt><trkpt lat="43.54705" lon="12.2622533"><ele>455.0</ele><time>2026-05-02T08:26:23.789Z</time></trkpt><trkpt lat="43.5470283" lon="12.2620517"><ele>455.0</ele><time>2026-05-02T08:26:24.786Z</time></trkpt><trkpt lat="43.546975" lon="12.2618567"><ele>455.0</ele><time>2026-05-02T08:26:25.786Z</time></trkpt><trkpt lat="43.5469067" lon="12.2616667"><ele>455.0</ele><time>2026-05-02T08:26:26.789Z</time></trkpt><trkpt lat="43.54683" lon="12.2614667"><ele>460.3333333333333</ele><time>2026-05-02T08:26:27.786Z</time></trkpt><trkpt lat="43.5467433" lon="12.2612783"><ele>465.66666666666663</ele><time>2026-05-02T08:26:28.786Z</time></trkpt><trkpt lat="43.54665" lon="12.261105"><ele>471.0</ele><time>2026-05-02T08:26:29.787Z</time></trkpt><trkpt lat="43.54655" lon="12.26095"><ele>471.0</ele><time>2026-05-02T08:26:30.786Z</time></trkpt><trkpt lat="43.5464533" lon="12.2608133"><ele>471.0</ele><time>2026-05-02T08:26:31.786Z</time></trkpt><trkpt lat="43.54636" lon="12.2606917"><ele>471.0</ele><time>2026-05-02T08:26:32.786Z</time></trkpt><trkpt lat="43.54628" lon="12.2605717"><ele>471.0</ele><time>2026-05-02T08:26:33.786Z</time></trkpt><trkpt lat="43.5462333" lon="12.2604383"><ele>469.8</ele><time>2026-05-02T08:26:34.788Z</time></trkpt><trkpt lat="43.5462233" lon="12.2603133"><ele>468.6</ele><time>2026-05-02T08:26:35.786Z</time></trkpt><trkpt lat="43.5462517" lon="12.260185"><ele>467.4</ele><time>2026-05-02T08:26:36.786Z</time></trkpt><trkpt lat="43.546315" lon="12.2600483"><ele>466.2</ele><time>2026-05-02T08:26:37.787Z</time></trkpt><trkpt lat="43.54641" lon="12.2599067"><ele>465.0</ele><time>2026-05-02T08:26:38.789Z</time></trkpt><trkpt lat="43.5464883" lon="12.2597733"><ele>463.0</ele><time>2026-05-02T08:26:39.788Z</time></trkpt><trkpt lat="43.5465517" lon="12.2596283"><ele>461.0</ele><time>2026-05-02T08:26:40.789Z</time></trkpt><trkpt lat="43.5465867" lon="12.259495"><ele>459.0</ele><time>2026-05-02T08:26:41.79Z</time></trkpt><trkpt lat="43.54659" lon="12.2593767"><ele>457.0</ele><time>2026-05-02T08:26:42.785Z</time></trkpt><trkpt lat="43.546575" lon="12.25926"><ele>455.0</ele><time>2026-05-02T08:26:43.788Z</time></trkpt><trkpt lat="43.5465233" lon="12.25917"><ele>455.0</ele><time>2026-05-02T08:26:44.789Z</time></trkpt><trkpt lat="43.5464417" lon="12.2590983"><ele>455.0</ele><time>2026-05-02T08:26:45.789Z</time></trkpt><trkpt lat="43.5463217" lon="12.2590333"><ele>455.0</ele><time>2026-05-02T08:26:46.789Z</time></trkpt><trkpt lat="43.5462133" lon="12.2589417"><ele>455.0</ele><time>2026-05-02T08:26:47.789Z</time></trkpt><trkpt lat="43.5461017" lon="12.2588433"><ele>453.75</ele><time>2026-05-02T08:26:48.789Z</time></trkpt><trkpt lat="43.5459917" lon="12.258725"><ele>452.5</ele><time>2026-05-02T08:26:49.788Z</time></trkpt><trkpt lat="43.5458833" lon="12.258595"><ele>451.25</ele><time>2026-05-02T08:26:50.786Z</time></trkpt><trkpt lat="43.5457783" lon="12.2584533"><ele>450.0</ele><time>2026-05-02T08:26:51.786Z</time></trkpt><trkpt lat="43.5456733" lon="12.2583083"><ele>450.0</ele><time>2026-05-02T08:26:52.88Z</time></trkpt><trkpt lat="43.545565" lon="12.2581717"><ele>450.0</ele><time>2026-05-02T08:26:53.785Z</time></trkpt><trkpt lat="43.545455" lon="12.2580433"><ele>450.0</ele><time>2026-05-02T08:26:54.788Z</time></trkpt><trkpt lat="43.5453433" lon="12.2579333"><ele>450.0</ele><time>2026-05-02T08:26:55.789Z</time></trkpt><trkpt lat="43.5452267" lon="12.257865"><ele>450.75</ele><time>2026-05-02T08:26:56.785Z</time></trkpt><trkpt lat="43.5451083" lon="12.2578283"><ele>451.5</ele><time>2026-05-02T08:26:57.785Z</time></trkpt><trkpt lat="43.544985" lon="12.25782"><ele>452.25</ele><time>2026-05-02T08:26:58.785Z</time></trkpt><trkpt lat="43.5448633" lon="12.25782"><ele>453.0</ele><time>2026-05-02T08:26:59.786Z</time></trkpt><trkpt lat="43.544745" lon="12.2578"><ele>453.0</ele><time>2026-05-02T08:27:00.786Z</time></trkpt><trkpt lat="43.54464" lon="12.2577467"><ele>453.0</ele><time>2026-05-02T08:27:01.786Z</time></trkpt><trkpt lat="43.5445467" lon="12.2576417"><ele>453.0</ele><time>2026-05-02T08:27:02.787Z</time></trkpt><trkpt lat="43.544465" lon="12.2574867"><ele>453.0</ele><time>2026-05-02T08:27:03.785Z</time></trkpt><trkpt lat="43.5443867" lon="12.2573117"><ele>447.0</ele><time>2026-05-02T08:27:04.785Z</time></trkpt><trkpt lat="43.544315" lon="12.2571117"><ele>441.0</ele><time>2026-05-02T08:27:05.786Z</time></trkpt><trkpt lat="43.5442417" lon="12.2569083"><ele>435.0</ele><time>2026-05-02T08:27:06.785Z</time></trkpt><trkpt lat="43.544175" lon="12.2567117"><ele>435.0</ele><time>2026-05-02T08:27:07.785Z</time></trkpt><trkpt lat="43.5441183" lon="12.25651"><ele>435.0</ele><time>2026-05-02T08:27:08.789Z</time></trkpt><trkpt lat="43.5440667" lon="12.256305"><ele>435.0</ele><time>2026-05-02T08:27:09.785Z</time></trkpt><trkpt lat="43.54402" lon="12.2560883"><ele>437.0</ele><time>2026-05-02T08:27:10.789Z</time></trkpt><trkpt lat="43.5439717" lon="12.2558633"><ele>439.0</ele><time>2026-05-02T08:27:11.789Z</time></trkpt><trkpt lat="43.5439133" lon="12.2556367"><ele>441.0</ele><time>2026-05-02T08:27:12.789Z</time></trkpt><trkpt lat="43.543845" lon="12.255405"><ele>444.33333333333337</ele><time>2026-05-02T08:27:13.788Z</time></trkpt><trkpt lat="43.5437683" lon="12.25518"><ele>447.6666666666667</ele><time>2026-05-02T08:27:14.786Z</time></trkpt><trkpt lat="43.5436867" lon="12.2549583"><ele>451.0</ele><time>2026-05-02T08:27:15.787Z</time></trkpt><trkpt lat="43.543615" lon="12.2547383"><ele>443.33333333333337</ele><time>2026-05-02T08:27:16.79Z</time></trkpt><trkpt lat="43.543555" lon="12.2545117"><ele>435.66666666666663</ele><time>2026-05-02T08:27:17.786Z</time></trkpt><trkpt lat="43.543495" lon="12.2542833"><ele>428.0</ele><time>2026-05-02T08:27:18.786Z</time></trkpt><trkpt lat="43.5434367" lon="12.25405"><ele>433.3333333333333</ele><time>2026-05-02T08:27:19.786Z</time></trkpt><trkpt lat="43.54337" lon="12.25382"><ele>438.66666666666663</ele><time>2026-05-02T08:27:20.789Z</time></trkpt><trkpt lat="43.54329" lon="12.2536033"><ele>444.0</ele><time>2026-05-02T08:27:21.789Z</time></trkpt><trkpt lat="43.5431917" lon="12.253415"><ele>444.0</ele><time>2026-05-02T08:27:22.789Z</time></trkpt><trkpt lat="43.5430717" lon="12.2532467"><ele>444.0</ele><time>2026-05-02T08:27:23.789Z</time></trkpt><trkpt lat="43.54293" lon="12.2531033"><ele>444.0</ele><time>2026-05-02T08:27:24.788Z</time></trkpt><trkpt lat="43.5427767" lon="12.2529783"><ele>438.33333333333337</ele><time>2026-05-02T08:27:25.788Z</time></trkpt><trkpt lat="43.5426283" lon="12.2528633"><ele>432.6666666666667</ele><time>2026-05-02T08:27:26.785Z</time></trkpt><trkpt lat="43.5424867" lon="12.2527683"><ele>427.0</ele><time>2026-05-02T08:27:27.785Z</time></trkpt><trkpt lat="43.5423717" lon="12.25268"><ele>427.0</ele><time>2026-05-02T08:27:28.785Z</time></trkpt><trkpt lat="43.5422883" lon="12.25258"><ele>427.0</ele><time>2026-05-02T08:27:29.786Z</time></trkpt><trkpt lat="43.54224" lon="12.2524467"><ele>427.0</ele><time>2026-05-02T08:27:30.786Z</time></trkpt><trkpt lat="43.5422083" lon="12.2522783"><ele>427.0</ele><time>2026-05-02T08:27:31.785Z</time></trkpt><trkpt lat="43.54219" lon="12.25208"><ele>425.6666666666667</ele><time>2026-05-02T08:27:32.785Z</time></trkpt><trkpt lat="43.5421667" lon="12.2518517"><ele>424.33333333333337</ele><time>2026-05-02T08:27:33.789Z</time></trkpt><trkpt lat="43.5421417" lon="12.251615"><ele>423.0</ele><time>2026-05-02T08:27:34.789Z</time></trkpt><trkpt lat="43.54211" lon="12.2513883"><ele>423.0</ele><time>2026-05-02T08:27:35.791Z</time></trkpt><trkpt lat="43.5420867" lon="12.251175"><ele>423.0</ele><time>2026-05-02T08:27:36.789Z</time></trkpt><trkpt lat="43.542085" lon="12.25097"><ele>423.0</ele><time>2026-05-02T08:27:37.786Z</time></trkpt><trkpt lat="43.5421083" lon="12.25077"><ele>418.33333333333337</ele><time>2026-05-02T08:27:38.785Z</time></trkpt><trkpt lat="43.5421483" lon="12.2505667"><ele>413.6666666666667</ele><time>2026-05-02T08:27:39.786Z</time></trkpt><trkpt lat="43.5421767" lon="12.2503567"><ele>409.0</ele><time>2026-05-02T08:27:40.785Z</time></trkpt><trkpt lat="43.54217" lon="12.2501383"><ele>409.0</ele><time>2026-05-02T08:27:41.786Z</time></trkpt><trkpt lat="43.5421283" lon="12.2499167"><ele>409.0</ele><time>2026-05-02T08:27:42.785Z</time></trkpt><trkpt lat="43.542065" lon="12.2496833"><ele>409.0</ele><time>2026-05-02T08:27:43.786Z</time></trkpt><trkpt lat="43.541995" lon="12.2494467"><ele>409.6666666666667</ele><time>2026-05-02T08:27:44.786Z</time></trkpt><trkpt lat="43.5419283" lon="12.24922"><ele>410.33333333333337</ele><time>2026-05-02T08:27:45.785Z</time></trkpt><trkpt lat="43.5418567" lon="12.249005"><ele>411.0</ele><time>2026-05-02T08:27:46.786Z</time></trkpt><trkpt lat="43.5417717" lon="12.248795"><ele>411.0</ele><time>2026-05-02T08:27:47.786Z</time></trkpt><trkpt lat="43.5416683" lon="12.2485883"><ele>411.0</ele><time>2026-05-02T08:27:48.785Z</time></trkpt><trkpt lat="43.541555" lon="12.2483817"><ele>411.0</ele><time>2026-05-02T08:27:49.785Z</time></trkpt><trkpt lat="43.5414433" lon="12.24817"><ele>408.0</ele><time>2026-05-02T08:27:50.787Z</time></trkpt><trkpt lat="43.5413317" lon="12.247955"><ele>405.0</ele><time>2026-05-02T08:27:51.786Z</time></trkpt><trkpt lat="43.5412217" lon="12.247735"><ele>402.0</ele><time>2026-05-02T08:27:52.787Z</time></trkpt><trkpt lat="43.5411117" lon="12.2475083"><ele>405.0</ele><time>2026-05-02T08:27:53.786Z</time></trkpt><trkpt lat="43.541005" lon="12.2472783"><ele>408.0</ele><time>2026-05-02T08:27:54.789Z</time></trkpt><trkpt lat="43.5409" lon="12.2470517"><ele>411.0</ele><time>2026-05-02T08:27:55.789Z</time></trkpt><trkpt lat="43.5408" lon="12.24683"><ele>411.0</ele><time>2026-05-02T08:27:56.787Z</time></trkpt><trkpt lat="43.5407017" lon="12.2466117"><ele>411.0</ele><time>2026-05-02T08:27:57.786Z</time></trkpt><trkpt lat="43.5406033" lon="12.2463967"><ele>411.0</ele><time>2026-05-02T08:27:58.786Z</time></trkpt><trkpt lat="43.5405067" lon="12.2461867"><ele>411.66666666666663</ele><time>2026-05-02T08:27:59.786Z</time></trkpt><trkpt lat="43.5404167" lon="12.2459833"><ele>412.3333333333333</ele><time>2026-05-02T08:28:00.785Z</time></trkpt><trkpt lat="43.5403267" lon="12.245785"><ele>413.0</ele><time>2026-05-02T08:28:01.786Z</time></trkpt><trkpt lat="43.5402333" lon="12.2455917"><ele>413.0</ele><time>2026-05-02T08:28:02.786Z</time></trkpt><trkpt lat="43.5401317" lon="12.2454"><ele>413.0</ele><time>2026-05-02T08:28:03.789Z</time></trkpt><trkpt lat="43.5400167" lon="12.2452233"><ele>413.0</ele><time>2026-05-02T08:28:04.789Z</time></trkpt><trkpt lat="43.5398983" lon="12.2450533"><ele>413.0</ele><time>2026-05-02T08:28:05.789Z</time></trkpt><trkpt lat="43.5397817" lon="12.2448883"><ele>413.0</ele><time>2026-05-02T08:28:06.789Z</time></trkpt><trkpt lat="43.5396783" lon="12.2447067"><ele>413.0</ele><time>2026-05-02T08:28:07.786Z</time></trkpt><trkpt lat="43.5395867" lon="12.2445083"><ele>410.0</ele><time>2026-05-02T08:28:08.787Z</time></trkpt><trkpt lat="43.5394917" lon="12.2443017"><ele>407.0</ele><time>2026-05-02T08:28:09.787Z</time></trkpt><trkpt lat="43.5393983" lon="12.2440833"><ele>404.0</ele><time>2026-05-02T08:28:10.786Z</time></trkpt><trkpt lat="43.5393183" lon="12.2438467"><ele>404.0</ele><time>2026-05-02T08:28:11.786Z</time></trkpt><trkpt lat="43.5392317" lon="12.2436083"><ele>404.0</ele><time>2026-05-02T08:28:12.787Z</time></trkpt><trkpt lat="43.5391483" lon="12.2433617"><ele>404.0</ele><time>2026-05-02T08:28:13.786Z</time></trkpt><trkpt lat="43.5390583" lon="12.243115"><ele>407.66666666666663</ele><time>2026-05-02T08:28:14.79Z</time></trkpt><trkpt lat="43.5389667" lon="12.2428817"><ele>411.33333333333337</ele><time>2026-05-02T08:28:15.785Z</time></trkpt><trkpt lat="43.5388733" lon="12.24266"><ele>415.0</ele><time>2026-05-02T08:28:16.786Z</time></trkpt><trkpt lat="43.53878" lon="12.242445"><ele>407.0</ele><time>2026-05-02T08:28:17.787Z</time></trkpt><trkpt lat="43.53869" lon="12.2422333"><ele>399.0</ele><time>2026-05-02T08:28:18.786Z</time></trkpt><trkpt lat="43.5386033" lon="12.2420283"><ele>391.0</ele><time>2026-05-02T08:28:19.787Z</time></trkpt><trkpt lat="43.53852" lon="12.241825"><ele>391.0</ele><time>2026-05-02T08:28:20.789Z</time></trkpt><trkpt lat="43.5384367" lon="12.2416117"><ele>391.0</ele><time>2026-05-02T08:28:21.789Z</time></trkpt><trkpt lat="43.5383633" lon="12.24139"><ele>391.0</ele><time>2026-05-02T08:28:22.79Z</time></trkpt><trkpt lat="43.5382933" lon="12.241165"><ele>392.0</ele><time>2026-05-02T08:28:23.79Z</time></trkpt><trkpt lat="43.5382283" lon="12.24094"><ele>393.0</ele><time>2026-05-02T08:28:24.789Z</time></trkpt><trkpt lat="43.53817" lon="12.2407117"><ele>394.0</ele><time>2026-05-02T08:28:25.789Z</time></trkpt><trkpt lat="43.5381133" lon="12.2404917"><ele>398.33333333333337</ele><time>2026-05-02T08:28:26.786Z</time></trkpt><trkpt lat="43.5380567" lon="12.240285"><ele>402.66666666666663</ele><time>2026-05-02T08:28:27.79Z</time></trkpt><trkpt lat="43.5379983" lon="12.2400767"><ele>407.0</ele><time>2026-05-02T08:28:28.789Z</time></trkpt><trkpt lat="43.5379367" lon="12.23987"><ele>400.66666666666663</ele><time>2026-05-02T08:28:29.789Z</time></trkpt><trkpt lat="43.5378617" lon="12.23967"><ele>394.33333333333337</ele><time>2026-05-02T08:28:30.786Z</time></trkpt><trkpt lat="43.53777" lon="12.2394733"><ele>388.0</ele><time>2026-05-02T08:28:31.789Z</time></trkpt><trkpt lat="43.537665" lon="12.2392817"><ele>388.0</ele><time>2026-05-02T08:28:32.789Z</time></trkpt><trkpt lat="43.5375517" lon="12.23909"><ele>388.0</ele><time>2026-05-02T08:28:33.789Z</time></trkpt><trkpt lat="43.5374383" lon="12.23889"><ele>388.0</ele><time>2026-05-02T08:28:34.79Z</time></trkpt><trkpt lat="43.5373317" lon="12.2386833"><ele>388.0</ele><time>2026-05-02T08:28:35.789Z</time></trkpt><trkpt lat="43.5372367" lon="12.2384633"><ele>388.0</ele><time>2026-05-02T08:28:36.791Z</time></trkpt><trkpt lat="43.53715" lon="12.2382383"><ele>388.0</ele><time>2026-05-02T08:28:37.786Z</time></trkpt><trkpt lat="43.5370667" lon="12.238015"><ele>388.33333333333337</ele><time>2026-05-02T08:28:38.787Z</time></trkpt><trkpt lat="43.53699" lon="12.2377933"><ele>388.66666666666663</ele><time>2026-05-02T08:28:39.787Z</time></trkpt><trkpt lat="43.5369217" lon="12.2375717"><ele>389.0</ele><time>2026-05-02T08:28:40.786Z</time></trkpt><trkpt lat="43.5368717" lon="12.23735"><ele>388.3333333333333</ele><time>2026-05-02T08:28:41.789Z</time></trkpt><trkpt lat="43.5368417" lon="12.2371217"><ele>387.66666666666663</ele><time>2026-05-02T08:28:42.787Z</time></trkpt><trkpt lat="43.5368317" lon="12.2368883"><ele>387.0</ele><time>2026-05-02T08:28:43.787Z</time></trkpt><trkpt lat="43.5368417" lon="12.23665"><ele>385.6666666666667</ele><time>2026-05-02T08:28:44.788Z</time></trkpt><trkpt lat="43.53686" lon="12.2364067"><ele>384.33333333333337</ele><time>2026-05-02T08:28:45.788Z</time></trkpt><trkpt lat="43.5368733" lon="12.23616"><ele>383.0</ele><time>2026-05-02T08:28:46.787Z</time></trkpt><trkpt lat="43.5368783" lon="12.2359083"><ele>383.0</ele><time>2026-05-02T08:28:47.788Z</time></trkpt><trkpt lat="43.5368733" lon="12.235655"><ele>383.0</ele><time>2026-05-02T08:28:48.787Z</time></trkpt><trkpt lat="43.536855" lon="12.235395"><ele>383.0</ele><time>2026-05-02T08:28:49.786Z</time></trkpt><trkpt lat="43.5368317" lon="12.2351317"><ele>382.0</ele><time>2026-05-02T08:28:50.789Z</time></trkpt><trkpt lat="43.5368083" lon="12.2348667"><ele>381.0</ele><time>2026-05-02T08:28:51.789Z</time></trkpt><trkpt lat="43.5367867" lon="12.2345983"><ele>380.0</ele><time>2026-05-02T08:28:52.789Z</time></trkpt><trkpt lat="43.53676" lon="12.2343283"><ele>379.0</ele><time>2026-05-02T08:28:53.789Z</time></trkpt><trkpt lat="43.5367333" lon="12.2340567"><ele>378.0</ele><time>2026-05-02T08:28:54.787Z</time></trkpt><trkpt lat="43.5367067" lon="12.23378"><ele>377.0</ele><time>2026-05-02T08:28:55.786Z</time></trkpt><trkpt lat="43.5366767" lon="12.2335033"><ele>376.0</ele><time>2026-05-02T08:28:56.789Z</time></trkpt><trkpt lat="43.53663" lon="12.2332333"><ele>375.0</ele><time>2026-05-02T08:28:57.79Z</time></trkpt><trkpt lat="43.536555" lon="12.23298"><ele>374.0</ele><time>2026-05-02T08:28:58.79Z</time></trkpt><trkpt lat="43.5364583" lon="12.23274"><ele>373.6666666666667</ele><time>2026-05-02T08:28:59.79Z</time></trkpt><trkpt lat="43.536355" lon="12.23251"><ele>373.3333333333333</ele><time>2026-05-02T08:29:00.786Z</time></trkpt><trkpt lat="43.5362583" lon="12.2322783"><ele>373.0</ele><time>2026-05-02T08:29:01.789Z</time></trkpt><trkpt lat="43.5361717" lon="12.2320367"><ele>371.3333333333333</ele><time>2026-05-02T08:29:02.79Z</time></trkpt><trkpt lat="43.536095" lon="12.2317867"><ele>369.6666666666667</ele><time>2026-05-02T08:29:03.789Z</time></trkpt><trkpt lat="43.5360217" lon="12.2315267"><ele>368.0</ele><time>2026-05-02T08:29:04.79Z</time></trkpt><trkpt lat="43.5359483" lon="12.23127"><ele>367.6666666666667</ele><time>2026-05-02T08:29:05.789Z</time></trkpt><trkpt lat="43.535875" lon="12.231025"><ele>367.3333333333333</ele><time>2026-05-02T08:29:06.789Z</time></trkpt><trkpt lat="43.5358067" lon="12.230795"><ele>367.0</ele><time>2026-05-02T08:29:07.786Z</time></trkpt><trkpt lat="43.5357417" lon="12.2305733"><ele>368.0</ele><time>2026-05-02T08:29:08.789Z</time></trkpt><trkpt lat="43.53568" lon="12.2303633"><ele>369.0</ele><time>2026-05-02T08:29:09.787Z</time></trkpt><trkpt lat="43.53562" lon="12.2301583"><ele>370.0</ele><time>2026-05-02T08:29:10.788Z</time></trkpt><trkpt lat="43.535565" lon="12.2299617"><ele>371.0</ele><time>2026-05-02T08:29:11.786Z</time></trkpt><trkpt lat="43.53551" lon="12.2297783"><ele>372.0</ele><time>2026-05-02T08:29:12.788Z</time></trkpt><trkpt lat="43.535455" lon="12.2296033"><ele>373.0</ele><time>2026-05-02T08:29:13.787Z</time></trkpt><trkpt lat="43.535395" lon="12.2294417"><ele>374.0</ele><time>2026-05-02T08:29:14.785Z</time></trkpt><trkpt lat="43.5353183" lon="12.2293"><ele>372.5</ele><time>2026-05-02T08:29:15.786Z</time></trkpt><trkpt lat="43.5352167" lon="12.2291883"><ele>371.0</ele><time>2026-05-02T08:29:16.786Z</time></trkpt><trkpt lat="43.5350933" lon="12.2290917"><ele>369.5</ele><time>2026-05-02T08:29:17.786Z</time></trkpt><trkpt lat="43.5349633" lon="12.2289883"><ele>368.0</ele><time>2026-05-02T08:29:18.786Z</time></trkpt><trkpt lat="43.5348467" lon="12.2288417"><ele>368.0</ele><time>2026-05-02T08:29:19.786Z</time></trkpt><trkpt lat="43.5347467" lon="12.22867"><ele>368.0</ele><time>2026-05-02T08:29:20.789Z</time></trkpt><trkpt lat="43.5346433" lon="12.228495"><ele>368.0</ele><time>2026-05-02T08:29:21.788Z</time></trkpt><trkpt lat="43.5345333" lon="12.2283183"><ele>366.6666666666667</ele><time>2026-05-02T08:29:22.788Z</time></trkpt><trkpt lat="43.5344167" lon="12.228145"><ele>365.3333333333333</ele><time>2026-05-02T08:29:23.788Z</time></trkpt><trkpt lat="43.5342967" lon="12.2279717"><ele>364.0</ele><time>2026-05-02T08:29:24.788Z</time></trkpt><trkpt lat="43.5341683" lon="12.22779"><ele>364.0</ele><time>2026-05-02T08:29:25.788Z</time></trkpt><trkpt lat="43.5340367" lon="12.2276033"><ele>364.0</ele><time>2026-05-02T08:29:26.789Z</time></trkpt><trkpt lat="43.5339017" lon="12.2274117"><ele>364.0</ele><time>2026-05-02T08:29:27.789Z</time></trkpt><trkpt lat="43.533765" lon="12.2272283"><ele>362.3333333333333</ele><time>2026-05-02T08:29:28.788Z</time></trkpt><trkpt lat="43.533635" lon="12.22705"><ele>360.6666666666667</ele><time>2026-05-02T08:29:29.789Z</time></trkpt><trkpt lat="43.5335133" lon="12.2268833"><ele>359.0</ele><time>2026-05-02T08:29:30.789Z</time></trkpt><trkpt lat="43.5334" lon="12.2267283"><ele>359.0</ele><time>2026-05-02T08:29:31.788Z</time></trkpt><trkpt lat="43.5332967" lon="12.2265867"><ele>359.0</ele><time>2026-05-02T08:29:32.789Z</time></trkpt><trkpt lat="43.53321" lon="12.2264633"><ele>359.0</ele><time>2026-05-02T08:29:33.788Z</time></trkpt><trkpt lat="43.533135" lon="12.22637"><ele>359.0</ele><time>2026-05-02T08:29:34.788Z</time></trkpt><trkpt lat="43.5330617" lon="12.2263083"><ele>359.0</ele><time>2026-05-02T08:29:35.79Z</time></trkpt><trkpt lat="43.5329867" lon="12.2262817"><ele>359.0</ele><time>2026-05-02T08:29:36.788Z</time></trkpt><trkpt lat="43.5328983" lon="12.226285"><ele>359.0</ele><time>2026-05-02T08:29:37.786Z</time></trkpt><trkpt lat="43.5327883" lon="12.226355"><ele>359.0</ele><time>2026-05-02T08:29:38.786Z</time></trkpt><trkpt lat="43.5326583" lon="12.2264617"><ele>359.0</ele><time>2026-05-02T08:29:39.785Z</time></trkpt><trkpt lat="43.5325183" lon="12.2265733"><ele>358.33333333333337</ele><time>2026-05-02T08:29:40.786Z</time></trkpt><trkpt lat="43.5323667" lon="12.22669"><ele>357.6666666666667</ele><time>2026-05-02T08:29:41.786Z</time></trkpt><trkpt lat="43.5322067" lon="12.2268033"><ele>357.0</ele><time>2026-05-02T08:29:42.785Z</time></trkpt><trkpt lat="43.53204" lon="12.226915"><ele>354.6666666666667</ele><time>2026-05-02T08:29:43.785Z</time></trkpt><trkpt lat="43.531875" lon="12.2270167"><ele>352.33333333333337</ele><time>2026-05-02T08:29:44.787Z</time></trkpt><trkpt lat="43.5317233" lon="12.2271117"><ele>350.0</ele><time>2026-05-02T08:29:45.786Z</time></trkpt><trkpt lat="43.531585" lon="12.2271967"><ele>350.0</ele><time>2026-05-02T08:29:46.786Z</time></trkpt><trkpt lat="43.5314667" lon="12.2272683"><ele>350.0</ele><time>2026-05-02T08:29:47.787Z</time></trkpt><trkpt lat="43.5313667" lon="12.2273233"><ele>350.0</ele><time>2026-05-02T08:29:48.785Z</time></trkpt><trkpt lat="43.5312767" lon="12.22735"><ele>350.0</ele><time>2026-05-02T08:29:49.786Z</time></trkpt><trkpt lat="43.531185" lon="12.2273383"><ele>350.0</ele><time>2026-05-02T08:29:50.791Z</time></trkpt><trkpt lat="43.5310917" lon="12.227265"><ele>350.75</ele><time>2026-05-02T08:29:51.789Z</time></trkpt><trkpt lat="43.5309867" lon="12.22716"><ele>351.5</ele><time>2026-05-02T08:29:52.788Z</time></trkpt><trkpt lat="43.5308717" lon="12.2270383"><ele>352.25</ele><time>2026-05-02T08:29:53.788Z</time></trkpt><trkpt lat="43.5307583" lon="12.22689"><ele>353.0</ele><time>2026-05-02T08:29:54.785Z</time></trkpt><trkpt lat="43.5306417" lon="12.22673"><ele>353.0</ele><time>2026-05-02T08:29:55.789Z</time></trkpt><trkpt lat="43.5305133" lon="12.226575"><ele>353.0</ele><time>2026-05-02T08:29:56.793Z</time></trkpt><trkpt lat="43.530385" lon="12.22641"><ele>353.0</ele><time>2026-05-02T08:29:57.788Z</time></trkpt><trkpt lat="43.5302483" lon="12.2262417"><ele>353.0</ele><time>2026-05-02T08:29:58.789Z</time></trkpt><trkpt lat="43.5301117" lon="12.2260767"><ele>353.0</ele><time>2026-05-02T08:29:59.788Z</time></trkpt><trkpt lat="43.5299683" lon="12.225915"><ele>353.0</ele><time>2026-05-02T08:30:00.789Z</time></trkpt><trkpt lat="43.52984" lon="12.2257633"><ele>352.5</ele><time>2026-05-02T08:30:01.788Z</time></trkpt><trkpt lat="43.5297233" lon="12.2256167"><ele>352.0</ele><time>2026-05-02T08:30:02.788Z</time></trkpt><trkpt lat="43.5296167" lon="12.22548"><ele>351.5</ele><time>2026-05-02T08:30:03.789Z</time></trkpt><trkpt lat="43.5294983" lon="12.225365"><ele>351.0</ele><time>2026-05-02T08:30:04.789Z</time></trkpt><trkpt lat="43.5293683" lon="12.2252683"><ele>351.0</ele><time>2026-05-02T08:30:05.788Z</time></trkpt><trkpt lat="43.5292233" lon="12.2251817"><ele>351.0</ele><time>2026-05-02T08:30:06.79Z</time></trkpt><trkpt lat="43.52906" lon="12.2251033"><ele>351.0</ele><time>2026-05-02T08:30:07.786Z</time></trkpt><trkpt lat="43.5288883" lon="12.2250267"><ele>350.6666666666667</ele><time>2026-05-02T08:30:08.789Z</time></trkpt><trkpt lat="43.52871" lon="12.2249433"><ele>350.33333333333337</ele><time>2026-05-02T08:30:09.789Z</time></trkpt><trkpt lat="43.5285283" lon="12.2248617"><ele>350.0</ele><time>2026-05-02T08:30:10.788Z</time></trkpt><trkpt lat="43.5283433" lon="12.224775"><ele>349.0</ele><time>2026-05-02T08:30:11.79Z</time></trkpt><trkpt lat="43.5281533" lon="12.22469"><ele>348.0</ele><time>2026-05-02T08:30:12.788Z</time></trkpt><trkpt lat="43.5279633" lon="12.2245983"><ele>347.0</ele><time>2026-05-02T08:30:13.789Z</time></trkpt><trkpt lat="43.5277817" lon="12.224495"><ele>347.0</ele><time>2026-05-02T08:30:14.785Z</time></trkpt><trkpt lat="43.5276133" lon="12.2243717"><ele>347.0</ele><time>2026-05-02T08:30:15.786Z</time></trkpt><trkpt lat="43.52746" lon="12.2242333"><ele>347.0</ele><time>2026-05-02T08:30:16.786Z</time></trkpt><trkpt lat="43.527315" lon="12.2240817"><ele>346.0</ele><time>2026-05-02T08:30:17.79Z</time></trkpt><trkpt lat="43.5271733" lon="12.2239233"><ele>345.0</ele><time>2026-05-02T08:30:18.79Z</time></trkpt><trkpt lat="43.5270367" lon="12.22376"><ele>344.0</ele><time>2026-05-02T08:30:19.788Z</time></trkpt><trkpt lat="43.5269083" lon="12.2235967"><ele>344.0</ele><time>2026-05-02T08:30:20.788Z</time></trkpt><trkpt lat="43.526795" lon="12.2234183"><ele>344.0</ele><time>2026-05-02T08:30:21.785Z</time></trkpt><trkpt lat="43.52669" lon="12.22323"><ele>344.0</ele><time>2026-05-02T08:30:22.789Z</time></trkpt><trkpt lat="43.5265933" lon="12.22304"><ele>343.6666666666667</ele><time>2026-05-02T08:30:23.789Z</time></trkpt><trkpt lat="43.526505" lon="12.2228467"><ele>343.3333333333333</ele><time>2026-05-02T08:30:24.789Z</time></trkpt><trkpt lat="43.52642" lon="12.222665"><ele>343.0</ele><time>2026-05-02T08:30:25.788Z</time></trkpt><trkpt lat="43.5263417" lon="12.222495"><ele>343.0</ele><time>2026-05-02T08:30:26.786Z</time></trkpt><trkpt lat="43.5262783" lon="12.2223417"><ele>343.0</ele><time>2026-05-02T08:30:27.787Z</time></trkpt><trkpt lat="43.526215" lon="12.222205"><ele>343.0</ele><time>2026-05-02T08:30:28.788Z</time></trkpt><trkpt lat="43.5261583" lon="12.22209"><ele>343.0</ele><time>2026-05-02T08:30:29.791Z</time></trkpt><trkpt lat="43.5261167" lon="12.2219967"><ele>343.0</ele><time>2026-05-02T08:30:30.791Z</time></trkpt><trkpt lat="43.52604" lon="12.221915"><ele>342.79999999999995</ele><time>2026-05-02T08:30:32.789Z</time></trkpt><trkpt lat="43.5259583" lon="12.2219683"><ele>342.6</ele><time>2026-05-02T08:30:34.789Z</time></trkpt><trkpt lat="43.525905" lon="12.2220433"><ele>342.4</ele><time>2026-05-02T08:30:35.789Z</time></trkpt><trkpt lat="43.525835" lon="12.2221267"><ele>342.20000000000005</ele><time>2026-05-02T08:30:36.79Z</time></trkpt><trkpt lat="43.5257483" lon="12.2222217"><ele>342.0</ele><time>2026-05-02T08:30:37.786Z</time></trkpt><trkpt lat="43.5256483" lon="12.2223283"><ele>342.0</ele><time>2026-05-02T08:30:38.786Z</time></trkpt><trkpt lat="43.5255433" lon="12.2224417"><ele>342.0</ele><time>2026-05-02T08:30:39.785Z</time></trkpt><trkpt lat="43.525435" lon="12.2225617"><ele>342.0</ele><time>2026-05-02T08:30:40.786Z</time></trkpt><trkpt lat="43.5253333" lon="12.222675"><ele>342.0</ele><time>2026-05-02T08:30:41.787Z</time></trkpt><trkpt lat="43.5252333" lon="12.222785"><ele>341.75</ele><time>2026-05-02T08:30:42.785Z</time></trkpt><trkpt lat="43.52513" lon="12.2229033"><ele>341.5</ele><time>2026-05-02T08:30:43.786Z</time></trkpt><trkpt lat="43.5250283" lon="12.223015"><ele>341.25</ele><time>2026-05-02T08:30:44.786Z</time></trkpt><trkpt lat="43.5249267" lon="12.2231183"><ele>341.0</ele><time>2026-05-02T08:30:45.786Z</time></trkpt><trkpt lat="43.52483" lon="12.2232117"><ele>341.20000000000005</ele><time>2026-05-02T08:30:46.786Z</time></trkpt><trkpt lat="43.5247417" lon="12.2233"><ele>341.40000000000003</ele><time>2026-05-02T08:30:47.785Z</time></trkpt><trkpt lat="43.5246617" lon="12.22338"><ele>341.6</ele><time>2026-05-02T08:30:48.785Z</time></trkpt><trkpt lat="43.5245967" lon="12.223445"><ele>341.8</ele><time>2026-05-02T08:30:49.786Z</time></trkpt><trkpt lat="43.5245033" lon="12.2235233"><ele>342.0</ele><time>2026-05-02T08:30:51.79Z</time></trkpt><trkpt lat="43.5243967" lon="12.22358"><ele>342.0</ele><time>2026-05-02T08:30:53.789Z</time></trkpt><trkpt lat="43.5243283" lon="12.22364"><ele>342.0</ele><time>2026-05-02T08:30:54.79Z</time></trkpt><trkpt lat="43.5242533" lon="12.2237233"><ele>342.0</ele><time>2026-05-02T08:30:55.789Z</time></trkpt><trkpt lat="43.52417" lon="12.223825"><ele>342.0</ele><time>2026-05-02T08:30:56.789Z</time></trkpt><trkpt lat="43.524075" lon="12.2239367"><ele>342.0</ele><time>2026-05-02T08:30:57.79Z</time></trkpt><trkpt lat="43.5239783" lon="12.2240567"><ele>342.25</ele><time>2026-05-02T08:30:58.789Z</time></trkpt><trkpt lat="43.5238833" lon="12.2241833"><ele>342.5</ele><time>2026-05-02T08:30:59.789Z</time></trkpt><trkpt lat="43.5237883" lon="12.22432"><ele>342.75</ele><time>2026-05-02T08:31:00.789Z</time></trkpt><trkpt lat="43.5237" lon="12.2244633"><ele>343.0</ele><time>2026-05-02T08:31:01.789Z</time></trkpt><trkpt lat="43.523615" lon="12.2246083"><ele>342.59999999999997</ele><time>2026-05-02T08:31:02.789Z</time></trkpt><trkpt lat="43.5235333" lon="12.22475"><ele>342.2</ele><time>2026-05-02T08:31:03.789Z</time></trkpt><trkpt lat="43.5234517" lon="12.2248683"><ele>341.8</ele><time>2026-05-02T08:31:04.789Z</time></trkpt><trkpt lat="43.5233833" lon="12.22496"><ele>341.4</ele><time>2026-05-02T08:31:05.79Z</time></trkpt><trkpt lat="43.5233267" lon="12.2250367"><ele>341.0</ele><time>2026-05-02T08:31:06.789Z</time></trkpt><trkpt lat="43.52328" lon="12.2251017"><ele>341.0</ele><time>2026-05-02T08:31:07.789Z</time></trkpt><trkpt lat="43.52319" lon="12.2252217"><ele>341.0</ele><time>2026-05-02T08:31:09.787Z</time></trkpt><trkpt lat="43.523145" lon="12.2252917"><ele>341.0</ele><time>2026-05-02T08:31:10.788Z</time></trkpt><trkpt lat="43.523095" lon="12.2253667"><ele>341.0</ele><time>2026-05-02T08:31:11.786Z</time></trkpt><trkpt lat="43.5230433" lon="12.2254517"><ele>341.0</ele><time>2026-05-02T08:31:12.786Z</time></trkpt><trkpt lat="43.5229883" lon="12.2255417"><ele>341.0</ele><time>2026-05-02T08:31:13.785Z</time></trkpt><trkpt lat="43.52293" lon="12.2256267"><ele>341.0</ele><time>2026-05-02T08:31:14.79Z</time></trkpt><trkpt lat="43.5228717" lon="12.2257183"><ele>341.0</ele><time>2026-05-02T08:31:15.785Z</time></trkpt><trkpt lat="43.5228117" lon="12.2258233"><ele>341.0</ele><time>2026-05-02T08:31:16.789Z</time></trkpt><trkpt lat="43.522745" lon="12.22594"><ele>341.0</ele><time>2026-05-02T08:31:17.786Z</time></trkpt><trkpt lat="43.5226817" lon="12.2260617"><ele>341.0</ele><time>2026-05-02T08:31:18.787Z</time></trkpt><trkpt lat="43.5226267" lon="12.226185"><ele>341.0</ele><time>2026-05-02T08:31:19.787Z</time></trkpt><trkpt lat="43.522575" lon="12.2262967"><ele>341.0</ele><time>2026-05-02T08:31:20.787Z</time></trkpt><trkpt lat="43.5225283" lon="12.2263967"><ele>341.0</ele><time>2026-05-02T08:31:21.789Z</time></trkpt><trkpt lat="43.52249" lon="12.2264733"><ele>341.0</ele><time>2026-05-02T08:31:22.789Z</time></trkpt><trkpt lat="43.5224283" lon="12.22659"><ele>341.0</ele><time>2026-05-02T08:31:24.789Z</time></trkpt><trkpt lat="43.522375" lon="12.2266883"><ele>341.0</ele><time>2026-05-02T08:31:26.791Z</time></trkpt><trkpt lat="43.5224417" lon="12.22659"><ele>341.0</ele><time>2026-05-02T08:31:57.787Z</time></trkpt><trkpt lat="43.522485" lon="12.2265133"><ele>341.0</ele><time>2026-05-02T08:31:58.787Z</time></trkpt><trkpt lat="43.5225467" lon="12.2264033"><ele>341.0</ele><time>2026-05-02T08:31:59.787Z</time></trkpt><trkpt lat="43.5226133" lon="12.2262733"><ele>341.0</ele><time>2026-05-02T08:32:00.788Z</time></trkpt><trkpt lat="43.522675" lon="12.2261433"><ele>341.0</ele><time>2026-05-02T08:32:01.787Z</time></trkpt><trkpt lat="43.5227333" lon="12.22602"><ele>341.0</ele><time>2026-05-02T08:32:02.787Z</time></trkpt><trkpt lat="43.5228" lon="12.225895"><ele>341.0</ele><time>2026-05-02T08:32:03.789Z</time></trkpt><trkpt lat="43.52287" lon="12.2257683"><ele>341.0</ele><time>2026-05-02T08:32:04.789Z</time></trkpt><trkpt lat="43.52294" lon="12.2256467"><ele>341.0</ele><time>2026-05-02T08:32:05.789Z</time></trkpt><trkpt lat="43.5230083" lon="12.2255383"><ele>341.0</ele><time>2026-05-02T08:32:06.789Z</time></trkpt><trkpt lat="43.5231233" lon="12.2253567"><ele>341.0</ele><time>2026-05-02T08:32:08.79Z</time></trkpt><trkpt lat="43.52318" lon="12.225275"><ele>341.0</ele><time>2026-05-02T08:32:09.791Z</time></trkpt><trkpt lat="43.52323" lon="12.2251917"><ele>341.0</ele><time>2026-05-02T08:32:10.791Z</time></trkpt><trkpt lat="43.5232883" lon="12.2251033"><ele>341.0</ele><time>2026-05-02T08:32:11.79Z</time></trkpt><trkpt lat="43.52335" lon="12.2250083"><ele>341.0</ele><time>2026-05-02T08:32:12.786Z</time></trkpt><trkpt lat="43.5234133" lon="12.2249117"><ele>341.0</ele><time>2026-05-02T08:32:13.787Z</time></trkpt><trkpt lat="43.5234767" lon="12.2248267"><ele>340.83333333333337</ele><time>2026-05-02T08:32:14.791Z</time></trkpt><trkpt lat="43.5235333" lon="12.22475"><ele>340.6666666666667</ele><time>2026-05-02T08:32:15.786Z</time></trkpt><trkpt lat="43.5235867" lon="12.2246783"><ele>340.5</ele><time>2026-05-02T08:32:16.79Z</time></trkpt><trkpt lat="43.5236367" lon="12.2246033"><ele>340.3333333333333</ele><time>2026-05-02T08:32:17.79Z</time></trkpt><trkpt lat="43.523685" lon="12.2245217"><ele>340.16666666666663</ele><time>2026-05-02T08:32:18.789Z</time></trkpt><trkpt lat="43.52373" lon="12.22444"><ele>340.0</ele><time>2026-05-02T08:32:19.789Z</time></trkpt><trkpt lat="43.5237767" lon="12.2243533"><ele>340.3333333333333</ele><time>2026-05-02T08:32:20.789Z</time></trkpt><trkpt lat="43.523825" lon="12.2242767"><ele>340.66666666666663</ele><time>2026-05-02T08:32:21.789Z</time></trkpt><trkpt lat="43.5238783" lon="12.224205"><ele>341.0</ele><time>2026-05-02T08:32:22.789Z</time></trkpt><trkpt lat="43.52394" lon="12.2241267"><ele>341.3333333333333</ele><time>2026-05-02T08:32:23.79Z</time></trkpt><trkpt lat="43.5240117" lon="12.22404"><ele>341.6666666666667</ele><time>2026-05-02T08:32:24.789Z</time></trkpt><trkpt lat="43.5240883" lon="12.2239433"><ele>342.0</ele><time>2026-05-02T08:32:25.786Z</time></trkpt><trkpt lat="43.5241667" lon="12.2238417"><ele>342.0</ele><time>2026-05-02T08:32:26.787Z</time></trkpt><trkpt lat="43.5242467" lon="12.2237467"><ele>342.0</ele><time>2026-05-02T08:32:27.788Z</time></trkpt><trkpt lat="43.5243133" lon="12.223665"><ele>342.0</ele><time>2026-05-02T08:32:28.788Z</time></trkpt><trkpt lat="43.5243717" lon="12.2235933"><ele>342.0</ele><time>2026-05-02T08:32:29.788Z</time></trkpt><trkpt lat="43.5244167" lon="12.2234933"><ele>342.0</ele><time>2026-05-02T08:32:34.79Z</time></trkpt><trkpt lat="43.5243767" lon="12.223375"><ele>342.0</ele><time>2026-05-02T08:32:36.79Z</time></trkpt><trkpt lat="43.5243183" lon="12.22327"><ele>342.0</ele><time>2026-05-02T08:32:37.791Z</time></trkpt><trkpt lat="43.52425" lon="12.2231533"><ele>342.0</ele><time>2026-05-02T08:32:38.789Z</time></trkpt><trkpt lat="43.5241767" lon="12.2230267"><ele>342.0</ele><time>2026-05-02T08:32:39.79Z</time></trkpt><trkpt lat="43.5240933" lon="12.222885"><ele>341.5</ele><time>2026-05-02T08:32:40.79Z</time></trkpt><trkpt lat="43.5239133" lon="12.22257"><ele>341.0</ele><time>2026-05-02T08:32:42.79Z</time></trkpt><trkpt lat="43.523815" lon="12.2223967"><ele>340.0</ele><time>2026-05-02T08:32:43.789Z</time></trkpt><trkpt lat="43.5237117" lon="12.2222217"><ele>339.0</ele><time>2026-05-02T08:32:44.789Z</time></trkpt><trkpt lat="43.5236083" lon="12.2220417"><ele>338.0</ele><time>2026-05-02T08:32:45.789Z</time></trkpt><trkpt lat="43.5235033" lon="12.22186"><ele>338.0</ele><time>2026-05-02T08:32:46.79Z</time></trkpt><trkpt lat="43.5233983" lon="12.2216767"><ele>338.0</ele><time>2026-05-02T08:32:47.791Z</time></trkpt><trkpt lat="43.5232933" lon="12.2214867"><ele>338.0</ele><time>2026-05-02T08:32:48.789Z</time></trkpt><trkpt lat="43.523185" lon="12.221295"><ele>337.6666666666667</ele><time>2026-05-02T08:32:49.789Z</time></trkpt><trkpt lat="43.5230733" lon="12.2211017"><ele>337.3333333333333</ele><time>2026-05-02T08:32:50.789Z</time></trkpt><trkpt lat="43.52296" lon="12.22091"><ele>337.0</ele><time>2026-05-02T08:32:51.792Z</time></trkpt><trkpt lat="43.5228433" lon="12.220725"><ele>336.0</ele><time>2026-05-02T08:32:52.785Z</time></trkpt><trkpt lat="43.522725" lon="12.2205533"><ele>335.0</ele><time>2026-05-02T08:32:53.786Z</time></trkpt><trkpt lat="43.52261" lon="12.2204"><ele>334.0</ele><time>2026-05-02T08:32:54.785Z</time></trkpt><trkpt lat="43.5225033" lon="12.22027"><ele>334.0</ele><time>2026-05-02T08:32:55.786Z</time></trkpt><trkpt lat="43.52241" lon="12.22016"><ele>334.0</ele><time>2026-05-02T08:32:56.787Z</time></trkpt><trkpt lat="43.5223233" lon="12.2200633"><ele>334.0</ele><time>2026-05-02T08:32:57.786Z</time></trkpt><trkpt lat="43.5222567" lon="12.21999"><ele>334.0</ele><time>2026-05-02T08:32:58.786Z</time></trkpt><trkpt lat="43.5221983" lon="12.219945"><ele>334.0</ele><time>2026-05-02T08:32:59.786Z</time></trkpt><trkpt lat="43.5220917" lon="12.2199567"><ele>334.25</ele><time>2026-05-02T08:33:01.785Z</time></trkpt><trkpt lat="43.5220417" lon="12.2200167"><ele>334.5</ele><time>2026-05-02T08:33:02.785Z</time></trkpt><trkpt lat="43.5219933" lon="12.22013"><ele>334.75</ele><time>2026-05-02T08:33:03.788Z</time></trkpt><trkpt lat="43.5219367" lon="12.2203067"><ele>335.0</ele><time>2026-05-02T08:33:04.79Z</time></trkpt><trkpt lat="43.5218467" lon="12.2204867"><ele>335.0</ele><time>2026-05-02T08:33:05.788Z</time></trkpt><trkpt lat="43.5217517" lon="12.220665"><ele>335.0</ele><time>2026-05-02T08:33:06.788Z</time></trkpt><trkpt lat="43.52165" lon="12.2208367"><ele>335.0</ele><time>2026-05-02T08:33:07.788Z</time></trkpt><trkpt lat="43.52154" lon="12.2210133"><ele>335.0</ele><time>2026-05-02T08:33:08.79Z</time></trkpt><trkpt lat="43.5214267" lon="12.2211917"><ele>335.0</ele><time>2026-05-02T08:33:09.788Z</time></trkpt><trkpt lat="43.5213133" lon="12.2213683"><ele>335.0</ele><time>2026-05-02T08:33:10.788Z</time></trkpt><trkpt lat="43.521195" lon="12.2215433"><ele>334.6666666666667</ele><time>2026-05-02T08:33:11.788Z</time></trkpt><trkpt lat="43.5210817" lon="12.22172"><ele>334.3333333333333</ele><time>2026-05-02T08:33:12.786Z</time></trkpt><trkpt lat="43.520975" lon="12.2219"><ele>334.0</ele><time>2026-05-02T08:33:13.789Z</time></trkpt><trkpt lat="43.5208667" lon="12.2220817"><ele>334.0</ele><time>2026-05-02T08:33:14.786Z</time></trkpt><trkpt lat="43.5207567" lon="12.2222617"><ele>334.0</ele><time>2026-05-02T08:33:15.788Z</time></trkpt><trkpt lat="43.52065" lon="12.2224383"><ele>334.0</ele><time>2026-05-02T08:33:16.79Z</time></trkpt><trkpt lat="43.520545" lon="12.2226217"><ele>334.0</ele><time>2026-05-02T08:33:17.791Z</time></trkpt><trkpt lat="43.5204483" lon="12.2228083"><ele>334.0</ele><time>2026-05-02T08:33:18.788Z</time></trkpt><trkpt lat="43.5203567" lon="12.222985"><ele>334.0</ele><time>2026-05-02T08:33:19.788Z</time></trkpt><trkpt lat="43.52027" lon="12.223155"><ele>333.75</ele><time>2026-05-02T08:33:20.789Z</time></trkpt><trkpt lat="43.520185" lon="12.2233133"><ele>333.5</ele><time>2026-05-02T08:33:21.789Z</time></trkpt><trkpt lat="43.5201017" lon="12.2234633"><ele>333.25</ele><time>2026-05-02T08:33:22.788Z</time></trkpt><trkpt lat="43.5200217" lon="12.2236083"><ele>333.0</ele><time>2026-05-02T08:33:23.788Z</time></trkpt><trkpt lat="43.51994" lon="12.2237467"><ele>333.0</ele><time>2026-05-02T08:33:24.788Z</time></trkpt><trkpt lat="43.519855" lon="12.2238817"><ele>333.0</ele><time>2026-05-02T08:33:25.786Z</time></trkpt><trkpt lat="43.51977" lon="12.2240233"><ele>333.0</ele><time>2026-05-02T08:33:26.786Z</time></trkpt><trkpt lat="43.5196833" lon="12.2241683"><ele>333.0</ele><time>2026-05-02T08:33:27.786Z</time></trkpt><trkpt lat="43.5195917" lon="12.2243183"><ele>333.0</ele><time>2026-05-02T08:33:28.786Z</time></trkpt><trkpt lat="43.5195017" lon="12.2244683"><ele>333.0</ele><time>2026-05-02T08:33:29.786Z</time></trkpt><trkpt lat="43.51941" lon="12.2246233"><ele>333.0</ele><time>2026-05-02T08:33:30.786Z</time></trkpt><trkpt lat="43.5193183" lon="12.2247817"><ele>333.0</ele><time>2026-05-02T08:33:31.786Z</time></trkpt><trkpt lat="43.519225" lon="12.224945"><ele>333.0</ele><time>2026-05-02T08:33:32.786Z</time></trkpt><trkpt lat="43.5191267" lon="12.2251067"><ele>333.0</ele><time>2026-05-02T08:33:33.788Z</time></trkpt><trkpt lat="43.5190283" lon="12.2252717"><ele>333.0</ele><time>2026-05-02T08:33:34.789Z</time></trkpt><trkpt lat="43.5189317" lon="12.225435"><ele>333.0</ele><time>2026-05-02T08:33:35.79Z</time></trkpt><trkpt lat="43.5188417" lon="12.2255883"><ele>333.0</ele><time>2026-05-02T08:33:36.785Z</time></trkpt><trkpt lat="43.5187567" lon="12.225725"><ele>333.0</ele><time>2026-05-02T08:33:37.789Z</time></trkpt><trkpt lat="43.5186717" lon="12.2258383"><ele>333.0</ele><time>2026-05-02T08:33:38.788Z</time></trkpt><trkpt lat="43.5185883" lon="12.2259283"><ele>333.5</ele><time>2026-05-02T08:33:39.791Z</time></trkpt><trkpt lat="43.518515" lon="12.2259983"><ele>334.0</ele><time>2026-05-02T08:33:40.787Z</time></trkpt><trkpt lat="43.518455" lon="12.2260617"><ele>334.5</ele><time>2026-05-02T08:33:41.786Z</time></trkpt><trkpt lat="43.5184083" lon="12.2261317"><ele>335.0</ele><time>2026-05-02T08:33:42.79Z</time></trkpt><trkpt lat="43.5183983" lon="12.2262983"><ele>335.5</ele><time>2026-05-02T08:33:44.786Z</time></trkpt><trkpt lat="43.5184333" lon="12.226385"><ele>336.0</ele><time>2026-05-02T08:33:45.789Z</time></trkpt><trkpt lat="43.5184867" lon="12.2264817"><ele>336.0</ele><time>2026-05-02T08:33:46.79Z</time></trkpt><trkpt lat="43.51856" lon="12.2265967"><ele>336.0</ele><time>2026-05-02T08:33:47.789Z</time></trkpt><trkpt lat="43.5186617" lon="12.22674"><ele>336.0</ele><time>2026-05-02T08:33:48.789Z</time></trkpt><trkpt lat="43.51876" lon="12.226875"><ele>336.0</ele><time>2026-05-02T08:33:49.789Z</time></trkpt><trkpt lat="43.5188617" lon="12.227005"><ele>336.5</ele><time>2026-05-02T08:33:50.789Z</time></trkpt><trkpt lat="43.5189717" lon="12.227125"><ele>337.0</ele><time>2026-05-02T08:33:51.789Z</time></trkpt><trkpt lat="43.51908" lon="12.2272283"><ele>337.5</ele><time>2026-05-02T08:33:52.789Z</time></trkpt><trkpt lat="43.5191883" lon="12.2273333"><ele>338.0</ele><time>2026-05-02T08:33:53.788Z</time></trkpt><trkpt lat="43.519295" lon="12.2274433"><ele>338.4</ele><time>2026-05-02T08:33:54.789Z</time></trkpt><trkpt lat="43.5193883" lon="12.2275483"><ele>338.79999999999995</ele><time>2026-05-02T08:33:55.79Z</time></trkpt><trkpt lat="43.5194617" lon="12.227645"><ele>339.2</ele><time>2026-05-02T08:33:56.785Z</time></trkpt><trkpt lat="43.5195233" lon="12.2277467"><ele>339.6</ele><time>2026-05-02T08:33:57.785Z</time></trkpt><trkpt lat="43.5195683" lon="12.22785"><ele>340.0</ele><time>2026-05-02T08:33:58.786Z</time></trkpt><trkpt lat="43.519585" lon="12.2279517"><ele>340.0</ele><time>2026-05-02T08:33:59.786Z</time></trkpt><trkpt lat="43.51958" lon="12.2280433"><ele>340.0</ele><time>2026-05-02T08:34:00.786Z</time></trkpt><trkpt lat="43.5195517" lon="12.2281267"><ele>340.0</ele><time>2026-05-02T08:34:01.785Z</time></trkpt><trkpt lat="43.5195183" lon="12.228215"><ele>340.0</ele><time>2026-05-02T08:34:02.786Z</time></trkpt><trkpt lat="43.519465" lon="12.2283167"><ele>340.0</ele><time>2026-05-02T08:34:03.789Z</time></trkpt><trkpt lat="43.5193983" lon="12.2284367"><ele>340.0</ele><time>2026-05-02T08:34:04.789Z</time></trkpt><trkpt lat="43.5193367" lon="12.2285633"><ele>340.8</ele><time>2026-05-02T08:34:05.79Z</time></trkpt><trkpt lat="43.5192867" lon="12.2286933"><ele>341.6</ele><time>2026-05-02T08:34:06.789Z</time></trkpt><trkpt lat="43.5192517" lon="12.22883"><ele>342.4</ele><time>2026-05-02T08:34:07.789Z</time></trkpt><trkpt lat="43.5192233" lon="12.2289617"><ele>343.2</ele><time>2026-05-02T08:34:08.789Z</time></trkpt><trkpt lat="43.5192033" lon="12.229085"><ele>344.0</ele><time>2026-05-02T08:34:09.789Z</time></trkpt><trkpt lat="43.5191867" lon="12.2292017"><ele>344.6666666666667</ele><time>2026-05-02T08:34:10.79Z</time></trkpt><trkpt lat="43.5191717" lon="12.2293167"><ele>345.33333333333337</ele><time>2026-05-02T08:34:11.789Z</time></trkpt><trkpt lat="43.5191517" lon="12.2294117"><ele>346.0</ele><time>2026-05-02T08:34:12.79Z</time></trkpt><trkpt lat="43.5190817" lon="12.2295517"><ele>346.6666666666667</ele><time>2026-05-02T08:34:14.79Z</time></trkpt><trkpt lat="43.5190317" lon="12.2296117"><ele>347.3333333333333</ele><time>2026-05-02T08:34:15.79Z</time></trkpt><trkpt lat="43.5189767" lon="12.229675"><ele>348.0</ele><time>2026-05-02T08:34:16.789Z</time></trkpt><trkpt lat="43.51891" lon="12.2297517"><ele>348.0</ele><time>2026-05-02T08:34:17.789Z</time></trkpt><trkpt lat="43.5188367" lon="12.229845"><ele>348.0</ele><time>2026-05-02T08:34:18.785Z</time></trkpt><trkpt lat="43.51876" lon="12.22994"><ele>348.0</ele><time>2026-05-02T08:34:19.791Z</time></trkpt><trkpt lat="43.5186833" lon="12.2300317"><ele>348.0</ele><time>2026-05-02T08:34:20.789Z</time></trkpt><trkpt lat="43.5186" lon="12.2301283"><ele>348.0</ele><time>2026-05-02T08:34:21.792Z</time></trkpt><trkpt lat="43.518515" lon="12.23023"><ele>348.0</ele><time>2026-05-02T08:34:22.789Z</time></trkpt><trkpt lat="43.518435" lon="12.2303183"><ele>348.0</ele><time>2026-05-02T08:34:23.789Z</time></trkpt><trkpt lat="43.5183583" lon="12.23039"><ele>348.0</ele><time>2026-05-02T08:34:24.789Z</time></trkpt><trkpt lat="43.5182917" lon="12.2304467"><ele>348.0</ele><time>2026-05-02T08:34:25.789Z</time></trkpt><trkpt lat="43.5182017" lon="12.2304783"><ele>348.0</ele><time>2026-05-02T08:34:27.786Z</time></trkpt><trkpt lat="43.51813" lon="12.2304733"><ele>348.0</ele><time>2026-05-02T08:34:40.789Z</time></trkpt><trkpt lat="43.51806" lon="12.2305333"><ele>348.0</ele><time>2026-05-02T08:34:42.789Z</time></trkpt><trkpt lat="43.5179583" lon="12.23056"><ele>348.0</ele><time>2026-05-02T08:34:44.79Z</time></trkpt><trkpt lat="43.5178433" lon="12.2305933"><ele>348.0</ele><time>2026-05-02T08:34:46.789Z</time></trkpt><trkpt lat="43.5177133" lon="12.2306317"><ele>348.0</ele><time>2026-05-02T08:34:48.79Z</time></trkpt><trkpt lat="43.5176467" lon="12.2306567"><ele>348.0</ele><time>2026-05-02T08:34:49.789Z</time></trkpt><trkpt lat="43.517555" lon="12.230725"><ele>348.79999999999995</ele><time>2026-05-02T08:34:51.789Z</time></trkpt><trkpt lat="43.5174867" lon="12.2308567"><ele>349.6</ele><time>2026-05-02T08:34:53.789Z</time></trkpt><trkpt lat="43.5174517" lon="12.23093"><ele>350.4</ele><time>2026-05-02T08:34:54.789Z</time></trkpt><trkpt lat="43.51738" lon="12.2310133"><ele>351.20000000000005</ele><time>2026-05-02T08:34:56.786Z</time></trkpt><trkpt lat="43.5172683" lon="12.2310567"><ele>352.0</ele><time>2026-05-02T08:34:58.786Z</time></trkpt><trkpt lat="43.517195" lon="12.2310683"><ele>352.0</ele><time>2026-05-02T08:34:59.786Z</time></trkpt><trkpt lat="43.5171167" lon="12.2310817"><ele>352.0</ele><time>2026-05-02T08:35:00.786Z</time></trkpt><trkpt lat="43.517045" lon="12.2310983"><ele>352.0</ele><time>2026-05-02T08:35:01.787Z</time></trkpt><trkpt lat="43.5169817" lon="12.2311183"><ele>352.0</ele><time>2026-05-02T08:35:02.787Z</time></trkpt><trkpt lat="43.5168767" lon="12.23115"><ele>352.0</ele><time>2026-05-02T08:35:04.789Z</time></trkpt><trkpt lat="43.5167683" lon="12.2311683"><ele>352.0</ele><time>2026-05-02T08:35:07.789Z</time></trkpt><trkpt lat="43.5166917" lon="12.2310633"><ele>350.20000000000005</ele><time>2026-05-02T08:35:10.79Z</time></trkpt><trkpt lat="43.5166333" lon="12.230955"><ele>348.4</ele><time>2026-05-02T08:35:12.878Z</time></trkpt><trkpt lat="43.51655" lon="12.23093"><ele>346.6</ele><time>2026-05-02T08:35:14.786Z</time></trkpt><trkpt lat="43.51643" lon="12.23095"><ele>344.79999999999995</ele><time>2026-05-02T08:35:16.79Z</time></trkpt><trkpt lat="43.5163583" lon="12.2309667"><ele>343.0</ele><time>2026-05-02T08:35:17.789Z</time></trkpt><trkpt lat="43.516285" lon="12.2309817"><ele>341.59999999999997</ele><time>2026-05-02T08:35:18.789Z</time></trkpt><trkpt lat="43.5162133" lon="12.2309917"><ele>340.2</ele><time>2026-05-02T08:35:19.79Z</time></trkpt><trkpt lat="43.516145" lon="12.2310083"><ele>338.8</ele><time>2026-05-02T08:35:20.789Z</time></trkpt><trkpt lat="43.516025" lon="12.2310367"><ele>337.4</ele><time>2026-05-02T08:35:22.79Z</time></trkpt><trkpt lat="43.5159167" lon="12.23106"><ele>336.0</ele><time>2026-05-02T08:35:24.792Z</time></trkpt><trkpt lat="43.5158217" lon="12.2310767"><ele>336.0</ele><time>2026-05-02T08:35:26.786Z</time></trkpt><trkpt lat="43.5157417" lon="12.2310917"><ele>336.0</ele><time>2026-05-02T08:35:28.786Z</time></trkpt><trkpt lat="43.5156533" lon="12.2311083"><ele>336.0</ele><time>2026-05-02T08:35:30.786Z</time></trkpt><trkpt lat="43.51556" lon="12.2311267"><ele>336.0</ele><time>2026-05-02T08:35:32.786Z</time></trkpt><trkpt lat="43.5154717" lon="12.2311467"><ele>336.0</ele><time>2026-05-02T08:35:34.789Z</time></trkpt><trkpt lat="43.515365" lon="12.23117"><ele>334.8</ele><time>2026-05-02T08:35:36.79Z</time></trkpt><trkpt lat="43.5152567" lon="12.231195"><ele>333.6</ele><time>2026-05-02T08:35:38.789Z</time></trkpt><trkpt lat="43.5151633" lon="12.2312183"><ele>332.4</ele><time>2026-05-02T08:35:40.786Z</time></trkpt><trkpt lat="43.5150783" lon="12.2312383"><ele>331.2</ele><time>2026-05-02T08:35:42.789Z</time></trkpt><trkpt lat="43.514985" lon="12.2312567"><ele>330.0</ele><time>2026-05-02T08:35:44.79Z</time></trkpt><trkpt lat="43.51488" lon="12.23128"><ele>330.0</ele><time>2026-05-02T08:35:46.789Z</time></trkpt><trkpt lat="43.5147783" lon="12.2312983"><ele>330.0</ele><time>2026-05-02T08:35:48.789Z</time></trkpt><trkpt lat="43.5146667" lon="12.231325"><ele>330.0</ele><time>2026-05-02T08:35:50.786Z</time></trkpt><trkpt lat="43.5145533" lon="12.2313517"><ele>330.0</ele><time>2026-05-02T08:35:52.786Z</time></trkpt><trkpt lat="43.5144383" lon="12.2313817"><ele>330.0</ele><time>2026-05-02T08:35:54.79Z</time></trkpt><trkpt lat="43.5143233" lon="12.2314067"><ele>329.8</ele><time>2026-05-02T08:35:56.789Z</time></trkpt><trkpt lat="43.51426" lon="12.2314217"><ele>329.6</ele><time>2026-05-02T08:35:57.789Z</time></trkpt><trkpt lat="43.5141383" lon="12.2314517"><ele>329.4</ele><time>2026-05-02T08:35:59.786Z</time></trkpt><trkpt lat="43.514025" lon="12.2314767"><ele>329.2</ele><time>2026-05-02T08:36:01.789Z</time></trkpt><trkpt lat="43.5139267" lon="12.2314967"><ele>329.0</ele><time>2026-05-02T08:36:03.789Z</time></trkpt><trkpt lat="43.5138167" lon="12.2315217"><ele>329.0</ele><time>2026-05-02T08:36:05.79Z</time></trkpt><trkpt lat="43.5137017" lon="12.2315467"><ele>329.0</ele><time>2026-05-02T08:36:07.789Z</time></trkpt><trkpt lat="43.5135933" lon="12.2315733"><ele>329.0</ele><time>2026-05-02T08:36:09.79Z</time></trkpt><trkpt lat="43.513485" lon="12.2315967"><ele>329.0</ele><time>2026-05-02T08:36:11.789Z</time></trkpt><trkpt lat="43.5133967" lon="12.2316133"><ele>329.0</ele><time>2026-05-02T08:36:13.789Z</time></trkpt><trkpt lat="43.5133167" lon="12.231625"><ele>329.0</ele><time>2026-05-02T08:36:15.789Z</time></trkpt><trkpt lat="43.5132267" lon="12.23163"><ele>329.0</ele><time>2026-05-02T08:36:18.792Z</time></trkpt><trkpt lat="43.513155" lon="12.2315633"><ele>329.0</ele><time>2026-05-02T08:36:20.787Z</time></trkpt><trkpt lat="43.5130867" lon="12.23149"><ele>329.0</ele><time>2026-05-02T08:36:22.789Z</time></trkpt><trkpt lat="43.5130267" lon="12.2314033"><ele>329.0</ele><time>2026-05-02T08:36:36.786Z</time></trkpt><trkpt lat="43.5129517" lon="12.2313383"><ele>329.0</ele><time>2026-05-02T08:36:38.789Z</time></trkpt><trkpt lat="43.5128733" lon="12.2312683"><ele>328.0</ele><time>2026-05-02T08:36:40.788Z</time></trkpt><trkpt lat="43.5127983" lon="12.2311933"><ele>327.0</ele><time>2026-05-02T08:36:42.788Z</time></trkpt><trkpt lat="43.5127083" lon="12.231185"><ele>326.0</ele><time>2026-05-02T08:36:45.785Z</time></trkpt><trkpt lat="43.5126" lon="12.2312717"><ele>325.0</ele><time>2026-05-02T08:36:47.789Z</time></trkpt><trkpt lat="43.5125283" lon="12.2313383"><ele>324.0</ele><time>2026-05-02T08:36:48.788Z</time></trkpt><trkpt lat="43.512445" lon="12.2314233"><ele>323.75</ele><time>2026-05-02T08:36:49.788Z</time></trkpt><trkpt lat="43.5123483" lon="12.2315183"><ele>323.5</ele><time>2026-05-02T08:36:50.788Z</time></trkpt><trkpt lat="43.5122433" lon="12.2316183"><ele>323.25</ele><time>2026-05-02T08:36:51.788Z</time></trkpt><trkpt lat="43.5121283" lon="12.2317267"><ele>323.0</ele><time>2026-05-02T08:36:52.788Z</time></trkpt><trkpt lat="43.5120117" lon="12.2318483"><ele>321.6666666666667</ele><time>2026-05-02T08:36:53.788Z</time></trkpt><trkpt lat="43.5118917" lon="12.2319783"><ele>320.3333333333333</ele><time>2026-05-02T08:36:54.788Z</time></trkpt><trkpt lat="43.5117717" lon="12.2321267"><ele>319.0</ele><time>2026-05-02T08:36:55.788Z</time></trkpt><trkpt lat="43.5116483" lon="12.2322817"><ele>320.0</ele><time>2026-05-02T08:36:56.789Z</time></trkpt><trkpt lat="43.511525" lon="12.23244"><ele>321.0</ele><time>2026-05-02T08:36:57.788Z</time></trkpt><trkpt lat="43.5114" lon="12.2326017"><ele>322.0</ele><time>2026-05-02T08:36:58.789Z</time></trkpt><trkpt lat="43.5112667" lon="12.2327617"><ele>322.66666666666663</ele><time>2026-05-02T08:36:59.788Z</time></trkpt><trkpt lat="43.51113" lon="12.2329283"><ele>323.3333333333333</ele><time>2026-05-02T08:37:00.789Z</time></trkpt><trkpt lat="43.5109867" lon="12.2331133"><ele>324.0</ele><time>2026-05-02T08:37:01.789Z</time></trkpt><trkpt lat="43.5108383" lon="12.2333033"><ele>325.0</ele><time>2026-05-02T08:37:02.788Z</time></trkpt><trkpt lat="43.5106867" lon="12.233495"><ele>326.0</ele><time>2026-05-02T08:37:03.789Z</time></trkpt><trkpt lat="43.510535" lon="12.233685"><ele>327.0</ele><time>2026-05-02T08:37:04.788Z</time></trkpt><trkpt lat="43.510385" lon="12.2338717"><ele>327.6666666666667</ele><time>2026-05-02T08:37:05.788Z</time></trkpt><trkpt lat="43.5102367" lon="12.234055"><ele>328.33333333333337</ele><time>2026-05-02T08:37:06.789Z</time></trkpt><trkpt lat="43.5100933" lon="12.2342217"><ele>329.0</ele><time>2026-05-02T08:37:07.79Z</time></trkpt><trkpt lat="43.5099533" lon="12.2343667"><ele>329.0</ele><time>2026-05-02T08:37:08.788Z</time></trkpt><trkpt lat="43.5098217" lon="12.234475"><ele>329.0</ele><time>2026-05-02T08:37:09.788Z</time></trkpt><trkpt lat="43.50971" lon="12.2345483"><ele>329.0</ele><time>2026-05-02T08:37:10.788Z</time></trkpt><trkpt lat="43.5096133" lon="12.2345967"><ele>329.0</ele><time>2026-05-02T08:37:11.789Z</time></trkpt><trkpt lat="43.509535" lon="12.23462"><ele>329.0</ele><time>2026-05-02T08:37:12.788Z</time></trkpt><trkpt lat="43.50947" lon="12.2346283"><ele>329.0</ele><time>2026-05-02T08:37:13.788Z</time></trkpt><trkpt lat="43.5094" lon="12.234615"><ele>329.0</ele><time>2026-05-02T08:37:15.789Z</time></trkpt><trkpt lat="43.5093383" lon="12.2345433"><ele>329.0</ele><time>2026-05-02T08:37:49.79Z</time></trkpt><trkpt lat="43.5092833" lon="12.2344733"><ele>329.0</ele><time>2026-05-02T08:37:50.786Z</time></trkpt><trkpt lat="43.509215" lon="12.2343717"><ele>329.0</ele><time>2026-05-02T08:37:51.789Z</time></trkpt><trkpt lat="43.5091233" lon="12.2342283"><ele>329.0</ele><time>2026-05-02T08:37:52.788Z</time></trkpt><trkpt lat="43.5090233" lon="12.234085"><ele>329.0</ele><time>2026-05-02T08:37:53.789Z</time></trkpt><trkpt lat="43.5089117" lon="12.2339317"><ele>329.0</ele><time>2026-05-02T08:37:54.789Z</time></trkpt><trkpt lat="43.508795" lon="12.2337683"><ele>327.6666666666667</ele><time>2026-05-02T08:37:55.786Z</time></trkpt><trkpt lat="43.50867" lon="12.233605"><ele>326.3333333333333</ele><time>2026-05-02T08:37:56.786Z</time></trkpt><trkpt lat="43.5085333" lon="12.2334483"><ele>325.0</ele><time>2026-05-02T08:37:57.787Z</time></trkpt><trkpt lat="43.5083817" lon="12.2333017"><ele>325.0</ele><time>2026-05-02T08:37:58.786Z</time></trkpt><trkpt lat="43.5082183" lon="12.2331617"><ele>325.0</ele><time>2026-05-02T08:37:59.788Z</time></trkpt><trkpt lat="43.508045" lon="12.2330217"><ele>325.0</ele><time>2026-05-02T08:38:00.788Z</time></trkpt><trkpt lat="43.5078683" lon="12.2328783"><ele>324.0</ele><time>2026-05-02T08:38:01.787Z</time></trkpt><trkpt lat="43.5076867" lon="12.2327333"><ele>323.0</ele><time>2026-05-02T08:38:02.786Z</time></trkpt><trkpt lat="43.5075033" lon="12.2325867"><ele>322.0</ele><time>2026-05-02T08:38:03.789Z</time></trkpt><trkpt lat="43.5073217" lon="12.2324433"><ele>322.0</ele><time>2026-05-02T08:38:04.786Z</time></trkpt><trkpt lat="43.507145" lon="12.2323067"><ele>322.0</ele><time>2026-05-02T08:38:05.786Z</time></trkpt><trkpt lat="43.506975" lon="12.232175"><ele>322.0</ele><time>2026-05-02T08:38:06.787Z</time></trkpt><trkpt lat="43.50681" lon="12.2320517"><ele>321.3333333333333</ele><time>2026-05-02T08:38:07.786Z</time></trkpt><trkpt lat="43.5066483" lon="12.2319333"><ele>320.6666666666667</ele><time>2026-05-02T08:38:08.789Z</time></trkpt><trkpt lat="43.5064833" lon="12.2318217"><ele>320.0</ele><time>2026-05-02T08:38:09.788Z</time></trkpt><trkpt lat="43.506315" lon="12.2317117"><ele>320.0</ele><time>2026-05-02T08:38:10.787Z</time></trkpt><trkpt lat="43.5061483" lon="12.231605"><ele>320.0</ele><time>2026-05-02T08:38:11.787Z</time></trkpt><trkpt lat="43.5059867" lon="12.2315033"><ele>320.0</ele><time>2026-05-02T08:38:12.786Z</time></trkpt><trkpt lat="43.5058317" lon="12.2314017"><ele>320.0</ele><time>2026-05-02T08:38:13.787Z</time></trkpt><trkpt lat="43.5056767" lon="12.2313017"><ele>320.0</ele><time>2026-05-02T08:38:14.787Z</time></trkpt><trkpt lat="43.5055217" lon="12.2312017"><ele>320.0</ele><time>2026-05-02T08:38:15.786Z</time></trkpt><trkpt lat="43.5053717" lon="12.231105"><ele>319.75</ele><time>2026-05-02T08:38:16.787Z</time></trkpt><trkpt lat="43.50524" lon="12.231015"><ele>319.5</ele><time>2026-05-02T08:38:17.788Z</time></trkpt><trkpt lat="43.505115" lon="12.2309233"><ele>319.25</ele><time>2026-05-02T08:38:18.787Z</time></trkpt><trkpt lat="43.5049833" lon="12.2308133"><ele>319.0</ele><time>2026-05-02T08:38:19.789Z</time></trkpt><trkpt lat="43.504845" lon="12.2306783"><ele>319.0</ele><time>2026-05-02T08:38:20.789Z</time></trkpt><trkpt lat="43.5047017" lon="12.2305267"><ele>319.0</ele><time>2026-05-02T08:38:21.785Z</time></trkpt><trkpt lat="43.5045483" lon="12.2303667"><ele>319.0</ele><time>2026-05-02T08:38:22.786Z</time></trkpt><trkpt lat="43.5043883" lon="12.2302017"><ele>318.0</ele><time>2026-05-02T08:38:23.786Z</time></trkpt><trkpt lat="43.5042317" lon="12.2300333"><ele>317.0</ele><time>2026-05-02T08:38:24.785Z</time></trkpt><trkpt lat="43.5040817" lon="12.2298733"><ele>316.0</ele><time>2026-05-02T08:38:25.787Z</time></trkpt><trkpt lat="43.5039467" lon="12.229725"><ele>315.5</ele><time>2026-05-02T08:38:26.788Z</time></trkpt><trkpt lat="43.5038233" lon="12.22959"><ele>315.0</ele><time>2026-05-02T08:38:27.786Z</time></trkpt><trkpt lat="43.5037133" lon="12.2294667"><ele>314.5</ele><time>2026-05-02T08:38:28.786Z</time></trkpt><trkpt lat="43.503615" lon="12.2293583"><ele>314.0</ele><time>2026-05-02T08:38:29.787Z</time></trkpt><trkpt lat="43.503535" lon="12.22927"><ele>313.83333333333337</ele><time>2026-05-02T08:38:30.786Z</time></trkpt><trkpt lat="43.503475" lon="12.229215"><ele>313.6666666666667</ele><time>2026-05-02T08:38:31.785Z</time></trkpt><trkpt lat="43.5034017" lon="12.2291767"><ele>313.5</ele><time>2026-05-02T08:38:33.787Z</time></trkpt><trkpt lat="43.5033333" lon="12.2292367"><ele>313.3333333333333</ele><time>2026-05-02T08:38:35.786Z</time></trkpt><trkpt lat="43.503295" lon="12.2293067"><ele>313.16666666666663</ele><time>2026-05-02T08:38:36.785Z</time></trkpt><trkpt lat="43.503255" lon="12.2294"><ele>313.0</ele><time>2026-05-02T08:38:37.786Z</time></trkpt><trkpt lat="43.50321" lon="12.229515"><ele>313.0</ele><time>2026-05-02T08:38:38.789Z</time></trkpt><trkpt lat="43.5031583" lon="12.229645"><ele>313.0</ele><time>2026-05-02T08:38:39.789Z</time></trkpt><trkpt lat="43.5031017" lon="12.2297833"><ele>313.0</ele><time>2026-05-02T08:38:40.79Z</time></trkpt><trkpt lat="43.5030417" lon="12.22993"><ele>313.0</ele><time>2026-05-02T08:38:41.789Z</time></trkpt><trkpt lat="43.50298" lon="12.2300833"><ele>313.25</ele><time>2026-05-02T08:38:42.79Z</time></trkpt><trkpt lat="43.5029117" lon="12.23024"><ele>313.5</ele><time>2026-05-02T08:38:43.79Z</time></trkpt><trkpt lat="43.5028417" lon="12.230405"><ele>313.75</ele><time>2026-05-02T08:38:44.789Z</time></trkpt><trkpt lat="43.5027683" lon="12.2305783"><ele>314.0</ele><time>2026-05-02T08:38:45.79Z</time></trkpt><trkpt lat="43.502695" lon="12.230755"><ele>314.33333333333337</ele><time>2026-05-02T08:38:46.789Z</time></trkpt><trkpt lat="43.5026233" lon="12.2309367"><ele>314.6666666666667</ele><time>2026-05-02T08:38:47.79Z</time></trkpt><trkpt lat="43.502555" lon="12.2311283"><ele>315.0</ele><time>2026-05-02T08:38:48.789Z</time></trkpt><trkpt lat="43.5024917" lon="12.2313167"><ele>315.0</ele><time>2026-05-02T08:38:49.79Z</time></trkpt><trkpt lat="43.5024433" lon="12.2315167"><ele>315.0</ele><time>2026-05-02T08:38:50.789Z</time></trkpt><trkpt lat="43.5024117" lon="12.231725"><ele>315.0</ele><time>2026-05-02T08:38:51.789Z</time></trkpt><trkpt lat="43.50239" lon="12.2319333"><ele>315.0</ele><time>2026-05-02T08:38:52.789Z</time></trkpt><trkpt lat="43.5023683" lon="12.2321467"><ele>315.0</ele><time>2026-05-02T08:38:53.789Z</time></trkpt><trkpt lat="43.50235" lon="12.2323583"><ele>315.0</ele><time>2026-05-02T08:38:54.785Z</time></trkpt><trkpt lat="43.5023283" lon="12.2325717"><ele>315.0</ele><time>2026-05-02T08:38:55.786Z</time></trkpt><trkpt lat="43.5023" lon="12.2327783"><ele>315.0</ele><time>2026-05-02T08:38:56.786Z</time></trkpt><trkpt lat="43.5022633" lon="12.2329833"><ele>315.0</ele><time>2026-05-02T08:38:57.788Z</time></trkpt><trkpt lat="43.5022133" lon="12.2331867"><ele>315.0</ele><time>2026-05-02T08:38:58.787Z</time></trkpt><trkpt lat="43.5021533" lon="12.233385"><ele>315.0</ele><time>2026-05-02T08:38:59.787Z</time></trkpt><trkpt lat="43.5020867" lon="12.2335817"><ele>315.0</ele><time>2026-05-02T08:39:00.786Z</time></trkpt><trkpt lat="43.5020117" lon="12.2337733"><ele>315.3333333333333</ele><time>2026-05-02T08:39:01.786Z</time></trkpt><trkpt lat="43.50193" lon="12.23396"><ele>315.66666666666663</ele><time>2026-05-02T08:39:02.786Z</time></trkpt><trkpt lat="43.5018367" lon="12.2341433"><ele>316.0</ele><time>2026-05-02T08:39:03.786Z</time></trkpt><trkpt lat="43.5017333" lon="12.2343233"><ele>316.0</ele><time>2026-05-02T08:39:04.787Z</time></trkpt><trkpt lat="43.5016267" lon="12.2345067"><ele>316.0</ele><time>2026-05-02T08:39:05.786Z</time></trkpt><trkpt lat="43.5015117" lon="12.2346767"><ele>316.0</ele><time>2026-05-02T08:39:06.786Z</time></trkpt><trkpt lat="43.5013833" lon="12.2348283"><ele>316.66666666666663</ele><time>2026-05-02T08:39:07.786Z</time></trkpt><trkpt lat="43.5012483" lon="12.23497"><ele>317.3333333333333</ele><time>2026-05-02T08:39:08.789Z</time></trkpt><trkpt lat="43.5011067" lon="12.2351017"><ele>318.0</ele><time>2026-05-02T08:39:09.789Z</time></trkpt><trkpt lat="43.5009567" lon="12.2352217"><ele>318.0</ele><time>2026-05-02T08:39:10.789Z</time></trkpt><trkpt lat="43.500805" lon="12.2353367"><ele>318.0</ele><time>2026-05-02T08:39:11.789Z</time></trkpt><trkpt lat="43.5006517" lon="12.2354483"><ele>318.0</ele><time>2026-05-02T08:39:12.79Z</time></trkpt><trkpt lat="43.5005" lon="12.2355633"><ele>316.0</ele><time>2026-05-02T08:39:13.79Z</time></trkpt><trkpt lat="43.5003433" lon="12.235675"><ele>314.0</ele><time>2026-05-02T08:39:14.787Z</time></trkpt><trkpt lat="43.5001867" lon="12.2357883"><ele>312.0</ele><time>2026-05-02T08:39:15.789Z</time></trkpt><trkpt lat="43.5000283" lon="12.2359067"><ele>312.0</ele><time>2026-05-02T08:39:16.79Z</time></trkpt><trkpt lat="43.49987" lon="12.23602"><ele>312.0</ele><time>2026-05-02T08:39:17.789Z</time></trkpt><trkpt lat="43.4997133" lon="12.2361283"><ele>312.0</ele><time>2026-05-02T08:39:18.786Z</time></trkpt><trkpt lat="43.49956" lon="12.23623"><ele>312.0</ele><time>2026-05-02T08:39:19.788Z</time></trkpt><trkpt lat="43.49941" lon="12.2363367"><ele>312.0</ele><time>2026-05-02T08:39:20.79Z</time></trkpt><trkpt lat="43.4992633" lon="12.23644"><ele>312.0</ele><time>2026-05-02T08:39:21.789Z</time></trkpt><trkpt lat="43.49912" lon="12.2365467"><ele>312.0</ele><time>2026-05-02T08:39:22.789Z</time></trkpt><trkpt lat="43.498975" lon="12.2366567"><ele>312.0</ele><time>2026-05-02T08:39:23.787Z</time></trkpt><trkpt lat="43.4988267" lon="12.2367667"><ele>312.0</ele><time>2026-05-02T08:39:24.786Z</time></trkpt><trkpt lat="43.4986733" lon="12.2368767"><ele>312.0</ele><time>2026-05-02T08:39:25.787Z</time></trkpt><trkpt lat="43.4985183" lon="12.23698"><ele>312.0</ele><time>2026-05-02T08:39:26.788Z</time></trkpt><trkpt lat="43.4983533" lon="12.2370733"><ele>312.0</ele><time>2026-05-02T08:39:27.787Z</time></trkpt><trkpt lat="43.498185" lon="12.23715"><ele>312.0</ele><time>2026-05-02T08:39:28.787Z</time></trkpt><trkpt lat="43.4980167" lon="12.2372033"><ele>312.0</ele><time>2026-05-02T08:39:29.787Z</time></trkpt><trkpt lat="43.4978533" lon="12.2372483"><ele>312.0</ele><time>2026-05-02T08:39:30.787Z</time></trkpt><trkpt lat="43.4977017" lon="12.23728"><ele>311.75</ele><time>2026-05-02T08:39:31.786Z</time></trkpt><trkpt lat="43.497555" lon="12.2373117"><ele>311.5</ele><time>2026-05-02T08:39:32.788Z</time></trkpt><trkpt lat="43.4974183" lon="12.23734"><ele>311.25</ele><time>2026-05-02T08:39:33.79Z</time></trkpt><trkpt lat="43.4972867" lon="12.23737"><ele>311.0</ele><time>2026-05-02T08:39:34.789Z</time></trkpt><trkpt lat="43.49716" lon="12.2374017"><ele>311.2</ele><time>2026-05-02T08:39:35.79Z</time></trkpt><trkpt lat="43.49704" lon="12.2374383"><ele>311.40000000000003</ele><time>2026-05-02T08:39:36.789Z</time></trkpt><trkpt lat="43.4969283" lon="12.2374717"><ele>311.6</ele><time>2026-05-02T08:39:37.789Z</time></trkpt><trkpt lat="43.4968317" lon="12.237495"><ele>311.8</ele><time>2026-05-02T08:39:38.79Z</time></trkpt><trkpt lat="43.4967517" lon="12.2375233"><ele>312.0</ele><time>2026-05-02T08:39:39.79Z</time></trkpt><trkpt lat="43.4966933" lon="12.2375567"><ele>312.0</ele><time>2026-05-02T08:39:40.79Z</time></trkpt><trkpt lat="43.4966617" lon="12.23768"><ele>312.0</ele><time>2026-05-02T08:39:42.789Z</time></trkpt><trkpt lat="43.4966917" lon="12.2377717"><ele>312.0</ele><time>2026-05-02T08:39:43.789Z</time></trkpt><trkpt lat="43.49674" lon="12.2379033"><ele>312.0</ele><time>2026-05-02T08:39:44.791Z</time></trkpt><trkpt lat="43.496785" lon="12.2380417"><ele>312.0</ele><time>2026-05-02T08:39:45.789Z</time></trkpt><trkpt lat="43.4968383" lon="12.2381867"><ele>312.0</ele><time>2026-05-02T08:39:46.789Z</time></trkpt><trkpt lat="43.496895" lon="12.2383233"><ele>312.0</ele><time>2026-05-02T08:39:47.79Z</time></trkpt><trkpt lat="43.496965" lon="12.2384617"><ele>312.0</ele><time>2026-05-02T08:39:48.789Z</time></trkpt><trkpt lat="43.4970383" lon="12.238605"><ele>312.0</ele><time>2026-05-02T08:39:49.789Z</time></trkpt><trkpt lat="43.4971117" lon="12.2387517"><ele>312.25</ele><time>2026-05-02T08:39:50.79Z</time></trkpt><trkpt lat="43.49719" lon="12.2389033"><ele>312.5</ele><time>2026-05-02T08:39:51.789Z</time></trkpt><trkpt lat="43.4972667" lon="12.2390583"><ele>312.75</ele><time>2026-05-02T08:39:52.789Z</time></trkpt><trkpt lat="43.4973383" lon="12.2392167"><ele>313.0</ele><time>2026-05-02T08:39:53.789Z</time></trkpt><trkpt lat="43.49741" lon="12.2393733"><ele>313.25</ele><time>2026-05-02T08:39:54.789Z</time></trkpt><trkpt lat="43.4974867" lon="12.2395283"><ele>313.5</ele><time>2026-05-02T08:39:55.788Z</time></trkpt><trkpt lat="43.4975567" lon="12.2396783"><ele>313.75</ele><time>2026-05-02T08:39:56.785Z</time></trkpt><trkpt lat="43.4976233" lon="12.239815"><ele>314.0</ele><time>2026-05-02T08:39:57.785Z</time></trkpt><trkpt lat="43.49769" lon="12.2399383"><ele>314.0</ele><time>2026-05-02T08:39:58.785Z</time></trkpt><trkpt lat="43.4977583" lon="12.2400583"><ele>314.0</ele><time>2026-05-02T08:39:59.786Z</time></trkpt><trkpt lat="43.4978233" lon="12.24017"><ele>314.0</ele><time>2026-05-02T08:40:00.785Z</time></trkpt><trkpt lat="43.4978867" lon="12.2402683"><ele>314.0</ele><time>2026-05-02T08:40:01.785Z</time></trkpt><trkpt lat="43.497955" lon="12.2403617"><ele>314.0</ele><time>2026-05-02T08:40:02.785Z</time></trkpt><trkpt lat="43.49802" lon="12.240465"><ele>314.5</ele><time>2026-05-02T08:40:03.881Z</time></trkpt><trkpt lat="43.4980933" lon="12.2405767"><ele>315.0</ele><time>2026-05-02T08:40:04.788Z</time></trkpt><trkpt lat="43.498175" lon="12.2406917"><ele>315.5</ele><time>2026-05-02T08:40:05.788Z</time></trkpt><trkpt lat="43.498255" lon="12.24081"><ele>316.0</ele><time>2026-05-02T08:40:06.788Z</time></trkpt><trkpt lat="43.49834" lon="12.2409367"><ele>316.25</ele><time>2026-05-02T08:40:07.788Z</time></trkpt><trkpt lat="43.49843" lon="12.2410683"><ele>316.5</ele><time>2026-05-02T08:40:08.785Z</time></trkpt><trkpt lat="43.4985217" lon="12.2412017"><ele>316.75</ele><time>2026-05-02T08:40:09.785Z</time></trkpt><trkpt lat="43.4986167" lon="12.2413383"><ele>317.0</ele><time>2026-05-02T08:40:10.785Z</time></trkpt><trkpt lat="43.4987133" lon="12.24148"><ele>317.0</ele><time>2026-05-02T08:40:11.786Z</time></trkpt><trkpt lat="43.4988117" lon="12.241625"><ele>317.0</ele><time>2026-05-02T08:40:12.785Z</time></trkpt><trkpt lat="43.4989133" lon="12.2417767"><ele>317.0</ele><time>2026-05-02T08:40:13.785Z</time></trkpt><trkpt lat="43.4990183" lon="12.2419283"><ele>317.0</ele><time>2026-05-02T08:40:14.786Z</time></trkpt><trkpt lat="43.499125" lon="12.2420833"><ele>317.0</ele><time>2026-05-02T08:40:15.785Z</time></trkpt><trkpt lat="43.4992333" lon="12.242235"><ele>317.0</ele><time>2026-05-02T08:40:16.785Z</time></trkpt><trkpt lat="43.4993433" lon="12.2423867"><ele>317.0</ele><time>2026-05-02T08:40:17.785Z</time></trkpt><trkpt lat="43.4994533" lon="12.242535"><ele>316.6666666666667</ele><time>2026-05-02T08:40:18.787Z</time></trkpt><trkpt lat="43.4995667" lon="12.242685"><ele>316.3333333333333</ele><time>2026-05-02T08:40:19.785Z</time></trkpt><trkpt lat="43.49968" lon="12.2428317"><ele>316.0</ele><time>2026-05-02T08:40:20.786Z</time></trkpt><trkpt lat="43.499795" lon="12.2429767"><ele>316.66666666666663</ele><time>2026-05-02T08:40:21.786Z</time></trkpt><trkpt lat="43.4999083" lon="12.24312"><ele>317.3333333333333</ele><time>2026-05-02T08:40:22.789Z</time></trkpt><trkpt lat="43.5000217" lon="12.243265"><ele>318.0</ele><time>2026-05-02T08:40:23.786Z</time></trkpt><trkpt lat="43.5001383" lon="12.2434067"><ele>319.0</ele><time>2026-05-02T08:40:24.79Z</time></trkpt><trkpt lat="43.500255" lon="12.243545"><ele>320.0</ele><time>2026-05-02T08:40:25.791Z</time></trkpt><trkpt lat="43.5003717" lon="12.2436817"><ele>321.0</ele><time>2026-05-02T08:40:26.788Z</time></trkpt><trkpt lat="43.500485" lon="12.2438217"><ele>321.0</ele><time>2026-05-02T08:40:27.79Z</time></trkpt><trkpt lat="43.5005967" lon="12.2439633"><ele>321.0</ele><time>2026-05-02T08:40:28.788Z</time></trkpt><trkpt lat="43.5007067" lon="12.2441067"><ele>321.0</ele><time>2026-05-02T08:40:29.788Z</time></trkpt><trkpt lat="43.5008167" lon="12.2442467"><ele>321.75</ele><time>2026-05-02T08:40:30.788Z</time></trkpt><trkpt lat="43.500925" lon="12.2443867"><ele>322.5</ele><time>2026-05-02T08:40:31.788Z</time></trkpt><trkpt lat="43.5010267" lon="12.244525"><ele>323.25</ele><time>2026-05-02T08:40:32.789Z</time></trkpt><trkpt lat="43.501125" lon="12.244655"><ele>324.0</ele><time>2026-05-02T08:40:33.788Z</time></trkpt><trkpt lat="43.50121" lon="12.2447733"><ele>325.25</ele><time>2026-05-02T08:40:34.788Z</time></trkpt><trkpt lat="43.5012883" lon="12.244885"><ele>326.5</ele><time>2026-05-02T08:40:35.789Z</time></trkpt><trkpt lat="43.5013683" lon="12.244995"><ele>327.75</ele><time>2026-05-02T08:40:36.788Z</time></trkpt><trkpt lat="43.5014583" lon="12.2451017"><ele>329.0</ele><time>2026-05-02T08:40:37.785Z</time></trkpt><trkpt lat="43.501555" lon="12.2452"><ele>329.0</ele><time>2026-05-02T08:40:38.789Z</time></trkpt><trkpt lat="43.5016617" lon="12.2452917"><ele>329.0</ele><time>2026-05-02T08:40:39.788Z</time></trkpt><trkpt lat="43.5017667" lon="12.2453817"><ele>329.0</ele><time>2026-05-02T08:40:40.788Z</time></trkpt><trkpt lat="43.50187" lon="12.245475"><ele>329.0</ele><time>2026-05-02T08:40:41.789Z</time></trkpt><trkpt lat="43.5019733" lon="12.2455683"><ele>330.5</ele><time>2026-05-02T08:40:42.788Z</time></trkpt><trkpt lat="43.5020817" lon="12.2456633"><ele>332.0</ele><time>2026-05-02T08:40:43.788Z</time></trkpt><trkpt lat="43.50219" lon="12.2457633"><ele>333.5</ele><time>2026-05-02T08:40:44.789Z</time></trkpt><trkpt lat="43.502295" lon="12.2458717"><ele>335.0</ele><time>2026-05-02T08:40:45.788Z</time></trkpt><trkpt lat="43.5023917" lon="12.245995"><ele>335.0</ele><time>2026-05-02T08:40:46.788Z</time></trkpt><trkpt lat="43.50248" lon="12.246135"><ele>335.0</ele><time>2026-05-02T08:40:47.788Z</time></trkpt><trkpt lat="43.502555" lon="12.2462817"><ele>335.0</ele><time>2026-05-02T08:40:48.789Z</time></trkpt><trkpt lat="43.5026117" lon="12.2464217"><ele>335.0</ele><time>2026-05-02T08:40:49.788Z</time></trkpt><trkpt lat="43.502655" lon="12.246555"><ele>335.0</ele><time>2026-05-02T08:40:50.789Z</time></trkpt><trkpt lat="43.502685" lon="12.2466767"><ele>335.0</ele><time>2026-05-02T08:40:51.788Z</time></trkpt><trkpt lat="43.5027117" lon="12.2467917"><ele>335.0</ele><time>2026-05-02T08:40:52.788Z</time></trkpt><trkpt lat="43.5027433" lon="12.2469083"><ele>335.0</ele><time>2026-05-02T08:40:53.789Z</time></trkpt><trkpt lat="43.5027883" lon="12.2470217"><ele>335.0</ele><time>2026-05-02T08:40:54.788Z</time></trkpt><trkpt lat="43.5028417" lon="12.2471333"><ele>335.0</ele><time>2026-05-02T08:40:55.788Z</time></trkpt><trkpt lat="43.5029" lon="12.2472467"><ele>335.0</ele><time>2026-05-02T08:40:56.788Z</time></trkpt><trkpt lat="43.5029567" lon="12.2473683"><ele>335.0</ele><time>2026-05-02T08:40:57.79Z</time></trkpt><trkpt lat="43.503015" lon="12.2474967"><ele>335.0</ele><time>2026-05-02T08:40:58.788Z</time></trkpt><trkpt lat="43.5030833" lon="12.2476233"><ele>335.0</ele><time>2026-05-02T08:40:59.789Z</time></trkpt><trkpt lat="43.5031633" lon="12.2477417"><ele>336.5</ele><time>2026-05-02T08:41:00.788Z</time></trkpt><trkpt lat="43.5032483" lon="12.2478567"><ele>338.0</ele><time>2026-05-02T08:41:01.788Z</time></trkpt><trkpt lat="43.5033333" lon="12.2479783"><ele>339.5</ele><time>2026-05-02T08:41:02.788Z</time></trkpt><trkpt lat="43.5034133" lon="12.24811"><ele>341.0</ele><time>2026-05-02T08:41:03.788Z</time></trkpt><trkpt lat="43.5034867" lon="12.2482567"><ele>341.0</ele><time>2026-05-02T08:41:04.786Z</time></trkpt><trkpt lat="43.5035533" lon="12.2484067"><ele>341.0</ele><time>2026-05-02T08:41:05.79Z</time></trkpt><trkpt lat="43.5036217" lon="12.2485567"><ele>341.0</ele><time>2026-05-02T08:41:06.79Z</time></trkpt><trkpt lat="43.5036917" lon="12.24871"><ele>341.0</ele><time>2026-05-02T08:41:07.788Z</time></trkpt><trkpt lat="43.5037667" lon="12.2488617"><ele>341.75</ele><time>2026-05-02T08:41:08.789Z</time></trkpt><trkpt lat="43.5038467" lon="12.2490183"><ele>342.5</ele><time>2026-05-02T08:41:09.788Z</time></trkpt><trkpt lat="43.5039233" lon="12.24918"><ele>343.25</ele><time>2026-05-02T08:41:10.79Z</time></trkpt><trkpt lat="43.5040017" lon="12.2493367"><ele>344.0</ele><time>2026-05-02T08:41:11.789Z</time></trkpt><trkpt lat="43.5040817" lon="12.2494583"><ele>344.0</ele><time>2026-05-02T08:41:12.789Z</time></trkpt><trkpt lat="43.5041667" lon="12.2495683"><ele>344.0</ele><time>2026-05-02T08:41:13.788Z</time></trkpt><trkpt lat="43.5042567" lon="12.2496767"><ele>344.0</ele><time>2026-05-02T08:41:14.788Z</time></trkpt><trkpt lat="43.50435" lon="12.2497883"><ele>344.0</ele><time>2026-05-02T08:41:15.79Z</time></trkpt><trkpt lat="43.50445" lon="12.2499"><ele>344.5</ele><time>2026-05-02T08:41:16.789Z</time></trkpt><trkpt lat="43.5045567" lon="12.2500133"><ele>345.0</ele><time>2026-05-02T08:41:17.789Z</time></trkpt><trkpt lat="43.504665" lon="12.25013"><ele>345.5</ele><time>2026-05-02T08:41:18.789Z</time></trkpt><trkpt lat="43.504775" lon="12.2502467"><ele>346.0</ele><time>2026-05-02T08:41:19.785Z</time></trkpt><trkpt lat="43.5048883" lon="12.2503717"><ele>346.0</ele><time>2026-05-02T08:41:20.791Z</time></trkpt><trkpt lat="43.504995" lon="12.250515"><ele>346.0</ele><time>2026-05-02T08:41:21.788Z</time></trkpt><trkpt lat="43.5050983" lon="12.2506733"><ele>346.0</ele><time>2026-05-02T08:41:22.79Z</time></trkpt><trkpt lat="43.5051933" lon="12.2508367"><ele>346.75</ele><time>2026-05-02T08:41:23.789Z</time></trkpt><trkpt lat="43.5052867" lon="12.2510017"><ele>347.5</ele><time>2026-05-02T08:41:24.788Z</time></trkpt><trkpt lat="43.5053833" lon="12.25116"><ele>348.25</ele><time>2026-05-02T08:41:25.791Z</time></trkpt><trkpt lat="43.5054833" lon="12.2513067"><ele>349.0</ele><time>2026-05-02T08:41:26.788Z</time></trkpt><trkpt lat="43.5055833" lon="12.2514517"><ele>346.75</ele><time>2026-05-02T08:41:27.788Z</time></trkpt><trkpt lat="43.505675" lon="12.2515917"><ele>344.5</ele><time>2026-05-02T08:41:28.788Z</time></trkpt><trkpt lat="43.50576" lon="12.2517267"><ele>342.25</ele><time>2026-05-02T08:41:29.789Z</time></trkpt><trkpt lat="43.505835" lon="12.2518517"><ele>340.0</ele><time>2026-05-02T08:41:30.788Z</time></trkpt><trkpt lat="43.505905" lon="12.2519733"><ele>340.0</ele><time>2026-05-02T08:41:31.788Z</time></trkpt><trkpt lat="43.5059683" lon="12.252085"><ele>340.0</ele><time>2026-05-02T08:41:32.788Z</time></trkpt><trkpt lat="43.50602" lon="12.2521867"><ele>340.0</ele><time>2026-05-02T08:41:33.789Z</time></trkpt><trkpt lat="43.5060567" lon="12.25228"><ele>340.0</ele><time>2026-05-02T08:41:34.788Z</time></trkpt><trkpt lat="43.5060683" lon="12.2523667"><ele>340.0</ele><time>2026-05-02T08:41:35.789Z</time></trkpt><trkpt lat="43.5060183" lon="12.2525367"><ele>339.2</ele><time>2026-05-02T08:41:37.788Z</time></trkpt><trkpt lat="43.5059517" lon="12.2526433"><ele>338.4</ele><time>2026-05-02T08:41:38.789Z</time></trkpt><trkpt lat="43.50587" lon="12.252755"><ele>337.6</ele><time>2026-05-02T08:41:39.788Z</time></trkpt><trkpt lat="43.505785" lon="12.2528667"><ele>336.8</ele><time>2026-05-02T08:41:40.788Z</time></trkpt><trkpt lat="43.5057017" lon="12.2529617"><ele>336.0</ele><time>2026-05-02T08:41:41.79Z</time></trkpt><trkpt lat="43.5056233" lon="12.2530433"><ele>336.0</ele><time>2026-05-02T08:41:42.789Z</time></trkpt><trkpt lat="43.505545" lon="12.2531167"><ele>336.0</ele><time>2026-05-02T08:41:43.788Z</time></trkpt><trkpt lat="43.505465" lon="12.2531667"><ele>336.0</ele><time>2026-05-02T08:41:44.789Z</time></trkpt><trkpt lat="43.5053883" lon="12.2531967"><ele>336.0</ele><time>2026-05-02T08:41:45.788Z</time></trkpt><trkpt lat="43.5053167" lon="12.25321"><ele>336.0</ele><time>2026-05-02T08:41:46.789Z</time></trkpt><trkpt lat="43.5052467" lon="12.253215"><ele>336.0</ele><time>2026-05-02T08:41:47.789Z</time></trkpt><trkpt lat="43.50518" lon="12.25322"><ele>336.3333333333333</ele><time>2026-05-02T08:41:48.789Z</time></trkpt><trkpt lat="43.5051067" lon="12.253235"><ele>336.6666666666667</ele><time>2026-05-02T08:41:49.789Z</time></trkpt><trkpt lat="43.5050317" lon="12.2532683"><ele>337.0</ele><time>2026-05-02T08:41:50.789Z</time></trkpt><trkpt lat="43.5049533" lon="12.253315"><ele>337.33333333333337</ele><time>2026-05-02T08:41:51.789Z</time></trkpt><trkpt lat="43.5048733" lon="12.2533617"><ele>337.6666666666667</ele><time>2026-05-02T08:41:52.788Z</time></trkpt><trkpt lat="43.5047917" lon="12.2533917"><ele>338.0</ele><time>2026-05-02T08:41:53.789Z</time></trkpt><trkpt lat="43.5046967" lon="12.253405"><ele>338.0</ele><time>2026-05-02T08:41:54.789Z</time></trkpt><trkpt lat="43.504595" lon="12.25339"><ele>338.0</ele><time>2026-05-02T08:41:55.789Z</time></trkpt><trkpt lat="43.5044817" lon="12.2533617"><ele>338.0</ele><time>2026-05-02T08:41:56.788Z</time></trkpt><trkpt lat="43.5043583" lon="12.2533317"><ele>338.0</ele><time>2026-05-02T08:41:57.788Z</time></trkpt><trkpt lat="43.5042333" lon="12.2533033"><ele>338.0</ele><time>2026-05-02T08:41:58.788Z</time></trkpt><trkpt lat="43.5041133" lon="12.2532783"><ele>338.0</ele><time>2026-05-02T08:41:59.79Z</time></trkpt><trkpt lat="43.5040083" lon="12.2532633"><ele>338.0</ele><time>2026-05-02T08:42:00.786Z</time></trkpt><trkpt lat="43.5039117" lon="12.2532533"><ele>338.0</ele><time>2026-05-02T08:42:01.79Z</time></trkpt><trkpt lat="43.5038233" lon="12.2532417"><ele>338.0</ele><time>2026-05-02T08:42:02.788Z</time></trkpt><trkpt lat="43.5037533" lon="12.2532333"><ele>338.0</ele><time>2026-05-02T08:42:03.789Z</time></trkpt><trkpt lat="43.503665" lon="12.2532383"><ele>338.0</ele><time>2026-05-02T08:42:05.789Z</time></trkpt><trkpt lat="43.5036417" lon="12.2533483"><ele>338.0</ele><time>2026-05-02T08:42:08.789Z</time></trkpt><trkpt lat="43.5037033" lon="12.253495"><ele>338.0</ele><time>2026-05-02T08:42:10.788Z</time></trkpt><trkpt lat="43.5037567" lon="12.2535817"><ele>338.0</ele><time>2026-05-02T08:42:11.789Z</time></trkpt><trkpt lat="43.5038233" lon="12.25368"><ele>338.0</ele><time>2026-05-02T08:42:12.789Z</time></trkpt><trkpt lat="43.5038967" lon="12.253795"><ele>338.0</ele><time>2026-05-02T08:42:13.789Z</time></trkpt><trkpt lat="43.5039617" lon="12.2539133"><ele>338.0</ele><time>2026-05-02T08:42:14.789Z</time></trkpt><trkpt lat="43.504025" lon="12.25404"><ele>338.0</ele><time>2026-05-02T08:42:15.789Z</time></trkpt><trkpt lat="43.50409" lon="12.2541733"><ele>338.0</ele><time>2026-05-02T08:42:16.789Z</time></trkpt><trkpt lat="43.5041617" lon="12.2543067"><ele>339.75</ele><time>2026-05-02T08:42:17.789Z</time></trkpt><trkpt lat="43.5042383" lon="12.2544383"><ele>341.5</ele><time>2026-05-02T08:42:18.79Z</time></trkpt><trkpt lat="43.5043233" lon="12.25457"><ele>343.25</ele><time>2026-05-02T08:42:19.789Z</time></trkpt><trkpt lat="43.5044167" lon="12.2546967"><ele>345.0</ele><time>2026-05-02T08:42:20.79Z</time></trkpt><trkpt lat="43.5045167" lon="12.254815"><ele>344.5</ele><time>2026-05-02T08:42:21.79Z</time></trkpt><trkpt lat="43.5046267" lon="12.2549283"><ele>344.0</ele><time>2026-05-02T08:42:22.79Z</time></trkpt><trkpt lat="43.5047467" lon="12.255035"><ele>343.5</ele><time>2026-05-02T08:42:23.79Z</time></trkpt><trkpt lat="43.50487" lon="12.255145"><ele>343.0</ele><time>2026-05-02T08:42:24.789Z</time></trkpt><trkpt lat="43.5049967" lon="12.2552567"><ele>343.0</ele><time>2026-05-02T08:42:25.789Z</time></trkpt><trkpt lat="43.5051267" lon="12.2553683"><ele>343.0</ele><time>2026-05-02T08:42:26.789Z</time></trkpt><trkpt lat="43.505255" lon="12.2554783"><ele>343.0</ele><time>2026-05-02T08:42:27.785Z</time></trkpt><trkpt lat="43.5053833" lon="12.2555933"><ele>343.3333333333333</ele><time>2026-05-02T08:42:28.79Z</time></trkpt><trkpt lat="43.5055133" lon="12.2557083"><ele>343.6666666666667</ele><time>2026-05-02T08:42:29.789Z</time></trkpt><trkpt lat="43.5056383" lon="12.25582"><ele>344.0</ele><time>2026-05-02T08:42:30.785Z</time></trkpt><trkpt lat="43.505755" lon="12.2559433"><ele>344.0</ele><time>2026-05-02T08:42:31.789Z</time></trkpt><trkpt lat="43.505865" lon="12.25608"><ele>344.0</ele><time>2026-05-02T08:42:32.786Z</time></trkpt><trkpt lat="43.5059633" lon="12.2562233"><ele>344.0</ele><time>2026-05-02T08:42:33.787Z</time></trkpt><trkpt lat="43.5060483" lon="12.2563817"><ele>344.0</ele><time>2026-05-02T08:42:34.789Z</time></trkpt><trkpt lat="43.5061317" lon="12.2565567"><ele>344.33333333333337</ele><time>2026-05-02T08:42:35.789Z</time></trkpt><trkpt lat="43.5062033" lon="12.25674"><ele>344.6666666666667</ele><time>2026-05-02T08:42:36.789Z</time></trkpt><trkpt lat="43.5062717" lon="12.256925"><ele>345.0</ele><time>2026-05-02T08:42:37.787Z</time></trkpt><trkpt lat="43.5063483" lon="12.257105"><ele>345.0</ele><time>2026-05-02T08:42:38.789Z</time></trkpt><trkpt lat="43.5064217" lon="12.2572733"><ele>345.0</ele><time>2026-05-02T08:42:39.789Z</time></trkpt><trkpt lat="43.5064867" lon="12.2574317"><ele>345.0</ele><time>2026-05-02T08:42:40.786Z</time></trkpt><trkpt lat="43.5065517" lon="12.2575867"><ele>345.0</ele><time>2026-05-02T08:42:41.789Z</time></trkpt><trkpt lat="43.5066033" lon="12.2577433"><ele>345.75</ele><time>2026-05-02T08:42:42.787Z</time></trkpt><trkpt lat="43.5066383" lon="12.2579017"><ele>346.5</ele><time>2026-05-02T08:42:43.789Z</time></trkpt><trkpt lat="43.5066483" lon="12.258055"><ele>347.25</ele><time>2026-05-02T08:42:44.79Z</time></trkpt><trkpt lat="43.506635" lon="12.258205"><ele>348.0</ele><time>2026-05-02T08:42:45.789Z</time></trkpt><trkpt lat="43.5066017" lon="12.2583617"><ele>348.75</ele><time>2026-05-02T08:42:46.789Z</time></trkpt><trkpt lat="43.5065683" lon="12.2585233"><ele>349.5</ele><time>2026-05-02T08:42:47.789Z</time></trkpt><trkpt lat="43.5065533" lon="12.2586967"><ele>350.25</ele><time>2026-05-02T08:42:48.789Z</time></trkpt><trkpt lat="43.5065567" lon="12.2588817"><ele>351.0</ele><time>2026-05-02T08:42:49.789Z</time></trkpt><trkpt lat="43.506575" lon="12.2590633"><ele>352.5</ele><time>2026-05-02T08:42:50.786Z</time></trkpt><trkpt lat="43.5066133" lon="12.259235"><ele>354.0</ele><time>2026-05-02T08:42:51.788Z</time></trkpt><trkpt lat="43.5066683" lon="12.25939"><ele>355.5</ele><time>2026-05-02T08:42:52.787Z</time></trkpt><trkpt lat="43.5067267" lon="12.259545"><ele>357.0</ele><time>2026-05-02T08:42:53.787Z</time></trkpt><trkpt lat="43.50677" lon="12.2596917"><ele>359.20000000000005</ele><time>2026-05-02T08:42:54.789Z</time></trkpt><trkpt lat="43.5067983" lon="12.2598367"><ele>361.4</ele><time>2026-05-02T08:42:55.785Z</time></trkpt><trkpt lat="43.506815" lon="12.25998"><ele>363.6</ele><time>2026-05-02T08:42:56.789Z</time></trkpt><trkpt lat="43.5068333" lon="12.2601133"><ele>365.79999999999995</ele><time>2026-05-02T08:42:57.789Z</time></trkpt><trkpt lat="43.5068467" lon="12.2602383"><ele>368.0</ele><time>2026-05-02T08:42:58.786Z</time></trkpt><trkpt lat="43.5068617" lon="12.2603467"><ele>368.0</ele><time>2026-05-02T08:42:59.787Z</time></trkpt><trkpt lat="43.5068767" lon="12.2604367"><ele>368.0</ele><time>2026-05-02T08:43:00.789Z</time></trkpt><trkpt lat="43.5068883" lon="12.2605467"><ele>368.0</ele><time>2026-05-02T08:43:02.786Z</time></trkpt><trkpt lat="43.5070233" lon="12.26056"><ele>368.0</ele><time>2026-05-02T08:45:45.788Z</time></trkpt><trkpt lat="43.5070933" lon="12.260555"><ele>368.0</ele><time>2026-05-02T08:45:46.788Z</time></trkpt><trkpt lat="43.5071817" lon="12.2605467"><ele>368.0</ele><time>2026-05-02T08:45:47.789Z</time></trkpt><trkpt lat="43.507265" lon="12.260525"><ele>364.4</ele><time>2026-05-02T08:45:48.788Z</time></trkpt><trkpt lat="43.50735" lon="12.2604883"><ele>360.79999999999995</ele><time>2026-05-02T08:45:49.789Z</time></trkpt><trkpt lat="43.50744" lon="12.2604283"><ele>357.2</ele><time>2026-05-02T08:45:50.788Z</time></trkpt><trkpt lat="43.5075317" lon="12.2603617"><ele>353.6</ele><time>2026-05-02T08:45:51.789Z</time></trkpt><trkpt lat="43.507625" lon="12.2603067"><ele>350.0</ele><time>2026-05-02T08:45:52.788Z</time></trkpt><trkpt lat="43.507725" lon="12.260265"><ele>350.0</ele><time>2026-05-02T08:45:53.786Z</time></trkpt><trkpt lat="43.507825" lon="12.260235"><ele>350.0</ele><time>2026-05-02T08:45:54.789Z</time></trkpt><trkpt lat="43.5079217" lon="12.2602383"><ele>350.0</ele><time>2026-05-02T08:45:55.787Z</time></trkpt><trkpt lat="43.5080033" lon="12.2602783"><ele>350.0</ele><time>2026-05-02T08:45:56.786Z</time></trkpt><trkpt lat="43.5080767" lon="12.2603433"><ele>350.0</ele><time>2026-05-02T08:45:57.786Z</time></trkpt><trkpt lat="43.5081467" lon="12.2604183"><ele>352.5</ele><time>2026-05-02T08:45:58.787Z</time></trkpt><trkpt lat="43.5081917" lon="12.2605283"><ele>355.0</ele><time>2026-05-02T08:45:59.786Z</time></trkpt><trkpt lat="43.5082083" lon="12.260695"><ele>357.5</ele><time>2026-05-02T08:46:00.785Z</time></trkpt><trkpt lat="43.5082233" lon="12.2608767"><ele>360.0</ele><time>2026-05-02T08:46:01.786Z</time></trkpt><trkpt lat="43.5082533" lon="12.2610483"><ele>360.25</ele><time>2026-05-02T08:46:02.785Z</time></trkpt><trkpt lat="43.508295" lon="12.261215"><ele>360.5</ele><time>2026-05-02T08:46:03.79Z</time></trkpt><trkpt lat="43.5083367" lon="12.26138"><ele>360.75</ele><time>2026-05-02T08:46:04.789Z</time></trkpt><trkpt lat="43.5083733" lon="12.261555"><ele>361.0</ele><time>2026-05-02T08:46:05.789Z</time></trkpt><trkpt lat="43.50839" lon="12.2617383"><ele>361.5</ele><time>2026-05-02T08:46:06.789Z</time></trkpt><trkpt lat="43.5083933" lon="12.2619267"><ele>362.0</ele><time>2026-05-02T08:46:07.786Z</time></trkpt><trkpt lat="43.5083933" lon="12.2621183"><ele>362.5</ele><time>2026-05-02T08:46:08.786Z</time></trkpt><trkpt lat="43.5083833" lon="12.262305"><ele>363.0</ele><time>2026-05-02T08:46:09.789Z</time></trkpt><trkpt lat="43.5083783" lon="12.26249"><ele>363.25</ele><time>2026-05-02T08:46:10.788Z</time></trkpt><trkpt lat="43.5083833" lon="12.26268"><ele>363.5</ele><time>2026-05-02T08:46:11.789Z</time></trkpt><trkpt lat="43.5083933" lon="12.2628667"><ele>363.75</ele><time>2026-05-02T08:46:12.789Z</time></trkpt><trkpt lat="43.508405" lon="12.2630483"><ele>364.0</ele><time>2026-05-02T08:46:13.789Z</time></trkpt><trkpt lat="43.5084083" lon="12.2632183"><ele>363.5</ele><time>2026-05-02T08:46:14.789Z</time></trkpt><trkpt lat="43.50839" lon="12.2633767"><ele>363.0</ele><time>2026-05-02T08:46:15.792Z</time></trkpt><trkpt lat="43.5083433" lon="12.26352"><ele>362.5</ele><time>2026-05-02T08:46:16.786Z</time></trkpt><trkpt lat="43.5082733" lon="12.2636633"><ele>362.0</ele><time>2026-05-02T08:46:17.789Z</time></trkpt><trkpt lat="43.5081967" lon="12.2638083"><ele>363.75</ele><time>2026-05-02T08:46:18.788Z</time></trkpt><trkpt lat="43.5081217" lon="12.2639533"><ele>365.5</ele><time>2026-05-02T08:46:19.789Z</time></trkpt><trkpt lat="43.50806" lon="12.2640967"><ele>367.25</ele><time>2026-05-02T08:46:20.789Z</time></trkpt><trkpt lat="43.5080083" lon="12.2642467"><ele>369.0</ele><time>2026-05-02T08:46:21.787Z</time></trkpt><trkpt lat="43.50797" lon="12.2644283"><ele>369.0</ele><time>2026-05-02T08:46:22.79Z</time></trkpt><trkpt lat="43.50794" lon="12.2646383"><ele>369.0</ele><time>2026-05-02T08:46:23.79Z</time></trkpt><trkpt lat="43.50791" lon="12.2648633"><ele>369.0</ele><time>2026-05-02T08:46:24.789Z</time></trkpt><trkpt lat="43.5078833" lon="12.2650967"><ele>366.0</ele><time>2026-05-02T08:46:25.789Z</time></trkpt><trkpt lat="43.5078533" lon="12.265335"><ele>363.0</ele><time>2026-05-02T08:46:26.787Z</time></trkpt><trkpt lat="43.507825" lon="12.265575"><ele>360.0</ele><time>2026-05-02T08:46:27.787Z</time></trkpt><trkpt lat="43.5077983" lon="12.26581"><ele>360.0</ele><time>2026-05-02T08:46:28.786Z</time></trkpt><trkpt lat="43.507775" lon="12.2660317"><ele>360.0</ele><time>2026-05-02T08:46:29.788Z</time></trkpt><trkpt lat="43.507755" lon="12.2662483"><ele>360.0</ele><time>2026-05-02T08:46:30.787Z</time></trkpt><trkpt lat="43.5077383" lon="12.2664683"><ele>360.3333333333333</ele><time>2026-05-02T08:46:31.786Z</time></trkpt><trkpt lat="43.5077317" lon="12.2666833"><ele>360.66666666666663</ele><time>2026-05-02T08:46:32.788Z</time></trkpt><trkpt lat="43.5077317" lon="12.2669017"><ele>361.0</ele><time>2026-05-02T08:46:33.79Z</time></trkpt><trkpt lat="43.5077333" lon="12.267115"><ele>362.5</ele><time>2026-05-02T08:46:34.789Z</time></trkpt><trkpt lat="43.5077267" lon="12.267325"><ele>364.0</ele><time>2026-05-02T08:46:35.789Z</time></trkpt><trkpt lat="43.5077083" lon="12.2675267"><ele>365.5</ele><time>2026-05-02T08:46:36.789Z</time></trkpt><trkpt lat="43.5076817" lon="12.2677183"><ele>367.0</ele><time>2026-05-02T08:46:37.789Z</time></trkpt><trkpt lat="43.5076517" lon="12.2678917"><ele>367.0</ele><time>2026-05-02T08:46:38.789Z</time></trkpt><trkpt lat="43.5076217" lon="12.2680483"><ele>367.0</ele><time>2026-05-02T08:46:39.792Z</time></trkpt><trkpt lat="43.50759" lon="12.2681833"><ele>367.0</ele><time>2026-05-02T08:46:40.789Z</time></trkpt><trkpt lat="43.5075533" lon="12.268305"><ele>367.0</ele><time>2026-05-02T08:46:41.789Z</time></trkpt><trkpt lat="43.5075083" lon="12.268415"><ele>367.0</ele><time>2026-05-02T08:46:42.789Z</time></trkpt><trkpt lat="43.5074583" lon="12.2685217"><ele>367.6</ele><time>2026-05-02T08:46:43.789Z</time></trkpt><trkpt lat="43.5074" lon="12.268625"><ele>368.20000000000005</ele><time>2026-05-02T08:46:44.791Z</time></trkpt><trkpt lat="43.5073317" lon="12.2687333"><ele>368.8</ele><time>2026-05-02T08:46:45.789Z</time></trkpt><trkpt lat="43.50725" lon="12.2688517"><ele>369.4</ele><time>2026-05-02T08:46:46.79Z</time></trkpt><trkpt lat="43.5071633" lon="12.268985"><ele>370.0</ele><time>2026-05-02T08:46:47.789Z</time></trkpt><trkpt lat="43.5070717" lon="12.2691233"><ele>370.0</ele><time>2026-05-02T08:46:48.789Z</time></trkpt><trkpt lat="43.5069767" lon="12.269275"><ele>370.0</ele><time>2026-05-02T08:46:49.787Z</time></trkpt><trkpt lat="43.506875" lon="12.2694267"><ele>370.0</ele><time>2026-05-02T08:46:50.79Z</time></trkpt><trkpt lat="43.5067683" lon="12.269585"><ele>370.0</ele><time>2026-05-02T08:46:51.789Z</time></trkpt><trkpt lat="43.5066617" lon="12.2697467"><ele>370.0</ele><time>2026-05-02T08:46:52.789Z</time></trkpt><trkpt lat="43.5065567" lon="12.2699067"><ele>370.0</ele><time>2026-05-02T08:46:53.79Z</time></trkpt><trkpt lat="43.5064583" lon="12.270055"><ele>370.25</ele><time>2026-05-02T08:46:54.789Z</time></trkpt><trkpt lat="43.5063667" lon="12.27019"><ele>370.5</ele><time>2026-05-02T08:46:55.79Z</time></trkpt><trkpt lat="43.5062783" lon="12.2703183"><ele>370.75</ele><time>2026-05-02T08:46:56.786Z</time></trkpt><trkpt lat="43.5061883" lon="12.27042"><ele>371.0</ele><time>2026-05-02T08:46:57.786Z</time></trkpt><trkpt lat="43.5060933" lon="12.2704867"><ele>371.0</ele><time>2026-05-02T08:46:58.786Z</time></trkpt><trkpt lat="43.50599" lon="12.2705017"><ele>371.0</ele><time>2026-05-02T08:46:59.787Z</time></trkpt><trkpt lat="43.5058833" lon="12.2705067"><ele>371.0</ele><time>2026-05-02T08:47:00.787Z</time></trkpt><trkpt lat="43.505775" lon="12.2705183"><ele>371.0</ele><time>2026-05-02T08:47:01.786Z</time></trkpt><trkpt lat="43.5056633" lon="12.2705483"><ele>371.0</ele><time>2026-05-02T08:47:02.786Z</time></trkpt><trkpt lat="43.505545" lon="12.270595"><ele>371.25</ele><time>2026-05-02T08:47:03.789Z</time></trkpt><trkpt lat="43.5054267" lon="12.2706583"><ele>371.5</ele><time>2026-05-02T08:47:04.79Z</time></trkpt><trkpt lat="43.50531" lon="12.2707333"><ele>371.75</ele><time>2026-05-02T08:47:05.789Z</time></trkpt><trkpt lat="43.505195" lon="12.2708233"><ele>372.0</ele><time>2026-05-02T08:47:06.789Z</time></trkpt><trkpt lat="43.5050817" lon="12.27093"><ele>372.0</ele><time>2026-05-02T08:47:07.789Z</time></trkpt><trkpt lat="43.5049717" lon="12.2710433"><ele>372.0</ele><time>2026-05-02T08:47:08.789Z</time></trkpt><trkpt lat="43.50486" lon="12.2711733"><ele>372.0</ele><time>2026-05-02T08:47:09.785Z</time></trkpt><trkpt lat="43.504745" lon="12.2713117"><ele>372.0</ele><time>2026-05-02T08:47:10.786Z</time></trkpt><trkpt lat="43.50463" lon="12.2714633"><ele>371.6666666666667</ele><time>2026-05-02T08:47:11.786Z</time></trkpt><trkpt lat="43.504515" lon="12.27162"><ele>371.33333333333337</ele><time>2026-05-02T08:47:12.786Z</time></trkpt><trkpt lat="43.504405" lon="12.271785"><ele>371.0</ele><time>2026-05-02T08:47:13.789Z</time></trkpt><trkpt lat="43.5042967" lon="12.2719517"><ele>371.0</ele><time>2026-05-02T08:47:14.79Z</time></trkpt><trkpt lat="43.5041867" lon="12.2721267"><ele>371.0</ele><time>2026-05-02T08:47:15.789Z</time></trkpt><trkpt lat="43.5040767" lon="12.2722983"><ele>371.0</ele><time>2026-05-02T08:47:16.787Z</time></trkpt><trkpt lat="43.503965" lon="12.2724733"><ele>372.0</ele><time>2026-05-02T08:47:17.79Z</time></trkpt><trkpt lat="43.5038617" lon="12.2726383"><ele>373.0</ele><time>2026-05-02T08:47:18.789Z</time></trkpt><trkpt lat="43.5037667" lon="12.2728"><ele>374.0</ele><time>2026-05-02T08:47:19.789Z</time></trkpt><trkpt lat="43.5036833" lon="12.2729717"><ele>375.6666666666667</ele><time>2026-05-02T08:47:20.789Z</time></trkpt><trkpt lat="43.50361" lon="12.2731617"><ele>377.3333333333333</ele><time>2026-05-02T08:47:21.789Z</time></trkpt><trkpt lat="43.5035417" lon="12.2733667"><ele>379.0</ele><time>2026-05-02T08:47:22.79Z</time></trkpt><trkpt lat="43.5034783" lon="12.2735783"><ele>379.0</ele><time>2026-05-02T08:47:23.789Z</time></trkpt><trkpt lat="43.5034167" lon="12.2737883"><ele>379.0</ele><time>2026-05-02T08:47:24.787Z</time></trkpt><trkpt lat="43.5033583" lon="12.273985"><ele>379.0</ele><time>2026-05-02T08:47:25.787Z</time></trkpt><trkpt lat="43.5033067" lon="12.2741717"><ele>379.5</ele><time>2026-05-02T08:47:26.788Z</time></trkpt><trkpt lat="43.5032617" lon="12.2743483"><ele>380.0</ele><time>2026-05-02T08:47:27.787Z</time></trkpt><trkpt lat="43.503215" lon="12.2745183"><ele>380.5</ele><time>2026-05-02T08:47:28.788Z</time></trkpt><trkpt lat="43.50315" lon="12.2746867"><ele>381.0</ele><time>2026-05-02T08:47:29.788Z</time></trkpt><trkpt lat="43.50307" lon="12.2748567"><ele>381.0</ele><time>2026-05-02T08:47:30.788Z</time></trkpt><trkpt lat="43.5029767" lon="12.2750317"><ele>381.0</ele><time>2026-05-02T08:47:31.787Z</time></trkpt><trkpt lat="43.5028717" lon="12.2752067"><ele>381.0</ele><time>2026-05-02T08:47:32.788Z</time></trkpt><trkpt lat="43.502765" lon="12.2753917"><ele>381.3333333333333</ele><time>2026-05-02T08:47:33.789Z</time></trkpt><trkpt lat="43.5026567" lon="12.2755817"><ele>381.66666666666663</ele><time>2026-05-02T08:47:34.787Z</time></trkpt><trkpt lat="43.502555" lon="12.2757717"><ele>382.0</ele><time>2026-05-02T08:47:35.787Z</time></trkpt><trkpt lat="43.5024633" lon="12.2759717"><ele>382.0</ele><time>2026-05-02T08:47:36.785Z</time></trkpt><trkpt lat="43.50238" lon="12.2761867"><ele>382.0</ele><time>2026-05-02T08:47:37.789Z</time></trkpt><trkpt lat="43.5023" lon="12.276405"><ele>382.0</ele><time>2026-05-02T08:47:38.785Z</time></trkpt><trkpt lat="43.50222" lon="12.276625"><ele>382.66666666666663</ele><time>2026-05-02T08:47:39.789Z</time></trkpt><trkpt lat="43.5021417" lon="12.2768483"><ele>383.3333333333333</ele><time>2026-05-02T08:47:40.788Z</time></trkpt><trkpt lat="43.5020617" lon="12.2770717"><ele>384.0</ele><time>2026-05-02T08:47:41.79Z</time></trkpt><trkpt lat="43.5019833" lon="12.277295"><ele>382.6666666666667</ele><time>2026-05-02T08:47:42.788Z</time></trkpt><trkpt lat="43.5019133" lon="12.277515"><ele>381.33333333333337</ele><time>2026-05-02T08:47:43.788Z</time></trkpt><trkpt lat="43.5018617" lon="12.2777383"><ele>380.0</ele><time>2026-05-02T08:47:44.788Z</time></trkpt><trkpt lat="43.5018283" lon="12.277965"><ele>381.0</ele><time>2026-05-02T08:47:45.788Z</time></trkpt><trkpt lat="43.5018017" lon="12.2782017"><ele>382.0</ele><time>2026-05-02T08:47:46.789Z</time></trkpt><trkpt lat="43.5017733" lon="12.278435"><ele>383.0</ele><time>2026-05-02T08:47:47.788Z</time></trkpt><trkpt lat="43.501735" lon="12.27867"><ele>383.0</ele><time>2026-05-02T08:47:48.788Z</time></trkpt><trkpt lat="43.501695" lon="12.2788917"><ele>383.0</ele><time>2026-05-02T08:47:49.789Z</time></trkpt><trkpt lat="43.5016567" lon="12.2791017"><ele>383.0</ele><time>2026-05-02T08:47:50.79Z</time></trkpt><trkpt lat="43.5016283" lon="12.2793133"><ele>385.6666666666667</ele><time>2026-05-02T08:47:51.788Z</time></trkpt><trkpt lat="43.5016133" lon="12.279525"><ele>388.33333333333337</ele><time>2026-05-02T08:47:52.788Z</time></trkpt><trkpt lat="43.501615" lon="12.2797417"><ele>391.0</ele><time>2026-05-02T08:47:53.788Z</time></trkpt><trkpt lat="43.50162" lon="12.2799483"><ele>392.6666666666667</ele><time>2026-05-02T08:47:54.789Z</time></trkpt><trkpt lat="43.5016183" lon="12.280145"><ele>394.33333333333337</ele><time>2026-05-02T08:47:55.786Z</time></trkpt><trkpt lat="43.5015967" lon="12.28034"><ele>396.0</ele><time>2026-05-02T08:47:56.79Z</time></trkpt><trkpt lat="43.501555" lon="12.2805667"><ele>397.33333333333337</ele><time>2026-05-02T08:47:57.788Z</time></trkpt><trkpt lat="43.5015033" lon="12.2807817"><ele>398.6666666666667</ele><time>2026-05-02T08:47:58.788Z</time></trkpt><trkpt lat="43.5014483" lon="12.2809967"><ele>400.0</ele><time>2026-05-02T08:47:59.788Z</time></trkpt><trkpt lat="43.5014033" lon="12.281215"><ele>403.0</ele><time>2026-05-02T08:48:00.789Z</time></trkpt><trkpt lat="43.5013667" lon="12.2814433"><ele>406.0</ele><time>2026-05-02T08:48:01.788Z</time></trkpt><trkpt lat="43.5013367" lon="12.28167"><ele>409.0</ele><time>2026-05-02T08:48:02.789Z</time></trkpt><trkpt lat="43.501315" lon="12.2818983"><ele>409.0</ele><time>2026-05-02T08:48:03.788Z</time></trkpt><trkpt lat="43.501295" lon="12.2821017"><ele>409.0</ele><time>2026-05-02T08:48:04.789Z</time></trkpt><trkpt lat="43.50128" lon="12.2822833"><ele>409.0</ele><time>2026-05-02T08:48:05.789Z</time></trkpt><trkpt lat="43.5012833" lon="12.282455"><ele>409.0</ele><time>2026-05-02T08:48:06.788Z</time></trkpt><trkpt lat="43.5013033" lon="12.2826233"><ele>409.0</ele><time>2026-05-02T08:48:07.785Z</time></trkpt><trkpt lat="43.5013383" lon="12.2827933"><ele>409.0</ele><time>2026-05-02T08:48:08.788Z</time></trkpt><trkpt lat="43.50138" lon="12.2829567"><ele>409.0</ele><time>2026-05-02T08:48:09.788Z</time></trkpt><trkpt lat="43.5014383" lon="12.2831167"><ele>409.0</ele><time>2026-05-02T08:48:10.788Z</time></trkpt><trkpt lat="43.5015117" lon="12.2832783"><ele>409.0</ele><time>2026-05-02T08:48:11.789Z</time></trkpt><trkpt lat="43.5015983" lon="12.28344"><ele>409.0</ele><time>2026-05-02T08:48:12.789Z</time></trkpt><trkpt lat="43.501685" lon="12.2835967"><ele>409.0</ele><time>2026-05-02T08:48:13.789Z</time></trkpt><trkpt lat="43.5017683" lon="12.2837317"><ele>409.0</ele><time>2026-05-02T08:48:14.788Z</time></trkpt><trkpt lat="43.501855" lon="12.2838417"><ele>408.6</ele><time>2026-05-02T08:48:15.79Z</time></trkpt><trkpt lat="43.5019467" lon="12.2839317"><ele>408.2</ele><time>2026-05-02T08:48:16.789Z</time></trkpt><trkpt lat="43.5020417" lon="12.284"><ele>407.8</ele><time>2026-05-02T08:48:17.785Z</time></trkpt><trkpt lat="43.5021317" lon="12.2840483"><ele>407.40000000000003</ele><time>2026-05-02T08:48:18.786Z</time></trkpt><trkpt lat="43.5022167" lon="12.284075"><ele>407.0</ele><time>2026-05-02T08:48:19.789Z</time></trkpt><trkpt lat="43.502295" lon="12.2841033"><ele>407.0</ele><time>2026-05-02T08:48:20.788Z</time></trkpt><trkpt lat="43.5023717" lon="12.2841417"><ele>407.0</ele><time>2026-05-02T08:48:21.788Z</time></trkpt><trkpt lat="43.5024467" lon="12.2842017"><ele>407.0</ele><time>2026-05-02T08:48:22.789Z</time></trkpt><trkpt lat="43.5025317" lon="12.2843"><ele>407.0</ele><time>2026-05-02T08:48:23.789Z</time></trkpt><trkpt lat="43.502615" lon="12.284415"><ele>407.0</ele><time>2026-05-02T08:48:24.789Z</time></trkpt><trkpt lat="43.5026983" lon="12.2845483"><ele>407.0</ele><time>2026-05-02T08:48:25.791Z</time></trkpt><trkpt lat="43.5027817" lon="12.284685"><ele>407.0</ele><time>2026-05-02T08:48:26.789Z</time></trkpt><trkpt lat="43.502875" lon="12.2848167"><ele>407.0</ele><time>2026-05-02T08:48:27.789Z</time></trkpt><trkpt lat="43.5029817" lon="12.2849467"><ele>407.0</ele><time>2026-05-02T08:48:28.788Z</time></trkpt><trkpt lat="43.5030933" lon="12.2850683"><ele>411.0</ele><time>2026-05-02T08:48:29.789Z</time></trkpt><trkpt lat="43.5032167" lon="12.2851833"><ele>415.0</ele><time>2026-05-02T08:48:30.788Z</time></trkpt><trkpt lat="43.5033517" lon="12.2852917"><ele>419.0</ele><time>2026-05-02T08:48:31.788Z</time></trkpt><trkpt lat="43.5034967" lon="12.2853867"><ele>419.0</ele><time>2026-05-02T08:48:32.788Z</time></trkpt><trkpt lat="43.5036533" lon="12.2854583"><ele>419.0</ele><time>2026-05-02T08:48:33.788Z</time></trkpt><trkpt lat="43.503815" lon="12.2855067"><ele>419.0</ele><time>2026-05-02T08:48:34.789Z</time></trkpt><trkpt lat="43.50398" lon="12.2855317"><ele>416.5</ele><time>2026-05-02T08:48:35.789Z</time></trkpt><trkpt lat="43.5041367" lon="12.2855483"><ele>414.0</ele><time>2026-05-02T08:48:36.788Z</time></trkpt><trkpt lat="43.5042833" lon="12.2855717"><ele>411.5</ele><time>2026-05-02T08:48:37.788Z</time></trkpt><trkpt lat="43.5044217" lon="12.2856"><ele>409.0</ele><time>2026-05-02T08:48:38.789Z</time></trkpt><trkpt lat="43.5045533" lon="12.2856267"><ele>411.0</ele><time>2026-05-02T08:48:39.788Z</time></trkpt><trkpt lat="43.5046817" lon="12.2856417"><ele>413.0</ele><time>2026-05-02T08:48:40.788Z</time></trkpt><trkpt lat="43.5048117" lon="12.285645"><ele>415.0</ele><time>2026-05-02T08:48:41.788Z</time></trkpt><trkpt lat="43.5049433" lon="12.285655"><ele>417.0</ele><time>2026-05-02T08:48:42.786Z</time></trkpt><trkpt lat="43.50508" lon="12.285685"><ele>417.0</ele><time>2026-05-02T08:48:43.786Z</time></trkpt><trkpt lat="43.505225" lon="12.2857367"><ele>417.0</ele><time>2026-05-02T08:48:44.786Z</time></trkpt><trkpt lat="43.5053833" lon="12.2858167"><ele>417.0</ele><time>2026-05-02T08:48:45.788Z</time></trkpt><trkpt lat="43.5055417" lon="12.2859267"><ele>420.66666666666663</ele><time>2026-05-02T08:48:46.787Z</time></trkpt><trkpt lat="43.5057017" lon="12.2860517"><ele>424.3333333333333</ele><time>2026-05-02T08:48:47.788Z</time></trkpt><trkpt lat="43.5058567" lon="12.28619"><ele>428.0</ele><time>2026-05-02T08:48:48.785Z</time></trkpt><trkpt lat="43.5060117" lon="12.2863517"><ele>426.0</ele><time>2026-05-02T08:48:49.788Z</time></trkpt><trkpt lat="43.5061717" lon="12.28652"><ele>424.0</ele><time>2026-05-02T08:48:50.788Z</time></trkpt><trkpt lat="43.5063267" lon="12.2866917"><ele>422.0</ele><time>2026-05-02T08:48:51.788Z</time></trkpt><trkpt lat="43.5064883" lon="12.2868633"><ele>422.0</ele><time>2026-05-02T08:48:52.788Z</time></trkpt><trkpt lat="43.5066517" lon="12.2870317"><ele>422.0</ele><time>2026-05-02T08:48:53.789Z</time></trkpt><trkpt lat="43.506805" lon="12.2871983"><ele>422.0</ele><time>2026-05-02T08:48:54.789Z</time></trkpt><trkpt lat="43.50695" lon="12.2873517"><ele>421.0</ele><time>2026-05-02T08:48:55.788Z</time></trkpt><trkpt lat="43.507075" lon="12.2874983"><ele>420.0</ele><time>2026-05-02T08:48:56.785Z</time></trkpt><trkpt lat="43.507195" lon="12.2876517"><ele>419.0</ele><time>2026-05-02T08:48:57.788Z</time></trkpt><trkpt lat="43.5073117" lon="12.2878333"><ele>419.0</ele><time>2026-05-02T08:48:58.789Z</time></trkpt><trkpt lat="43.50743" lon="12.2880283"><ele>419.0</ele><time>2026-05-02T08:48:59.789Z</time></trkpt><trkpt lat="43.50755" lon="12.2882233"><ele>419.0</ele><time>2026-05-02T08:49:00.788Z</time></trkpt><trkpt lat="43.5076633" lon="12.2884033"><ele>418.0</ele><time>2026-05-02T08:49:01.788Z</time></trkpt><trkpt lat="43.5077667" lon="12.2885683"><ele>417.0</ele><time>2026-05-02T08:49:02.788Z</time></trkpt><trkpt lat="43.5078633" lon="12.2887317"><ele>416.0</ele><time>2026-05-02T08:49:03.788Z</time></trkpt><trkpt lat="43.5079317" lon="12.2889067"><ele>419.66666666666663</ele><time>2026-05-02T08:49:04.788Z</time></trkpt><trkpt lat="43.507975" lon="12.2891117"><ele>423.33333333333337</ele><time>2026-05-02T08:49:05.789Z</time></trkpt><trkpt lat="43.5080067" lon="12.2893367"><ele>427.0</ele><time>2026-05-02T08:49:06.788Z</time></trkpt><trkpt lat="43.5080383" lon="12.28957"><ele>427.0</ele><time>2026-05-02T08:49:07.789Z</time></trkpt><trkpt lat="43.5080667" lon="12.2897967"><ele>427.0</ele><time>2026-05-02T08:49:08.788Z</time></trkpt><trkpt lat="43.5080917" lon="12.290005"><ele>427.0</ele><time>2026-05-02T08:49:09.788Z</time></trkpt><trkpt lat="43.508105" lon="12.2901917"><ele>427.0</ele><time>2026-05-02T08:49:10.791Z</time></trkpt><trkpt lat="43.5080983" lon="12.2903633"><ele>427.0</ele><time>2026-05-02T08:49:11.79Z</time></trkpt><trkpt lat="43.50806" lon="12.29054"><ele>427.0</ele><time>2026-05-02T08:49:12.789Z</time></trkpt><trkpt lat="43.50802" lon="12.2907333"><ele>427.0</ele><time>2026-05-02T08:49:13.788Z</time></trkpt><trkpt lat="43.5080033" lon="12.2909483"><ele>427.33333333333337</ele><time>2026-05-02T08:49:14.789Z</time></trkpt><trkpt lat="43.508015" lon="12.29118"><ele>427.66666666666663</ele><time>2026-05-02T08:49:15.789Z</time></trkpt><trkpt lat="43.5080317" lon="12.2914133"><ele>428.0</ele><time>2026-05-02T08:49:16.786Z</time></trkpt><trkpt lat="43.5080467" lon="12.2916333"><ele>428.0</ele><time>2026-05-02T08:49:17.786Z</time></trkpt><trkpt lat="43.5080583" lon="12.2918267"><ele>428.0</ele><time>2026-05-02T08:49:18.789Z</time></trkpt><trkpt lat="43.5080667" lon="12.29199"><ele>428.0</ele><time>2026-05-02T08:49:19.785Z</time></trkpt><trkpt lat="43.5080733" lon="12.2921317"><ele>428.0</ele><time>2026-05-02T08:49:20.788Z</time></trkpt><trkpt lat="43.5080817" lon="12.292275"><ele>429.0</ele><time>2026-05-02T08:49:21.788Z</time></trkpt><trkpt lat="43.508095" lon="12.2924133"><ele>429.99999999999994</ele><time>2026-05-02T08:49:22.787Z</time></trkpt><trkpt lat="43.5081167" lon="12.2925433"><ele>430.99999999999994</ele><time>2026-05-02T08:49:23.789Z</time></trkpt><trkpt lat="43.5081483" lon="12.2926717"><ele>432.0</ele><time>2026-05-02T08:49:24.786Z</time></trkpt><trkpt lat="43.5081933" lon="12.2928083"><ele>433.0</ele><time>2026-05-02T08:49:25.788Z</time></trkpt><trkpt lat="43.5082483" lon="12.29295"><ele>432.25</ele><time>2026-05-02T08:49:26.786Z</time></trkpt><trkpt lat="43.5083067" lon="12.2930967"><ele>431.5</ele><time>2026-05-02T08:49:27.786Z</time></trkpt><trkpt lat="43.508365" lon="12.29325"><ele>430.75</ele><time>2026-05-02T08:49:28.787Z</time></trkpt><trkpt lat="43.5084217" lon="12.2934133"><ele>430.0</ele><time>2026-05-02T08:49:29.787Z</time></trkpt><trkpt lat="43.508475" lon="12.2935833"><ele>430.0</ele><time>2026-05-02T08:49:30.786Z</time></trkpt><trkpt lat="43.5085417" lon="12.2937567"><ele>430.0</ele><time>2026-05-02T08:49:31.787Z</time></trkpt><trkpt lat="43.5086267" lon="12.2939183"><ele>430.0</ele><time>2026-05-02T08:49:32.787Z</time></trkpt><trkpt lat="43.508725" lon="12.2940667"><ele>430.0</ele><time>2026-05-02T08:49:33.787Z</time></trkpt><trkpt lat="43.508835" lon="12.2942083"><ele>433.5</ele><time>2026-05-02T08:49:34.787Z</time></trkpt><trkpt lat="43.5089433" lon="12.29435"><ele>437.0</ele><time>2026-05-02T08:49:35.786Z</time></trkpt><trkpt lat="43.5090467" lon="12.29449"><ele>440.5</ele><time>2026-05-02T08:49:36.786Z</time></trkpt><trkpt lat="43.5091367" lon="12.29462"><ele>444.0</ele><time>2026-05-02T08:49:37.789Z</time></trkpt><trkpt lat="43.5092067" lon="12.29473"><ele>441.79999999999995</ele><time>2026-05-02T08:49:38.789Z</time></trkpt><trkpt lat="43.5092533" lon="12.2948217"><ele>439.59999999999997</ele><time>2026-05-02T08:49:39.79Z</time></trkpt><trkpt lat="43.5092833" lon="12.2949233"><ele>437.4</ele><time>2026-05-02T08:49:40.789Z</time></trkpt><trkpt lat="43.5092917" lon="12.2950567"><ele>435.2</ele><time>2026-05-02T08:49:41.789Z</time></trkpt><trkpt lat="43.5092833" lon="12.295225"><ele>433.0</ele><time>2026-05-02T08:49:42.789Z</time></trkpt><trkpt lat="43.5092733" lon="12.295405"><ele>432.5</ele><time>2026-05-02T08:49:43.788Z</time></trkpt><trkpt lat="43.5092583" lon="12.2955883"><ele>432.0</ele><time>2026-05-02T08:49:44.788Z</time></trkpt><trkpt lat="43.5092283" lon="12.29577"><ele>431.5</ele><time>2026-05-02T08:49:45.788Z</time></trkpt><trkpt lat="43.50918" lon="12.2959433"><ele>431.0</ele><time>2026-05-02T08:49:46.788Z</time></trkpt><trkpt lat="43.5091217" lon="12.296095"><ele>431.0</ele><time>2026-05-02T08:49:47.789Z</time></trkpt><trkpt lat="43.5090567" lon="12.2962283"><ele>431.0</ele><time>2026-05-02T08:49:48.79Z</time></trkpt><trkpt lat="43.5089833" lon="12.2963467"><ele>431.0</ele><time>2026-05-02T08:49:49.787Z</time></trkpt><trkpt lat="43.508905" lon="12.2964267"><ele>431.0</ele><time>2026-05-02T08:49:50.79Z</time></trkpt><trkpt lat="43.5088033" lon="12.2964717"><ele>431.0</ele><time>2026-05-02T08:49:51.788Z</time></trkpt><trkpt lat="43.508685" lon="12.2965"><ele>433.0</ele><time>2026-05-02T08:49:52.789Z</time></trkpt><trkpt lat="43.5085683" lon="12.29655"><ele>435.0</ele><time>2026-05-02T08:49:53.789Z</time></trkpt><trkpt lat="43.5084633" lon="12.2966383"><ele>437.0</ele><time>2026-05-02T08:49:54.789Z</time></trkpt><trkpt lat="43.5083633" lon="12.2967517"><ele>439.0</ele><time>2026-05-02T08:49:55.788Z</time></trkpt><trkpt lat="43.5082583" lon="12.2968733"><ele>439.0</ele><time>2026-05-02T08:49:56.788Z</time></trkpt><trkpt lat="43.50815" lon="12.297"><ele>439.0</ele><time>2026-05-02T08:49:57.785Z</time></trkpt><trkpt lat="43.5080383" lon="12.2971167"><ele>439.0</ele><time>2026-05-02T08:49:58.786Z</time></trkpt><trkpt lat="43.50794" lon="12.2972317"><ele>439.0</ele><time>2026-05-02T08:49:59.786Z</time></trkpt><trkpt lat="43.5078633" lon="12.297345"><ele>441.2</ele><time>2026-05-02T08:50:00.786Z</time></trkpt><trkpt lat="43.5078033" lon="12.2974633"><ele>443.4</ele><time>2026-05-02T08:50:01.785Z</time></trkpt><trkpt lat="43.50777" lon="12.2976033"><ele>445.6</ele><time>2026-05-02T08:50:02.787Z</time></trkpt><trkpt lat="43.5077533" lon="12.2977567"><ele>447.8</ele><time>2026-05-02T08:50:03.786Z</time></trkpt><trkpt lat="43.5077467" lon="12.2979233"><ele>450.0</ele><time>2026-05-02T08:50:04.786Z</time></trkpt><trkpt lat="43.5077317" lon="12.2980833"><ele>451.25</ele><time>2026-05-02T08:50:05.786Z</time></trkpt><trkpt lat="43.5076967" lon="12.2982383"><ele>452.5</ele><time>2026-05-02T08:50:06.786Z</time></trkpt><trkpt lat="43.50764" lon="12.298385"><ele>453.75</ele><time>2026-05-02T08:50:07.787Z</time></trkpt><trkpt lat="43.507565" lon="12.29852"><ele>455.0</ele><time>2026-05-02T08:50:08.786Z</time></trkpt><trkpt lat="43.5074717" lon="12.2986517"><ele>455.0</ele><time>2026-05-02T08:50:09.789Z</time></trkpt><trkpt lat="43.5073867" lon="12.2987617"><ele>455.0</ele><time>2026-05-02T08:50:10.79Z</time></trkpt><trkpt lat="43.5073183" lon="12.29887"><ele>455.0</ele><time>2026-05-02T08:50:11.789Z</time></trkpt><trkpt lat="43.5072767" lon="12.2989733"><ele>455.0</ele><time>2026-05-02T08:50:12.785Z</time></trkpt><trkpt lat="43.507245" lon="12.2990817"><ele>455.0</ele><time>2026-05-02T08:50:13.788Z</time></trkpt><trkpt lat="43.5072417" lon="12.2992067"><ele>456.4</ele><time>2026-05-02T08:50:14.789Z</time></trkpt><trkpt lat="43.5072783" lon="12.29935"><ele>457.8</ele><time>2026-05-02T08:50:15.789Z</time></trkpt><trkpt lat="43.5073267" lon="12.2994733"><ele>459.20000000000005</ele><time>2026-05-02T08:50:16.789Z</time></trkpt><trkpt lat="43.5073867" lon="12.2995783"><ele>460.6</ele><time>2026-05-02T08:50:17.789Z</time></trkpt><trkpt lat="43.5074567" lon="12.2996533"><ele>462.0</ele><time>2026-05-02T08:50:18.789Z</time></trkpt><trkpt lat="43.5075283" lon="12.2996867"><ele>462.0</ele><time>2026-05-02T08:50:19.789Z</time></trkpt><trkpt lat="43.5076617" lon="12.2996333"><ele>462.0</ele><time>2026-05-02T08:50:21.789Z</time></trkpt><trkpt lat="43.507735" lon="12.2995167"><ele>462.0</ele><time>2026-05-02T08:50:22.787Z</time></trkpt><trkpt lat="43.5078067" lon="12.299405"><ele>462.0</ele><time>2026-05-02T08:50:23.788Z</time></trkpt><trkpt lat="43.5078733" lon="12.29932"><ele>463.6</ele><time>2026-05-02T08:50:24.789Z</time></trkpt><trkpt lat="43.5079483" lon="12.299275"><ele>465.20000000000005</ele><time>2026-05-02T08:50:25.789Z</time></trkpt><trkpt lat="43.5080583" lon="12.2993217"><ele>466.8</ele><time>2026-05-02T08:50:27.786Z</time></trkpt><trkpt lat="43.5081" lon="12.2994167"><ele>468.4</ele><time>2026-05-02T08:50:28.787Z</time></trkpt><trkpt lat="43.5081383" lon="12.2995333"><ele>470.0</ele><time>2026-05-02T08:50:29.787Z</time></trkpt><trkpt lat="43.5081867" lon="12.2996883"><ele>470.75</ele><time>2026-05-02T08:50:30.787Z</time></trkpt><trkpt lat="43.508255" lon="12.2998833"><ele>471.5</ele><time>2026-05-02T08:50:31.787Z</time></trkpt><trkpt lat="43.5083317" lon="12.30006"><ele>472.25</ele><time>2026-05-02T08:50:32.788Z</time></trkpt><trkpt lat="43.5084083" lon="12.3002233"><ele>473.0</ele><time>2026-05-02T08:50:33.787Z</time></trkpt><trkpt lat="43.5084733" lon="12.30037"><ele>473.0</ele><time>2026-05-02T08:50:34.787Z</time></trkpt><trkpt lat="43.508515" lon="12.30051"><ele>473.0</ele><time>2026-05-02T08:50:35.787Z</time></trkpt><trkpt lat="43.5085383" lon="12.30066"><ele>473.0</ele><time>2026-05-02T08:50:36.787Z</time></trkpt><trkpt lat="43.5085367" lon="12.3008217"><ele>473.0</ele><time>2026-05-02T08:50:37.786Z</time></trkpt><trkpt lat="43.508515" lon="12.300975"><ele>473.8333333333333</ele><time>2026-05-02T08:50:38.789Z</time></trkpt><trkpt lat="43.5084883" lon="12.3010983"><ele>474.66666666666663</ele><time>2026-05-02T08:50:39.789Z</time></trkpt><trkpt lat="43.5084483" lon="12.301195"><ele>475.5</ele><time>2026-05-02T08:50:40.789Z</time></trkpt><trkpt lat="43.5083967" lon="12.30125"><ele>476.33333333333337</ele><time>2026-05-02T08:50:41.789Z</time></trkpt><trkpt lat="43.5083333" lon="12.3012567"><ele>477.1666666666667</ele><time>2026-05-02T08:50:42.789Z</time></trkpt><trkpt lat="43.5082617" lon="12.301215"><ele>478.0</ele><time>2026-05-02T08:50:43.79Z</time></trkpt><trkpt lat="43.5081867" lon="12.3011833"><ele>478.0</ele><time>2026-05-02T08:50:44.79Z</time></trkpt><trkpt lat="43.5081083" lon="12.3011683"><ele>477.99999999999994</ele><time>2026-05-02T08:50:45.789Z</time></trkpt><trkpt lat="43.50804" lon="12.3012883"><ele>477.99999999999994</ele><time>2026-05-02T08:50:47.789Z</time></trkpt><trkpt lat="43.508075" lon="12.30147"><ele>478.0</ele><time>2026-05-02T08:50:49.789Z</time></trkpt><trkpt lat="43.5081233" lon="12.3015717"><ele>478.0</ele><time>2026-05-02T08:50:50.789Z</time></trkpt><trkpt lat="43.5081933" lon="12.3016983"><ele>479.79999999999995</ele><time>2026-05-02T08:50:51.789Z</time></trkpt><trkpt lat="43.5082533" lon="12.301835"><ele>481.59999999999997</ele><time>2026-05-02T08:50:52.791Z</time></trkpt><trkpt lat="43.5082917" lon="12.3019567"><ele>483.40000000000003</ele><time>2026-05-02T08:50:53.789Z</time></trkpt><trkpt lat="43.5083017" lon="12.3020717"><ele>485.20000000000005</ele><time>2026-05-02T08:50:54.789Z</time></trkpt><trkpt lat="43.5082833" lon="12.30218"><ele>487.0</ele><time>2026-05-02T08:50:55.789Z</time></trkpt><trkpt lat="43.50824" lon="12.302265"><ele>487.5</ele><time>2026-05-02T08:50:56.787Z</time></trkpt><trkpt lat="43.50816" lon="12.3023167"><ele>488.0</ele><time>2026-05-02T08:50:57.787Z</time></trkpt><trkpt lat="43.508045" lon="12.302335"><ele>488.5</ele><time>2026-05-02T08:50:58.786Z</time></trkpt><trkpt lat="43.5079117" lon="12.302335"><ele>489.0</ele><time>2026-05-02T08:50:59.788Z</time></trkpt><trkpt lat="43.5077933" lon="12.3023483"><ele>490.6</ele><time>2026-05-02T08:51:00.786Z</time></trkpt><trkpt lat="43.5076817" lon="12.3023667"><ele>492.2</ele><time>2026-05-02T08:51:01.786Z</time></trkpt><trkpt lat="43.5075717" lon="12.3023933"><ele>493.80000000000007</ele><time>2026-05-02T08:51:02.787Z</time></trkpt><trkpt lat="43.5074667" lon="12.302425"><ele>495.40000000000003</ele><time>2026-05-02T08:51:03.786Z</time></trkpt><trkpt lat="43.50736" lon="12.302465"><ele>497.0</ele><time>2026-05-02T08:51:04.786Z</time></trkpt><trkpt lat="43.5072567" lon="12.302505"><ele>497.0</ele><time>2026-05-02T08:51:05.786Z</time></trkpt><trkpt lat="43.50715" lon="12.3025333"><ele>497.0</ele><time>2026-05-02T08:51:06.787Z</time></trkpt><trkpt lat="43.5070383" lon="12.30254"><ele>497.0</ele><time>2026-05-02T08:51:07.786Z</time></trkpt><trkpt lat="43.50692" lon="12.3025167"><ele>497.0</ele><time>2026-05-02T08:51:08.79Z</time></trkpt><trkpt lat="43.506805" lon="12.3024633"><ele>496.40000000000003</ele><time>2026-05-02T08:51:09.789Z</time></trkpt><trkpt lat="43.5067167" lon="12.3023667"><ele>495.80000000000007</ele><time>2026-05-02T08:51:10.789Z</time></trkpt><trkpt lat="43.50664" lon="12.3022633"><ele>495.2</ele><time>2026-05-02T08:51:11.789Z</time></trkpt><trkpt lat="43.506565" lon="12.3021833"><ele>494.6</ele><time>2026-05-02T08:51:12.789Z</time></trkpt><trkpt lat="43.506485" lon="12.3021283"><ele>494.0</ele><time>2026-05-02T08:51:13.79Z</time></trkpt><trkpt lat="43.506405" lon="12.3021433"><ele>494.0</ele><time>2026-05-02T08:51:14.786Z</time></trkpt><trkpt lat="43.5063167" lon="12.3021983"><ele>494.0</ele><time>2026-05-02T08:51:15.789Z</time></trkpt><trkpt lat="43.50623" lon="12.3023133"><ele>494.0</ele><time>2026-05-02T08:51:16.789Z</time></trkpt><trkpt lat="43.5061517" lon="12.30244"><ele>494.0</ele><time>2026-05-02T08:51:17.79Z</time></trkpt><trkpt lat="43.5060733" lon="12.302565"><ele>497.3333333333333</ele><time>2026-05-02T08:51:18.789Z</time></trkpt><trkpt lat="43.5060017" lon="12.3026633"><ele>500.66666666666663</ele><time>2026-05-02T08:51:19.79Z</time></trkpt><trkpt lat="43.5059267" lon="12.302725"><ele>504.0</ele><time>2026-05-02T08:51:20.79Z</time></trkpt><trkpt lat="43.50585" lon="12.3027483"><ele>507.33333333333337</ele><time>2026-05-02T08:51:21.785Z</time></trkpt><trkpt lat="43.5057683" lon="12.30274"><ele>510.6666666666667</ele><time>2026-05-02T08:51:22.789Z</time></trkpt><trkpt lat="43.505685" lon="12.3026883"><ele>514.0</ele><time>2026-05-02T08:51:23.789Z</time></trkpt><trkpt lat="43.5055983" lon="12.302615"><ele>514.0</ele><time>2026-05-02T08:51:24.789Z</time></trkpt><trkpt lat="43.5054917" lon="12.3025167"><ele>514.0</ele><time>2026-05-02T08:51:25.789Z</time></trkpt><trkpt lat="43.50538" lon="12.3024383"><ele>514.0</ele><time>2026-05-02T08:51:26.786Z</time></trkpt><trkpt lat="43.5052783" lon="12.302415"><ele>514.0</ele><time>2026-05-02T08:51:27.787Z</time></trkpt><trkpt lat="43.505175" lon="12.3024467"><ele>516.25</ele><time>2026-05-02T08:51:28.79Z</time></trkpt><trkpt lat="43.5050717" lon="12.3025067"><ele>518.5</ele><time>2026-05-02T08:51:29.787Z</time></trkpt><trkpt lat="43.5049567" lon="12.302575"><ele>520.75</ele><time>2026-05-02T08:51:30.788Z</time></trkpt><trkpt lat="43.5048383" lon="12.302645"><ele>523.0</ele><time>2026-05-02T08:51:31.787Z</time></trkpt><trkpt lat="43.5047217" lon="12.3027117"><ele>523.0</ele><time>2026-05-02T08:51:32.788Z</time></trkpt><trkpt lat="43.504615" lon="12.3027717"><ele>523.0</ele><time>2026-05-02T08:51:33.789Z</time></trkpt><trkpt lat="43.5045217" lon="12.3028183"><ele>523.0</ele><time>2026-05-02T08:51:34.79Z</time></trkpt><trkpt lat="43.5044367" lon="12.3028383"><ele>523.0</ele><time>2026-05-02T08:51:35.789Z</time></trkpt><trkpt lat="43.5043467" lon="12.3028317"><ele>523.0</ele><time>2026-05-02T08:51:36.791Z</time></trkpt><trkpt lat="43.5042733" lon="12.3027783"><ele>522.8</ele><time>2026-05-02T08:51:37.789Z</time></trkpt><trkpt lat="43.5042133" lon="12.3026917"><ele>522.5999999999999</ele><time>2026-05-02T08:51:38.79Z</time></trkpt><trkpt lat="43.50416" lon="12.3025817"><ele>522.4000000000001</ele><time>2026-05-02T08:51:39.79Z</time></trkpt><trkpt lat="43.504115" lon="12.302445"><ele>522.2</ele><time>2026-05-02T08:51:40.79Z</time></trkpt><trkpt lat="43.504065" lon="12.3023167"><ele>522.0</ele><time>2026-05-02T08:51:41.789Z</time></trkpt><trkpt lat="43.5040167" lon="12.302205"><ele>522.0</ele><time>2026-05-02T08:51:42.787Z</time></trkpt><trkpt lat="43.503965" lon="12.3021167"><ele>522.0</ele><time>2026-05-02T08:51:43.789Z</time></trkpt><trkpt lat="43.5039117" lon="12.30206"><ele>522.0</ele><time>2026-05-02T08:51:44.789Z</time></trkpt><trkpt lat="43.5038117" lon="12.3020833"><ele>522.0</ele><time>2026-05-02T08:51:46.79Z</time></trkpt><trkpt lat="43.503765" lon="12.3022017"><ele>522.0</ele><time>2026-05-02T08:51:48.789Z</time></trkpt><trkpt lat="43.5037683" lon="12.3023033"><ele>522.0</ele><time>2026-05-02T08:51:49.789Z</time></trkpt><trkpt lat="43.50377" lon="12.302415"><ele>524.0</ele><time>2026-05-02T08:51:50.789Z</time></trkpt><trkpt lat="43.5037633" lon="12.3025467"><ele>526.0</ele><time>2026-05-02T08:51:51.789Z</time></trkpt><trkpt lat="43.5037483" lon="12.30268"><ele>528.0</ele><time>2026-05-02T08:51:52.789Z</time></trkpt><trkpt lat="43.5037267" lon="12.3028067"><ele>530.0</ele><time>2026-05-02T08:51:53.789Z</time></trkpt><trkpt lat="43.5036917" lon="12.3029367"><ele>532.0</ele><time>2026-05-02T08:51:54.786Z</time></trkpt><trkpt lat="43.5036433" lon="12.3030683"><ele>536.0</ele><time>2026-05-02T08:51:55.79Z</time></trkpt><trkpt lat="43.503585" lon="12.3031967"><ele>540.0</ele><time>2026-05-02T08:51:56.787Z</time></trkpt><trkpt lat="43.5035083" lon="12.303345"><ele>544.0</ele><time>2026-05-02T08:51:57.787Z</time></trkpt><trkpt lat="43.503435" lon="12.303485"><ele>548.0</ele><time>2026-05-02T08:51:58.788Z</time></trkpt><trkpt lat="43.5033617" lon="12.30362"><ele>548.0</ele><time>2026-05-02T08:51:59.788Z</time></trkpt><trkpt lat="43.5032933" lon="12.3037533"><ele>548.0</ele><time>2026-05-02T08:52:00.787Z</time></trkpt><trkpt lat="43.50324" lon="12.3038783"><ele>548.0</ele><time>2026-05-02T08:52:01.787Z</time></trkpt><trkpt lat="43.5032083" lon="12.3039833"><ele>548.0</ele><time>2026-05-02T08:52:02.79Z</time></trkpt><trkpt lat="43.5031767" lon="12.304085"><ele>548.0</ele><time>2026-05-02T08:52:03.789Z</time></trkpt><trkpt lat="43.5031733" lon="12.3041717"><ele>548.0</ele><time>2026-05-02T08:52:04.789Z</time></trkpt><trkpt lat="43.5032533" lon="12.304285"><ele>546.1999999999999</ele><time>2026-05-02T08:52:06.789Z</time></trkpt><trkpt lat="43.503325" lon="12.3043417"><ele>544.4</ele><time>2026-05-02T08:52:07.788Z</time></trkpt><trkpt lat="43.5034" lon="12.3044067"><ele>542.5999999999999</ele><time>2026-05-02T08:52:08.788Z</time></trkpt><trkpt lat="43.5034783" lon="12.3044783"><ele>540.8</ele><time>2026-05-02T08:52:09.789Z</time></trkpt><trkpt lat="43.503555" lon="12.3045617"><ele>539.0</ele><time>2026-05-02T08:52:10.788Z</time></trkpt><trkpt lat="43.5036283" lon="12.3046717"><ele>539.25</ele><time>2026-05-02T08:52:11.788Z</time></trkpt><trkpt lat="43.503695" lon="12.3047983"><ele>539.5</ele><time>2026-05-02T08:52:12.788Z</time></trkpt><trkpt lat="43.5037517" lon="12.3049517"><ele>539.75</ele><time>2026-05-02T08:52:13.79Z</time></trkpt><trkpt lat="43.5037983" lon="12.3051283"><ele>540.0</ele><time>2026-05-02T08:52:14.788Z</time></trkpt><trkpt lat="43.503835" lon="12.3053267"><ele>540.6666666666666</ele><time>2026-05-02T08:52:15.788Z</time></trkpt><trkpt lat="43.5038667" lon="12.30553"><ele>541.3333333333333</ele><time>2026-05-02T08:52:16.789Z</time></trkpt><trkpt lat="43.503895" lon="12.3057383"><ele>542.0</ele><time>2026-05-02T08:52:17.785Z</time></trkpt><trkpt lat="43.503925" lon="12.3059567"><ele>542.0</ele><time>2026-05-02T08:52:18.788Z</time></trkpt><trkpt lat="43.5039483" lon="12.3061733"><ele>542.0</ele><time>2026-05-02T08:52:19.79Z</time></trkpt><trkpt lat="43.50397" lon="12.3063933"><ele>542.0</ele><time>2026-05-02T08:52:20.788Z</time></trkpt><trkpt lat="43.5039833" lon="12.3066117"><ele>543.25</ele><time>2026-05-02T08:52:21.789Z</time></trkpt><trkpt lat="43.503995" lon="12.3068267"><ele>544.5</ele><time>2026-05-02T08:52:22.789Z</time></trkpt><trkpt lat="43.5040133" lon="12.3070283"><ele>545.75</ele><time>2026-05-02T08:52:23.788Z</time></trkpt><trkpt lat="43.5040467" lon="12.3072183"><ele>547.0</ele><time>2026-05-02T08:52:24.789Z</time></trkpt><trkpt lat="43.5041033" lon="12.307395"><ele>548.6666666666667</ele><time>2026-05-02T08:52:25.789Z</time></trkpt><trkpt lat="43.5041917" lon="12.3075583"><ele>550.3333333333334</ele><time>2026-05-02T08:52:26.785Z</time></trkpt><trkpt lat="43.5043017" lon="12.30772"><ele>552.0</ele><time>2026-05-02T08:52:27.788Z</time></trkpt><trkpt lat="43.5044317" lon="12.3078833"><ele>552.0</ele><time>2026-05-02T08:52:28.789Z</time></trkpt><trkpt lat="43.5045733" lon="12.3080517"><ele>552.0</ele><time>2026-05-02T08:52:29.788Z</time></trkpt><trkpt lat="43.504725" lon="12.3082317"><ele>552.0</ele><time>2026-05-02T08:52:30.789Z</time></trkpt><trkpt lat="43.504885" lon="12.308415"><ele>552.3333333333334</ele><time>2026-05-02T08:52:31.788Z</time></trkpt><trkpt lat="43.5050467" lon="12.3085983"><ele>552.6666666666667</ele><time>2026-05-02T08:52:32.789Z</time></trkpt><trkpt lat="43.5052" lon="12.3087867"><ele>553.0</ele><time>2026-05-02T08:52:33.789Z</time></trkpt><trkpt lat="43.50535" lon="12.3089733"><ele>555.6666666666667</ele><time>2026-05-02T08:52:34.79Z</time></trkpt><trkpt lat="43.5054733" lon="12.309165"><ele>558.3333333333334</ele><time>2026-05-02T08:52:35.788Z</time></trkpt><trkpt lat="43.5055633" lon="12.3093633"><ele>561.0</ele><time>2026-05-02T08:52:36.788Z</time></trkpt><trkpt lat="43.5056083" lon="12.3095783"><ele>564.0</ele><time>2026-05-02T08:52:37.785Z</time></trkpt><trkpt lat="43.5056133" lon="12.309815"><ele>567.0</ele><time>2026-05-02T08:52:38.786Z</time></trkpt><trkpt lat="43.505615" lon="12.3100583"><ele>570.0</ele><time>2026-05-02T08:52:39.786Z</time></trkpt><trkpt lat="43.5056517" lon="12.3102967"><ele>570.0</ele><time>2026-05-02T08:52:40.786Z</time></trkpt><trkpt lat="43.50573" lon="12.3105217"><ele>570.0</ele><time>2026-05-02T08:52:41.787Z</time></trkpt><trkpt lat="43.5058383" lon="12.31073"><ele>570.0</ele><time>2026-05-02T08:52:42.787Z</time></trkpt><trkpt lat="43.5059467" lon="12.3109317"><ele>569.6666666666666</ele><time>2026-05-02T08:52:43.788Z</time></trkpt><trkpt lat="43.506045" lon="12.31112"><ele>569.3333333333333</ele><time>2026-05-02T08:52:44.788Z</time></trkpt><trkpt lat="43.5061267" lon="12.3113067"><ele>569.0</ele><time>2026-05-02T08:52:45.786Z</time></trkpt><trkpt lat="43.5061917" lon="12.311495"><ele>569.0</ele><time>2026-05-02T08:52:46.786Z</time></trkpt><trkpt lat="43.506235" lon="12.3116983"><ele>569.0</ele><time>2026-05-02T08:52:47.786Z</time></trkpt><trkpt lat="43.50628" lon="12.311895"><ele>569.0</ele><time>2026-05-02T08:52:48.788Z</time></trkpt><trkpt lat="43.5063383" lon="12.3120933"><ele>571.0</ele><time>2026-05-02T08:52:49.786Z</time></trkpt><trkpt lat="43.5064283" lon="12.31229"><ele>573.0</ele><time>2026-05-02T08:52:50.787Z</time></trkpt><trkpt lat="43.506545" lon="12.3124933"><ele>575.0</ele><time>2026-05-02T08:52:51.787Z</time></trkpt><trkpt lat="43.5066683" lon="12.312725"><ele>575.0</ele><time>2026-05-02T08:52:52.787Z</time></trkpt><trkpt lat="43.506795" lon="12.3129667"><ele>575.0</ele><time>2026-05-02T08:52:53.788Z</time></trkpt><trkpt lat="43.5069133" lon="12.313205"><ele>575.0</ele><time>2026-05-02T08:52:54.787Z</time></trkpt><trkpt lat="43.5070133" lon="12.3134333"><ele>573.0</ele><time>2026-05-02T08:52:55.786Z</time></trkpt><trkpt lat="43.50708" lon="12.31369"><ele>571.0</ele><time>2026-05-02T08:52:56.789Z</time></trkpt><trkpt lat="43.5071267" lon="12.3139683"><ele>569.0</ele><time>2026-05-02T08:52:57.789Z</time></trkpt><trkpt lat="43.50715" lon="12.3142733"><ele>576.0</ele><time>2026-05-02T08:52:58.788Z</time></trkpt><trkpt lat="43.5071567" lon="12.314595"><ele>583.0</ele><time>2026-05-02T08:52:59.788Z</time></trkpt><trkpt lat="43.5071617" lon="12.3149117"><ele>584.6666666666667</ele><time>2026-05-02T08:53:00.789Z</time></trkpt><trkpt lat="43.5071533" lon="12.315205"><ele>586.3333333333334</ele><time>2026-05-02T08:53:01.788Z</time></trkpt><trkpt lat="43.5071317" lon="12.3154733"><ele>588.0</ele><time>2026-05-02T08:53:02.788Z</time></trkpt><trkpt lat="43.50711" lon="12.3157183"><ele>588.6666666666666</ele><time>2026-05-02T08:53:03.788Z</time></trkpt><trkpt lat="43.5071083" lon="12.3159333"><ele>589.3333333333333</ele><time>2026-05-02T08:53:04.788Z</time></trkpt><trkpt lat="43.5071483" lon="12.31613"><ele>590.0</ele><time>2026-05-02T08:53:05.788Z</time></trkpt><trkpt lat="43.5072317" lon="12.316305"><ele>590.6666666666666</ele><time>2026-05-02T08:53:06.785Z</time></trkpt><trkpt lat="43.5073333" lon="12.3164917"><ele>591.3333333333334</ele><time>2026-05-02T08:53:07.789Z</time></trkpt><trkpt lat="43.5074267" lon="12.316715"><ele>592.0</ele><time>2026-05-02T08:53:08.79Z</time></trkpt><trkpt lat="43.5074917" lon="12.3169533"><ele>592.0</ele><time>2026-05-02T08:53:09.789Z</time></trkpt><trkpt lat="43.5075167" lon="12.3171733"><ele>592.0</ele><time>2026-05-02T08:53:10.789Z</time></trkpt><trkpt lat="43.5075" lon="12.317365"><ele>592.0</ele><time>2026-05-02T08:53:11.788Z</time></trkpt><trkpt lat="43.507445" lon="12.3175233"><ele>592.0</ele><time>2026-05-02T08:53:12.788Z</time></trkpt><trkpt lat="43.5073467" lon="12.317645"><ele>592.0</ele><time>2026-05-02T08:53:13.788Z</time></trkpt><trkpt lat="43.5072167" lon="12.31771"><ele>592.0</ele><time>2026-05-02T08:53:14.788Z</time></trkpt><trkpt lat="43.5070583" lon="12.3177167"><ele>592.0</ele><time>2026-05-02T08:53:15.788Z</time></trkpt><trkpt lat="43.5068967" lon="12.3176483"><ele>592.0</ele><time>2026-05-02T08:53:16.788Z</time></trkpt><trkpt lat="43.5067367" lon="12.3175533"><ele>592.0</ele><time>2026-05-02T08:53:17.789Z</time></trkpt><trkpt lat="43.50657" lon="12.3174783"><ele>592.0</ele><time>2026-05-02T08:53:18.789Z</time></trkpt><trkpt lat="43.5063983" lon="12.3174783"><ele>592.0</ele><time>2026-05-02T08:53:19.788Z</time></trkpt><trkpt lat="43.50624" lon="12.3175367"><ele>592.0</ele><time>2026-05-02T08:53:20.789Z</time></trkpt><trkpt lat="43.5061067" lon="12.31766"><ele>592.0</ele><time>2026-05-02T08:53:21.789Z</time></trkpt><trkpt lat="43.5059983" lon="12.3178283"><ele>592.0</ele><time>2026-05-02T08:53:22.79Z</time></trkpt><trkpt lat="43.5059267" lon="12.31802"><ele>592.0</ele><time>2026-05-02T08:53:23.788Z</time></trkpt><trkpt lat="43.50586" lon="12.31819"><ele>592.0</ele><time>2026-05-02T08:53:24.789Z</time></trkpt><trkpt lat="43.5057767" lon="12.3183167"><ele>592.0</ele><time>2026-05-02T08:53:25.788Z</time></trkpt><trkpt lat="43.5056683" lon="12.3183783"><ele>596.6666666666667</ele><time>2026-05-02T08:53:26.788Z</time></trkpt><trkpt lat="43.5055233" lon="12.3183517"><ele>601.3333333333334</ele><time>2026-05-02T08:53:27.789Z</time></trkpt><trkpt lat="43.50537" lon="12.3183133"><ele>606.0</ele><time>2026-05-02T08:53:28.788Z</time></trkpt><trkpt lat="43.505215" lon="12.3182817"><ele>606.0</ele><time>2026-05-02T08:53:29.788Z</time></trkpt><trkpt lat="43.5050733" lon="12.3182933"><ele>606.0</ele><time>2026-05-02T08:53:30.788Z</time></trkpt><trkpt lat="43.50496" lon="12.318365"><ele>606.0</ele><time>2026-05-02T08:53:31.789Z</time></trkpt><trkpt lat="43.5048733" lon="12.3184867"><ele>606.0</ele><time>2026-05-02T08:53:32.789Z</time></trkpt><trkpt lat="43.5048133" lon="12.3186533"><ele>606.0</ele><time>2026-05-02T08:53:33.789Z</time></trkpt><trkpt lat="43.50478" lon="12.3188467"><ele>606.0</ele><time>2026-05-02T08:53:34.788Z</time></trkpt><trkpt lat="43.5047633" lon="12.3190567"><ele>606.0</ele><time>2026-05-02T08:53:35.789Z</time></trkpt><trkpt lat="43.504755" lon="12.319275"><ele>608.6666666666666</ele><time>2026-05-02T08:53:36.788Z</time></trkpt><trkpt lat="43.5047583" lon="12.3194933"><ele>611.3333333333333</ele><time>2026-05-02T08:53:37.789Z</time></trkpt><trkpt lat="43.5047867" lon="12.3196983"><ele>614.0</ele><time>2026-05-02T08:53:38.789Z</time></trkpt><trkpt lat="43.50485" lon="12.3198783"><ele>614.25</ele><time>2026-05-02T08:53:39.789Z</time></trkpt><trkpt lat="43.50493" lon="12.3200433"><ele>614.5</ele><time>2026-05-02T08:53:40.79Z</time></trkpt><trkpt lat="43.5050033" lon="12.3202067"><ele>614.75</ele><time>2026-05-02T08:53:41.789Z</time></trkpt><trkpt lat="43.5050583" lon="12.3203733"><ele>615.0</ele><time>2026-05-02T08:53:42.789Z</time></trkpt><trkpt lat="43.5050917" lon="12.3205367"><ele>615.2</ele><time>2026-05-02T08:53:43.789Z</time></trkpt><trkpt lat="43.5051" lon="12.3206867"><ele>615.4</ele><time>2026-05-02T08:53:44.789Z</time></trkpt><trkpt lat="43.505085" lon="12.3208017"><ele>615.6</ele><time>2026-05-02T08:53:45.789Z</time></trkpt><trkpt lat="43.5050533" lon="12.32089"><ele>615.8</ele><time>2026-05-02T08:53:46.789Z</time></trkpt><trkpt lat="43.50495" lon="12.32098"><ele>616.0</ele><time>2026-05-02T08:53:48.789Z</time></trkpt><trkpt lat="43.5048683" lon="12.32099"><ele>616.0</ele><time>2026-05-02T08:53:49.789Z</time></trkpt><trkpt lat="43.50476" lon="12.3209733"><ele>616.0</ele><time>2026-05-02T08:53:50.789Z</time></trkpt><trkpt lat="43.5046433" lon="12.3209817"><ele>616.0</ele><time>2026-05-02T08:53:51.789Z</time></trkpt><trkpt lat="43.5045317" lon="12.3209933"><ele>616.0</ele><time>2026-05-02T08:53:52.789Z</time></trkpt><trkpt lat="43.5044267" lon="12.3209983"><ele>616.0</ele><time>2026-05-02T08:53:53.789Z</time></trkpt><trkpt lat="43.50433" lon="12.3209867"><ele>614.2</ele><time>2026-05-02T08:53:54.789Z</time></trkpt><trkpt lat="43.5042367" lon="12.3209533"><ele>612.4000000000001</ele><time>2026-05-02T08:53:55.789Z</time></trkpt><trkpt lat="43.50414" lon="12.3209067"><ele>610.6</ele><time>2026-05-02T08:53:56.789Z</time></trkpt><trkpt lat="43.5040333" lon="12.32085"><ele>608.8000000000001</ele><time>2026-05-02T08:53:57.789Z</time></trkpt><trkpt lat="43.5039217" lon="12.3207917"><ele>607.0</ele><time>2026-05-02T08:53:58.789Z</time></trkpt><trkpt lat="43.5038067" lon="12.3207417"><ele>606.0</ele><time>2026-05-02T08:53:59.789Z</time></trkpt><trkpt lat="43.503695" lon="12.3206983"><ele>605.0</ele><time>2026-05-02T08:54:00.79Z</time></trkpt><trkpt lat="43.5035867" lon="12.32066"><ele>604.0</ele><time>2026-05-02T08:54:01.789Z</time></trkpt><trkpt lat="43.5034717" lon="12.320625"><ele>603.0</ele><time>2026-05-02T08:54:02.789Z</time></trkpt><trkpt lat="43.50335" lon="12.3205883"><ele>604.0</ele><time>2026-05-02T08:54:03.79Z</time></trkpt><trkpt lat="43.5032217" lon="12.3205433"><ele>605.0</ele><time>2026-05-02T08:54:04.79Z</time></trkpt><trkpt lat="43.5030817" lon="12.320485"><ele>606.0</ele><time>2026-05-02T08:54:05.789Z</time></trkpt><trkpt lat="43.5029417" lon="12.320415"><ele>607.0</ele><time>2026-05-02T08:54:06.789Z</time></trkpt><trkpt lat="43.50281" lon="12.3203283"><ele>607.0</ele><time>2026-05-02T08:54:07.789Z</time></trkpt><trkpt lat="43.5027" lon="12.3202217"><ele>607.0</ele><time>2026-05-02T08:54:08.789Z</time></trkpt><trkpt lat="43.5026167" lon="12.3201"><ele>607.0</ele><time>2026-05-02T08:54:09.789Z</time></trkpt><trkpt lat="43.5025667" lon="12.3199583"><ele>607.0</ele><time>2026-05-02T08:54:10.79Z</time></trkpt><trkpt lat="43.5025183" lon="12.3198183"><ele>607.8000000000001</ele><time>2026-05-02T08:54:11.79Z</time></trkpt><trkpt lat="43.5024533" lon="12.3197067"><ele>608.6</ele><time>2026-05-02T08:54:12.789Z</time></trkpt><trkpt lat="43.50236" lon="12.3196317"><ele>609.4000000000001</ele><time>2026-05-02T08:54:13.789Z</time></trkpt><trkpt lat="43.5022517" lon="12.3195917"><ele>610.2</ele><time>2026-05-02T08:54:14.789Z</time></trkpt><trkpt lat="43.5021333" lon="12.3195683"><ele>611.0</ele><time>2026-05-02T08:54:15.789Z</time></trkpt><trkpt lat="43.502025" lon="12.31954"><ele>611.0</ele><time>2026-05-02T08:54:16.788Z</time></trkpt><trkpt lat="43.501925" lon="12.3194967"><ele>611.0</ele><time>2026-05-02T08:54:17.789Z</time></trkpt><trkpt lat="43.5018517" lon="12.31943"><ele>611.0</ele><time>2026-05-02T08:54:18.785Z</time></trkpt><trkpt lat="43.5018083" lon="12.3193333"><ele>611.0</ele><time>2026-05-02T08:54:19.789Z</time></trkpt><trkpt lat="43.5017967" lon="12.3192083"><ele>611.0</ele><time>2026-05-02T08:54:20.79Z</time></trkpt><trkpt lat="43.5018067" lon="12.31905"><ele>610.0</ele><time>2026-05-02T08:54:21.788Z</time></trkpt><trkpt lat="43.5018317" lon="12.318885"><ele>609.0</ele><time>2026-05-02T08:54:22.787Z</time></trkpt><trkpt lat="43.5019017" lon="12.3187"><ele>608.0</ele><time>2026-05-02T08:54:23.786Z</time></trkpt><trkpt lat="43.5019617" lon="12.318525"><ele>607.0</ele><time>2026-05-02T08:54:24.789Z</time></trkpt><trkpt lat="43.5019967" lon="12.3183733"><ele>607.0</ele><time>2026-05-02T08:54:25.788Z</time></trkpt><trkpt lat="43.5020033" lon="12.31823"><ele>607.0</ele><time>2026-05-02T08:54:26.786Z</time></trkpt><trkpt lat="43.50197" lon="12.318095"><ele>607.0</ele><time>2026-05-02T08:54:27.79Z</time></trkpt><trkpt lat="43.5018967" lon="12.3179567"><ele>607.0</ele><time>2026-05-02T08:54:28.789Z</time></trkpt><trkpt lat="43.501795" lon="12.3178067"><ele>601.3333333333334</ele><time>2026-05-02T08:54:29.789Z</time></trkpt><trkpt lat="43.5016733" lon="12.3176533"><ele>595.6666666666666</ele><time>2026-05-02T08:54:30.789Z</time></trkpt><trkpt lat="43.5015517" lon="12.317505"><ele>590.0</ele><time>2026-05-02T08:54:31.788Z</time></trkpt><trkpt lat="43.5014283" lon="12.3173567"><ele>590.6666666666666</ele><time>2026-05-02T08:54:32.79Z</time></trkpt><trkpt lat="43.5013067" lon="12.3172183"><ele>591.3333333333334</ele><time>2026-05-02T08:54:33.785Z</time></trkpt><trkpt lat="43.5011933" lon="12.3170817"><ele>592.0</ele><time>2026-05-02T08:54:34.786Z</time></trkpt><trkpt lat="43.50109" lon="12.3169317"><ele>592.0</ele><time>2026-05-02T08:54:35.788Z</time></trkpt><trkpt lat="43.500995" lon="12.3167617"><ele>592.0</ele><time>2026-05-02T08:54:36.785Z</time></trkpt><trkpt lat="43.5009033" lon="12.3165867"><ele>592.0</ele><time>2026-05-02T08:54:37.786Z</time></trkpt><trkpt lat="43.5008083" lon="12.3164233"><ele>588.25</ele><time>2026-05-02T08:54:38.786Z</time></trkpt><trkpt lat="43.5007083" lon="12.3162783"><ele>584.5</ele><time>2026-05-02T08:54:39.786Z</time></trkpt><trkpt lat="43.5005883" lon="12.31616"><ele>580.75</ele><time>2026-05-02T08:54:40.786Z</time></trkpt><trkpt lat="43.5004733" lon="12.3160683"><ele>577.0</ele><time>2026-05-02T08:54:41.789Z</time></trkpt><trkpt lat="43.5003517" lon="12.3160217"><ele>577.0</ele><time>2026-05-02T08:54:42.789Z</time></trkpt><trkpt lat="43.5002267" lon="12.3159933"><ele>577.0</ele><time>2026-05-02T08:54:43.789Z</time></trkpt><trkpt lat="43.5001033" lon="12.315975"><ele>577.0</ele><time>2026-05-02T08:54:44.789Z</time></trkpt><trkpt lat="43.4999833" lon="12.3159533"><ele>577.0</ele><time>2026-05-02T08:54:45.785Z</time></trkpt><trkpt lat="43.4998633" lon="12.3159267"><ele>577.0</ele><time>2026-05-02T08:54:46.786Z</time></trkpt><trkpt lat="43.4997483" lon="12.3158983"><ele>577.0</ele><time>2026-05-02T08:54:47.787Z</time></trkpt><trkpt lat="43.499635" lon="12.3158683"><ele>577.0</ele><time>2026-05-02T08:54:48.787Z</time></trkpt><trkpt lat="43.4995183" lon="12.3158317"><ele>577.0</ele><time>2026-05-02T08:54:49.786Z</time></trkpt><trkpt lat="43.4993933" lon="12.31579"><ele>578.0</ele><time>2026-05-02T08:54:50.786Z</time></trkpt><trkpt lat="43.499255" lon="12.3157433"><ele>579.0</ele><time>2026-05-02T08:54:51.787Z</time></trkpt><trkpt lat="43.4990967" lon="12.3156933"><ele>580.0</ele><time>2026-05-02T08:54:52.787Z</time></trkpt><trkpt lat="43.4989283" lon="12.315645"><ele>580.0</ele><time>2026-05-02T08:54:53.789Z</time></trkpt><trkpt lat="43.4987567" lon="12.3155983"><ele>580.0</ele><time>2026-05-02T08:54:54.79Z</time></trkpt><trkpt lat="43.498595" lon="12.315555"><ele>580.0</ele><time>2026-05-02T08:54:55.789Z</time></trkpt><trkpt lat="43.4984367" lon="12.3155217"><ele>576.25</ele><time>2026-05-02T08:54:56.79Z</time></trkpt><trkpt lat="43.4982867" lon="12.3155017"><ele>572.5</ele><time>2026-05-02T08:54:57.789Z</time></trkpt><trkpt lat="43.498145" lon="12.3155"><ele>568.75</ele><time>2026-05-02T08:54:58.789Z</time></trkpt><trkpt lat="43.4980067" lon="12.3155167"><ele>565.0</ele><time>2026-05-02T08:54:59.789Z</time></trkpt><trkpt lat="43.4978733" lon="12.3155267"><ele>564.25</ele><time>2026-05-02T08:55:00.785Z</time></trkpt><trkpt lat="43.497745" lon="12.3155233"><ele>563.5</ele><time>2026-05-02T08:55:01.786Z</time></trkpt><trkpt lat="43.4976333" lon="12.315495"><ele>562.75</ele><time>2026-05-02T08:55:02.789Z</time></trkpt><trkpt lat="43.49752" lon="12.315425"><ele>562.0</ele><time>2026-05-02T08:55:03.786Z</time></trkpt><trkpt lat="43.4974083" lon="12.31532"><ele>562.0</ele><time>2026-05-02T08:55:04.791Z</time></trkpt><trkpt lat="43.4972817" lon="12.3152"><ele>562.0</ele><time>2026-05-02T08:55:05.79Z</time></trkpt><trkpt lat="43.4971467" lon="12.3150817"><ele>562.0</ele><time>2026-05-02T08:55:06.786Z</time></trkpt><trkpt lat="43.497" lon="12.3149783"><ele>559.3333333333334</ele><time>2026-05-02T08:55:07.789Z</time></trkpt><trkpt lat="43.4968467" lon="12.314885"><ele>556.6666666666666</ele><time>2026-05-02T08:55:08.786Z</time></trkpt><trkpt lat="43.49668" lon="12.3148017"><ele>554.0</ele><time>2026-05-02T08:55:09.789Z</time></trkpt><trkpt lat="43.496505" lon="12.3147217"><ele>554.0</ele><time>2026-05-02T08:55:10.789Z</time></trkpt><trkpt lat="43.4963233" lon="12.3146433"><ele>554.0</ele><time>2026-05-02T08:55:11.789Z</time></trkpt><trkpt lat="43.4961483" lon="12.3145667"><ele>554.0</ele><time>2026-05-02T08:55:12.785Z</time></trkpt><trkpt lat="43.4959833" lon="12.314485"><ele>555.0</ele><time>2026-05-02T08:55:13.786Z</time></trkpt><trkpt lat="43.4958283" lon="12.3143917"><ele>556.0</ele><time>2026-05-02T08:55:14.786Z</time></trkpt><trkpt lat="43.4956717" lon="12.3142867"><ele>557.0</ele><time>2026-05-02T08:55:15.787Z</time></trkpt><trkpt lat="43.4955217" lon="12.31417"><ele>557.3333333333333</ele><time>2026-05-02T08:55:16.786Z</time></trkpt><trkpt lat="43.4953767" lon="12.31404"><ele>557.6666666666666</ele><time>2026-05-02T08:55:17.789Z</time></trkpt><trkpt lat="43.4952283" lon="12.3139067"><ele>558.0</ele><time>2026-05-02T08:55:18.788Z</time></trkpt><trkpt lat="43.4950683" lon="12.3137617"><ele>556.0</ele><time>2026-05-02T08:55:19.789Z</time></trkpt><trkpt lat="43.494905" lon="12.3136033"><ele>554.0</ele><time>2026-05-02T08:55:20.789Z</time></trkpt><trkpt lat="43.49474" lon="12.3134467"><ele>552.0</ele><time>2026-05-02T08:55:21.79Z</time></trkpt><trkpt lat="43.4945783" lon="12.313295"><ele>551.3333333333334</ele><time>2026-05-02T08:55:22.791Z</time></trkpt><trkpt lat="43.4944217" lon="12.3131467"><ele>550.6666666666667</ele><time>2026-05-02T08:55:23.789Z</time></trkpt><trkpt lat="43.4942717" lon="12.312995"><ele>550.0</ele><time>2026-05-02T08:55:24.789Z</time></trkpt><trkpt lat="43.4941217" lon="12.3128283"><ele>550.0</ele><time>2026-05-02T08:55:25.789Z</time></trkpt><trkpt lat="43.49397" lon="12.3126533"><ele>550.0</ele><time>2026-05-02T08:55:26.789Z</time></trkpt><trkpt lat="43.493825" lon="12.3124733"><ele>550.0</ele><time>2026-05-02T08:55:27.79Z</time></trkpt><trkpt lat="43.4936767" lon="12.3122917"><ele>550.3333333333334</ele><time>2026-05-02T08:55:28.79Z</time></trkpt><trkpt lat="43.493525" lon="12.3121067"><ele>550.6666666666666</ele><time>2026-05-02T08:55:29.789Z</time></trkpt><trkpt lat="43.493375" lon="12.311925"><ele>551.0</ele><time>2026-05-02T08:55:30.79Z</time></trkpt><trkpt lat="43.49324" lon="12.31176"><ele>551.0</ele><time>2026-05-02T08:55:31.789Z</time></trkpt><trkpt lat="43.4931117" lon="12.3116117"><ele>551.0</ele><time>2026-05-02T08:55:32.789Z</time></trkpt><trkpt lat="43.4929817" lon="12.3114783"><ele>551.0</ele><time>2026-05-02T08:55:33.79Z</time></trkpt><trkpt lat="43.4928533" lon="12.3113433"><ele>550.6666666666666</ele><time>2026-05-02T08:55:34.789Z</time></trkpt><trkpt lat="43.4927283" lon="12.31119"><ele>550.3333333333334</ele><time>2026-05-02T08:55:35.789Z</time></trkpt><trkpt lat="43.4926067" lon="12.3110117"><ele>550.0</ele><time>2026-05-02T08:55:36.785Z</time></trkpt><trkpt lat="43.4924833" lon="12.31081"><ele>550.0</ele><time>2026-05-02T08:55:37.789Z</time></trkpt><trkpt lat="43.492365" lon="12.3105833"><ele>550.0</ele><time>2026-05-02T08:55:38.789Z</time></trkpt><trkpt lat="43.492255" lon="12.3103567"><ele>550.0</ele><time>2026-05-02T08:55:39.787Z</time></trkpt><trkpt lat="43.4921533" lon="12.310155"><ele>551.0</ele><time>2026-05-02T08:55:40.789Z</time></trkpt><trkpt lat="43.4920583" lon="12.30998"><ele>552.0</ele><time>2026-05-02T08:55:41.789Z</time></trkpt><trkpt lat="43.4919683" lon="12.3098517"><ele>553.0</ele><time>2026-05-02T08:55:42.789Z</time></trkpt><trkpt lat="43.49186" lon="12.309765"><ele>554.0</ele><time>2026-05-02T08:55:43.79Z</time></trkpt><trkpt lat="43.4917283" lon="12.309715"><ele>554.0</ele><time>2026-05-02T08:55:44.79Z</time></trkpt><trkpt lat="43.4915817" lon="12.3096733"><ele>554.0</ele><time>2026-05-02T08:55:45.789Z</time></trkpt><trkpt lat="43.4914233" lon="12.309615"><ele>554.0</ele><time>2026-05-02T08:55:46.787Z</time></trkpt><trkpt lat="43.491265" lon="12.30953"><ele>553.6666666666666</ele><time>2026-05-02T08:55:47.79Z</time></trkpt><trkpt lat="43.491115" lon="12.3094317"><ele>553.3333333333334</ele><time>2026-05-02T08:55:48.789Z</time></trkpt><trkpt lat="43.49097" lon="12.3093383"><ele>553.0</ele><time>2026-05-02T08:55:49.789Z</time></trkpt><trkpt lat="43.4908217" lon="12.3092633"><ele>553.0</ele><time>2026-05-02T08:55:50.789Z</time></trkpt><trkpt lat="43.490675" lon="12.3092267"><ele>553.0</ele><time>2026-05-02T08:55:51.789Z</time></trkpt><trkpt lat="43.4905233" lon="12.3092167"><ele>553.0</ele><time>2026-05-02T08:55:52.788Z</time></trkpt><trkpt lat="43.4903667" lon="12.3092283"><ele>551.5</ele><time>2026-05-02T08:55:53.788Z</time></trkpt><trkpt lat="43.490215" lon="12.3092483"><ele>550.0</ele><time>2026-05-02T08:55:54.789Z</time></trkpt><trkpt lat="43.490075" lon="12.3092817"><ele>548.5</ele><time>2026-05-02T08:55:55.789Z</time></trkpt><trkpt lat="43.4899517" lon="12.3093267"><ele>547.0</ele><time>2026-05-02T08:55:56.786Z</time></trkpt><trkpt lat="43.4898567" lon="12.3093867"><ele>547.0</ele><time>2026-05-02T08:55:57.787Z</time></trkpt><trkpt lat="43.489785" lon="12.30945"><ele>547.0</ele><time>2026-05-02T08:55:58.787Z</time></trkpt><trkpt lat="43.4897217" lon="12.3095117"><ele>547.0</ele><time>2026-05-02T08:55:59.786Z</time></trkpt><trkpt lat="43.4896517" lon="12.3095733"><ele>547.0</ele><time>2026-05-02T08:56:00.786Z</time></trkpt><trkpt lat="43.4895783" lon="12.3096333"><ele>547.0</ele><time>2026-05-02T08:56:01.786Z</time></trkpt><trkpt lat="43.4895117" lon="12.30968"><ele>547.0</ele><time>2026-05-02T08:56:02.786Z</time></trkpt><trkpt lat="43.4894467" lon="12.309725"><ele>547.8571428571429</ele><time>2026-05-02T08:56:03.789Z</time></trkpt><trkpt lat="43.4893833" lon="12.3097617"><ele>548.7142857142857</ele><time>2026-05-02T08:56:04.789Z</time></trkpt><trkpt lat="43.48932" lon="12.309805"><ele>549.5714285714286</ele><time>2026-05-02T08:56:05.789Z</time></trkpt><trkpt lat="43.48925" lon="12.3098567"><ele>550.4285714285714</ele><time>2026-05-02T08:56:06.789Z</time></trkpt><trkpt lat="43.4891833" lon="12.309905"><ele>551.2857142857142</ele><time>2026-05-02T08:56:07.791Z</time></trkpt><trkpt lat="43.48912" lon="12.3099467"><ele>552.1428571428571</ele><time>2026-05-02T08:56:08.789Z</time></trkpt><trkpt lat="43.489055" lon="12.309965"><ele>553.0</ele><time>2026-05-02T08:56:09.785Z</time></trkpt><trkpt lat="43.4889883" lon="12.3099433"><ele>553.0</ele><time>2026-05-02T08:56:10.788Z</time></trkpt><trkpt lat="43.48891" lon="12.3098983"><ele>553.0</ele><time>2026-05-02T08:56:11.79Z</time></trkpt><trkpt lat="43.4888317" lon="12.3098717"><ele>553.0</ele><time>2026-05-02T08:56:12.789Z</time></trkpt><trkpt lat="43.4887433" lon="12.3098733"><ele>553.0</ele><time>2026-05-02T08:56:13.789Z</time></trkpt><trkpt lat="43.48865" lon="12.309865"><ele>553.0</ele><time>2026-05-02T08:56:14.79Z</time></trkpt><trkpt lat="43.4885567" lon="12.3098283"><ele>553.0</ele><time>2026-05-02T08:56:15.789Z</time></trkpt><trkpt lat="43.4884667" lon="12.3097767"><ele>552.4285714285714</ele><time>2026-05-02T08:56:16.789Z</time></trkpt><trkpt lat="43.4883833" lon="12.3097317"><ele>551.8571428571429</ele><time>2026-05-02T08:56:17.789Z</time></trkpt><trkpt lat="43.488315" lon="12.309695"><ele>551.2857142857142</ele><time>2026-05-02T08:56:18.79Z</time></trkpt><trkpt lat="43.4882483" lon="12.3096733"><ele>550.7142857142858</ele><time>2026-05-02T08:56:19.789Z</time></trkpt><trkpt lat="43.4881833" lon="12.309655"><ele>550.1428571428571</ele><time>2026-05-02T08:56:20.789Z</time></trkpt><trkpt lat="43.4881133" lon="12.30962"><ele>549.5714285714286</ele><time>2026-05-02T08:56:21.79Z</time></trkpt><trkpt lat="43.488045" lon="12.3095783"><ele>549.0</ele><time>2026-05-02T08:56:22.789Z</time></trkpt><trkpt lat="43.4879833" lon="12.3095433"><ele>551.0</ele><time>2026-05-02T08:56:23.786Z</time></trkpt><trkpt lat="43.4878817" lon="12.309475"><ele>553.0</ele><time>2026-05-02T08:56:25.786Z</time></trkpt><trkpt lat="43.4878067" lon="12.30932"><ele>555.0</ele><time>2026-05-02T08:56:27.788Z</time></trkpt><trkpt lat="43.48778" lon="12.3092233"><ele>557.0</ele><time>2026-05-02T08:56:28.787Z</time></trkpt><trkpt lat="43.4877467" lon="12.30914"><ele>559.0</ele><time>2026-05-02T08:56:29.787Z</time></trkpt><trkpt lat="43.487695" lon="12.309045"><ele>559.0</ele><time>2026-05-02T08:56:30.786Z</time></trkpt><trkpt lat="43.4876233" lon="12.308955"><ele>559.0</ele><time>2026-05-02T08:56:31.786Z</time></trkpt><trkpt lat="43.4875467" lon="12.30886"><ele>559.0</ele><time>2026-05-02T08:56:32.785Z</time></trkpt><trkpt lat="43.48747" lon="12.3087583"><ele>559.0</ele><time>2026-05-02T08:56:33.785Z</time></trkpt><trkpt lat="43.4873983" lon="12.3086483"><ele>559.0</ele><time>2026-05-02T08:56:34.789Z</time></trkpt><trkpt lat="43.4873417" lon="12.3085467"><ele>557.8</ele><time>2026-05-02T08:56:35.788Z</time></trkpt><trkpt lat="43.487285" lon="12.30844"><ele>556.5999999999999</ele><time>2026-05-02T08:56:36.789Z</time></trkpt><trkpt lat="43.4872217" lon="12.30833"><ele>555.4</ele><time>2026-05-02T08:56:37.788Z</time></trkpt><trkpt lat="43.487155" lon="12.3082233"><ele>554.1999999999999</ele><time>2026-05-02T08:56:38.789Z</time></trkpt><trkpt lat="43.4870867" lon="12.3081183"><ele>553.0</ele><time>2026-05-02T08:56:39.788Z</time></trkpt><trkpt lat="43.48701" lon="12.30802"><ele>552.0</ele><time>2026-05-02T08:56:40.785Z</time></trkpt><trkpt lat="43.4869233" lon="12.30794"><ele>551.0</ele><time>2026-05-02T08:56:41.788Z</time></trkpt><trkpt lat="43.4868383" lon="12.3078767"><ele>550.0</ele><time>2026-05-02T08:56:42.785Z</time></trkpt><trkpt lat="43.486765" lon="12.3078133"><ele>549.0</ele><time>2026-05-02T08:56:43.789Z</time></trkpt><trkpt lat="43.4867" lon="12.30773"><ele>548.0</ele><time>2026-05-02T08:56:44.787Z</time></trkpt><trkpt lat="43.4866433" lon="12.3076317"><ele>548.0</ele><time>2026-05-02T08:56:45.789Z</time></trkpt><trkpt lat="43.486575" lon="12.30753"><ele>548.0</ele><time>2026-05-02T08:56:46.788Z</time></trkpt><trkpt lat="43.48648" lon="12.3074417"><ele>548.0</ele><time>2026-05-02T08:56:47.789Z</time></trkpt><trkpt lat="43.4863767" lon="12.30736"><ele>548.0</ele><time>2026-05-02T08:56:48.788Z</time></trkpt><trkpt lat="43.4862717" lon="12.307275"><ele>548.0</ele><time>2026-05-02T08:56:49.79Z</time></trkpt><trkpt lat="43.4861733" lon="12.307185"><ele>548.0</ele><time>2026-05-02T08:56:50.788Z</time></trkpt><trkpt lat="43.48606" lon="12.3071017"><ele>548.0</ele><time>2026-05-02T08:56:51.784Z</time></trkpt><trkpt lat="43.48595" lon="12.3070133"><ele>548.0</ele><time>2026-05-02T08:56:52.786Z</time></trkpt><trkpt lat="43.48585" lon="12.30692"><ele>548.0</ele><time>2026-05-02T08:56:53.788Z</time></trkpt><trkpt lat="43.4857583" lon="12.3068317"><ele>548.0</ele><time>2026-05-02T08:56:54.788Z</time></trkpt><trkpt lat="43.4856717" lon="12.3067517"><ele>548.0</ele><time>2026-05-02T08:56:55.789Z</time></trkpt><trkpt lat="43.4855917" lon="12.3066667"><ele>548.0</ele><time>2026-05-02T08:56:56.785Z</time></trkpt><trkpt lat="43.48552" lon="12.3065783"><ele>548.0</ele><time>2026-05-02T08:56:57.786Z</time></trkpt><trkpt lat="43.4854533" lon="12.3064917"><ele>548.6</ele><time>2026-05-02T08:56:58.785Z</time></trkpt><trkpt lat="43.4853817" lon="12.3063983"><ele>549.1999999999999</ele><time>2026-05-02T08:56:59.785Z</time></trkpt><trkpt lat="43.4853017" lon="12.3062983"><ele>549.8</ele><time>2026-05-02T08:57:00.785Z</time></trkpt><trkpt lat="43.4852267" lon="12.3061917"><ele>550.4</ele><time>2026-05-02T08:57:01.785Z</time></trkpt><trkpt lat="43.4851517" lon="12.3060917"><ele>551.0</ele><time>2026-05-02T08:57:02.785Z</time></trkpt><trkpt lat="43.48508" lon="12.3060033"><ele>551.0</ele><time>2026-05-02T08:57:03.788Z</time></trkpt><trkpt lat="43.4850067" lon="12.3059267"><ele>551.0</ele><time>2026-05-02T08:57:04.788Z</time></trkpt><trkpt lat="43.4849283" lon="12.3058633"><ele>551.0</ele><time>2026-05-02T08:57:05.788Z</time></trkpt><trkpt lat="43.48486" lon="12.3058033"><ele>551.0</ele><time>2026-05-02T08:57:06.788Z</time></trkpt><trkpt lat="43.4847833" lon="12.3057233"><ele>551.0</ele><time>2026-05-02T08:57:08.788Z</time></trkpt><trkpt lat="43.4847" lon="12.3056383"><ele>551.5</ele><time>2026-05-02T08:57:10.791Z</time></trkpt><trkpt lat="43.484645" lon="12.305575"><ele>552.0</ele><time>2026-05-02T08:57:11.789Z</time></trkpt><trkpt lat="43.4845983" lon="12.30551"><ele>552.5</ele><time>2026-05-02T08:57:12.788Z</time></trkpt><trkpt lat="43.4845367" lon="12.3053933"><ele>553.0</ele><time>2026-05-02T08:57:14.789Z</time></trkpt><trkpt lat="43.4845067" lon="12.3053017"><ele>553.5</ele><time>2026-05-02T08:57:16.788Z</time></trkpt><trkpt lat="43.48447" lon="12.305195"><ele>554.0</ele><time>2026-05-02T08:57:20.79Z</time></trkpt><trkpt lat="43.48442" lon="12.3051167"><ele>552.8</ele><time>2026-05-02T08:57:22.788Z</time></trkpt><trkpt lat="43.4843433" lon="12.30498"><ele>551.5999999999999</ele><time>2026-05-02T08:57:24.788Z</time></trkpt><trkpt lat="43.4842967" lon="12.30488"><ele>550.4</ele><time>2026-05-02T08:57:25.79Z</time></trkpt><trkpt lat="43.4842483" lon="12.3047567"><ele>549.1999999999999</ele><time>2026-05-02T08:57:26.787Z</time></trkpt><trkpt lat="43.4841933" lon="12.3046117"><ele>548.0</ele><time>2026-05-02T08:57:27.787Z</time></trkpt><trkpt lat="43.4841417" lon="12.3044617"><ele>547.8</ele><time>2026-05-02T08:57:28.785Z</time></trkpt><trkpt lat="43.484095" lon="12.3043333"><ele>547.5999999999999</ele><time>2026-05-02T08:57:29.786Z</time></trkpt><trkpt lat="43.48405" lon="12.30423"><ele>547.4000000000001</ele><time>2026-05-02T08:57:30.786Z</time></trkpt><trkpt lat="43.484015" lon="12.304145"><ele>547.2</ele><time>2026-05-02T08:57:31.785Z</time></trkpt><trkpt lat="43.4839867" lon="12.30399"><ele>547.0</ele><time>2026-05-02T08:57:33.786Z</time></trkpt><trkpt lat="43.4839933" lon="12.3038833"><ele>546.6</ele><time>2026-05-02T08:57:34.788Z</time></trkpt><trkpt lat="43.4840017" lon="12.3037633"><ele>546.2</ele><time>2026-05-02T08:57:35.788Z</time></trkpt><trkpt lat="43.483995" lon="12.3036267"><ele>545.8</ele><time>2026-05-02T08:57:36.789Z</time></trkpt><trkpt lat="43.48397" lon="12.3034883"><ele>545.4</ele><time>2026-05-02T08:57:37.788Z</time></trkpt><trkpt lat="43.4839383" lon="12.3033517"><ele>545.0</ele><time>2026-05-02T08:57:38.788Z</time></trkpt><trkpt lat="43.483905" lon="12.3032117"><ele>544.2</ele><time>2026-05-02T08:57:39.789Z</time></trkpt><trkpt lat="43.4838683" lon="12.303075"><ele>543.4</ele><time>2026-05-02T08:57:40.788Z</time></trkpt><trkpt lat="43.4838233" lon="12.3029483"><ele>542.6</ele><time>2026-05-02T08:57:41.788Z</time></trkpt><trkpt lat="43.483765" lon="12.3028417"><ele>541.8</ele><time>2026-05-02T08:57:42.789Z</time></trkpt><trkpt lat="43.4836983" lon="12.302755"><ele>541.0</ele><time>2026-05-02T08:57:43.788Z</time></trkpt><trkpt lat="43.48363" lon="12.3026883"><ele>540.6666666666667</ele><time>2026-05-02T08:57:44.788Z</time></trkpt><trkpt lat="43.483565" lon="12.3026333"><ele>540.3333333333334</ele><time>2026-05-02T08:57:45.784Z</time></trkpt><trkpt lat="43.483515" lon="12.3025767"><ele>540.0</ele><time>2026-05-02T08:57:46.786Z</time></trkpt><trkpt lat="43.48346" lon="12.3024517"><ele>539.6666666666666</ele><time>2026-05-02T08:57:48.785Z</time></trkpt><trkpt lat="43.4834317" lon="12.30234"><ele>539.3333333333333</ele><time>2026-05-02T08:57:50.79Z</time></trkpt><trkpt lat="43.483375" lon="12.302295"><ele>539.0</ele><time>2026-05-02T08:57:52.787Z</time></trkpt><trkpt lat="43.483315" lon="12.3022617"><ele>538.8333333333333</ele><time>2026-05-02T08:57:53.789Z</time></trkpt><trkpt lat="43.4832517" lon="12.3022033"><ele>538.6666666666666</ele><time>2026-05-02T08:57:54.788Z</time></trkpt><trkpt lat="43.483175" lon="12.3021367"><ele>538.5</ele><time>2026-05-02T08:57:55.788Z</time></trkpt><trkpt lat="43.4831" lon="12.30209"><ele>538.3333333333334</ele><time>2026-05-02T08:57:56.785Z</time></trkpt><trkpt lat="43.483015" lon="12.302045"><ele>538.1666666666667</ele><time>2026-05-02T08:57:57.785Z</time></trkpt><trkpt lat="43.4829417" lon="12.3020033"><ele>538.0</ele><time>2026-05-02T08:57:58.786Z</time></trkpt><trkpt lat="43.482875" lon="12.3019683"><ele>538.0</ele><time>2026-05-02T08:57:59.787Z</time></trkpt><trkpt lat="43.4828133" lon="12.3019367"><ele>538.0</ele><time>2026-05-02T08:58:00.785Z</time></trkpt><trkpt lat="43.4827183" lon="12.3018817"><ele>538.0</ele><time>2026-05-02T08:58:02.786Z</time></trkpt><trkpt lat="43.482605" lon="12.301815"><ele>538.0</ele><time>2026-05-02T08:58:04.788Z</time></trkpt><trkpt lat="43.4824967" lon="12.3017367"><ele>538.0</ele><time>2026-05-02T08:58:06.787Z</time></trkpt><trkpt lat="43.4824017" lon="12.3016917"><ele>538.0</ele><time>2026-05-02T08:58:08.787Z</time></trkpt><trkpt lat="43.4823367" lon="12.301665"><ele>538.0</ele><time>2026-05-02T08:58:09.786Z</time></trkpt><trkpt lat="43.4822683" lon="12.301635"><ele>538.0</ele><time>2026-05-02T08:58:10.786Z</time></trkpt><trkpt lat="43.4821967" lon="12.3016033"><ele>538.0</ele><time>2026-05-02T08:58:11.788Z</time></trkpt><trkpt lat="43.4821233" lon="12.3015633"><ele>538.0</ele><time>2026-05-02T08:58:12.786Z</time></trkpt><trkpt lat="43.4820433" lon="12.301515"><ele>538.0</ele><time>2026-05-02T08:58:13.788Z</time></trkpt><trkpt lat="43.4819533" lon="12.3014567"><ele>537.6</ele><time>2026-05-02T08:58:14.786Z</time></trkpt><trkpt lat="43.4818583" lon="12.3013883"><ele>537.1999999999999</ele><time>2026-05-02T08:58:15.786Z</time></trkpt><trkpt lat="43.4817583" lon="12.3013183"><ele>536.8</ele><time>2026-05-02T08:58:16.786Z</time></trkpt><trkpt lat="43.4816683" lon="12.3012417"><ele>536.4</ele><time>2026-05-02T08:58:17.787Z</time></trkpt><trkpt lat="43.4815967" lon="12.3011717"><ele>536.0</ele><time>2026-05-02T08:58:18.788Z</time></trkpt><trkpt lat="43.4815367" lon="12.30111"><ele>536.0</ele><time>2026-05-02T08:58:19.787Z</time></trkpt><trkpt lat="43.48148" lon="12.301045"><ele>536.0</ele><time>2026-05-02T08:58:20.786Z</time></trkpt><trkpt lat="43.4814283" lon="12.3009583"><ele>536.0</ele><time>2026-05-02T08:58:21.789Z</time></trkpt><trkpt lat="43.48137" lon="12.3008733"><ele>536.0</ele><time>2026-05-02T08:58:22.788Z</time></trkpt><trkpt lat="43.4813117" lon="12.3008017"><ele>536.0</ele><time>2026-05-02T08:58:23.786Z</time></trkpt><trkpt lat="43.48126" lon="12.300735"><ele>536.0</ele><time>2026-05-02T08:58:24.789Z</time></trkpt><trkpt lat="43.4811983" lon="12.3006983"><ele>536.8333333333333</ele><time>2026-05-02T08:58:25.785Z</time></trkpt><trkpt lat="43.4811367" lon="12.300665"><ele>537.6666666666666</ele><time>2026-05-02T08:58:26.786Z</time></trkpt><trkpt lat="43.481075" lon="12.3006133"><ele>538.5</ele><time>2026-05-02T08:58:27.786Z</time></trkpt><trkpt lat="43.4810067" lon="12.3005417"><ele>539.3333333333334</ele><time>2026-05-02T08:58:28.785Z</time></trkpt><trkpt lat="43.4809267" lon="12.3004733"><ele>540.1666666666667</ele><time>2026-05-02T08:58:29.787Z</time></trkpt><trkpt lat="43.48084" lon="12.3004117"><ele>541.0</ele><time>2026-05-02T08:58:30.785Z</time></trkpt><trkpt lat="43.480745" lon="12.3003583"><ele>541.0</ele><time>2026-05-02T08:58:31.786Z</time></trkpt><trkpt lat="43.4806433" lon="12.3002883"><ele>541.0</ele><time>2026-05-02T08:58:32.787Z</time></trkpt><trkpt lat="43.4805333" lon="12.300215"><ele>541.0</ele><time>2026-05-02T08:58:33.79Z</time></trkpt><trkpt lat="43.48043" lon="12.3001467"><ele>541.0</ele><time>2026-05-02T08:58:34.789Z</time></trkpt><trkpt lat="43.48033" lon="12.3000767"><ele>543.4</ele><time>2026-05-02T08:58:35.791Z</time></trkpt><trkpt lat="43.4802233" lon="12.3000183"><ele>545.8</ele><time>2026-05-02T08:58:36.789Z</time></trkpt><trkpt lat="43.48012" lon="12.2999633"><ele>548.1999999999999</ele><time>2026-05-02T08:58:37.788Z</time></trkpt><trkpt lat="43.4800267" lon="12.299915"><ele>550.6</ele><time>2026-05-02T08:58:38.79Z</time></trkpt><trkpt lat="43.4799333" lon="12.2998617"><ele>553.0</ele><time>2026-05-02T08:58:39.787Z</time></trkpt><trkpt lat="43.4798383" lon="12.29979"><ele>552.75</ele><time>2026-05-02T08:58:40.786Z</time></trkpt><trkpt lat="43.4797333" lon="12.2997067"><ele>552.5</ele><time>2026-05-02T08:58:41.786Z</time></trkpt><trkpt lat="43.4796217" lon="12.29963"><ele>552.25</ele><time>2026-05-02T08:58:42.786Z</time></trkpt><trkpt lat="43.47951" lon="12.299555"><ele>552.0</ele><time>2026-05-02T08:58:43.788Z</time></trkpt><trkpt lat="43.479405" lon="12.2994917"><ele>551.6</ele><time>2026-05-02T08:58:44.786Z</time></trkpt><trkpt lat="43.4793117" lon="12.2994317"><ele>551.2</ele><time>2026-05-02T08:58:45.787Z</time></trkpt><trkpt lat="43.4792267" lon="12.2993617"><ele>550.8</ele><time>2026-05-02T08:58:46.786Z</time></trkpt><trkpt lat="43.4791433" lon="12.2992817"><ele>550.4</ele><time>2026-05-02T08:58:47.786Z</time></trkpt><trkpt lat="43.479075" lon="12.2992"><ele>550.0</ele><time>2026-05-02T08:58:48.787Z</time></trkpt><trkpt lat="43.479015" lon="12.2991267"><ele>550.0</ele><time>2026-05-02T08:58:49.787Z</time></trkpt><trkpt lat="43.4789517" lon="12.2990583"><ele>550.0</ele><time>2026-05-02T08:58:50.789Z</time></trkpt><trkpt lat="43.4788917" lon="12.2989883"><ele>550.0</ele><time>2026-05-02T08:58:51.789Z</time></trkpt><trkpt lat="43.47884" lon="12.2989217"><ele>550.0</ele><time>2026-05-02T08:58:52.789Z</time></trkpt><trkpt lat="43.4787683" lon="12.2988267"><ele>550.0</ele><time>2026-05-02T08:58:54.792Z</time></trkpt><trkpt lat="43.4786667" lon="12.2986983"><ele>549.6</ele><time>2026-05-02T08:58:56.787Z</time></trkpt><trkpt lat="43.478615" lon="12.2986033"><ele>549.2</ele><time>2026-05-02T08:58:57.786Z</time></trkpt><trkpt lat="43.478555" lon="12.2984967"><ele>548.8</ele><time>2026-05-02T08:58:58.785Z</time></trkpt><trkpt lat="43.4784883" lon="12.2983833"><ele>548.4</ele><time>2026-05-02T08:58:59.786Z</time></trkpt><trkpt lat="43.4784183" lon="12.2982783"><ele>548.0</ele><time>2026-05-02T08:59:00.786Z</time></trkpt><trkpt lat="43.478355" lon="12.2981833"><ele>548.0</ele><time>2026-05-02T08:59:01.786Z</time></trkpt><trkpt lat="43.4782933" lon="12.2980933"><ele>548.0</ele><time>2026-05-02T08:59:02.786Z</time></trkpt><trkpt lat="43.4782233" lon="12.2980133"><ele>548.0</ele><time>2026-05-02T08:59:03.787Z</time></trkpt><trkpt lat="43.4781367" lon="12.2979417"><ele>548.0</ele><time>2026-05-02T08:59:04.787Z</time></trkpt><trkpt lat="43.4780533" lon="12.2978783"><ele>548.0</ele><time>2026-05-02T08:59:05.787Z</time></trkpt><trkpt lat="43.4779833" lon="12.2978267"><ele>549.1999999999999</ele><time>2026-05-02T08:59:06.789Z</time></trkpt><trkpt lat="43.4779167" lon="12.2977817"><ele>550.4</ele><time>2026-05-02T08:59:07.787Z</time></trkpt><trkpt lat="43.47786" lon="12.2977417"><ele>551.5999999999999</ele><time>2026-05-02T08:59:08.786Z</time></trkpt><trkpt lat="43.4777433" lon="12.2976717"><ele>552.8</ele><time>2026-05-02T08:59:10.786Z</time></trkpt><trkpt lat="43.4776583" lon="12.2976083"><ele>554.0</ele><time>2026-05-02T08:59:12.786Z</time></trkpt><trkpt lat="43.4775467" lon="12.2976017"><ele>554.0</ele><time>2026-05-02T08:59:15.787Z</time></trkpt><trkpt lat="43.47743" lon="12.2976"><ele>554.0</ele><time>2026-05-02T08:59:17.786Z</time></trkpt><trkpt lat="43.4773267" lon="12.2975517"><ele>554.0</ele><time>2026-05-02T08:59:19.786Z</time></trkpt><trkpt lat="43.4772417" lon="12.2974983"><ele>554.0</ele><time>2026-05-02T08:59:21.79Z</time></trkpt><trkpt lat="43.4771183" lon="12.2974383"><ele>553.8333333333333</ele><time>2026-05-02T08:59:23.786Z</time></trkpt><trkpt lat="43.47704" lon="12.2974183"><ele>553.6666666666666</ele><time>2026-05-02T08:59:24.789Z</time></trkpt><trkpt lat="43.4769683" lon="12.2973967"><ele>553.5</ele><time>2026-05-02T08:59:25.786Z</time></trkpt><trkpt lat="43.4768817" lon="12.297305"><ele>553.3333333333334</ele><time>2026-05-02T08:59:27.787Z</time></trkpt><trkpt lat="43.476805" lon="12.2972733"><ele>553.1666666666667</ele><time>2026-05-02T08:59:29.789Z</time></trkpt><trkpt lat="43.4767367" lon="12.2972367"><ele>553.0</ele><time>2026-05-02T08:59:31.788Z</time></trkpt><trkpt lat="43.4766767" lon="12.2971433"><ele>553.5</ele><time>2026-05-02T08:59:33.791Z</time></trkpt><trkpt lat="43.476635" lon="12.297075"><ele>554.0</ele><time>2026-05-02T08:59:35.789Z</time></trkpt><trkpt lat="43.4765633" lon="12.29702"><ele>554.5</ele><time>2026-05-02T08:59:37.786Z</time></trkpt><trkpt lat="43.4765" lon="12.2969483"><ele>555.0</ele><time>2026-05-02T08:59:39.788Z</time></trkpt><trkpt lat="43.476465" lon="12.2968567"><ele>555.5</ele><time>2026-05-02T08:59:42.788Z</time></trkpt><trkpt lat="43.4764233" lon="12.296745"><ele>556.0</ele><time>2026-05-02T08:59:45.787Z</time></trkpt><trkpt lat="43.4763583" lon="12.2967017"><ele>556.0</ele><time>2026-05-02T08:59:47.788Z</time></trkpt><trkpt lat="43.4762983" lon="12.2966533"><ele>556.0</ele><time>2026-05-02T08:59:49.788Z</time></trkpt><trkpt lat="43.4762317" lon="12.2965517"><ele>556.0</ele><time>2026-05-02T08:59:51.789Z</time></trkpt><trkpt lat="43.4761633" lon="12.2964633"><ele>556.0</ele><time>2026-05-02T08:59:53.788Z</time></trkpt><trkpt lat="43.4760883" lon="12.2964133"><ele>556.0</ele><time>2026-05-02T08:59:55.789Z</time></trkpt><trkpt lat="43.4759817" lon="12.2963167"><ele>555.6</ele><time>2026-05-02T08:59:57.787Z</time></trkpt><trkpt lat="43.4759083" lon="12.2962467"><ele>555.2</ele><time>2026-05-02T08:59:58.787Z</time></trkpt><trkpt lat="43.475815" lon="12.2961683"><ele>554.8</ele><time>2026-05-02T08:59:59.789Z</time></trkpt><trkpt lat="43.4757133" lon="12.2960933"><ele>554.4</ele><time>2026-05-02T09:00:00.789Z</time></trkpt><trkpt lat="43.4756217" lon="12.29602"><ele>554.0</ele><time>2026-05-02T09:00:01.79Z</time></trkpt><trkpt lat="43.4755383" lon="12.2959667"><ele>554.0</ele><time>2026-05-02T09:00:02.787Z</time></trkpt><trkpt lat="43.4754633" lon="12.2959217"><ele>554.0</ele><time>2026-05-02T09:00:03.791Z</time></trkpt><trkpt lat="43.475395" lon="12.2958617"><ele>554.0</ele><time>2026-05-02T09:00:04.789Z</time></trkpt><trkpt lat="43.47533" lon="12.295805"><ele>554.0</ele><time>2026-05-02T09:00:05.787Z</time></trkpt><trkpt lat="43.4752733" lon="12.295755"><ele>554.0</ele><time>2026-05-02T09:00:06.789Z</time></trkpt><trkpt lat="43.4751567" lon="12.2956433"><ele>554.0</ele><time>2026-05-02T09:00:08.788Z</time></trkpt><trkpt lat="43.4750733" lon="12.2955767"><ele>553.4</ele><time>2026-05-02T09:00:09.787Z</time></trkpt><trkpt lat="43.4749767" lon="12.2955017"><ele>552.8</ele><time>2026-05-02T09:00:10.787Z</time></trkpt><trkpt lat="43.47488" lon="12.2954283"><ele>552.2</ele><time>2026-05-02T09:00:11.787Z</time></trkpt><trkpt lat="43.4747883" lon="12.2953533"><ele>551.6</ele><time>2026-05-02T09:00:12.787Z</time></trkpt><trkpt lat="43.4747017" lon="12.295285"><ele>551.0</ele><time>2026-05-02T09:00:13.787Z</time></trkpt><trkpt lat="43.474625" lon="12.2952183"><ele>550.0</ele><time>2026-05-02T09:00:14.788Z</time></trkpt><trkpt lat="43.47455" lon="12.2951483"><ele>549.0</ele><time>2026-05-02T09:00:15.787Z</time></trkpt><trkpt lat="43.4744833" lon="12.2950783"><ele>548.0</ele><time>2026-05-02T09:00:16.792Z</time></trkpt><trkpt lat="43.4744217" lon="12.2950133"><ele>547.0</ele><time>2026-05-02T09:00:17.788Z</time></trkpt><trkpt lat="43.47436" lon="12.2949517"><ele>546.0</ele><time>2026-05-02T09:00:18.788Z</time></trkpt><trkpt lat="43.474295" lon="12.294895"><ele>545.0</ele><time>2026-05-02T09:00:19.787Z</time></trkpt><trkpt lat="43.4741983" lon="12.2948183"><ele>545.4</ele><time>2026-05-02T09:00:21.791Z</time></trkpt><trkpt lat="43.4741517" lon="12.294745"><ele>545.8</ele><time>2026-05-02T09:00:23.788Z</time></trkpt><trkpt lat="43.47406" lon="12.29464"><ele>546.2</ele><time>2026-05-02T09:00:25.788Z</time></trkpt><trkpt lat="43.4739767" lon="12.29454"><ele>546.6</ele><time>2026-05-02T09:00:27.788Z</time></trkpt><trkpt lat="43.473925" lon="12.29442"><ele>547.0</ele><time>2026-05-02T09:00:29.789Z</time></trkpt><trkpt lat="43.47388" lon="12.2943117"><ele>547.0</ele><time>2026-05-02T09:00:31.788Z</time></trkpt><trkpt lat="43.4738117" lon="12.2942417"><ele>547.0</ele><time>2026-05-02T09:00:33.788Z</time></trkpt><trkpt lat="43.47371" lon="12.2941617"><ele>547.0</ele><time>2026-05-02T09:00:35.79Z</time></trkpt><trkpt lat="43.47365" lon="12.294105"><ele>547.0</ele><time>2026-05-02T09:00:36.789Z</time></trkpt><trkpt lat="43.4735967" lon="12.2940533"><ele>547.0</ele><time>2026-05-02T09:00:37.786Z</time></trkpt><trkpt lat="43.4735167" lon="12.2939717"><ele>547.0</ele><time>2026-05-02T09:00:39.785Z</time></trkpt><trkpt lat="43.4734417" lon="12.2938783"><ele>547.5</ele><time>2026-05-02T09:00:41.786Z</time></trkpt><trkpt lat="43.4733917" lon="12.2938233"><ele>548.0</ele><time>2026-05-02T09:00:42.79Z</time></trkpt><trkpt lat="43.473335" lon="12.2937617"><ele>548.5</ele><time>2026-05-02T09:00:43.785Z</time></trkpt><trkpt lat="43.4732683" lon="12.2936867"><ele>549.0</ele><time>2026-05-02T09:00:44.786Z</time></trkpt><trkpt lat="43.4731983" lon="12.2936033"><ele>549.5</ele><time>2026-05-02T09:00:45.788Z</time></trkpt><trkpt lat="43.4731183" lon="12.293515"><ele>550.0</ele><time>2026-05-02T09:00:46.788Z</time></trkpt><trkpt lat="43.4730433" lon="12.293415"><ele>550.0</ele><time>2026-05-02T09:00:47.785Z</time></trkpt><trkpt lat="43.472985" lon="12.293315"><ele>550.0</ele><time>2026-05-02T09:00:48.786Z</time></trkpt><trkpt lat="43.4729367" lon="12.2932233"><ele>550.0</ele><time>2026-05-02T09:00:49.786Z</time></trkpt><trkpt lat="43.472895" lon="12.2931383"><ele>550.0</ele><time>2026-05-02T09:00:50.789Z</time></trkpt><trkpt lat="43.472835" lon="12.2929917"><ele>550.0</ele><time>2026-05-02T09:00:52.789Z</time></trkpt><trkpt lat="43.4727617" lon="12.2928583"><ele>551.25</ele><time>2026-05-02T09:00:54.786Z</time></trkpt><trkpt lat="43.472705" lon="12.29274"><ele>552.5</ele><time>2026-05-02T09:00:56.788Z</time></trkpt><trkpt lat="43.4726283" lon="12.2926117"><ele>553.75</ele><time>2026-05-02T09:00:58.787Z</time></trkpt><trkpt lat="43.4725617" lon="12.2924933"><ele>555.0</ele><time>2026-05-02T09:01:00.789Z</time></trkpt><trkpt lat="43.4724983" lon="12.2923417"><ele>555.0</ele><time>2026-05-02T09:01:02.789Z</time></trkpt><trkpt lat="43.4724733" lon="12.2922567"><ele>555.0</ele><time>2026-05-02T09:01:03.79Z</time></trkpt><trkpt lat="43.4724517" lon="12.29217"><ele>555.0</ele><time>2026-05-02T09:01:04.788Z</time></trkpt><trkpt lat="43.472415" lon="12.292015"><ele>555.0</ele><time>2026-05-02T09:01:06.785Z</time></trkpt><trkpt lat="43.4723867" lon="12.2919317"><ele>555.0</ele><time>2026-05-02T09:01:07.786Z</time></trkpt><trkpt lat="43.47235" lon="12.29184"><ele>555.0</ele><time>2026-05-02T09:01:08.788Z</time></trkpt><trkpt lat="43.4723117" lon="12.2917383"><ele>555.3333333333334</ele><time>2026-05-02T09:01:09.785Z</time></trkpt><trkpt lat="43.4722683" lon="12.2916333"><ele>555.6666666666666</ele><time>2026-05-02T09:01:10.786Z</time></trkpt><trkpt lat="43.4722283" lon="12.2915283"><ele>556.0</ele><time>2026-05-02T09:01:11.786Z</time></trkpt><trkpt lat="43.4721967" lon="12.2914283"><ele>556.3333333333333</ele><time>2026-05-02T09:01:12.785Z</time></trkpt><trkpt lat="43.4721683" lon="12.29134"><ele>556.6666666666666</ele><time>2026-05-02T09:01:13.785Z</time></trkpt><trkpt lat="43.4721133" lon="12.2912"><ele>557.0</ele><time>2026-05-02T09:01:15.786Z</time></trkpt><trkpt lat="43.4720567" lon="12.2910417"><ele>557.0</ele><time>2026-05-02T09:01:17.787Z</time></trkpt><trkpt lat="43.47198" lon="12.2909183"><ele>557.0</ele><time>2026-05-02T09:01:19.785Z</time></trkpt><trkpt lat="43.471885" lon="12.290815"><ele>557.0</ele><time>2026-05-02T09:01:21.789Z</time></trkpt><trkpt lat="43.4718283" lon="12.2907333"><ele>557.0</ele><time>2026-05-02T09:01:22.789Z</time></trkpt><trkpt lat="43.4717667" lon="12.2906483"><ele>557.0</ele><time>2026-05-02T09:01:23.788Z</time></trkpt><trkpt lat="43.47172" lon="12.2905783"><ele>557.6</ele><time>2026-05-02T09:01:24.788Z</time></trkpt><trkpt lat="43.4716583" lon="12.29047"><ele>558.2</ele><time>2026-05-02T09:01:26.79Z</time></trkpt><trkpt lat="43.4716183" lon="12.2903883"><ele>558.8</ele><time>2026-05-02T09:01:29.787Z</time></trkpt><trkpt lat="43.4715783" lon="12.2903"><ele>559.4</ele><time>2026-05-02T09:01:31.787Z</time></trkpt><trkpt lat="43.4715117" lon="12.2901683"><ele>560.0</ele><time>2026-05-02T09:01:33.786Z</time></trkpt><trkpt lat="43.4714417" lon="12.290015"><ele>560.0</ele><time>2026-05-02T09:01:35.787Z</time></trkpt><trkpt lat="43.4713967" lon="12.2899317"><ele>560.0</ele><time>2026-05-02T09:01:36.787Z</time></trkpt><trkpt lat="43.471345" lon="12.289855"><ele>560.0</ele><time>2026-05-02T09:01:37.787Z</time></trkpt><trkpt lat="43.4712917" lon="12.289785"><ele>560.0</ele><time>2026-05-02T09:01:38.786Z</time></trkpt><trkpt lat="43.4712417" lon="12.2897133"><ele>560.0</ele><time>2026-05-02T09:01:39.786Z</time></trkpt><trkpt lat="43.4712" lon="12.2896417"><ele>560.0</ele><time>2026-05-02T09:01:40.789Z</time></trkpt><trkpt lat="43.4711317" lon="12.2895183"><ele>560.4</ele><time>2026-05-02T09:01:42.788Z</time></trkpt><trkpt lat="43.471035" lon="12.28939"><ele>560.8</ele><time>2026-05-02T09:01:44.785Z</time></trkpt><trkpt lat="43.4709833" lon="12.2893083"><ele>561.2</ele><time>2026-05-02T09:01:45.787Z</time></trkpt><trkpt lat="43.4709317" lon="12.289225"><ele>561.6</ele><time>2026-05-02T09:01:46.786Z</time></trkpt><trkpt lat="43.47088" lon="12.2891533"><ele>562.0</ele><time>2026-05-02T09:01:47.787Z</time></trkpt><trkpt lat="43.4708117" lon="12.2890583"><ele>562.0</ele><time>2026-05-02T09:01:49.787Z</time></trkpt><trkpt lat="43.4707783" lon="12.2889617"><ele>562.0</ele><time>2026-05-02T09:02:18.786Z</time></trkpt><trkpt lat="43.4707583" lon="12.2888783"><ele>562.0</ele><time>2026-05-02T09:02:19.788Z</time></trkpt><trkpt lat="43.4707317" lon="12.2887883"><ele>562.0</ele><time>2026-05-02T09:02:20.788Z</time></trkpt><trkpt lat="43.4706933" lon="12.2886583"><ele>562.0</ele><time>2026-05-02T09:02:22.791Z</time></trkpt><trkpt lat="43.4707283" lon="12.2885317"><ele>562.0</ele><time>2026-05-02T09:02:25.789Z</time></trkpt><trkpt lat="43.4707633" lon="12.2883933"><ele>561.0</ele><time>2026-05-02T09:02:27.786Z</time></trkpt><trkpt lat="43.470745" lon="12.288265"><ele>560.0</ele><time>2026-05-02T09:02:29.789Z</time></trkpt><trkpt lat="43.4707017" lon="12.2881433"><ele>559.0</ele><time>2026-05-02T09:02:31.786Z</time></trkpt><trkpt lat="43.4706667" lon="12.2880533"><ele>558.0</ele><time>2026-05-02T09:02:33.788Z</time></trkpt><trkpt lat="43.4707233" lon="12.2878867"><ele>557.0</ele><time>2026-05-02T09:03:44.786Z</time></trkpt><trkpt lat="43.47064" lon="12.2879033"><ele>557.0</ele><time>2026-05-02T09:04:17.788Z</time></trkpt><trkpt lat="43.470575" lon="12.2879717"><ele>557.0</ele><time>2026-05-02T09:04:20.789Z</time></trkpt><trkpt lat="43.4705833" lon="12.2880667"><ele>557.0</ele><time>2026-05-02T09:04:22.791Z</time></trkpt><trkpt lat="43.470655" lon="12.2881717"><ele>557.0</ele><time>2026-05-02T09:04:24.79Z</time></trkpt><trkpt lat="43.4707067" lon="12.288285"><ele>557.0</ele><time>2026-05-02T09:04:26.789Z</time></trkpt><trkpt lat="43.47071" lon="12.2883883"><ele>557.0</ele><time>2026-05-02T09:04:28.788Z</time></trkpt><trkpt lat="43.4706833" lon="12.2884933"><ele>557.0</ele><time>2026-05-02T09:04:30.789Z</time></trkpt><trkpt lat="43.4706767" lon="12.2886267"><ele>557.0</ele><time>2026-05-02T09:04:37.787Z</time></trkpt><trkpt lat="43.4707117" lon="12.2887283"><ele>557.0</ele><time>2026-05-02T09:04:39.786Z</time></trkpt><trkpt lat="43.4707483" lon="12.2888633"><ele>557.0</ele><time>2026-05-02T09:04:41.786Z</time></trkpt><trkpt lat="43.4707733" lon="12.2889667"><ele>557.0</ele><time>2026-05-02T09:04:43.786Z</time></trkpt><trkpt lat="43.470825" lon="12.2890733"><ele>557.8333333333333</ele><time>2026-05-02T09:04:46.786Z</time></trkpt><trkpt lat="43.4708733" lon="12.2891633"><ele>558.6666666666666</ele><time>2026-05-02T09:04:48.786Z</time></trkpt><trkpt lat="43.47092" lon="12.2892233"><ele>559.5</ele><time>2026-05-02T09:05:25.788Z</time></trkpt><trkpt lat="43.4709533" lon="12.2891417"><ele>560.3333333333334</ele><time>2026-05-02T09:05:29.789Z</time></trkpt><trkpt lat="43.47087" lon="12.2890917"><ele>561.1666666666667</ele><time>2026-05-02T09:05:32.789Z</time></trkpt><trkpt lat="43.470815" lon="12.2890483"><ele>562.0</ele><time>2026-05-02T09:05:35.788Z</time></trkpt><trkpt lat="43.47074" lon="12.2891083"><ele>562.0</ele><time>2026-05-02T09:05:40.79Z</time></trkpt><trkpt lat="43.4706683" lon="12.2890583"><ele>562.0</ele><time>2026-05-02T09:05:44.788Z</time></trkpt><trkpt lat="43.470645" lon="12.2889567"><ele>562.0</ele><time>2026-05-02T09:05:47.789Z</time></trkpt><trkpt lat="43.4706517" lon="12.2888367"><ele>562.0</ele><time>2026-05-02T09:05:50.789Z</time></trkpt><trkpt lat="43.4706883" lon="12.2887567"><ele>562.0</ele><time>2026-05-02T09:05:52.789Z</time></trkpt><trkpt lat="43.4707" lon="12.2886567"><ele>562.0</ele><time>2026-05-02T09:05:55.789Z</time></trkpt><trkpt lat="43.4706633" lon="12.2885617"><ele>561.1666666666667</ele><time>2026-05-02T09:05:58.79Z</time></trkpt><trkpt lat="43.470635" lon="12.2884567"><ele>560.3333333333334</ele><time>2026-05-02T09:06:02.791Z</time></trkpt><trkpt lat="43.4706083" lon="12.2883567"><ele>559.5</ele><time>2026-05-02T09:07:19.785Z</time></trkpt><trkpt lat="43.470565" lon="12.288285"><ele>558.6666666666666</ele><time>2026-05-02T09:07:25.79Z</time></trkpt><trkpt lat="43.4705067" lon="12.288195"><ele>557.8333333333333</ele><time>2026-05-02T09:07:28.789Z</time></trkpt><trkpt lat="43.4704583" lon="12.2880883"><ele>557.0</ele><time>2026-05-02T09:07:31.787Z</time></trkpt><trkpt lat="43.4704083" lon="12.28801"><ele>555.7142857142858</ele><time>2026-05-02T09:07:34.786Z</time></trkpt><trkpt lat="43.4703717" lon="12.2879383"><ele>554.4285714285714</ele><time>2026-05-02T09:07:38.786Z</time></trkpt><trkpt lat="43.4703317" lon="12.28785"><ele>553.1428571428571</ele><time>2026-05-02T09:07:43.788Z</time></trkpt><trkpt lat="43.4702867" lon="12.2877617"><ele>551.8571428571429</ele><time>2026-05-02T09:07:48.79Z</time></trkpt><trkpt lat="43.47025" lon="12.2876783"><ele>550.5714285714286</ele><time>2026-05-02T09:07:51.789Z</time></trkpt><trkpt lat="43.4702067" lon="12.2875983"><ele>549.2857142857143</ele><time>2026-05-02T09:07:54.785Z</time></trkpt><trkpt lat="43.4701417" lon="12.2875383"><ele>548.0</ele><time>2026-05-02T09:07:57.786Z</time></trkpt><trkpt lat="43.4700933" lon="12.2874733"><ele>548.0</ele><time>2026-05-02T09:07:59.786Z</time></trkpt><trkpt lat="43.47003" lon="12.28741"><ele>548.0</ele><time>2026-05-02T09:08:01.786Z</time></trkpt><trkpt lat="43.4699783" lon="12.2873467"><ele>548.0</ele><time>2026-05-02T09:08:03.787Z</time></trkpt><trkpt lat="43.46992" lon="12.2872933"><ele>548.0</ele><time>2026-05-02T09:08:05.789Z</time></trkpt><trkpt lat="43.4698567" lon="12.28729"><ele>548.0</ele><time>2026-05-02T09:08:55.79Z</time></trkpt><trkpt lat="43.4699417" lon="12.2873667"><ele>548.0</ele><time>2026-05-02T09:08:58.789Z</time></trkpt><trkpt lat="43.47" lon="12.28744"><ele>548.0</ele><time>2026-05-02T09:09:00.79Z</time></trkpt><trkpt lat="43.4700667" lon="12.2875117"><ele>548.0</ele><time>2026-05-02T09:09:02.787Z</time></trkpt><trkpt lat="43.47013" lon="12.287585"><ele>548.0</ele><time>2026-05-02T09:09:04.789Z</time></trkpt><trkpt lat="43.4701767" lon="12.2876617"><ele>548.0</ele><time>2026-05-02T09:09:06.789Z</time></trkpt><trkpt lat="43.47022" lon="12.2877267"><ele>548.0</ele><time>2026-05-02T09:09:08.791Z</time></trkpt><trkpt lat="43.4702733" lon="12.2878233"><ele>548.0</ele><time>2026-05-02T09:09:11.789Z</time></trkpt><trkpt lat="43.4703117" lon="12.2879017"><ele>548.0</ele><time>2026-05-02T09:09:13.791Z</time></trkpt><trkpt lat="43.4703533" lon="12.2879783"><ele>548.0</ele><time>2026-05-02T09:09:15.791Z</time></trkpt><trkpt lat="43.4704083" lon="12.2880667"><ele>548.0</ele><time>2026-05-02T09:09:17.79Z</time></trkpt><trkpt lat="43.4704533" lon="12.2881433"><ele>548.0</ele><time>2026-05-02T09:09:19.787Z</time></trkpt><trkpt lat="43.4705017" lon="12.28823"><ele>548.0</ele><time>2026-05-02T09:09:21.79Z</time></trkpt><trkpt lat="43.4705883" lon="12.2883667"><ele>548.0</ele><time>2026-05-02T09:10:15.79Z</time></trkpt><trkpt lat="43.4706133" lon="12.2884833"><ele>549.8</ele><time>2026-05-02T09:10:18.786Z</time></trkpt><trkpt lat="43.470655" lon="12.2885783"><ele>551.5999999999999</ele><time>2026-05-02T09:10:21.789Z</time></trkpt><trkpt lat="43.47069" lon="12.2886867"><ele>553.4000000000001</ele><time>2026-05-02T09:11:06.789Z</time></trkpt><trkpt lat="43.4707367" lon="12.2888217"><ele>555.2</ele><time>2026-05-02T09:11:08.79Z</time></trkpt><trkpt lat="43.470795" lon="12.2889767"><ele>557.0</ele><time>2026-05-02T09:11:10.789Z</time></trkpt><trkpt lat="43.47083" lon="12.2890617"><ele>557.8333333333333</ele><time>2026-05-02T09:11:11.789Z</time></trkpt><trkpt lat="43.47087" lon="12.2891417"><ele>558.6666666666666</ele><time>2026-05-02T09:11:12.789Z</time></trkpt><trkpt lat="43.4709133" lon="12.2892167"><ele>559.5</ele><time>2026-05-02T09:11:13.789Z</time></trkpt><trkpt lat="43.4709583" lon="12.2892883"><ele>560.3333333333334</ele><time>2026-05-02T09:11:14.789Z</time></trkpt><trkpt lat="43.471005" lon="12.2893533"><ele>561.1666666666667</ele><time>2026-05-02T09:11:15.789Z</time></trkpt><trkpt lat="43.4710833" lon="12.2894517"><ele>562.0</ele><time>2026-05-02T09:11:17.79Z</time></trkpt><trkpt lat="43.4711583" lon="12.2895467"><ele>562.0</ele><time>2026-05-02T09:11:19.789Z</time></trkpt><trkpt lat="43.4711933" lon="12.2896583"><ele>562.0</ele><time>2026-05-02T09:11:21.789Z</time></trkpt><trkpt lat="43.4712417" lon="12.2897617"><ele>562.0</ele><time>2026-05-02T09:11:23.79Z</time></trkpt><trkpt lat="43.4713317" lon="12.289875"><ele>562.0</ele><time>2026-05-02T09:11:25.79Z</time></trkpt><trkpt lat="43.4714067" lon="12.2900133"><ele>562.0</ele><time>2026-05-02T09:11:27.787Z</time></trkpt><trkpt lat="43.4714683" lon="12.29014"><ele>561.6666666666667</ele><time>2026-05-02T09:11:29.787Z</time></trkpt><trkpt lat="43.4715117" lon="12.29024"><ele>561.3333333333334</ele><time>2026-05-02T09:11:31.786Z</time></trkpt><trkpt lat="43.4715567" lon="12.2903383"><ele>561.0</ele><time>2026-05-02T09:11:33.79Z</time></trkpt><trkpt lat="43.4716167" lon="12.2904333"><ele>560.6666666666666</ele><time>2026-05-02T09:11:36.785Z</time></trkpt><trkpt lat="43.4716733" lon="12.2905483"><ele>560.3333333333333</ele><time>2026-05-02T09:11:38.791Z</time></trkpt><trkpt lat="43.471715" lon="12.2906267"><ele>560.0</ele><time>2026-05-02T09:11:39.789Z</time></trkpt><trkpt lat="43.47178" lon="12.2907267"><ele>559.4</ele><time>2026-05-02T09:11:40.789Z</time></trkpt><trkpt lat="43.4718467" lon="12.2908217"><ele>558.8</ele><time>2026-05-02T09:11:41.789Z</time></trkpt><trkpt lat="43.47191" lon="12.2908967"><ele>558.2</ele><time>2026-05-02T09:11:42.786Z</time></trkpt><trkpt lat="43.4719933" lon="12.290965"><ele>557.6</ele><time>2026-05-02T09:11:44.79Z</time></trkpt><trkpt lat="43.4720467" lon="12.2910483"><ele>557.0</ele><time>2026-05-02T09:11:46.79Z</time></trkpt><trkpt lat="43.472085" lon="12.2911867"><ele>557.2</ele><time>2026-05-02T09:11:48.785Z</time></trkpt><trkpt lat="43.4721333" lon="12.2913"><ele>557.4000000000001</ele><time>2026-05-02T09:11:50.789Z</time></trkpt><trkpt lat="43.4721917" lon="12.2914633"><ele>557.5999999999999</ele><time>2026-05-02T09:11:52.791Z</time></trkpt><trkpt lat="43.4722217" lon="12.2915667"><ele>557.8</ele><time>2026-05-02T09:11:53.789Z</time></trkpt><trkpt lat="43.47225" lon="12.2916617"><ele>558.0</ele><time>2026-05-02T09:11:54.789Z</time></trkpt><trkpt lat="43.4722817" lon="12.2917517"><ele>558.0</ele><time>2026-05-02T09:11:55.789Z</time></trkpt><trkpt lat="43.4723233" lon="12.2918483"><ele>558.0</ele><time>2026-05-02T09:11:56.789Z</time></trkpt><trkpt lat="43.47237" lon="12.2919533"><ele>558.0</ele><time>2026-05-02T09:11:57.786Z</time></trkpt><trkpt lat="43.4723983" lon="12.2920317"><ele>558.0</ele><time>2026-05-02T09:11:58.789Z</time></trkpt><trkpt lat="43.472425" lon="12.292145"><ele>558.0</ele><time>2026-05-02T09:12:00.791Z</time></trkpt><trkpt lat="43.47247" lon="12.2922883"><ele>558.0</ele><time>2026-05-02T09:12:02.791Z</time></trkpt><trkpt lat="43.4724983" lon="12.2923683"><ele>557.5</ele><time>2026-05-02T09:12:03.79Z</time></trkpt><trkpt lat="43.4725433" lon="12.292505"><ele>557.0</ele><time>2026-05-02T09:12:05.789Z</time></trkpt><trkpt lat="43.4725483" lon="12.2925967"><ele>556.5</ele><time>2026-05-02T09:12:07.786Z</time></trkpt><trkpt lat="43.472495" lon="12.2926467"><ele>556.0</ele><time>2026-05-02T09:12:11.789Z</time></trkpt><trkpt lat="43.4724333" lon="12.2926167"><ele>555.5</ele><time>2026-05-02T09:13:05.79Z</time></trkpt><trkpt lat="43.4723333" lon="12.29253"><ele>555.0</ele><time>2026-05-02T09:13:07.786Z</time></trkpt><trkpt lat="43.4722583" lon="12.2924567"><ele>555.0</ele><time>2026-05-02T09:13:09.788Z</time></trkpt><trkpt lat="43.4721783" lon="12.2924317"><ele>555.0</ele><time>2026-05-02T09:13:11.788Z</time></trkpt><trkpt lat="43.4720683" lon="12.2924217"><ele>555.0</ele><time>2026-05-02T09:13:13.789Z</time></trkpt><trkpt lat="43.4718883" lon="12.29237"><ele>555.0</ele><time>2026-05-02T09:13:16.788Z</time></trkpt><trkpt lat="43.4717817" lon="12.2923367"><ele>553.2</ele><time>2026-05-02T09:13:18.786Z</time></trkpt><trkpt lat="43.4717" lon="12.2923883"><ele>551.4</ele><time>2026-05-02T09:13:20.79Z</time></trkpt><trkpt lat="43.4716833" lon="12.2925683"><ele>549.6</ele><time>2026-05-02T09:13:22.788Z</time></trkpt><trkpt lat="43.4717" lon="12.2927017"><ele>547.8</ele><time>2026-05-02T09:13:23.79Z</time></trkpt><trkpt lat="43.47174" lon="12.292845"><ele>546.0</ele><time>2026-05-02T09:13:24.79Z</time></trkpt><trkpt lat="43.471775" lon="12.2929617"><ele>543.25</ele><time>2026-05-02T09:13:25.789Z</time></trkpt><trkpt lat="43.4718033" lon="12.2931617"><ele>540.5</ele><time>2026-05-02T09:13:27.787Z</time></trkpt><trkpt lat="43.4717733" lon="12.2932867"><ele>537.75</ele><time>2026-05-02T09:13:29.787Z</time></trkpt><trkpt lat="43.4716333" lon="12.2932683"><ele>535.0</ele><time>2026-05-02T09:13:31.786Z</time></trkpt><trkpt lat="43.47155" lon="12.29327"><ele>535.0</ele><time>2026-05-02T09:13:32.786Z</time></trkpt><trkpt lat="43.4714817" lon="12.2932667"><ele>535.0</ele><time>2026-05-02T09:13:33.786Z</time></trkpt><trkpt lat="43.471415" lon="12.293245"><ele>535.0</ele><time>2026-05-02T09:13:34.785Z</time></trkpt><trkpt lat="43.471345" lon="12.2931967"><ele>535.0</ele><time>2026-05-02T09:13:35.787Z</time></trkpt><trkpt lat="43.4712583" lon="12.2931117"><ele>535.0</ele><time>2026-05-02T09:13:36.786Z</time></trkpt><trkpt lat="43.4710683" lon="12.2929367"><ele>533.0</ele><time>2026-05-02T09:13:38.786Z</time></trkpt><trkpt lat="43.4709717" lon="12.2928633"><ele>531.0</ele><time>2026-05-02T09:13:39.787Z</time></trkpt><trkpt lat="43.470885" lon="12.29279"><ele>529.0</ele><time>2026-05-02T09:13:40.79Z</time></trkpt><trkpt lat="43.4708167" lon="12.2927067"><ele>527.0</ele><time>2026-05-02T09:13:41.789Z</time></trkpt><trkpt lat="43.4707617" lon="12.2926183"><ele>525.0</ele><time>2026-05-02T09:13:42.792Z</time></trkpt><trkpt lat="43.4707133" lon="12.29254"><ele>525.0</ele><time>2026-05-02T09:13:43.787Z</time></trkpt><trkpt lat="43.4706633" lon="12.2924833"><ele>525.0</ele><time>2026-05-02T09:13:44.786Z</time></trkpt><trkpt lat="43.4705517" lon="12.29246"><ele>525.0</ele><time>2026-05-02T09:13:46.786Z</time></trkpt><trkpt lat="43.470465" lon="12.29255"><ele>525.0</ele><time>2026-05-02T09:13:48.785Z</time></trkpt><trkpt lat="43.4703767" lon="12.292645"><ele>525.0</ele><time>2026-05-02T09:13:50.789Z</time></trkpt><trkpt lat="43.4702767" lon="12.2926717"><ele>523.1666666666666</ele><time>2026-05-02T09:13:52.787Z</time></trkpt><trkpt lat="43.4702017" lon="12.2926667"><ele>521.3333333333334</ele><time>2026-05-02T09:13:54.789Z</time></trkpt><trkpt lat="43.470155" lon="12.2927467"><ele>519.5</ele><time>2026-05-02T09:13:57.786Z</time></trkpt><trkpt lat="43.4702167" lon="12.29283"><ele>517.6666666666667</ele><time>2026-05-02T09:13:59.788Z</time></trkpt><trkpt lat="43.47029" lon="12.2929433"><ele>515.8333333333334</ele><time>2026-05-02T09:14:01.786Z</time></trkpt><trkpt lat="43.47028" lon="12.293035"><ele>514.0</ele><time>2026-05-02T09:14:03.789Z</time></trkpt><trkpt lat="43.4701833" lon="12.2929983"><ele>514.0</ele><time>2026-05-02T09:14:06.786Z</time></trkpt><trkpt lat="43.4701367" lon="12.29293"><ele>514.0</ele><time>2026-05-02T09:14:07.786Z</time></trkpt><trkpt lat="43.4700867" lon="12.2928567"><ele>514.0</ele><time>2026-05-02T09:14:08.786Z</time></trkpt><trkpt lat="43.4700417" lon="12.2927883"><ele>514.0</ele><time>2026-05-02T09:14:09.787Z</time></trkpt><trkpt lat="43.4699767" lon="12.2926833"><ele>514.0</ele><time>2026-05-02T09:14:11.786Z</time></trkpt><trkpt lat="43.4699333" lon="12.292545"><ele>514.0</ele><time>2026-05-02T09:14:13.789Z</time></trkpt><trkpt lat="43.4699167" lon="12.2924467"><ele>514.0</ele><time>2026-05-02T09:14:14.789Z</time></trkpt><trkpt lat="43.4699083" lon="12.2923333"><ele>514.0</ele><time>2026-05-02T09:14:15.789Z</time></trkpt><trkpt lat="43.46991" lon="12.2922117"><ele>514.0</ele><time>2026-05-02T09:14:16.789Z</time></trkpt><trkpt lat="43.4699317" lon="12.2920683"><ele>514.0</ele><time>2026-05-02T09:14:17.789Z</time></trkpt><trkpt lat="43.4699533" lon="12.2919283"><ele>514.0</ele><time>2026-05-02T09:14:18.789Z</time></trkpt><trkpt lat="43.4699683" lon="12.2917817"><ele>512.8</ele><time>2026-05-02T09:14:19.786Z</time></trkpt><trkpt lat="43.4699717" lon="12.2916333"><ele>511.59999999999997</ele><time>2026-05-02T09:14:20.789Z</time></trkpt><trkpt lat="43.469955" lon="12.291495"><ele>510.4</ele><time>2026-05-02T09:14:21.789Z</time></trkpt><trkpt lat="43.4699183" lon="12.2913783"><ele>509.2</ele><time>2026-05-02T09:14:22.786Z</time></trkpt><trkpt lat="43.469865" lon="12.2912633"><ele>508.0</ele><time>2026-05-02T09:14:23.789Z</time></trkpt><trkpt lat="43.469795" lon="12.29116"><ele>507.0</ele><time>2026-05-02T09:14:24.789Z</time></trkpt><trkpt lat="43.46971" lon="12.2910617"><ele>506.0</ele><time>2026-05-02T09:14:25.789Z</time></trkpt><trkpt lat="43.4696167" lon="12.2909617"><ele>505.0</ele><time>2026-05-02T09:14:26.786Z</time></trkpt><trkpt lat="43.4695233" lon="12.2908533"><ele>504.0</ele><time>2026-05-02T09:14:27.786Z</time></trkpt><trkpt lat="43.469425" lon="12.29074"><ele>504.0</ele><time>2026-05-02T09:14:28.786Z</time></trkpt><trkpt lat="43.4693367" lon="12.2906167"><ele>504.0</ele><time>2026-05-02T09:14:29.786Z</time></trkpt><trkpt lat="43.4692617" lon="12.2904783"><ele>504.0</ele><time>2026-05-02T09:14:30.786Z</time></trkpt><trkpt lat="43.469195" lon="12.290315"><ele>504.0</ele><time>2026-05-02T09:14:31.786Z</time></trkpt><trkpt lat="43.4691367" lon="12.2901283"><ele>507.0</ele><time>2026-05-02T09:14:32.786Z</time></trkpt><trkpt lat="43.4690883" lon="12.289925"><ele>510.0</ele><time>2026-05-02T09:14:33.787Z</time></trkpt><trkpt lat="43.4690333" lon="12.2897283"><ele>513.0</ele><time>2026-05-02T09:14:34.786Z</time></trkpt><trkpt lat="43.4689633" lon="12.28955"><ele>517.6666666666666</ele><time>2026-05-02T09:14:35.787Z</time></trkpt><trkpt lat="43.46888" lon="12.28938"><ele>522.3333333333333</ele><time>2026-05-02T09:14:36.786Z</time></trkpt><trkpt lat="43.4687833" lon="12.2892133"><ele>527.0</ele><time>2026-05-02T09:14:37.786Z</time></trkpt><trkpt lat="43.4686817" lon="12.289055"><ele>521.75</ele><time>2026-05-02T09:14:38.786Z</time></trkpt><trkpt lat="43.4685833" lon="12.288905"><ele>516.5</ele><time>2026-05-02T09:14:39.79Z</time></trkpt><trkpt lat="43.4684933" lon="12.2887633"><ele>511.25</ele><time>2026-05-02T09:14:40.789Z</time></trkpt><trkpt lat="43.4684233" lon="12.28863"><ele>506.0</ele><time>2026-05-02T09:14:41.788Z</time></trkpt><trkpt lat="43.4683933" lon="12.2885167"><ele>505.99999999999994</ele><time>2026-05-02T09:14:42.787Z</time></trkpt><trkpt lat="43.4683883" lon="12.288415"><ele>506.0</ele><time>2026-05-02T09:14:43.787Z</time></trkpt><trkpt lat="43.46841" lon="12.2883217"><ele>506.0</ele><time>2026-05-02T09:14:44.789Z</time></trkpt><trkpt lat="43.4684583" lon="12.28824"><ele>506.0</ele><time>2026-05-02T09:14:45.79Z</time></trkpt><trkpt lat="43.46853" lon="12.2881717"><ele>505.99999999999994</ele><time>2026-05-02T09:14:46.79Z</time></trkpt><trkpt lat="43.4686233" lon="12.2881017"><ele>506.0</ele><time>2026-05-02T09:14:47.789Z</time></trkpt><trkpt lat="43.46876" lon="12.2880317"><ele>509.4</ele><time>2026-05-02T09:14:48.786Z</time></trkpt><trkpt lat="43.468885" lon="12.2879717"><ele>512.8</ele><time>2026-05-02T09:14:49.79Z</time></trkpt><trkpt lat="43.4689933" lon="12.2879117"><ele>516.1999999999999</ele><time>2026-05-02T09:14:50.787Z</time></trkpt><trkpt lat="43.469085" lon="12.2878267"><ele>519.6</ele><time>2026-05-02T09:14:51.787Z</time></trkpt><trkpt lat="43.469145" lon="12.2877383"><ele>523.0</ele><time>2026-05-02T09:14:52.787Z</time></trkpt><trkpt lat="43.46919" lon="12.28762"><ele>523.0</ele><time>2026-05-02T09:14:53.79Z</time></trkpt><trkpt lat="43.4692" lon="12.2874917"><ele>523.0</ele><time>2026-05-02T09:14:54.787Z</time></trkpt><trkpt lat="43.4691883" lon="12.287365"><ele>523.0</ele><time>2026-05-02T09:14:55.79Z</time></trkpt><trkpt lat="43.4691433" lon="12.2872467"><ele>523.0</ele><time>2026-05-02T09:14:56.787Z</time></trkpt><trkpt lat="43.46908" lon="12.2871267"><ele>523.0</ele><time>2026-05-02T09:14:57.787Z</time></trkpt><trkpt lat="43.4690133" lon="12.28702"><ele>522.1666666666667</ele><time>2026-05-02T09:14:58.787Z</time></trkpt><trkpt lat="43.4689483" lon="12.28693"><ele>521.3333333333334</ele><time>2026-05-02T09:14:59.787Z</time></trkpt><trkpt lat="43.4688817" lon="12.2868567"><ele>520.5</ele><time>2026-05-02T09:15:00.788Z</time></trkpt><trkpt lat="43.468815" lon="12.286805"><ele>519.6666666666666</ele><time>2026-05-02T09:15:01.789Z</time></trkpt><trkpt lat="43.4687533" lon="12.2867717"><ele>518.8333333333333</ele><time>2026-05-02T09:15:02.789Z</time></trkpt><trkpt lat="43.4686517" lon="12.2867183"><ele>518.0</ele><time>2026-05-02T09:15:04.787Z</time></trkpt><trkpt lat="43.4685567" lon="12.2866717"><ele>516.4</ele><time>2026-05-02T09:15:06.787Z</time></trkpt><trkpt lat="43.4684417" lon="12.28662"><ele>514.8</ele><time>2026-05-02T09:15:08.788Z</time></trkpt><trkpt lat="43.4683583" lon="12.2865917"><ele>513.2</ele><time>2026-05-02T09:15:09.789Z</time></trkpt><trkpt lat="43.4682667" lon="12.28656"><ele>511.6</ele><time>2026-05-02T09:15:10.787Z</time></trkpt><trkpt lat="43.4681767" lon="12.28653"><ele>510.0</ele><time>2026-05-02T09:15:11.791Z</time></trkpt><trkpt lat="43.4680833" lon="12.2865033"><ele>510.0</ele><time>2026-05-02T09:15:12.79Z</time></trkpt><trkpt lat="43.46798" lon="12.28648"><ele>510.0</ele><time>2026-05-02T09:15:13.79Z</time></trkpt><trkpt lat="43.4678717" lon="12.2864567"><ele>510.0</ele><time>2026-05-02T09:15:14.79Z</time></trkpt><trkpt lat="43.4677567" lon="12.2864233"><ele>510.0</ele><time>2026-05-02T09:15:15.786Z</time></trkpt><trkpt lat="43.4676283" lon="12.2863867"><ele>509.75</ele><time>2026-05-02T09:15:16.789Z</time></trkpt><trkpt lat="43.4674983" lon="12.2863417"><ele>509.5</ele><time>2026-05-02T09:15:17.789Z</time></trkpt><trkpt lat="43.4673783" lon="12.286295"><ele>509.25</ele><time>2026-05-02T09:15:18.788Z</time></trkpt><trkpt lat="43.4672583" lon="12.2862467"><ele>509.0</ele><time>2026-05-02T09:15:19.788Z</time></trkpt><trkpt lat="43.4671383" lon="12.2861983"><ele>510.0</ele><time>2026-05-02T09:15:20.787Z</time></trkpt><trkpt lat="43.4670033" lon="12.2861517"><ele>511.0</ele><time>2026-05-02T09:15:21.787Z</time></trkpt><trkpt lat="43.4668617" lon="12.2861017"><ele>512.0</ele><time>2026-05-02T09:15:22.789Z</time></trkpt><trkpt lat="43.46671" lon="12.2860533"><ele>513.0</ele><time>2026-05-02T09:15:23.786Z</time></trkpt><trkpt lat="43.46655" lon="12.2860033"><ele>513.0</ele><time>2026-05-02T09:15:24.786Z</time></trkpt><trkpt lat="43.46638" lon="12.285955"><ele>513.0</ele><time>2026-05-02T09:15:25.786Z</time></trkpt><trkpt lat="43.46621" lon="12.2859067"><ele>513.0</ele><time>2026-05-02T09:15:26.787Z</time></trkpt><trkpt lat="43.4660383" lon="12.2858567"><ele>512.6666666666666</ele><time>2026-05-02T09:15:27.787Z</time></trkpt><trkpt lat="43.4658733" lon="12.2858133"><ele>512.3333333333333</ele><time>2026-05-02T09:15:28.786Z</time></trkpt><trkpt lat="43.465715" lon="12.2857717"><ele>512.0</ele><time>2026-05-02T09:15:29.787Z</time></trkpt><trkpt lat="43.46557" lon="12.2857283"><ele>512.0</ele><time>2026-05-02T09:15:30.786Z</time></trkpt><trkpt lat="43.4654283" lon="12.2856883"><ele>512.0</ele><time>2026-05-02T09:15:31.786Z</time></trkpt><trkpt lat="43.46529" lon="12.285635"><ele>512.0</ele><time>2026-05-02T09:15:32.787Z</time></trkpt><trkpt lat="43.4651467" lon="12.2855667"><ele>512.0</ele><time>2026-05-02T09:15:33.786Z</time></trkpt><trkpt lat="43.4650017" lon="12.2854767"><ele>511.66666666666663</ele><time>2026-05-02T09:15:34.786Z</time></trkpt><trkpt lat="43.46486" lon="12.2853867"><ele>511.33333333333337</ele><time>2026-05-02T09:15:35.787Z</time></trkpt><trkpt lat="43.4647233" lon="12.2852867"><ele>511.0</ele><time>2026-05-02T09:15:36.787Z</time></trkpt><trkpt lat="43.46458" lon="12.2851867"><ele>511.0</ele><time>2026-05-02T09:15:37.786Z</time></trkpt><trkpt lat="43.4644567" lon="12.2850783"><ele>511.0</ele><time>2026-05-02T09:15:38.786Z</time></trkpt><trkpt lat="43.464335" lon="12.2849583"><ele>511.0</ele><time>2026-05-02T09:15:39.786Z</time></trkpt><trkpt lat="43.4642117" lon="12.2848183"><ele>509.0</ele><time>2026-05-02T09:15:40.785Z</time></trkpt><trkpt lat="43.46409" lon="12.28466"><ele>507.0</ele><time>2026-05-02T09:15:41.786Z</time></trkpt><trkpt lat="43.46397" lon="12.284495"><ele>505.0</ele><time>2026-05-02T09:15:42.788Z</time></trkpt><trkpt lat="43.463855" lon="12.2843333"><ele>504.6666666666667</ele><time>2026-05-02T09:15:43.788Z</time></trkpt><trkpt lat="43.4637433" lon="12.2841833"><ele>504.33333333333337</ele><time>2026-05-02T09:15:44.789Z</time></trkpt><trkpt lat="43.4636333" lon="12.2840467"><ele>504.0</ele><time>2026-05-02T09:15:45.786Z</time></trkpt><trkpt lat="43.4635133" lon="12.2839233"><ele>502.0</ele><time>2026-05-02T09:15:46.787Z</time></trkpt><trkpt lat="43.4633733" lon="12.2838067"><ele>500.0</ele><time>2026-05-02T09:15:47.787Z</time></trkpt><trkpt lat="43.463225" lon="12.2836883"><ele>498.0</ele><time>2026-05-02T09:15:48.786Z</time></trkpt><trkpt lat="43.4630783" lon="12.2835683"><ele>498.25</ele><time>2026-05-02T09:15:49.786Z</time></trkpt><trkpt lat="43.4629417" lon="12.2834433"><ele>498.5</ele><time>2026-05-02T09:15:50.786Z</time></trkpt><trkpt lat="43.4628233" lon="12.283315"><ele>498.75</ele><time>2026-05-02T09:15:51.787Z</time></trkpt><trkpt lat="43.4627183" lon="12.2832017"><ele>499.0</ele><time>2026-05-02T09:15:52.788Z</time></trkpt><trkpt lat="43.46262" lon="12.2831"><ele>498.0</ele><time>2026-05-02T09:15:53.788Z</time></trkpt><trkpt lat="43.4625167" lon="12.28301"><ele>497.0</ele><time>2026-05-02T09:15:54.789Z</time></trkpt><trkpt lat="43.462405" lon="12.2829417"><ele>496.0</ele><time>2026-05-02T09:15:55.79Z</time></trkpt><trkpt lat="43.462285" lon="12.282895"><ele>495.0</ele><time>2026-05-02T09:15:56.786Z</time></trkpt><trkpt lat="43.4621633" lon="12.282865"><ele>495.5</ele><time>2026-05-02T09:15:57.787Z</time></trkpt><trkpt lat="43.462035" lon="12.2828417"><ele>496.0</ele><time>2026-05-02T09:15:58.786Z</time></trkpt><trkpt lat="43.4619133" lon="12.28281"><ele>496.5</ele><time>2026-05-02T09:15:59.788Z</time></trkpt><trkpt lat="43.461795" lon="12.2827633"><ele>497.0</ele><time>2026-05-02T09:16:00.786Z</time></trkpt><trkpt lat="43.46168" lon="12.282705"><ele>497.0</ele><time>2026-05-02T09:16:01.787Z</time></trkpt><trkpt lat="43.4615717" lon="12.2826367"><ele>497.0</ele><time>2026-05-02T09:16:02.786Z</time></trkpt><trkpt lat="43.4614833" lon="12.28256"><ele>497.0</ele><time>2026-05-02T09:16:03.787Z</time></trkpt><trkpt lat="43.4613983" lon="12.28247"><ele>497.0</ele><time>2026-05-02T09:16:04.788Z</time></trkpt><trkpt lat="43.4613" lon="12.28237"><ele>493.75</ele><time>2026-05-02T09:16:05.79Z</time></trkpt><trkpt lat="43.461185" lon="12.2822817"><ele>490.5</ele><time>2026-05-02T09:16:06.788Z</time></trkpt><trkpt lat="43.4610667" lon="12.2822083"><ele>487.25</ele><time>2026-05-02T09:16:07.788Z</time></trkpt><trkpt lat="43.4609467" lon="12.2821433"><ele>484.0</ele><time>2026-05-02T09:16:08.788Z</time></trkpt><trkpt lat="43.46082" lon="12.2820817"><ele>484.0</ele><time>2026-05-02T09:16:09.789Z</time></trkpt><trkpt lat="43.460695" lon="12.28203"><ele>484.0</ele><time>2026-05-02T09:16:10.785Z</time></trkpt><trkpt lat="43.46058" lon="12.281995"><ele>484.0</ele><time>2026-05-02T09:16:11.786Z</time></trkpt><trkpt lat="43.4604867" lon="12.28197"><ele>484.0</ele><time>2026-05-02T09:16:12.785Z</time></trkpt><trkpt lat="43.46041" lon="12.281945"><ele>484.0</ele><time>2026-05-02T09:16:13.788Z</time></trkpt><trkpt lat="43.4603117" lon="12.2818683"><ele>482.6</ele><time>2026-05-02T09:16:15.789Z</time></trkpt><trkpt lat="43.460295" lon="12.2817817"><ele>481.2</ele><time>2026-05-02T09:16:17.79Z</time></trkpt><trkpt lat="43.46023" lon="12.2816517"><ele>479.80000000000007</ele><time>2026-05-02T09:16:37.79Z</time></trkpt><trkpt lat="43.4601633" lon="12.28159"><ele>478.40000000000003</ele><time>2026-05-02T09:16:38.79Z</time></trkpt><trkpt lat="43.4600783" lon="12.281515"><ele>477.0</ele><time>2026-05-02T09:16:39.785Z</time></trkpt><trkpt lat="43.4599867" lon="12.28143"><ele>476.20000000000005</ele><time>2026-05-02T09:16:40.79Z</time></trkpt><trkpt lat="43.4599" lon="12.2813367"><ele>475.40000000000003</ele><time>2026-05-02T09:16:41.789Z</time></trkpt><trkpt lat="43.4598233" lon="12.2812467"><ele>474.59999999999997</ele><time>2026-05-02T09:16:42.785Z</time></trkpt><trkpt lat="43.4597483" lon="12.28116"><ele>473.79999999999995</ele><time>2026-05-02T09:16:43.786Z</time></trkpt><trkpt lat="43.4596817" lon="12.2810817"><ele>473.0</ele><time>2026-05-02T09:16:44.787Z</time></trkpt><trkpt lat="43.4596217" lon="12.2810083"><ele>472.99999999999994</ele><time>2026-05-02T09:16:45.789Z</time></trkpt><trkpt lat="43.4595667" lon="12.280935"><ele>473.0</ele><time>2026-05-02T09:16:46.786Z</time></trkpt><trkpt lat="43.4595067" lon="12.280855"><ele>473.0</ele><time>2026-05-02T09:16:47.79Z</time></trkpt><trkpt lat="43.45944" lon="12.28078"><ele>473.0</ele><time>2026-05-02T09:16:48.786Z</time></trkpt><trkpt lat="43.45936" lon="12.2807083"><ele>472.99999999999994</ele><time>2026-05-02T09:16:49.789Z</time></trkpt><trkpt lat="43.4592783" lon="12.2806433"><ele>473.0</ele><time>2026-05-02T09:16:50.789Z</time></trkpt><trkpt lat="43.4591933" lon="12.2805867"><ele>472.59999999999997</ele><time>2026-05-02T09:16:51.788Z</time></trkpt><trkpt lat="43.4591083" lon="12.2805367"><ele>472.19999999999993</ele><time>2026-05-02T09:16:52.79Z</time></trkpt><trkpt lat="43.459015" lon="12.2804867"><ele>471.8</ele><time>2026-05-02T09:16:53.789Z</time></trkpt><trkpt lat="43.45892" lon="12.2804483"><ele>471.4</ele><time>2026-05-02T09:16:54.788Z</time></trkpt><trkpt lat="43.458835" lon="12.2804133"><ele>471.0</ele><time>2026-05-02T09:16:55.789Z</time></trkpt><trkpt lat="43.458755" lon="12.2803733"><ele>472.0</ele><time>2026-05-02T09:16:56.788Z</time></trkpt><trkpt lat="43.4586817" lon="12.28034"><ele>473.0</ele><time>2026-05-02T09:16:57.789Z</time></trkpt><trkpt lat="43.4585717" lon="12.2803183"><ele>474.0</ele><time>2026-05-02T09:16:59.786Z</time></trkpt><trkpt lat="43.4584683" lon="12.2803333"><ele>475.0</ele><time>2026-05-02T09:17:01.789Z</time></trkpt><trkpt lat="43.4583467" lon="12.280345"><ele>476.0</ele><time>2026-05-02T09:17:03.789Z</time></trkpt><trkpt lat="43.4582533" lon="12.2803267"><ele>475.99999999999994</ele><time>2026-05-02T09:17:05.789Z</time></trkpt><trkpt lat="43.4581683" lon="12.2803117"><ele>476.0</ele><time>2026-05-02T09:17:08.79Z</time></trkpt><trkpt lat="43.45809" lon="12.2803317"><ele>476.0</ele><time>2026-05-02T09:17:10.786Z</time></trkpt><trkpt lat="43.4580117" lon="12.28035"><ele>476.0</ele><time>2026-05-02T09:17:12.786Z</time></trkpt><trkpt lat="43.4579067" lon="12.2803633"><ele>475.99999999999994</ele><time>2026-05-02T09:17:14.785Z</time></trkpt><trkpt lat="43.45782" lon="12.280375"><ele>476.0</ele><time>2026-05-02T09:17:16.789Z</time></trkpt><trkpt lat="43.4577183" lon="12.2803733"><ele>476.4</ele><time>2026-05-02T09:17:18.789Z</time></trkpt><trkpt lat="43.4576383" lon="12.2803533"><ele>476.8</ele><time>2026-05-02T09:17:19.786Z</time></trkpt><trkpt lat="43.457525" lon="12.280335"><ele>477.19999999999993</ele><time>2026-05-02T09:17:20.79Z</time></trkpt><trkpt lat="43.4574117" lon="12.28032"><ele>477.59999999999997</ele><time>2026-05-02T09:17:21.789Z</time></trkpt><trkpt lat="43.4573117" lon="12.2803067"><ele>478.0</ele><time>2026-05-02T09:17:22.79Z</time></trkpt><trkpt lat="43.4572083" lon="12.280295"><ele>478.0</ele><time>2026-05-02T09:17:23.786Z</time></trkpt><trkpt lat="43.457135" lon="12.2802883"><ele>477.99999999999994</ele><time>2026-05-02T09:17:24.786Z</time></trkpt><trkpt lat="43.4570617" lon="12.2802917"><ele>477.99999999999994</ele><time>2026-05-02T09:17:25.786Z</time></trkpt><trkpt lat="43.4569617" lon="12.2802533"><ele>478.0</ele><time>2026-05-02T09:17:27.786Z</time></trkpt><trkpt lat="43.456865" lon="12.28019"><ele>478.0</ele><time>2026-05-02T09:17:29.788Z</time></trkpt><trkpt lat="43.4567483" lon="12.2801767"><ele>477.50000000000006</ele><time>2026-05-02T09:17:31.785Z</time></trkpt><trkpt lat="43.456685" lon="12.28017"><ele>477.0</ele><time>2026-05-02T09:17:32.786Z</time></trkpt><trkpt lat="43.456615" lon="12.2801817"><ele>476.5</ele><time>2026-05-02T09:17:33.786Z</time></trkpt><trkpt lat="43.45655" lon="12.280195"><ele>476.0</ele><time>2026-05-02T09:17:34.786Z</time></trkpt><trkpt lat="43.4564833" lon="12.2802233"><ele>475.50000000000006</ele><time>2026-05-02T09:17:35.787Z</time></trkpt><trkpt lat="43.4564183" lon="12.2802483"><ele>475.0</ele><time>2026-05-02T09:17:36.786Z</time></trkpt><trkpt lat="43.4562983" lon="12.28026"><ele>473.7142857142857</ele><time>2026-05-02T09:17:38.786Z</time></trkpt><trkpt lat="43.456225" lon="12.28024"><ele>472.42857142857144</ele><time>2026-05-02T09:17:39.786Z</time></trkpt><trkpt lat="43.45615" lon="12.2802267"><ele>471.14285714285717</ele><time>2026-05-02T09:17:40.786Z</time></trkpt><trkpt lat="43.4560833" lon="12.2802283"><ele>469.8571428571429</ele><time>2026-05-02T09:17:41.787Z</time></trkpt><trkpt lat="43.456015" lon="12.2802417"><ele>468.57142857142856</ele><time>2026-05-02T09:17:42.787Z</time></trkpt><trkpt lat="43.455945" lon="12.28025"><ele>467.28571428571433</ele><time>2026-05-02T09:17:43.786Z</time></trkpt><trkpt lat="43.4558733" lon="12.28024"><ele>466.0</ele><time>2026-05-02T09:17:44.787Z</time></trkpt><trkpt lat="43.4557917" lon="12.28022"><ele>466.00000000000006</ele><time>2026-05-02T09:17:45.786Z</time></trkpt><trkpt lat="43.4557033" lon="12.2801833"><ele>466.0</ele><time>2026-05-02T09:17:46.786Z</time></trkpt><trkpt lat="43.4556083" lon="12.2801567"><ele>466.0</ele><time>2026-05-02T09:17:47.786Z</time></trkpt><trkpt lat="43.4555183" lon="12.2801317"><ele>466.0</ele><time>2026-05-02T09:17:48.786Z</time></trkpt><trkpt lat="43.4554367" lon="12.280115"><ele>466.00000000000006</ele><time>2026-05-02T09:17:49.786Z</time></trkpt><trkpt lat="43.455365" lon="12.280095"><ele>466.0</ele><time>2026-05-02T09:17:50.786Z</time></trkpt><trkpt lat="43.4553033" lon="12.28007"><ele>464.50000000000006</ele><time>2026-05-02T09:17:51.786Z</time></trkpt><trkpt lat="43.45524" lon="12.2800333"><ele>463.0</ele><time>2026-05-02T09:17:52.787Z</time></trkpt><trkpt lat="43.4551767" lon="12.2799833"><ele>461.5</ele><time>2026-05-02T09:17:53.787Z</time></trkpt><trkpt lat="43.4551167" lon="12.2799483"><ele>460.0</ele><time>2026-05-02T09:17:54.79Z</time></trkpt><trkpt lat="43.4549967" lon="12.27994"><ele>458.50000000000006</ele><time>2026-05-02T09:17:56.789Z</time></trkpt><trkpt lat="43.4549" lon="12.2799483"><ele>457.0</ele><time>2026-05-02T09:17:58.786Z</time></trkpt><trkpt lat="43.4548017" lon="12.27993"><ele>457.00000000000006</ele><time>2026-05-02T09:18:00.786Z</time></trkpt><trkpt lat="43.4547" lon="12.2799"><ele>457.0</ele><time>2026-05-02T09:18:02.789Z</time></trkpt><trkpt lat="43.4546367" lon="12.2798733"><ele>457.0</ele><time>2026-05-02T09:18:03.789Z</time></trkpt><trkpt lat="43.4545683" lon="12.2798333"><ele>457.0</ele><time>2026-05-02T09:18:04.786Z</time></trkpt><trkpt lat="43.4545" lon="12.2797933"><ele>457.00000000000006</ele><time>2026-05-02T09:18:05.786Z</time></trkpt><trkpt lat="43.4544367" lon="12.279745"><ele>457.0</ele><time>2026-05-02T09:18:06.786Z</time></trkpt><trkpt lat="43.4543833" lon="12.2796917"><ele>456.28571428571433</ele><time>2026-05-02T09:18:07.786Z</time></trkpt><trkpt lat="43.454335" lon="12.2796317"><ele>455.57142857142856</ele><time>2026-05-02T09:18:08.786Z</time></trkpt><trkpt lat="43.454285" lon="12.2795783"><ele>454.8571428571429</ele><time>2026-05-02T09:18:09.79Z</time></trkpt><trkpt lat="43.4542417" lon="12.2795133"><ele>454.14285714285717</ele><time>2026-05-02T09:18:10.788Z</time></trkpt><trkpt lat="43.4541933" lon="12.27943"><ele>453.42857142857144</ele><time>2026-05-02T09:18:11.787Z</time></trkpt><trkpt lat="43.4541433" lon="12.2793383"><ele>452.7142857142857</ele><time>2026-05-02T09:18:12.788Z</time></trkpt><trkpt lat="43.4540867" lon="12.2792383"><ele>452.0</ele><time>2026-05-02T09:18:13.787Z</time></trkpt><trkpt lat="43.4540417" lon="12.2791517"><ele>452.0</ele><time>2026-05-02T09:18:14.789Z</time></trkpt><trkpt lat="43.454" lon="12.2790717"><ele>452.0</ele><time>2026-05-02T09:18:15.79Z</time></trkpt><trkpt lat="43.4539567" lon="12.2789917"><ele>452.0</ele><time>2026-05-02T09:18:16.79Z</time></trkpt><trkpt lat="43.45391" lon="12.27891"><ele>452.0</ele><time>2026-05-02T09:18:17.786Z</time></trkpt><trkpt lat="43.45387" lon="12.27882"><ele>452.0</ele><time>2026-05-02T09:18:18.79Z</time></trkpt><trkpt lat="43.453835" lon="12.2787333"><ele>452.0</ele><time>2026-05-02T09:18:19.786Z</time></trkpt><trkpt lat="43.453795" lon="12.2786533"><ele>452.0</ele><time>2026-05-02T09:18:20.789Z</time></trkpt><trkpt lat="43.4537167" lon="12.2785167"><ele>450.8571428571429</ele><time>2026-05-02T09:18:22.786Z</time></trkpt><trkpt lat="43.4536733" lon="12.278445"><ele>449.71428571428567</ele><time>2026-05-02T09:18:23.789Z</time></trkpt><trkpt lat="43.4536333" lon="12.278365"><ele>448.57142857142856</ele><time>2026-05-02T09:18:24.789Z</time></trkpt><trkpt lat="43.4535933" lon="12.2782783"><ele>447.42857142857144</ele><time>2026-05-02T09:18:25.786Z</time></trkpt><trkpt lat="43.453555" lon="12.278195"><ele>446.28571428571433</ele><time>2026-05-02T09:18:26.786Z</time></trkpt><trkpt lat="43.45352" lon="12.2781133"><ele>445.1428571428571</ele><time>2026-05-02T09:18:27.786Z</time></trkpt><trkpt lat="43.4534867" lon="12.2780333"><ele>444.0</ele><time>2026-05-02T09:18:28.787Z</time></trkpt><trkpt lat="43.4534567" lon="12.2779567"><ele>444.0</ele><time>2026-05-02T09:18:29.787Z</time></trkpt><trkpt lat="43.4534217" lon="12.2778417"><ele>444.0</ele><time>2026-05-02T09:18:31.788Z</time></trkpt><trkpt lat="43.453405" lon="12.2777217"><ele>444.0</ele><time>2026-05-02T09:18:33.79Z</time></trkpt><trkpt lat="43.4534017" lon="12.2776333"><ele>444.0</ele><time>2026-05-02T09:18:34.786Z</time></trkpt><trkpt lat="43.4534017" lon="12.2775383"><ele>444.0</ele><time>2026-05-02T09:18:35.79Z</time></trkpt><trkpt lat="43.4534033" lon="12.2774383"><ele>444.0</ele><time>2026-05-02T09:18:36.789Z</time></trkpt><trkpt lat="43.453395" lon="12.277335"><ele>444.2</ele><time>2026-05-02T09:18:37.789Z</time></trkpt><trkpt lat="43.453385" lon="12.2772383"><ele>444.4</ele><time>2026-05-02T09:18:38.787Z</time></trkpt><trkpt lat="43.45337" lon="12.2771517"><ele>444.6</ele><time>2026-05-02T09:18:39.789Z</time></trkpt><trkpt lat="43.4533267" lon="12.2770083"><ele>444.8</ele><time>2026-05-02T09:18:41.787Z</time></trkpt><trkpt lat="43.45328" lon="12.276875"><ele>445.0</ele><time>2026-05-02T09:18:43.786Z</time></trkpt><trkpt lat="43.4532117" lon="12.2767633"><ele>445.0</ele><time>2026-05-02T09:18:45.786Z</time></trkpt><trkpt lat="43.4531483" lon="12.2766717"><ele>445.0</ele><time>2026-05-02T09:18:47.787Z</time></trkpt><trkpt lat="43.4530783" lon="12.2765883"><ele>445.0</ele><time>2026-05-02T09:18:49.789Z</time></trkpt><trkpt lat="43.4530067" lon="12.2765033"><ele>445.0</ele><time>2026-05-02T09:18:51.789Z</time></trkpt><trkpt lat="43.4529133" lon="12.2764033"><ele>445.0</ele><time>2026-05-02T09:18:53.789Z</time></trkpt><trkpt lat="43.4528633" lon="12.276345"><ele>442.6666666666667</ele><time>2026-05-02T09:18:54.788Z</time></trkpt><trkpt lat="43.4527783" lon="12.2762483"><ele>440.33333333333337</ele><time>2026-05-02T09:18:56.789Z</time></trkpt><trkpt lat="43.4526917" lon="12.2761583"><ele>438.0</ele><time>2026-05-02T09:18:58.786Z</time></trkpt><trkpt lat="43.4526483" lon="12.2760917"><ele>435.66666666666663</ele><time>2026-05-02T09:18:59.788Z</time></trkpt><trkpt lat="43.4526033" lon="12.276015"><ele>433.3333333333333</ele><time>2026-05-02T09:19:00.787Z</time></trkpt><trkpt lat="43.4525617" lon="12.27593"><ele>431.0</ele><time>2026-05-02T09:19:01.786Z</time></trkpt><trkpt lat="43.45251" lon="12.2758467"><ele>430.99999999999994</ele><time>2026-05-02T09:19:02.788Z</time></trkpt><trkpt lat="43.4524567" lon="12.27577"><ele>431.0</ele><time>2026-05-02T09:19:03.79Z</time></trkpt><trkpt lat="43.4524017" lon="12.275705"><ele>431.0</ele><time>2026-05-02T09:19:04.788Z</time></trkpt><trkpt lat="43.45232" lon="12.27563"><ele>431.0</ele><time>2026-05-02T09:19:06.785Z</time></trkpt><trkpt lat="43.4522467" lon="12.2755933"><ele>430.99999999999994</ele><time>2026-05-02T09:19:09.787Z</time></trkpt><trkpt lat="43.4521767" lon="12.2755533"><ele>431.0</ele><time>2026-05-02T09:19:12.787Z</time></trkpt><trkpt lat="43.4521133" lon="12.27552"><ele>429.0</ele><time>2026-05-02T09:19:16.789Z</time></trkpt><trkpt lat="43.4519983" lon="12.2754333"><ele>427.0</ele><time>2026-05-02T09:19:26.787Z</time></trkpt><trkpt lat="43.4519367" lon="12.2753867"><ele>425.0</ele><time>2026-05-02T09:19:27.789Z</time></trkpt><trkpt lat="43.45186" lon="12.2753317"><ele>423.0</ele><time>2026-05-02T09:19:28.789Z</time></trkpt><trkpt lat="43.4517817" lon="12.2752683"><ele>421.0</ele><time>2026-05-02T09:19:29.786Z</time></trkpt><trkpt lat="43.4517067" lon="12.2752067"><ele>421.00000000000006</ele><time>2026-05-02T09:19:30.786Z</time></trkpt><trkpt lat="43.4516433" lon="12.2751467"><ele>421.0</ele><time>2026-05-02T09:19:31.789Z</time></trkpt><trkpt lat="43.4515833" lon="12.2750933"><ele>421.0</ele><time>2026-05-02T09:19:32.786Z</time></trkpt><trkpt lat="43.4515133" lon="12.2750217"><ele>421.0</ele><time>2026-05-02T09:19:34.787Z</time></trkpt><trkpt lat="43.4514233" lon="12.2750383"><ele>421.00000000000006</ele><time>2026-05-02T09:19:37.788Z</time></trkpt><trkpt lat="43.4513167" lon="12.2750567"><ele>421.0</ele><time>2026-05-02T09:19:39.788Z</time></trkpt><trkpt lat="43.4512467" lon="12.2750333"><ele>418.5</ele><time>2026-05-02T09:19:40.786Z</time></trkpt><trkpt lat="43.4511533" lon="12.27497"><ele>416.0</ele><time>2026-05-02T09:19:41.786Z</time></trkpt><trkpt lat="43.451065" lon="12.2749067"><ele>413.5</ele><time>2026-05-02T09:19:42.789Z</time></trkpt><trkpt lat="43.450905" lon="12.2747967"><ele>411.0</ele><time>2026-05-02T09:19:43.789Z</time></trkpt><trkpt lat="43.450765" lon="12.27471"><ele>411.0</ele><time>2026-05-02T09:19:44.789Z</time></trkpt><trkpt lat="43.4506367" lon="12.2746167"><ele>411.0</ele><time>2026-05-02T09:19:45.788Z</time></trkpt><trkpt lat="43.45051" lon="12.2745183"><ele>411.0</ele><time>2026-05-02T09:19:46.786Z</time></trkpt><trkpt lat="43.450385" lon="12.2744017"><ele>411.0</ele><time>2026-05-02T09:19:47.786Z</time></trkpt><trkpt lat="43.4502817" lon="12.2742867"><ele>409.6666666666667</ele><time>2026-05-02T09:19:48.786Z</time></trkpt><trkpt lat="43.4501933" lon="12.2741767"><ele>408.33333333333337</ele><time>2026-05-02T09:19:49.786Z</time></trkpt><trkpt lat="43.4501267" lon="12.2740933"><ele>407.0</ele><time>2026-05-02T09:19:50.786Z</time></trkpt><trkpt lat="43.4500783" lon="12.2740317"><ele>405.6666666666667</ele><time>2026-05-02T09:19:51.789Z</time></trkpt><trkpt lat="43.4500117" lon="12.2739817"><ele>404.33333333333337</ele><time>2026-05-02T09:19:53.789Z</time></trkpt><trkpt lat="43.449955" lon="12.2738933"><ele>403.0</ele><time>2026-05-02T09:19:57.786Z</time></trkpt><trkpt lat="43.4498833" lon="12.2737517"><ele>401.8571428571429</ele><time>2026-05-02T09:19:59.787Z</time></trkpt><trkpt lat="43.4498467" lon="12.2736617"><ele>400.71428571428567</ele><time>2026-05-02T09:20:00.786Z</time></trkpt><trkpt lat="43.44982" lon="12.27358"><ele>399.57142857142856</ele><time>2026-05-02T09:20:01.786Z</time></trkpt><trkpt lat="43.4498017" lon="12.2734333"><ele>398.42857142857144</ele><time>2026-05-02T09:20:03.786Z</time></trkpt><trkpt lat="43.449815" lon="12.273345"><ele>397.28571428571433</ele><time>2026-05-02T09:20:04.789Z</time></trkpt><trkpt lat="43.4498317" lon="12.2732583"><ele>396.1428571428571</ele><time>2026-05-02T09:20:05.789Z</time></trkpt><trkpt lat="43.4498517" lon="12.273165"><ele>395.0</ele><time>2026-05-02T09:20:06.879Z</time></trkpt><trkpt lat="43.4498733" lon="12.2730717"><ele>392.99999999999994</ele><time>2026-05-02T09:20:07.786Z</time></trkpt><trkpt lat="43.4498983" lon="12.2729817"><ele>391.0</ele><time>2026-05-02T09:20:08.788Z</time></trkpt><trkpt lat="43.449935" lon="12.2728983"><ele>389.0</ele><time>2026-05-02T09:20:09.789Z</time></trkpt><trkpt lat="43.4499767" lon="12.27282"><ele>387.0</ele><time>2026-05-02T09:20:10.785Z</time></trkpt><trkpt lat="43.4500183" lon="12.2727483"><ele>385.0</ele><time>2026-05-02T09:20:11.786Z</time></trkpt><trkpt lat="43.4500667" lon="12.27261"><ele>383.0</ele><time>2026-05-02T09:20:13.785Z</time></trkpt><trkpt lat="43.4500433" lon="12.27248"><ele>383.0</ele><time>2026-05-02T09:20:15.786Z</time></trkpt><trkpt lat="43.4499867" lon="12.2723517"><ele>383.0</ele><time>2026-05-02T09:20:17.785Z</time></trkpt><trkpt lat="43.4499517" lon="12.272265"><ele>383.0</ele><time>2026-05-02T09:20:18.785Z</time></trkpt><trkpt lat="43.4499167" lon="12.27218"><ele>383.0</ele><time>2026-05-02T09:20:19.786Z</time></trkpt><trkpt lat="43.4498783" lon="12.2721"><ele>383.0</ele><time>2026-05-02T09:20:20.789Z</time></trkpt><trkpt lat="43.4498317" lon="12.2719717"><ele>383.0</ele><time>2026-05-02T09:20:22.789Z</time></trkpt><trkpt lat="43.4497883" lon="12.2718667"><ele>381.5</ele><time>2026-05-02T09:20:24.787Z</time></trkpt><trkpt lat="43.4497383" lon="12.271755"><ele>380.0</ele><time>2026-05-02T09:20:26.786Z</time></trkpt><trkpt lat="43.4496917" lon="12.2716467"><ele>378.5</ele><time>2026-05-02T09:20:28.785Z</time></trkpt><trkpt lat="43.4496583" lon="12.271565"><ele>377.0</ele><time>2026-05-02T09:20:30.787Z</time></trkpt><trkpt lat="43.4496283" lon="12.2714833"><ele>375.5</ele><time>2026-05-02T09:20:32.786Z</time></trkpt><trkpt lat="43.449575" lon="12.27139"><ele>374.0</ele><time>2026-05-02T09:20:35.789Z</time></trkpt><trkpt lat="43.4495383" lon="12.2713067"><ele>372.33333333333337</ele><time>2026-05-02T09:20:37.786Z</time></trkpt><trkpt lat="43.4495033" lon="12.27121"><ele>370.6666666666667</ele><time>2026-05-02T09:20:39.785Z</time></trkpt><trkpt lat="43.4494433" lon="12.2710817"><ele>369.0</ele><time>2026-05-02T09:20:41.786Z</time></trkpt><trkpt lat="43.4494133" lon="12.2710017"><ele>367.3333333333333</ele><time>2026-05-02T09:20:42.787Z</time></trkpt><trkpt lat="43.44938" lon="12.2709183"><ele>365.66666666666663</ele><time>2026-05-02T09:20:43.786Z</time></trkpt><trkpt lat="43.4493467" lon="12.2708383"><ele>364.0</ele><time>2026-05-02T09:20:44.786Z</time></trkpt><trkpt lat="43.4493033" lon="12.2706983"><ele>364.0</ele><time>2026-05-02T09:20:46.786Z</time></trkpt><trkpt lat="43.449275" lon="12.27061"><ele>364.0</ele><time>2026-05-02T09:20:48.787Z</time></trkpt><trkpt lat="43.4492117" lon="12.2705117"><ele>364.0</ele><time>2026-05-02T09:20:51.785Z</time></trkpt><trkpt lat="43.4491617" lon="12.2703883"><ele>364.0</ele><time>2026-05-02T09:20:54.789Z</time></trkpt><trkpt lat="43.4491033" lon="12.27028"><ele>364.0</ele><time>2026-05-02T09:20:56.787Z</time></trkpt><trkpt lat="43.4490683" lon="12.270175"><ele>364.16666666666663</ele><time>2026-05-02T09:20:58.788Z</time></trkpt><trkpt lat="43.44905" lon="12.27004"><ele>364.3333333333333</ele><time>2026-05-02T09:21:00.786Z</time></trkpt><trkpt lat="43.4490317" lon="12.2699417"><ele>364.5</ele><time>2026-05-02T09:21:02.788Z</time></trkpt><trkpt lat="43.4490117" lon="12.269855"><ele>364.6666666666667</ele><time>2026-05-02T09:21:06.789Z</time></trkpt><trkpt lat="43.44898" lon="12.2697567"><ele>364.83333333333337</ele><time>2026-05-02T09:21:10.789Z</time></trkpt><trkpt lat="43.4489683" lon="12.2696683"><ele>365.0</ele><time>2026-05-02T09:21:12.787Z</time></trkpt><trkpt lat="43.4489517" lon="12.2695517"><ele>365.0</ele><time>2026-05-02T09:21:14.786Z</time></trkpt><trkpt lat="43.4489367" lon="12.2694583"><ele>365.0</ele><time>2026-05-02T09:21:16.79Z</time></trkpt><trkpt lat="43.448925" lon="12.2693717"><ele>365.0</ele><time>2026-05-02T09:21:18.789Z</time></trkpt><trkpt lat="43.4489117" lon="12.2692867"><ele>365.0</ele><time>2026-05-02T09:21:20.786Z</time></trkpt><trkpt lat="43.44889" lon="12.2691667"><ele>365.0</ele><time>2026-05-02T09:21:23.789Z</time></trkpt><trkpt lat="43.4488717" lon="12.2690783"><ele>365.0</ele><time>2026-05-02T09:21:25.789Z</time></trkpt><trkpt lat="43.44885" lon="12.2689483"><ele>365.4</ele><time>2026-05-02T09:21:36.789Z</time></trkpt><trkpt lat="43.4488267" lon="12.2688617"><ele>365.8</ele><time>2026-05-02T09:21:39.788Z</time></trkpt><trkpt lat="43.448805" lon="12.26878"><ele>366.20000000000005</ele><time>2026-05-02T09:21:41.79Z</time></trkpt><trkpt lat="43.4487767" lon="12.268615"><ele>366.6</ele><time>2026-05-02T09:21:43.79Z</time></trkpt><trkpt lat="43.4487733" lon="12.2684633"><ele>367.0</ele><time>2026-05-02T09:21:45.785Z</time></trkpt><trkpt lat="43.4487983" lon="12.2682917"><ele>367.16666666666663</ele><time>2026-05-02T09:21:47.787Z</time></trkpt><trkpt lat="43.4488233" lon="12.2682067"><ele>367.3333333333333</ele><time>2026-05-02T09:21:48.786Z</time></trkpt><trkpt lat="43.4488733" lon="12.268065"><ele>367.5</ele><time>2026-05-02T09:21:50.789Z</time></trkpt><trkpt lat="43.4489417" lon="12.2679167"><ele>367.6666666666667</ele><time>2026-05-02T09:21:52.789Z</time></trkpt><trkpt lat="43.4489717" lon="12.2678283"><ele>367.83333333333337</ele><time>2026-05-02T09:21:53.787Z</time></trkpt><trkpt lat="43.4490067" lon="12.267745"><ele>368.0</ele><time>2026-05-02T09:21:54.789Z</time></trkpt><trkpt lat="43.44904" lon="12.2676633"><ele>368.0</ele><time>2026-05-02T09:21:55.786Z</time></trkpt><trkpt lat="43.4490867" lon="12.2675283"><ele>368.0</ele><time>2026-05-02T09:21:57.787Z</time></trkpt><trkpt lat="43.44912" lon="12.26742"><ele>368.0</ele><time>2026-05-02T09:21:59.787Z</time></trkpt><trkpt lat="43.4491083" lon="12.2673067"><ele>368.0</ele><time>2026-05-02T09:22:02.787Z</time></trkpt><trkpt lat="43.4490417" lon="12.2671933"><ele>368.0</ele><time>2026-05-02T09:22:06.786Z</time></trkpt><trkpt lat="43.44901" lon="12.2671167"><ele>368.0</ele><time>2026-05-02T09:22:09.786Z</time></trkpt><trkpt lat="43.4490667" lon="12.2672817"><ele>368.0</ele><time>2026-05-02T09:23:31.788Z</time></trkpt><trkpt lat="43.4491017" lon="12.267375"><ele>368.0</ele><time>2026-05-02T09:23:32.787Z</time></trkpt><trkpt lat="43.4490967" lon="12.2674783"><ele>368.0</ele><time>2026-05-02T09:23:34.789Z</time></trkpt><trkpt lat="43.4490367" lon="12.26762"><ele>368.0</ele><time>2026-05-02T09:23:36.789Z</time></trkpt><trkpt lat="43.449" lon="12.26772"><ele>368.0</ele><time>2026-05-02T09:23:37.786Z</time></trkpt><trkpt lat="43.4489617" lon="12.2678117"><ele>368.0</ele><time>2026-05-02T09:23:38.787Z</time></trkpt><trkpt lat="43.4489317" lon="12.2678933"><ele>368.0</ele><time>2026-05-02T09:23:39.787Z</time></trkpt><trkpt lat="43.4488833" lon="12.2680283"><ele>368.0</ele><time>2026-05-02T09:23:41.788Z</time></trkpt><trkpt lat="43.4488183" lon="12.268115"><ele>368.0</ele><time>2026-05-02T09:23:44.788Z</time></trkpt><trkpt lat="43.4488817" lon="12.2681067"><ele>368.0</ele><time>2026-05-02T09:35:25.789Z</time></trkpt><trkpt lat="43.44894" lon="12.2679917"><ele>368.0</ele><time>2026-05-02T09:35:27.786Z</time></trkpt><trkpt lat="43.4489967" lon="12.267835"><ele>368.0</ele><time>2026-05-02T09:35:29.786Z</time></trkpt><trkpt lat="43.4490283" lon="12.2677583"><ele>368.0</ele><time>2026-05-02T09:35:30.786Z</time></trkpt><trkpt lat="43.4490767" lon="12.2676117"><ele>368.0</ele><time>2026-05-02T09:35:32.786Z</time></trkpt><trkpt lat="43.449115" lon="12.2675067"><ele>368.0</ele><time>2026-05-02T09:35:34.789Z</time></trkpt><trkpt lat="43.449135" lon="12.267415"><ele>368.0</ele><time>2026-05-02T09:35:37.789Z</time></trkpt><trkpt lat="43.4491017" lon="12.267315"><ele>368.0</ele><time>2026-05-02T09:35:39.789Z</time></trkpt><trkpt lat="43.4490483" lon="12.2672033"><ele>368.5</ele><time>2026-05-02T09:35:41.789Z</time></trkpt><trkpt lat="43.4489883" lon="12.267065"><ele>369.0</ele><time>2026-05-02T09:35:43.79Z</time></trkpt><trkpt lat="43.4489333" lon="12.2669117"><ele>369.5</ele><time>2026-05-02T09:35:45.789Z</time></trkpt><trkpt lat="43.4489" lon="12.26676"><ele>370.0</ele><time>2026-05-02T09:35:47.789Z</time></trkpt><trkpt lat="43.44887" lon="12.2666017"><ele>370.0</ele><time>2026-05-02T09:35:49.79Z</time></trkpt><trkpt lat="43.448855" lon="12.2665167"><ele>370.0</ele><time>2026-05-02T09:35:50.789Z</time></trkpt><trkpt lat="43.4488233" lon="12.26636"><ele>370.0</ele><time>2026-05-02T09:35:52.789Z</time></trkpt><trkpt lat="43.4487933" lon="12.2662183"><ele>370.0</ele><time>2026-05-02T09:35:54.789Z</time></trkpt><trkpt lat="43.4487633" lon="12.2660733"><ele>370.0</ele><time>2026-05-02T09:35:56.791Z</time></trkpt><trkpt lat="43.448735" lon="12.2659417"><ele>372.0</ele><time>2026-05-02T09:35:58.79Z</time></trkpt><trkpt lat="43.4487183" lon="12.2658417"><ele>374.0</ele><time>2026-05-02T09:36:00.789Z</time></trkpt><trkpt lat="43.4487" lon="12.26574"><ele>376.0</ele><time>2026-05-02T09:36:03.789Z</time></trkpt><trkpt lat="43.448695" lon="12.2658417"><ele>378.0</ele><time>2026-05-02T09:36:36.788Z</time></trkpt><trkpt lat="43.4487267" lon="12.2659717"><ele>380.0</ele><time>2026-05-02T09:36:37.788Z</time></trkpt><trkpt lat="43.44875" lon="12.26613"><ele>382.0</ele><time>2026-05-02T09:36:38.788Z</time></trkpt><trkpt lat="43.4487767" lon="12.26631"><ele>379.0</ele><time>2026-05-02T09:36:39.788Z</time></trkpt><trkpt lat="43.44881" lon="12.26649"><ele>376.0</ele><time>2026-05-02T09:36:40.789Z</time></trkpt><trkpt lat="43.4488433" lon="12.2666667"><ele>373.0</ele><time>2026-05-02T09:36:41.785Z</time></trkpt><trkpt lat="43.4488833" lon="12.266835"><ele>370.0</ele><time>2026-05-02T09:36:42.788Z</time></trkpt><trkpt lat="43.448935" lon="12.2669867"><ele>370.0</ele><time>2026-05-02T09:36:43.789Z</time></trkpt><trkpt lat="43.4489883" lon="12.267115"><ele>370.0</ele><time>2026-05-02T09:36:44.788Z</time></trkpt><trkpt lat="43.4490933" lon="12.267315"><ele>370.0</ele><time>2026-05-02T09:36:46.789Z</time></trkpt><trkpt lat="43.4491167" lon="12.2674583"><ele>370.0</ele><time>2026-05-02T09:36:48.79Z</time></trkpt><trkpt lat="43.4490617" lon="12.2676267"><ele>369.66666666666663</ele><time>2026-05-02T09:36:50.788Z</time></trkpt><trkpt lat="43.4490167" lon="12.267725"><ele>369.3333333333333</ele><time>2026-05-02T09:36:51.789Z</time></trkpt><trkpt lat="43.4489767" lon="12.2678183"><ele>369.0</ele><time>2026-05-02T09:36:52.789Z</time></trkpt><trkpt lat="43.4489417" lon="12.2679017"><ele>368.6666666666667</ele><time>2026-05-02T09:36:53.789Z</time></trkpt><trkpt lat="43.44889" lon="12.2680317"><ele>368.33333333333337</ele><time>2026-05-02T09:36:55.789Z</time></trkpt><trkpt lat="43.448835" lon="12.2681067"><ele>368.0</ele><time>2026-05-02T09:36:58.788Z</time></trkpt><trkpt lat="43.4489067" lon="12.2680533"><ele>368.0</ele><time>2026-05-02T09:37:13.788Z</time></trkpt><trkpt lat="43.4489433" lon="12.2679767"><ele>368.0</ele><time>2026-05-02T09:37:14.789Z</time></trkpt><trkpt lat="43.448985" lon="12.2678717"><ele>368.0</ele><time>2026-05-02T09:37:15.789Z</time></trkpt><trkpt lat="43.449035" lon="12.2677333"><ele>368.0</ele><time>2026-05-02T09:37:16.788Z</time></trkpt><trkpt lat="43.4490733" lon="12.2676117"><ele>368.0</ele><time>2026-05-02T09:37:17.789Z</time></trkpt><trkpt lat="43.4491033" lon="12.267505"><ele>368.0</ele><time>2026-05-02T09:37:18.786Z</time></trkpt><trkpt lat="43.4491133" lon="12.2674133"><ele>368.0</ele><time>2026-05-02T09:37:19.789Z</time></trkpt><trkpt lat="43.4491017" lon="12.2673217"><ele>368.0</ele><time>2026-05-02T09:37:20.789Z</time></trkpt><trkpt lat="43.4490667" lon="12.26722"><ele>368.0</ele><time>2026-05-02T09:37:21.79Z</time></trkpt><trkpt lat="43.4490133" lon="12.2670967"><ele>368.0</ele><time>2026-05-02T09:37:22.79Z</time></trkpt><trkpt lat="43.4489467" lon="12.2669333"><ele>368.0</ele><time>2026-05-02T09:37:23.79Z</time></trkpt><trkpt lat="43.4488967" lon="12.2667367"><ele>368.6666666666667</ele><time>2026-05-02T09:37:24.789Z</time></trkpt><trkpt lat="43.4488533" lon="12.2665117"><ele>369.3333333333333</ele><time>2026-05-02T09:37:25.789Z</time></trkpt><trkpt lat="43.4488083" lon="12.2662867"><ele>370.0</ele><time>2026-05-02T09:37:26.789Z</time></trkpt><trkpt lat="43.4487667" lon="12.2660883"><ele>372.4</ele><time>2026-05-02T09:37:27.785Z</time></trkpt><trkpt lat="43.4487367" lon="12.2659233"><ele>374.8</ele><time>2026-05-02T09:37:28.786Z</time></trkpt><trkpt lat="43.44871" lon="12.265795"><ele>377.20000000000005</ele><time>2026-05-02T09:37:29.787Z</time></trkpt><trkpt lat="43.4487" lon="12.2656767"><ele>379.6</ele><time>2026-05-02T09:37:30.786Z</time></trkpt><trkpt lat="43.448695" lon="12.26557"><ele>382.0</ele><time>2026-05-02T09:37:31.786Z</time></trkpt><trkpt lat="43.448695" lon="12.2654667"><ele>382.0</ele><time>2026-05-02T09:37:32.786Z</time></trkpt><trkpt lat="43.4487017" lon="12.2653517"><ele>382.0</ele><time>2026-05-02T09:37:33.786Z</time></trkpt><trkpt lat="43.4487133" lon="12.2652233"><ele>382.0</ele><time>2026-05-02T09:37:34.787Z</time></trkpt><trkpt lat="43.4487383" lon="12.2650867"><ele>382.0</ele><time>2026-05-02T09:37:35.787Z</time></trkpt><trkpt lat="43.4487733" lon="12.2649633"><ele>382.0</ele><time>2026-05-02T09:37:36.787Z</time></trkpt><trkpt lat="43.44882" lon="12.26486"><ele>381.75</ele><time>2026-05-02T09:37:37.786Z</time></trkpt><trkpt lat="43.44889" lon="12.264765"><ele>381.5</ele><time>2026-05-02T09:37:38.788Z</time></trkpt><trkpt lat="43.44898" lon="12.26466"><ele>381.25</ele><time>2026-05-02T09:37:39.789Z</time></trkpt><trkpt lat="43.4490833" lon="12.264545"><ele>381.0</ele><time>2026-05-02T09:37:40.789Z</time></trkpt><trkpt lat="43.4491967" lon="12.2644167"><ele>381.0</ele><time>2026-05-02T09:37:41.79Z</time></trkpt><trkpt lat="43.4493067" lon="12.2642917"><ele>381.0</ele><time>2026-05-02T09:37:42.79Z</time></trkpt><trkpt lat="43.44941" lon="12.2641833"><ele>381.0</ele><time>2026-05-02T09:37:43.788Z</time></trkpt><trkpt lat="43.4495033" lon="12.26408"><ele>381.0</ele><time>2026-05-02T09:37:44.788Z</time></trkpt><trkpt lat="43.4495833" lon="12.263965"><ele>379.6</ele><time>2026-05-02T09:37:45.789Z</time></trkpt><trkpt lat="43.4496533" lon="12.2638433"><ele>378.20000000000005</ele><time>2026-05-02T09:37:46.789Z</time></trkpt><trkpt lat="43.4497233" lon="12.2637267"><ele>376.79999999999995</ele><time>2026-05-02T09:37:47.789Z</time></trkpt><trkpt lat="43.449805" lon="12.263635"><ele>375.4</ele><time>2026-05-02T09:37:48.788Z</time></trkpt><trkpt lat="43.4498967" lon="12.2635567"><ele>374.0</ele><time>2026-05-02T09:37:49.79Z</time></trkpt><trkpt lat="43.4499917" lon="12.263485"><ele>374.0</ele><time>2026-05-02T09:37:50.789Z</time></trkpt><trkpt lat="43.4500817" lon="12.2634083"><ele>374.0</ele><time>2026-05-02T09:37:51.789Z</time></trkpt><trkpt lat="43.4501717" lon="12.2633383"><ele>374.0</ele><time>2026-05-02T09:37:52.79Z</time></trkpt><trkpt lat="43.4502617" lon="12.2632767"><ele>374.0</ele><time>2026-05-02T09:37:53.789Z</time></trkpt><trkpt lat="43.45035" lon="12.2632183"><ele>374.0</ele><time>2026-05-02T09:37:54.789Z</time></trkpt><trkpt lat="43.4504367" lon="12.2631317"><ele>373.0</ele><time>2026-05-02T09:37:55.789Z</time></trkpt><trkpt lat="43.4505133" lon="12.2630283"><ele>372.0</ele><time>2026-05-02T09:37:56.788Z</time></trkpt><trkpt lat="43.4505783" lon="12.2629083"><ele>371.0</ele><time>2026-05-02T09:37:57.785Z</time></trkpt><trkpt lat="43.4506333" lon="12.2627717"><ele>370.0</ele><time>2026-05-02T09:37:58.786Z</time></trkpt><trkpt lat="43.450685" lon="12.26263"><ele>369.0</ele><time>2026-05-02T09:37:59.787Z</time></trkpt><trkpt lat="43.450735" lon="12.2624967"><ele>369.0</ele><time>2026-05-02T09:38:00.786Z</time></trkpt><trkpt lat="43.4507817" lon="12.2623817"><ele>369.0</ele><time>2026-05-02T09:38:01.786Z</time></trkpt><trkpt lat="43.4508283" lon="12.262275"><ele>369.0</ele><time>2026-05-02T09:38:02.788Z</time></trkpt><trkpt lat="43.4508717" lon="12.2621633"><ele>369.0</ele><time>2026-05-02T09:38:03.787Z</time></trkpt><trkpt lat="43.4509083" lon="12.262045"><ele>369.0</ele><time>2026-05-02T09:38:04.787Z</time></trkpt><trkpt lat="43.450935" lon="12.2619167"><ele>368.6</ele><time>2026-05-02T09:38:05.788Z</time></trkpt><trkpt lat="43.450955" lon="12.261785"><ele>368.2</ele><time>2026-05-02T09:38:06.785Z</time></trkpt><trkpt lat="43.45097" lon="12.2616483"><ele>367.8</ele><time>2026-05-02T09:38:07.787Z</time></trkpt><trkpt lat="43.4509867" lon="12.261505"><ele>367.40000000000003</ele><time>2026-05-02T09:38:08.79Z</time></trkpt><trkpt lat="43.4510017" lon="12.2613517"><ele>367.0</ele><time>2026-05-02T09:38:09.79Z</time></trkpt><trkpt lat="43.4510233" lon="12.2611817"><ele>365.5</ele><time>2026-05-02T09:38:10.79Z</time></trkpt><trkpt lat="43.4510467" lon="12.2609933"><ele>364.0</ele><time>2026-05-02T09:38:11.789Z</time></trkpt><trkpt lat="43.4510733" lon="12.260805"><ele>362.5</ele><time>2026-05-02T09:38:12.789Z</time></trkpt><trkpt lat="43.4511" lon="12.2606233"><ele>361.0</ele><time>2026-05-02T09:38:13.789Z</time></trkpt><trkpt lat="43.4511267" lon="12.2604583"><ele>359.5</ele><time>2026-05-02T09:38:14.789Z</time></trkpt><trkpt lat="43.4511583" lon="12.2603017"><ele>358.0</ele><time>2026-05-02T09:38:15.789Z</time></trkpt><trkpt lat="43.4511967" lon="12.260145"><ele>356.5</ele><time>2026-05-02T09:38:16.789Z</time></trkpt><trkpt lat="43.4512317" lon="12.2599833"><ele>355.0</ele><time>2026-05-02T09:38:17.789Z</time></trkpt><trkpt lat="43.45126" lon="12.259835"><ele>354.6</ele><time>2026-05-02T09:38:18.789Z</time></trkpt><trkpt lat="43.45127" lon="12.2596967"><ele>354.2</ele><time>2026-05-02T09:38:19.789Z</time></trkpt><trkpt lat="43.4512617" lon="12.2595617"><ele>353.79999999999995</ele><time>2026-05-02T09:38:20.789Z</time></trkpt><trkpt lat="43.4512317" lon="12.2594183"><ele>353.4</ele><time>2026-05-02T09:38:21.789Z</time></trkpt><trkpt lat="43.451185" lon="12.25927"><ele>353.0</ele><time>2026-05-02T09:38:22.79Z</time></trkpt><trkpt lat="43.4511317" lon="12.2591117"><ele>352.5</ele><time>2026-05-02T09:38:23.789Z</time></trkpt><trkpt lat="43.4510767" lon="12.2589467"><ele>352.0</ele><time>2026-05-02T09:38:24.789Z</time></trkpt><trkpt lat="43.4510217" lon="12.2587867"><ele>351.5</ele><time>2026-05-02T09:38:25.789Z</time></trkpt><trkpt lat="43.4509667" lon="12.258635"><ele>351.0</ele><time>2026-05-02T09:38:26.79Z</time></trkpt><trkpt lat="43.4509117" lon="12.2584867"><ele>351.0</ele><time>2026-05-02T09:38:27.786Z</time></trkpt><trkpt lat="43.45086" lon="12.25835"><ele>351.0</ele><time>2026-05-02T09:38:28.787Z</time></trkpt><trkpt lat="43.45082" lon="12.2582367"><ele>351.0</ele><time>2026-05-02T09:38:29.787Z</time></trkpt><trkpt lat="43.4507883" lon="12.2581467"><ele>351.0</ele><time>2026-05-02T09:38:30.787Z</time></trkpt><trkpt lat="43.4507517" lon="12.258005"><ele>351.0</ele><time>2026-05-02T09:38:32.787Z</time></trkpt><trkpt lat="43.450715" lon="12.2578683"><ele>349.5</ele><time>2026-05-02T09:38:34.787Z</time></trkpt><trkpt lat="43.4506783" lon="12.2577283"><ele>348.0</ele><time>2026-05-02T09:38:36.789Z</time></trkpt><trkpt lat="43.4506467" lon="12.2576367"><ele>346.5</ele><time>2026-05-02T09:38:37.786Z</time></trkpt><trkpt lat="43.4506133" lon="12.257535"><ele>345.0</ele><time>2026-05-02T09:38:38.79Z</time></trkpt><trkpt lat="43.4505817" lon="12.257425"><ele>343.5</ele><time>2026-05-02T09:38:39.789Z</time></trkpt><trkpt lat="43.450565" lon="12.25732"><ele>342.0</ele><time>2026-05-02T09:38:40.789Z</time></trkpt><trkpt lat="43.4505567" lon="12.25722"><ele>341.0</ele><time>2026-05-02T09:38:41.789Z</time></trkpt><trkpt lat="43.4505567" lon="12.257125"><ele>340.0</ele><time>2026-05-02T09:38:42.79Z</time></trkpt><trkpt lat="43.450565" lon="12.2570183"><ele>339.0</ele><time>2026-05-02T09:38:43.789Z</time></trkpt><trkpt lat="43.4505833" lon="12.2569"><ele>338.0</ele><time>2026-05-02T09:38:44.789Z</time></trkpt><trkpt lat="43.4506117" lon="12.2567617"><ele>337.0</ele><time>2026-05-02T09:38:45.79Z</time></trkpt><trkpt lat="43.4506467" lon="12.2566217"><ele>336.0</ele><time>2026-05-02T09:38:46.789Z</time></trkpt><trkpt lat="43.4506833" lon="12.256465"><ele>335.0</ele><time>2026-05-02T09:38:47.789Z</time></trkpt><trkpt lat="43.450715" lon="12.2563067"><ele>334.0</ele><time>2026-05-02T09:38:48.787Z</time></trkpt><trkpt lat="43.4507383" lon="12.2561633"><ele>333.0</ele><time>2026-05-02T09:38:49.789Z</time></trkpt><trkpt lat="43.450745" lon="12.2560233"><ele>332.0</ele><time>2026-05-02T09:38:50.788Z</time></trkpt><trkpt lat="43.4507317" lon="12.2558933"><ele>331.0</ele><time>2026-05-02T09:38:51.79Z</time></trkpt><trkpt lat="43.45069" lon="12.2557833"><ele>331.0</ele><time>2026-05-02T09:38:52.789Z</time></trkpt><trkpt lat="43.4506217" lon="12.2556917"><ele>331.0</ele><time>2026-05-02T09:38:53.789Z</time></trkpt><trkpt lat="43.4505217" lon="12.2556267"><ele>331.0</ele><time>2026-05-02T09:38:54.79Z</time></trkpt><trkpt lat="43.4504117" lon="12.2555733"><ele>331.0</ele><time>2026-05-02T09:38:55.789Z</time></trkpt><trkpt lat="43.4503033" lon="12.255525"><ele>331.0</ele><time>2026-05-02T09:38:56.787Z</time></trkpt><trkpt lat="43.4502033" lon="12.2554767"><ele>331.20000000000005</ele><time>2026-05-02T09:38:57.787Z</time></trkpt><trkpt lat="43.4501183" lon="12.25541"><ele>331.40000000000003</ele><time>2026-05-02T09:38:58.789Z</time></trkpt><trkpt lat="43.45005" lon="12.2553167"><ele>331.6</ele><time>2026-05-02T09:38:59.788Z</time></trkpt><trkpt lat="43.4500033" lon="12.2552"><ele>331.8</ele><time>2026-05-02T09:39:00.789Z</time></trkpt><trkpt lat="43.4499767" lon="12.25507"><ele>332.0</ele><time>2026-05-02T09:39:01.788Z</time></trkpt><trkpt lat="43.4499767" lon="12.25493"><ele>332.0</ele><time>2026-05-02T09:39:02.789Z</time></trkpt><trkpt lat="43.4499883" lon="12.2547883"><ele>332.0</ele><time>2026-05-02T09:39:03.788Z</time></trkpt><trkpt lat="43.45" lon="12.25465"><ele>332.0</ele><time>2026-05-02T09:39:04.788Z</time></trkpt><trkpt lat="43.4500067" lon="12.2545183"><ele>332.0</ele><time>2026-05-02T09:39:05.787Z</time></trkpt><trkpt lat="43.4500033" lon="12.2543867"><ele>332.0</ele><time>2026-05-02T09:39:06.787Z</time></trkpt><trkpt lat="43.44998" lon="12.2542417"><ele>329.25</ele><time>2026-05-02T09:39:07.787Z</time></trkpt><trkpt lat="43.44994" lon="12.254085"><ele>326.5</ele><time>2026-05-02T09:39:08.787Z</time></trkpt><trkpt lat="43.44988" lon="12.2539167"><ele>323.75</ele><time>2026-05-02T09:39:09.789Z</time></trkpt><trkpt lat="43.449805" lon="12.253735"><ele>321.0</ele><time>2026-05-02T09:39:10.788Z</time></trkpt><trkpt lat="43.4497233" lon="12.2535483"><ele>320.3333333333333</ele><time>2026-05-02T09:39:11.789Z</time></trkpt><trkpt lat="43.4496417" lon="12.2533583"><ele>319.66666666666663</ele><time>2026-05-02T09:39:12.789Z</time></trkpt><trkpt lat="43.4495717" lon="12.25316"><ele>319.0</ele><time>2026-05-02T09:39:13.789Z</time></trkpt><trkpt lat="43.4495233" lon="12.2529417"><ele>319.0</ele><time>2026-05-02T09:39:14.79Z</time></trkpt><trkpt lat="43.449495" lon="12.2527217"><ele>319.0</ele><time>2026-05-02T09:39:15.789Z</time></trkpt><trkpt lat="43.4494733" lon="12.252515"><ele>319.0</ele><time>2026-05-02T09:39:16.79Z</time></trkpt><trkpt lat="43.4494433" lon="12.2523233"><ele>315.75</ele><time>2026-05-02T09:39:17.789Z</time></trkpt><trkpt lat="43.4493833" lon="12.252155"><ele>312.5</ele><time>2026-05-02T09:39:18.789Z</time></trkpt><trkpt lat="43.4492983" lon="12.252"><ele>309.25</ele><time>2026-05-02T09:39:19.789Z</time></trkpt><trkpt lat="43.4492083" lon="12.2518483"><ele>306.0</ele><time>2026-05-02T09:39:20.79Z</time></trkpt><trkpt lat="43.4491433" lon="12.2516767"><ele>306.0</ele><time>2026-05-02T09:39:21.789Z</time></trkpt><trkpt lat="43.449085" lon="12.2514883"><ele>306.0</ele><time>2026-05-02T09:39:22.789Z</time></trkpt><trkpt lat="43.4490333" lon="12.2512983"><ele>306.0</ele><time>2026-05-02T09:39:23.789Z</time></trkpt><trkpt lat="43.448995" lon="12.2511217"><ele>306.0</ele><time>2026-05-02T09:39:24.79Z</time></trkpt><trkpt lat="43.4489667" lon="12.2509683"><ele>302.8</ele><time>2026-05-02T09:39:25.79Z</time></trkpt><trkpt lat="43.4489583" lon="12.2508383"><ele>299.6</ele><time>2026-05-02T09:39:26.787Z</time></trkpt><trkpt lat="43.4489767" lon="12.2507267"><ele>296.4</ele><time>2026-05-02T09:39:27.786Z</time></trkpt><trkpt lat="43.44902" lon="12.250625"><ele>293.2</ele><time>2026-05-02T09:39:28.787Z</time></trkpt><trkpt lat="43.4490983" lon="12.2505383"><ele>290.0</ele><time>2026-05-02T09:39:29.788Z</time></trkpt><trkpt lat="43.4492167" lon="12.2504483"><ele>288.75</ele><time>2026-05-02T09:39:30.787Z</time></trkpt><trkpt lat="43.4493383" lon="12.250355"><ele>287.5</ele><time>2026-05-02T09:39:31.785Z</time></trkpt><trkpt lat="43.4494517" lon="12.25027"><ele>286.25</ele><time>2026-05-02T09:39:32.787Z</time></trkpt><trkpt lat="43.44954" lon="12.2501917"><ele>285.0</ele><time>2026-05-02T09:39:33.786Z</time></trkpt><trkpt lat="43.44961" lon="12.2501217"><ele>284.8333333333333</ele><time>2026-05-02T09:39:34.786Z</time></trkpt><trkpt lat="43.4496633" lon="12.2500633"><ele>284.6666666666667</ele><time>2026-05-02T09:39:35.788Z</time></trkpt><trkpt lat="43.449725" lon="12.249995"><ele>284.5</ele><time>2026-05-02T09:39:37.789Z</time></trkpt><trkpt lat="43.44981" lon="12.2499517"><ele>284.33333333333337</ele><time>2026-05-02T09:39:39.788Z</time></trkpt><trkpt lat="43.4498967" lon="12.2499317"><ele>284.1666666666667</ele><time>2026-05-02T09:39:40.789Z</time></trkpt><trkpt lat="43.4500067" lon="12.2499067"><ele>284.0</ele><time>2026-05-02T09:39:41.789Z</time></trkpt><trkpt lat="43.4501317" lon="12.249875"><ele>284.0</ele><time>2026-05-02T09:39:42.789Z</time></trkpt><trkpt lat="43.4502717" lon="12.24984"><ele>284.0</ele><time>2026-05-02T09:39:43.788Z</time></trkpt><trkpt lat="43.4504217" lon="12.2498017"><ele>284.0</ele><time>2026-05-02T09:39:44.788Z</time></trkpt><trkpt lat="43.4505833" lon="12.2497583"><ele>284.0</ele><time>2026-05-02T09:39:45.789Z</time></trkpt><trkpt lat="43.45075" lon="12.2497117"><ele>284.0</ele><time>2026-05-02T09:39:46.788Z</time></trkpt><trkpt lat="43.45092" lon="12.2496617"><ele>284.0</ele><time>2026-05-02T09:39:47.788Z</time></trkpt><trkpt lat="43.4510883" lon="12.2496167"><ele>284.0</ele><time>2026-05-02T09:39:48.789Z</time></trkpt><trkpt lat="43.451245" lon="12.249575"><ele>284.0</ele><time>2026-05-02T09:39:49.789Z</time></trkpt><trkpt lat="43.4513917" lon="12.2495367"><ele>284.0</ele><time>2026-05-02T09:39:50.788Z</time></trkpt><trkpt lat="43.4515217" lon="12.2495033"><ele>284.0</ele><time>2026-05-02T09:39:51.788Z</time></trkpt><trkpt lat="43.4516333" lon="12.249475"><ele>283.59999999999997</ele><time>2026-05-02T09:39:52.789Z</time></trkpt><trkpt lat="43.4517233" lon="12.2494467"><ele>283.2</ele><time>2026-05-02T09:39:53.791Z</time></trkpt><trkpt lat="43.45179" lon="12.2494067"><ele>282.79999999999995</ele><time>2026-05-02T09:39:54.788Z</time></trkpt><trkpt lat="43.4518567" lon="12.249285"><ele>282.4</ele><time>2026-05-02T09:39:56.785Z</time></trkpt><trkpt lat="43.4518517" lon="12.249175"><ele>282.0</ele><time>2026-05-02T09:39:57.788Z</time></trkpt><trkpt lat="43.45184" lon="12.2490467"><ele>282.0</ele><time>2026-05-02T09:39:58.788Z</time></trkpt><trkpt lat="43.4518017" lon="12.24887"><ele>282.0</ele><time>2026-05-02T09:39:59.789Z</time></trkpt><trkpt lat="43.45177" lon="12.2486917"><ele>282.0</ele><time>2026-05-02T09:40:00.787Z</time></trkpt><trkpt lat="43.4517417" lon="12.2485167"><ele>282.0</ele><time>2026-05-02T09:40:01.788Z</time></trkpt><trkpt lat="43.451715" lon="12.2483333"><ele>282.0</ele><time>2026-05-02T09:40:02.789Z</time></trkpt><trkpt lat="43.45169" lon="12.2481283"><ele>282.0</ele><time>2026-05-02T09:40:03.789Z</time></trkpt><trkpt lat="43.4516633" lon="12.2479033"><ele>282.0</ele><time>2026-05-02T09:40:04.79Z</time></trkpt><trkpt lat="43.4516267" lon="12.247675"><ele>282.0</ele><time>2026-05-02T09:40:05.789Z</time></trkpt><trkpt lat="43.45158" lon="12.2474783"><ele>282.0</ele><time>2026-05-02T09:40:06.788Z</time></trkpt><trkpt lat="43.4515317" lon="12.24731"><ele>282.0</ele><time>2026-05-02T09:40:07.789Z</time></trkpt><trkpt lat="43.4514733" lon="12.247155"><ele>282.0</ele><time>2026-05-02T09:40:08.789Z</time></trkpt><trkpt lat="43.4514067" lon="12.246995"><ele>282.0</ele><time>2026-05-02T09:40:09.789Z</time></trkpt><trkpt lat="43.4513333" lon="12.246825"><ele>282.0</ele><time>2026-05-02T09:40:10.786Z</time></trkpt><trkpt lat="43.4512633" lon="12.246655"><ele>282.0</ele><time>2026-05-02T09:40:11.789Z</time></trkpt><trkpt lat="43.4512067" lon="12.246505"><ele>282.0</ele><time>2026-05-02T09:40:12.786Z</time></trkpt><trkpt lat="43.451175" lon="12.246385"><ele>281.8</ele><time>2026-05-02T09:40:13.788Z</time></trkpt><trkpt lat="43.45115" lon="12.24629"><ele>281.6</ele><time>2026-05-02T09:40:14.789Z</time></trkpt><trkpt lat="43.4511467" lon="12.2461833"><ele>281.40000000000003</ele><time>2026-05-02T09:40:16.79Z</time></trkpt><trkpt lat="43.4512167" lon="12.246015"><ele>281.2</ele><time>2026-05-02T09:40:18.788Z</time></trkpt><trkpt lat="43.4512983" lon="12.2459283"><ele>281.0</ele><time>2026-05-02T09:40:19.788Z</time></trkpt><trkpt lat="43.4514033" lon="12.2458483"><ele>281.0</ele><time>2026-05-02T09:40:20.789Z</time></trkpt><trkpt lat="43.4515133" lon="12.2457683"><ele>281.0</ele><time>2026-05-02T09:40:21.789Z</time></trkpt><trkpt lat="43.451635" lon="12.24568"><ele>281.0</ele><time>2026-05-02T09:40:22.789Z</time></trkpt><trkpt lat="43.4517617" lon="12.2455867"><ele>281.0</ele><time>2026-05-02T09:40:23.789Z</time></trkpt><trkpt lat="43.4518933" lon="12.2454867"><ele>280.6666666666667</ele><time>2026-05-02T09:40:24.788Z</time></trkpt><trkpt lat="43.452035" lon="12.245385"><ele>280.3333333333333</ele><time>2026-05-02T09:40:25.789Z</time></trkpt><trkpt lat="43.4521783" lon="12.2452833"><ele>280.0</ele><time>2026-05-02T09:40:26.788Z</time></trkpt><trkpt lat="43.4523267" lon="12.2451783"><ele>280.66666666666663</ele><time>2026-05-02T09:40:27.788Z</time></trkpt><trkpt lat="43.452475" lon="12.2450717"><ele>281.3333333333333</ele><time>2026-05-02T09:40:28.789Z</time></trkpt><trkpt lat="43.4526267" lon="12.2449617"><ele>282.0</ele><time>2026-05-02T09:40:29.79Z</time></trkpt><trkpt lat="43.452775" lon="12.2448533"><ele>282.0</ele><time>2026-05-02T09:40:30.788Z</time></trkpt><trkpt lat="43.4529183" lon="12.244745"><ele>282.0</ele><time>2026-05-02T09:40:31.788Z</time></trkpt><trkpt lat="43.45305" lon="12.2446483"><ele>282.0</ele><time>2026-05-02T09:40:32.789Z</time></trkpt><trkpt lat="43.4531717" lon="12.2445633"><ele>282.0</ele><time>2026-05-02T09:40:33.789Z</time></trkpt><trkpt lat="43.4532783" lon="12.244485"><ele>282.0</ele><time>2026-05-02T09:40:34.789Z</time></trkpt><trkpt lat="43.4533783" lon="12.2444133"><ele>282.0</ele><time>2026-05-02T09:40:35.792Z</time></trkpt><trkpt lat="43.4534717" lon="12.2443483"><ele>282.0</ele><time>2026-05-02T09:40:36.789Z</time></trkpt><trkpt lat="43.4535583" lon="12.24429"><ele>282.0</ele><time>2026-05-02T09:40:37.788Z</time></trkpt><trkpt lat="43.4536383" lon="12.2442283"><ele>282.0</ele><time>2026-05-02T09:40:38.789Z</time></trkpt><trkpt lat="43.453715" lon="12.2441717"><ele>282.0</ele><time>2026-05-02T09:40:39.79Z</time></trkpt><trkpt lat="43.4537867" lon="12.244115"><ele>282.0</ele><time>2026-05-02T09:40:40.789Z</time></trkpt><trkpt lat="43.4538533" lon="12.2440533"><ele>282.0</ele><time>2026-05-02T09:40:41.79Z</time></trkpt><trkpt lat="43.4539133" lon="12.244005"><ele>282.0</ele><time>2026-05-02T09:40:42.789Z</time></trkpt><trkpt lat="43.4540217" lon="12.2439333"><ele>282.0</ele><time>2026-05-02T09:40:44.788Z</time></trkpt><trkpt lat="43.454135" lon="12.2438717"><ele>283.0</ele><time>2026-05-02T09:40:46.789Z</time></trkpt><trkpt lat="43.4542283" lon="12.243795"><ele>284.0</ele><time>2026-05-02T09:40:48.79Z</time></trkpt><trkpt lat="43.4543117" lon="12.24369"><ele>285.0</ele><time>2026-05-02T09:40:50.789Z</time></trkpt><trkpt lat="43.45429" lon="12.243565"><ele>286.0</ele><time>2026-05-02T09:40:52.788Z</time></trkpt><trkpt lat="43.4542417" lon="12.2434733"><ele>287.0</ele><time>2026-05-02T09:40:53.789Z</time></trkpt><trkpt lat="43.454175" lon="12.2433483"><ele>287.0</ele><time>2026-05-02T09:40:54.789Z</time></trkpt><trkpt lat="43.4541" lon="12.243195"><ele>287.0</ele><time>2026-05-02T09:40:55.786Z</time></trkpt><trkpt lat="43.45402" lon="12.2430283"><ele>287.0</ele><time>2026-05-02T09:40:56.786Z</time></trkpt><trkpt lat="43.4539433" lon="12.2428767"><ele>287.0</ele><time>2026-05-02T09:40:57.79Z</time></trkpt><trkpt lat="43.4538633" lon="12.2427583"><ele>286.2</ele><time>2026-05-02T09:40:58.789Z</time></trkpt><trkpt lat="43.4537883" lon="12.242655"><ele>285.4</ele><time>2026-05-02T09:40:59.786Z</time></trkpt><trkpt lat="43.4537233" lon="12.2425583"><ele>284.6</ele><time>2026-05-02T09:41:00.789Z</time></trkpt><trkpt lat="43.4536667" lon="12.2424567"><ele>283.8</ele><time>2026-05-02T09:41:01.785Z</time></trkpt><trkpt lat="43.4536133" lon="12.242345"><ele>283.0</ele><time>2026-05-02T09:41:02.786Z</time></trkpt><trkpt lat="43.453595" lon="12.2422233"><ele>283.0</ele><time>2026-05-02T09:41:03.787Z</time></trkpt><trkpt lat="43.4535917" lon="12.2421017"><ele>283.0</ele><time>2026-05-02T09:41:04.788Z</time></trkpt><trkpt lat="43.453605" lon="12.2419667"><ele>283.0</ele><time>2026-05-02T09:41:05.786Z</time></trkpt><trkpt lat="43.4536117" lon="12.2418383"><ele>283.0</ele><time>2026-05-02T09:41:06.789Z</time></trkpt><trkpt lat="43.4536283" lon="12.2417083"><ele>283.0</ele><time>2026-05-02T09:41:07.785Z</time></trkpt><trkpt lat="43.4536367" lon="12.2415783"><ele>282.6</ele><time>2026-05-02T09:41:08.788Z</time></trkpt><trkpt lat="43.453645" lon="12.2414517"><ele>282.20000000000005</ele><time>2026-05-02T09:41:09.788Z</time></trkpt><trkpt lat="43.4536567" lon="12.2413233"><ele>281.8</ele><time>2026-05-02T09:41:10.788Z</time></trkpt><trkpt lat="43.4536733" lon="12.2411933"><ele>281.40000000000003</ele><time>2026-05-02T09:41:11.788Z</time></trkpt><trkpt lat="43.4536883" lon="12.24106"><ele>281.0</ele><time>2026-05-02T09:41:12.789Z</time></trkpt><trkpt lat="43.4537033" lon="12.2409267"><ele>281.0</ele><time>2026-05-02T09:41:13.789Z</time></trkpt><trkpt lat="43.4537167" lon="12.2407917"><ele>281.0</ele><time>2026-05-02T09:41:14.788Z</time></trkpt><trkpt lat="43.4537283" lon="12.2406617"><ele>281.0</ele><time>2026-05-02T09:41:15.788Z</time></trkpt><trkpt lat="43.4537383" lon="12.2405367"><ele>281.0</ele><time>2026-05-02T09:41:16.789Z</time></trkpt><trkpt lat="43.4537483" lon="12.240415"><ele>281.0</ele><time>2026-05-02T09:41:17.788Z</time></trkpt><trkpt lat="43.4537617" lon="12.2402967"><ele>281.0</ele><time>2026-05-02T09:41:18.789Z</time></trkpt><trkpt lat="43.4537767" lon="12.240165"><ele>281.0</ele><time>2026-05-02T09:41:19.788Z</time></trkpt><trkpt lat="43.4537867" lon="12.2400383"><ele>281.0</ele><time>2026-05-02T09:41:20.789Z</time></trkpt><trkpt lat="43.4537983" lon="12.2399067"><ele>281.0</ele><time>2026-05-02T09:41:21.788Z</time></trkpt><trkpt lat="43.4538083" lon="12.23979"><ele>281.0</ele><time>2026-05-02T09:41:22.788Z</time></trkpt><trkpt lat="43.4538167" lon="12.2396667"><ele>281.0</ele><time>2026-05-02T09:41:23.791Z</time></trkpt><trkpt lat="43.4538233" lon="12.2395467"><ele>281.0</ele><time>2026-05-02T09:41:24.788Z</time></trkpt><trkpt lat="43.453835" lon="12.239425"><ele>281.0</ele><time>2026-05-02T09:41:25.788Z</time></trkpt><trkpt lat="43.4538467" lon="12.2393033"><ele>281.0</ele><time>2026-05-02T09:41:26.789Z</time></trkpt><trkpt lat="43.4538583" lon="12.2391783"><ele>281.0</ele><time>2026-05-02T09:41:27.788Z</time></trkpt><trkpt lat="43.453865" lon="12.2390633"><ele>281.0</ele><time>2026-05-02T09:41:28.788Z</time></trkpt><trkpt lat="43.4538667" lon="12.2389467"><ele>281.0</ele><time>2026-05-02T09:41:29.789Z</time></trkpt><trkpt lat="43.4538733" lon="12.2388317"><ele>281.0</ele><time>2026-05-02T09:41:30.789Z</time></trkpt><trkpt lat="43.4538833" lon="12.2387167"><ele>281.0</ele><time>2026-05-02T09:41:31.788Z</time></trkpt><trkpt lat="43.4538933" lon="12.2386033"><ele>281.0</ele><time>2026-05-02T09:41:32.789Z</time></trkpt><trkpt lat="43.4539033" lon="12.2384883"><ele>281.0</ele><time>2026-05-02T09:41:33.788Z</time></trkpt><trkpt lat="43.4539167" lon="12.2383567"><ele>281.0</ele><time>2026-05-02T09:41:34.789Z</time></trkpt><trkpt lat="43.4539283" lon="12.2382283"><ele>281.33333333333337</ele><time>2026-05-02T09:41:35.79Z</time></trkpt><trkpt lat="43.4539317" lon="12.2381217"><ele>281.6666666666667</ele><time>2026-05-02T09:41:36.786Z</time></trkpt><trkpt lat="43.45394" lon="12.2380167"><ele>282.0</ele><time>2026-05-02T09:41:37.789Z</time></trkpt><trkpt lat="43.453945" lon="12.2379117"><ele>282.3333333333333</ele><time>2026-05-02T09:41:38.786Z</time></trkpt><trkpt lat="43.45395" lon="12.2378033"><ele>282.66666666666663</ele><time>2026-05-02T09:41:39.789Z</time></trkpt><trkpt lat="43.4539483" lon="12.2376867"><ele>283.0</ele><time>2026-05-02T09:41:40.786Z</time></trkpt><trkpt lat="43.453945" lon="12.2375583"><ele>283.0</ele><time>2026-05-02T09:41:41.789Z</time></trkpt><trkpt lat="43.453935" lon="12.2374333"><ele>283.0</ele><time>2026-05-02T09:41:42.788Z</time></trkpt><trkpt lat="43.4539283" lon="12.237325"><ele>283.0</ele><time>2026-05-02T09:41:43.787Z</time></trkpt><trkpt lat="43.453925" lon="12.2372317"><ele>283.0</ele><time>2026-05-02T09:41:44.786Z</time></trkpt><trkpt lat="43.45392" lon="12.2370717"><ele>283.0</ele><time>2026-05-02T09:41:46.791Z</time></trkpt><trkpt lat="43.453885" lon="12.2369367"><ele>282.6</ele><time>2026-05-02T09:41:48.787Z</time></trkpt><trkpt lat="43.4538017" lon="12.236885"><ele>282.20000000000005</ele><time>2026-05-02T09:41:50.789Z</time></trkpt><trkpt lat="43.4536783" lon="12.236945"><ele>281.8</ele><time>2026-05-02T09:41:52.789Z</time></trkpt><trkpt lat="43.4536033" lon="12.2369717"><ele>281.40000000000003</ele><time>2026-05-02T09:41:53.789Z</time></trkpt><trkpt lat="43.4535183" lon="12.2369867"><ele>281.0</ele><time>2026-05-02T09:41:54.789Z</time></trkpt><trkpt lat="43.4534367" lon="12.23698"><ele>280.25</ele><time>2026-05-02T09:41:55.787Z</time></trkpt><trkpt lat="43.4533483" lon="12.236935"><ele>279.5</ele><time>2026-05-02T09:41:56.786Z</time></trkpt><trkpt lat="43.4532517" lon="12.23687"><ele>278.75</ele><time>2026-05-02T09:41:57.79Z</time></trkpt><trkpt lat="43.4531367" lon="12.236795"><ele>278.0</ele><time>2026-05-02T09:41:58.787Z</time></trkpt><trkpt lat="43.4529983" lon="12.2367"><ele>278.6666666666667</ele><time>2026-05-02T09:41:59.787Z</time></trkpt><trkpt lat="43.452835" lon="12.23658"><ele>279.3333333333333</ele><time>2026-05-02T09:42:00.789Z</time></trkpt><trkpt lat="43.4526633" lon="12.236445"><ele>280.0</ele><time>2026-05-02T09:42:01.789Z</time></trkpt><trkpt lat="43.4525017" lon="12.236315"><ele>280.25</ele><time>2026-05-02T09:42:02.79Z</time></trkpt><trkpt lat="43.45236" lon="12.236205"><ele>280.5</ele><time>2026-05-02T09:42:03.789Z</time></trkpt><trkpt lat="43.45224" lon="12.236115"><ele>280.75</ele><time>2026-05-02T09:42:04.789Z</time></trkpt><trkpt lat="43.4521433" lon="12.236025"><ele>281.0</ele><time>2026-05-02T09:42:05.787Z</time></trkpt><trkpt lat="43.4520667" lon="12.2359367"><ele>283.0</ele><time>2026-05-02T09:42:06.787Z</time></trkpt><trkpt lat="43.4520133" lon="12.2358667"><ele>285.0</ele><time>2026-05-02T09:42:07.789Z</time></trkpt><trkpt lat="43.4518933" lon="12.23581"><ele>287.0</ele><time>2026-05-02T09:42:09.79Z</time></trkpt><trkpt lat="43.4518217" lon="12.235835"><ele>289.0</ele><time>2026-05-02T09:42:10.79Z</time></trkpt><trkpt lat="43.45174" lon="12.2359033"><ele>291.0</ele><time>2026-05-02T09:42:11.79Z</time></trkpt><trkpt lat="43.45165" lon="12.235995"><ele>291.0</ele><time>2026-05-02T09:42:12.789Z</time></trkpt><trkpt lat="43.45155" lon="12.23611"><ele>291.0</ele><time>2026-05-02T09:42:13.79Z</time></trkpt><trkpt lat="43.4514467" lon="12.2362233"><ele>291.0</ele><time>2026-05-02T09:42:14.789Z</time></trkpt><trkpt lat="43.4513433" lon="12.2363417"><ele>291.0</ele><time>2026-05-02T09:42:15.789Z</time></trkpt><trkpt lat="43.451245" lon="12.236455"><ele>290.5</ele><time>2026-05-02T09:42:16.791Z</time></trkpt><trkpt lat="43.4511483" lon="12.2365633"><ele>290.0</ele><time>2026-05-02T09:42:17.79Z</time></trkpt><trkpt lat="43.451055" lon="12.2366717"><ele>289.5</ele><time>2026-05-02T09:42:18.789Z</time></trkpt><trkpt lat="43.450975" lon="12.2367783"><ele>289.0</ele><time>2026-05-02T09:42:19.789Z</time></trkpt><trkpt lat="43.4509017" lon="12.2368783"><ele>289.0</ele><time>2026-05-02T09:42:20.79Z</time></trkpt><trkpt lat="43.4508283" lon="12.2369833"><ele>289.0</ele><time>2026-05-02T09:42:21.79Z</time></trkpt><trkpt lat="43.4507433" lon="12.2370933"><ele>289.0</ele><time>2026-05-02T09:42:22.789Z</time></trkpt><trkpt lat="43.4506467" lon="12.237215"><ele>289.0</ele><time>2026-05-02T09:42:23.79Z</time></trkpt><trkpt lat="43.450545" lon="12.23734"><ele>289.75</ele><time>2026-05-02T09:42:24.791Z</time></trkpt><trkpt lat="43.45045" lon="12.237485"><ele>290.5</ele><time>2026-05-02T09:42:25.789Z</time></trkpt><trkpt lat="43.4503517" lon="12.2376267"><ele>291.25</ele><time>2026-05-02T09:42:26.789Z</time></trkpt><trkpt lat="43.4502517" lon="12.2377683"><ele>292.0</ele><time>2026-05-02T09:42:27.79Z</time></trkpt><trkpt lat="43.4501533" lon="12.23791"><ele>292.0</ele><time>2026-05-02T09:42:28.789Z</time></trkpt><trkpt lat="43.4500567" lon="12.2380317"><ele>292.0</ele><time>2026-05-02T09:42:29.786Z</time></trkpt><trkpt lat="43.44996" lon="12.238125"><ele>292.0</ele><time>2026-05-02T09:42:30.789Z</time></trkpt><trkpt lat="43.4498617" lon="12.238185"><ele>292.0</ele><time>2026-05-02T09:42:31.787Z</time></trkpt><trkpt lat="43.4497633" lon="12.23822"><ele>291.4</ele><time>2026-05-02T09:42:32.789Z</time></trkpt><trkpt lat="43.44966" lon="12.2382183"><ele>290.79999999999995</ele><time>2026-05-02T09:42:33.789Z</time></trkpt><trkpt lat="43.449555" lon="12.2381917"><ele>290.2</ele><time>2026-05-02T09:42:34.788Z</time></trkpt><trkpt lat="43.449445" lon="12.2381483"><ele>289.59999999999997</ele><time>2026-05-02T09:42:35.789Z</time></trkpt><trkpt lat="43.44933" lon="12.238105"><ele>289.0</ele><time>2026-05-02T09:42:36.786Z</time></trkpt><trkpt lat="43.4492033" lon="12.238065"><ele>290.0</ele><time>2026-05-02T09:42:37.785Z</time></trkpt><trkpt lat="43.4490767" lon="12.2380383"><ele>291.0</ele><time>2026-05-02T09:42:38.786Z</time></trkpt><trkpt lat="43.4489467" lon="12.2380317"><ele>292.0</ele><time>2026-05-02T09:42:39.786Z</time></trkpt><trkpt lat="43.4488083" lon="12.2380483"><ele>293.0</ele><time>2026-05-02T09:42:40.787Z</time></trkpt><trkpt lat="43.4486667" lon="12.2380883"><ele>293.0</ele><time>2026-05-02T09:42:41.787Z</time></trkpt><trkpt lat="43.4485167" lon="12.2381317"><ele>293.0</ele><time>2026-05-02T09:42:42.785Z</time></trkpt><trkpt lat="43.4483533" lon="12.2381833"><ele>293.0</ele><time>2026-05-02T09:42:43.787Z</time></trkpt><trkpt lat="43.448185" lon="12.2382367"><ele>292.0</ele><time>2026-05-02T09:42:44.786Z</time></trkpt><trkpt lat="43.44801" lon="12.238295"><ele>291.0</ele><time>2026-05-02T09:42:45.787Z</time></trkpt><trkpt lat="43.4478267" lon="12.2383617"><ele>290.0</ele><time>2026-05-02T09:42:46.786Z</time></trkpt><trkpt lat="43.4476333" lon="12.23843"><ele>290.0</ele><time>2026-05-02T09:42:47.786Z</time></trkpt><trkpt lat="43.447435" lon="12.2384933"><ele>290.0</ele><time>2026-05-02T09:42:48.787Z</time></trkpt><trkpt lat="43.4472367" lon="12.238555"><ele>290.0</ele><time>2026-05-02T09:42:49.786Z</time></trkpt><trkpt lat="43.4470333" lon="12.2386167"><ele>291.33333333333337</ele><time>2026-05-02T09:42:50.786Z</time></trkpt><trkpt lat="43.44683" lon="12.2386767"><ele>292.6666666666667</ele><time>2026-05-02T09:42:51.787Z</time></trkpt><trkpt lat="43.4466183" lon="12.2387433"><ele>294.0</ele><time>2026-05-02T09:42:52.786Z</time></trkpt><trkpt lat="43.44641" lon="12.2388167"><ele>295.3333333333333</ele><time>2026-05-02T09:42:53.786Z</time></trkpt><trkpt lat="43.4462033" lon="12.2388867"><ele>296.66666666666663</ele><time>2026-05-02T09:42:54.786Z</time></trkpt><trkpt lat="43.446005" lon="12.2389467"><ele>298.0</ele><time>2026-05-02T09:42:55.789Z</time></trkpt><trkpt lat="43.4458083" lon="12.2389967"><ele>295.66666666666663</ele><time>2026-05-02T09:42:56.788Z</time></trkpt><trkpt lat="43.4456033" lon="12.2390267"><ele>293.3333333333333</ele><time>2026-05-02T09:42:57.786Z</time></trkpt><trkpt lat="43.4453917" lon="12.2390383"><ele>291.0</ele><time>2026-05-02T09:42:58.787Z</time></trkpt><trkpt lat="43.4451717" lon="12.2390367"><ele>291.0</ele><time>2026-05-02T09:42:59.788Z</time></trkpt><trkpt lat="43.4449433" lon="12.2390483"><ele>291.0</ele><time>2026-05-02T09:43:00.789Z</time></trkpt><trkpt lat="43.444705" lon="12.2390817"><ele>291.5</ele><time>2026-05-02T09:43:01.788Z</time></trkpt><trkpt lat="43.4444633" lon="12.2391317"><ele>292.0</ele><time>2026-05-02T09:43:02.785Z</time></trkpt><trkpt lat="43.4442183" lon="12.2391867"><ele>292.0</ele><time>2026-05-02T09:43:03.788Z</time></trkpt><trkpt lat="43.4439717" lon="12.2392433"><ele>292.0</ele><time>2026-05-02T09:43:04.787Z</time></trkpt><trkpt lat="43.4437233" lon="12.2392967"><ele>291.5</ele><time>2026-05-02T09:43:05.788Z</time></trkpt><trkpt lat="43.4434783" lon="12.2393517"><ele>291.0</ele><time>2026-05-02T09:43:06.788Z</time></trkpt><trkpt lat="43.4432333" lon="12.2394067"><ele>291.0</ele><time>2026-05-02T09:43:07.788Z</time></trkpt><trkpt lat="43.4429917" lon="12.2394617"><ele>291.0</ele><time>2026-05-02T09:43:08.788Z</time></trkpt><trkpt lat="43.4427583" lon="12.2395117"><ele>291.3333333333333</ele><time>2026-05-02T09:43:09.785Z</time></trkpt><trkpt lat="43.4425383" lon="12.2395633"><ele>291.66666666666663</ele><time>2026-05-02T09:43:10.788Z</time></trkpt><trkpt lat="43.44233" lon="12.2396117"><ele>292.0</ele><time>2026-05-02T09:43:11.788Z</time></trkpt><trkpt lat="43.4421317" lon="12.2396733"><ele>292.3333333333333</ele><time>2026-05-02T09:43:12.788Z</time></trkpt><trkpt lat="43.441935" lon="12.2397633"><ele>292.6666666666667</ele><time>2026-05-02T09:43:13.785Z</time></trkpt><trkpt lat="43.4417383" lon="12.2398833"><ele>293.0</ele><time>2026-05-02T09:43:14.788Z</time></trkpt><trkpt lat="43.44154" lon="12.240035"><ele>293.0</ele><time>2026-05-02T09:43:15.789Z</time></trkpt><trkpt lat="43.44134" lon="12.2402133"><ele>293.0</ele><time>2026-05-02T09:43:16.788Z</time></trkpt><trkpt lat="43.4411383" lon="12.2404083"><ele>292.5</ele><time>2026-05-02T09:43:17.789Z</time></trkpt><trkpt lat="43.440945" lon="12.2406"><ele>292.0</ele><time>2026-05-02T09:43:18.788Z</time></trkpt><trkpt lat="43.4407567" lon="12.2407833"><ele>292.0</ele><time>2026-05-02T09:43:19.789Z</time></trkpt><trkpt lat="43.4405717" lon="12.2409567"><ele>292.0</ele><time>2026-05-02T09:43:20.786Z</time></trkpt><trkpt lat="43.4403883" lon="12.2411233"><ele>292.0</ele><time>2026-05-02T09:43:21.789Z</time></trkpt><trkpt lat="43.440205" lon="12.2412883"><ele>291.0</ele><time>2026-05-02T09:43:22.788Z</time></trkpt><trkpt lat="43.4400233" lon="12.2414617"><ele>290.0</ele><time>2026-05-02T09:43:23.789Z</time></trkpt><trkpt lat="43.4398467" lon="12.241625"><ele>289.0</ele><time>2026-05-02T09:43:24.789Z</time></trkpt><trkpt lat="43.4396783" lon="12.2417833"><ele>288.66666666666663</ele><time>2026-05-02T09:43:25.788Z</time></trkpt><trkpt lat="43.4395233" lon="12.2419217"><ele>288.3333333333333</ele><time>2026-05-02T09:43:26.787Z</time></trkpt><trkpt lat="43.4393767" lon="12.2420433"><ele>288.0</ele><time>2026-05-02T09:43:27.789Z</time></trkpt><trkpt lat="43.4392283" lon="12.2421383"><ele>288.0</ele><time>2026-05-02T09:43:28.788Z</time></trkpt><trkpt lat="43.439075" lon="12.242195"><ele>288.0</ele><time>2026-05-02T09:43:29.79Z</time></trkpt><trkpt lat="43.4389117" lon="12.2422083"><ele>288.0</ele><time>2026-05-02T09:43:30.788Z</time></trkpt><trkpt lat="43.4387567" lon="12.2421717"><ele>288.0</ele><time>2026-05-02T09:43:31.786Z</time></trkpt><trkpt lat="43.4386083" lon="12.242095"><ele>288.0</ele><time>2026-05-02T09:43:32.789Z</time></trkpt><trkpt lat="43.4384717" lon="12.2419767"><ele>288.0</ele><time>2026-05-02T09:43:33.785Z</time></trkpt><trkpt lat="43.438355" lon="12.2418067"><ele>288.0</ele><time>2026-05-02T09:43:34.788Z</time></trkpt><trkpt lat="43.43825" lon="12.2416217"><ele>288.0</ele><time>2026-05-02T09:43:35.789Z</time></trkpt><trkpt lat="43.4381583" lon="12.2414067"><ele>288.0</ele><time>2026-05-02T09:43:36.789Z</time></trkpt><trkpt lat="43.4380967" lon="12.2411617"><ele>288.0</ele><time>2026-05-02T09:43:37.788Z</time></trkpt><trkpt lat="43.43804" lon="12.2408917"><ele>288.0</ele><time>2026-05-02T09:43:38.788Z</time></trkpt><trkpt lat="43.4379817" lon="12.2406233"><ele>288.0</ele><time>2026-05-02T09:43:39.788Z</time></trkpt><trkpt lat="43.4379283" lon="12.24036"><ele>288.0</ele><time>2026-05-02T09:43:40.788Z</time></trkpt><trkpt lat="43.4378767" lon="12.2401017"><ele>288.0</ele><time>2026-05-02T09:43:41.79Z</time></trkpt><trkpt lat="43.4378283" lon="12.23985"><ele>288.0</ele><time>2026-05-02T09:43:42.789Z</time></trkpt><trkpt lat="43.4377767" lon="12.2396067"><ele>288.3333333333333</ele><time>2026-05-02T09:43:43.787Z</time></trkpt><trkpt lat="43.4377083" lon="12.23937"><ele>288.66666666666663</ele><time>2026-05-02T09:43:44.788Z</time></trkpt><trkpt lat="43.43761" lon="12.2391417"><ele>289.0</ele><time>2026-05-02T09:43:45.788Z</time></trkpt><trkpt lat="43.4374833" lon="12.2389183"><ele>289.3333333333333</ele><time>2026-05-02T09:43:46.789Z</time></trkpt><trkpt lat="43.4373417" lon="12.2386967"><ele>289.6666666666667</ele><time>2026-05-02T09:43:47.788Z</time></trkpt><trkpt lat="43.4372017" lon="12.23847"><ele>290.0</ele><time>2026-05-02T09:43:48.789Z</time></trkpt><trkpt lat="43.4370717" lon="12.2382333"><ele>291.33333333333337</ele><time>2026-05-02T09:43:49.789Z</time></trkpt><trkpt lat="43.4369633" lon="12.237985"><ele>292.6666666666667</ele><time>2026-05-02T09:43:50.788Z</time></trkpt><trkpt lat="43.4368717" lon="12.237725"><ele>294.0</ele><time>2026-05-02T09:43:51.789Z</time></trkpt><trkpt lat="43.4367783" lon="12.237475"><ele>295.0</ele><time>2026-05-02T09:43:52.789Z</time></trkpt><trkpt lat="43.4366767" lon="12.2372467"><ele>296.0</ele><time>2026-05-02T09:43:53.789Z</time></trkpt><trkpt lat="43.4365533" lon="12.2370383"><ele>297.0</ele><time>2026-05-02T09:43:54.79Z</time></trkpt><trkpt lat="43.4364133" lon="12.2368567"><ele>295.3333333333333</ele><time>2026-05-02T09:43:55.79Z</time></trkpt><trkpt lat="43.436265" lon="12.2366833"><ele>293.66666666666663</ele><time>2026-05-02T09:43:56.786Z</time></trkpt><trkpt lat="43.4361133" lon="12.2365133"><ele>292.0</ele><time>2026-05-02T09:43:57.786Z</time></trkpt><trkpt lat="43.4359667" lon="12.2363433"><ele>295.66666666666663</ele><time>2026-05-02T09:43:58.786Z</time></trkpt><trkpt lat="43.4358167" lon="12.2361733"><ele>299.3333333333333</ele><time>2026-05-02T09:43:59.786Z</time></trkpt><trkpt lat="43.435675" lon="12.2360067"><ele>303.0</ele><time>2026-05-02T09:44:00.787Z</time></trkpt><trkpt lat="43.4355417" lon="12.2358483"><ele>302.6666666666667</ele><time>2026-05-02T09:44:01.786Z</time></trkpt><trkpt lat="43.43541" lon="12.2356917"><ele>302.33333333333337</ele><time>2026-05-02T09:44:02.786Z</time></trkpt><trkpt lat="43.43527" lon="12.23554"><ele>302.0</ele><time>2026-05-02T09:44:03.786Z</time></trkpt><trkpt lat="43.4351183" lon="12.2353883"><ele>302.0</ele><time>2026-05-02T09:44:04.789Z</time></trkpt><trkpt lat="43.4349567" lon="12.2352483"><ele>302.0</ele><time>2026-05-02T09:44:05.789Z</time></trkpt><trkpt lat="43.4347867" lon="12.235115"><ele>302.0</ele><time>2026-05-02T09:44:06.789Z</time></trkpt><trkpt lat="43.43461" lon="12.2349833"><ele>300.33333333333337</ele><time>2026-05-02T09:44:07.789Z</time></trkpt><trkpt lat="43.434425" lon="12.2348433"><ele>298.6666666666667</ele><time>2026-05-02T09:44:08.788Z</time></trkpt><trkpt lat="43.434235" lon="12.2347067"><ele>297.0</ele><time>2026-05-02T09:44:09.789Z</time></trkpt><trkpt lat="43.4340467" lon="12.2345683"><ele>296.0</ele><time>2026-05-02T09:44:10.787Z</time></trkpt><trkpt lat="43.4338433" lon="12.234415"><ele>295.0</ele><time>2026-05-02T09:44:11.788Z</time></trkpt><trkpt lat="43.4336567" lon="12.234265"><ele>294.0</ele><time>2026-05-02T09:44:12.787Z</time></trkpt><trkpt lat="43.4334733" lon="12.2341167"><ele>293.3333333333333</ele><time>2026-05-02T09:44:13.788Z</time></trkpt><trkpt lat="43.4333017" lon="12.233965"><ele>292.66666666666663</ele><time>2026-05-02T09:44:14.789Z</time></trkpt><trkpt lat="43.4331367" lon="12.2338283"><ele>292.0</ele><time>2026-05-02T09:44:15.788Z</time></trkpt><trkpt lat="43.4329617" lon="12.23372"><ele>292.0</ele><time>2026-05-02T09:44:16.788Z</time></trkpt><trkpt lat="43.4327667" lon="12.2336467"><ele>292.0</ele><time>2026-05-02T09:44:17.788Z</time></trkpt><trkpt lat="43.4325533" lon="12.2336083"><ele>292.0</ele><time>2026-05-02T09:44:18.789Z</time></trkpt><trkpt lat="43.4323317" lon="12.233595"><ele>290.0</ele><time>2026-05-02T09:44:19.787Z</time></trkpt><trkpt lat="43.432105" lon="12.2335867"><ele>288.0</ele><time>2026-05-02T09:44:20.788Z</time></trkpt><trkpt lat="43.4318767" lon="12.23357"><ele>288.0</ele><time>2026-05-02T09:44:21.788Z</time></trkpt><trkpt lat="43.4316467" lon="12.2335433"><ele>288.0</ele><time>2026-05-02T09:44:22.79Z</time></trkpt><trkpt lat="43.4314033" lon="12.2335133"><ele>287.0</ele><time>2026-05-02T09:44:23.789Z</time></trkpt><trkpt lat="43.4311617" lon="12.23348"><ele>286.0</ele><time>2026-05-02T09:44:24.788Z</time></trkpt><trkpt lat="43.4309167" lon="12.2334467"><ele>286.0</ele><time>2026-05-02T09:44:25.788Z</time></trkpt><trkpt lat="43.4306717" lon="12.2334183"><ele>286.0</ele><time>2026-05-02T09:44:26.788Z</time></trkpt><trkpt lat="43.4304383" lon="12.2333933"><ele>284.66666666666663</ele><time>2026-05-02T09:44:27.788Z</time></trkpt><trkpt lat="43.430215" lon="12.2333683"><ele>283.3333333333333</ele><time>2026-05-02T09:44:28.788Z</time></trkpt><trkpt lat="43.43" lon="12.2333433"><ele>282.0</ele><time>2026-05-02T09:44:29.789Z</time></trkpt><trkpt lat="43.4297933" lon="12.23332"><ele>281.0</ele><time>2026-05-02T09:44:30.788Z</time></trkpt><trkpt lat="43.4295983" lon="12.23328"><ele>280.0</ele><time>2026-05-02T09:44:31.789Z</time></trkpt><trkpt lat="43.4294183" lon="12.2331967"><ele>279.0</ele><time>2026-05-02T09:44:32.789Z</time></trkpt><trkpt lat="43.42924" lon="12.2330783"><ele>281.0</ele><time>2026-05-02T09:44:33.79Z</time></trkpt><trkpt lat="43.429055" lon="12.232955"><ele>283.0</ele><time>2026-05-02T09:44:34.786Z</time></trkpt><trkpt lat="43.4288617" lon="12.23284"><ele>285.0</ele><time>2026-05-02T09:44:35.79Z</time></trkpt><trkpt lat="43.4286567" lon="12.2327367"><ele>285.0</ele><time>2026-05-02T09:44:36.79Z</time></trkpt><trkpt lat="43.42844" lon="12.2326433"><ele>285.0</ele><time>2026-05-02T09:44:37.786Z</time></trkpt><trkpt lat="43.42822" lon="12.2325533"><ele>285.0</ele><time>2026-05-02T09:44:38.786Z</time></trkpt><trkpt lat="43.4280017" lon="12.2324567"><ele>285.0</ele><time>2026-05-02T09:44:39.786Z</time></trkpt><trkpt lat="43.427785" lon="12.2323733"><ele>290.3333333333333</ele><time>2026-05-02T09:44:40.787Z</time></trkpt><trkpt lat="43.4275733" lon="12.23229"><ele>295.66666666666663</ele><time>2026-05-02T09:44:41.789Z</time></trkpt><trkpt lat="43.4273783" lon="12.2322117"><ele>301.0</ele><time>2026-05-02T09:44:42.786Z</time></trkpt><trkpt lat="43.4272017" lon="12.2321383"><ele>298.66666666666663</ele><time>2026-05-02T09:44:43.786Z</time></trkpt><trkpt lat="43.4270333" lon="12.232095"><ele>296.3333333333333</ele><time>2026-05-02T09:44:44.789Z</time></trkpt><trkpt lat="43.4268717" lon="12.2320917"><ele>294.0</ele><time>2026-05-02T09:44:45.789Z</time></trkpt><trkpt lat="43.4267" lon="12.2321517"><ele>294.0</ele><time>2026-05-02T09:44:46.788Z</time></trkpt><trkpt lat="43.4265267" lon="12.23227"><ele>294.0</ele><time>2026-05-02T09:44:47.789Z</time></trkpt><trkpt lat="43.426365" lon="12.2324267"><ele>294.0</ele><time>2026-05-02T09:44:48.786Z</time></trkpt><trkpt lat="43.4262117" lon="12.2326067"><ele>291.6666666666667</ele><time>2026-05-02T09:44:49.789Z</time></trkpt><trkpt lat="43.4260667" lon="12.2327617"><ele>289.33333333333337</ele><time>2026-05-02T09:44:50.789Z</time></trkpt><trkpt lat="43.425925" lon="12.23288"><ele>287.0</ele><time>2026-05-02T09:44:51.786Z</time></trkpt><trkpt lat="43.425785" lon="12.23295"><ele>287.0</ele><time>2026-05-02T09:44:52.788Z</time></trkpt><trkpt lat="43.42563" lon="12.2329817"><ele>287.0</ele><time>2026-05-02T09:44:53.788Z</time></trkpt><trkpt lat="43.4254467" lon="12.2329467"><ele>287.0</ele><time>2026-05-02T09:44:54.788Z</time></trkpt><trkpt lat="43.425255" lon="12.2328883"><ele>287.0</ele><time>2026-05-02T09:44:55.791Z</time></trkpt><trkpt lat="43.4250417" lon="12.2328367"><ele>287.0</ele><time>2026-05-02T09:44:56.787Z</time></trkpt><trkpt lat="43.42482" lon="12.2327867"><ele>287.0</ele><time>2026-05-02T09:44:57.789Z</time></trkpt><trkpt lat="43.424595" lon="12.232735"><ele>287.0</ele><time>2026-05-02T09:44:58.789Z</time></trkpt><trkpt lat="43.4243683" lon="12.23269"><ele>287.0</ele><time>2026-05-02T09:44:59.789Z</time></trkpt><trkpt lat="43.4241433" lon="12.232645"><ele>287.0</ele><time>2026-05-02T09:45:00.788Z</time></trkpt><trkpt lat="43.4239167" lon="12.2326117"><ele>287.0</ele><time>2026-05-02T09:45:01.789Z</time></trkpt><trkpt lat="43.4236867" lon="12.2325933"><ele>286.0</ele><time>2026-05-02T09:45:02.789Z</time></trkpt><trkpt lat="43.423455" lon="12.2325933"><ele>285.0</ele><time>2026-05-02T09:45:03.788Z</time></trkpt><trkpt lat="43.4232233" lon="12.2325967"><ele>285.0</ele><time>2026-05-02T09:45:04.789Z</time></trkpt><trkpt lat="43.4229933" lon="12.23258"><ele>285.0</ele><time>2026-05-02T09:45:05.786Z</time></trkpt><trkpt lat="43.4227683" lon="12.2325417"><ele>284.3333333333333</ele><time>2026-05-02T09:45:06.788Z</time></trkpt><trkpt lat="43.422545" lon="12.232505"><ele>283.66666666666663</ele><time>2026-05-02T09:45:07.788Z</time></trkpt><trkpt lat="43.422325" lon="12.2324867"><ele>283.0</ele><time>2026-05-02T09:45:08.789Z</time></trkpt><trkpt lat="43.4221033" lon="12.23251"><ele>283.0</ele><time>2026-05-02T09:45:09.788Z</time></trkpt><trkpt lat="43.4218883" lon="12.2325617"><ele>283.0</ele><time>2026-05-02T09:45:10.789Z</time></trkpt><trkpt lat="43.421675" lon="12.2326217"><ele>283.0</ele><time>2026-05-02T09:45:11.791Z</time></trkpt><trkpt lat="43.421465" lon="12.23268"><ele>285.0</ele><time>2026-05-02T09:45:12.786Z</time></trkpt><trkpt lat="43.4212567" lon="12.2327383"><ele>287.0</ele><time>2026-05-02T09:45:13.789Z</time></trkpt><trkpt lat="43.4210583" lon="12.2328117"><ele>289.0</ele><time>2026-05-02T09:45:14.786Z</time></trkpt><trkpt lat="43.420875" lon="12.2329033"><ele>289.0</ele><time>2026-05-02T09:45:15.788Z</time></trkpt><trkpt lat="43.4207067" lon="12.233005"><ele>289.0</ele><time>2026-05-02T09:45:16.788Z</time></trkpt><trkpt lat="43.420545" lon="12.2330967"><ele>289.0</ele><time>2026-05-02T09:45:17.79Z</time></trkpt><trkpt lat="43.4203917" lon="12.2331683"><ele>287.3333333333333</ele><time>2026-05-02T09:45:18.788Z</time></trkpt><trkpt lat="43.420245" lon="12.2332083"><ele>285.6666666666667</ele><time>2026-05-02T09:45:19.788Z</time></trkpt><trkpt lat="43.4200933" lon="12.23321"><ele>284.0</ele><time>2026-05-02T09:45:20.789Z</time></trkpt><trkpt lat="43.4199367" lon="12.2331783"><ele>284.0</ele><time>2026-05-02T09:45:21.789Z</time></trkpt><trkpt lat="43.4197883" lon="12.233105"><ele>284.0</ele><time>2026-05-02T09:45:22.788Z</time></trkpt><trkpt lat="43.41964" lon="12.2330283"><ele>284.0</ele><time>2026-05-02T09:45:23.79Z</time></trkpt><trkpt lat="43.419495" lon="12.2329467"><ele>284.0</ele><time>2026-05-02T09:45:24.789Z</time></trkpt><trkpt lat="43.41935" lon="12.2328517"><ele>284.0</ele><time>2026-05-02T09:45:25.789Z</time></trkpt><trkpt lat="43.4192033" lon="12.2327633"><ele>284.0</ele><time>2026-05-02T09:45:26.786Z</time></trkpt><trkpt lat="43.41905" lon="12.2326833"><ele>284.0</ele><time>2026-05-02T09:45:27.788Z</time></trkpt><trkpt lat="43.4188917" lon="12.2326183"><ele>284.0</ele><time>2026-05-02T09:45:28.789Z</time></trkpt><trkpt lat="43.4187267" lon="12.2325733"><ele>284.0</ele><time>2026-05-02T09:45:29.789Z</time></trkpt><trkpt lat="43.4185567" lon="12.232555"><ele>282.6666666666667</ele><time>2026-05-02T09:45:30.788Z</time></trkpt><trkpt lat="43.418385" lon="12.23257"><ele>281.3333333333333</ele><time>2026-05-02T09:45:31.79Z</time></trkpt><trkpt lat="43.4182167" lon="12.232605"><ele>280.0</ele><time>2026-05-02T09:45:32.788Z</time></trkpt><trkpt lat="43.4180583" lon="12.2326433"><ele>280.66666666666663</ele><time>2026-05-02T09:45:33.79Z</time></trkpt><trkpt lat="43.4179" lon="12.2326767"><ele>281.3333333333333</ele><time>2026-05-02T09:45:34.789Z</time></trkpt><trkpt lat="43.4177433" lon="12.2327067"><ele>282.0</ele><time>2026-05-02T09:45:35.789Z</time></trkpt><trkpt lat="43.4175867" lon="12.2327383"><ele>282.0</ele><time>2026-05-02T09:45:36.789Z</time></trkpt><trkpt lat="43.4174283" lon="12.23277"><ele>282.0</ele><time>2026-05-02T09:45:37.789Z</time></trkpt><trkpt lat="43.4172733" lon="12.2328"><ele>282.0</ele><time>2026-05-02T09:45:38.789Z</time></trkpt><trkpt lat="43.417125" lon="12.23283"><ele>281.0</ele><time>2026-05-02T09:45:39.789Z</time></trkpt><trkpt lat="43.4169817" lon="12.2328617"><ele>280.0</ele><time>2026-05-02T09:45:40.789Z</time></trkpt><trkpt lat="43.4168417" lon="12.2328933"><ele>279.0</ele><time>2026-05-02T09:45:41.79Z</time></trkpt><trkpt lat="43.4166983" lon="12.23293"><ele>278.0</ele><time>2026-05-02T09:45:42.789Z</time></trkpt><trkpt lat="43.416535" lon="12.232975"><ele>278.0</ele><time>2026-05-02T09:45:43.789Z</time></trkpt><trkpt lat="43.4163483" lon="12.2330217"><ele>278.0</ele><time>2026-05-02T09:45:44.789Z</time></trkpt><trkpt lat="43.416145" lon="12.2330667"><ele>278.0</ele><time>2026-05-02T09:45:45.786Z</time></trkpt><trkpt lat="43.41594" lon="12.2331067"><ele>277.33333333333337</ele><time>2026-05-02T09:45:46.788Z</time></trkpt><trkpt lat="43.4157333" lon="12.2331517"><ele>276.6666666666667</ele><time>2026-05-02T09:45:47.789Z</time></trkpt><trkpt lat="43.41553" lon="12.2331967"><ele>276.0</ele><time>2026-05-02T09:45:48.79Z</time></trkpt><trkpt lat="43.4153367" lon="12.233235"><ele>276.0</ele><time>2026-05-02T09:45:49.789Z</time></trkpt><trkpt lat="43.4151567" lon="12.2332683"><ele>276.0</ele><time>2026-05-02T09:45:50.789Z</time></trkpt><trkpt lat="43.4149983" lon="12.2332967"><ele>276.0</ele><time>2026-05-02T09:45:51.789Z</time></trkpt><trkpt lat="43.4148583" lon="12.233325"><ele>276.0</ele><time>2026-05-02T09:45:52.789Z</time></trkpt><trkpt lat="43.4147283" lon="12.2333533"><ele>276.0</ele><time>2026-05-02T09:45:53.79Z</time></trkpt><trkpt lat="43.4145967" lon="12.23338"><ele>276.0</ele><time>2026-05-02T09:45:54.789Z</time></trkpt><trkpt lat="43.4144517" lon="12.2334183"><ele>276.0</ele><time>2026-05-02T09:45:55.786Z</time></trkpt><trkpt lat="43.414285" lon="12.2334567"><ele>276.6666666666667</ele><time>2026-05-02T09:45:56.79Z</time></trkpt><trkpt lat="43.41411" lon="12.23349"><ele>277.33333333333337</ele><time>2026-05-02T09:45:57.789Z</time></trkpt><trkpt lat="43.4139317" lon="12.2335167"><ele>278.0</ele><time>2026-05-02T09:45:58.789Z</time></trkpt><trkpt lat="43.4137417" lon="12.2335433"><ele>278.33333333333337</ele><time>2026-05-02T09:45:59.789Z</time></trkpt><trkpt lat="43.4135367" lon="12.2335633"><ele>278.6666666666667</ele><time>2026-05-02T09:46:00.788Z</time></trkpt><trkpt lat="43.4133267" lon="12.2335717"><ele>279.0</ele><time>2026-05-02T09:46:01.789Z</time></trkpt><trkpt lat="43.4131283" lon="12.2335733"><ele>279.3333333333333</ele><time>2026-05-02T09:46:02.788Z</time></trkpt><trkpt lat="43.4129433" lon="12.2335783"><ele>279.66666666666663</ele><time>2026-05-02T09:46:03.788Z</time></trkpt><trkpt lat="43.41277" lon="12.23359"><ele>280.0</ele><time>2026-05-02T09:46:04.788Z</time></trkpt><trkpt lat="43.4126017" lon="12.233605"><ele>280.0</ele><time>2026-05-02T09:46:05.789Z</time></trkpt><trkpt lat="43.41244" lon="12.2336167"><ele>280.0</ele><time>2026-05-02T09:46:06.786Z</time></trkpt><trkpt lat="43.4122833" lon="12.2336283"><ele>280.0</ele><time>2026-05-02T09:46:07.785Z</time></trkpt><trkpt lat="43.4121283" lon="12.2336383"><ele>279.66666666666663</ele><time>2026-05-02T09:46:08.789Z</time></trkpt><trkpt lat="43.4119717" lon="12.23365"><ele>279.3333333333333</ele><time>2026-05-02T09:46:09.788Z</time></trkpt><trkpt lat="43.4118133" lon="12.2336617"><ele>279.0</ele><time>2026-05-02T09:46:10.785Z</time></trkpt><trkpt lat="43.4116583" lon="12.2336717"><ele>279.0</ele><time>2026-05-02T09:46:11.788Z</time></trkpt><trkpt lat="43.41151" lon="12.2336833"><ele>279.0</ele><time>2026-05-02T09:46:12.787Z</time></trkpt><trkpt lat="43.4113667" lon="12.233695"><ele>279.0</ele><time>2026-05-02T09:46:13.787Z</time></trkpt><trkpt lat="43.411225" lon="12.2337083"><ele>279.0</ele><time>2026-05-02T09:46:14.787Z</time></trkpt><trkpt lat="43.411085" lon="12.23372"><ele>278.0</ele><time>2026-05-02T09:46:15.787Z</time></trkpt><trkpt lat="43.41095" lon="12.2337317"><ele>277.0</ele><time>2026-05-02T09:46:16.789Z</time></trkpt><trkpt lat="43.4108167" lon="12.2337417"><ele>276.0</ele><time>2026-05-02T09:46:17.787Z</time></trkpt><trkpt lat="43.41068" lon="12.2337517"><ele>275.0</ele><time>2026-05-02T09:46:18.788Z</time></trkpt><trkpt lat="43.4105383" lon="12.23376"><ele>275.25</ele><time>2026-05-02T09:46:19.786Z</time></trkpt><trkpt lat="43.4104033" lon="12.233765"><ele>275.5</ele><time>2026-05-02T09:46:20.785Z</time></trkpt><trkpt lat="43.4102733" lon="12.2337683"><ele>275.75</ele><time>2026-05-02T09:46:21.786Z</time></trkpt><trkpt lat="43.4101517" lon="12.233775"><ele>276.0</ele><time>2026-05-02T09:46:22.786Z</time></trkpt><trkpt lat="43.410025" lon="12.2337833"><ele>276.0</ele><time>2026-05-02T09:46:23.789Z</time></trkpt><trkpt lat="43.4098933" lon="12.2337917"><ele>276.0</ele><time>2026-05-02T09:46:24.789Z</time></trkpt><trkpt lat="43.40975" lon="12.2338017"><ele>276.0</ele><time>2026-05-02T09:46:25.789Z</time></trkpt><trkpt lat="43.4096067" lon="12.2338133"><ele>276.0</ele><time>2026-05-02T09:46:26.788Z</time></trkpt><trkpt lat="43.409455" lon="12.2338233"><ele>276.0</ele><time>2026-05-02T09:46:27.789Z</time></trkpt><trkpt lat="43.4092967" lon="12.2338367"><ele>276.0</ele><time>2026-05-02T09:46:28.789Z</time></trkpt><trkpt lat="43.40913" lon="12.23385"><ele>276.0</ele><time>2026-05-02T09:46:29.789Z</time></trkpt><trkpt lat="43.408955" lon="12.2338617"><ele>275.6666666666667</ele><time>2026-05-02T09:46:30.788Z</time></trkpt><trkpt lat="43.4087733" lon="12.2338733"><ele>275.33333333333337</ele><time>2026-05-02T09:46:31.788Z</time></trkpt><trkpt lat="43.4085883" lon="12.2338867"><ele>275.0</ele><time>2026-05-02T09:46:32.788Z</time></trkpt><trkpt lat="43.4084" lon="12.2339"><ele>275.0</ele><time>2026-05-02T09:46:33.789Z</time></trkpt><trkpt lat="43.4082067" lon="12.2339117"><ele>275.0</ele><time>2026-05-02T09:46:34.788Z</time></trkpt><trkpt lat="43.4080133" lon="12.2339217"><ele>275.0</ele><time>2026-05-02T09:46:35.789Z</time></trkpt><trkpt lat="43.4078167" lon="12.2339317"><ele>274.6666666666667</ele><time>2026-05-02T09:46:36.788Z</time></trkpt><trkpt lat="43.407615" lon="12.233945"><ele>274.3333333333333</ele><time>2026-05-02T09:46:37.788Z</time></trkpt><trkpt lat="43.4074117" lon="12.2339583"><ele>274.0</ele><time>2026-05-02T09:46:38.788Z</time></trkpt><trkpt lat="43.4072067" lon="12.2339733"><ele>272.66666666666663</ele><time>2026-05-02T09:46:39.789Z</time></trkpt><trkpt lat="43.407" lon="12.2339883"><ele>271.3333333333333</ele><time>2026-05-02T09:46:40.788Z</time></trkpt><trkpt lat="43.406795" lon="12.234"><ele>270.0</ele><time>2026-05-02T09:46:41.789Z</time></trkpt><trkpt lat="43.40659" lon="12.23401"><ele>270.0</ele><time>2026-05-02T09:46:42.788Z</time></trkpt><trkpt lat="43.4063833" lon="12.234025"><ele>270.0</ele><time>2026-05-02T09:46:43.789Z</time></trkpt><trkpt lat="43.4061767" lon="12.23404"><ele>270.0</ele><time>2026-05-02T09:46:44.789Z</time></trkpt><trkpt lat="43.4059717" lon="12.2340567"><ele>269.6666666666667</ele><time>2026-05-02T09:46:45.788Z</time></trkpt><trkpt lat="43.405765" lon="12.2340733"><ele>269.33333333333337</ele><time>2026-05-02T09:46:46.788Z</time></trkpt><trkpt lat="43.4055633" lon="12.2340883"><ele>269.0</ele><time>2026-05-02T09:46:47.79Z</time></trkpt><trkpt lat="43.4053667" lon="12.2341017"><ele>268.33333333333337</ele><time>2026-05-02T09:46:48.789Z</time></trkpt><trkpt lat="43.40517" lon="12.2341133"><ele>267.6666666666667</ele><time>2026-05-02T09:46:49.789Z</time></trkpt><trkpt lat="43.4049783" lon="12.2341233"><ele>267.0</ele><time>2026-05-02T09:46:50.788Z</time></trkpt><trkpt lat="43.4047867" lon="12.234135"><ele>268.0</ele><time>2026-05-02T09:46:51.786Z</time></trkpt><trkpt lat="43.4045883" lon="12.2341517"><ele>269.0</ele><time>2026-05-02T09:46:52.785Z</time></trkpt><trkpt lat="43.404385" lon="12.2341683"><ele>270.0</ele><time>2026-05-02T09:46:53.787Z</time></trkpt><trkpt lat="43.4041767" lon="12.234185"><ele>270.0</ele><time>2026-05-02T09:46:54.787Z</time></trkpt><trkpt lat="43.4039633" lon="12.2342"><ele>270.0</ele><time>2026-05-02T09:46:55.786Z</time></trkpt><trkpt lat="43.4037467" lon="12.2342167"><ele>270.0</ele><time>2026-05-02T09:46:56.789Z</time></trkpt><trkpt lat="43.403525" lon="12.2342333"><ele>271.5</ele><time>2026-05-02T09:46:57.788Z</time></trkpt><trkpt lat="43.4033" lon="12.23425"><ele>273.0</ele><time>2026-05-02T09:46:58.788Z</time></trkpt><trkpt lat="43.4030717" lon="12.234275"><ele>274.0</ele><time>2026-05-02T09:46:59.789Z</time></trkpt><trkpt lat="43.4028383" lon="12.23431"><ele>275.0</ele><time>2026-05-02T09:47:00.788Z</time></trkpt><trkpt lat="43.4026083" lon="12.234355"><ele>275.0</ele><time>2026-05-02T09:47:01.788Z</time></trkpt><trkpt lat="43.4023783" lon="12.2344083"><ele>275.0</ele><time>2026-05-02T09:47:02.789Z</time></trkpt><trkpt lat="43.4021433" lon="12.2344617"><ele>277.5</ele><time>2026-05-02T09:47:03.786Z</time></trkpt><trkpt lat="43.40191" lon="12.23452"><ele>280.0</ele><time>2026-05-02T09:47:04.787Z</time></trkpt><trkpt lat="43.4016883" lon="12.234585"><ele>280.0</ele><time>2026-05-02T09:47:05.789Z</time></trkpt><trkpt lat="43.40148" lon="12.2346533"><ele>280.0</ele><time>2026-05-02T09:47:06.785Z</time></trkpt><trkpt lat="43.4012833" lon="12.2347267"><ele>280.0</ele><time>2026-05-02T09:47:07.787Z</time></trkpt><trkpt lat="43.4010983" lon="12.2348"><ele>279.0</ele><time>2026-05-02T09:47:08.787Z</time></trkpt><trkpt lat="43.4009233" lon="12.2348783"><ele>278.0</ele><time>2026-05-02T09:47:09.788Z</time></trkpt><trkpt lat="43.400755" lon="12.2349683"><ele>277.0</ele><time>2026-05-02T09:47:10.787Z</time></trkpt><trkpt lat="43.4005883" lon="12.2350817"><ele>281.3333333333333</ele><time>2026-05-02T09:47:11.79Z</time></trkpt><trkpt lat="43.4004283" lon="12.2352017"><ele>285.6666666666667</ele><time>2026-05-02T09:47:12.787Z</time></trkpt><trkpt lat="43.4002783" lon="12.2353217"><ele>290.0</ele><time>2026-05-02T09:47:13.788Z</time></trkpt><trkpt lat="43.400135" lon="12.235435"><ele>290.0</ele><time>2026-05-02T09:47:14.789Z</time></trkpt><trkpt lat="43.4" lon="12.2355483"><ele>290.0</ele><time>2026-05-02T09:47:15.789Z</time></trkpt><trkpt lat="43.39987" lon="12.2356567"><ele>290.0</ele><time>2026-05-02T09:47:16.79Z</time></trkpt><trkpt lat="43.3997417" lon="12.2357583"><ele>287.5</ele><time>2026-05-02T09:47:17.789Z</time></trkpt><trkpt lat="43.3996183" lon="12.235845"><ele>285.0</ele><time>2026-05-02T09:47:18.788Z</time></trkpt><trkpt lat="43.399505" lon="12.23592"><ele>282.5</ele><time>2026-05-02T09:47:19.789Z</time></trkpt><trkpt lat="43.3994083" lon="12.235985"><ele>280.0</ele><time>2026-05-02T09:47:20.788Z</time></trkpt><trkpt lat="43.39932" lon="12.2360133"><ele>280.0</ele><time>2026-05-02T09:47:21.789Z</time></trkpt><trkpt lat="43.3992367" lon="12.236005"><ele>280.0</ele><time>2026-05-02T09:47:22.788Z</time></trkpt><trkpt lat="43.3991667" lon="12.2359817"><ele>280.0</ele><time>2026-05-02T09:47:23.788Z</time></trkpt><trkpt lat="43.3991" lon="12.2359517"><ele>280.0</ele><time>2026-05-02T09:47:24.788Z</time></trkpt><trkpt lat="43.3990317" lon="12.2359317"><ele>280.0</ele><time>2026-05-02T09:47:25.789Z</time></trkpt><trkpt lat="43.3989817" lon="12.23585"><ele>280.0</ele><time>2026-05-02T09:47:27.13Z</time></trkpt><trkpt lat="43.398835" lon="12.23585"><ele>279.66666666666663</ele><time>2026-05-02T09:47:28.785Z</time></trkpt><trkpt lat="43.3987317" lon="12.2359067"><ele>279.3333333333333</ele><time>2026-05-02T09:47:29.785Z</time></trkpt><trkpt lat="43.3986433" lon="12.2359"><ele>279.0</ele><time>2026-05-02T09:47:30.786Z</time></trkpt><trkpt lat="43.398565" lon="12.23589"><ele>278.6666666666667</ele><time>2026-05-02T09:47:31.785Z</time></trkpt><trkpt lat="43.3984867" lon="12.23588"><ele>278.33333333333337</ele><time>2026-05-02T09:47:32.785Z</time></trkpt><trkpt lat="43.3984033" lon="12.23589"><ele>278.0</ele><time>2026-05-02T09:47:33.785Z</time></trkpt><trkpt lat="43.3983183" lon="12.23592"><ele>278.0</ele><time>2026-05-02T09:47:34.785Z</time></trkpt><trkpt lat="43.3982267" lon="12.2359583"><ele>278.0</ele><time>2026-05-02T09:47:35.785Z</time></trkpt><trkpt lat="43.3981317" lon="12.23599"><ele>278.0</ele><time>2026-05-02T09:47:36.786Z</time></trkpt><trkpt lat="43.3980233" lon="12.23603"><ele>278.0</ele><time>2026-05-02T09:47:37.786Z</time></trkpt><trkpt lat="43.3979017" lon="12.2360733"><ele>278.0</ele><time>2026-05-02T09:47:38.786Z</time></trkpt><trkpt lat="43.39778" lon="12.236105"><ele>276.75</ele><time>2026-05-02T09:47:39.785Z</time></trkpt><trkpt lat="43.397665" lon="12.23613"><ele>275.5</ele><time>2026-05-02T09:47:40.786Z</time></trkpt><trkpt lat="43.3975533" lon="12.2361433"><ele>274.25</ele><time>2026-05-02T09:47:41.786Z</time></trkpt><trkpt lat="43.39744" lon="12.2361533"><ele>273.0</ele><time>2026-05-02T09:47:42.785Z</time></trkpt><trkpt lat="43.3973217" lon="12.2361617"><ele>273.0</ele><time>2026-05-02T09:47:43.785Z</time></trkpt><trkpt lat="43.3971867" lon="12.23617"><ele>273.0</ele><time>2026-05-02T09:47:44.787Z</time></trkpt><trkpt lat="43.39704" lon="12.236175"><ele>273.0</ele><time>2026-05-02T09:47:45.786Z</time></trkpt><trkpt lat="43.3968833" lon="12.2361817"><ele>273.0</ele><time>2026-05-02T09:47:46.788Z</time></trkpt><trkpt lat="43.3967183" lon="12.236185"><ele>272.3333333333333</ele><time>2026-05-02T09:47:47.786Z</time></trkpt><trkpt lat="43.3965483" lon="12.2361867"><ele>271.66666666666663</ele><time>2026-05-02T09:47:48.787Z</time></trkpt><trkpt lat="43.3963733" lon="12.2361917"><ele>271.0</ele><time>2026-05-02T09:47:49.786Z</time></trkpt><trkpt lat="43.3962" lon="12.236195"><ele>270.0</ele><time>2026-05-02T09:47:50.787Z</time></trkpt><trkpt lat="43.3960233" lon="12.236205"><ele>269.0</ele><time>2026-05-02T09:47:51.789Z</time></trkpt><trkpt lat="43.3958467" lon="12.2362133"><ele>268.0</ele><time>2026-05-02T09:47:52.788Z</time></trkpt><trkpt lat="43.3956717" lon="12.23622"><ele>268.0</ele><time>2026-05-02T09:47:53.787Z</time></trkpt><trkpt lat="43.3954967" lon="12.236225"><ele>268.0</ele><time>2026-05-02T09:47:54.786Z</time></trkpt><trkpt lat="43.39532" lon="12.236225"><ele>268.0</ele><time>2026-05-02T09:47:55.786Z</time></trkpt><trkpt lat="43.3951433" lon="12.23623"><ele>268.0</ele><time>2026-05-02T09:47:56.786Z</time></trkpt><trkpt lat="43.3949667" lon="12.236235"><ele>268.0</ele><time>2026-05-02T09:47:57.787Z</time></trkpt><trkpt lat="43.3947933" lon="12.2362383"><ele>268.0</ele><time>2026-05-02T09:47:58.786Z</time></trkpt><trkpt lat="43.3946167" lon="12.2362367"><ele>269.0</ele><time>2026-05-02T09:47:59.786Z</time></trkpt><trkpt lat="43.3944367" lon="12.236235"><ele>270.0</ele><time>2026-05-02T09:48:00.785Z</time></trkpt><trkpt lat="43.3942633" lon="12.23624"><ele>271.0</ele><time>2026-05-02T09:48:01.786Z</time></trkpt><trkpt lat="43.3940917" lon="12.2362683"><ele>271.0</ele><time>2026-05-02T09:48:02.788Z</time></trkpt><trkpt lat="43.39393" lon="12.2363333"><ele>271.0</ele><time>2026-05-02T09:48:03.786Z</time></trkpt><trkpt lat="43.3937733" lon="12.236435"><ele>271.0</ele><time>2026-05-02T09:48:04.786Z</time></trkpt><trkpt lat="43.393625" lon="12.2365533"><ele>273.0</ele><time>2026-05-02T09:48:05.788Z</time></trkpt><trkpt lat="43.3934783" lon="12.23668"><ele>275.0</ele><time>2026-05-02T09:48:06.785Z</time></trkpt><trkpt lat="43.3933283" lon="12.2368067"><ele>277.0</ele><time>2026-05-02T09:48:07.787Z</time></trkpt><trkpt lat="43.3931767" lon="12.2369417"><ele>277.0</ele><time>2026-05-02T09:48:08.786Z</time></trkpt><trkpt lat="43.3930183" lon="12.2370783"><ele>277.0</ele><time>2026-05-02T09:48:09.79Z</time></trkpt><trkpt lat="43.3928583" lon="12.23722"><ele>277.0</ele><time>2026-05-02T09:48:10.787Z</time></trkpt><trkpt lat="43.392695" lon="12.23736"><ele>276.3333333333333</ele><time>2026-05-02T09:48:11.786Z</time></trkpt><trkpt lat="43.3925317" lon="12.2375"><ele>275.6666666666667</ele><time>2026-05-02T09:48:12.788Z</time></trkpt><trkpt lat="43.392375" lon="12.2376317"><ele>275.0</ele><time>2026-05-02T09:48:13.786Z</time></trkpt><trkpt lat="43.3922217" lon="12.23775"><ele>277.0</ele><time>2026-05-02T09:48:14.788Z</time></trkpt><trkpt lat="43.3920617" lon="12.2378517"><ele>279.0</ele><time>2026-05-02T09:48:15.787Z</time></trkpt><trkpt lat="43.3918883" lon="12.2379233"><ele>281.0</ele><time>2026-05-02T09:48:16.786Z</time></trkpt><trkpt lat="43.39169" lon="12.2379683"><ele>281.0</ele><time>2026-05-02T09:48:17.786Z</time></trkpt><trkpt lat="43.39148" lon="12.2379867"><ele>281.0</ele><time>2026-05-02T09:48:18.786Z</time></trkpt><trkpt lat="43.3912533" lon="12.2379867"><ele>281.0</ele><time>2026-05-02T09:48:19.786Z</time></trkpt><trkpt lat="43.39102" lon="12.2379783"><ele>280.5</ele><time>2026-05-02T09:48:20.787Z</time></trkpt><trkpt lat="43.3907833" lon="12.2379733"><ele>280.0</ele><time>2026-05-02T09:48:21.786Z</time></trkpt><trkpt lat="43.3905467" lon="12.237965"><ele>278.0</ele><time>2026-05-02T09:48:22.786Z</time></trkpt><trkpt lat="43.39031" lon="12.23795"><ele>276.0</ele><time>2026-05-02T09:48:23.786Z</time></trkpt><trkpt lat="43.3900733" lon="12.2379217"><ele>276.0</ele><time>2026-05-02T09:48:24.786Z</time></trkpt><trkpt lat="43.3898467" lon="12.237885"><ele>276.0</ele><time>2026-05-02T09:48:25.786Z</time></trkpt><trkpt lat="43.3896333" lon="12.2378533"><ele>276.0</ele><time>2026-05-02T09:48:26.786Z</time></trkpt><trkpt lat="43.3894367" lon="12.2378417"><ele>278.6666666666667</ele><time>2026-05-02T09:48:27.787Z</time></trkpt><trkpt lat="43.38924" lon="12.2378717"><ele>281.33333333333337</ele><time>2026-05-02T09:48:28.787Z</time></trkpt><trkpt lat="43.3890467" lon="12.2379467"><ele>284.0</ele><time>2026-05-02T09:48:29.787Z</time></trkpt><trkpt lat="43.3888533" lon="12.23805"><ele>279.6666666666667</ele><time>2026-05-02T09:48:30.789Z</time></trkpt><trkpt lat="43.3886567" lon="12.2381683"><ele>275.3333333333333</ele><time>2026-05-02T09:48:31.79Z</time></trkpt><trkpt lat="43.3884567" lon="12.2382883"><ele>271.0</ele><time>2026-05-02T09:48:32.789Z</time></trkpt><trkpt lat="43.388255" lon="12.2384083"><ele>271.0</ele><time>2026-05-02T09:48:33.789Z</time></trkpt><trkpt lat="43.3880533" lon="12.2385267"><ele>271.0</ele><time>2026-05-02T09:48:34.789Z</time></trkpt><trkpt lat="43.3878633" lon="12.2386367"><ele>271.0</ele><time>2026-05-02T09:48:35.79Z</time></trkpt><trkpt lat="43.3876817" lon="12.23874"><ele>272.3333333333333</ele><time>2026-05-02T09:48:36.789Z</time></trkpt><trkpt lat="43.3875083" lon="12.2388433"><ele>273.6666666666667</ele><time>2026-05-02T09:48:37.79Z</time></trkpt><trkpt lat="43.3873417" lon="12.2389417"><ele>275.0</ele><time>2026-05-02T09:48:38.789Z</time></trkpt><trkpt lat="43.38718" lon="12.2390183"><ele>272.33333333333337</ele><time>2026-05-02T09:48:39.789Z</time></trkpt><trkpt lat="43.3870083" lon="12.2390567"><ele>269.6666666666667</ele><time>2026-05-02T09:48:40.789Z</time></trkpt><trkpt lat="43.38682" lon="12.239055"><ele>267.0</ele><time>2026-05-02T09:48:41.789Z</time></trkpt><trkpt lat="43.3866167" lon="12.2390067"><ele>270.3333333333333</ele><time>2026-05-02T09:48:42.789Z</time></trkpt><trkpt lat="43.3864133" lon="12.2389333"><ele>273.66666666666663</ele><time>2026-05-02T09:48:43.789Z</time></trkpt><trkpt lat="43.386205" lon="12.23886"><ele>277.0</ele><time>2026-05-02T09:48:44.789Z</time></trkpt><trkpt lat="43.3859933" lon="12.2388017"><ele>277.0</ele><time>2026-05-02T09:48:45.789Z</time></trkpt><trkpt lat="43.385775" lon="12.2387917"><ele>277.0</ele><time>2026-05-02T09:48:46.789Z</time></trkpt><trkpt lat="43.3855583" lon="12.2388133"><ele>277.0</ele><time>2026-05-02T09:48:47.79Z</time></trkpt><trkpt lat="43.385345" lon="12.2388267"><ele>275.0</ele><time>2026-05-02T09:48:48.79Z</time></trkpt><trkpt lat="43.3851267" lon="12.2388067"><ele>273.0</ele><time>2026-05-02T09:48:49.789Z</time></trkpt><trkpt lat="43.3848983" lon="12.238755"><ele>272.0</ele><time>2026-05-02T09:48:50.789Z</time></trkpt><trkpt lat="43.3846667" lon="12.2386883"><ele>271.0</ele><time>2026-05-02T09:48:51.789Z</time></trkpt><trkpt lat="43.3844367" lon="12.2386233"><ele>271.0</ele><time>2026-05-02T09:48:52.79Z</time></trkpt><trkpt lat="43.38421" lon="12.23856"><ele>271.0</ele><time>2026-05-02T09:48:53.791Z</time></trkpt><trkpt lat="43.3839867" lon="12.2384983"><ele>270.66666666666663</ele><time>2026-05-02T09:48:54.789Z</time></trkpt><trkpt lat="43.3837683" lon="12.2384333"><ele>270.3333333333333</ele><time>2026-05-02T09:48:55.789Z</time></trkpt><trkpt lat="43.3835517" lon="12.2383683"><ele>270.0</ele><time>2026-05-02T09:48:56.79Z</time></trkpt><trkpt lat="43.3833367" lon="12.2383033"><ele>270.0</ele><time>2026-05-02T09:48:57.789Z</time></trkpt><trkpt lat="43.383125" lon="12.2382483"><ele>270.0</ele><time>2026-05-02T09:48:58.79Z</time></trkpt><trkpt lat="43.38292" lon="12.2382217"><ele>270.0</ele><time>2026-05-02T09:48:59.789Z</time></trkpt><trkpt lat="43.382725" lon="12.2382183"><ele>270.0</ele><time>2026-05-02T09:49:00.79Z</time></trkpt><trkpt lat="43.3825283" lon="12.238225"><ele>270.0</ele><time>2026-05-02T09:49:01.79Z</time></trkpt><trkpt lat="43.382325" lon="12.2382333"><ele>270.0</ele><time>2026-05-02T09:49:02.79Z</time></trkpt><trkpt lat="43.382115" lon="12.2382333"><ele>270.0</ele><time>2026-05-02T09:49:03.789Z</time></trkpt><trkpt lat="43.3819067" lon="12.2382217"><ele>270.0</ele><time>2026-05-02T09:49:04.79Z</time></trkpt><trkpt lat="43.3817083" lon="12.2381967"><ele>270.0</ele><time>2026-05-02T09:49:05.791Z</time></trkpt><trkpt lat="43.3815167" lon="12.2381633"><ele>271.0</ele><time>2026-05-02T09:49:06.789Z</time></trkpt><trkpt lat="43.3813233" lon="12.2381283"><ele>272.0</ele><time>2026-05-02T09:49:07.79Z</time></trkpt><trkpt lat="43.3811383" lon="12.2380917"><ele>273.0</ele><time>2026-05-02T09:49:08.789Z</time></trkpt><trkpt lat="43.38096" lon="12.2380583"><ele>273.0</ele><time>2026-05-02T09:49:09.789Z</time></trkpt><trkpt lat="43.380795" lon="12.2380283"><ele>273.0</ele><time>2026-05-02T09:49:10.789Z</time></trkpt><trkpt lat="43.380635" lon="12.2380033"><ele>273.0</ele><time>2026-05-02T09:49:11.791Z</time></trkpt><trkpt lat="43.3804817" lon="12.2379767"><ele>272.75</ele><time>2026-05-02T09:49:12.789Z</time></trkpt><trkpt lat="43.3803333" lon="12.2379517"><ele>272.5</ele><time>2026-05-02T09:49:13.79Z</time></trkpt><trkpt lat="43.3801983" lon="12.2379183"><ele>272.25</ele><time>2026-05-02T09:49:14.788Z</time></trkpt><trkpt lat="43.3800617" lon="12.2378767"><ele>272.0</ele><time>2026-05-02T09:49:15.79Z</time></trkpt><trkpt lat="43.3799233" lon="12.2378417"><ele>272.0</ele><time>2026-05-02T09:49:16.791Z</time></trkpt><trkpt lat="43.3797817" lon="12.2378167"><ele>272.0</ele><time>2026-05-02T09:49:17.79Z</time></trkpt><trkpt lat="43.3796383" lon="12.2378017"><ele>272.0</ele><time>2026-05-02T09:49:18.792Z</time></trkpt><trkpt lat="43.3794933" lon="12.23779"><ele>272.0</ele><time>2026-05-02T09:49:19.791Z</time></trkpt><trkpt lat="43.3793517" lon="12.2377733"><ele>271.0</ele><time>2026-05-02T09:49:20.79Z</time></trkpt><trkpt lat="43.3792067" lon="12.237755"><ele>270.0</ele><time>2026-05-02T09:49:21.788Z</time></trkpt><trkpt lat="43.3790533" lon="12.2377283"><ele>269.0</ele><time>2026-05-02T09:49:22.789Z</time></trkpt><trkpt lat="43.3788983" lon="12.2377017"><ele>268.33333333333337</ele><time>2026-05-02T09:49:23.789Z</time></trkpt><trkpt lat="43.378745" lon="12.2376667"><ele>267.6666666666667</ele><time>2026-05-02T09:49:24.787Z</time></trkpt><trkpt lat="43.3785883" lon="12.2376367"><ele>267.0</ele><time>2026-05-02T09:49:25.79Z</time></trkpt><trkpt lat="43.3784317" lon="12.2376083"><ele>267.0</ele><time>2026-05-02T09:49:26.787Z</time></trkpt><trkpt lat="43.3782733" lon="12.23758"><ele>267.0</ele><time>2026-05-02T09:49:27.786Z</time></trkpt><trkpt lat="43.378115" lon="12.23755"><ele>267.0</ele><time>2026-05-02T09:49:28.786Z</time></trkpt><trkpt lat="43.3779583" lon="12.23752"><ele>266.3333333333333</ele><time>2026-05-02T09:49:29.788Z</time></trkpt><trkpt lat="43.377805" lon="12.2374917"><ele>265.66666666666663</ele><time>2026-05-02T09:49:30.787Z</time></trkpt><trkpt lat="43.3776483" lon="12.2374633"><ele>265.0</ele><time>2026-05-02T09:49:31.787Z</time></trkpt><trkpt lat="43.3774933" lon="12.2374367"><ele>265.0</ele><time>2026-05-02T09:49:32.787Z</time></trkpt><trkpt lat="43.3773417" lon="12.2374133"><ele>265.0</ele><time>2026-05-02T09:49:33.787Z</time></trkpt><trkpt lat="43.3771933" lon="12.2373917"><ele>265.0</ele><time>2026-05-02T09:49:34.786Z</time></trkpt><trkpt lat="43.37705" lon="12.2373683"><ele>265.0</ele><time>2026-05-02T09:49:35.787Z</time></trkpt><trkpt lat="43.3769133" lon="12.2373533"><ele>265.75</ele><time>2026-05-02T09:49:36.786Z</time></trkpt><trkpt lat="43.3767817" lon="12.237355"><ele>266.5</ele><time>2026-05-02T09:49:37.787Z</time></trkpt><trkpt lat="43.3766483" lon="12.23739"><ele>267.25</ele><time>2026-05-02T09:49:38.789Z</time></trkpt><trkpt lat="43.3765033" lon="12.2374767"><ele>268.0</ele><time>2026-05-02T09:49:39.79Z</time></trkpt><trkpt lat="43.376345" lon="12.237615"><ele>271.3333333333333</ele><time>2026-05-02T09:49:40.791Z</time></trkpt><trkpt lat="43.3761717" lon="12.2377833"><ele>274.6666666666667</ele><time>2026-05-02T09:49:41.789Z</time></trkpt><trkpt lat="43.375985" lon="12.2379467"><ele>278.0</ele><time>2026-05-02T09:49:42.789Z</time></trkpt><trkpt lat="43.375795" lon="12.2381"><ele>277.6666666666667</ele><time>2026-05-02T09:49:43.788Z</time></trkpt><trkpt lat="43.3756183" lon="12.2382467"><ele>277.3333333333333</ele><time>2026-05-02T09:49:44.786Z</time></trkpt><trkpt lat="43.375455" lon="12.2383933"><ele>277.0</ele><time>2026-05-02T09:49:45.786Z</time></trkpt><trkpt lat="43.3753" lon="12.238535"><ele>277.0</ele><time>2026-05-02T09:49:46.788Z</time></trkpt><trkpt lat="43.3751417" lon="12.2386717"><ele>277.0</ele><time>2026-05-02T09:49:47.789Z</time></trkpt><trkpt lat="43.3749767" lon="12.2387983"><ele>277.0</ele><time>2026-05-02T09:49:48.785Z</time></trkpt><trkpt lat="43.3747917" lon="12.2389167"><ele>275.66666666666663</ele><time>2026-05-02T09:49:49.788Z</time></trkpt><trkpt lat="43.3745933" lon="12.2390167"><ele>274.3333333333333</ele><time>2026-05-02T09:49:50.788Z</time></trkpt><trkpt lat="43.374385" lon="12.2391117"><ele>273.0</ele><time>2026-05-02T09:49:51.79Z</time></trkpt><trkpt lat="43.3741633" lon="12.23922"><ele>273.0</ele><time>2026-05-02T09:49:52.789Z</time></trkpt><trkpt lat="43.373935" lon="12.23934"><ele>273.0</ele><time>2026-05-02T09:49:53.786Z</time></trkpt><trkpt lat="43.3737117" lon="12.23946"><ele>281.0</ele><time>2026-05-02T09:49:54.786Z</time></trkpt><trkpt lat="43.3734867" lon="12.23957"><ele>289.0</ele><time>2026-05-02T09:49:55.79Z</time></trkpt><trkpt lat="43.3732683" lon="12.2396733"><ele>289.0</ele><time>2026-05-02T09:49:56.787Z</time></trkpt><trkpt lat="43.3730467" lon="12.2397433"><ele>289.0</ele><time>2026-05-02T09:49:57.785Z</time></trkpt><trkpt lat="43.372835" lon="12.2397833"><ele>289.0</ele><time>2026-05-02T09:49:58.786Z</time></trkpt><trkpt lat="43.372635" lon="12.239785"><ele>289.0</ele><time>2026-05-02T09:49:59.785Z</time></trkpt><trkpt lat="43.3724417" lon="12.239765"><ele>289.0</ele><time>2026-05-02T09:50:00.785Z</time></trkpt><trkpt lat="43.37225" lon="12.2397183"><ele>289.0</ele><time>2026-05-02T09:50:01.785Z</time></trkpt><trkpt lat="43.37207" lon="12.2396483"><ele>284.66666666666663</ele><time>2026-05-02T09:50:02.786Z</time></trkpt><trkpt lat="43.3719" lon="12.2395667"><ele>280.3333333333333</ele><time>2026-05-02T09:50:03.785Z</time></trkpt><trkpt lat="43.371735" lon="12.2394817"><ele>276.0</ele><time>2026-05-02T09:50:04.786Z</time></trkpt><trkpt lat="43.3715883" lon="12.2394067"><ele>276.0</ele><time>2026-05-02T09:50:05.785Z</time></trkpt><trkpt lat="43.371455" lon="12.2393267"><ele>276.0</ele><time>2026-05-02T09:50:06.785Z</time></trkpt><trkpt lat="43.3713267" lon="12.23925"><ele>276.0</ele><time>2026-05-02T09:50:07.785Z</time></trkpt><trkpt lat="43.371205" lon="12.2391767"><ele>276.0</ele><time>2026-05-02T09:50:08.785Z</time></trkpt><trkpt lat="43.371095" lon="12.239105"><ele>275.8</ele><time>2026-05-02T09:50:09.789Z</time></trkpt><trkpt lat="43.370985" lon="12.2390283"><ele>275.6</ele><time>2026-05-02T09:50:10.79Z</time></trkpt><trkpt lat="43.3708867" lon="12.2389417"><ele>275.4</ele><time>2026-05-02T09:50:11.789Z</time></trkpt><trkpt lat="43.3707967" lon="12.23886"><ele>275.2</ele><time>2026-05-02T09:50:12.79Z</time></trkpt><trkpt lat="43.37072" lon="12.238775"><ele>275.0</ele><time>2026-05-02T09:50:13.785Z</time></trkpt><trkpt lat="43.3706483" lon="12.23869"><ele>275.0</ele><time>2026-05-02T09:50:14.79Z</time></trkpt><trkpt lat="43.3705817" lon="12.2386033"><ele>275.0</ele><time>2026-05-02T09:50:15.789Z</time></trkpt><trkpt lat="43.37052" lon="12.238515"><ele>275.0</ele><time>2026-05-02T09:50:16.789Z</time></trkpt><trkpt lat="43.3704717" lon="12.2384317"><ele>275.0</ele><time>2026-05-02T09:50:17.788Z</time></trkpt><trkpt lat="43.3704283" lon="12.23835"><ele>275.0</ele><time>2026-05-02T09:50:18.79Z</time></trkpt><trkpt lat="43.37039" lon="12.2382633"><ele>275.0</ele><time>2026-05-02T09:50:19.789Z</time></trkpt><trkpt lat="43.3703483" lon="12.2381667"><ele>274.4</ele><time>2026-05-02T09:50:20.789Z</time></trkpt><trkpt lat="43.3703017" lon="12.238055"><ele>273.8</ele><time>2026-05-02T09:50:21.789Z</time></trkpt><trkpt lat="43.3702533" lon="12.2379417"><ele>273.2</ele><time>2026-05-02T09:50:22.789Z</time></trkpt><trkpt lat="43.3701983" lon="12.237825"><ele>272.6</ele><time>2026-05-02T09:50:23.788Z</time></trkpt><trkpt lat="43.3701433" lon="12.2377033"><ele>272.0</ele><time>2026-05-02T09:50:24.785Z</time></trkpt><trkpt lat="43.3700917" lon="12.2375933"><ele>272.0</ele><time>2026-05-02T09:50:25.786Z</time></trkpt><trkpt lat="43.3700433" lon="12.2374867"><ele>272.0</ele><time>2026-05-02T09:50:26.787Z</time></trkpt><trkpt lat="43.3699917" lon="12.2373717"><ele>272.0</ele><time>2026-05-02T09:50:27.786Z</time></trkpt><trkpt lat="43.3699367" lon="12.23725"><ele>272.0</ele><time>2026-05-02T09:50:28.786Z</time></trkpt><trkpt lat="43.369885" lon="12.2371217"><ele>272.0</ele><time>2026-05-02T09:50:29.786Z</time></trkpt><trkpt lat="43.3698333" lon="12.236995"><ele>271.83333333333337</ele><time>2026-05-02T09:50:30.785Z</time></trkpt><trkpt lat="43.3697883" lon="12.2368733"><ele>271.6666666666667</ele><time>2026-05-02T09:50:31.789Z</time></trkpt><trkpt lat="43.3697517" lon="12.2367567"><ele>271.5</ele><time>2026-05-02T09:50:32.789Z</time></trkpt><trkpt lat="43.36972" lon="12.2366467"><ele>271.3333333333333</ele><time>2026-05-02T09:50:33.789Z</time></trkpt><trkpt lat="43.3696917" lon="12.2365417"><ele>271.16666666666663</ele><time>2026-05-02T09:50:34.792Z</time></trkpt><trkpt lat="43.3696633" lon="12.236435"><ele>271.0</ele><time>2026-05-02T09:50:35.787Z</time></trkpt><trkpt lat="43.3696383" lon="12.2363167"><ele>271.0</ele><time>2026-05-02T09:50:36.788Z</time></trkpt><trkpt lat="43.3696183" lon="12.236195"><ele>271.0</ele><time>2026-05-02T09:50:37.785Z</time></trkpt><trkpt lat="43.3695967" lon="12.2360667"><ele>271.0</ele><time>2026-05-02T09:50:38.788Z</time></trkpt><trkpt lat="43.369575" lon="12.23593"><ele>271.0</ele><time>2026-05-02T09:50:39.785Z</time></trkpt><trkpt lat="43.3695517" lon="12.2357883"><ele>271.0</ele><time>2026-05-02T09:50:40.786Z</time></trkpt><trkpt lat="43.3695267" lon="12.2356467"><ele>271.5</ele><time>2026-05-02T09:50:41.79Z</time></trkpt><trkpt lat="43.3695033" lon="12.2355"><ele>272.0</ele><time>2026-05-02T09:50:42.79Z</time></trkpt><trkpt lat="43.3694767" lon="12.2353433"><ele>272.5</ele><time>2026-05-02T09:50:43.789Z</time></trkpt><trkpt lat="43.36945" lon="12.235175"><ele>273.0</ele><time>2026-05-02T09:50:44.789Z</time></trkpt><trkpt lat="43.3694217" lon="12.2350017"><ele>273.0</ele><time>2026-05-02T09:50:45.789Z</time></trkpt><trkpt lat="43.3693883" lon="12.2348217"><ele>273.0</ele><time>2026-05-02T09:50:46.789Z</time></trkpt><trkpt lat="43.3693483" lon="12.2346333"><ele>273.0</ele><time>2026-05-02T09:50:47.792Z</time></trkpt><trkpt lat="43.369295" lon="12.2344417"><ele>273.0</ele><time>2026-05-02T09:50:48.786Z</time></trkpt><trkpt lat="43.3692233" lon="12.23425"><ele>274.0</ele><time>2026-05-02T09:50:49.786Z</time></trkpt><trkpt lat="43.3691417" lon="12.23407"><ele>275.0</ele><time>2026-05-02T09:50:50.786Z</time></trkpt><trkpt lat="43.3690433" lon="12.2338917"><ele>276.0</ele><time>2026-05-02T09:50:51.789Z</time></trkpt><trkpt lat="43.3689333" lon="12.2337167"><ele>274.6666666666667</ele><time>2026-05-02T09:50:52.788Z</time></trkpt><trkpt lat="43.3688233" lon="12.23354"><ele>273.33333333333337</ele><time>2026-05-02T09:50:53.791Z</time></trkpt><trkpt lat="43.3687133" lon="12.233365"><ele>272.0</ele><time>2026-05-02T09:50:54.788Z</time></trkpt><trkpt lat="43.3686033" lon="12.2331817"><ele>273.0</ele><time>2026-05-02T09:50:55.789Z</time></trkpt><trkpt lat="43.3684967" lon="12.232995"><ele>274.0</ele><time>2026-05-02T09:50:56.789Z</time></trkpt><trkpt lat="43.3683933" lon="12.232815"><ele>275.0</ele><time>2026-05-02T09:50:57.788Z</time></trkpt><trkpt lat="43.3682967" lon="12.23264"><ele>275.0</ele><time>2026-05-02T09:50:58.786Z</time></trkpt><trkpt lat="43.3682083" lon="12.2324717"><ele>275.0</ele><time>2026-05-02T09:50:59.788Z</time></trkpt><trkpt lat="43.3681317" lon="12.2323"><ele>275.0</ele><time>2026-05-02T09:51:00.789Z</time></trkpt><trkpt lat="43.3680633" lon="12.2321183"><ele>275.0</ele><time>2026-05-02T09:51:01.786Z</time></trkpt><trkpt lat="43.368005" lon="12.2319283"><ele>273.0</ele><time>2026-05-02T09:51:02.786Z</time></trkpt><trkpt lat="43.3679533" lon="12.23174"><ele>271.0</ele><time>2026-05-02T09:51:03.788Z</time></trkpt><trkpt lat="43.36791" lon="12.2315583"><ele>269.0</ele><time>2026-05-02T09:51:04.786Z</time></trkpt><trkpt lat="43.367875" lon="12.23138"><ele>267.0</ele><time>2026-05-02T09:51:05.789Z</time></trkpt><trkpt lat="43.3678467" lon="12.231205"><ele>267.0</ele><time>2026-05-02T09:51:06.788Z</time></trkpt><trkpt lat="43.3678217" lon="12.2310383"><ele>267.0</ele><time>2026-05-02T09:51:07.787Z</time></trkpt><trkpt lat="43.3677983" lon="12.230875"><ele>267.0</ele><time>2026-05-02T09:51:08.786Z</time></trkpt><trkpt lat="43.367775" lon="12.2307117"><ele>267.0</ele><time>2026-05-02T09:51:09.787Z</time></trkpt><trkpt lat="43.3677483" lon="12.2305467"><ele>267.25</ele><time>2026-05-02T09:51:10.789Z</time></trkpt><trkpt lat="43.36772" lon="12.230385"><ele>267.5</ele><time>2026-05-02T09:51:11.787Z</time></trkpt><trkpt lat="43.367695" lon="12.2302283"><ele>267.75</ele><time>2026-05-02T09:51:12.789Z</time></trkpt><trkpt lat="43.3676717" lon="12.2300717"><ele>268.0</ele><time>2026-05-02T09:51:13.789Z</time></trkpt><trkpt lat="43.3676483" lon="12.2299217"><ele>268.4</ele><time>2026-05-02T09:51:14.789Z</time></trkpt><trkpt lat="43.3676267" lon="12.2297783"><ele>268.8</ele><time>2026-05-02T09:51:15.789Z</time></trkpt><trkpt lat="43.367605" lon="12.2296383"><ele>269.2</ele><time>2026-05-02T09:51:16.789Z</time></trkpt><trkpt lat="43.3675817" lon="12.2294933"><ele>269.6</ele><time>2026-05-02T09:51:17.789Z</time></trkpt><trkpt lat="43.3675583" lon="12.2293417"><ele>270.0</ele><time>2026-05-02T09:51:18.79Z</time></trkpt><trkpt lat="43.367535" lon="12.22919"><ele>270.0</ele><time>2026-05-02T09:51:19.789Z</time></trkpt><trkpt lat="43.36751" lon="12.2290267"><ele>270.0</ele><time>2026-05-02T09:51:20.792Z</time></trkpt><trkpt lat="43.367485" lon="12.2288533"><ele>270.0</ele><time>2026-05-02T09:51:21.789Z</time></trkpt><trkpt lat="43.3674733" lon="12.22868"><ele>270.0</ele><time>2026-05-02T09:51:22.79Z</time></trkpt><trkpt lat="43.36746" lon="12.2285067"><ele>269.8</ele><time>2026-05-02T09:51:23.789Z</time></trkpt><trkpt lat="43.36745" lon="12.2283417"><ele>269.6</ele><time>2026-05-02T09:51:24.79Z</time></trkpt><trkpt lat="43.3674433" lon="12.2281867"><ele>269.4</ele><time>2026-05-02T09:51:25.789Z</time></trkpt><trkpt lat="43.36744" lon="12.2280367"><ele>269.2</ele><time>2026-05-02T09:51:26.785Z</time></trkpt><trkpt lat="43.3674383" lon="12.2278917"><ele>269.0</ele><time>2026-05-02T09:51:27.789Z</time></trkpt><trkpt lat="43.3674383" lon="12.2277483"><ele>269.0</ele><time>2026-05-02T09:51:28.785Z</time></trkpt><trkpt lat="43.3674417" lon="12.2275883"><ele>269.0</ele><time>2026-05-02T09:51:29.787Z</time></trkpt><trkpt lat="43.367445" lon="12.2274167"><ele>269.0</ele><time>2026-05-02T09:51:30.786Z</time></trkpt><trkpt lat="43.3674417" lon="12.227235"><ele>269.0</ele><time>2026-05-02T09:51:31.79Z</time></trkpt><trkpt lat="43.36743" lon="12.227055"><ele>268.75</ele><time>2026-05-02T09:51:32.789Z</time></trkpt><trkpt lat="43.3674083" lon="12.2268817"><ele>268.5</ele><time>2026-05-02T09:51:33.79Z</time></trkpt><trkpt lat="43.367375" lon="12.22672"><ele>268.25</ele><time>2026-05-02T09:51:34.789Z</time></trkpt><trkpt lat="43.3673317" lon="12.22657"><ele>268.0</ele><time>2026-05-02T09:51:35.79Z</time></trkpt><trkpt lat="43.367285" lon="12.2264367"><ele>267.8333333333333</ele><time>2026-05-02T09:51:36.789Z</time></trkpt><trkpt lat="43.367235" lon="12.2263117"><ele>267.66666666666663</ele><time>2026-05-02T09:51:37.789Z</time></trkpt><trkpt lat="43.3671867" lon="12.2261983"><ele>267.5</ele><time>2026-05-02T09:51:38.79Z</time></trkpt><trkpt lat="43.3671417" lon="12.226095"><ele>267.3333333333333</ele><time>2026-05-02T09:51:39.79Z</time></trkpt><trkpt lat="43.3671017" lon="12.2260033"><ele>267.1666666666667</ele><time>2026-05-02T09:51:40.79Z</time></trkpt><trkpt lat="43.367065" lon="12.22593"><ele>267.0</ele><time>2026-05-02T09:51:41.789Z</time></trkpt><trkpt lat="43.3669733" lon="12.225855"><ele>266.5</ele><time>2026-05-02T09:51:43.79Z</time></trkpt><trkpt lat="43.36691" lon="12.225855"><ele>266.0</ele><time>2026-05-02T09:51:44.789Z</time></trkpt><trkpt lat="43.3667467" lon="12.2259517"><ele>265.5</ele><time>2026-05-02T09:51:46.789Z</time></trkpt><trkpt lat="43.3666433" lon="12.2260217"><ele>265.0</ele><time>2026-05-02T09:51:47.792Z</time></trkpt><trkpt lat="43.366525" lon="12.22609"><ele>265.0</ele><time>2026-05-02T09:51:48.789Z</time></trkpt><trkpt lat="43.3664033" lon="12.2261617"><ele>265.0</ele><time>2026-05-02T09:51:49.789Z</time></trkpt><trkpt lat="43.3662767" lon="12.226235"><ele>265.0</ele><time>2026-05-02T09:51:50.786Z</time></trkpt><trkpt lat="43.366145" lon="12.2263083"><ele>265.0</ele><time>2026-05-02T09:51:51.786Z</time></trkpt><trkpt lat="43.3660033" lon="12.226385"><ele>265.3333333333333</ele><time>2026-05-02T09:51:52.786Z</time></trkpt><trkpt lat="43.3658533" lon="12.2264667"><ele>265.6666666666667</ele><time>2026-05-02T09:51:53.786Z</time></trkpt><trkpt lat="43.3656983" lon="12.22655"><ele>266.0</ele><time>2026-05-02T09:51:54.786Z</time></trkpt><trkpt lat="43.3655433" lon="12.2266317"><ele>265.6666666666667</ele><time>2026-05-02T09:51:55.79Z</time></trkpt><trkpt lat="43.3653917" lon="12.2267133"><ele>265.3333333333333</ele><time>2026-05-02T09:51:56.788Z</time></trkpt><trkpt lat="43.3652367" lon="12.226795"><ele>265.0</ele><time>2026-05-02T09:51:57.789Z</time></trkpt><trkpt lat="43.3650817" lon="12.22688"><ele>265.0</ele><time>2026-05-02T09:51:58.786Z</time></trkpt><trkpt lat="43.36493" lon="12.2269633"><ele>265.0</ele><time>2026-05-02T09:51:59.789Z</time></trkpt><trkpt lat="43.36478" lon="12.2270517"><ele>265.0</ele><time>2026-05-02T09:52:00.79Z</time></trkpt><trkpt lat="43.3646333" lon="12.2271367"><ele>264.5</ele><time>2026-05-02T09:52:01.786Z</time></trkpt><trkpt lat="43.3643383" lon="12.2273033"><ele>264.0</ele><time>2026-05-02T09:52:03.79Z</time></trkpt><trkpt lat="43.3641967" lon="12.22738"><ele>263.3333333333333</ele><time>2026-05-02T09:52:04.789Z</time></trkpt><trkpt lat="43.3640567" lon="12.22746"><ele>262.66666666666663</ele><time>2026-05-02T09:52:05.787Z</time></trkpt><trkpt lat="43.3639167" lon="12.22754"><ele>262.0</ele><time>2026-05-02T09:52:06.786Z</time></trkpt><trkpt lat="43.3637783" lon="12.2276167"><ele>261.5</ele><time>2026-05-02T09:52:07.79Z</time></trkpt><trkpt lat="43.3636433" lon="12.2276933"><ele>261.0</ele><time>2026-05-02T09:52:08.789Z</time></trkpt><trkpt lat="43.3635083" lon="12.2277683"><ele>260.5</ele><time>2026-05-02T09:52:09.789Z</time></trkpt><trkpt lat="43.36337" lon="12.2278433"><ele>260.0</ele><time>2026-05-02T09:52:10.787Z</time></trkpt><trkpt lat="43.3632333" lon="12.2279167"><ele>260.0</ele><time>2026-05-02T09:52:11.79Z</time></trkpt><trkpt lat="43.3630983" lon="12.22799"><ele>260.0</ele><time>2026-05-02T09:52:12.789Z</time></trkpt><trkpt lat="43.3629667" lon="12.2280667"><ele>260.0</ele><time>2026-05-02T09:52:13.789Z</time></trkpt><trkpt lat="43.3628417" lon="12.2281417"><ele>260.0</ele><time>2026-05-02T09:52:14.789Z</time></trkpt><trkpt lat="43.3627283" lon="12.2282117"><ele>259.6</ele><time>2026-05-02T09:52:15.789Z</time></trkpt><trkpt lat="43.36262" lon="12.2282783"><ele>259.2</ele><time>2026-05-02T09:52:16.789Z</time></trkpt><trkpt lat="43.362525" lon="12.228345"><ele>258.8</ele><time>2026-05-02T09:52:17.788Z</time></trkpt><trkpt lat="43.3624333" lon="12.2284083"><ele>258.4</ele><time>2026-05-02T09:52:18.79Z</time></trkpt><trkpt lat="43.362355" lon="12.2284667"><ele>258.0</ele><time>2026-05-02T09:52:19.789Z</time></trkpt><trkpt lat="43.362285" lon="12.22851"><ele>258.0</ele><time>2026-05-02T09:52:20.789Z</time></trkpt><trkpt lat="43.362225" lon="12.2285417"><ele>258.0</ele><time>2026-05-02T09:52:21.786Z</time></trkpt><trkpt lat="43.3621083" lon="12.2285467"><ele>258.0</ele><time>2026-05-02T09:52:23.79Z</time></trkpt><trkpt lat="43.362" lon="12.2284517"><ele>258.0</ele><time>2026-05-02T09:52:25.789Z</time></trkpt><trkpt lat="43.3618767" lon="12.228425"><ele>258.0</ele><time>2026-05-02T09:52:27.789Z</time></trkpt><trkpt lat="43.361815" lon="12.2284683"><ele>257.8333333333333</ele><time>2026-05-02T09:52:28.789Z</time></trkpt><trkpt lat="43.3617633" lon="12.2285417"><ele>257.6666666666667</ele><time>2026-05-02T09:52:29.79Z</time></trkpt><trkpt lat="43.3617383" lon="12.228635"><ele>257.5</ele><time>2026-05-02T09:52:30.789Z</time></trkpt><trkpt lat="43.3617483" lon="12.2287467"><ele>257.33333333333337</ele><time>2026-05-02T09:52:31.789Z</time></trkpt><trkpt lat="43.3617883" lon="12.2288683"><ele>257.1666666666667</ele><time>2026-05-02T09:52:32.79Z</time></trkpt><trkpt lat="43.36183" lon="12.2289833"><ele>257.0</ele><time>2026-05-02T09:52:33.789Z</time></trkpt><trkpt lat="43.3618717" lon="12.22912"><ele>256.75</ele><time>2026-05-02T09:52:34.789Z</time></trkpt><trkpt lat="43.3619" lon="12.2292783"><ele>256.5</ele><time>2026-05-02T09:52:35.79Z</time></trkpt><trkpt lat="43.36192" lon="12.229445"><ele>256.25</ele><time>2026-05-02T09:52:36.789Z</time></trkpt><trkpt lat="43.3619417" lon="12.2296417"><ele>256.0</ele><time>2026-05-02T09:52:37.79Z</time></trkpt><trkpt lat="43.3619633" lon="12.2298817"><ele>256.0</ele><time>2026-05-02T09:52:38.79Z</time></trkpt><trkpt lat="43.3619833" lon="12.2301717"><ele>256.0</ele><time>2026-05-02T09:52:39.789Z</time></trkpt><trkpt lat="43.3619983" lon="12.2305033"><ele>256.0</ele><time>2026-05-02T09:52:40.791Z</time></trkpt><trkpt lat="43.3620117" lon="12.230855"><ele>256.0</ele><time>2026-05-02T09:52:41.789Z</time></trkpt><trkpt lat="43.36203" lon="12.2312233"><ele>256.5</ele><time>2026-05-02T09:52:42.79Z</time></trkpt><trkpt lat="43.3620517" lon="12.2316067"><ele>257.0</ele><time>2026-05-02T09:52:43.789Z</time></trkpt><trkpt lat="43.362075" lon="12.2320033"><ele>257.0</ele><time>2026-05-02T09:52:44.789Z</time></trkpt><trkpt lat="43.3620967" lon="12.2324067"><ele>257.0</ele><time>2026-05-02T09:52:45.789Z</time></trkpt><trkpt lat="43.3621167" lon="12.2328133"><ele>257.0</ele><time>2026-05-02T09:52:46.79Z</time></trkpt><trkpt lat="43.3621367" lon="12.23321"><ele>257.0</ele><time>2026-05-02T09:52:47.79Z</time></trkpt><trkpt lat="43.3621567" lon="12.23358"><ele>257.0</ele><time>2026-05-02T09:52:48.79Z</time></trkpt><trkpt lat="43.362175" lon="12.2339317"><ele>257.0</ele><time>2026-05-02T09:52:49.79Z</time></trkpt><trkpt lat="43.3621917" lon="12.2342733"><ele>257.0</ele><time>2026-05-02T09:52:50.789Z</time></trkpt><trkpt lat="43.3622083" lon="12.234605"><ele>257.0</ele><time>2026-05-02T09:52:51.789Z</time></trkpt><trkpt lat="43.3622233" lon="12.2349233"><ele>257.6666666666667</ele><time>2026-05-02T09:52:52.789Z</time></trkpt><trkpt lat="43.3622383" lon="12.23523"><ele>258.3333333333333</ele><time>2026-05-02T09:52:53.79Z</time></trkpt><trkpt lat="43.3622517" lon="12.235525"><ele>259.0</ele><time>2026-05-02T09:52:54.789Z</time></trkpt><trkpt lat="43.3622617" lon="12.2358067"><ele>259.0</ele><time>2026-05-02T09:52:55.789Z</time></trkpt><trkpt lat="43.3622683" lon="12.23608"><ele>259.0</ele><time>2026-05-02T09:52:56.788Z</time></trkpt><trkpt lat="43.3622717" lon="12.2365817"><ele>259.0</ele><time>2026-05-02T09:52:58.789Z</time></trkpt><trkpt lat="43.3622683" lon="12.23681"><ele>259.0</ele><time>2026-05-02T09:52:59.789Z</time></trkpt><trkpt lat="43.3622633" lon="12.23702"><ele>259.0</ele><time>2026-05-02T09:53:00.788Z</time></trkpt><trkpt lat="43.3622517" lon="12.2372"><ele>259.0</ele><time>2026-05-02T09:53:01.785Z</time></trkpt><trkpt lat="43.36223" lon="12.2373467"><ele>259.0</ele><time>2026-05-02T09:53:02.789Z</time></trkpt><trkpt lat="43.3622" lon="12.23746"><ele>259.0</ele><time>2026-05-02T09:53:03.789Z</time></trkpt><trkpt lat="43.3621583" lon="12.237555"><ele>259.0</ele><time>2026-05-02T09:53:04.788Z</time></trkpt><trkpt lat="43.3620983" lon="12.2376383"><ele>259.0</ele><time>2026-05-02T09:53:05.789Z</time></trkpt><trkpt lat="43.3620133" lon="12.2377117"><ele>259.0</ele><time>2026-05-02T09:53:06.788Z</time></trkpt><trkpt lat="43.3618917" lon="12.2377667"><ele>259.0</ele><time>2026-05-02T09:53:07.789Z</time></trkpt><trkpt lat="43.36175" lon="12.2378017"><ele>259.0</ele><time>2026-05-02T09:53:08.788Z</time></trkpt><trkpt lat="43.3615767" lon="12.2378283"><ele>259.0</ele><time>2026-05-02T09:53:09.789Z</time></trkpt><trkpt lat="43.361395" lon="12.2378483"><ele>258.75</ele><time>2026-05-02T09:53:10.788Z</time></trkpt><trkpt lat="43.3612367" lon="12.237865"><ele>258.5</ele><time>2026-05-02T09:53:11.79Z</time></trkpt><trkpt lat="43.3610917" lon="12.2378717"><ele>258.25</ele><time>2026-05-02T09:53:12.788Z</time></trkpt><trkpt lat="43.360965" lon="12.2378683"><ele>258.0</ele><time>2026-05-02T09:53:13.788Z</time></trkpt><trkpt lat="43.36085" lon="12.2378483"><ele>258.0</ele><time>2026-05-02T09:53:14.789Z</time></trkpt><trkpt lat="43.360735" lon="12.2378083"><ele>258.0</ele><time>2026-05-02T09:53:15.788Z</time></trkpt><trkpt lat="43.3606083" lon="12.2377617"><ele>258.0</ele><time>2026-05-02T09:53:16.789Z</time></trkpt><trkpt lat="43.3604767" lon="12.2377033"><ele>258.0</ele><time>2026-05-02T09:53:17.79Z</time></trkpt><trkpt lat="43.3603333" lon="12.2376433"><ele>258.25</ele><time>2026-05-02T09:53:18.788Z</time></trkpt><trkpt lat="43.3601917" lon="12.2375817"><ele>258.5</ele><time>2026-05-02T09:53:19.787Z</time></trkpt><trkpt lat="43.3600467" lon="12.237525"><ele>258.75</ele><time>2026-05-02T09:53:20.788Z</time></trkpt><trkpt lat="43.3599067" lon="12.237475"><ele>259.0</ele><time>2026-05-02T09:53:21.789Z</time></trkpt><trkpt lat="43.3597733" lon="12.2374217"><ele>259.0</ele><time>2026-05-02T09:53:22.788Z</time></trkpt><trkpt lat="43.3596383" lon="12.2373733"><ele>259.0</ele><time>2026-05-02T09:53:23.789Z</time></trkpt><trkpt lat="43.3594967" lon="12.2373333"><ele>259.0</ele><time>2026-05-02T09:53:24.785Z</time></trkpt><trkpt lat="43.3593567" lon="12.2372983"><ele>259.0</ele><time>2026-05-02T09:53:25.788Z</time></trkpt><trkpt lat="43.3592183" lon="12.2372617"><ele>259.0</ele><time>2026-05-02T09:53:26.789Z</time></trkpt><trkpt lat="43.359075" lon="12.2372383"><ele>259.0</ele><time>2026-05-02T09:53:27.789Z</time></trkpt><trkpt lat="43.3589317" lon="12.237205"><ele>259.0</ele><time>2026-05-02T09:53:28.788Z</time></trkpt><trkpt lat="43.3587817" lon="12.2371767"><ele>259.0</ele><time>2026-05-02T09:53:29.789Z</time></trkpt><trkpt lat="43.35862" lon="12.2371583"><ele>258.66666666666663</ele><time>2026-05-02T09:53:30.788Z</time></trkpt><trkpt lat="43.3584433" lon="12.2371667"><ele>258.3333333333333</ele><time>2026-05-02T09:53:31.79Z</time></trkpt><trkpt lat="43.3582617" lon="12.23719"><ele>258.0</ele><time>2026-05-02T09:53:32.788Z</time></trkpt><trkpt lat="43.358075" lon="12.237215"><ele>258.3333333333333</ele><time>2026-05-02T09:53:33.789Z</time></trkpt><trkpt lat="43.35789" lon="12.2372333"><ele>258.66666666666663</ele><time>2026-05-02T09:53:34.787Z</time></trkpt><trkpt lat="43.357715" lon="12.2372483"><ele>259.0</ele><time>2026-05-02T09:53:35.788Z</time></trkpt><trkpt lat="43.3575483" lon="12.2372617"><ele>259.0</ele><time>2026-05-02T09:53:36.789Z</time></trkpt><trkpt lat="43.3573867" lon="12.23728"><ele>259.0</ele><time>2026-05-02T09:53:37.789Z</time></trkpt><trkpt lat="43.3572317" lon="12.2373"><ele>259.0</ele><time>2026-05-02T09:53:38.79Z</time></trkpt><trkpt lat="43.3570733" lon="12.23732"><ele>259.0</ele><time>2026-05-02T09:53:39.787Z</time></trkpt><trkpt lat="43.3569" lon="12.2373467"><ele>259.0</ele><time>2026-05-02T09:53:40.786Z</time></trkpt><trkpt lat="43.35671" lon="12.23738"><ele>259.0</ele><time>2026-05-02T09:53:41.786Z</time></trkpt><trkpt lat="43.3565133" lon="12.2374017"><ele>259.0</ele><time>2026-05-02T09:53:42.785Z</time></trkpt><trkpt lat="43.356315" lon="12.23742"><ele>259.0</ele><time>2026-05-02T09:53:43.786Z</time></trkpt><trkpt lat="43.3561267" lon="12.2374383"><ele>259.0</ele><time>2026-05-02T09:53:44.785Z</time></trkpt><trkpt lat="43.3559483" lon="12.2374583"><ele>259.0</ele><time>2026-05-02T09:53:45.789Z</time></trkpt><trkpt lat="43.3557817" lon="12.2374783"><ele>259.0</ele><time>2026-05-02T09:53:46.787Z</time></trkpt><trkpt lat="43.355625" lon="12.2375083"><ele>259.0</ele><time>2026-05-02T09:53:47.786Z</time></trkpt><trkpt lat="43.3554783" lon="12.2375333"><ele>259.5</ele><time>2026-05-02T09:53:48.789Z</time></trkpt><trkpt lat="43.355345" lon="12.237545"><ele>260.0</ele><time>2026-05-02T09:53:49.785Z</time></trkpt><trkpt lat="43.3552267" lon="12.2375317"><ele>260.5</ele><time>2026-05-02T09:53:50.786Z</time></trkpt><trkpt lat="43.3551283" lon="12.2374817"><ele>261.0</ele><time>2026-05-02T09:53:51.788Z</time></trkpt><trkpt lat="43.3550533" lon="12.2373833"><ele>261.5</ele><time>2026-05-02T09:53:52.789Z</time></trkpt><trkpt lat="43.3550067" lon="12.2372433"><ele>262.0</ele><time>2026-05-02T09:53:53.789Z</time></trkpt><trkpt lat="43.3549833" lon="12.2370717"><ele>262.5</ele><time>2026-05-02T09:53:54.788Z</time></trkpt><trkpt lat="43.3549767" lon="12.236885"><ele>263.0</ele><time>2026-05-02T09:53:55.789Z</time></trkpt><trkpt lat="43.3549733" lon="12.2366867"><ele>263.0</ele><time>2026-05-02T09:53:56.79Z</time></trkpt><trkpt lat="43.3549717" lon="12.2364767"><ele>263.0</ele><time>2026-05-02T09:53:57.789Z</time></trkpt><trkpt lat="43.3549733" lon="12.2362617"><ele>263.0</ele><time>2026-05-02T09:53:58.789Z</time></trkpt><trkpt lat="43.35497" lon="12.2360383"><ele>263.33333333333337</ele><time>2026-05-02T09:53:59.79Z</time></trkpt><trkpt lat="43.354965" lon="12.235805"><ele>263.6666666666667</ele><time>2026-05-02T09:54:00.79Z</time></trkpt><trkpt lat="43.3549517" lon="12.235565"><ele>264.0</ele><time>2026-05-02T09:54:01.789Z</time></trkpt><trkpt lat="43.354935" lon="12.2353167"><ele>262.6666666666667</ele><time>2026-05-02T09:54:02.789Z</time></trkpt><trkpt lat="43.3549083" lon="12.2350617"><ele>261.33333333333337</ele><time>2026-05-02T09:54:03.79Z</time></trkpt><trkpt lat="43.3548717" lon="12.234805"><ele>260.0</ele><time>2026-05-02T09:54:04.788Z</time></trkpt><trkpt lat="43.35482" lon="12.2345467"><ele>259.6666666666667</ele><time>2026-05-02T09:54:05.789Z</time></trkpt><trkpt lat="43.3547517" lon="12.2342967"><ele>259.3333333333333</ele><time>2026-05-02T09:54:06.789Z</time></trkpt><trkpt lat="43.35467" lon="12.2340517"><ele>259.0</ele><time>2026-05-02T09:54:07.789Z</time></trkpt><trkpt lat="43.3545817" lon="12.2338133"><ele>260.3333333333333</ele><time>2026-05-02T09:54:08.79Z</time></trkpt><trkpt lat="43.3544867" lon="12.23358"><ele>261.6666666666667</ele><time>2026-05-02T09:54:09.79Z</time></trkpt><trkpt lat="43.35439" lon="12.2333583"><ele>263.0</ele><time>2026-05-02T09:54:10.789Z</time></trkpt><trkpt lat="43.3542983" lon="12.2331533"><ele>262.6666666666667</ele><time>2026-05-02T09:54:11.789Z</time></trkpt><trkpt lat="43.35421" lon="12.23296"><ele>262.3333333333333</ele><time>2026-05-02T09:54:12.788Z</time></trkpt><trkpt lat="43.3541267" lon="12.23277"><ele>262.0</ele><time>2026-05-02T09:54:13.788Z</time></trkpt><trkpt lat="43.3540517" lon="12.2325883"><ele>262.0</ele><time>2026-05-02T09:54:14.789Z</time></trkpt><trkpt lat="43.3539783" lon="12.232415"><ele>262.0</ele><time>2026-05-02T09:54:15.788Z</time></trkpt><trkpt lat="43.3539117" lon="12.2322467"><ele>262.0</ele><time>2026-05-02T09:54:16.789Z</time></trkpt><trkpt lat="43.3538433" lon="12.2320833"><ele>262.0</ele><time>2026-05-02T09:54:17.791Z</time></trkpt><trkpt lat="43.353775" lon="12.231915"><ele>262.25</ele><time>2026-05-02T09:54:18.79Z</time></trkpt><trkpt lat="43.3537033" lon="12.2317533"><ele>262.5</ele><time>2026-05-02T09:54:19.789Z</time></trkpt><trkpt lat="43.3536367" lon="12.2315983"><ele>262.75</ele><time>2026-05-02T09:54:20.789Z</time></trkpt><trkpt lat="43.353565" lon="12.2314317"><ele>263.0</ele><time>2026-05-02T09:54:21.789Z</time></trkpt><trkpt lat="43.3534883" lon="12.231245"><ele>263.0</ele><time>2026-05-02T09:54:22.789Z</time></trkpt><trkpt lat="43.3533967" lon="12.231035"><ele>263.0</ele><time>2026-05-02T09:54:23.789Z</time></trkpt><trkpt lat="43.3533" lon="12.2308"><ele>263.0</ele><time>2026-05-02T09:54:24.789Z</time></trkpt><trkpt lat="43.35321" lon="12.23054"><ele>263.6666666666667</ele><time>2026-05-02T09:54:25.789Z</time></trkpt><trkpt lat="43.3531167" lon="12.230275"><ele>264.3333333333333</ele><time>2026-05-02T09:54:26.79Z</time></trkpt><trkpt lat="43.3530183" lon="12.2300083"><ele>265.0</ele><time>2026-05-02T09:54:27.789Z</time></trkpt><trkpt lat="43.3529183" lon="12.2297433"><ele>263.66666666666663</ele><time>2026-05-02T09:54:28.789Z</time></trkpt><trkpt lat="43.3528133" lon="12.229475"><ele>262.3333333333333</ele><time>2026-05-02T09:54:29.789Z</time></trkpt><trkpt lat="43.35271" lon="12.2292017"><ele>261.0</ele><time>2026-05-02T09:54:30.79Z</time></trkpt><trkpt lat="43.3525983" lon="12.2289167"><ele>261.0</ele><time>2026-05-02T09:54:31.79Z</time></trkpt><trkpt lat="43.3524833" lon="12.2286283"><ele>261.0</ele><time>2026-05-02T09:54:32.789Z</time></trkpt><trkpt lat="43.35237" lon="12.2283417"><ele>260.5</ele><time>2026-05-02T09:54:33.789Z</time></trkpt><trkpt lat="43.3522567" lon="12.2280633"><ele>260.0</ele><time>2026-05-02T09:54:34.789Z</time></trkpt><trkpt lat="43.35214" lon="12.2277933"><ele>262.5</ele><time>2026-05-02T09:54:35.789Z</time></trkpt><trkpt lat="43.3520117" lon="12.2275333"><ele>265.0</ele><time>2026-05-02T09:54:36.789Z</time></trkpt><trkpt lat="43.35188" lon="12.2272783"><ele>265.0</ele><time>2026-05-02T09:54:37.786Z</time></trkpt><trkpt lat="43.35174" lon="12.2270333"><ele>265.0</ele><time>2026-05-02T09:54:38.789Z</time></trkpt><trkpt lat="43.3515817" lon="12.2268"><ele>265.0</ele><time>2026-05-02T09:54:39.79Z</time></trkpt><trkpt lat="43.35141" lon="12.2265817"><ele>265.0</ele><time>2026-05-02T09:54:40.789Z</time></trkpt><trkpt lat="43.35123" lon="12.226385"><ele>266.5</ele><time>2026-05-02T09:54:41.789Z</time></trkpt><trkpt lat="43.3510367" lon="12.2262033"><ele>268.0</ele><time>2026-05-02T09:54:42.789Z</time></trkpt><trkpt lat="43.3508333" lon="12.2260417"><ele>268.0</ele><time>2026-05-02T09:54:43.789Z</time></trkpt><trkpt lat="43.350625" lon="12.2259117"><ele>268.0</ele><time>2026-05-02T09:54:44.789Z</time></trkpt><trkpt lat="43.3504267" lon="12.2257967"><ele>268.0</ele><time>2026-05-02T09:54:45.789Z</time></trkpt><trkpt lat="43.35024" lon="12.22569"><ele>268.0</ele><time>2026-05-02T09:54:46.789Z</time></trkpt><trkpt lat="43.35006" lon="12.2255883"><ele>268.0</ele><time>2026-05-02T09:54:47.792Z</time></trkpt><trkpt lat="43.3498817" lon="12.225485"><ele>268.0</ele><time>2026-05-02T09:54:48.789Z</time></trkpt><trkpt lat="43.349705" lon="12.2253783"><ele>268.0</ele><time>2026-05-02T09:54:49.789Z</time></trkpt><trkpt lat="43.3495317" lon="12.225275"><ele>268.0</ele><time>2026-05-02T09:54:50.79Z</time></trkpt><trkpt lat="43.3493583" lon="12.225175"><ele>268.0</ele><time>2026-05-02T09:54:51.791Z</time></trkpt><trkpt lat="43.3491917" lon="12.2250833"><ele>268.0</ele><time>2026-05-02T09:54:52.789Z</time></trkpt><trkpt lat="43.3490283" lon="12.2249933"><ele>268.0</ele><time>2026-05-02T09:54:53.789Z</time></trkpt><trkpt lat="43.3488717" lon="12.2249083"><ele>268.0</ele><time>2026-05-02T09:54:54.789Z</time></trkpt><trkpt lat="43.3487133" lon="12.224825"><ele>267.3333333333333</ele><time>2026-05-02T09:54:55.789Z</time></trkpt><trkpt lat="43.3485583" lon="12.2247433"><ele>266.6666666666667</ele><time>2026-05-02T09:54:56.789Z</time></trkpt><trkpt lat="43.348405" lon="12.2246683"><ele>266.0</ele><time>2026-05-02T09:54:57.789Z</time></trkpt><trkpt lat="43.3482567" lon="12.2246017"><ele>266.0</ele><time>2026-05-02T09:54:58.79Z</time></trkpt><trkpt lat="43.348115" lon="12.2245383"><ele>266.0</ele><time>2026-05-02T09:54:59.789Z</time></trkpt><trkpt lat="43.3479683" lon="12.2244717"><ele>266.0</ele><time>2026-05-02T09:55:00.789Z</time></trkpt><trkpt lat="43.34782" lon="12.2243933"><ele>268.0</ele><time>2026-05-02T09:55:01.786Z</time></trkpt><trkpt lat="43.3476633" lon="12.2243033"><ele>270.0</ele><time>2026-05-02T09:55:02.787Z</time></trkpt><trkpt lat="43.34751" lon="12.2242083"><ele>272.0</ele><time>2026-05-02T09:55:03.787Z</time></trkpt><trkpt lat="43.3473583" lon="12.2241267"><ele>272.0</ele><time>2026-05-02T09:55:04.789Z</time></trkpt><trkpt lat="43.347215" lon="12.224055"><ele>272.0</ele><time>2026-05-02T09:55:05.789Z</time></trkpt><trkpt lat="43.347085" lon="12.2239867"><ele>272.0</ele><time>2026-05-02T09:55:06.789Z</time></trkpt><trkpt lat="43.3469683" lon="12.223915"><ele>272.0</ele><time>2026-05-02T09:55:07.789Z</time></trkpt><trkpt lat="43.3468617" lon="12.223835"><ele>272.2</ele><time>2026-05-02T09:55:08.786Z</time></trkpt><trkpt lat="43.3467617" lon="12.22375"><ele>272.4</ele><time>2026-05-02T09:55:09.786Z</time></trkpt><trkpt lat="43.3466717" lon="12.2236667"><ele>272.6</ele><time>2026-05-02T09:55:10.786Z</time></trkpt><trkpt lat="43.3466" lon="12.2235867"><ele>272.8</ele><time>2026-05-02T09:55:11.788Z</time></trkpt><trkpt lat="43.3465367" lon="12.2235133"><ele>273.0</ele><time>2026-05-02T09:55:12.787Z</time></trkpt><trkpt lat="43.3464733" lon="12.2234467"><ele>273.0</ele><time>2026-05-02T09:55:13.787Z</time></trkpt><trkpt lat="43.3464133" lon="12.223385"><ele>273.0</ele><time>2026-05-02T09:55:14.786Z</time></trkpt><trkpt lat="43.3463533" lon="12.2233233"><ele>273.0</ele><time>2026-05-02T09:55:15.787Z</time></trkpt><trkpt lat="43.3462883" lon="12.223265"><ele>273.0</ele><time>2026-05-02T09:55:16.786Z</time></trkpt><trkpt lat="43.3462217" lon="12.2231967"><ele>273.0</ele><time>2026-05-02T09:55:17.786Z</time></trkpt><trkpt lat="43.3461517" lon="12.2231217"><ele>273.0</ele><time>2026-05-02T09:55:18.786Z</time></trkpt><trkpt lat="43.346085" lon="12.2230367"><ele>273.1666666666667</ele><time>2026-05-02T09:55:19.786Z</time></trkpt><trkpt lat="43.3460167" lon="12.22295"><ele>273.3333333333333</ele><time>2026-05-02T09:55:20.786Z</time></trkpt><trkpt lat="43.3459567" lon="12.2228583"><ele>273.5</ele><time>2026-05-02T09:55:21.786Z</time></trkpt><trkpt lat="43.345905" lon="12.2227717"><ele>273.66666666666663</ele><time>2026-05-02T09:55:22.788Z</time></trkpt><trkpt lat="43.3458533" lon="12.2226983"><ele>273.8333333333333</ele><time>2026-05-02T09:55:23.788Z</time></trkpt><trkpt lat="43.3458033" lon="12.2226233"><ele>274.0</ele><time>2026-05-02T09:55:24.789Z</time></trkpt><trkpt lat="43.3457317" lon="12.222505"><ele>274.0</ele><time>2026-05-02T09:55:26.789Z</time></trkpt><trkpt lat="43.345695" lon="12.2224317"><ele>274.0</ele><time>2026-05-02T09:55:29.789Z</time></trkpt><trkpt lat="43.3456433" lon="12.22236"><ele>274.0</ele><time>2026-05-02T09:55:32.789Z</time></trkpt><trkpt lat="43.3455467" lon="12.2222267"><ele>274.0</ele><time>2026-05-02T09:55:34.789Z</time></trkpt><trkpt lat="43.3454883" lon="12.2221333"><ele>274.0</ele><time>2026-05-02T09:55:35.789Z</time></trkpt><trkpt lat="43.3454167" lon="12.2220217"><ele>273.75</ele><time>2026-05-02T09:55:36.789Z</time></trkpt><trkpt lat="43.3453333" lon="12.2218867"><ele>273.5</ele><time>2026-05-02T09:55:37.789Z</time></trkpt><trkpt lat="43.3452467" lon="12.221745"><ele>273.25</ele><time>2026-05-02T09:55:38.789Z</time></trkpt><trkpt lat="43.3451517" lon="12.2215967"><ele>273.0</ele><time>2026-05-02T09:55:39.789Z</time></trkpt><trkpt lat="43.3450517" lon="12.22144"><ele>272.3333333333333</ele><time>2026-05-02T09:55:40.79Z</time></trkpt><trkpt lat="43.3449467" lon="12.22128"><ele>271.66666666666663</ele><time>2026-05-02T09:55:41.79Z</time></trkpt><trkpt lat="43.3448383" lon="12.22111"><ele>271.0</ele><time>2026-05-02T09:55:42.789Z</time></trkpt><trkpt lat="43.3447233" lon="12.220935"><ele>270.66666666666663</ele><time>2026-05-02T09:55:43.789Z</time></trkpt><trkpt lat="43.3446067" lon="12.22075"><ele>270.3333333333333</ele><time>2026-05-02T09:55:44.789Z</time></trkpt><trkpt lat="43.3444783" lon="12.220565"><ele>270.0</ele><time>2026-05-02T09:55:45.79Z</time></trkpt><trkpt lat="43.3443483" lon="12.220375"><ele>269.6666666666667</ele><time>2026-05-02T09:55:46.791Z</time></trkpt><trkpt lat="43.3442133" lon="12.2201867"><ele>269.33333333333337</ele><time>2026-05-02T09:55:47.79Z</time></trkpt><trkpt lat="43.3440783" lon="12.2200033"><ele>269.0</ele><time>2026-05-02T09:55:48.79Z</time></trkpt><trkpt lat="43.3439367" lon="12.2198183"><ele>269.6666666666667</ele><time>2026-05-02T09:55:49.789Z</time></trkpt><trkpt lat="43.3437883" lon="12.2196383"><ele>270.3333333333333</ele><time>2026-05-02T09:55:50.79Z</time></trkpt><trkpt lat="43.343635" lon="12.2194667"><ele>271.0</ele><time>2026-05-02T09:55:51.79Z</time></trkpt><trkpt lat="43.3434817" lon="12.219295"><ele>271.0</ele><time>2026-05-02T09:55:52.79Z</time></trkpt><trkpt lat="43.3433317" lon="12.21913"><ele>271.0</ele><time>2026-05-02T09:55:53.79Z</time></trkpt><trkpt lat="43.3431717" lon="12.218955"><ele>271.0</ele><time>2026-05-02T09:55:54.79Z</time></trkpt><trkpt lat="43.343005" lon="12.21878"><ele>272.0</ele><time>2026-05-02T09:55:55.791Z</time></trkpt><trkpt lat="43.3428383" lon="12.218615"><ele>273.0</ele><time>2026-05-02T09:55:56.79Z</time></trkpt><trkpt lat="43.342665" lon="12.2184533"><ele>274.0</ele><time>2026-05-02T09:55:57.788Z</time></trkpt><trkpt lat="43.3424833" lon="12.2182983"><ele>274.0</ele><time>2026-05-02T09:55:58.79Z</time></trkpt><trkpt lat="43.3422917" lon="12.2181567"><ele>274.0</ele><time>2026-05-02T09:55:59.788Z</time></trkpt><trkpt lat="43.3421" lon="12.21803"><ele>274.0</ele><time>2026-05-02T09:56:00.789Z</time></trkpt><trkpt lat="43.3419183" lon="12.2179083"><ele>275.3333333333333</ele><time>2026-05-02T09:56:01.788Z</time></trkpt><trkpt lat="43.341745" lon="12.2177667"><ele>276.6666666666667</ele><time>2026-05-02T09:56:02.786Z</time></trkpt><trkpt lat="43.3415783" lon="12.21759"><ele>278.0</ele><time>2026-05-02T09:56:03.788Z</time></trkpt><trkpt lat="43.3414083" lon="12.2173767"><ele>278.0</ele><time>2026-05-02T09:56:04.789Z</time></trkpt><trkpt lat="43.3412417" lon="12.217135"><ele>278.0</ele><time>2026-05-02T09:56:05.789Z</time></trkpt><trkpt lat="43.3410783" lon="12.2168717"><ele>278.0</ele><time>2026-05-02T09:56:06.788Z</time></trkpt><trkpt lat="43.3409133" lon="12.2165983"><ele>278.0</ele><time>2026-05-02T09:56:07.788Z</time></trkpt><trkpt lat="43.3407467" lon="12.2163183"><ele>275.5</ele><time>2026-05-02T09:56:08.789Z</time></trkpt><trkpt lat="43.3405917" lon="12.21604"><ele>273.0</ele><time>2026-05-02T09:56:09.788Z</time></trkpt><trkpt lat="43.3404483" lon="12.2157733"><ele>274.6666666666667</ele><time>2026-05-02T09:56:10.788Z</time></trkpt><trkpt lat="43.3403183" lon="12.215525"><ele>276.33333333333337</ele><time>2026-05-02T09:56:11.786Z</time></trkpt><trkpt lat="43.3402017" lon="12.2152867"><ele>278.0</ele><time>2026-05-02T09:56:12.787Z</time></trkpt><trkpt lat="43.3400933" lon="12.215055"><ele>281.33333333333337</ele><time>2026-05-02T09:56:13.789Z</time></trkpt><trkpt lat="43.33998" lon="12.2148117"><ele>284.6666666666667</ele><time>2026-05-02T09:56:14.787Z</time></trkpt><trkpt lat="43.3398717" lon="12.2145483"><ele>288.0</ele><time>2026-05-02T09:56:15.786Z</time></trkpt><trkpt lat="43.3397667" lon="12.21425"><ele>282.0</ele><time>2026-05-02T09:56:16.787Z</time></trkpt><trkpt lat="43.339665" lon="12.21392"><ele>276.0</ele><time>2026-05-02T09:56:17.787Z</time></trkpt><trkpt lat="43.3395567" lon="12.2135867"><ele>276.0</ele><time>2026-05-02T09:56:18.79Z</time></trkpt><trkpt lat="43.339445" lon="12.2132617"><ele>276.0</ele><time>2026-05-02T09:56:19.79Z</time></trkpt><trkpt lat="43.3393333" lon="12.2129533"><ele>277.3333333333333</ele><time>2026-05-02T09:56:20.788Z</time></trkpt><trkpt lat="43.339225" lon="12.2126717"><ele>278.66666666666663</ele><time>2026-05-02T09:56:21.788Z</time></trkpt><trkpt lat="43.3391233" lon="12.212425"><ele>280.0</ele><time>2026-05-02T09:56:22.789Z</time></trkpt><trkpt lat="43.33902" lon="12.2122117"><ele>281.3333333333333</ele><time>2026-05-02T09:56:23.79Z</time></trkpt><trkpt lat="43.3388783" lon="12.2120367"><ele>282.6666666666667</ele><time>2026-05-02T09:56:24.791Z</time></trkpt><trkpt lat="43.33871" lon="12.2119033"><ele>284.0</ele><time>2026-05-02T09:56:25.789Z</time></trkpt><trkpt lat="43.3385367" lon="12.2118283"><ele>284.0</ele><time>2026-05-02T09:56:26.786Z</time></trkpt><trkpt lat="43.3383667" lon="12.211785"><ele>284.0</ele><time>2026-05-02T09:56:27.785Z</time></trkpt><trkpt lat="43.3382017" lon="12.211745"><ele>284.0</ele><time>2026-05-02T09:56:28.786Z</time></trkpt><trkpt lat="43.33805" lon="12.2116667"><ele>284.33333333333337</ele><time>2026-05-02T09:56:29.786Z</time></trkpt><trkpt lat="43.3379167" lon="12.2115233"><ele>284.6666666666667</ele><time>2026-05-02T09:56:30.786Z</time></trkpt><trkpt lat="43.3378" lon="12.211325"><ele>285.0</ele><time>2026-05-02T09:56:31.785Z</time></trkpt><trkpt lat="43.3376967" lon="12.2110783"><ele>285.0</ele><time>2026-05-02T09:56:32.786Z</time></trkpt><trkpt lat="43.3375983" lon="12.2108033"><ele>285.0</ele><time>2026-05-02T09:56:33.789Z</time></trkpt><trkpt lat="43.33749" lon="12.210525"><ele>288.0</ele><time>2026-05-02T09:56:34.789Z</time></trkpt><trkpt lat="43.3373867" lon="12.2102317"><ele>291.0</ele><time>2026-05-02T09:56:35.788Z</time></trkpt><trkpt lat="43.337275" lon="12.2099433"><ele>286.5</ele><time>2026-05-02T09:56:36.786Z</time></trkpt><trkpt lat="43.3371617" lon="12.2096683"><ele>282.0</ele><time>2026-05-02T09:56:37.788Z</time></trkpt><trkpt lat="43.3370517" lon="12.2093933"><ele>282.0</ele><time>2026-05-02T09:56:38.788Z</time></trkpt><trkpt lat="43.336935" lon="12.2091117"><ele>282.0</ele><time>2026-05-02T09:56:39.786Z</time></trkpt><trkpt lat="43.3368217" lon="12.2088267"><ele>285.5</ele><time>2026-05-02T09:56:40.785Z</time></trkpt><trkpt lat="43.3367133" lon="12.2085467"><ele>289.0</ele><time>2026-05-02T09:56:41.79Z</time></trkpt><trkpt lat="43.336605" lon="12.2082717"><ele>293.0</ele><time>2026-05-02T09:56:42.789Z</time></trkpt><trkpt lat="43.3365017" lon="12.207995"><ele>297.0</ele><time>2026-05-02T09:56:43.785Z</time></trkpt><trkpt lat="43.336395" lon="12.20772"><ele>290.5</ele><time>2026-05-02T09:56:44.789Z</time></trkpt><trkpt lat="43.3362783" lon="12.2074617"><ele>284.0</ele><time>2026-05-02T09:56:45.788Z</time></trkpt><trkpt lat="43.3361533" lon="12.207195"><ele>284.0</ele><time>2026-05-02T09:56:46.789Z</time></trkpt><trkpt lat="43.3360167" lon="12.2069433"><ele>284.0</ele><time>2026-05-02T09:56:47.79Z</time></trkpt><trkpt lat="43.3358683" lon="12.2067183"><ele>284.0</ele><time>2026-05-02T09:56:48.789Z</time></trkpt><trkpt lat="43.33573" lon="12.206505"><ele>282.6666666666667</ele><time>2026-05-02T09:56:49.788Z</time></trkpt><trkpt lat="43.3355983" lon="12.2063133"><ele>281.3333333333333</ele><time>2026-05-02T09:56:50.79Z</time></trkpt><trkpt lat="43.3354867" lon="12.2061283"><ele>280.0</ele><time>2026-05-02T09:56:51.792Z</time></trkpt><trkpt lat="43.3353917" lon="12.2059483"><ele>280.0</ele><time>2026-05-02T09:56:52.788Z</time></trkpt><trkpt lat="43.3353183" lon="12.20576"><ele>280.0</ele><time>2026-05-02T09:56:53.786Z</time></trkpt><trkpt lat="43.3352733" lon="12.2055583"><ele>280.0</ele><time>2026-05-02T09:56:54.788Z</time></trkpt><trkpt lat="43.3352717" lon="12.20534"><ele>280.0</ele><time>2026-05-02T09:56:55.787Z</time></trkpt><trkpt lat="43.3353067" lon="12.2051067"><ele>280.0</ele><time>2026-05-02T09:56:56.786Z</time></trkpt><trkpt lat="43.3353617" lon="12.2048533"><ele>280.0</ele><time>2026-05-02T09:56:57.786Z</time></trkpt><trkpt lat="43.3354317" lon="12.2045833"><ele>279.0</ele><time>2026-05-02T09:56:58.789Z</time></trkpt><trkpt lat="43.3355033" lon="12.2043067"><ele>278.0</ele><time>2026-05-02T09:56:59.787Z</time></trkpt><trkpt lat="43.3355833" lon="12.20403"><ele>277.0</ele><time>2026-05-02T09:57:00.785Z</time></trkpt><trkpt lat="43.3356617" lon="12.2037583"><ele>280.3333333333333</ele><time>2026-05-02T09:57:01.788Z</time></trkpt><trkpt lat="43.3357417" lon="12.2034817"><ele>283.6666666666667</ele><time>2026-05-02T09:57:02.785Z</time></trkpt><trkpt lat="43.335815" lon="12.2031983"><ele>287.0</ele><time>2026-05-02T09:57:03.79Z</time></trkpt><trkpt lat="43.3358767" lon="12.20291"><ele>287.0</ele><time>2026-05-02T09:57:04.789Z</time></trkpt><trkpt lat="43.3359267" lon="12.2026183"><ele>287.0</ele><time>2026-05-02T09:57:05.789Z</time></trkpt><trkpt lat="43.3359717" lon="12.2023317"><ele>287.0</ele><time>2026-05-02T09:57:06.786Z</time></trkpt><trkpt lat="43.3360083" lon="12.20206"><ele>286.33333333333337</ele><time>2026-05-02T09:57:07.789Z</time></trkpt><trkpt lat="43.336025" lon="12.20179"><ele>285.6666666666667</ele><time>2026-05-02T09:57:08.789Z</time></trkpt><trkpt lat="43.3360033" lon="12.2015167"><ele>285.0</ele><time>2026-05-02T09:57:09.79Z</time></trkpt><trkpt lat="43.3359433" lon="12.20124"><ele>286.6666666666667</ele><time>2026-05-02T09:57:10.789Z</time></trkpt><trkpt lat="43.3358667" lon="12.20097"><ele>288.33333333333337</ele><time>2026-05-02T09:57:11.88Z</time></trkpt><trkpt lat="43.3357917" lon="12.2007033"><ele>290.0</ele><time>2026-05-02T09:57:12.787Z</time></trkpt><trkpt lat="43.3357267" lon="12.2004517"><ele>291.0</ele><time>2026-05-02T09:57:13.789Z</time></trkpt><trkpt lat="43.33568" lon="12.2002"><ele>292.0</ele><time>2026-05-02T09:57:14.788Z</time></trkpt><trkpt lat="43.335655" lon="12.19994"><ele>293.0</ele><time>2026-05-02T09:57:15.789Z</time></trkpt><trkpt lat="43.335645" lon="12.1996583"><ele>293.0</ele><time>2026-05-02T09:57:16.788Z</time></trkpt><trkpt lat="43.3356333" lon="12.1993717"><ele>293.0</ele><time>2026-05-02T09:57:17.789Z</time></trkpt><trkpt lat="43.3356183" lon="12.1990983"><ele>293.0</ele><time>2026-05-02T09:57:18.79Z</time></trkpt><trkpt lat="43.3356133" lon="12.1988517"><ele>293.0</ele><time>2026-05-02T09:57:19.789Z</time></trkpt><trkpt lat="43.3356283" lon="12.1986167"><ele>293.0</ele><time>2026-05-02T09:57:20.789Z</time></trkpt><trkpt lat="43.3356767" lon="12.198375"><ele>293.0</ele><time>2026-05-02T09:57:21.79Z</time></trkpt><trkpt lat="43.3357483" lon="12.19812"><ele>292.6666666666667</ele><time>2026-05-02T09:57:22.789Z</time></trkpt><trkpt lat="43.3358067" lon="12.197865"><ele>292.3333333333333</ele><time>2026-05-02T09:57:23.791Z</time></trkpt><trkpt lat="43.3358367" lon="12.19761"><ele>292.0</ele><time>2026-05-02T09:57:24.789Z</time></trkpt><trkpt lat="43.3358233" lon="12.1973467"><ele>294.0</ele><time>2026-05-02T09:57:25.789Z</time></trkpt><trkpt lat="43.33578" lon="12.1970867"><ele>296.0</ele><time>2026-05-02T09:57:26.789Z</time></trkpt><trkpt lat="43.3357133" lon="12.196845"><ele>298.0</ele><time>2026-05-02T09:57:27.788Z</time></trkpt><trkpt lat="43.3356317" lon="12.1966283"><ele>297.5</ele><time>2026-05-02T09:57:28.789Z</time></trkpt><trkpt lat="43.3355617" lon="12.1964333"><ele>297.0</ele><time>2026-05-02T09:57:29.789Z</time></trkpt><trkpt lat="43.3355117" lon="12.1962483"><ele>296.5</ele><time>2026-05-02T09:57:30.786Z</time></trkpt><trkpt lat="43.3354883" lon="12.196065"><ele>296.0</ele><time>2026-05-02T09:57:31.786Z</time></trkpt><trkpt lat="43.3355083" lon="12.195895"><ele>296.0</ele><time>2026-05-02T09:57:32.788Z</time></trkpt><trkpt lat="43.335575" lon="12.1957317"><ele>296.0</ele><time>2026-05-02T09:57:33.794Z</time></trkpt><trkpt lat="43.3356533" lon="12.19556"><ele>296.0</ele><time>2026-05-02T09:57:34.789Z</time></trkpt><trkpt lat="43.3357267" lon="12.1953817"><ele>296.0</ele><time>2026-05-02T09:57:35.789Z</time></trkpt><trkpt lat="43.33578" lon="12.1951917"><ele>296.6666666666667</ele><time>2026-05-02T09:57:36.789Z</time></trkpt><trkpt lat="43.3358067" lon="12.1949783"><ele>297.3333333333333</ele><time>2026-05-02T09:57:37.789Z</time></trkpt><trkpt lat="43.3358017" lon="12.1947467"><ele>298.0</ele><time>2026-05-02T09:57:38.789Z</time></trkpt><trkpt lat="43.3357667" lon="12.1944967"><ele>298.0</ele><time>2026-05-02T09:57:39.789Z</time></trkpt><trkpt lat="43.3357183" lon="12.1942467"><ele>298.0</ele><time>2026-05-02T09:57:40.789Z</time></trkpt><trkpt lat="43.3356667" lon="12.1939817"><ele>298.0</ele><time>2026-05-02T09:57:41.789Z</time></trkpt><trkpt lat="43.3356133" lon="12.193715"><ele>297.66666666666663</ele><time>2026-05-02T09:57:42.789Z</time></trkpt><trkpt lat="43.33556" lon="12.1934417"><ele>297.3333333333333</ele><time>2026-05-02T09:57:43.79Z</time></trkpt><trkpt lat="43.3355017" lon="12.1931617"><ele>297.0</ele><time>2026-05-02T09:57:44.79Z</time></trkpt><trkpt lat="43.3354417" lon="12.1928767"><ele>292.3333333333333</ele><time>2026-05-02T09:57:45.79Z</time></trkpt><trkpt lat="43.3353817" lon="12.192585"><ele>287.66666666666663</ele><time>2026-05-02T09:57:46.789Z</time></trkpt><trkpt lat="43.335325" lon="12.1922983"><ele>283.0</ele><time>2026-05-02T09:57:47.79Z</time></trkpt><trkpt lat="43.3352733" lon="12.1920167"><ele>283.0</ele><time>2026-05-02T09:57:48.786Z</time></trkpt><trkpt lat="43.3352183" lon="12.191745"><ele>283.0</ele><time>2026-05-02T09:57:49.789Z</time></trkpt><trkpt lat="43.33516" lon="12.19149"><ele>283.0</ele><time>2026-05-02T09:57:50.79Z</time></trkpt><trkpt lat="43.3350783" lon="12.1912567"><ele>283.3333333333333</ele><time>2026-05-02T09:57:51.79Z</time></trkpt><trkpt lat="43.334955" lon="12.1910467"><ele>283.6666666666667</ele><time>2026-05-02T09:57:52.789Z</time></trkpt><trkpt lat="43.334795" lon="12.1908667"><ele>284.0</ele><time>2026-05-02T09:57:53.789Z</time></trkpt><trkpt lat="43.3346233" lon="12.1907083"><ele>284.6666666666667</ele><time>2026-05-02T09:57:54.789Z</time></trkpt><trkpt lat="43.3344567" lon="12.1905417"><ele>285.3333333333333</ele><time>2026-05-02T09:57:55.789Z</time></trkpt><trkpt lat="43.3343017" lon="12.1903533"><ele>286.0</ele><time>2026-05-02T09:57:56.787Z</time></trkpt><trkpt lat="43.3341633" lon="12.1901467"><ele>286.0</ele><time>2026-05-02T09:57:57.787Z</time></trkpt><trkpt lat="43.3340433" lon="12.1899233"><ele>286.0</ele><time>2026-05-02T09:57:58.786Z</time></trkpt><trkpt lat="43.333945" lon="12.1896767"><ele>286.0</ele><time>2026-05-02T09:57:59.787Z</time></trkpt><trkpt lat="43.333865" lon="12.189415"><ele>285.3333333333333</ele><time>2026-05-02T09:58:00.787Z</time></trkpt><trkpt lat="43.3338" lon="12.1891533"><ele>284.6666666666667</ele><time>2026-05-02T09:58:01.786Z</time></trkpt><trkpt lat="43.3337567" lon="12.1888967"><ele>284.0</ele><time>2026-05-02T09:58:02.786Z</time></trkpt><trkpt lat="43.333735" lon="12.18864"><ele>284.0</ele><time>2026-05-02T09:58:03.79Z</time></trkpt><trkpt lat="43.3337383" lon="12.188375"><ele>284.0</ele><time>2026-05-02T09:58:04.789Z</time></trkpt><trkpt lat="43.333755" lon="12.1881"><ele>284.0</ele><time>2026-05-02T09:58:05.791Z</time></trkpt><trkpt lat="43.3337733" lon="12.18782"><ele>284.6666666666667</ele><time>2026-05-02T09:58:06.789Z</time></trkpt><trkpt lat="43.3337933" lon="12.1875417"><ele>285.3333333333333</ele><time>2026-05-02T09:58:07.787Z</time></trkpt><trkpt lat="43.33381" lon="12.1872717"><ele>286.0</ele><time>2026-05-02T09:58:08.786Z</time></trkpt><trkpt lat="43.33383" lon="12.1870133"><ele>286.0</ele><time>2026-05-02T09:58:09.786Z</time></trkpt><trkpt lat="43.33386" lon="12.18676"><ele>286.0</ele><time>2026-05-02T09:58:10.787Z</time></trkpt><trkpt lat="43.333915" lon="12.1865167"><ele>286.0</ele><time>2026-05-02T09:58:11.786Z</time></trkpt><trkpt lat="43.33398" lon="12.1862717"><ele>286.3333333333333</ele><time>2026-05-02T09:58:12.786Z</time></trkpt><trkpt lat="43.3340417" lon="12.1860167"><ele>286.6666666666667</ele><time>2026-05-02T09:58:13.787Z</time></trkpt><trkpt lat="43.3340867" lon="12.1857517"><ele>287.0</ele><time>2026-05-02T09:58:14.787Z</time></trkpt><trkpt lat="43.3341083" lon="12.1854733"><ele>287.6666666666667</ele><time>2026-05-02T09:58:15.787Z</time></trkpt><trkpt lat="43.3341117" lon="12.1851917"><ele>288.3333333333333</ele><time>2026-05-02T09:58:16.787Z</time></trkpt><trkpt lat="43.3341" lon="12.1849067"><ele>289.0</ele><time>2026-05-02T09:58:17.787Z</time></trkpt><trkpt lat="43.3340883" lon="12.1846133"><ele>290.3333333333333</ele><time>2026-05-02T09:58:18.787Z</time></trkpt><trkpt lat="43.3340783" lon="12.18432"><ele>291.6666666666667</ele><time>2026-05-02T09:58:19.787Z</time></trkpt><trkpt lat="43.33407" lon="12.1840317"><ele>293.0</ele><time>2026-05-02T09:58:20.789Z</time></trkpt><trkpt lat="43.3340567" lon="12.1837483"><ele>294.6666666666667</ele><time>2026-05-02T09:58:21.789Z</time></trkpt><trkpt lat="43.33404" lon="12.1834717"><ele>296.3333333333333</ele><time>2026-05-02T09:58:22.79Z</time></trkpt><trkpt lat="43.33401" lon="12.183205"><ele>298.0</ele><time>2026-05-02T09:58:23.789Z</time></trkpt><trkpt lat="43.33396" lon="12.1829467"><ele>301.0</ele><time>2026-05-02T09:58:24.789Z</time></trkpt><trkpt lat="43.3338933" lon="12.18269"><ele>304.0</ele><time>2026-05-02T09:58:25.789Z</time></trkpt><trkpt lat="43.3338133" lon="12.18244"><ele>307.0</ele><time>2026-05-02T09:58:26.788Z</time></trkpt><trkpt lat="43.3337183" lon="12.1822033"><ele>301.0</ele><time>2026-05-02T09:58:27.79Z</time></trkpt><trkpt lat="43.3336133" lon="12.18199"><ele>295.0</ele><time>2026-05-02T09:58:28.789Z</time></trkpt><trkpt lat="43.3334917" lon="12.181795"><ele>289.0</ele><time>2026-05-02T09:58:29.788Z</time></trkpt><trkpt lat="43.3333467" lon="12.1816233"><ele>289.0</ele><time>2026-05-02T09:58:30.788Z</time></trkpt><trkpt lat="43.3331867" lon="12.18147"><ele>289.0</ele><time>2026-05-02T09:58:31.788Z</time></trkpt><trkpt lat="43.3330117" lon="12.1813267"><ele>289.0</ele><time>2026-05-02T09:58:32.789Z</time></trkpt><trkpt lat="43.332825" lon="12.18119"><ele>289.0</ele><time>2026-05-02T09:58:33.791Z</time></trkpt><trkpt lat="43.3326333" lon="12.18106"><ele>289.0</ele><time>2026-05-02T09:58:34.79Z</time></trkpt><trkpt lat="43.3324417" lon="12.180935"><ele>289.0</ele><time>2026-05-02T09:58:35.789Z</time></trkpt><trkpt lat="43.3322467" lon="12.1808283"><ele>289.66666666666663</ele><time>2026-05-02T09:58:36.789Z</time></trkpt><trkpt lat="43.3320467" lon="12.1807467"><ele>290.3333333333333</ele><time>2026-05-02T09:58:37.787Z</time></trkpt><trkpt lat="43.3318417" lon="12.1806833"><ele>291.0</ele><time>2026-05-02T09:58:38.787Z</time></trkpt><trkpt lat="43.331645" lon="12.1806183"><ele>291.0</ele><time>2026-05-02T09:58:39.789Z</time></trkpt><trkpt lat="43.3314733" lon="12.1805417"><ele>291.0</ele><time>2026-05-02T09:58:40.788Z</time></trkpt><trkpt lat="43.331325" lon="12.1804433"><ele>291.0</ele><time>2026-05-02T09:58:41.787Z</time></trkpt><trkpt lat="43.3311967" lon="12.18032"><ele>291.0</ele><time>2026-05-02T09:58:42.788Z</time></trkpt><trkpt lat="43.331085" lon="12.18016"><ele>291.0</ele><time>2026-05-02T09:58:43.789Z</time></trkpt><trkpt lat="43.331" lon="12.179945"><ele>291.0</ele><time>2026-05-02T09:58:44.791Z</time></trkpt><trkpt lat="43.3309183" lon="12.1797"><ele>292.0</ele><time>2026-05-02T09:58:45.788Z</time></trkpt><trkpt lat="43.3308317" lon="12.1794417"><ele>293.0</ele><time>2026-05-02T09:58:46.788Z</time></trkpt><trkpt lat="43.33073" lon="12.1791867"><ele>294.0</ele><time>2026-05-02T09:58:47.789Z</time></trkpt><trkpt lat="43.3306083" lon="12.1789367"><ele>292.6666666666667</ele><time>2026-05-02T09:58:48.788Z</time></trkpt><trkpt lat="43.330485" lon="12.178695"><ele>291.33333333333337</ele><time>2026-05-02T09:58:49.788Z</time></trkpt><trkpt lat="43.3303633" lon="12.17845"><ele>290.0</ele><time>2026-05-02T09:58:50.789Z</time></trkpt><trkpt lat="43.3302417" lon="12.1782067"><ele>291.6666666666667</ele><time>2026-05-02T09:58:51.789Z</time></trkpt><trkpt lat="43.3301167" lon="12.1779683"><ele>293.3333333333333</ele><time>2026-05-02T09:58:52.79Z</time></trkpt><trkpt lat="43.329995" lon="12.177735"><ele>295.0</ele><time>2026-05-02T09:58:53.789Z</time></trkpt><trkpt lat="43.329875" lon="12.1775117"><ele>295.3333333333333</ele><time>2026-05-02T09:58:54.789Z</time></trkpt><trkpt lat="43.3297467" lon="12.177295"><ele>295.6666666666667</ele><time>2026-05-02T09:58:55.789Z</time></trkpt><trkpt lat="43.3296033" lon="12.1771033"><ele>296.0</ele><time>2026-05-02T09:58:56.787Z</time></trkpt><trkpt lat="43.3294433" lon="12.17695"><ele>296.33333333333337</ele><time>2026-05-02T09:58:57.787Z</time></trkpt><trkpt lat="43.3292583" lon="12.1768417"><ele>296.6666666666667</ele><time>2026-05-02T09:58:58.785Z</time></trkpt><trkpt lat="43.3290533" lon="12.1767783"><ele>297.0</ele><time>2026-05-02T09:58:59.786Z</time></trkpt><trkpt lat="43.32884" lon="12.1767517"><ele>295.6666666666667</ele><time>2026-05-02T09:59:00.785Z</time></trkpt><trkpt lat="43.3286283" lon="12.176745"><ele>294.33333333333337</ele><time>2026-05-02T09:59:01.788Z</time></trkpt><trkpt lat="43.3284317" lon="12.176725"><ele>293.0</ele><time>2026-05-02T09:59:02.788Z</time></trkpt><trkpt lat="43.3282517" lon="12.1766717"><ele>293.0</ele><time>2026-05-02T09:59:03.789Z</time></trkpt><trkpt lat="43.328085" lon="12.1765717"><ele>293.0</ele><time>2026-05-02T09:59:04.785Z</time></trkpt><trkpt lat="43.3279283" lon="12.1764233"><ele>293.0</ele><time>2026-05-02T09:59:05.789Z</time></trkpt><trkpt lat="43.3277783" lon="12.1762233"><ele>293.6666666666667</ele><time>2026-05-02T09:59:06.788Z</time></trkpt><trkpt lat="43.3276317" lon="12.1759933"><ele>294.3333333333333</ele><time>2026-05-02T09:59:07.785Z</time></trkpt><trkpt lat="43.3274833" lon="12.1757583"><ele>295.0</ele><time>2026-05-02T09:59:08.786Z</time></trkpt><trkpt lat="43.3273333" lon="12.17552"><ele>293.5</ele><time>2026-05-02T09:59:09.791Z</time></trkpt><trkpt lat="43.3271833" lon="12.1752733"><ele>292.0</ele><time>2026-05-02T09:59:10.786Z</time></trkpt><trkpt lat="43.3270383" lon="12.1750083"><ele>294.0</ele><time>2026-05-02T09:59:11.787Z</time></trkpt><trkpt lat="43.3269083" lon="12.174715"><ele>296.0</ele><time>2026-05-02T09:59:12.786Z</time></trkpt><trkpt lat="43.32679" lon="12.1744067"><ele>296.0</ele><time>2026-05-02T09:59:13.786Z</time></trkpt><trkpt lat="43.3266817" lon="12.1741017"><ele>296.0</ele><time>2026-05-02T09:59:14.786Z</time></trkpt><trkpt lat="43.326575" lon="12.1738117"><ele>294.0</ele><time>2026-05-02T09:59:15.786Z</time></trkpt><trkpt lat="43.32645" lon="12.1735333"><ele>292.0</ele><time>2026-05-02T09:59:16.786Z</time></trkpt><trkpt lat="43.3262983" lon="12.1732767"><ele>298.0</ele><time>2026-05-02T09:59:17.787Z</time></trkpt><trkpt lat="43.326125" lon="12.1730583"><ele>304.0</ele><time>2026-05-02T09:59:18.787Z</time></trkpt><trkpt lat="43.3259417" lon="12.1728767"><ele>304.0</ele><time>2026-05-02T09:59:19.786Z</time></trkpt><trkpt lat="43.3257717" lon="12.1727017"><ele>304.0</ele><time>2026-05-02T09:59:20.789Z</time></trkpt><trkpt lat="43.3256217" lon="12.172495"><ele>304.0</ele><time>2026-05-02T09:59:21.789Z</time></trkpt><trkpt lat="43.3254867" lon="12.1722417"><ele>300.5</ele><time>2026-05-02T09:59:22.788Z</time></trkpt><trkpt lat="43.325365" lon="12.1719717"><ele>297.0</ele><time>2026-05-02T09:59:23.788Z</time></trkpt><trkpt lat="43.3252533" lon="12.1717067"><ele>299.6666666666667</ele><time>2026-05-02T09:59:24.789Z</time></trkpt><trkpt lat="43.3251567" lon="12.17144"><ele>302.33333333333337</ele><time>2026-05-02T09:59:25.786Z</time></trkpt><trkpt lat="43.32507" lon="12.1711817"><ele>305.0</ele><time>2026-05-02T09:59:26.785Z</time></trkpt><trkpt lat="43.3249883" lon="12.1709617"><ele>305.0</ele><time>2026-05-02T09:59:27.786Z</time></trkpt><trkpt lat="43.3248933" lon="12.170775"><ele>305.0</ele><time>2026-05-02T09:59:28.786Z</time></trkpt><trkpt lat="43.3247783" lon="12.1706283"><ele>305.0</ele><time>2026-05-02T09:59:29.786Z</time></trkpt><trkpt lat="43.3246383" lon="12.1705267"><ele>304.6666666666667</ele><time>2026-05-02T09:59:30.785Z</time></trkpt><trkpt lat="43.3244883" lon="12.1704367"><ele>304.3333333333333</ele><time>2026-05-02T09:59:31.789Z</time></trkpt><trkpt lat="43.3243433" lon="12.1703217"><ele>304.0</ele><time>2026-05-02T09:59:32.786Z</time></trkpt><trkpt lat="43.3242233" lon="12.170175"><ele>304.0</ele><time>2026-05-02T09:59:33.789Z</time></trkpt><trkpt lat="43.32412" lon="12.1699917"><ele>304.0</ele><time>2026-05-02T09:59:34.788Z</time></trkpt><trkpt lat="43.3240183" lon="12.1698033"><ele>304.0</ele><time>2026-05-02T09:59:35.785Z</time></trkpt><trkpt lat="43.3239067" lon="12.1696283"><ele>301.66666666666663</ele><time>2026-05-02T09:59:36.789Z</time></trkpt><trkpt lat="43.323795" lon="12.1694583"><ele>299.3333333333333</ele><time>2026-05-02T09:59:37.785Z</time></trkpt><trkpt lat="43.3236883" lon="12.1692717"><ele>297.0</ele><time>2026-05-02T09:59:38.786Z</time></trkpt><trkpt lat="43.3235933" lon="12.1690517"><ele>299.6666666666667</ele><time>2026-05-02T09:59:39.789Z</time></trkpt><trkpt lat="43.3235067" lon="12.168805"><ele>302.33333333333337</ele><time>2026-05-02T09:59:40.785Z</time></trkpt><trkpt lat="43.3234267" lon="12.16854"><ele>305.0</ele><time>2026-05-02T09:59:41.787Z</time></trkpt><trkpt lat="43.3233467" lon="12.1682717"><ele>306.0</ele><time>2026-05-02T09:59:42.785Z</time></trkpt><trkpt lat="43.3232717" lon="12.1680117"><ele>307.0</ele><time>2026-05-02T09:59:43.786Z</time></trkpt><trkpt lat="43.3232033" lon="12.1677667"><ele>308.0</ele><time>2026-05-02T09:59:44.786Z</time></trkpt><trkpt lat="43.3231367" lon="12.1675333"><ele>308.0</ele><time>2026-05-02T09:59:45.786Z</time></trkpt><trkpt lat="43.323085" lon="12.16731"><ele>308.0</ele><time>2026-05-02T09:59:46.787Z</time></trkpt><trkpt lat="43.3230533" lon="12.1670733"><ele>308.0</ele><time>2026-05-02T09:59:47.787Z</time></trkpt><trkpt lat="43.323055" lon="12.1668117"><ele>308.0</ele><time>2026-05-02T09:59:48.785Z</time></trkpt><trkpt lat="43.3230667" lon="12.1665367"><ele>308.0</ele><time>2026-05-02T09:59:49.786Z</time></trkpt><trkpt lat="43.3230817" lon="12.1662567"><ele>308.0</ele><time>2026-05-02T09:59:50.79Z</time></trkpt><trkpt lat="43.3231017" lon="12.165975"><ele>309.0</ele><time>2026-05-02T09:59:51.789Z</time></trkpt><trkpt lat="43.3231217" lon="12.1656883"><ele>310.0</ele><time>2026-05-02T09:59:52.789Z</time></trkpt><trkpt lat="43.32314" lon="12.1654"><ele>311.0</ele><time>2026-05-02T09:59:53.789Z</time></trkpt><trkpt lat="43.3231567" lon="12.165105"><ele>311.33333333333337</ele><time>2026-05-02T09:59:54.789Z</time></trkpt><trkpt lat="43.323175" lon="12.1648083"><ele>311.6666666666667</ele><time>2026-05-02T09:59:55.789Z</time></trkpt><trkpt lat="43.3231933" lon="12.164515"><ele>312.0</ele><time>2026-05-02T09:59:56.789Z</time></trkpt><trkpt lat="43.323205" lon="12.1642233"><ele>312.0</ele><time>2026-05-02T09:59:57.789Z</time></trkpt><trkpt lat="43.3232033" lon="12.1639367"><ele>312.0</ele><time>2026-05-02T09:59:58.789Z</time></trkpt><trkpt lat="43.3231933" lon="12.1636517"><ele>312.0</ele><time>2026-05-02T09:59:59.793Z</time></trkpt><trkpt lat="43.323175" lon="12.1633617"><ele>312.0</ele><time>2026-05-02T10:00:00.789Z</time></trkpt><trkpt lat="43.3231633" lon="12.163065"><ele>312.0</ele><time>2026-05-02T10:00:01.79Z</time></trkpt><trkpt lat="43.3231633" lon="12.1627617"><ele>312.0</ele><time>2026-05-02T10:00:02.789Z</time></trkpt><trkpt lat="43.3233617" lon="12.1620283"><ele>310.5</ele><time>2026-05-02T10:00:05.785Z</time></trkpt><trkpt lat="43.3232617" lon="12.161495"><ele>309.0</ele><time>2026-05-02T10:00:06.786Z</time></trkpt><trkpt lat="43.3232483" lon="12.1611567"><ele>309.0</ele><time>2026-05-02T10:00:07.785Z</time></trkpt><trkpt lat="43.3232217" lon="12.1608517"><ele>309.0</ele><time>2026-05-02T10:00:08.786Z</time></trkpt><trkpt lat="43.323185" lon="12.1605833"><ele>309.0</ele><time>2026-05-02T10:00:09.785Z</time></trkpt><trkpt lat="43.3231583" lon="12.1603483"><ele>308.6666666666667</ele><time>2026-05-02T10:00:10.788Z</time></trkpt><trkpt lat="43.32315" lon="12.1601133"><ele>308.33333333333337</ele><time>2026-05-02T10:00:11.786Z</time></trkpt><trkpt lat="43.3231717" lon="12.1598967"><ele>308.0</ele><time>2026-05-02T10:00:12.787Z</time></trkpt><trkpt lat="43.3232333" lon="12.1596983"><ele>305.6666666666667</ele><time>2026-05-02T10:00:13.787Z</time></trkpt><trkpt lat="43.323325" lon="12.1595183"><ele>303.3333333333333</ele><time>2026-05-02T10:00:14.786Z</time></trkpt><trkpt lat="43.3234333" lon="12.1593617"><ele>301.0</ele><time>2026-05-02T10:00:15.785Z</time></trkpt><trkpt lat="43.3235517" lon="12.1592367"><ele>301.0</ele><time>2026-05-02T10:00:16.787Z</time></trkpt><trkpt lat="43.323675" lon="12.1591383"><ele>301.0</ele><time>2026-05-02T10:00:17.786Z</time></trkpt><trkpt lat="43.3237883" lon="12.1590483"><ele>301.0</ele><time>2026-05-02T10:00:18.786Z</time></trkpt><trkpt lat="43.3238817" lon="12.1589533"><ele>301.0</ele><time>2026-05-02T10:00:19.785Z</time></trkpt><trkpt lat="43.323955" lon="12.1588367"><ele>302.0</ele><time>2026-05-02T10:00:20.786Z</time></trkpt><trkpt lat="43.3240233" lon="12.1586983"><ele>303.0</ele><time>2026-05-02T10:00:21.786Z</time></trkpt><trkpt lat="43.3240917" lon="12.15855"><ele>304.0</ele><time>2026-05-02T10:00:22.786Z</time></trkpt><trkpt lat="43.3241567" lon="12.1583833"><ele>305.0</ele><time>2026-05-02T10:00:23.787Z</time></trkpt><trkpt lat="43.3242183" lon="12.1581983"><ele>305.0</ele><time>2026-05-02T10:00:24.786Z</time></trkpt><trkpt lat="43.3242833" lon="12.15801"><ele>305.0</ele><time>2026-05-02T10:00:25.786Z</time></trkpt><trkpt lat="43.3243433" lon="12.1578217"><ele>305.0</ele><time>2026-05-02T10:00:26.786Z</time></trkpt><trkpt lat="43.3244" lon="12.157645"><ele>305.0</ele><time>2026-05-02T10:00:27.786Z</time></trkpt><trkpt lat="43.32445" lon="12.1574733"><ele>304.75</ele><time>2026-05-02T10:00:28.787Z</time></trkpt><trkpt lat="43.3244933" lon="12.1572967"><ele>304.5</ele><time>2026-05-02T10:00:29.786Z</time></trkpt><trkpt lat="43.324525" lon="12.1571117"><ele>304.25</ele><time>2026-05-02T10:00:30.787Z</time></trkpt><trkpt lat="43.3245317" lon="12.156915"><ele>304.0</ele><time>2026-05-02T10:00:31.786Z</time></trkpt><trkpt lat="43.3245083" lon="12.1567117"><ele>305.0</ele><time>2026-05-02T10:00:32.786Z</time></trkpt><trkpt lat="43.3244567" lon="12.1565033"><ele>306.0</ele><time>2026-05-02T10:00:33.787Z</time></trkpt><trkpt lat="43.3243917" lon="12.1563017"><ele>307.0</ele><time>2026-05-02T10:00:34.786Z</time></trkpt><trkpt lat="43.32433" lon="12.1561033"><ele>307.0</ele><time>2026-05-02T10:00:35.786Z</time></trkpt><trkpt lat="43.3242867" lon="12.1559083"><ele>307.0</ele><time>2026-05-02T10:00:36.786Z</time></trkpt><trkpt lat="43.3242783" lon="12.1557367"><ele>307.0</ele><time>2026-05-02T10:00:37.787Z</time></trkpt><trkpt lat="43.324285" lon="12.1555717"><ele>307.0</ele><time>2026-05-02T10:00:38.786Z</time></trkpt><trkpt lat="43.3242967" lon="12.1553967"><ele>307.0</ele><time>2026-05-02T10:00:39.787Z</time></trkpt><trkpt lat="43.3243117" lon="12.1552133"><ele>307.0</ele><time>2026-05-02T10:00:40.786Z</time></trkpt><trkpt lat="43.3243283" lon="12.1550233"><ele>307.0</ele><time>2026-05-02T10:00:41.787Z</time></trkpt><trkpt lat="43.324355" lon="12.1548267"><ele>307.0</ele><time>2026-05-02T10:00:42.785Z</time></trkpt><trkpt lat="43.324395" lon="12.1546283"><ele>306.66666666666663</ele><time>2026-05-02T10:00:43.785Z</time></trkpt><trkpt lat="43.3244517" lon="12.1544333"><ele>306.3333333333333</ele><time>2026-05-02T10:00:44.789Z</time></trkpt><trkpt lat="43.324515" lon="12.1542383"><ele>306.0</ele><time>2026-05-02T10:00:45.786Z</time></trkpt><trkpt lat="43.3245883" lon="12.154045"><ele>306.6666666666667</ele><time>2026-05-02T10:00:46.786Z</time></trkpt><trkpt lat="43.3246733" lon="12.153865"><ele>307.33333333333337</ele><time>2026-05-02T10:00:47.787Z</time></trkpt><trkpt lat="43.3247883" lon="12.15371"><ele>308.0</ele><time>2026-05-02T10:00:48.787Z</time></trkpt><trkpt lat="43.3249417" lon="12.1535817"><ele>308.0</ele><time>2026-05-02T10:00:49.787Z</time></trkpt><trkpt lat="43.3251217" lon="12.1534533"><ele>308.0</ele><time>2026-05-02T10:00:50.786Z</time></trkpt><trkpt lat="43.3253033" lon="12.15329"><ele>308.0</ele><time>2026-05-02T10:00:51.786Z</time></trkpt><trkpt lat="43.3254683" lon="12.15308"><ele>310.0</ele><time>2026-05-02T10:00:52.786Z</time></trkpt><trkpt lat="43.32562" lon="12.1528417"><ele>312.0</ele><time>2026-05-02T10:00:53.787Z</time></trkpt><trkpt lat="43.325755" lon="12.152615"><ele>314.0</ele><time>2026-05-02T10:00:54.787Z</time></trkpt><trkpt lat="43.3258767" lon="12.1524067"><ele>313.6666666666667</ele><time>2026-05-02T10:00:55.785Z</time></trkpt><trkpt lat="43.32597" lon="12.1522067"><ele>313.3333333333333</ele><time>2026-05-02T10:00:56.786Z</time></trkpt><trkpt lat="43.326025" lon="12.1520183"><ele>313.0</ele><time>2026-05-02T10:00:57.786Z</time></trkpt><trkpt lat="43.32598" lon="12.151635"><ele>315.5</ele><time>2026-05-02T10:00:59.786Z</time></trkpt><trkpt lat="43.3258967" lon="12.151465"><ele>318.0</ele><time>2026-05-02T10:01:00.788Z</time></trkpt><trkpt lat="43.3257767" lon="12.151345"><ele>320.5</ele><time>2026-05-02T10:01:01.789Z</time></trkpt><trkpt lat="43.325635" lon="12.1512917"><ele>323.0</ele><time>2026-05-02T10:01:02.786Z</time></trkpt><trkpt lat="43.3254683" lon="12.1513083"><ele>324.6666666666667</ele><time>2026-05-02T10:01:03.786Z</time></trkpt><trkpt lat="43.3252867" lon="12.1513783"><ele>326.3333333333333</ele><time>2026-05-02T10:01:04.786Z</time></trkpt><trkpt lat="43.3250967" lon="12.1514717"><ele>328.0</ele><time>2026-05-02T10:01:05.786Z</time></trkpt><trkpt lat="43.3249167" lon="12.15156"><ele>323.0</ele><time>2026-05-02T10:01:06.786Z</time></trkpt><trkpt lat="43.3247483" lon="12.15164"><ele>318.0</ele><time>2026-05-02T10:01:07.787Z</time></trkpt><trkpt lat="43.3246083" lon="12.1517017"><ele>313.0</ele><time>2026-05-02T10:01:08.786Z</time></trkpt><trkpt lat="43.324485" lon="12.1517283"><ele>313.25</ele><time>2026-05-02T10:01:09.788Z</time></trkpt><trkpt lat="43.3243817" lon="12.151695"><ele>313.5</ele><time>2026-05-02T10:01:10.786Z</time></trkpt><trkpt lat="43.324315" lon="12.1515867"><ele>313.75</ele><time>2026-05-02T10:01:11.786Z</time></trkpt><trkpt lat="43.324285" lon="12.1514317"><ele>314.0</ele><time>2026-05-02T10:01:12.786Z</time></trkpt><trkpt lat="43.3242883" lon="12.1512517"><ele>314.0</ele><time>2026-05-02T10:01:13.786Z</time></trkpt><trkpt lat="43.3243267" lon="12.1510567"><ele>314.0</ele><time>2026-05-02T10:01:14.786Z</time></trkpt><trkpt lat="43.3243683" lon="12.1508583"><ele>314.0</ele><time>2026-05-02T10:01:15.788Z</time></trkpt><trkpt lat="43.3243817" lon="12.15066"><ele>314.0</ele><time>2026-05-02T10:01:16.787Z</time></trkpt><trkpt lat="43.3243483" lon="12.15046"><ele>318.0</ele><time>2026-05-02T10:01:17.787Z</time></trkpt><trkpt lat="43.3242983" lon="12.1502483"><ele>322.0</ele><time>2026-05-02T10:01:18.786Z</time></trkpt><trkpt lat="43.3241833" lon="12.14982"><ele>324.0</ele><time>2026-05-02T10:01:20.789Z</time></trkpt><trkpt lat="43.3241283" lon="12.149605"><ele>326.0</ele><time>2026-05-02T10:01:21.789Z</time></trkpt><trkpt lat="43.3240767" lon="12.1493817"><ele>328.0</ele><time>2026-05-02T10:01:22.788Z</time></trkpt><trkpt lat="43.324035" lon="12.1491633"><ele>331.3333333333333</ele><time>2026-05-02T10:01:23.788Z</time></trkpt><trkpt lat="43.3239717" lon="12.1487733"><ele>334.6666666666667</ele><time>2026-05-02T10:01:25.789Z</time></trkpt><trkpt lat="43.3239333" lon="12.148605"><ele>338.0</ele><time>2026-05-02T10:01:26.79Z</time></trkpt><trkpt lat="43.3238867" lon="12.1484583"><ele>337.6666666666667</ele><time>2026-05-02T10:01:27.787Z</time></trkpt><trkpt lat="43.3238333" lon="12.1483333"><ele>337.33333333333337</ele><time>2026-05-02T10:01:28.786Z</time></trkpt><trkpt lat="43.32378" lon="12.1482283"><ele>337.0</ele><time>2026-05-02T10:01:29.788Z</time></trkpt><trkpt lat="43.3237333" lon="12.1481483"><ele>336.6666666666667</ele><time>2026-05-02T10:01:30.786Z</time></trkpt><trkpt lat="43.3236833" lon="12.1480333"><ele>336.3333333333333</ele><time>2026-05-02T10:01:32.787Z</time></trkpt><trkpt lat="43.3236383" lon="12.148105"><ele>336.0</ele><time>2026-05-02T10:02:24.785Z</time></trkpt><trkpt lat="43.3237083" lon="12.1482133"><ele>336.4</ele><time>2026-05-02T10:02:26.786Z</time></trkpt><trkpt lat="43.3237533" lon="12.1482917"><ele>336.8</ele><time>2026-05-02T10:02:27.785Z</time></trkpt><trkpt lat="43.3238033" lon="12.1483933"><ele>337.2</ele><time>2026-05-02T10:02:28.786Z</time></trkpt><trkpt lat="43.3238533" lon="12.148515"><ele>337.59999999999997</ele><time>2026-05-02T10:02:29.786Z</time></trkpt><trkpt lat="43.3239" lon="12.1486483"><ele>338.0</ele><time>2026-05-02T10:02:30.785Z</time></trkpt><trkpt lat="43.323935" lon="12.1487933"><ele>338.0</ele><time>2026-05-02T10:02:31.786Z</time></trkpt><trkpt lat="43.3239617" lon="12.1489517"><ele>338.0</ele><time>2026-05-02T10:02:32.786Z</time></trkpt><trkpt lat="43.3239867" lon="12.1491217"><ele>338.0</ele><time>2026-05-02T10:02:33.785Z</time></trkpt><trkpt lat="43.32402" lon="12.1492967"><ele>338.0</ele><time>2026-05-02T10:02:34.786Z</time></trkpt><trkpt lat="43.324055" lon="12.1494717"><ele>335.5</ele><time>2026-05-02T10:02:35.786Z</time></trkpt><trkpt lat="43.3240967" lon="12.14965"><ele>333.0</ele><time>2026-05-02T10:02:36.785Z</time></trkpt><trkpt lat="43.3241433" lon="12.1498183"><ele>330.5</ele><time>2026-05-02T10:02:37.786Z</time></trkpt><trkpt lat="43.3241867" lon="12.1499767"><ele>328.0</ele><time>2026-05-02T10:02:38.785Z</time></trkpt><trkpt lat="43.3242317" lon="12.1501317"><ele>326.5</ele><time>2026-05-02T10:02:39.786Z</time></trkpt><trkpt lat="43.32428" lon="12.1502917"><ele>325.0</ele><time>2026-05-02T10:02:40.786Z</time></trkpt><trkpt lat="43.324325" lon="12.15046"><ele>323.5</ele><time>2026-05-02T10:02:41.786Z</time></trkpt><trkpt lat="43.3243517" lon="12.1506333"><ele>322.0</ele><time>2026-05-02T10:02:42.786Z</time></trkpt><trkpt lat="43.3243533" lon="12.1508067"><ele>320.0</ele><time>2026-05-02T10:02:43.788Z</time></trkpt><trkpt lat="43.3243383" lon="12.1509817"><ele>318.0</ele><time>2026-05-02T10:02:44.787Z</time></trkpt><trkpt lat="43.3243117" lon="12.1511533"><ele>316.0</ele><time>2026-05-02T10:02:45.787Z</time></trkpt><trkpt lat="43.3242917" lon="12.1513217"><ele>314.0</ele><time>2026-05-02T10:02:46.787Z</time></trkpt><trkpt lat="43.3242917" lon="12.1514817"><ele>313.8</ele><time>2026-05-02T10:02:47.786Z</time></trkpt><trkpt lat="43.3243233" lon="12.1516233"><ele>313.59999999999997</ele><time>2026-05-02T10:02:48.787Z</time></trkpt><trkpt lat="43.3243883" lon="12.15173"><ele>313.4</ele><time>2026-05-02T10:02:49.786Z</time></trkpt><trkpt lat="43.32448" lon="12.151785"><ele>313.2</ele><time>2026-05-02T10:02:50.786Z</time></trkpt><trkpt lat="43.3245983" lon="12.1517783"><ele>313.0</ele><time>2026-05-02T10:02:51.786Z</time></trkpt><trkpt lat="43.32473" lon="12.1517267"><ele>313.0</ele><time>2026-05-02T10:02:52.788Z</time></trkpt><trkpt lat="43.3248767" lon="12.1516467"><ele>313.0</ele><time>2026-05-02T10:02:53.787Z</time></trkpt><trkpt lat="43.3250317" lon="12.151565"><ele>313.0</ele><time>2026-05-02T10:02:54.787Z</time></trkpt><trkpt lat="43.3251867" lon="12.151485"><ele>315.5</ele><time>2026-05-02T10:02:55.785Z</time></trkpt><trkpt lat="43.3253367" lon="12.1514133"><ele>318.0</ele><time>2026-05-02T10:02:56.786Z</time></trkpt><trkpt lat="43.32548" lon="12.1513683"><ele>320.5</ele><time>2026-05-02T10:02:57.785Z</time></trkpt><trkpt lat="43.32562" lon="12.1513617"><ele>323.0</ele><time>2026-05-02T10:02:58.789Z</time></trkpt><trkpt lat="43.3257533" lon="12.1514067"><ele>323.0</ele><time>2026-05-02T10:02:59.786Z</time></trkpt><trkpt lat="43.3258617" lon="12.151505"><ele>323.0</ele><time>2026-05-02T10:03:00.786Z</time></trkpt><trkpt lat="43.3259367" lon="12.151635"><ele>323.0</ele><time>2026-05-02T10:03:01.786Z</time></trkpt><trkpt lat="43.3259817" lon="12.1517883"><ele>323.0</ele><time>2026-05-02T10:03:02.788Z</time></trkpt><trkpt lat="43.3259883" lon="12.15196"><ele>320.75</ele><time>2026-05-02T10:03:03.789Z</time></trkpt><trkpt lat="43.3259617" lon="12.1521267"><ele>318.5</ele><time>2026-05-02T10:03:04.787Z</time></trkpt><trkpt lat="43.3259033" lon="12.1522833"><ele>316.25</ele><time>2026-05-02T10:03:05.788Z</time></trkpt><trkpt lat="43.3258283" lon="12.152435"><ele>314.0</ele><time>2026-05-02T10:03:06.789Z</time></trkpt><trkpt lat="43.3257417" lon="12.1525867"><ele>314.0</ele><time>2026-05-02T10:03:07.787Z</time></trkpt><trkpt lat="43.3256983" lon="12.1526783"><ele>314.0</ele><time>2026-05-02T10:03:09.613Z</time></trkpt><trkpt lat="43.32558" lon="12.152985"><ele>314.0</ele><time>2026-05-02T10:03:10.786Z</time></trkpt><trkpt lat="43.32545" lon="12.1532217"><ele>312.0</ele><time>2026-05-02T10:03:11.788Z</time></trkpt><trkpt lat="43.32529" lon="12.153365"><ele>310.0</ele><time>2026-05-02T10:03:12.786Z</time></trkpt><trkpt lat="43.3251233" lon="12.1534917"><ele>308.0</ele><time>2026-05-02T10:03:13.787Z</time></trkpt><trkpt lat="43.3249717" lon="12.1535883"><ele>308.0</ele><time>2026-05-02T10:03:14.786Z</time></trkpt><trkpt lat="43.3248367" lon="12.153685"><ele>308.0</ele><time>2026-05-02T10:03:15.786Z</time></trkpt><trkpt lat="43.3247183" lon="12.1538117"><ele>308.0</ele><time>2026-05-02T10:03:16.785Z</time></trkpt><trkpt lat="43.3246217" lon="12.1539733"><ele>307.33333333333337</ele><time>2026-05-02T10:03:17.786Z</time></trkpt><trkpt lat="43.324485" lon="12.1543383"><ele>306.6666666666667</ele><time>2026-05-02T10:03:19.786Z</time></trkpt><trkpt lat="43.3244283" lon="12.15451"><ele>306.0</ele><time>2026-05-02T10:03:20.786Z</time></trkpt><trkpt lat="43.3243783" lon="12.15469"><ele>306.3333333333333</ele><time>2026-05-02T10:03:21.787Z</time></trkpt><trkpt lat="43.3243317" lon="12.1548767"><ele>306.66666666666663</ele><time>2026-05-02T10:03:22.786Z</time></trkpt><trkpt lat="43.3243" lon="12.1550833"><ele>307.0</ele><time>2026-05-02T10:03:23.786Z</time></trkpt><trkpt lat="43.324275" lon="12.1552933"><ele>307.0</ele><time>2026-05-02T10:03:24.786Z</time></trkpt><trkpt lat="43.324255" lon="12.1555033"><ele>307.0</ele><time>2026-05-02T10:03:25.787Z</time></trkpt><trkpt lat="43.3242433" lon="12.1557"><ele>307.0</ele><time>2026-05-02T10:03:26.786Z</time></trkpt><trkpt lat="43.32425" lon="12.1558933"><ele>307.0</ele><time>2026-05-02T10:03:27.787Z</time></trkpt><trkpt lat="43.3242867" lon="12.1560883"><ele>307.0</ele><time>2026-05-02T10:03:28.786Z</time></trkpt><trkpt lat="43.3243483" lon="12.1562833"><ele>307.0</ele><time>2026-05-02T10:03:29.786Z</time></trkpt><trkpt lat="43.3244167" lon="12.156485"><ele>307.0</ele><time>2026-05-02T10:03:30.786Z</time></trkpt><trkpt lat="43.324475" lon="12.1566967"><ele>306.0</ele><time>2026-05-02T10:03:31.786Z</time></trkpt><trkpt lat="43.3245067" lon="12.1569133"><ele>305.0</ele><time>2026-05-02T10:03:32.786Z</time></trkpt><trkpt lat="43.3245067" lon="12.157125"><ele>304.0</ele><time>2026-05-02T10:03:33.786Z</time></trkpt><trkpt lat="43.324475" lon="12.1573367"><ele>304.3333333333333</ele><time>2026-05-02T10:03:34.786Z</time></trkpt><trkpt lat="43.3244233" lon="12.15754"><ele>304.6666666666667</ele><time>2026-05-02T10:03:35.786Z</time></trkpt><trkpt lat="43.3243633" lon="12.1577333"><ele>305.0</ele><time>2026-05-02T10:03:36.786Z</time></trkpt><trkpt lat="43.3243017" lon="12.1579233"><ele>305.0</ele><time>2026-05-02T10:03:37.786Z</time></trkpt><trkpt lat="43.3242383" lon="12.15811"><ele>305.0</ele><time>2026-05-02T10:03:38.786Z</time></trkpt><trkpt lat="43.32418" lon="12.1582917"><ele>305.0</ele><time>2026-05-02T10:03:39.786Z</time></trkpt><trkpt lat="43.3241233" lon="12.15845"><ele>305.0</ele><time>2026-05-02T10:03:40.786Z</time></trkpt><trkpt lat="43.3240717" lon="12.158585"><ele>305.2</ele><time>2026-05-02T10:03:41.786Z</time></trkpt><trkpt lat="43.3240283" lon="12.158695"><ele>305.4</ele><time>2026-05-02T10:03:42.786Z</time></trkpt><trkpt lat="43.3239817" lon="12.1587767"><ele>305.6</ele><time>2026-05-02T10:03:43.787Z</time></trkpt><trkpt lat="43.32393" lon="12.1588383"><ele>305.8</ele><time>2026-05-02T10:03:44.787Z</time></trkpt><trkpt lat="43.32382" lon="12.1587833"><ele>306.0</ele><time>2026-05-02T10:03:46.787Z</time></trkpt><trkpt lat="43.3237283" lon="12.1587133"><ele>304.25</ele><time>2026-05-02T10:03:47.788Z</time></trkpt><trkpt lat="43.3236" lon="12.1586533"><ele>302.5</ele><time>2026-05-02T10:03:48.788Z</time></trkpt><trkpt lat="43.323475" lon="12.1586067"><ele>300.75</ele><time>2026-05-02T10:03:49.786Z</time></trkpt><trkpt lat="43.32335" lon="12.1585633"><ele>299.0</ele><time>2026-05-02T10:03:50.786Z</time></trkpt><trkpt lat="43.32324" lon="12.158545"><ele>299.0</ele><time>2026-05-02T10:03:51.787Z</time></trkpt><trkpt lat="43.32313" lon="12.1585783"><ele>299.0</ele><time>2026-05-02T10:03:52.786Z</time></trkpt><trkpt lat="43.3230233" lon="12.1586683"><ele>299.0</ele><time>2026-05-02T10:03:53.786Z</time></trkpt><trkpt lat="43.3229167" lon="12.1588"><ele>299.0</ele><time>2026-05-02T10:03:54.786Z</time></trkpt><trkpt lat="43.3228067" lon="12.158955"><ele>297.33333333333337</ele><time>2026-05-02T10:03:55.787Z</time></trkpt><trkpt lat="43.3226917" lon="12.1591167"><ele>295.6666666666667</ele><time>2026-05-02T10:03:56.786Z</time></trkpt><trkpt lat="43.322575" lon="12.1592783"><ele>294.0</ele><time>2026-05-02T10:03:57.786Z</time></trkpt><trkpt lat="43.3224567" lon="12.1594317"><ele>294.0</ele><time>2026-05-02T10:03:58.787Z</time></trkpt><trkpt lat="43.322325" lon="12.159565"><ele>294.0</ele><time>2026-05-02T10:03:59.786Z</time></trkpt><trkpt lat="43.3221767" lon="12.1596683"><ele>294.0</ele><time>2026-05-02T10:04:00.786Z</time></trkpt><trkpt lat="43.322015" lon="12.1597467"><ele>294.0</ele><time>2026-05-02T10:04:01.787Z</time></trkpt><trkpt lat="43.3218533" lon="12.1598067"><ele>294.0</ele><time>2026-05-02T10:04:02.786Z</time></trkpt><trkpt lat="43.3217033" lon="12.1598533"><ele>294.0</ele><time>2026-05-02T10:04:03.786Z</time></trkpt><trkpt lat="43.32157" lon="12.1598867"><ele>294.0</ele><time>2026-05-02T10:04:04.786Z</time></trkpt><trkpt lat="43.3214467" lon="12.1599017"><ele>294.0</ele><time>2026-05-02T10:04:05.788Z</time></trkpt><trkpt lat="43.3213217" lon="12.1599033"><ele>294.0</ele><time>2026-05-02T10:04:06.786Z</time></trkpt><trkpt lat="43.3211883" lon="12.159905"><ele>294.0</ele><time>2026-05-02T10:04:07.786Z</time></trkpt><trkpt lat="43.3210467" lon="12.1599117"><ele>294.3333333333333</ele><time>2026-05-02T10:04:08.786Z</time></trkpt><trkpt lat="43.3208967" lon="12.15993"><ele>294.66666666666663</ele><time>2026-05-02T10:04:09.786Z</time></trkpt><trkpt lat="43.320745" lon="12.1599617"><ele>295.0</ele><time>2026-05-02T10:04:10.787Z</time></trkpt><trkpt lat="43.3205867" lon="12.16"><ele>296.3333333333333</ele><time>2026-05-02T10:04:11.787Z</time></trkpt><trkpt lat="43.3204333" lon="12.16004"><ele>297.6666666666667</ele><time>2026-05-02T10:04:12.786Z</time></trkpt><trkpt lat="43.3202833" lon="12.1600833"><ele>299.0</ele><time>2026-05-02T10:04:13.787Z</time></trkpt><trkpt lat="43.3201467" lon="12.1601317"><ele>299.0</ele><time>2026-05-02T10:04:14.787Z</time></trkpt><trkpt lat="43.3200233" lon="12.1601967"><ele>299.0</ele><time>2026-05-02T10:04:15.788Z</time></trkpt><trkpt lat="43.3199167" lon="12.160295"><ele>299.0</ele><time>2026-05-02T10:04:16.786Z</time></trkpt><trkpt lat="43.3198267" lon="12.1604183"><ele>299.0</ele><time>2026-05-02T10:04:17.79Z</time></trkpt><trkpt lat="43.3197417" lon="12.1605467"><ele>300.5</ele><time>2026-05-02T10:04:18.789Z</time></trkpt><trkpt lat="43.3196517" lon="12.1606617"><ele>302.0</ele><time>2026-05-02T10:04:19.789Z</time></trkpt><trkpt lat="43.31955" lon="12.1607517"><ele>303.5</ele><time>2026-05-02T10:04:20.789Z</time></trkpt><trkpt lat="43.3194417" lon="12.1608367"><ele>305.0</ele><time>2026-05-02T10:04:21.786Z</time></trkpt><trkpt lat="43.319335" lon="12.1609167"><ele>305.0</ele><time>2026-05-02T10:04:22.79Z</time></trkpt><trkpt lat="43.3192217" lon="12.1609933"><ele>305.0</ele><time>2026-05-02T10:04:23.791Z</time></trkpt><trkpt lat="43.3191117" lon="12.1610717"><ele>305.0</ele><time>2026-05-02T10:04:24.791Z</time></trkpt><trkpt lat="43.3190017" lon="12.1611583"><ele>305.0</ele><time>2026-05-02T10:04:25.789Z</time></trkpt><trkpt lat="43.3188933" lon="12.1612633"><ele>305.25</ele><time>2026-05-02T10:04:26.786Z</time></trkpt><trkpt lat="43.3187817" lon="12.161375"><ele>305.5</ele><time>2026-05-02T10:04:27.789Z</time></trkpt><trkpt lat="43.31867" lon="12.1614933"><ele>305.75</ele><time>2026-05-02T10:04:28.79Z</time></trkpt><trkpt lat="43.318565" lon="12.1616117"><ele>306.0</ele><time>2026-05-02T10:04:29.787Z</time></trkpt><trkpt lat="43.318465" lon="12.1617367"><ele>304.0</ele><time>2026-05-02T10:04:30.79Z</time></trkpt><trkpt lat="43.31838" lon="12.1618633"><ele>302.0</ele><time>2026-05-02T10:04:31.789Z</time></trkpt><trkpt lat="43.3183117" lon="12.161995"><ele>300.0</ele><time>2026-05-02T10:04:32.791Z</time></trkpt><trkpt lat="43.3182633" lon="12.1621283"><ele>298.0</ele><time>2026-05-02T10:04:33.789Z</time></trkpt><trkpt lat="43.3182217" lon="12.1622533"><ele>297.8333333333333</ele><time>2026-05-02T10:04:34.787Z</time></trkpt><trkpt lat="43.3181833" lon="12.16237"><ele>297.66666666666663</ele><time>2026-05-02T10:04:35.787Z</time></trkpt><trkpt lat="43.3181483" lon="12.1624783"><ele>297.5</ele><time>2026-05-02T10:04:36.789Z</time></trkpt><trkpt lat="43.318115" lon="12.1625817"><ele>297.3333333333333</ele><time>2026-05-02T10:04:37.788Z</time></trkpt><trkpt lat="43.318085" lon="12.1626733"><ele>297.1666666666667</ele><time>2026-05-02T10:04:38.789Z</time></trkpt><trkpt lat="43.3180567" lon="12.1627633"><ele>297.0</ele><time>2026-05-02T10:04:39.787Z</time></trkpt><trkpt lat="43.3180267" lon="12.1628433"><ele>297.8333333333333</ele><time>2026-05-02T10:04:40.786Z</time></trkpt><trkpt lat="43.318" lon="12.1629217"><ele>298.6666666666667</ele><time>2026-05-02T10:04:41.789Z</time></trkpt><trkpt lat="43.3179483" lon="12.1630433"><ele>299.5</ele><time>2026-05-02T10:04:43.786Z</time></trkpt><trkpt lat="43.3179083" lon="12.1631683"><ele>300.33333333333337</ele><time>2026-05-02T10:04:45.789Z</time></trkpt><trkpt lat="43.3178833" lon="12.1632517"><ele>301.1666666666667</ele><time>2026-05-02T10:04:46.788Z</time></trkpt><trkpt lat="43.3178517" lon="12.1633567"><ele>302.0</ele><time>2026-05-02T10:04:47.788Z</time></trkpt><trkpt lat="43.3178217" lon="12.1634817"><ele>302.0</ele><time>2026-05-02T10:04:48.788Z</time></trkpt><trkpt lat="43.317795" lon="12.1636183"><ele>302.0</ele><time>2026-05-02T10:04:49.788Z</time></trkpt><trkpt lat="43.3177717" lon="12.1637667"><ele>302.0</ele><time>2026-05-02T10:04:50.789Z</time></trkpt><trkpt lat="43.317745" lon="12.1639217"><ele>302.0</ele><time>2026-05-02T10:04:51.788Z</time></trkpt><trkpt lat="43.3177217" lon="12.16408"><ele>302.0</ele><time>2026-05-02T10:04:52.79Z</time></trkpt><trkpt lat="43.3177067" lon="12.1642467"><ele>301.6</ele><time>2026-05-02T10:04:53.79Z</time></trkpt><trkpt lat="43.3177" lon="12.164415"><ele>301.2</ele><time>2026-05-02T10:04:54.788Z</time></trkpt><trkpt lat="43.317695" lon="12.1645683"><ele>300.8</ele><time>2026-05-02T10:04:55.789Z</time></trkpt><trkpt lat="43.3176833" lon="12.1647033"><ele>300.4</ele><time>2026-05-02T10:04:56.788Z</time></trkpt><trkpt lat="43.3176683" lon="12.16482"><ele>300.0</ele><time>2026-05-02T10:04:57.789Z</time></trkpt><trkpt lat="43.317645" lon="12.1649317"><ele>300.0</ele><time>2026-05-02T10:04:58.789Z</time></trkpt><trkpt lat="43.31761" lon="12.1650417"><ele>300.0</ele><time>2026-05-02T10:04:59.789Z</time></trkpt><trkpt lat="43.317565" lon="12.16516"><ele>300.0</ele><time>2026-05-02T10:05:00.789Z</time></trkpt><trkpt lat="43.3175267" lon="12.1652967"><ele>300.0</ele><time>2026-05-02T10:05:01.788Z</time></trkpt><trkpt lat="43.3175033" lon="12.1654467"><ele>300.0</ele><time>2026-05-02T10:05:02.788Z</time></trkpt><trkpt lat="43.3175017" lon="12.165595"><ele>300.75</ele><time>2026-05-02T10:05:03.789Z</time></trkpt><trkpt lat="43.317515" lon="12.165735"><ele>301.5</ele><time>2026-05-02T10:05:04.788Z</time></trkpt><trkpt lat="43.3175533" lon="12.1658733"><ele>302.25</ele><time>2026-05-02T10:05:05.788Z</time></trkpt><trkpt lat="43.3176167" lon="12.1660083"><ele>303.0</ele><time>2026-05-02T10:05:06.789Z</time></trkpt><trkpt lat="43.317695" lon="12.1661433"><ele>303.0</ele><time>2026-05-02T10:05:07.789Z</time></trkpt><trkpt lat="43.3177883" lon="12.1662833"><ele>303.0</ele><time>2026-05-02T10:05:08.789Z</time></trkpt><trkpt lat="43.317885" lon="12.1664267"><ele>303.0</ele><time>2026-05-02T10:05:09.79Z</time></trkpt><trkpt lat="43.3179767" lon="12.1665717"><ele>303.0</ele><time>2026-05-02T10:05:10.789Z</time></trkpt><trkpt lat="43.3180717" lon="12.166715"><ele>304.75</ele><time>2026-05-02T10:05:11.788Z</time></trkpt><trkpt lat="43.3181783" lon="12.1668417"><ele>306.5</ele><time>2026-05-02T10:05:12.789Z</time></trkpt><trkpt lat="43.3182967" lon="12.1669583"><ele>308.25</ele><time>2026-05-02T10:05:13.788Z</time></trkpt><trkpt lat="43.31842" lon="12.1670517"><ele>310.0</ele><time>2026-05-02T10:05:14.789Z</time></trkpt><trkpt lat="43.3185267" lon="12.167135"><ele>310.0</ele><time>2026-05-02T10:05:15.789Z</time></trkpt><trkpt lat="43.3186183" lon="12.16721"><ele>310.0</ele><time>2026-05-02T10:05:16.788Z</time></trkpt><trkpt lat="43.3186867" lon="12.167295"><ele>310.0</ele><time>2026-05-02T10:05:17.792Z</time></trkpt><trkpt lat="43.3187333" lon="12.1673883"><ele>310.0</ele><time>2026-05-02T10:05:18.789Z</time></trkpt><trkpt lat="43.318745" lon="12.1674783"><ele>310.0</ele><time>2026-05-02T10:05:19.789Z</time></trkpt><trkpt lat="43.3186733" lon="12.1675733"><ele>310.0</ele><time>2026-05-02T10:05:21.788Z</time></trkpt><trkpt lat="43.3185483" lon="12.167495"><ele>310.0</ele><time>2026-05-02T10:05:23.79Z</time></trkpt><trkpt lat="43.3184783" lon="12.1674133"><ele>310.0</ele><time>2026-05-02T10:05:24.789Z</time></trkpt><trkpt lat="43.3183733" lon="12.16732"><ele>310.0</ele><time>2026-05-02T10:05:25.79Z</time></trkpt><trkpt lat="43.3182517" lon="12.1672583"><ele>310.0</ele><time>2026-05-02T10:05:26.789Z</time></trkpt><trkpt lat="43.3181267" lon="12.1672483"><ele>311.25</ele><time>2026-05-02T10:05:27.789Z</time></trkpt><trkpt lat="43.3180067" lon="12.1672817"><ele>312.5</ele><time>2026-05-02T10:05:28.788Z</time></trkpt><trkpt lat="43.31788" lon="12.1673383"><ele>313.75</ele><time>2026-05-02T10:05:29.789Z</time></trkpt><trkpt lat="43.317765" lon="12.1674067"><ele>315.0</ele><time>2026-05-02T10:05:30.789Z</time></trkpt><trkpt lat="43.3176717" lon="12.1674967"><ele>319.0</ele><time>2026-05-02T10:05:31.789Z</time></trkpt><trkpt lat="43.3176017" lon="12.1676117"><ele>323.0</ele><time>2026-05-02T10:05:32.789Z</time></trkpt><trkpt lat="43.3175517" lon="12.1677733"><ele>327.0</ele><time>2026-05-02T10:05:33.788Z</time></trkpt><trkpt lat="43.317515" lon="12.167975"><ele>331.0</ele><time>2026-05-02T10:05:34.791Z</time></trkpt><trkpt lat="43.317485" lon="12.168175"><ele>334.0</ele><time>2026-05-02T10:05:35.789Z</time></trkpt><trkpt lat="43.3174683" lon="12.1683617"><ele>337.0</ele><time>2026-05-02T10:05:36.79Z</time></trkpt><trkpt lat="43.3174767" lon="12.1685217"><ele>340.0</ele><time>2026-05-02T10:05:37.792Z</time></trkpt><trkpt lat="43.3175183" lon="12.16865"><ele>343.0</ele><time>2026-05-02T10:05:38.789Z</time></trkpt><trkpt lat="43.3175833" lon="12.16876"><ele>343.0</ele><time>2026-05-02T10:05:39.789Z</time></trkpt><trkpt lat="43.3176733" lon="12.1688567"><ele>343.0</ele><time>2026-05-02T10:05:40.789Z</time></trkpt><trkpt lat="43.3177767" lon="12.16893"><ele>343.0</ele><time>2026-05-02T10:05:41.79Z</time></trkpt><trkpt lat="43.3178767" lon="12.16899"><ele>343.0</ele><time>2026-05-02T10:05:42.789Z</time></trkpt><trkpt lat="43.317955" lon="12.169045"><ele>343.0</ele><time>2026-05-02T10:05:43.788Z</time></trkpt><trkpt lat="43.3180167" lon="12.169115"><ele>346.0</ele><time>2026-05-02T10:05:44.789Z</time></trkpt><trkpt lat="43.318055" lon="12.1691883"><ele>349.0</ele><time>2026-05-02T10:05:45.789Z</time></trkpt><trkpt lat="43.3179917" lon="12.1693067"><ele>352.0</ele><time>2026-05-02T10:05:47.79Z</time></trkpt><trkpt lat="43.3178983" lon="12.1693083"><ele>355.0</ele><time>2026-05-02T10:05:48.789Z</time></trkpt><trkpt lat="43.3178117" lon="12.1693033"><ele>358.0</ele><time>2026-05-02T10:05:49.786Z</time></trkpt><trkpt lat="43.31768" lon="12.16923"><ele>358.0</ele><time>2026-05-02T10:05:50.789Z</time></trkpt><trkpt lat="43.31753" lon="12.1691717"><ele>358.0</ele><time>2026-05-02T10:05:51.785Z</time></trkpt><trkpt lat="43.3173717" lon="12.1691283"><ele>358.0</ele><time>2026-05-02T10:05:52.789Z</time></trkpt><trkpt lat="43.31722" lon="12.16908"><ele>356.75</ele><time>2026-05-02T10:05:53.789Z</time></trkpt><trkpt lat="43.3170833" lon="12.16903"><ele>355.5</ele><time>2026-05-02T10:05:54.789Z</time></trkpt><trkpt lat="43.316955" lon="12.1690083"><ele>354.25</ele><time>2026-05-02T10:05:55.789Z</time></trkpt><trkpt lat="43.3168333" lon="12.1690217"><ele>353.0</ele><time>2026-05-02T10:05:56.789Z</time></trkpt><trkpt lat="43.3167167" lon="12.1690717"><ele>355.79999999999995</ele><time>2026-05-02T10:05:57.791Z</time></trkpt><trkpt lat="43.316625" lon="12.1691417"><ele>358.6</ele><time>2026-05-02T10:05:58.788Z</time></trkpt><trkpt lat="43.31657" lon="12.1692283"><ele>361.4</ele><time>2026-05-02T10:05:59.789Z</time></trkpt><trkpt lat="43.3165217" lon="12.1693283"><ele>364.20000000000005</ele><time>2026-05-02T10:06:00.79Z</time></trkpt><trkpt lat="43.3164767" lon="12.1694383"><ele>367.0</ele><time>2026-05-02T10:06:01.789Z</time></trkpt><trkpt lat="43.31644" lon="12.1695717"><ele>367.0</ele><time>2026-05-02T10:06:02.788Z</time></trkpt><trkpt lat="43.316415" lon="12.169725"><ele>367.0</ele><time>2026-05-02T10:06:03.789Z</time></trkpt><trkpt lat="43.316395" lon="12.1698867"><ele>367.0</ele><time>2026-05-02T10:06:04.789Z</time></trkpt><trkpt lat="43.316385" lon="12.1700667"><ele>367.0</ele><time>2026-05-02T10:06:05.789Z</time></trkpt><trkpt lat="43.31638" lon="12.1702517"><ele>371.0</ele><time>2026-05-02T10:06:06.79Z</time></trkpt><trkpt lat="43.31638" lon="12.17043"><ele>375.0</ele><time>2026-05-02T10:06:07.79Z</time></trkpt><trkpt lat="43.316395" lon="12.1706"><ele>379.0</ele><time>2026-05-02T10:06:08.79Z</time></trkpt><trkpt lat="43.3164117" lon="12.1707467"><ele>383.0</ele><time>2026-05-02T10:06:09.793Z</time></trkpt><trkpt lat="43.3164133" lon="12.17087"><ele>382.0</ele><time>2026-05-02T10:06:10.79Z</time></trkpt><trkpt lat="43.3163967" lon="12.1709717"><ele>381.0</ele><time>2026-05-02T10:06:11.792Z</time></trkpt><trkpt lat="43.31629" lon="12.17107"><ele>380.0</ele><time>2026-05-02T10:06:13.788Z</time></trkpt><trkpt lat="43.3162017" lon="12.1710683"><ele>379.0</ele><time>2026-05-02T10:06:14.789Z</time></trkpt><trkpt lat="43.31613" lon="12.1710917"><ele>378.0</ele><time>2026-05-02T10:06:15.789Z</time></trkpt><trkpt lat="43.316065" lon="12.17115"><ele>377.0</ele><time>2026-05-02T10:06:16.789Z</time></trkpt><trkpt lat="43.316005" lon="12.1712533"><ele>377.0</ele><time>2026-05-02T10:06:17.789Z</time></trkpt><trkpt lat="43.3159467" lon="12.171385"><ele>377.0</ele><time>2026-05-02T10:06:18.789Z</time></trkpt><trkpt lat="43.3159133" lon="12.1715317"><ele>377.0</ele><time>2026-05-02T10:06:19.789Z</time></trkpt><trkpt lat="43.3159133" lon="12.1716783"><ele>377.0</ele><time>2026-05-02T10:06:20.789Z</time></trkpt><trkpt lat="43.3159533" lon="12.1718267"><ele>377.0</ele><time>2026-05-02T10:06:21.79Z</time></trkpt><trkpt lat="43.3160333" lon="12.1719833"><ele>377.5</ele><time>2026-05-02T10:06:22.789Z</time></trkpt><trkpt lat="43.3161317" lon="12.1721433"><ele>378.0</ele><time>2026-05-02T10:06:23.789Z</time></trkpt><trkpt lat="43.3162217" lon="12.1723017"><ele>378.5</ele><time>2026-05-02T10:06:24.789Z</time></trkpt><trkpt lat="43.3162967" lon="12.1724417"><ele>379.0</ele><time>2026-05-02T10:06:25.789Z</time></trkpt><trkpt lat="43.3163683" lon="12.172545"><ele>383.0</ele><time>2026-05-02T10:06:26.789Z</time></trkpt><trkpt lat="43.3164467" lon="12.172605"><ele>387.0</ele><time>2026-05-02T10:06:27.79Z</time></trkpt><trkpt lat="43.3165333" lon="12.1726283"><ele>391.0</ele><time>2026-05-02T10:06:28.789Z</time></trkpt><trkpt lat="43.3166367" lon="12.17261"><ele>395.0</ele><time>2026-05-02T10:06:29.79Z</time></trkpt><trkpt lat="43.3167483" lon="12.1725917"><ele>399.0</ele><time>2026-05-02T10:06:30.789Z</time></trkpt><trkpt lat="43.3168533" lon="12.1725933"><ele>399.0</ele><time>2026-05-02T10:06:31.789Z</time></trkpt><trkpt lat="43.3169183" lon="12.1726367"><ele>399.0</ele><time>2026-05-02T10:06:32.789Z</time></trkpt><trkpt lat="43.3169617" lon="12.1727033"><ele>399.0</ele><time>2026-05-02T10:06:33.789Z</time></trkpt><trkpt lat="43.3169617" lon="12.1728033"><ele>399.0</ele><time>2026-05-02T10:06:34.789Z</time></trkpt><trkpt lat="43.3169433" lon="12.172905"><ele>399.0</ele><time>2026-05-02T10:06:35.787Z</time></trkpt><trkpt lat="43.3168467" lon="12.17308"><ele>399.0</ele><time>2026-05-02T10:06:36.789Z</time></trkpt><trkpt lat="43.3168167" lon="12.1732467"><ele>401.0</ele><time>2026-05-02T10:06:37.789Z</time></trkpt><trkpt lat="43.3167967" lon="12.17343"><ele>403.0</ele><time>2026-05-02T10:06:38.79Z</time></trkpt><trkpt lat="43.3167767" lon="12.173605"><ele>405.0</ele><time>2026-05-02T10:06:39.789Z</time></trkpt><trkpt lat="43.3167333" lon="12.1737533"><ele>407.0</ele><time>2026-05-02T10:06:40.789Z</time></trkpt><trkpt lat="43.3166883" lon="12.17388"><ele>406.99999999999994</ele><time>2026-05-02T10:06:41.789Z</time></trkpt><trkpt lat="43.3166617" lon="12.173995"><ele>407.0</ele><time>2026-05-02T10:06:42.79Z</time></trkpt><trkpt lat="43.3166683" lon="12.1741"><ele>407.0</ele><time>2026-05-02T10:06:43.792Z</time></trkpt><trkpt lat="43.3167033" lon="12.17418"><ele>407.0</ele><time>2026-05-02T10:06:44.789Z</time></trkpt><trkpt lat="43.3167717" lon="12.1742033"><ele>406.99999999999994</ele><time>2026-05-02T10:06:45.789Z</time></trkpt><trkpt lat="43.3168417" lon="12.1741733"><ele>407.0</ele><time>2026-05-02T10:06:46.79Z</time></trkpt><trkpt lat="43.3169333" lon="12.1740117"><ele>407.0</ele><time>2026-05-02T10:06:47.787Z</time></trkpt><trkpt lat="43.3169817" lon="12.1738683"><ele>407.0</ele><time>2026-05-02T10:06:48.787Z</time></trkpt><trkpt lat="43.3170317" lon="12.1737183"><ele>407.0</ele><time>2026-05-02T10:06:49.789Z</time></trkpt><trkpt lat="43.317095" lon="12.173535"><ele>407.0</ele><time>2026-05-02T10:06:50.789Z</time></trkpt><trkpt lat="43.317165" lon="12.1733667"><ele>409.5</ele><time>2026-05-02T10:06:51.787Z</time></trkpt><trkpt lat="43.31726" lon="12.1732183"><ele>412.0</ele><time>2026-05-02T10:06:52.79Z</time></trkpt><trkpt lat="43.31736" lon="12.1730883"><ele>414.5</ele><time>2026-05-02T10:06:53.79Z</time></trkpt><trkpt lat="43.3174433" lon="12.1729533"><ele>417.0</ele><time>2026-05-02T10:06:54.789Z</time></trkpt><trkpt lat="43.3175033" lon="12.1727933"><ele>417.0</ele><time>2026-05-02T10:06:55.79Z</time></trkpt><trkpt lat="43.3175533" lon="12.17262"><ele>417.0</ele><time>2026-05-02T10:06:56.79Z</time></trkpt><trkpt lat="43.3176217" lon="12.1724633"><ele>417.0</ele><time>2026-05-02T10:06:57.79Z</time></trkpt><trkpt lat="43.3177083" lon="12.17234"><ele>417.0</ele><time>2026-05-02T10:06:58.786Z</time></trkpt><trkpt lat="43.317795" lon="12.17224"><ele>417.0</ele><time>2026-05-02T10:06:59.79Z</time></trkpt><trkpt lat="43.3178733" lon="12.1721817"><ele>417.0</ele><time>2026-05-02T10:07:00.786Z</time></trkpt><trkpt lat="43.3179433" lon="12.1721333"><ele>417.0</ele><time>2026-05-02T10:07:01.786Z</time></trkpt><trkpt lat="43.3180117" lon="12.1722017"><ele>417.0</ele><time>2026-05-02T10:07:03.789Z</time></trkpt><trkpt lat="43.31798" lon="12.172365"><ele>417.0</ele><time>2026-05-02T10:07:05.79Z</time></trkpt><trkpt lat="43.3178833" lon="12.1725233"><ele>417.0</ele><time>2026-05-02T10:07:06.791Z</time></trkpt><trkpt lat="43.317845" lon="12.17267"><ele>417.0</ele><time>2026-05-02T10:07:07.79Z</time></trkpt><trkpt lat="43.3178333" lon="12.1728283"><ele>417.0</ele><time>2026-05-02T10:07:08.79Z</time></trkpt><trkpt lat="43.3178483" lon="12.172985"><ele>417.0</ele><time>2026-05-02T10:07:09.789Z</time></trkpt><trkpt lat="43.31788" lon="12.173155"><ele>418.40000000000003</ele><time>2026-05-02T10:07:10.79Z</time></trkpt><trkpt lat="43.3178983" lon="12.1733133"><ele>419.8</ele><time>2026-05-02T10:07:11.789Z</time></trkpt><trkpt lat="43.317875" lon="12.17345"><ele>421.2</ele><time>2026-05-02T10:07:12.789Z</time></trkpt><trkpt lat="43.3178283" lon="12.1735617"><ele>422.6</ele><time>2026-05-02T10:07:13.789Z</time></trkpt><trkpt lat="43.3177417" lon="12.173665"><ele>424.0</ele><time>2026-05-02T10:07:14.789Z</time></trkpt><trkpt lat="43.3176483" lon="12.1737817"><ele>424.0</ele><time>2026-05-02T10:07:15.79Z</time></trkpt><trkpt lat="43.31759" lon="12.1739233"><ele>424.0</ele><time>2026-05-02T10:07:16.79Z</time></trkpt><trkpt lat="43.3175633" lon="12.17409"><ele>424.0</ele><time>2026-05-02T10:07:17.788Z</time></trkpt><trkpt lat="43.3175767" lon="12.1742783"><ele>424.0</ele><time>2026-05-02T10:07:18.79Z</time></trkpt><trkpt lat="43.31762" lon="12.1744833"><ele>427.0</ele><time>2026-05-02T10:07:19.79Z</time></trkpt><trkpt lat="43.3176667" lon="12.17469"><ele>430.0</ele><time>2026-05-02T10:07:20.789Z</time></trkpt><trkpt lat="43.3176883" lon="12.17489"><ele>433.0</ele><time>2026-05-02T10:07:21.79Z</time></trkpt><trkpt lat="43.3176817" lon="12.17509"><ele>435.0</ele><time>2026-05-02T10:07:22.793Z</time></trkpt><trkpt lat="43.3176417" lon="12.1752967"><ele>437.0</ele><time>2026-05-02T10:07:23.79Z</time></trkpt><trkpt lat="43.3175833" lon="12.175525"><ele>439.0</ele><time>2026-05-02T10:07:24.789Z</time></trkpt><trkpt lat="43.3175133" lon="12.1757567"><ele>439.6666666666667</ele><time>2026-05-02T10:07:25.79Z</time></trkpt><trkpt lat="43.3174333" lon="12.1759667"><ele>440.33333333333337</ele><time>2026-05-02T10:07:26.79Z</time></trkpt><trkpt lat="43.3173417" lon="12.1761567"><ele>441.0</ele><time>2026-05-02T10:07:27.79Z</time></trkpt><trkpt lat="43.3172283" lon="12.17633"><ele>441.0</ele><time>2026-05-02T10:07:28.789Z</time></trkpt><trkpt lat="43.3171017" lon="12.17648"><ele>441.0</ele><time>2026-05-02T10:07:29.792Z</time></trkpt><trkpt lat="43.3169833" lon="12.176605"><ele>441.0</ele><time>2026-05-02T10:07:30.789Z</time></trkpt><trkpt lat="43.31688" lon="12.1767033"><ele>441.0</ele><time>2026-05-02T10:07:31.789Z</time></trkpt><trkpt lat="43.3167683" lon="12.1767583"><ele>443.25</ele><time>2026-05-02T10:07:32.789Z</time></trkpt><trkpt lat="43.3166383" lon="12.1767567"><ele>445.5</ele><time>2026-05-02T10:07:33.789Z</time></trkpt><trkpt lat="43.3165067" lon="12.1767517"><ele>447.75</ele><time>2026-05-02T10:07:34.789Z</time></trkpt><trkpt lat="43.3163867" lon="12.1767733"><ele>450.0</ele><time>2026-05-02T10:07:35.789Z</time></trkpt><trkpt lat="43.316275" lon="12.1768417"><ele>450.0</ele><time>2026-05-02T10:07:36.788Z</time></trkpt><trkpt lat="43.316165" lon="12.17695"><ele>450.0</ele><time>2026-05-02T10:07:37.785Z</time></trkpt><trkpt lat="43.316055" lon="12.1770817"><ele>450.0</ele><time>2026-05-02T10:07:38.785Z</time></trkpt><trkpt lat="43.315945" lon="12.1772367"><ele>450.0</ele><time>2026-05-02T10:07:39.785Z</time></trkpt><trkpt lat="43.3158417" lon="12.177405"><ele>453.25</ele><time>2026-05-02T10:07:40.786Z</time></trkpt><trkpt lat="43.3157467" lon="12.177575"><ele>456.5</ele><time>2026-05-02T10:07:41.785Z</time></trkpt><trkpt lat="43.3156567" lon="12.177725"><ele>459.75</ele><time>2026-05-02T10:07:42.786Z</time></trkpt><trkpt lat="43.3155633" lon="12.1778483"><ele>463.0</ele><time>2026-05-02T10:07:43.786Z</time></trkpt><trkpt lat="43.3154617" lon="12.177945"><ele>463.0</ele><time>2026-05-02T10:07:44.786Z</time></trkpt><trkpt lat="43.315335" lon="12.1779983"><ele>463.0</ele><time>2026-05-02T10:07:45.785Z</time></trkpt><trkpt lat="43.3151883" lon="12.1780283"><ele>463.0</ele><time>2026-05-02T10:07:46.787Z</time></trkpt><trkpt lat="43.31505" lon="12.1780517"><ele>463.0</ele><time>2026-05-02T10:07:47.786Z</time></trkpt><trkpt lat="43.314915" lon="12.1780467"><ele>463.0</ele><time>2026-05-02T10:07:48.785Z</time></trkpt><trkpt lat="43.3148033" lon="12.178"><ele>462.99999999999994</ele><time>2026-05-02T10:07:49.786Z</time></trkpt><trkpt lat="43.3146917" lon="12.1779567"><ele>462.99999999999994</ele><time>2026-05-02T10:07:50.786Z</time></trkpt><trkpt lat="43.3145833" lon="12.1779567"><ele>463.0</ele><time>2026-05-02T10:07:51.787Z</time></trkpt><trkpt lat="43.3144867" lon="12.1779983"><ele>463.0</ele><time>2026-05-02T10:07:52.786Z</time></trkpt><trkpt lat="43.31441" lon="12.1780783"><ele>465.75</ele><time>2026-05-02T10:07:53.787Z</time></trkpt><trkpt lat="43.314345" lon="12.1782183"><ele>468.5</ele><time>2026-05-02T10:07:54.788Z</time></trkpt><trkpt lat="43.3142733" lon="12.1783717"><ele>471.25</ele><time>2026-05-02T10:07:55.789Z</time></trkpt><trkpt lat="43.3141883" lon="12.1785283"><ele>474.0</ele><time>2026-05-02T10:07:56.785Z</time></trkpt><trkpt lat="43.3140883" lon="12.178675"><ele>474.0</ele><time>2026-05-02T10:07:57.785Z</time></trkpt><trkpt lat="43.3139883" lon="12.1788067"><ele>474.0</ele><time>2026-05-02T10:07:58.787Z</time></trkpt><trkpt lat="43.31389" lon="12.1789033"><ele>474.0</ele><time>2026-05-02T10:07:59.788Z</time></trkpt><trkpt lat="43.3137967" lon="12.1789517"><ele>474.0</ele><time>2026-05-02T10:08:00.785Z</time></trkpt><trkpt lat="43.313705" lon="12.17895"><ele>473.3333333333333</ele><time>2026-05-02T10:08:01.785Z</time></trkpt><trkpt lat="43.3136283" lon="12.178935"><ele>472.66666666666663</ele><time>2026-05-02T10:08:02.787Z</time></trkpt><trkpt lat="43.31356" lon="12.1789267"><ele>472.0</ele><time>2026-05-02T10:08:03.789Z</time></trkpt><trkpt lat="43.3134583" lon="12.17894"><ele>471.3333333333333</ele><time>2026-05-02T10:08:05.788Z</time></trkpt><trkpt lat="43.31345" lon="12.17906"><ele>470.66666666666663</ele><time>2026-05-02T10:08:07.788Z</time></trkpt><trkpt lat="43.313485" lon="12.179145"><ele>470.0</ele><time>2026-05-02T10:08:08.79Z</time></trkpt><trkpt lat="43.3135467" lon="12.1792383"><ele>475.0</ele><time>2026-05-02T10:08:09.789Z</time></trkpt><trkpt lat="43.3136017" lon="12.17933"><ele>480.0</ele><time>2026-05-02T10:08:10.789Z</time></trkpt><trkpt lat="43.3137183" lon="12.1793767"><ele>485.0</ele><time>2026-05-02T10:08:11.789Z</time></trkpt><trkpt lat="43.3138483" lon="12.1794017"><ele>490.0</ele><time>2026-05-02T10:08:12.789Z</time></trkpt><trkpt lat="43.3141683" lon="12.1793783"><ele>490.25</ele><time>2026-05-02T10:08:14.789Z</time></trkpt><trkpt lat="43.314315" lon="12.1793583"><ele>490.5</ele><time>2026-05-02T10:08:15.789Z</time></trkpt><trkpt lat="43.31444" lon="12.1793567"><ele>490.75</ele><time>2026-05-02T10:08:16.785Z</time></trkpt><trkpt lat="43.3145667" lon="12.179365"><ele>491.0</ele><time>2026-05-02T10:08:17.791Z</time></trkpt><trkpt lat="43.314695" lon="12.1793967"><ele>492.25</ele><time>2026-05-02T10:08:18.789Z</time></trkpt><trkpt lat="43.3148217" lon="12.1794383"><ele>493.5</ele><time>2026-05-02T10:08:19.789Z</time></trkpt><trkpt lat="43.3149533" lon="12.1794733"><ele>494.75</ele><time>2026-05-02T10:08:20.789Z</time></trkpt><trkpt lat="43.3150867" lon="12.17949"><ele>496.0</ele><time>2026-05-02T10:08:21.789Z</time></trkpt><trkpt lat="43.31522" lon="12.1794967"><ele>496.0</ele><time>2026-05-02T10:08:22.786Z</time></trkpt><trkpt lat="43.3153517" lon="12.1794967"><ele>496.0</ele><time>2026-05-02T10:08:23.788Z</time></trkpt><trkpt lat="43.3154733" lon="12.17949"><ele>496.0</ele><time>2026-05-02T10:08:24.789Z</time></trkpt><trkpt lat="43.3155867" lon="12.1794817"><ele>496.0</ele><time>2026-05-02T10:08:25.789Z</time></trkpt><trkpt lat="43.3157033" lon="12.17946"><ele>497.25</ele><time>2026-05-02T10:08:26.79Z</time></trkpt><trkpt lat="43.3158233" lon="12.1794133"><ele>498.5</ele><time>2026-05-02T10:08:27.787Z</time></trkpt><trkpt lat="43.3159567" lon="12.17934"><ele>499.75</ele><time>2026-05-02T10:08:28.787Z</time></trkpt><trkpt lat="43.3161017" lon="12.1792467"><ele>501.0</ele><time>2026-05-02T10:08:29.791Z</time></trkpt><trkpt lat="43.3162567" lon="12.179145"><ele>499.33333333333337</ele><time>2026-05-02T10:08:30.788Z</time></trkpt><trkpt lat="43.3164167" lon="12.1790417"><ele>497.6666666666667</ele><time>2026-05-02T10:08:31.789Z</time></trkpt><trkpt lat="43.3165733" lon="12.17894"><ele>496.0</ele><time>2026-05-02T10:08:32.788Z</time></trkpt><trkpt lat="43.3167167" lon="12.178845"><ele>496.0</ele><time>2026-05-02T10:08:33.791Z</time></trkpt><trkpt lat="43.3168517" lon="12.1787667"><ele>496.0</ele><time>2026-05-02T10:08:34.79Z</time></trkpt><trkpt lat="43.316985" lon="12.178695"><ele>496.0</ele><time>2026-05-02T10:08:35.789Z</time></trkpt><trkpt lat="43.31712" lon="12.1786267"><ele>496.0</ele><time>2026-05-02T10:08:36.79Z</time></trkpt><trkpt lat="43.3172533" lon="12.1785617"><ele>498.5</ele><time>2026-05-02T10:08:37.788Z</time></trkpt><trkpt lat="43.3173833" lon="12.1784917"><ele>501.0</ele><time>2026-05-02T10:08:38.789Z</time></trkpt><trkpt lat="43.3175067" lon="12.1784267"><ele>503.5</ele><time>2026-05-02T10:08:39.787Z</time></trkpt><trkpt lat="43.31762" lon="12.178375"><ele>506.0</ele><time>2026-05-02T10:08:40.789Z</time></trkpt><trkpt lat="43.3177217" lon="12.1783667"><ele>506.0</ele><time>2026-05-02T10:08:41.79Z</time></trkpt><trkpt lat="43.3178067" lon="12.1783883"><ele>506.0</ele><time>2026-05-02T10:08:42.789Z</time></trkpt><trkpt lat="43.3178883" lon="12.1784183"><ele>506.0</ele><time>2026-05-02T10:08:43.789Z</time></trkpt><trkpt lat="43.3179483" lon="12.1784817"><ele>506.0</ele><time>2026-05-02T10:08:44.789Z</time></trkpt><trkpt lat="43.318" lon="12.1786383"><ele>506.0</ele><time>2026-05-02T10:08:46.789Z</time></trkpt><trkpt lat="43.3179533" lon="12.1788133"><ele>506.0</ele><time>2026-05-02T10:08:48.789Z</time></trkpt><trkpt lat="43.3179017" lon="12.1789017"><ele>506.0</ele><time>2026-05-02T10:08:49.789Z</time></trkpt><trkpt lat="43.3177833" lon="12.179115"><ele>506.0</ele><time>2026-05-02T10:08:51.789Z</time></trkpt><trkpt lat="43.3177417" lon="12.179245"><ele>506.0</ele><time>2026-05-02T10:08:52.789Z</time></trkpt><trkpt lat="43.3177083" lon="12.17939"><ele>507.0</ele><time>2026-05-02T10:08:53.789Z</time></trkpt><trkpt lat="43.3176767" lon="12.1795267"><ele>508.0</ele><time>2026-05-02T10:08:54.786Z</time></trkpt><trkpt lat="43.3176483" lon="12.1796517"><ele>509.0</ele><time>2026-05-02T10:08:55.789Z</time></trkpt><trkpt lat="43.3175167" lon="12.179985"><ele>509.0</ele><time>2026-05-02T10:08:58.789Z</time></trkpt><trkpt lat="43.31746" lon="12.1800933"><ele>509.0</ele><time>2026-05-02T10:08:59.789Z</time></trkpt><trkpt lat="43.3174017" lon="12.1802117"><ele>509.0</ele><time>2026-05-02T10:09:00.787Z</time></trkpt><trkpt lat="43.3173533" lon="12.18033"><ele>509.0</ele><time>2026-05-02T10:09:01.787Z</time></trkpt><trkpt lat="43.3173133" lon="12.1804533"><ele>509.0</ele><time>2026-05-02T10:09:02.787Z</time></trkpt><trkpt lat="43.3172667" lon="12.1805517"><ele>510.0</ele><time>2026-05-02T10:09:03.79Z</time></trkpt><trkpt lat="43.3172167" lon="12.180625"><ele>511.0</ele><time>2026-05-02T10:09:04.786Z</time></trkpt><trkpt lat="43.3171617" lon="12.1806733"><ele>512.0</ele><time>2026-05-02T10:09:05.791Z</time></trkpt><trkpt lat="43.316975" lon="12.1806933"><ele>513.0</ele><time>2026-05-02T10:09:08.79Z</time></trkpt><trkpt lat="43.31691" lon="12.1806867"><ele>514.0</ele><time>2026-05-02T10:09:09.79Z</time></trkpt><trkpt lat="43.316775" lon="12.1807483"><ele>514.0</ele><time>2026-05-02T10:09:11.786Z</time></trkpt><trkpt lat="43.3167267" lon="12.1808083"><ele>514.0</ele><time>2026-05-02T10:09:12.785Z</time></trkpt><trkpt lat="43.3166883" lon="12.1808833"><ele>514.0</ele><time>2026-05-02T10:09:13.786Z</time></trkpt><trkpt lat="43.3166767" lon="12.1809933"><ele>514.0</ele><time>2026-05-02T10:09:14.786Z</time></trkpt><trkpt lat="43.3166867" lon="12.18112"><ele>514.0</ele><time>2026-05-02T10:09:15.786Z</time></trkpt><trkpt lat="43.3166967" lon="12.1812367"><ele>514.0</ele><time>2026-05-02T10:09:16.789Z</time></trkpt><trkpt lat="43.3166983" lon="12.1813517"><ele>514.0</ele><time>2026-05-02T10:09:17.79Z</time></trkpt><trkpt lat="43.3166983" lon="12.1814767"><ele>514.0</ele><time>2026-05-02T10:09:18.786Z</time></trkpt><trkpt lat="43.31669" lon="12.181625"><ele>514.0</ele><time>2026-05-02T10:09:19.791Z</time></trkpt><trkpt lat="43.3166883" lon="12.1817717"><ele>514.0</ele><time>2026-05-02T10:09:20.787Z</time></trkpt><trkpt lat="43.316685" lon="12.1819067"><ele>514.0</ele><time>2026-05-02T10:09:21.79Z</time></trkpt><trkpt lat="43.3166783" lon="12.1820367"><ele>515.8</ele><time>2026-05-02T10:09:22.79Z</time></trkpt><trkpt lat="43.316665" lon="12.1821433"><ele>517.5999999999999</ele><time>2026-05-02T10:09:23.787Z</time></trkpt><trkpt lat="43.3166333" lon="12.1822233"><ele>519.4</ele><time>2026-05-02T10:09:24.788Z</time></trkpt><trkpt lat="43.3165233" lon="12.1823067"><ele>521.1999999999999</ele><time>2026-05-02T10:09:26.786Z</time></trkpt><trkpt lat="43.31644" lon="12.1823067"><ele>523.0</ele><time>2026-05-02T10:09:27.786Z</time></trkpt><trkpt lat="43.3163283" lon="12.18228"><ele>523.0</ele><time>2026-05-02T10:09:28.786Z</time></trkpt><trkpt lat="43.3162083" lon="12.1822317"><ele>523.0</ele><time>2026-05-02T10:09:29.786Z</time></trkpt><trkpt lat="43.3161133" lon="12.1822033"><ele>523.0</ele><time>2026-05-02T10:09:30.786Z</time></trkpt><trkpt lat="43.3160367" lon="12.1821933"><ele>523.0</ele><time>2026-05-02T10:09:31.786Z</time></trkpt><trkpt lat="43.3159267" lon="12.1822533"><ele>523.0</ele><time>2026-05-02T10:09:33.786Z</time></trkpt><trkpt lat="43.3158167" lon="12.1823867"><ele>523.6</ele><time>2026-05-02T10:09:35.789Z</time></trkpt><trkpt lat="43.31574" lon="12.1824683"><ele>524.1999999999999</ele><time>2026-05-02T10:09:36.789Z</time></trkpt><trkpt lat="43.3156417" lon="12.1825467"><ele>524.8</ele><time>2026-05-02T10:09:37.789Z</time></trkpt><trkpt lat="43.315545" lon="12.18261"><ele>525.4</ele><time>2026-05-02T10:09:38.789Z</time></trkpt><trkpt lat="43.3154467" lon="12.182655"><ele>526.0</ele><time>2026-05-02T10:09:39.792Z</time></trkpt><trkpt lat="43.3153483" lon="12.1826933"><ele>526.0</ele><time>2026-05-02T10:09:40.789Z</time></trkpt><trkpt lat="43.315265" lon="12.1827283"><ele>526.0</ele><time>2026-05-02T10:09:41.79Z</time></trkpt><trkpt lat="43.315195" lon="12.18277"><ele>526.0</ele><time>2026-05-02T10:09:42.789Z</time></trkpt><trkpt lat="43.3151433" lon="12.1828317"><ele>526.0</ele><time>2026-05-02T10:09:43.79Z</time></trkpt><trkpt lat="43.31511" lon="12.18291"><ele>526.0</ele><time>2026-05-02T10:09:44.79Z</time></trkpt><trkpt lat="43.3150917" lon="12.1830117"><ele>526.0</ele><time>2026-05-02T10:09:45.79Z</time></trkpt><trkpt lat="43.3151" lon="12.1831317"><ele>522.4</ele><time>2026-05-02T10:09:46.786Z</time></trkpt><trkpt lat="43.3151283" lon="12.18329"><ele>518.8</ele><time>2026-05-02T10:09:47.789Z</time></trkpt><trkpt lat="43.3151533" lon="12.18343"><ele>515.1999999999999</ele><time>2026-05-02T10:09:48.789Z</time></trkpt><trkpt lat="43.3151767" lon="12.18357"><ele>511.59999999999997</ele><time>2026-05-02T10:09:49.789Z</time></trkpt><trkpt lat="43.3151883" lon="12.1837"><ele>508.0</ele><time>2026-05-02T10:09:50.789Z</time></trkpt><trkpt lat="43.315185" lon="12.1838133"><ele>508.00000000000006</ele><time>2026-05-02T10:09:51.785Z</time></trkpt><trkpt lat="43.3151667" lon="12.1839067"><ele>508.0</ele><time>2026-05-02T10:09:52.786Z</time></trkpt><trkpt lat="43.31508" lon="12.18402"><ele>508.0</ele><time>2026-05-02T10:09:54.88Z</time></trkpt><trkpt lat="43.3149983" lon="12.1840617"><ele>508.0</ele><time>2026-05-02T10:09:55.786Z</time></trkpt><trkpt lat="43.3149283" lon="12.184105"><ele>508.00000000000006</ele><time>2026-05-02T10:09:56.789Z</time></trkpt><trkpt lat="43.314855" lon="12.18416"><ele>508.0</ele><time>2026-05-02T10:09:57.786Z</time></trkpt><trkpt lat="43.3148067" lon="12.184225"><ele>505.59999999999997</ele><time>2026-05-02T10:09:58.787Z</time></trkpt><trkpt lat="43.3147783" lon="12.1843033"><ele>503.19999999999993</ele><time>2026-05-02T10:09:59.786Z</time></trkpt><trkpt lat="43.3147533" lon="12.1844033"><ele>500.8</ele><time>2026-05-02T10:10:00.789Z</time></trkpt><trkpt lat="43.314715" lon="12.1845317"><ele>498.4</ele><time>2026-05-02T10:10:01.789Z</time></trkpt><trkpt lat="43.3146483" lon="12.1846383"><ele>496.0</ele><time>2026-05-02T10:10:02.789Z</time></trkpt><trkpt lat="43.3145617" lon="12.184735"><ele>499.25</ele><time>2026-05-02T10:10:03.789Z</time></trkpt><trkpt lat="43.31446" lon="12.1848367"><ele>502.5</ele><time>2026-05-02T10:10:04.787Z</time></trkpt><trkpt lat="43.3143483" lon="12.18493"><ele>505.75</ele><time>2026-05-02T10:10:05.787Z</time></trkpt><trkpt lat="43.31423" lon="12.1850333"><ele>509.0</ele><time>2026-05-02T10:10:06.789Z</time></trkpt><trkpt lat="43.3141217" lon="12.1851283"><ele>509.0</ele><time>2026-05-02T10:10:07.786Z</time></trkpt><trkpt lat="43.3140183" lon="12.1852183"><ele>509.0</ele><time>2026-05-02T10:10:08.789Z</time></trkpt><trkpt lat="43.3139267" lon="12.185305"><ele>509.0</ele><time>2026-05-02T10:10:09.786Z</time></trkpt><trkpt lat="43.31384" lon="12.1854017"><ele>509.0</ele><time>2026-05-02T10:10:10.787Z</time></trkpt><trkpt lat="43.31376" lon="12.1855017"><ele>511.2</ele><time>2026-05-02T10:10:11.787Z</time></trkpt><trkpt lat="43.3136933" lon="12.185595"><ele>513.4</ele><time>2026-05-02T10:10:12.786Z</time></trkpt><trkpt lat="43.3136467" lon="12.1856783"><ele>515.6</ele><time>2026-05-02T10:10:13.786Z</time></trkpt><trkpt lat="43.3136267" lon="12.185825"><ele>517.8</ele><time>2026-05-02T10:10:15.79Z</time></trkpt><trkpt lat="43.3136567" lon="12.1859883"><ele>520.0</ele><time>2026-05-02T10:10:17.789Z</time></trkpt><trkpt lat="43.31372" lon="12.1860633"><ele>520.0</ele><time>2026-05-02T10:10:18.789Z</time></trkpt><trkpt lat="43.313775" lon="12.186135"><ele>520.0</ele><time>2026-05-02T10:10:19.789Z</time></trkpt><trkpt lat="43.313825" lon="12.186275"><ele>520.0</ele><time>2026-05-02T10:10:21.79Z</time></trkpt><trkpt lat="43.3137683" lon="12.1863833"><ele>520.0</ele><time>2026-05-02T10:10:23.79Z</time></trkpt><trkpt lat="43.3136733" lon="12.1864067"><ele>520.0</ele><time>2026-05-02T10:10:24.789Z</time></trkpt><trkpt lat="43.3135683" lon="12.1864367"><ele>520.0</ele><time>2026-05-02T10:10:25.789Z</time></trkpt><trkpt lat="43.313475" lon="12.186485"><ele>520.0</ele><time>2026-05-02T10:10:26.788Z</time></trkpt><trkpt lat="43.3133633" lon="12.18657"><ele>520.0</ele><time>2026-05-02T10:10:27.786Z</time></trkpt><trkpt lat="43.3132317" lon="12.186665"><ele>520.0</ele><time>2026-05-02T10:10:28.79Z</time></trkpt><trkpt lat="43.3131017" lon="12.1867583"><ele>524.75</ele><time>2026-05-02T10:10:29.788Z</time></trkpt><trkpt lat="43.3129717" lon="12.1868433"><ele>529.5</ele><time>2026-05-02T10:10:30.785Z</time></trkpt><trkpt lat="43.3128617" lon="12.186925"><ele>534.25</ele><time>2026-05-02T10:10:31.785Z</time></trkpt><trkpt lat="43.3127667" lon="12.18701"><ele>539.0</ele><time>2026-05-02T10:10:32.785Z</time></trkpt><trkpt lat="43.312685" lon="12.1871133"><ele>539.0</ele><time>2026-05-02T10:10:33.788Z</time></trkpt><trkpt lat="43.3126167" lon="12.187235"><ele>539.0</ele><time>2026-05-02T10:10:34.786Z</time></trkpt><trkpt lat="43.3125567" lon="12.1873583"><ele>539.0</ele><time>2026-05-02T10:10:35.785Z</time></trkpt><trkpt lat="43.3124833" lon="12.1874733"><ele>539.0</ele><time>2026-05-02T10:10:36.786Z</time></trkpt><trkpt lat="43.312405" lon="12.1875683"><ele>539.0</ele><time>2026-05-02T10:10:37.785Z</time></trkpt><trkpt lat="43.31233" lon="12.1876517"><ele>542.25</ele><time>2026-05-02T10:10:38.785Z</time></trkpt><trkpt lat="43.3122617" lon="12.1877467"><ele>545.5</ele><time>2026-05-02T10:10:39.789Z</time></trkpt><trkpt lat="43.3121967" lon="12.18786"><ele>548.75</ele><time>2026-05-02T10:10:40.786Z</time></trkpt><trkpt lat="43.3121333" lon="12.1880033"><ele>552.0</ele><time>2026-05-02T10:10:41.786Z</time></trkpt><trkpt lat="43.3120733" lon="12.188155"><ele>547.75</ele><time>2026-05-02T10:10:42.786Z</time></trkpt><trkpt lat="43.3120183" lon="12.1883083"><ele>543.5</ele><time>2026-05-02T10:10:43.786Z</time></trkpt><trkpt lat="43.3119683" lon="12.1884567"><ele>539.25</ele><time>2026-05-02T10:10:44.785Z</time></trkpt><trkpt lat="43.311935" lon="12.18859"><ele>535.0</ele><time>2026-05-02T10:10:45.787Z</time></trkpt><trkpt lat="43.3119117" lon="12.18873"><ele>535.0</ele><time>2026-05-02T10:10:46.787Z</time></trkpt><trkpt lat="43.3118933" lon="12.1888333"><ele>535.0</ele><time>2026-05-02T10:10:47.789Z</time></trkpt><trkpt lat="43.3118983" lon="12.18893"><ele>535.0</ele><time>2026-05-02T10:10:48.788Z</time></trkpt><trkpt lat="43.3119183" lon="12.1890333"><ele>535.0</ele><time>2026-05-02T10:10:49.79Z</time></trkpt><trkpt lat="43.311955" lon="12.18916"><ele>535.0</ele><time>2026-05-02T10:10:50.789Z</time></trkpt><trkpt lat="43.3120033" lon="12.1893033"><ele>535.0</ele><time>2026-05-02T10:10:51.789Z</time></trkpt><trkpt lat="43.31206" lon="12.1894433"><ele>534.1666666666667</ele><time>2026-05-02T10:10:52.789Z</time></trkpt><trkpt lat="43.312105" lon="12.1895783"><ele>533.3333333333334</ele><time>2026-05-02T10:10:53.789Z</time></trkpt><trkpt lat="43.3121317" lon="12.1897033"><ele>532.5</ele><time>2026-05-02T10:10:54.786Z</time></trkpt><trkpt lat="43.3121383" lon="12.1898083"><ele>531.6666666666666</ele><time>2026-05-02T10:10:55.789Z</time></trkpt><trkpt lat="43.3121267" lon="12.189895"><ele>530.8333333333333</ele><time>2026-05-02T10:10:56.785Z</time></trkpt><trkpt lat="43.312095" lon="12.1899733"><ele>530.0</ele><time>2026-05-02T10:10:57.785Z</time></trkpt><trkpt lat="43.3120483" lon="12.1900433"><ele>529.5</ele><time>2026-05-02T10:10:58.789Z</time></trkpt><trkpt lat="43.3119717" lon="12.1901117"><ele>529.0</ele><time>2026-05-02T10:10:59.788Z</time></trkpt><trkpt lat="43.3119033" lon="12.1901767"><ele>528.5</ele><time>2026-05-02T10:11:00.789Z</time></trkpt><trkpt lat="43.31184" lon="12.1902467"><ele>528.0</ele><time>2026-05-02T10:11:01.786Z</time></trkpt><trkpt lat="43.311785" lon="12.19033"><ele>527.5</ele><time>2026-05-02T10:11:02.785Z</time></trkpt><trkpt lat="43.3117417" lon="12.1904267"><ele>527.0</ele><time>2026-05-02T10:11:03.785Z</time></trkpt><trkpt lat="43.31172" lon="12.1905483"><ele>524.5</ele><time>2026-05-02T10:11:04.788Z</time></trkpt><trkpt lat="43.3117217" lon="12.1906817"><ele>522.0</ele><time>2026-05-02T10:11:05.788Z</time></trkpt><trkpt lat="43.3117483" lon="12.1908333"><ele>519.5</ele><time>2026-05-02T10:11:06.789Z</time></trkpt><trkpt lat="43.311795" lon="12.1909917"><ele>517.0</ele><time>2026-05-02T10:11:07.788Z</time></trkpt><trkpt lat="43.31184" lon="12.1911483"><ele>517.0</ele><time>2026-05-02T10:11:08.786Z</time></trkpt><trkpt lat="43.3118967" lon="12.1912867"><ele>517.0</ele><time>2026-05-02T10:11:09.79Z</time></trkpt><trkpt lat="43.3119683" lon="12.191405"><ele>517.0</ele><time>2026-05-02T10:11:10.789Z</time></trkpt><trkpt lat="43.31212" lon="12.1916017"><ele>517.0</ele><time>2026-05-02T10:11:12.79Z</time></trkpt><trkpt lat="43.3121883" lon="12.1916933"><ele>515.3333333333334</ele><time>2026-05-02T10:11:13.789Z</time></trkpt><trkpt lat="43.3122433" lon="12.19178"><ele>513.6666666666667</ele><time>2026-05-02T10:11:14.789Z</time></trkpt><trkpt lat="43.3122817" lon="12.19185"><ele>512.0</ele><time>2026-05-02T10:11:15.789Z</time></trkpt><trkpt lat="43.3123217" lon="12.1919433"><ele>510.33333333333337</ele><time>2026-05-02T10:11:17.788Z</time></trkpt><trkpt lat="43.3123317" lon="12.1920883"><ele>508.6666666666667</ele><time>2026-05-02T10:17:30.506Z</time></trkpt><trkpt lat="43.3123883" lon="12.1921817"><ele>507.0</ele><time>2026-05-02T10:17:32.786Z</time></trkpt><trkpt lat="43.3124583" lon="12.1923033"><ele>506.8</ele><time>2026-05-02T10:17:34.786Z</time></trkpt><trkpt lat="43.3125283" lon="12.1924133"><ele>506.6</ele><time>2026-05-02T10:17:36.786Z</time></trkpt><trkpt lat="43.312585" lon="12.192525"><ele>506.40000000000003</ele><time>2026-05-02T10:17:38.786Z</time></trkpt><trkpt lat="43.3126417" lon="12.1926833"><ele>506.20000000000005</ele><time>2026-05-02T10:17:40.786Z</time></trkpt><trkpt lat="43.3126633" lon="12.1927817"><ele>506.0</ele><time>2026-05-02T10:17:41.786Z</time></trkpt><trkpt lat="43.3126783" lon="12.1928817"><ele>505.99999999999994</ele><time>2026-05-02T10:17:42.786Z</time></trkpt><trkpt lat="43.31269" lon="12.1929783"><ele>506.0</ele><time>2026-05-02T10:17:43.786Z</time></trkpt><trkpt lat="43.3126967" lon="12.19313"><ele>506.0</ele><time>2026-05-02T10:17:45.786Z</time></trkpt><trkpt lat="43.3126633" lon="12.1932317"><ele>506.0</ele><time>2026-05-02T10:17:47.786Z</time></trkpt><trkpt lat="43.312575" lon="12.1932317"><ele>505.99999999999994</ele><time>2026-05-02T10:17:49.787Z</time></trkpt><trkpt lat="43.3125183" lon="12.193175"><ele>506.0</ele><time>2026-05-02T10:17:50.786Z</time></trkpt><trkpt lat="43.3124617" lon="12.193105"><ele>506.0</ele><time>2026-05-02T10:17:51.787Z</time></trkpt><trkpt lat="43.3123917" lon="12.1930417"><ele>506.0</ele><time>2026-05-02T10:17:52.786Z</time></trkpt><trkpt lat="43.3123117" lon="12.1929917"><ele>506.0</ele><time>2026-05-02T10:17:53.786Z</time></trkpt><trkpt lat="43.312215" lon="12.1929833"><ele>506.0</ele><time>2026-05-02T10:17:54.786Z</time></trkpt><trkpt lat="43.3121067" lon="12.1930117"><ele>506.0</ele><time>2026-05-02T10:17:55.786Z</time></trkpt><trkpt lat="43.3119883" lon="12.19306"><ele>505.20000000000005</ele><time>2026-05-02T10:17:56.786Z</time></trkpt><trkpt lat="43.3118767" lon="12.193105"><ele>504.40000000000003</ele><time>2026-05-02T10:17:57.788Z</time></trkpt><trkpt lat="43.3117667" lon="12.1931483"><ele>503.6</ele><time>2026-05-02T10:17:58.786Z</time></trkpt><trkpt lat="43.31166" lon="12.1931917"><ele>502.8</ele><time>2026-05-02T10:17:59.786Z</time></trkpt><trkpt lat="43.311565" lon="12.193245"><ele>502.0</ele><time>2026-05-02T10:18:00.786Z</time></trkpt><trkpt lat="43.31148" lon="12.1933217"><ele>501.0</ele><time>2026-05-02T10:18:01.786Z</time></trkpt><trkpt lat="43.311405" lon="12.1934167"><ele>500.00000000000006</ele><time>2026-05-02T10:18:02.786Z</time></trkpt><trkpt lat="43.311345" lon="12.1935133"><ele>499.00000000000006</ele><time>2026-05-02T10:18:03.786Z</time></trkpt><trkpt lat="43.311305" lon="12.1935933"><ele>498.0</ele><time>2026-05-02T10:18:04.786Z</time></trkpt><trkpt lat="43.3112883" lon="12.1937317"><ele>497.0</ele><time>2026-05-02T10:18:06.786Z</time></trkpt><trkpt lat="43.3113783" lon="12.1938767"><ele>494.8</ele><time>2026-05-02T10:18:08.787Z</time></trkpt><trkpt lat="43.311475" lon="12.1939567"><ele>492.6</ele><time>2026-05-02T10:18:09.786Z</time></trkpt><trkpt lat="43.3115717" lon="12.19403"><ele>490.40000000000003</ele><time>2026-05-02T10:18:10.786Z</time></trkpt><trkpt lat="43.311645" lon="12.1941167"><ele>488.20000000000005</ele><time>2026-05-02T10:18:11.786Z</time></trkpt><trkpt lat="43.3117" lon="12.1942133"><ele>486.0</ele><time>2026-05-02T10:18:12.787Z</time></trkpt><trkpt lat="43.31174" lon="12.1943233"><ele>485.5</ele><time>2026-05-02T10:18:13.787Z</time></trkpt><trkpt lat="43.3117583" lon="12.1944433"><ele>485.0</ele><time>2026-05-02T10:18:14.79Z</time></trkpt><trkpt lat="43.3117733" lon="12.1945717"><ele>484.5</ele><time>2026-05-02T10:18:15.787Z</time></trkpt><trkpt lat="43.3118083" lon="12.1946733"><ele>484.0</ele><time>2026-05-02T10:18:16.786Z</time></trkpt><trkpt lat="43.3118583" lon="12.1947633"><ele>483.5</ele><time>2026-05-02T10:18:17.788Z</time></trkpt><trkpt lat="43.3119267" lon="12.1948367"><ele>483.0</ele><time>2026-05-02T10:18:18.786Z</time></trkpt><trkpt lat="43.3120217" lon="12.1949017"><ele>481.75</ele><time>2026-05-02T10:18:19.786Z</time></trkpt><trkpt lat="43.3121383" lon="12.1949483"><ele>480.5</ele><time>2026-05-02T10:18:20.787Z</time></trkpt><trkpt lat="43.3122733" lon="12.1950017"><ele>479.25</ele><time>2026-05-02T10:18:21.786Z</time></trkpt><trkpt lat="43.312425" lon="12.19507"><ele>478.0</ele><time>2026-05-02T10:18:22.787Z</time></trkpt><trkpt lat="43.3125883" lon="12.19515"><ele>478.0</ele><time>2026-05-02T10:18:23.786Z</time></trkpt><trkpt lat="43.31275" lon="12.1952383"><ele>478.0</ele><time>2026-05-02T10:18:24.788Z</time></trkpt><trkpt lat="43.312915" lon="12.1953267"><ele>478.0</ele><time>2026-05-02T10:18:25.787Z</time></trkpt><trkpt lat="43.313075" lon="12.1954067"><ele>479.5</ele><time>2026-05-02T10:18:26.786Z</time></trkpt><trkpt lat="43.31322" lon="12.1954867"><ele>481.0</ele><time>2026-05-02T10:18:27.786Z</time></trkpt><trkpt lat="43.313345" lon="12.19556"><ele>482.5</ele><time>2026-05-02T10:18:28.787Z</time></trkpt><trkpt lat="43.3134533" lon="12.195635"><ele>484.0</ele><time>2026-05-02T10:18:29.786Z</time></trkpt><trkpt lat="43.3135467" lon="12.19573"><ele>484.0</ele><time>2026-05-02T10:18:30.786Z</time></trkpt><trkpt lat="43.3136367" lon="12.1958533"><ele>484.0</ele><time>2026-05-02T10:18:31.786Z</time></trkpt><trkpt lat="43.3137283" lon="12.196005"><ele>484.0</ele><time>2026-05-02T10:18:32.786Z</time></trkpt><trkpt lat="43.3138233" lon="12.1961617"><ele>484.0</ele><time>2026-05-02T10:18:33.789Z</time></trkpt><trkpt lat="43.3140067" lon="12.1964417"><ele>480.0</ele><time>2026-05-02T10:18:35.79Z</time></trkpt><trkpt lat="43.3141533" lon="12.1967017"><ele>476.0</ele><time>2026-05-02T10:18:37.79Z</time></trkpt><trkpt lat="43.3142883" lon="12.1969933"><ele>476.0</ele><time>2026-05-02T10:18:39.786Z</time></trkpt><trkpt lat="43.31439" lon="12.1973267"><ele>476.0</ele><time>2026-05-02T10:18:41.788Z</time></trkpt><trkpt lat="43.3144567" lon="12.1976617"><ele>476.0</ele><time>2026-05-02T10:18:43.788Z</time></trkpt><trkpt lat="43.314515" lon="12.1980333"><ele>476.0</ele><time>2026-05-02T10:18:45.785Z</time></trkpt><trkpt lat="43.314575" lon="12.198375"><ele>478.0</ele><time>2026-05-02T10:18:47.788Z</time></trkpt><trkpt lat="43.3145983" lon="12.198685"><ele>480.0</ele><time>2026-05-02T10:18:49.788Z</time></trkpt><trkpt lat="43.314575" lon="12.199045"><ele>481.5</ele><time>2026-05-02T10:18:51.788Z</time></trkpt><trkpt lat="43.314525" lon="12.1994133"><ele>483.0</ele><time>2026-05-02T10:18:53.789Z</time></trkpt><trkpt lat="43.314435" lon="12.1996633"><ele>483.5</ele><time>2026-05-02T10:18:55.785Z</time></trkpt><trkpt lat="43.314285" lon="12.1998833"><ele>484.0</ele><time>2026-05-02T10:18:57.789Z</time></trkpt><trkpt lat="43.3141033" lon="12.2001383"><ele>484.0</ele><time>2026-05-02T10:18:59.789Z</time></trkpt><trkpt lat="43.3139067" lon="12.2003867"><ele>484.0</ele><time>2026-05-02T10:19:01.786Z</time></trkpt><trkpt lat="43.3137683" lon="12.2006433"><ele>494.5</ele><time>2026-05-02T10:19:03.786Z</time></trkpt><trkpt lat="43.3137167" lon="12.2009333"><ele>505.0</ele><time>2026-05-02T10:19:05.786Z</time></trkpt><trkpt lat="43.3137717" lon="12.2012467"><ele>494.5</ele><time>2026-05-02T10:19:07.789Z</time></trkpt><trkpt lat="43.3139067" lon="12.201535"><ele>484.0</ele><time>2026-05-02T10:19:09.79Z</time></trkpt><trkpt lat="43.3140867" lon="12.2017917"><ele>484.0</ele><time>2026-05-02T10:19:11.788Z</time></trkpt><trkpt lat="43.31421" lon="12.2020083"><ele>484.0</ele><time>2026-05-02T10:19:13.789Z</time></trkpt><trkpt lat="43.3142667" lon="12.2022067"><ele>484.0</ele><time>2026-05-02T10:19:15.785Z</time></trkpt><trkpt lat="43.3142183" lon="12.2024117"><ele>488.0</ele><time>2026-05-02T10:19:17.79Z</time></trkpt><trkpt lat="43.3141017" lon="12.2026867"><ele>492.0</ele><time>2026-05-02T10:19:19.789Z</time></trkpt><trkpt lat="43.314" lon="12.203015"><ele>502.5</ele><time>2026-05-02T10:19:21.79Z</time></trkpt><trkpt lat="43.3138617" lon="12.2032917"><ele>513.0</ele><time>2026-05-02T10:19:23.789Z</time></trkpt><trkpt lat="43.313675" lon="12.2035417"><ele>513.0</ele><time>2026-05-02T10:19:25.789Z</time></trkpt><trkpt lat="43.3134233" lon="12.2037267"><ele>513.0</ele><time>2026-05-02T10:19:27.788Z</time></trkpt><trkpt lat="43.3131367" lon="12.203915"><ele>516.0</ele><time>2026-05-02T10:19:29.786Z</time></trkpt><trkpt lat="43.312865" lon="12.2041317"><ele>519.0</ele><time>2026-05-02T10:19:31.786Z</time></trkpt><trkpt lat="43.3126317" lon="12.2043417"><ele>519.0</ele><time>2026-05-02T10:19:33.789Z</time></trkpt><trkpt lat="43.3124083" lon="12.2045683"><ele>519.0</ele><time>2026-05-02T10:19:35.786Z</time></trkpt><trkpt lat="43.3121967" lon="12.20482"><ele>522.0</ele><time>2026-05-02T10:19:37.786Z</time></trkpt><trkpt lat="43.3120217" lon="12.2051083"><ele>525.0</ele><time>2026-05-02T10:19:39.789Z</time></trkpt><trkpt lat="43.3118933" lon="12.20545"><ele>523.5</ele><time>2026-05-02T10:19:41.786Z</time></trkpt><trkpt lat="43.3118117" lon="12.20586"><ele>522.0</ele><time>2026-05-02T10:19:43.785Z</time></trkpt><trkpt lat="43.311745" lon="12.2062417"><ele>521.5</ele><time>2026-05-02T10:19:45.786Z</time></trkpt><trkpt lat="43.31172" lon="12.2066"><ele>521.0</ele><time>2026-05-02T10:19:47.786Z</time></trkpt><trkpt lat="43.3116883" lon="12.2069517"><ele>521.0</ele><time>2026-05-02T10:19:49.786Z</time></trkpt><trkpt lat="43.3115833" lon="12.207255"><ele>521.0</ele><time>2026-05-02T10:19:51.79Z</time></trkpt><trkpt lat="43.3114317" lon="12.2075283"><ele>527.3333333333333</ele><time>2026-05-02T10:19:53.789Z</time></trkpt><trkpt lat="43.31137" lon="12.207655"><ele>533.6666666666666</ele><time>2026-05-02T10:19:54.786Z</time></trkpt><trkpt lat="43.3113217" lon="12.2079817"><ele>540.0</ele><time>2026-05-02T10:19:56.787Z</time></trkpt><trkpt lat="43.3113033" lon="12.2083367"><ele>540.0</ele><time>2026-05-02T10:19:58.786Z</time></trkpt><trkpt lat="43.3112633" lon="12.2085783"><ele>540.0</ele><time>2026-05-02T10:20:00.785Z</time></trkpt><trkpt lat="43.3111617" lon="12.2087383"><ele>540.0</ele><time>2026-05-02T10:20:02.787Z</time></trkpt><trkpt lat="43.3110617" lon="12.2089133"><ele>538.6666666666666</ele><time>2026-05-02T10:20:04.786Z</time></trkpt><trkpt lat="43.3109933" lon="12.2091367"><ele>537.3333333333333</ele><time>2026-05-02T10:20:06.786Z</time></trkpt><trkpt lat="43.31097" lon="12.20944"><ele>536.0</ele><time>2026-05-02T10:20:08.787Z</time></trkpt><trkpt lat="43.3109717" lon="12.209745"><ele>537.0</ele><time>2026-05-02T10:20:10.786Z</time></trkpt><trkpt lat="43.310945" lon="12.2100067"><ele>538.0</ele><time>2026-05-02T10:20:12.785Z</time></trkpt><trkpt lat="43.31084" lon="12.2102583"><ele>539.0</ele><time>2026-05-02T10:20:14.787Z</time></trkpt><trkpt lat="43.3107667" lon="12.2103967"><ele>539.0</ele><time>2026-05-02T10:20:15.786Z</time></trkpt><trkpt lat="43.31068" lon="12.210535"><ele>539.0</ele><time>2026-05-02T10:20:16.786Z</time></trkpt><trkpt lat="43.3105817" lon="12.2106733"><ele>539.0</ele><time>2026-05-02T10:20:17.787Z</time></trkpt><trkpt lat="43.3104817" lon="12.2108067"><ele>539.0</ele><time>2026-05-02T10:20:18.786Z</time></trkpt><trkpt lat="43.3103833" lon="12.2109267"><ele>540.0</ele><time>2026-05-02T10:20:19.785Z</time></trkpt><trkpt lat="43.31029" lon="12.2110267"><ele>541.0</ele><time>2026-05-02T10:20:20.786Z</time></trkpt><trkpt lat="43.310205" lon="12.211095"><ele>542.0</ele><time>2026-05-02T10:20:21.786Z</time></trkpt><trkpt lat="43.3101233" lon="12.21114"><ele>543.0</ele><time>2026-05-02T10:20:22.787Z</time></trkpt><trkpt lat="43.3100367" lon="12.2111583"><ele>544.0</ele><time>2026-05-02T10:20:23.786Z</time></trkpt><trkpt lat="43.3099483" lon="12.2111467"><ele>544.0</ele><time>2026-05-02T10:20:24.789Z</time></trkpt><trkpt lat="43.3098483" lon="12.2110933"><ele>544.0</ele><time>2026-05-02T10:20:25.79Z</time></trkpt><trkpt lat="43.3097383" lon="12.2110633"><ele>544.0</ele><time>2026-05-02T10:20:26.786Z</time></trkpt><trkpt lat="43.30963" lon="12.2110567"><ele>544.0</ele><time>2026-05-02T10:20:27.785Z</time></trkpt><trkpt lat="43.3095267" lon="12.2110717"><ele>544.0</ele><time>2026-05-02T10:20:28.786Z</time></trkpt><trkpt lat="43.3094283" lon="12.2111133"><ele>542.25</ele><time>2026-05-02T10:20:29.787Z</time></trkpt><trkpt lat="43.309335" lon="12.21117"><ele>540.5</ele><time>2026-05-02T10:20:30.787Z</time></trkpt><trkpt lat="43.3092383" lon="12.21125"><ele>538.75</ele><time>2026-05-02T10:20:31.786Z</time></trkpt><trkpt lat="43.309135" lon="12.2113367"><ele>537.0</ele><time>2026-05-02T10:20:32.786Z</time></trkpt><trkpt lat="43.30903" lon="12.21142"><ele>534.25</ele><time>2026-05-02T10:20:33.789Z</time></trkpt><trkpt lat="43.308905" lon="12.2114867"><ele>531.5</ele><time>2026-05-02T10:20:34.791Z</time></trkpt><trkpt lat="43.3087617" lon="12.211545"><ele>528.75</ele><time>2026-05-02T10:20:35.789Z</time></trkpt><trkpt lat="43.3086233" lon="12.2115933"><ele>526.0</ele><time>2026-05-02T10:20:36.789Z</time></trkpt><trkpt lat="43.3084967" lon="12.21164"><ele>526.0</ele><time>2026-05-02T10:20:37.79Z</time></trkpt><trkpt lat="43.3083883" lon="12.21169"><ele>526.0</ele><time>2026-05-02T10:20:38.789Z</time></trkpt><trkpt lat="43.3083033" lon="12.2117533"><ele>526.0</ele><time>2026-05-02T10:20:39.79Z</time></trkpt><trkpt lat="43.308225" lon="12.2118333"><ele>526.0</ele><time>2026-05-02T10:20:40.792Z</time></trkpt><trkpt lat="43.3081533" lon="12.2119433"><ele>526.0</ele><time>2026-05-02T10:20:41.789Z</time></trkpt><trkpt lat="43.3080883" lon="12.2120833"><ele>523.0</ele><time>2026-05-02T10:20:42.789Z</time></trkpt><trkpt lat="43.3080317" lon="12.2122333"><ele>520.0</ele><time>2026-05-02T10:20:43.789Z</time></trkpt><trkpt lat="43.3079933" lon="12.2123683"><ele>517.0</ele><time>2026-05-02T10:20:44.789Z</time></trkpt><trkpt lat="43.3079717" lon="12.2124917"><ele>514.0</ele><time>2026-05-02T10:20:45.786Z</time></trkpt><trkpt lat="43.308" lon="12.212745"><ele>514.0</ele><time>2026-05-02T10:20:47.786Z</time></trkpt><trkpt lat="43.308035" lon="12.212875"><ele>514.0</ele><time>2026-05-02T10:20:48.79Z</time></trkpt><trkpt lat="43.308065" lon="12.21301"><ele>514.0</ele><time>2026-05-02T10:20:49.786Z</time></trkpt><trkpt lat="43.3080717" lon="12.2131533"><ele>514.0</ele><time>2026-05-02T10:20:50.787Z</time></trkpt><trkpt lat="43.308075" lon="12.2133117"><ele>514.0</ele><time>2026-05-02T10:20:51.787Z</time></trkpt><trkpt lat="43.3080867" lon="12.2134717"><ele>515.0</ele><time>2026-05-02T10:20:52.788Z</time></trkpt><trkpt lat="43.3081233" lon="12.2136333"><ele>516.0</ele><time>2026-05-02T10:20:53.79Z</time></trkpt><trkpt lat="43.30817" lon="12.213785"><ele>517.0</ele><time>2026-05-02T10:20:54.79Z</time></trkpt><trkpt lat="43.3082167" lon="12.2139183"><ele>518.0</ele><time>2026-05-02T10:20:55.789Z</time></trkpt><trkpt lat="43.3082467" lon="12.2140417"><ele>519.0</ele><time>2026-05-02T10:20:56.787Z</time></trkpt><trkpt lat="43.30826" lon="12.2141683"><ele>519.0</ele><time>2026-05-02T10:20:57.787Z</time></trkpt><trkpt lat="43.3082533" lon="12.21432"><ele>519.0</ele><time>2026-05-02T10:20:58.787Z</time></trkpt><trkpt lat="43.3082333" lon="12.2144817"><ele>519.0</ele><time>2026-05-02T10:20:59.788Z</time></trkpt><trkpt lat="43.3082083" lon="12.214635"><ele>519.0</ele><time>2026-05-02T10:21:00.787Z</time></trkpt><trkpt lat="43.3081817" lon="12.21477"><ele>519.0</ele><time>2026-05-02T10:21:01.788Z</time></trkpt><trkpt lat="43.30814" lon="12.2148833"><ele>517.1666666666666</ele><time>2026-05-02T10:21:02.787Z</time></trkpt><trkpt lat="43.3080883" lon="12.21498"><ele>515.3333333333334</ele><time>2026-05-02T10:21:03.789Z</time></trkpt><trkpt lat="43.308025" lon="12.2150617"><ele>513.5</ele><time>2026-05-02T10:21:04.789Z</time></trkpt><trkpt lat="43.30794" lon="12.21511"><ele>511.6666666666667</ele><time>2026-05-02T10:21:05.79Z</time></trkpt><trkpt lat="43.307855" lon="12.2151217"><ele>509.83333333333337</ele><time>2026-05-02T10:21:06.79Z</time></trkpt><trkpt lat="43.307765" lon="12.2151067"><ele>508.0</ele><time>2026-05-02T10:21:07.789Z</time></trkpt><trkpt lat="43.3076667" lon="12.2150583"><ele>507.75</ele><time>2026-05-02T10:21:08.789Z</time></trkpt><trkpt lat="43.30756" lon="12.2149783"><ele>507.5</ele><time>2026-05-02T10:21:09.789Z</time></trkpt><trkpt lat="43.3074667" lon="12.2148917"><ele>507.25</ele><time>2026-05-02T10:21:10.79Z</time></trkpt><trkpt lat="43.3073833" lon="12.2147917"><ele>507.0</ele><time>2026-05-02T10:21:11.789Z</time></trkpt><trkpt lat="43.307315" lon="12.2146767"><ele>509.0</ele><time>2026-05-02T10:21:12.788Z</time></trkpt><trkpt lat="43.3072617" lon="12.2145433"><ele>511.0</ele><time>2026-05-02T10:21:13.789Z</time></trkpt><trkpt lat="43.3072117" lon="12.2143917"><ele>513.0</ele><time>2026-05-02T10:21:14.789Z</time></trkpt><trkpt lat="43.3071483" lon="12.2142383"><ele>515.0</ele><time>2026-05-02T10:21:15.789Z</time></trkpt><trkpt lat="43.307075" lon="12.2141017"><ele>509.6</ele><time>2026-05-02T10:21:16.789Z</time></trkpt><trkpt lat="43.3070017" lon="12.2139767"><ele>504.2</ele><time>2026-05-02T10:21:17.79Z</time></trkpt><trkpt lat="43.3069433" lon="12.2138583"><ele>498.79999999999995</ele><time>2026-05-02T10:21:18.789Z</time></trkpt><trkpt lat="43.3069083" lon="12.21375"><ele>493.4</ele><time>2026-05-02T10:21:19.789Z</time></trkpt><trkpt lat="43.3068817" lon="12.2136617"><ele>488.0</ele><time>2026-05-02T10:21:20.79Z</time></trkpt><trkpt lat="43.3068167" lon="12.2135483"><ele>488.0</ele><time>2026-05-02T10:21:22.79Z</time></trkpt><trkpt lat="43.3067183" lon="12.21356"><ele>487.99999999999994</ele><time>2026-05-02T10:21:24.79Z</time></trkpt><trkpt lat="43.306665" lon="12.2136283"><ele>487.99999999999994</ele><time>2026-05-02T10:21:25.789Z</time></trkpt><trkpt lat="43.3066083" lon="12.2138067"><ele>488.0</ele><time>2026-05-02T10:21:27.786Z</time></trkpt><trkpt lat="43.306625" lon="12.2139067"><ele>488.0</ele><time>2026-05-02T10:21:28.789Z</time></trkpt><trkpt lat="43.3066683" lon="12.2140033"><ele>489.0</ele><time>2026-05-02T10:21:29.788Z</time></trkpt><trkpt lat="43.3067233" lon="12.2141183"><ele>489.99999999999994</ele><time>2026-05-02T10:21:30.787Z</time></trkpt><trkpt lat="43.3067633" lon="12.2142467"><ele>490.99999999999994</ele><time>2026-05-02T10:21:31.786Z</time></trkpt><trkpt lat="43.3067833" lon="12.2143983"><ele>492.0</ele><time>2026-05-02T10:21:32.787Z</time></trkpt><trkpt lat="43.30679" lon="12.2145517"><ele>493.0</ele><time>2026-05-02T10:21:33.789Z</time></trkpt><trkpt lat="43.3068083" lon="12.2147083"><ele>489.75</ele><time>2026-05-02T10:21:34.79Z</time></trkpt><trkpt lat="43.306855" lon="12.2148767"><ele>486.5</ele><time>2026-05-02T10:21:35.788Z</time></trkpt><trkpt lat="43.3069217" lon="12.2150517"><ele>483.25</ele><time>2026-05-02T10:21:36.789Z</time></trkpt><trkpt lat="43.3069983" lon="12.215235"><ele>480.0</ele><time>2026-05-02T10:21:37.79Z</time></trkpt><trkpt lat="43.3070683" lon="12.2154133"><ele>480.0</ele><time>2026-05-02T10:21:38.788Z</time></trkpt><trkpt lat="43.3071233" lon="12.2155917"><ele>480.0</ele><time>2026-05-02T10:21:39.789Z</time></trkpt><trkpt lat="43.3071667" lon="12.2157667"><ele>480.0</ele><time>2026-05-02T10:21:40.788Z</time></trkpt><trkpt lat="43.3072067" lon="12.2159333"><ele>480.0</ele><time>2026-05-02T10:21:41.789Z</time></trkpt><trkpt lat="43.3072583" lon="12.2160917"><ele>479.25</ele><time>2026-05-02T10:21:42.789Z</time></trkpt><trkpt lat="43.3073267" lon="12.216235"><ele>478.5</ele><time>2026-05-02T10:21:43.788Z</time></trkpt><trkpt lat="43.3074167" lon="12.2163567"><ele>477.75</ele><time>2026-05-02T10:21:44.788Z</time></trkpt><trkpt lat="43.3075183" lon="12.2164533"><ele>477.0</ele><time>2026-05-02T10:21:45.786Z</time></trkpt><trkpt lat="43.307625" lon="12.2165183"><ele>477.0</ele><time>2026-05-02T10:21:46.788Z</time></trkpt><trkpt lat="43.307725" lon="12.216565"><ele>477.00000000000006</ele><time>2026-05-02T10:21:47.788Z</time></trkpt><trkpt lat="43.307805" lon="12.2166"><ele>477.00000000000006</ele><time>2026-05-02T10:21:48.789Z</time></trkpt><trkpt lat="43.3078683" lon="12.21664"><ele>477.0</ele><time>2026-05-02T10:21:49.789Z</time></trkpt><trkpt lat="43.3079183" lon="12.2167617"><ele>477.0</ele><time>2026-05-02T10:21:51.79Z</time></trkpt><trkpt lat="43.3078467" lon="12.21688"><ele>477.0</ele><time>2026-05-02T10:21:53.788Z</time></trkpt><trkpt lat="43.307775" lon="12.21692"><ele>477.00000000000006</ele><time>2026-05-02T10:21:54.79Z</time></trkpt><trkpt lat="43.3076933" lon="12.216935"><ele>477.00000000000006</ele><time>2026-05-02T10:21:55.789Z</time></trkpt><trkpt lat="43.3076033" lon="12.2169183"><ele>477.0</ele><time>2026-05-02T10:21:56.786Z</time></trkpt><trkpt lat="43.307505" lon="12.216875"><ele>477.0</ele><time>2026-05-02T10:21:57.787Z</time></trkpt><trkpt lat="43.3074117" lon="12.2168283"><ele>477.0</ele><time>2026-05-02T10:21:58.786Z</time></trkpt><trkpt lat="43.3073267" lon="12.2168"><ele>477.00000000000006</ele><time>2026-05-02T10:21:59.786Z</time></trkpt><trkpt lat="43.3072517" lon="12.2167967"><ele>477.00000000000006</ele><time>2026-05-02T10:22:00.786Z</time></trkpt><trkpt lat="43.3071733" lon="12.2168267"><ele>477.0</ele><time>2026-05-02T10:22:01.785Z</time></trkpt><trkpt lat="43.3070917" lon="12.2168983"><ele>477.0</ele><time>2026-05-02T10:22:02.785Z</time></trkpt><trkpt lat="43.3070117" lon="12.2170067"><ele>474.20000000000005</ele><time>2026-05-02T10:22:03.79Z</time></trkpt><trkpt lat="43.306945" lon="12.2171067"><ele>471.40000000000003</ele><time>2026-05-02T10:22:04.791Z</time></trkpt><trkpt lat="43.3068917" lon="12.2171917"><ele>468.59999999999997</ele><time>2026-05-02T10:22:05.789Z</time></trkpt><trkpt lat="43.306815" lon="12.2173067"><ele>465.79999999999995</ele><time>2026-05-02T10:22:07.789Z</time></trkpt><trkpt lat="43.30674" lon="12.21742"><ele>463.0</ele><time>2026-05-02T10:22:09.79Z</time></trkpt><trkpt lat="43.3066817" lon="12.2175"><ele>461.75</ele><time>2026-05-02T10:22:10.79Z</time></trkpt><trkpt lat="43.3066033" lon="12.2176033"><ele>460.5</ele><time>2026-05-02T10:22:11.789Z</time></trkpt><trkpt lat="43.306505" lon="12.2177217"><ele>459.25</ele><time>2026-05-02T10:22:12.788Z</time></trkpt><trkpt lat="43.3064133" lon="12.21784"><ele>458.0</ele><time>2026-05-02T10:22:13.79Z</time></trkpt><trkpt lat="43.306325" lon="12.217955"><ele>456.59999999999997</ele><time>2026-05-02T10:22:14.788Z</time></trkpt><trkpt lat="43.306245" lon="12.218075"><ele>455.19999999999993</ele><time>2026-05-02T10:22:15.789Z</time></trkpt><trkpt lat="43.3061767" lon="12.2181967"><ele>453.8</ele><time>2026-05-02T10:22:16.79Z</time></trkpt><trkpt lat="43.30612" lon="12.2183267"><ele>452.4</ele><time>2026-05-02T10:22:17.789Z</time></trkpt><trkpt lat="43.3060717" lon="12.21846"><ele>451.0</ele><time>2026-05-02T10:22:18.789Z</time></trkpt><trkpt lat="43.3060333" lon="12.2185917"><ele>450.0</ele><time>2026-05-02T10:22:19.788Z</time></trkpt><trkpt lat="43.30599" lon="12.2187133"><ele>449.0</ele><time>2026-05-02T10:22:20.789Z</time></trkpt><trkpt lat="43.3059433" lon="12.218825"><ele>448.0</ele><time>2026-05-02T10:22:21.789Z</time></trkpt><trkpt lat="43.3058867" lon="12.2189167"><ele>447.0</ele><time>2026-05-02T10:22:22.789Z</time></trkpt><trkpt lat="43.3058033" lon="12.218985"><ele>446.0</ele><time>2026-05-02T10:22:23.789Z</time></trkpt><trkpt lat="43.3056783" lon="12.2190517"><ele>441.75</ele><time>2026-05-02T10:22:24.789Z</time></trkpt><trkpt lat="43.30555" lon="12.2191267"><ele>437.5</ele><time>2026-05-02T10:22:25.789Z</time></trkpt><trkpt lat="43.3054283" lon="12.2192067"><ele>433.25</ele><time>2026-05-02T10:22:26.786Z</time></trkpt><trkpt lat="43.30531" lon="12.2193017"><ele>429.0</ele><time>2026-05-02T10:22:27.785Z</time></trkpt><trkpt lat="43.3052017" lon="12.219415"><ele>429.0</ele><time>2026-05-02T10:22:28.786Z</time></trkpt><trkpt lat="43.3051117" lon="12.219535"><ele>429.0</ele><time>2026-05-02T10:22:29.786Z</time></trkpt><trkpt lat="43.305045" lon="12.219655"><ele>429.0</ele><time>2026-05-02T10:22:30.787Z</time></trkpt><trkpt lat="43.305" lon="12.2197733"><ele>429.0</ele><time>2026-05-02T10:22:31.79Z</time></trkpt><trkpt lat="43.3049783" lon="12.2199"><ele>429.0</ele><time>2026-05-02T10:22:32.786Z</time></trkpt><trkpt lat="43.304975" lon="12.2200433"><ele>429.0</ele><time>2026-05-02T10:22:33.79Z</time></trkpt><trkpt lat="43.3049917" lon="12.2202017"><ele>429.0</ele><time>2026-05-02T10:22:34.789Z</time></trkpt><trkpt lat="43.3050217" lon="12.22037"><ele>429.0</ele><time>2026-05-02T10:22:35.788Z</time></trkpt><trkpt lat="43.3050633" lon="12.2205283"><ele>429.0</ele><time>2026-05-02T10:22:36.79Z</time></trkpt><trkpt lat="43.305105" lon="12.2206717"><ele>427.6</ele><time>2026-05-02T10:22:37.789Z</time></trkpt><trkpt lat="43.3051533" lon="12.2208"><ele>426.2</ele><time>2026-05-02T10:22:38.79Z</time></trkpt><trkpt lat="43.3052133" lon="12.2209117"><ele>424.8</ele><time>2026-05-02T10:22:39.789Z</time></trkpt><trkpt lat="43.3052883" lon="12.2210133"><ele>423.40000000000003</ele><time>2026-05-02T10:22:40.789Z</time></trkpt><trkpt lat="43.3053667" lon="12.221095"><ele>422.0</ele><time>2026-05-02T10:22:41.789Z</time></trkpt><trkpt lat="43.3054467" lon="12.2211467"><ele>422.0</ele><time>2026-05-02T10:22:42.79Z</time></trkpt><trkpt lat="43.30553" lon="12.2211717"><ele>422.0</ele><time>2026-05-02T10:22:43.789Z</time></trkpt><trkpt lat="43.305605" lon="12.2211817"><ele>422.0</ele><time>2026-05-02T10:22:44.789Z</time></trkpt><trkpt lat="43.30567" lon="12.2211983"><ele>422.0</ele><time>2026-05-02T10:22:45.79Z</time></trkpt><trkpt lat="43.30575" lon="12.2213067"><ele>422.0</ele><time>2026-05-02T10:22:47.789Z</time></trkpt><trkpt lat="43.30577" lon="12.22149"><ele>419.0</ele><time>2026-05-02T10:22:49.79Z</time></trkpt><trkpt lat="43.3057667" lon="12.2216333"><ele>416.0</ele><time>2026-05-02T10:22:50.789Z</time></trkpt><trkpt lat="43.3057567" lon="12.2218267"><ele>413.0</ele><time>2026-05-02T10:22:51.789Z</time></trkpt><trkpt lat="43.3057533" lon="12.222005"><ele>410.0</ele><time>2026-05-02T10:22:52.789Z</time></trkpt><trkpt lat="43.30576" lon="12.2221883"><ele>408.75</ele><time>2026-05-02T10:22:53.789Z</time></trkpt><trkpt lat="43.30579" lon="12.222375"><ele>407.5</ele><time>2026-05-02T10:22:54.789Z</time></trkpt><trkpt lat="43.305835" lon="12.222555"><ele>406.25</ele><time>2026-05-02T10:22:55.789Z</time></trkpt><trkpt lat="43.3058767" lon="12.222715"><ele>405.0</ele><time>2026-05-02T10:22:56.788Z</time></trkpt><trkpt lat="43.3059017" lon="12.2228617"><ele>405.0</ele><time>2026-05-02T10:22:57.787Z</time></trkpt><trkpt lat="43.30591" lon="12.2229867"><ele>405.0</ele><time>2026-05-02T10:22:58.787Z</time></trkpt><trkpt lat="43.3058867" lon="12.2230917"><ele>405.0</ele><time>2026-05-02T10:22:59.787Z</time></trkpt><trkpt lat="43.3058467" lon="12.223175"><ele>405.0</ele><time>2026-05-02T10:23:00.786Z</time></trkpt><trkpt lat="43.3057783" lon="12.2232633"><ele>405.0</ele><time>2026-05-02T10:23:01.786Z</time></trkpt><trkpt lat="43.3056833" lon="12.2233667"><ele>404.0</ele><time>2026-05-02T10:23:02.786Z</time></trkpt><trkpt lat="43.3055917" lon="12.22351"><ele>403.0</ele><time>2026-05-02T10:23:03.79Z</time></trkpt><trkpt lat="43.305505" lon="12.2236667"><ele>402.0</ele><time>2026-05-02T10:23:04.79Z</time></trkpt><trkpt lat="43.3054317" lon="12.2238183"><ele>401.0</ele><time>2026-05-02T10:23:05.79Z</time></trkpt><trkpt lat="43.3053567" lon="12.223935"><ele>396.75</ele><time>2026-05-02T10:23:06.789Z</time></trkpt><trkpt lat="43.305275" lon="12.2240133"><ele>392.5</ele><time>2026-05-02T10:23:07.789Z</time></trkpt><trkpt lat="43.3051783" lon="12.22406"><ele>388.25</ele><time>2026-05-02T10:23:08.789Z</time></trkpt><trkpt lat="43.30506" lon="12.2240817"><ele>384.0</ele><time>2026-05-02T10:23:09.789Z</time></trkpt><trkpt lat="43.30493" lon="12.2240833"><ele>384.0</ele><time>2026-05-02T10:23:10.789Z</time></trkpt><trkpt lat="43.3047883" lon="12.2240633"><ele>384.0</ele><time>2026-05-02T10:23:11.789Z</time></trkpt><trkpt lat="43.3046467" lon="12.224025"><ele>384.0</ele><time>2026-05-02T10:23:12.789Z</time></trkpt><trkpt lat="43.3045117" lon="12.2239833"><ele>384.0</ele><time>2026-05-02T10:23:13.789Z</time></trkpt><trkpt lat="43.304395" lon="12.2239383"><ele>383.2</ele><time>2026-05-02T10:23:14.79Z</time></trkpt><trkpt lat="43.3043017" lon="12.223885"><ele>382.4</ele><time>2026-05-02T10:23:15.789Z</time></trkpt><trkpt lat="43.3042233" lon="12.2238117"><ele>381.6</ele><time>2026-05-02T10:23:16.789Z</time></trkpt><trkpt lat="43.3041567" lon="12.22371"><ele>380.8</ele><time>2026-05-02T10:23:17.789Z</time></trkpt><trkpt lat="43.3041167" lon="12.2236017"><ele>380.0</ele><time>2026-05-02T10:23:18.789Z</time></trkpt><trkpt lat="43.3040917" lon="12.2234783"><ele>380.0</ele><time>2026-05-02T10:23:19.789Z</time></trkpt><trkpt lat="43.3041033" lon="12.2233433"><ele>380.0</ele><time>2026-05-02T10:23:20.79Z</time></trkpt><trkpt lat="43.3041367" lon="12.223215"><ele>380.0</ele><time>2026-05-02T10:23:21.789Z</time></trkpt><trkpt lat="43.304185" lon="12.2230967"><ele>380.0</ele><time>2026-05-02T10:23:22.789Z</time></trkpt><trkpt lat="43.304225" lon="12.222995"><ele>380.0</ele><time>2026-05-02T10:23:23.789Z</time></trkpt><trkpt lat="43.304245" lon="12.2228317"><ele>378.33333333333337</ele><time>2026-05-02T10:23:25.79Z</time></trkpt><trkpt lat="43.3041833" lon="12.2227483"><ele>376.6666666666667</ele><time>2026-05-02T10:23:27.786Z</time></trkpt><trkpt lat="43.3040767" lon="12.2227883"><ele>375.0</ele><time>2026-05-02T10:23:29.787Z</time></trkpt><trkpt lat="43.3058867" lon="12.2230917"><ele>379.6</ele><time>2026-05-02T10:22:59.787Z</time></trkpt><trkpt lat="43.3058467" lon="12.223175"><ele>384.2</ele><time>2026-05-02T10:23:00.786Z</time></trkpt><trkpt lat="43.3057783" lon="12.2232633"><ele>388.79999999999995</ele><time>2026-05-02T10:23:01.786Z</time></trkpt><trkpt lat="43.3056833" lon="12.2233667"><ele>393.4</ele><time>2026-05-02T10:23:02.786Z</time></trkpt><trkpt lat="43.3055917" lon="12.22351"><ele>398.0</ele><time>2026-05-02T10:23:03.79Z</time></trkpt><trkpt lat="43.305505" lon="12.2236667"><ele>398.59999999999997</ele><time>2026-05-02T10:23:04.79Z</time></trkpt><trkpt lat="43.3054317" lon="12.2238183"><ele>399.2</ele><time>2026-05-02T10:23:05.79Z</time></trkpt><trkpt lat="43.3053567" lon="12.223935"><ele>399.8</ele><time>2026-05-02T10:23:06.789Z</time></trkpt><trkpt lat="43.305275" lon="12.2240133"><ele>400.4</ele><time>2026-05-02T10:23:07.789Z</time></trkpt><trkpt lat="43.3051783" lon="12.22406"><ele>401.0</ele><time>2026-05-02T10:23:08.789Z</time></trkpt><trkpt lat="43.30506" lon="12.2240817"><ele>396.75</ele><time>2026-05-02T10:23:09.789Z</time></trkpt><trkpt lat="43.30493" lon="12.2240833"><ele>392.5</ele><time>2026-05-02T10:23:10.789Z</time></trkpt><trkpt lat="43.3047883" lon="12.2240633"><ele>388.25</ele><time>2026-05-02T10:23:11.789Z</time></trkpt><trkpt lat="43.3046467" lon="12.224025"><ele>384.0</ele><time>2026-05-02T10:23:12.789Z</time></trkpt><trkpt lat="43.3045117" lon="12.2239833"><ele>383.2</ele><time>2026-05-02T10:23:13.789Z</time></trkpt><trkpt lat="43.304395" lon="12.2239383"><ele>382.4</ele><time>2026-05-02T10:23:14.79Z</time></trkpt><trkpt lat="43.3043017" lon="12.223885"><ele>381.6</ele><time>2026-05-02T10:23:15.789Z</time></trkpt><trkpt lat="43.3042233" lon="12.2238117"><ele>380.8</ele><time>2026-05-02T10:23:16.789Z</time></trkpt><trkpt lat="43.3041567" lon="12.22371"><ele>380.0</ele><time>2026-05-02T10:23:17.789Z</time></trkpt><trkpt lat="43.3041167" lon="12.2236017"><ele>380.0</ele><time>2026-05-02T10:23:18.789Z</time></trkpt><trkpt lat="43.3040917" lon="12.2234783"><ele>380.0</ele><time>2026-05-02T10:23:19.789Z</time></trkpt><trkpt lat="43.3041033" lon="12.2233433"><ele>380.0</ele><time>2026-05-02T10:23:20.79Z</time></trkpt><trkpt lat="43.3041367" lon="12.223215"><ele>380.0</ele><time>2026-05-02T10:23:21.789Z</time></trkpt><trkpt lat="43.304185" lon="12.2230967"><ele>380.0</ele><time>2026-05-02T10:23:22.789Z</time></trkpt><trkpt lat="43.304225" lon="12.222995"><ele>379.0</ele><time>2026-05-02T10:23:23.789Z</time></trkpt><trkpt lat="43.304245" lon="12.2228317"><ele>378.0</ele><time>2026-05-02T10:23:25.79Z</time></trkpt><trkpt lat="43.3041833" lon="12.2227483"><ele>377.0</ele><time>2026-05-02T10:23:27.786Z</time></trkpt><trkpt lat="43.3040767" lon="12.2227883"><ele>376.0</ele><time>2026-05-02T10:23:29.787Z</time></trkpt><trkpt lat="43.3040217" lon="12.2228467"><ele>375.0</ele><time>2026-05-02T10:23:30.79Z</time></trkpt><trkpt lat="43.30394" lon="12.2229833"><ele>367.3333333333333</ele><time>2026-05-02T10:23:31.787Z</time></trkpt><trkpt lat="43.3038467" lon="12.223185"><ele>359.66666666666663</ele><time>2026-05-02T10:23:32.788Z</time></trkpt><trkpt lat="43.3037867" lon="12.2233967"><ele>352.0</ele><time>2026-05-02T10:23:33.786Z</time></trkpt><trkpt lat="43.3037367" lon="12.2236167"><ele>352.0</ele><time>2026-05-02T10:23:34.789Z</time></trkpt><trkpt lat="43.3036917" lon="12.2238117"><ele>352.0</ele><time>2026-05-02T10:23:35.789Z</time></trkpt><trkpt lat="43.3036317" lon="12.2239983"><ele>352.0</ele><time>2026-05-02T10:23:36.79Z</time></trkpt><trkpt lat="43.303565" lon="12.22416"><ele>352.0</ele><time>2026-05-02T10:23:37.789Z</time></trkpt><trkpt lat="43.303505" lon="12.2243083"><ele>353.0</ele><time>2026-05-02T10:23:38.79Z</time></trkpt><trkpt lat="43.303475" lon="12.2244633"><ele>354.0</ele><time>2026-05-02T10:23:39.79Z</time></trkpt><trkpt lat="43.30346" lon="12.2246117"><ele>355.0</ele><time>2026-05-02T10:23:40.789Z</time></trkpt><trkpt lat="43.3034567" lon="12.2247483"><ele>356.0</ele><time>2026-05-02T10:23:41.79Z</time></trkpt><trkpt lat="43.3035883" lon="12.2248517"><ele>356.0</ele><time>2026-05-02T10:23:43.181Z</time></trkpt><trkpt lat="43.3034783" lon="12.224935"><ele>356.0</ele><time>2026-05-02T10:23:44.286Z</time></trkpt><trkpt lat="43.3033367" lon="12.2249467"><ele>356.0</ele><time>2026-05-02T10:23:45.786Z</time></trkpt><trkpt lat="43.3032517" lon="12.2249217"><ele>356.0</ele><time>2026-05-02T10:23:46.786Z</time></trkpt><trkpt lat="43.3031733" lon="12.2248667"><ele>356.0</ele><time>2026-05-02T10:23:47.787Z</time></trkpt><trkpt lat="43.3031083" lon="12.2247783"><ele>356.4</ele><time>2026-05-02T10:23:48.786Z</time></trkpt><trkpt lat="43.3030633" lon="12.22467"><ele>356.8</ele><time>2026-05-02T10:23:49.787Z</time></trkpt><trkpt lat="43.3030317" lon="12.2245567"><ele>357.2</ele><time>2026-05-02T10:23:50.786Z</time></trkpt><trkpt lat="43.303025" lon="12.22443"><ele>357.59999999999997</ele><time>2026-05-02T10:23:51.786Z</time></trkpt><trkpt lat="43.3030617" lon="12.2243017"><ele>358.0</ele><time>2026-05-02T10:23:52.786Z</time></trkpt><trkpt lat="43.3031033" lon="12.224195"><ele>358.0</ele><time>2026-05-02T10:23:53.787Z</time></trkpt><trkpt lat="43.3031333" lon="12.2240983"><ele>358.0</ele><time>2026-05-02T10:23:54.786Z</time></trkpt><trkpt lat="43.30312" lon="12.2239717"><ele>358.0</ele><time>2026-05-02T10:23:56.786Z</time></trkpt><trkpt lat="43.3029933" lon="12.2240467"><ele>358.0</ele><time>2026-05-02T10:23:58.787Z</time></trkpt><trkpt lat="43.3029283" lon="12.2241317"><ele>358.0</ele><time>2026-05-02T10:23:59.786Z</time></trkpt><trkpt lat="43.302865" lon="12.2242483"><ele>354.0</ele><time>2026-05-02T10:24:00.787Z</time></trkpt><trkpt lat="43.3027933" lon="12.2243967"><ele>350.0</ele><time>2026-05-02T10:24:01.787Z</time></trkpt><trkpt lat="43.3027117" lon="12.2245567"><ele>346.0</ele><time>2026-05-02T10:24:02.786Z</time></trkpt><trkpt lat="43.302625" lon="12.22471"><ele>342.0</ele><time>2026-05-02T10:24:03.786Z</time></trkpt><trkpt lat="43.3025317" lon="12.2248433"><ele>342.0</ele><time>2026-05-02T10:24:04.786Z</time></trkpt><trkpt lat="43.30242" lon="12.2249517"><ele>342.0</ele><time>2026-05-02T10:24:05.786Z</time></trkpt><trkpt lat="43.3022917" lon="12.22504"><ele>342.0</ele><time>2026-05-02T10:24:06.786Z</time></trkpt><trkpt lat="43.30216" lon="12.2251167"><ele>342.0</ele><time>2026-05-02T10:24:07.787Z</time></trkpt><trkpt lat="43.3020367" lon="12.2251917"><ele>338.8</ele><time>2026-05-02T10:24:08.786Z</time></trkpt><trkpt lat="43.3019317" lon="12.2252667"><ele>335.6</ele><time>2026-05-02T10:24:09.787Z</time></trkpt><trkpt lat="43.30184" lon="12.2253433"><ele>332.40000000000003</ele><time>2026-05-02T10:24:10.787Z</time></trkpt><trkpt lat="43.3017733" lon="12.2254233"><ele>329.20000000000005</ele><time>2026-05-02T10:24:11.788Z</time></trkpt><trkpt lat="43.3017283" lon="12.2255133"><ele>326.0</ele><time>2026-05-02T10:24:12.788Z</time></trkpt><trkpt lat="43.3017083" lon="12.225605"><ele>325.6</ele><time>2026-05-02T10:24:13.787Z</time></trkpt><trkpt lat="43.3017183" lon="12.225695"><ele>325.20000000000005</ele><time>2026-05-02T10:24:14.786Z</time></trkpt><trkpt lat="43.3017517" lon="12.2257767"><ele>324.79999999999995</ele><time>2026-05-02T10:24:15.786Z</time></trkpt><trkpt lat="43.30183" lon="12.2258383"><ele>324.4</ele><time>2026-05-02T10:24:16.788Z</time></trkpt><trkpt lat="43.3019417" lon="12.2258917"><ele>324.0</ele><time>2026-05-02T10:24:17.787Z</time></trkpt><trkpt lat="43.3020917" lon="12.225945"><ele>324.0</ele><time>2026-05-02T10:24:18.786Z</time></trkpt><trkpt lat="43.3022183" lon="12.226025"><ele>324.0</ele><time>2026-05-02T10:24:19.786Z</time></trkpt><trkpt lat="43.30233" lon="12.2261317"><ele>324.0</ele><time>2026-05-02T10:24:20.79Z</time></trkpt><trkpt lat="43.3024167" lon="12.2262517"><ele>324.0</ele><time>2026-05-02T10:24:21.786Z</time></trkpt><trkpt lat="43.3024783" lon="12.2263833"><ele>323.2</ele><time>2026-05-02T10:24:22.787Z</time></trkpt><trkpt lat="43.3025067" lon="12.2265267"><ele>322.4</ele><time>2026-05-02T10:24:23.786Z</time></trkpt><trkpt lat="43.3025117" lon="12.2266733"><ele>321.6</ele><time>2026-05-02T10:24:24.786Z</time></trkpt><trkpt lat="43.30252" lon="12.2268183"><ele>320.8</ele><time>2026-05-02T10:24:25.786Z</time></trkpt><trkpt lat="43.3025483" lon="12.2269633"><ele>320.0</ele><time>2026-05-02T10:24:26.788Z</time></trkpt><trkpt lat="43.3026017" lon="12.2270917"><ele>320.0</ele><time>2026-05-02T10:24:27.786Z</time></trkpt><trkpt lat="43.3026817" lon="12.2272117"><ele>320.0</ele><time>2026-05-02T10:24:28.785Z</time></trkpt><trkpt lat="43.3027833" lon="12.2273283"><ele>320.0</ele><time>2026-05-02T10:24:29.787Z</time></trkpt><trkpt lat="43.3028967" lon="12.22745"><ele>320.0</ele><time>2026-05-02T10:24:30.787Z</time></trkpt><trkpt lat="43.3030133" lon="12.2275783"><ele>318.75</ele><time>2026-05-02T10:24:31.786Z</time></trkpt><trkpt lat="43.3031333" lon="12.2276983"><ele>317.5</ele><time>2026-05-02T10:24:32.787Z</time></trkpt><trkpt lat="43.3032583" lon="12.2278033"><ele>316.25</ele><time>2026-05-02T10:24:33.785Z</time></trkpt><trkpt lat="43.3033833" lon="12.2278967"><ele>315.0</ele><time>2026-05-02T10:24:34.785Z</time></trkpt><trkpt lat="43.303505" lon="12.22798"><ele>315.0</ele><time>2026-05-02T10:24:35.788Z</time></trkpt><trkpt lat="43.3036267" lon="12.2280467"><ele>315.0</ele><time>2026-05-02T10:24:36.786Z</time></trkpt><trkpt lat="43.3037517" lon="12.228095"><ele>315.0</ele><time>2026-05-02T10:24:37.785Z</time></trkpt><trkpt lat="43.3038783" lon="12.2281267"><ele>315.0</ele><time>2026-05-02T10:24:38.786Z</time></trkpt><trkpt lat="43.304015" lon="12.2281467"><ele>311.25</ele><time>2026-05-02T10:24:39.788Z</time></trkpt><trkpt lat="43.3041567" lon="12.2281567"><ele>307.5</ele><time>2026-05-02T10:24:40.785Z</time></trkpt><trkpt lat="43.3042917" lon="12.2281717"><ele>303.75</ele><time>2026-05-02T10:24:41.787Z</time></trkpt><trkpt lat="43.3044167" lon="12.2281867"><ele>300.0</ele><time>2026-05-02T10:24:42.786Z</time></trkpt><trkpt lat="43.3045367" lon="12.2282033"><ele>300.0</ele><time>2026-05-02T10:24:43.786Z</time></trkpt><trkpt lat="43.3046467" lon="12.22823"><ele>300.0</ele><time>2026-05-02T10:24:44.786Z</time></trkpt><trkpt lat="43.3047517" lon="12.22826"><ele>300.0</ele><time>2026-05-02T10:24:45.787Z</time></trkpt><trkpt lat="43.304845" lon="12.2282817"><ele>300.0</ele><time>2026-05-02T10:24:46.786Z</time></trkpt><trkpt lat="43.304935" lon="12.2282783"><ele>300.0</ele><time>2026-05-02T10:24:47.786Z</time></trkpt><trkpt lat="43.3050367" lon="12.22824"><ele>300.4</ele><time>2026-05-02T10:24:48.788Z</time></trkpt><trkpt lat="43.30514" lon="12.2281767"><ele>300.8</ele><time>2026-05-02T10:24:49.788Z</time></trkpt><trkpt lat="43.305245" lon="12.2281033"><ele>301.2</ele><time>2026-05-02T10:24:50.789Z</time></trkpt><trkpt lat="43.3053333" lon="12.2280117"><ele>301.6</ele><time>2026-05-02T10:24:51.789Z</time></trkpt><trkpt lat="43.3054" lon="12.2279283"><ele>302.0</ele><time>2026-05-02T10:24:52.79Z</time></trkpt><trkpt lat="43.3054533" lon="12.2278533"><ele>302.0</ele><time>2026-05-02T10:24:53.786Z</time></trkpt><trkpt lat="43.3055117" lon="12.2278033"><ele>302.0</ele><time>2026-05-02T10:24:54.785Z</time></trkpt><trkpt lat="43.3055733" lon="12.227785"><ele>302.0</ele><time>2026-05-02T10:24:55.788Z</time></trkpt><trkpt lat="43.30569" lon="12.2278867"><ele>302.0</ele><time>2026-05-02T10:24:57.789Z</time></trkpt><trkpt lat="43.3057617" lon="12.2280217"><ele>302.0</ele><time>2026-05-02T10:24:58.789Z</time></trkpt><trkpt lat="43.3058683" lon="12.228225"><ele>300.0</ele><time>2026-05-02T10:24:59.789Z</time></trkpt><trkpt lat="43.3059633" lon="12.2283833"><ele>298.0</ele><time>2026-05-02T10:25:00.789Z</time></trkpt><trkpt lat="43.3060417" lon="12.2285117"><ele>296.0</ele><time>2026-05-02T10:25:01.789Z</time></trkpt><trkpt lat="43.3060967" lon="12.2286167"><ele>294.0</ele><time>2026-05-02T10:25:02.789Z</time></trkpt><trkpt lat="43.3061283" lon="12.228715"><ele>292.0</ele><time>2026-05-02T10:25:03.79Z</time></trkpt><trkpt lat="43.30614" lon="12.2288183"><ele>292.0</ele><time>2026-05-02T10:25:04.788Z</time></trkpt><trkpt lat="43.30613" lon="12.22893"><ele>292.0</ele><time>2026-05-02T10:25:05.788Z</time></trkpt><trkpt lat="43.3061" lon="12.2290467"><ele>292.0</ele><time>2026-05-02T10:25:06.79Z</time></trkpt><trkpt lat="43.3060417" lon="12.2291667"><ele>292.0</ele><time>2026-05-02T10:25:07.789Z</time></trkpt><trkpt lat="43.30596" lon="12.22929"><ele>292.0</ele><time>2026-05-02T10:25:08.789Z</time></trkpt><trkpt lat="43.3058617" lon="12.229405"><ele>291.5</ele><time>2026-05-02T10:25:09.789Z</time></trkpt><trkpt lat="43.3057567" lon="12.22952"><ele>291.0</ele><time>2026-05-02T10:25:10.786Z</time></trkpt><trkpt lat="43.305635" lon="12.2296383"><ele>290.5</ele><time>2026-05-02T10:25:11.789Z</time></trkpt><trkpt lat="43.3055" lon="12.22975"><ele>290.0</ele><time>2026-05-02T10:25:12.786Z</time></trkpt><trkpt lat="43.3053567" lon="12.2298617"><ele>289.0</ele><time>2026-05-02T10:25:13.786Z</time></trkpt><trkpt lat="43.3052183" lon="12.2299783"><ele>288.0</ele><time>2026-05-02T10:25:14.786Z</time></trkpt><trkpt lat="43.30508" lon="12.2300867"><ele>287.0</ele><time>2026-05-02T10:25:15.789Z</time></trkpt><trkpt lat="43.3049433" lon="12.2301967"><ele>287.0</ele><time>2026-05-02T10:25:16.786Z</time></trkpt><trkpt lat="43.3048117" lon="12.2303067"><ele>287.0</ele><time>2026-05-02T10:25:17.79Z</time></trkpt><trkpt lat="43.3046817" lon="12.23041"><ele>287.0</ele><time>2026-05-02T10:25:18.789Z</time></trkpt><trkpt lat="43.3045617" lon="12.2305067"><ele>287.0</ele><time>2026-05-02T10:25:19.789Z</time></trkpt><trkpt lat="43.30445" lon="12.2305917"><ele>286.0</ele><time>2026-05-02T10:25:20.789Z</time></trkpt><trkpt lat="43.3043383" lon="12.230675"><ele>285.0</ele><time>2026-05-02T10:25:21.786Z</time></trkpt><trkpt lat="43.3042283" lon="12.2307633"><ele>284.0</ele><time>2026-05-02T10:25:22.789Z</time></trkpt><trkpt lat="43.3041383" lon="12.2308417"><ele>283.0</ele><time>2026-05-02T10:25:23.789Z</time></trkpt><trkpt lat="43.304055" lon="12.2309117"><ele>283.0</ele><time>2026-05-02T10:25:24.789Z</time></trkpt><trkpt lat="43.303985" lon="12.2309583"><ele>283.0</ele><time>2026-05-02T10:25:25.789Z</time></trkpt><trkpt lat="43.3038867" lon="12.2309767"><ele>283.0</ele><time>2026-05-02T10:25:27.786Z</time></trkpt><trkpt lat="43.303855" lon="12.2308783"><ele>283.0</ele><time>2026-05-02T10:25:29.786Z</time></trkpt><trkpt lat="43.3038517" lon="12.2307717"><ele>283.0</ele><time>2026-05-02T10:25:30.786Z</time></trkpt><trkpt lat="43.30384" lon="12.2306383"><ele>283.0</ele><time>2026-05-02T10:25:31.785Z</time></trkpt><trkpt lat="43.303805" lon="12.23049"><ele>281.5</ele><time>2026-05-02T10:25:32.786Z</time></trkpt><trkpt lat="43.3037467" lon="12.2303383"><ele>280.0</ele><time>2026-05-02T10:25:33.786Z</time></trkpt><trkpt lat="43.3036667" lon="12.23019"><ele>278.5</ele><time>2026-05-02T10:25:34.787Z</time></trkpt><trkpt lat="43.303565" lon="12.2300517"><ele>277.0</ele><time>2026-05-02T10:25:35.787Z</time></trkpt><trkpt lat="43.3034483" lon="12.2299167"><ele>277.0</ele><time>2026-05-02T10:25:36.786Z</time></trkpt><trkpt lat="43.303325" lon="12.2297817"><ele>277.0</ele><time>2026-05-02T10:25:37.786Z</time></trkpt><trkpt lat="43.303195" lon="12.22964"><ele>277.0</ele><time>2026-05-02T10:25:38.789Z</time></trkpt><trkpt lat="43.3030633" lon="12.229495"><ele>277.0</ele><time>2026-05-02T10:25:39.789Z</time></trkpt><trkpt lat="43.3029267" lon="12.2293467"><ele>277.0</ele><time>2026-05-02T10:25:40.79Z</time></trkpt><trkpt lat="43.3027883" lon="12.229195"><ele>277.0</ele><time>2026-05-02T10:25:41.79Z</time></trkpt><trkpt lat="43.3026467" lon="12.2290417"><ele>277.66666666666663</ele><time>2026-05-02T10:25:42.79Z</time></trkpt><trkpt lat="43.302505" lon="12.228885"><ele>278.3333333333333</ele><time>2026-05-02T10:25:43.79Z</time></trkpt><trkpt lat="43.3023633" lon="12.2287283"><ele>279.0</ele><time>2026-05-02T10:25:44.79Z</time></trkpt><trkpt lat="43.3022183" lon="12.22857"><ele>279.0</ele><time>2026-05-02T10:25:45.789Z</time></trkpt><trkpt lat="43.302075" lon="12.2284117"><ele>279.0</ele><time>2026-05-02T10:25:46.79Z</time></trkpt><trkpt lat="43.3019267" lon="12.228255"><ele>279.0</ele><time>2026-05-02T10:25:47.789Z</time></trkpt><trkpt lat="43.30177" lon="12.2281167"><ele>280.6666666666667</ele><time>2026-05-02T10:25:48.789Z</time></trkpt><trkpt lat="43.3015967" lon="12.228015"><ele>282.33333333333337</ele><time>2026-05-02T10:25:49.79Z</time></trkpt><trkpt lat="43.3014133" lon="12.2279433"><ele>284.0</ele><time>2026-05-02T10:25:50.789Z</time></trkpt><trkpt lat="43.3012333" lon="12.2278767"><ele>284.0</ele><time>2026-05-02T10:25:51.79Z</time></trkpt><trkpt lat="43.3010583" lon="12.227795"><ele>284.0</ele><time>2026-05-02T10:25:52.789Z</time></trkpt><trkpt lat="43.3009" lon="12.2276883"><ele>284.0</ele><time>2026-05-02T10:25:53.79Z</time></trkpt><trkpt lat="43.30076" lon="12.2275417"><ele>284.0</ele><time>2026-05-02T10:25:54.789Z</time></trkpt><trkpt lat="43.300645" lon="12.2273517"><ele>284.0</ele><time>2026-05-02T10:25:55.789Z</time></trkpt><trkpt lat="43.3005633" lon="12.2271333"><ele>284.0</ele><time>2026-05-02T10:25:56.79Z</time></trkpt><trkpt lat="43.300515" lon="12.2268867"><ele>281.33333333333337</ele><time>2026-05-02T10:25:57.785Z</time></trkpt><trkpt lat="43.3004867" lon="12.22663"><ele>278.6666666666667</ele><time>2026-05-02T10:25:58.786Z</time></trkpt><trkpt lat="43.30047" lon="12.2263583"><ele>276.0</ele><time>2026-05-02T10:25:59.787Z</time></trkpt><trkpt lat="43.300455" lon="12.2260767"><ele>276.0</ele><time>2026-05-02T10:26:00.786Z</time></trkpt><trkpt lat="43.3004417" lon="12.2257967"><ele>276.0</ele><time>2026-05-02T10:26:01.787Z</time></trkpt><trkpt lat="43.3004317" lon="12.22552"><ele>276.0</ele><time>2026-05-02T10:26:02.787Z</time></trkpt><trkpt lat="43.3004217" lon="12.225245"><ele>276.3333333333333</ele><time>2026-05-02T10:26:03.787Z</time></trkpt><trkpt lat="43.3004133" lon="12.22497"><ele>276.66666666666663</ele><time>2026-05-02T10:26:04.786Z</time></trkpt><trkpt lat="43.3004033" lon="12.2247067"><ele>277.0</ele><time>2026-05-02T10:26:05.786Z</time></trkpt><trkpt lat="43.3003817" lon="12.2244617"><ele>277.66666666666663</ele><time>2026-05-02T10:26:06.786Z</time></trkpt><trkpt lat="43.3003417" lon="12.224225"><ele>278.3333333333333</ele><time>2026-05-02T10:26:07.786Z</time></trkpt><trkpt lat="43.300265" lon="12.2240117"><ele>279.0</ele><time>2026-05-02T10:26:08.789Z</time></trkpt><trkpt lat="43.3001583" lon="12.2238133"><ele>279.3333333333333</ele><time>2026-05-02T10:26:09.789Z</time></trkpt><trkpt lat="43.3000283" lon="12.223625"><ele>279.66666666666663</ele><time>2026-05-02T10:26:10.79Z</time></trkpt><trkpt lat="43.29989" lon="12.223435"><ele>280.0</ele><time>2026-05-02T10:26:11.789Z</time></trkpt><trkpt lat="43.2997467" lon="12.22324"><ele>280.3333333333333</ele><time>2026-05-02T10:26:12.79Z</time></trkpt><trkpt lat="43.2996" lon="12.2230433"><ele>280.6666666666667</ele><time>2026-05-02T10:26:13.789Z</time></trkpt><trkpt lat="43.2994583" lon="12.222845"><ele>281.0</ele><time>2026-05-02T10:26:14.786Z</time></trkpt><trkpt lat="43.2993167" lon="12.22265"><ele>281.0</ele><time>2026-05-02T10:26:15.789Z</time></trkpt><trkpt lat="43.299175" lon="12.2224533"><ele>281.0</ele><time>2026-05-02T10:26:16.789Z</time></trkpt><trkpt lat="43.2990417" lon="12.2222633"><ele>281.0</ele><time>2026-05-02T10:26:17.789Z</time></trkpt><trkpt lat="43.29892" lon="12.2220717"><ele>281.0</ele><time>2026-05-02T10:26:18.789Z</time></trkpt><trkpt lat="43.2988117" lon="12.2218717"><ele>281.0</ele><time>2026-05-02T10:26:19.791Z</time></trkpt><trkpt lat="43.2987167" lon="12.2216533"><ele>281.0</ele><time>2026-05-02T10:26:20.79Z</time></trkpt><trkpt lat="43.2986283" lon="12.221425"><ele>282.6666666666667</ele><time>2026-05-02T10:26:21.79Z</time></trkpt><trkpt lat="43.2985317" lon="12.22119"><ele>284.3333333333333</ele><time>2026-05-02T10:26:22.789Z</time></trkpt><trkpt lat="43.298435" lon="12.2209533"><ele>286.0</ele><time>2026-05-02T10:26:23.789Z</time></trkpt><trkpt lat="43.2983433" lon="12.2207267"><ele>285.3333333333333</ele><time>2026-05-02T10:26:24.79Z</time></trkpt><trkpt lat="43.2982517" lon="12.2205033"><ele>284.6666666666667</ele><time>2026-05-02T10:26:25.791Z</time></trkpt><trkpt lat="43.2981617" lon="12.2203"><ele>284.0</ele><time>2026-05-02T10:26:26.789Z</time></trkpt><trkpt lat="43.29806" lon="12.2201183"><ele>283.0</ele><time>2026-05-02T10:26:27.787Z</time></trkpt><trkpt lat="43.2979417" lon="12.2199817"><ele>282.0</ele><time>2026-05-02T10:26:28.787Z</time></trkpt><trkpt lat="43.2977983" lon="12.2198967"><ele>281.0</ele><time>2026-05-02T10:26:29.787Z</time></trkpt><trkpt lat="43.297635" lon="12.21986"><ele>281.0</ele><time>2026-05-02T10:26:30.787Z</time></trkpt><trkpt lat="43.29746" lon="12.2198717"><ele>281.0</ele><time>2026-05-02T10:26:31.786Z</time></trkpt><trkpt lat="43.2972817" lon="12.21994"><ele>281.0</ele><time>2026-05-02T10:26:32.787Z</time></trkpt><trkpt lat="43.29711" lon="12.2200533"><ele>282.33333333333337</ele><time>2026-05-02T10:26:33.787Z</time></trkpt><trkpt lat="43.2969367" lon="12.22018"><ele>283.6666666666667</ele><time>2026-05-02T10:26:34.787Z</time></trkpt><trkpt lat="43.2967683" lon="12.2202933"><ele>285.0</ele><time>2026-05-02T10:26:35.788Z</time></trkpt><trkpt lat="43.296595" lon="12.2203817"><ele>285.0</ele><time>2026-05-02T10:26:36.787Z</time></trkpt><trkpt lat="43.29641" lon="12.2204433"><ele>285.0</ele><time>2026-05-02T10:26:37.786Z</time></trkpt><trkpt lat="43.2962167" lon="12.2204833"><ele>285.0</ele><time>2026-05-02T10:26:38.789Z</time></trkpt><trkpt lat="43.2960133" lon="12.2205183"><ele>285.0</ele><time>2026-05-02T10:26:39.789Z</time></trkpt><trkpt lat="43.295805" lon="12.2205517"><ele>285.0</ele><time>2026-05-02T10:26:40.788Z</time></trkpt><trkpt lat="43.295595" lon="12.2205833"><ele>285.0</ele><time>2026-05-02T10:26:41.79Z</time></trkpt><trkpt lat="43.2954" lon="12.22061"><ele>284.3333333333333</ele><time>2026-05-02T10:26:42.791Z</time></trkpt><trkpt lat="43.2952217" lon="12.2206233"><ele>283.66666666666663</ele><time>2026-05-02T10:26:43.789Z</time></trkpt><trkpt lat="43.29506" lon="12.2205983"><ele>283.0</ele><time>2026-05-02T10:26:44.789Z</time></trkpt><trkpt lat="43.2949133" lon="12.2205267"><ele>283.0</ele><time>2026-05-02T10:26:45.789Z</time></trkpt><trkpt lat="43.294785" lon="12.2204067"><ele>283.0</ele><time>2026-05-02T10:26:46.789Z</time></trkpt><trkpt lat="43.29468" lon="12.2202317"><ele>283.0</ele><time>2026-05-02T10:26:47.79Z</time></trkpt><trkpt lat="43.2945817" lon="12.220025"><ele>281.66666666666663</ele><time>2026-05-02T10:26:48.789Z</time></trkpt><trkpt lat="43.2944867" lon="12.2197933"><ele>280.3333333333333</ele><time>2026-05-02T10:26:49.789Z</time></trkpt><trkpt lat="43.2943883" lon="12.2195533"><ele>279.0</ele><time>2026-05-02T10:26:50.786Z</time></trkpt><trkpt lat="43.2942883" lon="12.2193167"><ele>279.0</ele><time>2026-05-02T10:26:51.789Z</time></trkpt><trkpt lat="43.2941917" lon="12.21908"><ele>279.0</ele><time>2026-05-02T10:26:52.789Z</time></trkpt><trkpt lat="43.2941083" lon="12.2188517"><ele>279.0</ele><time>2026-05-02T10:26:53.789Z</time></trkpt><trkpt lat="43.2940483" lon="12.218615"><ele>281.0</ele><time>2026-05-02T10:26:54.79Z</time></trkpt><trkpt lat="43.2940117" lon="12.2183683"><ele>283.0</ele><time>2026-05-02T10:26:55.787Z</time></trkpt><trkpt lat="43.2939917" lon="12.2181083"><ele>285.0</ele><time>2026-05-02T10:26:56.787Z</time></trkpt><trkpt lat="43.293975" lon="12.2178417"><ele>286.3333333333333</ele><time>2026-05-02T10:26:57.787Z</time></trkpt><trkpt lat="43.2939583" lon="12.2175583"><ele>287.66666666666663</ele><time>2026-05-02T10:26:58.788Z</time></trkpt><trkpt lat="43.2939417" lon="12.2172733"><ele>289.0</ele><time>2026-05-02T10:26:59.788Z</time></trkpt><trkpt lat="43.293925" lon="12.216985"><ele>285.3333333333333</ele><time>2026-05-02T10:27:00.786Z</time></trkpt><trkpt lat="43.2939133" lon="12.2167067"><ele>281.6666666666667</ele><time>2026-05-02T10:27:01.787Z</time></trkpt><trkpt lat="43.2939" lon="12.2164433"><ele>278.0</ele><time>2026-05-02T10:27:02.788Z</time></trkpt><trkpt lat="43.293885" lon="12.21619"><ele>278.0</ele><time>2026-05-02T10:27:03.788Z</time></trkpt><trkpt lat="43.2938683" lon="12.2159367"><ele>278.0</ele><time>2026-05-02T10:27:04.787Z</time></trkpt><trkpt lat="43.2938517" lon="12.2156867"><ele>278.0</ele><time>2026-05-02T10:27:05.786Z</time></trkpt><trkpt lat="43.2938333" lon="12.2154367"><ele>278.0</ele><time>2026-05-02T10:27:06.787Z</time></trkpt><trkpt lat="43.2938233" lon="12.2151933"><ele>278.0</ele><time>2026-05-02T10:27:07.787Z</time></trkpt><trkpt lat="43.2938083" lon="12.2149583"><ele>278.0</ele><time>2026-05-02T10:27:08.789Z</time></trkpt><trkpt lat="43.293795" lon="12.2147233"><ele>278.0</ele><time>2026-05-02T10:27:09.79Z</time></trkpt><trkpt lat="43.2937767" lon="12.2144917"><ele>278.0</ele><time>2026-05-02T10:27:10.79Z</time></trkpt><trkpt lat="43.2937383" lon="12.2142417"><ele>278.0</ele><time>2026-05-02T10:27:11.791Z</time></trkpt><trkpt lat="43.293675" lon="12.2139867"><ele>279.0</ele><time>2026-05-02T10:27:12.789Z</time></trkpt><trkpt lat="43.29358" lon="12.213705"><ele>280.0</ele><time>2026-05-02T10:27:13.789Z</time></trkpt><trkpt lat="43.2934717" lon="12.2134167"><ele>280.0</ele><time>2026-05-02T10:27:14.789Z</time></trkpt><trkpt lat="43.2933567" lon="12.2131217"><ele>280.0</ele><time>2026-05-02T10:27:15.789Z</time></trkpt><trkpt lat="43.2932433" lon="12.2128283"><ele>280.0</ele><time>2026-05-02T10:27:16.788Z</time></trkpt><trkpt lat="43.2931283" lon="12.2125417"><ele>280.0</ele><time>2026-05-02T10:27:17.788Z</time></trkpt><trkpt lat="43.2930117" lon="12.2122583"><ele>280.0</ele><time>2026-05-02T10:27:18.788Z</time></trkpt><trkpt lat="43.2928917" lon="12.2119767"><ele>280.0</ele><time>2026-05-02T10:27:19.789Z</time></trkpt><trkpt lat="43.2927717" lon="12.2116933"><ele>282.0</ele><time>2026-05-02T10:27:20.79Z</time></trkpt><trkpt lat="43.292655" lon="12.2114167"><ele>284.0</ele><time>2026-05-02T10:27:21.788Z</time></trkpt><trkpt lat="43.2925483" lon="12.2111517"><ele>284.0</ele><time>2026-05-02T10:27:22.789Z</time></trkpt><trkpt lat="43.2924417" lon="12.2109067"><ele>284.0</ele><time>2026-05-02T10:27:23.79Z</time></trkpt><trkpt lat="43.2923233" lon="12.21069"><ele>284.0</ele><time>2026-05-02T10:27:24.789Z</time></trkpt><trkpt lat="43.2921833" lon="12.2105067"><ele>287.33333333333337</ele><time>2026-05-02T10:27:25.789Z</time></trkpt><trkpt lat="43.29201" lon="12.2103517"><ele>290.6666666666667</ele><time>2026-05-02T10:27:26.788Z</time></trkpt><trkpt lat="43.2918083" lon="12.2102167"><ele>294.0</ele><time>2026-05-02T10:27:27.788Z</time></trkpt><trkpt lat="43.2915917" lon="12.2101"><ele>291.0</ele><time>2026-05-02T10:27:28.787Z</time></trkpt><trkpt lat="43.291375" lon="12.21"><ele>288.0</ele><time>2026-05-02T10:27:29.787Z</time></trkpt><trkpt lat="43.2911567" lon="12.2099283"><ele>288.0</ele><time>2026-05-02T10:27:30.787Z</time></trkpt><trkpt lat="43.2909367" lon="12.2099133"><ele>288.0</ele><time>2026-05-02T10:27:31.788Z</time></trkpt><trkpt lat="43.29071" lon="12.2099417"><ele>288.0</ele><time>2026-05-02T10:27:32.786Z</time></trkpt><trkpt lat="43.290475" lon="12.2100083"><ele>288.5</ele><time>2026-05-02T10:27:33.789Z</time></trkpt><trkpt lat="43.2902417" lon="12.2100917"><ele>289.0</ele><time>2026-05-02T10:27:34.788Z</time></trkpt><trkpt lat="43.2900067" lon="12.2101867"><ele>289.0</ele><time>2026-05-02T10:27:35.788Z</time></trkpt><trkpt lat="43.2897717" lon="12.2102767"><ele>289.0</ele><time>2026-05-02T10:27:36.788Z</time></trkpt><trkpt lat="43.2895417" lon="12.2103633"><ele>291.0</ele><time>2026-05-02T10:27:37.786Z</time></trkpt><trkpt lat="43.28931" lon="12.21045"><ele>293.0</ele><time>2026-05-02T10:27:38.787Z</time></trkpt><trkpt lat="43.2890817" lon="12.2105317"><ele>291.0</ele><time>2026-05-02T10:27:39.788Z</time></trkpt><trkpt lat="43.288865" lon="12.2106083"><ele>289.0</ele><time>2026-05-02T10:27:40.788Z</time></trkpt><trkpt lat="43.2886617" lon="12.21068"><ele>287.0</ele><time>2026-05-02T10:27:41.789Z</time></trkpt><trkpt lat="43.28847" lon="12.210745"><ele>288.0</ele><time>2026-05-02T10:27:42.79Z</time></trkpt><trkpt lat="43.2882933" lon="12.21081"><ele>289.0</ele><time>2026-05-02T10:27:43.789Z</time></trkpt><trkpt lat="43.2881283" lon="12.2108667"><ele>290.0</ele><time>2026-05-02T10:27:44.789Z</time></trkpt><trkpt lat="43.2879683" lon="12.2109283"><ele>290.0</ele><time>2026-05-02T10:27:45.789Z</time></trkpt><trkpt lat="43.287825" lon="12.2110133"><ele>290.0</ele><time>2026-05-02T10:27:46.79Z</time></trkpt><trkpt lat="43.28771" lon="12.2111367"><ele>290.0</ele><time>2026-05-02T10:27:47.789Z</time></trkpt><trkpt lat="43.2876367" lon="12.2112933"><ele>290.0</ele><time>2026-05-02T10:27:48.789Z</time></trkpt><trkpt lat="43.2876167" lon="12.2114867"><ele>289.75</ele><time>2026-05-02T10:27:49.79Z</time></trkpt><trkpt lat="43.287635" lon="12.211685"><ele>289.5</ele><time>2026-05-02T10:27:50.788Z</time></trkpt><trkpt lat="43.2876767" lon="12.2118833"><ele>289.25</ele><time>2026-05-02T10:27:51.79Z</time></trkpt><trkpt lat="43.28772" lon="12.2120733"><ele>289.0</ele><time>2026-05-02T10:27:52.789Z</time></trkpt><trkpt lat="43.2877367" lon="12.2122517"><ele>288.25</ele><time>2026-05-02T10:27:53.789Z</time></trkpt><trkpt lat="43.28771" lon="12.2124117"><ele>287.5</ele><time>2026-05-02T10:27:54.79Z</time></trkpt><trkpt lat="43.287645" lon="12.2125317"><ele>286.75</ele><time>2026-05-02T10:27:55.789Z</time></trkpt><trkpt lat="43.2875583" lon="12.2125983"><ele>286.0</ele><time>2026-05-02T10:27:56.785Z</time></trkpt><trkpt lat="43.2874317" lon="12.2125883"><ele>286.0</ele><time>2026-05-02T10:27:57.785Z</time></trkpt><trkpt lat="43.2872967" lon="12.212525"><ele>286.0</ele><time>2026-05-02T10:27:58.786Z</time></trkpt><trkpt lat="43.2871683" lon="12.21241"><ele>286.0</ele><time>2026-05-02T10:27:59.786Z</time></trkpt><trkpt lat="43.28706" lon="12.21225"><ele>287.66666666666663</ele><time>2026-05-02T10:28:00.785Z</time></trkpt><trkpt lat="43.286965" lon="12.212065"><ele>289.3333333333333</ele><time>2026-05-02T10:28:01.785Z</time></trkpt><trkpt lat="43.2868783" lon="12.2118517"><ele>291.0</ele><time>2026-05-02T10:28:02.786Z</time></trkpt><trkpt lat="43.286795" lon="12.21163"><ele>294.3333333333333</ele><time>2026-05-02T10:28:03.791Z</time></trkpt><trkpt lat="43.286715" lon="12.211405"><ele>297.66666666666663</ele><time>2026-05-02T10:28:04.789Z</time></trkpt><trkpt lat="43.2866433" lon="12.21117"><ele>301.0</ele><time>2026-05-02T10:28:05.789Z</time></trkpt><trkpt lat="43.28659" lon="12.21093"><ele>301.0</ele><time>2026-05-02T10:28:06.79Z</time></trkpt><trkpt lat="43.2865517" lon="12.2106933"><ele>301.0</ele><time>2026-05-02T10:28:07.787Z</time></trkpt><trkpt lat="43.286515" lon="12.2104667"><ele>301.0</ele><time>2026-05-02T10:28:08.786Z</time></trkpt><trkpt lat="43.286465" lon="12.2102717"><ele>300.5</ele><time>2026-05-02T10:28:09.786Z</time></trkpt><trkpt lat="43.2864017" lon="12.2101083"><ele>300.0</ele><time>2026-05-02T10:28:10.785Z</time></trkpt><trkpt lat="43.2863133" lon="12.209975"><ele>299.5</ele><time>2026-05-02T10:28:11.787Z</time></trkpt><trkpt lat="43.28621" lon="12.209875"><ele>299.0</ele><time>2026-05-02T10:28:12.787Z</time></trkpt><trkpt lat="43.286085" lon="12.20982"><ele>299.0</ele><time>2026-05-02T10:28:13.789Z</time></trkpt><trkpt lat="43.28581" lon="12.2098317"><ele>299.0</ele><time>2026-05-02T10:28:15.787Z</time></trkpt><trkpt lat="43.2856733" lon="12.2098583"><ele>299.0</ele><time>2026-05-02T10:28:16.785Z</time></trkpt><trkpt lat="43.2855317" lon="12.2098567"><ele>299.75</ele><time>2026-05-02T10:28:17.786Z</time></trkpt><trkpt lat="43.2854017" lon="12.2098167"><ele>300.5</ele><time>2026-05-02T10:28:18.788Z</time></trkpt><trkpt lat="43.2852883" lon="12.2097333"><ele>301.25</ele><time>2026-05-02T10:28:19.785Z</time></trkpt><trkpt lat="43.2851867" lon="12.2096117"><ele>302.0</ele><time>2026-05-02T10:28:20.788Z</time></trkpt><trkpt lat="43.2850933" lon="12.2094767"><ele>302.0</ele><time>2026-05-02T10:28:21.789Z</time></trkpt><trkpt lat="43.2849983" lon="12.2093383"><ele>302.0</ele><time>2026-05-02T10:28:22.789Z</time></trkpt><trkpt lat="43.2848967" lon="12.2092117"><ele>302.0</ele><time>2026-05-02T10:28:23.789Z</time></trkpt><trkpt lat="43.284785" lon="12.2091217"><ele>302.0</ele><time>2026-05-02T10:28:24.79Z</time></trkpt><trkpt lat="43.2846517" lon="12.20907"><ele>300.0</ele><time>2026-05-02T10:28:25.789Z</time></trkpt><trkpt lat="43.2845117" lon="12.2090417"><ele>298.0</ele><time>2026-05-02T10:28:26.789Z</time></trkpt><trkpt lat="43.2843767" lon="12.2090267"><ele>296.0</ele><time>2026-05-02T10:28:27.789Z</time></trkpt><trkpt lat="43.28425" lon="12.2090183"><ele>294.0</ele><time>2026-05-02T10:28:28.789Z</time></trkpt><trkpt lat="43.2841233" lon="12.209015"><ele>294.0</ele><time>2026-05-02T10:28:29.789Z</time></trkpt><trkpt lat="43.284" lon="12.2090133"><ele>294.0</ele><time>2026-05-02T10:28:30.789Z</time></trkpt><trkpt lat="43.2838767" lon="12.20901"><ele>294.0</ele><time>2026-05-02T10:28:31.79Z</time></trkpt><trkpt lat="43.2837533" lon="12.2090067"><ele>294.0</ele><time>2026-05-02T10:28:32.789Z</time></trkpt><trkpt lat="43.2836367" lon="12.2089983"><ele>294.0</ele><time>2026-05-02T10:28:33.791Z</time></trkpt><trkpt lat="43.2835267" lon="12.2089667"><ele>294.0</ele><time>2026-05-02T10:28:34.789Z</time></trkpt><trkpt lat="43.2834317" lon="12.2088933"><ele>294.0</ele><time>2026-05-02T10:28:35.789Z</time></trkpt><trkpt lat="43.2833467" lon="12.2087683"><ele>294.0</ele><time>2026-05-02T10:28:36.789Z</time></trkpt><trkpt lat="43.2832667" lon="12.2086"><ele>294.0</ele><time>2026-05-02T10:28:37.787Z</time></trkpt><trkpt lat="43.283195" lon="12.2084067"><ele>294.0</ele><time>2026-05-02T10:28:38.787Z</time></trkpt><trkpt lat="43.2831333" lon="12.208215"><ele>294.0</ele><time>2026-05-02T10:28:39.785Z</time></trkpt><trkpt lat="43.28308" lon="12.2080317"><ele>291.25</ele><time>2026-05-02T10:28:40.786Z</time></trkpt><trkpt lat="43.28303" lon="12.2078583"><ele>288.5</ele><time>2026-05-02T10:28:41.786Z</time></trkpt><trkpt lat="43.2829783" lon="12.2076883"><ele>285.75</ele><time>2026-05-02T10:28:42.786Z</time></trkpt><trkpt lat="43.282925" lon="12.207515"><ele>283.0</ele><time>2026-05-02T10:28:43.786Z</time></trkpt><trkpt lat="43.2828733" lon="12.20734"><ele>283.5</ele><time>2026-05-02T10:28:44.787Z</time></trkpt><trkpt lat="43.2828233" lon="12.207165"><ele>284.0</ele><time>2026-05-02T10:28:45.786Z</time></trkpt><trkpt lat="43.2827733" lon="12.2069933"><ele>284.5</ele><time>2026-05-02T10:28:46.786Z</time></trkpt><trkpt lat="43.2827217" lon="12.20682"><ele>285.0</ele><time>2026-05-02T10:28:47.787Z</time></trkpt><trkpt lat="43.282665" lon="12.2066317"><ele>284.0</ele><time>2026-05-02T10:28:48.786Z</time></trkpt><trkpt lat="43.282595" lon="12.2064183"><ele>283.0</ele><time>2026-05-02T10:28:49.785Z</time></trkpt><trkpt lat="43.2825183" lon="12.2061783"><ele>282.0</ele><time>2026-05-02T10:28:50.79Z</time></trkpt><trkpt lat="43.28244" lon="12.2059167"><ele>282.3333333333333</ele><time>2026-05-02T10:28:51.789Z</time></trkpt><trkpt lat="43.2823583" lon="12.2056417"><ele>282.66666666666663</ele><time>2026-05-02T10:28:52.79Z</time></trkpt><trkpt lat="43.2822617" lon="12.2053517"><ele>283.0</ele><time>2026-05-02T10:28:53.789Z</time></trkpt><trkpt lat="43.2821417" lon="12.2050567"><ele>286.0</ele><time>2026-05-02T10:28:54.789Z</time></trkpt><trkpt lat="43.2819883" lon="12.2047633"><ele>289.0</ele><time>2026-05-02T10:28:55.789Z</time></trkpt><trkpt lat="43.2818083" lon="12.2044717"><ele>289.0</ele><time>2026-05-02T10:28:56.789Z</time></trkpt><trkpt lat="43.2816133" lon="12.20419"><ele>289.0</ele><time>2026-05-02T10:28:57.79Z</time></trkpt><trkpt lat="43.2814117" lon="12.2039183"><ele>288.0</ele><time>2026-05-02T10:28:58.789Z</time></trkpt><trkpt lat="43.28121" lon="12.2036517"><ele>287.0</ele><time>2026-05-02T10:28:59.789Z</time></trkpt><trkpt lat="43.28102" lon="12.2033983"><ele>292.0</ele><time>2026-05-02T10:29:00.789Z</time></trkpt><trkpt lat="43.2808417" lon="12.20316"><ele>297.0</ele><time>2026-05-02T10:29:01.79Z</time></trkpt><trkpt lat="43.280675" lon="12.2029333"><ele>292.6666666666667</ele><time>2026-05-02T10:29:02.791Z</time></trkpt><trkpt lat="43.28053" lon="12.2027233"><ele>288.33333333333337</ele><time>2026-05-02T10:29:03.789Z</time></trkpt><trkpt lat="43.2804083" lon="12.20253"><ele>284.0</ele><time>2026-05-02T10:29:04.79Z</time></trkpt><trkpt lat="43.2803067" lon="12.2023367"><ele>284.33333333333337</ele><time>2026-05-02T10:29:05.789Z</time></trkpt><trkpt lat="43.2802217" lon="12.2021383"><ele>284.6666666666667</ele><time>2026-05-02T10:29:06.789Z</time></trkpt><trkpt lat="43.2801617" lon="12.2019433"><ele>285.0</ele><time>2026-05-02T10:29:07.786Z</time></trkpt><trkpt lat="43.2801367" lon="12.20175"><ele>285.0</ele><time>2026-05-02T10:29:08.787Z</time></trkpt><trkpt lat="43.2801533" lon="12.2015483"><ele>285.0</ele><time>2026-05-02T10:29:09.787Z</time></trkpt><trkpt lat="43.28021" lon="12.201335"><ele>285.0</ele><time>2026-05-02T10:29:10.787Z</time></trkpt><trkpt lat="43.28029" lon="12.2011067"><ele>284.6666666666667</ele><time>2026-05-02T10:29:11.787Z</time></trkpt><trkpt lat="43.2803717" lon="12.200865"><ele>284.33333333333337</ele><time>2026-05-02T10:29:12.786Z</time></trkpt><trkpt lat="43.2804583" lon="12.2006083"><ele>284.0</ele><time>2026-05-02T10:29:13.786Z</time></trkpt><trkpt lat="43.2805467" lon="12.2003383"><ele>284.0</ele><time>2026-05-02T10:29:14.786Z</time></trkpt><trkpt lat="43.2806317" lon="12.200065"><ele>284.0</ele><time>2026-05-02T10:29:15.787Z</time></trkpt><trkpt lat="43.28072" lon="12.19979"><ele>284.0</ele><time>2026-05-02T10:29:16.786Z</time></trkpt><trkpt lat="43.2808117" lon="12.1995067"><ele>284.0</ele><time>2026-05-02T10:29:17.786Z</time></trkpt><trkpt lat="43.2809017" lon="12.19923"><ele>284.0</ele><time>2026-05-02T10:29:18.786Z</time></trkpt><trkpt lat="43.2809867" lon="12.1989567"><ele>284.0</ele><time>2026-05-02T10:29:19.786Z</time></trkpt><trkpt lat="43.2810633" lon="12.1986933"><ele>284.0</ele><time>2026-05-02T10:29:20.789Z</time></trkpt><trkpt lat="43.2811283" lon="12.1984383"><ele>284.0</ele><time>2026-05-02T10:29:21.79Z</time></trkpt><trkpt lat="43.2811733" lon="12.198185"><ele>284.0</ele><time>2026-05-02T10:29:22.789Z</time></trkpt><trkpt lat="43.2811883" lon="12.1979233"><ele>284.0</ele><time>2026-05-02T10:29:23.789Z</time></trkpt><trkpt lat="43.281165" lon="12.1976517"><ele>284.0</ele><time>2026-05-02T10:29:24.789Z</time></trkpt><trkpt lat="43.2811067" lon="12.1973733"><ele>284.0</ele><time>2026-05-02T10:29:25.789Z</time></trkpt><trkpt lat="43.2810217" lon="12.1970867"><ele>286.0</ele><time>2026-05-02T10:29:26.789Z</time></trkpt><trkpt lat="43.2809267" lon="12.1967867"><ele>288.0</ele><time>2026-05-02T10:29:27.79Z</time></trkpt><trkpt lat="43.2808317" lon="12.1964817"><ele>288.5</ele><time>2026-05-02T10:29:28.79Z</time></trkpt><trkpt lat="43.28074" lon="12.19618"><ele>289.0</ele><time>2026-05-02T10:29:29.789Z</time></trkpt><trkpt lat="43.28065" lon="12.1958933"><ele>286.5</ele><time>2026-05-02T10:29:30.789Z</time></trkpt><trkpt lat="43.28055" lon="12.195615"><ele>284.0</ele><time>2026-05-02T10:29:31.789Z</time></trkpt><trkpt lat="43.2804367" lon="12.1953317"><ele>284.0</ele><time>2026-05-02T10:29:32.789Z</time></trkpt><trkpt lat="43.2803117" lon="12.1950383"><ele>284.0</ele><time>2026-05-02T10:29:33.79Z</time></trkpt><trkpt lat="43.2801783" lon="12.1947483"><ele>284.5</ele><time>2026-05-02T10:29:34.791Z</time></trkpt><trkpt lat="43.2800517" lon="12.1944683"><ele>285.0</ele><time>2026-05-02T10:29:35.789Z</time></trkpt><trkpt lat="43.2799317" lon="12.1942"><ele>285.6666666666667</ele><time>2026-05-02T10:29:36.789Z</time></trkpt><trkpt lat="43.279815" lon="12.1939467"><ele>286.33333333333337</ele><time>2026-05-02T10:29:37.788Z</time></trkpt><trkpt lat="43.2796867" lon="12.1937117"><ele>287.0</ele><time>2026-05-02T10:29:38.786Z</time></trkpt><trkpt lat="43.27954" lon="12.1935017"><ele>287.0</ele><time>2026-05-02T10:29:39.787Z</time></trkpt><trkpt lat="43.2793833" lon="12.1933133"><ele>287.0</ele><time>2026-05-02T10:29:40.787Z</time></trkpt><trkpt lat="43.2792233" lon="12.1931283"><ele>287.0</ele><time>2026-05-02T10:29:41.787Z</time></trkpt><trkpt lat="43.2790717" lon="12.19293"><ele>286.0</ele><time>2026-05-02T10:29:42.786Z</time></trkpt><trkpt lat="43.2789367" lon="12.19271"><ele>285.0</ele><time>2026-05-02T10:29:43.787Z</time></trkpt><trkpt lat="43.2788183" lon="12.1924717"><ele>284.0</ele><time>2026-05-02T10:29:44.786Z</time></trkpt><trkpt lat="43.2787267" lon="12.192205"><ele>284.0</ele><time>2026-05-02T10:29:45.786Z</time></trkpt><trkpt lat="43.2786483" lon="12.1919033"><ele>284.0</ele><time>2026-05-02T10:29:46.789Z</time></trkpt><trkpt lat="43.278585" lon="12.1915717"><ele>284.0</ele><time>2026-05-02T10:29:47.789Z</time></trkpt><trkpt lat="43.2785283" lon="12.1912217"><ele>284.0</ele><time>2026-05-02T10:29:48.788Z</time></trkpt><trkpt lat="43.2784733" lon="12.1908533"><ele>286.0</ele><time>2026-05-02T10:29:49.788Z</time></trkpt><trkpt lat="43.278425" lon="12.190465"><ele>288.0</ele><time>2026-05-02T10:29:50.789Z</time></trkpt><trkpt lat="43.2783817" lon="12.1900667"><ele>287.5</ele><time>2026-05-02T10:29:51.791Z</time></trkpt><trkpt lat="43.2783433" lon="12.1896633"><ele>287.0</ele><time>2026-05-02T10:29:52.789Z</time></trkpt><trkpt lat="43.2783033" lon="12.1892667"><ele>286.5</ele><time>2026-05-02T10:29:53.79Z</time></trkpt><trkpt lat="43.2782633" lon="12.1888817"><ele>286.0</ele><time>2026-05-02T10:29:54.79Z</time></trkpt><trkpt lat="43.278225" lon="12.1885083"><ele>287.5</ele><time>2026-05-02T10:29:55.789Z</time></trkpt><trkpt lat="43.278185" lon="12.188135"><ele>289.0</ele><time>2026-05-02T10:29:56.789Z</time></trkpt><trkpt lat="43.2781467" lon="12.1877617"><ele>289.0</ele><time>2026-05-02T10:29:57.789Z</time></trkpt><trkpt lat="43.2781083" lon="12.18739"><ele>289.0</ele><time>2026-05-02T10:29:58.789Z</time></trkpt><trkpt lat="43.2780683" lon="12.1870133"><ele>287.0</ele><time>2026-05-02T10:29:59.789Z</time></trkpt><trkpt lat="43.27803" lon="12.1866383"><ele>285.0</ele><time>2026-05-02T10:30:00.79Z</time></trkpt><trkpt lat="43.2779933" lon="12.1862767"><ele>285.0</ele><time>2026-05-02T10:30:01.79Z</time></trkpt><trkpt lat="43.2779583" lon="12.1859317"><ele>285.0</ele><time>2026-05-02T10:30:02.789Z</time></trkpt><trkpt lat="43.277925" lon="12.1855933"><ele>285.0</ele><time>2026-05-02T10:30:03.79Z</time></trkpt><trkpt lat="43.27789" lon="12.185275"><ele>285.0</ele><time>2026-05-02T10:30:04.79Z</time></trkpt><trkpt lat="43.27786" lon="12.18499"><ele>285.0</ele><time>2026-05-02T10:30:05.789Z</time></trkpt><trkpt lat="43.2778333" lon="12.1847083"><ele>285.0</ele><time>2026-05-02T10:30:06.789Z</time></trkpt><trkpt lat="43.2778067" lon="12.1844133"><ele>285.0</ele><time>2026-05-02T10:30:07.791Z</time></trkpt><trkpt lat="43.2777767" lon="12.1841067"><ele>285.0</ele><time>2026-05-02T10:30:08.787Z</time></trkpt><trkpt lat="43.2777433" lon="12.18379"><ele>285.5</ele><time>2026-05-02T10:30:09.788Z</time></trkpt><trkpt lat="43.27771" lon="12.183465"><ele>286.0</ele><time>2026-05-02T10:30:10.787Z</time></trkpt><trkpt lat="43.2776733" lon="12.183135"><ele>286.0</ele><time>2026-05-02T10:30:11.787Z</time></trkpt><trkpt lat="43.2776383" lon="12.1828083"><ele>286.0</ele><time>2026-05-02T10:30:12.786Z</time></trkpt><trkpt lat="43.2776017" lon="12.18248"><ele>286.0</ele><time>2026-05-02T10:30:13.787Z</time></trkpt><trkpt lat="43.2775667" lon="12.18215"><ele>286.0</ele><time>2026-05-02T10:30:14.786Z</time></trkpt><trkpt lat="43.27753" lon="12.18183"><ele>286.0</ele><time>2026-05-02T10:30:15.789Z</time></trkpt><trkpt lat="43.2774933" lon="12.181515"><ele>286.0</ele><time>2026-05-02T10:30:16.788Z</time></trkpt><trkpt lat="43.2774617" lon="12.1812"><ele>286.0</ele><time>2026-05-02T10:30:17.789Z</time></trkpt><trkpt lat="43.27743" lon="12.1808883"><ele>286.0</ele><time>2026-05-02T10:30:18.789Z</time></trkpt><trkpt lat="43.2773983" lon="12.18058"><ele>287.0</ele><time>2026-05-02T10:30:19.789Z</time></trkpt><trkpt lat="43.277365" lon="12.180275"><ele>288.0</ele><time>2026-05-02T10:30:20.789Z</time></trkpt><trkpt lat="43.2773333" lon="12.1799717"><ele>289.0</ele><time>2026-05-02T10:30:21.789Z</time></trkpt><trkpt lat="43.2773" lon="12.1796667"><ele>288.66666666666663</ele><time>2026-05-02T10:30:22.789Z</time></trkpt><trkpt lat="43.27727" lon="12.179365"><ele>288.3333333333333</ele><time>2026-05-02T10:30:23.788Z</time></trkpt><trkpt lat="43.2772417" lon="12.179075"><ele>288.0</ele><time>2026-05-02T10:30:24.788Z</time></trkpt><trkpt lat="43.277215" lon="12.1787933"><ele>288.0</ele><time>2026-05-02T10:30:25.788Z</time></trkpt><trkpt lat="43.2771883" lon="12.1785133"><ele>288.0</ele><time>2026-05-02T10:30:26.789Z</time></trkpt><trkpt lat="43.27716" lon="12.1782333"><ele>288.0</ele><time>2026-05-02T10:30:27.789Z</time></trkpt><trkpt lat="43.2771317" lon="12.1779567"><ele>287.6666666666667</ele><time>2026-05-02T10:30:28.789Z</time></trkpt><trkpt lat="43.2771" lon="12.177685"><ele>287.33333333333337</ele><time>2026-05-02T10:30:29.788Z</time></trkpt><trkpt lat="43.2770567" lon="12.1774283"><ele>287.0</ele><time>2026-05-02T10:30:30.789Z</time></trkpt><trkpt lat="43.27699" lon="12.1771767"><ele>288.33333333333337</ele><time>2026-05-02T10:30:31.789Z</time></trkpt><trkpt lat="43.276895" lon="12.1769183"><ele>289.6666666666667</ele><time>2026-05-02T10:30:32.79Z</time></trkpt><trkpt lat="43.2767783" lon="12.176645"><ele>291.0</ele><time>2026-05-02T10:30:33.79Z</time></trkpt><trkpt lat="43.276645" lon="12.176355"><ele>291.0</ele><time>2026-05-02T10:30:34.789Z</time></trkpt><trkpt lat="43.2765117" lon="12.1760467"><ele>291.0</ele><time>2026-05-02T10:30:35.792Z</time></trkpt><trkpt lat="43.2763817" lon="12.1757133"><ele>290.0</ele><time>2026-05-02T10:30:36.788Z</time></trkpt><trkpt lat="43.276245" lon="12.1753617"><ele>289.0</ele><time>2026-05-02T10:30:37.789Z</time></trkpt><trkpt lat="43.2760983" lon="12.175005"><ele>291.0</ele><time>2026-05-02T10:30:38.788Z</time></trkpt><trkpt lat="43.2759333" lon="12.1746483"><ele>293.0</ele><time>2026-05-02T10:30:39.789Z</time></trkpt><trkpt lat="43.275755" lon="12.1742933"><ele>290.5</ele><time>2026-05-02T10:30:40.789Z</time></trkpt><trkpt lat="43.2755717" lon="12.173935"><ele>288.0</ele><time>2026-05-02T10:30:41.789Z</time></trkpt><trkpt lat="43.27539" lon="12.1735733"><ele>288.0</ele><time>2026-05-02T10:30:42.785Z</time></trkpt><trkpt lat="43.2752067" lon="12.1732067"><ele>288.0</ele><time>2026-05-02T10:30:43.789Z</time></trkpt><trkpt lat="43.27502" lon="12.1728317"><ele>288.5</ele><time>2026-05-02T10:30:44.789Z</time></trkpt><trkpt lat="43.2748333" lon="12.17245"><ele>289.0</ele><time>2026-05-02T10:30:45.789Z</time></trkpt><trkpt lat="43.2746417" lon="12.172065"><ele>289.5</ele><time>2026-05-02T10:30:46.79Z</time></trkpt><trkpt lat="43.2744583" lon="12.171695"><ele>290.0</ele><time>2026-05-02T10:30:47.786Z</time></trkpt><trkpt lat="43.2742883" lon="12.1713483"><ele>290.0</ele><time>2026-05-02T10:30:48.785Z</time></trkpt><trkpt lat="43.27413" lon="12.1710233"><ele>290.0</ele><time>2026-05-02T10:30:49.785Z</time></trkpt><trkpt lat="43.2739783" lon="12.170715"><ele>289.5</ele><time>2026-05-02T10:30:50.789Z</time></trkpt><trkpt lat="43.273835" lon="12.1704217"><ele>289.0</ele><time>2026-05-02T10:30:51.785Z</time></trkpt><trkpt lat="43.273695" lon="12.1701333"><ele>288.5</ele><time>2026-05-02T10:30:52.79Z</time></trkpt><trkpt lat="43.273555" lon="12.1698317"><ele>288.0</ele><time>2026-05-02T10:30:53.789Z</time></trkpt><trkpt lat="43.2734017" lon="12.16951"><ele>288.0</ele><time>2026-05-02T10:30:54.789Z</time></trkpt><trkpt lat="43.273245" lon="12.1691817"><ele>288.0</ele><time>2026-05-02T10:30:55.789Z</time></trkpt><trkpt lat="43.273095" lon="12.1688567"><ele>289.0</ele><time>2026-05-02T10:30:56.789Z</time></trkpt><trkpt lat="43.2729483" lon="12.168545"><ele>290.0</ele><time>2026-05-02T10:30:57.789Z</time></trkpt><trkpt lat="43.2728083" lon="12.16825"><ele>290.5</ele><time>2026-05-02T10:30:58.789Z</time></trkpt><trkpt lat="43.272675" lon="12.1679717"><ele>291.0</ele><time>2026-05-02T10:30:59.79Z</time></trkpt><trkpt lat="43.2725483" lon="12.1677083"><ele>291.0</ele><time>2026-05-02T10:31:00.79Z</time></trkpt><trkpt lat="43.2724167" lon="12.1674517"><ele>291.0</ele><time>2026-05-02T10:31:01.788Z</time></trkpt><trkpt lat="43.2722683" lon="12.1671933"><ele>290.0</ele><time>2026-05-02T10:31:02.791Z</time></trkpt><trkpt lat="43.272105" lon="12.16693"><ele>289.0</ele><time>2026-05-02T10:31:03.789Z</time></trkpt><trkpt lat="43.2719317" lon="12.1666633"><ele>289.5</ele><time>2026-05-02T10:31:04.789Z</time></trkpt><trkpt lat="43.2717617" lon="12.1664017"><ele>290.0</ele><time>2026-05-02T10:31:05.788Z</time></trkpt><trkpt lat="43.271595" lon="12.16615"><ele>289.5</ele><time>2026-05-02T10:31:06.789Z</time></trkpt><trkpt lat="43.2714367" lon="12.1659133"><ele>289.0</ele><time>2026-05-02T10:31:07.787Z</time></trkpt><trkpt lat="43.271285" lon="12.1656933"><ele>290.66666666666663</ele><time>2026-05-02T10:31:08.787Z</time></trkpt><trkpt lat="43.27113" lon="12.1654967"><ele>292.3333333333333</ele><time>2026-05-02T10:31:09.788Z</time></trkpt><trkpt lat="43.270965" lon="12.165325"><ele>294.0</ele><time>2026-05-02T10:31:10.786Z</time></trkpt><trkpt lat="43.2707967" lon="12.1651633"><ele>294.0</ele><time>2026-05-02T10:31:11.786Z</time></trkpt><trkpt lat="43.2706367" lon="12.164985"><ele>294.0</ele><time>2026-05-02T10:31:12.791Z</time></trkpt><trkpt lat="43.2704983" lon="12.1647817"><ele>294.0</ele><time>2026-05-02T10:31:13.789Z</time></trkpt><trkpt lat="43.270375" lon="12.1645517"><ele>293.6666666666667</ele><time>2026-05-02T10:31:14.789Z</time></trkpt><trkpt lat="43.2702583" lon="12.1642983"><ele>293.33333333333337</ele><time>2026-05-02T10:31:15.789Z</time></trkpt><trkpt lat="43.2701483" lon="12.1640317"><ele>293.0</ele><time>2026-05-02T10:31:16.789Z</time></trkpt><trkpt lat="43.2700467" lon="12.1637583"><ele>293.0</ele><time>2026-05-02T10:31:17.789Z</time></trkpt><trkpt lat="43.2699517" lon="12.1634867"><ele>293.0</ele><time>2026-05-02T10:31:18.789Z</time></trkpt><trkpt lat="43.2698533" lon="12.16321"><ele>293.0</ele><time>2026-05-02T10:31:19.789Z</time></trkpt><trkpt lat="43.2697583" lon="12.1629367"><ele>291.6666666666667</ele><time>2026-05-02T10:31:20.789Z</time></trkpt><trkpt lat="43.2696633" lon="12.1626583"><ele>290.3333333333333</ele><time>2026-05-02T10:31:21.791Z</time></trkpt><trkpt lat="43.2695683" lon="12.1623817"><ele>289.0</ele><time>2026-05-02T10:31:22.789Z</time></trkpt><trkpt lat="43.2694717" lon="12.1621017"><ele>289.0</ele><time>2026-05-02T10:31:23.789Z</time></trkpt><trkpt lat="43.2693783" lon="12.161815"><ele>289.0</ele><time>2026-05-02T10:31:24.789Z</time></trkpt><trkpt lat="43.2692867" lon="12.1615267"><ele>290.5</ele><time>2026-05-02T10:31:25.785Z</time></trkpt><trkpt lat="43.269195" lon="12.1612367"><ele>292.0</ele><time>2026-05-02T10:31:26.786Z</time></trkpt><trkpt lat="43.2690983" lon="12.1609433"><ele>293.0</ele><time>2026-05-02T10:31:27.79Z</time></trkpt><trkpt lat="43.2689933" lon="12.1606533"><ele>294.0</ele><time>2026-05-02T10:31:28.789Z</time></trkpt><trkpt lat="43.2688817" lon="12.160365"><ele>291.5</ele><time>2026-05-02T10:31:29.788Z</time></trkpt><trkpt lat="43.2687633" lon="12.1600783"><ele>289.0</ele><time>2026-05-02T10:31:30.789Z</time></trkpt><trkpt lat="43.26864" lon="12.159795"><ele>289.0</ele><time>2026-05-02T10:31:31.789Z</time></trkpt><trkpt lat="43.2685133" lon="12.1595117"><ele>289.0</ele><time>2026-05-02T10:31:32.789Z</time></trkpt><trkpt lat="43.26838" lon="12.1592283"><ele>288.0</ele><time>2026-05-02T10:31:33.789Z</time></trkpt><trkpt lat="43.2681083" lon="12.1586383"><ele>288.0</ele><time>2026-05-02T10:31:35.789Z</time></trkpt><trkpt lat="43.2679683" lon="12.1583383"><ele>288.0</ele><time>2026-05-02T10:31:36.785Z</time></trkpt><trkpt lat="43.2678317" lon="12.158035"><ele>289.5</ele><time>2026-05-02T10:31:37.786Z</time></trkpt><trkpt lat="43.2676967" lon="12.15773"><ele>291.0</ele><time>2026-05-02T10:31:38.789Z</time></trkpt><trkpt lat="43.26756" lon="12.1574217"><ele>292.0</ele><time>2026-05-02T10:31:39.786Z</time></trkpt><trkpt lat="43.2674217" lon="12.1571083"><ele>293.0</ele><time>2026-05-02T10:31:40.789Z</time></trkpt><trkpt lat="43.267285" lon="12.1567883"><ele>292.5</ele><time>2026-05-02T10:31:41.789Z</time></trkpt><trkpt lat="43.26715" lon="12.1564717"><ele>292.0</ele><time>2026-05-02T10:31:42.786Z</time></trkpt><trkpt lat="43.2668967" lon="12.1558483"><ele>292.0</ele><time>2026-05-02T10:31:44.786Z</time></trkpt><trkpt lat="43.2667767" lon="12.1555583"><ele>292.0</ele><time>2026-05-02T10:31:45.789Z</time></trkpt><trkpt lat="43.266665" lon="12.155285"><ele>292.0</ele><time>2026-05-02T10:31:46.787Z</time></trkpt><trkpt lat="43.2665617" lon="12.155025"><ele>292.0</ele><time>2026-05-02T10:31:47.789Z</time></trkpt><trkpt lat="43.2664633" lon="12.15478"><ele>292.0</ele><time>2026-05-02T10:31:48.79Z</time></trkpt><trkpt lat="43.2663633" lon="12.154545"><ele>293.0</ele><time>2026-05-02T10:31:49.787Z</time></trkpt><trkpt lat="43.26625" lon="12.1543017"><ele>294.0</ele><time>2026-05-02T10:31:50.789Z</time></trkpt><trkpt lat="43.266115" lon="12.15405"><ele>295.0</ele><time>2026-05-02T10:31:51.789Z</time></trkpt><trkpt lat="43.2659633" lon="12.1537983"><ele>295.0</ele><time>2026-05-02T10:31:52.789Z</time></trkpt><trkpt lat="43.2657983" lon="12.15355"><ele>295.0</ele><time>2026-05-02T10:31:53.787Z</time></trkpt><trkpt lat="43.2656333" lon="12.1533117"><ele>294.66666666666663</ele><time>2026-05-02T10:31:54.788Z</time></trkpt><trkpt lat="43.2654717" lon="12.153085"><ele>294.3333333333333</ele><time>2026-05-02T10:31:55.79Z</time></trkpt><trkpt lat="43.26532" lon="12.1528833"><ele>294.0</ele><time>2026-05-02T10:31:56.79Z</time></trkpt><trkpt lat="43.2651833" lon="12.1527"><ele>294.0</ele><time>2026-05-02T10:31:57.788Z</time></trkpt><trkpt lat="43.26506" lon="12.1525333"><ele>294.0</ele><time>2026-05-02T10:31:58.788Z</time></trkpt><trkpt lat="43.2649467" lon="12.1523833"><ele>294.0</ele><time>2026-05-02T10:31:59.789Z</time></trkpt><trkpt lat="43.2648417" lon="12.15225"><ele>294.5</ele><time>2026-05-02T10:32:00.787Z</time></trkpt><trkpt lat="43.26475" lon="12.15213"><ele>295.0</ele><time>2026-05-02T10:32:01.788Z</time></trkpt><trkpt lat="43.2646667" lon="12.152015"><ele>295.5</ele><time>2026-05-02T10:32:02.786Z</time></trkpt><trkpt lat="43.26458" lon="12.1518867"><ele>296.0</ele><time>2026-05-02T10:32:03.789Z</time></trkpt><trkpt lat="43.2644917" lon="12.1517433"><ele>296.0</ele><time>2026-05-02T10:32:04.789Z</time></trkpt><trkpt lat="43.2644017" lon="12.151595"><ele>296.0</ele><time>2026-05-02T10:32:05.789Z</time></trkpt><trkpt lat="43.2643083" lon="12.151445"><ele>296.0</ele><time>2026-05-02T10:32:06.789Z</time></trkpt><trkpt lat="43.2642067" lon="12.1512883"><ele>296.0</ele><time>2026-05-02T10:32:07.789Z</time></trkpt><trkpt lat="43.2641" lon="12.1511283"><ele>296.33333333333337</ele><time>2026-05-02T10:32:08.788Z</time></trkpt><trkpt lat="43.2639867" lon="12.150965"><ele>296.6666666666667</ele><time>2026-05-02T10:32:09.789Z</time></trkpt><trkpt lat="43.2638617" lon="12.1508"><ele>297.0</ele><time>2026-05-02T10:32:10.789Z</time></trkpt><trkpt lat="43.26372" lon="12.1506333"><ele>297.6666666666667</ele><time>2026-05-02T10:32:11.789Z</time></trkpt><trkpt lat="43.26356" lon="12.150475"><ele>298.33333333333337</ele><time>2026-05-02T10:32:12.786Z</time></trkpt><trkpt lat="43.263385" lon="12.150325"><ele>299.0</ele><time>2026-05-02T10:32:13.786Z</time></trkpt><trkpt lat="43.2632" lon="12.1501783"><ele>298.0</ele><time>2026-05-02T10:32:14.786Z</time></trkpt><trkpt lat="43.263005" lon="12.1500317"><ele>297.0</ele><time>2026-05-02T10:32:15.787Z</time></trkpt><trkpt lat="43.262805" lon="12.1498833"><ele>298.5</ele><time>2026-05-02T10:32:16.786Z</time></trkpt><trkpt lat="43.2626017" lon="12.1497317"><ele>300.0</ele><time>2026-05-02T10:32:17.786Z</time></trkpt><trkpt lat="43.262395" lon="12.149575"><ele>297.5</ele><time>2026-05-02T10:32:18.788Z</time></trkpt><trkpt lat="43.262185" lon="12.1494167"><ele>295.0</ele><time>2026-05-02T10:32:19.787Z</time></trkpt><trkpt lat="43.2619733" lon="12.1492633"><ele>295.0</ele><time>2026-05-02T10:32:20.79Z</time></trkpt><trkpt lat="43.2617667" lon="12.1491083"><ele>295.0</ele><time>2026-05-02T10:32:21.791Z</time></trkpt><trkpt lat="43.2615583" lon="12.14895"><ele>297.0</ele><time>2026-05-02T10:32:22.791Z</time></trkpt><trkpt lat="43.2613417" lon="12.1487883"><ele>299.0</ele><time>2026-05-02T10:32:23.792Z</time></trkpt><trkpt lat="43.2611183" lon="12.1486233"><ele>299.0</ele><time>2026-05-02T10:32:24.789Z</time></trkpt><trkpt lat="43.26089" lon="12.148455"><ele>299.0</ele><time>2026-05-02T10:32:25.789Z</time></trkpt><trkpt lat="43.2606567" lon="12.148285"><ele>302.5</ele><time>2026-05-02T10:32:26.787Z</time></trkpt><trkpt lat="43.2604167" lon="12.14811"><ele>306.0</ele><time>2026-05-02T10:32:27.787Z</time></trkpt><trkpt lat="43.260185" lon="12.1479383"><ele>306.0</ele><time>2026-05-02T10:32:28.788Z</time></trkpt><trkpt lat="43.259965" lon="12.1477717"><ele>306.0</ele><time>2026-05-02T10:32:29.787Z</time></trkpt><trkpt lat="43.259755" lon="12.1476117"><ele>304.5</ele><time>2026-05-02T10:32:30.786Z</time></trkpt><trkpt lat="43.259555" lon="12.14746"><ele>303.0</ele><time>2026-05-02T10:32:31.788Z</time></trkpt><trkpt lat="43.25936" lon="12.1473083"><ele>303.0</ele><time>2026-05-02T10:32:32.786Z</time></trkpt><trkpt lat="43.2591617" lon="12.1471483"><ele>303.0</ele><time>2026-05-02T10:32:33.789Z</time></trkpt><trkpt lat="43.2589583" lon="12.1469717"><ele>298.0</ele><time>2026-05-02T10:32:34.789Z</time></trkpt><trkpt lat="43.2587583" lon="12.1467717"><ele>293.0</ele><time>2026-05-02T10:32:35.789Z</time></trkpt><trkpt lat="43.2585667" lon="12.1465567"><ele>295.5</ele><time>2026-05-02T10:32:36.789Z</time></trkpt><trkpt lat="43.2583817" lon="12.1463217"><ele>298.0</ele><time>2026-05-02T10:32:37.786Z</time></trkpt><trkpt lat="43.2582067" lon="12.1460683"><ele>296.5</ele><time>2026-05-02T10:32:38.787Z</time></trkpt><trkpt lat="43.2580367" lon="12.1458"><ele>295.0</ele><time>2026-05-02T10:32:39.787Z</time></trkpt><trkpt lat="43.2578667" lon="12.14552"><ele>295.0</ele><time>2026-05-02T10:32:40.787Z</time></trkpt><trkpt lat="43.2576967" lon="12.145235"><ele>295.0</ele><time>2026-05-02T10:32:41.786Z</time></trkpt><trkpt lat="43.2575267" lon="12.14495"><ele>297.5</ele><time>2026-05-02T10:32:42.787Z</time></trkpt><trkpt lat="43.2573583" lon="12.1446633"><ele>300.0</ele><time>2026-05-02T10:32:43.786Z</time></trkpt><trkpt lat="43.257195" lon="12.144385"><ele>300.0</ele><time>2026-05-02T10:32:44.786Z</time></trkpt><trkpt lat="43.2570367" lon="12.14412"><ele>300.0</ele><time>2026-05-02T10:32:45.788Z</time></trkpt><trkpt lat="43.2568883" lon="12.1438717"><ele>300.0</ele><time>2026-05-02T10:32:46.788Z</time></trkpt><trkpt lat="43.2567467" lon="12.1436367"><ele>300.0</ele><time>2026-05-02T10:32:47.788Z</time></trkpt><trkpt lat="43.256615" lon="12.1434167"><ele>300.0</ele><time>2026-05-02T10:32:48.786Z</time></trkpt><trkpt lat="43.2564917" lon="12.1432117"><ele>301.3333333333333</ele><time>2026-05-02T10:32:49.787Z</time></trkpt><trkpt lat="43.2563733" lon="12.1430167"><ele>302.66666666666663</ele><time>2026-05-02T10:32:50.786Z</time></trkpt><trkpt lat="43.2562633" lon="12.14283"><ele>304.0</ele><time>2026-05-02T10:32:51.787Z</time></trkpt><trkpt lat="43.2561683" lon="12.1426583"><ele>304.0</ele><time>2026-05-02T10:32:52.788Z</time></trkpt><trkpt lat="43.2560867" lon="12.1425"><ele>304.0</ele><time>2026-05-02T10:32:53.787Z</time></trkpt><trkpt lat="43.2560167" lon="12.1423467"><ele>304.0</ele><time>2026-05-02T10:32:54.789Z</time></trkpt><trkpt lat="43.2559517" lon="12.142185"><ele>304.0</ele><time>2026-05-02T10:32:55.789Z</time></trkpt><trkpt lat="43.2558833" lon="12.14201"><ele>304.66666666666663</ele><time>2026-05-02T10:32:56.786Z</time></trkpt><trkpt lat="43.2558133" lon="12.1418283"><ele>305.3333333333333</ele><time>2026-05-02T10:32:57.787Z</time></trkpt><trkpt lat="43.255745" lon="12.1416417"><ele>306.0</ele><time>2026-05-02T10:32:58.787Z</time></trkpt><trkpt lat="43.2556733" lon="12.1414517"><ele>305.0</ele><time>2026-05-02T10:32:59.786Z</time></trkpt><trkpt lat="43.255605" lon="12.1412633"><ele>304.0</ele><time>2026-05-02T10:33:00.787Z</time></trkpt><trkpt lat="43.25554" lon="12.1410817"><ele>303.0</ele><time>2026-05-02T10:33:01.787Z</time></trkpt><trkpt lat="43.2554767" lon="12.1409083"><ele>302.0</ele><time>2026-05-02T10:33:02.786Z</time></trkpt><trkpt lat="43.2554167" lon="12.1407417"><ele>302.75</ele><time>2026-05-02T10:33:03.791Z</time></trkpt><trkpt lat="43.2553567" lon="12.140585"><ele>303.5</ele><time>2026-05-02T10:33:04.792Z</time></trkpt><trkpt lat="43.2553017" lon="12.1404367"><ele>304.25</ele><time>2026-05-02T10:33:05.789Z</time></trkpt><trkpt lat="43.255255" lon="12.14029"><ele>305.0</ele><time>2026-05-02T10:33:06.79Z</time></trkpt><trkpt lat="43.255215" lon="12.140145"><ele>305.0</ele><time>2026-05-02T10:33:07.79Z</time></trkpt><trkpt lat="43.2551817" lon="12.14001"><ele>305.0</ele><time>2026-05-02T10:33:08.789Z</time></trkpt><trkpt lat="43.2551567" lon="12.1398783"><ele>305.0</ele><time>2026-05-02T10:33:09.789Z</time></trkpt><trkpt lat="43.25514" lon="12.1397483"><ele>305.0</ele><time>2026-05-02T10:33:10.789Z</time></trkpt><trkpt lat="43.2551267" lon="12.13963"><ele>305.0</ele><time>2026-05-02T10:33:11.79Z</time></trkpt><trkpt lat="43.2551017" lon="12.1395267"><ele>304.8</ele><time>2026-05-02T10:33:12.789Z</time></trkpt><trkpt lat="43.2550567" lon="12.139455"><ele>304.6</ele><time>2026-05-02T10:33:13.787Z</time></trkpt><trkpt lat="43.2549967" lon="12.1393967"><ele>304.4</ele><time>2026-05-02T10:33:14.789Z</time></trkpt><trkpt lat="43.2549" lon="12.13938"><ele>304.2</ele><time>2026-05-02T10:33:15.786Z</time></trkpt><trkpt lat="43.2547817" lon="12.1394017"><ele>304.0</ele><time>2026-05-02T10:33:16.79Z</time></trkpt><trkpt lat="43.2546567" lon="12.13939"><ele>303.75</ele><time>2026-05-02T10:33:17.789Z</time></trkpt><trkpt lat="43.2545217" lon="12.1393817"><ele>303.5</ele><time>2026-05-02T10:33:18.786Z</time></trkpt><trkpt lat="43.2543717" lon="12.1393633"><ele>303.25</ele><time>2026-05-02T10:33:19.789Z</time></trkpt><trkpt lat="43.2542217" lon="12.1393417"><ele>303.0</ele><time>2026-05-02T10:33:20.789Z</time></trkpt><trkpt lat="43.2540483" lon="12.13932"><ele>302.6666666666667</ele><time>2026-05-02T10:33:21.79Z</time></trkpt><trkpt lat="43.2538533" lon="12.1392967"><ele>302.33333333333337</ele><time>2026-05-02T10:33:22.79Z</time></trkpt><trkpt lat="43.2536467" lon="12.1392667"><ele>302.0</ele><time>2026-05-02T10:33:23.79Z</time></trkpt><trkpt lat="43.2534333" lon="12.1392367"><ele>302.0</ele><time>2026-05-02T10:33:24.789Z</time></trkpt><trkpt lat="43.25322" lon="12.1392133"><ele>302.0</ele><time>2026-05-02T10:33:25.789Z</time></trkpt><trkpt lat="43.25301" lon="12.13919"><ele>302.0</ele><time>2026-05-02T10:33:26.785Z</time></trkpt><trkpt lat="43.2528067" lon="12.13917"><ele>301.0</ele><time>2026-05-02T10:33:27.789Z</time></trkpt><trkpt lat="43.25261" lon="12.1391517"><ele>300.0</ele><time>2026-05-02T10:33:28.785Z</time></trkpt><trkpt lat="43.252205" lon="12.1391133"><ele>299.6666666666667</ele><time>2026-05-02T10:33:30.785Z</time></trkpt><trkpt lat="43.251995" lon="12.1390917"><ele>299.33333333333337</ele><time>2026-05-02T10:33:31.785Z</time></trkpt><trkpt lat="43.2517817" lon="12.1390733"><ele>299.0</ele><time>2026-05-02T10:33:32.787Z</time></trkpt><trkpt lat="43.25157" lon="12.1390533"><ele>298.6666666666667</ele><time>2026-05-02T10:33:33.79Z</time></trkpt><trkpt lat="43.2513683" lon="12.1390317"><ele>298.3333333333333</ele><time>2026-05-02T10:33:34.788Z</time></trkpt><trkpt lat="43.2511817" lon="12.1390067"><ele>298.0</ele><time>2026-05-02T10:33:35.789Z</time></trkpt><trkpt lat="43.251005" lon="12.1389833"><ele>298.0</ele><time>2026-05-02T10:33:36.789Z</time></trkpt><trkpt lat="43.2508283" lon="12.1389633"><ele>298.0</ele><time>2026-05-02T10:33:37.785Z</time></trkpt><trkpt lat="43.25065" lon="12.138945"><ele>298.0</ele><time>2026-05-02T10:33:38.785Z</time></trkpt><trkpt lat="43.2504733" lon="12.1389267"><ele>298.66666666666663</ele><time>2026-05-02T10:33:39.785Z</time></trkpt><trkpt lat="43.2503" lon="12.13891"><ele>299.3333333333333</ele><time>2026-05-02T10:33:40.786Z</time></trkpt><trkpt lat="43.2501383" lon="12.1388917"><ele>300.0</ele><time>2026-05-02T10:33:41.785Z</time></trkpt><trkpt lat="43.2499867" lon="12.1388767"><ele>300.0</ele><time>2026-05-02T10:33:42.787Z</time></trkpt><trkpt lat="43.2498567" lon="12.1388483"><ele>300.0</ele><time>2026-05-02T10:33:43.786Z</time></trkpt><trkpt lat="43.2497533" lon="12.138795"><ele>300.0</ele><time>2026-05-02T10:33:44.785Z</time></trkpt><trkpt lat="43.2496817" lon="12.13871"><ele>300.0</ele><time>2026-05-02T10:33:45.785Z</time></trkpt><trkpt lat="43.24965" lon="12.1386117"><ele>300.0</ele><time>2026-05-02T10:33:46.788Z</time></trkpt><trkpt lat="43.2496517" lon="12.138505"><ele>301.25</ele><time>2026-05-02T10:33:47.788Z</time></trkpt><trkpt lat="43.2496983" lon="12.138355"><ele>302.5</ele><time>2026-05-02T10:33:48.789Z</time></trkpt><trkpt lat="43.2497633" lon="12.1381783"><ele>303.75</ele><time>2026-05-02T10:33:49.789Z</time></trkpt><trkpt lat="43.24983" lon="12.137985"><ele>305.0</ele><time>2026-05-02T10:33:50.79Z</time></trkpt><trkpt lat="43.2498867" lon="12.13779"><ele>305.0</ele><time>2026-05-02T10:33:51.789Z</time></trkpt><trkpt lat="43.2499467" lon="12.1375883"><ele>305.0</ele><time>2026-05-02T10:33:52.789Z</time></trkpt><trkpt lat="43.250015" lon="12.1373817"><ele>305.0</ele><time>2026-05-02T10:33:53.785Z</time></trkpt><trkpt lat="43.2501033" lon="12.1371717"><ele>306.6666666666667</ele><time>2026-05-02T10:33:54.789Z</time></trkpt><trkpt lat="43.25022" lon="12.1369517"><ele>308.3333333333333</ele><time>2026-05-02T10:33:55.789Z</time></trkpt><trkpt lat="43.2503483" lon="12.1367367"><ele>310.0</ele><time>2026-05-02T10:33:56.79Z</time></trkpt><trkpt lat="43.2504683" lon="12.1365233"><ele>308.66666666666663</ele><time>2026-05-02T10:33:57.789Z</time></trkpt><trkpt lat="43.250575" lon="12.1363"><ele>307.3333333333333</ele><time>2026-05-02T10:33:58.79Z</time></trkpt><trkpt lat="43.2506733" lon="12.13606"><ele>306.0</ele><time>2026-05-02T10:33:59.789Z</time></trkpt><trkpt lat="43.2507633" lon="12.1358017"><ele>309.6666666666667</ele><time>2026-05-02T10:34:00.789Z</time></trkpt><trkpt lat="43.25085" lon="12.1355383"><ele>313.33333333333337</ele><time>2026-05-02T10:34:01.789Z</time></trkpt><trkpt lat="43.2509333" lon="12.135285"><ele>317.0</ele><time>2026-05-02T10:34:02.789Z</time></trkpt><trkpt lat="43.251015" lon="12.1350483"><ele>322.0</ele><time>2026-05-02T10:34:03.789Z</time></trkpt><trkpt lat="43.2510933" lon="12.13483"><ele>327.0</ele><time>2026-05-02T10:34:04.789Z</time></trkpt><trkpt lat="43.2511833" lon="12.1346333"><ele>332.0</ele><time>2026-05-02T10:34:05.789Z</time></trkpt><trkpt lat="43.2513" lon="12.13447"><ele>332.0</ele><time>2026-05-02T10:34:06.789Z</time></trkpt><trkpt lat="43.251425" lon="12.1343333"><ele>332.0</ele><time>2026-05-02T10:34:07.79Z</time></trkpt><trkpt lat="43.2515467" lon="12.13418"><ele>332.0</ele><time>2026-05-02T10:34:08.789Z</time></trkpt><trkpt lat="43.2516567" lon="12.1339867"><ele>330.33333333333337</ele><time>2026-05-02T10:34:09.791Z</time></trkpt><trkpt lat="43.2517617" lon="12.13376"><ele>328.6666666666667</ele><time>2026-05-02T10:34:10.79Z</time></trkpt><trkpt lat="43.2518767" lon="12.1335383"><ele>327.0</ele><time>2026-05-02T10:34:11.788Z</time></trkpt><trkpt lat="43.252005" lon="12.13335"><ele>329.0</ele><time>2026-05-02T10:34:12.79Z</time></trkpt><trkpt lat="43.2521317" lon="12.13319"><ele>331.0</ele><time>2026-05-02T10:34:13.789Z</time></trkpt><trkpt lat="43.2522417" lon="12.1330417"><ele>333.0</ele><time>2026-05-02T10:34:14.789Z</time></trkpt><trkpt lat="43.2523217" lon="12.1328833"><ele>331.0</ele><time>2026-05-02T10:34:15.789Z</time></trkpt><trkpt lat="43.2523583" lon="12.13272"><ele>329.0</ele><time>2026-05-02T10:34:16.79Z</time></trkpt><trkpt lat="43.25235" lon="12.1325283"><ele>327.0</ele><time>2026-05-02T10:34:17.788Z</time></trkpt><trkpt lat="43.2523067" lon="12.1323167"><ele>325.0</ele><time>2026-05-02T10:34:18.789Z</time></trkpt><trkpt lat="43.2522567" lon="12.1321117"><ele>325.0</ele><time>2026-05-02T10:34:19.789Z</time></trkpt><trkpt lat="43.2522083" lon="12.1319417"><ele>325.0</ele><time>2026-05-02T10:34:20.79Z</time></trkpt><trkpt lat="43.2521383" lon="12.1318217"><ele>325.0</ele><time>2026-05-02T10:34:21.789Z</time></trkpt><trkpt lat="43.2520317" lon="12.1317483"><ele>325.0</ele><time>2026-05-02T10:34:22.789Z</time></trkpt><trkpt lat="43.25188" lon="12.1317133"><ele>325.0</ele><time>2026-05-02T10:34:23.789Z</time></trkpt><trkpt lat="43.251715" lon="12.1316917"><ele>325.0</ele><time>2026-05-02T10:34:24.789Z</time></trkpt><trkpt lat="43.2515483" lon="12.13166"><ele>325.0</ele><time>2026-05-02T10:34:25.79Z</time></trkpt><trkpt lat="43.2513917" lon="12.1316233"><ele>328.0</ele><time>2026-05-02T10:34:26.789Z</time></trkpt><trkpt lat="43.251245" lon="12.131585"><ele>331.0</ele><time>2026-05-02T10:34:27.79Z</time></trkpt><trkpt lat="43.25113" lon="12.1315267"><ele>334.0</ele><time>2026-05-02T10:34:28.789Z</time></trkpt><trkpt lat="43.251065" lon="12.1314333"><ele>337.0</ele><time>2026-05-02T10:34:29.789Z</time></trkpt><trkpt lat="43.2510417" lon="12.13131"><ele>337.0</ele><time>2026-05-02T10:34:30.789Z</time></trkpt><trkpt lat="43.2510467" lon="12.1311667"><ele>337.0</ele><time>2026-05-02T10:34:31.789Z</time></trkpt><trkpt lat="43.25109" lon="12.1310117"><ele>337.0</ele><time>2026-05-02T10:34:32.79Z</time></trkpt><trkpt lat="43.2511767" lon="12.1308783"><ele>337.0</ele><time>2026-05-02T10:34:33.785Z</time></trkpt><trkpt lat="43.2512483" lon="12.130765"><ele>337.5</ele><time>2026-05-02T10:34:34.789Z</time></trkpt><trkpt lat="43.251305" lon="12.1306517"><ele>338.0</ele><time>2026-05-02T10:34:35.789Z</time></trkpt><trkpt lat="43.2513333" lon="12.1305583"><ele>338.5</ele><time>2026-05-02T10:34:36.789Z</time></trkpt><trkpt lat="43.251305" lon="12.1304433"><ele>339.0</ele><time>2026-05-02T10:34:38.789Z</time></trkpt><trkpt lat="43.2512333" lon="12.1304483"><ele>339.5</ele><time>2026-05-02T10:34:39.787Z</time></trkpt><trkpt lat="43.2511483" lon="12.13051"><ele>340.0</ele><time>2026-05-02T10:34:40.786Z</time></trkpt><trkpt lat="43.2510383" lon="12.1305767"><ele>340.0</ele><time>2026-05-02T10:34:41.786Z</time></trkpt><trkpt lat="43.2508467" lon="12.1306867"><ele>340.0</ele><time>2026-05-02T10:34:42.787Z</time></trkpt><trkpt lat="43.250645" lon="12.1307683"><ele>340.0</ele><time>2026-05-02T10:34:43.787Z</time></trkpt><trkpt lat="43.25041" lon="12.1308283"><ele>341.66666666666663</ele><time>2026-05-02T10:34:44.788Z</time></trkpt><trkpt lat="43.2501733" lon="12.1308367"><ele>343.3333333333333</ele><time>2026-05-02T10:34:45.788Z</time></trkpt><trkpt lat="43.2499717" lon="12.1308583"><ele>345.0</ele><time>2026-05-02T10:34:46.788Z</time></trkpt><trkpt lat="43.249755" lon="12.130895"><ele>348.3333333333333</ele><time>2026-05-02T10:34:47.787Z</time></trkpt><trkpt lat="43.24954" lon="12.1309867"><ele>351.66666666666663</ele><time>2026-05-02T10:34:48.789Z</time></trkpt><trkpt lat="43.249405" lon="12.1310667"><ele>355.0</ele><time>2026-05-02T10:34:49.786Z</time></trkpt><trkpt lat="43.2493033" lon="12.1311067"><ele>355.0</ele><time>2026-05-02T10:34:50.79Z</time></trkpt><trkpt lat="43.24921" lon="12.1311067"><ele>355.0</ele><time>2026-05-02T10:34:51.79Z</time></trkpt><trkpt lat="43.24914" lon="12.1310483"><ele>355.0</ele><time>2026-05-02T10:34:52.789Z</time></trkpt><trkpt lat="43.2490983" lon="12.130965"><ele>355.0</ele><time>2026-05-02T10:34:53.79Z</time></trkpt><trkpt lat="43.249265" lon="12.1307883"><ele>358.0</ele><time>2026-05-02T10:34:54.789Z</time></trkpt><trkpt lat="43.249365" lon="12.1306133"><ele>361.0</ele><time>2026-05-02T10:34:55.785Z</time></trkpt><trkpt lat="43.2494717" lon="12.1304117"><ele>364.0</ele><time>2026-05-02T10:34:56.789Z</time></trkpt><trkpt lat="43.2495567" lon="12.1301883"><ele>364.0</ele><time>2026-05-02T10:34:57.79Z</time></trkpt><trkpt lat="43.2495783" lon="12.1299617"><ele>364.0</ele><time>2026-05-02T10:34:58.789Z</time></trkpt><trkpt lat="43.24954" lon="12.12973"><ele>364.0</ele><time>2026-05-02T10:34:59.788Z</time></trkpt><trkpt lat="43.2494667" lon="12.1295167"><ele>365.5</ele><time>2026-05-02T10:35:00.791Z</time></trkpt><trkpt lat="43.24938" lon="12.1293633"><ele>367.0</ele><time>2026-05-02T10:35:01.789Z</time></trkpt><trkpt lat="43.2492817" lon="12.1292733"><ele>368.5</ele><time>2026-05-02T10:35:02.789Z</time></trkpt><trkpt lat="43.2491767" lon="12.12925"><ele>370.0</ele><time>2026-05-02T10:35:03.789Z</time></trkpt><trkpt lat="43.24907" lon="12.12931"><ele>370.0</ele><time>2026-05-02T10:35:04.789Z</time></trkpt><trkpt lat="43.2489767" lon="12.1294633"><ele>370.0</ele><time>2026-05-02T10:35:05.789Z</time></trkpt><trkpt lat="43.2489033" lon="12.129625"><ele>370.0</ele><time>2026-05-02T10:35:06.789Z</time></trkpt><trkpt lat="43.2488283" lon="12.1297017"><ele>370.0</ele><time>2026-05-02T10:35:07.786Z</time></trkpt><trkpt lat="43.2487483" lon="12.1297217"><ele>372.75</ele><time>2026-05-02T10:35:08.787Z</time></trkpt><trkpt lat="43.2486833" lon="12.1296667"><ele>375.5</ele><time>2026-05-02T10:35:09.787Z</time></trkpt><trkpt lat="43.24863" lon="12.12958"><ele>378.25</ele><time>2026-05-02T10:35:10.787Z</time></trkpt><trkpt lat="43.248685" lon="12.1293217"><ele>381.0</ele><time>2026-05-02T10:35:11.786Z</time></trkpt><trkpt lat="43.2487433" lon="12.1290433"><ele>383.25</ele><time>2026-05-02T10:35:12.787Z</time></trkpt><trkpt lat="43.2487917" lon="12.1288033"><ele>385.5</ele><time>2026-05-02T10:35:13.789Z</time></trkpt><trkpt lat="43.248805" lon="12.1286033"><ele>387.75</ele><time>2026-05-02T10:35:14.789Z</time></trkpt><trkpt lat="43.248785" lon="12.1284517"><ele>390.0</ele><time>2026-05-02T10:35:15.79Z</time></trkpt><trkpt lat="43.2487267" lon="12.1283567"><ele>390.0</ele><time>2026-05-02T10:35:16.789Z</time></trkpt><trkpt lat="43.248645" lon="12.1283167"><ele>390.0</ele><time>2026-05-02T10:35:17.789Z</time></trkpt><trkpt lat="43.2485467" lon="12.1283267"><ele>390.0</ele><time>2026-05-02T10:35:18.789Z</time></trkpt><trkpt lat="43.2484583" lon="12.1283483"><ele>390.0</ele><time>2026-05-02T10:35:19.789Z</time></trkpt><trkpt lat="43.248345" lon="12.1284517"><ele>390.0</ele><time>2026-05-02T10:35:20.786Z</time></trkpt><trkpt lat="43.2482233" lon="12.1285967"><ele>391.0</ele><time>2026-05-02T10:35:21.787Z</time></trkpt><trkpt lat="43.2481083" lon="12.1287617"><ele>392.0</ele><time>2026-05-02T10:35:22.788Z</time></trkpt><trkpt lat="43.2480033" lon="12.1288817"><ele>393.0</ele><time>2026-05-02T10:35:23.79Z</time></trkpt><trkpt lat="43.24791" lon="12.1289817"><ele>394.0</ele><time>2026-05-02T10:35:24.789Z</time></trkpt><trkpt lat="43.24782" lon="12.1290683"><ele>394.0</ele><time>2026-05-02T10:35:25.79Z</time></trkpt><trkpt lat="43.2477217" lon="12.129125"><ele>394.0</ele><time>2026-05-02T10:35:26.786Z</time></trkpt><trkpt lat="43.2476083" lon="12.12915"><ele>394.0</ele><time>2026-05-02T10:35:27.786Z</time></trkpt><trkpt lat="43.2474867" lon="12.1291383"><ele>394.0</ele><time>2026-05-02T10:35:28.787Z</time></trkpt><trkpt lat="43.2473617" lon="12.12912"><ele>396.25</ele><time>2026-05-02T10:35:29.786Z</time></trkpt><trkpt lat="43.2472367" lon="12.12913"><ele>398.5</ele><time>2026-05-02T10:35:30.787Z</time></trkpt><trkpt lat="43.24711" lon="12.12918"><ele>400.75</ele><time>2026-05-02T10:35:31.787Z</time></trkpt><trkpt lat="43.2469733" lon="12.1292667"><ele>403.0</ele><time>2026-05-02T10:35:32.786Z</time></trkpt><trkpt lat="43.2468317" lon="12.1293817"><ele>403.0</ele><time>2026-05-02T10:35:33.79Z</time></trkpt><trkpt lat="43.2466983" lon="12.1295067"><ele>403.0</ele><time>2026-05-02T10:35:34.789Z</time></trkpt><trkpt lat="43.24657" lon="12.1296333"><ele>403.0</ele><time>2026-05-02T10:35:35.789Z</time></trkpt><trkpt lat="43.2464517" lon="12.1297383"><ele>405.0</ele><time>2026-05-02T10:35:36.789Z</time></trkpt><trkpt lat="43.2463383" lon="12.1298133"><ele>407.0</ele><time>2026-05-02T10:35:37.787Z</time></trkpt><trkpt lat="43.24623" lon="12.1298467"><ele>409.0</ele><time>2026-05-02T10:35:38.789Z</time></trkpt><trkpt lat="43.2461383" lon="12.129815"><ele>411.0</ele><time>2026-05-02T10:35:39.789Z</time></trkpt><trkpt lat="43.246085" lon="12.1297183"><ele>413.0</ele><time>2026-05-02T10:35:40.79Z</time></trkpt><trkpt lat="43.246065" lon="12.1295533"><ele>413.0</ele><time>2026-05-02T10:35:41.789Z</time></trkpt><trkpt lat="43.2460933" lon="12.1293483"><ele>413.0</ele><time>2026-05-02T10:35:42.789Z</time></trkpt><trkpt lat="43.2461267" lon="12.1291283"><ele>413.0</ele><time>2026-05-02T10:35:43.789Z</time></trkpt><trkpt lat="43.2461483" lon="12.1288567"><ele>417.0</ele><time>2026-05-02T10:35:44.789Z</time></trkpt><trkpt lat="43.2461483" lon="12.12854"><ele>421.0</ele><time>2026-05-02T10:35:45.789Z</time></trkpt><trkpt lat="43.2461233" lon="12.1282317"><ele>423.6666666666667</ele><time>2026-05-02T10:35:46.789Z</time></trkpt><trkpt lat="43.2460917" lon="12.1279433"><ele>426.33333333333337</ele><time>2026-05-02T10:35:47.789Z</time></trkpt><trkpt lat="43.2460783" lon="12.1276817"><ele>429.0</ele><time>2026-05-02T10:35:48.789Z</time></trkpt><trkpt lat="43.2460933" lon="12.1274367"><ele>432.33333333333337</ele><time>2026-05-02T10:35:49.789Z</time></trkpt><trkpt lat="43.246145" lon="12.127205"><ele>435.6666666666667</ele><time>2026-05-02T10:35:50.786Z</time></trkpt><trkpt lat="43.246225" lon="12.1269933"><ele>439.0</ele><time>2026-05-02T10:35:51.791Z</time></trkpt><trkpt lat="43.2463117" lon="12.1268083"><ele>439.0</ele><time>2026-05-02T10:35:52.789Z</time></trkpt><trkpt lat="43.24639" lon="12.126635"><ele>439.0</ele><time>2026-05-02T10:35:53.789Z</time></trkpt><trkpt lat="43.2464417" lon="12.12646"><ele>439.0</ele><time>2026-05-02T10:35:54.79Z</time></trkpt><trkpt lat="43.2464583" lon="12.1262517"><ele>439.0</ele><time>2026-05-02T10:35:55.79Z</time></trkpt><trkpt lat="43.24644" lon="12.1260133"><ele>439.75</ele><time>2026-05-02T10:35:56.789Z</time></trkpt><trkpt lat="43.2464083" lon="12.12578"><ele>440.5</ele><time>2026-05-02T10:35:57.79Z</time></trkpt><trkpt lat="43.2463783" lon="12.125585"><ele>441.25</ele><time>2026-05-02T10:35:58.789Z</time></trkpt><trkpt lat="43.2463717" lon="12.125415"><ele>442.0</ele><time>2026-05-02T10:35:59.79Z</time></trkpt><trkpt lat="43.246405" lon="12.1252483"><ele>441.33333333333337</ele><time>2026-05-02T10:36:00.79Z</time></trkpt><trkpt lat="43.2464833" lon="12.12508"><ele>440.66666666666663</ele><time>2026-05-02T10:36:01.789Z</time></trkpt><trkpt lat="43.2465867" lon="12.1248833"><ele>440.0</ele><time>2026-05-02T10:36:02.789Z</time></trkpt><trkpt lat="43.2467367" lon="12.1243917"><ele>440.0</ele><time>2026-05-02T10:36:04.79Z</time></trkpt><trkpt lat="43.2467917" lon="12.1241633"><ele>440.0</ele><time>2026-05-02T10:36:05.789Z</time></trkpt><trkpt lat="43.2468617" lon="12.1239967"><ele>440.0</ele><time>2026-05-02T10:36:06.789Z</time></trkpt><trkpt lat="43.2469517" lon="12.1238767"><ele>440.0</ele><time>2026-05-02T10:36:07.789Z</time></trkpt><trkpt lat="43.2470717" lon="12.1237983"><ele>441.0</ele><time>2026-05-02T10:36:08.789Z</time></trkpt><trkpt lat="43.247225" lon="12.1237617"><ele>442.0</ele><time>2026-05-02T10:36:09.789Z</time></trkpt><trkpt lat="43.2473683" lon="12.1237133"><ele>443.0</ele><time>2026-05-02T10:36:10.789Z</time></trkpt><trkpt lat="43.247485" lon="12.123615"><ele>444.0</ele><time>2026-05-02T10:36:11.789Z</time></trkpt><trkpt lat="43.24757" lon="12.1234783"><ele>444.0</ele><time>2026-05-02T10:36:12.789Z</time></trkpt><trkpt lat="43.2476167" lon="12.123295"><ele>444.0</ele><time>2026-05-02T10:36:13.79Z</time></trkpt><trkpt lat="43.2476333" lon="12.12308"><ele>444.0</ele><time>2026-05-02T10:36:14.79Z</time></trkpt><trkpt lat="43.24766" lon="12.1228433"><ele>448.33333333333337</ele><time>2026-05-02T10:36:15.791Z</time></trkpt><trkpt lat="43.2477183" lon="12.122615"><ele>452.6666666666667</ele><time>2026-05-02T10:36:16.789Z</time></trkpt><trkpt lat="43.2477767" lon="12.1223783"><ele>457.0</ele><time>2026-05-02T10:36:17.789Z</time></trkpt><trkpt lat="43.2477983" lon="12.1221083"><ele>459.0</ele><time>2026-05-02T10:36:18.789Z</time></trkpt><trkpt lat="43.2478083" lon="12.12183"><ele>461.0</ele><time>2026-05-02T10:36:19.789Z</time></trkpt><trkpt lat="43.2478383" lon="12.121575"><ele>463.0</ele><time>2026-05-02T10:36:20.792Z</time></trkpt><trkpt lat="43.2478767" lon="12.1213583"><ele>463.6666666666667</ele><time>2026-05-02T10:36:21.789Z</time></trkpt><trkpt lat="43.24788" lon="12.12115"><ele>464.33333333333337</ele><time>2026-05-02T10:36:22.79Z</time></trkpt><trkpt lat="43.2478333" lon="12.120925"><ele>465.0</ele><time>2026-05-02T10:36:23.789Z</time></trkpt><trkpt lat="43.2477317" lon="12.1206883"><ele>465.0</ele><time>2026-05-02T10:36:24.789Z</time></trkpt><trkpt lat="43.247605" lon="12.1204367"><ele>465.0</ele><time>2026-05-02T10:36:25.789Z</time></trkpt><trkpt lat="43.2474867" lon="12.1201917"><ele>465.0</ele><time>2026-05-02T10:36:26.789Z</time></trkpt><trkpt lat="43.2473833" lon="12.1199633"><ele>467.33333333333337</ele><time>2026-05-02T10:36:27.789Z</time></trkpt><trkpt lat="43.2473017" lon="12.11975"><ele>469.6666666666667</ele><time>2026-05-02T10:36:28.789Z</time></trkpt><trkpt lat="43.2472533" lon="12.1195567"><ele>472.0</ele><time>2026-05-02T10:36:29.789Z</time></trkpt><trkpt lat="43.2472383" lon="12.1193833"><ele>472.0</ele><time>2026-05-02T10:36:30.789Z</time></trkpt><trkpt lat="43.247255" lon="12.1192283"><ele>472.00000000000006</ele><time>2026-05-02T10:36:31.789Z</time></trkpt><trkpt lat="43.2473083" lon="12.1191083"><ele>472.00000000000006</ele><time>2026-05-02T10:36:32.79Z</time></trkpt><trkpt lat="43.2474" lon="12.1190333"><ele>472.0</ele><time>2026-05-02T10:36:33.788Z</time></trkpt><trkpt lat="43.2475217" lon="12.1190017"><ele>472.0</ele><time>2026-05-02T10:36:34.788Z</time></trkpt><trkpt lat="43.2476333" lon="12.1189333"><ele>475.0</ele><time>2026-05-02T10:36:35.788Z</time></trkpt><trkpt lat="43.2477033" lon="12.11881"><ele>478.0</ele><time>2026-05-02T10:36:36.788Z</time></trkpt><trkpt lat="43.247725" lon="12.118645"><ele>481.0</ele><time>2026-05-02T10:36:37.789Z</time></trkpt><trkpt lat="43.2477017" lon="12.1184383"><ele>484.0</ele><time>2026-05-02T10:36:38.788Z</time></trkpt><trkpt lat="43.2476767" lon="12.1182083"><ele>487.0</ele><time>2026-05-02T10:36:39.788Z</time></trkpt><trkpt lat="43.2476817" lon="12.1179633"><ele>490.0</ele><time>2026-05-02T10:36:40.789Z</time></trkpt><trkpt lat="43.2477117" lon="12.117715"><ele>493.0</ele><time>2026-05-02T10:36:41.785Z</time></trkpt><trkpt lat="43.2477633" lon="12.1174833"><ele>499.0</ele><time>2026-05-02T10:36:42.789Z</time></trkpt><trkpt lat="43.24784" lon="12.1172833"><ele>505.0</ele><time>2026-05-02T10:36:43.786Z</time></trkpt><trkpt lat="43.2479467" lon="12.1171267"><ele>511.0</ele><time>2026-05-02T10:36:44.785Z</time></trkpt><trkpt lat="43.2480567" lon="12.1169883"><ele>505.0</ele><time>2026-05-02T10:36:45.789Z</time></trkpt><trkpt lat="43.2481517" lon="12.1168217"><ele>499.0</ele><time>2026-05-02T10:36:46.79Z</time></trkpt><trkpt lat="43.248215" lon="12.1165983"><ele>493.0</ele><time>2026-05-02T10:36:47.789Z</time></trkpt><trkpt lat="43.248245" lon="12.11634"><ele>493.0</ele><time>2026-05-02T10:36:48.788Z</time></trkpt><trkpt lat="43.248275" lon="12.116075"><ele>493.0</ele><time>2026-05-02T10:36:49.788Z</time></trkpt><trkpt lat="43.2483467" lon="12.1158083"><ele>493.0</ele><time>2026-05-02T10:36:50.788Z</time></trkpt><trkpt lat="43.24845" lon="12.1155467"><ele>499.33333333333337</ele><time>2026-05-02T10:36:51.788Z</time></trkpt><trkpt lat="43.2485683" lon="12.1153117"><ele>505.66666666666663</ele><time>2026-05-02T10:36:52.789Z</time></trkpt><trkpt lat="43.24869" lon="12.1151083"><ele>512.0</ele><time>2026-05-02T10:36:53.789Z</time></trkpt><trkpt lat="43.2488067" lon="12.1149367"><ele>517.3333333333333</ele><time>2026-05-02T10:36:54.789Z</time></trkpt><trkpt lat="43.2489083" lon="12.1147767"><ele>522.6666666666666</ele><time>2026-05-02T10:36:55.79Z</time></trkpt><trkpt lat="43.2489767" lon="12.1145933"><ele>528.0</ele><time>2026-05-02T10:36:56.79Z</time></trkpt><trkpt lat="43.2490067" lon="12.1143767"><ele>526.0</ele><time>2026-05-02T10:36:57.787Z</time></trkpt><trkpt lat="43.2490117" lon="12.1141217"><ele>524.0</ele><time>2026-05-02T10:36:58.788Z</time></trkpt><trkpt lat="43.2489733" lon="12.1138467"><ele>522.0</ele><time>2026-05-02T10:36:59.789Z</time></trkpt><trkpt lat="43.24894" lon="12.1135867"><ele>522.0</ele><time>2026-05-02T10:37:00.789Z</time></trkpt><trkpt lat="43.248905" lon="12.1133533"><ele>522.0</ele><time>2026-05-02T10:37:01.79Z</time></trkpt><trkpt lat="43.2488267" lon="12.11313"><ele>522.0</ele><time>2026-05-02T10:37:02.789Z</time></trkpt><trkpt lat="43.2487267" lon="12.1129133"><ele>517.6666666666666</ele><time>2026-05-02T10:37:03.788Z</time></trkpt><trkpt lat="43.2486067" lon="12.1127283"><ele>513.3333333333333</ele><time>2026-05-02T10:37:04.789Z</time></trkpt><trkpt lat="43.24846" lon="12.112585"><ele>509.0</ele><time>2026-05-02T10:37:05.789Z</time></trkpt><trkpt lat="43.248305" lon="12.11248"><ele>513.3333333333333</ele><time>2026-05-02T10:37:06.789Z</time></trkpt><trkpt lat="43.2481583" lon="12.1123833"><ele>517.6666666666666</ele><time>2026-05-02T10:37:07.789Z</time></trkpt><trkpt lat="43.24804" lon="12.1122467"><ele>522.0</ele><time>2026-05-02T10:37:08.79Z</time></trkpt><trkpt lat="43.2479267" lon="12.1120683"><ele>522.0</ele><time>2026-05-02T10:37:09.789Z</time></trkpt><trkpt lat="43.2478283" lon="12.1118633"><ele>522.0</ele><time>2026-05-02T10:37:10.79Z</time></trkpt><trkpt lat="43.24771" lon="12.111665"><ele>522.0</ele><time>2026-05-02T10:37:11.789Z</time></trkpt><trkpt lat="43.2475683" lon="12.11149"><ele>523.3333333333334</ele><time>2026-05-02T10:37:12.789Z</time></trkpt><trkpt lat="43.2474267" lon="12.111315"><ele>524.6666666666667</ele><time>2026-05-02T10:37:13.786Z</time></trkpt><trkpt lat="43.2472833" lon="12.1111283"><ele>526.0</ele><time>2026-05-02T10:37:14.789Z</time></trkpt><trkpt lat="43.2471383" lon="12.1109517"><ele>526.0</ele><time>2026-05-02T10:37:15.789Z</time></trkpt><trkpt lat="43.24698" lon="12.1108033"><ele>526.0</ele><time>2026-05-02T10:37:16.786Z</time></trkpt><trkpt lat="43.246795" lon="12.1106867"><ele>526.0</ele><time>2026-05-02T10:37:17.785Z</time></trkpt><trkpt lat="43.2466017" lon="12.1105817"><ele>524.6666666666667</ele><time>2026-05-02T10:37:18.786Z</time></trkpt><trkpt lat="43.2464317" lon="12.1104583"><ele>523.3333333333334</ele><time>2026-05-02T10:37:19.788Z</time></trkpt><trkpt lat="43.2462917" lon="12.1103183"><ele>522.0</ele><time>2026-05-02T10:37:20.785Z</time></trkpt><trkpt lat="43.2461417" lon="12.1101983"><ele>522.0</ele><time>2026-05-02T10:37:21.789Z</time></trkpt><trkpt lat="43.2460033" lon="12.11012"><ele>522.0</ele><time>2026-05-02T10:37:22.789Z</time></trkpt><trkpt lat="43.2458717" lon="12.11009"><ele>522.0</ele><time>2026-05-02T10:37:23.789Z</time></trkpt><trkpt lat="43.245725" lon="12.1101217"><ele>522.0</ele><time>2026-05-02T10:37:24.789Z</time></trkpt><trkpt lat="43.2455817" lon="12.11019"><ele>524.0</ele><time>2026-05-02T10:37:25.785Z</time></trkpt><trkpt lat="43.24545" lon="12.1102533"><ele>526.0</ele><time>2026-05-02T10:37:26.789Z</time></trkpt><trkpt lat="43.2453333" lon="12.1102867"><ele>528.0</ele><time>2026-05-02T10:37:27.785Z</time></trkpt><trkpt lat="43.24524" lon="12.11027"><ele>530.0</ele><time>2026-05-02T10:37:28.785Z</time></trkpt><trkpt lat="43.24518" lon="12.1101667"><ele>532.0</ele><time>2026-05-02T10:37:29.788Z</time></trkpt><trkpt lat="43.245115" lon="12.1100167"><ele>535.75</ele><time>2026-05-02T10:37:30.787Z</time></trkpt><trkpt lat="43.2450267" lon="12.1098883"><ele>539.5</ele><time>2026-05-02T10:37:31.786Z</time></trkpt><trkpt lat="43.2449183" lon="12.10982"><ele>543.25</ele><time>2026-05-02T10:37:32.789Z</time></trkpt><trkpt lat="43.2447883" lon="12.1098217"><ele>547.0</ele><time>2026-05-02T10:37:33.786Z</time></trkpt><trkpt lat="43.2446583" lon="12.1098483"><ele>547.0</ele><time>2026-05-02T10:37:34.786Z</time></trkpt><trkpt lat="43.2445367" lon="12.10986"><ele>547.0</ele><time>2026-05-02T10:37:35.785Z</time></trkpt><trkpt lat="43.2444433" lon="12.1098183"><ele>547.0</ele><time>2026-05-02T10:37:36.785Z</time></trkpt><trkpt lat="43.244385" lon="12.1097017"><ele>547.0</ele><time>2026-05-02T10:37:37.786Z</time></trkpt><trkpt lat="43.2443683" lon="12.1095267"><ele>547.0</ele><time>2026-05-02T10:37:38.789Z</time></trkpt><trkpt lat="43.2443583" lon="12.1093067"><ele>547.0</ele><time>2026-05-02T10:37:39.789Z</time></trkpt><trkpt lat="43.2443083" lon="12.1090767"><ele>547.0</ele><time>2026-05-02T10:37:40.788Z</time></trkpt><trkpt lat="43.24422" lon="12.10886"><ele>554.3333333333334</ele><time>2026-05-02T10:37:41.789Z</time></trkpt><trkpt lat="43.2440917" lon="12.108665"><ele>561.6666666666666</ele><time>2026-05-02T10:37:42.788Z</time></trkpt><trkpt lat="43.243955" lon="12.1084817"><ele>569.0</ele><time>2026-05-02T10:37:43.788Z</time></trkpt><trkpt lat="43.2438183" lon="12.108295"><ele>561.3333333333333</ele><time>2026-05-02T10:37:44.789Z</time></trkpt><trkpt lat="43.243675" lon="12.1080967"><ele>553.6666666666666</ele><time>2026-05-02T10:37:45.789Z</time></trkpt><trkpt lat="43.2435283" lon="12.1078667"><ele>546.0</ele><time>2026-05-02T10:37:46.789Z</time></trkpt><trkpt lat="43.243375" lon="12.1076083"><ele>536.0</ele><time>2026-05-02T10:37:47.788Z</time></trkpt><trkpt lat="43.243225" lon="12.1073283"><ele>526.0</ele><time>2026-05-02T10:37:48.789Z</time></trkpt><trkpt lat="43.2430733" lon="12.10704"><ele>538.0</ele><time>2026-05-02T10:37:49.789Z</time></trkpt><trkpt lat="43.2429317" lon="12.1067533"><ele>550.0</ele><time>2026-05-02T10:37:50.79Z</time></trkpt><trkpt lat="43.2427967" lon="12.10647"><ele>550.0</ele><time>2026-05-02T10:37:51.789Z</time></trkpt><trkpt lat="43.2426833" lon="12.1061967"><ele>550.0</ele><time>2026-05-02T10:37:52.789Z</time></trkpt><trkpt lat="43.24258" lon="12.105945"><ele>550.0</ele><time>2026-05-02T10:37:53.789Z</time></trkpt><trkpt lat="43.2424683" lon="12.1057"><ele>550.6666666666667</ele><time>2026-05-02T10:37:54.789Z</time></trkpt><trkpt lat="43.2423333" lon="12.1054567"><ele>551.3333333333334</ele><time>2026-05-02T10:37:55.789Z</time></trkpt><trkpt lat="43.24218" lon="12.1052383"><ele>552.0</ele><time>2026-05-02T10:37:56.785Z</time></trkpt><trkpt lat="43.24205" lon="12.1050533"><ele>552.0</ele><time>2026-05-02T10:37:57.786Z</time></trkpt><trkpt lat="43.2419317" lon="12.1049183"><ele>552.0</ele><time>2026-05-02T10:37:58.786Z</time></trkpt><trkpt lat="43.2418083" lon="12.1048433"><ele>552.0</ele><time>2026-05-02T10:37:59.787Z</time></trkpt><trkpt lat="43.241675" lon="12.104835"><ele>552.0</ele><time>2026-05-02T10:38:00.787Z</time></trkpt><trkpt lat="43.2415467" lon="12.1049"><ele>551.6666666666666</ele><time>2026-05-02T10:38:01.786Z</time></trkpt><trkpt lat="43.2414117" lon="12.1050333"><ele>551.3333333333333</ele><time>2026-05-02T10:38:02.786Z</time></trkpt><trkpt lat="43.24126" lon="12.10518"><ele>551.0</ele><time>2026-05-02T10:38:03.786Z</time></trkpt><trkpt lat="43.2411017" lon="12.1052667"><ele>551.0</ele><time>2026-05-02T10:38:04.787Z</time></trkpt><trkpt lat="43.2409383" lon="12.1052783"><ele>551.0</ele><time>2026-05-02T10:38:05.786Z</time></trkpt><trkpt lat="43.2407433" lon="12.1052633"><ele>551.0</ele><time>2026-05-02T10:38:06.786Z</time></trkpt><trkpt lat="43.2405367" lon="12.10529"><ele>553.3333333333333</ele><time>2026-05-02T10:38:07.787Z</time></trkpt><trkpt lat="43.2403367" lon="12.1053733"><ele>555.6666666666666</ele><time>2026-05-02T10:38:08.789Z</time></trkpt><trkpt lat="43.2401333" lon="12.1054517"><ele>558.0</ele><time>2026-05-02T10:38:09.788Z</time></trkpt><trkpt lat="43.2399183" lon="12.1054767"><ele>561.5</ele><time>2026-05-02T10:38:10.789Z</time></trkpt><trkpt lat="43.2396633" lon="12.105455"><ele>565.0</ele><time>2026-05-02T10:38:11.789Z</time></trkpt><trkpt lat="43.2393833" lon="12.105425"><ele>565.0</ele><time>2026-05-02T10:38:12.786Z</time></trkpt><trkpt lat="43.2390883" lon="12.1054017"><ele>565.0</ele><time>2026-05-02T10:38:13.787Z</time></trkpt><trkpt lat="43.2387967" lon="12.1053967"><ele>569.0</ele><time>2026-05-02T10:38:14.786Z</time></trkpt><trkpt lat="43.2385217" lon="12.1054067"><ele>573.0</ele><time>2026-05-02T10:38:15.785Z</time></trkpt><trkpt lat="43.2382683" lon="12.105435"><ele>580.5</ele><time>2026-05-02T10:38:16.786Z</time></trkpt><trkpt lat="43.2380367" lon="12.1054783"><ele>588.0</ele><time>2026-05-02T10:38:17.786Z</time></trkpt><trkpt lat="43.2378267" lon="12.1055533"><ele>588.0</ele><time>2026-05-02T10:38:18.786Z</time></trkpt><trkpt lat="43.2376267" lon="12.1056633"><ele>588.0</ele><time>2026-05-02T10:38:19.79Z</time></trkpt><trkpt lat="43.2374333" lon="12.10579"><ele>588.0</ele><time>2026-05-02T10:38:20.79Z</time></trkpt><trkpt lat="43.23725" lon="12.1058833"><ele>588.0</ele><time>2026-05-02T10:38:21.789Z</time></trkpt><trkpt lat="43.2370783" lon="12.1059333"><ele>588.0</ele><time>2026-05-02T10:38:22.789Z</time></trkpt><trkpt lat="43.2369167" lon="12.1060017"><ele>588.0</ele><time>2026-05-02T10:38:23.789Z</time></trkpt><trkpt lat="43.23676" lon="12.106125"><ele>588.0</ele><time>2026-05-02T10:38:24.786Z</time></trkpt><trkpt lat="43.2366117" lon="12.106325"><ele>588.0</ele><time>2026-05-02T10:38:25.786Z</time></trkpt><trkpt lat="43.2364617" lon="12.106575"><ele>588.0</ele><time>2026-05-02T10:38:26.789Z</time></trkpt><trkpt lat="43.23629" lon="12.1068633"><ele>591.0</ele><time>2026-05-02T10:38:27.786Z</time></trkpt><trkpt lat="43.2361033" lon="12.1071683"><ele>594.0</ele><time>2026-05-02T10:38:28.787Z</time></trkpt><trkpt lat="43.2359117" lon="12.1074683"><ele>594.0</ele><time>2026-05-02T10:38:29.786Z</time></trkpt><trkpt lat="43.235745" lon="12.107745"><ele>594.0</ele><time>2026-05-02T10:38:30.787Z</time></trkpt><trkpt lat="43.2356083" lon="12.1079867"><ele>597.3333333333334</ele><time>2026-05-02T10:38:31.787Z</time></trkpt><trkpt lat="43.235495" lon="12.10821"><ele>600.6666666666667</ele><time>2026-05-02T10:38:32.786Z</time></trkpt><trkpt lat="43.2354" lon="12.108395"><ele>604.0</ele><time>2026-05-02T10:38:33.786Z</time></trkpt><trkpt lat="43.235315" lon="12.1085333"><ele>604.0</ele><time>2026-05-02T10:38:34.786Z</time></trkpt><trkpt lat="43.23523" lon="12.108615"><ele>604.0</ele><time>2026-05-02T10:38:35.787Z</time></trkpt><trkpt lat="43.2351383" lon="12.1086517"><ele>604.0</ele><time>2026-05-02T10:38:36.786Z</time></trkpt><trkpt lat="43.2350417" lon="12.1086117"><ele>604.0</ele><time>2026-05-02T10:38:37.786Z</time></trkpt><trkpt lat="43.2349767" lon="12.1084683"><ele>604.0</ele><time>2026-05-02T10:38:38.786Z</time></trkpt><trkpt lat="43.23497" lon="12.1083067"><ele>604.3333333333334</ele><time>2026-05-02T10:38:39.789Z</time></trkpt><trkpt lat="43.235025" lon="12.1081217"><ele>604.6666666666666</ele><time>2026-05-02T10:38:40.787Z</time></trkpt><trkpt lat="43.2350783" lon="12.10788"><ele>605.0</ele><time>2026-05-02T10:38:41.786Z</time></trkpt><trkpt lat="43.2351133" lon="12.1076017"><ele>605.0</ele><time>2026-05-02T10:38:42.787Z</time></trkpt><trkpt lat="43.2351167" lon="12.10736"><ele>605.0</ele><time>2026-05-02T10:38:43.79Z</time></trkpt><trkpt lat="43.2350833" lon="12.1071583"><ele>605.0</ele><time>2026-05-02T10:38:44.787Z</time></trkpt><trkpt lat="43.23501" lon="12.10701"><ele>605.0</ele><time>2026-05-02T10:38:45.79Z</time></trkpt><trkpt lat="43.2349233" lon="12.1069167"><ele>605.0</ele><time>2026-05-02T10:38:46.791Z</time></trkpt><trkpt lat="43.2348267" lon="12.1068683"><ele>605.0</ele><time>2026-05-02T10:38:47.79Z</time></trkpt><trkpt lat="43.2347433" lon="12.10684"><ele>605.0</ele><time>2026-05-02T10:38:48.789Z</time></trkpt><trkpt lat="43.2346633" lon="12.1068117"><ele>605.0</ele><time>2026-05-02T10:38:49.788Z</time></trkpt><trkpt lat="43.2346" lon="12.10679"><ele>605.0</ele><time>2026-05-02T10:38:50.789Z</time></trkpt><trkpt lat="43.234485" lon="12.1067633"><ele>603.6666666666666</ele><time>2026-05-02T10:38:52.789Z</time></trkpt><trkpt lat="43.2344067" lon="12.10671"><ele>602.3333333333333</ele><time>2026-05-02T10:38:54.787Z</time></trkpt><trkpt lat="43.2343617" lon="12.1066433"><ele>601.0</ele><time>2026-05-02T10:38:58.786Z</time></trkpt><trkpt lat="43.2344217" lon="12.106705"><ele>599.6666666666666</ele><time>2026-05-02T10:39:07.787Z</time></trkpt><trkpt lat="43.234365" lon="12.10676"><ele>598.3333333333334</ele><time>2026-05-02T10:40:47.788Z</time></trkpt><trkpt lat="43.234295" lon="12.1068383"><ele>597.0</ele><time>2026-05-02T10:41:16.787Z</time></trkpt><trkpt lat="43.2343351" lon="12.1067631"><ele>597.0000000000001</ele><time>2026-05-02T10:41:42.928Z</time></trkpt><trkpt lat="43.2343912" lon="12.1067075"><ele>597.0</ele><time>2026-05-02T10:41:48.873Z</time></trkpt><trkpt lat="43.2343357" lon="12.1067766"><ele>597.0</ele><time>2026-05-02T10:42:19.824Z</time></trkpt><trkpt lat="43.2343055" lon="12.1068543"><ele>597.0</ele><time>2026-05-02T10:43:00.806Z</time></trkpt><trkpt lat="43.2342465" lon="12.1068859"><ele>597.0</ele><time>2026-05-02T10:43:36.899Z</time></trkpt><trkpt lat="43.234179" lon="12.1068966"><ele>597.0000000000001</ele><time>2026-05-02T10:45:19.9Z</time></trkpt><trkpt lat="43.2341959" lon="12.1069825"><ele>597.0</ele><time>2026-05-02T10:58:41.254Z</time></trkpt><trkpt lat="43.234144" lon="12.1069321"><ele>597.0000000000001</ele><time>2026-05-02T11:31:28.905Z</time></trkpt><trkpt lat="43.2342465" lon="12.1069039"><ele>597.0</ele><time>2026-05-02T11:32:40.886Z</time></trkpt><trkpt lat="43.2342977" lon="12.1069559"><ele>597.0</ele><time>2026-05-02T11:33:00.855Z</time></trkpt><trkpt lat="43.2343274" lon="12.1070347"><ele>597.0</ele><time>2026-05-02T11:33:40.898Z</time></trkpt><trkpt lat="43.2343409" lon="12.1069408"><ele>597.0</ele><time>2026-05-02T11:33:56.842Z</time></trkpt><trkpt lat="43.2343263" lon="12.1068518"><ele>597.0000000000001</ele><time>2026-05-02T11:34:01.764Z</time></trkpt><trkpt lat="43.234379" lon="12.1067864"><ele>597.0</ele><time>2026-05-02T11:34:04.874Z</time></trkpt><trkpt lat="43.2343939" lon="12.1066996"><ele>597.0</ele><time>2026-05-02T11:34:12.805Z</time></trkpt><trkpt lat="43.2344467" lon="12.10658"><ele>597.0</ele><time>2026-05-02T11:40:09.789Z</time></trkpt><trkpt lat="43.2344367" lon="12.106405"><ele>597.0</ele><time>2026-05-02T11:40:11.787Z</time></trkpt><trkpt lat="43.234435" lon="12.1062883"><ele>597.0</ele><time>2026-05-02T11:40:12.787Z</time></trkpt><trkpt lat="43.2344483" lon="12.1061667"><ele>597.0</ele><time>2026-05-02T11:40:13.787Z</time></trkpt><trkpt lat="43.234465" lon="12.106035"><ele>596.0</ele><time>2026-05-02T11:40:14.787Z</time></trkpt><trkpt lat="43.2344883" lon="12.1058883"><ele>595.0</ele><time>2026-05-02T11:40:15.788Z</time></trkpt><trkpt lat="43.2345133" lon="12.105745"><ele>594.0</ele><time>2026-05-02T11:40:16.788Z</time></trkpt><trkpt lat="43.2345167" lon="12.1053117"><ele>595.8</ele><time>2026-05-02T11:40:19.787Z</time></trkpt><trkpt lat="43.2344633" lon="12.1051833"><ele>597.5999999999999</ele><time>2026-05-02T11:40:20.789Z</time></trkpt><trkpt lat="43.2343783" lon="12.10508"><ele>599.4</ele><time>2026-05-02T11:40:21.788Z</time></trkpt><trkpt lat="43.23428" lon="12.1050017"><ele>601.1999999999999</ele><time>2026-05-02T11:40:22.787Z</time></trkpt><trkpt lat="43.2341817" lon="12.10494"><ele>603.0</ele><time>2026-05-02T11:40:23.787Z</time></trkpt><trkpt lat="43.2340867" lon="12.1048817"><ele>601.8</ele><time>2026-05-02T11:40:24.788Z</time></trkpt><trkpt lat="43.2339967" lon="12.1048283"><ele>600.5999999999999</ele><time>2026-05-02T11:40:25.787Z</time></trkpt><trkpt lat="43.233915" lon="12.1047717"><ele>599.4000000000001</ele><time>2026-05-02T11:40:26.789Z</time></trkpt><trkpt lat="43.2338317" lon="12.1047067"><ele>598.2</ele><time>2026-05-02T11:40:27.79Z</time></trkpt><trkpt lat="43.2337583" lon="12.1046367"><ele>597.0</ele><time>2026-05-02T11:40:28.787Z</time></trkpt><trkpt lat="43.2337" lon="12.104555"><ele>597.0</ele><time>2026-05-02T11:40:29.789Z</time></trkpt><trkpt lat="43.2336517" lon="12.10445"><ele>597.0</ele><time>2026-05-02T11:40:30.787Z</time></trkpt><trkpt lat="43.233615" lon="12.1043133"><ele>597.0</ele><time>2026-05-02T11:40:31.789Z</time></trkpt><trkpt lat="43.2335883" lon="12.1041483"><ele>597.0</ele><time>2026-05-02T11:40:32.788Z</time></trkpt><trkpt lat="43.2335733" lon="12.1039583"><ele>597.25</ele><time>2026-05-02T11:40:33.791Z</time></trkpt><trkpt lat="43.2335817" lon="12.1037567"><ele>597.5</ele><time>2026-05-02T11:40:34.788Z</time></trkpt><trkpt lat="43.2335817" lon="12.1035633"><ele>597.75</ele><time>2026-05-02T11:40:35.788Z</time></trkpt><trkpt lat="43.2335533" lon="12.1033817"><ele>598.0</ele><time>2026-05-02T11:40:36.789Z</time></trkpt><trkpt lat="43.2334867" lon="12.1032217"><ele>599.0</ele><time>2026-05-02T11:40:37.788Z</time></trkpt><trkpt lat="43.23338" lon="12.1030967"><ele>600.0</ele><time>2026-05-02T11:40:38.788Z</time></trkpt><trkpt lat="43.2332517" lon="12.1030083"><ele>601.0</ele><time>2026-05-02T11:40:39.786Z</time></trkpt><trkpt lat="43.23311" lon="12.1029417"><ele>602.0</ele><time>2026-05-02T11:40:40.786Z</time></trkpt><trkpt lat="43.2329617" lon="12.102875"><ele>599.5</ele><time>2026-05-02T11:40:41.787Z</time></trkpt><trkpt lat="43.232815" lon="12.1028017"><ele>597.0</ele><time>2026-05-02T11:40:42.786Z</time></trkpt><trkpt lat="43.232675" lon="12.102725"><ele>594.5</ele><time>2026-05-02T11:40:43.786Z</time></trkpt><trkpt lat="43.23255" lon="12.1026333"><ele>592.0</ele><time>2026-05-02T11:40:44.786Z</time></trkpt><trkpt lat="43.2324467" lon="12.1025183"><ele>591.75</ele><time>2026-05-02T11:40:45.787Z</time></trkpt><trkpt lat="43.2323717" lon="12.1023817"><ele>591.5</ele><time>2026-05-02T11:40:46.787Z</time></trkpt><trkpt lat="43.2323317" lon="12.1022233"><ele>591.25</ele><time>2026-05-02T11:40:47.786Z</time></trkpt><trkpt lat="43.2323183" lon="12.1020433"><ele>591.0</ele><time>2026-05-02T11:40:48.787Z</time></trkpt><trkpt lat="43.2323167" lon="12.10185"><ele>591.0</ele><time>2026-05-02T11:40:49.786Z</time></trkpt><trkpt lat="43.232315" lon="12.10165"><ele>591.0</ele><time>2026-05-02T11:40:50.787Z</time></trkpt><trkpt lat="43.2322867" lon="12.1014483"><ele>591.0</ele><time>2026-05-02T11:40:51.787Z</time></trkpt><trkpt lat="43.2322233" lon="12.1012567"><ele>591.0</ele><time>2026-05-02T11:40:52.786Z</time></trkpt><trkpt lat="43.232125" lon="12.1010867"><ele>587.6666666666666</ele><time>2026-05-02T11:40:53.787Z</time></trkpt><trkpt lat="43.2320033" lon="12.1009367"><ele>584.3333333333333</ele><time>2026-05-02T11:40:54.786Z</time></trkpt><trkpt lat="43.2318633" lon="12.1008083"><ele>581.0</ele><time>2026-05-02T11:40:55.787Z</time></trkpt><trkpt lat="43.23172" lon="12.10069"><ele>581.0</ele><time>2026-05-02T11:40:56.789Z</time></trkpt><trkpt lat="43.231585" lon="12.1005733"><ele>581.0</ele><time>2026-05-02T11:40:57.79Z</time></trkpt><trkpt lat="43.23146" lon="12.10046"><ele>581.0</ele><time>2026-05-02T11:40:58.789Z</time></trkpt><trkpt lat="43.2313517" lon="12.10035"><ele>581.0</ele><time>2026-05-02T11:40:59.789Z</time></trkpt><trkpt lat="43.2312633" lon="12.1002283"><ele>577.75</ele><time>2026-05-02T11:41:00.789Z</time></trkpt><trkpt lat="43.2312033" lon="12.1000833"><ele>574.5</ele><time>2026-05-02T11:41:01.788Z</time></trkpt><trkpt lat="43.2311867" lon="12.099925"><ele>571.25</ele><time>2026-05-02T11:41:02.79Z</time></trkpt><trkpt lat="43.2312167" lon="12.099775"><ele>568.0</ele><time>2026-05-02T11:41:03.789Z</time></trkpt><trkpt lat="43.2313917" lon="12.0995417"><ele>569.75</ele><time>2026-05-02T11:41:05.789Z</time></trkpt><trkpt lat="43.23151" lon="12.0994467"><ele>571.5</ele><time>2026-05-02T11:41:06.789Z</time></trkpt><trkpt lat="43.2316183" lon="12.099355"><ele>573.25</ele><time>2026-05-02T11:41:07.789Z</time></trkpt><trkpt lat="43.2317067" lon="12.09925"><ele>575.0</ele><time>2026-05-02T11:41:08.789Z</time></trkpt><trkpt lat="43.2317533" lon="12.099125"><ele>574.2</ele><time>2026-05-02T11:41:09.79Z</time></trkpt><trkpt lat="43.2317583" lon="12.09899"><ele>573.4</ele><time>2026-05-02T11:41:10.79Z</time></trkpt><trkpt lat="43.231715" lon="12.0988583"><ele>572.6</ele><time>2026-05-02T11:41:11.788Z</time></trkpt><trkpt lat="43.2316333" lon="12.0987467"><ele>571.8</ele><time>2026-05-02T11:41:12.789Z</time></trkpt><trkpt lat="43.2315183" lon="12.0986783"><ele>571.0</ele><time>2026-05-02T11:41:13.789Z</time></trkpt><trkpt lat="43.2313883" lon="12.0986517"><ele>571.0</ele><time>2026-05-02T11:41:14.789Z</time></trkpt><trkpt lat="43.2312483" lon="12.0986567"><ele>571.0</ele><time>2026-05-02T11:41:15.789Z</time></trkpt><trkpt lat="43.2311083" lon="12.0986533"><ele>571.0</ele><time>2026-05-02T11:41:16.79Z</time></trkpt><trkpt lat="43.2309683" lon="12.0986217"><ele>571.0</ele><time>2026-05-02T11:41:17.788Z</time></trkpt><trkpt lat="43.2308517" lon="12.09854"><ele>571.0</ele><time>2026-05-02T11:41:18.785Z</time></trkpt><trkpt lat="43.2307667" lon="12.0984117"><ele>571.0</ele><time>2026-05-02T11:41:19.789Z</time></trkpt><trkpt lat="43.23073" lon="12.09825"><ele>571.0</ele><time>2026-05-02T11:41:20.788Z</time></trkpt><trkpt lat="43.2307217" lon="12.0980567"><ele>571.0</ele><time>2026-05-02T11:41:21.786Z</time></trkpt><trkpt lat="43.2307367" lon="12.0978467"><ele>571.6666666666667</ele><time>2026-05-02T11:41:22.788Z</time></trkpt><trkpt lat="43.2307667" lon="12.0976233"><ele>572.3333333333334</ele><time>2026-05-02T11:41:23.788Z</time></trkpt><trkpt lat="43.2308" lon="12.0973983"><ele>573.0</ele><time>2026-05-02T11:41:24.789Z</time></trkpt><trkpt lat="43.2308233" lon="12.097195"><ele>573.75</ele><time>2026-05-02T11:41:25.789Z</time></trkpt><trkpt lat="43.23083" lon="12.09703"><ele>574.5</ele><time>2026-05-02T11:41:26.789Z</time></trkpt><trkpt lat="43.2307983" lon="12.0968883"><ele>575.25</ele><time>2026-05-02T11:41:27.79Z</time></trkpt><trkpt lat="43.2307333" lon="12.0967633"><ele>576.0</ele><time>2026-05-02T11:41:28.788Z</time></trkpt><trkpt lat="43.23063" lon="12.0966633"><ele>571.0</ele><time>2026-05-02T11:41:29.789Z</time></trkpt><trkpt lat="43.2303533" lon="12.0965883"><ele>566.0</ele><time>2026-05-02T11:41:31.789Z</time></trkpt><trkpt lat="43.230185" lon="12.096585"><ele>569.0</ele><time>2026-05-02T11:41:32.789Z</time></trkpt><trkpt lat="43.230005" lon="12.0965833"><ele>572.0</ele><time>2026-05-02T11:41:33.785Z</time></trkpt><trkpt lat="43.229835" lon="12.0965683"><ele>575.0</ele><time>2026-05-02T11:41:34.79Z</time></trkpt><trkpt lat="43.2296633" lon="12.096545"><ele>575.0</ele><time>2026-05-02T11:41:35.789Z</time></trkpt><trkpt lat="43.2294933" lon="12.0964933"><ele>575.0</ele><time>2026-05-02T11:41:36.789Z</time></trkpt><trkpt lat="43.2293283" lon="12.0964083"><ele>575.0</ele><time>2026-05-02T11:41:37.786Z</time></trkpt><trkpt lat="43.2291733" lon="12.09631"><ele>575.0</ele><time>2026-05-02T11:41:38.789Z</time></trkpt><trkpt lat="43.229005" lon="12.096215"><ele>575.0</ele><time>2026-05-02T11:41:39.786Z</time></trkpt><trkpt lat="43.228815" lon="12.0961417"><ele>575.0</ele><time>2026-05-02T11:41:40.785Z</time></trkpt><trkpt lat="43.2284333" lon="12.0960617"><ele>571.3333333333333</ele><time>2026-05-02T11:41:42.79Z</time></trkpt><trkpt lat="43.2282417" lon="12.0960333"><ele>567.6666666666666</ele><time>2026-05-02T11:41:43.785Z</time></trkpt><trkpt lat="43.2280533" lon="12.0960183"><ele>564.0</ele><time>2026-05-02T11:41:44.79Z</time></trkpt><trkpt lat="43.2278667" lon="12.0960117"><ele>560.3333333333334</ele><time>2026-05-02T11:41:45.786Z</time></trkpt><trkpt lat="43.2276767" lon="12.0960183"><ele>556.6666666666667</ele><time>2026-05-02T11:41:46.785Z</time></trkpt><trkpt lat="43.2274817" lon="12.09605"><ele>553.0</ele><time>2026-05-02T11:41:47.79Z</time></trkpt><trkpt lat="43.2273" lon="12.09609"><ele>551.3333333333334</ele><time>2026-05-02T11:41:48.785Z</time></trkpt><trkpt lat="43.2271283" lon="12.0961217"><ele>549.6666666666666</ele><time>2026-05-02T11:41:49.786Z</time></trkpt><trkpt lat="43.22696" lon="12.0961567"><ele>548.0</ele><time>2026-05-02T11:41:50.79Z</time></trkpt><trkpt lat="43.2268017" lon="12.096185"><ele>548.0</ele><time>2026-05-02T11:41:51.789Z</time></trkpt><trkpt lat="43.2266467" lon="12.0962017"><ele>548.0</ele><time>2026-05-02T11:41:52.785Z</time></trkpt><trkpt lat="43.226485" lon="12.0961967"><ele>548.0</ele><time>2026-05-02T11:41:53.789Z</time></trkpt><trkpt lat="43.2263217" lon="12.096165"><ele>546.0</ele><time>2026-05-02T11:41:54.789Z</time></trkpt><trkpt lat="43.22616" lon="12.0961"><ele>544.0</ele><time>2026-05-02T11:41:55.791Z</time></trkpt><trkpt lat="43.2259917" lon="12.0960117"><ele>542.0</ele><time>2026-05-02T11:41:56.79Z</time></trkpt><trkpt lat="43.2258167" lon="12.095915"><ele>541.6666666666666</ele><time>2026-05-02T11:41:57.789Z</time></trkpt><trkpt lat="43.2256417" lon="12.0958167"><ele>541.3333333333334</ele><time>2026-05-02T11:41:58.789Z</time></trkpt><trkpt lat="43.2254633" lon="12.0957217"><ele>541.0</ele><time>2026-05-02T11:41:59.79Z</time></trkpt><trkpt lat="43.2252883" lon="12.09563"><ele>541.0</ele><time>2026-05-02T11:42:00.789Z</time></trkpt><trkpt lat="43.2251167" lon="12.0955317"><ele>541.0</ele><time>2026-05-02T11:42:01.789Z</time></trkpt><trkpt lat="43.2249567" lon="12.0954233"><ele>541.0</ele><time>2026-05-02T11:42:02.79Z</time></trkpt><trkpt lat="43.224805" lon="12.095305"><ele>535.0</ele><time>2026-05-02T11:42:03.787Z</time></trkpt><trkpt lat="43.2246633" lon="12.0951917"><ele>529.0</ele><time>2026-05-02T11:42:04.789Z</time></trkpt><trkpt lat="43.2245367" lon="12.0950733"><ele>523.0</ele><time>2026-05-02T11:42:05.79Z</time></trkpt><trkpt lat="43.2244283" lon="12.0949383"><ele>524.0</ele><time>2026-05-02T11:42:06.789Z</time></trkpt><trkpt lat="43.2243367" lon="12.094765"><ele>525.0</ele><time>2026-05-02T11:42:07.789Z</time></trkpt><trkpt lat="43.224255" lon="12.0945567"><ele>526.0</ele><time>2026-05-02T11:42:08.789Z</time></trkpt><trkpt lat="43.2241767" lon="12.094315"><ele>526.6666666666667</ele><time>2026-05-02T11:42:09.789Z</time></trkpt><trkpt lat="43.22409" lon="12.094045"><ele>527.3333333333334</ele><time>2026-05-02T11:42:10.789Z</time></trkpt><trkpt lat="43.2240017" lon="12.0937633"><ele>528.0</ele><time>2026-05-02T11:42:11.79Z</time></trkpt><trkpt lat="43.2239133" lon="12.0934883"><ele>523.6666666666666</ele><time>2026-05-02T11:42:12.789Z</time></trkpt><trkpt lat="43.223825" lon="12.0932267"><ele>519.3333333333333</ele><time>2026-05-02T11:42:13.789Z</time></trkpt><trkpt lat="43.2237367" lon="12.0929833"><ele>515.0</ele><time>2026-05-02T11:42:14.786Z</time></trkpt><trkpt lat="43.2236567" lon="12.092755"><ele>515.0</ele><time>2026-05-02T11:42:15.786Z</time></trkpt><trkpt lat="43.2235867" lon="12.0925433"><ele>515.0</ele><time>2026-05-02T11:42:16.791Z</time></trkpt><trkpt lat="43.2235317" lon="12.0923467"><ele>515.0</ele><time>2026-05-02T11:42:17.786Z</time></trkpt><trkpt lat="43.2235" lon="12.0921467"><ele>514.25</ele><time>2026-05-02T11:42:18.789Z</time></trkpt><trkpt lat="43.2234983" lon="12.09195"><ele>513.5</ele><time>2026-05-02T11:42:19.79Z</time></trkpt><trkpt lat="43.2235283" lon="12.0917517"><ele>512.75</ele><time>2026-05-02T11:42:20.79Z</time></trkpt><trkpt lat="43.2235867" lon="12.0915667"><ele>512.0</ele><time>2026-05-02T11:42:21.789Z</time></trkpt><trkpt lat="43.2236733" lon="12.09139"><ele>512.6666666666666</ele><time>2026-05-02T11:42:22.789Z</time></trkpt><trkpt lat="43.2237867" lon="12.0912267"><ele>513.3333333333334</ele><time>2026-05-02T11:42:23.789Z</time></trkpt><trkpt lat="43.2239117" lon="12.0910883"><ele>514.0</ele><time>2026-05-02T11:42:24.789Z</time></trkpt><trkpt lat="43.224045" lon="12.0909717"><ele>514.0</ele><time>2026-05-02T11:42:25.786Z</time></trkpt><trkpt lat="43.22417" lon="12.0908833"><ele>514.0</ele><time>2026-05-02T11:42:26.786Z</time></trkpt><trkpt lat="43.2242983" lon="12.0908117"><ele>514.0</ele><time>2026-05-02T11:42:27.786Z</time></trkpt><trkpt lat="43.2243983" lon="12.090735"><ele>514.0</ele><time>2026-05-02T11:42:28.789Z</time></trkpt><trkpt lat="43.224445" lon="12.09063"><ele>512.0</ele><time>2026-05-02T11:42:29.79Z</time></trkpt><trkpt lat="43.224465" lon="12.09051"><ele>510.0</ele><time>2026-05-02T11:42:30.791Z</time></trkpt><trkpt lat="43.2244517" lon="12.0903883"><ele>508.0</ele><time>2026-05-02T11:42:31.789Z</time></trkpt><trkpt lat="43.2243533" lon="12.0902567"><ele>506.0</ele><time>2026-05-02T11:42:32.787Z</time></trkpt><trkpt lat="43.224215" lon="12.0901267"><ele>506.0</ele><time>2026-05-02T11:42:33.789Z</time></trkpt><trkpt lat="43.2240867" lon="12.0899867"><ele>506.0</ele><time>2026-05-02T11:42:34.789Z</time></trkpt><trkpt lat="43.2240067" lon="12.08984"><ele>506.0</ele><time>2026-05-02T11:42:35.789Z</time></trkpt><trkpt lat="43.2239783" lon="12.0896867"><ele>506.0</ele><time>2026-05-02T11:42:36.792Z</time></trkpt><trkpt lat="43.2239967" lon="12.0895417"><ele>503.5</ele><time>2026-05-02T11:42:37.789Z</time></trkpt><trkpt lat="43.2240583" lon="12.089415"><ele>501.0</ele><time>2026-05-02T11:42:38.789Z</time></trkpt><trkpt lat="43.2241617" lon="12.0893083"><ele>498.5</ele><time>2026-05-02T11:42:39.789Z</time></trkpt><trkpt lat="43.2242633" lon="12.089195"><ele>496.0</ele><time>2026-05-02T11:42:40.789Z</time></trkpt><trkpt lat="43.2243833" lon="12.0888883"><ele>495.5</ele><time>2026-05-02T11:42:42.789Z</time></trkpt><trkpt lat="43.2243483" lon="12.0887117"><ele>495.0</ele><time>2026-05-02T11:42:43.789Z</time></trkpt><trkpt lat="43.2242733" lon="12.088545"><ele>494.5</ele><time>2026-05-02T11:42:44.789Z</time></trkpt><trkpt lat="43.2241617" lon="12.088375"><ele>494.0</ele><time>2026-05-02T11:42:45.79Z</time></trkpt><trkpt lat="43.2240467" lon="12.0881983"><ele>488.66666666666663</ele><time>2026-05-02T11:42:46.789Z</time></trkpt><trkpt lat="43.2239267" lon="12.0880117"><ele>483.33333333333337</ele><time>2026-05-02T11:42:47.789Z</time></trkpt><trkpt lat="43.223805" lon="12.0878233"><ele>478.0</ele><time>2026-05-02T11:42:48.789Z</time></trkpt><trkpt lat="43.2236817" lon="12.0876433"><ele>478.0</ele><time>2026-05-02T11:42:49.789Z</time></trkpt><trkpt lat="43.2235617" lon="12.087475"><ele>478.0</ele><time>2026-05-02T11:42:50.789Z</time></trkpt><trkpt lat="43.223445" lon="12.0873083"><ele>478.0</ele><time>2026-05-02T11:42:51.789Z</time></trkpt><trkpt lat="43.223345" lon="12.0871267"><ele>482.0</ele><time>2026-05-02T11:42:52.787Z</time></trkpt><trkpt lat="43.223265" lon="12.0869267"><ele>486.0</ele><time>2026-05-02T11:42:53.789Z</time></trkpt><trkpt lat="43.2231017" lon="12.0865683"><ele>486.0</ele><time>2026-05-02T11:42:55.789Z</time></trkpt><trkpt lat="43.2229767" lon="12.0864367"><ele>486.0</ele><time>2026-05-02T11:42:56.789Z</time></trkpt><trkpt lat="43.2228267" lon="12.0863333"><ele>486.0</ele><time>2026-05-02T11:42:57.79Z</time></trkpt><trkpt lat="43.22266" lon="12.08625"><ele>486.0</ele><time>2026-05-02T11:42:58.789Z</time></trkpt><trkpt lat="43.22249" lon="12.086165"><ele>486.0</ele><time>2026-05-02T11:42:59.789Z</time></trkpt><trkpt lat="43.2223217" lon="12.086075"><ele>486.0</ele><time>2026-05-02T11:43:00.789Z</time></trkpt><trkpt lat="43.22215" lon="12.085975"><ele>483.33333333333337</ele><time>2026-05-02T11:43:01.789Z</time></trkpt><trkpt lat="43.2219783" lon="12.0858683"><ele>480.6666666666667</ele><time>2026-05-02T11:43:02.79Z</time></trkpt><trkpt lat="43.2218083" lon="12.08576"><ele>478.0</ele><time>2026-05-02T11:43:03.79Z</time></trkpt><trkpt lat="43.2216367" lon="12.085665"><ele>473.6666666666667</ele><time>2026-05-02T11:43:04.79Z</time></trkpt><trkpt lat="43.2214717" lon="12.0855967"><ele>469.33333333333337</ele><time>2026-05-02T11:43:05.79Z</time></trkpt><trkpt lat="43.2213117" lon="12.0855367"><ele>465.0</ele><time>2026-05-02T11:43:06.786Z</time></trkpt><trkpt lat="43.2211583" lon="12.0854683"><ele>465.0</ele><time>2026-05-02T11:43:07.789Z</time></trkpt><trkpt lat="43.22102" lon="12.08537"><ele>465.0</ele><time>2026-05-02T11:43:08.79Z</time></trkpt><trkpt lat="43.220885" lon="12.0852433"><ele>465.0</ele><time>2026-05-02T11:43:09.789Z</time></trkpt><trkpt lat="43.2207467" lon="12.0851"><ele>461.33333333333337</ele><time>2026-05-02T11:43:10.789Z</time></trkpt><trkpt lat="43.220615" lon="12.084945"><ele>457.6666666666667</ele><time>2026-05-02T11:43:11.789Z</time></trkpt><trkpt lat="43.2204883" lon="12.0847817"><ele>454.0</ele><time>2026-05-02T11:43:12.79Z</time></trkpt><trkpt lat="43.2203717" lon="12.084605"><ele>454.0</ele><time>2026-05-02T11:43:13.789Z</time></trkpt><trkpt lat="43.2202583" lon="12.0844317"><ele>454.0</ele><time>2026-05-02T11:43:14.791Z</time></trkpt><trkpt lat="43.220155" lon="12.08426"><ele>454.0</ele><time>2026-05-02T11:43:15.79Z</time></trkpt><trkpt lat="43.2200633" lon="12.0840867"><ele>454.33333333333337</ele><time>2026-05-02T11:43:16.788Z</time></trkpt><trkpt lat="43.2199767" lon="12.0839"><ele>454.66666666666663</ele><time>2026-05-02T11:43:17.788Z</time></trkpt><trkpt lat="43.219895" lon="12.0836917"><ele>455.0</ele><time>2026-05-02T11:43:18.79Z</time></trkpt><trkpt lat="43.2198167" lon="12.0834733"><ele>449.66666666666663</ele><time>2026-05-02T11:43:19.785Z</time></trkpt><trkpt lat="43.2197383" lon="12.083255"><ele>444.33333333333337</ele><time>2026-05-02T11:43:20.786Z</time></trkpt><trkpt lat="43.2196633" lon="12.0830417"><ele>439.0</ele><time>2026-05-02T11:43:21.789Z</time></trkpt><trkpt lat="43.219595" lon="12.0828417"><ele>439.0</ele><time>2026-05-02T11:43:22.789Z</time></trkpt><trkpt lat="43.2195367" lon="12.0826583"><ele>439.0</ele><time>2026-05-02T11:43:23.789Z</time></trkpt><trkpt lat="43.2195033" lon="12.0824983"><ele>439.0</ele><time>2026-05-02T11:43:24.789Z</time></trkpt><trkpt lat="43.2195017" lon="12.0823583"><ele>439.0</ele><time>2026-05-02T11:43:25.788Z</time></trkpt><trkpt lat="43.219545" lon="12.08223"><ele>439.75</ele><time>2026-05-02T11:43:26.788Z</time></trkpt><trkpt lat="43.21962" lon="12.082115"><ele>440.5</ele><time>2026-05-02T11:43:27.788Z</time></trkpt><trkpt lat="43.2197317" lon="12.0820117"><ele>441.25</ele><time>2026-05-02T11:43:28.79Z</time></trkpt><trkpt lat="43.2198517" lon="12.0819"><ele>442.0</ele><time>2026-05-02T11:43:29.786Z</time></trkpt><trkpt lat="43.21997" lon="12.0817917"><ele>442.0</ele><time>2026-05-02T11:43:30.788Z</time></trkpt><trkpt lat="43.2200783" lon="12.0816817"><ele>442.0</ele><time>2026-05-02T11:43:31.789Z</time></trkpt><trkpt lat="43.22017" lon="12.08156"><ele>442.0</ele><time>2026-05-02T11:43:32.788Z</time></trkpt><trkpt lat="43.2202183" lon="12.0814017"><ele>442.0</ele><time>2026-05-02T11:43:33.788Z</time></trkpt><trkpt lat="43.22022" lon="12.08122"><ele>440.0</ele><time>2026-05-02T11:43:34.789Z</time></trkpt><trkpt lat="43.2201817" lon="12.081035"><ele>438.0</ele><time>2026-05-02T11:43:35.789Z</time></trkpt><trkpt lat="43.2201283" lon="12.08086"><ele>436.0</ele><time>2026-05-02T11:43:36.788Z</time></trkpt><trkpt lat="43.2200817" lon="12.0806933"><ele>434.0</ele><time>2026-05-02T11:43:37.789Z</time></trkpt><trkpt lat="43.2200533" lon="12.0805317"><ele>431.75</ele><time>2026-05-02T11:43:38.79Z</time></trkpt><trkpt lat="43.2200533" lon="12.0803783"><ele>429.5</ele><time>2026-05-02T11:43:39.789Z</time></trkpt><trkpt lat="43.2200917" lon="12.0802433"><ele>427.25</ele><time>2026-05-02T11:43:40.789Z</time></trkpt><trkpt lat="43.2201717" lon="12.08013"><ele>425.0</ele><time>2026-05-02T11:43:41.789Z</time></trkpt><trkpt lat="43.22028" lon="12.0800233"><ele>419.66666666666663</ele><time>2026-05-02T11:43:42.789Z</time></trkpt><trkpt lat="43.2203983" lon="12.079915"><ele>414.33333333333337</ele><time>2026-05-02T11:43:43.788Z</time></trkpt><trkpt lat="43.2205217" lon="12.0797867"><ele>409.0</ele><time>2026-05-02T11:43:44.79Z</time></trkpt><trkpt lat="43.220635" lon="12.0796217"><ele>414.6666666666667</ele><time>2026-05-02T11:43:45.789Z</time></trkpt><trkpt lat="43.2207383" lon="12.07944"><ele>420.33333333333337</ele><time>2026-05-02T11:43:46.788Z</time></trkpt><trkpt lat="43.2208367" lon="12.0792667"><ele>426.0</ele><time>2026-05-02T11:43:47.788Z</time></trkpt><trkpt lat="43.2209367" lon="12.0791167"><ele>422.5</ele><time>2026-05-02T11:43:48.79Z</time></trkpt><trkpt lat="43.2210183" lon="12.0789717"><ele>419.0</ele><time>2026-05-02T11:43:49.79Z</time></trkpt><trkpt lat="43.2210683" lon="12.07882"><ele>415.5</ele><time>2026-05-02T11:43:50.789Z</time></trkpt><trkpt lat="43.2210833" lon="12.0786567"><ele>412.0</ele><time>2026-05-02T11:43:51.789Z</time></trkpt><trkpt lat="43.221075" lon="12.0785017"><ele>412.0</ele><time>2026-05-02T11:43:52.788Z</time></trkpt><trkpt lat="43.221075" lon="12.07836"><ele>412.0</ele><time>2026-05-02T11:43:53.788Z</time></trkpt><trkpt lat="43.2211033" lon="12.0782433"><ele>412.0</ele><time>2026-05-02T11:43:54.788Z</time></trkpt><trkpt lat="43.22115" lon="12.0781417"><ele>412.0</ele><time>2026-05-02T11:43:55.789Z</time></trkpt><trkpt lat="43.221215" lon="12.0780733"><ele>412.0</ele><time>2026-05-02T11:43:56.789Z</time></trkpt><trkpt lat="43.221305" lon="12.078025"><ele>409.5</ele><time>2026-05-02T11:43:57.786Z</time></trkpt><trkpt lat="43.2213967" lon="12.0779567"><ele>407.0</ele><time>2026-05-02T11:43:58.791Z</time></trkpt><trkpt lat="43.2214567" lon="12.0778417"><ele>404.5</ele><time>2026-05-02T11:43:59.787Z</time></trkpt><trkpt lat="43.221485" lon="12.077685"><ele>402.0</ele><time>2026-05-02T11:44:00.785Z</time></trkpt><trkpt lat="43.2214917" lon="12.0775083"><ele>404.5</ele><time>2026-05-02T11:44:01.789Z</time></trkpt><trkpt lat="43.2214633" lon="12.0773383"><ele>407.0</ele><time>2026-05-02T11:44:02.786Z</time></trkpt><trkpt lat="43.2214083" lon="12.077185"><ele>409.5</ele><time>2026-05-02T11:44:03.786Z</time></trkpt><trkpt lat="43.2213067" lon="12.0770517"><ele>412.0</ele><time>2026-05-02T11:44:04.79Z</time></trkpt><trkpt lat="43.22118" lon="12.0769467"><ele>412.0</ele><time>2026-05-02T11:44:05.786Z</time></trkpt><trkpt lat="43.22102" lon="12.0768733"><ele>412.0</ele><time>2026-05-02T11:44:06.79Z</time></trkpt><trkpt lat="43.220855" lon="12.0768283"><ele>412.0</ele><time>2026-05-02T11:44:07.789Z</time></trkpt><trkpt lat="43.2206917" lon="12.07681"><ele>406.33333333333337</ele><time>2026-05-02T11:44:08.79Z</time></trkpt><trkpt lat="43.220535" lon="12.0768067"><ele>400.66666666666663</ele><time>2026-05-02T11:44:09.785Z</time></trkpt><trkpt lat="43.220385" lon="12.076805"><ele>395.0</ele><time>2026-05-02T11:44:10.786Z</time></trkpt><trkpt lat="43.2202417" lon="12.0768033"><ele>395.0</ele><time>2026-05-02T11:44:11.786Z</time></trkpt><trkpt lat="43.2201133" lon="12.0767917"><ele>395.0</ele><time>2026-05-02T11:44:12.79Z</time></trkpt><trkpt lat="43.2200067" lon="12.076755"><ele>395.0</ele><time>2026-05-02T11:44:13.79Z</time></trkpt><trkpt lat="43.2199283" lon="12.0766667"><ele>395.0</ele><time>2026-05-02T11:44:14.792Z</time></trkpt><trkpt lat="43.2198817" lon="12.0765317"><ele>395.0</ele><time>2026-05-02T11:44:15.789Z</time></trkpt><trkpt lat="43.21987" lon="12.0763583"><ele>395.5</ele><time>2026-05-02T11:44:16.789Z</time></trkpt><trkpt lat="43.2198567" lon="12.07618"><ele>396.0</ele><time>2026-05-02T11:44:17.789Z</time></trkpt><trkpt lat="43.219815" lon="12.0760233"><ele>396.5</ele><time>2026-05-02T11:44:18.789Z</time></trkpt><trkpt lat="43.2197317" lon="12.0758883"><ele>397.0</ele><time>2026-05-02T11:44:19.789Z</time></trkpt><trkpt lat="43.219615" lon="12.075765"><ele>397.0</ele><time>2026-05-02T11:44:20.789Z</time></trkpt><trkpt lat="43.2194833" lon="12.07565"><ele>397.0</ele><time>2026-05-02T11:44:21.789Z</time></trkpt><trkpt lat="43.2193483" lon="12.07553"><ele>397.0</ele><time>2026-05-02T11:44:22.785Z</time></trkpt><trkpt lat="43.2192117" lon="12.075405"><ele>397.0</ele><time>2026-05-02T11:44:23.789Z</time></trkpt><trkpt lat="43.219075" lon="12.07528"><ele>397.0</ele><time>2026-05-02T11:44:24.79Z</time></trkpt><trkpt lat="43.21893" lon="12.0751483"><ele>397.0</ele><time>2026-05-02T11:44:25.792Z</time></trkpt><trkpt lat="43.2187833" lon="12.07501"><ele>393.6666666666667</ele><time>2026-05-02T11:44:26.789Z</time></trkpt><trkpt lat="43.218635" lon="12.0748683"><ele>390.33333333333337</ele><time>2026-05-02T11:44:27.785Z</time></trkpt><trkpt lat="43.2184917" lon="12.074735"><ele>387.0</ele><time>2026-05-02T11:44:28.786Z</time></trkpt><trkpt lat="43.2183517" lon="12.0746"><ele>387.0</ele><time>2026-05-02T11:44:29.786Z</time></trkpt><trkpt lat="43.2182183" lon="12.074465"><ele>387.0</ele><time>2026-05-02T11:44:30.785Z</time></trkpt><trkpt lat="43.21809" lon="12.07432"><ele>387.0</ele><time>2026-05-02T11:44:31.789Z</time></trkpt><trkpt lat="43.2179667" lon="12.0741617"><ele>384.0</ele><time>2026-05-02T11:44:32.786Z</time></trkpt><trkpt lat="43.2178467" lon="12.0739983"><ele>381.0</ele><time>2026-05-02T11:44:33.786Z</time></trkpt><trkpt lat="43.217725" lon="12.0738333"><ele>378.0</ele><time>2026-05-02T11:44:34.786Z</time></trkpt><trkpt lat="43.2175917" lon="12.0736833"><ele>378.0</ele><time>2026-05-02T11:44:35.789Z</time></trkpt><trkpt lat="43.217435" lon="12.0735683"><ele>378.0</ele><time>2026-05-02T11:44:36.785Z</time></trkpt><trkpt lat="43.2172667" lon="12.073475"><ele>378.0</ele><time>2026-05-02T11:44:37.789Z</time></trkpt><trkpt lat="43.2170917" lon="12.0733883"><ele>377.0</ele><time>2026-05-02T11:44:38.789Z</time></trkpt><trkpt lat="43.2169167" lon="12.07331"><ele>376.0</ele><time>2026-05-02T11:44:39.785Z</time></trkpt><trkpt lat="43.2167417" lon="12.07325"><ele>375.0</ele><time>2026-05-02T11:44:40.79Z</time></trkpt><trkpt lat="43.2165617" lon="12.0732267"><ele>373.3333333333333</ele><time>2026-05-02T11:44:41.79Z</time></trkpt><trkpt lat="43.2163767" lon="12.0732417"><ele>371.66666666666663</ele><time>2026-05-02T11:44:42.789Z</time></trkpt><trkpt lat="43.2161967" lon="12.073295"><ele>370.0</ele><time>2026-05-02T11:44:43.789Z</time></trkpt><trkpt lat="43.2160267" lon="12.07337"><ele>365.66666666666663</ele><time>2026-05-02T11:44:44.789Z</time></trkpt><trkpt lat="43.215865" lon="12.0734517"><ele>361.3333333333333</ele><time>2026-05-02T11:44:45.791Z</time></trkpt><trkpt lat="43.2157" lon="12.0735267"><ele>357.0</ele><time>2026-05-02T11:44:46.792Z</time></trkpt><trkpt lat="43.21553" lon="12.0735883"><ele>357.0</ele><time>2026-05-02T11:44:47.789Z</time></trkpt><trkpt lat="43.2153517" lon="12.0736333"><ele>357.0</ele><time>2026-05-02T11:44:48.789Z</time></trkpt><trkpt lat="43.21517" lon="12.07366"><ele>357.0</ele><time>2026-05-02T11:44:49.789Z</time></trkpt><trkpt lat="43.2149817" lon="12.073685"><ele>356.6666666666667</ele><time>2026-05-02T11:44:50.789Z</time></trkpt><trkpt lat="43.2147883" lon="12.0737133"><ele>356.33333333333337</ele><time>2026-05-02T11:44:51.79Z</time></trkpt><trkpt lat="43.2145967" lon="12.0737483"><ele>356.0</ele><time>2026-05-02T11:44:52.789Z</time></trkpt><trkpt lat="43.2144067" lon="12.0737783"><ele>356.0</ele><time>2026-05-02T11:44:53.789Z</time></trkpt><trkpt lat="43.2142217" lon="12.073805"><ele>356.0</ele><time>2026-05-02T11:44:54.79Z</time></trkpt><trkpt lat="43.2140367" lon="12.0738383"><ele>356.0</ele><time>2026-05-02T11:44:55.787Z</time></trkpt><trkpt lat="43.2138517" lon="12.07387"><ele>354.33333333333337</ele><time>2026-05-02T11:44:56.786Z</time></trkpt><trkpt lat="43.2136717" lon="12.0739"><ele>352.6666666666667</ele><time>2026-05-02T11:44:57.786Z</time></trkpt><trkpt lat="43.2134967" lon="12.073935"><ele>351.0</ele><time>2026-05-02T11:44:58.787Z</time></trkpt><trkpt lat="43.2133217" lon="12.07397"><ele>351.0</ele><time>2026-05-02T11:44:59.786Z</time></trkpt><trkpt lat="43.2131617" lon="12.0739933"><ele>351.0</ele><time>2026-05-02T11:45:00.785Z</time></trkpt><trkpt lat="43.2130133" lon="12.07401"><ele>351.0</ele><time>2026-05-02T11:45:01.786Z</time></trkpt><trkpt lat="43.2128767" lon="12.0740133"><ele>351.0</ele><time>2026-05-02T11:45:02.786Z</time></trkpt><trkpt lat="43.212745" lon="12.0739967"><ele>348.25</ele><time>2026-05-02T11:45:03.789Z</time></trkpt><trkpt lat="43.212615" lon="12.0739767"><ele>345.5</ele><time>2026-05-02T11:45:04.789Z</time></trkpt><trkpt lat="43.2124867" lon="12.073935"><ele>342.75</ele><time>2026-05-02T11:45:05.79Z</time></trkpt><trkpt lat="43.2123667" lon="12.07388"><ele>340.0</ele><time>2026-05-02T11:45:06.789Z</time></trkpt><trkpt lat="43.2122517" lon="12.0738017"><ele>335.75</ele><time>2026-05-02T11:45:07.789Z</time></trkpt><trkpt lat="43.2121383" lon="12.0737033"><ele>331.5</ele><time>2026-05-02T11:45:08.789Z</time></trkpt><trkpt lat="43.212025" lon="12.073605"><ele>327.25</ele><time>2026-05-02T11:45:09.786Z</time></trkpt><trkpt lat="43.211915" lon="12.073495"><ele>323.0</ele><time>2026-05-02T11:45:10.79Z</time></trkpt><trkpt lat="43.211815" lon="12.0733717"><ele>324.25</ele><time>2026-05-02T11:45:11.789Z</time></trkpt><trkpt lat="43.2117183" lon="12.07323"><ele>325.5</ele><time>2026-05-02T11:45:12.789Z</time></trkpt><trkpt lat="43.21163" lon="12.073075"><ele>326.75</ele><time>2026-05-02T11:45:13.789Z</time></trkpt><trkpt lat="43.2115433" lon="12.0729083"><ele>328.0</ele><time>2026-05-02T11:45:14.787Z</time></trkpt><trkpt lat="43.2114567" lon="12.072735"><ele>325.75</ele><time>2026-05-02T11:45:15.789Z</time></trkpt><trkpt lat="43.2113733" lon="12.0725667"><ele>323.5</ele><time>2026-05-02T11:45:16.79Z</time></trkpt><trkpt lat="43.2113033" lon="12.0724067"><ele>321.25</ele><time>2026-05-02T11:45:17.789Z</time></trkpt><trkpt lat="43.2112267" lon="12.072265"><ele>319.0</ele><time>2026-05-02T11:45:18.786Z</time></trkpt><trkpt lat="43.2111633" lon="12.0721317"><ele>319.0</ele><time>2026-05-02T11:45:19.786Z</time></trkpt><trkpt lat="43.2110967" lon="12.0720267"><ele>319.0</ele><time>2026-05-02T11:45:20.787Z</time></trkpt><trkpt lat="43.2110167" lon="12.0719583"><ele>319.0</ele><time>2026-05-02T11:45:21.789Z</time></trkpt><trkpt lat="43.210915" lon="12.0719233"><ele>319.0</ele><time>2026-05-02T11:45:22.789Z</time></trkpt><trkpt lat="43.2107933" lon="12.0719167"><ele>319.0</ele><time>2026-05-02T11:45:23.789Z</time></trkpt><trkpt lat="43.2106583" lon="12.07192"><ele>317.5</ele><time>2026-05-02T11:45:24.789Z</time></trkpt><trkpt lat="43.2105183" lon="12.0719267"><ele>316.0</ele><time>2026-05-02T11:45:25.789Z</time></trkpt><trkpt lat="43.21037" lon="12.0719317"><ele>314.5</ele><time>2026-05-02T11:45:26.788Z</time></trkpt><trkpt lat="43.21023" lon="12.0719333"><ele>313.0</ele><time>2026-05-02T11:45:27.787Z</time></trkpt><trkpt lat="43.2100983" lon="12.0719317"><ele>313.0</ele><time>2026-05-02T11:45:28.79Z</time></trkpt><trkpt lat="43.2099683" lon="12.0719317"><ele>313.0</ele><time>2026-05-02T11:45:29.788Z</time></trkpt><trkpt lat="43.2098433" lon="12.07193"><ele>313.0</ele><time>2026-05-02T11:45:30.789Z</time></trkpt><trkpt lat="43.2097417" lon="12.071925"><ele>313.0</ele><time>2026-05-02T11:45:31.789Z</time></trkpt><trkpt lat="43.2096533" lon="12.0719167"><ele>313.0</ele><time>2026-05-02T11:45:32.786Z</time></trkpt><trkpt lat="43.20958" lon="12.0719083"><ele>312.8</ele><time>2026-05-02T11:45:33.786Z</time></trkpt><trkpt lat="43.2094633" lon="12.0718833"><ele>312.6</ele><time>2026-05-02T11:45:35.79Z</time></trkpt><trkpt lat="43.209435" lon="12.0717233"><ele>312.4</ele><time>2026-05-02T11:45:37.789Z</time></trkpt><trkpt lat="43.2094317" lon="12.0716017"><ele>312.2</ele><time>2026-05-02T11:45:38.789Z</time></trkpt><trkpt lat="43.2093933" lon="12.071505"><ele>312.0</ele><time>2026-05-02T11:45:39.789Z</time></trkpt><trkpt lat="43.2093183" lon="12.07141"><ele>310.6</ele><time>2026-05-02T11:45:40.791Z</time></trkpt><trkpt lat="43.2092517" lon="12.07131"><ele>309.2</ele><time>2026-05-02T11:45:41.79Z</time></trkpt><trkpt lat="43.2091867" lon="12.0711917"><ele>307.8</ele><time>2026-05-02T11:45:42.789Z</time></trkpt><trkpt lat="43.2091417" lon="12.0710667"><ele>306.4</ele><time>2026-05-02T11:45:43.789Z</time></trkpt><trkpt lat="43.20911" lon="12.070945"><ele>305.0</ele><time>2026-05-02T11:45:44.789Z</time></trkpt><trkpt lat="43.2090833" lon="12.0708233"><ele>303.1666666666667</ele><time>2026-05-02T11:45:45.786Z</time></trkpt><trkpt lat="43.2090567" lon="12.0707117"><ele>301.33333333333337</ele><time>2026-05-02T11:45:46.79Z</time></trkpt><trkpt lat="43.209025" lon="12.0706167"><ele>299.5</ele><time>2026-05-02T11:45:47.79Z</time></trkpt><trkpt lat="43.2089817" lon="12.07053"><ele>297.6666666666667</ele><time>2026-05-02T11:45:48.789Z</time></trkpt><trkpt lat="43.2089267" lon="12.0704483"><ele>295.8333333333333</ele><time>2026-05-02T11:45:49.789Z</time></trkpt><trkpt lat="43.2088633" lon="12.0703817"><ele>294.0</ele><time>2026-05-02T11:45:50.79Z</time></trkpt><trkpt lat="43.2087933" lon="12.070335"><ele>293.6666666666667</ele><time>2026-05-02T11:45:51.79Z</time></trkpt><trkpt lat="43.2087183" lon="12.070305"><ele>293.3333333333333</ele><time>2026-05-02T11:45:52.789Z</time></trkpt><trkpt lat="43.20864" lon="12.070295"><ele>293.0</ele><time>2026-05-02T11:45:53.789Z</time></trkpt><trkpt lat="43.2085617" lon="12.0702983"><ele>292.66666666666663</ele><time>2026-05-02T11:45:54.789Z</time></trkpt><trkpt lat="43.2084833" lon="12.0703083"><ele>292.3333333333333</ele><time>2026-05-02T11:45:55.79Z</time></trkpt><trkpt lat="43.208405" lon="12.0703183"><ele>292.0</ele><time>2026-05-02T11:45:56.788Z</time></trkpt><trkpt lat="43.20833" lon="12.0703267"><ele>292.0</ele><time>2026-05-02T11:45:57.788Z</time></trkpt><trkpt lat="43.208255" lon="12.070345"><ele>292.0</ele><time>2026-05-02T11:45:58.787Z</time></trkpt><trkpt lat="43.2081833" lon="12.0703683"><ele>292.0</ele><time>2026-05-02T11:45:59.787Z</time></trkpt><trkpt lat="43.2081133" lon="12.0704"><ele>292.0</ele><time>2026-05-02T11:46:00.788Z</time></trkpt><trkpt lat="43.208045" lon="12.070445"><ele>292.0</ele><time>2026-05-02T11:46:01.787Z</time></trkpt><trkpt lat="43.2079817" lon="12.070505"><ele>292.0</ele><time>2026-05-02T11:46:02.789Z</time></trkpt><trkpt lat="43.2079233" lon="12.0705767"><ele>292.5</ele><time>2026-05-02T11:46:03.787Z</time></trkpt><trkpt lat="43.2078667" lon="12.07065"><ele>293.0</ele><time>2026-05-02T11:46:04.791Z</time></trkpt><trkpt lat="43.2078183" lon="12.0707283"><ele>293.5</ele><time>2026-05-02T11:46:05.79Z</time></trkpt><trkpt lat="43.2077733" lon="12.0708083"><ele>294.0</ele><time>2026-05-02T11:46:06.787Z</time></trkpt><trkpt lat="43.2077183" lon="12.0708883"><ele>294.5</ele><time>2026-05-02T11:46:07.79Z</time></trkpt><trkpt lat="43.2076583" lon="12.0709767"><ele>295.0</ele><time>2026-05-02T11:46:08.79Z</time></trkpt><trkpt lat="43.2076" lon="12.07107"><ele>295.0</ele><time>2026-05-02T11:46:09.789Z</time></trkpt><trkpt lat="43.2075517" lon="12.07117"><ele>295.0</ele><time>2026-05-02T11:46:10.791Z</time></trkpt><trkpt lat="43.20752" lon="12.0712867"><ele>295.0</ele><time>2026-05-02T11:46:11.788Z</time></trkpt><trkpt lat="43.2075017" lon="12.07143"><ele>295.0</ele><time>2026-05-02T11:46:12.789Z</time></trkpt><trkpt lat="43.2074883" lon="12.0715983"><ele>295.0</ele><time>2026-05-02T11:46:13.79Z</time></trkpt><trkpt lat="43.2074783" lon="12.0717783"><ele>295.25</ele><time>2026-05-02T11:46:14.785Z</time></trkpt><trkpt lat="43.2074583" lon="12.0719667"><ele>295.5</ele><time>2026-05-02T11:46:15.785Z</time></trkpt><trkpt lat="43.207445" lon="12.0721633"><ele>295.75</ele><time>2026-05-02T11:46:16.789Z</time></trkpt><trkpt lat="43.2074367" lon="12.0723667"><ele>296.0</ele><time>2026-05-02T11:46:17.785Z</time></trkpt><trkpt lat="43.2074333" lon="12.0725683"><ele>295.25</ele><time>2026-05-02T11:46:18.786Z</time></trkpt><trkpt lat="43.2074283" lon="12.072765"><ele>294.5</ele><time>2026-05-02T11:46:19.786Z</time></trkpt><trkpt lat="43.2074183" lon="12.07296"><ele>293.75</ele><time>2026-05-02T11:46:20.789Z</time></trkpt><trkpt lat="43.20741" lon="12.0731633"><ele>293.0</ele><time>2026-05-02T11:46:21.785Z</time></trkpt><trkpt lat="43.2074033" lon="12.0733733"><ele>290.0</ele><time>2026-05-02T11:46:22.788Z</time></trkpt><trkpt lat="43.20739" lon="12.07359"><ele>287.0</ele><time>2026-05-02T11:46:23.788Z</time></trkpt><trkpt lat="43.2073783" lon="12.0738067"><ele>284.0</ele><time>2026-05-02T11:46:24.789Z</time></trkpt><trkpt lat="43.2073617" lon="12.0740183"><ele>282.33333333333337</ele><time>2026-05-02T11:46:25.786Z</time></trkpt><trkpt lat="43.2073517" lon="12.0742367"><ele>280.6666666666667</ele><time>2026-05-02T11:46:26.787Z</time></trkpt><trkpt lat="43.207345" lon="12.0744483"><ele>279.0</ele><time>2026-05-02T11:46:27.786Z</time></trkpt><trkpt lat="43.20734" lon="12.0746467"><ele>279.0</ele><time>2026-05-02T11:46:28.786Z</time></trkpt><trkpt lat="43.20733" lon="12.0748383"><ele>279.0</ele><time>2026-05-02T11:46:29.785Z</time></trkpt><trkpt lat="43.2073233" lon="12.0750333"><ele>279.0</ele><time>2026-05-02T11:46:30.786Z</time></trkpt><trkpt lat="43.207315" lon="12.0752317"><ele>279.0</ele><time>2026-05-02T11:46:31.786Z</time></trkpt><trkpt lat="43.2073067" lon="12.07544"><ele>276.6666666666667</ele><time>2026-05-02T11:46:32.786Z</time></trkpt><trkpt lat="43.207285" lon="12.075645"><ele>274.33333333333337</ele><time>2026-05-02T11:46:33.788Z</time></trkpt><trkpt lat="43.207255" lon="12.0758483"><ele>272.0</ele><time>2026-05-02T11:46:34.788Z</time></trkpt><trkpt lat="43.2072233" lon="12.07605"><ele>272.0</ele><time>2026-05-02T11:46:35.786Z</time></trkpt><trkpt lat="43.207175" lon="12.0762433"><ele>272.0</ele><time>2026-05-02T11:46:36.787Z</time></trkpt><trkpt lat="43.20713" lon="12.0764433"><ele>272.0</ele><time>2026-05-02T11:46:37.79Z</time></trkpt><trkpt lat="43.2070933" lon="12.0766333"><ele>272.0</ele><time>2026-05-02T11:46:38.789Z</time></trkpt><trkpt lat="43.2070583" lon="12.0768117"><ele>272.0</ele><time>2026-05-02T11:46:39.789Z</time></trkpt><trkpt lat="43.20701" lon="12.0769667"><ele>272.0</ele><time>2026-05-02T11:46:40.79Z</time></trkpt><trkpt lat="43.206945" lon="12.0771"><ele>272.0</ele><time>2026-05-02T11:46:41.789Z</time></trkpt><trkpt lat="43.2068733" lon="12.0772117"><ele>272.0</ele><time>2026-05-02T11:46:42.788Z</time></trkpt><trkpt lat="43.2067833" lon="12.0772967"><ele>272.0</ele><time>2026-05-02T11:46:43.789Z</time></trkpt><trkpt lat="43.2066783" lon="12.0773567"><ele>272.0</ele><time>2026-05-02T11:46:44.79Z</time></trkpt><trkpt lat="43.2065633" lon="12.07738"><ele>272.0</ele><time>2026-05-02T11:46:45.789Z</time></trkpt><trkpt lat="43.2064417" lon="12.0773767"><ele>272.0</ele><time>2026-05-02T11:46:46.789Z</time></trkpt><trkpt lat="43.2063167" lon="12.0773617"><ele>271.75</ele><time>2026-05-02T11:46:47.788Z</time></trkpt><trkpt lat="43.206185" lon="12.0773433"><ele>271.5</ele><time>2026-05-02T11:46:48.788Z</time></trkpt><trkpt lat="43.2060483" lon="12.0773267"><ele>271.25</ele><time>2026-05-02T11:46:49.789Z</time></trkpt><trkpt lat="43.2059033" lon="12.0773067"><ele>271.0</ele><time>2026-05-02T11:46:50.788Z</time></trkpt><trkpt lat="43.20575" lon="12.07729"><ele>270.66666666666663</ele><time>2026-05-02T11:46:51.79Z</time></trkpt><trkpt lat="43.2055883" lon="12.077275"><ele>270.3333333333333</ele><time>2026-05-02T11:46:52.789Z</time></trkpt><trkpt lat="43.2054233" lon="12.0772617"><ele>270.0</ele><time>2026-05-02T11:46:53.79Z</time></trkpt><trkpt lat="43.2052583" lon="12.0772467"><ele>270.0</ele><time>2026-05-02T11:46:54.789Z</time></trkpt><trkpt lat="43.205105" lon="12.0772267"><ele>270.0</ele><time>2026-05-02T11:46:55.789Z</time></trkpt><trkpt lat="43.2049583" lon="12.0772083"><ele>270.0</ele><time>2026-05-02T11:46:56.789Z</time></trkpt><trkpt lat="43.2048133" lon="12.0771933"><ele>270.0</ele><time>2026-05-02T11:46:57.79Z</time></trkpt><trkpt lat="43.2046633" lon="12.0771783"><ele>269.25</ele><time>2026-05-02T11:46:58.79Z</time></trkpt><trkpt lat="43.204515" lon="12.077165"><ele>268.5</ele><time>2026-05-02T11:46:59.787Z</time></trkpt><trkpt lat="43.2043717" lon="12.077145"><ele>267.75</ele><time>2026-05-02T11:47:00.788Z</time></trkpt><trkpt lat="43.204245" lon="12.0771233"><ele>267.0</ele><time>2026-05-02T11:47:01.786Z</time></trkpt><trkpt lat="43.2041217" lon="12.077105"><ele>267.0</ele><time>2026-05-02T11:47:02.787Z</time></trkpt><trkpt lat="43.2040067" lon="12.0770967"><ele>267.0</ele><time>2026-05-02T11:47:03.789Z</time></trkpt><trkpt lat="43.203895" lon="12.0770833"><ele>267.0</ele><time>2026-05-02T11:47:04.789Z</time></trkpt><trkpt lat="43.2037683" lon="12.0770733"><ele>267.0</ele><time>2026-05-02T11:47:05.788Z</time></trkpt><trkpt lat="43.2036467" lon="12.0770617"><ele>267.0</ele><time>2026-05-02T11:47:06.789Z</time></trkpt><trkpt lat="43.2035317" lon="12.07705"><ele>267.0</ele><time>2026-05-02T11:47:07.789Z</time></trkpt><trkpt lat="43.2034233" lon="12.0770367"><ele>267.0</ele><time>2026-05-02T11:47:08.785Z</time></trkpt><trkpt lat="43.20332" lon="12.0770233"><ele>267.0</ele><time>2026-05-02T11:47:09.789Z</time></trkpt><trkpt lat="43.2032267" lon="12.0770133"><ele>267.0</ele><time>2026-05-02T11:47:10.79Z</time></trkpt><trkpt lat="43.2031383" lon="12.0770033"><ele>267.0</ele><time>2026-05-02T11:47:11.787Z</time></trkpt><trkpt lat="43.2030567" lon="12.07699"><ele>267.0</ele><time>2026-05-02T11:47:12.788Z</time></trkpt><trkpt lat="43.2029733" lon="12.0769817"><ele>267.0</ele><time>2026-05-02T11:47:13.787Z</time></trkpt><trkpt lat="43.2028617" lon="12.07696"><ele>267.0</ele><time>2026-05-02T11:47:15.789Z</time></trkpt><trkpt lat="43.2027733" lon="12.0769583"><ele>267.0</ele><time>2026-05-02T11:47:42.786Z</time></trkpt><trkpt lat="43.2027" lon="12.076865"><ele>267.0</ele><time>2026-05-02T11:47:44.786Z</time></trkpt><trkpt lat="43.20268" lon="12.0767683"><ele>267.0</ele><time>2026-05-02T11:47:45.786Z</time></trkpt><trkpt lat="43.2026883" lon="12.07663"><ele>267.0</ele><time>2026-05-02T11:47:46.786Z</time></trkpt><trkpt lat="43.2027183" lon="12.0764617"><ele>267.0</ele><time>2026-05-02T11:47:47.786Z</time></trkpt><trkpt lat="43.2027567" lon="12.076265"><ele>267.0</ele><time>2026-05-02T11:47:48.787Z</time></trkpt><trkpt lat="43.20279" lon="12.0760783"><ele>266.3333333333333</ele><time>2026-05-02T11:47:49.785Z</time></trkpt><trkpt lat="43.2028233" lon="12.07588"><ele>265.66666666666663</ele><time>2026-05-02T11:47:50.786Z</time></trkpt><trkpt lat="43.2028617" lon="12.0756767"><ele>265.0</ele><time>2026-05-02T11:47:51.788Z</time></trkpt><trkpt lat="43.2029" lon="12.0754633"><ele>264.3333333333333</ele><time>2026-05-02T11:47:52.789Z</time></trkpt><trkpt lat="43.2029367" lon="12.07524"><ele>263.6666666666667</ele><time>2026-05-02T11:47:53.787Z</time></trkpt><trkpt lat="43.2029767" lon="12.075015"><ele>263.0</ele><time>2026-05-02T11:47:54.88Z</time></trkpt><trkpt lat="43.20302" lon="12.0747733"><ele>263.0</ele><time>2026-05-02T11:47:55.786Z</time></trkpt><trkpt lat="43.2030733" lon="12.07452"><ele>263.0</ele><time>2026-05-02T11:47:56.79Z</time></trkpt><trkpt lat="43.20312" lon="12.0742783"><ele>263.0</ele><time>2026-05-02T11:47:57.789Z</time></trkpt><trkpt lat="43.2031583" lon="12.0740367"><ele>263.0</ele><time>2026-05-02T11:47:58.789Z</time></trkpt><trkpt lat="43.2031767" lon="12.0737867"><ele>263.0</ele><time>2026-05-02T11:47:59.789Z</time></trkpt><trkpt lat="43.2031733" lon="12.073525"><ele>263.0</ele><time>2026-05-02T11:48:00.79Z</time></trkpt><trkpt lat="43.20314" lon="12.0732583"><ele>263.0</ele><time>2026-05-02T11:48:01.789Z</time></trkpt><trkpt lat="43.2030783" lon="12.0730067"><ele>263.0</ele><time>2026-05-02T11:48:02.79Z</time></trkpt><trkpt lat="43.2030067" lon="12.0727717"><ele>263.0</ele><time>2026-05-02T11:48:03.79Z</time></trkpt><trkpt lat="43.2029483" lon="12.0725483"><ele>263.0</ele><time>2026-05-02T11:48:04.789Z</time></trkpt><trkpt lat="43.2029167" lon="12.0723217"><ele>263.0</ele><time>2026-05-02T11:48:05.789Z</time></trkpt><trkpt lat="43.2029117" lon="12.0720783"><ele>263.0</ele><time>2026-05-02T11:48:06.789Z</time></trkpt><trkpt lat="43.202925" lon="12.071825"><ele>263.0</ele><time>2026-05-02T11:48:07.79Z</time></trkpt><trkpt lat="43.2029367" lon="12.07157"><ele>263.0</ele><time>2026-05-02T11:48:08.789Z</time></trkpt><trkpt lat="43.202935" lon="12.0713217"><ele>263.0</ele><time>2026-05-02T11:48:09.785Z</time></trkpt><trkpt lat="43.2029117" lon="12.0710933"><ele>263.0</ele><time>2026-05-02T11:48:10.786Z</time></trkpt><trkpt lat="43.2028517" lon="12.0708783"><ele>263.0</ele><time>2026-05-02T11:48:11.789Z</time></trkpt><trkpt lat="43.2027617" lon="12.0706783"><ele>263.0</ele><time>2026-05-02T11:48:12.791Z</time></trkpt><trkpt lat="43.202655" lon="12.0704817"><ele>263.33333333333337</ele><time>2026-05-02T11:48:13.79Z</time></trkpt><trkpt lat="43.202555" lon="12.0702767"><ele>263.6666666666667</ele><time>2026-05-02T11:48:14.786Z</time></trkpt><trkpt lat="43.2024717" lon="12.070055"><ele>264.0</ele><time>2026-05-02T11:48:15.789Z</time></trkpt><trkpt lat="43.202405" lon="12.0698083"><ele>264.0</ele><time>2026-05-02T11:48:16.786Z</time></trkpt><trkpt lat="43.202355" lon="12.069545"><ele>264.0</ele><time>2026-05-02T11:48:17.789Z</time></trkpt><trkpt lat="43.2023217" lon="12.069265"><ele>264.0</ele><time>2026-05-02T11:48:18.787Z</time></trkpt><trkpt lat="43.2023017" lon="12.0689733"><ele>263.6666666666667</ele><time>2026-05-02T11:48:19.786Z</time></trkpt><trkpt lat="43.2022783" lon="12.0686767"><ele>263.33333333333337</ele><time>2026-05-02T11:48:20.789Z</time></trkpt><trkpt lat="43.202255" lon="12.0683767"><ele>263.0</ele><time>2026-05-02T11:48:21.789Z</time></trkpt><trkpt lat="43.20223" lon="12.0680733"><ele>263.33333333333337</ele><time>2026-05-02T11:48:22.79Z</time></trkpt><trkpt lat="43.202205" lon="12.0677717"><ele>263.6666666666667</ele><time>2026-05-02T11:48:23.79Z</time></trkpt><trkpt lat="43.2021817" lon="12.067475"><ele>264.0</ele><time>2026-05-02T11:48:24.789Z</time></trkpt><trkpt lat="43.2021533" lon="12.0671833"><ele>264.0</ele><time>2026-05-02T11:48:25.79Z</time></trkpt><trkpt lat="43.202115" lon="12.066885"><ele>264.0</ele><time>2026-05-02T11:48:26.789Z</time></trkpt><trkpt lat="43.2020567" lon="12.0665783"><ele>264.5</ele><time>2026-05-02T11:48:27.789Z</time></trkpt><trkpt lat="43.20197" lon="12.0662817"><ele>265.0</ele><time>2026-05-02T11:48:28.789Z</time></trkpt><trkpt lat="43.201865" lon="12.0660133"><ele>265.0</ele><time>2026-05-02T11:48:29.789Z</time></trkpt><trkpt lat="43.2017467" lon="12.0657683"><ele>265.0</ele><time>2026-05-02T11:48:30.789Z</time></trkpt><trkpt lat="43.2016317" lon="12.065525"><ele>265.0</ele><time>2026-05-02T11:48:31.791Z</time></trkpt><trkpt lat="43.2015233" lon="12.0652683"><ele>265.0</ele><time>2026-05-02T11:48:32.79Z</time></trkpt><trkpt lat="43.2014233" lon="12.065005"><ele>265.0</ele><time>2026-05-02T11:48:33.791Z</time></trkpt><trkpt lat="43.2013317" lon="12.064735"><ele>265.0</ele><time>2026-05-02T11:48:34.789Z</time></trkpt><trkpt lat="43.20124" lon="12.064465"><ele>265.0</ele><time>2026-05-02T11:48:35.792Z</time></trkpt><trkpt lat="43.2011433" lon="12.0641933"><ele>265.0</ele><time>2026-05-02T11:48:36.79Z</time></trkpt><trkpt lat="43.2010483" lon="12.0639233"><ele>265.0</ele><time>2026-05-02T11:48:37.787Z</time></trkpt><trkpt lat="43.2009583" lon="12.06365"><ele>265.3333333333333</ele><time>2026-05-02T11:48:38.786Z</time></trkpt><trkpt lat="43.200875" lon="12.0633733"><ele>265.6666666666667</ele><time>2026-05-02T11:48:39.786Z</time></trkpt><trkpt lat="43.2008033" lon="12.0630933"><ele>266.0</ele><time>2026-05-02T11:48:40.788Z</time></trkpt><trkpt lat="43.2007383" lon="12.0628083"><ele>266.0</ele><time>2026-05-02T11:48:41.79Z</time></trkpt><trkpt lat="43.2006783" lon="12.0625233"><ele>266.0</ele><time>2026-05-02T11:48:42.79Z</time></trkpt><trkpt lat="43.20062" lon="12.062245"><ele>266.0</ele><time>2026-05-02T11:48:43.79Z</time></trkpt><trkpt lat="43.20057" lon="12.0619767"><ele>266.0</ele><time>2026-05-02T11:48:44.79Z</time></trkpt><trkpt lat="43.2005183" lon="12.0617217"><ele>266.0</ele><time>2026-05-02T11:48:45.79Z</time></trkpt><trkpt lat="43.2004667" lon="12.0614717"><ele>266.0</ele><time>2026-05-02T11:48:46.791Z</time></trkpt><trkpt lat="43.2004167" lon="12.06122"><ele>266.0</ele><time>2026-05-02T11:48:47.789Z</time></trkpt><trkpt lat="43.20037" lon="12.0609667"><ele>266.0</ele><time>2026-05-02T11:48:48.786Z</time></trkpt><trkpt lat="43.2003183" lon="12.0607167"><ele>266.0</ele><time>2026-05-02T11:48:49.786Z</time></trkpt><trkpt lat="43.200265" lon="12.060465"><ele>266.33333333333337</ele><time>2026-05-02T11:48:50.79Z</time></trkpt><trkpt lat="43.2002133" lon="12.0602133"><ele>266.6666666666667</ele><time>2026-05-02T11:48:51.79Z</time></trkpt><trkpt lat="43.20016" lon="12.05996"><ele>267.0</ele><time>2026-05-02T11:48:52.792Z</time></trkpt><trkpt lat="43.2001083" lon="12.05971"><ele>267.0</ele><time>2026-05-02T11:48:53.789Z</time></trkpt><trkpt lat="43.2000567" lon="12.05946"><ele>267.0</ele><time>2026-05-02T11:48:54.79Z</time></trkpt><trkpt lat="43.200005" lon="12.0592117"><ele>267.0</ele><time>2026-05-02T11:48:55.789Z</time></trkpt><trkpt lat="43.19995" lon="12.058965"><ele>267.0</ele><time>2026-05-02T11:48:56.79Z</time></trkpt><trkpt lat="43.1998933" lon="12.0587183"><ele>267.0</ele><time>2026-05-02T11:48:57.789Z</time></trkpt><trkpt lat="43.19984" lon="12.0584833"><ele>267.0</ele><time>2026-05-02T11:48:58.79Z</time></trkpt><trkpt lat="43.19979" lon="12.0582617"><ele>266.6666666666667</ele><time>2026-05-02T11:48:59.789Z</time></trkpt><trkpt lat="43.1997567" lon="12.0580483"><ele>266.33333333333337</ele><time>2026-05-02T11:49:00.787Z</time></trkpt><trkpt lat="43.19974" lon="12.0578283"><ele>266.0</ele><time>2026-05-02T11:49:01.789Z</time></trkpt><trkpt lat="43.1997417" lon="12.057585"><ele>266.6666666666667</ele><time>2026-05-02T11:49:02.79Z</time></trkpt><trkpt lat="43.1997567" lon="12.05732"><ele>267.3333333333333</ele><time>2026-05-02T11:49:03.79Z</time></trkpt><trkpt lat="43.1997767" lon="12.0570417"><ele>268.0</ele><time>2026-05-02T11:49:04.788Z</time></trkpt><trkpt lat="43.1997983" lon="12.0567567"><ele>268.66666666666663</ele><time>2026-05-02T11:49:05.788Z</time></trkpt><trkpt lat="43.19982" lon="12.0564633"><ele>269.3333333333333</ele><time>2026-05-02T11:49:06.788Z</time></trkpt><trkpt lat="43.1998417" lon="12.0561633"><ele>270.0</ele><time>2026-05-02T11:49:07.787Z</time></trkpt><trkpt lat="43.1998633" lon="12.0558633"><ele>272.0</ele><time>2026-05-02T11:49:08.789Z</time></trkpt><trkpt lat="43.1998833" lon="12.05555"><ele>274.0</ele><time>2026-05-02T11:49:09.786Z</time></trkpt><trkpt lat="43.199905" lon="12.0552283"><ele>275.0</ele><time>2026-05-02T11:49:10.788Z</time></trkpt><trkpt lat="43.19993" lon="12.0549033"><ele>276.0</ele><time>2026-05-02T11:49:11.786Z</time></trkpt><trkpt lat="43.1999517" lon="12.05458"><ele>276.0</ele><time>2026-05-02T11:49:12.785Z</time></trkpt><trkpt lat="43.1999683" lon="12.054265"><ele>276.0</ele><time>2026-05-02T11:49:13.786Z</time></trkpt><trkpt lat="43.199965" lon="12.0539533"><ele>278.5</ele><time>2026-05-02T11:49:14.788Z</time></trkpt><trkpt lat="43.1999317" lon="12.053635"><ele>281.0</ele><time>2026-05-02T11:49:15.789Z</time></trkpt><trkpt lat="43.1998767" lon="12.0533233"><ele>281.6666666666667</ele><time>2026-05-02T11:49:16.878Z</time></trkpt><trkpt lat="43.1998183" lon="12.05303"><ele>282.3333333333333</ele><time>2026-05-02T11:49:17.785Z</time></trkpt><trkpt lat="43.1997617" lon="12.05276"><ele>283.0</ele><time>2026-05-02T11:49:18.789Z</time></trkpt><trkpt lat="43.1997083" lon="12.0525167"><ele>285.0</ele><time>2026-05-02T11:49:19.785Z</time></trkpt><trkpt lat="43.199645" lon="12.05231"><ele>287.0</ele><time>2026-05-02T11:49:20.788Z</time></trkpt><trkpt lat="43.1995517" lon="12.0521333"><ele>289.0</ele><time>2026-05-02T11:49:21.789Z</time></trkpt><trkpt lat="43.1994217" lon="12.0519767"><ele>289.0</ele><time>2026-05-02T11:49:22.788Z</time></trkpt><trkpt lat="43.1992733" lon="12.0518217"><ele>289.0</ele><time>2026-05-02T11:49:23.788Z</time></trkpt><trkpt lat="43.1991233" lon="12.0516683"><ele>289.0</ele><time>2026-05-02T11:49:24.788Z</time></trkpt><trkpt lat="43.1989717" lon="12.0515067"><ele>291.66666666666663</ele><time>2026-05-02T11:49:25.79Z</time></trkpt><trkpt lat="43.1988167" lon="12.0513417"><ele>294.3333333333333</ele><time>2026-05-02T11:49:26.788Z</time></trkpt><trkpt lat="43.1986617" lon="12.051175"><ele>297.0</ele><time>2026-05-02T11:49:27.786Z</time></trkpt><trkpt lat="43.1985133" lon="12.0510117"><ele>297.0</ele><time>2026-05-02T11:49:28.786Z</time></trkpt><trkpt lat="43.19837" lon="12.050865"><ele>297.0</ele><time>2026-05-02T11:49:29.786Z</time></trkpt><trkpt lat="43.1982233" lon="12.0507567"><ele>297.0</ele><time>2026-05-02T11:49:30.786Z</time></trkpt><trkpt lat="43.1980717" lon="12.05071"><ele>297.3333333333333</ele><time>2026-05-02T11:49:31.785Z</time></trkpt><trkpt lat="43.1979017" lon="12.0507333"><ele>297.66666666666663</ele><time>2026-05-02T11:49:32.785Z</time></trkpt><trkpt lat="43.197715" lon="12.0507767"><ele>298.0</ele><time>2026-05-02T11:49:33.785Z</time></trkpt><trkpt lat="43.197515" lon="12.0508217"><ele>298.66666666666663</ele><time>2026-05-02T11:49:34.786Z</time></trkpt><trkpt lat="43.1973167" lon="12.0508417"><ele>299.3333333333333</ele><time>2026-05-02T11:49:35.785Z</time></trkpt><trkpt lat="43.1971167" lon="12.0508267"><ele>300.0</ele><time>2026-05-02T11:49:36.785Z</time></trkpt><trkpt lat="43.1969183" lon="12.0507783"><ele>306.0</ele><time>2026-05-02T11:49:37.785Z</time></trkpt><trkpt lat="43.1967217" lon="12.05071"><ele>312.0</ele><time>2026-05-02T11:49:38.786Z</time></trkpt><trkpt lat="43.196535" lon="12.05063"><ele>318.0</ele><time>2026-05-02T11:49:39.786Z</time></trkpt><trkpt lat="43.1963617" lon="12.0505433"><ele>318.0</ele><time>2026-05-02T11:49:40.787Z</time></trkpt><trkpt lat="43.1962083" lon="12.0504567"><ele>318.0</ele><time>2026-05-02T11:49:41.787Z</time></trkpt><trkpt lat="43.196065" lon="12.05039"><ele>318.0</ele><time>2026-05-02T11:49:42.789Z</time></trkpt><trkpt lat="43.1959233" lon="12.0503583"><ele>318.0</ele><time>2026-05-02T11:49:43.788Z</time></trkpt><trkpt lat="43.195775" lon="12.0503433"><ele>318.0</ele><time>2026-05-02T11:49:44.785Z</time></trkpt><trkpt lat="43.195625" lon="12.05034"><ele>318.0</ele><time>2026-05-02T11:49:45.786Z</time></trkpt><trkpt lat="43.1954767" lon="12.050325"><ele>318.0</ele><time>2026-05-02T11:49:46.785Z</time></trkpt><trkpt lat="43.1953433" lon="12.0503083"><ele>317.0</ele><time>2026-05-02T11:49:47.786Z</time></trkpt><trkpt lat="43.1952117" lon="12.0502817"><ele>316.0</ele><time>2026-05-02T11:49:48.785Z</time></trkpt><trkpt lat="43.1950683" lon="12.0502533"><ele>315.0</ele><time>2026-05-02T11:49:49.789Z</time></trkpt><trkpt lat="43.19492" lon="12.0502217"><ele>314.0</ele><time>2026-05-02T11:49:50.789Z</time></trkpt><trkpt lat="43.1947717" lon="12.050185"><ele>312.33333333333337</ele><time>2026-05-02T11:49:51.789Z</time></trkpt><trkpt lat="43.19462" lon="12.0501433"><ele>310.6666666666667</ele><time>2026-05-02T11:49:52.789Z</time></trkpt><trkpt lat="43.1944633" lon="12.0500933"><ele>309.0</ele><time>2026-05-02T11:49:53.79Z</time></trkpt><trkpt lat="43.1943083" lon="12.0500467"><ele>309.0</ele><time>2026-05-02T11:49:54.789Z</time></trkpt><trkpt lat="43.1941583" lon="12.0500067"><ele>309.0</ele><time>2026-05-02T11:49:55.789Z</time></trkpt><trkpt lat="43.1940117" lon="12.0499683"><ele>309.0</ele><time>2026-05-02T11:49:56.79Z</time></trkpt><trkpt lat="43.1938633" lon="12.04993"><ele>311.6666666666667</ele><time>2026-05-02T11:49:57.787Z</time></trkpt><trkpt lat="43.1937183" lon="12.049895"><ele>314.33333333333337</ele><time>2026-05-02T11:49:58.788Z</time></trkpt><trkpt lat="43.1935717" lon="12.04985"><ele>317.0</ele><time>2026-05-02T11:49:59.786Z</time></trkpt><trkpt lat="43.1934233" lon="12.049795"><ele>317.0</ele><time>2026-05-02T11:50:00.787Z</time></trkpt><trkpt lat="43.1932783" lon="12.0497333"><ele>317.0</ele><time>2026-05-02T11:50:01.786Z</time></trkpt><trkpt lat="43.1931317" lon="12.0496633"><ele>317.0</ele><time>2026-05-02T11:50:02.787Z</time></trkpt><trkpt lat="43.192985" lon="12.049585"><ele>313.6666666666667</ele><time>2026-05-02T11:50:03.786Z</time></trkpt><trkpt lat="43.1928367" lon="12.049505"><ele>310.3333333333333</ele><time>2026-05-02T11:50:04.786Z</time></trkpt><trkpt lat="43.1926917" lon="12.04942"><ele>307.0</ele><time>2026-05-02T11:50:05.785Z</time></trkpt><trkpt lat="43.1925467" lon="12.0493367"><ele>307.0</ele><time>2026-05-02T11:50:06.787Z</time></trkpt><trkpt lat="43.1924083" lon="12.0492533"><ele>307.0</ele><time>2026-05-02T11:50:07.787Z</time></trkpt><trkpt lat="43.1922767" lon="12.0491767"><ele>307.0</ele><time>2026-05-02T11:50:08.789Z</time></trkpt><trkpt lat="43.19215" lon="12.0491017"><ele>307.0</ele><time>2026-05-02T11:50:09.789Z</time></trkpt><trkpt lat="43.1920217" lon="12.049025"><ele>306.25</ele><time>2026-05-02T11:50:10.789Z</time></trkpt><trkpt lat="43.1919033" lon="12.048935"><ele>305.5</ele><time>2026-05-02T11:50:11.789Z</time></trkpt><trkpt lat="43.1918033" lon="12.048825"><ele>304.75</ele><time>2026-05-02T11:50:12.789Z</time></trkpt><trkpt lat="43.191725" lon="12.048685"><ele>304.0</ele><time>2026-05-02T11:50:13.79Z</time></trkpt><trkpt lat="43.1916617" lon="12.0485167"><ele>304.0</ele><time>2026-05-02T11:50:14.789Z</time></trkpt><trkpt lat="43.1916167" lon="12.0483217"><ele>304.0</ele><time>2026-05-02T11:50:15.79Z</time></trkpt><trkpt lat="43.191585" lon="12.0481033"><ele>304.0</ele><time>2026-05-02T11:50:16.789Z</time></trkpt><trkpt lat="43.1915583" lon="12.0478617"><ele>304.0</ele><time>2026-05-02T11:50:17.789Z</time></trkpt><trkpt lat="43.19152" lon="12.04761"><ele>304.0</ele><time>2026-05-02T11:50:18.789Z</time></trkpt><trkpt lat="43.1914567" lon="12.0473567"><ele>304.0</ele><time>2026-05-02T11:50:19.789Z</time></trkpt><trkpt lat="43.191375" lon="12.0471133"><ele>302.0</ele><time>2026-05-02T11:50:20.789Z</time></trkpt><trkpt lat="43.1912767" lon="12.0468733"><ele>300.0</ele><time>2026-05-02T11:50:21.789Z</time></trkpt><trkpt lat="43.1911783" lon="12.0466333"><ele>298.0</ele><time>2026-05-02T11:50:22.789Z</time></trkpt><trkpt lat="43.191085" lon="12.04639"><ele>298.0</ele><time>2026-05-02T11:50:23.789Z</time></trkpt><trkpt lat="43.1910033" lon="12.0461667"><ele>298.0</ele><time>2026-05-02T11:50:24.789Z</time></trkpt><trkpt lat="43.1909333" lon="12.0459633"><ele>298.0</ele><time>2026-05-02T11:50:25.789Z</time></trkpt><trkpt lat="43.190885" lon="12.04577"><ele>298.66666666666663</ele><time>2026-05-02T11:50:26.79Z</time></trkpt><trkpt lat="43.1908567" lon="12.045565"><ele>299.3333333333333</ele><time>2026-05-02T11:50:27.786Z</time></trkpt><trkpt lat="43.1908433" lon="12.0453517"><ele>300.0</ele><time>2026-05-02T11:50:28.786Z</time></trkpt><trkpt lat="43.1908517" lon="12.0451233"><ele>299.6666666666667</ele><time>2026-05-02T11:50:29.786Z</time></trkpt><trkpt lat="43.1908767" lon="12.0448867"><ele>299.33333333333337</ele><time>2026-05-02T11:50:30.785Z</time></trkpt><trkpt lat="43.190915" lon="12.0446467"><ele>299.0</ele><time>2026-05-02T11:50:31.785Z</time></trkpt><trkpt lat="43.1909533" lon="12.044415"><ele>299.0</ele><time>2026-05-02T11:50:32.786Z</time></trkpt><trkpt lat="43.190985" lon="12.044195"><ele>299.0</ele><time>2026-05-02T11:50:33.786Z</time></trkpt><trkpt lat="43.1910017" lon="12.0439917"><ele>299.0</ele><time>2026-05-02T11:50:34.786Z</time></trkpt><trkpt lat="43.1909867" lon="12.0437983"><ele>300.6666666666667</ele><time>2026-05-02T11:50:35.786Z</time></trkpt><trkpt lat="43.1909283" lon="12.0436133"><ele>302.3333333333333</ele><time>2026-05-02T11:50:36.785Z</time></trkpt><trkpt lat="43.1908383" lon="12.0434267"><ele>304.0</ele><time>2026-05-02T11:50:37.786Z</time></trkpt><trkpt lat="43.1907417" lon="12.04323"><ele>301.3333333333333</ele><time>2026-05-02T11:50:38.789Z</time></trkpt><trkpt lat="43.1906567" lon="12.04302"><ele>298.6666666666667</ele><time>2026-05-02T11:50:39.789Z</time></trkpt><trkpt lat="43.1905817" lon="12.0427983"><ele>296.0</ele><time>2026-05-02T11:50:40.789Z</time></trkpt><trkpt lat="43.1905067" lon="12.04257"><ele>298.33333333333337</ele><time>2026-05-02T11:50:41.789Z</time></trkpt><trkpt lat="43.1904317" lon="12.0423467"><ele>300.6666666666667</ele><time>2026-05-02T11:50:42.79Z</time></trkpt><trkpt lat="43.19036" lon="12.0421283"><ele>303.0</ele><time>2026-05-02T11:50:43.79Z</time></trkpt><trkpt lat="43.1902867" lon="12.04191"><ele>303.0</ele><time>2026-05-02T11:50:44.789Z</time></trkpt><trkpt lat="43.1902133" lon="12.0416917"><ele>303.0</ele><time>2026-05-02T11:50:45.79Z</time></trkpt><trkpt lat="43.1901417" lon="12.0414767"><ele>303.0</ele><time>2026-05-02T11:50:46.79Z</time></trkpt><trkpt lat="43.190075" lon="12.04127"><ele>304.0</ele><time>2026-05-02T11:50:47.789Z</time></trkpt><trkpt lat="43.19001" lon="12.041075"><ele>305.0</ele><time>2026-05-02T11:50:48.789Z</time></trkpt><trkpt lat="43.1899483" lon="12.040895"><ele>306.0</ele><time>2026-05-02T11:50:49.785Z</time></trkpt><trkpt lat="43.1898933" lon="12.0407317"><ele>307.0</ele><time>2026-05-02T11:50:50.786Z</time></trkpt><trkpt lat="43.189845" lon="12.0405883"><ele>305.3333333333333</ele><time>2026-05-02T11:50:51.786Z</time></trkpt><trkpt lat="43.1898033" lon="12.040465"><ele>303.66666666666663</ele><time>2026-05-02T11:50:52.786Z</time></trkpt><trkpt lat="43.1897683" lon="12.0403683"><ele>302.0</ele><time>2026-05-02T11:50:53.792Z</time></trkpt><trkpt lat="43.1897367" lon="12.0402833"><ele>300.3333333333333</ele><time>2026-05-02T11:50:54.789Z</time></trkpt><trkpt lat="43.189685" lon="12.0401317"><ele>298.6666666666667</ele><time>2026-05-02T11:50:56.786Z</time></trkpt><trkpt lat="43.1896533" lon="12.0400517"><ele>297.0</ele><time>2026-05-02T11:50:57.787Z</time></trkpt><trkpt lat="43.189615" lon="12.0399"><ele>297.0</ele><time>2026-05-02T11:50:59.786Z</time></trkpt><trkpt lat="43.1896467" lon="12.0397567"><ele>297.0</ele><time>2026-05-02T11:51:01.785Z</time></trkpt><trkpt lat="43.1897017" lon="12.0397033"><ele>297.0</ele><time>2026-05-02T11:51:02.786Z</time></trkpt><trkpt lat="43.1897633" lon="12.0396567"><ele>297.0</ele><time>2026-05-02T11:51:03.786Z</time></trkpt><trkpt lat="43.1898483" lon="12.0395517"><ele>297.0</ele><time>2026-05-02T11:51:05.788Z</time></trkpt><trkpt lat="43.1898267" lon="12.039435"><ele>297.0</ele><time>2026-05-02T11:51:07.787Z</time></trkpt><trkpt lat="43.18976" lon="12.03939"><ele>296.2</ele><time>2026-05-02T11:51:08.79Z</time></trkpt><trkpt lat="43.1896717" lon="12.0393567"><ele>295.4</ele><time>2026-05-02T11:51:09.792Z</time></trkpt><trkpt lat="43.1895717" lon="12.0393267"><ele>294.6</ele><time>2026-05-02T11:51:10.79Z</time></trkpt><trkpt lat="43.1894617" lon="12.039295"><ele>293.8</ele><time>2026-05-02T11:51:11.787Z</time></trkpt><trkpt lat="43.189355" lon="12.039265"><ele>293.0</ele><time>2026-05-02T11:51:12.79Z</time></trkpt><trkpt lat="43.1892417" lon="12.03923"><ele>293.0</ele><time>2026-05-02T11:51:13.789Z</time></trkpt><trkpt lat="43.1891217" lon="12.03919"><ele>293.0</ele><time>2026-05-02T11:51:14.793Z</time></trkpt><trkpt lat="43.1889983" lon="12.0391517"><ele>293.0</ele><time>2026-05-02T11:51:15.789Z</time></trkpt><trkpt lat="43.1888767" lon="12.0391067"><ele>293.0</ele><time>2026-05-02T11:51:16.79Z</time></trkpt><trkpt lat="43.1887483" lon="12.0390617"><ele>290.0</ele><time>2026-05-02T11:51:17.789Z</time></trkpt><trkpt lat="43.188615" lon="12.0390067"><ele>287.0</ele><time>2026-05-02T11:51:18.789Z</time></trkpt><trkpt lat="43.1884817" lon="12.0389267"><ele>284.0</ele><time>2026-05-02T11:51:19.786Z</time></trkpt><trkpt lat="43.1883383" lon="12.03882"><ele>281.0</ele><time>2026-05-02T11:51:20.786Z</time></trkpt><trkpt lat="43.1881967" lon="12.03869"><ele>279.0</ele><time>2026-05-02T11:51:21.789Z</time></trkpt><trkpt lat="43.1880617" lon="12.0385417"><ele>277.0</ele><time>2026-05-02T11:51:22.789Z</time></trkpt><trkpt lat="43.187935" lon="12.0383867"><ele>275.0</ele><time>2026-05-02T11:51:23.79Z</time></trkpt><trkpt lat="43.18781" lon="12.0382333"><ele>274.75</ele><time>2026-05-02T11:51:24.79Z</time></trkpt><trkpt lat="43.1876967" lon="12.0380883"><ele>274.5</ele><time>2026-05-02T11:51:25.79Z</time></trkpt><trkpt lat="43.187605" lon="12.0379483"><ele>274.25</ele><time>2026-05-02T11:51:26.789Z</time></trkpt><trkpt lat="43.187535" lon="12.0377883"><ele>274.0</ele><time>2026-05-02T11:51:27.791Z</time></trkpt><trkpt lat="43.187485" lon="12.0376"><ele>272.0</ele><time>2026-05-02T11:51:28.789Z</time></trkpt><trkpt lat="43.1874467" lon="12.037385"><ele>270.0</ele><time>2026-05-02T11:51:29.789Z</time></trkpt><trkpt lat="43.1874083" lon="12.0371533"><ele>268.0</ele><time>2026-05-02T11:51:30.789Z</time></trkpt><trkpt lat="43.187365" lon="12.03691"><ele>266.66666666666663</ele><time>2026-05-02T11:51:31.79Z</time></trkpt><trkpt lat="43.1873217" lon="12.03667"><ele>265.3333333333333</ele><time>2026-05-02T11:51:32.79Z</time></trkpt><trkpt lat="43.1872783" lon="12.03644"><ele>264.0</ele><time>2026-05-02T11:51:33.79Z</time></trkpt><trkpt lat="43.18724" lon="12.0362233"><ele>263.75</ele><time>2026-05-02T11:51:34.789Z</time></trkpt><trkpt lat="43.1872033" lon="12.0360217"><ele>263.5</ele><time>2026-05-02T11:51:35.789Z</time></trkpt><trkpt lat="43.1871683" lon="12.0358433"><ele>263.25</ele><time>2026-05-02T11:51:36.789Z</time></trkpt><trkpt lat="43.187125" lon="12.0356967"><ele>263.0</ele><time>2026-05-02T11:51:37.786Z</time></trkpt><trkpt lat="43.1870617" lon="12.0355817"><ele>263.0</ele><time>2026-05-02T11:51:38.786Z</time></trkpt><trkpt lat="43.1869833" lon="12.0355083"><ele>263.0</ele><time>2026-05-02T11:51:39.789Z</time></trkpt><trkpt lat="43.1869033" lon="12.03547"><ele>263.0</ele><time>2026-05-02T11:51:40.79Z</time></trkpt><trkpt lat="43.1868217" lon="12.0354367"><ele>263.0</ele><time>2026-05-02T11:51:41.789Z</time></trkpt><trkpt lat="43.1867333" lon="12.0353833"><ele>263.0</ele><time>2026-05-02T11:51:42.786Z</time></trkpt><trkpt lat="43.1866667" lon="12.035295"><ele>263.0</ele><time>2026-05-02T11:51:43.789Z</time></trkpt><trkpt lat="43.1866317" lon="12.0351817"><ele>263.0</ele><time>2026-05-02T11:51:44.789Z</time></trkpt><trkpt lat="43.18662" lon="12.03505"><ele>263.0</ele><time>2026-05-02T11:51:45.791Z</time></trkpt><trkpt lat="43.1866383" lon="12.03487"><ele>263.0</ele><time>2026-05-02T11:51:46.79Z</time></trkpt><trkpt lat="43.1866867" lon="12.0346317"><ele>262.6666666666667</ele><time>2026-05-02T11:51:47.787Z</time></trkpt><trkpt lat="43.18673" lon="12.03439"><ele>262.3333333333333</ele><time>2026-05-02T11:51:48.787Z</time></trkpt><trkpt lat="43.1867683" lon="12.0341633"><ele>262.0</ele><time>2026-05-02T11:51:49.789Z</time></trkpt><trkpt lat="43.18682" lon="12.03393"><ele>261.66666666666663</ele><time>2026-05-02T11:51:50.789Z</time></trkpt><trkpt lat="43.18688" lon="12.0336867"><ele>261.3333333333333</ele><time>2026-05-02T11:51:51.789Z</time></trkpt><trkpt lat="43.1869417" lon="12.0334367"><ele>261.0</ele><time>2026-05-02T11:51:52.789Z</time></trkpt><trkpt lat="43.1869883" lon="12.03317"><ele>260.6666666666667</ele><time>2026-05-02T11:51:53.791Z</time></trkpt><trkpt lat="43.1870167" lon="12.0328867"><ele>260.33333333333337</ele><time>2026-05-02T11:51:54.789Z</time></trkpt><trkpt lat="43.1870233" lon="12.0325933"><ele>260.0</ele><time>2026-05-02T11:51:55.789Z</time></trkpt><trkpt lat="43.1870083" lon="12.032285"><ele>260.0</ele><time>2026-05-02T11:51:56.79Z</time></trkpt><trkpt lat="43.1869867" lon="12.031975"><ele>260.0</ele><time>2026-05-02T11:51:57.79Z</time></trkpt><trkpt lat="43.186975" lon="12.03168"><ele>260.0</ele><time>2026-05-02T11:51:58.789Z</time></trkpt><trkpt lat="43.1869817" lon="12.031405"><ele>260.0</ele><time>2026-05-02T11:51:59.79Z</time></trkpt><trkpt lat="43.1870017" lon="12.031145"><ele>260.0</ele><time>2026-05-02T11:52:00.789Z</time></trkpt><trkpt lat="43.1870283" lon="12.0308967"><ele>260.0</ele><time>2026-05-02T11:52:01.79Z</time></trkpt><trkpt lat="43.187065" lon="12.0306683"><ele>260.33333333333337</ele><time>2026-05-02T11:52:02.789Z</time></trkpt><trkpt lat="43.1871217" lon="12.0304483"><ele>260.6666666666667</ele><time>2026-05-02T11:52:03.789Z</time></trkpt><trkpt lat="43.18721" lon="12.030245"><ele>261.0</ele><time>2026-05-02T11:52:04.79Z</time></trkpt><trkpt lat="43.18732" lon="12.03006"><ele>261.25</ele><time>2026-05-02T11:52:05.789Z</time></trkpt><trkpt lat="43.1874283" lon="12.0298967"><ele>261.5</ele><time>2026-05-02T11:52:06.79Z</time></trkpt><trkpt lat="43.1875083" lon="12.0297333"><ele>261.75</ele><time>2026-05-02T11:52:07.792Z</time></trkpt><trkpt lat="43.1875517" lon="12.02956"><ele>262.0</ele><time>2026-05-02T11:52:08.789Z</time></trkpt><trkpt lat="43.1875633" lon="12.0293733"><ele>262.0</ele><time>2026-05-02T11:52:09.787Z</time></trkpt><trkpt lat="43.1875383" lon="12.0291733"><ele>262.0</ele><time>2026-05-02T11:52:10.788Z</time></trkpt><trkpt lat="43.1875183" lon="12.0289617"><ele>262.0</ele><time>2026-05-02T11:52:11.788Z</time></trkpt><trkpt lat="43.187525" lon="12.0287383"><ele>262.0</ele><time>2026-05-02T11:52:12.788Z</time></trkpt><trkpt lat="43.1875633" lon="12.0285183"><ele>262.0</ele><time>2026-05-02T11:52:13.788Z</time></trkpt><trkpt lat="43.1876167" lon="12.0282867"><ele>262.0</ele><time>2026-05-02T11:52:14.789Z</time></trkpt><trkpt lat="43.1876683" lon="12.02804"><ele>261.66666666666663</ele><time>2026-05-02T11:52:15.79Z</time></trkpt><trkpt lat="43.1877233" lon="12.0277783"><ele>261.3333333333333</ele><time>2026-05-02T11:52:16.789Z</time></trkpt><trkpt lat="43.1877867" lon="12.0275017"><ele>261.0</ele><time>2026-05-02T11:52:17.788Z</time></trkpt><trkpt lat="43.1878533" lon="12.0272183"><ele>261.0</ele><time>2026-05-02T11:52:18.789Z</time></trkpt><trkpt lat="43.18792" lon="12.0269133"><ele>261.0</ele><time>2026-05-02T11:52:19.789Z</time></trkpt><trkpt lat="43.1879917" lon="12.0266033"><ele>261.0</ele><time>2026-05-02T11:52:20.789Z</time></trkpt><trkpt lat="43.188065" lon="12.02629"><ele>261.0</ele><time>2026-05-02T11:52:21.789Z</time></trkpt><trkpt lat="43.1881367" lon="12.0259683"><ele>261.5</ele><time>2026-05-02T11:52:22.789Z</time></trkpt><trkpt lat="43.1882067" lon="12.0256417"><ele>262.0</ele><time>2026-05-02T11:52:23.789Z</time></trkpt><trkpt lat="43.188275" lon="12.02533"><ele>262.0</ele><time>2026-05-02T11:52:24.788Z</time></trkpt><trkpt lat="43.188335" lon="12.0250367"><ele>262.0</ele><time>2026-05-02T11:52:25.789Z</time></trkpt><trkpt lat="43.188395" lon="12.0247633"><ele>262.0</ele><time>2026-05-02T11:52:26.789Z</time></trkpt><trkpt lat="43.18845" lon="12.0245083"><ele>261.66666666666663</ele><time>2026-05-02T11:52:27.79Z</time></trkpt><trkpt lat="43.1885067" lon="12.0242667"><ele>261.3333333333333</ele><time>2026-05-02T11:52:28.789Z</time></trkpt><trkpt lat="43.1885633" lon="12.02404"><ele>261.0</ele><time>2026-05-02T11:52:29.789Z</time></trkpt><trkpt lat="43.188635" lon="12.0238383"><ele>260.75</ele><time>2026-05-02T11:52:30.789Z</time></trkpt><trkpt lat="43.1887167" lon="12.0236567"><ele>260.5</ele><time>2026-05-02T11:52:31.788Z</time></trkpt><trkpt lat="43.1887967" lon="12.0234883"><ele>260.25</ele><time>2026-05-02T11:52:32.789Z</time></trkpt><trkpt lat="43.18886" lon="12.0233383"><ele>260.0</ele><time>2026-05-02T11:52:33.788Z</time></trkpt><trkpt lat="43.1889" lon="12.0232083"><ele>260.0</ele><time>2026-05-02T11:52:34.789Z</time></trkpt><trkpt lat="43.1889067" lon="12.0230983"><ele>260.0</ele><time>2026-05-02T11:52:35.79Z</time></trkpt><trkpt lat="43.188885" lon="12.023005"><ele>260.0</ele><time>2026-05-02T11:52:36.789Z</time></trkpt><trkpt lat="43.1888433" lon="12.0229367"><ele>260.0</ele><time>2026-05-02T11:52:37.789Z</time></trkpt><trkpt lat="43.1887783" lon="12.0229"><ele>260.0</ele><time>2026-05-02T11:52:38.789Z</time></trkpt><trkpt lat="43.188695" lon="12.022885"><ele>260.0</ele><time>2026-05-02T11:52:39.789Z</time></trkpt><trkpt lat="43.18861" lon="12.0228633"><ele>260.0</ele><time>2026-05-02T11:52:40.79Z</time></trkpt><trkpt lat="43.1884783" lon="12.0228917"><ele>260.0</ele><time>2026-05-02T11:52:41.786Z</time></trkpt><trkpt lat="43.1882967" lon="12.02298"><ele>260.0</ele><time>2026-05-02T11:52:42.79Z</time></trkpt><trkpt lat="43.1881333" lon="12.0230417"><ele>260.0</ele><time>2026-05-02T11:52:43.79Z</time></trkpt><trkpt lat="43.187975" lon="12.023095"><ele>260.0</ele><time>2026-05-02T11:52:44.789Z</time></trkpt><trkpt lat="43.1878233" lon="12.0231617"><ele>260.0</ele><time>2026-05-02T11:52:45.789Z</time></trkpt><trkpt lat="43.1876817" lon="12.0232283"><ele>260.0</ele><time>2026-05-02T11:52:46.79Z</time></trkpt><trkpt lat="43.187555" lon="12.0232883"><ele>260.0</ele><time>2026-05-02T11:52:47.789Z</time></trkpt><trkpt lat="43.18744" lon="12.0233333"><ele>260.0</ele><time>2026-05-02T11:52:48.79Z</time></trkpt><trkpt lat="43.1873417" lon="12.0233617"><ele>260.0</ele><time>2026-05-02T11:52:49.79Z</time></trkpt><trkpt lat="43.1872533" lon="12.0233667"><ele>260.0</ele><time>2026-05-02T11:52:50.789Z</time></trkpt><trkpt lat="43.1871717" lon="12.0233417"><ele>260.33333333333337</ele><time>2026-05-02T11:52:51.789Z</time></trkpt><trkpt lat="43.187095" lon="12.0232967"><ele>260.6666666666667</ele><time>2026-05-02T11:52:52.79Z</time></trkpt><trkpt lat="43.1870183" lon="12.0232483"><ele>261.0</ele><time>2026-05-02T11:52:53.789Z</time></trkpt><trkpt lat="43.18694" lon="12.0232067"><ele>261.3333333333333</ele><time>2026-05-02T11:52:54.789Z</time></trkpt><trkpt lat="43.186865" lon="12.0231683"><ele>261.66666666666663</ele><time>2026-05-02T11:52:55.789Z</time></trkpt><trkpt lat="43.1867833" lon="12.02314"><ele>262.0</ele><time>2026-05-02T11:52:56.789Z</time></trkpt><trkpt lat="43.186695" lon="12.023125"><ele>262.0</ele><time>2026-05-02T11:52:57.79Z</time></trkpt><trkpt lat="43.1866017" lon="12.0231233"><ele>262.0</ele><time>2026-05-02T11:52:58.788Z</time></trkpt><trkpt lat="43.186525" lon="12.0231417"><ele>262.0</ele><time>2026-05-02T11:52:59.788Z</time></trkpt><trkpt lat="43.18642" lon="12.0231583"><ele>262.0</ele><time>2026-05-02T11:53:01.79Z</time></trkpt><trkpt lat="43.1863467" lon="12.023105"><ele>262.0</ele><time>2026-05-02T11:53:03.786Z</time></trkpt><trkpt lat="43.1863183" lon="12.0230083"><ele>262.0</ele><time>2026-05-02T11:53:04.789Z</time></trkpt><trkpt lat="43.18629" lon="12.0228617"><ele>262.0</ele><time>2026-05-02T11:53:05.789Z</time></trkpt><trkpt lat="43.186245" lon="12.0227117"><ele>262.0</ele><time>2026-05-02T11:53:06.789Z</time></trkpt><trkpt lat="43.186195" lon="12.022565"><ele>262.0</ele><time>2026-05-02T11:53:07.785Z</time></trkpt><trkpt lat="43.186145" lon="12.0224117"><ele>262.0</ele><time>2026-05-02T11:53:08.787Z</time></trkpt><trkpt lat="43.1860933" lon="12.0222483"><ele>262.0</ele><time>2026-05-02T11:53:09.789Z</time></trkpt><trkpt lat="43.1860467" lon="12.0220767"><ele>262.0</ele><time>2026-05-02T11:53:10.785Z</time></trkpt><trkpt lat="43.1859983" lon="12.021895"><ele>262.0</ele><time>2026-05-02T11:53:11.786Z</time></trkpt><trkpt lat="43.1859533" lon="12.0217083"><ele>262.0</ele><time>2026-05-02T11:53:12.788Z</time></trkpt><trkpt lat="43.18591" lon="12.0215183"><ele>262.0</ele><time>2026-05-02T11:53:13.786Z</time></trkpt><trkpt lat="43.1858717" lon="12.0213317"><ele>262.0</ele><time>2026-05-02T11:53:14.786Z</time></trkpt><trkpt lat="43.1858283" lon="12.0211517"><ele>262.0</ele><time>2026-05-02T11:53:15.79Z</time></trkpt><trkpt lat="43.1857867" lon="12.02098"><ele>262.0</ele><time>2026-05-02T11:53:16.789Z</time></trkpt><trkpt lat="43.1857433" lon="12.0208133"><ele>261.75</ele><time>2026-05-02T11:53:17.788Z</time></trkpt><trkpt lat="43.1857017" lon="12.020655"><ele>261.5</ele><time>2026-05-02T11:53:18.785Z</time></trkpt><trkpt lat="43.1856617" lon="12.0205017"><ele>261.25</ele><time>2026-05-02T11:53:19.788Z</time></trkpt><trkpt lat="43.1856083" lon="12.0203467"><ele>261.0</ele><time>2026-05-02T11:53:20.789Z</time></trkpt><trkpt lat="43.1855433" lon="12.0201967"><ele>261.0</ele><time>2026-05-02T11:53:21.789Z</time></trkpt><trkpt lat="43.1854633" lon="12.020055"><ele>261.0</ele><time>2026-05-02T11:53:22.79Z</time></trkpt><trkpt lat="43.1853683" lon="12.0199267"><ele>261.0</ele><time>2026-05-02T11:53:23.789Z</time></trkpt><trkpt lat="43.1852683" lon="12.01982"><ele>261.0</ele><time>2026-05-02T11:53:24.79Z</time></trkpt><trkpt lat="43.185165" lon="12.0197317"><ele>260.75</ele><time>2026-05-02T11:53:25.79Z</time></trkpt><trkpt lat="43.1850617" lon="12.019655"><ele>260.5</ele><time>2026-05-02T11:53:26.789Z</time></trkpt><trkpt lat="43.184955" lon="12.019575"><ele>260.25</ele><time>2026-05-02T11:53:27.789Z</time></trkpt><trkpt lat="43.18485" lon="12.0194883"><ele>260.0</ele><time>2026-05-02T11:53:28.789Z</time></trkpt><trkpt lat="43.1847367" lon="12.0193967"><ele>260.0</ele><time>2026-05-02T11:53:29.789Z</time></trkpt><trkpt lat="43.18462" lon="12.0193017"><ele>260.0</ele><time>2026-05-02T11:53:30.79Z</time></trkpt><trkpt lat="43.184505" lon="12.0192083"><ele>260.0</ele><time>2026-05-02T11:53:31.789Z</time></trkpt><trkpt lat="43.1843917" lon="12.0191233"><ele>260.0</ele><time>2026-05-02T11:53:32.789Z</time></trkpt><trkpt lat="43.1842733" lon="12.019035"><ele>259.75</ele><time>2026-05-02T11:53:33.789Z</time></trkpt><trkpt lat="43.1841533" lon="12.0189433"><ele>259.5</ele><time>2026-05-02T11:53:34.789Z</time></trkpt><trkpt lat="43.18403" lon="12.0188367"><ele>259.25</ele><time>2026-05-02T11:53:35.791Z</time></trkpt><trkpt lat="43.1839117" lon="12.0187217"><ele>259.0</ele><time>2026-05-02T11:53:36.789Z</time></trkpt><trkpt lat="43.18379" lon="12.01861"><ele>259.0</ele><time>2026-05-02T11:53:37.786Z</time></trkpt><trkpt lat="43.1836633" lon="12.0184983"><ele>259.0</ele><time>2026-05-02T11:53:38.786Z</time></trkpt><trkpt lat="43.1835367" lon="12.0183833"><ele>259.0</ele><time>2026-05-02T11:53:39.785Z</time></trkpt><trkpt lat="43.1834067" lon="12.0182667"><ele>259.66666666666663</ele><time>2026-05-02T11:53:40.787Z</time></trkpt><trkpt lat="43.183275" lon="12.0181467"><ele>260.3333333333333</ele><time>2026-05-02T11:53:41.786Z</time></trkpt><trkpt lat="43.1831383" lon="12.0180217"><ele>261.0</ele><time>2026-05-02T11:53:42.786Z</time></trkpt><trkpt lat="43.182995" lon="12.0178883"><ele>261.3333333333333</ele><time>2026-05-02T11:53:43.786Z</time></trkpt><trkpt lat="43.1828517" lon="12.0177483"><ele>261.66666666666663</ele><time>2026-05-02T11:53:44.786Z</time></trkpt><trkpt lat="43.18271" lon="12.0176"><ele>262.0</ele><time>2026-05-02T11:53:45.785Z</time></trkpt><trkpt lat="43.1825683" lon="12.0174433"><ele>262.3333333333333</ele><time>2026-05-02T11:53:46.786Z</time></trkpt><trkpt lat="43.1824267" lon="12.0172783"><ele>262.6666666666667</ele><time>2026-05-02T11:53:47.79Z</time></trkpt><trkpt lat="43.182295" lon="12.0170967"><ele>263.0</ele><time>2026-05-02T11:53:48.787Z</time></trkpt><trkpt lat="43.1821767" lon="12.016895"><ele>263.0</ele><time>2026-05-02T11:53:49.785Z</time></trkpt><trkpt lat="43.182075" lon="12.016675"><ele>263.0</ele><time>2026-05-02T11:53:50.789Z</time></trkpt><trkpt lat="43.1819833" lon="12.016445"><ele>263.0</ele><time>2026-05-02T11:53:51.789Z</time></trkpt><trkpt lat="43.1818933" lon="12.01621"><ele>264.0</ele><time>2026-05-02T11:53:52.789Z</time></trkpt><trkpt lat="43.1818017" lon="12.0159817"><ele>265.0</ele><time>2026-05-02T11:53:53.789Z</time></trkpt><trkpt lat="43.1817117" lon="12.0157567"><ele>266.0</ele><time>2026-05-02T11:53:54.79Z</time></trkpt><trkpt lat="43.18162" lon="12.0155333"><ele>266.5</ele><time>2026-05-02T11:53:55.789Z</time></trkpt><trkpt lat="43.1815317" lon="12.015315"><ele>267.0</ele><time>2026-05-02T11:53:56.789Z</time></trkpt><trkpt lat="43.1813583" lon="12.0148883"><ele>267.0</ele><time>2026-05-02T11:53:58.789Z</time></trkpt><trkpt lat="43.1812783" lon="12.014695"><ele>267.0</ele><time>2026-05-02T11:53:59.79Z</time></trkpt><trkpt lat="43.1812017" lon="12.0145167"><ele>267.0</ele><time>2026-05-02T11:54:00.789Z</time></trkpt><trkpt lat="43.181135" lon="12.0143517"><ele>267.0</ele><time>2026-05-02T11:54:01.789Z</time></trkpt><trkpt lat="43.1810833" lon="12.0142"><ele>267.0</ele><time>2026-05-02T11:54:02.789Z</time></trkpt><trkpt lat="43.1810467" lon="12.0140517"><ele>267.0</ele><time>2026-05-02T11:54:03.789Z</time></trkpt><trkpt lat="43.1810317" lon="12.01391"><ele>267.0</ele><time>2026-05-02T11:54:04.79Z</time></trkpt><trkpt lat="43.18103" lon="12.0137967"><ele>267.0</ele><time>2026-05-02T11:54:05.789Z</time></trkpt><trkpt lat="43.18103" lon="12.0136633"><ele>266.8</ele><time>2026-05-02T11:54:07.786Z</time></trkpt><trkpt lat="43.1809683" lon="12.0135717"><ele>266.6</ele><time>2026-05-02T11:54:10.788Z</time></trkpt><trkpt lat="43.18084" lon="12.0135483"><ele>266.40000000000003</ele><time>2026-05-02T11:54:12.787Z</time></trkpt><trkpt lat="43.18075" lon="12.0135467"><ele>266.2</ele><time>2026-05-02T11:54:13.787Z</time></trkpt><trkpt lat="43.1806533" lon="12.0135467"><ele>266.0</ele><time>2026-05-02T11:54:14.789Z</time></trkpt><trkpt lat="43.18055" lon="12.0135533"><ele>266.5</ele><time>2026-05-02T11:54:15.789Z</time></trkpt><trkpt lat="43.1804383" lon="12.0135583"><ele>267.0</ele><time>2026-05-02T11:54:16.789Z</time></trkpt><trkpt lat="43.18032" lon="12.013565"><ele>267.5</ele><time>2026-05-02T11:54:17.79Z</time></trkpt><trkpt lat="43.18019" lon="12.0135733"><ele>268.0</ele><time>2026-05-02T11:54:18.789Z</time></trkpt><trkpt lat="43.1800533" lon="12.0135817"><ele>268.0</ele><time>2026-05-02T11:54:19.79Z</time></trkpt><trkpt lat="43.1799033" lon="12.0135933"><ele>268.0</ele><time>2026-05-02T11:54:20.79Z</time></trkpt><trkpt lat="43.179755" lon="12.0136017"><ele>268.0</ele><time>2026-05-02T11:54:21.791Z</time></trkpt><trkpt lat="43.1796033" lon="12.0136117"><ele>267.3333333333333</ele><time>2026-05-02T11:54:22.789Z</time></trkpt><trkpt lat="43.1794483" lon="12.0136217"><ele>266.6666666666667</ele><time>2026-05-02T11:54:23.789Z</time></trkpt><trkpt lat="43.17929" lon="12.0136333"><ele>266.0</ele><time>2026-05-02T11:54:24.791Z</time></trkpt><trkpt lat="43.17913" lon="12.013645"><ele>265.6666666666667</ele><time>2026-05-02T11:54:25.789Z</time></trkpt><trkpt lat="43.178965" lon="12.01366"><ele>265.3333333333333</ele><time>2026-05-02T11:54:26.789Z</time></trkpt><trkpt lat="43.1787983" lon="12.013675"><ele>265.0</ele><time>2026-05-02T11:54:27.789Z</time></trkpt><trkpt lat="43.1786267" lon="12.0136867"><ele>265.0</ele><time>2026-05-02T11:54:28.789Z</time></trkpt><trkpt lat="43.178455" lon="12.0137"><ele>265.0</ele><time>2026-05-02T11:54:29.791Z</time></trkpt><trkpt lat="43.1782817" lon="12.013715"><ele>265.0</ele><time>2026-05-02T11:54:30.789Z</time></trkpt><trkpt lat="43.17811" lon="12.013725"><ele>264.66666666666663</ele><time>2026-05-02T11:54:31.79Z</time></trkpt><trkpt lat="43.1779383" lon="12.0137367"><ele>264.3333333333333</ele><time>2026-05-02T11:54:32.786Z</time></trkpt><trkpt lat="43.177765" lon="12.013745"><ele>264.0</ele><time>2026-05-02T11:54:33.789Z</time></trkpt><trkpt lat="43.17759" lon="12.0137567"><ele>264.0</ele><time>2026-05-02T11:54:34.79Z</time></trkpt><trkpt lat="43.1774133" lon="12.01377"><ele>264.0</ele><time>2026-05-02T11:54:35.789Z</time></trkpt><trkpt lat="43.1772417" lon="12.01378"><ele>264.0</ele><time>2026-05-02T11:54:36.789Z</time></trkpt><trkpt lat="43.1770783" lon="12.0137917"><ele>264.0</ele><time>2026-05-02T11:54:37.789Z</time></trkpt><trkpt lat="43.1769183" lon="12.0137983"><ele>264.0</ele><time>2026-05-02T11:54:38.789Z</time></trkpt><trkpt lat="43.1767567" lon="12.01381"><ele>264.0</ele><time>2026-05-02T11:54:39.789Z</time></trkpt><trkpt lat="43.1765933" lon="12.0138217"><ele>264.0</ele><time>2026-05-02T11:54:40.789Z</time></trkpt><trkpt lat="43.1764267" lon="12.013835"><ele>264.0</ele><time>2026-05-02T11:54:41.789Z</time></trkpt><trkpt lat="43.17626" lon="12.0138483"><ele>264.0</ele><time>2026-05-02T11:54:42.79Z</time></trkpt><trkpt lat="43.1760933" lon="12.0138567"><ele>264.0</ele><time>2026-05-02T11:54:43.79Z</time></trkpt><trkpt lat="43.1759267" lon="12.013865"><ele>264.0</ele><time>2026-05-02T11:54:44.791Z</time></trkpt><trkpt lat="43.17576" lon="12.0138783"><ele>264.0</ele><time>2026-05-02T11:54:45.789Z</time></trkpt><trkpt lat="43.1755917" lon="12.0138933"><ele>264.0</ele><time>2026-05-02T11:54:46.789Z</time></trkpt><trkpt lat="43.175415" lon="12.0139083"><ele>264.0</ele><time>2026-05-02T11:54:47.79Z</time></trkpt><trkpt lat="43.1752333" lon="12.0139267"><ele>264.0</ele><time>2026-05-02T11:54:48.79Z</time></trkpt><trkpt lat="43.1750417" lon="12.0139467"><ele>263.6666666666667</ele><time>2026-05-02T11:54:49.789Z</time></trkpt><trkpt lat="43.1748383" lon="12.0139667"><ele>263.33333333333337</ele><time>2026-05-02T11:54:50.789Z</time></trkpt><trkpt lat="43.1746317" lon="12.0139783"><ele>263.0</ele><time>2026-05-02T11:54:51.789Z</time></trkpt><trkpt lat="43.1744217" lon="12.0139833"><ele>263.0</ele><time>2026-05-02T11:54:52.789Z</time></trkpt><trkpt lat="43.17421" lon="12.0139883"><ele>263.0</ele><time>2026-05-02T11:54:53.789Z</time></trkpt><trkpt lat="43.1739933" lon="12.0139983"><ele>263.0</ele><time>2026-05-02T11:54:54.789Z</time></trkpt><trkpt lat="43.1737783" lon="12.0140117"><ele>263.0</ele><time>2026-05-02T11:54:55.79Z</time></trkpt><trkpt lat="43.1735683" lon="12.0140217"><ele>263.0</ele><time>2026-05-02T11:54:56.79Z</time></trkpt><trkpt lat="43.1733583" lon="12.014035"><ele>263.0</ele><time>2026-05-02T11:54:57.789Z</time></trkpt><trkpt lat="43.1731483" lon="12.0140483"><ele>262.6666666666667</ele><time>2026-05-02T11:54:58.789Z</time></trkpt><trkpt lat="43.1729383" lon="12.0140633"><ele>262.3333333333333</ele><time>2026-05-02T11:54:59.79Z</time></trkpt><trkpt lat="43.1727317" lon="12.014075"><ele>262.0</ele><time>2026-05-02T11:55:00.79Z</time></trkpt><trkpt lat="43.1725233" lon="12.0140867"><ele>262.0</ele><time>2026-05-02T11:55:01.789Z</time></trkpt><trkpt lat="43.1723133" lon="12.0140967"><ele>262.0</ele><time>2026-05-02T11:55:02.79Z</time></trkpt><trkpt lat="43.1721033" lon="12.0141083"><ele>262.0</ele><time>2026-05-02T11:55:03.79Z</time></trkpt><trkpt lat="43.171895" lon="12.0141183"><ele>262.0</ele><time>2026-05-02T11:55:04.789Z</time></trkpt><trkpt lat="43.1716833" lon="12.0141317"><ele>262.0</ele><time>2026-05-02T11:55:05.789Z</time></trkpt><trkpt lat="43.17147" lon="12.014145"><ele>262.0</ele><time>2026-05-02T11:55:06.791Z</time></trkpt><trkpt lat="43.171255" lon="12.01416"><ele>262.0</ele><time>2026-05-02T11:55:07.79Z</time></trkpt><trkpt lat="43.1710417" lon="12.0141767"><ele>262.0</ele><time>2026-05-02T11:55:08.79Z</time></trkpt><trkpt lat="43.17083" lon="12.0141917"><ele>262.0</ele><time>2026-05-02T11:55:09.79Z</time></trkpt><trkpt lat="43.1706167" lon="12.0142083"><ele>261.66666666666663</ele><time>2026-05-02T11:55:10.79Z</time></trkpt><trkpt lat="43.1704017" lon="12.0142233"><ele>261.3333333333333</ele><time>2026-05-02T11:55:11.789Z</time></trkpt><trkpt lat="43.1701833" lon="12.014245"><ele>261.0</ele><time>2026-05-02T11:55:12.789Z</time></trkpt><trkpt lat="43.169965" lon="12.0142633"><ele>261.0</ele><time>2026-05-02T11:55:13.791Z</time></trkpt><trkpt lat="43.1697483" lon="12.01428"><ele>261.0</ele><time>2026-05-02T11:55:14.791Z</time></trkpt><trkpt lat="43.1695317" lon="12.0143"><ele>261.0</ele><time>2026-05-02T11:55:15.788Z</time></trkpt><trkpt lat="43.1693067" lon="12.0143217"><ele>261.0</ele><time>2026-05-02T11:55:16.79Z</time></trkpt><trkpt lat="43.1690783" lon="12.0143433"><ele>261.0</ele><time>2026-05-02T11:55:17.789Z</time></trkpt><trkpt lat="43.168855" lon="12.0143633"><ele>261.0</ele><time>2026-05-02T11:55:18.788Z</time></trkpt><trkpt lat="43.16863" lon="12.0143867"><ele>261.0</ele><time>2026-05-02T11:55:19.788Z</time></trkpt><trkpt lat="43.1684033" lon="12.0144083"><ele>261.3333333333333</ele><time>2026-05-02T11:55:20.789Z</time></trkpt><trkpt lat="43.1681833" lon="12.01443"><ele>261.66666666666663</ele><time>2026-05-02T11:55:21.789Z</time></trkpt><trkpt lat="43.167965" lon="12.0144517"><ele>262.0</ele><time>2026-05-02T11:55:22.789Z</time></trkpt><trkpt lat="43.1677483" lon="12.014475"><ele>262.0</ele><time>2026-05-02T11:55:23.788Z</time></trkpt><trkpt lat="43.167535" lon="12.0145017"><ele>262.0</ele><time>2026-05-02T11:55:24.789Z</time></trkpt><trkpt lat="43.1673217" lon="12.0145333"><ele>262.0</ele><time>2026-05-02T11:55:25.788Z</time></trkpt><trkpt lat="43.16711" lon="12.0145667"><ele>262.0</ele><time>2026-05-02T11:55:26.79Z</time></trkpt><trkpt lat="43.166895" lon="12.0146033"><ele>262.0</ele><time>2026-05-02T11:55:27.789Z</time></trkpt><trkpt lat="43.166675" lon="12.014645"><ele>262.0</ele><time>2026-05-02T11:55:28.789Z</time></trkpt><trkpt lat="43.1664567" lon="12.0146933"><ele>262.0</ele><time>2026-05-02T11:55:29.789Z</time></trkpt><trkpt lat="43.1662383" lon="12.014745"><ele>262.0</ele><time>2026-05-02T11:55:30.79Z</time></trkpt><trkpt lat="43.1660217" lon="12.0148"><ele>262.0</ele><time>2026-05-02T11:55:31.789Z</time></trkpt><trkpt lat="43.1658133" lon="12.0148617"><ele>262.0</ele><time>2026-05-02T11:55:32.789Z</time></trkpt><trkpt lat="43.1656267" lon="12.014915"><ele>262.0</ele><time>2026-05-02T11:55:33.79Z</time></trkpt><trkpt lat="43.1654683" lon="12.0149617"><ele>262.0</ele><time>2026-05-02T11:55:34.788Z</time></trkpt><trkpt lat="43.1653417" lon="12.0149967"><ele>262.0</ele><time>2026-05-02T11:55:35.79Z</time></trkpt><trkpt lat="43.1652467" lon="12.0150083"><ele>262.0</ele><time>2026-05-02T11:55:36.79Z</time></trkpt><trkpt lat="43.165175" lon="12.014995"><ele>262.0</ele><time>2026-05-02T11:55:37.789Z</time></trkpt><trkpt lat="43.165075" lon="12.0149083"><ele>262.0</ele><time>2026-05-02T11:55:39.785Z</time></trkpt><trkpt lat="43.1650367" lon="12.0148267"><ele>262.0</ele><time>2026-05-02T11:55:40.788Z</time></trkpt><trkpt lat="43.1650083" lon="12.01472"><ele>262.0</ele><time>2026-05-02T11:55:41.786Z</time></trkpt><trkpt lat="43.1649867" lon="12.014585"><ele>262.25</ele><time>2026-05-02T11:55:42.788Z</time></trkpt><trkpt lat="43.1649633" lon="12.0144283"><ele>262.5</ele><time>2026-05-02T11:55:43.789Z</time></trkpt><trkpt lat="43.1649333" lon="12.014255"><ele>262.75</ele><time>2026-05-02T11:55:44.789Z</time></trkpt><trkpt lat="43.1649" lon="12.014085"><ele>263.0</ele><time>2026-05-02T11:55:45.789Z</time></trkpt><trkpt lat="43.1648617" lon="12.01389"><ele>263.0</ele><time>2026-05-02T11:55:46.786Z</time></trkpt><trkpt lat="43.1648167" lon="12.0136683"><ele>263.0</ele><time>2026-05-02T11:55:47.788Z</time></trkpt><trkpt lat="43.16477" lon="12.01345"><ele>263.0</ele><time>2026-05-02T11:55:48.785Z</time></trkpt><trkpt lat="43.1647217" lon="12.01324"><ele>263.25</ele><time>2026-05-02T11:55:49.785Z</time></trkpt><trkpt lat="43.1646767" lon="12.01304"><ele>263.5</ele><time>2026-05-02T11:55:50.789Z</time></trkpt><trkpt lat="43.1646367" lon="12.0128617"><ele>263.75</ele><time>2026-05-02T11:55:51.789Z</time></trkpt><trkpt lat="43.1645983" lon="12.0127083"><ele>264.0</ele><time>2026-05-02T11:55:52.789Z</time></trkpt><trkpt lat="43.1645633" lon="12.0125733"><ele>264.25</ele><time>2026-05-02T11:55:53.789Z</time></trkpt><trkpt lat="43.1645267" lon="12.0124383"><ele>264.5</ele><time>2026-05-02T11:55:54.789Z</time></trkpt><trkpt lat="43.1644867" lon="12.0122983"><ele>264.75</ele><time>2026-05-02T11:55:55.789Z</time></trkpt><trkpt lat="43.1644417" lon="12.0121517"><ele>265.0</ele><time>2026-05-02T11:55:56.786Z</time></trkpt><trkpt lat="43.16439" lon="12.0119967"><ele>265.0</ele><time>2026-05-02T11:55:57.785Z</time></trkpt><trkpt lat="43.1643317" lon="12.0118383"><ele>265.0</ele><time>2026-05-02T11:55:58.785Z</time></trkpt><trkpt lat="43.1642667" lon="12.0116717"><ele>265.0</ele><time>2026-05-02T11:55:59.787Z</time></trkpt><trkpt lat="43.1642033" lon="12.0115017"><ele>265.0</ele><time>2026-05-02T11:56:00.785Z</time></trkpt><trkpt lat="43.1641383" lon="12.0113317"><ele>265.25</ele><time>2026-05-02T11:56:01.785Z</time></trkpt><trkpt lat="43.164075" lon="12.0111583"><ele>265.5</ele><time>2026-05-02T11:56:02.786Z</time></trkpt><trkpt lat="43.16401" lon="12.0109833"><ele>265.75</ele><time>2026-05-02T11:56:03.79Z</time></trkpt><trkpt lat="43.16395" lon="12.0108033"><ele>266.0</ele><time>2026-05-02T11:56:04.789Z</time></trkpt><trkpt lat="43.1638867" lon="12.0106267"><ele>266.75</ele><time>2026-05-02T11:56:05.789Z</time></trkpt><trkpt lat="43.1638183" lon="12.0104517"><ele>267.5</ele><time>2026-05-02T11:56:06.789Z</time></trkpt><trkpt lat="43.16376" lon="12.01028"><ele>268.25</ele><time>2026-05-02T11:56:07.786Z</time></trkpt><trkpt lat="43.1637017" lon="12.0101133"><ele>269.0</ele><time>2026-05-02T11:56:08.789Z</time></trkpt><trkpt lat="43.1636483" lon="12.0099533"><ele>269.2</ele><time>2026-05-02T11:56:09.786Z</time></trkpt><trkpt lat="43.16359" lon="12.0098017"><ele>269.4</ele><time>2026-05-02T11:56:10.789Z</time></trkpt><trkpt lat="43.163535" lon="12.00966"><ele>269.6</ele><time>2026-05-02T11:56:11.786Z</time></trkpt><trkpt lat="43.1634867" lon="12.0095367"><ele>269.8</ele><time>2026-05-02T11:56:12.789Z</time></trkpt><trkpt lat="43.1634483" lon="12.0094267"><ele>270.0</ele><time>2026-05-02T11:56:13.789Z</time></trkpt><trkpt lat="43.1634083" lon="12.009325"><ele>270.0</ele><time>2026-05-02T11:56:14.789Z</time></trkpt><trkpt lat="43.1633617" lon="12.0092167"><ele>270.0</ele><time>2026-05-02T11:56:15.79Z</time></trkpt><trkpt lat="43.1633067" lon="12.0091067"><ele>270.0</ele><time>2026-05-02T11:56:16.785Z</time></trkpt><trkpt lat="43.1632433" lon="12.0089933"><ele>270.0</ele><time>2026-05-02T11:56:17.789Z</time></trkpt><trkpt lat="43.1631783" lon="12.00888"><ele>270.0</ele><time>2026-05-02T11:56:18.789Z</time></trkpt><trkpt lat="43.163105" lon="12.0087533"><ele>270.0</ele><time>2026-05-02T11:56:19.785Z</time></trkpt><trkpt lat="43.1630267" lon="12.00862"><ele>270.0</ele><time>2026-05-02T11:56:20.79Z</time></trkpt><trkpt lat="43.1629467" lon="12.0084883"><ele>270.0</ele><time>2026-05-02T11:56:21.789Z</time></trkpt><trkpt lat="43.1628667" lon="12.0083583"><ele>270.0</ele><time>2026-05-02T11:56:22.79Z</time></trkpt><trkpt lat="43.1627833" lon="12.0082267"><ele>270.0</ele><time>2026-05-02T11:56:23.789Z</time></trkpt><trkpt lat="43.1627" lon="12.00809"><ele>270.0</ele><time>2026-05-02T11:56:24.79Z</time></trkpt><trkpt lat="43.1626133" lon="12.0079433"><ele>270.0</ele><time>2026-05-02T11:56:25.79Z</time></trkpt><trkpt lat="43.162525" lon="12.0077983"><ele>270.0</ele><time>2026-05-02T11:56:26.791Z</time></trkpt><trkpt lat="43.1624333" lon="12.0076517"><ele>271.0</ele><time>2026-05-02T11:56:27.789Z</time></trkpt><trkpt lat="43.1623433" lon="12.0075117"><ele>272.0</ele><time>2026-05-02T11:56:28.786Z</time></trkpt><trkpt lat="43.1622517" lon="12.0073683"><ele>273.0</ele><time>2026-05-02T11:56:29.786Z</time></trkpt><trkpt lat="43.162165" lon="12.0072217"><ele>274.0</ele><time>2026-05-02T11:56:30.785Z</time></trkpt><trkpt lat="43.1620767" lon="12.007075"><ele>274.0</ele><time>2026-05-02T11:56:31.786Z</time></trkpt><trkpt lat="43.1619867" lon="12.0069317"><ele>274.0</ele><time>2026-05-02T11:56:32.786Z</time></trkpt><trkpt lat="43.161905" lon="12.0067917"><ele>274.0</ele><time>2026-05-02T11:56:33.79Z</time></trkpt><trkpt lat="43.1618217" lon="12.0066567"><ele>274.0</ele><time>2026-05-02T11:56:34.79Z</time></trkpt><trkpt lat="43.1617433" lon="12.00653"><ele>274.2</ele><time>2026-05-02T11:56:35.789Z</time></trkpt><trkpt lat="43.1616683" lon="12.006415"><ele>274.4</ele><time>2026-05-02T11:56:36.789Z</time></trkpt><trkpt lat="43.1615967" lon="12.0063033"><ele>274.6</ele><time>2026-05-02T11:56:37.79Z</time></trkpt><trkpt lat="43.16153" lon="12.0061983"><ele>274.8</ele><time>2026-05-02T11:56:38.789Z</time></trkpt><trkpt lat="43.1614667" lon="12.0060883"><ele>275.0</ele><time>2026-05-02T11:56:39.79Z</time></trkpt><trkpt lat="43.1614133" lon="12.0059667"><ele>275.6</ele><time>2026-05-02T11:56:40.789Z</time></trkpt><trkpt lat="43.1613667" lon="12.005835"><ele>276.2</ele><time>2026-05-02T11:56:41.789Z</time></trkpt><trkpt lat="43.1613217" lon="12.0056983"><ele>276.8</ele><time>2026-05-02T11:56:42.79Z</time></trkpt><trkpt lat="43.1612817" lon="12.0055583"><ele>277.4</ele><time>2026-05-02T11:56:43.79Z</time></trkpt><trkpt lat="43.161245" lon="12.0054083"><ele>278.0</ele><time>2026-05-02T11:56:44.786Z</time></trkpt><trkpt lat="43.1612117" lon="12.005265"><ele>278.0</ele><time>2026-05-02T11:56:45.786Z</time></trkpt><trkpt lat="43.1611783" lon="12.005135"><ele>278.0</ele><time>2026-05-02T11:56:46.79Z</time></trkpt><trkpt lat="43.16115" lon="12.0050183"><ele>278.0</ele><time>2026-05-02T11:56:47.789Z</time></trkpt><trkpt lat="43.1611233" lon="12.0049033"><ele>278.0</ele><time>2026-05-02T11:56:48.786Z</time></trkpt><trkpt lat="43.161095" lon="12.0047783"><ele>278.0</ele><time>2026-05-02T11:56:49.79Z</time></trkpt><trkpt lat="43.1610667" lon="12.0046483"><ele>278.0</ele><time>2026-05-02T11:56:50.791Z</time></trkpt><trkpt lat="43.161035" lon="12.0045167"><ele>278.0</ele><time>2026-05-02T11:56:51.79Z</time></trkpt><trkpt lat="43.161" lon="12.004375"><ele>278.0</ele><time>2026-05-02T11:56:52.791Z</time></trkpt><trkpt lat="43.1609633" lon="12.0042317"><ele>278.0</ele><time>2026-05-02T11:56:53.789Z</time></trkpt><trkpt lat="43.1609317" lon="12.0040867"><ele>278.0</ele><time>2026-05-02T11:56:54.791Z</time></trkpt><trkpt lat="43.1608983" lon="12.0039417"><ele>278.0</ele><time>2026-05-02T11:56:55.789Z</time></trkpt><trkpt lat="43.1608633" lon="12.0037917"><ele>278.0</ele><time>2026-05-02T11:56:56.789Z</time></trkpt><trkpt lat="43.1608267" lon="12.0036367"><ele>278.0</ele><time>2026-05-02T11:56:57.79Z</time></trkpt><trkpt lat="43.16079" lon="12.0034767"><ele>278.0</ele><time>2026-05-02T11:56:58.789Z</time></trkpt><trkpt lat="43.1607533" lon="12.0033217"><ele>277.8</ele><time>2026-05-02T11:56:59.79Z</time></trkpt><trkpt lat="43.16072" lon="12.0031717"><ele>277.6</ele><time>2026-05-02T11:57:00.789Z</time></trkpt><trkpt lat="43.1606867" lon="12.0030367"><ele>277.4</ele><time>2026-05-02T11:57:01.789Z</time></trkpt><trkpt lat="43.1606583" lon="12.002915"><ele>277.2</ele><time>2026-05-02T11:57:02.789Z</time></trkpt><trkpt lat="43.1606333" lon="12.00281"><ele>277.0</ele><time>2026-05-02T11:57:03.789Z</time></trkpt><trkpt lat="43.16062" lon="12.0027167"><ele>277.8333333333333</ele><time>2026-05-02T11:57:04.789Z</time></trkpt><trkpt lat="43.1605917" lon="12.0026217"><ele>278.66666666666663</ele><time>2026-05-02T11:57:06.789Z</time></trkpt><trkpt lat="43.160525" lon="12.0026117"><ele>279.5</ele><time>2026-05-02T11:57:08.787Z</time></trkpt><trkpt lat="43.160395" lon="12.0026383"><ele>280.3333333333333</ele><time>2026-05-02T11:57:10.789Z</time></trkpt><trkpt lat="43.1603183" lon="12.0026533"><ele>281.1666666666667</ele><time>2026-05-02T11:57:11.789Z</time></trkpt><trkpt lat="43.16024" lon="12.0026667"><ele>282.0</ele><time>2026-05-02T11:57:12.789Z</time></trkpt><trkpt lat="43.160145" lon="12.0026883"><ele>282.0</ele><time>2026-05-02T11:57:13.789Z</time></trkpt><trkpt lat="43.1600483" lon="12.00271"><ele>282.0</ele><time>2026-05-02T11:57:14.789Z</time></trkpt><trkpt lat="43.1599517" lon="12.0027317"><ele>282.0</ele><time>2026-05-02T11:57:15.79Z</time></trkpt><trkpt lat="43.1598617" lon="12.00275"><ele>282.0</ele><time>2026-05-02T11:57:16.789Z</time></trkpt><trkpt lat="43.1597717" lon="12.0027733"><ele>282.0</ele><time>2026-05-02T11:57:17.79Z</time></trkpt><trkpt lat="43.1596817" lon="12.002795"><ele>281.8</ele><time>2026-05-02T11:57:18.789Z</time></trkpt><trkpt lat="43.1595967" lon="12.0028217"><ele>281.6</ele><time>2026-05-02T11:57:19.79Z</time></trkpt><trkpt lat="43.159505" lon="12.0028517"><ele>281.40000000000003</ele><time>2026-05-02T11:57:20.789Z</time></trkpt><trkpt lat="43.1594133" lon="12.0028933"><ele>281.2</ele><time>2026-05-02T11:57:21.789Z</time></trkpt><trkpt lat="43.1593283" lon="12.0029467"><ele>281.0</ele><time>2026-05-02T11:57:22.789Z</time></trkpt><trkpt lat="43.15924" lon="12.00302"><ele>281.0</ele><time>2026-05-02T11:57:23.787Z</time></trkpt><trkpt lat="43.1591617" lon="12.0030967"><ele>281.0</ele><time>2026-05-02T11:57:24.79Z</time></trkpt><trkpt lat="43.1590983" lon="12.0031617"><ele>281.0</ele><time>2026-05-02T11:57:25.789Z</time></trkpt><trkpt lat="43.159035" lon="12.00324"><ele>281.0</ele><time>2026-05-02T11:57:26.79Z</time></trkpt><trkpt lat="43.15897" lon="12.0033183"><ele>281.0</ele><time>2026-05-02T11:57:27.787Z</time></trkpt><trkpt lat="43.1589117" lon="12.00338"><ele>281.0</ele><time>2026-05-02T11:57:28.787Z</time></trkpt><trkpt lat="43.158845" lon="12.003435"><ele>280.6</ele><time>2026-05-02T11:57:29.789Z</time></trkpt><trkpt lat="43.1587733" lon="12.0034983"><ele>280.20000000000005</ele><time>2026-05-02T11:57:30.787Z</time></trkpt><trkpt lat="43.158705" lon="12.0035567"><ele>279.79999999999995</ele><time>2026-05-02T11:57:31.788Z</time></trkpt><trkpt lat="43.1586467" lon="12.0036083"><ele>279.4</ele><time>2026-05-02T11:57:32.787Z</time></trkpt><trkpt lat="43.158545" lon="12.00371"><ele>279.0</ele><time>2026-05-02T11:57:34.789Z</time></trkpt><trkpt lat="43.158455" lon="12.0038117"><ele>279.0</ele><time>2026-05-02T11:57:36.879Z</time></trkpt><trkpt lat="43.158365" lon="12.0038867"><ele>279.0</ele><time>2026-05-02T11:57:38.787Z</time></trkpt><trkpt lat="43.1582433" lon="12.0039617"><ele>279.0</ele><time>2026-05-02T11:57:40.789Z</time></trkpt><trkpt lat="43.1581717" lon="12.00402"><ele>279.0</ele><time>2026-05-02T11:57:41.786Z</time></trkpt><trkpt lat="43.1581017" lon="12.0040783"><ele>279.0</ele><time>2026-05-02T11:57:42.79Z</time></trkpt><trkpt lat="43.1580317" lon="12.00414"><ele>278.6666666666667</ele><time>2026-05-02T11:57:43.789Z</time></trkpt><trkpt lat="43.1579633" lon="12.0041967"><ele>278.3333333333333</ele><time>2026-05-02T11:57:44.879Z</time></trkpt><trkpt lat="43.1578917" lon="12.004245"><ele>278.0</ele><time>2026-05-02T11:57:45.786Z</time></trkpt><trkpt lat="43.157815" lon="12.004295"><ele>277.66666666666663</ele><time>2026-05-02T11:57:46.79Z</time></trkpt><trkpt lat="43.1577317" lon="12.00434"><ele>277.3333333333333</ele><time>2026-05-02T11:57:47.786Z</time></trkpt><trkpt lat="43.1576467" lon="12.0043783"><ele>277.0</ele><time>2026-05-02T11:57:48.79Z</time></trkpt><trkpt lat="43.1575517" lon="12.004415"><ele>277.0</ele><time>2026-05-02T11:57:49.787Z</time></trkpt><trkpt lat="43.1574633" lon="12.0044667"><ele>277.0</ele><time>2026-05-02T11:57:50.79Z</time></trkpt><trkpt lat="43.1573767" lon="12.00452"><ele>277.0</ele><time>2026-05-02T11:57:51.786Z</time></trkpt><trkpt lat="43.1572867" lon="12.0045783"><ele>277.0</ele><time>2026-05-02T11:57:52.789Z</time></trkpt><trkpt lat="43.1572083" lon="12.0046267"><ele>277.0</ele><time>2026-05-02T11:57:53.79Z</time></trkpt><trkpt lat="43.1571367" lon="12.0046617"><ele>276.8</ele><time>2026-05-02T11:57:54.789Z</time></trkpt><trkpt lat="43.1570717" lon="12.0046883"><ele>276.6</ele><time>2026-05-02T11:57:55.789Z</time></trkpt><trkpt lat="43.1569617" lon="12.0047317"><ele>276.40000000000003</ele><time>2026-05-02T11:57:57.787Z</time></trkpt><trkpt lat="43.1568683" lon="12.004765"><ele>276.2</ele><time>2026-05-02T11:57:59.787Z</time></trkpt><trkpt lat="43.1567567" lon="12.0047433"><ele>276.0</ele><time>2026-05-02T11:58:01.79Z</time></trkpt><trkpt lat="43.15669" lon="12.0047167"><ele>276.0</ele><time>2026-05-02T11:58:02.788Z</time></trkpt><trkpt lat="43.1566217" lon="12.00468"><ele>276.0</ele><time>2026-05-02T11:58:03.79Z</time></trkpt><trkpt lat="43.1565517" lon="12.0046317"><ele>276.0</ele><time>2026-05-02T11:58:04.787Z</time></trkpt><trkpt lat="43.15647" lon="12.0045783"><ele>276.0</ele><time>2026-05-02T11:58:05.789Z</time></trkpt><trkpt lat="43.15639" lon="12.0045267"><ele>276.0</ele><time>2026-05-02T11:58:06.789Z</time></trkpt><trkpt lat="43.1563117" lon="12.004485"><ele>276.0</ele><time>2026-05-02T11:58:07.787Z</time></trkpt><trkpt lat="43.156235" lon="12.0044433"><ele>276.1666666666667</ele><time>2026-05-02T11:58:08.788Z</time></trkpt><trkpt lat="43.15616" lon="12.0044083"><ele>276.3333333333333</ele><time>2026-05-02T11:58:09.786Z</time></trkpt><trkpt lat="43.156085" lon="12.004375"><ele>276.5</ele><time>2026-05-02T11:58:10.787Z</time></trkpt><trkpt lat="43.156015" lon="12.0043417"><ele>276.66666666666663</ele><time>2026-05-02T11:58:11.789Z</time></trkpt><trkpt lat="43.155955" lon="12.0043033"><ele>276.8333333333333</ele><time>2026-05-02T11:58:12.786Z</time></trkpt><trkpt lat="43.155845" lon="12.0042117"><ele>277.0</ele><time>2026-05-02T11:58:14.786Z</time></trkpt><trkpt lat="43.1557833" lon="12.004155"><ele>276.8333333333333</ele><time>2026-05-02T11:58:15.786Z</time></trkpt><trkpt lat="43.15572" lon="12.0040983"><ele>276.66666666666663</ele><time>2026-05-02T11:58:16.786Z</time></trkpt><trkpt lat="43.1556583" lon="12.0040483"><ele>276.5</ele><time>2026-05-02T11:58:17.786Z</time></trkpt><trkpt lat="43.155555" lon="12.0039633"><ele>276.3333333333333</ele><time>2026-05-02T11:58:19.786Z</time></trkpt><trkpt lat="43.155495" lon="12.0039183"><ele>276.1666666666667</ele><time>2026-05-02T11:58:20.788Z</time></trkpt><trkpt lat="43.1554283" lon="12.0038667"><ele>276.0</ele><time>2026-05-02T11:58:21.786Z</time></trkpt><trkpt lat="43.1553583" lon="12.0038183"><ele>276.0</ele><time>2026-05-02T11:58:22.786Z</time></trkpt><trkpt lat="43.1552883" lon="12.0037717"><ele>276.0</ele><time>2026-05-02T11:58:23.787Z</time></trkpt><trkpt lat="43.1552183" lon="12.0037167"><ele>276.0</ele><time>2026-05-02T11:58:24.786Z</time></trkpt><trkpt lat="43.1551417" lon="12.0036633"><ele>276.0</ele><time>2026-05-02T11:58:25.786Z</time></trkpt><trkpt lat="43.1550633" lon="12.003605"><ele>276.0</ele><time>2026-05-02T11:58:26.789Z</time></trkpt><trkpt lat="43.15498" lon="12.0035433"><ele>276.0</ele><time>2026-05-02T11:58:27.787Z</time></trkpt><trkpt lat="43.1548933" lon="12.00349"><ele>276.0</ele><time>2026-05-02T11:58:28.787Z</time></trkpt><trkpt lat="43.1547883" lon="12.0034333"><ele>276.0</ele><time>2026-05-02T11:58:29.789Z</time></trkpt><trkpt lat="43.154675" lon="12.0033667"><ele>276.0</ele><time>2026-05-02T11:58:30.786Z</time></trkpt><trkpt lat="43.1545683" lon="12.0032967"><ele>276.0</ele><time>2026-05-02T11:58:31.785Z</time></trkpt><trkpt lat="43.1544567" lon="12.003225"><ele>276.0</ele><time>2026-05-02T11:58:32.785Z</time></trkpt><trkpt lat="43.1543467" lon="12.0031533"><ele>276.0</ele><time>2026-05-02T11:58:33.785Z</time></trkpt><trkpt lat="43.154235" lon="12.0030833"><ele>276.0</ele><time>2026-05-02T11:58:34.788Z</time></trkpt><trkpt lat="43.1541233" lon="12.0030117"><ele>276.0</ele><time>2026-05-02T11:58:35.788Z</time></trkpt><trkpt lat="43.1540117" lon="12.0029417"><ele>275.75</ele><time>2026-05-02T11:58:36.786Z</time></trkpt><trkpt lat="43.1539017" lon="12.00287"><ele>275.5</ele><time>2026-05-02T11:58:37.785Z</time></trkpt><trkpt lat="43.1537883" lon="12.0027967"><ele>275.25</ele><time>2026-05-02T11:58:38.785Z</time></trkpt><trkpt lat="43.15367" lon="12.0027217"><ele>275.0</ele><time>2026-05-02T11:58:39.785Z</time></trkpt><trkpt lat="43.15355" lon="12.0026483"><ele>275.0</ele><time>2026-05-02T11:58:40.786Z</time></trkpt><trkpt lat="43.1534383" lon="12.0025767"><ele>275.0</ele><time>2026-05-02T11:58:41.787Z</time></trkpt><trkpt lat="43.1533283" lon="12.0025083"><ele>275.0</ele><time>2026-05-02T11:58:42.785Z</time></trkpt><trkpt lat="43.1532217" lon="12.0024483"><ele>275.0</ele><time>2026-05-02T11:58:43.786Z</time></trkpt><trkpt lat="43.1531117" lon="12.0023933"><ele>275.5</ele><time>2026-05-02T11:58:44.786Z</time></trkpt><trkpt lat="43.1529967" lon="12.002355"><ele>276.0</ele><time>2026-05-02T11:58:45.787Z</time></trkpt><trkpt lat="43.1528817" lon="12.002325"><ele>276.5</ele><time>2026-05-02T11:58:46.786Z</time></trkpt><trkpt lat="43.1527733" lon="12.0023017"><ele>277.0</ele><time>2026-05-02T11:58:47.786Z</time></trkpt><trkpt lat="43.1526667" lon="12.002275"><ele>277.0</ele><time>2026-05-02T11:58:48.786Z</time></trkpt><trkpt lat="43.1525717" lon="12.0022233"><ele>277.0</ele><time>2026-05-02T11:58:49.785Z</time></trkpt><trkpt lat="43.15249" lon="12.00216"><ele>277.0</ele><time>2026-05-02T11:58:50.786Z</time></trkpt><trkpt lat="43.1524183" lon="12.002095"><ele>277.0</ele><time>2026-05-02T11:58:51.785Z</time></trkpt><trkpt lat="43.1523533" lon="12.0020333"><ele>277.0</ele><time>2026-05-02T11:58:52.786Z</time></trkpt><trkpt lat="43.1522833" lon="12.0019683"><ele>277.0</ele><time>2026-05-02T11:58:53.785Z</time></trkpt><trkpt lat="43.1522083" lon="12.0018967"><ele>276.75</ele><time>2026-05-02T11:58:54.789Z</time></trkpt><trkpt lat="43.15212" lon="12.00182"><ele>276.5</ele><time>2026-05-02T11:58:55.789Z</time></trkpt><trkpt lat="43.15202" lon="12.0017333"><ele>276.25</ele><time>2026-05-02T11:58:56.786Z</time></trkpt><trkpt lat="43.1519067" lon="12.001635"><ele>276.0</ele><time>2026-05-02T11:58:57.786Z</time></trkpt><trkpt lat="43.151785" lon="12.00153"><ele>276.0</ele><time>2026-05-02T11:58:58.787Z</time></trkpt><trkpt lat="43.15166" lon="12.0014167"><ele>276.0</ele><time>2026-05-02T11:58:59.786Z</time></trkpt><trkpt lat="43.1515317" lon="12.001305"><ele>276.0</ele><time>2026-05-02T11:59:00.789Z</time></trkpt><trkpt lat="43.151405" lon="12.0011933"><ele>276.0</ele><time>2026-05-02T11:59:01.786Z</time></trkpt><trkpt lat="43.1512783" lon="12.0010817"><ele>276.0</ele><time>2026-05-02T11:59:02.786Z</time></trkpt><trkpt lat="43.15115" lon="12.0009683"><ele>276.0</ele><time>2026-05-02T11:59:03.788Z</time></trkpt><trkpt lat="43.1510217" lon="12.0008533"><ele>276.25</ele><time>2026-05-02T11:59:04.791Z</time></trkpt><trkpt lat="43.1508933" lon="12.000735"><ele>276.5</ele><time>2026-05-02T11:59:05.788Z</time></trkpt><trkpt lat="43.150765" lon="12.00062"><ele>276.75</ele><time>2026-05-02T11:59:06.788Z</time></trkpt><trkpt lat="43.1506483" lon="12.00052"><ele>277.0</ele><time>2026-05-02T11:59:07.785Z</time></trkpt><trkpt lat="43.1505517" lon="12.0004317"><ele>277.0</ele><time>2026-05-02T11:59:08.787Z</time></trkpt><trkpt lat="43.15047" lon="12.0003567"><ele>277.0</ele><time>2026-05-02T11:59:09.786Z</time></trkpt><trkpt lat="43.1504033" lon="12.00029"><ele>277.0</ele><time>2026-05-02T11:59:10.785Z</time></trkpt><trkpt lat="43.1503467" lon="12.0002367"><ele>277.0</ele><time>2026-05-02T11:59:11.791Z</time></trkpt><trkpt lat="43.1502767" lon="12.00018"><ele>277.0</ele><time>2026-05-02T11:59:13.787Z</time></trkpt><trkpt lat="43.15019" lon="12.000185"><ele>277.0</ele><time>2026-05-02T11:59:16.786Z</time></trkpt><trkpt lat="43.1501233" lon="12.0002017"><ele>277.0</ele><time>2026-05-02T11:59:17.787Z</time></trkpt><trkpt lat="43.1500433" lon="12.00023"><ele>277.0</ele><time>2026-05-02T11:59:18.785Z</time></trkpt><trkpt lat="43.1499483" lon="12.0002683"><ele>277.0</ele><time>2026-05-02T11:59:19.786Z</time></trkpt><trkpt lat="43.14984" lon="12.000315"><ele>277.0</ele><time>2026-05-02T11:59:20.789Z</time></trkpt><trkpt lat="43.1497267" lon="12.0003667"><ele>277.0</ele><time>2026-05-02T11:59:21.789Z</time></trkpt><trkpt lat="43.1496" lon="12.0004217"><ele>277.0</ele><time>2026-05-02T11:59:22.789Z</time></trkpt><trkpt lat="43.149465" lon="12.0004817"><ele>277.0</ele><time>2026-05-02T11:59:23.789Z</time></trkpt><trkpt lat="43.1493233" lon="12.000545"><ele>277.0</ele><time>2026-05-02T11:59:24.789Z</time></trkpt><trkpt lat="43.1491767" lon="12.000615"><ele>277.0</ele><time>2026-05-02T11:59:25.789Z</time></trkpt><trkpt lat="43.149025" lon="12.0006833"><ele>277.0</ele><time>2026-05-02T11:59:26.786Z</time></trkpt><trkpt lat="43.1488683" lon="12.0007517"><ele>277.0</ele><time>2026-05-02T11:59:27.785Z</time></trkpt><trkpt lat="43.1487117" lon="12.0008167"><ele>277.0</ele><time>2026-05-02T11:59:28.786Z</time></trkpt><trkpt lat="43.1485633" lon="12.0008767"><ele>277.25</ele><time>2026-05-02T11:59:29.786Z</time></trkpt><trkpt lat="43.1484183" lon="12.0009367"><ele>277.5</ele><time>2026-05-02T11:59:30.785Z</time></trkpt><trkpt lat="43.1482767" lon="12.0009967"><ele>277.75</ele><time>2026-05-02T11:59:31.787Z</time></trkpt><trkpt lat="43.148135" lon="12.00106"><ele>278.0</ele><time>2026-05-02T11:59:32.786Z</time></trkpt><trkpt lat="43.1479933" lon="12.0011217"><ele>277.25</ele><time>2026-05-02T11:59:33.789Z</time></trkpt><trkpt lat="43.1478517" lon="12.001185"><ele>276.5</ele><time>2026-05-02T11:59:34.789Z</time></trkpt><trkpt lat="43.1477117" lon="12.0012467"><ele>275.75</ele><time>2026-05-02T11:59:35.789Z</time></trkpt><trkpt lat="43.1475683" lon="12.0013083"><ele>275.0</ele><time>2026-05-02T11:59:36.789Z</time></trkpt><trkpt lat="43.1474217" lon="12.0013717"><ele>275.33333333333337</ele><time>2026-05-02T11:59:37.786Z</time></trkpt><trkpt lat="43.1472683" lon="12.0014383"><ele>275.6666666666667</ele><time>2026-05-02T11:59:38.786Z</time></trkpt><trkpt lat="43.1471117" lon="12.0015083"><ele>276.0</ele><time>2026-05-02T11:59:39.785Z</time></trkpt><trkpt lat="43.1469483" lon="12.0015783"><ele>276.0</ele><time>2026-05-02T11:59:40.787Z</time></trkpt><trkpt lat="43.14678" lon="12.0016517"><ele>276.0</ele><time>2026-05-02T11:59:41.786Z</time></trkpt><trkpt lat="43.1466083" lon="12.0017267"><ele>276.0</ele><time>2026-05-02T11:59:42.786Z</time></trkpt><trkpt lat="43.1464333" lon="12.0018"><ele>275.6666666666667</ele><time>2026-05-02T11:59:43.787Z</time></trkpt><trkpt lat="43.1462533" lon="12.0018733"><ele>275.33333333333337</ele><time>2026-05-02T11:59:44.786Z</time></trkpt><trkpt lat="43.1460767" lon="12.0019433"><ele>275.0</ele><time>2026-05-02T11:59:45.785Z</time></trkpt><trkpt lat="43.1459033" lon="12.00202"><ele>275.0</ele><time>2026-05-02T11:59:46.786Z</time></trkpt><trkpt lat="43.14573" lon="12.0020983"><ele>275.0</ele><time>2026-05-02T11:59:47.786Z</time></trkpt><trkpt lat="43.1455533" lon="12.0021783"><ele>275.0</ele><time>2026-05-02T11:59:48.786Z</time></trkpt><trkpt lat="43.145375" lon="12.0022567"><ele>274.6666666666667</ele><time>2026-05-02T11:59:49.785Z</time></trkpt><trkpt lat="43.1451917" lon="12.0023383"><ele>274.3333333333333</ele><time>2026-05-02T11:59:50.786Z</time></trkpt><trkpt lat="43.1450033" lon="12.0024217"><ele>274.0</ele><time>2026-05-02T11:59:51.785Z</time></trkpt><trkpt lat="43.1448117" lon="12.0025017"><ele>273.3333333333333</ele><time>2026-05-02T11:59:52.789Z</time></trkpt><trkpt lat="43.1446167" lon="12.0025817"><ele>272.6666666666667</ele><time>2026-05-02T11:59:53.789Z</time></trkpt><trkpt lat="43.1444233" lon="12.0026583"><ele>272.0</ele><time>2026-05-02T11:59:54.789Z</time></trkpt><trkpt lat="43.1442333" lon="12.0027383"><ele>271.6666666666667</ele><time>2026-05-02T11:59:55.789Z</time></trkpt><trkpt lat="43.1440433" lon="12.00282"><ele>271.3333333333333</ele><time>2026-05-02T11:59:56.789Z</time></trkpt><trkpt lat="43.1438567" lon="12.0028967"><ele>271.0</ele><time>2026-05-02T11:59:57.79Z</time></trkpt><trkpt lat="43.1436717" lon="12.002975"><ele>271.0</ele><time>2026-05-02T11:59:58.789Z</time></trkpt><trkpt lat="43.1434833" lon="12.003055"><ele>271.0</ele><time>2026-05-02T11:59:59.79Z</time></trkpt><trkpt lat="43.143295" lon="12.0031333"><ele>271.0</ele><time>2026-05-02T12:00:00.789Z</time></trkpt><trkpt lat="43.1431117" lon="12.00321"><ele>272.0</ele><time>2026-05-02T12:00:01.789Z</time></trkpt><trkpt lat="43.142935" lon="12.0032867"><ele>273.0</ele><time>2026-05-02T12:00:02.789Z</time></trkpt><trkpt lat="43.1427717" lon="12.0033567"><ele>274.0</ele><time>2026-05-02T12:00:03.79Z</time></trkpt><trkpt lat="43.1426133" lon="12.0034217"><ele>274.0</ele><time>2026-05-02T12:00:04.789Z</time></trkpt><trkpt lat="43.1424533" lon="12.0034917"><ele>274.0</ele><time>2026-05-02T12:00:05.789Z</time></trkpt><trkpt lat="43.142295" lon="12.0035617"><ele>274.0</ele><time>2026-05-02T12:00:06.79Z</time></trkpt><trkpt lat="43.14214" lon="12.0036333"><ele>273.66666666666663</ele><time>2026-05-02T12:00:07.785Z</time></trkpt><trkpt lat="43.1419817" lon="12.0037217"><ele>273.3333333333333</ele><time>2026-05-02T12:00:08.786Z</time></trkpt><trkpt lat="43.1418217" lon="12.0038417"><ele>273.0</ele><time>2026-05-02T12:00:09.786Z</time></trkpt><trkpt lat="43.14167" lon="12.0039867"><ele>273.3333333333333</ele><time>2026-05-02T12:00:10.788Z</time></trkpt><trkpt lat="43.1415233" lon="12.00416"><ele>273.66666666666663</ele><time>2026-05-02T12:00:11.786Z</time></trkpt><trkpt lat="43.1413783" lon="12.0043483"><ele>274.0</ele><time>2026-05-02T12:00:12.786Z</time></trkpt><trkpt lat="43.1412433" lon="12.0045417"><ele>274.0</ele><time>2026-05-02T12:00:13.786Z</time></trkpt><trkpt lat="43.1411083" lon="12.0047367"><ele>274.0</ele><time>2026-05-02T12:00:14.786Z</time></trkpt><trkpt lat="43.1409767" lon="12.00493"><ele>274.0</ele><time>2026-05-02T12:00:15.787Z</time></trkpt><trkpt lat="43.1408433" lon="12.0051217"><ele>274.0</ele><time>2026-05-02T12:00:16.786Z</time></trkpt><trkpt lat="43.1407167" lon="12.0053167"><ele>274.0</ele><time>2026-05-02T12:00:17.788Z</time></trkpt><trkpt lat="43.1405917" lon="12.0055067"><ele>274.0</ele><time>2026-05-02T12:00:18.787Z</time></trkpt><trkpt lat="43.1404733" lon="12.0056833"><ele>274.66666666666663</ele><time>2026-05-02T12:00:19.786Z</time></trkpt><trkpt lat="43.140365" lon="12.0058483"><ele>275.3333333333333</ele><time>2026-05-02T12:00:20.787Z</time></trkpt><trkpt lat="43.14026" lon="12.0060017"><ele>276.0</ele><time>2026-05-02T12:00:21.786Z</time></trkpt><trkpt lat="43.1401533" lon="12.0061517"><ele>276.0</ele><time>2026-05-02T12:00:22.787Z</time></trkpt><trkpt lat="43.1400483" lon="12.0063017"><ele>276.0</ele><time>2026-05-02T12:00:23.788Z</time></trkpt><trkpt lat="43.139945" lon="12.0064533"><ele>276.0</ele><time>2026-05-02T12:00:24.79Z</time></trkpt><trkpt lat="43.1398467" lon="12.0066"><ele>276.0</ele><time>2026-05-02T12:00:25.79Z</time></trkpt><trkpt lat="43.1397517" lon="12.0067367"><ele>276.25</ele><time>2026-05-02T12:00:26.789Z</time></trkpt><trkpt lat="43.1396567" lon="12.0068667"><ele>276.5</ele><time>2026-05-02T12:00:27.789Z</time></trkpt><trkpt lat="43.1395717" lon="12.0069933"><ele>276.75</ele><time>2026-05-02T12:00:28.79Z</time></trkpt><trkpt lat="43.1394867" lon="12.0071133"><ele>277.0</ele><time>2026-05-02T12:00:29.79Z</time></trkpt><trkpt lat="43.1394083" lon="12.007235"><ele>277.0</ele><time>2026-05-02T12:00:30.789Z</time></trkpt><trkpt lat="43.1393333" lon="12.007355"><ele>277.0</ele><time>2026-05-02T12:00:31.787Z</time></trkpt><trkpt lat="43.13925" lon="12.0074667"><ele>277.0</ele><time>2026-05-02T12:00:32.787Z</time></trkpt><trkpt lat="43.13917" lon="12.0075683"><ele>277.0</ele><time>2026-05-02T12:00:33.789Z</time></trkpt><trkpt lat="43.1390883" lon="12.007655"><ele>277.0</ele><time>2026-05-02T12:00:34.79Z</time></trkpt><trkpt lat="43.1390033" lon="12.0077133"><ele>277.4</ele><time>2026-05-02T12:00:35.788Z</time></trkpt><trkpt lat="43.1389167" lon="12.0077583"><ele>277.79999999999995</ele><time>2026-05-02T12:00:36.789Z</time></trkpt><trkpt lat="43.1388267" lon="12.0078017"><ele>278.2</ele><time>2026-05-02T12:00:37.786Z</time></trkpt><trkpt lat="43.1387417" lon="12.00788"><ele>278.59999999999997</ele><time>2026-05-02T12:00:38.786Z</time></trkpt><trkpt lat="43.1386617" lon="12.0079933"><ele>279.0</ele><time>2026-05-02T12:00:39.786Z</time></trkpt><trkpt lat="43.138605" lon="12.0081433"><ele>279.0</ele><time>2026-05-02T12:00:40.786Z</time></trkpt><trkpt lat="43.1385783" lon="12.0083033"><ele>279.0</ele><time>2026-05-02T12:00:41.786Z</time></trkpt><trkpt lat="43.1385917" lon="12.0084767"><ele>279.0</ele><time>2026-05-02T12:00:42.787Z</time></trkpt><trkpt lat="43.138625" lon="12.0086417"><ele>279.0</ele><time>2026-05-02T12:00:43.786Z</time></trkpt><trkpt lat="43.138675" lon="12.0088133"><ele>279.0</ele><time>2026-05-02T12:00:44.787Z</time></trkpt><trkpt lat="43.1387267" lon="12.0089933"><ele>279.0</ele><time>2026-05-02T12:00:45.786Z</time></trkpt><trkpt lat="43.1387717" lon="12.009185"><ele>279.0</ele><time>2026-05-02T12:00:46.786Z</time></trkpt><trkpt lat="43.1387983" lon="12.00939"><ele>279.0</ele><time>2026-05-02T12:00:47.788Z</time></trkpt><trkpt lat="43.1388067" lon="12.0095983"><ele>279.0</ele><time>2026-05-02T12:00:48.787Z</time></trkpt><trkpt lat="43.1388167" lon="12.0098117"><ele>279.0</ele><time>2026-05-02T12:00:49.786Z</time></trkpt><trkpt lat="43.1388267" lon="12.01003"><ele>279.0</ele><time>2026-05-02T12:00:50.786Z</time></trkpt><trkpt lat="43.1388383" lon="12.01025"><ele>278.6666666666667</ele><time>2026-05-02T12:00:51.787Z</time></trkpt><trkpt lat="43.1388517" lon="12.0104717"><ele>278.33333333333337</ele><time>2026-05-02T12:00:52.786Z</time></trkpt><trkpt lat="43.13887" lon="12.010705"><ele>278.0</ele><time>2026-05-02T12:00:53.789Z</time></trkpt><trkpt lat="43.1388867" lon="12.0109317"><ele>277.75</ele><time>2026-05-02T12:00:54.791Z</time></trkpt><trkpt lat="43.13891" lon="12.0111467"><ele>277.5</ele><time>2026-05-02T12:00:55.786Z</time></trkpt><trkpt lat="43.1389317" lon="12.0113467"><ele>277.25</ele><time>2026-05-02T12:00:56.787Z</time></trkpt><trkpt lat="43.1389517" lon="12.0115367"><ele>277.0</ele><time>2026-05-02T12:00:57.788Z</time></trkpt><trkpt lat="43.1389533" lon="12.0117167"><ele>276.75</ele><time>2026-05-02T12:00:58.787Z</time></trkpt><trkpt lat="43.1389333" lon="12.0118833"><ele>276.5</ele><time>2026-05-02T12:00:59.787Z</time></trkpt><trkpt lat="43.1388883" lon="12.01204"><ele>276.25</ele><time>2026-05-02T12:01:00.787Z</time></trkpt><trkpt lat="43.1388067" lon="12.0121817"><ele>276.0</ele><time>2026-05-02T12:01:01.787Z</time></trkpt><trkpt lat="43.1387" lon="12.0123233"><ele>276.0</ele><time>2026-05-02T12:01:02.787Z</time></trkpt><trkpt lat="43.1385783" lon="12.0124733"><ele>276.0</ele><time>2026-05-02T12:01:03.787Z</time></trkpt><trkpt lat="43.1384533" lon="12.01264"><ele>276.0</ele><time>2026-05-02T12:01:04.788Z</time></trkpt><trkpt lat="43.13832" lon="12.0128183"><ele>276.3333333333333</ele><time>2026-05-02T12:01:05.788Z</time></trkpt><trkpt lat="43.1381783" lon="12.0129967"><ele>276.66666666666663</ele><time>2026-05-02T12:01:06.787Z</time></trkpt><trkpt lat="43.1380367" lon="12.0131717"><ele>277.0</ele><time>2026-05-02T12:01:07.786Z</time></trkpt><trkpt lat="43.1379017" lon="12.0133417"><ele>277.0</ele><time>2026-05-02T12:01:08.788Z</time></trkpt><trkpt lat="43.1377733" lon="12.01351"><ele>277.0</ele><time>2026-05-02T12:01:09.788Z</time></trkpt><trkpt lat="43.1376467" lon="12.013675"><ele>277.0</ele><time>2026-05-02T12:01:10.787Z</time></trkpt><trkpt lat="43.1375217" lon="12.0138433"><ele>277.0</ele><time>2026-05-02T12:01:11.788Z</time></trkpt><trkpt lat="43.1373983" lon="12.01401"><ele>277.0</ele><time>2026-05-02T12:01:12.787Z</time></trkpt><trkpt lat="43.137275" lon="12.0141783"><ele>277.0</ele><time>2026-05-02T12:01:13.789Z</time></trkpt><trkpt lat="43.1371517" lon="12.0143483"><ele>278.3333333333333</ele><time>2026-05-02T12:01:14.787Z</time></trkpt><trkpt lat="43.1370283" lon="12.0145167"><ele>279.6666666666667</ele><time>2026-05-02T12:01:15.787Z</time></trkpt><trkpt lat="43.1369033" lon="12.014685"><ele>281.0</ele><time>2026-05-02T12:01:16.787Z</time></trkpt><trkpt lat="43.13678" lon="12.0148533"><ele>281.0</ele><time>2026-05-02T12:01:17.788Z</time></trkpt><trkpt lat="43.136655" lon="12.0150217"><ele>281.0</ele><time>2026-05-02T12:01:18.788Z</time></trkpt><trkpt lat="43.13653" lon="12.015195"><ele>281.0</ele><time>2026-05-02T12:01:19.787Z</time></trkpt><trkpt lat="43.1364067" lon="12.0153667"><ele>281.0</ele><time>2026-05-02T12:01:20.787Z</time></trkpt><trkpt lat="43.1362833" lon="12.0155367"><ele>281.0</ele><time>2026-05-02T12:01:21.786Z</time></trkpt><trkpt lat="43.1361567" lon="12.01571"><ele>281.0</ele><time>2026-05-02T12:01:22.786Z</time></trkpt><trkpt lat="43.13603" lon="12.0158867"><ele>279.33333333333337</ele><time>2026-05-02T12:01:23.786Z</time></trkpt><trkpt lat="43.1359" lon="12.01607"><ele>277.6666666666667</ele><time>2026-05-02T12:01:24.785Z</time></trkpt><trkpt lat="43.1357683" lon="12.01626"><ele>276.0</ele><time>2026-05-02T12:01:25.786Z</time></trkpt><trkpt lat="43.13564" lon="12.0164533"><ele>276.0</ele><time>2026-05-02T12:01:26.786Z</time></trkpt><trkpt lat="43.1355083" lon="12.0166517"><ele>276.0</ele><time>2026-05-02T12:01:27.786Z</time></trkpt><trkpt lat="43.1353783" lon="12.0168567"><ele>276.0</ele><time>2026-05-02T12:01:28.786Z</time></trkpt><trkpt lat="43.1352467" lon="12.0170633"><ele>276.0</ele><time>2026-05-02T12:01:29.788Z</time></trkpt><trkpt lat="43.1351117" lon="12.0172683"><ele>276.0</ele><time>2026-05-02T12:01:30.786Z</time></trkpt><trkpt lat="43.1349767" lon="12.0174717"><ele>276.0</ele><time>2026-05-02T12:01:31.786Z</time></trkpt><trkpt lat="43.1348433" lon="12.0176683"><ele>275.3333333333333</ele><time>2026-05-02T12:01:32.786Z</time></trkpt><trkpt lat="43.1347167" lon="12.0178583"><ele>274.66666666666663</ele><time>2026-05-02T12:01:33.786Z</time></trkpt><trkpt lat="43.1345933" lon="12.018045"><ele>274.0</ele><time>2026-05-02T12:01:34.786Z</time></trkpt><trkpt lat="43.1344733" lon="12.0182317"><ele>274.0</ele><time>2026-05-02T12:01:35.788Z</time></trkpt><trkpt lat="43.1343517" lon="12.0184183"><ele>274.0</ele><time>2026-05-02T12:01:36.786Z</time></trkpt><trkpt lat="43.13423" lon="12.0186083"><ele>274.0</ele><time>2026-05-02T12:01:37.786Z</time></trkpt><trkpt lat="43.134115" lon="12.018805"><ele>273.3333333333333</ele><time>2026-05-02T12:01:38.786Z</time></trkpt><trkpt lat="43.1340067" lon="12.0190033"><ele>272.6666666666667</ele><time>2026-05-02T12:01:39.786Z</time></trkpt><trkpt lat="43.133905" lon="12.0192033"><ele>272.0</ele><time>2026-05-02T12:01:40.787Z</time></trkpt><trkpt lat="43.1338083" lon="12.0193967"><ele>272.0</ele><time>2026-05-02T12:01:41.79Z</time></trkpt><trkpt lat="43.1337167" lon="12.0195817"><ele>272.0</ele><time>2026-05-02T12:01:42.786Z</time></trkpt><trkpt lat="43.1336317" lon="12.019755"><ele>272.0</ele><time>2026-05-02T12:01:43.786Z</time></trkpt><trkpt lat="43.133555" lon="12.0199133"><ele>272.0</ele><time>2026-05-02T12:01:44.793Z</time></trkpt><trkpt lat="43.133485" lon="12.0200567"><ele>272.0</ele><time>2026-05-02T12:01:45.786Z</time></trkpt><trkpt lat="43.1334283" lon="12.02018"><ele>272.0</ele><time>2026-05-02T12:01:46.786Z</time></trkpt><trkpt lat="43.133385" lon="12.0202733"><ele>272.0</ele><time>2026-05-02T12:01:47.789Z</time></trkpt><trkpt lat="43.1333017" lon="12.0203583"><ele>272.0</ele><time>2026-05-02T12:01:49.786Z</time></trkpt><trkpt lat="43.1332083" lon="12.0202983"><ele>272.6</ele><time>2026-05-02T12:01:51.785Z</time></trkpt><trkpt lat="43.1331517" lon="12.02023"><ele>273.2</ele><time>2026-05-02T12:01:52.786Z</time></trkpt><trkpt lat="43.133075" lon="12.0201567"><ele>273.8</ele><time>2026-05-02T12:01:53.785Z</time></trkpt><trkpt lat="43.1329867" lon="12.0200767"><ele>274.4</ele><time>2026-05-02T12:01:54.789Z</time></trkpt><trkpt lat="43.1329" lon="12.019995"><ele>275.0</ele><time>2026-05-02T12:01:55.789Z</time></trkpt><trkpt lat="43.1328183" lon="12.0199033"><ele>275.0</ele><time>2026-05-02T12:01:56.785Z</time></trkpt><trkpt lat="43.1327433" lon="12.0197817"><ele>275.0</ele><time>2026-05-02T12:01:57.785Z</time></trkpt><trkpt lat="43.1326717" lon="12.0196217"><ele>275.0</ele><time>2026-05-02T12:01:58.787Z</time></trkpt><trkpt lat="43.1325967" lon="12.0194417"><ele>275.0</ele><time>2026-05-02T12:01:59.786Z</time></trkpt><trkpt lat="43.13252" lon="12.01925"><ele>276.0</ele><time>2026-05-02T12:02:00.785Z</time></trkpt><trkpt lat="43.1324333" lon="12.0190567"><ele>277.0</ele><time>2026-05-02T12:02:01.786Z</time></trkpt><trkpt lat="43.1323467" lon="12.018865"><ele>278.0</ele><time>2026-05-02T12:02:02.786Z</time></trkpt><trkpt lat="43.1322583" lon="12.01868"><ele>276.5</ele><time>2026-05-02T12:02:03.786Z</time></trkpt><trkpt lat="43.1321717" lon="12.01851"><ele>275.0</ele><time>2026-05-02T12:02:04.786Z</time></trkpt><trkpt lat="43.1320867" lon="12.018345"><ele>273.5</ele><time>2026-05-02T12:02:05.787Z</time></trkpt><trkpt lat="43.1320083" lon="12.0181783"><ele>272.0</ele><time>2026-05-02T12:02:06.786Z</time></trkpt><trkpt lat="43.131925" lon="12.0180017"><ele>272.0</ele><time>2026-05-02T12:02:07.785Z</time></trkpt><trkpt lat="43.1318517" lon="12.0178317"><ele>272.0</ele><time>2026-05-02T12:02:08.786Z</time></trkpt><trkpt lat="43.1317817" lon="12.0176667"><ele>272.0</ele><time>2026-05-02T12:02:09.786Z</time></trkpt><trkpt lat="43.13172" lon="12.0174967"><ele>272.0</ele><time>2026-05-02T12:02:10.787Z</time></trkpt><trkpt lat="43.1316733" lon="12.017315"><ele>272.0</ele><time>2026-05-02T12:02:11.786Z</time></trkpt><trkpt lat="43.13164" lon="12.0171217"><ele>272.0</ele><time>2026-05-02T12:02:12.785Z</time></trkpt><trkpt lat="43.1316117" lon="12.0169133"><ele>272.0</ele><time>2026-05-02T12:02:13.785Z</time></trkpt><trkpt lat="43.1315817" lon="12.0167017"><ele>272.25</ele><time>2026-05-02T12:02:14.786Z</time></trkpt><trkpt lat="43.1315533" lon="12.0164983"><ele>272.5</ele><time>2026-05-02T12:02:15.785Z</time></trkpt><trkpt lat="43.1315233" lon="12.016305"><ele>272.75</ele><time>2026-05-02T12:02:16.785Z</time></trkpt><trkpt lat="43.1314933" lon="12.016125"><ele>273.0</ele><time>2026-05-02T12:02:17.79Z</time></trkpt><trkpt lat="43.1314667" lon="12.015955"><ele>273.25</ele><time>2026-05-02T12:02:18.789Z</time></trkpt><trkpt lat="43.131445" lon="12.01579"><ele>273.5</ele><time>2026-05-02T12:02:19.789Z</time></trkpt><trkpt lat="43.1314283" lon="12.0156267"><ele>273.75</ele><time>2026-05-02T12:02:20.786Z</time></trkpt><trkpt lat="43.13141" lon="12.0154633"><ele>274.0</ele><time>2026-05-02T12:02:21.788Z</time></trkpt><trkpt lat="43.1313933" lon="12.01529"><ele>274.0</ele><time>2026-05-02T12:02:22.789Z</time></trkpt><trkpt lat="43.13138" lon="12.015105"><ele>274.0</ele><time>2026-05-02T12:02:23.788Z</time></trkpt><trkpt lat="43.1313717" lon="12.0148933"><ele>274.0</ele><time>2026-05-02T12:02:24.785Z</time></trkpt><trkpt lat="43.13136" lon="12.014665"><ele>274.0</ele><time>2026-05-02T12:02:25.786Z</time></trkpt><trkpt lat="43.13134" lon="12.01442"><ele>274.0</ele><time>2026-05-02T12:02:26.79Z</time></trkpt><trkpt lat="43.1313183" lon="12.01416"><ele>274.0</ele><time>2026-05-02T12:02:27.785Z</time></trkpt><trkpt lat="43.1312917" lon="12.0138983"><ele>274.0</ele><time>2026-05-02T12:02:28.786Z</time></trkpt><trkpt lat="43.1312667" lon="12.0136417"><ele>274.0</ele><time>2026-05-02T12:02:29.786Z</time></trkpt><trkpt lat="43.1312433" lon="12.0133917"><ele>274.0</ele><time>2026-05-02T12:02:30.787Z</time></trkpt><trkpt lat="43.1312217" lon="12.0131483"><ele>273.66666666666663</ele><time>2026-05-02T12:02:31.785Z</time></trkpt><trkpt lat="43.1312017" lon="12.0129183"><ele>273.3333333333333</ele><time>2026-05-02T12:02:32.786Z</time></trkpt><trkpt lat="43.1311817" lon="12.012705"><ele>273.0</ele><time>2026-05-02T12:02:33.786Z</time></trkpt><trkpt lat="43.131165" lon="12.0125067"><ele>273.75</ele><time>2026-05-02T12:02:34.788Z</time></trkpt><trkpt lat="43.1311483" lon="12.012315"><ele>274.5</ele><time>2026-05-02T12:02:35.786Z</time></trkpt><trkpt lat="43.1311317" lon="12.0121367"><ele>275.25</ele><time>2026-05-02T12:02:36.787Z</time></trkpt><trkpt lat="43.1311133" lon="12.0119683"><ele>276.0</ele><time>2026-05-02T12:02:37.785Z</time></trkpt><trkpt lat="43.1311" lon="12.0118067"><ele>275.5</ele><time>2026-05-02T12:02:38.787Z</time></trkpt><trkpt lat="43.1310867" lon="12.0116517"><ele>275.0</ele><time>2026-05-02T12:02:39.786Z</time></trkpt><trkpt lat="43.1310783" lon="12.0115033"><ele>274.5</ele><time>2026-05-02T12:02:40.789Z</time></trkpt><trkpt lat="43.1310817" lon="12.01135"><ele>274.0</ele><time>2026-05-02T12:02:41.79Z</time></trkpt><trkpt lat="43.1310917" lon="12.0111917"><ele>274.0</ele><time>2026-05-02T12:02:42.787Z</time></trkpt><trkpt lat="43.1311067" lon="12.011035"><ele>274.0</ele><time>2026-05-02T12:02:43.786Z</time></trkpt><trkpt lat="43.13111" lon="12.0108833"><ele>274.0</ele><time>2026-05-02T12:02:44.786Z</time></trkpt><trkpt lat="43.1310967" lon="12.0107317"><ele>274.0</ele><time>2026-05-02T12:02:45.788Z</time></trkpt><trkpt lat="43.1310683" lon="12.0105733"><ele>273.5</ele><time>2026-05-02T12:02:46.787Z</time></trkpt><trkpt lat="43.1310367" lon="12.0104117"><ele>273.0</ele><time>2026-05-02T12:02:47.789Z</time></trkpt><trkpt lat="43.1310017" lon="12.0102383"><ele>272.5</ele><time>2026-05-02T12:02:48.789Z</time></trkpt><trkpt lat="43.1309617" lon="12.0100617"><ele>272.0</ele><time>2026-05-02T12:02:49.786Z</time></trkpt><trkpt lat="43.13092" lon="12.00988"><ele>272.0</ele><time>2026-05-02T12:02:50.786Z</time></trkpt><trkpt lat="43.1308767" lon="12.0097"><ele>272.0</ele><time>2026-05-02T12:02:51.786Z</time></trkpt><trkpt lat="43.1308283" lon="12.0095317"><ele>272.0</ele><time>2026-05-02T12:02:52.786Z</time></trkpt><trkpt lat="43.1307717" lon="12.009365"><ele>272.0</ele><time>2026-05-02T12:02:53.789Z</time></trkpt><trkpt lat="43.1307133" lon="12.0092033"><ele>272.2</ele><time>2026-05-02T12:02:54.789Z</time></trkpt><trkpt lat="43.1306533" lon="12.0090533"><ele>272.4</ele><time>2026-05-02T12:02:55.786Z</time></trkpt><trkpt lat="43.1305983" lon="12.0089183"><ele>272.6</ele><time>2026-05-02T12:02:56.79Z</time></trkpt><trkpt lat="43.130545" lon="12.0087883"><ele>272.8</ele><time>2026-05-02T12:02:57.786Z</time></trkpt><trkpt lat="43.130495" lon="12.0086667"><ele>273.0</ele><time>2026-05-02T12:02:58.788Z</time></trkpt><trkpt lat="43.1304467" lon="12.00855"><ele>273.0</ele><time>2026-05-02T12:02:59.788Z</time></trkpt><trkpt lat="43.130395" lon="12.0084317"><ele>273.0</ele><time>2026-05-02T12:03:00.786Z</time></trkpt><trkpt lat="43.1303417" lon="12.0083033"><ele>273.0</ele><time>2026-05-02T12:03:01.786Z</time></trkpt><trkpt lat="43.1302933" lon="12.0081733"><ele>273.0</ele><time>2026-05-02T12:03:02.787Z</time></trkpt><trkpt lat="43.1302483" lon="12.008045"><ele>273.0</ele><time>2026-05-02T12:03:03.787Z</time></trkpt><trkpt lat="43.1302033" lon="12.007915"><ele>273.0</ele><time>2026-05-02T12:03:04.788Z</time></trkpt><trkpt lat="43.1301583" lon="12.007785"><ele>273.0</ele><time>2026-05-02T12:03:05.788Z</time></trkpt><trkpt lat="43.130115" lon="12.0076583"><ele>273.0</ele><time>2026-05-02T12:03:06.786Z</time></trkpt><trkpt lat="43.1300633" lon="12.0075467"><ele>273.0</ele><time>2026-05-02T12:03:07.787Z</time></trkpt><trkpt lat="43.1300083" lon="12.0074567"><ele>273.0</ele><time>2026-05-02T12:03:08.787Z</time></trkpt><trkpt lat="43.1299433" lon="12.0073867"><ele>273.3333333333333</ele><time>2026-05-02T12:03:09.789Z</time></trkpt><trkpt lat="43.1298717" lon="12.007335"><ele>273.6666666666667</ele><time>2026-05-02T12:03:10.789Z</time></trkpt><trkpt lat="43.1297933" lon="12.0073083"><ele>274.0</ele><time>2026-05-02T12:03:11.789Z</time></trkpt><trkpt lat="43.1297133" lon="12.007295"><ele>274.33333333333337</ele><time>2026-05-02T12:03:12.786Z</time></trkpt><trkpt lat="43.1296317" lon="12.0073067"><ele>274.6666666666667</ele><time>2026-05-02T12:03:13.789Z</time></trkpt><trkpt lat="43.129535" lon="12.0073567"><ele>275.0</ele><time>2026-05-02T12:03:14.789Z</time></trkpt><trkpt lat="43.1294333" lon="12.0074383"><ele>274.5</ele><time>2026-05-02T12:03:15.789Z</time></trkpt><trkpt lat="43.12933" lon="12.00752"><ele>274.0</ele><time>2026-05-02T12:03:16.787Z</time></trkpt><trkpt lat="43.1292167" lon="12.0075967"><ele>273.5</ele><time>2026-05-02T12:03:17.789Z</time></trkpt><trkpt lat="43.1290983" lon="12.0076617"><ele>273.0</ele><time>2026-05-02T12:03:18.787Z</time></trkpt><trkpt lat="43.1289717" lon="12.0077183"><ele>274.5</ele><time>2026-05-02T12:03:19.788Z</time></trkpt><trkpt lat="43.128835" lon="12.007765"><ele>276.0</ele><time>2026-05-02T12:03:20.786Z</time></trkpt><trkpt lat="43.1286883" lon="12.007805"><ele>277.5</ele><time>2026-05-02T12:03:21.787Z</time></trkpt><trkpt lat="43.1285433" lon="12.0078367"><ele>279.0</ele><time>2026-05-02T12:03:22.787Z</time></trkpt><trkpt lat="43.1284017" lon="12.0078617"><ele>279.0</ele><time>2026-05-02T12:03:23.786Z</time></trkpt><trkpt lat="43.12826" lon="12.0078833"><ele>279.0</ele><time>2026-05-02T12:03:24.789Z</time></trkpt><trkpt lat="43.1281183" lon="12.0079033"><ele>279.0</ele><time>2026-05-02T12:03:25.79Z</time></trkpt><trkpt lat="43.1279767" lon="12.0079267"><ele>279.0</ele><time>2026-05-02T12:03:26.786Z</time></trkpt><trkpt lat="43.12784" lon="12.0079567"><ele>279.0</ele><time>2026-05-02T12:03:27.786Z</time></trkpt><trkpt lat="43.1277117" lon="12.007985"><ele>279.0</ele><time>2026-05-02T12:03:28.787Z</time></trkpt><trkpt lat="43.1275867" lon="12.00801"><ele>279.0</ele><time>2026-05-02T12:03:29.786Z</time></trkpt><trkpt lat="43.1274617" lon="12.0080217"><ele>279.0</ele><time>2026-05-02T12:03:30.787Z</time></trkpt><trkpt lat="43.1273433" lon="12.0080183"><ele>280.25</ele><time>2026-05-02T12:03:31.787Z</time></trkpt><trkpt lat="43.127215" lon="12.0079933"><ele>281.5</ele><time>2026-05-02T12:03:32.787Z</time></trkpt><trkpt lat="43.1270833" lon="12.0079617"><ele>282.75</ele><time>2026-05-02T12:03:33.786Z</time></trkpt><trkpt lat="43.126955" lon="12.0079183"><ele>284.0</ele><time>2026-05-02T12:03:34.789Z</time></trkpt><trkpt lat="43.126825" lon="12.0078633"><ele>284.0</ele><time>2026-05-02T12:03:35.787Z</time></trkpt><trkpt lat="43.1266917" lon="12.0077983"><ele>284.0</ele><time>2026-05-02T12:03:36.786Z</time></trkpt><trkpt lat="43.1265567" lon="12.0077333"><ele>284.0</ele><time>2026-05-02T12:03:37.789Z</time></trkpt><trkpt lat="43.12642" lon="12.0076733"><ele>284.0</ele><time>2026-05-02T12:03:38.786Z</time></trkpt><trkpt lat="43.12628" lon="12.0076183"><ele>285.0</ele><time>2026-05-02T12:03:39.786Z</time></trkpt><trkpt lat="43.1261433" lon="12.0075767"><ele>286.0</ele><time>2026-05-02T12:03:40.789Z</time></trkpt><trkpt lat="43.12602" lon="12.0075417"><ele>287.0</ele><time>2026-05-02T12:03:41.789Z</time></trkpt><trkpt lat="43.1259067" lon="12.0075033"><ele>288.0</ele><time>2026-05-02T12:03:42.789Z</time></trkpt><trkpt lat="43.1258083" lon="12.0074483"><ele>289.25</ele><time>2026-05-02T12:03:43.789Z</time></trkpt><trkpt lat="43.1257167" lon="12.0073733"><ele>290.5</ele><time>2026-05-02T12:03:44.789Z</time></trkpt><trkpt lat="43.1256217" lon="12.007285"><ele>291.75</ele><time>2026-05-02T12:03:45.789Z</time></trkpt><trkpt lat="43.1255267" lon="12.00719"><ele>293.0</ele><time>2026-05-02T12:03:46.789Z</time></trkpt><trkpt lat="43.125435" lon="12.0070983"><ele>293.0</ele><time>2026-05-02T12:03:47.789Z</time></trkpt><trkpt lat="43.12535" lon="12.0070217"><ele>293.0</ele><time>2026-05-02T12:03:48.795Z</time></trkpt><trkpt lat="43.1252717" lon="12.00697"><ele>293.0</ele><time>2026-05-02T12:03:49.786Z</time></trkpt><trkpt lat="43.12519" lon="12.0069467"><ele>293.0</ele><time>2026-05-02T12:03:50.786Z</time></trkpt><trkpt lat="43.1251183" lon="12.0069583"><ele>293.0</ele><time>2026-05-02T12:03:51.786Z</time></trkpt><trkpt lat="43.1250417" lon="12.00701"><ele>293.0</ele><time>2026-05-02T12:03:52.788Z</time></trkpt><trkpt lat="43.12496" lon="12.0070833"><ele>293.5</ele><time>2026-05-02T12:03:53.786Z</time></trkpt><trkpt lat="43.1248733" lon="12.0071533"><ele>294.0</ele><time>2026-05-02T12:03:54.787Z</time></trkpt><trkpt lat="43.12479" lon="12.0072183"><ele>294.5</ele><time>2026-05-02T12:03:55.786Z</time></trkpt><trkpt lat="43.1247117" lon="12.0072767"><ele>295.0</ele><time>2026-05-02T12:03:56.786Z</time></trkpt><trkpt lat="43.12464" lon="12.007335"><ele>295.5</ele><time>2026-05-02T12:03:57.786Z</time></trkpt><trkpt lat="43.1245783" lon="12.00739"><ele>296.0</ele><time>2026-05-02T12:03:58.787Z</time></trkpt><trkpt lat="43.12452" lon="12.0074417"><ele>296.0</ele><time>2026-05-02T12:03:59.787Z</time></trkpt><trkpt lat="43.1244633" lon="12.00748"><ele>296.0</ele><time>2026-05-02T12:04:00.787Z</time></trkpt><trkpt lat="43.124365" lon="12.0074733"><ele>296.0</ele><time>2026-05-02T12:04:02.787Z</time></trkpt><trkpt lat="43.124285" lon="12.007335"><ele>296.0</ele><time>2026-05-02T12:04:04.787Z</time></trkpt><trkpt lat="43.1242267" lon="12.0072383"><ele>296.0</ele><time>2026-05-02T12:04:05.788Z</time></trkpt><trkpt lat="43.1241567" lon="12.0071233"><ele>296.0</ele><time>2026-05-02T12:04:06.786Z</time></trkpt><trkpt lat="43.1240783" lon="12.007"><ele>296.0</ele><time>2026-05-02T12:04:07.786Z</time></trkpt><trkpt lat="43.123995" lon="12.006875"><ele>296.0</ele><time>2026-05-02T12:04:08.786Z</time></trkpt><trkpt lat="43.12391" lon="12.0067467"><ele>296.0</ele><time>2026-05-02T12:04:09.788Z</time></trkpt><trkpt lat="43.1238233" lon="12.006615"><ele>296.25</ele><time>2026-05-02T12:04:10.791Z</time></trkpt><trkpt lat="43.1237367" lon="12.00649"><ele>296.5</ele><time>2026-05-02T12:04:11.789Z</time></trkpt><trkpt lat="43.1236533" lon="12.0063633"><ele>296.75</ele><time>2026-05-02T12:04:12.789Z</time></trkpt><trkpt lat="43.1235733" lon="12.00624"><ele>297.0</ele><time>2026-05-02T12:04:13.789Z</time></trkpt><trkpt lat="43.1234983" lon="12.0061233"><ele>297.0</ele><time>2026-05-02T12:04:14.791Z</time></trkpt><trkpt lat="43.1234283" lon="12.0060233"><ele>297.0</ele><time>2026-05-02T12:04:15.79Z</time></trkpt><trkpt lat="43.1233633" lon="12.005935"><ele>297.0</ele><time>2026-05-02T12:04:16.79Z</time></trkpt><trkpt lat="43.1232933" lon="12.00586"><ele>297.0</ele><time>2026-05-02T12:04:17.789Z</time></trkpt><trkpt lat="43.12322" lon="12.005795"><ele>297.0</ele><time>2026-05-02T12:04:18.79Z</time></trkpt><trkpt lat="43.1231417" lon="12.0057467"><ele>297.2</ele><time>2026-05-02T12:04:19.786Z</time></trkpt><trkpt lat="43.1230683" lon="12.0057133"><ele>297.4</ele><time>2026-05-02T12:04:20.786Z</time></trkpt><trkpt lat="43.123" lon="12.0056983"><ele>297.6</ele><time>2026-05-02T12:04:21.786Z</time></trkpt><trkpt lat="43.12289" lon="12.00573"><ele>297.8</ele><time>2026-05-02T12:04:23.787Z</time></trkpt><trkpt lat="43.1228" lon="12.005855"><ele>298.0</ele><time>2026-05-02T12:04:25.785Z</time></trkpt><trkpt lat="43.1227633" lon="12.005955"><ele>297.25</ele><time>2026-05-02T12:04:26.788Z</time></trkpt><trkpt lat="43.1227283" lon="12.00607"><ele>296.5</ele><time>2026-05-02T12:04:27.786Z</time></trkpt><trkpt lat="43.1226917" lon="12.0062083"><ele>295.75</ele><time>2026-05-02T12:04:28.785Z</time></trkpt><trkpt lat="43.1226433" lon="12.0063617"><ele>295.0</ele><time>2026-05-02T12:04:29.789Z</time></trkpt><trkpt lat="43.1225983" lon="12.0065283"><ele>294.5</ele><time>2026-05-02T12:04:30.789Z</time></trkpt><trkpt lat="43.12255" lon="12.0067017"><ele>294.0</ele><time>2026-05-02T12:04:31.785Z</time></trkpt><trkpt lat="43.1224983" lon="12.0068733"><ele>293.5</ele><time>2026-05-02T12:04:32.785Z</time></trkpt><trkpt lat="43.12245" lon="12.0070433"><ele>293.0</ele><time>2026-05-02T12:04:33.785Z</time></trkpt><trkpt lat="43.1224" lon="12.0072083"><ele>293.0</ele><time>2026-05-02T12:04:34.786Z</time></trkpt><trkpt lat="43.1223483" lon="12.0073767"><ele>293.0</ele><time>2026-05-02T12:04:35.785Z</time></trkpt><trkpt lat="43.1222983" lon="12.0075433"><ele>293.0</ele><time>2026-05-02T12:04:36.785Z</time></trkpt><trkpt lat="43.1222533" lon="12.0077083"><ele>293.0</ele><time>2026-05-02T12:04:37.786Z</time></trkpt><trkpt lat="43.1222117" lon="12.0078667"><ele>293.0</ele><time>2026-05-02T12:04:38.786Z</time></trkpt><trkpt lat="43.1221667" lon="12.00802"><ele>293.0</ele><time>2026-05-02T12:04:39.785Z</time></trkpt><trkpt lat="43.1221217" lon="12.00817"><ele>293.0</ele><time>2026-05-02T12:04:40.789Z</time></trkpt><trkpt lat="43.122075" lon="12.00832"><ele>293.0</ele><time>2026-05-02T12:04:41.789Z</time></trkpt><trkpt lat="43.1220233" lon="12.00847"><ele>293.1666666666667</ele><time>2026-05-02T12:04:42.788Z</time></trkpt><trkpt lat="43.1219783" lon="12.00861"><ele>293.33333333333337</ele><time>2026-05-02T12:04:43.788Z</time></trkpt><trkpt lat="43.1219367" lon="12.008735"><ele>293.5</ele><time>2026-05-02T12:04:44.789Z</time></trkpt><trkpt lat="43.1219033" lon="12.00884"><ele>293.6666666666667</ele><time>2026-05-02T12:04:45.789Z</time></trkpt><trkpt lat="43.1218767" lon="12.0089217"><ele>293.8333333333333</ele><time>2026-05-02T12:04:46.789Z</time></trkpt><trkpt lat="43.1218283" lon="12.0089783"><ele>294.0</ele><time>2026-05-02T12:04:48.785Z</time></trkpt><trkpt lat="43.1217417" lon="12.0089367"><ele>294.0</ele><time>2026-05-02T12:04:52.794Z</time></trkpt><trkpt lat="43.1216767" lon="12.0089383"><ele>294.0</ele><time>2026-05-02T12:04:53.787Z</time></trkpt><trkpt lat="43.1215933" lon="12.00895"><ele>294.0</ele><time>2026-05-02T12:04:54.788Z</time></trkpt><trkpt lat="43.121505" lon="12.0089683"><ele>294.0</ele><time>2026-05-02T12:04:55.789Z</time></trkpt><trkpt lat="43.121415" lon="12.0089783"><ele>294.0</ele><time>2026-05-02T12:04:56.785Z</time></trkpt><trkpt lat="43.12133" lon="12.0089617"><ele>294.0</ele><time>2026-05-02T12:04:57.785Z</time></trkpt><trkpt lat="43.1212517" lon="12.0089267"><ele>294.2</ele><time>2026-05-02T12:04:58.785Z</time></trkpt><trkpt lat="43.121175" lon="12.0088683"><ele>294.4</ele><time>2026-05-02T12:04:59.787Z</time></trkpt><trkpt lat="43.12111" lon="12.008765"><ele>294.6</ele><time>2026-05-02T12:05:00.786Z</time></trkpt><trkpt lat="43.12104" lon="12.0086517"><ele>294.8</ele><time>2026-05-02T12:05:01.786Z</time></trkpt><trkpt lat="43.1209733" lon="12.0085267"><ele>295.0</ele><time>2026-05-02T12:05:02.785Z</time></trkpt><trkpt lat="43.120905" lon="12.0084"><ele>295.0</ele><time>2026-05-02T12:05:03.785Z</time></trkpt><trkpt lat="43.1208417" lon="12.0082917"><ele>295.0</ele><time>2026-05-02T12:05:04.786Z</time></trkpt><trkpt lat="43.120775" lon="12.008205"><ele>295.0</ele><time>2026-05-02T12:05:05.785Z</time></trkpt><trkpt lat="43.1207017" lon="12.0081367"><ele>295.0</ele><time>2026-05-02T12:05:06.787Z</time></trkpt><trkpt lat="43.1206167" lon="12.0080867"><ele>295.0</ele><time>2026-05-02T12:05:07.789Z</time></trkpt><trkpt lat="43.1205267" lon="12.0080667"><ele>295.0</ele><time>2026-05-02T12:05:08.786Z</time></trkpt><trkpt lat="43.1204283" lon="12.0080833"><ele>295.0</ele><time>2026-05-02T12:05:09.785Z</time></trkpt><trkpt lat="43.1203217" lon="12.0081317"><ele>295.0</ele><time>2026-05-02T12:05:10.789Z</time></trkpt><trkpt lat="43.1202083" lon="12.0081933"><ele>295.0</ele><time>2026-05-02T12:05:11.791Z</time></trkpt><trkpt lat="43.12009" lon="12.0082533"><ele>295.0</ele><time>2026-05-02T12:05:12.788Z</time></trkpt><trkpt lat="43.1199667" lon="12.00831"><ele>295.0</ele><time>2026-05-02T12:05:13.79Z</time></trkpt><trkpt lat="43.1198433" lon="12.0083683"><ele>295.0</ele><time>2026-05-02T12:05:14.789Z</time></trkpt><trkpt lat="43.1197183" lon="12.0084333"><ele>295.0</ele><time>2026-05-02T12:05:15.789Z</time></trkpt><trkpt lat="43.1195867" lon="12.0085083"><ele>295.25</ele><time>2026-05-02T12:05:16.788Z</time></trkpt><trkpt lat="43.1194633" lon="12.0085833"><ele>295.5</ele><time>2026-05-02T12:05:17.789Z</time></trkpt><trkpt lat="43.1193483" lon="12.0086633"><ele>295.75</ele><time>2026-05-02T12:05:18.79Z</time></trkpt><trkpt lat="43.119235" lon="12.0087467"><ele>296.0</ele><time>2026-05-02T12:05:19.785Z</time></trkpt><trkpt lat="43.1191317" lon="12.00883"><ele>296.0</ele><time>2026-05-02T12:05:20.786Z</time></trkpt><trkpt lat="43.1190283" lon="12.0089067"><ele>296.0</ele><time>2026-05-02T12:05:21.786Z</time></trkpt><trkpt lat="43.11893" lon="12.00898"><ele>296.0</ele><time>2026-05-02T12:05:22.787Z</time></trkpt><trkpt lat="43.1188317" lon="12.0090517"><ele>296.0</ele><time>2026-05-02T12:05:23.788Z</time></trkpt><trkpt lat="43.118735" lon="12.0091167"><ele>296.0</ele><time>2026-05-02T12:05:24.785Z</time></trkpt><trkpt lat="43.1186483" lon="12.0091683"><ele>296.0</ele><time>2026-05-02T12:05:25.785Z</time></trkpt><trkpt lat="43.1185733" lon="12.0092"><ele>296.0</ele><time>2026-05-02T12:05:26.786Z</time></trkpt><trkpt lat="43.11846" lon="12.0091983"><ele>296.0</ele><time>2026-05-02T12:05:28.788Z</time></trkpt><trkpt lat="43.118385" lon="12.0090783"><ele>296.0</ele><time>2026-05-02T12:05:30.787Z</time></trkpt><trkpt lat="43.1183517" lon="12.0089533"><ele>296.0</ele><time>2026-05-02T12:05:31.787Z</time></trkpt><trkpt lat="43.1183033" lon="12.0087967"><ele>296.0</ele><time>2026-05-02T12:05:32.787Z</time></trkpt><trkpt lat="43.1182367" lon="12.0086333"><ele>296.0</ele><time>2026-05-02T12:05:33.785Z</time></trkpt><trkpt lat="43.1181683" lon="12.008465"><ele>296.0</ele><time>2026-05-02T12:05:34.786Z</time></trkpt><trkpt lat="43.1181017" lon="12.008305"><ele>296.0</ele><time>2026-05-02T12:05:35.789Z</time></trkpt><trkpt lat="43.11804" lon="12.0081583"><ele>296.0</ele><time>2026-05-02T12:05:36.787Z</time></trkpt><trkpt lat="43.117985" lon="12.008025"><ele>296.0</ele><time>2026-05-02T12:05:37.789Z</time></trkpt><trkpt lat="43.1179317" lon="12.0079067"><ele>296.0</ele><time>2026-05-02T12:05:38.785Z</time></trkpt><trkpt lat="43.1178833" lon="12.007795"><ele>296.0</ele><time>2026-05-02T12:05:39.785Z</time></trkpt><trkpt lat="43.117845" lon="12.00769"><ele>296.0</ele><time>2026-05-02T12:05:40.789Z</time></trkpt><trkpt lat="43.1178133" lon="12.0076"><ele>296.0</ele><time>2026-05-02T12:05:41.789Z</time></trkpt><trkpt lat="43.1177733" lon="12.0075167"><ele>296.0</ele><time>2026-05-02T12:05:43.789Z</time></trkpt><trkpt lat="43.1176817" lon="12.007575"><ele>296.0</ele><time>2026-05-02T12:05:45.786Z</time></trkpt><trkpt lat="43.1176167" lon="12.0076483"><ele>296.0</ele><time>2026-05-02T12:05:46.786Z</time></trkpt><trkpt lat="43.1175233" lon="12.0077217"><ele>296.0</ele><time>2026-05-02T12:05:47.79Z</time></trkpt><trkpt lat="43.1174217" lon="12.0077817"><ele>295.75</ele><time>2026-05-02T12:05:48.79Z</time></trkpt><trkpt lat="43.117305" lon="12.0078217"><ele>295.5</ele><time>2026-05-02T12:05:49.785Z</time></trkpt><trkpt lat="43.11719" lon="12.00786"><ele>295.25</ele><time>2026-05-02T12:05:50.787Z</time></trkpt><trkpt lat="43.11707" lon="12.0078933"><ele>295.0</ele><time>2026-05-02T12:05:51.786Z</time></trkpt><trkpt lat="43.11694" lon="12.0079267"><ele>295.0</ele><time>2026-05-02T12:05:52.787Z</time></trkpt><trkpt lat="43.116805" lon="12.0079567"><ele>295.0</ele><time>2026-05-02T12:05:53.786Z</time></trkpt><trkpt lat="43.1166667" lon="12.0079833"><ele>295.0</ele><time>2026-05-02T12:05:54.785Z</time></trkpt><trkpt lat="43.1165383" lon="12.0080183"><ele>295.0</ele><time>2026-05-02T12:05:55.786Z</time></trkpt><trkpt lat="43.1164183" lon="12.008065"><ele>295.0</ele><time>2026-05-02T12:05:56.786Z</time></trkpt><trkpt lat="43.1163067" lon="12.0081267"><ele>295.0</ele><time>2026-05-02T12:05:57.786Z</time></trkpt><trkpt lat="43.1162033" lon="12.008205"><ele>295.0</ele><time>2026-05-02T12:05:58.786Z</time></trkpt><trkpt lat="43.1161033" lon="12.0083033"><ele>295.0</ele><time>2026-05-02T12:05:59.787Z</time></trkpt><trkpt lat="43.116005" lon="12.0084183"><ele>294.5</ele><time>2026-05-02T12:06:00.786Z</time></trkpt><trkpt lat="43.1159083" lon="12.008555"><ele>294.0</ele><time>2026-05-02T12:06:01.786Z</time></trkpt><trkpt lat="43.1158083" lon="12.0087"><ele>293.5</ele><time>2026-05-02T12:06:02.786Z</time></trkpt><trkpt lat="43.115705" lon="12.0088567"><ele>293.0</ele><time>2026-05-02T12:06:03.786Z</time></trkpt><trkpt lat="43.1155967" lon="12.009025"><ele>294.33333333333337</ele><time>2026-05-02T12:06:04.786Z</time></trkpt><trkpt lat="43.11549" lon="12.0091967"><ele>295.6666666666667</ele><time>2026-05-02T12:06:05.786Z</time></trkpt><trkpt lat="43.115385" lon="12.0093667"><ele>297.0</ele><time>2026-05-02T12:06:06.785Z</time></trkpt><trkpt lat="43.115285" lon="12.009535"><ele>297.0</ele><time>2026-05-02T12:06:07.786Z</time></trkpt><trkpt lat="43.1151867" lon="12.0096967"><ele>297.0</ele><time>2026-05-02T12:06:08.786Z</time></trkpt><trkpt lat="43.1150917" lon="12.00985"><ele>297.0</ele><time>2026-05-02T12:06:09.786Z</time></trkpt><trkpt lat="43.1149967" lon="12.0099983"><ele>297.0</ele><time>2026-05-02T12:06:10.79Z</time></trkpt><trkpt lat="43.1149033" lon="12.0101517"><ele>297.0</ele><time>2026-05-02T12:06:11.789Z</time></trkpt><trkpt lat="43.1148033" lon="12.010315"><ele>297.0</ele><time>2026-05-02T12:06:12.789Z</time></trkpt><trkpt lat="43.1147017" lon="12.01048"><ele>297.0</ele><time>2026-05-02T12:06:13.789Z</time></trkpt><trkpt lat="43.1146033" lon="12.0106467"><ele>297.0</ele><time>2026-05-02T12:06:14.787Z</time></trkpt><trkpt lat="43.114505" lon="12.0108133"><ele>297.0</ele><time>2026-05-02T12:06:15.789Z</time></trkpt><trkpt lat="43.1144067" lon="12.010985"><ele>297.0</ele><time>2026-05-02T12:06:16.789Z</time></trkpt><trkpt lat="43.1143083" lon="12.01116"><ele>296.6666666666667</ele><time>2026-05-02T12:06:17.789Z</time></trkpt><trkpt lat="43.1142083" lon="12.0113383"><ele>296.33333333333337</ele><time>2026-05-02T12:06:18.79Z</time></trkpt><trkpt lat="43.1141083" lon="12.0115167"><ele>296.0</ele><time>2026-05-02T12:06:19.786Z</time></trkpt><trkpt lat="43.114005" lon="12.0116967"><ele>296.0</ele><time>2026-05-02T12:06:20.786Z</time></trkpt><trkpt lat="43.1139033" lon="12.0118767"><ele>296.0</ele><time>2026-05-02T12:06:21.786Z</time></trkpt><trkpt lat="43.1137983" lon="12.0120517"><ele>296.0</ele><time>2026-05-02T12:06:22.787Z</time></trkpt><trkpt lat="43.1136933" lon="12.0122233"><ele>296.0</ele><time>2026-05-02T12:06:23.788Z</time></trkpt><trkpt lat="43.1135933" lon="12.012385"><ele>296.0</ele><time>2026-05-02T12:06:24.786Z</time></trkpt><trkpt lat="43.1134983" lon="12.0125317"><ele>296.0</ele><time>2026-05-02T12:06:25.786Z</time></trkpt><trkpt lat="43.1134067" lon="12.012665"><ele>296.0</ele><time>2026-05-02T12:06:26.786Z</time></trkpt><trkpt lat="43.1133183" lon="12.0127983"><ele>297.0</ele><time>2026-05-02T12:06:27.786Z</time></trkpt><trkpt lat="43.1132283" lon="12.01294"><ele>298.0</ele><time>2026-05-02T12:06:28.787Z</time></trkpt><trkpt lat="43.113145" lon="12.0130917"><ele>299.0</ele><time>2026-05-02T12:06:29.788Z</time></trkpt><trkpt lat="43.1130717" lon="12.0132517"><ele>300.0</ele><time>2026-05-02T12:06:30.788Z</time></trkpt><trkpt lat="43.11301" lon="12.0134117"><ele>300.2</ele><time>2026-05-02T12:06:31.786Z</time></trkpt><trkpt lat="43.11296" lon="12.0135633"><ele>300.4</ele><time>2026-05-02T12:06:32.786Z</time></trkpt><trkpt lat="43.1129233" lon="12.0136983"><ele>300.6</ele><time>2026-05-02T12:06:33.786Z</time></trkpt><trkpt lat="43.112885" lon="12.0138167"><ele>300.8</ele><time>2026-05-02T12:06:34.786Z</time></trkpt><trkpt lat="43.1128383" lon="12.0139083"><ele>301.0</ele><time>2026-05-02T12:06:35.786Z</time></trkpt><trkpt lat="43.1127717" lon="12.0139883"><ele>301.0</ele><time>2026-05-02T12:06:36.787Z</time></trkpt><trkpt lat="43.1126883" lon="12.01407"><ele>301.0</ele><time>2026-05-02T12:06:37.787Z</time></trkpt><trkpt lat="43.1125883" lon="12.0141633"><ele>301.0</ele><time>2026-05-02T12:06:38.787Z</time></trkpt><trkpt lat="43.1124783" lon="12.0142667"><ele>301.0</ele><time>2026-05-02T12:06:39.787Z</time></trkpt><trkpt lat="43.1123667" lon="12.0143833"><ele>301.0</ele><time>2026-05-02T12:06:40.789Z</time></trkpt><trkpt lat="43.1122483" lon="12.0145167"><ele>301.0</ele><time>2026-05-02T12:06:41.789Z</time></trkpt><trkpt lat="43.11213" lon="12.0146583"><ele>301.0</ele><time>2026-05-02T12:06:42.789Z</time></trkpt><trkpt lat="43.1120033" lon="12.0148067"><ele>301.0</ele><time>2026-05-02T12:06:43.789Z</time></trkpt><trkpt lat="43.1118767" lon="12.014945"><ele>301.0</ele><time>2026-05-02T12:06:44.79Z</time></trkpt><trkpt lat="43.1117617" lon="12.0150783"><ele>301.0</ele><time>2026-05-02T12:06:45.789Z</time></trkpt><trkpt lat="43.1116567" lon="12.01519"><ele>301.0</ele><time>2026-05-02T12:06:46.789Z</time></trkpt><trkpt lat="43.111555" lon="12.0152683"><ele>300.75</ele><time>2026-05-02T12:06:47.789Z</time></trkpt><trkpt lat="43.1114483" lon="12.01532"><ele>300.5</ele><time>2026-05-02T12:06:48.789Z</time></trkpt><trkpt lat="43.1113233" lon="12.0153567"><ele>300.25</ele><time>2026-05-02T12:06:49.789Z</time></trkpt><trkpt lat="43.1111883" lon="12.01539"><ele>300.0</ele><time>2026-05-02T12:06:50.789Z</time></trkpt><trkpt lat="43.1110417" lon="12.0154283"><ele>300.0</ele><time>2026-05-02T12:06:51.789Z</time></trkpt><trkpt lat="43.110895" lon="12.015475"><ele>300.0</ele><time>2026-05-02T12:06:52.789Z</time></trkpt><trkpt lat="43.1107583" lon="12.01552"><ele>300.0</ele><time>2026-05-02T12:06:53.789Z</time></trkpt><trkpt lat="43.1106317" lon="12.0155633"><ele>300.0</ele><time>2026-05-02T12:06:54.789Z</time></trkpt><trkpt lat="43.1105183" lon="12.0156117"><ele>299.8333333333333</ele><time>2026-05-02T12:06:55.789Z</time></trkpt><trkpt lat="43.1104233" lon="12.0156683"><ele>299.6666666666667</ele><time>2026-05-02T12:06:56.789Z</time></trkpt><trkpt lat="43.110345" lon="12.01572"><ele>299.5</ele><time>2026-05-02T12:06:57.789Z</time></trkpt><trkpt lat="43.110285" lon="12.01576"><ele>299.33333333333337</ele><time>2026-05-02T12:06:58.789Z</time></trkpt><trkpt lat="43.11022" lon="12.0157933"><ele>299.1666666666667</ele><time>2026-05-02T12:07:00.789Z</time></trkpt><trkpt lat="43.1101417" lon="12.0158383"><ele>299.0</ele><time>2026-05-02T12:07:03.789Z</time></trkpt><trkpt lat="43.11008" lon="12.0158883"><ele>298.8</ele><time>2026-05-02T12:07:04.789Z</time></trkpt><trkpt lat="43.11" lon="12.01595"><ele>298.59999999999997</ele><time>2026-05-02T12:07:05.789Z</time></trkpt><trkpt lat="43.1099083" lon="12.0160133"><ele>298.4</ele><time>2026-05-02T12:07:06.789Z</time></trkpt><trkpt lat="43.1098033" lon="12.016065"><ele>298.2</ele><time>2026-05-02T12:07:07.789Z</time></trkpt><trkpt lat="43.109675" lon="12.0160867"><ele>298.0</ele><time>2026-05-02T12:07:08.791Z</time></trkpt><trkpt lat="43.1095433" lon="12.0160917"><ele>298.5</ele><time>2026-05-02T12:07:09.789Z</time></trkpt><trkpt lat="43.10942" lon="12.01608"><ele>299.0</ele><time>2026-05-02T12:07:10.789Z</time></trkpt><trkpt lat="43.109295" lon="12.0160633"><ele>299.5</ele><time>2026-05-02T12:07:11.789Z</time></trkpt><trkpt lat="43.1091667" lon="12.016045"><ele>300.0</ele><time>2026-05-02T12:07:12.79Z</time></trkpt><trkpt lat="43.1090283" lon="12.0160283"><ele>300.5</ele><time>2026-05-02T12:07:13.787Z</time></trkpt><trkpt lat="43.108885" lon="12.01601"><ele>301.0</ele><time>2026-05-02T12:07:14.791Z</time></trkpt><trkpt lat="43.10874" lon="12.0159867"><ele>301.5</ele><time>2026-05-02T12:07:15.786Z</time></trkpt><trkpt lat="43.1086033" lon="12.0159517"><ele>302.0</ele><time>2026-05-02T12:07:16.79Z</time></trkpt><trkpt lat="43.1084783" lon="12.0159033"><ele>302.0</ele><time>2026-05-02T12:07:17.79Z</time></trkpt><trkpt lat="43.1083717" lon="12.0158433"><ele>302.0</ele><time>2026-05-02T12:07:18.79Z</time></trkpt><trkpt lat="43.1082817" lon="12.0157767"><ele>302.0</ele><time>2026-05-02T12:07:19.789Z</time></trkpt><trkpt lat="43.1081917" lon="12.0157033"><ele>302.0</ele><time>2026-05-02T12:07:20.791Z</time></trkpt><trkpt lat="43.1081017" lon="12.015615"><ele>302.0</ele><time>2026-05-02T12:07:21.792Z</time></trkpt><trkpt lat="43.1080017" lon="12.0155217"><ele>302.25</ele><time>2026-05-02T12:07:22.791Z</time></trkpt><trkpt lat="43.107895" lon="12.0154233"><ele>302.5</ele><time>2026-05-02T12:07:23.788Z</time></trkpt><trkpt lat="43.1077867" lon="12.0153283"><ele>302.75</ele><time>2026-05-02T12:07:24.788Z</time></trkpt><trkpt lat="43.10768" lon="12.0152433"><ele>303.0</ele><time>2026-05-02T12:07:25.788Z</time></trkpt><trkpt lat="43.10758" lon="12.01517"><ele>303.0</ele><time>2026-05-02T12:07:26.789Z</time></trkpt><trkpt lat="43.107485" lon="12.015115"><ele>303.0</ele><time>2026-05-02T12:07:27.788Z</time></trkpt><trkpt lat="43.1074017" lon="12.0150817"><ele>303.0</ele><time>2026-05-02T12:07:28.79Z</time></trkpt><trkpt lat="43.1073183" lon="12.015065"><ele>303.0</ele><time>2026-05-02T12:07:29.788Z</time></trkpt><trkpt lat="43.1072317" lon="12.0150617"><ele>303.0</ele><time>2026-05-02T12:07:30.788Z</time></trkpt><trkpt lat="43.1071283" lon="12.0150667"><ele>302.75</ele><time>2026-05-02T12:07:31.789Z</time></trkpt><trkpt lat="43.1070133" lon="12.01508"><ele>302.5</ele><time>2026-05-02T12:07:32.789Z</time></trkpt><trkpt lat="43.106895" lon="12.015095"><ele>302.25</ele><time>2026-05-02T12:07:33.789Z</time></trkpt><trkpt lat="43.1067767" lon="12.0151083"><ele>302.0</ele><time>2026-05-02T12:07:34.79Z</time></trkpt><trkpt lat="43.1066567" lon="12.0151183"><ele>301.25</ele><time>2026-05-02T12:07:35.789Z</time></trkpt><trkpt lat="43.1065267" lon="12.0151233"><ele>300.5</ele><time>2026-05-02T12:07:36.788Z</time></trkpt><trkpt lat="43.10639" lon="12.01513"><ele>299.75</ele><time>2026-05-02T12:07:37.789Z</time></trkpt><trkpt lat="43.1062483" lon="12.0151417"><ele>299.0</ele><time>2026-05-02T12:07:38.791Z</time></trkpt><trkpt lat="43.1061117" lon="12.01515"><ele>299.0</ele><time>2026-05-02T12:07:39.788Z</time></trkpt><trkpt lat="43.1059883" lon="12.0151617"><ele>299.0</ele><time>2026-05-02T12:07:40.788Z</time></trkpt><trkpt lat="43.1058683" lon="12.01517"><ele>299.0</ele><time>2026-05-02T12:07:41.788Z</time></trkpt><trkpt lat="43.1057567" lon="12.015175"><ele>299.0</ele><time>2026-05-02T12:07:42.789Z</time></trkpt><trkpt lat="43.10565" lon="12.0151717"><ele>299.25</ele><time>2026-05-02T12:07:43.789Z</time></trkpt><trkpt lat="43.1055467" lon="12.0151633"><ele>299.5</ele><time>2026-05-02T12:07:44.789Z</time></trkpt><trkpt lat="43.1054317" lon="12.0151417"><ele>299.75</ele><time>2026-05-02T12:07:45.789Z</time></trkpt><trkpt lat="43.1053167" lon="12.0151083"><ele>300.0</ele><time>2026-05-02T12:07:46.788Z</time></trkpt><trkpt lat="43.1051883" lon="12.0150667"><ele>300.0</ele><time>2026-05-02T12:07:47.79Z</time></trkpt><trkpt lat="43.105055" lon="12.015025"><ele>300.0</ele><time>2026-05-02T12:07:48.788Z</time></trkpt><trkpt lat="43.104925" lon="12.0149817"><ele>300.0</ele><time>2026-05-02T12:07:49.789Z</time></trkpt><trkpt lat="43.1048083" lon="12.014945"><ele>300.0</ele><time>2026-05-02T12:07:50.789Z</time></trkpt><trkpt lat="43.1047" lon="12.0149117"><ele>299.0</ele><time>2026-05-02T12:07:51.79Z</time></trkpt><trkpt lat="43.104605" lon="12.01488"><ele>298.0</ele><time>2026-05-02T12:07:52.791Z</time></trkpt><trkpt lat="43.1045217" lon="12.0148517"><ele>297.0</ele><time>2026-05-02T12:07:53.789Z</time></trkpt><trkpt lat="43.1044533" lon="12.01483"><ele>296.0</ele><time>2026-05-02T12:07:54.79Z</time></trkpt><trkpt lat="43.1043633" lon="12.0148133"><ele>295.0</ele><time>2026-05-02T12:07:56.785Z</time></trkpt><trkpt lat="43.1042883" lon="12.0147933"><ele>294.0</ele><time>2026-05-02T12:08:30.786Z</time></trkpt><trkpt lat="43.1041383" lon="12.0148267"><ele>293.4</ele><time>2026-05-02T12:08:32.788Z</time></trkpt><trkpt lat="43.10403" lon="12.0148233"><ele>292.79999999999995</ele><time>2026-05-02T12:08:33.785Z</time></trkpt><trkpt lat="43.103905" lon="12.0148517"><ele>292.20000000000005</ele><time>2026-05-02T12:08:34.786Z</time></trkpt><trkpt lat="43.1037933" lon="12.0148767"><ele>291.6</ele><time>2026-05-02T12:08:35.786Z</time></trkpt><trkpt lat="43.1036967" lon="12.0149067"><ele>291.0</ele><time>2026-05-02T12:08:36.786Z</time></trkpt><trkpt lat="43.103615" lon="12.0149333"><ele>291.0</ele><time>2026-05-02T12:08:37.786Z</time></trkpt><trkpt lat="43.103505" lon="12.0149783"><ele>291.0</ele><time>2026-05-02T12:08:39.786Z</time></trkpt><trkpt lat="43.1034067" lon="12.0150133"><ele>291.0</ele><time>2026-05-02T12:08:41.786Z</time></trkpt><trkpt lat="43.10331" lon="12.0150317"><ele>291.0</ele><time>2026-05-02T12:08:43.788Z</time></trkpt><trkpt lat="43.103245" lon="12.0150433"><ele>291.0</ele><time>2026-05-02T12:08:45.786Z</time></trkpt><trkpt lat="43.103145" lon="12.01506"><ele>290.8</ele><time>2026-05-02T12:08:48.787Z</time></trkpt><trkpt lat="43.1030267" lon="12.0150583"><ele>290.6</ele><time>2026-05-02T12:08:50.786Z</time></trkpt><trkpt lat="43.1029567" lon="12.0150517"><ele>290.4</ele><time>2026-05-02T12:08:51.786Z</time></trkpt><trkpt lat="43.102835" lon="12.01504"><ele>290.2</ele><time>2026-05-02T12:08:53.786Z</time></trkpt><trkpt lat="43.1027133" lon="12.0150467"><ele>290.0</ele><time>2026-05-02T12:08:55.787Z</time></trkpt><trkpt lat="43.1026367" lon="12.0150567"><ele>290.0</ele><time>2026-05-02T12:08:56.786Z</time></trkpt><trkpt lat="43.1025467" lon="12.015065"><ele>290.0</ele><time>2026-05-02T12:08:57.786Z</time></trkpt><trkpt lat="43.1024667" lon="12.015075"><ele>290.0</ele><time>2026-05-02T12:08:58.787Z</time></trkpt><trkpt lat="43.10238" lon="12.0150883"><ele>290.0</ele><time>2026-05-02T12:08:59.786Z</time></trkpt><trkpt lat="43.1022933" lon="12.0150983"><ele>290.0</ele><time>2026-05-02T12:09:00.786Z</time></trkpt><trkpt lat="43.1022217" lon="12.0151083"><ele>290.0</ele><time>2026-05-02T12:09:01.785Z</time></trkpt><trkpt lat="43.1021217" lon="12.0151367"><ele>288.8</ele><time>2026-05-02T12:09:03.786Z</time></trkpt><trkpt lat="43.102015" lon="12.0151817"><ele>287.6</ele><time>2026-05-02T12:09:05.786Z</time></trkpt><trkpt lat="43.1019167" lon="12.015205"><ele>286.4</ele><time>2026-05-02T12:09:07.786Z</time></trkpt><trkpt lat="43.1018033" lon="12.0152283"><ele>285.2</ele><time>2026-05-02T12:09:09.786Z</time></trkpt><trkpt lat="43.1017017" lon="12.0152583"><ele>284.0</ele><time>2026-05-02T12:09:11.786Z</time></trkpt><trkpt lat="43.1016117" lon="12.015285"><ele>282.6666666666667</ele><time>2026-05-02T12:09:13.786Z</time></trkpt><trkpt lat="43.101535" lon="12.0153133"><ele>281.33333333333337</ele><time>2026-05-02T12:09:15.787Z</time></trkpt><trkpt lat="43.1014633" lon="12.0153617"><ele>280.0</ele><time>2026-05-02T12:09:17.786Z</time></trkpt><trkpt lat="43.10139" lon="12.0153917"><ele>278.6666666666667</ele><time>2026-05-02T12:09:19.786Z</time></trkpt><trkpt lat="43.10129" lon="12.0154283"><ele>277.3333333333333</ele><time>2026-05-02T12:09:22.787Z</time></trkpt><trkpt lat="43.10122" lon="12.015455"><ele>276.0</ele><time>2026-05-02T12:09:24.786Z</time></trkpt><trkpt lat="43.1011483" lon="12.0154833"><ele>276.0</ele><time>2026-05-02T12:09:26.786Z</time></trkpt><trkpt lat="43.1010833" lon="12.0155083"><ele>276.0</ele><time>2026-05-02T12:09:29.786Z</time></trkpt><trkpt lat="43.10101" lon="12.0154433"><ele>276.0</ele><time>2026-05-02T12:09:33.786Z</time></trkpt><trkpt lat="43.1009583" lon="12.015355"><ele>276.0</ele><time>2026-05-02T12:09:35.788Z</time></trkpt><trkpt lat="43.1008867" lon="12.0152433"><ele>276.0</ele><time>2026-05-02T12:09:37.786Z</time></trkpt><trkpt lat="43.1008133" lon="12.0151267"><ele>275.2</ele><time>2026-05-02T12:09:39.787Z</time></trkpt><trkpt lat="43.1007467" lon="12.0150117"><ele>274.40000000000003</ele><time>2026-05-02T12:09:41.79Z</time></trkpt><trkpt lat="43.1006917" lon="12.0149233"><ele>273.6</ele><time>2026-05-02T12:09:43.789Z</time></trkpt><trkpt lat="43.1006433" lon="12.01484"><ele>272.8</ele><time>2026-05-02T12:09:45.79Z</time></trkpt><trkpt lat="43.10058" lon="12.0147367"><ele>272.0</ele><time>2026-05-02T12:09:47.789Z</time></trkpt><trkpt lat="43.1005317" lon="12.0146467"><ele>272.0</ele><time>2026-05-02T12:09:49.789Z</time></trkpt><trkpt lat="43.100485" lon="12.014555"><ele>272.0</ele><time>2026-05-02T12:09:52.791Z</time></trkpt><trkpt lat="43.10045" lon="12.01448"><ele>272.0</ele><time>2026-05-02T12:09:55.79Z</time></trkpt><trkpt lat="43.10042" lon="12.0143967"><ele>272.0</ele><time>2026-05-02T12:11:01.785Z</time></trkpt><trkpt lat="43.1003883" lon="12.01431"><ele>272.0</ele><time>2026-05-02T12:11:07.788Z</time></trkpt><trkpt lat="43.10038" lon="12.0141983"><ele>272.0</ele><time>2026-05-02T12:11:10.786Z</time></trkpt><trkpt lat="43.1003467" lon="12.01408"><ele>272.57142857142856</ele><time>2026-05-02T12:11:14.786Z</time></trkpt><trkpt lat="43.1003183" lon="12.014"><ele>273.1428571428571</ele><time>2026-05-02T12:11:16.785Z</time></trkpt><trkpt lat="43.1002833" lon="12.013885"><ele>273.7142857142857</ele><time>2026-05-02T12:11:19.785Z</time></trkpt><trkpt lat="43.10026" lon="12.0137933"><ele>274.2857142857143</ele><time>2026-05-02T12:11:22.787Z</time></trkpt><trkpt lat="43.1002283" lon="12.0137167"><ele>274.8571428571429</ele><time>2026-05-02T12:15:10.786Z</time></trkpt><trkpt lat="43.100185" lon="12.0136183"><ele>275.42857142857144</ele><time>2026-05-02T12:15:13.787Z</time></trkpt><trkpt lat="43.10016" lon="12.0135333"><ele>276.0</ele><time>2026-05-02T12:15:15.787Z</time></trkpt><trkpt lat="43.100125" lon="12.013415"><ele>276.0</ele><time>2026-05-02T12:15:18.786Z</time></trkpt><trkpt lat="43.100085" lon="12.0133267"><ele>276.0</ele><time>2026-05-02T12:15:20.787Z</time></trkpt><trkpt lat="43.10002" lon="12.0132467"><ele>276.0</ele><time>2026-05-02T12:15:23.787Z</time></trkpt><trkpt lat="43.0999567" lon="12.0132"><ele>276.0</ele><time>2026-05-02T12:15:25.786Z</time></trkpt><trkpt lat="43.099895" lon="12.0131583"><ele>276.0</ele><time>2026-05-02T12:15:27.787Z</time></trkpt><trkpt lat="43.099835" lon="12.0131033"><ele>276.0</ele><time>2026-05-02T12:15:29.787Z</time></trkpt><trkpt lat="43.0997733" lon="12.0130383"><ele>276.6</ele><time>2026-05-02T12:15:32.786Z</time></trkpt><trkpt lat="43.099715" lon="12.0129833"><ele>277.20000000000005</ele><time>2026-05-02T12:15:35.787Z</time></trkpt><trkpt lat="43.09966" lon="12.0129367"><ele>277.79999999999995</ele><time>2026-05-02T12:15:37.789Z</time></trkpt><trkpt lat="43.099575" lon="12.012865"><ele>278.4</ele><time>2026-05-02T12:15:40.789Z</time></trkpt><trkpt lat="43.0994883" lon="12.01279"><ele>279.0</ele><time>2026-05-02T12:15:42.787Z</time></trkpt><trkpt lat="43.0993917" lon="12.0127083"><ele>279.0</ele><time>2026-05-02T12:15:44.789Z</time></trkpt><trkpt lat="43.0993367" lon="12.012665"><ele>279.0</ele><time>2026-05-02T12:15:45.787Z</time></trkpt><trkpt lat="43.09928" lon="12.012625"><ele>279.0</ele><time>2026-05-02T12:15:46.787Z</time></trkpt><trkpt lat="43.099175" lon="12.0125517"><ele>279.0</ele><time>2026-05-02T12:15:48.786Z</time></trkpt><trkpt lat="43.0990583" lon="12.0124767"><ele>279.0</ele><time>2026-05-02T12:15:50.787Z</time></trkpt><trkpt lat="43.0989883" lon="12.0124267"><ele>281.0</ele><time>2026-05-02T12:15:51.787Z</time></trkpt><trkpt lat="43.0989" lon="12.01236"><ele>283.0</ele><time>2026-05-02T12:15:52.787Z</time></trkpt><trkpt lat="43.098795" lon="12.0122783"><ele>285.0</ele><time>2026-05-02T12:15:53.787Z</time></trkpt><trkpt lat="43.098695" lon="12.0122"><ele>287.0</ele><time>2026-05-02T12:15:54.786Z</time></trkpt><trkpt lat="43.09861" lon="12.0121367"><ele>289.0</ele><time>2026-05-02T12:15:55.787Z</time></trkpt><trkpt lat="43.0985333" lon="12.0120767"><ele>289.0</ele><time>2026-05-02T12:15:56.788Z</time></trkpt><trkpt lat="43.098465" lon="12.0120117"><ele>289.0</ele><time>2026-05-02T12:15:57.786Z</time></trkpt><trkpt lat="43.098405" lon="12.0119483"><ele>289.0</ele><time>2026-05-02T12:15:58.786Z</time></trkpt><trkpt lat="43.0983517" lon="12.0118817"><ele>289.0</ele><time>2026-05-02T12:15:59.786Z</time></trkpt><trkpt lat="43.098295" lon="12.0118033"><ele>289.0</ele><time>2026-05-02T12:16:00.786Z</time></trkpt><trkpt lat="43.098235" lon="12.0117017"><ele>289.0</ele><time>2026-05-02T12:16:01.787Z</time></trkpt><trkpt lat="43.0981783" lon="12.0115817"><ele>289.0</ele><time>2026-05-02T12:16:02.787Z</time></trkpt><trkpt lat="43.0981283" lon="12.0114433"><ele>289.0</ele><time>2026-05-02T12:16:03.787Z</time></trkpt><trkpt lat="43.0980883" lon="12.0112883"><ele>289.0</ele><time>2026-05-02T12:16:04.788Z</time></trkpt><trkpt lat="43.0980533" lon="12.011105"><ele>289.0</ele><time>2026-05-02T12:16:05.786Z</time></trkpt><trkpt lat="43.0980167" lon="12.0108983"><ele>291.0</ele><time>2026-05-02T12:16:06.787Z</time></trkpt><trkpt lat="43.097975" lon="12.010675"><ele>293.0</ele><time>2026-05-02T12:16:07.786Z</time></trkpt><trkpt lat="43.097935" lon="12.0104483"><ele>295.0</ele><time>2026-05-02T12:16:08.787Z</time></trkpt><trkpt lat="43.0978967" lon="12.0102283"><ele>295.0</ele><time>2026-05-02T12:16:09.789Z</time></trkpt><trkpt lat="43.0978717" lon="12.0100267"><ele>295.0</ele><time>2026-05-02T12:16:10.79Z</time></trkpt><trkpt lat="43.0978483" lon="12.009825"><ele>295.0</ele><time>2026-05-02T12:16:11.788Z</time></trkpt><trkpt lat="43.0978233" lon="12.0096183"><ele>297.66666666666663</ele><time>2026-05-02T12:16:12.789Z</time></trkpt><trkpt lat="43.0977917" lon="12.009415"><ele>300.3333333333333</ele><time>2026-05-02T12:16:13.789Z</time></trkpt><trkpt lat="43.0977533" lon="12.0092117"><ele>303.0</ele><time>2026-05-02T12:16:14.789Z</time></trkpt><trkpt lat="43.0977117" lon="12.0090117"><ele>304.25</ele><time>2026-05-02T12:16:15.789Z</time></trkpt><trkpt lat="43.09767" lon="12.0088167"><ele>305.5</ele><time>2026-05-02T12:16:16.786Z</time></trkpt><trkpt lat="43.09763" lon="12.008625"><ele>306.75</ele><time>2026-05-02T12:16:17.787Z</time></trkpt><trkpt lat="43.097595" lon="12.008445"><ele>308.0</ele><time>2026-05-02T12:16:18.786Z</time></trkpt><trkpt lat="43.0975617" lon="12.0082783"><ele>308.75</ele><time>2026-05-02T12:16:19.786Z</time></trkpt><trkpt lat="43.0975283" lon="12.0081117"><ele>309.5</ele><time>2026-05-02T12:16:20.785Z</time></trkpt><trkpt lat="43.0974933" lon="12.0079417"><ele>310.25</ele><time>2026-05-02T12:16:21.786Z</time></trkpt><trkpt lat="43.0974583" lon="12.00777"><ele>311.0</ele><time>2026-05-02T12:16:22.786Z</time></trkpt><trkpt lat="43.09743" lon="12.0076067"><ele>312.0</ele><time>2026-05-02T12:16:23.786Z</time></trkpt><trkpt lat="43.0974083" lon="12.0074617"><ele>313.0</ele><time>2026-05-02T12:16:24.789Z</time></trkpt><trkpt lat="43.097385" lon="12.0073333"><ele>314.0</ele><time>2026-05-02T12:16:25.789Z</time></trkpt><trkpt lat="43.0973633" lon="12.0072117"><ele>315.0</ele><time>2026-05-02T12:16:26.789Z</time></trkpt><trkpt lat="43.0973433" lon="12.0070883"><ele>316.0</ele><time>2026-05-02T12:16:27.789Z</time></trkpt><trkpt lat="43.0973217" lon="12.006965"><ele>316.0</ele><time>2026-05-02T12:16:28.789Z</time></trkpt><trkpt lat="43.0972983" lon="12.006845"><ele>316.0</ele><time>2026-05-02T12:16:29.79Z</time></trkpt><trkpt lat="43.0972767" lon="12.0067267"><ele>316.0</ele><time>2026-05-02T12:16:30.787Z</time></trkpt><trkpt lat="43.0972567" lon="12.0066167"><ele>316.0</ele><time>2026-05-02T12:16:31.788Z</time></trkpt><trkpt lat="43.0972317" lon="12.0065033"><ele>316.0</ele><time>2026-05-02T12:16:32.786Z</time></trkpt><trkpt lat="43.0972017" lon="12.006385"><ele>316.0</ele><time>2026-05-02T12:16:33.785Z</time></trkpt><trkpt lat="43.09718" lon="12.00627"><ele>316.3333333333333</ele><time>2026-05-02T12:16:34.789Z</time></trkpt><trkpt lat="43.0971517" lon="12.0061533"><ele>316.66666666666663</ele><time>2026-05-02T12:16:35.789Z</time></trkpt><trkpt lat="43.0971233" lon="12.0060367"><ele>317.0</ele><time>2026-05-02T12:16:36.789Z</time></trkpt><trkpt lat="43.0971017" lon="12.0059333"><ele>317.3333333333333</ele><time>2026-05-02T12:16:37.785Z</time></trkpt><trkpt lat="43.097075" lon="12.005835"><ele>317.6666666666667</ele><time>2026-05-02T12:16:38.79Z</time></trkpt><trkpt lat="43.0970533" lon="12.0057433"><ele>318.0</ele><time>2026-05-02T12:16:39.786Z</time></trkpt><trkpt lat="43.0970417" lon="12.0055933"><ele>317.3333333333333</ele><time>2026-05-02T12:16:41.789Z</time></trkpt><trkpt lat="43.09704" lon="12.00548"><ele>316.6666666666667</ele><time>2026-05-02T12:16:44.787Z</time></trkpt><trkpt lat="43.09699" lon="12.00534"><ele>316.0</ele><time>2026-05-02T12:16:47.785Z</time></trkpt><trkpt lat="43.0969567" lon="12.0052583"><ele>315.33333333333337</ele><time>2026-05-02T12:16:48.786Z</time></trkpt><trkpt lat="43.09692" lon="12.005175"><ele>314.6666666666667</ele><time>2026-05-02T12:16:49.785Z</time></trkpt><trkpt lat="43.0968783" lon="12.0050967"><ele>314.0</ele><time>2026-05-02T12:16:50.786Z</time></trkpt><trkpt lat="43.0968283" lon="12.0050183"><ele>312.5</ele><time>2026-05-02T12:16:51.786Z</time></trkpt><trkpt lat="43.096765" lon="12.0049333"><ele>311.0</ele><time>2026-05-02T12:16:52.786Z</time></trkpt><trkpt lat="43.096695" lon="12.0048433"><ele>309.5</ele><time>2026-05-02T12:16:53.786Z</time></trkpt><trkpt lat="43.096625" lon="12.0047567"><ele>308.0</ele><time>2026-05-02T12:16:54.789Z</time></trkpt><trkpt lat="43.0965633" lon="12.00468"><ele>306.5</ele><time>2026-05-02T12:16:55.789Z</time></trkpt><trkpt lat="43.0965117" lon="12.0046217"><ele>305.0</ele><time>2026-05-02T12:16:56.79Z</time></trkpt><trkpt lat="43.0964317" lon="12.0045533"><ele>304.0</ele><time>2026-05-02T12:16:58.789Z</time></trkpt><trkpt lat="43.09634" lon="12.00454"><ele>303.0</ele><time>2026-05-02T12:17:00.79Z</time></trkpt><trkpt lat="43.0962733" lon="12.0045617"><ele>302.0</ele><time>2026-05-02T12:17:01.79Z</time></trkpt><trkpt lat="43.09619" lon="12.004605"><ele>301.0</ele><time>2026-05-02T12:17:02.789Z</time></trkpt><trkpt lat="43.0961" lon="12.00466"><ele>300.0</ele><time>2026-05-02T12:17:03.788Z</time></trkpt><trkpt lat="43.0960133" lon="12.004715"><ele>299.0</ele><time>2026-05-02T12:17:04.789Z</time></trkpt><trkpt lat="43.0959333" lon="12.0047667"><ele>299.0</ele><time>2026-05-02T12:17:05.789Z</time></trkpt><trkpt lat="43.0958683" lon="12.004805"><ele>299.0</ele><time>2026-05-02T12:17:06.79Z</time></trkpt><trkpt lat="43.09579" lon="12.00485"><ele>299.0</ele><time>2026-05-02T12:17:08.79Z</time></trkpt><trkpt lat="43.0957083" lon="12.0048733"><ele>299.0</ele><time>2026-05-02T12:17:11.786Z</time></trkpt><trkpt lat="43.095635" lon="12.004825"><ele>299.0</ele><time>2026-05-02T12:17:14.789Z</time></trkpt><trkpt lat="43.0955383" lon="12.0047483"><ele>299.0</ele><time>2026-05-02T12:17:16.789Z</time></trkpt><trkpt lat="43.0954383" lon="12.00467"><ele>297.1666666666667</ele><time>2026-05-02T12:17:18.789Z</time></trkpt><trkpt lat="43.0953817" lon="12.0046283"><ele>295.33333333333337</ele><time>2026-05-02T12:17:19.788Z</time></trkpt><trkpt lat="43.0953183" lon="12.0045783"><ele>293.5</ele><time>2026-05-02T12:17:20.787Z</time></trkpt><trkpt lat="43.0952533" lon="12.0045233"><ele>291.6666666666667</ele><time>2026-05-02T12:17:21.786Z</time></trkpt><trkpt lat="43.095185" lon="12.0044667"><ele>289.8333333333333</ele><time>2026-05-02T12:17:22.786Z</time></trkpt><trkpt lat="43.0951117" lon="12.0044083"><ele>288.0</ele><time>2026-05-02T12:17:23.786Z</time></trkpt><trkpt lat="43.0950367" lon="12.0043483"><ele>288.0</ele><time>2026-05-02T12:17:24.789Z</time></trkpt><trkpt lat="43.0949583" lon="12.0042883"><ele>288.0</ele><time>2026-05-02T12:17:25.79Z</time></trkpt><trkpt lat="43.0948733" lon="12.0042283"><ele>288.0</ele><time>2026-05-02T12:17:26.789Z</time></trkpt><trkpt lat="43.094785" lon="12.0041633"><ele>288.0</ele><time>2026-05-02T12:17:27.789Z</time></trkpt><trkpt lat="43.094695" lon="12.0040967"><ele>288.0</ele><time>2026-05-02T12:17:28.789Z</time></trkpt><trkpt lat="43.094605" lon="12.0040317"><ele>287.0</ele><time>2026-05-02T12:17:29.789Z</time></trkpt><trkpt lat="43.094515" lon="12.0039667"><ele>286.0</ele><time>2026-05-02T12:17:30.789Z</time></trkpt><trkpt lat="43.0944267" lon="12.0039"><ele>285.0</ele><time>2026-05-02T12:17:31.789Z</time></trkpt><trkpt lat="43.094345" lon="12.0038383"><ele>284.0</ele><time>2026-05-02T12:17:32.789Z</time></trkpt><trkpt lat="43.09427" lon="12.0037817"><ele>283.0</ele><time>2026-05-02T12:17:33.786Z</time></trkpt><trkpt lat="43.0942067" lon="12.0037317"><ele>283.0</ele><time>2026-05-02T12:17:34.788Z</time></trkpt><trkpt lat="43.09415" lon="12.0036883"><ele>283.0</ele><time>2026-05-02T12:17:35.786Z</time></trkpt><trkpt lat="43.09404" lon="12.0035983"><ele>283.0</ele><time>2026-05-02T12:17:37.789Z</time></trkpt><trkpt lat="43.0939717" lon="12.0035417"><ele>283.0</ele><time>2026-05-02T12:17:38.786Z</time></trkpt><trkpt lat="43.093895" lon="12.003475"><ele>283.0</ele><time>2026-05-02T12:17:39.787Z</time></trkpt><trkpt lat="43.09381" lon="12.003405"><ele>284.4</ele><time>2026-05-02T12:17:40.787Z</time></trkpt><trkpt lat="43.09372" lon="12.00333"><ele>285.8</ele><time>2026-05-02T12:17:41.786Z</time></trkpt><trkpt lat="43.093635" lon="12.003255"><ele>287.2</ele><time>2026-05-02T12:17:42.786Z</time></trkpt><trkpt lat="43.093555" lon="12.003185"><ele>288.6</ele><time>2026-05-02T12:17:43.787Z</time></trkpt><trkpt lat="43.093475" lon="12.0031133"><ele>290.0</ele><time>2026-05-02T12:17:44.786Z</time></trkpt><trkpt lat="43.0933933" lon="12.0030417"><ele>290.0</ele><time>2026-05-02T12:17:45.786Z</time></trkpt><trkpt lat="43.0933083" lon="12.0029683"><ele>290.0</ele><time>2026-05-02T12:17:46.786Z</time></trkpt><trkpt lat="43.0932267" lon="12.0029017"><ele>290.0</ele><time>2026-05-02T12:17:47.787Z</time></trkpt><trkpt lat="43.0931567" lon="12.0028467"><ele>290.0</ele><time>2026-05-02T12:17:48.787Z</time></trkpt><trkpt lat="43.0930533" lon="12.002775"><ele>290.0</ele><time>2026-05-02T12:17:50.786Z</time></trkpt><trkpt lat="43.09297" lon="12.0027233"><ele>290.6666666666667</ele><time>2026-05-02T12:17:52.79Z</time></trkpt><trkpt lat="43.0928967" lon="12.00268"><ele>291.33333333333337</ele><time>2026-05-02T12:17:54.789Z</time></trkpt><trkpt lat="43.0928183" lon="12.0026"><ele>292.0</ele><time>2026-05-02T12:17:57.79Z</time></trkpt><trkpt lat="43.0927667" lon="12.0025333"><ele>292.6666666666667</ele><time>2026-05-02T12:17:59.789Z</time></trkpt><trkpt lat="43.0927083" lon="12.0024917"><ele>293.3333333333333</ele><time>2026-05-02T12:18:02.787Z</time></trkpt><trkpt lat="43.092635" lon="12.002425"><ele>294.0</ele><time>2026-05-02T12:18:05.786Z</time></trkpt><trkpt lat="43.0925633" lon="12.0023583"><ele>294.8333333333333</ele><time>2026-05-02T12:18:08.787Z</time></trkpt><trkpt lat="43.0925033" lon="12.002305"><ele>295.6666666666667</ele><time>2026-05-02T12:18:11.786Z</time></trkpt><trkpt lat="43.0924433" lon="12.0022517"><ele>296.5</ele><time>2026-05-02T12:18:13.787Z</time></trkpt><trkpt lat="43.0923833" lon="12.0021967"><ele>297.33333333333337</ele><time>2026-05-02T12:18:15.787Z</time></trkpt><trkpt lat="43.0923117" lon="12.0021383"><ele>298.1666666666667</ele><time>2026-05-02T12:18:18.788Z</time></trkpt><trkpt lat="43.09224" lon="12.002075"><ele>299.0</ele><time>2026-05-02T12:18:22.787Z</time></trkpt><trkpt lat="43.0921667" lon="12.00201"><ele>299.0</ele><time>2026-05-02T12:18:25.788Z</time></trkpt><trkpt lat="43.092115" lon="12.0019583"><ele>299.0</ele><time>2026-05-02T12:18:27.785Z</time></trkpt><trkpt lat="43.0920383" lon="12.001905"><ele>299.0</ele><time>2026-05-02T12:18:30.789Z</time></trkpt><trkpt lat="43.0919583" lon="12.0018633"><ele>299.0</ele><time>2026-05-02T12:18:33.789Z</time></trkpt><trkpt lat="43.09188" lon="12.0018317"><ele>299.0</ele><time>2026-05-02T12:18:36.788Z</time></trkpt><trkpt lat="43.0918117" lon="12.0018083"><ele>299.0</ele><time>2026-05-02T12:18:39.789Z</time></trkpt><trkpt lat="43.09173" lon="12.001795"><ele>299.0</ele><time>2026-05-02T12:18:42.789Z</time></trkpt><trkpt lat="43.0916567" lon="12.00178"><ele>299.0</ele><time>2026-05-02T12:18:45.79Z</time></trkpt><trkpt lat="43.0915883" lon="12.001745"><ele>299.0</ele><time>2026-05-02T12:18:48.785Z</time></trkpt><trkpt lat="43.0915117" lon="12.00171"><ele>299.0</ele><time>2026-05-02T12:18:50.79Z</time></trkpt><trkpt lat="43.091395" lon="12.0016733"><ele>299.0</ele><time>2026-05-02T12:18:52.789Z</time></trkpt><trkpt lat="43.09133" lon="12.001645"><ele>299.0</ele><time>2026-05-02T12:18:53.788Z</time></trkpt><trkpt lat="43.0912667" lon="12.0016167"><ele>298.8</ele><time>2026-05-02T12:18:54.787Z</time></trkpt><trkpt lat="43.0911517" lon="12.001565"><ele>298.59999999999997</ele><time>2026-05-02T12:18:56.789Z</time></trkpt><trkpt lat="43.0910433" lon="12.0015817"><ele>298.4</ele><time>2026-05-02T12:18:58.789Z</time></trkpt><trkpt lat="43.0909833" lon="12.0016317"><ele>298.2</ele><time>2026-05-02T12:18:59.789Z</time></trkpt><trkpt lat="43.0909167" lon="12.0017067"><ele>298.0</ele><time>2026-05-02T12:19:00.789Z</time></trkpt><trkpt lat="43.090845" lon="12.001805"><ele>296.6</ele><time>2026-05-02T12:19:01.788Z</time></trkpt><trkpt lat="43.090775" lon="12.001905"><ele>295.20000000000005</ele><time>2026-05-02T12:19:02.789Z</time></trkpt><trkpt lat="43.0907083" lon="12.0019983"><ele>293.8</ele><time>2026-05-02T12:19:03.787Z</time></trkpt><trkpt lat="43.0906433" lon="12.0020883"><ele>292.40000000000003</ele><time>2026-05-02T12:19:04.789Z</time></trkpt><trkpt lat="43.0905817" lon="12.0021717"><ele>291.0</ele><time>2026-05-02T12:19:05.787Z</time></trkpt><trkpt lat="43.0905267" lon="12.0022533"><ele>290.6666666666667</ele><time>2026-05-02T12:19:06.789Z</time></trkpt><trkpt lat="43.090475" lon="12.002335"><ele>290.3333333333333</ele><time>2026-05-02T12:19:07.789Z</time></trkpt><trkpt lat="43.0904233" lon="12.002415"><ele>290.0</ele><time>2026-05-02T12:19:08.785Z</time></trkpt><trkpt lat="43.0903733" lon="12.0024817"><ele>289.66666666666663</ele><time>2026-05-02T12:19:09.786Z</time></trkpt><trkpt lat="43.0903067" lon="12.0025533"><ele>289.3333333333333</ele><time>2026-05-02T12:19:11.786Z</time></trkpt><trkpt lat="43.0901983" lon="12.0025717"><ele>289.0</ele><time>2026-05-02T12:19:22.785Z</time></trkpt><trkpt lat="43.0901283" lon="12.002565"><ele>289.8</ele><time>2026-05-02T12:19:23.786Z</time></trkpt><trkpt lat="43.090035" lon="12.00254"><ele>290.59999999999997</ele><time>2026-05-02T12:19:24.789Z</time></trkpt><trkpt lat="43.0899417" lon="12.0025167"><ele>291.4</ele><time>2026-05-02T12:19:25.789Z</time></trkpt><trkpt lat="43.0898283" lon="12.0024933"><ele>292.2</ele><time>2026-05-02T12:19:26.789Z</time></trkpt><trkpt lat="43.0897117" lon="12.002475"><ele>293.0</ele><time>2026-05-02T12:19:27.789Z</time></trkpt><trkpt lat="43.0895917" lon="12.002455"><ele>293.0</ele><time>2026-05-02T12:19:28.789Z</time></trkpt><trkpt lat="43.0894767" lon="12.0024267"><ele>293.0</ele><time>2026-05-02T12:19:29.789Z</time></trkpt><trkpt lat="43.08936" lon="12.0024"><ele>293.0</ele><time>2026-05-02T12:19:30.789Z</time></trkpt><trkpt lat="43.089245" lon="12.0023767"><ele>293.0</ele><time>2026-05-02T12:19:31.789Z</time></trkpt><trkpt lat="43.08913" lon="12.0023667"><ele>293.5</ele><time>2026-05-02T12:19:32.789Z</time></trkpt><trkpt lat="43.0890167" lon="12.0023633"><ele>294.0</ele><time>2026-05-02T12:19:33.785Z</time></trkpt><trkpt lat="43.0889033" lon="12.00236"><ele>294.5</ele><time>2026-05-02T12:19:34.786Z</time></trkpt><trkpt lat="43.08879" lon="12.002365"><ele>295.0</ele><time>2026-05-02T12:19:35.786Z</time></trkpt><trkpt lat="43.0886717" lon="12.0023783"><ele>295.0</ele><time>2026-05-02T12:19:36.789Z</time></trkpt><trkpt lat="43.0885533" lon="12.00239"><ele>295.0</ele><time>2026-05-02T12:19:37.79Z</time></trkpt><trkpt lat="43.0884367" lon="12.002405"><ele>295.0</ele><time>2026-05-02T12:19:38.785Z</time></trkpt><trkpt lat="43.0883183" lon="12.0024233"><ele>295.0</ele><time>2026-05-02T12:19:39.785Z</time></trkpt><trkpt lat="43.0881917" lon="12.0024433"><ele>296.5</ele><time>2026-05-02T12:19:40.788Z</time></trkpt><trkpt lat="43.08806" lon="12.002465"><ele>298.0</ele><time>2026-05-02T12:19:41.786Z</time></trkpt><trkpt lat="43.0879267" lon="12.0024867"><ele>299.5</ele><time>2026-05-02T12:19:42.786Z</time></trkpt><trkpt lat="43.087795" lon="12.0025083"><ele>301.0</ele><time>2026-05-02T12:19:43.786Z</time></trkpt><trkpt lat="43.087665" lon="12.0025333"><ele>302.75</ele><time>2026-05-02T12:19:44.786Z</time></trkpt><trkpt lat="43.087535" lon="12.0025583"><ele>304.5</ele><time>2026-05-02T12:19:45.787Z</time></trkpt><trkpt lat="43.0874033" lon="12.0025833"><ele>306.25</ele><time>2026-05-02T12:19:46.786Z</time></trkpt><trkpt lat="43.0872767" lon="12.0026033"><ele>308.0</ele><time>2026-05-02T12:19:47.786Z</time></trkpt><trkpt lat="43.08716" lon="12.0026133"><ele>307.6</ele><time>2026-05-02T12:19:48.787Z</time></trkpt><trkpt lat="43.0870583" lon="12.002615"><ele>307.20000000000005</ele><time>2026-05-02T12:19:49.786Z</time></trkpt><trkpt lat="43.0869633" lon="12.0026017"><ele>306.8</ele><time>2026-05-02T12:19:50.786Z</time></trkpt><trkpt lat="43.0868667" lon="12.0025733"><ele>306.40000000000003</ele><time>2026-05-02T12:19:51.786Z</time></trkpt><trkpt lat="43.0867633" lon="12.002535"><ele>306.0</ele><time>2026-05-02T12:19:52.787Z</time></trkpt><trkpt lat="43.0866467" lon="12.002495"><ele>306.75</ele><time>2026-05-02T12:19:53.786Z</time></trkpt><trkpt lat="43.086525" lon="12.00245"><ele>307.5</ele><time>2026-05-02T12:19:54.791Z</time></trkpt><trkpt lat="43.0863967" lon="12.0024033"><ele>308.25</ele><time>2026-05-02T12:19:55.787Z</time></trkpt><trkpt lat="43.0862667" lon="12.0023583"><ele>309.0</ele><time>2026-05-02T12:19:56.787Z</time></trkpt><trkpt lat="43.08614" lon="12.0023183"><ele>309.0</ele><time>2026-05-02T12:19:57.787Z</time></trkpt><trkpt lat="43.086025" lon="12.0022817"><ele>309.0</ele><time>2026-05-02T12:19:58.789Z</time></trkpt><trkpt lat="43.0859133" lon="12.00225"><ele>309.0</ele><time>2026-05-02T12:19:59.79Z</time></trkpt><trkpt lat="43.0857967" lon="12.00223"><ele>309.0</ele><time>2026-05-02T12:20:00.787Z</time></trkpt><trkpt lat="43.08568" lon="12.00223"><ele>310.75</ele><time>2026-05-02T12:20:01.788Z</time></trkpt><trkpt lat="43.0855617" lon="12.0022467"><ele>312.5</ele><time>2026-05-02T12:20:02.789Z</time></trkpt><trkpt lat="43.0854433" lon="12.002275"><ele>314.25</ele><time>2026-05-02T12:20:03.787Z</time></trkpt><trkpt lat="43.0853217" lon="12.0023033"><ele>316.0</ele><time>2026-05-02T12:20:04.789Z</time></trkpt><trkpt lat="43.085195" lon="12.0023217"><ele>316.0</ele><time>2026-05-02T12:20:05.788Z</time></trkpt><trkpt lat="43.0850633" lon="12.0023417"><ele>316.0</ele><time>2026-05-02T12:20:06.788Z</time></trkpt><trkpt lat="43.08493" lon="12.0023617"><ele>316.0</ele><time>2026-05-02T12:20:07.788Z</time></trkpt><trkpt lat="43.0847983" lon="12.002385"><ele>316.0</ele><time>2026-05-02T12:20:08.789Z</time></trkpt><trkpt lat="43.084665" lon="12.0024033"><ele>318.25</ele><time>2026-05-02T12:20:09.789Z</time></trkpt><trkpt lat="43.0845367" lon="12.00242"><ele>320.5</ele><time>2026-05-02T12:20:10.788Z</time></trkpt><trkpt lat="43.0844133" lon="12.00244"><ele>322.75</ele><time>2026-05-02T12:20:11.788Z</time></trkpt><trkpt lat="43.0842933" lon="12.0024567"><ele>325.0</ele><time>2026-05-02T12:20:12.787Z</time></trkpt><trkpt lat="43.08417" lon="12.002475"><ele>326.2</ele><time>2026-05-02T12:20:13.788Z</time></trkpt><trkpt lat="43.0840567" lon="12.0024933"><ele>327.4</ele><time>2026-05-02T12:20:14.788Z</time></trkpt><trkpt lat="43.08396" lon="12.00251"><ele>328.6</ele><time>2026-05-02T12:20:15.788Z</time></trkpt><trkpt lat="43.0838717" lon="12.002525"><ele>329.8</ele><time>2026-05-02T12:20:16.787Z</time></trkpt><trkpt lat="43.0837983" lon="12.0025367"><ele>331.0</ele><time>2026-05-02T12:20:17.788Z</time></trkpt><trkpt lat="43.0836883" lon="12.0025567"><ele>331.3333333333333</ele><time>2026-05-02T12:20:19.787Z</time></trkpt><trkpt lat="43.0836117" lon="12.002585"><ele>331.66666666666663</ele><time>2026-05-02T12:20:21.789Z</time></trkpt><trkpt lat="43.0835483" lon="12.0026067"><ele>332.0</ele><time>2026-05-02T12:20:24.79Z</time></trkpt><trkpt lat="43.0834933" lon="12.00271"><ele>332.3333333333333</ele><time>2026-05-02T12:20:27.786Z</time></trkpt><trkpt lat="43.083485" lon="12.0028817"><ele>332.6666666666667</ele><time>2026-05-02T12:20:29.786Z</time></trkpt><trkpt lat="43.0834783" lon="12.002995"><ele>333.0</ele><time>2026-05-02T12:20:30.788Z</time></trkpt><trkpt lat="43.0834633" lon="12.003125"><ele>333.0</ele><time>2026-05-02T12:20:31.786Z</time></trkpt><trkpt lat="43.0834367" lon="12.003275"><ele>333.0</ele><time>2026-05-02T12:20:32.786Z</time></trkpt><trkpt lat="43.083395" lon="12.0034333"><ele>333.0</ele><time>2026-05-02T12:20:33.792Z</time></trkpt><trkpt lat="43.0833417" lon="12.00359"><ele>333.0</ele><time>2026-05-02T12:20:34.789Z</time></trkpt><trkpt lat="43.0832933" lon="12.0037567"><ele>332.79999999999995</ele><time>2026-05-02T12:20:35.79Z</time></trkpt><trkpt lat="43.083255" lon="12.00392"><ele>332.6</ele><time>2026-05-02T12:20:36.79Z</time></trkpt><trkpt lat="43.0832367" lon="12.0040767"><ele>332.4</ele><time>2026-05-02T12:20:37.79Z</time></trkpt><trkpt lat="43.083235" lon="12.0042233"><ele>332.20000000000005</ele><time>2026-05-02T12:20:38.79Z</time></trkpt><trkpt lat="43.08324" lon="12.004355"><ele>332.0</ele><time>2026-05-02T12:20:39.786Z</time></trkpt><trkpt lat="43.0832367" lon="12.0044583"><ele>332.0</ele><time>2026-05-02T12:20:40.787Z</time></trkpt><trkpt lat="43.083195" lon="12.0046067"><ele>332.0</ele><time>2026-05-02T12:20:42.789Z</time></trkpt><trkpt lat="43.0831517" lon="12.0046767"><ele>332.0</ele><time>2026-05-02T12:20:43.787Z</time></trkpt><trkpt lat="43.0831017" lon="12.0047517"><ele>332.0</ele><time>2026-05-02T12:20:44.787Z</time></trkpt><trkpt lat="43.0830467" lon="12.0048317"><ele>332.0</ele><time>2026-05-02T12:20:45.788Z</time></trkpt><trkpt lat="43.0829867" lon="12.0049133"><ele>332.0</ele><time>2026-05-02T12:20:46.787Z</time></trkpt><trkpt lat="43.08293" lon="12.0050017"><ele>332.33333333333337</ele><time>2026-05-02T12:20:47.79Z</time></trkpt><trkpt lat="43.0828817" lon="12.0050883"><ele>332.6666666666667</ele><time>2026-05-02T12:20:48.789Z</time></trkpt><trkpt lat="43.08283" lon="12.0051683"><ele>333.0</ele><time>2026-05-02T12:20:49.786Z</time></trkpt><trkpt lat="43.08277" lon="12.0052383"><ele>333.3333333333333</ele><time>2026-05-02T12:20:50.787Z</time></trkpt><trkpt lat="43.0827017" lon="12.005305"><ele>333.66666666666663</ele><time>2026-05-02T12:20:51.789Z</time></trkpt><trkpt lat="43.0826267" lon="12.0053783"><ele>334.0</ele><time>2026-05-02T12:20:52.79Z</time></trkpt><trkpt lat="43.08255" lon="12.0054733"><ele>334.0</ele><time>2026-05-02T12:20:53.789Z</time></trkpt><trkpt lat="43.0824833" lon="12.0055817"><ele>334.0</ele><time>2026-05-02T12:20:54.791Z</time></trkpt><trkpt lat="43.08242" lon="12.00569"><ele>334.0</ele><time>2026-05-02T12:20:55.79Z</time></trkpt><trkpt lat="43.0823567" lon="12.0057917"><ele>334.0</ele><time>2026-05-02T12:20:56.787Z</time></trkpt><trkpt lat="43.0823033" lon="12.005895"><ele>334.0</ele><time>2026-05-02T12:20:57.787Z</time></trkpt><trkpt lat="43.0822483" lon="12.0059883"><ele>331.8333333333333</ele><time>2026-05-02T12:20:58.786Z</time></trkpt><trkpt lat="43.0821967" lon="12.00608"><ele>329.66666666666663</ele><time>2026-05-02T12:20:59.788Z</time></trkpt><trkpt lat="43.082145" lon="12.0061667"><ele>327.5</ele><time>2026-05-02T12:21:00.785Z</time></trkpt><trkpt lat="43.0821017" lon="12.0062433"><ele>325.3333333333333</ele><time>2026-05-02T12:21:01.785Z</time></trkpt><trkpt lat="43.0820483" lon="12.0063383"><ele>323.1666666666667</ele><time>2026-05-02T12:21:03.786Z</time></trkpt><trkpt lat="43.0819917" lon="12.006425"><ele>321.0</ele><time>2026-05-02T12:21:10.785Z</time></trkpt><trkpt lat="43.081925" lon="12.00652"><ele>321.0</ele><time>2026-05-02T12:21:12.786Z</time></trkpt><trkpt lat="43.081815" lon="12.0065733"><ele>321.0</ele><time>2026-05-02T12:21:14.786Z</time></trkpt><trkpt lat="43.0817517" lon="12.0065867"><ele>321.0</ele><time>2026-05-02T12:21:15.787Z</time></trkpt><trkpt lat="43.0816367" lon="12.00659"><ele>321.0</ele><time>2026-05-02T12:21:17.786Z</time></trkpt><trkpt lat="43.0815517" lon="12.00655"><ele>321.0</ele><time>2026-05-02T12:21:19.785Z</time></trkpt><trkpt lat="43.0815033" lon="12.0064683"><ele>317.8</ele><time>2026-05-02T12:21:21.787Z</time></trkpt><trkpt lat="43.08147" lon="12.0063367"><ele>314.6</ele><time>2026-05-02T12:21:23.788Z</time></trkpt><trkpt lat="43.08146" lon="12.006195"><ele>311.4</ele><time>2026-05-02T12:21:25.786Z</time></trkpt><trkpt lat="43.0814533" lon="12.0060767"><ele>308.2</ele><time>2026-05-02T12:21:27.788Z</time></trkpt><trkpt lat="43.081455" lon="12.0059617"><ele>305.0</ele><time>2026-05-02T12:21:29.79Z</time></trkpt><trkpt lat="43.0814583" lon="12.005845"><ele>305.0</ele><time>2026-05-02T12:21:31.789Z</time></trkpt><trkpt lat="43.0814517" lon="12.0057317"><ele>305.0</ele><time>2026-05-02T12:21:34.788Z</time></trkpt><trkpt lat="43.081435" lon="12.005845"><ele>305.0</ele><time>2026-05-02T12:21:43.789Z</time></trkpt><trkpt lat="43.0814433" lon="12.0059983"><ele>305.0</ele><time>2026-05-02T12:21:45.785Z</time></trkpt><trkpt lat="43.0814517" lon="12.0060967"><ele>305.0</ele><time>2026-05-02T12:21:46.789Z</time></trkpt><trkpt lat="43.0814633" lon="12.0062067"><ele>305.0</ele><time>2026-05-02T12:21:47.789Z</time></trkpt><trkpt lat="43.0814783" lon="12.0063233"><ele>305.0</ele><time>2026-05-02T12:21:48.789Z</time></trkpt><trkpt lat="43.0814883" lon="12.0064383"><ele>305.0</ele><time>2026-05-02T12:21:49.785Z</time></trkpt><trkpt lat="43.0815017" lon="12.0065367"><ele>305.0</ele><time>2026-05-02T12:21:50.79Z</time></trkpt><trkpt lat="43.0815867" lon="12.00664"><ele>305.0</ele><time>2026-05-02T12:21:52.789Z</time></trkpt><trkpt lat="43.081675" lon="12.006635"><ele>305.0</ele><time>2026-05-02T12:21:53.789Z</time></trkpt><trkpt lat="43.0817583" lon="12.006625"><ele>305.0</ele><time>2026-05-02T12:21:54.79Z</time></trkpt><trkpt lat="43.0818667" lon="12.00657"><ele>308.2</ele><time>2026-05-02T12:21:55.789Z</time></trkpt><trkpt lat="43.08196" lon="12.0064983"><ele>311.4</ele><time>2026-05-02T12:21:56.786Z</time></trkpt><trkpt lat="43.0820417" lon="12.0064017"><ele>314.6</ele><time>2026-05-02T12:21:57.785Z</time></trkpt><trkpt lat="43.0821117" lon="12.0062967"><ele>317.8</ele><time>2026-05-02T12:21:58.79Z</time></trkpt><trkpt lat="43.0821833" lon="12.0061717"><ele>321.0</ele><time>2026-05-02T12:21:59.789Z</time></trkpt><trkpt lat="43.0822633" lon="12.00604"><ele>321.0</ele><time>2026-05-02T12:22:00.789Z</time></trkpt><trkpt lat="43.0823417" lon="12.0059017"><ele>321.0</ele><time>2026-05-02T12:22:01.79Z</time></trkpt><trkpt lat="43.08241" lon="12.00577"><ele>321.0</ele><time>2026-05-02T12:22:02.789Z</time></trkpt><trkpt lat="43.0824833" lon="12.0056433"><ele>321.0</ele><time>2026-05-02T12:22:03.789Z</time></trkpt><trkpt lat="43.0825567" lon="12.0055217"><ele>324.25</ele><time>2026-05-02T12:22:04.79Z</time></trkpt><trkpt lat="43.08263" lon="12.0054183"><ele>327.5</ele><time>2026-05-02T12:22:05.789Z</time></trkpt><trkpt lat="43.0827717" lon="12.0052567"><ele>330.75</ele><time>2026-05-02T12:22:07.789Z</time></trkpt><trkpt lat="43.082845" lon="12.0051667"><ele>334.0</ele><time>2026-05-02T12:22:08.79Z</time></trkpt><trkpt lat="43.08291" lon="12.0050583"><ele>333.6</ele><time>2026-05-02T12:22:09.789Z</time></trkpt><trkpt lat="43.0829717" lon="12.00495"><ele>333.2</ele><time>2026-05-02T12:22:10.789Z</time></trkpt><trkpt lat="43.083035" lon="12.004845"><ele>332.8</ele><time>2026-05-02T12:22:11.789Z</time></trkpt><trkpt lat="43.0831017" lon="12.0047367"><ele>332.40000000000003</ele><time>2026-05-02T12:22:12.789Z</time></trkpt><trkpt lat="43.083155" lon="12.004645"><ele>332.0</ele><time>2026-05-02T12:22:13.79Z</time></trkpt><trkpt lat="43.083195" lon="12.0045783"><ele>332.0</ele><time>2026-05-02T12:22:14.79Z</time></trkpt><trkpt lat="43.0832367" lon="12.004505"><ele>332.0</ele><time>2026-05-02T12:22:16.79Z</time></trkpt><trkpt lat="43.08326" lon="12.0044017"><ele>332.0</ele><time>2026-05-02T12:22:18.791Z</time></trkpt><trkpt lat="43.083265" lon="12.0042933"><ele>332.0</ele><time>2026-05-02T12:22:19.786Z</time></trkpt><trkpt lat="43.08327" lon="12.0041467"><ele>332.0</ele><time>2026-05-02T12:22:20.789Z</time></trkpt><trkpt lat="43.0832867" lon="12.003975"><ele>332.25</ele><time>2026-05-02T12:22:21.789Z</time></trkpt><trkpt lat="43.0833167" lon="12.0038017"><ele>332.5</ele><time>2026-05-02T12:22:22.789Z</time></trkpt><trkpt lat="43.0833683" lon="12.0036233"><ele>332.75</ele><time>2026-05-02T12:22:23.789Z</time></trkpt><trkpt lat="43.08343" lon="12.0034367"><ele>333.0</ele><time>2026-05-02T12:22:24.789Z</time></trkpt><trkpt lat="43.0834833" lon="12.0032433"><ele>333.0</ele><time>2026-05-02T12:22:25.789Z</time></trkpt><trkpt lat="43.0835183" lon="12.003035"><ele>333.0</ele><time>2026-05-02T12:22:26.786Z</time></trkpt><trkpt lat="43.0835317" lon="12.002815"><ele>333.0</ele><time>2026-05-02T12:22:27.787Z</time></trkpt><trkpt lat="43.0835317" lon="12.0025933"><ele>332.3333333333333</ele><time>2026-05-02T12:22:28.788Z</time></trkpt><trkpt lat="43.0835233" lon="12.002365"><ele>331.66666666666663</ele><time>2026-05-02T12:22:29.786Z</time></trkpt><trkpt lat="43.083505" lon="12.0021317"><ele>331.0</ele><time>2026-05-02T12:22:30.787Z</time></trkpt><trkpt lat="43.0834667" lon="12.0019067"><ele>331.0</ele><time>2026-05-02T12:22:31.785Z</time></trkpt><trkpt lat="43.0832533" lon="12.0012817"><ele>331.0</ele><time>2026-05-02T12:22:34.787Z</time></trkpt><trkpt lat="43.083195" lon="12.001085"><ele>331.0</ele><time>2026-05-02T12:22:35.789Z</time></trkpt><trkpt lat="43.083165" lon="12.000875"><ele>331.0</ele><time>2026-05-02T12:22:36.789Z</time></trkpt><trkpt lat="43.083165" lon="12.0006517"><ele>332.0</ele><time>2026-05-02T12:22:37.786Z</time></trkpt><trkpt lat="43.083185" lon="12.00042"><ele>333.0</ele><time>2026-05-02T12:22:38.79Z</time></trkpt><trkpt lat="43.08321" lon="12.0001717"><ele>334.0</ele><time>2026-05-02T12:22:39.787Z</time></trkpt><trkpt lat="43.0832333" lon="11.999915"><ele>334.0</ele><time>2026-05-02T12:22:40.786Z</time></trkpt><trkpt lat="43.083255" lon="11.9996533"><ele>334.0</ele><time>2026-05-02T12:22:41.786Z</time></trkpt><trkpt lat="43.083275" lon="11.9993867"><ele>334.0</ele><time>2026-05-02T12:22:42.787Z</time></trkpt><trkpt lat="43.083295" lon="11.99913"><ele>334.0</ele><time>2026-05-02T12:22:43.79Z</time></trkpt><trkpt lat="43.0833183" lon="11.998895"><ele>334.0</ele><time>2026-05-02T12:22:44.79Z</time></trkpt><trkpt lat="43.0833533" lon="11.998675"><ele>334.0</ele><time>2026-05-02T12:22:45.789Z</time></trkpt><trkpt lat="43.08341" lon="11.9984667"><ele>335.66666666666663</ele><time>2026-05-02T12:22:46.79Z</time></trkpt><trkpt lat="43.0834917" lon="11.9982533"><ele>337.3333333333333</ele><time>2026-05-02T12:22:47.79Z</time></trkpt><trkpt lat="43.0835867" lon="11.998035"><ele>339.0</ele><time>2026-05-02T12:22:48.789Z</time></trkpt><trkpt lat="43.0836867" lon="11.9978083"><ele>339.0</ele><time>2026-05-02T12:22:49.787Z</time></trkpt><trkpt lat="43.0837883" lon="11.997575"><ele>339.0</ele><time>2026-05-02T12:22:50.789Z</time></trkpt><trkpt lat="43.0838883" lon="11.9973317"><ele>339.0</ele><time>2026-05-02T12:22:51.789Z</time></trkpt><trkpt lat="43.0839883" lon="11.9970933"><ele>339.0</ele><time>2026-05-02T12:22:52.787Z</time></trkpt><trkpt lat="43.0840867" lon="11.9968583"><ele>339.0</ele><time>2026-05-02T12:22:53.79Z</time></trkpt><trkpt lat="43.084185" lon="11.9966317"><ele>339.0</ele><time>2026-05-02T12:22:54.789Z</time></trkpt><trkpt lat="43.0842833" lon="11.9964067"><ele>339.0</ele><time>2026-05-02T12:22:55.79Z</time></trkpt><trkpt lat="43.0843817" lon="11.996185"><ele>339.0</ele><time>2026-05-02T12:22:56.79Z</time></trkpt><trkpt lat="43.084485" lon="11.9959633"><ele>339.0</ele><time>2026-05-02T12:22:57.79Z</time></trkpt><trkpt lat="43.0845967" lon="11.995755"><ele>339.3333333333333</ele><time>2026-05-02T12:22:58.789Z</time></trkpt><trkpt lat="43.084715" lon="11.9955517"><ele>339.66666666666663</ele><time>2026-05-02T12:22:59.789Z</time></trkpt><trkpt lat="43.0848367" lon="11.9953483"><ele>340.0</ele><time>2026-05-02T12:23:00.788Z</time></trkpt><trkpt lat="43.084955" lon="11.9951433"><ele>341.3333333333333</ele><time>2026-05-02T12:23:01.787Z</time></trkpt><trkpt lat="43.0850733" lon="11.9949367"><ele>342.6666666666667</ele><time>2026-05-02T12:23:02.789Z</time></trkpt><trkpt lat="43.0851917" lon="11.9947167"><ele>344.0</ele><time>2026-05-02T12:23:03.789Z</time></trkpt><trkpt lat="43.085305" lon="11.99449"><ele>344.0</ele><time>2026-05-02T12:23:04.79Z</time></trkpt><trkpt lat="43.0854133" lon="11.99426"><ele>344.0</ele><time>2026-05-02T12:23:05.789Z</time></trkpt><trkpt lat="43.0855117" lon="11.9940383"><ele>344.0</ele><time>2026-05-02T12:23:06.79Z</time></trkpt><trkpt lat="43.085605" lon="11.9938183"><ele>344.0</ele><time>2026-05-02T12:23:07.789Z</time></trkpt><trkpt lat="43.0856983" lon="11.9935983"><ele>344.0</ele><time>2026-05-02T12:23:08.789Z</time></trkpt><trkpt lat="43.0857983" lon="11.9933733"><ele>344.0</ele><time>2026-05-02T12:23:09.79Z</time></trkpt><trkpt lat="43.0859" lon="11.9931417"><ele>344.0</ele><time>2026-05-02T12:23:10.786Z</time></trkpt><trkpt lat="43.0860083" lon="11.9929033"><ele>344.0</ele><time>2026-05-02T12:23:11.786Z</time></trkpt><trkpt lat="43.0861183" lon="11.99266"><ele>344.0</ele><time>2026-05-02T12:23:12.787Z</time></trkpt><trkpt lat="43.0862233" lon="11.992415"><ele>343.0</ele><time>2026-05-02T12:23:13.786Z</time></trkpt><trkpt lat="43.0863267" lon="11.9921683"><ele>342.0</ele><time>2026-05-02T12:23:14.789Z</time></trkpt><trkpt lat="43.0864317" lon="11.991925"><ele>341.0</ele><time>2026-05-02T12:23:15.79Z</time></trkpt><trkpt lat="43.0865317" lon="11.99168"><ele>341.0</ele><time>2026-05-02T12:23:16.788Z</time></trkpt><trkpt lat="43.0866317" lon="11.9914317"><ele>341.0</ele><time>2026-05-02T12:23:17.786Z</time></trkpt><trkpt lat="43.0867267" lon="11.991185"><ele>341.0</ele><time>2026-05-02T12:23:18.79Z</time></trkpt><trkpt lat="43.0868133" lon="11.99093"><ele>339.6666666666667</ele><time>2026-05-02T12:23:19.789Z</time></trkpt><trkpt lat="43.0868917" lon="11.99067"><ele>338.3333333333333</ele><time>2026-05-02T12:23:20.789Z</time></trkpt><trkpt lat="43.086955" lon="11.9904033"><ele>337.0</ele><time>2026-05-02T12:23:21.789Z</time></trkpt><trkpt lat="43.087005" lon="11.990135"><ele>336.3333333333333</ele><time>2026-05-02T12:23:22.787Z</time></trkpt><trkpt lat="43.0870417" lon="11.989875"><ele>335.6666666666667</ele><time>2026-05-02T12:23:23.786Z</time></trkpt><trkpt lat="43.0870667" lon="11.9896183"><ele>335.0</ele><time>2026-05-02T12:23:24.79Z</time></trkpt><trkpt lat="43.0870783" lon="11.9893733"><ele>335.33333333333337</ele><time>2026-05-02T12:23:25.789Z</time></trkpt><trkpt lat="43.0870767" lon="11.98912"><ele>335.6666666666667</ele><time>2026-05-02T12:23:26.787Z</time></trkpt><trkpt lat="43.087065" lon="11.988865"><ele>336.0</ele><time>2026-05-02T12:23:27.787Z</time></trkpt><trkpt lat="43.08705" lon="11.9886033"><ele>335.3333333333333</ele><time>2026-05-02T12:23:28.786Z</time></trkpt><trkpt lat="43.087035" lon="11.9883333"><ele>334.66666666666663</ele><time>2026-05-02T12:23:29.786Z</time></trkpt><trkpt lat="43.08702" lon="11.988055"><ele>334.0</ele><time>2026-05-02T12:23:30.786Z</time></trkpt><trkpt lat="43.0870033" lon="11.9877633"><ele>333.0</ele><time>2026-05-02T12:23:31.786Z</time></trkpt><trkpt lat="43.0869867" lon="11.98746"><ele>332.0</ele><time>2026-05-02T12:23:32.786Z</time></trkpt><trkpt lat="43.0869667" lon="11.9871467"><ele>332.0</ele><time>2026-05-02T12:23:33.786Z</time></trkpt><trkpt lat="43.0869467" lon="11.9868233"><ele>332.0</ele><time>2026-05-02T12:23:34.786Z</time></trkpt><trkpt lat="43.0869233" lon="11.9864917"><ele>332.0</ele><time>2026-05-02T12:23:35.786Z</time></trkpt><trkpt lat="43.0869" lon="11.9861517"><ele>332.0</ele><time>2026-05-02T12:23:36.787Z</time></trkpt><trkpt lat="43.0868767" lon="11.9858067"><ele>332.5</ele><time>2026-05-02T12:23:37.787Z</time></trkpt><trkpt lat="43.086855" lon="11.9854633"><ele>333.0</ele><time>2026-05-02T12:23:38.79Z</time></trkpt><trkpt lat="43.0868333" lon="11.985135"><ele>334.6666666666667</ele><time>2026-05-02T12:23:39.787Z</time></trkpt><trkpt lat="43.0868133" lon="11.9848317"><ele>336.33333333333337</ele><time>2026-05-02T12:23:40.79Z</time></trkpt><trkpt lat="43.0867933" lon="11.9845433"><ele>338.0</ele><time>2026-05-02T12:23:41.793Z</time></trkpt><trkpt lat="43.0867667" lon="11.98427"><ele>339.0</ele><time>2026-05-02T12:23:42.787Z</time></trkpt><trkpt lat="43.086735" lon="11.984"><ele>340.0</ele><time>2026-05-02T12:23:43.788Z</time></trkpt><trkpt lat="43.0866967" lon="11.983735"><ele>341.0</ele><time>2026-05-02T12:23:44.787Z</time></trkpt><trkpt lat="43.0866567" lon="11.98347"><ele>341.0</ele><time>2026-05-02T12:23:45.787Z</time></trkpt><trkpt lat="43.0866183" lon="11.9832083"><ele>341.0</ele><time>2026-05-02T12:23:46.787Z</time></trkpt><trkpt lat="43.0865783" lon="11.98295"><ele>341.0</ele><time>2026-05-02T12:23:47.789Z</time></trkpt><trkpt lat="43.0865383" lon="11.98269"><ele>342.33333333333337</ele><time>2026-05-02T12:23:48.788Z</time></trkpt><trkpt lat="43.0864983" lon="11.9824367"><ele>343.6666666666667</ele><time>2026-05-02T12:23:49.79Z</time></trkpt><trkpt lat="43.0864617" lon="11.9821883"><ele>345.0</ele><time>2026-05-02T12:23:50.791Z</time></trkpt><trkpt lat="43.0864217" lon="11.9819383"><ele>345.0</ele><time>2026-05-02T12:23:51.789Z</time></trkpt><trkpt lat="43.0863767" lon="11.98169"><ele>345.0</ele><time>2026-05-02T12:23:52.789Z</time></trkpt><trkpt lat="43.0863333" lon="11.9814433"><ele>345.0</ele><time>2026-05-02T12:23:53.786Z</time></trkpt><trkpt lat="43.0862917" lon="11.9812"><ele>346.6666666666667</ele><time>2026-05-02T12:23:54.789Z</time></trkpt><trkpt lat="43.08625" lon="11.9809617"><ele>348.33333333333337</ele><time>2026-05-02T12:23:55.788Z</time></trkpt><trkpt lat="43.08621" lon="11.9807283"><ele>350.0</ele><time>2026-05-02T12:23:56.789Z</time></trkpt><trkpt lat="43.0861667" lon="11.980495"><ele>352.33333333333337</ele><time>2026-05-02T12:23:57.787Z</time></trkpt><trkpt lat="43.0861283" lon="11.9802667"><ele>354.6666666666667</ele><time>2026-05-02T12:23:58.789Z</time></trkpt><trkpt lat="43.0860933" lon="11.9800383"><ele>357.0</ele><time>2026-05-02T12:23:59.788Z</time></trkpt><trkpt lat="43.0860617" lon="11.9798167"><ele>358.25</ele><time>2026-05-02T12:24:00.79Z</time></trkpt><trkpt lat="43.0860317" lon="11.97961"><ele>359.5</ele><time>2026-05-02T12:24:01.788Z</time></trkpt><trkpt lat="43.0859983" lon="11.979415"><ele>360.75</ele><time>2026-05-02T12:24:02.789Z</time></trkpt><trkpt lat="43.0859633" lon="11.9792283"><ele>362.0</ele><time>2026-05-02T12:24:03.786Z</time></trkpt><trkpt lat="43.0859233" lon="11.9790483"><ele>362.0</ele><time>2026-05-02T12:24:04.785Z</time></trkpt><trkpt lat="43.0858733" lon="11.97887"><ele>362.0</ele><time>2026-05-02T12:24:05.788Z</time></trkpt><trkpt lat="43.0858" lon="11.97869"><ele>362.0</ele><time>2026-05-02T12:24:06.789Z</time></trkpt><trkpt lat="43.0857033" lon="11.9785033"><ele>362.6666666666667</ele><time>2026-05-02T12:24:07.788Z</time></trkpt><trkpt lat="43.0855917" lon="11.97831"><ele>363.3333333333333</ele><time>2026-05-02T12:24:08.787Z</time></trkpt><trkpt lat="43.0854717" lon="11.9781017"><ele>364.0</ele><time>2026-05-02T12:24:09.785Z</time></trkpt><trkpt lat="43.08535" lon="11.9778883"><ele>364.0</ele><time>2026-05-02T12:24:10.787Z</time></trkpt><trkpt lat="43.0852283" lon="11.9776683"><ele>364.0</ele><time>2026-05-02T12:24:11.787Z</time></trkpt><trkpt lat="43.08511" lon="11.97745"><ele>364.0</ele><time>2026-05-02T12:24:12.786Z</time></trkpt><trkpt lat="43.0849983" lon="11.9772417"><ele>364.0</ele><time>2026-05-02T12:24:13.785Z</time></trkpt><trkpt lat="43.0848983" lon="11.9770383"><ele>364.0</ele><time>2026-05-02T12:24:14.785Z</time></trkpt><trkpt lat="43.0848033" lon="11.97684"><ele>364.0</ele><time>2026-05-02T12:24:15.786Z</time></trkpt><trkpt lat="43.0847117" lon="11.9766483"><ele>361.3333333333333</ele><time>2026-05-02T12:24:16.786Z</time></trkpt><trkpt lat="43.0846217" lon="11.9764667"><ele>358.6666666666667</ele><time>2026-05-02T12:24:17.786Z</time></trkpt><trkpt lat="43.0845367" lon="11.976295"><ele>356.0</ele><time>2026-05-02T12:24:18.785Z</time></trkpt><trkpt lat="43.0844583" lon="11.9761333"><ele>356.0</ele><time>2026-05-02T12:24:19.785Z</time></trkpt><trkpt lat="43.0843917" lon="11.9759883"><ele>356.0</ele><time>2026-05-02T12:24:20.786Z</time></trkpt><trkpt lat="43.084335" lon="11.9758633"><ele>356.0</ele><time>2026-05-02T12:24:21.787Z</time></trkpt><trkpt lat="43.0842883" lon="11.9757617"><ele>356.0</ele><time>2026-05-02T12:24:22.785Z</time></trkpt><trkpt lat="43.084255" lon="11.9756867"><ele>356.0</ele><time>2026-05-02T12:24:23.787Z</time></trkpt><trkpt lat="43.084185" lon="11.9756383"><ele>354.0</ele><time>2026-05-02T12:24:37.787Z</time></trkpt><trkpt lat="43.0840833" lon="11.9756917"><ele>352.0</ele><time>2026-05-02T12:24:40.788Z</time></trkpt><trkpt lat="43.0840283" lon="11.9757667"><ele>350.0</ele><time>2026-05-02T12:24:41.788Z</time></trkpt><trkpt lat="43.0839733" lon="11.975865"><ele>348.0</ele><time>2026-05-02T12:24:42.79Z</time></trkpt><trkpt lat="43.08391" lon="11.97598"><ele>346.0</ele><time>2026-05-02T12:24:43.79Z</time></trkpt><trkpt lat="43.08384" lon="11.9761"><ele>346.0</ele><time>2026-05-02T12:24:44.79Z</time></trkpt><trkpt lat="43.0837667" lon="11.976225"><ele>346.0</ele><time>2026-05-02T12:24:45.79Z</time></trkpt><trkpt lat="43.083685" lon="11.9763567"><ele>346.0</ele><time>2026-05-02T12:24:46.79Z</time></trkpt><trkpt lat="43.0835983" lon="11.9765033"><ele>346.0</ele><time>2026-05-02T12:24:47.789Z</time></trkpt><trkpt lat="43.0835133" lon="11.9766567"><ele>346.0</ele><time>2026-05-02T12:24:48.79Z</time></trkpt><trkpt lat="43.08342" lon="11.97682"><ele>346.0</ele><time>2026-05-02T12:24:49.786Z</time></trkpt><trkpt lat="43.0833217" lon="11.97699"><ele>346.0</ele><time>2026-05-02T12:24:50.787Z</time></trkpt><trkpt lat="43.08322" lon="11.9771617"><ele>346.0</ele><time>2026-05-02T12:24:51.788Z</time></trkpt><trkpt lat="43.0831183" lon="11.9773233"><ele>346.0</ele><time>2026-05-02T12:24:52.786Z</time></trkpt><trkpt lat="43.0830167" lon="11.9774733"><ele>346.0</ele><time>2026-05-02T12:24:53.786Z</time></trkpt><trkpt lat="43.0829017" lon="11.9775917"><ele>346.0</ele><time>2026-05-02T12:24:54.789Z</time></trkpt><trkpt lat="43.0827567" lon="11.9776783"><ele>349.66666666666663</ele><time>2026-05-02T12:24:55.789Z</time></trkpt><trkpt lat="43.0825883" lon="11.9777383"><ele>353.3333333333333</ele><time>2026-05-02T12:24:56.786Z</time></trkpt><trkpt lat="43.0824083" lon="11.9777933"><ele>357.0</ele><time>2026-05-02T12:24:57.79Z</time></trkpt><trkpt lat="43.0822217" lon="11.9778467"><ele>357.0</ele><time>2026-05-02T12:24:58.789Z</time></trkpt><trkpt lat="43.0820333" lon="11.9779033"><ele>357.0</ele><time>2026-05-02T12:24:59.788Z</time></trkpt><trkpt lat="43.08184" lon="11.9779583"><ele>357.0</ele><time>2026-05-02T12:25:00.789Z</time></trkpt><trkpt lat="43.0816383" lon="11.9780117"><ele>356.6666666666667</ele><time>2026-05-02T12:25:01.789Z</time></trkpt><trkpt lat="43.0814267" lon="11.9780533"><ele>356.33333333333337</ele><time>2026-05-02T12:25:02.786Z</time></trkpt><trkpt lat="43.0812117" lon="11.978085"><ele>356.0</ele><time>2026-05-02T12:25:03.789Z</time></trkpt><trkpt lat="43.0810083" lon="11.9781117"><ele>356.0</ele><time>2026-05-02T12:25:04.79Z</time></trkpt><trkpt lat="43.08081" lon="11.97814"><ele>356.0</ele><time>2026-05-02T12:25:05.786Z</time></trkpt><trkpt lat="43.08062" lon="11.9781633"><ele>356.0</ele><time>2026-05-02T12:25:06.786Z</time></trkpt><trkpt lat="43.0804367" lon="11.97818"><ele>356.33333333333337</ele><time>2026-05-02T12:25:07.788Z</time></trkpt><trkpt lat="43.0802533" lon="11.9781783"><ele>356.6666666666667</ele><time>2026-05-02T12:25:08.786Z</time></trkpt><trkpt lat="43.0800683" lon="11.978155"><ele>357.0</ele><time>2026-05-02T12:25:09.787Z</time></trkpt><trkpt lat="43.079875" lon="11.97811"><ele>358.3333333333333</ele><time>2026-05-02T12:25:10.786Z</time></trkpt><trkpt lat="43.0796733" lon="11.97805"><ele>359.66666666666663</ele><time>2026-05-02T12:25:11.786Z</time></trkpt><trkpt lat="43.0794667" lon="11.9779883"><ele>361.0</ele><time>2026-05-02T12:25:12.786Z</time></trkpt><trkpt lat="43.0792583" lon="11.9779267"><ele>362.0</ele><time>2026-05-02T12:25:13.786Z</time></trkpt><trkpt lat="43.0790567" lon="11.9778683"><ele>363.0</ele><time>2026-05-02T12:25:14.786Z</time></trkpt><trkpt lat="43.07887" lon="11.977805"><ele>364.0</ele><time>2026-05-02T12:25:15.787Z</time></trkpt><trkpt lat="43.0786967" lon="11.97772"><ele>364.0</ele><time>2026-05-02T12:25:16.787Z</time></trkpt><trkpt lat="43.0785317" lon="11.9776033"><ele>364.0</ele><time>2026-05-02T12:25:17.786Z</time></trkpt><trkpt lat="43.0783817" lon="11.97745"><ele>364.0</ele><time>2026-05-02T12:25:18.788Z</time></trkpt><trkpt lat="43.0782417" lon="11.97728"><ele>365.66666666666663</ele><time>2026-05-02T12:25:19.786Z</time></trkpt><trkpt lat="43.0780967" lon="11.9771183"><ele>367.3333333333333</ele><time>2026-05-02T12:25:20.788Z</time></trkpt><trkpt lat="43.07794" lon="11.9769767"><ele>369.0</ele><time>2026-05-02T12:25:21.786Z</time></trkpt><trkpt lat="43.077775" lon="11.9768433"><ele>369.0</ele><time>2026-05-02T12:25:22.786Z</time></trkpt><trkpt lat="43.0776083" lon="11.976715"><ele>369.0</ele><time>2026-05-02T12:25:23.788Z</time></trkpt><trkpt lat="43.0774483" lon="11.97659"><ele>369.0</ele><time>2026-05-02T12:25:24.787Z</time></trkpt><trkpt lat="43.0773" lon="11.97647"><ele>367.6666666666667</ele><time>2026-05-02T12:25:25.786Z</time></trkpt><trkpt lat="43.0771533" lon="11.976355"><ele>366.33333333333337</ele><time>2026-05-02T12:25:26.79Z</time></trkpt><trkpt lat="43.0769867" lon="11.9762483"><ele>365.0</ele><time>2026-05-02T12:25:27.787Z</time></trkpt><trkpt lat="43.0768" lon="11.9761567"><ele>361.6666666666667</ele><time>2026-05-02T12:25:28.79Z</time></trkpt><trkpt lat="43.0766" lon="11.9760717"><ele>358.3333333333333</ele><time>2026-05-02T12:25:29.789Z</time></trkpt><trkpt lat="43.0763933" lon="11.9759833"><ele>355.0</ele><time>2026-05-02T12:25:30.789Z</time></trkpt><trkpt lat="43.0761883" lon="11.9758883"><ele>355.66666666666663</ele><time>2026-05-02T12:25:31.787Z</time></trkpt><trkpt lat="43.0759867" lon="11.9758"><ele>356.3333333333333</ele><time>2026-05-02T12:25:32.788Z</time></trkpt><trkpt lat="43.0757933" lon="11.9757183"><ele>357.0</ele><time>2026-05-02T12:25:33.789Z</time></trkpt><trkpt lat="43.0756067" lon="11.9756417"><ele>355.3333333333333</ele><time>2026-05-02T12:25:34.788Z</time></trkpt><trkpt lat="43.0754267" lon="11.9755633"><ele>353.66666666666663</ele><time>2026-05-02T12:25:35.789Z</time></trkpt><trkpt lat="43.075255" lon="11.9754917"><ele>352.0</ele><time>2026-05-02T12:25:36.788Z</time></trkpt><trkpt lat="43.0750817" lon="11.9754383"><ele>353.0</ele><time>2026-05-02T12:25:37.788Z</time></trkpt><trkpt lat="43.0749167" lon="11.9754317"><ele>354.0</ele><time>2026-05-02T12:25:38.79Z</time></trkpt><trkpt lat="43.07476" lon="11.9754867"><ele>355.0</ele><time>2026-05-02T12:25:39.789Z</time></trkpt><trkpt lat="43.0746117" lon="11.9756167"><ele>355.0</ele><time>2026-05-02T12:25:40.789Z</time></trkpt><trkpt lat="43.0744633" lon="11.975805"><ele>355.0</ele><time>2026-05-02T12:25:41.79Z</time></trkpt><trkpt lat="43.0743117" lon="11.97602"><ele>355.0</ele><time>2026-05-02T12:25:42.789Z</time></trkpt><trkpt lat="43.07415" lon="11.976245"><ele>353.0</ele><time>2026-05-02T12:25:43.79Z</time></trkpt><trkpt lat="43.0739833" lon="11.97647"><ele>351.0</ele><time>2026-05-02T12:25:44.789Z</time></trkpt><trkpt lat="43.0738183" lon="11.976695"><ele>348.0</ele><time>2026-05-02T12:25:45.789Z</time></trkpt><trkpt lat="43.0736533" lon="11.9769167"><ele>345.0</ele><time>2026-05-02T12:25:46.789Z</time></trkpt><trkpt lat="43.073495" lon="11.9771333"><ele>345.0</ele><time>2026-05-02T12:25:47.79Z</time></trkpt><trkpt lat="43.0733417" lon="11.9773383"><ele>345.0</ele><time>2026-05-02T12:25:48.789Z</time></trkpt><trkpt lat="43.07319" lon="11.9775467"><ele>345.0</ele><time>2026-05-02T12:25:49.79Z</time></trkpt><trkpt lat="43.0730383" lon="11.97775"><ele>343.6666666666667</ele><time>2026-05-02T12:25:50.788Z</time></trkpt><trkpt lat="43.072895" lon="11.9779433"><ele>342.33333333333337</ele><time>2026-05-02T12:25:51.789Z</time></trkpt><trkpt lat="43.07276" lon="11.9781267"><ele>341.0</ele><time>2026-05-02T12:25:52.786Z</time></trkpt><trkpt lat="43.0726317" lon="11.9782967"><ele>339.0</ele><time>2026-05-02T12:25:53.787Z</time></trkpt><trkpt lat="43.0725083" lon="11.9784483"><ele>337.0</ele><time>2026-05-02T12:25:54.789Z</time></trkpt><trkpt lat="43.0723817" lon="11.9785783"><ele>335.0</ele><time>2026-05-02T12:25:55.787Z</time></trkpt><trkpt lat="43.07224" lon="11.9786833"><ele>335.0</ele><time>2026-05-02T12:25:56.789Z</time></trkpt><trkpt lat="43.0720833" lon="11.978765"><ele>335.0</ele><time>2026-05-02T12:25:57.786Z</time></trkpt><trkpt lat="43.0719183" lon="11.9788417"><ele>335.0</ele><time>2026-05-02T12:25:58.786Z</time></trkpt><trkpt lat="43.0717467" lon="11.9789233"><ele>334.6666666666667</ele><time>2026-05-02T12:25:59.786Z</time></trkpt><trkpt lat="43.0715717" lon="11.9790067"><ele>334.3333333333333</ele><time>2026-05-02T12:26:00.785Z</time></trkpt><trkpt lat="43.0714017" lon="11.9790917"><ele>334.0</ele><time>2026-05-02T12:26:01.786Z</time></trkpt><trkpt lat="43.07124" lon="11.97917"><ele>333.5</ele><time>2026-05-02T12:26:02.787Z</time></trkpt><trkpt lat="43.07109" lon="11.9792433"><ele>333.0</ele><time>2026-05-02T12:26:03.787Z</time></trkpt><trkpt lat="43.0709533" lon="11.97931"><ele>332.5</ele><time>2026-05-02T12:26:04.786Z</time></trkpt><trkpt lat="43.0708367" lon="11.9793767"><ele>332.0</ele><time>2026-05-02T12:26:05.788Z</time></trkpt><trkpt lat="43.070745" lon="11.9794483"><ele>332.0</ele><time>2026-05-02T12:26:06.787Z</time></trkpt><trkpt lat="43.070675" lon="11.9795217"><ele>332.0</ele><time>2026-05-02T12:26:07.786Z</time></trkpt><trkpt lat="43.0706233" lon="11.9796067"><ele>332.0</ele><time>2026-05-02T12:26:08.786Z</time></trkpt><trkpt lat="43.0705933" lon="11.97971"><ele>332.0</ele><time>2026-05-02T12:26:09.786Z</time></trkpt><trkpt lat="43.070575" lon="11.9798383"><ele>332.0</ele><time>2026-05-02T12:26:10.789Z</time></trkpt><trkpt lat="43.070575" lon="11.9800017"><ele>333.0</ele><time>2026-05-02T12:26:11.789Z</time></trkpt><trkpt lat="43.070585" lon="11.98019"><ele>334.0</ele><time>2026-05-02T12:26:12.789Z</time></trkpt><trkpt lat="43.070605" lon="11.9803983"><ele>335.0</ele><time>2026-05-02T12:26:13.791Z</time></trkpt><trkpt lat="43.0706283" lon="11.9806217"><ele>334.0</ele><time>2026-05-02T12:26:14.792Z</time></trkpt><trkpt lat="43.07065" lon="11.9808533"><ele>333.0</ele><time>2026-05-02T12:26:15.79Z</time></trkpt><trkpt lat="43.070675" lon="11.9810933"><ele>332.0</ele><time>2026-05-02T12:26:16.79Z</time></trkpt><trkpt lat="43.0706967" lon="11.9813317"><ele>332.0</ele><time>2026-05-02T12:26:17.79Z</time></trkpt><trkpt lat="43.07071" lon="11.9815833"><ele>332.0</ele><time>2026-05-02T12:26:18.789Z</time></trkpt><trkpt lat="43.0707033" lon="11.98186"><ele>332.0</ele><time>2026-05-02T12:26:19.789Z</time></trkpt><trkpt lat="43.070675" lon="11.9821417"><ele>331.0</ele><time>2026-05-02T12:26:20.787Z</time></trkpt><trkpt lat="43.0706317" lon="11.98241"><ele>330.0</ele><time>2026-05-02T12:26:21.788Z</time></trkpt><trkpt lat="43.0705833" lon="11.9826767"><ele>329.0</ele><time>2026-05-02T12:26:22.79Z</time></trkpt><trkpt lat="43.0705333" lon="11.9829433"><ele>327.6666666666667</ele><time>2026-05-02T12:26:23.789Z</time></trkpt><trkpt lat="43.070485" lon="11.9832"><ele>326.3333333333333</ele><time>2026-05-02T12:26:24.789Z</time></trkpt><trkpt lat="43.0704417" lon="11.9834433"><ele>325.0</ele><time>2026-05-02T12:26:25.789Z</time></trkpt><trkpt lat="43.0704" lon="11.9836733"><ele>324.66666666666663</ele><time>2026-05-02T12:26:26.79Z</time></trkpt><trkpt lat="43.07036" lon="11.9838933"><ele>324.3333333333333</ele><time>2026-05-02T12:26:27.789Z</time></trkpt><trkpt lat="43.070325" lon="11.9841033"><ele>324.0</ele><time>2026-05-02T12:26:28.786Z</time></trkpt><trkpt lat="43.0702883" lon="11.9843067"><ele>324.6666666666667</ele><time>2026-05-02T12:26:29.788Z</time></trkpt><trkpt lat="43.0702517" lon="11.9845067"><ele>325.33333333333337</ele><time>2026-05-02T12:26:30.788Z</time></trkpt><trkpt lat="43.07021" lon="11.984715"><ele>326.0</ele><time>2026-05-02T12:26:31.787Z</time></trkpt><trkpt lat="43.0701583" lon="11.9849383"><ele>326.6666666666667</ele><time>2026-05-02T12:26:32.788Z</time></trkpt><trkpt lat="43.0700883" lon="11.9851817"><ele>327.3333333333333</ele><time>2026-05-02T12:26:33.79Z</time></trkpt><trkpt lat="43.07" lon="11.9854417"><ele>328.0</ele><time>2026-05-02T12:26:34.788Z</time></trkpt><trkpt lat="43.0699017" lon="11.98571"><ele>325.5</ele><time>2026-05-02T12:26:35.787Z</time></trkpt><trkpt lat="43.0697933" lon="11.9859867"><ele>323.0</ele><time>2026-05-02T12:26:36.788Z</time></trkpt><trkpt lat="43.0696817" lon="11.9862733"><ele>323.0</ele><time>2026-05-02T12:26:37.787Z</time></trkpt><trkpt lat="43.0695633" lon="11.9865733"><ele>323.0</ele><time>2026-05-02T12:26:38.788Z</time></trkpt><trkpt lat="43.0694383" lon="11.986885"><ele>323.0</ele><time>2026-05-02T12:26:39.789Z</time></trkpt><trkpt lat="43.069305" lon="11.98721"><ele>323.0</ele><time>2026-05-02T12:26:40.789Z</time></trkpt><trkpt lat="43.0691617" lon="11.987535"><ele>324.0</ele><time>2026-05-02T12:26:41.787Z</time></trkpt><trkpt lat="43.0690083" lon="11.9878517"><ele>325.0</ele><time>2026-05-02T12:26:42.787Z</time></trkpt><trkpt lat="43.0688417" lon="11.9881617"><ele>327.0</ele><time>2026-05-02T12:26:43.79Z</time></trkpt><trkpt lat="43.068665" lon="11.9884533"><ele>329.0</ele><time>2026-05-02T12:26:44.785Z</time></trkpt><trkpt lat="43.0684967" lon="11.9887283"><ele>329.0</ele><time>2026-05-02T12:26:45.788Z</time></trkpt><trkpt lat="43.0683367" lon="11.98899"><ele>329.0</ele><time>2026-05-02T12:26:46.789Z</time></trkpt><trkpt lat="43.0681917" lon="11.9892333"><ele>329.0</ele><time>2026-05-02T12:26:47.788Z</time></trkpt><trkpt lat="43.0680583" lon="11.9894633"><ele>329.0</ele><time>2026-05-02T12:26:48.789Z</time></trkpt><trkpt lat="43.0679383" lon="11.9896817"><ele>329.0</ele><time>2026-05-02T12:26:49.786Z</time></trkpt><trkpt lat="43.067835" lon="11.9898933"><ele>333.0</ele><time>2026-05-02T12:26:50.786Z</time></trkpt><trkpt lat="43.0677417" lon="11.9900933"><ele>337.0</ele><time>2026-05-02T12:26:51.786Z</time></trkpt><trkpt lat="43.067655" lon="11.9902783"><ele>341.0</ele><time>2026-05-02T12:26:52.786Z</time></trkpt><trkpt lat="43.0675717" lon="11.9904483"><ele>341.0</ele><time>2026-05-02T12:26:53.786Z</time></trkpt><trkpt lat="43.06748" lon="11.9906167"><ele>341.0</ele><time>2026-05-02T12:26:54.787Z</time></trkpt><trkpt lat="43.0673733" lon="11.99078"><ele>341.0</ele><time>2026-05-02T12:26:55.785Z</time></trkpt><trkpt lat="43.0672483" lon="11.9909367"><ele>342.6666666666667</ele><time>2026-05-02T12:26:56.785Z</time></trkpt><trkpt lat="43.0671083" lon="11.9910867"><ele>344.3333333333333</ele><time>2026-05-02T12:26:57.786Z</time></trkpt><trkpt lat="43.0669583" lon="11.9912317"><ele>346.0</ele><time>2026-05-02T12:26:58.785Z</time></trkpt><trkpt lat="43.0668083" lon="11.99138"><ele>346.0</ele><time>2026-05-02T12:26:59.786Z</time></trkpt><trkpt lat="43.066665" lon="11.9915217"><ele>346.0</ele><time>2026-05-02T12:27:00.786Z</time></trkpt><trkpt lat="43.0665317" lon="11.9916517"><ele>346.0</ele><time>2026-05-02T12:27:01.785Z</time></trkpt><trkpt lat="43.0664067" lon="11.9917767"><ele>344.5</ele><time>2026-05-02T12:27:02.785Z</time></trkpt><trkpt lat="43.066295" lon="11.9919"><ele>343.0</ele><time>2026-05-02T12:27:03.785Z</time></trkpt><trkpt lat="43.066195" lon="11.99203"><ele>341.5</ele><time>2026-05-02T12:27:04.785Z</time></trkpt><trkpt lat="43.06611" lon="11.9921683"><ele>340.0</ele><time>2026-05-02T12:27:05.786Z</time></trkpt><trkpt lat="43.0660383" lon="11.99232"><ele>340.0</ele><time>2026-05-02T12:27:06.785Z</time></trkpt><trkpt lat="43.0659733" lon="11.9924817"><ele>340.0</ele><time>2026-05-02T12:27:07.785Z</time></trkpt><trkpt lat="43.0659133" lon="11.992655"><ele>340.0</ele><time>2026-05-02T12:27:08.789Z</time></trkpt><trkpt lat="43.065855" lon="11.9928367"><ele>340.0</ele><time>2026-05-02T12:27:09.789Z</time></trkpt><trkpt lat="43.065795" lon="11.993015"><ele>340.25</ele><time>2026-05-02T12:27:10.788Z</time></trkpt><trkpt lat="43.0657383" lon="11.9931867"><ele>340.5</ele><time>2026-05-02T12:27:11.789Z</time></trkpt><trkpt lat="43.0656817" lon="11.99335"><ele>340.75</ele><time>2026-05-02T12:27:12.789Z</time></trkpt><trkpt lat="43.0656217" lon="11.9934933"><ele>341.0</ele><time>2026-05-02T12:27:13.789Z</time></trkpt><trkpt lat="43.065555" lon="11.99362"><ele>341.0</ele><time>2026-05-02T12:27:14.789Z</time></trkpt><trkpt lat="43.065475" lon="11.9937383"><ele>341.0</ele><time>2026-05-02T12:27:15.789Z</time></trkpt><trkpt lat="43.06538" lon="11.99386"><ele>341.0</ele><time>2026-05-02T12:27:16.789Z</time></trkpt><trkpt lat="43.0652633" lon="11.993995"><ele>341.0</ele><time>2026-05-02T12:27:17.79Z</time></trkpt><trkpt lat="43.065135" lon="11.99414"><ele>342.0</ele><time>2026-05-02T12:27:18.789Z</time></trkpt><trkpt lat="43.0649983" lon="11.9942967"><ele>343.0</ele><time>2026-05-02T12:27:19.789Z</time></trkpt><trkpt lat="43.0648633" lon="11.9944583"><ele>344.0</ele><time>2026-05-02T12:27:20.785Z</time></trkpt><trkpt lat="43.0647317" lon="11.9946233"><ele>344.6666666666667</ele><time>2026-05-02T12:27:21.789Z</time></trkpt><trkpt lat="43.0646033" lon="11.9947883"><ele>345.3333333333333</ele><time>2026-05-02T12:27:22.789Z</time></trkpt><trkpt lat="43.0644733" lon="11.9949517"><ele>346.0</ele><time>2026-05-02T12:27:23.788Z</time></trkpt><trkpt lat="43.0643417" lon="11.995095"><ele>346.0</ele><time>2026-05-02T12:27:24.789Z</time></trkpt><trkpt lat="43.0642033" lon="11.995205"><ele>346.0</ele><time>2026-05-02T12:27:25.789Z</time></trkpt><trkpt lat="43.0640467" lon="11.9952717"><ele>346.0</ele><time>2026-05-02T12:27:26.786Z</time></trkpt><trkpt lat="43.0638667" lon="11.995305"><ele>346.66666666666663</ele><time>2026-05-02T12:27:27.786Z</time></trkpt><trkpt lat="43.0636683" lon="11.9953133"><ele>347.3333333333333</ele><time>2026-05-02T12:27:28.787Z</time></trkpt><trkpt lat="43.0634617" lon="11.9953117"><ele>348.0</ele><time>2026-05-02T12:27:29.786Z</time></trkpt><trkpt lat="43.063255" lon="11.9953117"><ele>348.3333333333333</ele><time>2026-05-02T12:27:30.787Z</time></trkpt><trkpt lat="43.0630533" lon="11.995315"><ele>348.66666666666663</ele><time>2026-05-02T12:27:31.786Z</time></trkpt><trkpt lat="43.0628667" lon="11.995325"><ele>349.0</ele><time>2026-05-02T12:27:32.786Z</time></trkpt><trkpt lat="43.062695" lon="11.9953533"><ele>349.0</ele><time>2026-05-02T12:27:33.787Z</time></trkpt><trkpt lat="43.0625317" lon="11.9954183"><ele>349.0</ele><time>2026-05-02T12:27:34.789Z</time></trkpt><trkpt lat="43.0623683" lon="11.9955317"><ele>349.0</ele><time>2026-05-02T12:27:35.786Z</time></trkpt><trkpt lat="43.0622133" lon="11.9956767"><ele>350.0</ele><time>2026-05-02T12:27:36.789Z</time></trkpt><trkpt lat="43.062065" lon="11.99583"><ele>351.0</ele><time>2026-05-02T12:27:37.79Z</time></trkpt><trkpt lat="43.061925" lon="11.9959833"><ele>352.0</ele><time>2026-05-02T12:27:38.789Z</time></trkpt><trkpt lat="43.0617867" lon="11.996125"><ele>349.66666666666663</ele><time>2026-05-02T12:27:39.789Z</time></trkpt><trkpt lat="43.0616567" lon="11.9962683"><ele>347.3333333333333</ele><time>2026-05-02T12:27:40.789Z</time></trkpt><trkpt lat="43.0615333" lon="11.9964083"><ele>345.0</ele><time>2026-05-02T12:27:41.788Z</time></trkpt><trkpt lat="43.0614117" lon="11.996545"><ele>345.6666666666667</ele><time>2026-05-02T12:27:42.789Z</time></trkpt><trkpt lat="43.061295" lon="11.9966767"><ele>346.33333333333337</ele><time>2026-05-02T12:27:43.789Z</time></trkpt><trkpt lat="43.0611783" lon="11.9968067"><ele>347.0</ele><time>2026-05-02T12:27:44.789Z</time></trkpt><trkpt lat="43.061065" lon="11.9969467"><ele>347.0</ele><time>2026-05-02T12:27:45.789Z</time></trkpt><trkpt lat="43.0609567" lon="11.9970933"><ele>347.0</ele><time>2026-05-02T12:27:46.789Z</time></trkpt><trkpt lat="43.0608533" lon="11.9972483"><ele>347.0</ele><time>2026-05-02T12:27:47.789Z</time></trkpt><trkpt lat="43.0607617" lon="11.9974017"><ele>348.5</ele><time>2026-05-02T12:27:48.789Z</time></trkpt><trkpt lat="43.0606783" lon="11.9975467"><ele>350.0</ele><time>2026-05-02T12:27:49.79Z</time></trkpt><trkpt lat="43.0605967" lon="11.9976733"><ele>351.5</ele><time>2026-05-02T12:27:50.786Z</time></trkpt><trkpt lat="43.0605167" lon="11.9977833"><ele>353.0</ele><time>2026-05-02T12:27:51.79Z</time></trkpt><trkpt lat="43.060435" lon="11.9978817"><ele>353.0</ele><time>2026-05-02T12:27:52.789Z</time></trkpt><trkpt lat="43.0603683" lon="11.997965"><ele>353.0</ele><time>2026-05-02T12:27:53.788Z</time></trkpt><trkpt lat="43.06031" lon="11.9980233"><ele>353.0</ele><time>2026-05-02T12:27:54.79Z</time></trkpt><trkpt lat="43.06022" lon="11.99804"><ele>353.0</ele><time>2026-05-02T12:27:56.786Z</time></trkpt><trkpt lat="43.0601917" lon="11.9979467"><ele>353.0</ele><time>2026-05-02T12:27:58.786Z</time></trkpt><trkpt lat="43.0602183" lon="11.9978433"><ele>353.0</ele><time>2026-05-02T12:27:59.789Z</time></trkpt><trkpt lat="43.06025" lon="11.9977317"><ele>353.0</ele><time>2026-05-02T12:28:00.789Z</time></trkpt><trkpt lat="43.0602883" lon="11.997585"><ele>353.0</ele><time>2026-05-02T12:28:01.785Z</time></trkpt><trkpt lat="43.0603083" lon="11.9974167"><ele>353.0</ele><time>2026-05-02T12:28:02.786Z</time></trkpt><trkpt lat="43.0603267" lon="11.9972183"><ele>353.0</ele><time>2026-05-02T12:28:03.789Z</time></trkpt><trkpt lat="43.0603467" lon="11.9970017"><ele>349.0</ele><time>2026-05-02T12:28:04.789Z</time></trkpt><trkpt lat="43.0603633" lon="11.9967833"><ele>345.0</ele><time>2026-05-02T12:28:05.79Z</time></trkpt><trkpt lat="43.060385" lon="11.9965717"><ele>341.0</ele><time>2026-05-02T12:28:06.789Z</time></trkpt><trkpt lat="43.0604017" lon="11.9963633"><ele>338.75</ele><time>2026-05-02T12:28:07.785Z</time></trkpt><trkpt lat="43.060415" lon="11.9961583"><ele>336.5</ele><time>2026-05-02T12:28:08.786Z</time></trkpt><trkpt lat="43.0604267" lon="11.9959617"><ele>334.25</ele><time>2026-05-02T12:28:09.787Z</time></trkpt><trkpt lat="43.0604367" lon="11.995775"><ele>332.0</ele><time>2026-05-02T12:28:10.787Z</time></trkpt><trkpt lat="43.060445" lon="11.9955983"><ele>330.5</ele><time>2026-05-02T12:28:11.788Z</time></trkpt><trkpt lat="43.0604517" lon="11.9954267"><ele>329.0</ele><time>2026-05-02T12:28:12.787Z</time></trkpt><trkpt lat="43.06046" lon="11.99526"><ele>327.5</ele><time>2026-05-02T12:28:13.788Z</time></trkpt><trkpt lat="43.0604683" lon="11.9951117"><ele>326.0</ele><time>2026-05-02T12:28:14.787Z</time></trkpt><trkpt lat="43.06047" lon="11.9949767"><ele>325.25</ele><time>2026-05-02T12:28:15.788Z</time></trkpt><trkpt lat="43.0604583" lon="11.9948383"><ele>324.5</ele><time>2026-05-02T12:28:16.787Z</time></trkpt><trkpt lat="43.0604267" lon="11.9946933"><ele>323.75</ele><time>2026-05-02T12:28:17.786Z</time></trkpt><trkpt lat="43.0603833" lon="11.9945383"><ele>323.0</ele><time>2026-05-02T12:28:18.785Z</time></trkpt><trkpt lat="43.0603317" lon="11.9943767"><ele>323.0</ele><time>2026-05-02T12:28:19.787Z</time></trkpt><trkpt lat="43.0602783" lon="11.9942167"><ele>323.0</ele><time>2026-05-02T12:28:20.791Z</time></trkpt><trkpt lat="43.06023" lon="11.9940567"><ele>323.0</ele><time>2026-05-02T12:28:21.789Z</time></trkpt><trkpt lat="43.0601817" lon="11.993895"><ele>323.0</ele><time>2026-05-02T12:28:22.789Z</time></trkpt><trkpt lat="43.0601367" lon="11.99373"><ele>322.25</ele><time>2026-05-02T12:28:23.789Z</time></trkpt><trkpt lat="43.060095" lon="11.9935667"><ele>321.5</ele><time>2026-05-02T12:28:24.789Z</time></trkpt><trkpt lat="43.0600583" lon="11.9933983"><ele>320.75</ele><time>2026-05-02T12:28:25.789Z</time></trkpt><trkpt lat="43.0600283" lon="11.99323"><ele>320.0</ele><time>2026-05-02T12:28:26.789Z</time></trkpt><trkpt lat="43.0599967" lon="11.99306"><ele>319.5</ele><time>2026-05-02T12:28:27.789Z</time></trkpt><trkpt lat="43.0599633" lon="11.9928883"><ele>319.0</ele><time>2026-05-02T12:28:28.789Z</time></trkpt><trkpt lat="43.0599217" lon="11.9927167"><ele>318.5</ele><time>2026-05-02T12:28:29.791Z</time></trkpt><trkpt lat="43.0598783" lon="11.992535"><ele>318.0</ele><time>2026-05-02T12:28:30.79Z</time></trkpt><trkpt lat="43.0598283" lon="11.9923517"><ele>311.6666666666667</ele><time>2026-05-02T12:28:31.789Z</time></trkpt><trkpt lat="43.0597683" lon="11.99217"><ele>305.33333333333337</ele><time>2026-05-02T12:28:32.789Z</time></trkpt><trkpt lat="43.059705" lon="11.99198"><ele>299.0</ele><time>2026-05-02T12:28:33.789Z</time></trkpt><trkpt lat="43.0596333" lon="11.9917817"><ele>298.0</ele><time>2026-05-02T12:28:34.79Z</time></trkpt><trkpt lat="43.05956" lon="11.9915767"><ele>297.0</ele><time>2026-05-02T12:28:35.789Z</time></trkpt><trkpt lat="43.059485" lon="11.9913717"><ele>296.0</ele><time>2026-05-02T12:28:36.79Z</time></trkpt><trkpt lat="43.0594133" lon="11.9911733"><ele>296.0</ele><time>2026-05-02T12:28:37.788Z</time></trkpt><trkpt lat="43.0593433" lon="11.990975"><ele>296.0</ele><time>2026-05-02T12:28:38.787Z</time></trkpt><trkpt lat="43.05927" lon="11.9907733"><ele>296.0</ele><time>2026-05-02T12:28:39.787Z</time></trkpt><trkpt lat="43.05919" lon="11.9905733"><ele>292.6666666666667</ele><time>2026-05-02T12:28:40.788Z</time></trkpt><trkpt lat="43.0591" lon="11.9903767"><ele>289.3333333333333</ele><time>2026-05-02T12:28:41.788Z</time></trkpt><trkpt lat="43.0589983" lon="11.990185"><ele>286.0</ele><time>2026-05-02T12:28:42.788Z</time></trkpt><trkpt lat="43.0588833" lon="11.9900017"><ele>286.0</ele><time>2026-05-02T12:28:43.787Z</time></trkpt><trkpt lat="43.0587567" lon="11.989825"><ele>286.0</ele><time>2026-05-02T12:28:44.787Z</time></trkpt><trkpt lat="43.05863" lon="11.9896533"><ele>286.0</ele><time>2026-05-02T12:28:45.787Z</time></trkpt><trkpt lat="43.0585083" lon="11.98949"><ele>286.0</ele><time>2026-05-02T12:28:46.788Z</time></trkpt><trkpt lat="43.0583983" lon="11.989335"><ele>286.0</ele><time>2026-05-02T12:28:47.788Z</time></trkpt><trkpt lat="43.0582983" lon="11.9891883"><ele>286.0</ele><time>2026-05-02T12:28:48.786Z</time></trkpt><trkpt lat="43.0582117" lon="11.9890433"><ele>286.0</ele><time>2026-05-02T12:28:49.788Z</time></trkpt><trkpt lat="43.05814" lon="11.9889017"><ele>285.40000000000003</ele><time>2026-05-02T12:28:50.787Z</time></trkpt><trkpt lat="43.0580867" lon="11.9887633"><ele>284.8</ele><time>2026-05-02T12:28:51.792Z</time></trkpt><trkpt lat="43.0580467" lon="11.9886267"><ele>284.20000000000005</ele><time>2026-05-02T12:28:52.787Z</time></trkpt><trkpt lat="43.05802" lon="11.9884983"><ele>283.6</ele><time>2026-05-02T12:28:53.788Z</time></trkpt><trkpt lat="43.0580133" lon="11.9883783"><ele>283.0</ele><time>2026-05-02T12:28:54.786Z</time></trkpt><trkpt lat="43.058025" lon="11.98827"><ele>283.0</ele><time>2026-05-02T12:28:55.787Z</time></trkpt><trkpt lat="43.058065" lon="11.9881767"><ele>283.0</ele><time>2026-05-02T12:28:56.789Z</time></trkpt><trkpt lat="43.05813" lon="11.9880917"><ele>283.0</ele><time>2026-05-02T12:28:57.786Z</time></trkpt><trkpt lat="43.0582267" lon="11.9880217"><ele>283.0</ele><time>2026-05-02T12:28:58.789Z</time></trkpt><trkpt lat="43.0583267" lon="11.9879667"><ele>283.0</ele><time>2026-05-02T12:28:59.791Z</time></trkpt><trkpt lat="43.0584217" lon="11.9879133"><ele>282.66666666666663</ele><time>2026-05-02T12:29:00.787Z</time></trkpt><trkpt lat="43.058505" lon="11.9878583"><ele>282.3333333333333</ele><time>2026-05-02T12:29:01.791Z</time></trkpt><trkpt lat="43.0585667" lon="11.987795"><ele>282.0</ele><time>2026-05-02T12:29:02.787Z</time></trkpt><trkpt lat="43.0586017" lon="11.987705"><ele>281.6666666666667</ele><time>2026-05-02T12:29:03.787Z</time></trkpt><trkpt lat="43.058615" lon="11.9876017"><ele>281.33333333333337</ele><time>2026-05-02T12:29:04.787Z</time></trkpt><trkpt lat="43.0585967" lon="11.9874733"><ele>281.0</ele><time>2026-05-02T12:29:05.787Z</time></trkpt><trkpt lat="43.0585517" lon="11.9873233"><ele>281.0</ele><time>2026-05-02T12:29:06.786Z</time></trkpt><trkpt lat="43.0584933" lon="11.98715"><ele>281.0</ele><time>2026-05-02T12:29:07.786Z</time></trkpt><trkpt lat="43.058425" lon="11.9869567"><ele>281.0</ele><time>2026-05-02T12:29:08.786Z</time></trkpt><trkpt lat="43.058355" lon="11.9867517"><ele>278.6666666666667</ele><time>2026-05-02T12:29:09.787Z</time></trkpt><trkpt lat="43.0582867" lon="11.9865483"><ele>276.3333333333333</ele><time>2026-05-02T12:29:10.786Z</time></trkpt><trkpt lat="43.0582217" lon="11.9863467"><ele>274.0</ele><time>2026-05-02T12:29:11.786Z</time></trkpt><trkpt lat="43.0581567" lon="11.9861483"><ele>272.3333333333333</ele><time>2026-05-02T12:29:12.786Z</time></trkpt><trkpt lat="43.058095" lon="11.9859533"><ele>270.6666666666667</ele><time>2026-05-02T12:29:13.785Z</time></trkpt><trkpt lat="43.0580333" lon="11.9857633"><ele>269.0</ele><time>2026-05-02T12:29:14.786Z</time></trkpt><trkpt lat="43.0579717" lon="11.9855733"><ele>266.6666666666667</ele><time>2026-05-02T12:29:15.786Z</time></trkpt><trkpt lat="43.0579117" lon="11.9853817"><ele>264.3333333333333</ele><time>2026-05-02T12:29:16.786Z</time></trkpt><trkpt lat="43.0578583" lon="11.9851833"><ele>262.0</ele><time>2026-05-02T12:29:17.786Z</time></trkpt><trkpt lat="43.0578117" lon="11.98498"><ele>260.66666666666663</ele><time>2026-05-02T12:29:18.789Z</time></trkpt><trkpt lat="43.0577767" lon="11.984775"><ele>259.3333333333333</ele><time>2026-05-02T12:29:19.786Z</time></trkpt><trkpt lat="43.0577567" lon="11.98456"><ele>258.0</ele><time>2026-05-02T12:29:20.787Z</time></trkpt><trkpt lat="43.057745" lon="11.9843283"><ele>256.6666666666667</ele><time>2026-05-02T12:29:21.788Z</time></trkpt><trkpt lat="43.0577467" lon="11.984095"><ele>255.33333333333334</ele><time>2026-05-02T12:29:22.786Z</time></trkpt><trkpt lat="43.0577567" lon="11.9838517"><ele>254.0</ele><time>2026-05-02T12:29:23.787Z</time></trkpt><trkpt lat="43.057775" lon="11.98361"><ele>254.0</ele><time>2026-05-02T12:29:24.786Z</time></trkpt><trkpt lat="43.0577967" lon="11.98337"><ele>254.0</ele><time>2026-05-02T12:29:25.787Z</time></trkpt><trkpt lat="43.057845" lon="11.9828817"><ele>253.66666666666669</ele><time>2026-05-02T12:29:27.786Z</time></trkpt><trkpt lat="43.0578667" lon="11.9826383"><ele>253.33333333333331</ele><time>2026-05-02T12:29:28.786Z</time></trkpt><trkpt lat="43.05789" lon="11.9824083"><ele>253.0</ele><time>2026-05-02T12:29:29.789Z</time></trkpt><trkpt lat="43.0579133" lon="11.9821733"><ele>252.33333333333331</ele><time>2026-05-02T12:29:30.787Z</time></trkpt><trkpt lat="43.057935" lon="11.9819333"><ele>251.66666666666669</ele><time>2026-05-02T12:29:31.79Z</time></trkpt><trkpt lat="43.05795" lon="11.9816933"><ele>251.0</ele><time>2026-05-02T12:29:32.789Z</time></trkpt><trkpt lat="43.0579617" lon="11.9814567"><ele>250.66666666666669</ele><time>2026-05-02T12:29:33.788Z</time></trkpt><trkpt lat="43.0579683" lon="11.9812217"><ele>250.33333333333331</ele><time>2026-05-02T12:29:34.787Z</time></trkpt><trkpt lat="43.0579717" lon="11.981"><ele>250.0</ele><time>2026-05-02T12:29:35.789Z</time></trkpt><trkpt lat="43.0579783" lon="11.9807933"><ele>250.0</ele><time>2026-05-02T12:29:36.788Z</time></trkpt><trkpt lat="43.0579833" lon="11.9805933"><ele>250.0</ele><time>2026-05-02T12:29:37.787Z</time></trkpt><trkpt lat="43.0579967" lon="11.98041"><ele>250.0</ele><time>2026-05-02T12:29:38.787Z</time></trkpt><trkpt lat="43.0580267" lon="11.9802417"><ele>250.0</ele><time>2026-05-02T12:29:39.788Z</time></trkpt><trkpt lat="43.0580767" lon="11.980085"><ele>249.75</ele><time>2026-05-02T12:29:40.79Z</time></trkpt><trkpt lat="43.058145" lon="11.9799383"><ele>249.5</ele><time>2026-05-02T12:29:41.788Z</time></trkpt><trkpt lat="43.05823" lon="11.979795"><ele>249.25</ele><time>2026-05-02T12:29:42.788Z</time></trkpt><trkpt lat="43.0583283" lon="11.9796483"><ele>249.0</ele><time>2026-05-02T12:29:43.789Z</time></trkpt><trkpt lat="43.0584367" lon="11.9795083"><ele>250.33333333333331</ele><time>2026-05-02T12:29:44.79Z</time></trkpt><trkpt lat="43.0585533" lon="11.9793767"><ele>251.66666666666666</ele><time>2026-05-02T12:29:45.789Z</time></trkpt><trkpt lat="43.058675" lon="11.9792567"><ele>253.0</ele><time>2026-05-02T12:29:46.79Z</time></trkpt><trkpt lat="43.0588067" lon="11.9791517"><ele>253.0</ele><time>2026-05-02T12:29:47.789Z</time></trkpt><trkpt lat="43.0589417" lon="11.9790533"><ele>253.0</ele><time>2026-05-02T12:29:48.785Z</time></trkpt><trkpt lat="43.05908" lon="11.9789533"><ele>253.0</ele><time>2026-05-02T12:29:49.788Z</time></trkpt><trkpt lat="43.05922" lon="11.9788467"><ele>255.33333333333331</ele><time>2026-05-02T12:29:50.789Z</time></trkpt><trkpt lat="43.059365" lon="11.9787333"><ele>257.6666666666667</ele><time>2026-05-02T12:29:51.789Z</time></trkpt><trkpt lat="43.0595083" lon="11.9786233"><ele>260.0</ele><time>2026-05-02T12:29:52.789Z</time></trkpt><trkpt lat="43.0596517" lon="11.9785117"><ele>260.0</ele><time>2026-05-02T12:29:53.788Z</time></trkpt><trkpt lat="43.0597917" lon="11.9784017"><ele>260.0</ele><time>2026-05-02T12:29:54.788Z</time></trkpt><trkpt lat="43.059925" lon="11.9783033"><ele>260.0</ele><time>2026-05-02T12:29:55.789Z</time></trkpt><trkpt lat="43.060055" lon="11.978215"><ele>260.33333333333337</ele><time>2026-05-02T12:29:56.789Z</time></trkpt><trkpt lat="43.0601867" lon="11.9781267"><ele>260.6666666666667</ele><time>2026-05-02T12:29:57.786Z</time></trkpt><trkpt lat="43.06032" lon="11.9780317"><ele>261.0</ele><time>2026-05-02T12:29:58.786Z</time></trkpt><trkpt lat="43.0604533" lon="11.9779267"><ele>261.0</ele><time>2026-05-02T12:29:59.789Z</time></trkpt><trkpt lat="43.0605767" lon="11.9778117"><ele>261.0</ele><time>2026-05-02T12:30:00.785Z</time></trkpt><trkpt lat="43.0606933" lon="11.9777083"><ele>261.0</ele><time>2026-05-02T12:30:01.785Z</time></trkpt><trkpt lat="43.0608083" lon="11.9776033"><ele>261.0</ele><time>2026-05-02T12:30:02.788Z</time></trkpt><trkpt lat="43.060925" lon="11.9774983"><ele>261.0</ele><time>2026-05-02T12:30:03.785Z</time></trkpt><trkpt lat="43.0610467" lon="11.9773917"><ele>261.0</ele><time>2026-05-02T12:30:04.786Z</time></trkpt><trkpt lat="43.061165" lon="11.9772867"><ele>261.0</ele><time>2026-05-02T12:30:05.787Z</time></trkpt><trkpt lat="43.06128" lon="11.9771867"><ele>261.0</ele><time>2026-05-02T12:30:06.786Z</time></trkpt><trkpt lat="43.0613983" lon="11.9770783"><ele>261.0</ele><time>2026-05-02T12:30:07.788Z</time></trkpt><trkpt lat="43.0615183" lon="11.9769717"><ele>261.0</ele><time>2026-05-02T12:30:08.788Z</time></trkpt><trkpt lat="43.0616367" lon="11.97687"><ele>261.0</ele><time>2026-05-02T12:30:09.789Z</time></trkpt><trkpt lat="43.0617567" lon="11.9767833"><ele>261.0</ele><time>2026-05-02T12:30:10.789Z</time></trkpt><trkpt lat="43.06188" lon="11.9767167"><ele>260.5</ele><time>2026-05-02T12:30:11.787Z</time></trkpt><trkpt lat="43.062" lon="11.9766617"><ele>260.0</ele><time>2026-05-02T12:30:12.785Z</time></trkpt><trkpt lat="43.0621233" lon="11.97661"><ele>259.5</ele><time>2026-05-02T12:30:13.785Z</time></trkpt><trkpt lat="43.062255" lon="11.9765617"><ele>259.0</ele><time>2026-05-02T12:30:14.786Z</time></trkpt><trkpt lat="43.062385" lon="11.9765217"><ele>259.0</ele><time>2026-05-02T12:30:15.786Z</time></trkpt><trkpt lat="43.062515" lon="11.9764783"><ele>259.0</ele><time>2026-05-02T12:30:16.786Z</time></trkpt><trkpt lat="43.062645" lon="11.9764283"><ele>259.0</ele><time>2026-05-02T12:30:17.789Z</time></trkpt><trkpt lat="43.06277" lon="11.9763783"><ele>259.0</ele><time>2026-05-02T12:30:18.789Z</time></trkpt><trkpt lat="43.0628917" lon="11.97633"><ele>259.0</ele><time>2026-05-02T12:30:19.789Z</time></trkpt><trkpt lat="43.0630083" lon="11.97629"><ele>259.0</ele><time>2026-05-02T12:30:20.789Z</time></trkpt><trkpt lat="43.0631217" lon="11.976255"><ele>259.0</ele><time>2026-05-02T12:30:21.791Z</time></trkpt><trkpt lat="43.06323" lon="11.9762183"><ele>259.0</ele><time>2026-05-02T12:30:22.788Z</time></trkpt><trkpt lat="43.0633283" lon="11.976175"><ele>258.8</ele><time>2026-05-02T12:30:23.789Z</time></trkpt><trkpt lat="43.0634133" lon="11.9761183"><ele>258.59999999999997</ele><time>2026-05-02T12:30:24.785Z</time></trkpt><trkpt lat="43.0634867" lon="11.9760433"><ele>258.4</ele><time>2026-05-02T12:30:25.786Z</time></trkpt><trkpt lat="43.0635417" lon="11.97595"><ele>258.2</ele><time>2026-05-02T12:30:26.789Z</time></trkpt><trkpt lat="43.0635783" lon="11.9758433"><ele>258.0</ele><time>2026-05-02T12:30:27.786Z</time></trkpt><trkpt lat="43.0636" lon="11.9757167"><ele>256.8</ele><time>2026-05-02T12:30:28.786Z</time></trkpt><trkpt lat="43.0636133" lon="11.9755817"><ele>255.60000000000002</ele><time>2026-05-02T12:30:29.786Z</time></trkpt><trkpt lat="43.06362" lon="11.9754367"><ele>254.39999999999998</ele><time>2026-05-02T12:30:30.786Z</time></trkpt><trkpt lat="43.0636267" lon="11.9752767"><ele>253.2</ele><time>2026-05-02T12:30:31.786Z</time></trkpt><trkpt lat="43.063645" lon="11.97511"><ele>252.0</ele><time>2026-05-02T12:30:32.787Z</time></trkpt><trkpt lat="43.063675" lon="11.9749367"><ele>251.5</ele><time>2026-05-02T12:30:33.785Z</time></trkpt><trkpt lat="43.0637183" lon="11.97476"><ele>251.0</ele><time>2026-05-02T12:30:34.787Z</time></trkpt><trkpt lat="43.0637733" lon="11.9745833"><ele>250.5</ele><time>2026-05-02T12:30:35.787Z</time></trkpt><trkpt lat="43.063845" lon="11.97441"><ele>250.0</ele><time>2026-05-02T12:30:36.785Z</time></trkpt><trkpt lat="43.0639267" lon="11.9742367"><ele>250.0</ele><time>2026-05-02T12:30:37.786Z</time></trkpt><trkpt lat="43.06401" lon="11.9740617"><ele>250.0</ele><time>2026-05-02T12:30:38.787Z</time></trkpt><trkpt lat="43.06409" lon="11.9738767"><ele>250.0</ele><time>2026-05-02T12:30:39.788Z</time></trkpt><trkpt lat="43.0641733" lon="11.9736883"><ele>250.66666666666666</ele><time>2026-05-02T12:30:40.789Z</time></trkpt><trkpt lat="43.064255" lon="11.973495"><ele>251.33333333333331</ele><time>2026-05-02T12:30:41.789Z</time></trkpt><trkpt lat="43.064335" lon="11.9733"><ele>252.0</ele><time>2026-05-02T12:30:42.788Z</time></trkpt><trkpt lat="43.0644117" lon="11.9731033"><ele>252.0</ele><time>2026-05-02T12:30:43.79Z</time></trkpt><trkpt lat="43.0644867" lon="11.9729"><ele>252.0</ele><time>2026-05-02T12:30:44.789Z</time></trkpt><trkpt lat="43.0645633" lon="11.9726967"><ele>252.0</ele><time>2026-05-02T12:30:45.79Z</time></trkpt><trkpt lat="43.0646317" lon="11.9724867"><ele>251.0</ele><time>2026-05-02T12:30:46.79Z</time></trkpt><trkpt lat="43.0646933" lon="11.9722717"><ele>250.0</ele><time>2026-05-02T12:30:47.79Z</time></trkpt><trkpt lat="43.0647467" lon="11.972055"><ele>249.0</ele><time>2026-05-02T12:30:48.789Z</time></trkpt><trkpt lat="43.0647967" lon="11.9718367"><ele>248.66666666666669</ele><time>2026-05-02T12:30:49.787Z</time></trkpt><trkpt lat="43.0648483" lon="11.9716183"><ele>248.33333333333334</ele><time>2026-05-02T12:30:50.787Z</time></trkpt><trkpt lat="43.0649033" lon="11.9714017"><ele>248.0</ele><time>2026-05-02T12:30:51.787Z</time></trkpt><trkpt lat="43.0649667" lon="11.97119"><ele>248.66666666666669</ele><time>2026-05-02T12:30:52.791Z</time></trkpt><trkpt lat="43.06504" lon="11.97098"><ele>249.33333333333331</ele><time>2026-05-02T12:30:53.788Z</time></trkpt><trkpt lat="43.06512" lon="11.9707733"><ele>250.0</ele><time>2026-05-02T12:30:54.788Z</time></trkpt><trkpt lat="43.0652033" lon="11.9705683"><ele>250.0</ele><time>2026-05-02T12:30:55.789Z</time></trkpt><trkpt lat="43.0652917" lon="11.970365"><ele>250.0</ele><time>2026-05-02T12:30:56.787Z</time></trkpt><trkpt lat="43.0653833" lon="11.97016"><ele>250.0</ele><time>2026-05-02T12:30:57.788Z</time></trkpt><trkpt lat="43.0654767" lon="11.9699567"><ele>249.66666666666666</ele><time>2026-05-02T12:30:58.787Z</time></trkpt><trkpt lat="43.0655717" lon="11.9697533"><ele>249.33333333333331</ele><time>2026-05-02T12:30:59.786Z</time></trkpt><trkpt lat="43.065665" lon="11.9695517"><ele>249.0</ele><time>2026-05-02T12:31:00.787Z</time></trkpt><trkpt lat="43.0657567" lon="11.969345"><ele>249.66666666666669</ele><time>2026-05-02T12:31:01.788Z</time></trkpt><trkpt lat="43.0658467" lon="11.969145"><ele>250.33333333333334</ele><time>2026-05-02T12:31:02.788Z</time></trkpt><trkpt lat="43.065935" lon="11.9689533"><ele>251.0</ele><time>2026-05-02T12:31:03.789Z</time></trkpt><trkpt lat="43.0660183" lon="11.9687717"><ele>251.0</ele><time>2026-05-02T12:31:04.786Z</time></trkpt><trkpt lat="43.066095" lon="11.9685983"><ele>251.0</ele><time>2026-05-02T12:31:05.786Z</time></trkpt><trkpt lat="43.0661717" lon="11.9684267"><ele>251.0</ele><time>2026-05-02T12:31:06.786Z</time></trkpt><trkpt lat="43.06625" lon="11.9682533"><ele>251.0</ele><time>2026-05-02T12:31:07.787Z</time></trkpt><trkpt lat="43.0663317" lon="11.9680783"><ele>250.66666666666669</ele><time>2026-05-02T12:31:08.787Z</time></trkpt><trkpt lat="43.0664133" lon="11.9678933"><ele>250.33333333333331</ele><time>2026-05-02T12:31:09.787Z</time></trkpt><trkpt lat="43.0665" lon="11.967705"><ele>250.0</ele><time>2026-05-02T12:31:10.789Z</time></trkpt><trkpt lat="43.0665833" lon="11.9675117"><ele>251.0</ele><time>2026-05-02T12:31:11.789Z</time></trkpt><trkpt lat="43.0666667" lon="11.9673133"><ele>252.0</ele><time>2026-05-02T12:31:12.789Z</time></trkpt><trkpt lat="43.06675" lon="11.9671217"><ele>253.0</ele><time>2026-05-02T12:31:13.789Z</time></trkpt><trkpt lat="43.0668317" lon="11.9669333"><ele>253.0</ele><time>2026-05-02T12:31:14.789Z</time></trkpt><trkpt lat="43.0669117" lon="11.9667583"><ele>253.0</ele><time>2026-05-02T12:31:15.791Z</time></trkpt><trkpt lat="43.0669883" lon="11.96659"><ele>253.0</ele><time>2026-05-02T12:31:16.789Z</time></trkpt><trkpt lat="43.0670633" lon="11.966425"><ele>253.0</ele><time>2026-05-02T12:31:17.789Z</time></trkpt><trkpt lat="43.0671367" lon="11.966255"><ele>252.5</ele><time>2026-05-02T12:31:18.789Z</time></trkpt><trkpt lat="43.0672083" lon="11.9660867"><ele>252.0</ele><time>2026-05-02T12:31:19.786Z</time></trkpt><trkpt lat="43.0672783" lon="11.9659183"><ele>251.5</ele><time>2026-05-02T12:31:20.787Z</time></trkpt><trkpt lat="43.06735" lon="11.9657517"><ele>251.0</ele><time>2026-05-02T12:31:21.786Z</time></trkpt><trkpt lat="43.0674233" lon="11.965585"><ele>251.0</ele><time>2026-05-02T12:31:22.787Z</time></trkpt><trkpt lat="43.0674983" lon="11.96542"><ele>251.0</ele><time>2026-05-02T12:31:23.786Z</time></trkpt><trkpt lat="43.067575" lon="11.9652533"><ele>251.0</ele><time>2026-05-02T12:31:24.789Z</time></trkpt><trkpt lat="43.067655" lon="11.9650883"><ele>251.0</ele><time>2026-05-02T12:31:25.785Z</time></trkpt><trkpt lat="43.0677383" lon="11.9649183"><ele>251.0</ele><time>2026-05-02T12:31:26.787Z</time></trkpt><trkpt lat="43.0678217" lon="11.9647417"><ele>251.0</ele><time>2026-05-02T12:31:27.787Z</time></trkpt><trkpt lat="43.0679067" lon="11.96456"><ele>251.0</ele><time>2026-05-02T12:31:28.787Z</time></trkpt><trkpt lat="43.0679917" lon="11.96437"><ele>250.33333333333334</ele><time>2026-05-02T12:31:29.789Z</time></trkpt><trkpt lat="43.0680783" lon="11.9641783"><ele>249.66666666666669</ele><time>2026-05-02T12:31:30.786Z</time></trkpt><trkpt lat="43.0681683" lon="11.96399"><ele>249.0</ele><time>2026-05-02T12:31:31.787Z</time></trkpt><trkpt lat="43.06826" lon="11.9638"><ele>249.33333333333331</ele><time>2026-05-02T12:31:32.786Z</time></trkpt><trkpt lat="43.0683483" lon="11.9636083"><ele>249.66666666666666</ele><time>2026-05-02T12:31:33.787Z</time></trkpt><trkpt lat="43.0684367" lon="11.963415"><ele>250.0</ele><time>2026-05-02T12:31:34.789Z</time></trkpt><trkpt lat="43.06852" lon="11.9632183"><ele>250.0</ele><time>2026-05-02T12:31:35.79Z</time></trkpt><trkpt lat="43.0685917" lon="11.9630183"><ele>250.0</ele><time>2026-05-02T12:31:36.789Z</time></trkpt><trkpt lat="43.06865" lon="11.962805"><ele>250.0</ele><time>2026-05-02T12:31:37.789Z</time></trkpt><trkpt lat="43.068695" lon="11.9625783"><ele>249.66666666666666</ele><time>2026-05-02T12:31:38.79Z</time></trkpt><trkpt lat="43.0687317" lon="11.962345"><ele>249.33333333333331</ele><time>2026-05-02T12:31:39.789Z</time></trkpt><trkpt lat="43.0687683" lon="11.9621083"><ele>249.0</ele><time>2026-05-02T12:31:40.789Z</time></trkpt><trkpt lat="43.0688017" lon="11.9618767"><ele>249.0</ele><time>2026-05-02T12:31:41.789Z</time></trkpt><trkpt lat="43.06884" lon="11.9616367"><ele>249.0</ele><time>2026-05-02T12:31:42.79Z</time></trkpt><trkpt lat="43.06888" lon="11.961385"><ele>249.0</ele><time>2026-05-02T12:31:43.791Z</time></trkpt><trkpt lat="43.068925" lon="11.9611217"><ele>249.0</ele><time>2026-05-02T12:31:44.789Z</time></trkpt><trkpt lat="43.0689733" lon="11.960845"><ele>249.0</ele><time>2026-05-02T12:31:45.792Z</time></trkpt><trkpt lat="43.06902" lon="11.9605683"><ele>249.0</ele><time>2026-05-02T12:31:46.789Z</time></trkpt><trkpt lat="43.069065" lon="11.96029"><ele>249.0</ele><time>2026-05-02T12:31:47.789Z</time></trkpt><trkpt lat="43.0691083" lon="11.9600167"><ele>249.0</ele><time>2026-05-02T12:31:48.79Z</time></trkpt><trkpt lat="43.06915" lon="11.9597433"><ele>249.0</ele><time>2026-05-02T12:31:49.789Z</time></trkpt><trkpt lat="43.0691917" lon="11.959475"><ele>249.0</ele><time>2026-05-02T12:31:50.792Z</time></trkpt><trkpt lat="43.0692333" lon="11.9592033"><ele>249.0</ele><time>2026-05-02T12:31:51.79Z</time></trkpt><trkpt lat="43.06928" lon="11.9589267"><ele>249.0</ele><time>2026-05-02T12:31:52.79Z</time></trkpt><trkpt lat="43.069325" lon="11.958655"><ele>248.66666666666669</ele><time>2026-05-02T12:31:53.789Z</time></trkpt><trkpt lat="43.0693683" lon="11.95838"><ele>248.33333333333334</ele><time>2026-05-02T12:31:54.789Z</time></trkpt><trkpt lat="43.0694133" lon="11.9581117"><ele>248.0</ele><time>2026-05-02T12:31:55.789Z</time></trkpt><trkpt lat="43.06946" lon="11.9578283"><ele>248.0</ele><time>2026-05-02T12:31:56.789Z</time></trkpt><trkpt lat="43.0695033" lon="11.9575467"><ele>248.0</ele><time>2026-05-02T12:31:57.789Z</time></trkpt><trkpt lat="43.0695467" lon="11.9572733"><ele>248.0</ele><time>2026-05-02T12:31:58.789Z</time></trkpt><trkpt lat="43.06959" lon="11.9570033"><ele>248.0</ele><time>2026-05-02T12:31:59.791Z</time></trkpt><trkpt lat="43.0696367" lon="11.956735"><ele>248.0</ele><time>2026-05-02T12:32:00.789Z</time></trkpt><trkpt lat="43.0696817" lon="11.956465"><ele>248.0</ele><time>2026-05-02T12:32:01.79Z</time></trkpt><trkpt lat="43.0697267" lon="11.9561967"><ele>248.0</ele><time>2026-05-02T12:32:02.789Z</time></trkpt><trkpt lat="43.06977" lon="11.9559267"><ele>248.0</ele><time>2026-05-02T12:32:03.79Z</time></trkpt><trkpt lat="43.06981" lon="11.9556633"><ele>248.0</ele><time>2026-05-02T12:32:04.789Z</time></trkpt><trkpt lat="43.06985" lon="11.95541"><ele>248.0</ele><time>2026-05-02T12:32:05.79Z</time></trkpt><trkpt lat="43.0698917" lon="11.9551717"><ele>248.0</ele><time>2026-05-02T12:32:06.789Z</time></trkpt><trkpt lat="43.0699367" lon="11.9549317"><ele>248.0</ele><time>2026-05-02T12:32:07.79Z</time></trkpt><trkpt lat="43.0699783" lon="11.9546917"><ele>248.33333333333334</ele><time>2026-05-02T12:32:08.789Z</time></trkpt><trkpt lat="43.0700133" lon="11.9544617"><ele>248.66666666666669</ele><time>2026-05-02T12:32:09.789Z</time></trkpt><trkpt lat="43.0700483" lon="11.9542383"><ele>249.0</ele><time>2026-05-02T12:32:10.789Z</time></trkpt><trkpt lat="43.0700817" lon="11.954015"><ele>249.33333333333331</ele><time>2026-05-02T12:32:11.79Z</time></trkpt><trkpt lat="43.0701183" lon="11.9537983"><ele>249.66666666666666</ele><time>2026-05-02T12:32:12.789Z</time></trkpt><trkpt lat="43.0701567" lon="11.9535783"><ele>250.0</ele><time>2026-05-02T12:32:13.789Z</time></trkpt><trkpt lat="43.0701933" lon="11.95337"><ele>250.0</ele><time>2026-05-02T12:32:14.79Z</time></trkpt><trkpt lat="43.07023" lon="11.95317"><ele>250.0</ele><time>2026-05-02T12:32:15.789Z</time></trkpt><trkpt lat="43.0702617" lon="11.9529717"><ele>250.0</ele><time>2026-05-02T12:32:16.79Z</time></trkpt><trkpt lat="43.0702783" lon="11.9527617"><ele>250.0</ele><time>2026-05-02T12:32:17.791Z</time></trkpt><trkpt lat="43.0702817" lon="11.9525433"><ele>250.0</ele><time>2026-05-02T12:32:18.789Z</time></trkpt><trkpt lat="43.0702683" lon="11.9523183"><ele>250.0</ele><time>2026-05-02T12:32:19.792Z</time></trkpt><trkpt lat="43.0702417" lon="11.9520933"><ele>250.0</ele><time>2026-05-02T12:32:20.79Z</time></trkpt><trkpt lat="43.0702" lon="11.9518667"><ele>250.0</ele><time>2026-05-02T12:32:21.791Z</time></trkpt><trkpt lat="43.0701517" lon="11.9516467"><ele>250.0</ele><time>2026-05-02T12:32:22.789Z</time></trkpt><trkpt lat="43.0700983" lon="11.9514383"><ele>250.33333333333331</ele><time>2026-05-02T12:32:23.79Z</time></trkpt><trkpt lat="43.0700417" lon="11.9512283"><ele>250.66666666666669</ele><time>2026-05-02T12:32:24.791Z</time></trkpt><trkpt lat="43.0699867" lon="11.9510233"><ele>251.0</ele><time>2026-05-02T12:32:25.791Z</time></trkpt><trkpt lat="43.0699333" lon="11.9508183"><ele>251.0</ele><time>2026-05-02T12:32:26.791Z</time></trkpt><trkpt lat="43.0698783" lon="11.950605"><ele>251.0</ele><time>2026-05-02T12:32:27.791Z</time></trkpt><trkpt lat="43.06982" lon="11.9503833"><ele>251.0</ele><time>2026-05-02T12:32:28.79Z</time></trkpt><trkpt lat="43.0697583" lon="11.9501533"><ele>251.0</ele><time>2026-05-02T12:32:29.789Z</time></trkpt><trkpt lat="43.069695" lon="11.9499267"><ele>251.0</ele><time>2026-05-02T12:32:30.79Z</time></trkpt><trkpt lat="43.0696283" lon="11.9496983"><ele>251.0</ele><time>2026-05-02T12:32:31.79Z</time></trkpt><trkpt lat="43.06956" lon="11.9494633"><ele>251.0</ele><time>2026-05-02T12:32:32.789Z</time></trkpt><trkpt lat="43.0694917" lon="11.9492383"><ele>251.0</ele><time>2026-05-02T12:32:33.79Z</time></trkpt><trkpt lat="43.06943" lon="11.9490267"><ele>251.0</ele><time>2026-05-02T12:32:34.79Z</time></trkpt><trkpt lat="43.0693717" lon="11.94883"><ele>251.0</ele><time>2026-05-02T12:32:35.79Z</time></trkpt><trkpt lat="43.0693233" lon="11.9486417"><ele>251.0</ele><time>2026-05-02T12:32:36.792Z</time></trkpt><trkpt lat="43.069275" lon="11.9484683"><ele>251.0</ele><time>2026-05-02T12:32:37.789Z</time></trkpt><trkpt lat="43.0692283" lon="11.9483067"><ele>251.0</ele><time>2026-05-02T12:32:38.788Z</time></trkpt><trkpt lat="43.069185" lon="11.948145"><ele>251.0</ele><time>2026-05-02T12:32:39.789Z</time></trkpt><trkpt lat="43.0691533" lon="11.947975"><ele>251.0</ele><time>2026-05-02T12:32:40.789Z</time></trkpt><trkpt lat="43.069135" lon="11.9477917"><ele>251.0</ele><time>2026-05-02T12:32:41.788Z</time></trkpt><trkpt lat="43.069125" lon="11.947595"><ele>251.0</ele><time>2026-05-02T12:32:42.788Z</time></trkpt><trkpt lat="43.0691117" lon="11.94738"><ele>251.33333333333334</ele><time>2026-05-02T12:32:43.789Z</time></trkpt><trkpt lat="43.0690833" lon="11.9471583"><ele>251.66666666666669</ele><time>2026-05-02T12:32:44.789Z</time></trkpt><trkpt lat="43.0690383" lon="11.9469367"><ele>252.0</ele><time>2026-05-02T12:32:45.789Z</time></trkpt><trkpt lat="43.068985" lon="11.946725"><ele>253.25</ele><time>2026-05-02T12:32:46.789Z</time></trkpt><trkpt lat="43.0689317" lon="11.9465367"><ele>254.5</ele><time>2026-05-02T12:32:47.789Z</time></trkpt><trkpt lat="43.0688833" lon="11.9463733"><ele>255.75</ele><time>2026-05-02T12:32:48.789Z</time></trkpt><trkpt lat="43.06885" lon="11.946235"><ele>257.0</ele><time>2026-05-02T12:32:49.79Z</time></trkpt><trkpt lat="43.0688383" lon="11.9461267"><ele>257.0</ele><time>2026-05-02T12:32:50.788Z</time></trkpt><trkpt lat="43.0689033" lon="11.94602"><ele>257.0</ele><time>2026-05-02T12:32:52.789Z</time></trkpt><trkpt lat="43.0690367" lon="11.9460233"><ele>257.0</ele><time>2026-05-02T12:32:54.789Z</time></trkpt><trkpt lat="43.069125" lon="11.94604"><ele>257.0</ele><time>2026-05-02T12:32:55.79Z</time></trkpt><trkpt lat="43.069215" lon="11.9460433"><ele>257.0</ele><time>2026-05-02T12:32:56.785Z</time></trkpt><trkpt lat="43.0692933" lon="11.9460233"><ele>257.33333333333337</ele><time>2026-05-02T12:32:57.785Z</time></trkpt><trkpt lat="43.06936" lon="11.9459917"><ele>257.6666666666667</ele><time>2026-05-02T12:32:58.788Z</time></trkpt><trkpt lat="43.0694183" lon="11.9459283"><ele>258.0</ele><time>2026-05-02T12:32:59.787Z</time></trkpt><trkpt lat="43.0694717" lon="11.9458417"><ele>258.3333333333333</ele><time>2026-05-02T12:33:00.786Z</time></trkpt><trkpt lat="43.06952" lon="11.9457383"><ele>258.66666666666663</ele><time>2026-05-02T12:33:01.788Z</time></trkpt><trkpt lat="43.0695667" lon="11.9456233"><ele>259.0</ele><time>2026-05-02T12:33:02.789Z</time></trkpt><trkpt lat="43.0696033" lon="11.9455133"><ele>261.16666666666663</ele><time>2026-05-02T12:33:03.789Z</time></trkpt><trkpt lat="43.0696283" lon="11.94541"><ele>263.3333333333333</ele><time>2026-05-02T12:33:04.789Z</time></trkpt><trkpt lat="43.06963" lon="11.9453217"><ele>265.5</ele><time>2026-05-02T12:33:05.79Z</time></trkpt><trkpt lat="43.0695733" lon="11.9452217"><ele>267.6666666666667</ele><time>2026-05-02T12:33:07.789Z</time></trkpt><trkpt lat="43.0694733" lon="11.9451683"><ele>269.83333333333337</ele><time>2026-05-02T12:33:09.79Z</time></trkpt><trkpt lat="43.0693983" lon="11.945085"><ele>272.0</ele><time>2026-05-02T12:33:11.79Z</time></trkpt><trkpt lat="43.0693933" lon="11.94492"><ele>273.57142857142856</ele><time>2026-05-02T12:33:13.785Z</time></trkpt><trkpt lat="43.069415" lon="11.9448283"><ele>275.1428571428571</ele><time>2026-05-02T12:33:14.789Z</time></trkpt><trkpt lat="43.0694567" lon="11.9447417"><ele>276.7142857142857</ele><time>2026-05-02T12:33:15.785Z</time></trkpt><trkpt lat="43.0695067" lon="11.94466"><ele>278.2857142857143</ele><time>2026-05-02T12:33:16.786Z</time></trkpt><trkpt lat="43.069555" lon="11.9445733"><ele>279.8571428571429</ele><time>2026-05-02T12:33:17.788Z</time></trkpt><trkpt lat="43.0695883" lon="11.944485"><ele>281.42857142857144</ele><time>2026-05-02T12:33:18.789Z</time></trkpt><trkpt lat="43.0696067" lon="11.944395"><ele>283.0</ele><time>2026-05-02T12:33:19.788Z</time></trkpt><trkpt lat="43.0696117" lon="11.944285"><ele>283.5</ele><time>2026-05-02T12:33:20.789Z</time></trkpt><trkpt lat="43.069605" lon="11.9441667"><ele>284.0</ele><time>2026-05-02T12:33:21.789Z</time></trkpt><trkpt lat="43.0695917" lon="11.9440433"><ele>284.5</ele><time>2026-05-02T12:33:22.789Z</time></trkpt><trkpt lat="43.06958" lon="11.9439167"><ele>285.0</ele><time>2026-05-02T12:33:23.788Z</time></trkpt><trkpt lat="43.06957" lon="11.9437917"><ele>285.5</ele><time>2026-05-02T12:33:24.786Z</time></trkpt><trkpt lat="43.0695717" lon="11.943675"><ele>286.0</ele><time>2026-05-02T12:33:25.789Z</time></trkpt><trkpt lat="43.0695817" lon="11.94356"><ele>286.0</ele><time>2026-05-02T12:33:26.789Z</time></trkpt><trkpt lat="43.0696017" lon="11.94345"><ele>286.0</ele><time>2026-05-02T12:33:27.787Z</time></trkpt><trkpt lat="43.0696317" lon="11.943335"><ele>286.0</ele><time>2026-05-02T12:33:28.789Z</time></trkpt><trkpt lat="43.06967" lon="11.94322"><ele>286.0</ele><time>2026-05-02T12:33:29.789Z</time></trkpt><trkpt lat="43.069715" lon="11.94311"><ele>286.0</ele><time>2026-05-02T12:33:30.79Z</time></trkpt><trkpt lat="43.0697567" lon="11.9430067"><ele>286.0</ele><time>2026-05-02T12:33:31.786Z</time></trkpt><trkpt lat="43.06979" lon="11.9429167"><ele>285.4285714285714</ele><time>2026-05-02T12:33:32.787Z</time></trkpt><trkpt lat="43.0698167" lon="11.9428383"><ele>284.85714285714283</ele><time>2026-05-02T12:33:33.79Z</time></trkpt><trkpt lat="43.06985" lon="11.9427467"><ele>284.2857142857143</ele><time>2026-05-02T12:33:34.789Z</time></trkpt><trkpt lat="43.0698883" lon="11.9426517"><ele>283.71428571428567</ele><time>2026-05-02T12:33:35.79Z</time></trkpt><trkpt lat="43.0699283" lon="11.9425633"><ele>283.1428571428571</ele><time>2026-05-02T12:33:36.789Z</time></trkpt><trkpt lat="43.0699733" lon="11.9424833"><ele>282.57142857142856</ele><time>2026-05-02T12:33:37.79Z</time></trkpt><trkpt lat="43.070025" lon="11.9424083"><ele>282.0</ele><time>2026-05-02T12:33:38.786Z</time></trkpt><trkpt lat="43.07009" lon="11.9423417"><ele>284.75</ele><time>2026-05-02T12:33:39.786Z</time></trkpt><trkpt lat="43.0701683" lon="11.942275"><ele>287.5</ele><time>2026-05-02T12:33:40.787Z</time></trkpt><trkpt lat="43.070285" lon="11.9422283"><ele>290.25</ele><time>2026-05-02T12:33:41.786Z</time></trkpt><trkpt lat="43.0704167" lon="11.9421817"><ele>293.0</ele><time>2026-05-02T12:33:42.785Z</time></trkpt><trkpt lat="43.07055" lon="11.9421267"><ele>293.0</ele><time>2026-05-02T12:33:43.789Z</time></trkpt><trkpt lat="43.0706617" lon="11.9420717"><ele>293.0</ele><time>2026-05-02T12:33:44.789Z</time></trkpt><trkpt lat="43.0707567" lon="11.942025"><ele>293.0</ele><time>2026-05-02T12:33:45.789Z</time></trkpt><trkpt lat="43.0708267" lon="11.9419933"><ele>293.0</ele><time>2026-05-02T12:33:46.794Z</time></trkpt><trkpt lat="43.0708917" lon="11.9419233"><ele>293.0</ele><time>2026-05-02T12:33:48.786Z</time></trkpt><trkpt lat="43.0708933" lon="11.9418117"><ele>292.25</ele><time>2026-05-02T12:33:51.789Z</time></trkpt><trkpt lat="43.0707883" lon="11.94167"><ele>291.5</ele><time>2026-05-02T12:33:53.789Z</time></trkpt><trkpt lat="43.0707033" lon="11.9415783"><ele>290.75</ele><time>2026-05-02T12:33:54.79Z</time></trkpt><trkpt lat="43.070615" lon="11.94148"><ele>290.0</ele><time>2026-05-02T12:33:55.785Z</time></trkpt><trkpt lat="43.0705183" lon="11.941375"><ele>290.0</ele><time>2026-05-02T12:33:56.786Z</time></trkpt><trkpt lat="43.0704017" lon="11.9412783"><ele>290.0</ele><time>2026-05-02T12:33:57.787Z</time></trkpt><trkpt lat="43.07027" lon="11.941175"><ele>290.0</ele><time>2026-05-02T12:33:58.787Z</time></trkpt><trkpt lat="43.0701267" lon="11.9410683"><ele>290.0</ele><time>2026-05-02T12:33:59.786Z</time></trkpt><trkpt lat="43.0699833" lon="11.94096"><ele>290.0</ele><time>2026-05-02T12:34:00.786Z</time></trkpt><trkpt lat="43.0698333" lon="11.94085"><ele>290.0</ele><time>2026-05-02T12:34:01.787Z</time></trkpt><trkpt lat="43.069675" lon="11.9407483"><ele>289.0</ele><time>2026-05-02T12:34:02.786Z</time></trkpt><trkpt lat="43.0695167" lon="11.940665"><ele>288.0</ele><time>2026-05-02T12:34:03.789Z</time></trkpt><trkpt lat="43.0693533" lon="11.9406083"><ele>287.0</ele><time>2026-05-02T12:34:04.789Z</time></trkpt><trkpt lat="43.0691933" lon="11.9405717"><ele>287.75</ele><time>2026-05-02T12:34:05.79Z</time></trkpt><trkpt lat="43.0690383" lon="11.9405483"><ele>288.5</ele><time>2026-05-02T12:34:06.789Z</time></trkpt><trkpt lat="43.0688917" lon="11.9405283"><ele>289.25</ele><time>2026-05-02T12:34:07.789Z</time></trkpt><trkpt lat="43.0687483" lon="11.94051"><ele>290.0</ele><time>2026-05-02T12:34:08.789Z</time></trkpt><trkpt lat="43.068615" lon="11.9404967"><ele>290.0</ele><time>2026-05-02T12:34:09.786Z</time></trkpt><trkpt lat="43.0684933" lon="11.9404967"><ele>290.0</ele><time>2026-05-02T12:34:10.787Z</time></trkpt><trkpt lat="43.06837" lon="11.94052"><ele>290.0</ele><time>2026-05-02T12:34:11.787Z</time></trkpt><trkpt lat="43.06825" lon="11.9405617"><ele>290.0</ele><time>2026-05-02T12:34:12.789Z</time></trkpt><trkpt lat="43.0681317" lon="11.9406067"><ele>291.0</ele><time>2026-05-02T12:34:13.787Z</time></trkpt><trkpt lat="43.06802" lon="11.940655"><ele>292.0</ele><time>2026-05-02T12:34:14.786Z</time></trkpt><trkpt lat="43.0679067" lon="11.9407033"><ele>293.0</ele><time>2026-05-02T12:34:15.787Z</time></trkpt><trkpt lat="43.06779" lon="11.9407533"><ele>294.0</ele><time>2026-05-02T12:34:16.786Z</time></trkpt><trkpt lat="43.0676683" lon="11.9407917"><ele>294.0</ele><time>2026-05-02T12:34:17.789Z</time></trkpt><trkpt lat="43.0675367" lon="11.9408317"><ele>294.0</ele><time>2026-05-02T12:34:18.79Z</time></trkpt><trkpt lat="43.0673967" lon="11.94086"><ele>294.0</ele><time>2026-05-02T12:34:19.789Z</time></trkpt><trkpt lat="43.0672533" lon="11.9408883"><ele>294.0</ele><time>2026-05-02T12:34:20.789Z</time></trkpt><trkpt lat="43.0670967" lon="11.94092"><ele>293.3333333333333</ele><time>2026-05-02T12:34:21.785Z</time></trkpt><trkpt lat="43.0669283" lon="11.940955"><ele>292.66666666666663</ele><time>2026-05-02T12:34:22.786Z</time></trkpt><trkpt lat="43.066755" lon="11.940985"><ele>292.0</ele><time>2026-05-02T12:34:23.789Z</time></trkpt><trkpt lat="43.06658" lon="11.941015"><ele>292.0</ele><time>2026-05-02T12:34:24.79Z</time></trkpt><trkpt lat="43.0664017" lon="11.9410467"><ele>292.0</ele><time>2026-05-02T12:34:25.79Z</time></trkpt><trkpt lat="43.066215" lon="11.9410833"><ele>292.0</ele><time>2026-05-02T12:34:26.789Z</time></trkpt><trkpt lat="43.06602" lon="11.9411217"><ele>292.0</ele><time>2026-05-02T12:34:27.79Z</time></trkpt><trkpt lat="43.065825" lon="11.9411567"><ele>292.0</ele><time>2026-05-02T12:34:28.79Z</time></trkpt><trkpt lat="43.0656333" lon="11.9411933"><ele>292.0</ele><time>2026-05-02T12:34:29.786Z</time></trkpt><trkpt lat="43.065435" lon="11.94123"><ele>291.3333333333333</ele><time>2026-05-02T12:34:30.786Z</time></trkpt><trkpt lat="43.0652383" lon="11.9412683"><ele>290.6666666666667</ele><time>2026-05-02T12:34:31.788Z</time></trkpt><trkpt lat="43.065055" lon="11.9413067"><ele>290.0</ele><time>2026-05-02T12:34:32.79Z</time></trkpt><trkpt lat="43.0648867" lon="11.94136"><ele>290.0</ele><time>2026-05-02T12:34:33.786Z</time></trkpt><trkpt lat="43.064735" lon="11.9414367"><ele>290.0</ele><time>2026-05-02T12:34:34.789Z</time></trkpt><trkpt lat="43.0646067" lon="11.9415567"><ele>290.0</ele><time>2026-05-02T12:34:35.789Z</time></trkpt><trkpt lat="43.064495" lon="11.9417283"><ele>291.33333333333337</ele><time>2026-05-02T12:34:36.789Z</time></trkpt><trkpt lat="43.0643967" lon="11.9419367"><ele>292.6666666666667</ele><time>2026-05-02T12:34:37.79Z</time></trkpt><trkpt lat="43.0643" lon="11.942155"><ele>294.0</ele><time>2026-05-02T12:34:38.789Z</time></trkpt><trkpt lat="43.064195" lon="11.94237"><ele>292.6666666666667</ele><time>2026-05-02T12:34:39.789Z</time></trkpt><trkpt lat="43.0640817" lon="11.9425767"><ele>291.33333333333337</ele><time>2026-05-02T12:34:40.79Z</time></trkpt><trkpt lat="43.0639683" lon="11.94277"><ele>290.0</ele><time>2026-05-02T12:34:41.789Z</time></trkpt><trkpt lat="43.0638567" lon="11.9429533"><ele>290.0</ele><time>2026-05-02T12:34:42.789Z</time></trkpt><trkpt lat="43.0637517" lon="11.94313"><ele>290.0</ele><time>2026-05-02T12:34:43.79Z</time></trkpt><trkpt lat="43.0636483" lon="11.9432983"><ele>290.0</ele><time>2026-05-02T12:34:44.789Z</time></trkpt><trkpt lat="43.0635433" lon="11.94345"><ele>291.33333333333337</ele><time>2026-05-02T12:34:45.789Z</time></trkpt><trkpt lat="43.063435" lon="11.9435883"><ele>292.6666666666667</ele><time>2026-05-02T12:34:46.789Z</time></trkpt><trkpt lat="43.0633133" lon="11.9437117"><ele>294.0</ele><time>2026-05-02T12:34:47.789Z</time></trkpt><trkpt lat="43.0631833" lon="11.9438217"><ele>294.0</ele><time>2026-05-02T12:34:48.789Z</time></trkpt><trkpt lat="43.0630417" lon="11.9439"><ele>294.0</ele><time>2026-05-02T12:34:49.789Z</time></trkpt><trkpt lat="43.0629033" lon="11.9439483"><ele>294.0</ele><time>2026-05-02T12:34:50.789Z</time></trkpt><trkpt lat="43.06277" lon="11.9439533"><ele>294.0</ele><time>2026-05-02T12:34:51.79Z</time></trkpt><trkpt lat="43.062645" lon="11.9438967"><ele>294.0</ele><time>2026-05-02T12:34:52.789Z</time></trkpt><trkpt lat="43.0625183" lon="11.9437783"><ele>294.0</ele><time>2026-05-02T12:34:53.792Z</time></trkpt><trkpt lat="43.0623967" lon="11.9436267"><ele>294.0</ele><time>2026-05-02T12:34:54.79Z</time></trkpt><trkpt lat="43.0622767" lon="11.9434583"><ele>293.6666666666667</ele><time>2026-05-02T12:34:55.79Z</time></trkpt><trkpt lat="43.062155" lon="11.943285"><ele>293.33333333333337</ele><time>2026-05-02T12:34:56.79Z</time></trkpt><trkpt lat="43.0620283" lon="11.943125"><ele>293.0</ele><time>2026-05-02T12:34:57.786Z</time></trkpt><trkpt lat="43.0618983" lon="11.9429833"><ele>293.0</ele><time>2026-05-02T12:34:58.786Z</time></trkpt><trkpt lat="43.06176" lon="11.9428533"><ele>293.0</ele><time>2026-05-02T12:34:59.788Z</time></trkpt><trkpt lat="43.0616217" lon="11.94273"><ele>293.0</ele><time>2026-05-02T12:35:00.786Z</time></trkpt><trkpt lat="43.0614833" lon="11.9426033"><ele>291.6666666666667</ele><time>2026-05-02T12:35:01.786Z</time></trkpt><trkpt lat="43.06135" lon="11.9424817"><ele>290.3333333333333</ele><time>2026-05-02T12:35:02.789Z</time></trkpt><trkpt lat="43.0612267" lon="11.9423633"><ele>289.0</ele><time>2026-05-02T12:35:03.789Z</time></trkpt><trkpt lat="43.0611" lon="11.942255"><ele>289.0</ele><time>2026-05-02T12:35:04.79Z</time></trkpt><trkpt lat="43.060965" lon="11.9421717"><ele>289.0</ele><time>2026-05-02T12:35:05.79Z</time></trkpt><trkpt lat="43.0608183" lon="11.9421283"><ele>289.0</ele><time>2026-05-02T12:35:06.789Z</time></trkpt><trkpt lat="43.060655" lon="11.9421133"><ele>286.3333333333333</ele><time>2026-05-02T12:35:07.789Z</time></trkpt><trkpt lat="43.0604833" lon="11.9421033"><ele>283.6666666666667</ele><time>2026-05-02T12:35:08.789Z</time></trkpt><trkpt lat="43.0603117" lon="11.94208"><ele>281.0</ele><time>2026-05-02T12:35:09.789Z</time></trkpt><trkpt lat="43.0601417" lon="11.94204"><ele>281.0</ele><time>2026-05-02T12:35:10.789Z</time></trkpt><trkpt lat="43.0599717" lon="11.9419883"><ele>281.0</ele><time>2026-05-02T12:35:11.789Z</time></trkpt><trkpt lat="43.0598033" lon="11.9419217"><ele>281.0</ele><time>2026-05-02T12:35:12.789Z</time></trkpt><trkpt lat="43.059635" lon="11.941835"><ele>279.33333333333337</ele><time>2026-05-02T12:35:13.79Z</time></trkpt><trkpt lat="43.0594717" lon="11.941725"><ele>277.6666666666667</ele><time>2026-05-02T12:35:14.789Z</time></trkpt><trkpt lat="43.0593" lon="11.9415967"><ele>276.0</ele><time>2026-05-02T12:35:15.79Z</time></trkpt><trkpt lat="43.05913" lon="11.941465"><ele>276.3333333333333</ele><time>2026-05-02T12:35:16.789Z</time></trkpt><trkpt lat="43.0589533" lon="11.9413317"><ele>276.66666666666663</ele><time>2026-05-02T12:35:17.789Z</time></trkpt><trkpt lat="43.058775" lon="11.9412"><ele>277.0</ele><time>2026-05-02T12:35:18.789Z</time></trkpt><trkpt lat="43.058595" lon="11.94107"><ele>277.0</ele><time>2026-05-02T12:35:19.79Z</time></trkpt><trkpt lat="43.058415" lon="11.94094"><ele>277.0</ele><time>2026-05-02T12:35:20.79Z</time></trkpt><trkpt lat="43.0582317" lon="11.9408133"><ele>277.0</ele><time>2026-05-02T12:35:21.787Z</time></trkpt><trkpt lat="43.0580433" lon="11.9406933"><ele>273.5</ele><time>2026-05-02T12:35:22.79Z</time></trkpt><trkpt lat="43.0578433" lon="11.9405633"><ele>270.0</ele><time>2026-05-02T12:35:23.789Z</time></trkpt><trkpt lat="43.0576283" lon="11.940425"><ele>269.0</ele><time>2026-05-02T12:35:24.79Z</time></trkpt><trkpt lat="43.0573883" lon="11.94027"><ele>268.0</ele><time>2026-05-02T12:35:25.789Z</time></trkpt><trkpt lat="43.057135" lon="11.9401017"><ele>264.5</ele><time>2026-05-02T12:35:26.788Z</time></trkpt><trkpt lat="43.0568867" lon="11.9399333"><ele>261.0</ele><time>2026-05-02T12:35:27.786Z</time></trkpt><trkpt lat="43.056645" lon="11.9397667"><ele>261.5</ele><time>2026-05-02T12:35:28.787Z</time></trkpt><trkpt lat="43.05641" lon="11.9396167"><ele>262.0</ele><time>2026-05-02T12:35:29.787Z</time></trkpt><trkpt lat="43.05618" lon="11.9394867"><ele>262.0</ele><time>2026-05-02T12:35:30.787Z</time></trkpt><trkpt lat="43.05595" lon="11.9393833"><ele>262.0</ele><time>2026-05-02T12:35:31.788Z</time></trkpt><trkpt lat="43.0557183" lon="11.9393033"><ele>261.0</ele><time>2026-05-02T12:35:32.787Z</time></trkpt><trkpt lat="43.0554933" lon="11.93924"><ele>260.0</ele><time>2026-05-02T12:35:33.788Z</time></trkpt><trkpt lat="43.0552783" lon="11.9391867"><ele>259.0</ele><time>2026-05-02T12:35:34.789Z</time></trkpt><trkpt lat="43.0550817" lon="11.9391367"><ele>256.3333333333333</ele><time>2026-05-02T12:35:35.789Z</time></trkpt><trkpt lat="43.0549017" lon="11.93909"><ele>253.66666666666669</ele><time>2026-05-02T12:35:36.788Z</time></trkpt><trkpt lat="43.0547333" lon="11.9390433"><ele>251.0</ele><time>2026-05-02T12:35:37.789Z</time></trkpt><trkpt lat="43.0545767" lon="11.9389883"><ele>251.0</ele><time>2026-05-02T12:35:38.79Z</time></trkpt><trkpt lat="43.0544267" lon="11.93892"><ele>251.0</ele><time>2026-05-02T12:35:39.789Z</time></trkpt><trkpt lat="43.054285" lon="11.938825"><ele>251.0</ele><time>2026-05-02T12:35:40.789Z</time></trkpt><trkpt lat="43.0541467" lon="11.938695"><ele>250.0</ele><time>2026-05-02T12:35:41.788Z</time></trkpt><trkpt lat="43.0540083" lon="11.9385383"><ele>249.0</ele><time>2026-05-02T12:35:42.788Z</time></trkpt><trkpt lat="43.053865" lon="11.938365"><ele>248.0</ele><time>2026-05-02T12:35:43.789Z</time></trkpt><trkpt lat="43.05372" lon="11.9381833"><ele>248.0</ele><time>2026-05-02T12:35:44.788Z</time></trkpt><trkpt lat="43.053565" lon="11.9379983"><ele>248.0</ele><time>2026-05-02T12:35:45.789Z</time></trkpt><trkpt lat="43.053415" lon="11.9378183"><ele>248.0</ele><time>2026-05-02T12:35:46.789Z</time></trkpt><trkpt lat="43.0532683" lon="11.937645"><ele>249.0</ele><time>2026-05-02T12:35:47.788Z</time></trkpt><trkpt lat="43.0531217" lon="11.9374667"><ele>250.0</ele><time>2026-05-02T12:35:48.788Z</time></trkpt><trkpt lat="43.0529733" lon="11.9372867"><ele>251.0</ele><time>2026-05-02T12:35:49.789Z</time></trkpt><trkpt lat="43.0528183" lon="11.9370983"><ele>251.0</ele><time>2026-05-02T12:35:50.785Z</time></trkpt><trkpt lat="43.0526567" lon="11.9369033"><ele>251.0</ele><time>2026-05-02T12:35:51.788Z</time></trkpt><trkpt lat="43.0524933" lon="11.9367"><ele>251.0</ele><time>2026-05-02T12:35:52.789Z</time></trkpt><trkpt lat="43.052325" lon="11.9364933"><ele>250.33333333333334</ele><time>2026-05-02T12:35:53.789Z</time></trkpt><trkpt lat="43.05216" lon="11.9362917"><ele>249.66666666666669</ele><time>2026-05-02T12:35:54.789Z</time></trkpt><trkpt lat="43.0519933" lon="11.93609"><ele>249.0</ele><time>2026-05-02T12:35:55.789Z</time></trkpt><trkpt lat="43.0518267" lon="11.9358867"><ele>249.0</ele><time>2026-05-02T12:35:56.788Z</time></trkpt><trkpt lat="43.05166" lon="11.935685"><ele>249.0</ele><time>2026-05-02T12:35:57.789Z</time></trkpt><trkpt lat="43.051495" lon="11.9354883"><ele>249.0</ele><time>2026-05-02T12:35:58.788Z</time></trkpt><trkpt lat="43.0513317" lon="11.93529"><ele>249.33333333333331</ele><time>2026-05-02T12:35:59.789Z</time></trkpt><trkpt lat="43.0511683" lon="11.935095"><ele>249.66666666666666</ele><time>2026-05-02T12:36:00.789Z</time></trkpt><trkpt lat="43.0510083" lon="11.9349017"><ele>250.0</ele><time>2026-05-02T12:36:01.788Z</time></trkpt><trkpt lat="43.05085" lon="11.9347117"><ele>249.66666666666666</ele><time>2026-05-02T12:36:02.79Z</time></trkpt><trkpt lat="43.050695" lon="11.934525"><ele>249.33333333333331</ele><time>2026-05-02T12:36:03.788Z</time></trkpt><trkpt lat="43.0505483" lon="11.9343433"><ele>249.0</ele><time>2026-05-02T12:36:04.789Z</time></trkpt><trkpt lat="43.050415" lon="11.9341633"><ele>248.66666666666669</ele><time>2026-05-02T12:36:05.788Z</time></trkpt><trkpt lat="43.0502883" lon="11.9339783"><ele>248.33333333333334</ele><time>2026-05-02T12:36:06.789Z</time></trkpt><trkpt lat="43.0501733" lon="11.9337767"><ele>248.0</ele><time>2026-05-02T12:36:07.789Z</time></trkpt><trkpt lat="43.0500683" lon="11.9335617"><ele>248.0</ele><time>2026-05-02T12:36:08.789Z</time></trkpt><trkpt lat="43.04997" lon="11.9333283"><ele>248.0</ele><time>2026-05-02T12:36:09.788Z</time></trkpt><trkpt lat="43.04988" lon="11.93308"><ele>248.0</ele><time>2026-05-02T12:36:10.789Z</time></trkpt><trkpt lat="43.049795" lon="11.9328167"><ele>248.0</ele><time>2026-05-02T12:36:11.789Z</time></trkpt><trkpt lat="43.0497133" lon="11.932545"><ele>248.0</ele><time>2026-05-02T12:36:12.788Z</time></trkpt><trkpt lat="43.049635" lon="11.9322667"><ele>248.0</ele><time>2026-05-02T12:36:13.79Z</time></trkpt><trkpt lat="43.0495567" lon="11.9319867"><ele>248.33333333333334</ele><time>2026-05-02T12:36:14.789Z</time></trkpt><trkpt lat="43.0494767" lon="11.931705"><ele>248.66666666666669</ele><time>2026-05-02T12:36:15.79Z</time></trkpt><trkpt lat="43.049395" lon="11.9314217"><ele>249.0</ele><time>2026-05-02T12:36:16.789Z</time></trkpt><trkpt lat="43.0493133" lon="11.9311367"><ele>249.0</ele><time>2026-05-02T12:36:17.788Z</time></trkpt><trkpt lat="43.04923" lon="11.93085"><ele>249.0</ele><time>2026-05-02T12:36:18.789Z</time></trkpt><trkpt lat="43.0491467" lon="11.93057"><ele>249.0</ele><time>2026-05-02T12:36:19.79Z</time></trkpt><trkpt lat="43.0490667" lon="11.9302917"><ele>249.66666666666669</ele><time>2026-05-02T12:36:20.789Z</time></trkpt><trkpt lat="43.0489833" lon="11.9300133"><ele>250.33333333333334</ele><time>2026-05-02T12:36:21.79Z</time></trkpt><trkpt lat="43.0489017" lon="11.9297333"><ele>251.0</ele><time>2026-05-02T12:36:22.789Z</time></trkpt><trkpt lat="43.04882" lon="11.9294533"><ele>250.66666666666669</ele><time>2026-05-02T12:36:23.789Z</time></trkpt><trkpt lat="43.0487383" lon="11.9291733"><ele>250.33333333333331</ele><time>2026-05-02T12:36:24.789Z</time></trkpt><trkpt lat="43.0486583" lon="11.9288917"><ele>250.0</ele><time>2026-05-02T12:36:25.788Z</time></trkpt><trkpt lat="43.0485783" lon="11.9286067"><ele>249.33333333333331</ele><time>2026-05-02T12:36:26.789Z</time></trkpt><trkpt lat="43.0485" lon="11.9283183"><ele>248.66666666666669</ele><time>2026-05-02T12:36:27.79Z</time></trkpt><trkpt lat="43.04842" lon="11.928035"><ele>248.0</ele><time>2026-05-02T12:36:28.789Z</time></trkpt><trkpt lat="43.0483367" lon="11.9277533"><ele>248.33333333333334</ele><time>2026-05-02T12:36:29.789Z</time></trkpt><trkpt lat="43.0482567" lon="11.9274783"><ele>248.66666666666669</ele><time>2026-05-02T12:36:30.789Z</time></trkpt><trkpt lat="43.04818" lon="11.9272167"><ele>249.0</ele><time>2026-05-02T12:36:31.79Z</time></trkpt><trkpt lat="43.0481083" lon="11.9269683"><ele>249.0</ele><time>2026-05-02T12:36:32.789Z</time></trkpt><trkpt lat="43.04804" lon="11.9267383"><ele>249.0</ele><time>2026-05-02T12:36:33.789Z</time></trkpt><trkpt lat="43.0479767" lon="11.9265233"><ele>249.0</ele><time>2026-05-02T12:36:34.79Z</time></trkpt><trkpt lat="43.047915" lon="11.9263183"><ele>249.25</ele><time>2026-05-02T12:36:35.79Z</time></trkpt><trkpt lat="43.0478583" lon="11.926125"><ele>249.5</ele><time>2026-05-02T12:36:36.789Z</time></trkpt><trkpt lat="43.0478033" lon="11.9259433"><ele>249.75</ele><time>2026-05-02T12:36:37.789Z</time></trkpt><trkpt lat="43.047755" lon="11.9257767"><ele>250.0</ele><time>2026-05-02T12:36:38.789Z</time></trkpt><trkpt lat="43.04771" lon="11.925625"><ele>250.33333333333331</ele><time>2026-05-02T12:36:39.789Z</time></trkpt><trkpt lat="43.04767" lon="11.9254917"><ele>250.66666666666666</ele><time>2026-05-02T12:36:40.79Z</time></trkpt><trkpt lat="43.04764" lon="11.9253867"><ele>251.0</ele><time>2026-05-02T12:36:41.79Z</time></trkpt><trkpt lat="43.0475967" lon="11.9252717"><ele>251.33333333333331</ele><time>2026-05-02T12:36:43.79Z</time></trkpt><trkpt lat="43.0475533" lon="11.9251533"><ele>251.66666666666666</ele><time>2026-05-02T12:36:59.789Z</time></trkpt><trkpt lat="43.047525" lon="11.9250717"><ele>252.0</ele><time>2026-05-02T12:37:00.79Z</time></trkpt><trkpt lat="43.0474867" lon="11.9249667"><ele>251.5</ele><time>2026-05-02T12:37:01.789Z</time></trkpt><trkpt lat="43.0474467" lon="11.9248383"><ele>251.0</ele><time>2026-05-02T12:37:02.789Z</time></trkpt><trkpt lat="43.0474017" lon="11.9246933"><ele>250.5</ele><time>2026-05-02T12:37:03.792Z</time></trkpt><trkpt lat="43.0473567" lon="11.9245317"><ele>250.0</ele><time>2026-05-02T12:37:04.789Z</time></trkpt><trkpt lat="43.0473067" lon="11.9243583"><ele>250.0</ele><time>2026-05-02T12:37:05.789Z</time></trkpt><trkpt lat="43.047255" lon="11.92417"><ele>250.0</ele><time>2026-05-02T12:37:06.789Z</time></trkpt><trkpt lat="43.0471983" lon="11.9239717"><ele>250.0</ele><time>2026-05-02T12:37:07.79Z</time></trkpt><trkpt lat="43.0471417" lon="11.9237667"><ele>250.0</ele><time>2026-05-02T12:37:08.789Z</time></trkpt><trkpt lat="43.047085" lon="11.92356"><ele>250.0</ele><time>2026-05-02T12:37:09.789Z</time></trkpt><trkpt lat="43.0470317" lon="11.9233517"><ele>250.0</ele><time>2026-05-02T12:37:10.789Z</time></trkpt><trkpt lat="43.0469783" lon="11.923155"><ele>250.66666666666666</ele><time>2026-05-02T12:37:11.789Z</time></trkpt><trkpt lat="43.0469267" lon="11.922965"><ele>251.33333333333331</ele><time>2026-05-02T12:37:12.79Z</time></trkpt><trkpt lat="43.0468717" lon="11.9227767"><ele>252.0</ele><time>2026-05-02T12:37:13.79Z</time></trkpt><trkpt lat="43.0468167" lon="11.9225767"><ele>252.66666666666669</ele><time>2026-05-02T12:37:14.79Z</time></trkpt><trkpt lat="43.04676" lon="11.9223767"><ele>253.33333333333334</ele><time>2026-05-02T12:37:15.785Z</time></trkpt><trkpt lat="43.0467033" lon="11.922175"><ele>254.0</ele><time>2026-05-02T12:37:16.79Z</time></trkpt><trkpt lat="43.0466433" lon="11.9219683"><ele>253.33333333333334</ele><time>2026-05-02T12:37:17.789Z</time></trkpt><trkpt lat="43.0465817" lon="11.92175"><ele>252.66666666666669</ele><time>2026-05-02T12:37:18.79Z</time></trkpt><trkpt lat="43.04652" lon="11.9215283"><ele>252.0</ele><time>2026-05-02T12:37:19.786Z</time></trkpt><trkpt lat="43.0464533" lon="11.9213017"><ele>252.0</ele><time>2026-05-02T12:37:20.789Z</time></trkpt><trkpt lat="43.0463867" lon="11.921065"><ele>252.0</ele><time>2026-05-02T12:37:21.79Z</time></trkpt><trkpt lat="43.0463167" lon="11.920825"><ele>252.0</ele><time>2026-05-02T12:37:22.789Z</time></trkpt><trkpt lat="43.0462467" lon="11.9205833"><ele>252.0</ele><time>2026-05-02T12:37:23.789Z</time></trkpt><trkpt lat="43.0461767" lon="11.9203383"><ele>252.0</ele><time>2026-05-02T12:37:24.789Z</time></trkpt><trkpt lat="43.046105" lon="11.9200917"><ele>252.0</ele><time>2026-05-02T12:37:25.789Z</time></trkpt><trkpt lat="43.046035" lon="11.9198417"><ele>252.33333333333331</ele><time>2026-05-02T12:37:26.79Z</time></trkpt><trkpt lat="43.0459617" lon="11.9195917"><ele>252.66666666666666</ele><time>2026-05-02T12:37:27.786Z</time></trkpt><trkpt lat="43.0458883" lon="11.9193433"><ele>253.0</ele><time>2026-05-02T12:37:28.786Z</time></trkpt><trkpt lat="43.0458117" lon="11.919095"><ele>252.33333333333331</ele><time>2026-05-02T12:37:29.787Z</time></trkpt><trkpt lat="43.045735" lon="11.918845"><ele>251.66666666666669</ele><time>2026-05-02T12:37:30.787Z</time></trkpt><trkpt lat="43.04566" lon="11.9185917"><ele>251.0</ele><time>2026-05-02T12:37:31.787Z</time></trkpt><trkpt lat="43.0455867" lon="11.9183383"><ele>251.0</ele><time>2026-05-02T12:37:32.787Z</time></trkpt><trkpt lat="43.045515" lon="11.9180833"><ele>251.0</ele><time>2026-05-02T12:37:33.786Z</time></trkpt><trkpt lat="43.0454417" lon="11.9178283"><ele>251.0</ele><time>2026-05-02T12:37:34.786Z</time></trkpt><trkpt lat="43.0453717" lon="11.9175767"><ele>250.66666666666669</ele><time>2026-05-02T12:37:35.786Z</time></trkpt><trkpt lat="43.0453017" lon="11.917325"><ele>250.33333333333331</ele><time>2026-05-02T12:37:36.786Z</time></trkpt><trkpt lat="43.0452317" lon="11.917075"><ele>250.0</ele><time>2026-05-02T12:37:37.787Z</time></trkpt><trkpt lat="43.04516" lon="11.916825"><ele>250.0</ele><time>2026-05-02T12:37:38.787Z</time></trkpt><trkpt lat="43.04509" lon="11.9165767"><ele>250.0</ele><time>2026-05-02T12:37:39.787Z</time></trkpt><trkpt lat="43.04502" lon="11.91633"><ele>250.0</ele><time>2026-05-02T12:37:40.787Z</time></trkpt><trkpt lat="43.04495" lon="11.916085"><ele>250.66666666666666</ele><time>2026-05-02T12:37:41.787Z</time></trkpt><trkpt lat="43.04488" lon="11.915845"><ele>251.33333333333331</ele><time>2026-05-02T12:37:42.787Z</time></trkpt><trkpt lat="43.0448" lon="11.915615"><ele>252.0</ele><time>2026-05-02T12:37:43.786Z</time></trkpt><trkpt lat="43.0447033" lon="11.9154017"><ele>252.0</ele><time>2026-05-02T12:37:44.787Z</time></trkpt><trkpt lat="43.0445883" lon="11.9152083"><ele>252.0</ele><time>2026-05-02T12:37:45.786Z</time></trkpt><trkpt lat="43.0443217" lon="11.9148483"><ele>253.0</ele><time>2026-05-02T12:37:47.787Z</time></trkpt><trkpt lat="43.0441817" lon="11.9146683"><ele>254.0</ele><time>2026-05-02T12:37:48.786Z</time></trkpt><trkpt lat="43.0440517" lon="11.9144817"><ele>255.0</ele><time>2026-05-02T12:37:49.787Z</time></trkpt><trkpt lat="43.04393" lon="11.9142933"><ele>260.6666666666667</ele><time>2026-05-02T12:37:50.787Z</time></trkpt><trkpt lat="43.0438117" lon="11.9141183"><ele>266.33333333333337</ele><time>2026-05-02T12:37:51.786Z</time></trkpt><trkpt lat="43.04368" lon="11.9139683"><ele>272.0</ele><time>2026-05-02T12:37:52.787Z</time></trkpt><trkpt lat="43.043535" lon="11.91385"><ele>272.0</ele><time>2026-05-02T12:37:53.786Z</time></trkpt><trkpt lat="43.0433817" lon="11.9137483"><ele>272.0</ele><time>2026-05-02T12:37:54.789Z</time></trkpt><trkpt lat="43.0432167" lon="11.9136533"><ele>272.0</ele><time>2026-05-02T12:37:55.789Z</time></trkpt><trkpt lat="43.0430517" lon="11.9135583"><ele>272.6666666666667</ele><time>2026-05-02T12:37:56.789Z</time></trkpt><trkpt lat="43.0429" lon="11.9134583"><ele>273.3333333333333</ele><time>2026-05-02T12:37:57.786Z</time></trkpt><trkpt lat="43.0427567" lon="11.9133617"><ele>274.0</ele><time>2026-05-02T12:37:58.786Z</time></trkpt><trkpt lat="43.0426167" lon="11.9132633"><ele>274.0</ele><time>2026-05-02T12:37:59.786Z</time></trkpt><trkpt lat="43.0424817" lon="11.9131617"><ele>274.0</ele><time>2026-05-02T12:38:00.789Z</time></trkpt><trkpt lat="43.0423517" lon="11.9130533"><ele>274.0</ele><time>2026-05-02T12:38:01.786Z</time></trkpt><trkpt lat="43.0422133" lon="11.9129367"><ele>275.66666666666663</ele><time>2026-05-02T12:38:02.786Z</time></trkpt><trkpt lat="43.042065" lon="11.912815"><ele>277.3333333333333</ele><time>2026-05-02T12:38:03.786Z</time></trkpt><trkpt lat="43.0419067" lon="11.9126883"><ele>279.0</ele><time>2026-05-02T12:38:04.786Z</time></trkpt><trkpt lat="43.0417433" lon="11.91256"><ele>282.0</ele><time>2026-05-02T12:38:05.786Z</time></trkpt><trkpt lat="43.04158" lon="11.9124317"><ele>285.0</ele><time>2026-05-02T12:38:06.786Z</time></trkpt><trkpt lat="43.04142" lon="11.9123033"><ele>288.0</ele><time>2026-05-02T12:38:07.787Z</time></trkpt><trkpt lat="43.04126" lon="11.9121733"><ele>288.0</ele><time>2026-05-02T12:38:08.786Z</time></trkpt><trkpt lat="43.0411083" lon="11.9120433"><ele>288.0</ele><time>2026-05-02T12:38:09.786Z</time></trkpt><trkpt lat="43.04096" lon="11.91191"><ele>288.0</ele><time>2026-05-02T12:38:10.788Z</time></trkpt><trkpt lat="43.0408183" lon="11.9117733"><ele>287.0</ele><time>2026-05-02T12:38:11.787Z</time></trkpt><trkpt lat="43.0406783" lon="11.911635"><ele>286.0</ele><time>2026-05-02T12:38:12.786Z</time></trkpt><trkpt lat="43.0405383" lon="11.9115"><ele>285.0</ele><time>2026-05-02T12:38:13.786Z</time></trkpt><trkpt lat="43.0403983" lon="11.911365"><ele>285.0</ele><time>2026-05-02T12:38:14.786Z</time></trkpt><trkpt lat="43.0402583" lon="11.9112283"><ele>285.0</ele><time>2026-05-02T12:38:15.786Z</time></trkpt><trkpt lat="43.0401167" lon="11.9110867"><ele>285.0</ele><time>2026-05-02T12:38:16.786Z</time></trkpt><trkpt lat="43.0399683" lon="11.91094"><ele>287.0</ele><time>2026-05-02T12:38:17.786Z</time></trkpt><trkpt lat="43.0398167" lon="11.910795"><ele>289.0</ele><time>2026-05-02T12:38:18.789Z</time></trkpt><trkpt lat="43.0396617" lon="11.91065"><ele>291.0</ele><time>2026-05-02T12:38:19.789Z</time></trkpt><trkpt lat="43.0395017" lon="11.9105117"><ele>291.0</ele><time>2026-05-02T12:38:20.79Z</time></trkpt><trkpt lat="43.0393367" lon="11.910375"><ele>291.0</ele><time>2026-05-02T12:38:21.79Z</time></trkpt><trkpt lat="43.03918" lon="11.9102417"><ele>291.0</ele><time>2026-05-02T12:38:22.789Z</time></trkpt><trkpt lat="43.0390283" lon="11.9100917"><ele>291.6666666666667</ele><time>2026-05-02T12:38:23.79Z</time></trkpt><trkpt lat="43.0388983" lon="11.9099217"><ele>292.33333333333337</ele><time>2026-05-02T12:38:24.789Z</time></trkpt><trkpt lat="43.0387683" lon="11.90974"><ele>293.0</ele><time>2026-05-02T12:38:25.791Z</time></trkpt><trkpt lat="43.038645" lon="11.90956"><ele>293.0</ele><time>2026-05-02T12:38:26.787Z</time></trkpt><trkpt lat="43.03851" lon="11.9093867"><ele>293.0</ele><time>2026-05-02T12:38:27.787Z</time></trkpt><trkpt lat="43.0383667" lon="11.9092233"><ele>293.0</ele><time>2026-05-02T12:38:28.786Z</time></trkpt><trkpt lat="43.0382183" lon="11.909065"><ele>290.6666666666667</ele><time>2026-05-02T12:38:29.786Z</time></trkpt><trkpt lat="43.0380683" lon="11.9089117"><ele>288.3333333333333</ele><time>2026-05-02T12:38:30.786Z</time></trkpt><trkpt lat="43.0379133" lon="11.9087717"><ele>286.0</ele><time>2026-05-02T12:38:31.787Z</time></trkpt><trkpt lat="43.0377483" lon="11.9086533"><ele>286.0</ele><time>2026-05-02T12:38:32.786Z</time></trkpt><trkpt lat="43.0375733" lon="11.908565"><ele>286.0</ele><time>2026-05-02T12:38:33.785Z</time></trkpt><trkpt lat="43.0373883" lon="11.9085083"><ele>286.0</ele><time>2026-05-02T12:38:34.785Z</time></trkpt><trkpt lat="43.0372017" lon="11.9084817"><ele>285.0</ele><time>2026-05-02T12:38:35.785Z</time></trkpt><trkpt lat="43.0370183" lon="11.9084667"><ele>284.0</ele><time>2026-05-02T12:38:36.785Z</time></trkpt><trkpt lat="43.0368383" lon="11.9084583"><ele>283.0</ele><time>2026-05-02T12:38:37.785Z</time></trkpt><trkpt lat="43.0366583" lon="11.9084433"><ele>283.66666666666663</ele><time>2026-05-02T12:38:38.788Z</time></trkpt><trkpt lat="43.0364783" lon="11.90843"><ele>284.3333333333333</ele><time>2026-05-02T12:38:39.789Z</time></trkpt><trkpt lat="43.0362983" lon="11.9084167"><ele>285.0</ele><time>2026-05-02T12:38:40.788Z</time></trkpt><trkpt lat="43.0361183" lon="11.9084067"><ele>286.0</ele><time>2026-05-02T12:38:41.788Z</time></trkpt><trkpt lat="43.0359433" lon="11.9084033"><ele>287.0</ele><time>2026-05-02T12:38:42.788Z</time></trkpt><trkpt lat="43.0357767" lon="11.9083983"><ele>288.0</ele><time>2026-05-02T12:38:43.789Z</time></trkpt><trkpt lat="43.0356183" lon="11.9083883"><ele>288.0</ele><time>2026-05-02T12:38:44.789Z</time></trkpt><trkpt lat="43.0354683" lon="11.9083683"><ele>288.0</ele><time>2026-05-02T12:38:45.786Z</time></trkpt><trkpt lat="43.0353217" lon="11.9083317"><ele>288.0</ele><time>2026-05-02T12:38:46.786Z</time></trkpt><trkpt lat="43.03518" lon="11.908275"><ele>288.0</ele><time>2026-05-02T12:38:47.79Z</time></trkpt><trkpt lat="43.035045" lon="11.90819"><ele>285.0</ele><time>2026-05-02T12:38:48.789Z</time></trkpt><trkpt lat="43.0349067" lon="11.9080783"><ele>282.0</ele><time>2026-05-02T12:38:49.79Z</time></trkpt><trkpt lat="43.0347667" lon="11.90795"><ele>279.0</ele><time>2026-05-02T12:38:50.79Z</time></trkpt><trkpt lat="43.0346317" lon="11.9078267"><ele>279.0</ele><time>2026-05-02T12:38:51.789Z</time></trkpt><trkpt lat="43.0345" lon="11.907705"><ele>279.0</ele><time>2026-05-02T12:38:52.789Z</time></trkpt><trkpt lat="43.03438" lon="11.9075817"><ele>279.0</ele><time>2026-05-02T12:38:53.788Z</time></trkpt><trkpt lat="43.0342667" lon="11.907445"><ele>279.0</ele><time>2026-05-02T12:38:54.789Z</time></trkpt><trkpt lat="43.0341633" lon="11.90729"><ele>279.0</ele><time>2026-05-02T12:38:55.788Z</time></trkpt><trkpt lat="43.0340717" lon="11.9071117"><ele>279.0</ele><time>2026-05-02T12:38:56.788Z</time></trkpt><trkpt lat="43.03399" lon="11.90694"><ele>277.25</ele><time>2026-05-02T12:38:57.785Z</time></trkpt><trkpt lat="43.0339117" lon="11.9067733"><ele>275.5</ele><time>2026-05-02T12:38:58.785Z</time></trkpt><trkpt lat="43.0338383" lon="11.9066067"><ele>273.75</ele><time>2026-05-02T12:38:59.788Z</time></trkpt><trkpt lat="43.0337767" lon="11.9064283"><ele>272.0</ele><time>2026-05-02T12:39:00.787Z</time></trkpt><trkpt lat="43.033745" lon="11.9062317"><ele>272.0</ele><time>2026-05-02T12:39:01.786Z</time></trkpt><trkpt lat="43.03374" lon="11.9060233"><ele>272.0</ele><time>2026-05-02T12:39:02.786Z</time></trkpt><trkpt lat="43.0337533" lon="11.9058017"><ele>272.0</ele><time>2026-05-02T12:39:03.786Z</time></trkpt><trkpt lat="43.0337883" lon="11.9055817"><ele>275.6666666666667</ele><time>2026-05-02T12:39:04.787Z</time></trkpt><trkpt lat="43.0338333" lon="11.9053517"><ele>279.3333333333333</ele><time>2026-05-02T12:39:05.787Z</time></trkpt><trkpt lat="43.0338817" lon="11.905125"><ele>283.0</ele><time>2026-05-02T12:39:06.786Z</time></trkpt><trkpt lat="43.0339367" lon="11.9049033"><ele>283.3333333333333</ele><time>2026-05-02T12:39:07.786Z</time></trkpt><trkpt lat="43.03399" lon="11.904685"><ele>283.6666666666667</ele><time>2026-05-02T12:39:08.79Z</time></trkpt><trkpt lat="43.0340267" lon="11.9044817"><ele>284.0</ele><time>2026-05-02T12:39:09.789Z</time></trkpt><trkpt lat="43.0340417" lon="11.90429"><ele>283.6666666666667</ele><time>2026-05-02T12:39:10.785Z</time></trkpt><trkpt lat="43.0340333" lon="11.9040883"><ele>283.3333333333333</ele><time>2026-05-02T12:39:11.786Z</time></trkpt><trkpt lat="43.0340033" lon="11.9038733"><ele>283.0</ele><time>2026-05-02T12:39:12.789Z</time></trkpt><trkpt lat="43.0339633" lon="11.9036483"><ele>283.0</ele><time>2026-05-02T12:39:13.789Z</time></trkpt><trkpt lat="43.0339167" lon="11.903415"><ele>283.0</ele><time>2026-05-02T12:39:14.788Z</time></trkpt><trkpt lat="43.0338683" lon="11.9031717"><ele>283.0</ele><time>2026-05-02T12:39:15.79Z</time></trkpt><trkpt lat="43.0338167" lon="11.90293"><ele>284.3333333333333</ele><time>2026-05-02T12:39:16.788Z</time></trkpt><trkpt lat="43.03376" lon="11.9026883"><ele>285.6666666666667</ele><time>2026-05-02T12:39:17.788Z</time></trkpt><trkpt lat="43.0336917" lon="11.9024517"><ele>287.0</ele><time>2026-05-02T12:39:18.789Z</time></trkpt><trkpt lat="43.0336167" lon="11.902225"><ele>289.33333333333337</ele><time>2026-05-02T12:39:19.789Z</time></trkpt><trkpt lat="43.0335433" lon="11.9020133"><ele>291.6666666666667</ele><time>2026-05-02T12:39:20.79Z</time></trkpt><trkpt lat="43.0334783" lon="11.9018183"><ele>294.0</ele><time>2026-05-02T12:39:21.789Z</time></trkpt><trkpt lat="43.0334367" lon="11.9016233"><ele>296.3333333333333</ele><time>2026-05-02T12:39:22.788Z</time></trkpt><trkpt lat="43.0334283" lon="11.9014267"><ele>298.66666666666663</ele><time>2026-05-02T12:39:23.79Z</time></trkpt><trkpt lat="43.0334467" lon="11.9012167"><ele>301.0</ele><time>2026-05-02T12:39:24.789Z</time></trkpt><trkpt lat="43.0334783" lon="11.90098"><ele>301.0</ele><time>2026-05-02T12:39:25.789Z</time></trkpt><trkpt lat="43.0335033" lon="11.900735"><ele>301.0</ele><time>2026-05-02T12:39:26.789Z</time></trkpt><trkpt lat="43.033525" lon="11.9004833"><ele>301.0</ele><time>2026-05-02T12:39:27.785Z</time></trkpt><trkpt lat="43.0335333" lon="11.9002483"><ele>301.0</ele><time>2026-05-02T12:39:28.785Z</time></trkpt><trkpt lat="43.0335367" lon="11.90003"><ele>301.0</ele><time>2026-05-02T12:39:29.787Z</time></trkpt><trkpt lat="43.0335267" lon="11.89983"><ele>301.0</ele><time>2026-05-02T12:39:30.785Z</time></trkpt><trkpt lat="43.0334933" lon="11.8996517"><ele>301.0</ele><time>2026-05-02T12:39:31.785Z</time></trkpt><trkpt lat="43.03343" lon="11.8994933"><ele>301.0</ele><time>2026-05-02T12:39:32.787Z</time></trkpt><trkpt lat="43.0333367" lon="11.8993467"><ele>301.0</ele><time>2026-05-02T12:39:33.789Z</time></trkpt><trkpt lat="43.0332217" lon="11.8992183"><ele>301.0</ele><time>2026-05-02T12:39:34.785Z</time></trkpt><trkpt lat="43.0330833" lon="11.8991183"><ele>301.0</ele><time>2026-05-02T12:39:35.788Z</time></trkpt><trkpt lat="43.0329333" lon="11.8990233"><ele>301.3333333333333</ele><time>2026-05-02T12:39:36.79Z</time></trkpt><trkpt lat="43.0327633" lon="11.89893"><ele>301.6666666666667</ele><time>2026-05-02T12:39:37.789Z</time></trkpt><trkpt lat="43.0326" lon="11.8988417"><ele>302.0</ele><time>2026-05-02T12:39:38.786Z</time></trkpt><trkpt lat="43.0324333" lon="11.8987517"><ele>300.0</ele><time>2026-05-02T12:39:39.786Z</time></trkpt><trkpt lat="43.0322567" lon="11.8986517"><ele>298.0</ele><time>2026-05-02T12:39:40.785Z</time></trkpt><trkpt lat="43.03208" lon="11.8985517"><ele>296.0</ele><time>2026-05-02T12:39:41.79Z</time></trkpt><trkpt lat="43.0318967" lon="11.898455"><ele>298.0</ele><time>2026-05-02T12:39:42.789Z</time></trkpt><trkpt lat="43.0317167" lon="11.8983517"><ele>300.0</ele><time>2026-05-02T12:39:43.789Z</time></trkpt><trkpt lat="43.03155" lon="11.89824"><ele>302.0</ele><time>2026-05-02T12:39:44.79Z</time></trkpt><trkpt lat="43.031395" lon="11.8981167"><ele>303.0</ele><time>2026-05-02T12:39:45.787Z</time></trkpt><trkpt lat="43.0312567" lon="11.8979883"><ele>304.0</ele><time>2026-05-02T12:39:46.79Z</time></trkpt><trkpt lat="43.0311317" lon="11.89786"><ele>305.0</ele><time>2026-05-02T12:39:47.789Z</time></trkpt><trkpt lat="43.0310017" lon="11.89774"><ele>305.0</ele><time>2026-05-02T12:39:48.789Z</time></trkpt><trkpt lat="43.0308517" lon="11.8976417"><ele>305.0</ele><time>2026-05-02T12:39:49.789Z</time></trkpt><trkpt lat="43.0306867" lon="11.8975733"><ele>305.0</ele><time>2026-05-02T12:39:50.786Z</time></trkpt><trkpt lat="43.0305083" lon="11.8975367"><ele>304.0</ele><time>2026-05-02T12:39:51.79Z</time></trkpt><trkpt lat="43.03032" lon="11.89752"><ele>303.0</ele><time>2026-05-02T12:39:52.79Z</time></trkpt><trkpt lat="43.0301183" lon="11.8975"><ele>302.0</ele><time>2026-05-02T12:39:53.79Z</time></trkpt><trkpt lat="43.0299117" lon="11.8974667"><ele>299.6666666666667</ele><time>2026-05-02T12:39:54.789Z</time></trkpt><trkpt lat="43.02971" lon="11.89742"><ele>297.3333333333333</ele><time>2026-05-02T12:39:55.789Z</time></trkpt><trkpt lat="43.029515" lon="11.8973567"><ele>295.0</ele><time>2026-05-02T12:39:56.786Z</time></trkpt><trkpt lat="43.0293183" lon="11.8972833"><ele>294.3333333333333</ele><time>2026-05-02T12:39:57.785Z</time></trkpt><trkpt lat="43.0291317" lon="11.8972033"><ele>293.6666666666667</ele><time>2026-05-02T12:39:58.787Z</time></trkpt><trkpt lat="43.0289633" lon="11.8971117"><ele>293.0</ele><time>2026-05-02T12:39:59.787Z</time></trkpt><trkpt lat="43.0288083" lon="11.8970083"><ele>293.0</ele><time>2026-05-02T12:40:00.786Z</time></trkpt><trkpt lat="43.0286517" lon="11.896885"><ele>293.0</ele><time>2026-05-02T12:40:01.787Z</time></trkpt><trkpt lat="43.0285083" lon="11.89674"><ele>293.0</ele><time>2026-05-02T12:40:02.787Z</time></trkpt><trkpt lat="43.028375" lon="11.896565"><ele>293.33333333333337</ele><time>2026-05-02T12:40:03.789Z</time></trkpt><trkpt lat="43.0282483" lon="11.8963767"><ele>293.6666666666667</ele><time>2026-05-02T12:40:04.789Z</time></trkpt><trkpt lat="43.0281283" lon="11.8961967"><ele>294.0</ele><time>2026-05-02T12:40:05.79Z</time></trkpt><trkpt lat="43.0280167" lon="11.896025"><ele>299.6666666666667</ele><time>2026-05-02T12:40:06.789Z</time></trkpt><trkpt lat="43.02791" lon="11.895855"><ele>305.33333333333337</ele><time>2026-05-02T12:40:07.789Z</time></trkpt><trkpt lat="43.0278133" lon="11.8956767"><ele>311.0</ele><time>2026-05-02T12:40:08.79Z</time></trkpt><trkpt lat="43.027735" lon="11.895485"><ele>311.0</ele><time>2026-05-02T12:40:09.785Z</time></trkpt><trkpt lat="43.0276683" lon="11.8952783"><ele>311.0</ele><time>2026-05-02T12:40:10.79Z</time></trkpt><trkpt lat="43.02761" lon="11.89506"><ele>311.0</ele><time>2026-05-02T12:40:11.789Z</time></trkpt><trkpt lat="43.02755" lon="11.8948433"><ele>316.0</ele><time>2026-05-02T12:40:12.789Z</time></trkpt><trkpt lat="43.02748" lon="11.8946417"><ele>321.0</ele><time>2026-05-02T12:40:13.787Z</time></trkpt><trkpt lat="43.027395" lon="11.8944417"><ele>326.0</ele><time>2026-05-02T12:40:14.789Z</time></trkpt><trkpt lat="43.0272883" lon="11.89425"><ele>330.33333333333337</ele><time>2026-05-02T12:40:15.789Z</time></trkpt><trkpt lat="43.0271633" lon="11.89407"><ele>334.6666666666667</ele><time>2026-05-02T12:40:16.786Z</time></trkpt><trkpt lat="43.0270283" lon="11.8938917"><ele>339.0</ele><time>2026-05-02T12:40:17.789Z</time></trkpt><trkpt lat="43.026885" lon="11.8937167"><ele>339.0</ele><time>2026-05-02T12:40:18.79Z</time></trkpt><trkpt lat="43.02673" lon="11.8935483"><ele>339.0</ele><time>2026-05-02T12:40:19.79Z</time></trkpt><trkpt lat="43.0265717" lon="11.89338"><ele>339.0</ele><time>2026-05-02T12:40:20.79Z</time></trkpt><trkpt lat="43.026415" lon="11.8932217"><ele>339.0</ele><time>2026-05-02T12:40:21.79Z</time></trkpt><trkpt lat="43.0262667" lon="11.893075"><ele>339.0</ele><time>2026-05-02T12:40:22.789Z</time></trkpt><trkpt lat="43.0261333" lon="11.8929467"><ele>339.0</ele><time>2026-05-02T12:40:23.79Z</time></trkpt><trkpt lat="43.0260067" lon="11.892835"><ele>339.0</ele><time>2026-05-02T12:40:24.79Z</time></trkpt><trkpt lat="43.0258817" lon="11.8927367"><ele>339.0</ele><time>2026-05-02T12:40:25.79Z</time></trkpt><trkpt lat="43.0257683" lon="11.8926433"><ele>339.0</ele><time>2026-05-02T12:40:26.789Z</time></trkpt><trkpt lat="43.0256583" lon="11.8925617"><ele>339.0</ele><time>2026-05-02T12:40:27.79Z</time></trkpt><trkpt lat="43.0255467" lon="11.8924933"><ele>340.25</ele><time>2026-05-02T12:40:28.789Z</time></trkpt><trkpt lat="43.025425" lon="11.8924417"><ele>341.5</ele><time>2026-05-02T12:40:29.79Z</time></trkpt><trkpt lat="43.0252917" lon="11.8924133"><ele>342.75</ele><time>2026-05-02T12:40:30.787Z</time></trkpt><trkpt lat="43.0251517" lon="11.8923983"><ele>344.0</ele><time>2026-05-02T12:40:31.789Z</time></trkpt><trkpt lat="43.025005" lon="11.892385"><ele>346.6666666666667</ele><time>2026-05-02T12:40:32.789Z</time></trkpt><trkpt lat="43.0248467" lon="11.892375"><ele>349.3333333333333</ele><time>2026-05-02T12:40:33.789Z</time></trkpt><trkpt lat="43.024685" lon="11.8923567"><ele>352.0</ele><time>2026-05-02T12:40:34.786Z</time></trkpt><trkpt lat="43.0245217" lon="11.89232"><ele>352.0</ele><time>2026-05-02T12:40:35.786Z</time></trkpt><trkpt lat="43.0243683" lon="11.8922583"><ele>352.0</ele><time>2026-05-02T12:40:36.786Z</time></trkpt><trkpt lat="43.0242233" lon="11.89218"><ele>352.0</ele><time>2026-05-02T12:40:37.789Z</time></trkpt><trkpt lat="43.0240767" lon="11.8921017"><ele>353.25</ele><time>2026-05-02T12:40:38.79Z</time></trkpt><trkpt lat="43.0239383" lon="11.8920317"><ele>354.5</ele><time>2026-05-02T12:40:39.789Z</time></trkpt><trkpt lat="43.023815" lon="11.8919683"><ele>355.75</ele><time>2026-05-02T12:40:40.789Z</time></trkpt><trkpt lat="43.023705" lon="11.8919183"><ele>357.0</ele><time>2026-05-02T12:40:41.791Z</time></trkpt><trkpt lat="43.023625" lon="11.89188"><ele>357.0</ele><time>2026-05-02T12:40:42.79Z</time></trkpt><trkpt lat="43.0235433" lon="11.8918217"><ele>357.0</ele><time>2026-05-02T12:40:44.79Z</time></trkpt><trkpt lat="43.0235517" lon="11.8917283"><ele>357.0</ele><time>2026-05-02T12:40:46.789Z</time></trkpt><trkpt lat="43.0236217" lon="11.8915717"><ele>357.0</ele><time>2026-05-02T12:40:48.789Z</time></trkpt><trkpt lat="43.02367" lon="11.89146"><ele>357.0</ele><time>2026-05-02T12:40:49.789Z</time></trkpt><trkpt lat="43.023725" lon="11.8913417"><ele>356.0</ele><time>2026-05-02T12:40:50.789Z</time></trkpt><trkpt lat="43.0237867" lon="11.8912033"><ele>355.0</ele><time>2026-05-02T12:40:51.789Z</time></trkpt><trkpt lat="43.0238517" lon="11.89106"><ele>354.0</ele><time>2026-05-02T12:40:52.789Z</time></trkpt><trkpt lat="43.0239183" lon="11.890915"><ele>353.0</ele><time>2026-05-02T12:40:53.789Z</time></trkpt><trkpt lat="43.0239833" lon="11.8907717"><ele>352.59999999999997</ele><time>2026-05-02T12:40:54.789Z</time></trkpt><trkpt lat="43.024045" lon="11.8906383"><ele>352.2</ele><time>2026-05-02T12:40:55.789Z</time></trkpt><trkpt lat="43.0241017" lon="11.8905167"><ele>351.8</ele><time>2026-05-02T12:40:56.789Z</time></trkpt><trkpt lat="43.0241517" lon="11.8904117"><ele>351.4</ele><time>2026-05-02T12:40:57.789Z</time></trkpt><trkpt lat="43.0241867" lon="11.890315"><ele>351.0</ele><time>2026-05-02T12:40:58.79Z</time></trkpt><trkpt lat="43.0242033" lon="11.8902283"><ele>351.5</ele><time>2026-05-02T12:40:59.79Z</time></trkpt><trkpt lat="43.0241917" lon="11.89009"><ele>352.0</ele><time>2026-05-02T12:41:01.789Z</time></trkpt><trkpt lat="43.0242067" lon="11.88998"><ele>352.5</ele><time>2026-05-02T12:41:04.79Z</time></trkpt><trkpt lat="43.0242733" lon="11.889875"><ele>353.0</ele><time>2026-05-02T12:48:15.787Z</time></trkpt><trkpt lat="43.0243267" lon="11.8898017"><ele>353.5</ele><time>2026-05-02T12:48:18.786Z</time></trkpt><trkpt lat="43.024395" lon="11.8897917"><ele>354.0</ele><time>2026-05-02T12:48:21.786Z</time></trkpt><trkpt lat="43.0244633" lon="11.8897683"><ele>354.0</ele><time>2026-05-02T12:48:23.788Z</time></trkpt><trkpt lat="43.0245583" lon="11.8896833"><ele>354.0</ele><time>2026-05-02T12:48:25.787Z</time></trkpt><trkpt lat="43.024605" lon="11.889625"><ele>354.0</ele><time>2026-05-02T12:48:26.787Z</time></trkpt><trkpt lat="43.0246567" lon="11.8895417"><ele>354.0</ele><time>2026-05-02T12:48:27.786Z</time></trkpt><trkpt lat="43.0247133" lon="11.88941"><ele>354.0</ele><time>2026-05-02T12:48:28.789Z</time></trkpt><trkpt lat="43.0247833" lon="11.8892467"><ele>353.25</ele><time>2026-05-02T12:48:29.787Z</time></trkpt><trkpt lat="43.0248567" lon="11.8890867"><ele>352.5</ele><time>2026-05-02T12:48:30.788Z</time></trkpt><trkpt lat="43.024935" lon="11.8889133"><ele>351.75</ele><time>2026-05-02T12:48:31.787Z</time></trkpt><trkpt lat="43.025015" lon="11.8887433"><ele>351.0</ele><time>2026-05-02T12:48:32.787Z</time></trkpt><trkpt lat="43.0251017" lon="11.8885717"><ele>351.0</ele><time>2026-05-02T12:48:33.786Z</time></trkpt><trkpt lat="43.025195" lon="11.888395"><ele>351.0</ele><time>2026-05-02T12:48:34.786Z</time></trkpt><trkpt lat="43.0252933" lon="11.888225"><ele>351.0</ele><time>2026-05-02T12:48:35.786Z</time></trkpt><trkpt lat="43.02539" lon="11.8880533"><ele>351.0</ele><time>2026-05-02T12:48:36.787Z</time></trkpt><trkpt lat="43.0254883" lon="11.8878783"><ele>351.0</ele><time>2026-05-02T12:48:37.788Z</time></trkpt><trkpt lat="43.0255833" lon="11.8876933"><ele>351.0</ele><time>2026-05-02T12:48:38.786Z</time></trkpt><trkpt lat="43.025675" lon="11.8875067"><ele>351.6666666666667</ele><time>2026-05-02T12:48:39.786Z</time></trkpt><trkpt lat="43.0257667" lon="11.8873267"><ele>352.33333333333337</ele><time>2026-05-02T12:48:40.786Z</time></trkpt><trkpt lat="43.02586" lon="11.88714"><ele>353.0</ele><time>2026-05-02T12:48:41.786Z</time></trkpt><trkpt lat="43.02596" lon="11.8869633"><ele>355.0</ele><time>2026-05-02T12:48:42.787Z</time></trkpt><trkpt lat="43.02606" lon="11.8868017"><ele>357.0</ele><time>2026-05-02T12:48:43.786Z</time></trkpt><trkpt lat="43.0261633" lon="11.8866433"><ele>359.0</ele><time>2026-05-02T12:48:44.786Z</time></trkpt><trkpt lat="43.0262617" lon="11.88649"><ele>360.33333333333337</ele><time>2026-05-02T12:48:45.788Z</time></trkpt><trkpt lat="43.026355" lon="11.8863183"><ele>361.6666666666667</ele><time>2026-05-02T12:48:46.788Z</time></trkpt><trkpt lat="43.026435" lon="11.8861433"><ele>363.0</ele><time>2026-05-02T12:48:47.787Z</time></trkpt><trkpt lat="43.0265017" lon="11.885955"><ele>361.6666666666667</ele><time>2026-05-02T12:48:48.786Z</time></trkpt><trkpt lat="43.0265583" lon="11.88575"><ele>360.33333333333337</ele><time>2026-05-02T12:48:49.787Z</time></trkpt><trkpt lat="43.0266083" lon="11.885535"><ele>359.0</ele><time>2026-05-02T12:48:50.787Z</time></trkpt><trkpt lat="43.0266517" lon="11.8853117"><ele>361.0</ele><time>2026-05-02T12:48:51.786Z</time></trkpt><trkpt lat="43.02669" lon="11.8850867"><ele>363.0</ele><time>2026-05-02T12:48:52.788Z</time></trkpt><trkpt lat="43.026715" lon="11.88486"><ele>365.0</ele><time>2026-05-02T12:48:53.789Z</time></trkpt><trkpt lat="43.02673" lon="11.8846333"><ele>365.0</ele><time>2026-05-02T12:48:54.787Z</time></trkpt><trkpt lat="43.0267417" lon="11.8844133"><ele>365.0</ele><time>2026-05-02T12:48:55.787Z</time></trkpt><trkpt lat="43.0267683" lon="11.8841983"><ele>365.0</ele><time>2026-05-02T12:48:56.786Z</time></trkpt><trkpt lat="43.02682" lon="11.8839983"><ele>365.0</ele><time>2026-05-02T12:48:57.786Z</time></trkpt><trkpt lat="43.026895" lon="11.883825"><ele>365.0</ele><time>2026-05-02T12:48:58.787Z</time></trkpt><trkpt lat="43.0270067" lon="11.88368"><ele>365.0</ele><time>2026-05-02T12:48:59.786Z</time></trkpt><trkpt lat="43.027145" lon="11.8835617"><ele>365.0</ele><time>2026-05-02T12:49:00.788Z</time></trkpt><trkpt lat="43.0273017" lon="11.88346"><ele>365.0</ele><time>2026-05-02T12:49:01.789Z</time></trkpt><trkpt lat="43.0274617" lon="11.8833567"><ele>365.0</ele><time>2026-05-02T12:49:02.787Z</time></trkpt><trkpt lat="43.0276117" lon="11.883245"><ele>366.33333333333337</ele><time>2026-05-02T12:49:03.786Z</time></trkpt><trkpt lat="43.0277467" lon="11.8831083"><ele>367.6666666666667</ele><time>2026-05-02T12:49:04.787Z</time></trkpt><trkpt lat="43.0278633" lon="11.88294"><ele>369.0</ele><time>2026-05-02T12:49:05.789Z</time></trkpt><trkpt lat="43.0279633" lon="11.8827483"><ele>371.3333333333333</ele><time>2026-05-02T12:49:06.788Z</time></trkpt><trkpt lat="43.0280367" lon="11.8825317"><ele>373.66666666666663</ele><time>2026-05-02T12:49:07.786Z</time></trkpt><trkpt lat="43.0280817" lon="11.8822917"><ele>376.0</ele><time>2026-05-02T12:49:08.787Z</time></trkpt><trkpt lat="43.028105" lon="11.882035"><ele>376.0</ele><time>2026-05-02T12:49:09.787Z</time></trkpt><trkpt lat="43.0281233" lon="11.8817683"><ele>376.0</ele><time>2026-05-02T12:49:10.788Z</time></trkpt><trkpt lat="43.0281383" lon="11.8814983"><ele>376.0</ele><time>2026-05-02T12:49:11.787Z</time></trkpt><trkpt lat="43.02815" lon="11.8812317"><ele>373.3333333333333</ele><time>2026-05-02T12:49:12.789Z</time></trkpt><trkpt lat="43.0281583" lon="11.8809633"><ele>370.6666666666667</ele><time>2026-05-02T12:49:13.789Z</time></trkpt><trkpt lat="43.02817" lon="11.880695"><ele>368.0</ele><time>2026-05-02T12:49:14.79Z</time></trkpt><trkpt lat="43.0281717" lon="11.8804233"><ele>365.0</ele><time>2026-05-02T12:49:15.789Z</time></trkpt><trkpt lat="43.02817" lon="11.8801533"><ele>362.0</ele><time>2026-05-02T12:49:16.785Z</time></trkpt><trkpt lat="43.0281633" lon="11.879885"><ele>359.0</ele><time>2026-05-02T12:49:17.789Z</time></trkpt><trkpt lat="43.028155" lon="11.8796183"><ele>358.0</ele><time>2026-05-02T12:49:18.785Z</time></trkpt><trkpt lat="43.02815" lon="11.8793483"><ele>357.0</ele><time>2026-05-02T12:49:19.79Z</time></trkpt><trkpt lat="43.0281383" lon="11.87907"><ele>356.0</ele><time>2026-05-02T12:49:20.789Z</time></trkpt><trkpt lat="43.0281283" lon="11.8787883"><ele>354.6666666666667</ele><time>2026-05-02T12:49:21.789Z</time></trkpt><trkpt lat="43.0281167" lon="11.8785133"><ele>353.3333333333333</ele><time>2026-05-02T12:49:22.789Z</time></trkpt><trkpt lat="43.0281083" lon="11.8782383"><ele>352.0</ele><time>2026-05-02T12:49:23.79Z</time></trkpt><trkpt lat="43.0280967" lon="11.8779567"><ele>351.3333333333333</ele><time>2026-05-02T12:49:24.789Z</time></trkpt><trkpt lat="43.0280867" lon="11.8776683"><ele>350.6666666666667</ele><time>2026-05-02T12:49:25.789Z</time></trkpt><trkpt lat="43.0280783" lon="11.8773767"><ele>350.0</ele><time>2026-05-02T12:49:26.789Z</time></trkpt><trkpt lat="43.02807" lon="11.8770817"><ele>350.0</ele><time>2026-05-02T12:49:27.785Z</time></trkpt><trkpt lat="43.0280583" lon="11.8767867"><ele>350.0</ele><time>2026-05-02T12:49:28.786Z</time></trkpt><trkpt lat="43.0280483" lon="11.8764967"><ele>350.0</ele><time>2026-05-02T12:49:29.785Z</time></trkpt><trkpt lat="43.028035" lon="11.8762117"><ele>347.6666666666667</ele><time>2026-05-02T12:49:30.787Z</time></trkpt><trkpt lat="43.0280133" lon="11.8759317"><ele>345.3333333333333</ele><time>2026-05-02T12:49:31.788Z</time></trkpt><trkpt lat="43.0279867" lon="11.8756567"><ele>343.0</ele><time>2026-05-02T12:49:32.788Z</time></trkpt><trkpt lat="43.0279567" lon="11.875385"><ele>343.0</ele><time>2026-05-02T12:49:33.786Z</time></trkpt><trkpt lat="43.027925" lon="11.8751167"><ele>343.0</ele><time>2026-05-02T12:49:34.786Z</time></trkpt><trkpt lat="43.0278917" lon="11.87485"><ele>343.0</ele><time>2026-05-02T12:49:35.786Z</time></trkpt><trkpt lat="43.027855" lon="11.8745867"><ele>342.3333333333333</ele><time>2026-05-02T12:49:36.786Z</time></trkpt><trkpt lat="43.02782" lon="11.8743267"><ele>341.6666666666667</ele><time>2026-05-02T12:49:37.786Z</time></trkpt><trkpt lat="43.0277817" lon="11.87407"><ele>341.0</ele><time>2026-05-02T12:49:38.789Z</time></trkpt><trkpt lat="43.0277433" lon="11.8738167"><ele>341.0</ele><time>2026-05-02T12:49:39.79Z</time></trkpt><trkpt lat="43.027705" lon="11.873565"><ele>341.0</ele><time>2026-05-02T12:49:40.789Z</time></trkpt><trkpt lat="43.0276667" lon="11.8733183"><ele>341.0</ele><time>2026-05-02T12:49:41.789Z</time></trkpt><trkpt lat="43.02763" lon="11.873075"><ele>342.33333333333337</ele><time>2026-05-02T12:49:42.789Z</time></trkpt><trkpt lat="43.027595" lon="11.8728367"><ele>343.6666666666667</ele><time>2026-05-02T12:49:43.789Z</time></trkpt><trkpt lat="43.0275683" lon="11.8726033"><ele>345.0</ele><time>2026-05-02T12:49:44.786Z</time></trkpt><trkpt lat="43.0275533" lon="11.87237"><ele>346.0</ele><time>2026-05-02T12:49:45.789Z</time></trkpt><trkpt lat="43.0275533" lon="11.8721433"><ele>347.0</ele><time>2026-05-02T12:49:46.79Z</time></trkpt><trkpt lat="43.027565" lon="11.87192"><ele>348.0</ele><time>2026-05-02T12:49:47.789Z</time></trkpt><trkpt lat="43.0275867" lon="11.8716933"><ele>348.3333333333333</ele><time>2026-05-02T12:49:48.786Z</time></trkpt><trkpt lat="43.027605" lon="11.8714617"><ele>348.66666666666663</ele><time>2026-05-02T12:49:49.789Z</time></trkpt><trkpt lat="43.0276267" lon="11.8712233"><ele>349.0</ele><time>2026-05-02T12:49:50.79Z</time></trkpt><trkpt lat="43.0276517" lon="11.8709833"><ele>349.3333333333333</ele><time>2026-05-02T12:49:51.789Z</time></trkpt><trkpt lat="43.027685" lon="11.8707433"><ele>349.6666666666667</ele><time>2026-05-02T12:49:52.786Z</time></trkpt><trkpt lat="43.02773" lon="11.8705067"><ele>350.0</ele><time>2026-05-02T12:49:53.789Z</time></trkpt><trkpt lat="43.027785" lon="11.87027"><ele>349.6666666666667</ele><time>2026-05-02T12:49:54.789Z</time></trkpt><trkpt lat="43.02785" lon="11.870035"><ele>349.3333333333333</ele><time>2026-05-02T12:49:55.791Z</time></trkpt><trkpt lat="43.0279133" lon="11.8698017"><ele>349.0</ele><time>2026-05-02T12:49:56.79Z</time></trkpt><trkpt lat="43.0279733" lon="11.8695717"><ele>349.0</ele><time>2026-05-02T12:49:57.786Z</time></trkpt><trkpt lat="43.028035" lon="11.8693433"><ele>349.0</ele><time>2026-05-02T12:49:58.787Z</time></trkpt><trkpt lat="43.0280917" lon="11.8691167"><ele>349.0</ele><time>2026-05-02T12:49:59.788Z</time></trkpt><trkpt lat="43.0281483" lon="11.8688867"><ele>348.3333333333333</ele><time>2026-05-02T12:50:00.788Z</time></trkpt><trkpt lat="43.0281983" lon="11.8686567"><ele>347.6666666666667</ele><time>2026-05-02T12:50:01.789Z</time></trkpt><trkpt lat="43.0282367" lon="11.8684233"><ele>347.0</ele><time>2026-05-02T12:50:02.789Z</time></trkpt><trkpt lat="43.0282717" lon="11.86819"><ele>346.33333333333337</ele><time>2026-05-02T12:50:03.788Z</time></trkpt><trkpt lat="43.028305" lon="11.8679533"><ele>345.6666666666667</ele><time>2026-05-02T12:50:04.788Z</time></trkpt><trkpt lat="43.0283367" lon="11.8677133"><ele>345.0</ele><time>2026-05-02T12:50:05.789Z</time></trkpt><trkpt lat="43.0283717" lon="11.86747"><ele>347.0</ele><time>2026-05-02T12:50:06.787Z</time></trkpt><trkpt lat="43.0284033" lon="11.8672333"><ele>349.0</ele><time>2026-05-02T12:50:07.789Z</time></trkpt><trkpt lat="43.0284367" lon="11.86701"><ele>351.0</ele><time>2026-05-02T12:50:08.788Z</time></trkpt><trkpt lat="43.0284717" lon="11.86678"><ele>350.6666666666667</ele><time>2026-05-02T12:50:09.788Z</time></trkpt><trkpt lat="43.0285033" lon="11.8665567"><ele>350.33333333333337</ele><time>2026-05-02T12:50:10.788Z</time></trkpt><trkpt lat="43.0285383" lon="11.866335"><ele>350.0</ele><time>2026-05-02T12:50:11.788Z</time></trkpt><trkpt lat="43.0285767" lon="11.86612"><ele>350.0</ele><time>2026-05-02T12:50:12.787Z</time></trkpt><trkpt lat="43.0286167" lon="11.865905"><ele>350.0</ele><time>2026-05-02T12:50:13.787Z</time></trkpt><trkpt lat="43.0286567" lon="11.8656917"><ele>350.0</ele><time>2026-05-02T12:50:14.788Z</time></trkpt><trkpt lat="43.0287" lon="11.86548"><ele>350.0</ele><time>2026-05-02T12:50:15.787Z</time></trkpt><trkpt lat="43.02874" lon="11.8652717"><ele>350.0</ele><time>2026-05-02T12:50:16.787Z</time></trkpt><trkpt lat="43.02878" lon="11.865075"><ele>350.0</ele><time>2026-05-02T12:50:17.789Z</time></trkpt><trkpt lat="43.0288183" lon="11.8648883"><ele>350.0</ele><time>2026-05-02T12:50:18.787Z</time></trkpt><trkpt lat="43.0288533" lon="11.864705"><ele>350.25</ele><time>2026-05-02T12:50:19.788Z</time></trkpt><trkpt lat="43.0288867" lon="11.8645217"><ele>350.5</ele><time>2026-05-02T12:50:20.789Z</time></trkpt><trkpt lat="43.02892" lon="11.8643317"><ele>350.75</ele><time>2026-05-02T12:50:21.789Z</time></trkpt><trkpt lat="43.0289533" lon="11.8641467"><ele>351.0</ele><time>2026-05-02T12:50:22.788Z</time></trkpt><trkpt lat="43.0289867" lon="11.8639683"><ele>350.5</ele><time>2026-05-02T12:50:23.788Z</time></trkpt><trkpt lat="43.02902" lon="11.863795"><ele>350.0</ele><time>2026-05-02T12:50:24.789Z</time></trkpt><trkpt lat="43.029055" lon="11.8636267"><ele>349.5</ele><time>2026-05-02T12:50:25.789Z</time></trkpt><trkpt lat="43.0290883" lon="11.863455"><ele>349.0</ele><time>2026-05-02T12:50:26.789Z</time></trkpt><trkpt lat="43.0291217" lon="11.86329"><ele>349.6</ele><time>2026-05-02T12:50:27.787Z</time></trkpt><trkpt lat="43.029155" lon="11.8631333"><ele>350.2</ele><time>2026-05-02T12:50:28.786Z</time></trkpt><trkpt lat="43.0291867" lon="11.8629817"><ele>350.8</ele><time>2026-05-02T12:50:29.787Z</time></trkpt><trkpt lat="43.0292183" lon="11.86284"><ele>351.40000000000003</ele><time>2026-05-02T12:50:30.786Z</time></trkpt><trkpt lat="43.0292467" lon="11.8627133"><ele>352.0</ele><time>2026-05-02T12:50:31.786Z</time></trkpt><trkpt lat="43.0292733" lon="11.8626067"><ele>352.3333333333333</ele><time>2026-05-02T12:50:32.788Z</time></trkpt><trkpt lat="43.0292917" lon="11.8625183"><ele>352.66666666666663</ele><time>2026-05-02T12:50:33.786Z</time></trkpt><trkpt lat="43.02929" lon="11.8624033"><ele>353.0</ele><time>2026-05-02T12:50:35.785Z</time></trkpt><trkpt lat="43.0292283" lon="11.8623633"><ele>353.3333333333333</ele><time>2026-05-02T12:50:37.788Z</time></trkpt><trkpt lat="43.0291217" lon="11.8623167"><ele>353.6666666666667</ele><time>2026-05-02T12:50:39.786Z</time></trkpt><trkpt lat="43.0290383" lon="11.86228"><ele>354.0</ele><time>2026-05-02T12:50:40.789Z</time></trkpt><trkpt lat="43.028955" lon="11.8622467"><ele>352.2</ele><time>2026-05-02T12:50:41.788Z</time></trkpt><trkpt lat="43.0288617" lon="11.8622133"><ele>350.4</ele><time>2026-05-02T12:50:42.787Z</time></trkpt><trkpt lat="43.0287583" lon="11.8621733"><ele>348.6</ele><time>2026-05-02T12:50:43.789Z</time></trkpt><trkpt lat="43.0286633" lon="11.8621367"><ele>346.8</ele><time>2026-05-02T12:50:44.789Z</time></trkpt><trkpt lat="43.028565" lon="11.8621067"><ele>345.0</ele><time>2026-05-02T12:50:45.785Z</time></trkpt><trkpt lat="43.0284667" lon="11.862075"><ele>345.0</ele><time>2026-05-02T12:50:46.79Z</time></trkpt><trkpt lat="43.0283633" lon="11.8620383"><ele>345.0</ele><time>2026-05-02T12:50:47.785Z</time></trkpt><trkpt lat="43.02827" lon="11.8619933"><ele>345.0</ele><time>2026-05-02T12:50:48.789Z</time></trkpt><trkpt lat="43.0281833" lon="11.8619333"><ele>345.0</ele><time>2026-05-02T12:50:49.786Z</time></trkpt><trkpt lat="43.02809" lon="11.8618633"><ele>345.0</ele><time>2026-05-02T12:50:50.788Z</time></trkpt><trkpt lat="43.0280017" lon="11.8617783"><ele>344.0</ele><time>2026-05-02T12:50:51.785Z</time></trkpt><trkpt lat="43.02791" lon="11.8616917"><ele>343.0</ele><time>2026-05-02T12:50:52.787Z</time></trkpt><trkpt lat="43.0278167" lon="11.86161"><ele>342.0</ele><time>2026-05-02T12:50:53.786Z</time></trkpt><trkpt lat="43.0277167" lon="11.86153"><ele>341.0</ele><time>2026-05-02T12:50:54.79Z</time></trkpt><trkpt lat="43.027625" lon="11.861455"><ele>340.0</ele><time>2026-05-02T12:50:55.789Z</time></trkpt><trkpt lat="43.0275317" lon="11.8613817"><ele>339.4</ele><time>2026-05-02T12:50:56.786Z</time></trkpt><trkpt lat="43.0274433" lon="11.8613117"><ele>338.8</ele><time>2026-05-02T12:50:57.785Z</time></trkpt><trkpt lat="43.0273583" lon="11.8612467"><ele>338.20000000000005</ele><time>2026-05-02T12:50:58.785Z</time></trkpt><trkpt lat="43.0272767" lon="11.8611817"><ele>337.6</ele><time>2026-05-02T12:50:59.787Z</time></trkpt><trkpt lat="43.0271933" lon="11.8611183"><ele>337.0</ele><time>2026-05-02T12:51:00.786Z</time></trkpt><trkpt lat="43.0271067" lon="11.8610483"><ele>337.0</ele><time>2026-05-02T12:51:01.785Z</time></trkpt><trkpt lat="43.02702" lon="11.8609767"><ele>337.0</ele><time>2026-05-02T12:51:02.785Z</time></trkpt><trkpt lat="43.026945" lon="11.860905"><ele>337.0</ele><time>2026-05-02T12:51:03.785Z</time></trkpt><trkpt lat="43.0268667" lon="11.8608317"><ele>337.0</ele><time>2026-05-02T12:51:04.785Z</time></trkpt><trkpt lat="43.0267917" lon="11.860765"><ele>337.0</ele><time>2026-05-02T12:51:05.787Z</time></trkpt><trkpt lat="43.0267117" lon="11.8606967"><ele>338.40000000000003</ele><time>2026-05-02T12:51:06.786Z</time></trkpt><trkpt lat="43.0266317" lon="11.8606217"><ele>339.8</ele><time>2026-05-02T12:51:07.785Z</time></trkpt><trkpt lat="43.026545" lon="11.8605483"><ele>341.2</ele><time>2026-05-02T12:51:08.786Z</time></trkpt><trkpt lat="43.026455" lon="11.86047"><ele>342.6</ele><time>2026-05-02T12:51:09.787Z</time></trkpt><trkpt lat="43.026365" lon="11.8603883"><ele>344.0</ele><time>2026-05-02T12:51:10.786Z</time></trkpt><trkpt lat="43.0262783" lon="11.8603067"><ele>344.0</ele><time>2026-05-02T12:51:11.789Z</time></trkpt><trkpt lat="43.0261883" lon="11.8602217"><ele>344.0</ele><time>2026-05-02T12:51:12.785Z</time></trkpt><trkpt lat="43.0260883" lon="11.8601383"><ele>344.0</ele><time>2026-05-02T12:51:13.787Z</time></trkpt><trkpt lat="43.0259833" lon="11.8600517"><ele>344.0</ele><time>2026-05-02T12:51:14.786Z</time></trkpt><trkpt lat="43.0258833" lon="11.8599667"><ele>346.5</ele><time>2026-05-02T12:51:15.785Z</time></trkpt><trkpt lat="43.0257783" lon="11.85988"><ele>349.0</ele><time>2026-05-02T12:51:16.786Z</time></trkpt><trkpt lat="43.0256783" lon="11.8597917"><ele>351.5</ele><time>2026-05-02T12:51:17.786Z</time></trkpt><trkpt lat="43.0255883" lon="11.8597067"><ele>354.0</ele><time>2026-05-02T12:51:18.79Z</time></trkpt><trkpt lat="43.02549" lon="11.8596233"><ele>354.0</ele><time>2026-05-02T12:51:19.786Z</time></trkpt><trkpt lat="43.025395" lon="11.85955"><ele>354.0</ele><time>2026-05-02T12:51:20.786Z</time></trkpt><trkpt lat="43.0252967" lon="11.8594733"><ele>354.0</ele><time>2026-05-02T12:51:21.789Z</time></trkpt><trkpt lat="43.0251983" lon="11.8593867"><ele>354.0</ele><time>2026-05-02T12:51:22.789Z</time></trkpt><trkpt lat="43.0251" lon="11.8592967"><ele>354.5</ele><time>2026-05-02T12:51:23.79Z</time></trkpt><trkpt lat="43.0249983" lon="11.8592017"><ele>355.0</ele><time>2026-05-02T12:51:24.789Z</time></trkpt><trkpt lat="43.024895" lon="11.8591167"><ele>355.5</ele><time>2026-05-02T12:51:25.789Z</time></trkpt><trkpt lat="43.0247967" lon="11.85904"><ele>356.0</ele><time>2026-05-02T12:51:26.785Z</time></trkpt><trkpt lat="43.0247" lon="11.8589617"><ele>356.25</ele><time>2026-05-02T12:51:27.785Z</time></trkpt><trkpt lat="43.0246" lon="11.858885"><ele>356.5</ele><time>2026-05-02T12:51:28.786Z</time></trkpt><trkpt lat="43.024495" lon="11.8588367"><ele>356.75</ele><time>2026-05-02T12:51:29.788Z</time></trkpt><trkpt lat="43.0243817" lon="11.858805"><ele>357.0</ele><time>2026-05-02T12:51:30.786Z</time></trkpt><trkpt lat="43.0242717" lon="11.8588"><ele>357.0</ele><time>2026-05-02T12:51:31.785Z</time></trkpt><trkpt lat="43.0241633" lon="11.858805"><ele>357.0</ele><time>2026-05-02T12:51:32.786Z</time></trkpt><trkpt lat="43.0240633" lon="11.8588233"><ele>357.0</ele><time>2026-05-02T12:51:33.791Z</time></trkpt><trkpt lat="43.0239733" lon="11.85885"><ele>357.0</ele><time>2026-05-02T12:51:34.789Z</time></trkpt><trkpt lat="43.02388" lon="11.8588983"><ele>357.0</ele><time>2026-05-02T12:51:35.786Z</time></trkpt><trkpt lat="43.0237883" lon="11.8589733"><ele>358.25</ele><time>2026-05-02T12:51:36.786Z</time></trkpt><trkpt lat="43.0236983" lon="11.8590583"><ele>359.5</ele><time>2026-05-02T12:51:37.786Z</time></trkpt><trkpt lat="43.0236017" lon="11.85914"><ele>360.75</ele><time>2026-05-02T12:51:38.789Z</time></trkpt><trkpt lat="43.0235" lon="11.85922"><ele>362.0</ele><time>2026-05-02T12:51:39.789Z</time></trkpt><trkpt lat="43.0233917" lon="11.859295"><ele>364.5</ele><time>2026-05-02T12:51:40.786Z</time></trkpt><trkpt lat="43.02328" lon="11.8593767"><ele>367.0</ele><time>2026-05-02T12:51:41.786Z</time></trkpt><trkpt lat="43.0231667" lon="11.8594583"><ele>369.5</ele><time>2026-05-02T12:51:42.785Z</time></trkpt><trkpt lat="43.0230567" lon="11.859535"><ele>372.0</ele><time>2026-05-02T12:51:43.791Z</time></trkpt><trkpt lat="43.022955" lon="11.8596083"><ele>372.0</ele><time>2026-05-02T12:51:44.787Z</time></trkpt><trkpt lat="43.022865" lon="11.859665"><ele>372.0</ele><time>2026-05-02T12:51:45.786Z</time></trkpt><trkpt lat="43.022785" lon="11.8597017"><ele>372.0</ele><time>2026-05-02T12:51:46.789Z</time></trkpt><trkpt lat="43.0227033" lon="11.8597283"><ele>372.0</ele><time>2026-05-02T12:51:47.789Z</time></trkpt><trkpt lat="43.02263" lon="11.85974"><ele>372.0</ele><time>2026-05-02T12:51:48.786Z</time></trkpt><trkpt lat="43.022555" lon="11.8597317"><ele>372.0</ele><time>2026-05-02T12:51:49.786Z</time></trkpt><trkpt lat="43.0224917" lon="11.8596933"><ele>372.5</ele><time>2026-05-02T12:51:50.79Z</time></trkpt><trkpt lat="43.0224467" lon="11.8595983"><ele>373.0</ele><time>2026-05-02T12:51:51.786Z</time></trkpt><trkpt lat="43.0224233" lon="11.85946"><ele>373.5</ele><time>2026-05-02T12:51:52.789Z</time></trkpt><trkpt lat="43.02238" lon="11.85936"><ele>374.0</ele><time>2026-05-02T12:51:53.789Z</time></trkpt><trkpt lat="43.0223367" lon="11.85927"><ele>374.5</ele><time>2026-05-02T12:51:54.785Z</time></trkpt><trkpt lat="43.0223017" lon="11.8591967"><ele>375.0</ele><time>2026-05-02T12:51:55.79Z</time></trkpt><trkpt lat="43.022245" lon="11.8591383"><ele>375.0</ele><time>2026-05-02T12:51:57.787Z</time></trkpt><trkpt lat="43.0221717" lon="11.8591833"><ele>375.0</ele><time>2026-05-02T12:52:00.786Z</time></trkpt><trkpt lat="43.0221017" lon="11.859245"><ele>375.0</ele><time>2026-05-02T12:52:03.789Z</time></trkpt><trkpt lat="43.02201" lon="11.8592567"><ele>375.0</ele><time>2026-05-02T12:52:05.787Z</time></trkpt><trkpt lat="43.0218833" lon="11.859205"><ele>375.0</ele><time>2026-05-02T12:52:07.789Z</time></trkpt><trkpt lat="43.0218083" lon="11.8591567"><ele>375.0</ele><time>2026-05-02T12:52:08.79Z</time></trkpt><trkpt lat="43.0217267" lon="11.8590933"><ele>375.0</ele><time>2026-05-02T12:52:09.789Z</time></trkpt><trkpt lat="43.021635" lon="11.859025"><ele>375.0</ele><time>2026-05-02T12:52:10.789Z</time></trkpt><trkpt lat="43.0215367" lon="11.8589533"><ele>375.0</ele><time>2026-05-02T12:52:11.786Z</time></trkpt><trkpt lat="43.0214283" lon="11.8588817"><ele>375.0</ele><time>2026-05-02T12:52:12.787Z</time></trkpt><trkpt lat="43.0213217" lon="11.85881"><ele>371.75</ele><time>2026-05-02T12:52:13.788Z</time></trkpt><trkpt lat="43.0212117" lon="11.85874"><ele>368.5</ele><time>2026-05-02T12:52:14.788Z</time></trkpt><trkpt lat="43.0210967" lon="11.8586667"><ele>365.25</ele><time>2026-05-02T12:52:15.786Z</time></trkpt><trkpt lat="43.02098" lon="11.8586017"><ele>362.0</ele><time>2026-05-02T12:52:16.787Z</time></trkpt><trkpt lat="43.0208517" lon="11.8585367"><ele>361.75</ele><time>2026-05-02T12:52:17.789Z</time></trkpt><trkpt lat="43.0207217" lon="11.85847"><ele>361.5</ele><time>2026-05-02T12:52:18.789Z</time></trkpt><trkpt lat="43.0205933" lon="11.8584183"><ele>361.25</ele><time>2026-05-02T12:52:19.789Z</time></trkpt><trkpt lat="43.02047" lon="11.8583633"><ele>361.0</ele><time>2026-05-02T12:52:20.793Z</time></trkpt><trkpt lat="43.02036" lon="11.8583083"><ele>361.66666666666663</ele><time>2026-05-02T12:52:21.789Z</time></trkpt><trkpt lat="43.020265" lon="11.8582517"><ele>362.3333333333333</ele><time>2026-05-02T12:52:22.786Z</time></trkpt><trkpt lat="43.0201883" lon="11.8581867"><ele>363.0</ele><time>2026-05-02T12:52:23.789Z</time></trkpt><trkpt lat="43.020125" lon="11.8581117"><ele>363.6666666666667</ele><time>2026-05-02T12:52:24.79Z</time></trkpt><trkpt lat="43.0200883" lon="11.8580233"><ele>364.33333333333337</ele><time>2026-05-02T12:52:25.786Z</time></trkpt><trkpt lat="43.020055" lon="11.85791"><ele>365.0</ele><time>2026-05-02T12:52:26.79Z</time></trkpt><trkpt lat="43.020025" lon="11.85776"><ele>366.5</ele><time>2026-05-02T12:52:27.789Z</time></trkpt><trkpt lat="43.019995" lon="11.8575867"><ele>368.0</ele><time>2026-05-02T12:52:28.789Z</time></trkpt><trkpt lat="43.0199617" lon="11.8574233"><ele>369.5</ele><time>2026-05-02T12:52:29.789Z</time></trkpt><trkpt lat="43.0199333" lon="11.8572717"><ele>371.0</ele><time>2026-05-02T12:52:30.789Z</time></trkpt><trkpt lat="43.0199017" lon="11.8571283"><ele>371.20000000000005</ele><time>2026-05-02T12:52:31.79Z</time></trkpt><trkpt lat="43.0198583" lon="11.8570017"><ele>371.40000000000003</ele><time>2026-05-02T12:52:32.79Z</time></trkpt><trkpt lat="43.019805" lon="11.8568883"><ele>371.6</ele><time>2026-05-02T12:52:33.786Z</time></trkpt><trkpt lat="43.019735" lon="11.8567833"><ele>371.8</ele><time>2026-05-02T12:52:34.787Z</time></trkpt><trkpt lat="43.0196567" lon="11.8566733"><ele>372.0</ele><time>2026-05-02T12:52:35.787Z</time></trkpt><trkpt lat="43.0196" lon="11.8565667"><ele>373.8</ele><time>2026-05-02T12:52:36.789Z</time></trkpt><trkpt lat="43.0195683" lon="11.856455"><ele>375.6</ele><time>2026-05-02T12:52:37.787Z</time></trkpt><trkpt lat="43.01954" lon="11.8563367"><ele>377.40000000000003</ele><time>2026-05-02T12:52:38.787Z</time></trkpt><trkpt lat="43.0195383" lon="11.8562133"><ele>379.20000000000005</ele><time>2026-05-02T12:52:39.789Z</time></trkpt><trkpt lat="43.0195383" lon="11.8560767"><ele>381.0</ele><time>2026-05-02T12:52:40.786Z</time></trkpt><trkpt lat="43.0195433" lon="11.855935"><ele>382.20000000000005</ele><time>2026-05-02T12:52:41.789Z</time></trkpt><trkpt lat="43.0195633" lon="11.85579"><ele>383.40000000000003</ele><time>2026-05-02T12:52:42.789Z</time></trkpt><trkpt lat="43.01959" lon="11.8556483"><ele>384.6</ele><time>2026-05-02T12:52:43.789Z</time></trkpt><trkpt lat="43.0196183" lon="11.855505"><ele>385.8</ele><time>2026-05-02T12:52:44.786Z</time></trkpt><trkpt lat="43.0196517" lon="11.8553533"><ele>387.0</ele><time>2026-05-02T12:52:45.786Z</time></trkpt><trkpt lat="43.0196883" lon="11.8552283"><ele>388.40000000000003</ele><time>2026-05-02T12:52:46.789Z</time></trkpt><trkpt lat="43.0197367" lon="11.8551067"><ele>389.8</ele><time>2026-05-02T12:52:47.786Z</time></trkpt><trkpt lat="43.0198017" lon="11.854995"><ele>391.2</ele><time>2026-05-02T12:52:48.789Z</time></trkpt><trkpt lat="43.019875" lon="11.8548933"><ele>392.6</ele><time>2026-05-02T12:52:49.786Z</time></trkpt><trkpt lat="43.0199517" lon="11.8547933"><ele>394.0</ele><time>2026-05-02T12:52:50.787Z</time></trkpt><trkpt lat="43.0200217" lon="11.85469"><ele>394.50000000000006</ele><time>2026-05-02T12:52:51.786Z</time></trkpt><trkpt lat="43.0200683" lon="11.8545967"><ele>395.0</ele><time>2026-05-02T12:52:52.787Z</time></trkpt><trkpt lat="43.0201" lon="11.8544967"><ele>395.5</ele><time>2026-05-02T12:52:53.786Z</time></trkpt><trkpt lat="43.020115" lon="11.8543933"><ele>396.0</ele><time>2026-05-02T12:52:54.789Z</time></trkpt><trkpt lat="43.0201067" lon="11.8543"><ele>396.50000000000006</ele><time>2026-05-02T12:52:55.789Z</time></trkpt><trkpt lat="43.02001" lon="11.8541783"><ele>397.0</ele><time>2026-05-02T12:52:57.789Z</time></trkpt><trkpt lat="43.01992" lon="11.8541417"><ele>397.50000000000006</ele><time>2026-05-02T12:52:58.789Z</time></trkpt><trkpt lat="43.01983" lon="11.8541033"><ele>398.0</ele><time>2026-05-02T12:52:59.789Z</time></trkpt><trkpt lat="43.01975" lon="11.8540533"><ele>398.5</ele><time>2026-05-02T12:53:00.789Z</time></trkpt><trkpt lat="43.0196917" lon="11.853985"><ele>399.0</ele><time>2026-05-02T12:53:01.789Z</time></trkpt><trkpt lat="43.0196433" lon="11.8538983"><ele>399.50000000000006</ele><time>2026-05-02T12:53:02.789Z</time></trkpt><trkpt lat="43.01963" lon="11.8537833"><ele>400.0</ele><time>2026-05-02T12:53:03.789Z</time></trkpt><trkpt lat="43.0196317" lon="11.85365"><ele>400.0</ele><time>2026-05-02T12:53:04.789Z</time></trkpt><trkpt lat="43.01964" lon="11.8534933"><ele>400.0</ele><time>2026-05-02T12:53:05.789Z</time></trkpt><trkpt lat="43.01964" lon="11.8533483"><ele>400.0</ele><time>2026-05-02T12:53:06.789Z</time></trkpt><trkpt lat="43.0196367" lon="11.8532017"><ele>400.0</ele><time>2026-05-02T12:53:07.789Z</time></trkpt><trkpt lat="43.0196333" lon="11.8530567"><ele>400.0</ele><time>2026-05-02T12:53:08.786Z</time></trkpt><trkpt lat="43.019635" lon="11.8528883"><ele>401.5</ele><time>2026-05-02T12:53:09.787Z</time></trkpt><trkpt lat="43.0196333" lon="11.8527167"><ele>403.0</ele><time>2026-05-02T12:53:10.787Z</time></trkpt><trkpt lat="43.0196317" lon="11.8525483"><ele>404.5</ele><time>2026-05-02T12:53:11.789Z</time></trkpt><trkpt lat="43.0196233" lon="11.8523817"><ele>406.0</ele><time>2026-05-02T12:53:12.786Z</time></trkpt><trkpt lat="43.0196133" lon="11.85221"><ele>407.25</ele><time>2026-05-02T12:53:13.787Z</time></trkpt><trkpt lat="43.0195983" lon="11.8520483"><ele>408.5</ele><time>2026-05-02T12:53:14.786Z</time></trkpt><trkpt lat="43.019595" lon="11.851885"><ele>409.75</ele><time>2026-05-02T12:53:15.786Z</time></trkpt><trkpt lat="43.0195933" lon="11.8517117"><ele>411.0</ele><time>2026-05-02T12:53:16.786Z</time></trkpt><trkpt lat="43.0195883" lon="11.85155"><ele>412.0</ele><time>2026-05-02T12:53:17.791Z</time></trkpt><trkpt lat="43.0195783" lon="11.851395"><ele>413.0</ele><time>2026-05-02T12:53:18.785Z</time></trkpt><trkpt lat="43.0195717" lon="11.8512417"><ele>414.0</ele><time>2026-05-02T12:53:19.788Z</time></trkpt><trkpt lat="43.01957" lon="11.8511"><ele>415.0</ele><time>2026-05-02T12:53:20.787Z</time></trkpt><trkpt lat="43.0195667" lon="11.8509533"><ele>416.0</ele><time>2026-05-02T12:53:21.787Z</time></trkpt><trkpt lat="43.01957" lon="11.8508133"><ele>417.6</ele><time>2026-05-02T12:53:22.787Z</time></trkpt><trkpt lat="43.0195683" lon="11.8506867"><ele>419.20000000000005</ele><time>2026-05-02T12:53:23.787Z</time></trkpt><trkpt lat="43.0195633" lon="11.8505667"><ele>420.79999999999995</ele><time>2026-05-02T12:53:24.788Z</time></trkpt><trkpt lat="43.0195533" lon="11.8504383"><ele>422.4</ele><time>2026-05-02T12:53:25.791Z</time></trkpt><trkpt lat="43.01955" lon="11.8503067"><ele>424.0</ele><time>2026-05-02T12:53:26.791Z</time></trkpt><trkpt lat="43.0195567" lon="11.8501967"><ele>425.00000000000006</ele><time>2026-05-02T12:53:27.789Z</time></trkpt><trkpt lat="43.0195683" lon="11.8501"><ele>426.0</ele><time>2026-05-02T12:53:28.79Z</time></trkpt><trkpt lat="43.01959" lon="11.849945"><ele>427.0</ele><time>2026-05-02T12:53:30.791Z</time></trkpt><trkpt lat="43.019565" lon="11.8498167"><ele>428.0</ele><time>2026-05-02T12:53:32.789Z</time></trkpt><trkpt lat="43.0195333" lon="11.8497417"><ele>429.00000000000006</ele><time>2026-05-02T12:53:33.789Z</time></trkpt><trkpt lat="43.019495" lon="11.84966"><ele>430.0</ele><time>2026-05-02T12:53:34.79Z</time></trkpt><trkpt lat="43.0194533" lon="11.8495717"><ele>430.0</ele><time>2026-05-02T12:53:35.786Z</time></trkpt><trkpt lat="43.0194083" lon="11.8494767"><ele>430.0</ele><time>2026-05-02T12:53:36.79Z</time></trkpt><trkpt lat="43.0193633" lon="11.8493733"><ele>430.0</ele><time>2026-05-02T12:53:37.788Z</time></trkpt><trkpt lat="43.019315" lon="11.8492533"><ele>430.0</ele><time>2026-05-02T12:53:38.789Z</time></trkpt><trkpt lat="43.0192583" lon="11.8491233"><ele>430.0</ele><time>2026-05-02T12:53:39.79Z</time></trkpt><trkpt lat="43.0191983" lon="11.8489883"><ele>429.25</ele><time>2026-05-02T12:53:40.788Z</time></trkpt><trkpt lat="43.01913" lon="11.8488433"><ele>428.5</ele><time>2026-05-02T12:53:41.788Z</time></trkpt><trkpt lat="43.01906" lon="11.8486967"><ele>427.75</ele><time>2026-05-02T12:53:42.788Z</time></trkpt><trkpt lat="43.018985" lon="11.8485533"><ele>427.0</ele><time>2026-05-02T12:53:43.789Z</time></trkpt><trkpt lat="43.0189117" lon="11.848415"><ele>428.20000000000005</ele><time>2026-05-02T12:53:44.788Z</time></trkpt><trkpt lat="43.0188417" lon="11.8482833"><ele>429.40000000000003</ele><time>2026-05-02T12:53:45.788Z</time></trkpt><trkpt lat="43.01878" lon="11.84816"><ele>430.59999999999997</ele><time>2026-05-02T12:53:46.79Z</time></trkpt><trkpt lat="43.01872" lon="11.8480417"><ele>431.79999999999995</ele><time>2026-05-02T12:53:47.788Z</time></trkpt><trkpt lat="43.0186633" lon="11.8479333"><ele>433.0</ele><time>2026-05-02T12:53:48.786Z</time></trkpt><trkpt lat="43.0185983" lon="11.8478267"><ele>433.0</ele><time>2026-05-02T12:53:49.79Z</time></trkpt><trkpt lat="43.0185417" lon="11.8477183"><ele>432.99999999999994</ele><time>2026-05-02T12:53:50.79Z</time></trkpt><trkpt lat="43.0184933" lon="11.8476083"><ele>432.99999999999994</ele><time>2026-05-02T12:53:51.789Z</time></trkpt><trkpt lat="43.01846" lon="11.8474917"><ele>433.0</ele><time>2026-05-02T12:53:52.786Z</time></trkpt><trkpt lat="43.0184233" lon="11.8473733"><ele>433.0</ele><time>2026-05-02T12:53:53.79Z</time></trkpt><trkpt lat="43.018395" lon="11.8472633"><ele>432.50000000000006</ele><time>2026-05-02T12:53:54.789Z</time></trkpt><trkpt lat="43.01837" lon="11.8471567"><ele>432.0</ele><time>2026-05-02T12:53:55.789Z</time></trkpt><trkpt lat="43.0183417" lon="11.8470517"><ele>431.5</ele><time>2026-05-02T12:53:56.789Z</time></trkpt><trkpt lat="43.018315" lon="11.8469417"><ele>431.0</ele><time>2026-05-02T12:53:57.79Z</time></trkpt><trkpt lat="43.018285" lon="11.846825"><ele>430.50000000000006</ele><time>2026-05-02T12:53:58.788Z</time></trkpt><trkpt lat="43.0182467" lon="11.8467033"><ele>430.0</ele><time>2026-05-02T12:53:59.789Z</time></trkpt><trkpt lat="43.01821" lon="11.84658"><ele>431.8</ele><time>2026-05-02T12:54:00.789Z</time></trkpt><trkpt lat="43.0181667" lon="11.84646"><ele>433.6</ele><time>2026-05-02T12:54:01.789Z</time></trkpt><trkpt lat="43.018115" lon="11.846335"><ele>435.4</ele><time>2026-05-02T12:54:02.79Z</time></trkpt><trkpt lat="43.0180583" lon="11.8462017"><ele>437.2</ele><time>2026-05-02T12:54:03.789Z</time></trkpt><trkpt lat="43.01799" lon="11.8460567"><ele>439.0</ele><time>2026-05-02T12:54:04.79Z</time></trkpt><trkpt lat="43.01792" lon="11.84591"><ele>440.5</ele><time>2026-05-02T12:54:05.792Z</time></trkpt><trkpt lat="43.0178367" lon="11.8457567"><ele>442.0</ele><time>2026-05-02T12:54:06.788Z</time></trkpt><trkpt lat="43.0177533" lon="11.8455933"><ele>443.5</ele><time>2026-05-02T12:54:07.79Z</time></trkpt><trkpt lat="43.0176667" lon="11.8454233"><ele>445.0</ele><time>2026-05-02T12:54:08.788Z</time></trkpt><trkpt lat="43.01757" lon="11.8452533"><ele>445.6666666666667</ele><time>2026-05-02T12:54:09.789Z</time></trkpt><trkpt lat="43.0174633" lon="11.84509"><ele>446.33333333333337</ele><time>2026-05-02T12:54:10.79Z</time></trkpt><trkpt lat="43.0173383" lon="11.84494"><ele>447.0</ele><time>2026-05-02T12:54:11.79Z</time></trkpt><trkpt lat="43.01722" lon="11.844805"><ele>447.0</ele><time>2026-05-02T12:54:12.789Z</time></trkpt><trkpt lat="43.0171067" lon="11.844675"><ele>447.0</ele><time>2026-05-02T12:54:13.789Z</time></trkpt><trkpt lat="43.0169983" lon="11.84455"><ele>447.0</ele><time>2026-05-02T12:54:14.789Z</time></trkpt><trkpt lat="43.0168917" lon="11.8444283"><ele>447.0</ele><time>2026-05-02T12:54:15.789Z</time></trkpt><trkpt lat="43.0167867" lon="11.8443083"><ele>450.66666666666663</ele><time>2026-05-02T12:54:16.789Z</time></trkpt><trkpt lat="43.016585" lon="11.84407"><ele>454.3333333333333</ele><time>2026-05-02T12:54:18.789Z</time></trkpt><trkpt lat="43.0164867" lon="11.8439533"><ele>458.0</ele><time>2026-05-02T12:54:19.789Z</time></trkpt><trkpt lat="43.0163867" lon="11.84384"><ele>458.0</ele><time>2026-05-02T12:54:20.789Z</time></trkpt><trkpt lat="43.0162867" lon="11.843725"><ele>458.0</ele><time>2026-05-02T12:54:21.79Z</time></trkpt><trkpt lat="43.016185" lon="11.8436083"><ele>458.0</ele><time>2026-05-02T12:54:22.789Z</time></trkpt><trkpt lat="43.0160833" lon="11.8434867"><ele>458.0</ele><time>2026-05-02T12:54:23.79Z</time></trkpt><trkpt lat="43.0159833" lon="11.8433667"><ele>460.25</ele><time>2026-05-02T12:54:24.79Z</time></trkpt><trkpt lat="43.0158833" lon="11.8432483"><ele>462.5</ele><time>2026-05-02T12:54:25.789Z</time></trkpt><trkpt lat="43.0157817" lon="11.8431333"><ele>464.75</ele><time>2026-05-02T12:54:26.789Z</time></trkpt><trkpt lat="43.0156717" lon="11.843015"><ele>467.0</ele><time>2026-05-02T12:54:27.789Z</time></trkpt><trkpt lat="43.0155683" lon="11.8429"><ele>467.5</ele><time>2026-05-02T12:54:28.79Z</time></trkpt><trkpt lat="43.0154667" lon="11.84278"><ele>468.0</ele><time>2026-05-02T12:54:29.789Z</time></trkpt><trkpt lat="43.015365" lon="11.8426617"><ele>468.5</ele><time>2026-05-02T12:54:30.789Z</time></trkpt><trkpt lat="43.0152633" lon="11.8425467"><ele>469.0</ele><time>2026-05-02T12:54:31.79Z</time></trkpt><trkpt lat="43.015165" lon="11.8424333"><ele>472.25</ele><time>2026-05-02T12:54:32.789Z</time></trkpt><trkpt lat="43.0150667" lon="11.8423167"><ele>475.5</ele><time>2026-05-02T12:54:33.79Z</time></trkpt><trkpt lat="43.014965" lon="11.8422"><ele>478.75</ele><time>2026-05-02T12:54:34.788Z</time></trkpt><trkpt lat="43.01486" lon="11.8420783"><ele>482.0</ele><time>2026-05-02T12:54:35.789Z</time></trkpt><trkpt lat="43.0147533" lon="11.84195"><ele>482.5</ele><time>2026-05-02T12:54:36.789Z</time></trkpt><trkpt lat="43.01464" lon="11.841815"><ele>483.0</ele><time>2026-05-02T12:54:37.789Z</time></trkpt><trkpt lat="43.0145333" lon="11.8416817"><ele>483.5</ele><time>2026-05-02T12:54:38.79Z</time></trkpt><trkpt lat="43.0144283" lon="11.84156"><ele>484.0</ele><time>2026-05-02T12:54:39.791Z</time></trkpt><trkpt lat="43.0143217" lon="11.8414417"><ele>485.75</ele><time>2026-05-02T12:54:40.789Z</time></trkpt><trkpt lat="43.0142183" lon="11.8413217"><ele>487.5</ele><time>2026-05-02T12:54:41.79Z</time></trkpt><trkpt lat="43.0141133" lon="11.8412083"><ele>489.25</ele><time>2026-05-02T12:54:42.789Z</time></trkpt><trkpt lat="43.0140183" lon="11.841105"><ele>491.0</ele><time>2026-05-02T12:54:43.789Z</time></trkpt><trkpt lat="43.01393" lon="11.8410133"><ele>492.49999999999994</ele><time>2026-05-02T12:54:44.789Z</time></trkpt><trkpt lat="43.0138533" lon="11.8409233"><ele>494.0</ele><time>2026-05-02T12:54:45.789Z</time></trkpt><trkpt lat="43.0137933" lon="11.84085"><ele>495.5</ele><time>2026-05-02T12:54:46.789Z</time></trkpt><trkpt lat="43.013745" lon="11.8407933"><ele>497.0</ele><time>2026-05-02T12:54:47.79Z</time></trkpt><trkpt lat="43.0136767" lon="11.8406583"><ele>498.49999999999994</ele><time>2026-05-02T12:54:55.789Z</time></trkpt><trkpt lat="43.0136067" lon="11.8406067"><ele>500.0</ele><time>2026-05-02T12:54:56.789Z</time></trkpt><trkpt lat="43.0135183" lon="11.8405417"><ele>500.0</ele><time>2026-05-02T12:54:57.79Z</time></trkpt><trkpt lat="43.0134033" lon="11.8404767"><ele>500.0</ele><time>2026-05-02T12:54:58.789Z</time></trkpt><trkpt lat="43.0132717" lon="11.840405"><ele>500.0</ele><time>2026-05-02T12:54:59.79Z</time></trkpt><trkpt lat="43.0131367" lon="11.8403283"><ele>500.0</ele><time>2026-05-02T12:55:00.79Z</time></trkpt><trkpt lat="43.01299" lon="11.8402433"><ele>501.66666666666663</ele><time>2026-05-02T12:55:01.79Z</time></trkpt><trkpt lat="43.0128433" lon="11.8401533"><ele>503.33333333333337</ele><time>2026-05-02T12:55:02.79Z</time></trkpt><trkpt lat="43.0126917" lon="11.84006"><ele>505.0</ele><time>2026-05-02T12:55:03.789Z</time></trkpt><trkpt lat="43.0125417" lon="11.8399717"><ele>508.5</ele><time>2026-05-02T12:55:04.789Z</time></trkpt><trkpt lat="43.012405" lon="11.8398867"><ele>512.0</ele><time>2026-05-02T12:55:05.789Z</time></trkpt><trkpt lat="43.012275" lon="11.83982"><ele>515.5</ele><time>2026-05-02T12:55:06.789Z</time></trkpt><trkpt lat="43.01216" lon="11.8397733"><ele>519.0</ele><time>2026-05-02T12:55:07.789Z</time></trkpt><trkpt lat="43.0120517" lon="11.839755"><ele>519.0</ele><time>2026-05-02T12:55:08.786Z</time></trkpt><trkpt lat="43.011955" lon="11.8397667"><ele>519.0</ele><time>2026-05-02T12:55:09.786Z</time></trkpt><trkpt lat="43.01187" lon="11.8397933"><ele>519.0</ele><time>2026-05-02T12:55:10.787Z</time></trkpt><trkpt lat="43.0117983" lon="11.8398283"><ele>519.0</ele><time>2026-05-02T12:55:11.789Z</time></trkpt><trkpt lat="43.0117367" lon="11.83985"><ele>519.0</ele><time>2026-05-02T12:55:12.789Z</time></trkpt><trkpt lat="43.0116417" lon="11.8398367"><ele>519.0</ele><time>2026-05-02T12:55:14.789Z</time></trkpt><trkpt lat="43.0114133" lon="11.83987"><ele>520.0</ele><time>2026-05-02T12:57:36.789Z</time></trkpt><trkpt lat="43.0114283" lon="11.8400833"><ele>521.0</ele><time>2026-05-02T12:57:38.785Z</time></trkpt><trkpt lat="43.01139" lon="11.8402267"><ele>522.0</ele><time>2026-05-02T12:57:39.787Z</time></trkpt><trkpt lat="43.0113433" lon="11.840405"><ele>523.0</ele><time>2026-05-02T12:57:40.786Z</time></trkpt><trkpt lat="43.0112617" lon="11.8406067"><ele>523.0</ele><time>2026-05-02T12:57:41.785Z</time></trkpt><trkpt lat="43.0111617" lon="11.8408167"><ele>523.0</ele><time>2026-05-02T12:57:42.788Z</time></trkpt><trkpt lat="43.0110533" lon="11.8410383"><ele>523.0</ele><time>2026-05-02T12:57:43.785Z</time></trkpt><trkpt lat="43.0109483" lon="11.8412717"><ele>522.0</ele><time>2026-05-02T12:57:44.786Z</time></trkpt><trkpt lat="43.01085" lon="11.8415067"><ele>521.0</ele><time>2026-05-02T12:57:45.786Z</time></trkpt><trkpt lat="43.0107533" lon="11.84173"><ele>520.0</ele><time>2026-05-02T12:57:46.786Z</time></trkpt><trkpt lat="43.0106567" lon="11.8419317"><ele>520.0</ele><time>2026-05-02T12:57:47.785Z</time></trkpt><trkpt lat="43.0105617" lon="11.84212"><ele>520.0</ele><time>2026-05-02T12:57:48.786Z</time></trkpt><trkpt lat="43.010465" lon="11.842295"><ele>520.0</ele><time>2026-05-02T12:57:49.786Z</time></trkpt><trkpt lat="43.0103633" lon="11.8424617"><ele>520.0</ele><time>2026-05-02T12:57:50.786Z</time></trkpt><trkpt lat="43.0102617" lon="11.842625"><ele>520.0</ele><time>2026-05-02T12:57:51.786Z</time></trkpt><trkpt lat="43.0100683" lon="11.842945"><ele>518.3333333333334</ele><time>2026-05-02T12:57:53.786Z</time></trkpt><trkpt lat="43.00997" lon="11.8431067"><ele>516.6666666666666</ele><time>2026-05-02T12:57:54.785Z</time></trkpt><trkpt lat="43.0098717" lon="11.8432717"><ele>515.0</ele><time>2026-05-02T12:57:55.786Z</time></trkpt><trkpt lat="43.0097717" lon="11.8434467"><ele>515.0</ele><time>2026-05-02T12:57:56.786Z</time></trkpt><trkpt lat="43.0096667" lon="11.8436333"><ele>515.0</ele><time>2026-05-02T12:57:57.786Z</time></trkpt><trkpt lat="43.0095583" lon="11.84383"><ele>515.0</ele><time>2026-05-02T12:57:58.785Z</time></trkpt><trkpt lat="43.0094467" lon="11.8440417"><ele>515.0</ele><time>2026-05-02T12:57:59.786Z</time></trkpt><trkpt lat="43.0093283" lon="11.8442733"><ele>515.0</ele><time>2026-05-02T12:58:00.786Z</time></trkpt><trkpt lat="43.0092083" lon="11.8445167"><ele>515.0</ele><time>2026-05-02T12:58:01.786Z</time></trkpt><trkpt lat="43.0090933" lon="11.8447567"><ele>515.6666666666666</ele><time>2026-05-02T12:58:02.786Z</time></trkpt><trkpt lat="43.0089817" lon="11.8449883"><ele>516.3333333333334</ele><time>2026-05-02T12:58:03.786Z</time></trkpt><trkpt lat="43.0088683" lon="11.8452233"><ele>517.0</ele><time>2026-05-02T12:58:04.787Z</time></trkpt><trkpt lat="43.00875" lon="11.8454633"><ele>517.0</ele><time>2026-05-02T12:58:05.786Z</time></trkpt><trkpt lat="43.0086317" lon="11.8457033"><ele>517.0</ele><time>2026-05-02T12:58:06.786Z</time></trkpt><trkpt lat="43.0085117" lon="11.8459467"><ele>517.0</ele><time>2026-05-02T12:58:07.787Z</time></trkpt><trkpt lat="43.0083933" lon="11.84619"><ele>517.6666666666667</ele><time>2026-05-02T12:58:08.786Z</time></trkpt><trkpt lat="43.0082783" lon="11.8464317"><ele>518.3333333333334</ele><time>2026-05-02T12:58:09.785Z</time></trkpt><trkpt lat="43.0081633" lon="11.8466717"><ele>519.0</ele><time>2026-05-02T12:58:10.786Z</time></trkpt><trkpt lat="43.0080517" lon="11.8469117"><ele>519.0</ele><time>2026-05-02T12:58:11.785Z</time></trkpt><trkpt lat="43.0079417" lon="11.8471467"><ele>519.0</ele><time>2026-05-02T12:58:12.788Z</time></trkpt><trkpt lat="43.007835" lon="11.8473733"><ele>519.0</ele><time>2026-05-02T12:58:13.786Z</time></trkpt><trkpt lat="43.0077333" lon="11.8475833"><ele>518.0</ele><time>2026-05-02T12:58:14.787Z</time></trkpt><trkpt lat="43.0076367" lon="11.8477833"><ele>517.0</ele><time>2026-05-02T12:58:15.786Z</time></trkpt><trkpt lat="43.0075367" lon="11.8479733"><ele>516.0</ele><time>2026-05-02T12:58:16.786Z</time></trkpt><trkpt lat="43.00743" lon="11.84816"><ele>516.3333333333334</ele><time>2026-05-02T12:58:17.786Z</time></trkpt><trkpt lat="43.0073133" lon="11.8483483"><ele>516.6666666666667</ele><time>2026-05-02T12:58:18.786Z</time></trkpt><trkpt lat="43.007185" lon="11.848535"><ele>517.0</ele><time>2026-05-02T12:58:19.787Z</time></trkpt><trkpt lat="43.0070483" lon="11.84872"><ele>517.0</ele><time>2026-05-02T12:58:20.786Z</time></trkpt><trkpt lat="43.0069033" lon="11.8489117"><ele>517.0</ele><time>2026-05-02T12:58:21.787Z</time></trkpt><trkpt lat="43.0067567" lon="11.84911"><ele>517.0</ele><time>2026-05-02T12:58:22.786Z</time></trkpt><trkpt lat="43.0066117" lon="11.8493117"><ele>516.3333333333334</ele><time>2026-05-02T12:58:23.786Z</time></trkpt><trkpt lat="43.0064633" lon="11.849515"><ele>515.6666666666666</ele><time>2026-05-02T12:58:24.786Z</time></trkpt><trkpt lat="43.0063083" lon="11.8497333"><ele>515.0</ele><time>2026-05-02T12:58:25.786Z</time></trkpt><trkpt lat="43.0061417" lon="11.8499667"><ele>516.0</ele><time>2026-05-02T12:58:26.787Z</time></trkpt><trkpt lat="43.0059683" lon="11.8502067"><ele>517.0</ele><time>2026-05-02T12:58:27.786Z</time></trkpt><trkpt lat="43.0056217" lon="11.850695"><ele>517.0</ele><time>2026-05-02T12:58:29.786Z</time></trkpt><trkpt lat="43.005445" lon="11.8509433"><ele>517.0</ele><time>2026-05-02T12:58:30.786Z</time></trkpt><trkpt lat="43.0052683" lon="11.8511917"><ele>520.5</ele><time>2026-05-02T12:58:31.787Z</time></trkpt><trkpt lat="43.0050983" lon="11.8514317"><ele>524.0</ele><time>2026-05-02T12:58:32.787Z</time></trkpt><trkpt lat="43.00494" lon="11.851655"><ele>520.3333333333333</ele><time>2026-05-02T12:58:33.787Z</time></trkpt><trkpt lat="43.0048" lon="11.8518633"><ele>516.6666666666666</ele><time>2026-05-02T12:58:34.786Z</time></trkpt><trkpt lat="43.00467" lon="11.8520517"><ele>513.0</ele><time>2026-05-02T12:58:35.786Z</time></trkpt><trkpt lat="43.0045417" lon="11.85222"><ele>513.0</ele><time>2026-05-02T12:58:36.786Z</time></trkpt><trkpt lat="43.0044133" lon="11.85237"><ele>513.0</ele><time>2026-05-02T12:58:37.786Z</time></trkpt><trkpt lat="43.0042633" lon="11.85249"><ele>513.0</ele><time>2026-05-02T12:58:38.786Z</time></trkpt><trkpt lat="43.004095" lon="11.8525967"><ele>513.3333333333334</ele><time>2026-05-02T12:58:39.787Z</time></trkpt><trkpt lat="43.003905" lon="11.85268"><ele>513.6666666666667</ele><time>2026-05-02T12:58:40.786Z</time></trkpt><trkpt lat="43.0036983" lon="11.8527617"><ele>514.0</ele><time>2026-05-02T12:58:41.786Z</time></trkpt><trkpt lat="43.0034867" lon="11.8528533"><ele>516.3333333333334</ele><time>2026-05-02T12:58:42.786Z</time></trkpt><trkpt lat="43.0032867" lon="11.8529483"><ele>518.6666666666666</ele><time>2026-05-02T12:58:43.786Z</time></trkpt><trkpt lat="43.003105" lon="11.8530633"><ele>521.0</ele><time>2026-05-02T12:58:44.786Z</time></trkpt><trkpt lat="43.0029433" lon="11.8531967"><ele>521.0</ele><time>2026-05-02T12:58:45.786Z</time></trkpt><trkpt lat="43.0027917" lon="11.8533333"><ele>521.0</ele><time>2026-05-02T12:58:46.787Z</time></trkpt><trkpt lat="43.0026433" lon="11.8534567"><ele>521.0</ele><time>2026-05-02T12:58:47.787Z</time></trkpt><trkpt lat="43.0024783" lon="11.853545"><ele>522.6666666666666</ele><time>2026-05-02T12:58:48.786Z</time></trkpt><trkpt lat="43.002295" lon="11.85359"><ele>524.3333333333334</ele><time>2026-05-02T12:58:49.786Z</time></trkpt><trkpt lat="43.0021017" lon="11.8536083"><ele>526.0</ele><time>2026-05-02T12:58:50.79Z</time></trkpt><trkpt lat="43.0018917" lon="11.8536183"><ele>526.0</ele><time>2026-05-02T12:58:51.79Z</time></trkpt><trkpt lat="43.0016683" lon="11.8536383"><ele>526.0</ele><time>2026-05-02T12:58:52.79Z</time></trkpt><trkpt lat="43.001455" lon="11.8536633"><ele>526.0</ele><time>2026-05-02T12:58:53.786Z</time></trkpt><trkpt lat="43.0012517" lon="11.8536783"><ele>528.3333333333334</ele><time>2026-05-02T12:58:54.789Z</time></trkpt><trkpt lat="43.0010667" lon="11.853695"><ele>530.6666666666666</ele><time>2026-05-02T12:58:55.789Z</time></trkpt><trkpt lat="43.0008983" lon="11.8537217"><ele>533.0</ele><time>2026-05-02T12:58:56.787Z</time></trkpt><trkpt lat="43.0007483" lon="11.8537633"><ele>536.5</ele><time>2026-05-02T12:58:57.787Z</time></trkpt><trkpt lat="43.000635" lon="11.8538533"><ele>540.0</ele><time>2026-05-02T12:58:58.785Z</time></trkpt><trkpt lat="43.0005433" lon="11.85397"><ele>543.5</ele><time>2026-05-02T12:58:59.786Z</time></trkpt><trkpt lat="43.0004717" lon="11.8540983"><ele>547.0</ele><time>2026-05-02T12:59:00.787Z</time></trkpt><trkpt lat="43.0004217" lon="11.854205"><ele>546.3333333333334</ele><time>2026-05-02T12:59:01.786Z</time></trkpt><trkpt lat="43.0003783" lon="11.85429"><ele>545.6666666666667</ele><time>2026-05-02T12:59:02.786Z</time></trkpt><trkpt lat="43.00034" lon="11.85437"><ele>545.0</ele><time>2026-05-02T12:59:03.789Z</time></trkpt><trkpt lat="43.000305" lon="11.8544683"><ele>544.3333333333334</ele><time>2026-05-02T12:59:04.79Z</time></trkpt><trkpt lat="43.0002517" lon="11.8545767"><ele>543.6666666666666</ele><time>2026-05-02T12:59:05.789Z</time></trkpt><trkpt lat="43.0001717" lon="11.8546717"><ele>543.0</ele><time>2026-05-02T12:59:06.789Z</time></trkpt><trkpt lat="43.000075" lon="11.8547567"><ele>543.0</ele><time>2026-05-02T12:59:07.786Z</time></trkpt><trkpt lat="42.9999533" lon="11.8548333"><ele>543.0</ele><time>2026-05-02T12:59:08.786Z</time></trkpt><trkpt lat="42.9998317" lon="11.8549117"><ele>543.0</ele><time>2026-05-02T12:59:09.786Z</time></trkpt><trkpt lat="42.9997167" lon="11.8549783"><ele>543.0</ele><time>2026-05-02T12:59:10.786Z</time></trkpt><trkpt lat="42.9996233" lon="11.8550317"><ele>543.0</ele><time>2026-05-02T12:59:11.786Z</time></trkpt><trkpt lat="42.9995483" lon="11.8550733"><ele>543.0</ele><time>2026-05-02T12:59:12.786Z</time></trkpt><trkpt lat="42.9995033" lon="11.8551367"><ele>543.0</ele><time>2026-05-02T12:59:14.787Z</time></trkpt><trkpt lat="42.9995717" lon="11.8551383"><ele>543.0</ele><time>2026-05-02T12:59:16.786Z</time></trkpt><trkpt lat="42.99963" lon="11.8551033"><ele>543.0</ele><time>2026-05-02T12:59:17.786Z</time></trkpt><trkpt lat="42.99971" lon="11.8550433"><ele>543.0</ele><time>2026-05-02T12:59:18.787Z</time></trkpt><trkpt lat="42.9998017" lon="11.8549817"><ele>543.0</ele><time>2026-05-02T12:59:19.788Z</time></trkpt><trkpt lat="42.9999367" lon="11.8549083"><ele>543.0</ele><time>2026-05-02T12:59:20.791Z</time></trkpt><trkpt lat="43.0000733" lon="11.854805"><ele>543.0</ele><time>2026-05-02T12:59:21.789Z</time></trkpt><trkpt lat="43.000205" lon="11.8546933"><ele>543.0</ele><time>2026-05-02T12:59:22.79Z</time></trkpt><trkpt lat="43.0003183" lon="11.8545433"><ele>543.0</ele><time>2026-05-02T12:59:23.789Z</time></trkpt><trkpt lat="43.000415" lon="11.8543517"><ele>543.0</ele><time>2026-05-02T12:59:24.79Z</time></trkpt><trkpt lat="43.0005083" lon="11.8541433"><ele>544.0</ele><time>2026-05-02T12:59:25.79Z</time></trkpt><trkpt lat="43.000605" lon="11.8539683"><ele>545.0</ele><time>2026-05-02T12:59:26.786Z</time></trkpt><trkpt lat="43.0007117" lon="11.8538367"><ele>546.0</ele><time>2026-05-02T12:59:27.786Z</time></trkpt><trkpt lat="43.00083" lon="11.85375"><ele>547.0</ele><time>2026-05-02T12:59:28.79Z</time></trkpt><trkpt lat="43.0009833" lon="11.8537017"><ele>542.3333333333334</ele><time>2026-05-02T12:59:29.786Z</time></trkpt><trkpt lat="43.0011667" lon="11.8536833"><ele>537.6666666666666</ele><time>2026-05-02T12:59:30.787Z</time></trkpt><trkpt lat="43.00138" lon="11.8536733"><ele>533.0</ele><time>2026-05-02T12:59:31.788Z</time></trkpt><trkpt lat="43.0016033" lon="11.853665"><ele>530.6666666666666</ele><time>2026-05-02T12:59:32.785Z</time></trkpt><trkpt lat="43.00183" lon="11.853655"><ele>528.3333333333334</ele><time>2026-05-02T12:59:33.788Z</time></trkpt><trkpt lat="43.0020467" lon="11.853645"><ele>526.0</ele><time>2026-05-02T12:59:34.788Z</time></trkpt><trkpt lat="43.0022483" lon="11.8536367"><ele>526.0</ele><time>2026-05-02T12:59:35.789Z</time></trkpt><trkpt lat="43.0024267" lon="11.853615"><ele>526.0</ele><time>2026-05-02T12:59:36.788Z</time></trkpt><trkpt lat="43.0025883" lon="11.853555"><ele>526.0</ele><time>2026-05-02T12:59:37.786Z</time></trkpt><trkpt lat="43.00275" lon="11.8534467"><ele>524.3333333333334</ele><time>2026-05-02T12:59:38.785Z</time></trkpt><trkpt lat="43.00291" lon="11.8533"><ele>522.6666666666666</ele><time>2026-05-02T12:59:39.785Z</time></trkpt><trkpt lat="43.0030883" lon="11.8531433"><ele>521.0</ele><time>2026-05-02T12:59:40.785Z</time></trkpt><trkpt lat="43.0032917" lon="11.85301"><ele>517.5</ele><time>2026-05-02T12:59:41.785Z</time></trkpt><trkpt lat="43.0035083" lon="11.8529083"><ele>514.0</ele><time>2026-05-02T12:59:42.788Z</time></trkpt><trkpt lat="43.00372" lon="11.852815"><ele>514.0</ele><time>2026-05-02T12:59:43.786Z</time></trkpt><trkpt lat="43.0039217" lon="11.8527267"><ele>514.0</ele><time>2026-05-02T12:59:44.786Z</time></trkpt><trkpt lat="43.0041133" lon="11.8526333"><ele>514.0</ele><time>2026-05-02T12:59:45.787Z</time></trkpt><trkpt lat="43.00429" lon="11.852535"><ele>513.6666666666667</ele><time>2026-05-02T12:59:46.786Z</time></trkpt><trkpt lat="43.0044483" lon="11.852405"><ele>513.3333333333334</ele><time>2026-05-02T12:59:47.787Z</time></trkpt><trkpt lat="43.0045967" lon="11.8522383"><ele>513.0</ele><time>2026-05-02T12:59:48.787Z</time></trkpt><trkpt lat="43.0047433" lon="11.8520383"><ele>513.0</ele><time>2026-05-02T12:59:49.787Z</time></trkpt><trkpt lat="43.0048933" lon="11.8518183"><ele>513.0</ele><time>2026-05-02T12:59:50.789Z</time></trkpt><trkpt lat="43.0050483" lon="11.85159"><ele>513.0</ele><time>2026-05-02T12:59:51.788Z</time></trkpt><trkpt lat="43.0052117" lon="11.8513517"><ele>515.0</ele><time>2026-05-02T12:59:52.787Z</time></trkpt><trkpt lat="43.0053817" lon="11.8511083"><ele>517.0</ele><time>2026-05-02T12:59:53.789Z</time></trkpt><trkpt lat="43.00556" lon="11.8508583"><ele>517.0</ele><time>2026-05-02T12:59:54.788Z</time></trkpt><trkpt lat="43.00574" lon="11.8506067"><ele>517.0</ele><time>2026-05-02T12:59:55.789Z</time></trkpt><trkpt lat="43.005925" lon="11.8503517"><ele>516.0</ele><time>2026-05-02T12:59:56.788Z</time></trkpt><trkpt lat="43.0061067" lon="11.8501017"><ele>515.0</ele><time>2026-05-02T12:59:57.788Z</time></trkpt><trkpt lat="43.0062883" lon="11.8498533"><ele>515.0</ele><time>2026-05-02T12:59:58.788Z</time></trkpt><trkpt lat="43.0064717" lon="11.8496017"><ele>515.0</ele><time>2026-05-02T12:59:59.789Z</time></trkpt><trkpt lat="43.0066567" lon="11.8493467"><ele>516.0</ele><time>2026-05-02T13:00:00.789Z</time></trkpt><trkpt lat="43.0068383" lon="11.84909"><ele>517.0</ele><time>2026-05-02T13:00:01.788Z</time></trkpt><trkpt lat="43.0070133" lon="11.84885"><ele>517.0</ele><time>2026-05-02T13:00:02.788Z</time></trkpt><trkpt lat="43.0071767" lon="11.8486217"><ele>517.0</ele><time>2026-05-02T13:00:03.789Z</time></trkpt><trkpt lat="43.00733" lon="11.848395"><ele>516.5</ele><time>2026-05-02T13:00:04.788Z</time></trkpt><trkpt lat="43.007475" lon="11.8481483"><ele>516.0</ele><time>2026-05-02T13:00:05.788Z</time></trkpt><trkpt lat="43.007615" lon="11.8478767"><ele>517.5</ele><time>2026-05-02T13:00:06.788Z</time></trkpt><trkpt lat="43.007755" lon="11.8475883"><ele>519.0</ele><time>2026-05-02T13:00:07.785Z</time></trkpt><trkpt lat="43.0079" lon="11.84729"><ele>519.0</ele><time>2026-05-02T13:00:08.787Z</time></trkpt><trkpt lat="43.0080483" lon="11.8469833"><ele>519.0</ele><time>2026-05-02T13:00:09.785Z</time></trkpt><trkpt lat="43.0082" lon="11.8466717"><ele>518.0</ele><time>2026-05-02T13:00:10.785Z</time></trkpt><trkpt lat="43.0083517" lon="11.84636"><ele>517.0</ele><time>2026-05-02T13:00:11.785Z</time></trkpt><trkpt lat="43.0085" lon="11.8460517"><ele>517.0</ele><time>2026-05-02T13:00:12.786Z</time></trkpt><trkpt lat="43.0086517" lon="11.8457417"><ele>517.0</ele><time>2026-05-02T13:00:13.786Z</time></trkpt><trkpt lat="43.0088017" lon="11.8454267"><ele>520.5</ele><time>2026-05-02T13:00:14.786Z</time></trkpt><trkpt lat="43.0089517" lon="11.8451167"><ele>524.0</ele><time>2026-05-02T13:00:15.785Z</time></trkpt><trkpt lat="43.0091" lon="11.844805"><ele>519.5</ele><time>2026-05-02T13:00:16.786Z</time></trkpt><trkpt lat="43.0092533" lon="11.8444867"><ele>515.0</ele><time>2026-05-02T13:00:17.785Z</time></trkpt><trkpt lat="43.0094083" lon="11.8441783"><ele>515.0</ele><time>2026-05-02T13:00:18.785Z</time></trkpt><trkpt lat="43.00956" lon="11.8438867"><ele>515.0</ele><time>2026-05-02T13:00:19.786Z</time></trkpt><trkpt lat="43.0097083" lon="11.843615"><ele>515.0</ele><time>2026-05-02T13:00:20.789Z</time></trkpt><trkpt lat="43.0098517" lon="11.843365"><ele>515.0</ele><time>2026-05-02T13:00:21.789Z</time></trkpt><trkpt lat="43.0099867" lon="11.843125"><ele>514.0</ele><time>2026-05-02T13:00:22.788Z</time></trkpt><trkpt lat="43.0101183" lon="11.8429"><ele>513.0</ele><time>2026-05-02T13:00:23.789Z</time></trkpt><trkpt lat="43.010245" lon="11.8426883"><ele>512.0</ele><time>2026-05-02T13:00:24.789Z</time></trkpt><trkpt lat="43.01037" lon="11.8424817"><ele>514.6666666666666</ele><time>2026-05-02T13:00:25.789Z</time></trkpt><trkpt lat="43.01049" lon="11.84228"><ele>517.3333333333334</ele><time>2026-05-02T13:00:26.789Z</time></trkpt><trkpt lat="43.01061" lon="11.8420733"><ele>520.0</ele><time>2026-05-02T13:00:27.789Z</time></trkpt><trkpt lat="43.010725" lon="11.8418583"><ele>519.3333333333334</ele><time>2026-05-02T13:00:28.788Z</time></trkpt><trkpt lat="43.010835" lon="11.841635"><ele>518.6666666666666</ele><time>2026-05-02T13:00:29.789Z</time></trkpt><trkpt lat="43.0109383" lon="11.841405"><ele>518.0</ele><time>2026-05-02T13:00:30.789Z</time></trkpt><trkpt lat="43.0110417" lon="11.84118"><ele>519.6666666666666</ele><time>2026-05-02T13:00:31.788Z</time></trkpt><trkpt lat="43.011145" lon="11.8409633"><ele>521.3333333333334</ele><time>2026-05-02T13:00:32.789Z</time></trkpt><trkpt lat="43.01124" lon="11.8407633"><ele>523.0</ele><time>2026-05-02T13:00:33.789Z</time></trkpt><trkpt lat="43.0113283" lon="11.84059"><ele>523.0</ele><time>2026-05-02T13:00:34.788Z</time></trkpt><trkpt lat="43.0114117" lon="11.84044"><ele>523.0</ele><time>2026-05-02T13:00:35.789Z</time></trkpt><trkpt lat="43.0114883" lon="11.8403117"><ele>523.0</ele><time>2026-05-02T13:00:36.789Z</time></trkpt><trkpt lat="43.0115583" lon="11.8401983"><ele>523.0</ele><time>2026-05-02T13:00:37.785Z</time></trkpt><trkpt lat="43.0116183" lon="11.8401017"><ele>523.5</ele><time>2026-05-02T13:00:38.785Z</time></trkpt><trkpt lat="43.0116617" lon="11.8400283"><ele>524.0</ele><time>2026-05-02T13:00:39.785Z</time></trkpt><trkpt lat="43.0117" lon="11.83993"><ele>524.5</ele><time>2026-05-02T13:00:41.789Z</time></trkpt><trkpt lat="43.0116467" lon="11.8398133"><ele>525.0</ele><time>2026-05-02T13:00:44.785Z</time></trkpt><trkpt lat="43.011585" lon="11.8396867"><ele>525.5</ele><time>2026-05-02T13:00:46.787Z</time></trkpt><trkpt lat="43.011555" lon="11.8396033"><ele>526.0</ele><time>2026-05-02T13:00:47.789Z</time></trkpt><trkpt lat="43.0115233" lon="11.83951"><ele>526.0</ele><time>2026-05-02T13:00:48.785Z</time></trkpt><trkpt lat="43.0115017" lon="11.8394067"><ele>526.0</ele><time>2026-05-02T13:00:49.787Z</time></trkpt><trkpt lat="43.01148" lon="11.8392867"><ele>526.0</ele><time>2026-05-02T13:00:50.789Z</time></trkpt><trkpt lat="43.0114583" lon="11.8391583"><ele>526.0</ele><time>2026-05-02T13:00:51.785Z</time></trkpt><trkpt lat="43.0114417" lon="11.8390183"><ele>526.0</ele><time>2026-05-02T13:00:52.785Z</time></trkpt><trkpt lat="43.01142" lon="11.838875"><ele>527.2</ele><time>2026-05-02T13:00:53.785Z</time></trkpt><trkpt lat="43.0113933" lon="11.8387617"><ele>528.4000000000001</ele><time>2026-05-02T13:00:54.786Z</time></trkpt><trkpt lat="43.0113567" lon="11.8386517"><ele>529.6</ele><time>2026-05-02T13:00:55.789Z</time></trkpt><trkpt lat="43.0112983" lon="11.8385467"><ele>530.8000000000001</ele><time>2026-05-02T13:00:56.789Z</time></trkpt><trkpt lat="43.0112267" lon="11.8384367"><ele>532.0</ele><time>2026-05-02T13:00:57.789Z</time></trkpt><trkpt lat="43.0111533" lon="11.8383217"><ele>534.5</ele><time>2026-05-02T13:00:58.788Z</time></trkpt><trkpt lat="43.0110833" lon="11.838195"><ele>537.0</ele><time>2026-05-02T13:00:59.79Z</time></trkpt><trkpt lat="43.0110167" lon="11.838055"><ele>539.5</ele><time>2026-05-02T13:01:00.785Z</time></trkpt><trkpt lat="43.01096" lon="11.837915"><ele>542.0</ele><time>2026-05-02T13:01:01.789Z</time></trkpt><trkpt lat="43.010895" lon="11.8377733"><ele>542.0</ele><time>2026-05-02T13:01:02.787Z</time></trkpt><trkpt lat="43.0108283" lon="11.8376367"><ele>542.0</ele><time>2026-05-02T13:01:03.788Z</time></trkpt><trkpt lat="43.0107567" lon="11.83751"><ele>542.0</ele><time>2026-05-02T13:01:04.789Z</time></trkpt><trkpt lat="43.0106717" lon="11.83739"><ele>542.0</ele><time>2026-05-02T13:01:05.787Z</time></trkpt><trkpt lat="43.0105783" lon="11.83728"><ele>544.4</ele><time>2026-05-02T13:01:06.789Z</time></trkpt><trkpt lat="43.0104833" lon="11.83717"><ele>546.8000000000001</ele><time>2026-05-02T13:01:07.786Z</time></trkpt><trkpt lat="43.010405" lon="11.83707"><ele>549.2</ele><time>2026-05-02T13:01:08.786Z</time></trkpt><trkpt lat="43.0103483" lon="11.8369683"><ele>551.6</ele><time>2026-05-02T13:01:09.786Z</time></trkpt><trkpt lat="43.0103183" lon="11.8368617"><ele>554.0</ele><time>2026-05-02T13:01:10.786Z</time></trkpt><trkpt lat="43.010305" lon="11.8367433"><ele>555.3333333333333</ele><time>2026-05-02T13:01:11.786Z</time></trkpt><trkpt lat="43.0103117" lon="11.83663"><ele>556.6666666666666</ele><time>2026-05-02T13:01:12.787Z</time></trkpt><trkpt lat="43.0103367" lon="11.83653"><ele>558.0</ele><time>2026-05-02T13:01:13.786Z</time></trkpt><trkpt lat="43.0103783" lon="11.8364417"><ele>559.3333333333334</ele><time>2026-05-02T13:01:14.789Z</time></trkpt><trkpt lat="43.0104333" lon="11.83638"><ele>560.6666666666667</ele><time>2026-05-02T13:01:15.79Z</time></trkpt><trkpt lat="43.0105" lon="11.8363483"><ele>562.0</ele><time>2026-05-02T13:01:16.787Z</time></trkpt><trkpt lat="43.0105867" lon="11.836335"><ele>562.0</ele><time>2026-05-02T13:01:17.786Z</time></trkpt><trkpt lat="43.0106617" lon="11.836305"><ele>562.0</ele><time>2026-05-02T13:01:18.785Z</time></trkpt><trkpt lat="43.0107183" lon="11.83625"><ele>562.0</ele><time>2026-05-02T13:01:19.786Z</time></trkpt><trkpt lat="43.01076" lon="11.8361433"><ele>562.0</ele><time>2026-05-02T13:01:21.786Z</time></trkpt><trkpt lat="43.0106567" lon="11.8360417"><ele>562.0</ele><time>2026-05-02T13:01:23.789Z</time></trkpt><trkpt lat="43.010565" lon="11.8360267"><ele>562.0</ele><time>2026-05-02T13:01:24.786Z</time></trkpt><trkpt lat="43.0104517" lon="11.8360183"><ele>562.0</ele><time>2026-05-02T13:01:25.79Z</time></trkpt><trkpt lat="43.0103617" lon="11.8359967"><ele>562.0</ele><time>2026-05-02T13:01:26.789Z</time></trkpt><trkpt lat="43.0102733" lon="11.835965"><ele>562.0</ele><time>2026-05-02T13:01:27.787Z</time></trkpt><trkpt lat="43.0101717" lon="11.8359183"><ele>562.0</ele><time>2026-05-02T13:01:28.786Z</time></trkpt><trkpt lat="43.0100833" lon="11.8358533"><ele>564.0</ele><time>2026-05-02T13:01:29.787Z</time></trkpt><trkpt lat="43.0100117" lon="11.8357683"><ele>566.0</ele><time>2026-05-02T13:01:30.786Z</time></trkpt><trkpt lat="43.009955" lon="11.8356733"><ele>568.0</ele><time>2026-05-02T13:01:31.786Z</time></trkpt><trkpt lat="43.009915" lon="11.8355717"><ele>570.0</ele><time>2026-05-02T13:01:32.786Z</time></trkpt><trkpt lat="43.0098883" lon="11.8354567"><ele>572.0</ele><time>2026-05-02T13:01:33.786Z</time></trkpt><trkpt lat="43.0098833" lon="11.8353333"><ele>574.0</ele><time>2026-05-02T13:01:34.787Z</time></trkpt><trkpt lat="43.00989" lon="11.83522"><ele>575.6</ele><time>2026-05-02T13:01:35.787Z</time></trkpt><trkpt lat="43.0099083" lon="11.8350983"><ele>577.2</ele><time>2026-05-02T13:01:36.786Z</time></trkpt><trkpt lat="43.009925" lon="11.8349683"><ele>578.8000000000001</ele><time>2026-05-02T13:01:37.786Z</time></trkpt><trkpt lat="43.0099267" lon="11.8348317"><ele>580.4</ele><time>2026-05-02T13:01:38.786Z</time></trkpt><trkpt lat="43.0099217" lon="11.8347067"><ele>582.0</ele><time>2026-05-02T13:01:39.786Z</time></trkpt><trkpt lat="43.0099183" lon="11.8346033"><ele>582.0</ele><time>2026-05-02T13:01:40.786Z</time></trkpt><trkpt lat="43.00992" lon="11.8345"><ele>582.0</ele><time>2026-05-02T13:01:41.791Z</time></trkpt><trkpt lat="43.0099283" lon="11.834385"><ele>582.0</ele><time>2026-05-02T13:01:42.786Z</time></trkpt><trkpt lat="43.0099417" lon="11.83425"><ele>582.0</ele><time>2026-05-02T13:01:43.789Z</time></trkpt><trkpt lat="43.0099667" lon="11.83411"><ele>582.0</ele><time>2026-05-02T13:01:44.787Z</time></trkpt><trkpt lat="43.0099967" lon="11.8339633"><ele>582.5</ele><time>2026-05-02T13:01:45.789Z</time></trkpt><trkpt lat="43.010035" lon="11.8338167"><ele>583.0</ele><time>2026-05-02T13:01:46.789Z</time></trkpt><trkpt lat="43.01007" lon="11.83367"><ele>583.5</ele><time>2026-05-02T13:01:47.787Z</time></trkpt><trkpt lat="43.0100967" lon="11.8335217"><ele>584.0</ele><time>2026-05-02T13:01:48.788Z</time></trkpt><trkpt lat="43.0101117" lon="11.8333667"><ele>584.1666666666666</ele><time>2026-05-02T13:01:49.788Z</time></trkpt><trkpt lat="43.0101117" lon="11.833225"><ele>584.3333333333333</ele><time>2026-05-02T13:01:50.79Z</time></trkpt><trkpt lat="43.0100933" lon="11.8331"><ele>584.5</ele><time>2026-05-02T13:01:51.785Z</time></trkpt><trkpt lat="43.0100717" lon="11.8329933"><ele>584.6666666666666</ele><time>2026-05-02T13:01:52.789Z</time></trkpt><trkpt lat="43.0100417" lon="11.8329"><ele>584.8333333333334</ele><time>2026-05-02T13:01:53.789Z</time></trkpt><trkpt lat="43.0099867" lon="11.8328133"><ele>585.0</ele><time>2026-05-02T13:01:54.789Z</time></trkpt><trkpt lat="43.0099067" lon="11.832755"><ele>586.4</ele><time>2026-05-02T13:01:55.79Z</time></trkpt><trkpt lat="43.0098067" lon="11.8327167"><ele>587.8</ele><time>2026-05-02T13:01:56.789Z</time></trkpt><trkpt lat="43.0097033" lon="11.8326967"><ele>589.2</ele><time>2026-05-02T13:01:57.787Z</time></trkpt><trkpt lat="43.0096217" lon="11.8326733"><ele>590.6</ele><time>2026-05-02T13:01:58.786Z</time></trkpt><trkpt lat="43.0095533" lon="11.8326517"><ele>592.0</ele><time>2026-05-02T13:01:59.786Z</time></trkpt><trkpt lat="43.0094367" lon="11.8326083"><ele>592.8000000000001</ele><time>2026-05-02T13:02:01.786Z</time></trkpt><trkpt lat="43.0093233" lon="11.832525"><ele>593.6</ele><time>2026-05-02T13:02:03.787Z</time></trkpt><trkpt lat="43.0092667" lon="11.8324583"><ele>594.4000000000001</ele><time>2026-05-02T13:02:04.787Z</time></trkpt><trkpt lat="43.00921" lon="11.8323733"><ele>595.2</ele><time>2026-05-02T13:02:05.786Z</time></trkpt><trkpt lat="43.0091583" lon="11.832265"><ele>596.0</ele><time>2026-05-02T13:02:06.786Z</time></trkpt><trkpt lat="43.0091067" lon="11.83214"><ele>598.4</ele><time>2026-05-02T13:02:07.787Z</time></trkpt><trkpt lat="43.0090567" lon="11.8320067"><ele>600.8</ele><time>2026-05-02T13:02:08.786Z</time></trkpt><trkpt lat="43.0090033" lon="11.8318717"><ele>603.1999999999999</ele><time>2026-05-02T13:02:09.786Z</time></trkpt><trkpt lat="43.0089467" lon="11.831755"><ele>605.6</ele><time>2026-05-02T13:02:10.786Z</time></trkpt><trkpt lat="43.008885" lon="11.831675"><ele>608.0</ele><time>2026-05-02T13:02:11.786Z</time></trkpt><trkpt lat="43.0088217" lon="11.831625"><ele>608.0</ele><time>2026-05-02T13:02:12.786Z</time></trkpt><trkpt lat="43.0087467" lon="11.8315883"><ele>608.0</ele><time>2026-05-02T13:02:13.786Z</time></trkpt><trkpt lat="43.008655" lon="11.8315667"><ele>608.0</ele><time>2026-05-02T13:02:14.789Z</time></trkpt><trkpt lat="43.0085633" lon="11.831535"><ele>608.0</ele><time>2026-05-02T13:02:15.786Z</time></trkpt><trkpt lat="43.0084883" lon="11.8314883"><ele>608.0</ele><time>2026-05-02T13:02:16.786Z</time></trkpt><trkpt lat="43.0084233" lon="11.8314217"><ele>608.0</ele><time>2026-05-02T13:02:17.786Z</time></trkpt><trkpt lat="43.0083717" lon="11.8313333"><ele>608.0</ele><time>2026-05-02T13:02:18.786Z</time></trkpt><trkpt lat="43.00834" lon="11.8312283"><ele>608.0</ele><time>2026-05-02T13:02:19.787Z</time></trkpt><trkpt lat="43.0083067" lon="11.831105"><ele>608.0</ele><time>2026-05-02T13:02:20.79Z</time></trkpt><trkpt lat="43.00827" lon="11.830965"><ele>608.0</ele><time>2026-05-02T13:02:21.79Z</time></trkpt><trkpt lat="43.0082283" lon="11.83082"><ele>608.0</ele><time>2026-05-02T13:02:22.789Z</time></trkpt><trkpt lat="43.00818" lon="11.83067"><ele>612.0</ele><time>2026-05-02T13:02:23.789Z</time></trkpt><trkpt lat="43.0081367" lon="11.8305183"><ele>616.0</ele><time>2026-05-02T13:02:24.79Z</time></trkpt><trkpt lat="43.008095" lon="11.8303633"><ele>620.0</ele><time>2026-05-02T13:02:25.79Z</time></trkpt><trkpt lat="43.00804" lon="11.8302067"><ele>624.0</ele><time>2026-05-02T13:02:26.79Z</time></trkpt><trkpt lat="43.0079867" lon="11.8300517"><ele>624.5</ele><time>2026-05-02T13:02:27.786Z</time></trkpt><trkpt lat="43.0079367" lon="11.8298967"><ele>625.0</ele><time>2026-05-02T13:02:28.786Z</time></trkpt><trkpt lat="43.0078933" lon="11.8297467"><ele>625.5</ele><time>2026-05-02T13:02:29.788Z</time></trkpt><trkpt lat="43.0078567" lon="11.8296067"><ele>626.0</ele><time>2026-05-02T13:02:30.786Z</time></trkpt><trkpt lat="43.0078333" lon="11.8294733"><ele>626.0</ele><time>2026-05-02T13:02:31.786Z</time></trkpt><trkpt lat="43.0078233" lon="11.8293367"><ele>626.0</ele><time>2026-05-02T13:02:32.787Z</time></trkpt><trkpt lat="43.0078217" lon="11.82918"><ele>626.0</ele><time>2026-05-02T13:02:33.787Z</time></trkpt><trkpt lat="43.0078233" lon="11.82903"><ele>626.0</ele><time>2026-05-02T13:02:34.786Z</time></trkpt><trkpt lat="43.00784" lon="11.8289083"><ele>626.0</ele><time>2026-05-02T13:02:35.787Z</time></trkpt><trkpt lat="43.00787" lon="11.8288083"><ele>626.6666666666666</ele><time>2026-05-02T13:02:36.786Z</time></trkpt><trkpt lat="43.0079233" lon="11.82873"><ele>627.3333333333333</ele><time>2026-05-02T13:02:37.786Z</time></trkpt><trkpt lat="43.00799" lon="11.8286683"><ele>628.0</ele><time>2026-05-02T13:02:38.786Z</time></trkpt><trkpt lat="43.0080533" lon="11.8286067"><ele>628.6666666666666</ele><time>2026-05-02T13:02:39.786Z</time></trkpt><trkpt lat="43.0081017" lon="11.828535"><ele>629.3333333333334</ele><time>2026-05-02T13:02:40.787Z</time></trkpt><trkpt lat="43.0081417" lon="11.8284517"><ele>630.0</ele><time>2026-05-02T13:02:41.785Z</time></trkpt><trkpt lat="43.008175" lon="11.8283567"><ele>631.6666666666666</ele><time>2026-05-02T13:02:42.785Z</time></trkpt><trkpt lat="43.0081967" lon="11.8282567"><ele>633.3333333333334</ele><time>2026-05-02T13:02:43.785Z</time></trkpt><trkpt lat="43.00821" lon="11.8281433"><ele>635.0</ele><time>2026-05-02T13:02:44.786Z</time></trkpt><trkpt lat="43.008215" lon="11.8280233"><ele>636.6666666666667</ele><time>2026-05-02T13:02:45.785Z</time></trkpt><trkpt lat="43.0082033" lon="11.8279067"><ele>638.3333333333334</ele><time>2026-05-02T13:02:46.786Z</time></trkpt><trkpt lat="43.0081717" lon="11.827795"><ele>640.0</ele><time>2026-05-02T13:02:47.785Z</time></trkpt><trkpt lat="43.00812" lon="11.827695"><ele>639.8</ele><time>2026-05-02T13:02:48.787Z</time></trkpt><trkpt lat="43.0080483" lon="11.8276017"><ele>639.6</ele><time>2026-05-02T13:02:49.785Z</time></trkpt><trkpt lat="43.0079617" lon="11.827495"><ele>639.4</ele><time>2026-05-02T13:02:50.787Z</time></trkpt><trkpt lat="43.007885" lon="11.827375"><ele>639.2</ele><time>2026-05-02T13:02:51.785Z</time></trkpt><trkpt lat="43.007825" lon="11.8272433"><ele>639.0</ele><time>2026-05-02T13:02:52.786Z</time></trkpt><trkpt lat="43.0077867" lon="11.8270933"><ele>639.0</ele><time>2026-05-02T13:02:53.785Z</time></trkpt><trkpt lat="43.0077617" lon="11.8269333"><ele>639.0</ele><time>2026-05-02T13:02:54.789Z</time></trkpt><trkpt lat="43.00775" lon="11.8267683"><ele>639.0</ele><time>2026-05-02T13:02:55.789Z</time></trkpt><trkpt lat="43.00774" lon="11.826615"><ele>639.0</ele><time>2026-05-02T13:02:56.785Z</time></trkpt><trkpt lat="43.0077283" lon="11.8264833"><ele>638.6</ele><time>2026-05-02T13:02:57.785Z</time></trkpt><trkpt lat="43.0077117" lon="11.8263633"><ele>638.2</ele><time>2026-05-02T13:02:58.786Z</time></trkpt><trkpt lat="43.00768" lon="11.826245"><ele>637.8000000000001</ele><time>2026-05-02T13:02:59.785Z</time></trkpt><trkpt lat="43.007645" lon="11.8261167"><ele>637.4</ele><time>2026-05-02T13:03:00.785Z</time></trkpt><trkpt lat="43.0076133" lon="11.8259817"><ele>637.0</ele><time>2026-05-02T13:03:01.788Z</time></trkpt><trkpt lat="43.0075967" lon="11.82583"><ele>636.2</ele><time>2026-05-02T13:03:02.786Z</time></trkpt><trkpt lat="43.0075983" lon="11.8256717"><ele>635.4000000000001</ele><time>2026-05-02T13:03:03.787Z</time></trkpt><trkpt lat="43.0076083" lon="11.8255267"><ele>634.5999999999999</ele><time>2026-05-02T13:03:04.787Z</time></trkpt><trkpt lat="43.0076183" lon="11.825405"><ele>633.8</ele><time>2026-05-02T13:03:05.786Z</time></trkpt><trkpt lat="43.007625" lon="11.825295"><ele>633.0</ele><time>2026-05-02T13:03:06.785Z</time></trkpt><trkpt lat="43.007615" lon="11.8251983"><ele>632.1999999999999</ele><time>2026-05-02T13:03:07.787Z</time></trkpt><trkpt lat="43.00755" lon="11.8250833"><ele>631.4</ele><time>2026-05-02T13:03:09.788Z</time></trkpt><trkpt lat="43.00743" lon="11.8250517"><ele>630.5999999999999</ele><time>2026-05-02T13:03:11.786Z</time></trkpt><trkpt lat="43.0073267" lon="11.825005"><ele>629.8</ele><time>2026-05-02T13:03:13.786Z</time></trkpt><trkpt lat="43.0072767" lon="11.8249067"><ele>629.0</ele><time>2026-05-02T13:03:15.786Z</time></trkpt><trkpt lat="43.0072733" lon="11.8248083"><ele>632.0</ele><time>2026-05-02T13:03:16.786Z</time></trkpt><trkpt lat="43.0072967" lon="11.82464"><ele>635.0</ele><time>2026-05-02T13:03:17.786Z</time></trkpt><trkpt lat="43.007315" lon="11.8244933"><ele>638.0</ele><time>2026-05-02T13:03:18.789Z</time></trkpt><trkpt lat="43.0073567" lon="11.8243483"><ele>641.0</ele><time>2026-05-02T13:03:19.785Z</time></trkpt><trkpt lat="43.00742" lon="11.8242333"><ele>639.0</ele><time>2026-05-02T13:03:20.785Z</time></trkpt><trkpt lat="43.0075083" lon="11.8241217"><ele>637.0</ele><time>2026-05-02T13:03:21.785Z</time></trkpt><trkpt lat="43.007595" lon="11.8240167"><ele>635.0</ele><time>2026-05-02T13:03:22.788Z</time></trkpt><trkpt lat="43.0076817" lon="11.82392"><ele>633.0</ele><time>2026-05-02T13:03:23.786Z</time></trkpt><trkpt lat="43.0077667" lon="11.8238333"><ele>633.0</ele><time>2026-05-02T13:03:24.785Z</time></trkpt><trkpt lat="43.0078417" lon="11.82374"><ele>633.0</ele><time>2026-05-02T13:03:25.785Z</time></trkpt><trkpt lat="43.0079017" lon="11.8236467"><ele>633.0</ele><time>2026-05-02T13:03:26.788Z</time></trkpt><trkpt lat="43.007945" lon="11.82355"><ele>633.0</ele><time>2026-05-02T13:03:27.786Z</time></trkpt><trkpt lat="43.0079733" lon="11.8234583"><ele>633.0</ele><time>2026-05-02T13:03:28.785Z</time></trkpt><trkpt lat="43.008" lon="11.823375"><ele>633.0</ele><time>2026-05-02T13:03:29.786Z</time></trkpt><trkpt lat="43.0080817" lon="11.8232633"><ele>632.4</ele><time>2026-05-02T13:03:31.79Z</time></trkpt><trkpt lat="43.0081917" lon="11.8232533"><ele>631.8</ele><time>2026-05-02T13:03:33.786Z</time></trkpt><trkpt lat="43.008255" lon="11.8233"><ele>631.2</ele><time>2026-05-02T13:03:34.786Z</time></trkpt><trkpt lat="43.0083367" lon="11.82337"><ele>630.6</ele><time>2026-05-02T13:03:35.788Z</time></trkpt><trkpt lat="43.008415" lon="11.8234283"><ele>630.0</ele><time>2026-05-02T13:03:36.789Z</time></trkpt><trkpt lat="43.0084967" lon="11.8235"><ele>630.0</ele><time>2026-05-02T13:03:37.788Z</time></trkpt><trkpt lat="43.0085667" lon="11.8235783"><ele>630.0</ele><time>2026-05-02T13:03:38.789Z</time></trkpt><trkpt lat="43.0086367" lon="11.8236583"><ele>630.0</ele><time>2026-05-02T13:03:39.789Z</time></trkpt><trkpt lat="43.008715" lon="11.8237267"><ele>630.0</ele><time>2026-05-02T13:03:40.79Z</time></trkpt><trkpt lat="43.0088017" lon="11.82378"><ele>630.0</ele><time>2026-05-02T13:03:41.787Z</time></trkpt><trkpt lat="43.0088833" lon="11.823815"><ele>630.0</ele><time>2026-05-02T13:03:42.785Z</time></trkpt><trkpt lat="43.0089733" lon="11.8238317"><ele>630.0</ele><time>2026-05-02T13:03:43.786Z</time></trkpt><trkpt lat="43.00906" lon="11.8238267"><ele>630.0</ele><time>2026-05-02T13:03:44.786Z</time></trkpt><trkpt lat="43.0091517" lon="11.8238033"><ele>630.0</ele><time>2026-05-02T13:03:45.786Z</time></trkpt><trkpt lat="43.0092417" lon="11.8237833"><ele>630.0</ele><time>2026-05-02T13:03:46.786Z</time></trkpt><trkpt lat="43.0093233" lon="11.8237667"><ele>630.0</ele><time>2026-05-02T13:03:47.786Z</time></trkpt><trkpt lat="43.009405" lon="11.8237667"><ele>629.3333333333334</ele><time>2026-05-02T13:03:48.787Z</time></trkpt><trkpt lat="43.0094767" lon="11.8237833"><ele>628.6666666666666</ele><time>2026-05-02T13:03:49.787Z</time></trkpt><trkpt lat="43.0095417" lon="11.8238283"><ele>628.0</ele><time>2026-05-02T13:03:50.786Z</time></trkpt><trkpt lat="43.0096217" lon="11.823875"><ele>627.3333333333333</ele><time>2026-05-02T13:03:51.788Z</time></trkpt><trkpt lat="43.0097033" lon="11.8239217"><ele>626.6666666666666</ele><time>2026-05-02T13:03:52.789Z</time></trkpt><trkpt lat="43.0097983" lon="11.8239617"><ele>626.0</ele><time>2026-05-02T13:03:53.789Z</time></trkpt><trkpt lat="43.0099017" lon="11.8239867"><ele>625.6</ele><time>2026-05-02T13:03:54.789Z</time></trkpt><trkpt lat="43.0100117" lon="11.8240067"><ele>625.2</ele><time>2026-05-02T13:03:55.789Z</time></trkpt><trkpt lat="43.0101267" lon="11.8240233"><ele>624.8</ele><time>2026-05-02T13:03:56.786Z</time></trkpt><trkpt lat="43.010235" lon="11.8240467"><ele>624.4</ele><time>2026-05-02T13:03:57.787Z</time></trkpt><trkpt lat="43.0103433" lon="11.8240683"><ele>624.0</ele><time>2026-05-02T13:03:58.785Z</time></trkpt><trkpt lat="43.0104533" lon="11.824095"><ele>624.0</ele><time>2026-05-02T13:03:59.785Z</time></trkpt><trkpt lat="43.0105533" lon="11.8241283"><ele>624.0</ele><time>2026-05-02T13:04:00.787Z</time></trkpt><trkpt lat="43.010635" lon="11.8241733"><ele>624.0</ele><time>2026-05-02T13:04:01.785Z</time></trkpt><trkpt lat="43.010705" lon="11.8242317"><ele>624.0</ele><time>2026-05-02T13:04:02.786Z</time></trkpt><trkpt lat="43.010765" lon="11.8242933"><ele>624.0</ele><time>2026-05-02T13:04:03.789Z</time></trkpt><trkpt lat="43.01087" lon="11.8243433"><ele>624.4</ele><time>2026-05-02T13:04:05.789Z</time></trkpt><trkpt lat="43.0109583" lon="11.8242633"><ele>624.8</ele><time>2026-05-02T13:04:07.786Z</time></trkpt><trkpt lat="43.0110133" lon="11.8240983"><ele>625.2</ele><time>2026-05-02T13:04:09.786Z</time></trkpt><trkpt lat="43.0110233" lon="11.8239833"><ele>625.6</ele><time>2026-05-02T13:04:10.786Z</time></trkpt><trkpt lat="43.011015" lon="11.82385"><ele>626.0</ele><time>2026-05-02T13:04:11.786Z</time></trkpt><trkpt lat="43.0109867" lon="11.82371"><ele>626.0</ele><time>2026-05-02T13:04:12.786Z</time></trkpt><trkpt lat="43.010955" lon="11.8235833"><ele>626.0</ele><time>2026-05-02T13:04:13.787Z</time></trkpt><trkpt lat="43.01092" lon="11.8234633"><ele>626.0</ele><time>2026-05-02T13:04:14.787Z</time></trkpt><trkpt lat="43.0109133" lon="11.82336"><ele>626.0</ele><time>2026-05-02T13:04:15.787Z</time></trkpt><trkpt lat="43.0109217" lon="11.8232683"><ele>626.0</ele><time>2026-05-02T13:04:16.785Z</time></trkpt><trkpt lat="43.0109433" lon="11.8231767"><ele>626.0</ele><time>2026-05-02T13:04:17.786Z</time></trkpt><trkpt lat="43.010985" lon="11.823095"><ele>628.6</ele><time>2026-05-02T13:04:18.787Z</time></trkpt><trkpt lat="43.0110567" lon="11.82301"><ele>631.2</ele><time>2026-05-02T13:04:19.787Z</time></trkpt><trkpt lat="43.0111367" lon="11.8229267"><ele>633.8</ele><time>2026-05-02T13:04:20.786Z</time></trkpt><trkpt lat="43.0112017" lon="11.8228383"><ele>636.4</ele><time>2026-05-02T13:04:21.79Z</time></trkpt><trkpt lat="43.0112567" lon="11.8227517"><ele>639.0</ele><time>2026-05-02T13:04:22.787Z</time></trkpt><trkpt lat="43.0113183" lon="11.8226783"><ele>639.0</ele><time>2026-05-02T13:04:23.789Z</time></trkpt><trkpt lat="43.01144" lon="11.8226283"><ele>639.0</ele><time>2026-05-02T13:04:25.786Z</time></trkpt><trkpt lat="43.011515" lon="11.82267"><ele>639.0</ele><time>2026-05-02T13:04:26.789Z</time></trkpt><trkpt lat="43.0115983" lon="11.822695"><ele>639.0</ele><time>2026-05-02T13:04:27.789Z</time></trkpt><trkpt lat="43.0116833" lon="11.82271"><ele>639.0</ele><time>2026-05-02T13:04:28.787Z</time></trkpt><trkpt lat="43.0117717" lon="11.8227117"><ele>639.5</ele><time>2026-05-02T13:04:29.786Z</time></trkpt><trkpt lat="43.0118683" lon="11.822715"><ele>640.0</ele><time>2026-05-02T13:04:30.786Z</time></trkpt><trkpt lat="43.0119583" lon="11.8227067"><ele>640.5</ele><time>2026-05-02T13:04:31.789Z</time></trkpt><trkpt lat="43.0120483" lon="11.8226867"><ele>641.0</ele><time>2026-05-02T13:04:32.79Z</time></trkpt><trkpt lat="43.0121217" lon="11.8226533"><ele>641.5</ele><time>2026-05-02T13:04:33.786Z</time></trkpt><trkpt lat="43.0121883" lon="11.82262"><ele>642.0</ele><time>2026-05-02T13:04:34.789Z</time></trkpt><trkpt lat="43.0122683" lon="11.8225967"><ele>642.0</ele><time>2026-05-02T13:04:35.786Z</time></trkpt><trkpt lat="43.0123467" lon="11.8225683"><ele>642.0</ele><time>2026-05-02T13:04:36.789Z</time></trkpt><trkpt lat="43.012425" lon="11.8225267"><ele>642.0</ele><time>2026-05-02T13:04:37.786Z</time></trkpt><trkpt lat="43.0125" lon="11.822465"><ele>642.0</ele><time>2026-05-02T13:04:38.786Z</time></trkpt><trkpt lat="43.0125667" lon="11.8224017"><ele>642.0</ele><time>2026-05-02T13:04:39.786Z</time></trkpt><trkpt lat="43.0126333" lon="11.822345"><ele>642.0</ele><time>2026-05-02T13:04:40.786Z</time></trkpt><trkpt lat="43.012705" lon="11.822305"><ele>641.1666666666666</ele><time>2026-05-02T13:04:41.787Z</time></trkpt><trkpt lat="43.0127717" lon="11.822285"><ele>640.3333333333334</ele><time>2026-05-02T13:04:42.785Z</time></trkpt><trkpt lat="43.0128383" lon="11.82229"><ele>639.5</ele><time>2026-05-02T13:04:43.786Z</time></trkpt><trkpt lat="43.0129383" lon="11.8223433"><ele>638.6666666666667</ele><time>2026-05-02T13:04:45.785Z</time></trkpt><trkpt lat="43.0130017" lon="11.822425"><ele>637.8333333333334</ele><time>2026-05-02T13:04:47.787Z</time></trkpt><trkpt lat="43.0130717" lon="11.8225233"><ele>637.0</ele><time>2026-05-02T13:04:50.789Z</time></trkpt><trkpt lat="43.0131533" lon="11.8225967"><ele>634.6</ele><time>2026-05-02T13:04:52.789Z</time></trkpt><trkpt lat="43.0132483" lon="11.82268"><ele>632.2</ele><time>2026-05-02T13:04:54.786Z</time></trkpt><trkpt lat="43.0133417" lon="11.822755"><ele>629.8</ele><time>2026-05-02T13:04:56.789Z</time></trkpt><trkpt lat="43.0134167" lon="11.82283"><ele>627.4</ele><time>2026-05-02T13:04:58.789Z</time></trkpt><trkpt lat="43.0134867" lon="11.8228967"><ele>625.0</ele><time>2026-05-02T13:05:09.787Z</time></trkpt><trkpt lat="43.0135717" lon="11.8229517"><ele>625.0</ele><time>2026-05-02T13:05:17.786Z</time></trkpt><trkpt lat="43.013635" lon="11.8229517"><ele>625.0</ele><time>2026-05-02T13:05:28.79Z</time></trkpt><trkpt lat="43.013565" lon="11.8229117"><ele>625.0</ele><time>2026-05-02T13:05:30.785Z</time></trkpt><trkpt lat="43.0134667" lon="11.8228417"><ele>625.0</ele><time>2026-05-02T13:05:32.786Z</time></trkpt><trkpt lat="43.0134083" lon="11.82279"><ele>625.0</ele><time>2026-05-02T13:05:33.787Z</time></trkpt><trkpt lat="43.0133367" lon="11.822725"><ele>625.0</ele><time>2026-05-02T13:05:34.79Z</time></trkpt><trkpt lat="43.0132583" lon="11.822655"><ele>627.0</ele><time>2026-05-02T13:05:35.79Z</time></trkpt><trkpt lat="43.01318" lon="11.8225833"><ele>629.0</ele><time>2026-05-02T13:05:36.789Z</time></trkpt><trkpt lat="43.0131017" lon="11.8225133"><ele>631.0</ele><time>2026-05-02T13:05:37.786Z</time></trkpt><trkpt lat="43.0130417" lon="11.8224633"><ele>633.0</ele><time>2026-05-02T13:05:38.786Z</time></trkpt><trkpt lat="43.0129683" lon="11.8223817"><ele>635.0</ele><time>2026-05-02T13:05:40.786Z</time></trkpt><trkpt lat="43.01302" lon="11.8222733"><ele>637.0</ele><time>2026-05-02T13:05:50.785Z</time></trkpt><trkpt lat="43.0131067" lon="11.8221967"><ele>637.0</ele><time>2026-05-02T13:05:52.788Z</time></trkpt><trkpt lat="43.0131983" lon="11.82209"><ele>637.0</ele><time>2026-05-02T13:05:54.788Z</time></trkpt><trkpt lat="43.013215" lon="11.821965"><ele>637.0</ele><time>2026-05-02T13:05:56.789Z</time></trkpt><trkpt lat="43.0131717" lon="11.8218167"><ele>637.0</ele><time>2026-05-02T13:05:58.785Z</time></trkpt><trkpt lat="43.013135" lon="11.8217367"><ele>637.0</ele><time>2026-05-02T13:05:59.785Z</time></trkpt><trkpt lat="43.0130983" lon="11.8216533"><ele>638.8571428571429</ele><time>2026-05-02T13:06:00.789Z</time></trkpt><trkpt lat="43.0130667" lon="11.8215633"><ele>640.7142857142858</ele><time>2026-05-02T13:06:01.785Z</time></trkpt><trkpt lat="43.0130433" lon="11.8214733"><ele>642.5714285714286</ele><time>2026-05-02T13:06:02.788Z</time></trkpt><trkpt lat="43.0130433" lon="11.82138"><ele>644.4285714285714</ele><time>2026-05-02T13:06:03.786Z</time></trkpt><trkpt lat="43.0130733" lon="11.8212733"><ele>646.2857142857143</ele><time>2026-05-02T13:06:04.788Z</time></trkpt><trkpt lat="43.0130767" lon="11.82117"><ele>648.1428571428571</ele><time>2026-05-02T13:06:05.788Z</time></trkpt><trkpt lat="43.01307" lon="11.821065"><ele>650.0</ele><time>2026-05-02T13:06:06.785Z</time></trkpt><trkpt lat="43.0130717" lon="11.8209533"><ele>652.5</ele><time>2026-05-02T13:06:07.786Z</time></trkpt><trkpt lat="43.0130917" lon="11.8208483"><ele>655.0</ele><time>2026-05-02T13:06:08.785Z</time></trkpt><trkpt lat="43.0131267" lon="11.820745"><ele>657.5</ele><time>2026-05-02T13:06:09.785Z</time></trkpt><trkpt lat="43.0131633" lon="11.8206417"><ele>660.0</ele><time>2026-05-02T13:06:10.786Z</time></trkpt><trkpt lat="43.0131767" lon="11.820555"><ele>662.5</ele><time>2026-05-02T13:06:11.785Z</time></trkpt><trkpt lat="43.013155" lon="11.8204217"><ele>665.0</ele><time>2026-05-02T13:06:13.785Z</time></trkpt><trkpt lat="43.0130483" lon="11.8203517"><ele>665.0</ele><time>2026-05-02T13:06:15.785Z</time></trkpt><trkpt lat="43.012975" lon="11.8203233"><ele>665.0</ele><time>2026-05-02T13:06:16.786Z</time></trkpt><trkpt lat="43.0128867" lon="11.8202917"><ele>665.0</ele><time>2026-05-02T13:06:17.786Z</time></trkpt><trkpt lat="43.01279" lon="11.82026"><ele>665.0</ele><time>2026-05-02T13:06:18.787Z</time></trkpt><trkpt lat="43.0126733" lon="11.820205"><ele>665.0</ele><time>2026-05-02T13:06:19.786Z</time></trkpt><trkpt lat="43.012575" lon="11.8201433"><ele>670.6</ele><time>2026-05-02T13:06:20.785Z</time></trkpt><trkpt lat="43.01248" lon="11.82008"><ele>676.2</ele><time>2026-05-02T13:06:21.787Z</time></trkpt><trkpt lat="43.01238" lon="11.82002"><ele>681.8</ele><time>2026-05-02T13:06:22.785Z</time></trkpt><trkpt lat="43.0122833" lon="11.819965"><ele>687.4</ele><time>2026-05-02T13:06:23.787Z</time></trkpt><trkpt lat="43.01219" lon="11.8199117"><ele>693.0</ele><time>2026-05-02T13:06:24.785Z</time></trkpt><trkpt lat="43.0120967" lon="11.8198633"><ele>693.0</ele><time>2026-05-02T13:06:25.788Z</time></trkpt><trkpt lat="43.01203" lon="11.8198083"><ele>693.0</ele><time>2026-05-02T13:06:26.79Z</time></trkpt><trkpt lat="43.0119483" lon="11.81968"><ele>693.0</ele><time>2026-05-02T13:06:28.788Z</time></trkpt><trkpt lat="43.0119433" lon="11.81953"><ele>693.0</ele><time>2026-05-02T13:06:30.79Z</time></trkpt><trkpt lat="43.0119867" lon="11.8194233"><ele>693.0</ele><time>2026-05-02T13:06:31.788Z</time></trkpt><trkpt lat="43.0120517" lon="11.8193033"><ele>695.8</ele><time>2026-05-02T13:06:32.789Z</time></trkpt><trkpt lat="43.0121133" lon="11.819175"><ele>698.5999999999999</ele><time>2026-05-02T13:06:33.789Z</time></trkpt><trkpt lat="43.012165" lon="11.819045"><ele>701.4000000000001</ele><time>2026-05-02T13:06:34.788Z</time></trkpt><trkpt lat="43.0122183" lon="11.8189083"><ele>704.2</ele><time>2026-05-02T13:06:35.787Z</time></trkpt><trkpt lat="43.012245" lon="11.818795"><ele>707.0</ele><time>2026-05-02T13:06:36.789Z</time></trkpt><trkpt lat="43.0122533" lon="11.8187033"><ele>707.0</ele><time>2026-05-02T13:06:37.785Z</time></trkpt><trkpt lat="43.0122033" lon="11.8185517"><ele>707.0</ele><time>2026-05-02T13:06:39.786Z</time></trkpt><trkpt lat="43.0121667" lon="11.8184733"><ele>707.0</ele><time>2026-05-02T13:06:40.786Z</time></trkpt><trkpt lat="43.0121267" lon="11.8183917"><ele>707.0</ele><time>2026-05-02T13:06:41.786Z</time></trkpt><trkpt lat="43.01209" lon="11.8183083"><ele>707.0</ele><time>2026-05-02T13:06:42.785Z</time></trkpt><trkpt lat="43.0120683" lon="11.8182267"><ele>707.0</ele><time>2026-05-02T13:06:43.787Z</time></trkpt><trkpt lat="43.0120567" lon="11.81814"><ele>708.6666666666666</ele><time>2026-05-02T13:06:44.786Z</time></trkpt><trkpt lat="43.0120633" lon="11.8180433"><ele>710.3333333333333</ele><time>2026-05-02T13:06:45.786Z</time></trkpt><trkpt lat="43.0120767" lon="11.81794"><ele>712.0</ele><time>2026-05-02T13:06:46.786Z</time></trkpt><trkpt lat="43.0120817" lon="11.8178367"><ele>713.6666666666666</ele><time>2026-05-02T13:06:47.786Z</time></trkpt><trkpt lat="43.012075" lon="11.8177417"><ele>715.3333333333334</ele><time>2026-05-02T13:06:48.785Z</time></trkpt><trkpt lat="43.01207" lon="11.8176017"><ele>717.0</ele><time>2026-05-02T13:06:50.787Z</time></trkpt><trkpt lat="43.01206" lon="11.8175117"><ele>718.3333333333334</ele><time>2026-05-02T13:06:52.786Z</time></trkpt><trkpt lat="43.0120233" lon="11.8173783"><ele>719.6666666666666</ele><time>2026-05-02T13:06:56.786Z</time></trkpt><trkpt lat="43.012005" lon="11.8172633"><ele>721.0</ele><time>2026-05-02T13:06:58.786Z</time></trkpt><trkpt lat="43.0120017" lon="11.817175"><ele>722.3333333333333</ele><time>2026-05-02T13:07:09.786Z</time></trkpt><trkpt lat="43.0120433" lon="11.8170283"><ele>723.6666666666666</ele><time>2026-05-02T13:07:11.786Z</time></trkpt><trkpt lat="43.0120767" lon="11.8169467"><ele>725.0</ele><time>2026-05-02T13:07:12.786Z</time></trkpt><trkpt lat="43.012115" lon="11.81686"><ele>726.3333333333333</ele><time>2026-05-02T13:07:13.786Z</time></trkpt><trkpt lat="43.0121533" lon="11.8167583"><ele>727.6666666666666</ele><time>2026-05-02T13:07:14.786Z</time></trkpt><trkpt lat="43.01218" lon="11.8166417"><ele>729.0</ele><time>2026-05-02T13:07:15.786Z</time></trkpt><trkpt lat="43.0121867" lon="11.816535"><ele>730.3333333333334</ele><time>2026-05-02T13:07:16.787Z</time></trkpt><trkpt lat="43.0121733" lon="11.81644"><ele>731.6666666666667</ele><time>2026-05-02T13:07:17.788Z</time></trkpt><trkpt lat="43.0121433" lon="11.8163617"><ele>733.0</ele><time>2026-05-02T13:07:18.786Z</time></trkpt><trkpt lat="43.0120917" lon="11.8162917"><ele>733.0</ele><time>2026-05-02T13:07:19.787Z</time></trkpt><trkpt lat="43.0120317" lon="11.816225"><ele>733.0</ele><time>2026-05-02T13:07:20.787Z</time></trkpt><trkpt lat="43.01196" lon="11.816145"><ele>733.0</ele><time>2026-05-02T13:07:21.787Z</time></trkpt><trkpt lat="43.0118883" lon="11.8160583"><ele>733.0</ele><time>2026-05-02T13:07:22.786Z</time></trkpt><trkpt lat="43.011825" lon="11.815965"><ele>733.0</ele><time>2026-05-02T13:07:23.787Z</time></trkpt><trkpt lat="43.011755" lon="11.8158683"><ele>735.2</ele><time>2026-05-02T13:07:24.786Z</time></trkpt><trkpt lat="43.0116783" lon="11.8157633"><ele>737.4</ele><time>2026-05-02T13:07:25.786Z</time></trkpt><trkpt lat="43.0115983" lon="11.8156733"><ele>739.6</ele><time>2026-05-02T13:07:26.787Z</time></trkpt><trkpt lat="43.0115183" lon="11.8156017"><ele>741.8000000000001</ele><time>2026-05-02T13:07:27.789Z</time></trkpt><trkpt lat="43.0114567" lon="11.81554"><ele>744.0</ele><time>2026-05-02T13:07:28.786Z</time></trkpt><trkpt lat="43.011405" lon="11.8154717"><ele>746.2</ele><time>2026-05-02T13:07:29.789Z</time></trkpt><trkpt lat="43.0113867" lon="11.8153083"><ele>748.4000000000001</ele><time>2026-05-02T13:07:31.786Z</time></trkpt><trkpt lat="43.0113967" lon="11.8151883"><ele>750.6</ele><time>2026-05-02T13:07:32.786Z</time></trkpt><trkpt lat="43.0114033" lon="11.8150517"><ele>752.8</ele><time>2026-05-02T13:07:33.79Z</time></trkpt><trkpt lat="43.0114033" lon="11.8149117"><ele>755.0</ele><time>2026-05-02T13:07:34.79Z</time></trkpt><trkpt lat="43.0114017" lon="11.81477"><ele>756.5</ele><time>2026-05-02T13:07:35.788Z</time></trkpt><trkpt lat="43.0114" lon="11.814625"><ele>758.0</ele><time>2026-05-02T13:07:36.785Z</time></trkpt><trkpt lat="43.0114" lon="11.814505"><ele>759.5</ele><time>2026-05-02T13:07:37.786Z</time></trkpt><trkpt lat="43.0114067" lon="11.81439"><ele>761.0</ele><time>2026-05-02T13:07:38.788Z</time></trkpt><trkpt lat="43.0114133" lon="11.814295"><ele>762.5</ele><time>2026-05-02T13:07:39.786Z</time></trkpt><trkpt lat="43.0114183" lon="11.814195"><ele>764.0</ele><time>2026-05-02T13:07:40.788Z</time></trkpt><trkpt lat="43.0114317" lon="11.81409"><ele>764.7142857142858</ele><time>2026-05-02T13:07:41.786Z</time></trkpt><trkpt lat="43.0114533" lon="11.813985"><ele>765.4285714285713</ele><time>2026-05-02T13:07:42.786Z</time></trkpt><trkpt lat="43.011465" lon="11.81389"><ele>766.1428571428571</ele><time>2026-05-02T13:07:43.786Z</time></trkpt><trkpt lat="43.0114683" lon="11.8137967"><ele>766.8571428571429</ele><time>2026-05-02T13:07:44.786Z</time></trkpt><trkpt lat="43.0114617" lon="11.8136983"><ele>767.5714285714287</ele><time>2026-05-02T13:07:45.786Z</time></trkpt><trkpt lat="43.011435" lon="11.8136"><ele>768.2857142857142</ele><time>2026-05-02T13:07:46.787Z</time></trkpt><trkpt lat="43.0114" lon="11.8135017"><ele>769.0</ele><time>2026-05-02T13:07:47.786Z</time></trkpt><trkpt lat="43.01135" lon="11.8133867"><ele>768.9999999999999</ele><time>2026-05-02T13:07:48.786Z</time></trkpt><trkpt lat="43.0112917" lon="11.8132667"><ele>769.0</ele><time>2026-05-02T13:07:49.786Z</time></trkpt><trkpt lat="43.01124" lon="11.813165"><ele>769.0</ele><time>2026-05-02T13:07:50.789Z</time></trkpt><trkpt lat="43.0111983" lon="11.813065"><ele>769.0</ele><time>2026-05-02T13:07:51.787Z</time></trkpt><trkpt lat="43.0111617" lon="11.812965"><ele>768.9999999999999</ele><time>2026-05-02T13:07:52.79Z</time></trkpt><trkpt lat="43.0111367" lon="11.8128733"><ele>769.0</ele><time>2026-05-02T13:07:53.786Z</time></trkpt><trkpt lat="43.0111383" lon="11.812725"><ele>769.6666666666666</ele><time>2026-05-02T13:07:55.787Z</time></trkpt><trkpt lat="43.0111967" lon="11.8126467"><ele>770.3333333333333</ele><time>2026-05-02T13:07:57.786Z</time></trkpt><trkpt lat="43.01126" lon="11.8126167"><ele>771.0</ele><time>2026-05-02T13:07:58.787Z</time></trkpt><trkpt lat="43.0113417" lon="11.8125817"><ele>771.6666666666667</ele><time>2026-05-02T13:07:59.786Z</time></trkpt><trkpt lat="43.0114083" lon="11.8125183"><ele>772.3333333333334</ele><time>2026-05-02T13:08:00.786Z</time></trkpt><trkpt lat="43.0114483" lon="11.8124367"><ele>773.0</ele><time>2026-05-02T13:08:01.787Z</time></trkpt><trkpt lat="43.0114717" lon="11.81234"><ele>773.0000000000001</ele><time>2026-05-02T13:08:02.788Z</time></trkpt><trkpt lat="43.011485" lon="11.8122517"><ele>773.0</ele><time>2026-05-02T13:08:03.787Z</time></trkpt><trkpt lat="43.0114717" lon="11.8121417"><ele>773.0</ele><time>2026-05-02T13:08:04.787Z</time></trkpt><trkpt lat="43.01147" lon="11.8120467"><ele>773.0</ele><time>2026-05-02T13:08:05.787Z</time></trkpt><trkpt lat="43.01148" lon="11.8119617"><ele>773.0000000000001</ele><time>2026-05-02T13:08:06.787Z</time></trkpt><trkpt lat="43.0115383" lon="11.8118383"><ele>773.0</ele><time>2026-05-02T13:08:08.788Z</time></trkpt><trkpt lat="43.01165" lon="11.8117767"><ele>770.1666666666667</ele><time>2026-05-02T13:08:10.787Z</time></trkpt><trkpt lat="43.0117167" lon="11.8117483"><ele>767.3333333333334</ele><time>2026-05-02T13:08:11.787Z</time></trkpt><trkpt lat="43.011775" lon="11.811665"><ele>764.5</ele><time>2026-05-02T13:08:12.786Z</time></trkpt><trkpt lat="43.0118333" lon="11.811585"><ele>761.6666666666667</ele><time>2026-05-02T13:08:13.787Z</time></trkpt><trkpt lat="43.0119" lon="11.8115067"><ele>758.8333333333334</ele><time>2026-05-02T13:08:14.787Z</time></trkpt><trkpt lat="43.0119583" lon="11.8114067"><ele>756.0</ele><time>2026-05-02T13:08:15.786Z</time></trkpt><trkpt lat="43.0120067" lon="11.8113117"><ele>756.0</ele><time>2026-05-02T13:08:16.787Z</time></trkpt><trkpt lat="43.012055" lon="11.8112217"><ele>756.0</ele><time>2026-05-02T13:08:17.786Z</time></trkpt><trkpt lat="43.0121533" lon="11.8111167"><ele>756.0</ele><time>2026-05-02T13:08:19.786Z</time></trkpt><trkpt lat="43.0122283" lon="11.811075"><ele>756.0</ele><time>2026-05-02T13:08:20.787Z</time></trkpt><trkpt lat="43.01231" lon="11.81104"><ele>756.0</ele><time>2026-05-02T13:08:21.786Z</time></trkpt><trkpt lat="43.012395" lon="11.8110183"><ele>756.0</ele><time>2026-05-02T13:08:22.786Z</time></trkpt><trkpt lat="43.0124817" lon="11.811"><ele>756.0</ele><time>2026-05-02T13:08:23.786Z</time></trkpt><trkpt lat="43.0125783" lon="11.81101"><ele>756.0</ele><time>2026-05-02T13:08:24.786Z</time></trkpt><trkpt lat="43.0126733" lon="11.8110267"><ele>756.0</ele><time>2026-05-02T13:08:25.786Z</time></trkpt><trkpt lat="43.0127617" lon="11.8110233"><ele>756.0</ele><time>2026-05-02T13:08:26.787Z</time></trkpt><trkpt lat="43.0128417" lon="11.8110083"><ele>755.1666666666666</ele><time>2026-05-02T13:08:27.787Z</time></trkpt><trkpt lat="43.0129117" lon="11.8109833"><ele>754.3333333333334</ele><time>2026-05-02T13:08:28.786Z</time></trkpt><trkpt lat="43.012975" lon="11.8109583"><ele>753.5</ele><time>2026-05-02T13:08:29.786Z</time></trkpt><trkpt lat="43.013035" lon="11.8109183"><ele>752.6666666666667</ele><time>2026-05-02T13:08:30.786Z</time></trkpt><trkpt lat="43.0131067" lon="11.81084"><ele>751.8333333333334</ele><time>2026-05-02T13:08:31.786Z</time></trkpt><trkpt lat="43.0131733" lon="11.810785"><ele>751.0</ele><time>2026-05-02T13:08:32.788Z</time></trkpt><trkpt lat="43.0132317" lon="11.8107133"><ele>751.0</ele><time>2026-05-02T13:08:33.786Z</time></trkpt><trkpt lat="43.0132883" lon="11.8106367"><ele>751.0</ele><time>2026-05-02T13:08:34.787Z</time></trkpt><trkpt lat="43.0133417" lon="11.810565"><ele>751.0</ele><time>2026-05-02T13:08:35.786Z</time></trkpt><trkpt lat="43.0133917" lon="11.8104783"><ele>751.0</ele><time>2026-05-02T13:08:36.789Z</time></trkpt><trkpt lat="43.0134517" lon="11.8103717"><ele>751.0</ele><time>2026-05-02T13:08:37.786Z</time></trkpt><trkpt lat="43.0134833" lon="11.8102317"><ele>751.0</ele><time>2026-05-02T13:08:38.787Z</time></trkpt><trkpt lat="43.0135117" lon="11.8100983"><ele>749.0</ele><time>2026-05-02T13:08:39.786Z</time></trkpt><trkpt lat="43.0135417" lon="11.8099617"><ele>747.0</ele><time>2026-05-02T13:08:40.787Z</time></trkpt><trkpt lat="43.0135583" lon="11.8098567"><ele>745.0</ele><time>2026-05-02T13:08:41.786Z</time></trkpt><trkpt lat="43.0135633" lon="11.809715"><ele>743.0</ele><time>2026-05-02T13:08:42.786Z</time></trkpt><trkpt lat="43.0135567" lon="11.8095367"><ele>741.0</ele><time>2026-05-02T13:08:43.786Z</time></trkpt><trkpt lat="43.0135317" lon="11.8094033"><ele>740.4</ele><time>2026-05-02T13:08:44.787Z</time></trkpt><trkpt lat="43.0134933" lon="11.8092833"><ele>739.8</ele><time>2026-05-02T13:08:45.787Z</time></trkpt><trkpt lat="43.01346" lon="11.80917"><ele>739.1999999999999</ele><time>2026-05-02T13:08:46.787Z</time></trkpt><trkpt lat="43.0134267" lon="11.8090483"><ele>738.5999999999999</ele><time>2026-05-02T13:08:47.786Z</time></trkpt><trkpt lat="43.0133867" lon="11.8089283"><ele>738.0</ele><time>2026-05-02T13:08:48.786Z</time></trkpt><trkpt lat="43.01334" lon="11.8088117"><ele>739.4</ele><time>2026-05-02T13:08:49.787Z</time></trkpt><trkpt lat="43.0132883" lon="11.8087067"><ele>740.8</ele><time>2026-05-02T13:08:50.786Z</time></trkpt><trkpt lat="43.013225" lon="11.8085967"><ele>742.2</ele><time>2026-05-02T13:08:51.787Z</time></trkpt><trkpt lat="43.0131633" lon="11.8084817"><ele>743.6</ele><time>2026-05-02T13:08:52.789Z</time></trkpt><trkpt lat="43.0131017" lon="11.808355"><ele>745.0</ele><time>2026-05-02T13:08:53.786Z</time></trkpt><trkpt lat="43.0130517" lon="11.8082317"><ele>745.0</ele><time>2026-05-02T13:08:54.788Z</time></trkpt><trkpt lat="43.013" lon="11.8081167"><ele>745.0</ele><time>2026-05-02T13:08:55.789Z</time></trkpt><trkpt lat="43.0129417" lon="11.808015"><ele>745.0</ele><time>2026-05-02T13:08:56.785Z</time></trkpt><trkpt lat="43.0128967" lon="11.8079217"><ele>745.0</ele><time>2026-05-02T13:08:57.785Z</time></trkpt><trkpt lat="43.0128633" lon="11.8078233"><ele>745.0</ele><time>2026-05-02T13:08:58.786Z</time></trkpt><trkpt lat="43.0128417" lon="11.807715"><ele>745.0</ele><time>2026-05-02T13:08:59.785Z</time></trkpt><trkpt lat="43.01284" lon="11.80758"><ele>743.75</ele><time>2026-05-02T13:09:00.785Z</time></trkpt><trkpt lat="43.0128467" lon="11.8073867"><ele>742.5</ele><time>2026-05-02T13:09:01.785Z</time></trkpt><trkpt lat="43.0128533" lon="11.8072017"><ele>741.25</ele><time>2026-05-02T13:09:02.786Z</time></trkpt><trkpt lat="43.0128833" lon="11.807005"><ele>740.0</ele><time>2026-05-02T13:09:03.785Z</time></trkpt><trkpt lat="43.01291" lon="11.8068117"><ele>739.0</ele><time>2026-05-02T13:09:04.786Z</time></trkpt><trkpt lat="43.012935" lon="11.80663"><ele>738.0</ele><time>2026-05-02T13:09:05.786Z</time></trkpt><trkpt lat="43.0129567" lon="11.8064717"><ele>737.0</ele><time>2026-05-02T13:09:06.79Z</time></trkpt><trkpt lat="43.01297" lon="11.8063267"><ele>736.0</ele><time>2026-05-02T13:09:07.785Z</time></trkpt><trkpt lat="43.01297" lon="11.8061967"><ele>736.0</ele><time>2026-05-02T13:09:08.787Z</time></trkpt><trkpt lat="43.0129517" lon="11.8060883"><ele>736.0</ele><time>2026-05-02T13:09:09.785Z</time></trkpt><trkpt lat="43.0129067" lon="11.805955"><ele>736.0</ele><time>2026-05-02T13:09:11.785Z</time></trkpt><trkpt lat="43.0128683" lon="11.8058533"><ele>736.0</ele><time>2026-05-02T13:09:15.786Z</time></trkpt><trkpt lat="43.0128533" lon="11.8057633"><ele>736.0</ele><time>2026-05-02T13:09:18.786Z</time></trkpt><trkpt lat="43.01282" lon="11.80565"><ele>736.0</ele><time>2026-05-02T13:09:28.786Z</time></trkpt><trkpt lat="43.0128517" lon="11.805455"><ele>736.0</ele><time>2026-05-02T13:10:04.46Z</time></trkpt><trkpt lat="43.0128083" lon="11.8055333"><ele>736.0</ele><time>2026-05-02T13:10:08.785Z</time></trkpt><trkpt lat="43.01274" lon="11.8055083"><ele>736.0</ele><time>2026-05-02T13:10:10.787Z</time></trkpt><trkpt lat="43.0126683" lon="11.805475"><ele>736.0</ele><time>2026-05-02T13:10:11.785Z</time></trkpt><trkpt lat="43.0125867" lon="11.805445"><ele>736.0</ele><time>2026-05-02T13:10:12.785Z</time></trkpt><trkpt lat="43.0124983" lon="11.8054167"><ele>736.0</ele><time>2026-05-02T13:10:13.785Z</time></trkpt><trkpt lat="43.0123883" lon="11.80538"><ele>736.0</ele><time>2026-05-02T13:10:14.787Z</time></trkpt><trkpt lat="43.0122767" lon="11.8053383"><ele>736.0</ele><time>2026-05-02T13:10:15.785Z</time></trkpt><trkpt lat="43.012165" lon="11.8052683"><ele>736.0</ele><time>2026-05-02T13:10:16.786Z</time></trkpt><trkpt lat="43.01205" lon="11.8051783"><ele>736.0</ele><time>2026-05-02T13:10:17.789Z</time></trkpt><trkpt lat="43.011935" lon="11.8050783"><ele>737.0</ele><time>2026-05-02T13:10:18.786Z</time></trkpt><trkpt lat="43.0118217" lon="11.8049717"><ele>738.0</ele><time>2026-05-02T13:10:19.785Z</time></trkpt><trkpt lat="43.011715" lon="11.8048683"><ele>739.0</ele><time>2026-05-02T13:10:20.787Z</time></trkpt><trkpt lat="43.0116133" lon="11.804765"><ele>740.0</ele><time>2026-05-02T13:10:21.787Z</time></trkpt><trkpt lat="43.01152" lon="11.8046583"><ele>740.0</ele><time>2026-05-02T13:10:22.785Z</time></trkpt><trkpt lat="43.0114417" lon="11.8045667"><ele>740.0</ele><time>2026-05-02T13:10:23.786Z</time></trkpt><trkpt lat="43.0113667" lon="11.8045067"><ele>740.0</ele><time>2026-05-02T13:10:24.786Z</time></trkpt><trkpt lat="43.0112983" lon="11.80448"><ele>740.0</ele><time>2026-05-02T13:10:25.785Z</time></trkpt><trkpt lat="43.0111783" lon="11.8045"><ele>740.0</ele><time>2026-05-02T13:10:27.785Z</time></trkpt><trkpt lat="43.0111233" lon="11.804545"><ele>740.0</ele><time>2026-05-02T13:10:28.785Z</time></trkpt><trkpt lat="43.0110833" lon="11.8046317"><ele>740.0</ele><time>2026-05-02T13:10:29.786Z</time></trkpt><trkpt lat="43.01106" lon="11.8047517"><ele>740.0</ele><time>2026-05-02T13:10:30.785Z</time></trkpt><trkpt lat="43.0110367" lon="11.8048933"><ele>740.0</ele><time>2026-05-02T13:10:31.787Z</time></trkpt><trkpt lat="43.0110133" lon="11.8050433"><ele>740.0</ele><time>2026-05-02T13:10:32.786Z</time></trkpt><trkpt lat="43.0109817" lon="11.80518"><ele>740.0</ele><time>2026-05-02T13:10:33.786Z</time></trkpt><trkpt lat="43.0109483" lon="11.80529"><ele>742.0</ele><time>2026-05-02T13:10:34.788Z</time></trkpt><trkpt lat="43.0108967" lon="11.8053783"><ele>744.0</ele><time>2026-05-02T13:10:35.786Z</time></trkpt><trkpt lat="43.0108183" lon="11.8054367"><ele>746.0</ele><time>2026-05-02T13:10:36.79Z</time></trkpt><trkpt lat="43.0107233" lon="11.8054783"><ele>748.0</ele><time>2026-05-02T13:10:37.786Z</time></trkpt><trkpt lat="43.01061" lon="11.8055067"><ele>750.0</ele><time>2026-05-02T13:10:38.786Z</time></trkpt><trkpt lat="43.01049" lon="11.8055367"><ele>752.0</ele><time>2026-05-02T13:10:39.787Z</time></trkpt><trkpt lat="43.0103567" lon="11.8055683"><ele>754.0</ele><time>2026-05-02T13:10:40.786Z</time></trkpt><trkpt lat="43.0102117" lon="11.805595"><ele>756.0</ele><time>2026-05-02T13:10:41.786Z</time></trkpt><trkpt lat="43.0100683" lon="11.8056233"><ele>758.0</ele><time>2026-05-02T13:10:42.786Z</time></trkpt><trkpt lat="43.009925" lon="11.8056567"><ele>758.5</ele><time>2026-05-02T13:10:43.786Z</time></trkpt><trkpt lat="43.009785" lon="11.8056867"><ele>759.0</ele><time>2026-05-02T13:10:44.785Z</time></trkpt><trkpt lat="43.0096467" lon="11.8057117"><ele>759.5</ele><time>2026-05-02T13:10:45.786Z</time></trkpt><trkpt lat="43.00953" lon="11.80573"><ele>760.0</ele><time>2026-05-02T13:10:46.786Z</time></trkpt><trkpt lat="43.009445" lon="11.8057367"><ele>760.0</ele><time>2026-05-02T13:10:47.787Z</time></trkpt><trkpt lat="43.0093767" lon="11.8057317"><ele>760.0</ele><time>2026-05-02T13:10:48.787Z</time></trkpt><trkpt lat="43.00938" lon="11.8056333"><ele>760.0</ele><time>2026-05-02T13:10:53.786Z</time></trkpt><trkpt lat="43.0093617" lon="11.80555"><ele>760.0</ele><time>2026-05-02T13:10:58.786Z</time></trkpt><trkpt lat="43.0093167" lon="11.80542"><ele>760.0</ele><time>2026-05-02T13:11:00.786Z</time></trkpt><trkpt lat="43.009305" lon="11.805295"><ele>760.0</ele><time>2026-05-02T13:11:01.786Z</time></trkpt><trkpt lat="43.0092867" lon="11.80513"><ele>759.2</ele><time>2026-05-02T13:11:02.787Z</time></trkpt><trkpt lat="43.0092617" lon="11.8049717"><ele>758.4</ele><time>2026-05-02T13:11:03.786Z</time></trkpt><trkpt lat="43.0092433" lon="11.8048417"><ele>757.5999999999999</ele><time>2026-05-02T13:11:04.787Z</time></trkpt><trkpt lat="43.009235" lon="11.8047133"><ele>756.8</ele><time>2026-05-02T13:11:05.786Z</time></trkpt><trkpt lat="43.0092333" lon="11.8045783"><ele>756.0</ele><time>2026-05-02T13:11:06.787Z</time></trkpt><trkpt lat="43.009235" lon="11.80443"><ele>753.75</ele><time>2026-05-02T13:11:07.786Z</time></trkpt><trkpt lat="43.0092283" lon="11.8042767"><ele>751.5</ele><time>2026-05-02T13:11:08.789Z</time></trkpt><trkpt lat="43.0092083" lon="11.8041117"><ele>749.25</ele><time>2026-05-02T13:11:09.789Z</time></trkpt><trkpt lat="43.0091767" lon="11.803945"><ele>747.0</ele><time>2026-05-02T13:11:10.788Z</time></trkpt><trkpt lat="43.00914" lon="11.8037817"><ele>745.75</ele><time>2026-05-02T13:11:11.789Z</time></trkpt><trkpt lat="43.0091017" lon="11.8036267"><ele>744.5</ele><time>2026-05-02T13:11:12.789Z</time></trkpt><trkpt lat="43.0090633" lon="11.803475"><ele>743.25</ele><time>2026-05-02T13:11:13.786Z</time></trkpt><trkpt lat="43.009025" lon="11.80332"><ele>742.0</ele><time>2026-05-02T13:11:14.79Z</time></trkpt><trkpt lat="43.0089817" lon="11.8031683"><ele>741.0</ele><time>2026-05-02T13:11:15.789Z</time></trkpt><trkpt lat="43.00895" lon="11.803035"><ele>740.0</ele><time>2026-05-02T13:11:16.79Z</time></trkpt><trkpt lat="43.0089217" lon="11.8029133"><ele>739.0</ele><time>2026-05-02T13:11:17.79Z</time></trkpt><trkpt lat="43.0088933" lon="11.8028"><ele>738.0</ele><time>2026-05-02T13:11:18.786Z</time></trkpt><trkpt lat="43.0088583" lon="11.8026817"><ele>737.0</ele><time>2026-05-02T13:11:19.789Z</time></trkpt><trkpt lat="43.0088183" lon="11.8025517"><ele>735.8</ele><time>2026-05-02T13:11:20.789Z</time></trkpt><trkpt lat="43.0087783" lon="11.80242"><ele>734.6</ele><time>2026-05-02T13:11:21.789Z</time></trkpt><trkpt lat="43.008745" lon="11.80229"><ele>733.4</ele><time>2026-05-02T13:11:22.789Z</time></trkpt><trkpt lat="43.008715" lon="11.8021683"><ele>732.1999999999999</ele><time>2026-05-02T13:11:23.786Z</time></trkpt><trkpt lat="43.0086883" lon="11.8020433"><ele>731.0</ele><time>2026-05-02T13:11:24.786Z</time></trkpt><trkpt lat="43.0086583" lon="11.801915"><ele>729.5999999999999</ele><time>2026-05-02T13:11:25.786Z</time></trkpt><trkpt lat="43.0086217" lon="11.8017817"><ele>728.2</ele><time>2026-05-02T13:11:26.785Z</time></trkpt><trkpt lat="43.00859" lon="11.80166"><ele>726.8</ele><time>2026-05-02T13:11:27.787Z</time></trkpt><trkpt lat="43.008555" lon="11.8015283"><ele>725.4000000000001</ele><time>2026-05-02T13:11:28.785Z</time></trkpt><trkpt lat="43.0085183" lon="11.80141"><ele>724.0</ele><time>2026-05-02T13:11:29.788Z</time></trkpt><trkpt lat="43.008485" lon="11.8012917"><ele>724.0</ele><time>2026-05-02T13:11:30.787Z</time></trkpt><trkpt lat="43.0084517" lon="11.80117"><ele>724.0</ele><time>2026-05-02T13:11:31.786Z</time></trkpt><trkpt lat="43.0084133" lon="11.8010467"><ele>724.0</ele><time>2026-05-02T13:11:32.786Z</time></trkpt><trkpt lat="43.0083833" lon="11.80092"><ele>724.0</ele><time>2026-05-02T13:11:33.786Z</time></trkpt><trkpt lat="43.0083583" lon="11.8007967"><ele>724.0</ele><time>2026-05-02T13:11:34.786Z</time></trkpt><trkpt lat="43.008345" lon="11.8006733"><ele>722.8000000000001</ele><time>2026-05-02T13:11:35.787Z</time></trkpt><trkpt lat="43.0083433" lon="11.80055"><ele>721.6</ele><time>2026-05-02T13:11:36.79Z</time></trkpt><trkpt lat="43.0083483" lon="11.8004233"><ele>720.4</ele><time>2026-05-02T13:11:37.789Z</time></trkpt><trkpt lat="43.0083633" lon="11.8002867"><ele>719.2</ele><time>2026-05-02T13:11:38.791Z</time></trkpt><trkpt lat="43.0083783" lon="11.80015"><ele>718.0</ele><time>2026-05-02T13:11:39.789Z</time></trkpt><trkpt lat="43.0083983" lon="11.80001"><ele>715.0</ele><time>2026-05-02T13:11:40.789Z</time></trkpt><trkpt lat="43.0084217" lon="11.7998767"><ele>712.0</ele><time>2026-05-02T13:11:41.79Z</time></trkpt><trkpt lat="43.0084483" lon="11.7997383"><ele>709.0</ele><time>2026-05-02T13:11:42.785Z</time></trkpt><trkpt lat="43.0084717" lon="11.79961"><ele>706.0</ele><time>2026-05-02T13:11:43.786Z</time></trkpt><trkpt lat="43.0085033" lon="11.799495"><ele>703.0</ele><time>2026-05-02T13:11:44.787Z</time></trkpt><trkpt lat="43.008535" lon="11.7993967"><ele>700.8333333333334</ele><time>2026-05-02T13:11:45.788Z</time></trkpt><trkpt lat="43.0085733" lon="11.7993133"><ele>698.6666666666667</ele><time>2026-05-02T13:11:46.791Z</time></trkpt><trkpt lat="43.0086133" lon="11.7992417"><ele>696.5</ele><time>2026-05-02T13:11:47.786Z</time></trkpt><trkpt lat="43.0086633" lon="11.7991717"><ele>694.3333333333334</ele><time>2026-05-02T13:11:48.785Z</time></trkpt><trkpt lat="43.00873" lon="11.79911"><ele>692.1666666666666</ele><time>2026-05-02T13:11:49.787Z</time></trkpt><trkpt lat="43.0088067" lon="11.7990533"><ele>690.0</ele><time>2026-05-02T13:11:50.787Z</time></trkpt><trkpt lat="43.0088867" lon="11.7989983"><ele>690.0</ele><time>2026-05-02T13:11:51.786Z</time></trkpt><trkpt lat="43.008965" lon="11.7989467"><ele>690.0</ele><time>2026-05-02T13:11:52.789Z</time></trkpt><trkpt lat="43.0090483" lon="11.7988983"><ele>690.0</ele><time>2026-05-02T13:11:53.786Z</time></trkpt><trkpt lat="43.009135" lon="11.7988383"><ele>690.0</ele><time>2026-05-02T13:11:54.786Z</time></trkpt><trkpt lat="43.0092167" lon="11.7987883"><ele>690.0</ele><time>2026-05-02T13:11:55.789Z</time></trkpt><trkpt lat="43.0092983" lon="11.79873"><ele>691.3333333333334</ele><time>2026-05-02T13:11:56.787Z</time></trkpt><trkpt lat="43.00938" lon="11.7986683"><ele>692.6666666666666</ele><time>2026-05-02T13:11:57.79Z</time></trkpt><trkpt lat="43.00946" lon="11.7986067"><ele>694.0</ele><time>2026-05-02T13:11:58.786Z</time></trkpt><trkpt lat="43.0095367" lon="11.7985533"><ele>695.3333333333333</ele><time>2026-05-02T13:11:59.786Z</time></trkpt><trkpt lat="43.00961" lon="11.798505"><ele>696.6666666666666</ele><time>2026-05-02T13:12:00.786Z</time></trkpt><trkpt lat="43.0096817" lon="11.798475"><ele>698.0</ele><time>2026-05-02T13:12:01.789Z</time></trkpt><trkpt lat="43.0097517" lon="11.7984267"><ele>693.2</ele><time>2026-05-02T13:12:02.789Z</time></trkpt><trkpt lat="43.0098167" lon="11.798375"><ele>688.4</ele><time>2026-05-02T13:12:03.786Z</time></trkpt><trkpt lat="43.0099183" lon="11.798295"><ele>683.6</ele><time>2026-05-02T13:12:05.786Z</time></trkpt><trkpt lat="43.0099967" lon="11.798205"><ele>678.8000000000001</ele><time>2026-05-02T13:12:07.79Z</time></trkpt><trkpt lat="43.0100283" lon="11.7981"><ele>674.0</ele><time>2026-05-02T13:12:09.787Z</time></trkpt><trkpt lat="43.0100117" lon="11.7979583"><ele>674.0</ele><time>2026-05-02T13:12:11.788Z</time></trkpt><trkpt lat="43.00994" lon="11.79784"><ele>674.0</ele><time>2026-05-02T13:12:13.789Z</time></trkpt><trkpt lat="43.0098933" lon="11.7977783"><ele>674.0</ele><time>2026-05-02T13:12:14.788Z</time></trkpt><trkpt lat="43.0098433" lon="11.7977067"><ele>674.0</ele><time>2026-05-02T13:12:15.788Z</time></trkpt><trkpt lat="43.0097983" lon="11.7976283"><ele>674.0</ele><time>2026-05-02T13:12:16.788Z</time></trkpt><trkpt lat="43.009755" lon="11.79754"><ele>674.0</ele><time>2026-05-02T13:12:17.786Z</time></trkpt><trkpt lat="43.009715" lon="11.7974383"><ele>669.0</ele><time>2026-05-02T13:12:18.788Z</time></trkpt><trkpt lat="43.0096633" lon="11.7973267"><ele>664.0</ele><time>2026-05-02T13:12:19.788Z</time></trkpt><trkpt lat="43.0096117" lon="11.7972083"><ele>659.0</ele><time>2026-05-02T13:12:20.79Z</time></trkpt><trkpt lat="43.0095533" lon="11.7970833"><ele>654.0</ele><time>2026-05-02T13:12:21.785Z</time></trkpt><trkpt lat="43.009495" lon="11.7969617"><ele>649.0</ele><time>2026-05-02T13:12:22.788Z</time></trkpt><trkpt lat="43.0094383" lon="11.7968467"><ele>646.6666666666667</ele><time>2026-05-02T13:12:23.786Z</time></trkpt><trkpt lat="43.009385" lon="11.7967383"><ele>644.3333333333334</ele><time>2026-05-02T13:12:24.789Z</time></trkpt><trkpt lat="43.0093367" lon="11.796635"><ele>642.0</ele><time>2026-05-02T13:12:25.788Z</time></trkpt><trkpt lat="43.0092983" lon="11.7965317"><ele>639.6666666666666</ele><time>2026-05-02T13:12:26.789Z</time></trkpt><trkpt lat="43.0092683" lon="11.79643"><ele>637.3333333333333</ele><time>2026-05-02T13:12:27.788Z</time></trkpt><trkpt lat="43.0092333" lon="11.7963333"><ele>635.0</ele><time>2026-05-02T13:12:28.788Z</time></trkpt><trkpt lat="43.0091983" lon="11.7962383"><ele>635.0</ele><time>2026-05-02T13:12:29.788Z</time></trkpt><trkpt lat="43.0091667" lon="11.7961433"><ele>635.0</ele><time>2026-05-02T13:12:30.789Z</time></trkpt><trkpt lat="43.0091217" lon="11.7960433"><ele>635.0</ele><time>2026-05-02T13:12:31.788Z</time></trkpt><trkpt lat="43.009065" lon="11.7959483"><ele>635.0</ele><time>2026-05-02T13:12:32.788Z</time></trkpt><trkpt lat="43.0090067" lon="11.7958667"><ele>635.0</ele><time>2026-05-02T13:12:33.788Z</time></trkpt><trkpt lat="43.0089367" lon="11.7957917"><ele>635.0</ele><time>2026-05-02T13:12:34.788Z</time></trkpt><trkpt lat="43.0088683" lon="11.7957217"><ele>632.0</ele><time>2026-05-02T13:12:35.79Z</time></trkpt><trkpt lat="43.008805" lon="11.7956467"><ele>629.0</ele><time>2026-05-02T13:12:36.788Z</time></trkpt><trkpt lat="43.0087517" lon="11.79557"><ele>626.0</ele><time>2026-05-02T13:12:37.788Z</time></trkpt><trkpt lat="43.0087167" lon="11.79549"><ele>623.0</ele><time>2026-05-02T13:12:38.788Z</time></trkpt><trkpt lat="43.0086883" lon="11.7954067"><ele>620.0</ele><time>2026-05-02T13:12:39.785Z</time></trkpt><trkpt lat="43.008685" lon="11.795245"><ele>617.0</ele><time>2026-05-02T13:12:41.788Z</time></trkpt><trkpt lat="43.00872" lon="11.7950867"><ele>615.3333333333333</ele><time>2026-05-02T13:12:43.788Z</time></trkpt><trkpt lat="43.0087967" lon="11.79494"><ele>613.6666666666666</ele><time>2026-05-02T13:12:45.785Z</time></trkpt><trkpt lat="43.0088383" lon="11.794875"><ele>612.0</ele><time>2026-05-02T13:12:46.785Z</time></trkpt><trkpt lat="43.0088783" lon="11.7948017"><ele>610.3333333333334</ele><time>2026-05-02T13:12:47.786Z</time></trkpt><trkpt lat="43.0089167" lon="11.7947317"><ele>608.6666666666667</ele><time>2026-05-02T13:12:48.785Z</time></trkpt><trkpt lat="43.0089783" lon="11.7946117"><ele>607.0</ele><time>2026-05-02T13:12:50.786Z</time></trkpt><trkpt lat="43.0090083" lon="11.7945067"><ele>607.0</ele><time>2026-05-02T13:12:53.786Z</time></trkpt><trkpt lat="43.0090567" lon="11.79443"><ele>607.0</ele><time>2026-05-02T13:12:56.785Z</time></trkpt><trkpt lat="43.0090333" lon="11.794325"><ele>607.0</ele><time>2026-05-02T13:12:58.788Z</time></trkpt><trkpt lat="43.0089733" lon="11.7942083"><ele>607.0</ele><time>2026-05-02T13:13:00.788Z</time></trkpt><trkpt lat="43.0088633" lon="11.7941133"><ele>607.0</ele><time>2026-05-02T13:13:02.788Z</time></trkpt><trkpt lat="43.00879" lon="11.7940667"><ele>605.0</ele><time>2026-05-02T13:13:03.789Z</time></trkpt><trkpt lat="43.0087183" lon="11.7940217"><ele>603.0</ele><time>2026-05-02T13:13:04.789Z</time></trkpt><trkpt lat="43.0086633" lon="11.793975"><ele>601.0</ele><time>2026-05-02T13:13:05.788Z</time></trkpt><trkpt lat="43.008595" lon="11.7938683"><ele>599.0</ele><time>2026-05-02T13:13:07.788Z</time></trkpt><trkpt lat="43.0085683" lon="11.7937583"><ele>597.0</ele><time>2026-05-02T13:13:09.785Z</time></trkpt><trkpt lat="43.0085767" lon="11.7936417"><ele>595.0</ele><time>2026-05-02T13:13:12.785Z</time></trkpt><trkpt lat="43.00863" lon="11.7935433"><ele>592.3333333333334</ele><time>2026-05-02T13:13:14.785Z</time></trkpt><trkpt lat="43.0086733" lon="11.79348"><ele>589.6666666666667</ele><time>2026-05-02T13:13:15.787Z</time></trkpt><trkpt lat="43.0087217" lon="11.7934117"><ele>587.0</ele><time>2026-05-02T13:13:16.785Z</time></trkpt><trkpt lat="43.0087833" lon="11.7933367"><ele>584.3333333333334</ele><time>2026-05-02T13:13:17.787Z</time></trkpt><trkpt lat="43.0088433" lon="11.7932583"><ele>581.6666666666666</ele><time>2026-05-02T13:13:18.79Z</time></trkpt><trkpt lat="43.0089033" lon="11.7931733"><ele>579.0</ele><time>2026-05-02T13:13:19.786Z</time></trkpt><trkpt lat="43.0089667" lon="11.79309"><ele>579.0</ele><time>2026-05-02T13:13:20.79Z</time></trkpt><trkpt lat="43.0090283" lon="11.79301"><ele>579.0</ele><time>2026-05-02T13:13:21.786Z</time></trkpt><trkpt lat="43.0090767" lon="11.7929417"><ele>579.0</ele><time>2026-05-02T13:13:22.785Z</time></trkpt><trkpt lat="43.0091483" lon="11.7928333"><ele>579.0</ele><time>2026-05-02T13:13:24.789Z</time></trkpt><trkpt lat="43.0091783" lon="11.7927333"><ele>579.0</ele><time>2026-05-02T13:13:26.789Z</time></trkpt><trkpt lat="43.0091667" lon="11.7925767"><ele>575.5</ele><time>2026-05-02T13:13:28.785Z</time></trkpt><trkpt lat="43.0091517" lon="11.792465"><ele>572.0</ele><time>2026-05-02T13:13:29.786Z</time></trkpt><trkpt lat="43.009125" lon="11.7923417"><ele>568.5</ele><time>2026-05-02T13:13:30.785Z</time></trkpt><trkpt lat="43.009095" lon="11.792215"><ele>565.0</ele><time>2026-05-02T13:13:31.786Z</time></trkpt><trkpt lat="43.0090617" lon="11.79211"><ele>561.5</ele><time>2026-05-02T13:13:32.786Z</time></trkpt><trkpt lat="43.00903" lon="11.792025"><ele>558.0</ele><time>2026-05-02T13:13:33.791Z</time></trkpt><trkpt lat="43.0089467" lon="11.791905"><ele>558.0</ele><time>2026-05-02T13:13:35.786Z</time></trkpt><trkpt lat="43.0088733" lon="11.7918683"><ele>558.0</ele><time>2026-05-02T13:13:36.787Z</time></trkpt><trkpt lat="43.00878" lon="11.7918367"><ele>558.0</ele><time>2026-05-02T13:13:37.789Z</time></trkpt><trkpt lat="43.00869" lon="11.7918117"><ele>558.0</ele><time>2026-05-02T13:13:38.788Z</time></trkpt><trkpt lat="43.008615" lon="11.79179"><ele>558.0</ele><time>2026-05-02T13:13:39.788Z</time></trkpt><trkpt lat="43.0085417" lon="11.7917417"><ele>558.0</ele><time>2026-05-02T13:13:41.789Z</time></trkpt><trkpt lat="43.0085533" lon="11.7916433"><ele>555.5</ele><time>2026-05-02T13:13:44.788Z</time></trkpt><trkpt lat="43.00862" lon="11.79158"><ele>553.0</ele><time>2026-05-02T13:13:46.788Z</time></trkpt><trkpt lat="43.0086767" lon="11.7915283"><ele>550.5</ele><time>2026-05-02T13:13:47.79Z</time></trkpt><trkpt lat="43.00874" lon="11.7914733"><ele>548.0</ele><time>2026-05-02T13:13:48.786Z</time></trkpt><trkpt lat="43.0088017" lon="11.79142"><ele>545.5</ele><time>2026-05-02T13:13:49.789Z</time></trkpt><trkpt lat="43.0088883" lon="11.7913333"><ele>543.0</ele><time>2026-05-02T13:13:51.788Z</time></trkpt><trkpt lat="43.0089217" lon="11.7912383"><ele>543.0</ele><time>2026-05-02T13:13:53.787Z</time></trkpt><trkpt lat="43.0088917" lon="11.7911183"><ele>543.0</ele><time>2026-05-02T13:13:55.788Z</time></trkpt><trkpt lat="43.0088133" lon="11.7910017"><ele>543.0</ele><time>2026-05-02T13:13:57.787Z</time></trkpt><trkpt lat="43.0087583" lon="11.7909367"><ele>543.0</ele><time>2026-05-02T13:13:58.787Z</time></trkpt><trkpt lat="43.0087033" lon="11.7908667"><ele>543.0</ele><time>2026-05-02T13:13:59.787Z</time></trkpt><trkpt lat="43.00865" lon="11.7907917"><ele>543.0</ele><time>2026-05-02T13:14:00.786Z</time></trkpt><trkpt lat="43.0086033" lon="11.7907183"><ele>541.5</ele><time>2026-05-02T13:14:01.785Z</time></trkpt><trkpt lat="43.008565" lon="11.7906317"><ele>540.0</ele><time>2026-05-02T13:14:02.786Z</time></trkpt><trkpt lat="43.0085417" lon="11.7905333"><ele>538.5</ele><time>2026-05-02T13:14:03.785Z</time></trkpt><trkpt lat="43.0085267" lon="11.7904383"><ele>537.0</ele><time>2026-05-02T13:14:04.786Z</time></trkpt><trkpt lat="43.0085083" lon="11.7903383"><ele>535.5</ele><time>2026-05-02T13:14:05.787Z</time></trkpt><trkpt lat="43.008495" lon="11.7902467"><ele>534.0</ele><time>2026-05-02T13:14:06.785Z</time></trkpt><trkpt lat="43.0084783" lon="11.7900983"><ele>532.0</ele><time>2026-05-02T13:14:08.792Z</time></trkpt><trkpt lat="43.0084817" lon="11.7899983"><ele>530.0</ele><time>2026-05-02T13:14:10.785Z</time></trkpt><trkpt lat="43.008545" lon="11.789955"><ele>528.0</ele><time>2026-05-02T13:14:14.786Z</time></trkpt><trkpt lat="43.008615" lon="11.7899417"><ele>526.0</ele><time>2026-05-02T13:14:16.786Z</time></trkpt><trkpt lat="43.008725" lon="11.7898883"><ele>524.0</ele><time>2026-05-02T13:14:18.786Z</time></trkpt><trkpt lat="43.00878" lon="11.7898283"><ele>522.0</ele><time>2026-05-02T13:14:19.787Z</time></trkpt><trkpt lat="43.0088383" lon="11.78975"><ele>522.0</ele><time>2026-05-02T13:14:20.789Z</time></trkpt><trkpt lat="43.0088817" lon="11.789645"><ele>522.0</ele><time>2026-05-02T13:14:21.789Z</time></trkpt><trkpt lat="43.008915" lon="11.7895117"><ele>522.0</ele><time>2026-05-02T13:14:22.79Z</time></trkpt><trkpt lat="43.008945" lon="11.7893683"><ele>522.0</ele><time>2026-05-02T13:14:23.79Z</time></trkpt><trkpt lat="43.008985" lon="11.7892117"><ele>522.0</ele><time>2026-05-02T13:14:24.789Z</time></trkpt><trkpt lat="43.0090217" lon="11.789055"><ele>520.0</ele><time>2026-05-02T13:14:25.789Z</time></trkpt><trkpt lat="43.009065" lon="11.788895"><ele>518.0</ele><time>2026-05-02T13:14:26.789Z</time></trkpt><trkpt lat="43.0091183" lon="11.7887317"><ele>516.0</ele><time>2026-05-02T13:14:27.785Z</time></trkpt><trkpt lat="43.00918" lon="11.7885717"><ele>514.0</ele><time>2026-05-02T13:14:28.787Z</time></trkpt><trkpt lat="43.0092533" lon="11.7884217"><ele>512.75</ele><time>2026-05-02T13:14:29.786Z</time></trkpt><trkpt lat="43.009335" lon="11.7882783"><ele>511.5</ele><time>2026-05-02T13:14:30.786Z</time></trkpt><trkpt lat="43.009425" lon="11.7881467"><ele>510.25</ele><time>2026-05-02T13:14:31.786Z</time></trkpt><trkpt lat="43.009515" lon="11.7880167"><ele>509.0</ele><time>2026-05-02T13:14:32.786Z</time></trkpt><trkpt lat="43.0096033" lon="11.78789"><ele>509.0</ele><time>2026-05-02T13:14:33.787Z</time></trkpt><trkpt lat="43.009695" lon="11.7877567"><ele>509.0</ele><time>2026-05-02T13:14:34.786Z</time></trkpt><trkpt lat="43.0097883" lon="11.78763"><ele>509.0</ele><time>2026-05-02T13:14:35.788Z</time></trkpt><trkpt lat="43.0098783" lon="11.7875067"><ele>509.0</ele><time>2026-05-02T13:14:36.786Z</time></trkpt><trkpt lat="43.0099733" lon="11.787375"><ele>509.75</ele><time>2026-05-02T13:14:37.786Z</time></trkpt><trkpt lat="43.0100767" lon="11.78725"><ele>510.5</ele><time>2026-05-02T13:14:38.786Z</time></trkpt><trkpt lat="43.0101867" lon="11.7871267"><ele>511.25</ele><time>2026-05-02T13:14:39.787Z</time></trkpt><trkpt lat="43.010295" lon="11.78701"><ele>512.0</ele><time>2026-05-02T13:14:40.788Z</time></trkpt><trkpt lat="43.0104033" lon="11.786885"><ele>512.25</ele><time>2026-05-02T13:14:41.787Z</time></trkpt><trkpt lat="43.0105117" lon="11.78676"><ele>512.5</ele><time>2026-05-02T13:14:42.786Z</time></trkpt><trkpt lat="43.01062" lon="11.7866383"><ele>512.75</ele><time>2026-05-02T13:14:43.786Z</time></trkpt><trkpt lat="43.010725" lon="11.7865167"><ele>513.0</ele><time>2026-05-02T13:14:44.786Z</time></trkpt><trkpt lat="43.0108333" lon="11.7863917"><ele>513.0</ele><time>2026-05-02T13:14:45.786Z</time></trkpt><trkpt lat="43.0109483" lon="11.786265"><ele>513.0</ele><time>2026-05-02T13:14:46.788Z</time></trkpt><trkpt lat="43.0110567" lon="11.7861383"><ele>513.0</ele><time>2026-05-02T13:14:47.786Z</time></trkpt><trkpt lat="43.01115" lon="11.7860483"><ele>513.0</ele><time>2026-05-02T13:14:48.786Z</time></trkpt><trkpt lat="43.0112383" lon="11.7859683"><ele>512.0</ele><time>2026-05-02T13:14:49.786Z</time></trkpt><trkpt lat="43.0113183" lon="11.7859217"><ele>510.99999999999994</ele><time>2026-05-02T13:14:50.786Z</time></trkpt><trkpt lat="43.01141" lon="11.78589"><ele>509.99999999999994</ele><time>2026-05-02T13:14:51.79Z</time></trkpt><trkpt lat="43.01151" lon="11.785865"><ele>509.0</ele><time>2026-05-02T13:14:52.789Z</time></trkpt><trkpt lat="43.01162" lon="11.78583"><ele>508.0</ele><time>2026-05-02T13:14:53.79Z</time></trkpt><trkpt lat="43.0117367" lon="11.7857883"><ele>511.0</ele><time>2026-05-02T13:14:54.789Z</time></trkpt><trkpt lat="43.0118567" lon="11.7857483"><ele>514.0</ele><time>2026-05-02T13:14:55.79Z</time></trkpt><trkpt lat="43.0119733" lon="11.7856983"><ele>517.0</ele><time>2026-05-02T13:14:56.789Z</time></trkpt><trkpt lat="43.012095" lon="11.7856433"><ele>520.0</ele><time>2026-05-02T13:14:57.785Z</time></trkpt><trkpt lat="43.012225" lon="11.785575"><ele>520.0</ele><time>2026-05-02T13:14:58.787Z</time></trkpt><trkpt lat="43.0123517" lon="11.78552"><ele>520.0</ele><time>2026-05-02T13:14:59.786Z</time></trkpt><trkpt lat="43.01247" lon="11.78548"><ele>520.0</ele><time>2026-05-02T13:15:00.786Z</time></trkpt><trkpt lat="43.0125867" lon="11.785435"><ele>520.0</ele><time>2026-05-02T13:15:01.789Z</time></trkpt><trkpt lat="43.0127017" lon="11.7853867"><ele>522.25</ele><time>2026-05-02T13:15:02.786Z</time></trkpt><trkpt lat="43.0128133" lon="11.7853383"><ele>524.5</ele><time>2026-05-02T13:15:03.786Z</time></trkpt><trkpt lat="43.0129217" lon="11.7852717"><ele>526.75</ele><time>2026-05-02T13:15:04.786Z</time></trkpt><trkpt lat="43.0130317" lon="11.785185"><ele>529.0</ele><time>2026-05-02T13:15:05.787Z</time></trkpt><trkpt lat="43.0131417" lon="11.7850867"><ele>529.0</ele><time>2026-05-02T13:15:06.787Z</time></trkpt><trkpt lat="43.0132533" lon="11.7849733"><ele>529.0</ele><time>2026-05-02T13:15:07.786Z</time></trkpt><trkpt lat="43.0133717" lon="11.7848567"><ele>529.0</ele><time>2026-05-02T13:15:08.787Z</time></trkpt><trkpt lat="43.0134917" lon="11.7847283"><ele>529.0</ele><time>2026-05-02T13:15:09.786Z</time></trkpt><trkpt lat="43.0136117" lon="11.7846033"><ele>531.0</ele><time>2026-05-02T13:15:10.786Z</time></trkpt><trkpt lat="43.01373" lon="11.7844817"><ele>533.0</ele><time>2026-05-02T13:15:11.789Z</time></trkpt><trkpt lat="43.0138483" lon="11.78436"><ele>535.0</ele><time>2026-05-02T13:15:12.787Z</time></trkpt><trkpt lat="43.0139617" lon="11.78425"><ele>537.0</ele><time>2026-05-02T13:15:13.787Z</time></trkpt><trkpt lat="43.0140667" lon="11.784145"><ele>540.0</ele><time>2026-05-02T13:15:14.786Z</time></trkpt><trkpt lat="43.01417" lon="11.7840383"><ele>543.0</ele><time>2026-05-02T13:15:15.787Z</time></trkpt><trkpt lat="43.01428" lon="11.7839283"><ele>546.0</ele><time>2026-05-02T13:15:16.787Z</time></trkpt><trkpt lat="43.01439" lon="11.7838317"><ele>549.0</ele><time>2026-05-02T13:15:17.787Z</time></trkpt><trkpt lat="43.0144917" lon="11.7837583"><ele>549.0</ele><time>2026-05-02T13:15:18.787Z</time></trkpt><trkpt lat="43.014585" lon="11.7836983"><ele>549.0</ele><time>2026-05-02T13:15:19.786Z</time></trkpt><trkpt lat="43.01469" lon="11.783635"><ele>549.0</ele><time>2026-05-02T13:15:20.787Z</time></trkpt><trkpt lat="43.0148067" lon="11.7835633"><ele>549.0</ele><time>2026-05-02T13:15:21.786Z</time></trkpt><trkpt lat="43.01494" lon="11.7834783"><ele>549.3333333333334</ele><time>2026-05-02T13:15:22.788Z</time></trkpt><trkpt lat="43.0150767" lon="11.78339"><ele>549.6666666666667</ele><time>2026-05-02T13:15:23.787Z</time></trkpt><trkpt lat="43.0152167" lon="11.7833083"><ele>550.0</ele><time>2026-05-02T13:15:24.789Z</time></trkpt><trkpt lat="43.015355" lon="11.78323"><ele>550.0</ele><time>2026-05-02T13:15:25.789Z</time></trkpt><trkpt lat="43.0154767" lon="11.7831567"><ele>550.0</ele><time>2026-05-02T13:15:26.786Z</time></trkpt><trkpt lat="43.0155817" lon="11.783095"><ele>550.0</ele><time>2026-05-02T13:15:27.786Z</time></trkpt><trkpt lat="43.015675" lon="11.783045"><ele>550.0</ele><time>2026-05-02T13:15:28.79Z</time></trkpt><trkpt lat="43.0157567" lon="11.7830017"><ele>550.0</ele><time>2026-05-02T13:15:29.787Z</time></trkpt><trkpt lat="43.0158317" lon="11.7829633"><ele>551.4</ele><time>2026-05-02T13:15:30.789Z</time></trkpt><trkpt lat="43.0159017" lon="11.7829333"><ele>552.8</ele><time>2026-05-02T13:15:31.789Z</time></trkpt><trkpt lat="43.016015" lon="11.78289"><ele>554.2</ele><time>2026-05-02T13:15:33.789Z</time></trkpt><trkpt lat="43.01613" lon="11.7828383"><ele>555.6</ele><time>2026-05-02T13:15:35.789Z</time></trkpt><trkpt lat="43.0162033" lon="11.7828033"><ele>557.0</ele><time>2026-05-02T13:15:36.79Z</time></trkpt><trkpt lat="43.0163017" lon="11.782755"><ele>557.0</ele><time>2026-05-02T13:15:37.788Z</time></trkpt><trkpt lat="43.0164183" lon="11.7826983"><ele>557.0</ele><time>2026-05-02T13:15:38.788Z</time></trkpt><trkpt lat="43.0165433" lon="11.7826383"><ele>557.0</ele><time>2026-05-02T13:15:39.785Z</time></trkpt><trkpt lat="43.01668" lon="11.7825817"><ele>557.0</ele><time>2026-05-02T13:15:40.788Z</time></trkpt><trkpt lat="43.0168117" lon="11.7825217"><ele>557.0</ele><time>2026-05-02T13:15:41.788Z</time></trkpt><trkpt lat="43.016945" lon="11.782455"><ele>557.0</ele><time>2026-05-02T13:15:42.788Z</time></trkpt><trkpt lat="43.017085" lon="11.78239"><ele>557.0</ele><time>2026-05-02T13:15:43.785Z</time></trkpt><trkpt lat="43.017225" lon="11.7823283"><ele>557.0</ele><time>2026-05-02T13:15:44.788Z</time></trkpt><trkpt lat="43.0173733" lon="11.78226"><ele>560.25</ele><time>2026-05-02T13:15:45.788Z</time></trkpt><trkpt lat="43.0175183" lon="11.7821883"><ele>563.5</ele><time>2026-05-02T13:15:46.785Z</time></trkpt><trkpt lat="43.0176567" lon="11.7821133"><ele>566.75</ele><time>2026-05-02T13:15:47.786Z</time></trkpt><trkpt lat="43.01779" lon="11.7820383"><ele>570.0</ele><time>2026-05-02T13:15:48.785Z</time></trkpt><trkpt lat="43.0179133" lon="11.78196"><ele>570.0</ele><time>2026-05-02T13:15:49.786Z</time></trkpt><trkpt lat="43.0180333" lon="11.7818633"><ele>570.0</ele><time>2026-05-02T13:15:50.788Z</time></trkpt><trkpt lat="43.0181317" lon="11.7817567"><ele>570.0</ele><time>2026-05-02T13:15:51.788Z</time></trkpt><trkpt lat="43.0182133" lon="11.7816333"><ele>570.0</ele><time>2026-05-02T13:15:52.788Z</time></trkpt><trkpt lat="43.0182883" lon="11.7815133"><ele>570.5</ele><time>2026-05-02T13:15:53.788Z</time></trkpt><trkpt lat="43.0183533" lon="11.781405"><ele>571.0</ele><time>2026-05-02T13:15:54.788Z</time></trkpt><trkpt lat="43.0184117" lon="11.781305"><ele>571.5</ele><time>2026-05-02T13:15:55.785Z</time></trkpt><trkpt lat="43.018475" lon="11.7812117"><ele>572.0</ele><time>2026-05-02T13:15:56.785Z</time></trkpt><trkpt lat="43.01853" lon="11.7811317"><ele>572.5</ele><time>2026-05-02T13:15:57.785Z</time></trkpt><trkpt lat="43.0185767" lon="11.7810717"><ele>573.0</ele><time>2026-05-02T13:15:58.788Z</time></trkpt><trkpt lat="43.0186317" lon="11.78099"><ele>570.1999999999999</ele><time>2026-05-02T13:16:00.786Z</time></trkpt><trkpt lat="43.0185933" lon="11.780915"><ele>567.4</ele><time>2026-05-02T13:16:04.788Z</time></trkpt><trkpt lat="43.018515" lon="11.7808867"><ele>564.5999999999999</ele><time>2026-05-02T13:16:06.788Z</time></trkpt><trkpt lat="43.018425" lon="11.7807567"><ele>561.8</ele><time>2026-05-02T13:16:08.788Z</time></trkpt><trkpt lat="43.018375" lon="11.7806567"><ele>559.0</ele><time>2026-05-02T13:16:09.788Z</time></trkpt><trkpt lat="43.01832" lon="11.7805433"><ele>555.8</ele><time>2026-05-02T13:16:10.789Z</time></trkpt><trkpt lat="43.0182683" lon="11.7804267"><ele>552.5999999999999</ele><time>2026-05-02T13:16:11.788Z</time></trkpt><trkpt lat="43.018215" lon="11.780305"><ele>549.4</ele><time>2026-05-02T13:16:12.79Z</time></trkpt><trkpt lat="43.0181667" lon="11.7801867"><ele>546.1999999999999</ele><time>2026-05-02T13:16:13.788Z</time></trkpt><trkpt lat="43.0181233" lon="11.78009"><ele>543.0</ele><time>2026-05-02T13:16:14.785Z</time></trkpt><trkpt lat="43.0180767" lon="11.779995"><ele>542.0</ele><time>2026-05-02T13:16:15.786Z</time></trkpt><trkpt lat="43.01803" lon="11.7798983"><ele>541.0</ele><time>2026-05-02T13:16:16.788Z</time></trkpt><trkpt lat="43.017975" lon="11.7797967"><ele>540.0</ele><time>2026-05-02T13:16:17.789Z</time></trkpt><trkpt lat="43.0179083" lon="11.7796883"><ele>539.0</ele><time>2026-05-02T13:16:18.788Z</time></trkpt><trkpt lat="43.0178433" lon="11.7795833"><ele>538.0</ele><time>2026-05-02T13:16:19.789Z</time></trkpt><trkpt lat="43.0177767" lon="11.779475"><ele>538.0</ele><time>2026-05-02T13:16:20.788Z</time></trkpt><trkpt lat="43.0177083" lon="11.7793633"><ele>538.0</ele><time>2026-05-02T13:16:21.789Z</time></trkpt><trkpt lat="43.0176367" lon="11.779245"><ele>538.0</ele><time>2026-05-02T13:16:22.788Z</time></trkpt><trkpt lat="43.0175667" lon="11.7791183"><ele>538.0</ele><time>2026-05-02T13:16:23.789Z</time></trkpt><trkpt lat="43.01749" lon="11.77899"><ele>534.75</ele><time>2026-05-02T13:16:24.788Z</time></trkpt><trkpt lat="43.017415" lon="11.7788633"><ele>531.5</ele><time>2026-05-02T13:16:25.788Z</time></trkpt><trkpt lat="43.0173433" lon="11.7787383"><ele>528.25</ele><time>2026-05-02T13:16:26.788Z</time></trkpt><trkpt lat="43.017275" lon="11.7786183"><ele>525.0</ele><time>2026-05-02T13:16:27.788Z</time></trkpt><trkpt lat="43.017205" lon="11.7785083"><ele>524.2</ele><time>2026-05-02T13:16:28.789Z</time></trkpt><trkpt lat="43.0171383" lon="11.7783983"><ele>523.4</ele><time>2026-05-02T13:16:29.788Z</time></trkpt><trkpt lat="43.0170767" lon="11.778275"><ele>522.6</ele><time>2026-05-02T13:16:30.788Z</time></trkpt><trkpt lat="43.01702" lon="11.7781417"><ele>521.8</ele><time>2026-05-02T13:16:31.786Z</time></trkpt><trkpt lat="43.016965" lon="11.7779967"><ele>521.0</ele><time>2026-05-02T13:16:32.788Z</time></trkpt><trkpt lat="43.016915" lon="11.777845"><ele>521.0</ele><time>2026-05-02T13:16:33.789Z</time></trkpt><trkpt lat="43.0168667" lon="11.777695"><ele>521.0</ele><time>2026-05-02T13:16:34.79Z</time></trkpt><trkpt lat="43.0168117" lon="11.777545"><ele>521.0</ele><time>2026-05-02T13:16:35.789Z</time></trkpt><trkpt lat="43.01675" lon="11.7773983"><ele>521.0</ele><time>2026-05-02T13:16:36.788Z</time></trkpt><trkpt lat="43.0166883" lon="11.7772533"><ele>518.6</ele><time>2026-05-02T13:16:37.789Z</time></trkpt><trkpt lat="43.0166333" lon="11.7771117"><ele>516.2</ele><time>2026-05-02T13:16:38.788Z</time></trkpt><trkpt lat="43.0165783" lon="11.77698"><ele>513.8</ele><time>2026-05-02T13:16:39.788Z</time></trkpt><trkpt lat="43.0165283" lon="11.7768567"><ele>511.4</ele><time>2026-05-02T13:16:40.788Z</time></trkpt><trkpt lat="43.0164867" lon="11.77674"><ele>509.0</ele><time>2026-05-02T13:16:41.788Z</time></trkpt><trkpt lat="43.01645" lon="11.776625"><ele>508.16666666666663</ele><time>2026-05-02T13:16:42.786Z</time></trkpt><trkpt lat="43.01643" lon="11.77651"><ele>507.3333333333333</ele><time>2026-05-02T13:16:43.788Z</time></trkpt><trkpt lat="43.016425" lon="11.776395"><ele>506.5</ele><time>2026-05-02T13:16:44.788Z</time></trkpt><trkpt lat="43.0164367" lon="11.7762867"><ele>505.66666666666663</ele><time>2026-05-02T13:16:45.785Z</time></trkpt><trkpt lat="43.0164517" lon="11.7761783"><ele>504.8333333333333</ele><time>2026-05-02T13:16:46.786Z</time></trkpt><trkpt lat="43.0164667" lon="11.7760717"><ele>504.0</ele><time>2026-05-02T13:16:47.79Z</time></trkpt><trkpt lat="43.0164717" lon="11.77596"><ele>503.4</ele><time>2026-05-02T13:16:48.789Z</time></trkpt><trkpt lat="43.0164617" lon="11.7758433"><ele>502.79999999999995</ele><time>2026-05-02T13:16:49.788Z</time></trkpt><trkpt lat="43.016435" lon="11.7757167"><ele>502.20000000000005</ele><time>2026-05-02T13:16:50.788Z</time></trkpt><trkpt lat="43.0164" lon="11.7755817"><ele>501.6</ele><time>2026-05-02T13:16:51.788Z</time></trkpt><trkpt lat="43.016355" lon="11.7754483"><ele>501.0</ele><time>2026-05-02T13:16:52.788Z</time></trkpt><trkpt lat="43.0163067" lon="11.7753283"><ele>501.0</ele><time>2026-05-02T13:16:53.789Z</time></trkpt><trkpt lat="43.0162533" lon="11.7752217"><ele>501.0</ele><time>2026-05-02T13:16:54.788Z</time></trkpt><trkpt lat="43.0162" lon="11.7751317"><ele>501.0</ele><time>2026-05-02T13:16:55.788Z</time></trkpt><trkpt lat="43.0161417" lon="11.7750517"><ele>501.0</ele><time>2026-05-02T13:16:56.788Z</time></trkpt><trkpt lat="43.0160867" lon="11.774985"><ele>501.0</ele><time>2026-05-02T13:16:57.788Z</time></trkpt><trkpt lat="43.016035" lon="11.7749217"><ele>501.0</ele><time>2026-05-02T13:16:58.788Z</time></trkpt><trkpt lat="43.0159867" lon="11.7748467"><ele>499.6666666666667</ele><time>2026-05-02T13:16:59.788Z</time></trkpt><trkpt lat="43.0159433" lon="11.77476"><ele>498.33333333333337</ele><time>2026-05-02T13:17:00.788Z</time></trkpt><trkpt lat="43.015905" lon="11.7746633"><ele>497.0</ele><time>2026-05-02T13:17:01.788Z</time></trkpt><trkpt lat="43.0158617" lon="11.77456"><ele>495.6666666666667</ele><time>2026-05-02T13:17:02.789Z</time></trkpt><trkpt lat="43.01581" lon="11.77445"><ele>494.33333333333337</ele><time>2026-05-02T13:17:03.789Z</time></trkpt><trkpt lat="43.015755" lon="11.77434"><ele>493.0</ele><time>2026-05-02T13:17:04.789Z</time></trkpt><trkpt lat="43.0157" lon="11.7742217"><ele>489.0</ele><time>2026-05-02T13:17:05.786Z</time></trkpt><trkpt lat="43.0156483" lon="11.7740967"><ele>484.99999999999994</ele><time>2026-05-02T13:17:06.787Z</time></trkpt><trkpt lat="43.0156017" lon="11.7739667"><ele>480.99999999999994</ele><time>2026-05-02T13:17:07.789Z</time></trkpt><trkpt lat="43.0155567" lon="11.773835"><ele>477.0</ele><time>2026-05-02T13:17:08.79Z</time></trkpt><trkpt lat="43.0155117" lon="11.773705"><ele>473.0</ele><time>2026-05-02T13:17:09.788Z</time></trkpt><trkpt lat="43.01547" lon="11.7735767"><ele>471.59999999999997</ele><time>2026-05-02T13:17:10.788Z</time></trkpt><trkpt lat="43.01543" lon="11.7734533"><ele>470.19999999999993</ele><time>2026-05-02T13:17:11.789Z</time></trkpt><trkpt lat="43.0153867" lon="11.773335"><ele>468.8</ele><time>2026-05-02T13:17:12.788Z</time></trkpt><trkpt lat="43.0153417" lon="11.7732233"><ele>467.4</ele><time>2026-05-02T13:17:13.789Z</time></trkpt><trkpt lat="43.0152983" lon="11.7731167"><ele>466.0</ele><time>2026-05-02T13:17:14.789Z</time></trkpt><trkpt lat="43.0152517" lon="11.7730217"><ele>466.0</ele><time>2026-05-02T13:17:15.788Z</time></trkpt><trkpt lat="43.0152067" lon="11.77293"><ele>466.0</ele><time>2026-05-02T13:17:16.788Z</time></trkpt><trkpt lat="43.01517" lon="11.7728417"><ele>466.0</ele><time>2026-05-02T13:17:17.789Z</time></trkpt><trkpt lat="43.0151383" lon="11.7727517"><ele>466.0</ele><time>2026-05-02T13:17:18.789Z</time></trkpt><trkpt lat="43.0151083" lon="11.7726683"><ele>466.0</ele><time>2026-05-02T13:17:19.789Z</time></trkpt><trkpt lat="43.01508" lon="11.7725867"><ele>466.0</ele><time>2026-05-02T13:17:20.788Z</time></trkpt><trkpt lat="43.0150583" lon="11.7725"><ele>466.0</ele><time>2026-05-02T13:17:21.788Z</time></trkpt><trkpt lat="43.01504" lon="11.77234"><ele>465.0</ele><time>2026-05-02T13:17:23.789Z</time></trkpt><trkpt lat="43.0150583" lon="11.7722083"><ele>464.0</ele><time>2026-05-02T13:17:25.788Z</time></trkpt><trkpt lat="43.01507" lon="11.7720733"><ele>463.0</ele><time>2026-05-02T13:17:27.788Z</time></trkpt><trkpt lat="43.0150533" lon="11.7719167"><ele>462.0</ele><time>2026-05-02T13:17:29.789Z</time></trkpt><trkpt lat="43.0150067" lon="11.7717583"><ele>461.0</ele><time>2026-05-02T13:17:31.788Z</time></trkpt><trkpt lat="43.0149583" lon="11.7716133"><ele>459.6</ele><time>2026-05-02T13:17:33.789Z</time></trkpt><trkpt lat="43.014925" lon="11.7714783"><ele>458.20000000000005</ele><time>2026-05-02T13:17:35.789Z</time></trkpt><trkpt lat="43.0149233" lon="11.7713333"><ele>456.79999999999995</ele><time>2026-05-02T13:17:37.788Z</time></trkpt><trkpt lat="43.0149817" lon="11.7711983"><ele>455.4</ele><time>2026-05-02T13:17:39.788Z</time></trkpt><trkpt lat="43.0150483" lon="11.7710567"><ele>454.0</ele><time>2026-05-02T13:17:41.788Z</time></trkpt><trkpt lat="43.015085" lon="11.7709133"><ele>452.00000000000006</ele><time>2026-05-02T13:17:43.789Z</time></trkpt><trkpt lat="43.0150717" lon="11.770785"><ele>450.0</ele><time>2026-05-02T13:17:45.789Z</time></trkpt><trkpt lat="43.0150117" lon="11.7707417"><ele>448.0</ele><time>2026-05-02T13:17:47.786Z</time></trkpt><trkpt lat="43.01492" lon="11.77077"><ele>446.0</ele><time>2026-05-02T13:17:49.789Z</time></trkpt><trkpt lat="43.014855" lon="11.7708117"><ele>444.00000000000006</ele><time>2026-05-02T13:17:50.79Z</time></trkpt><trkpt lat="43.0147817" lon="11.7708567"><ele>442.0</ele><time>2026-05-02T13:17:51.789Z</time></trkpt><trkpt lat="43.0147083" lon="11.770885"><ele>440.50000000000006</ele><time>2026-05-02T13:17:52.789Z</time></trkpt><trkpt lat="43.01463" lon="11.7708917"><ele>439.0</ele><time>2026-05-02T13:17:53.789Z</time></trkpt><trkpt lat="43.0145617" lon="11.7708617"><ele>437.5</ele><time>2026-05-02T13:17:54.789Z</time></trkpt><trkpt lat="43.01451" lon="11.7708117"><ele>436.0</ele><time>2026-05-02T13:17:55.789Z</time></trkpt><trkpt lat="43.0144517" lon="11.7706633"><ele>434.50000000000006</ele><time>2026-05-02T13:17:57.789Z</time></trkpt><trkpt lat="43.01442" lon="11.7705783"><ele>433.0</ele><time>2026-05-02T13:17:58.789Z</time></trkpt><trkpt lat="43.014385" lon="11.7704883"><ele>433.00000000000006</ele><time>2026-05-02T13:17:59.789Z</time></trkpt><trkpt lat="43.01436" lon="11.77039"><ele>433.0</ele><time>2026-05-02T13:18:00.788Z</time></trkpt><trkpt lat="43.0143467" lon="11.7702733"><ele>433.0</ele><time>2026-05-02T13:18:01.79Z</time></trkpt><trkpt lat="43.0143333" lon="11.7701633"><ele>433.0</ele><time>2026-05-02T13:18:02.789Z</time></trkpt><trkpt lat="43.01432" lon="11.7700567"><ele>433.00000000000006</ele><time>2026-05-02T13:18:03.788Z</time></trkpt><trkpt lat="43.014295" lon="11.7699717"><ele>433.0</ele><time>2026-05-02T13:18:04.789Z</time></trkpt><trkpt lat="43.0142533" lon="11.7699017"><ele>431.33333333333337</ele><time>2026-05-02T13:18:05.789Z</time></trkpt><trkpt lat="43.0142033" lon="11.769835"><ele>429.6666666666667</ele><time>2026-05-02T13:18:06.789Z</time></trkpt><trkpt lat="43.0141433" lon="11.7697467"><ele>428.0</ele><time>2026-05-02T13:18:07.789Z</time></trkpt><trkpt lat="43.0140867" lon="11.76965"><ele>426.33333333333337</ele><time>2026-05-02T13:18:08.789Z</time></trkpt><trkpt lat="43.0140433" lon="11.7695467"><ele>424.6666666666667</ele><time>2026-05-02T13:18:09.789Z</time></trkpt><trkpt lat="43.0140117" lon="11.76945"><ele>423.0</ele><time>2026-05-02T13:18:10.789Z</time></trkpt><trkpt lat="43.0139867" lon="11.769365"><ele>419.59999999999997</ele><time>2026-05-02T13:18:11.789Z</time></trkpt><trkpt lat="43.0139067" lon="11.769255"><ele>416.2</ele><time>2026-05-02T13:18:13.789Z</time></trkpt><trkpt lat="43.0138417" lon="11.7691933"><ele>412.8</ele><time>2026-05-02T13:18:14.789Z</time></trkpt><trkpt lat="43.0137667" lon="11.76912"><ele>409.4</ele><time>2026-05-02T13:18:15.789Z</time></trkpt><trkpt lat="43.0137033" lon="11.76903"><ele>406.0</ele><time>2026-05-02T13:18:16.79Z</time></trkpt><trkpt lat="43.0136533" lon="11.7689117"><ele>406.0</ele><time>2026-05-02T13:18:17.789Z</time></trkpt><trkpt lat="43.013605" lon="11.7687717"><ele>406.0</ele><time>2026-05-02T13:18:18.785Z</time></trkpt><trkpt lat="43.013565" lon="11.7686333"><ele>406.0</ele><time>2026-05-02T13:18:19.789Z</time></trkpt><trkpt lat="43.01353" lon="11.7685"><ele>406.0</ele><time>2026-05-02T13:18:20.79Z</time></trkpt><trkpt lat="43.0134983" lon="11.7683683"><ele>406.0</ele><time>2026-05-02T13:18:21.79Z</time></trkpt><trkpt lat="43.01347" lon="11.7682317"><ele>404.8</ele><time>2026-05-02T13:18:22.789Z</time></trkpt><trkpt lat="43.0134383" lon="11.7680883"><ele>403.6</ele><time>2026-05-02T13:18:23.789Z</time></trkpt><trkpt lat="43.0134083" lon="11.7679417"><ele>402.4</ele><time>2026-05-02T13:18:24.789Z</time></trkpt><trkpt lat="43.0133667" lon="11.767805"><ele>401.2</ele><time>2026-05-02T13:18:25.789Z</time></trkpt><trkpt lat="43.0133133" lon="11.767675"><ele>400.0</ele><time>2026-05-02T13:18:26.794Z</time></trkpt><trkpt lat="43.0132583" lon="11.7675617"><ele>398.1666666666667</ele><time>2026-05-02T13:18:27.789Z</time></trkpt><trkpt lat="43.0132" lon="11.7674567"><ele>396.33333333333337</ele><time>2026-05-02T13:18:28.79Z</time></trkpt><trkpt lat="43.0131367" lon="11.767365"><ele>394.5</ele><time>2026-05-02T13:18:29.789Z</time></trkpt><trkpt lat="43.0130683" lon="11.7673"><ele>392.66666666666663</ele><time>2026-05-02T13:18:30.789Z</time></trkpt><trkpt lat="43.0129967" lon="11.767255"><ele>390.8333333333333</ele><time>2026-05-02T13:18:31.789Z</time></trkpt><trkpt lat="43.01293" lon="11.7672183"><ele>389.0</ele><time>2026-05-02T13:18:32.79Z</time></trkpt><trkpt lat="43.0128667" lon="11.76717"><ele>388.99999999999994</ele><time>2026-05-02T13:18:33.789Z</time></trkpt><trkpt lat="43.0128083" lon="11.7671117"><ele>389.0</ele><time>2026-05-02T13:18:34.79Z</time></trkpt><trkpt lat="43.012755" lon="11.7670383"><ele>389.0</ele><time>2026-05-02T13:18:35.789Z</time></trkpt><trkpt lat="43.0127083" lon="11.7669533"><ele>389.0</ele><time>2026-05-02T13:18:36.789Z</time></trkpt><trkpt lat="43.012675" lon="11.7668617"><ele>388.99999999999994</ele><time>2026-05-02T13:18:37.79Z</time></trkpt><trkpt lat="43.0126533" lon="11.7667767"><ele>389.0</ele><time>2026-05-02T13:18:38.789Z</time></trkpt><trkpt lat="43.0126067" lon="11.76664"><ele>388.8333333333333</ele><time>2026-05-02T13:18:40.789Z</time></trkpt><trkpt lat="43.012545" lon="11.76655"><ele>388.66666666666663</ele><time>2026-05-02T13:18:42.789Z</time></trkpt><trkpt lat="43.01249" lon="11.766505"><ele>388.5</ele><time>2026-05-02T13:18:43.787Z</time></trkpt><trkpt lat="43.0124183" lon="11.7664617"><ele>388.33333333333337</ele><time>2026-05-02T13:18:44.787Z</time></trkpt><trkpt lat="43.0123483" lon="11.76642"><ele>388.1666666666667</ele><time>2026-05-02T13:18:45.788Z</time></trkpt><trkpt lat="43.012265" lon="11.766305"><ele>388.0</ele><time>2026-05-02T13:18:47.789Z</time></trkpt><trkpt lat="43.012245" lon="11.7662117"><ele>386.4</ele><time>2026-05-02T13:18:48.785Z</time></trkpt><trkpt lat="43.0122233" lon="11.7661033"><ele>384.79999999999995</ele><time>2026-05-02T13:18:49.789Z</time></trkpt><trkpt lat="43.0121917" lon="11.7659967"><ele>383.2</ele><time>2026-05-02T13:18:50.789Z</time></trkpt><trkpt lat="43.0121517" lon="11.76589"><ele>381.6</ele><time>2026-05-02T13:18:51.789Z</time></trkpt><trkpt lat="43.012095" lon="11.7657883"><ele>380.0</ele><time>2026-05-02T13:18:52.789Z</time></trkpt><trkpt lat="43.0120217" lon="11.7656883"><ele>379.2</ele><time>2026-05-02T13:18:53.79Z</time></trkpt><trkpt lat="43.0119433" lon="11.7655983"><ele>378.4</ele><time>2026-05-02T13:18:54.789Z</time></trkpt><trkpt lat="43.011865" lon="11.7655067"><ele>377.6</ele><time>2026-05-02T13:18:55.789Z</time></trkpt><trkpt lat="43.0117867" lon="11.765415"><ele>376.8</ele><time>2026-05-02T13:18:56.786Z</time></trkpt><trkpt lat="43.0117117" lon="11.7653233"><ele>376.0</ele><time>2026-05-02T13:18:57.789Z</time></trkpt><trkpt lat="43.011635" lon="11.76523"><ele>374.6</ele><time>2026-05-02T13:18:58.789Z</time></trkpt><trkpt lat="43.0115617" lon="11.76514"><ele>373.20000000000005</ele><time>2026-05-02T13:18:59.789Z</time></trkpt><trkpt lat="43.01149" lon="11.7650533"><ele>371.79999999999995</ele><time>2026-05-02T13:19:00.789Z</time></trkpt><trkpt lat="43.011415" lon="11.7649633"><ele>370.4</ele><time>2026-05-02T13:19:01.789Z</time></trkpt><trkpt lat="43.0113467" lon="11.7648733"><ele>369.0</ele><time>2026-05-02T13:19:02.789Z</time></trkpt><trkpt lat="43.0112817" lon="11.764775"><ele>369.0</ele><time>2026-05-02T13:19:03.789Z</time></trkpt><trkpt lat="43.01122" lon="11.76467"><ele>369.0</ele><time>2026-05-02T13:19:04.789Z</time></trkpt><trkpt lat="43.01116" lon="11.7645733"><ele>369.0</ele><time>2026-05-02T13:19:05.79Z</time></trkpt><trkpt lat="43.0110983" lon="11.7644833"><ele>369.0</ele><time>2026-05-02T13:19:06.789Z</time></trkpt><trkpt lat="43.011045" lon="11.7643983"><ele>369.0</ele><time>2026-05-02T13:19:07.789Z</time></trkpt><trkpt lat="43.011005" lon="11.7643133"><ele>369.0</ele><time>2026-05-02T13:19:08.788Z</time></trkpt><trkpt lat="43.0109767" lon="11.76423"><ele>368.6</ele><time>2026-05-02T13:19:09.788Z</time></trkpt><trkpt lat="43.0109317" lon="11.7640833"><ele>368.2</ele><time>2026-05-02T13:19:11.789Z</time></trkpt><trkpt lat="43.0108717" lon="11.7639417"><ele>367.8</ele><time>2026-05-02T13:19:13.788Z</time></trkpt><trkpt lat="43.0108267" lon="11.7638467"><ele>367.40000000000003</ele><time>2026-05-02T13:19:14.788Z</time></trkpt><trkpt lat="43.01077" lon="11.763735"><ele>367.0</ele><time>2026-05-02T13:19:15.788Z</time></trkpt><trkpt lat="43.0107067" lon="11.7636167"><ele>366.20000000000005</ele><time>2026-05-02T13:19:16.788Z</time></trkpt><trkpt lat="43.010635" lon="11.7634917"><ele>365.4</ele><time>2026-05-02T13:19:17.791Z</time></trkpt><trkpt lat="43.0105633" lon="11.7633617"><ele>364.6</ele><time>2026-05-02T13:19:18.788Z</time></trkpt><trkpt lat="43.0105017" lon="11.7632417"><ele>363.79999999999995</ele><time>2026-05-02T13:19:19.788Z</time></trkpt><trkpt lat="43.0104567" lon="11.763125"><ele>363.0</ele><time>2026-05-02T13:19:20.789Z</time></trkpt><trkpt lat="43.010435" lon="11.7630183"><ele>363.0</ele><time>2026-05-02T13:19:21.789Z</time></trkpt><trkpt lat="43.0104383" lon="11.7629217"><ele>363.0</ele><time>2026-05-02T13:19:22.788Z</time></trkpt><trkpt lat="43.0104617" lon="11.7628333"><ele>363.0</ele><time>2026-05-02T13:19:23.788Z</time></trkpt><trkpt lat="43.0105083" lon="11.7627533"><ele>363.0</ele><time>2026-05-02T13:19:24.791Z</time></trkpt><trkpt lat="43.0105733" lon="11.76268"><ele>363.0</ele><time>2026-05-02T13:19:25.788Z</time></trkpt><trkpt lat="43.0106483" lon="11.7626267"><ele>363.0</ele><time>2026-05-02T13:19:26.788Z</time></trkpt><trkpt lat="43.0107267" lon="11.762595"><ele>363.5</ele><time>2026-05-02T13:19:27.788Z</time></trkpt><trkpt lat="43.01079" lon="11.7625733"><ele>364.0</ele><time>2026-05-02T13:19:28.789Z</time></trkpt><trkpt lat="43.0108733" lon="11.7625383"><ele>364.5</ele><time>2026-05-02T13:19:30.788Z</time></trkpt><trkpt lat="43.0109467" lon="11.762485"><ele>365.0</ele><time>2026-05-02T13:28:42.787Z</time></trkpt><trkpt lat="43.0109067" lon="11.7623833"><ele>365.5</ele><time>2026-05-02T13:28:44.789Z</time></trkpt><trkpt lat="43.0108617" lon="11.7623217"><ele>366.0</ele><time>2026-05-02T13:28:45.786Z</time></trkpt><trkpt lat="43.01081" lon="11.7622517"><ele>365.6666666666667</ele><time>2026-05-02T13:28:46.786Z</time></trkpt><trkpt lat="43.0107533" lon="11.7621733"><ele>365.3333333333333</ele><time>2026-05-02T13:28:47.786Z</time></trkpt><trkpt lat="43.0106983" lon="11.7621"><ele>365.0</ele><time>2026-05-02T13:28:48.786Z</time></trkpt><trkpt lat="43.0106517" lon="11.7620383"><ele>364.66666666666663</ele><time>2026-05-02T13:28:49.787Z</time></trkpt><trkpt lat="43.0106067" lon="11.761975"><ele>364.3333333333333</ele><time>2026-05-02T13:28:50.786Z</time></trkpt><trkpt lat="43.01055" lon="11.761895"><ele>364.0</ele><time>2026-05-02T13:28:51.787Z</time></trkpt><trkpt lat="43.0104817" lon="11.7618033"><ele>364.0</ele><time>2026-05-02T13:28:52.786Z</time></trkpt><trkpt lat="43.0104" lon="11.76169"><ele>364.0</ele><time>2026-05-02T13:28:53.786Z</time></trkpt><trkpt lat="43.0103067" lon="11.76156"><ele>364.0</ele><time>2026-05-02T13:28:54.786Z</time></trkpt><trkpt lat="43.0102083" lon="11.761425"><ele>364.0</ele><time>2026-05-02T13:28:55.786Z</time></trkpt><trkpt lat="43.0101033" lon="11.7612833"><ele>362.3333333333333</ele><time>2026-05-02T13:28:56.786Z</time></trkpt><trkpt lat="43.00999" lon="11.7611317"><ele>360.6666666666667</ele><time>2026-05-02T13:28:57.786Z</time></trkpt><trkpt lat="43.009875" lon="11.7609733"><ele>359.0</ele><time>2026-05-02T13:28:58.786Z</time></trkpt><trkpt lat="43.0097617" lon="11.7608133"><ele>358.0</ele><time>2026-05-02T13:28:59.787Z</time></trkpt><trkpt lat="43.0096467" lon="11.7606533"><ele>357.0</ele><time>2026-05-02T13:29:00.786Z</time></trkpt><trkpt lat="43.0095317" lon="11.76049"><ele>356.0</ele><time>2026-05-02T13:29:01.786Z</time></trkpt><trkpt lat="43.0094133" lon="11.760325"><ele>355.0</ele><time>2026-05-02T13:29:02.787Z</time></trkpt><trkpt lat="43.0092967" lon="11.7601617"><ele>354.0</ele><time>2026-05-02T13:29:03.786Z</time></trkpt><trkpt lat="43.0091817" lon="11.7600017"><ele>353.0</ele><time>2026-05-02T13:29:04.786Z</time></trkpt><trkpt lat="43.0090683" lon="11.7598383"><ele>351.6666666666667</ele><time>2026-05-02T13:29:05.786Z</time></trkpt><trkpt lat="43.0089517" lon="11.7596717"><ele>350.3333333333333</ele><time>2026-05-02T13:29:06.785Z</time></trkpt><trkpt lat="43.0088383" lon="11.7595033"><ele>349.0</ele><time>2026-05-02T13:29:07.786Z</time></trkpt><trkpt lat="43.0087317" lon="11.7593367"><ele>349.0</ele><time>2026-05-02T13:29:08.786Z</time></trkpt><trkpt lat="43.0086333" lon="11.759175"><ele>349.0</ele><time>2026-05-02T13:29:09.786Z</time></trkpt><trkpt lat="43.0085417" lon="11.7590067"><ele>349.0</ele><time>2026-05-02T13:29:10.786Z</time></trkpt><trkpt lat="43.008455" lon="11.7588183"><ele>349.0</ele><time>2026-05-02T13:29:11.786Z</time></trkpt><trkpt lat="43.008375" lon="11.7586183"><ele>349.0</ele><time>2026-05-02T13:29:12.787Z</time></trkpt><trkpt lat="43.0082983" lon="11.7584067"><ele>349.0</ele><time>2026-05-02T13:29:13.787Z</time></trkpt><trkpt lat="43.00823" lon="11.7581833"><ele>348.66666666666663</ele><time>2026-05-02T13:29:14.786Z</time></trkpt><trkpt lat="43.00817" lon="11.7579533"><ele>348.3333333333333</ele><time>2026-05-02T13:29:15.787Z</time></trkpt><trkpt lat="43.008125" lon="11.757715"><ele>348.0</ele><time>2026-05-02T13:29:16.786Z</time></trkpt><trkpt lat="43.008095" lon="11.7574683"><ele>348.0</ele><time>2026-05-02T13:29:17.787Z</time></trkpt><trkpt lat="43.0080717" lon="11.7572083"><ele>348.0</ele><time>2026-05-02T13:29:18.786Z</time></trkpt><trkpt lat="43.0080633" lon="11.7569383"><ele>348.0</ele><time>2026-05-02T13:29:19.786Z</time></trkpt><trkpt lat="43.00806" lon="11.7566633"><ele>348.0</ele><time>2026-05-02T13:29:20.787Z</time></trkpt><trkpt lat="43.008065" lon="11.7563833"><ele>348.0</ele><time>2026-05-02T13:29:21.786Z</time></trkpt><trkpt lat="43.0080683" lon="11.7560933"><ele>348.0</ele><time>2026-05-02T13:29:22.786Z</time></trkpt><trkpt lat="43.0080717" lon="11.7558033"><ele>347.3333333333333</ele><time>2026-05-02T13:29:23.786Z</time></trkpt><trkpt lat="43.008075" lon="11.75551"><ele>346.66666666666663</ele><time>2026-05-02T13:29:24.786Z</time></trkpt><trkpt lat="43.0080783" lon="11.7552167"><ele>346.0</ele><time>2026-05-02T13:29:25.787Z</time></trkpt><trkpt lat="43.0080833" lon="11.7549233"><ele>345.0</ele><time>2026-05-02T13:29:26.786Z</time></trkpt><trkpt lat="43.0080867" lon="11.7546283"><ele>344.0</ele><time>2026-05-02T13:29:27.786Z</time></trkpt><trkpt lat="43.0080883" lon="11.754335"><ele>343.0</ele><time>2026-05-02T13:29:28.786Z</time></trkpt><trkpt lat="43.00808" lon="11.75404"><ele>341.3333333333333</ele><time>2026-05-02T13:29:29.788Z</time></trkpt><trkpt lat="43.0080517" lon="11.75375"><ele>339.6666666666667</ele><time>2026-05-02T13:29:30.786Z</time></trkpt><trkpt lat="43.0079967" lon="11.7534667"><ele>338.0</ele><time>2026-05-02T13:29:31.786Z</time></trkpt><trkpt lat="43.0079167" lon="11.7531967"><ele>338.0</ele><time>2026-05-02T13:29:32.787Z</time></trkpt><trkpt lat="43.0078183" lon="11.7529417"><ele>338.0</ele><time>2026-05-02T13:29:33.786Z</time></trkpt><trkpt lat="43.0077083" lon="11.752695"><ele>338.0</ele><time>2026-05-02T13:29:34.786Z</time></trkpt><trkpt lat="43.007595" lon="11.7524567"><ele>337.0</ele><time>2026-05-02T13:29:35.787Z</time></trkpt><trkpt lat="43.0074883" lon="11.75222"><ele>336.0</ele><time>2026-05-02T13:29:36.786Z</time></trkpt><trkpt lat="43.0073933" lon="11.7519717"><ele>335.0</ele><time>2026-05-02T13:29:37.786Z</time></trkpt><trkpt lat="43.0073183" lon="11.7517083"><ele>335.33333333333337</ele><time>2026-05-02T13:29:38.787Z</time></trkpt><trkpt lat="43.0072633" lon="11.7514267"><ele>335.6666666666667</ele><time>2026-05-02T13:29:39.786Z</time></trkpt><trkpt lat="43.0072333" lon="11.7511383"><ele>336.0</ele><time>2026-05-02T13:29:40.786Z</time></trkpt><trkpt lat="43.007225" lon="11.7508433"><ele>336.0</ele><time>2026-05-02T13:29:41.787Z</time></trkpt><trkpt lat="43.007225" lon="11.7505433"><ele>336.0</ele><time>2026-05-02T13:29:42.786Z</time></trkpt><trkpt lat="43.0072283" lon="11.75024"><ele>336.0</ele><time>2026-05-02T13:29:43.787Z</time></trkpt><trkpt lat="43.00723" lon="11.7499417"><ele>335.3333333333333</ele><time>2026-05-02T13:29:44.786Z</time></trkpt><trkpt lat="43.0072317" lon="11.7496417"><ele>334.66666666666663</ele><time>2026-05-02T13:29:45.786Z</time></trkpt><trkpt lat="43.0072333" lon="11.7493433"><ele>334.0</ele><time>2026-05-02T13:29:46.787Z</time></trkpt><trkpt lat="43.0072367" lon="11.7490467"><ele>333.0</ele><time>2026-05-02T13:29:47.785Z</time></trkpt><trkpt lat="43.0072383" lon="11.7487517"><ele>332.0</ele><time>2026-05-02T13:29:48.786Z</time></trkpt><trkpt lat="43.0072417" lon="11.74846"><ele>331.0</ele><time>2026-05-02T13:29:49.786Z</time></trkpt><trkpt lat="43.007245" lon="11.748165"><ele>329.3333333333333</ele><time>2026-05-02T13:29:50.789Z</time></trkpt><trkpt lat="43.0072467" lon="11.7478717"><ele>327.6666666666667</ele><time>2026-05-02T13:29:51.788Z</time></trkpt><trkpt lat="43.00725" lon="11.7475767"><ele>326.0</ele><time>2026-05-02T13:29:52.788Z</time></trkpt><trkpt lat="43.0072517" lon="11.7472833"><ele>325.0</ele><time>2026-05-02T13:29:53.788Z</time></trkpt><trkpt lat="43.007255" lon="11.74699"><ele>324.0</ele><time>2026-05-02T13:29:54.789Z</time></trkpt><trkpt lat="43.007255" lon="11.746695"><ele>323.0</ele><time>2026-05-02T13:29:55.789Z</time></trkpt><trkpt lat="43.0072583" lon="11.7464067"><ele>322.6666666666667</ele><time>2026-05-02T13:29:56.785Z</time></trkpt><trkpt lat="43.00726" lon="11.746125"><ele>322.3333333333333</ele><time>2026-05-02T13:29:57.786Z</time></trkpt><trkpt lat="43.0072617" lon="11.7458467"><ele>322.0</ele><time>2026-05-02T13:29:58.786Z</time></trkpt><trkpt lat="43.0072633" lon="11.7455667"><ele>320.66666666666663</ele><time>2026-05-02T13:29:59.785Z</time></trkpt><trkpt lat="43.007265" lon="11.7452867"><ele>319.3333333333333</ele><time>2026-05-02T13:30:00.789Z</time></trkpt><trkpt lat="43.0072683" lon="11.7450083"><ele>318.0</ele><time>2026-05-02T13:30:01.785Z</time></trkpt><trkpt lat="43.00727" lon="11.7447367"><ele>315.3333333333333</ele><time>2026-05-02T13:30:02.785Z</time></trkpt><trkpt lat="43.007275" lon="11.7444633"><ele>312.66666666666663</ele><time>2026-05-02T13:30:03.788Z</time></trkpt><trkpt lat="43.0072783" lon="11.7441867"><ele>310.0</ele><time>2026-05-02T13:30:04.788Z</time></trkpt><trkpt lat="43.0072817" lon="11.743905"><ele>308.66666666666663</ele><time>2026-05-02T13:30:05.789Z</time></trkpt><trkpt lat="43.007285" lon="11.7436233"><ele>307.3333333333333</ele><time>2026-05-02T13:30:06.785Z</time></trkpt><trkpt lat="43.0072883" lon="11.7433367"><ele>306.0</ele><time>2026-05-02T13:30:07.785Z</time></trkpt><trkpt lat="43.00729" lon="11.7430467"><ele>305.6666666666667</ele><time>2026-05-02T13:30:08.786Z</time></trkpt><trkpt lat="43.0072933" lon="11.742755"><ele>305.33333333333337</ele><time>2026-05-02T13:30:09.785Z</time></trkpt><trkpt lat="43.007295" lon="11.7424633"><ele>305.0</ele><time>2026-05-02T13:30:10.785Z</time></trkpt><trkpt lat="43.0072967" lon="11.74217"><ele>304.33333333333337</ele><time>2026-05-02T13:30:11.786Z</time></trkpt><trkpt lat="43.0072983" lon="11.741875"><ele>303.6666666666667</ele><time>2026-05-02T13:30:12.786Z</time></trkpt><trkpt lat="43.0073033" lon="11.74158"><ele>303.0</ele><time>2026-05-02T13:30:13.785Z</time></trkpt><trkpt lat="43.007305" lon="11.741285"><ele>303.0</ele><time>2026-05-02T13:30:14.787Z</time></trkpt><trkpt lat="43.007305" lon="11.7409883"><ele>303.0</ele><time>2026-05-02T13:30:15.785Z</time></trkpt><trkpt lat="43.0073067" lon="11.7406917"><ele>303.0</ele><time>2026-05-02T13:30:16.789Z</time></trkpt><trkpt lat="43.0073117" lon="11.7403883"><ele>302.0</ele><time>2026-05-02T13:30:17.789Z</time></trkpt><trkpt lat="43.007315" lon="11.7400817"><ele>301.0</ele><time>2026-05-02T13:30:18.788Z</time></trkpt><trkpt lat="43.00732" lon="11.7397717"><ele>301.0</ele><time>2026-05-02T13:30:19.789Z</time></trkpt><trkpt lat="43.0073233" lon="11.7394633"><ele>301.0</ele><time>2026-05-02T13:30:20.788Z</time></trkpt><trkpt lat="43.0073267" lon="11.739155"><ele>301.0</ele><time>2026-05-02T13:30:21.789Z</time></trkpt><trkpt lat="43.00733" lon="11.73885"><ele>301.0</ele><time>2026-05-02T13:30:22.786Z</time></trkpt><trkpt lat="43.0073333" lon="11.7385433"><ele>301.0</ele><time>2026-05-02T13:30:23.789Z</time></trkpt><trkpt lat="43.0073367" lon="11.7382433"><ele>301.3333333333333</ele><time>2026-05-02T13:30:24.785Z</time></trkpt><trkpt lat="43.00734" lon="11.737935"><ele>301.6666666666667</ele><time>2026-05-02T13:30:25.788Z</time></trkpt><trkpt lat="43.007345" lon="11.737635"><ele>302.0</ele><time>2026-05-02T13:30:26.788Z</time></trkpt><trkpt lat="43.0073483" lon="11.737335"><ele>302.33333333333337</ele><time>2026-05-02T13:30:27.788Z</time></trkpt><trkpt lat="43.0073533" lon="11.73704"><ele>302.6666666666667</ele><time>2026-05-02T13:30:28.789Z</time></trkpt><trkpt lat="43.0073533" lon="11.736745"><ele>303.0</ele><time>2026-05-02T13:30:29.789Z</time></trkpt><trkpt lat="43.007355" lon="11.7364483"><ele>304.0</ele><time>2026-05-02T13:30:30.788Z</time></trkpt><trkpt lat="43.0073533" lon="11.7361583"><ele>305.0</ele><time>2026-05-02T13:30:31.785Z</time></trkpt><trkpt lat="43.007355" lon="11.7358683"><ele>306.0</ele><time>2026-05-02T13:30:32.788Z</time></trkpt><trkpt lat="43.0073567" lon="11.7355783"><ele>308.0</ele><time>2026-05-02T13:30:33.785Z</time></trkpt><trkpt lat="43.0073583" lon="11.7352883"><ele>310.0</ele><time>2026-05-02T13:30:34.788Z</time></trkpt><trkpt lat="43.0073633" lon="11.7350033"><ele>312.0</ele><time>2026-05-02T13:30:35.785Z</time></trkpt><trkpt lat="43.007365" lon="11.7347183"><ele>312.6666666666667</ele><time>2026-05-02T13:30:36.788Z</time></trkpt><trkpt lat="43.00736" lon="11.7344367"><ele>313.33333333333337</ele><time>2026-05-02T13:30:37.789Z</time></trkpt><trkpt lat="43.0073517" lon="11.7341633"><ele>314.0</ele><time>2026-05-02T13:30:38.788Z</time></trkpt><trkpt lat="43.0073283" lon="11.7338917"><ele>314.0</ele><time>2026-05-02T13:30:39.788Z</time></trkpt><trkpt lat="43.007295" lon="11.7336367"><ele>314.0</ele><time>2026-05-02T13:30:40.788Z</time></trkpt><trkpt lat="43.0072517" lon="11.7333983"><ele>314.0</ele><time>2026-05-02T13:30:41.789Z</time></trkpt><trkpt lat="43.0072" lon="11.7331733"><ele>314.0</ele><time>2026-05-02T13:30:42.789Z</time></trkpt><trkpt lat="43.0071383" lon="11.7329533"><ele>314.0</ele><time>2026-05-02T13:30:43.789Z</time></trkpt><trkpt lat="43.00707" lon="11.7327367"><ele>314.0</ele><time>2026-05-02T13:30:44.789Z</time></trkpt><trkpt lat="43.006995" lon="11.73253"><ele>312.33333333333337</ele><time>2026-05-02T13:30:45.788Z</time></trkpt><trkpt lat="43.0069167" lon="11.732335"><ele>310.6666666666667</ele><time>2026-05-02T13:30:46.788Z</time></trkpt><trkpt lat="43.0068333" lon="11.73215"><ele>309.0</ele><time>2026-05-02T13:30:47.789Z</time></trkpt><trkpt lat="43.006745" lon="11.7319717"><ele>309.3333333333333</ele><time>2026-05-02T13:30:48.788Z</time></trkpt><trkpt lat="43.00665" lon="11.7318"><ele>309.66666666666663</ele><time>2026-05-02T13:30:49.788Z</time></trkpt><trkpt lat="43.00655" lon="11.7316367"><ele>310.0</ele><time>2026-05-02T13:30:50.788Z</time></trkpt><trkpt lat="43.0064433" lon="11.7314833"><ele>310.0</ele><time>2026-05-02T13:30:51.788Z</time></trkpt><trkpt lat="43.0063333" lon="11.7313383"><ele>310.0</ele><time>2026-05-02T13:30:52.789Z</time></trkpt><trkpt lat="43.0062233" lon="11.7312017"><ele>310.0</ele><time>2026-05-02T13:30:53.789Z</time></trkpt><trkpt lat="43.0061083" lon="11.7310733"><ele>310.0</ele><time>2026-05-02T13:30:54.788Z</time></trkpt><trkpt lat="43.00599" lon="11.730955"><ele>310.0</ele><time>2026-05-02T13:30:55.788Z</time></trkpt><trkpt lat="43.0058683" lon="11.73084"><ele>310.0</ele><time>2026-05-02T13:30:56.788Z</time></trkpt><trkpt lat="43.0057417" lon="11.73073"><ele>310.0</ele><time>2026-05-02T13:30:57.788Z</time></trkpt><trkpt lat="43.0056083" lon="11.7306317"><ele>310.0</ele><time>2026-05-02T13:30:58.788Z</time></trkpt><trkpt lat="43.0054667" lon="11.7305433"><ele>310.0</ele><time>2026-05-02T13:30:59.789Z</time></trkpt><trkpt lat="43.00532" lon="11.7304567"><ele>310.0</ele><time>2026-05-02T13:31:00.789Z</time></trkpt><trkpt lat="43.0051667" lon="11.730375"><ele>310.0</ele><time>2026-05-02T13:31:01.788Z</time></trkpt><trkpt lat="43.00501" lon="11.7302917"><ele>310.0</ele><time>2026-05-02T13:31:02.789Z</time></trkpt><trkpt lat="43.0048433" lon="11.7302133"><ele>310.0</ele><time>2026-05-02T13:31:03.789Z</time></trkpt><trkpt lat="43.0046717" lon="11.7301333"><ele>310.0</ele><time>2026-05-02T13:31:04.789Z</time></trkpt><trkpt lat="43.004495" lon="11.7300517"><ele>310.0</ele><time>2026-05-02T13:31:05.789Z</time></trkpt><trkpt lat="43.004315" lon="11.7299683"><ele>310.0</ele><time>2026-05-02T13:31:06.788Z</time></trkpt><trkpt lat="43.004135" lon="11.7298817"><ele>310.0</ele><time>2026-05-02T13:31:07.789Z</time></trkpt><trkpt lat="43.0039583" lon="11.729795"><ele>310.0</ele><time>2026-05-02T13:31:08.788Z</time></trkpt><trkpt lat="43.00378" lon="11.72971"><ele>310.0</ele><time>2026-05-02T13:31:09.788Z</time></trkpt><trkpt lat="43.003605" lon="11.7296283"><ele>310.0</ele><time>2026-05-02T13:31:10.789Z</time></trkpt><trkpt lat="43.003435" lon="11.729545"><ele>310.0</ele><time>2026-05-02T13:31:11.789Z</time></trkpt><trkpt lat="43.00327" lon="11.7294567"><ele>310.0</ele><time>2026-05-02T13:31:12.788Z</time></trkpt><trkpt lat="43.0031067" lon="11.7293583"><ele>310.66666666666663</ele><time>2026-05-02T13:31:13.788Z</time></trkpt><trkpt lat="43.00295" lon="11.7292483"><ele>311.3333333333333</ele><time>2026-05-02T13:31:14.789Z</time></trkpt><trkpt lat="43.0027917" lon="11.7291333"><ele>312.0</ele><time>2026-05-02T13:31:15.787Z</time></trkpt><trkpt lat="43.002635" lon="11.7290133"><ele>312.3333333333333</ele><time>2026-05-02T13:31:16.786Z</time></trkpt><trkpt lat="43.002475" lon="11.7288983"><ele>312.66666666666663</ele><time>2026-05-02T13:31:17.786Z</time></trkpt><trkpt lat="43.0023133" lon="11.72878"><ele>313.0</ele><time>2026-05-02T13:31:18.791Z</time></trkpt><trkpt lat="43.002155" lon="11.7286617"><ele>313.3333333333333</ele><time>2026-05-02T13:31:19.788Z</time></trkpt><trkpt lat="43.002005" lon="11.7285483"><ele>313.6666666666667</ele><time>2026-05-02T13:31:20.788Z</time></trkpt><trkpt lat="43.00186" lon="11.7284433"><ele>314.0</ele><time>2026-05-02T13:31:21.789Z</time></trkpt><trkpt lat="43.0017283" lon="11.7283417"><ele>314.25</ele><time>2026-05-02T13:31:22.788Z</time></trkpt><trkpt lat="43.0016033" lon="11.7282467"><ele>314.5</ele><time>2026-05-02T13:31:23.791Z</time></trkpt><trkpt lat="43.0014883" lon="11.7281567"><ele>314.75</ele><time>2026-05-02T13:31:24.788Z</time></trkpt><trkpt lat="43.0013817" lon="11.7280717"><ele>315.0</ele><time>2026-05-02T13:31:25.789Z</time></trkpt><trkpt lat="43.0012833" lon="11.7279933"><ele>315.0</ele><time>2026-05-02T13:31:26.79Z</time></trkpt><trkpt lat="43.0011983" lon="11.7279283"><ele>315.0</ele><time>2026-05-02T13:31:27.788Z</time></trkpt><trkpt lat="43.0011333" lon="11.7278717"><ele>315.0</ele><time>2026-05-02T13:31:28.789Z</time></trkpt><trkpt lat="43.0010717" lon="11.7277717"><ele>315.0</ele><time>2026-05-02T13:31:30.79Z</time></trkpt><trkpt lat="43.0011183" lon="11.72768"><ele>315.0</ele><time>2026-05-02T13:31:32.789Z</time></trkpt><trkpt lat="43.0011683" lon="11.72762"><ele>315.0</ele><time>2026-05-02T13:31:33.789Z</time></trkpt><trkpt lat="43.0012417" lon="11.7275733"><ele>314.8</ele><time>2026-05-02T13:31:34.788Z</time></trkpt><trkpt lat="43.0013183" lon="11.7275333"><ele>314.6</ele><time>2026-05-02T13:31:35.789Z</time></trkpt><trkpt lat="43.0014033" lon="11.727495"><ele>314.4</ele><time>2026-05-02T13:31:36.789Z</time></trkpt><trkpt lat="43.0014983" lon="11.727445"><ele>314.2</ele><time>2026-05-02T13:31:37.788Z</time></trkpt><trkpt lat="43.0015933" lon="11.727385"><ele>314.0</ele><time>2026-05-02T13:31:38.789Z</time></trkpt><trkpt lat="43.0016817" lon="11.7273133"><ele>313.59999999999997</ele><time>2026-05-02T13:31:39.788Z</time></trkpt><trkpt lat="43.0017567" lon="11.7272333"><ele>313.2</ele><time>2026-05-02T13:31:40.788Z</time></trkpt><trkpt lat="43.0018167" lon="11.7271367"><ele>312.79999999999995</ele><time>2026-05-02T13:31:41.789Z</time></trkpt><trkpt lat="43.00187" lon="11.7270283"><ele>312.4</ele><time>2026-05-02T13:31:42.789Z</time></trkpt><trkpt lat="43.0019183" lon="11.7269133"><ele>312.0</ele><time>2026-05-02T13:31:43.787Z</time></trkpt><trkpt lat="43.0019617" lon="11.7268083"><ele>312.0</ele><time>2026-05-02T13:31:44.787Z</time></trkpt><trkpt lat="43.002" lon="11.7267117"><ele>312.0</ele><time>2026-05-02T13:31:45.786Z</time></trkpt><trkpt lat="43.0020383" lon="11.7266233"><ele>312.0</ele><time>2026-05-02T13:31:46.786Z</time></trkpt><trkpt lat="43.0020817" lon="11.72654"><ele>312.0</ele><time>2026-05-02T13:31:47.786Z</time></trkpt><trkpt lat="43.0021433" lon="11.7264633"><ele>312.0</ele><time>2026-05-02T13:31:48.786Z</time></trkpt><trkpt lat="43.0022183" lon="11.7263983"><ele>312.0</ele><time>2026-05-02T13:31:49.789Z</time></trkpt><trkpt lat="43.0023033" lon="11.726355"><ele>312.0</ele><time>2026-05-02T13:31:50.789Z</time></trkpt><trkpt lat="43.002405" lon="11.72632"><ele>312.0</ele><time>2026-05-02T13:31:51.789Z</time></trkpt><trkpt lat="43.0024983" lon="11.7262867"><ele>312.0</ele><time>2026-05-02T13:31:52.789Z</time></trkpt><trkpt lat="43.0025883" lon="11.7262467"><ele>312.0</ele><time>2026-05-02T13:31:53.789Z</time></trkpt><trkpt lat="43.0026717" lon="11.7261933"><ele>312.0</ele><time>2026-05-02T13:31:54.788Z</time></trkpt><trkpt lat="43.0027617" lon="11.726125"><ele>312.4</ele><time>2026-05-02T13:31:55.789Z</time></trkpt><trkpt lat="43.0028583" lon="11.72606"><ele>312.79999999999995</ele><time>2026-05-02T13:31:56.786Z</time></trkpt><trkpt lat="43.0029583" lon="11.7260083"><ele>313.2</ele><time>2026-05-02T13:31:57.787Z</time></trkpt><trkpt lat="43.003065" lon="11.7259717"><ele>313.59999999999997</ele><time>2026-05-02T13:31:58.787Z</time></trkpt><trkpt lat="43.0031683" lon="11.7259433"><ele>314.0</ele><time>2026-05-02T13:31:59.786Z</time></trkpt><trkpt lat="43.00327" lon="11.7259083"><ele>314.4</ele><time>2026-05-02T13:32:00.787Z</time></trkpt><trkpt lat="43.0033683" lon="11.72585"><ele>314.79999999999995</ele><time>2026-05-02T13:32:01.786Z</time></trkpt><trkpt lat="43.0034533" lon="11.7257717"><ele>315.20000000000005</ele><time>2026-05-02T13:32:02.787Z</time></trkpt><trkpt lat="43.003525" lon="11.7256683"><ele>315.6</ele><time>2026-05-02T13:32:03.789Z</time></trkpt><trkpt lat="43.0035767" lon="11.72555"><ele>316.0</ele><time>2026-05-02T13:32:04.789Z</time></trkpt><trkpt lat="43.0036067" lon="11.7254167"><ele>316.0</ele><time>2026-05-02T13:32:05.789Z</time></trkpt><trkpt lat="43.0036067" lon="11.7252867"><ele>316.0</ele><time>2026-05-02T13:32:06.79Z</time></trkpt><trkpt lat="43.0036033" lon="11.7251483"><ele>316.0</ele><time>2026-05-02T13:32:07.787Z</time></trkpt><trkpt lat="43.00361" lon="11.7250033"><ele>316.0</ele><time>2026-05-02T13:32:08.786Z</time></trkpt><trkpt lat="43.0036317" lon="11.724865"><ele>316.0</ele><time>2026-05-02T13:32:09.788Z</time></trkpt><trkpt lat="43.0036733" lon="11.7247317"><ele>317.0</ele><time>2026-05-02T13:32:10.786Z</time></trkpt><trkpt lat="43.0037333" lon="11.724605"><ele>318.0</ele><time>2026-05-02T13:32:11.786Z</time></trkpt><trkpt lat="43.0038083" lon="11.724485"><ele>319.0</ele><time>2026-05-02T13:32:12.79Z</time></trkpt><trkpt lat="43.0038883" lon="11.7243767"><ele>320.0</ele><time>2026-05-02T13:32:13.79Z</time></trkpt><trkpt lat="43.0039733" lon="11.72427"><ele>320.83333333333337</ele><time>2026-05-02T13:32:14.789Z</time></trkpt><trkpt lat="43.004055" lon="11.724175"><ele>321.6666666666667</ele><time>2026-05-02T13:32:15.791Z</time></trkpt><trkpt lat="43.004135" lon="11.7241083"><ele>322.5</ele><time>2026-05-02T13:32:16.789Z</time></trkpt><trkpt lat="43.0042183" lon="11.724065"><ele>323.3333333333333</ele><time>2026-05-02T13:32:17.789Z</time></trkpt><trkpt lat="43.0042917" lon="11.7240383"><ele>324.16666666666663</ele><time>2026-05-02T13:32:18.789Z</time></trkpt><trkpt lat="43.0043533" lon="11.724005"><ele>325.0</ele><time>2026-05-02T13:32:19.786Z</time></trkpt><trkpt lat="43.0044" lon="11.723945"><ele>325.8333333333333</ele><time>2026-05-02T13:32:20.786Z</time></trkpt><trkpt lat="43.0044333" lon="11.723855"><ele>326.66666666666663</ele><time>2026-05-02T13:32:21.789Z</time></trkpt><trkpt lat="43.0044417" lon="11.7237383"><ele>327.5</ele><time>2026-05-02T13:32:22.789Z</time></trkpt><trkpt lat="43.0044233" lon="11.72361"><ele>328.3333333333333</ele><time>2026-05-02T13:32:23.789Z</time></trkpt><trkpt lat="43.0044" lon="11.723485"><ele>329.1666666666667</ele><time>2026-05-02T13:32:24.79Z</time></trkpt><trkpt lat="43.0043783" lon="11.7233667"><ele>330.0</ele><time>2026-05-02T13:32:25.789Z</time></trkpt><trkpt lat="43.0043633" lon="11.7232633"><ele>330.00000000000006</ele><time>2026-05-02T13:32:26.786Z</time></trkpt><trkpt lat="43.004345" lon="11.7231633"><ele>330.0</ele><time>2026-05-02T13:32:27.787Z</time></trkpt><trkpt lat="43.00432" lon="11.723075"><ele>330.0</ele><time>2026-05-02T13:32:28.786Z</time></trkpt><trkpt lat="43.0042883" lon="11.7229967"><ele>330.0</ele><time>2026-05-02T13:32:29.788Z</time></trkpt><trkpt lat="43.0042483" lon="11.72292"><ele>330.0</ele><time>2026-05-02T13:32:30.786Z</time></trkpt><trkpt lat="43.0042083" lon="11.7228333"><ele>330.00000000000006</ele><time>2026-05-02T13:32:31.786Z</time></trkpt><trkpt lat="43.00417" lon="11.7227333"><ele>330.0</ele><time>2026-05-02T13:32:32.787Z</time></trkpt><trkpt lat="43.00415" lon="11.7226217"><ele>329.6</ele><time>2026-05-02T13:32:33.789Z</time></trkpt><trkpt lat="43.004145" lon="11.7224983"><ele>329.2</ele><time>2026-05-02T13:32:34.789Z</time></trkpt><trkpt lat="43.0041467" lon="11.722375"><ele>328.79999999999995</ele><time>2026-05-02T13:32:35.789Z</time></trkpt><trkpt lat="43.0041633" lon="11.72224"><ele>328.4</ele><time>2026-05-02T13:32:36.789Z</time></trkpt><trkpt lat="43.0041883" lon="11.7221"><ele>328.0</ele><time>2026-05-02T13:32:37.789Z</time></trkpt><trkpt lat="43.004215" lon="11.7219517"><ele>328.0</ele><time>2026-05-02T13:32:38.79Z</time></trkpt><trkpt lat="43.0042517" lon="11.7217817"><ele>328.0</ele><time>2026-05-02T13:32:39.789Z</time></trkpt><trkpt lat="43.00429" lon="11.7216067"><ele>328.0</ele><time>2026-05-02T13:32:40.788Z</time></trkpt><trkpt lat="43.0043283" lon="11.7214283"><ele>328.0</ele><time>2026-05-02T13:32:41.79Z</time></trkpt><trkpt lat="43.00437" lon="11.7212483"><ele>328.25</ele><time>2026-05-02T13:32:42.788Z</time></trkpt><trkpt lat="43.0044083" lon="11.721065"><ele>328.5</ele><time>2026-05-02T13:32:43.789Z</time></trkpt><trkpt lat="43.0044467" lon="11.7208833"><ele>328.75</ele><time>2026-05-02T13:32:44.788Z</time></trkpt><trkpt lat="43.004485" lon="11.720705"><ele>329.0</ele><time>2026-05-02T13:32:45.788Z</time></trkpt><trkpt lat="43.004525" lon="11.720525"><ele>329.0</ele><time>2026-05-02T13:32:46.786Z</time></trkpt><trkpt lat="43.004565" lon="11.7203433"><ele>329.0</ele><time>2026-05-02T13:32:47.786Z</time></trkpt><trkpt lat="43.0046033" lon="11.720165"><ele>329.0</ele><time>2026-05-02T13:32:48.785Z</time></trkpt><trkpt lat="43.00464" lon="11.7199833"><ele>329.0</ele><time>2026-05-02T13:32:49.788Z</time></trkpt><trkpt lat="43.004675" lon="11.7198017"><ele>329.0</ele><time>2026-05-02T13:32:50.789Z</time></trkpt><trkpt lat="43.004705" lon="11.7196167"><ele>329.0</ele><time>2026-05-02T13:32:51.788Z</time></trkpt><trkpt lat="43.0047333" lon="11.7194433"><ele>329.0</ele><time>2026-05-02T13:32:52.789Z</time></trkpt><trkpt lat="43.00476" lon="11.7192733"><ele>329.0</ele><time>2026-05-02T13:32:53.788Z</time></trkpt><trkpt lat="43.004785" lon="11.71911"><ele>328.0</ele><time>2026-05-02T13:32:54.789Z</time></trkpt><trkpt lat="43.0048133" lon="11.7189483"><ele>327.0</ele><time>2026-05-02T13:32:55.788Z</time></trkpt><trkpt lat="43.0048383" lon="11.7187917"><ele>326.0</ele><time>2026-05-02T13:32:56.785Z</time></trkpt><trkpt lat="43.00486" lon="11.7186383"><ele>325.0</ele><time>2026-05-02T13:32:57.785Z</time></trkpt><trkpt lat="43.004875" lon="11.7184967"><ele>323.4</ele><time>2026-05-02T13:32:58.785Z</time></trkpt><trkpt lat="43.00488" lon="11.7183583"><ele>321.8</ele><time>2026-05-02T13:32:59.786Z</time></trkpt><trkpt lat="43.0048767" lon="11.71822"><ele>320.2</ele><time>2026-05-02T13:33:00.785Z</time></trkpt><trkpt lat="43.0048733" lon="11.7180767"><ele>318.6</ele><time>2026-05-02T13:33:01.785Z</time></trkpt><trkpt lat="43.00486" lon="11.7179317"><ele>317.0</ele><time>2026-05-02T13:33:02.785Z</time></trkpt><trkpt lat="43.0048433" lon="11.717785"><ele>316.0</ele><time>2026-05-02T13:33:03.788Z</time></trkpt><trkpt lat="43.0048217" lon="11.7176417"><ele>315.0</ele><time>2026-05-02T13:33:04.788Z</time></trkpt><trkpt lat="43.0047883" lon="11.7174917"><ele>314.0</ele><time>2026-05-02T13:33:05.789Z</time></trkpt><trkpt lat="43.004745" lon="11.717335"><ele>313.0</ele><time>2026-05-02T13:33:06.788Z</time></trkpt><trkpt lat="43.0046983" lon="11.7171733"><ele>313.0</ele><time>2026-05-02T13:33:07.789Z</time></trkpt><trkpt lat="43.0046533" lon="11.71702"><ele>313.0</ele><time>2026-05-02T13:33:08.788Z</time></trkpt><trkpt lat="43.0046067" lon="11.716865"><ele>313.0</ele><time>2026-05-02T13:33:09.788Z</time></trkpt><trkpt lat="43.004555" lon="11.7167033"><ele>313.0</ele><time>2026-05-02T13:33:10.788Z</time></trkpt><trkpt lat="43.0045017" lon="11.71654"><ele>312.25</ele><time>2026-05-02T13:33:11.789Z</time></trkpt><trkpt lat="43.0044517" lon="11.716375"><ele>311.5</ele><time>2026-05-02T13:33:12.788Z</time></trkpt><trkpt lat="43.0043983" lon="11.7162083"><ele>310.75</ele><time>2026-05-02T13:33:13.788Z</time></trkpt><trkpt lat="43.0043367" lon="11.7160367"><ele>310.0</ele><time>2026-05-02T13:33:14.789Z</time></trkpt><trkpt lat="43.0042683" lon="11.7158767"><ele>309.4</ele><time>2026-05-02T13:33:15.788Z</time></trkpt><trkpt lat="43.00419" lon="11.7157383"><ele>308.8</ele><time>2026-05-02T13:33:16.789Z</time></trkpt><trkpt lat="43.0041167" lon="11.7156167"><ele>308.2</ele><time>2026-05-02T13:33:17.786Z</time></trkpt><trkpt lat="43.0040617" lon="11.715495"><ele>307.6</ele><time>2026-05-02T13:33:18.788Z</time></trkpt><trkpt lat="43.004035" lon="11.71537"><ele>307.0</ele><time>2026-05-02T13:33:19.788Z</time></trkpt><trkpt lat="43.0040333" lon="11.7152383"><ele>308.0</ele><time>2026-05-02T13:33:20.788Z</time></trkpt><trkpt lat="43.00405" lon="11.7150967"><ele>309.0</ele><time>2026-05-02T13:33:21.788Z</time></trkpt><trkpt lat="43.0040767" lon="11.7149467"><ele>310.0</ele><time>2026-05-02T13:33:22.788Z</time></trkpt><trkpt lat="43.0041083" lon="11.7147917"><ele>311.0</ele><time>2026-05-02T13:33:23.788Z</time></trkpt><trkpt lat="43.0041483" lon="11.7146367"><ele>311.5</ele><time>2026-05-02T13:33:24.789Z</time></trkpt><trkpt lat="43.004195" lon="11.714485"><ele>312.0</ele><time>2026-05-02T13:33:25.788Z</time></trkpt><trkpt lat="43.0042467" lon="11.7143317"><ele>312.5</ele><time>2026-05-02T13:33:26.785Z</time></trkpt><trkpt lat="43.004295" lon="11.7141783"><ele>313.0</ele><time>2026-05-02T13:33:27.786Z</time></trkpt><trkpt lat="43.0043433" lon="11.7140217"><ele>313.75</ele><time>2026-05-02T13:33:28.786Z</time></trkpt><trkpt lat="43.0043933" lon="11.7138633"><ele>314.5</ele><time>2026-05-02T13:33:29.786Z</time></trkpt><trkpt lat="43.004445" lon="11.7137017"><ele>315.25</ele><time>2026-05-02T13:33:30.785Z</time></trkpt><trkpt lat="43.0044967" lon="11.7135333"><ele>316.0</ele><time>2026-05-02T13:33:31.786Z</time></trkpt><trkpt lat="43.00455" lon="11.71336"><ele>316.5</ele><time>2026-05-02T13:33:32.785Z</time></trkpt><trkpt lat="43.004605" lon="11.7131817"><ele>317.0</ele><time>2026-05-02T13:33:33.788Z</time></trkpt><trkpt lat="43.0046667" lon="11.713005"><ele>317.5</ele><time>2026-05-02T13:33:34.788Z</time></trkpt><trkpt lat="43.00473" lon="11.7128333"><ele>318.0</ele><time>2026-05-02T13:33:35.789Z</time></trkpt><trkpt lat="43.004785" lon="11.7126667"><ele>318.25</ele><time>2026-05-02T13:33:36.788Z</time></trkpt><trkpt lat="43.0048367" lon="11.7125"><ele>318.5</ele><time>2026-05-02T13:33:37.788Z</time></trkpt><trkpt lat="43.004885" lon="11.7123467"><ele>318.75</ele><time>2026-05-02T13:33:38.785Z</time></trkpt><trkpt lat="43.0049217" lon="11.7122033"><ele>319.0</ele><time>2026-05-02T13:33:39.79Z</time></trkpt><trkpt lat="43.0049517" lon="11.7120617"><ele>319.0</ele><time>2026-05-02T13:33:40.788Z</time></trkpt><trkpt lat="43.00496" lon="11.711925"><ele>319.0</ele><time>2026-05-02T13:33:41.789Z</time></trkpt><trkpt lat="43.0049583" lon="11.7117933"><ele>319.0</ele><time>2026-05-02T13:33:42.788Z</time></trkpt><trkpt lat="43.0049517" lon="11.711665"><ele>319.0</ele><time>2026-05-02T13:33:43.788Z</time></trkpt><trkpt lat="43.004945" lon="11.7115417"><ele>319.0</ele><time>2026-05-02T13:33:44.788Z</time></trkpt><trkpt lat="43.00494" lon="11.71143"><ele>319.3333333333333</ele><time>2026-05-02T13:33:45.789Z</time></trkpt><trkpt lat="43.00494" lon="11.7113233"><ele>319.66666666666663</ele><time>2026-05-02T13:33:46.788Z</time></trkpt><trkpt lat="43.0049483" lon="11.7112133"><ele>320.0</ele><time>2026-05-02T13:33:47.79Z</time></trkpt><trkpt lat="43.00497" lon="11.7111067"><ele>320.3333333333333</ele><time>2026-05-02T13:33:48.789Z</time></trkpt><trkpt lat="43.00501" lon="11.71099"><ele>320.6666666666667</ele><time>2026-05-02T13:33:49.788Z</time></trkpt><trkpt lat="43.0050533" lon="11.7108667"><ele>321.0</ele><time>2026-05-02T13:33:50.788Z</time></trkpt><trkpt lat="43.0050933" lon="11.7107367"><ele>323.4</ele><time>2026-05-02T13:33:51.788Z</time></trkpt><trkpt lat="43.0051133" lon="11.7106067"><ele>325.8</ele><time>2026-05-02T13:33:52.788Z</time></trkpt><trkpt lat="43.0051133" lon="11.7104783"><ele>328.2</ele><time>2026-05-02T13:33:53.788Z</time></trkpt><trkpt lat="43.0051033" lon="11.7103633"><ele>330.59999999999997</ele><time>2026-05-02T13:33:54.788Z</time></trkpt><trkpt lat="43.0050567" lon="11.71023"><ele>333.0</ele><time>2026-05-02T13:33:56.787Z</time></trkpt><trkpt lat="43.005005" lon="11.7101333"><ele>332.3333333333333</ele><time>2026-05-02T13:33:58.786Z</time></trkpt><trkpt lat="43.0049317" lon="11.7100383"><ele>331.6666666666667</ele><time>2026-05-02T13:34:00.785Z</time></trkpt><trkpt lat="43.0048783" lon="11.7099883"><ele>331.0</ele><time>2026-05-02T13:34:01.786Z</time></trkpt><trkpt lat="43.0048133" lon="11.7099333"><ele>330.33333333333337</ele><time>2026-05-02T13:34:02.785Z</time></trkpt><trkpt lat="43.0047283" lon="11.70987"><ele>329.6666666666667</ele><time>2026-05-02T13:34:03.79Z</time></trkpt><trkpt lat="43.004635" lon="11.7097983"><ele>329.0</ele><time>2026-05-02T13:34:04.789Z</time></trkpt><trkpt lat="43.0045383" lon="11.7097167"><ele>329.0</ele><time>2026-05-02T13:34:05.791Z</time></trkpt><trkpt lat="43.004435" lon="11.7096333"><ele>329.0</ele><time>2026-05-02T13:34:06.788Z</time></trkpt><trkpt lat="43.004325" lon="11.7095433"><ele>329.0</ele><time>2026-05-02T13:34:07.788Z</time></trkpt><trkpt lat="43.0042183" lon="11.70945"><ele>329.0</ele><time>2026-05-02T13:34:08.789Z</time></trkpt><trkpt lat="43.0041117" lon="11.7093617"><ele>328.25</ele><time>2026-05-02T13:34:09.789Z</time></trkpt><trkpt lat="43.0040067" lon="11.709275"><ele>327.5</ele><time>2026-05-02T13:34:10.788Z</time></trkpt><trkpt lat="43.0039017" lon="11.7091883"><ele>326.75</ele><time>2026-05-02T13:34:11.789Z</time></trkpt><trkpt lat="43.0038" lon="11.7091033"><ele>326.0</ele><time>2026-05-02T13:34:12.789Z</time></trkpt><trkpt lat="43.0037017" lon="11.709025"><ele>326.0</ele><time>2026-05-02T13:34:13.789Z</time></trkpt><trkpt lat="43.0036117" lon="11.7089317"><ele>326.0</ele><time>2026-05-02T13:34:14.788Z</time></trkpt><trkpt lat="43.003535" lon="11.7088133"><ele>326.0</ele><time>2026-05-02T13:34:15.788Z</time></trkpt><trkpt lat="43.003475" lon="11.7086683"><ele>326.0</ele><time>2026-05-02T13:34:16.788Z</time></trkpt><trkpt lat="43.00343" lon="11.708505"><ele>326.5</ele><time>2026-05-02T13:34:17.789Z</time></trkpt><trkpt lat="43.0034017" lon="11.708335"><ele>327.0</ele><time>2026-05-02T13:34:18.788Z</time></trkpt><trkpt lat="43.0033717" lon="11.7081617"><ele>327.5</ele><time>2026-05-02T13:34:19.788Z</time></trkpt><trkpt lat="43.0033467" lon="11.707985"><ele>328.0</ele><time>2026-05-02T13:34:20.788Z</time></trkpt><trkpt lat="43.003335" lon="11.707805"><ele>328.5</ele><time>2026-05-02T13:34:21.789Z</time></trkpt><trkpt lat="43.0033333" lon="11.70762"><ele>329.0</ele><time>2026-05-02T13:34:22.788Z</time></trkpt><trkpt lat="43.0033483" lon="11.707435"><ele>329.5</ele><time>2026-05-02T13:34:23.79Z</time></trkpt><trkpt lat="43.00337" lon="11.7072467"><ele>330.0</ele><time>2026-05-02T13:34:24.788Z</time></trkpt><trkpt lat="43.0033883" lon="11.707065"><ele>329.0</ele><time>2026-05-02T13:34:25.789Z</time></trkpt><trkpt lat="43.003405" lon="11.7068833"><ele>328.0</ele><time>2026-05-02T13:34:26.789Z</time></trkpt><trkpt lat="43.0034217" lon="11.7066967"><ele>327.0</ele><time>2026-05-02T13:34:27.789Z</time></trkpt><trkpt lat="43.00344" lon="11.7065083"><ele>326.0</ele><time>2026-05-02T13:34:28.785Z</time></trkpt><trkpt lat="43.0034567" lon="11.7063267"><ele>326.0</ele><time>2026-05-02T13:34:29.786Z</time></trkpt><trkpt lat="43.0034733" lon="11.70615"><ele>326.0</ele><time>2026-05-02T13:34:30.785Z</time></trkpt><trkpt lat="43.00349" lon="11.7059717"><ele>326.0</ele><time>2026-05-02T13:34:31.788Z</time></trkpt><trkpt lat="43.003505" lon="11.7057867"><ele>326.0</ele><time>2026-05-02T13:34:32.787Z</time></trkpt><trkpt lat="43.0035217" lon="11.7056"><ele>326.0</ele><time>2026-05-02T13:34:33.789Z</time></trkpt><trkpt lat="43.0035417" lon="11.7054083"><ele>326.0</ele><time>2026-05-02T13:34:34.789Z</time></trkpt><trkpt lat="43.00356" lon="11.7052133"><ele>326.0</ele><time>2026-05-02T13:34:35.789Z</time></trkpt><trkpt lat="43.0035783" lon="11.7050183"><ele>326.0</ele><time>2026-05-02T13:34:36.788Z</time></trkpt><trkpt lat="43.0035967" lon="11.7048233"><ele>325.5</ele><time>2026-05-02T13:34:37.788Z</time></trkpt><trkpt lat="43.0036133" lon="11.7046417"><ele>325.0</ele><time>2026-05-02T13:34:38.788Z</time></trkpt><trkpt lat="43.0036283" lon="11.704465"><ele>324.5</ele><time>2026-05-02T13:34:39.789Z</time></trkpt><trkpt lat="43.0036467" lon="11.7042917"><ele>324.0</ele><time>2026-05-02T13:34:40.789Z</time></trkpt><trkpt lat="43.003665" lon="11.7041117"><ele>323.75</ele><time>2026-05-02T13:34:41.789Z</time></trkpt><trkpt lat="43.0036817" lon="11.703925"><ele>323.5</ele><time>2026-05-02T13:34:42.788Z</time></trkpt><trkpt lat="43.0036983" lon="11.7037333"><ele>323.25</ele><time>2026-05-02T13:34:43.789Z</time></trkpt><trkpt lat="43.003715" lon="11.7035433"><ele>323.0</ele><time>2026-05-02T13:34:44.788Z</time></trkpt><trkpt lat="43.0037317" lon="11.7033533"><ele>322.5</ele><time>2026-05-02T13:34:45.788Z</time></trkpt><trkpt lat="43.0037483" lon="11.7031733"><ele>322.0</ele><time>2026-05-02T13:34:46.789Z</time></trkpt><trkpt lat="43.0037667" lon="11.7029967"><ele>321.5</ele><time>2026-05-02T13:34:47.789Z</time></trkpt><trkpt lat="43.0037867" lon="11.70282"><ele>321.0</ele><time>2026-05-02T13:34:48.789Z</time></trkpt><trkpt lat="43.0038117" lon="11.70265"><ele>320.25</ele><time>2026-05-02T13:34:49.788Z</time></trkpt><trkpt lat="43.0038583" lon="11.7025033"><ele>319.5</ele><time>2026-05-02T13:34:50.788Z</time></trkpt><trkpt lat="43.0039233" lon="11.70238"><ele>318.75</ele><time>2026-05-02T13:34:51.789Z</time></trkpt><trkpt lat="43.00401" lon="11.7022683"><ele>318.0</ele><time>2026-05-02T13:34:52.789Z</time></trkpt><trkpt lat="43.0041117" lon="11.7021567"><ele>317.5</ele><time>2026-05-02T13:34:53.79Z</time></trkpt><trkpt lat="43.00422" lon="11.7020417"><ele>317.0</ele><time>2026-05-02T13:34:54.789Z</time></trkpt><trkpt lat="43.0043333" lon="11.7019233"><ele>316.5</ele><time>2026-05-02T13:34:55.789Z</time></trkpt><trkpt lat="43.0044517" lon="11.7018067"><ele>316.0</ele><time>2026-05-02T13:34:56.786Z</time></trkpt><trkpt lat="43.0045717" lon="11.70169"><ele>316.0</ele><time>2026-05-02T13:34:57.786Z</time></trkpt><trkpt lat="43.004695" lon="11.70158"><ele>316.0</ele><time>2026-05-02T13:34:58.786Z</time></trkpt><trkpt lat="43.0048233" lon="11.70148"><ele>316.0</ele><time>2026-05-02T13:34:59.786Z</time></trkpt><trkpt lat="43.00495" lon="11.7013883"><ele>316.0</ele><time>2026-05-02T13:35:00.785Z</time></trkpt><trkpt lat="43.0050767" lon="11.7013033"><ele>315.75</ele><time>2026-05-02T13:35:01.786Z</time></trkpt><trkpt lat="43.005205" lon="11.7012233"><ele>315.5</ele><time>2026-05-02T13:35:02.786Z</time></trkpt><trkpt lat="43.0053367" lon="11.7011617"><ele>315.25</ele><time>2026-05-02T13:35:03.789Z</time></trkpt><trkpt lat="43.0054667" lon="11.70112"><ele>315.0</ele><time>2026-05-02T13:35:04.789Z</time></trkpt><trkpt lat="43.0055967" lon="11.701085"><ele>315.5</ele><time>2026-05-02T13:35:05.79Z</time></trkpt><trkpt lat="43.0057233" lon="11.7010517"><ele>316.0</ele><time>2026-05-02T13:35:06.785Z</time></trkpt><trkpt lat="43.0058433" lon="11.7010233"><ele>316.5</ele><time>2026-05-02T13:35:07.785Z</time></trkpt><trkpt lat="43.00595" lon="11.700995"><ele>317.0</ele><time>2026-05-02T13:35:08.789Z</time></trkpt><trkpt lat="43.0060483" lon="11.700945"><ele>317.5</ele><time>2026-05-02T13:35:09.79Z</time></trkpt><trkpt lat="43.00614" lon="11.7008733"><ele>318.0</ele><time>2026-05-02T13:35:10.789Z</time></trkpt><trkpt lat="43.0062333" lon="11.7007783"><ele>318.5</ele><time>2026-05-02T13:35:11.789Z</time></trkpt><trkpt lat="43.006325" lon="11.7006717"><ele>319.0</ele><time>2026-05-02T13:35:12.789Z</time></trkpt><trkpt lat="43.0064183" lon="11.7005567"><ele>319.0</ele><time>2026-05-02T13:35:13.789Z</time></trkpt><trkpt lat="43.0065183" lon="11.70044"><ele>319.0</ele><time>2026-05-02T13:35:14.789Z</time></trkpt><trkpt lat="43.0066217" lon="11.70032"><ele>319.0</ele><time>2026-05-02T13:35:15.789Z</time></trkpt><trkpt lat="43.006725" lon="11.700195"><ele>319.0</ele><time>2026-05-02T13:35:16.79Z</time></trkpt><trkpt lat="43.00683" lon="11.7000783"><ele>318.4</ele><time>2026-05-02T13:35:17.789Z</time></trkpt><trkpt lat="43.00693" lon="11.6999767"><ele>317.79999999999995</ele><time>2026-05-02T13:35:18.789Z</time></trkpt><trkpt lat="43.0070217" lon="11.6998817"><ele>317.20000000000005</ele><time>2026-05-02T13:35:19.789Z</time></trkpt><trkpt lat="43.0070967" lon="11.6997917"><ele>316.6</ele><time>2026-05-02T13:35:20.789Z</time></trkpt><trkpt lat="43.0071533" lon="11.6996917"><ele>316.0</ele><time>2026-05-02T13:35:21.79Z</time></trkpt><trkpt lat="43.0071883" lon="11.6995833"><ele>316.0</ele><time>2026-05-02T13:35:22.786Z</time></trkpt><trkpt lat="43.0072067" lon="11.699465"><ele>316.0</ele><time>2026-05-02T13:35:23.79Z</time></trkpt><trkpt lat="43.0071967" lon="11.6993517"><ele>316.0</ele><time>2026-05-02T13:35:24.79Z</time></trkpt><trkpt lat="43.00716" lon="11.6992383"><ele>316.0</ele><time>2026-05-02T13:35:25.789Z</time></trkpt><trkpt lat="43.007105" lon="11.6991133"><ele>316.0</ele><time>2026-05-02T13:35:26.786Z</time></trkpt><trkpt lat="43.007045" lon="11.6989833"><ele>315.0</ele><time>2026-05-02T13:35:27.786Z</time></trkpt><trkpt lat="43.0069917" lon="11.69885"><ele>314.0</ele><time>2026-05-02T13:35:28.786Z</time></trkpt><trkpt lat="43.0069333" lon="11.69871"><ele>313.0</ele><time>2026-05-02T13:35:29.786Z</time></trkpt><trkpt lat="43.0068733" lon="11.6985617"><ele>312.0</ele><time>2026-05-02T13:35:30.786Z</time></trkpt><trkpt lat="43.006815" lon="11.6984067"><ele>311.5</ele><time>2026-05-02T13:35:31.786Z</time></trkpt><trkpt lat="43.006755" lon="11.6982517"><ele>311.0</ele><time>2026-05-02T13:35:32.786Z</time></trkpt><trkpt lat="43.0066983" lon="11.6981"><ele>310.5</ele><time>2026-05-02T13:35:33.79Z</time></trkpt><trkpt lat="43.0066483" lon="11.697955"><ele>310.0</ele><time>2026-05-02T13:35:34.79Z</time></trkpt><trkpt lat="43.0066033" lon="11.6978083"><ele>309.5</ele><time>2026-05-02T13:35:35.791Z</time></trkpt><trkpt lat="43.0065567" lon="11.6976517"><ele>309.0</ele><time>2026-05-02T13:35:36.789Z</time></trkpt><trkpt lat="43.0065183" lon="11.6975"><ele>308.5</ele><time>2026-05-02T13:35:37.789Z</time></trkpt><trkpt lat="43.0064833" lon="11.6973433"><ele>308.0</ele><time>2026-05-02T13:35:38.79Z</time></trkpt><trkpt lat="43.0064567" lon="11.697195"><ele>308.0</ele><time>2026-05-02T13:35:39.789Z</time></trkpt><trkpt lat="43.006435" lon="11.6970567"><ele>308.0</ele><time>2026-05-02T13:35:40.789Z</time></trkpt><trkpt lat="43.0064133" lon="11.6969367"><ele>308.0</ele><time>2026-05-02T13:35:41.789Z</time></trkpt><trkpt lat="43.006395" lon="11.6968317"><ele>308.0</ele><time>2026-05-02T13:35:42.79Z</time></trkpt><trkpt lat="43.0063733" lon="11.6967417"><ele>308.0</ele><time>2026-05-02T13:35:43.789Z</time></trkpt><trkpt lat="43.00629" lon="11.696605"><ele>307.8</ele><time>2026-05-02T13:35:45.789Z</time></trkpt><trkpt lat="43.00621" lon="11.6965483"><ele>307.6</ele><time>2026-05-02T13:35:46.789Z</time></trkpt><trkpt lat="43.0061083" lon="11.6964967"><ele>307.4</ele><time>2026-05-02T13:35:47.788Z</time></trkpt><trkpt lat="43.0059917" lon="11.696445"><ele>307.2</ele><time>2026-05-02T13:35:48.789Z</time></trkpt><trkpt lat="43.0058733" lon="11.6963867"><ele>307.0</ele><time>2026-05-02T13:35:49.788Z</time></trkpt><trkpt lat="43.0057483" lon="11.69632"><ele>308.5</ele><time>2026-05-02T13:35:50.789Z</time></trkpt><trkpt lat="43.005625" lon="11.6962367"><ele>310.0</ele><time>2026-05-02T13:35:51.789Z</time></trkpt><trkpt lat="43.0055083" lon="11.696145"><ele>311.5</ele><time>2026-05-02T13:35:52.789Z</time></trkpt><trkpt lat="43.0053967" lon="11.696045"><ele>313.0</ele><time>2026-05-02T13:35:53.789Z</time></trkpt><trkpt lat="43.0052967" lon="11.6959517"><ele>313.2</ele><time>2026-05-02T13:35:54.788Z</time></trkpt><trkpt lat="43.0052067" lon="11.6958717"><ele>313.4</ele><time>2026-05-02T13:35:55.788Z</time></trkpt><trkpt lat="43.0051217" lon="11.6957983"><ele>313.59999999999997</ele><time>2026-05-02T13:35:56.788Z</time></trkpt><trkpt lat="43.0050517" lon="11.695735"><ele>313.8</ele><time>2026-05-02T13:35:57.788Z</time></trkpt><trkpt lat="43.0049817" lon="11.6956767"><ele>314.0</ele><time>2026-05-02T13:35:58.788Z</time></trkpt><trkpt lat="43.0049133" lon="11.6956267"><ele>315.0</ele><time>2026-05-02T13:35:59.788Z</time></trkpt><trkpt lat="43.004845" lon="11.695585"><ele>316.0</ele><time>2026-05-02T13:36:00.789Z</time></trkpt><trkpt lat="43.00478" lon="11.6955517"><ele>317.0</ele><time>2026-05-02T13:36:01.788Z</time></trkpt><trkpt lat="43.00466" lon="11.6955033"><ele>318.0</ele><time>2026-05-02T13:36:03.788Z</time></trkpt><trkpt lat="43.004585" lon="11.6954917"><ele>319.0</ele><time>2026-05-02T13:36:04.789Z</time></trkpt><trkpt lat="43.0044983" lon="11.6954933"><ele>320.0</ele><time>2026-05-02T13:36:05.789Z</time></trkpt><trkpt lat="43.0043917" lon="11.6955117"><ele>320.0</ele><time>2026-05-02T13:36:06.788Z</time></trkpt><trkpt lat="43.0042767" lon="11.6955417"><ele>320.0</ele><time>2026-05-02T13:36:07.788Z</time></trkpt><trkpt lat="43.0041667" lon="11.69558"><ele>320.0</ele><time>2026-05-02T13:36:08.788Z</time></trkpt><trkpt lat="43.0040667" lon="11.69562"><ele>320.0</ele><time>2026-05-02T13:36:09.788Z</time></trkpt><trkpt lat="43.00397" lon="11.695655"><ele>320.0</ele><time>2026-05-02T13:36:10.788Z</time></trkpt><trkpt lat="43.00387" lon="11.6956883"><ele>319.25</ele><time>2026-05-02T13:36:11.789Z</time></trkpt><trkpt lat="43.0037617" lon="11.6957183"><ele>318.5</ele><time>2026-05-02T13:36:12.79Z</time></trkpt><trkpt lat="43.0036433" lon="11.69574"><ele>317.75</ele><time>2026-05-02T13:36:13.788Z</time></trkpt><trkpt lat="43.0035233" lon="11.695755"><ele>317.0</ele><time>2026-05-02T13:36:14.788Z</time></trkpt><trkpt lat="43.0034083" lon="11.69576"><ele>315.25</ele><time>2026-05-02T13:36:15.788Z</time></trkpt><trkpt lat="43.00329" lon="11.6957583"><ele>313.5</ele><time>2026-05-02T13:36:16.788Z</time></trkpt><trkpt lat="43.0031717" lon="11.6957567"><ele>311.75</ele><time>2026-05-02T13:36:17.789Z</time></trkpt><trkpt lat="43.0030583" lon="11.6957467"><ele>310.0</ele><time>2026-05-02T13:36:18.788Z</time></trkpt><trkpt lat="43.002945" lon="11.6957233"><ele>310.0</ele><time>2026-05-02T13:36:19.788Z</time></trkpt><trkpt lat="43.0028367" lon="11.6956817"><ele>310.0</ele><time>2026-05-02T13:36:20.788Z</time></trkpt><trkpt lat="43.002735" lon="11.6956167"><ele>310.0</ele><time>2026-05-02T13:36:21.788Z</time></trkpt><trkpt lat="43.0026417" lon="11.6955367"><ele>310.0</ele><time>2026-05-02T13:36:22.788Z</time></trkpt><trkpt lat="43.0025533" lon="11.6954483"><ele>310.0</ele><time>2026-05-02T13:36:23.789Z</time></trkpt><trkpt lat="43.00246" lon="11.695355"><ele>308.75</ele><time>2026-05-02T13:36:24.788Z</time></trkpt><trkpt lat="43.0023633" lon="11.6952583"><ele>307.5</ele><time>2026-05-02T13:36:25.788Z</time></trkpt><trkpt lat="43.0022683" lon="11.69516"><ele>306.25</ele><time>2026-05-02T13:36:26.789Z</time></trkpt><trkpt lat="43.0021667" lon="11.6950667"><ele>305.0</ele><time>2026-05-02T13:36:27.788Z</time></trkpt><trkpt lat="43.0020583" lon="11.6949817"><ele>304.75</ele><time>2026-05-02T13:36:28.788Z</time></trkpt><trkpt lat="43.0019383" lon="11.694905"><ele>304.5</ele><time>2026-05-02T13:36:29.789Z</time></trkpt><trkpt lat="43.0018033" lon="11.6948483"><ele>304.25</ele><time>2026-05-02T13:36:30.788Z</time></trkpt><trkpt lat="43.0016567" lon="11.694805"><ele>304.0</ele><time>2026-05-02T13:36:31.788Z</time></trkpt><trkpt lat="43.0015033" lon="11.6947633"><ele>304.0</ele><time>2026-05-02T13:36:32.788Z</time></trkpt><trkpt lat="43.0013467" lon="11.69473"><ele>304.0</ele><time>2026-05-02T13:36:33.79Z</time></trkpt><trkpt lat="43.0011883" lon="11.6947133"><ele>304.0</ele><time>2026-05-02T13:36:34.788Z</time></trkpt><trkpt lat="43.001035" lon="11.6947083"><ele>304.0</ele><time>2026-05-02T13:36:35.789Z</time></trkpt><trkpt lat="43.0008917" lon="11.6947"><ele>304.0</ele><time>2026-05-02T13:36:36.789Z</time></trkpt><trkpt lat="43.0007533" lon="11.6946817"><ele>304.0</ele><time>2026-05-02T13:36:37.789Z</time></trkpt><trkpt lat="43.0006183" lon="11.6946517"><ele>304.0</ele><time>2026-05-02T13:36:38.788Z</time></trkpt><trkpt lat="43.0004783" lon="11.69461"><ele>304.75</ele><time>2026-05-02T13:36:39.788Z</time></trkpt><trkpt lat="43.0003367" lon="11.6945583"><ele>305.5</ele><time>2026-05-02T13:36:40.789Z</time></trkpt><trkpt lat="43.000195" lon="11.6945033"><ele>306.25</ele><time>2026-05-02T13:36:41.788Z</time></trkpt><trkpt lat="43.00005" lon="11.6944483"><ele>307.0</ele><time>2026-05-02T13:36:42.788Z</time></trkpt><trkpt lat="42.9999167" lon="11.6943933"><ele>308.25</ele><time>2026-05-02T13:36:43.789Z</time></trkpt><trkpt lat="42.9997917" lon="11.69433"><ele>309.5</ele><time>2026-05-02T13:36:44.788Z</time></trkpt><trkpt lat="42.9996783" lon="11.6942567"><ele>310.75</ele><time>2026-05-02T13:36:45.79Z</time></trkpt><trkpt lat="42.9995717" lon="11.6941617"><ele>312.0</ele><time>2026-05-02T13:36:46.789Z</time></trkpt><trkpt lat="42.9994783" lon="11.694045"><ele>312.0</ele><time>2026-05-02T13:36:47.789Z</time></trkpt><trkpt lat="42.9993867" lon="11.6939167"><ele>312.0</ele><time>2026-05-02T13:36:48.788Z</time></trkpt><trkpt lat="42.9992883" lon="11.6937867"><ele>312.0</ele><time>2026-05-02T13:36:49.789Z</time></trkpt><trkpt lat="42.999185" lon="11.6936683"><ele>312.0</ele><time>2026-05-02T13:36:50.788Z</time></trkpt><trkpt lat="42.9990767" lon="11.69356"><ele>312.75</ele><time>2026-05-02T13:36:51.788Z</time></trkpt><trkpt lat="42.998965" lon="11.693465"><ele>313.5</ele><time>2026-05-02T13:36:52.788Z</time></trkpt><trkpt lat="42.9988483" lon="11.6933833"><ele>314.25</ele><time>2026-05-02T13:36:53.789Z</time></trkpt><trkpt lat="42.998725" lon="11.6933183"><ele>315.0</ele><time>2026-05-02T13:36:54.79Z</time></trkpt><trkpt lat="42.9986" lon="11.693265"><ele>315.0</ele><time>2026-05-02T13:36:55.79Z</time></trkpt><trkpt lat="42.998475" lon="11.6932233"><ele>315.0</ele><time>2026-05-02T13:36:56.788Z</time></trkpt><trkpt lat="42.99835" lon="11.6931867"><ele>315.0</ele><time>2026-05-02T13:36:57.788Z</time></trkpt><trkpt lat="42.9982317" lon="11.6931517"><ele>315.0</ele><time>2026-05-02T13:36:58.789Z</time></trkpt><trkpt lat="42.9981167" lon="11.6931283"><ele>315.2</ele><time>2026-05-02T13:36:59.789Z</time></trkpt><trkpt lat="42.9980083" lon="11.6931267"><ele>315.4</ele><time>2026-05-02T13:37:00.788Z</time></trkpt><trkpt lat="42.997905" lon="11.6931533"><ele>315.6</ele><time>2026-05-02T13:37:01.788Z</time></trkpt><trkpt lat="42.9978117" lon="11.6932167"><ele>315.8</ele><time>2026-05-02T13:37:02.788Z</time></trkpt><trkpt lat="42.997725" lon="11.6933133"><ele>316.0</ele><time>2026-05-02T13:37:03.788Z</time></trkpt><trkpt lat="42.9976433" lon="11.69343"><ele>316.0</ele><time>2026-05-02T13:37:04.788Z</time></trkpt><trkpt lat="42.9975633" lon="11.69355"><ele>316.0</ele><time>2026-05-02T13:37:05.79Z</time></trkpt><trkpt lat="42.997485" lon="11.69367"><ele>316.0</ele><time>2026-05-02T13:37:06.789Z</time></trkpt><trkpt lat="42.9974017" lon="11.6937883"><ele>316.0</ele><time>2026-05-02T13:37:07.789Z</time></trkpt><trkpt lat="42.9973183" lon="11.6939"><ele>318.75</ele><time>2026-05-02T13:37:08.789Z</time></trkpt><trkpt lat="42.9972333" lon="11.6940083"><ele>321.5</ele><time>2026-05-02T13:37:09.789Z</time></trkpt><trkpt lat="42.997145" lon="11.6941067"><ele>324.25</ele><time>2026-05-02T13:37:10.788Z</time></trkpt><trkpt lat="42.997055" lon="11.694195"><ele>327.0</ele><time>2026-05-02T13:37:11.789Z</time></trkpt><trkpt lat="42.99696" lon="11.694275"><ele>327.0</ele><time>2026-05-02T13:37:12.788Z</time></trkpt><trkpt lat="42.9968667" lon="11.6943467"><ele>327.0</ele><time>2026-05-02T13:37:13.788Z</time></trkpt><trkpt lat="42.99678" lon="11.6944217"><ele>327.0</ele><time>2026-05-02T13:37:14.789Z</time></trkpt><trkpt lat="42.9967" lon="11.6944883"><ele>327.0</ele><time>2026-05-02T13:37:15.789Z</time></trkpt><trkpt lat="42.99662" lon="11.694545"><ele>327.0</ele><time>2026-05-02T13:37:16.788Z</time></trkpt><trkpt lat="42.9965417" lon="11.69459"><ele>327.3333333333333</ele><time>2026-05-02T13:37:17.789Z</time></trkpt><trkpt lat="42.9964633" lon="11.69462"><ele>327.6666666666667</ele><time>2026-05-02T13:37:18.788Z</time></trkpt><trkpt lat="42.9963933" lon="11.6946317"><ele>328.0</ele><time>2026-05-02T13:37:19.789Z</time></trkpt><trkpt lat="42.9963" lon="11.694585"><ele>328.33333333333337</ele><time>2026-05-02T13:37:21.788Z</time></trkpt><trkpt lat="42.9962417" lon="11.6945067"><ele>328.6666666666667</ele><time>2026-05-02T13:37:23.79Z</time></trkpt><trkpt lat="42.9961983" lon="11.69442"><ele>329.0</ele><time>2026-05-02T13:37:25.789Z</time></trkpt><trkpt lat="42.9961483" lon="11.69432"><ele>329.33333333333337</ele><time>2026-05-02T13:37:28.786Z</time></trkpt><trkpt lat="42.9961133" lon="11.694235"><ele>329.6666666666667</ele><time>2026-05-02T13:37:30.786Z</time></trkpt><trkpt lat="42.9960817" lon="11.6941383"><ele>330.0</ele><time>2026-05-02T13:37:33.786Z</time></trkpt><trkpt lat="42.9960367" lon="11.6940367"><ele>330.3333333333333</ele><time>2026-05-02T13:38:24.79Z</time></trkpt><trkpt lat="42.9959917" lon="11.6939483"><ele>330.66666666666663</ele><time>2026-05-02T13:38:26.789Z</time></trkpt><trkpt lat="42.9959333" lon="11.69389"><ele>331.0</ele><time>2026-05-02T13:38:28.034Z</time></trkpt><trkpt lat="42.9958517" lon="11.6938033"><ele>329.75</ele><time>2026-05-02T13:38:29.285Z</time></trkpt><trkpt lat="42.995725" lon="11.69372"><ele>328.5</ele><time>2026-05-02T13:38:30.785Z</time></trkpt><trkpt lat="42.995615" lon="11.69369"><ele>327.25</ele><time>2026-05-02T13:38:31.785Z</time></trkpt><trkpt lat="42.9954933" lon="11.6936517"><ele>326.0</ele><time>2026-05-02T13:38:32.786Z</time></trkpt><trkpt lat="42.9953667" lon="11.69359"><ele>325.75</ele><time>2026-05-02T13:38:33.785Z</time></trkpt><trkpt lat="42.995245" lon="11.693515"><ele>325.5</ele><time>2026-05-02T13:38:34.787Z</time></trkpt><trkpt lat="42.9951283" lon="11.6934317"><ele>325.25</ele><time>2026-05-02T13:38:35.787Z</time></trkpt><trkpt lat="42.9950167" lon="11.6933533"><ele>325.0</ele><time>2026-05-02T13:38:36.786Z</time></trkpt><trkpt lat="42.9949033" lon="11.69328"><ele>323.25</ele><time>2026-05-02T13:38:37.786Z</time></trkpt><trkpt lat="42.9947917" lon="11.69321"><ele>321.5</ele><time>2026-05-02T13:38:38.787Z</time></trkpt><trkpt lat="42.9946767" lon="11.6931417"><ele>319.75</ele><time>2026-05-02T13:38:39.786Z</time></trkpt><trkpt lat="42.9945667" lon="11.69307"><ele>318.0</ele><time>2026-05-02T13:38:40.786Z</time></trkpt><trkpt lat="42.9944633" lon="11.6929833"><ele>318.0</ele><time>2026-05-02T13:38:41.786Z</time></trkpt><trkpt lat="42.9943733" lon="11.69287"><ele>318.0</ele><time>2026-05-02T13:38:42.786Z</time></trkpt><trkpt lat="42.99429" lon="11.692725"><ele>318.0</ele><time>2026-05-02T13:38:43.786Z</time></trkpt><trkpt lat="42.994205" lon="11.692565"><ele>318.0</ele><time>2026-05-02T13:38:44.786Z</time></trkpt><trkpt lat="42.9941233" lon="11.6924017"><ele>316.25</ele><time>2026-05-02T13:38:45.786Z</time></trkpt><trkpt lat="42.9940483" lon="11.6922433"><ele>314.5</ele><time>2026-05-02T13:38:46.786Z</time></trkpt><trkpt lat="42.9939717" lon="11.6920933"><ele>312.75</ele><time>2026-05-02T13:38:47.787Z</time></trkpt><trkpt lat="42.9938933" lon="11.6919567"><ele>311.0</ele><time>2026-05-02T13:38:48.787Z</time></trkpt><trkpt lat="42.9938083" lon="11.6918433"><ele>310.75</ele><time>2026-05-02T13:38:49.786Z</time></trkpt><trkpt lat="42.9937117" lon="11.691755"><ele>310.5</ele><time>2026-05-02T13:38:50.786Z</time></trkpt><trkpt lat="42.9936033" lon="11.6916867"><ele>310.25</ele><time>2026-05-02T13:38:51.786Z</time></trkpt><trkpt lat="42.9934783" lon="11.69163"><ele>310.0</ele><time>2026-05-02T13:38:52.788Z</time></trkpt><trkpt lat="42.9933383" lon="11.6915733"><ele>310.0</ele><time>2026-05-02T13:38:53.786Z</time></trkpt><trkpt lat="42.9931883" lon="11.691515"><ele>310.0</ele><time>2026-05-02T13:38:54.786Z</time></trkpt><trkpt lat="42.993035" lon="11.6914567"><ele>310.0</ele><time>2026-05-02T13:38:55.785Z</time></trkpt><trkpt lat="42.9928833" lon="11.6913983"><ele>310.0</ele><time>2026-05-02T13:38:56.785Z</time></trkpt><trkpt lat="42.9927283" lon="11.6913417"><ele>310.0</ele><time>2026-05-02T13:38:57.785Z</time></trkpt><trkpt lat="42.992565" lon="11.691285"><ele>310.0</ele><time>2026-05-02T13:38:58.785Z</time></trkpt><trkpt lat="42.9923917" lon="11.691225"><ele>309.66666666666663</ele><time>2026-05-02T13:38:59.786Z</time></trkpt><trkpt lat="42.9922167" lon="11.6911633"><ele>309.3333333333333</ele><time>2026-05-02T13:39:00.785Z</time></trkpt><trkpt lat="42.9920383" lon="11.6910983"><ele>309.0</ele><time>2026-05-02T13:39:01.785Z</time></trkpt><trkpt lat="42.9918633" lon="11.6910333"><ele>309.0</ele><time>2026-05-02T13:39:02.786Z</time></trkpt><trkpt lat="42.9916883" lon="11.69097"><ele>309.0</ele><time>2026-05-02T13:39:03.786Z</time></trkpt><trkpt lat="42.9915217" lon="11.6909067"><ele>309.0</ele><time>2026-05-02T13:39:04.785Z</time></trkpt><trkpt lat="42.9913617" lon="11.6908433"><ele>309.3333333333333</ele><time>2026-05-02T13:39:05.785Z</time></trkpt><trkpt lat="42.9912033" lon="11.69078"><ele>309.66666666666663</ele><time>2026-05-02T13:39:06.787Z</time></trkpt><trkpt lat="42.9910433" lon="11.6907183"><ele>310.0</ele><time>2026-05-02T13:39:07.785Z</time></trkpt><trkpt lat="42.9908883" lon="11.69066"><ele>310.25</ele><time>2026-05-02T13:39:08.785Z</time></trkpt><trkpt lat="42.9907383" lon="11.690605"><ele>310.5</ele><time>2026-05-02T13:39:09.787Z</time></trkpt><trkpt lat="42.9905967" lon="11.6905517"><ele>310.75</ele><time>2026-05-02T13:39:10.786Z</time></trkpt><trkpt lat="42.9904633" lon="11.6905017"><ele>311.0</ele><time>2026-05-02T13:39:11.785Z</time></trkpt><trkpt lat="42.99034" lon="11.6904533"><ele>311.0</ele><time>2026-05-02T13:39:12.786Z</time></trkpt><trkpt lat="42.9902233" lon="11.69041"><ele>311.0</ele><time>2026-05-02T13:39:13.787Z</time></trkpt><trkpt lat="42.99011" lon="11.6903683"><ele>311.0</ele><time>2026-05-02T13:39:14.786Z</time></trkpt><trkpt lat="42.9900033" lon="11.690325"><ele>311.0</ele><time>2026-05-02T13:39:15.786Z</time></trkpt><trkpt lat="42.9899067" lon="11.6902833"><ele>310.83333333333337</ele><time>2026-05-02T13:39:16.787Z</time></trkpt><trkpt lat="42.98983" lon="11.690245"><ele>310.6666666666667</ele><time>2026-05-02T13:39:17.785Z</time></trkpt><trkpt lat="42.9897717" lon="11.6902067"><ele>310.5</ele><time>2026-05-02T13:39:18.787Z</time></trkpt><trkpt lat="42.9897167" lon="11.6901317"><ele>310.3333333333333</ele><time>2026-05-02T13:39:20.786Z</time></trkpt><trkpt lat="42.9897583" lon="11.6900433"><ele>310.16666666666663</ele><time>2026-05-02T13:39:22.785Z</time></trkpt><trkpt lat="42.9898183" lon="11.6899733"><ele>310.0</ele><time>2026-05-02T13:39:23.787Z</time></trkpt><trkpt lat="42.9899017" lon="11.6898717"><ele>310.0</ele><time>2026-05-02T13:39:24.785Z</time></trkpt><trkpt lat="42.989995" lon="11.6897417"><ele>310.0</ele><time>2026-05-02T13:39:25.787Z</time></trkpt><trkpt lat="42.9900983" lon="11.6896017"><ele>310.0</ele><time>2026-05-02T13:39:26.787Z</time></trkpt><trkpt lat="42.9902133" lon="11.6894467"><ele>310.0</ele><time>2026-05-02T13:39:27.785Z</time></trkpt><trkpt lat="42.9903333" lon="11.6892867"><ele>309.66666666666663</ele><time>2026-05-02T13:39:28.785Z</time></trkpt><trkpt lat="42.9904467" lon="11.6891233"><ele>309.3333333333333</ele><time>2026-05-02T13:39:29.789Z</time></trkpt><trkpt lat="42.99054" lon="11.688955"><ele>309.0</ele><time>2026-05-02T13:39:30.785Z</time></trkpt><trkpt lat="42.9906083" lon="11.6887667"><ele>308.3333333333333</ele><time>2026-05-02T13:39:31.785Z</time></trkpt><trkpt lat="42.9906567" lon="11.68856"><ele>307.66666666666663</ele><time>2026-05-02T13:39:32.786Z</time></trkpt><trkpt lat="42.9906817" lon="11.68834"><ele>307.0</ele><time>2026-05-02T13:39:33.785Z</time></trkpt><trkpt lat="42.9906933" lon="11.6881183"><ele>307.0</ele><time>2026-05-02T13:39:34.785Z</time></trkpt><trkpt lat="42.9907017" lon="11.6879"><ele>307.0</ele><time>2026-05-02T13:39:35.787Z</time></trkpt><trkpt lat="42.9907217" lon="11.6876967"><ele>307.0</ele><time>2026-05-02T13:39:36.785Z</time></trkpt><trkpt lat="42.990765" lon="11.6875133"><ele>307.25</ele><time>2026-05-02T13:39:37.785Z</time></trkpt><trkpt lat="42.9908367" lon="11.6873567"><ele>307.5</ele><time>2026-05-02T13:39:38.785Z</time></trkpt><trkpt lat="42.99094" lon="11.6872333"><ele>307.75</ele><time>2026-05-02T13:39:39.785Z</time></trkpt><trkpt lat="42.99107" lon="11.6871467"><ele>308.0</ele><time>2026-05-02T13:39:40.789Z</time></trkpt><trkpt lat="42.9912217" lon="11.6870967"><ele>307.6666666666667</ele><time>2026-05-02T13:39:41.789Z</time></trkpt><trkpt lat="42.99139" lon="11.6870617"><ele>307.3333333333333</ele><time>2026-05-02T13:39:42.788Z</time></trkpt><trkpt lat="42.99157" lon="11.6870233"><ele>307.0</ele><time>2026-05-02T13:39:43.788Z</time></trkpt><trkpt lat="42.9917583" lon="11.6869817"><ele>307.0</ele><time>2026-05-02T13:39:44.788Z</time></trkpt><trkpt lat="42.9919533" lon="11.6869367"><ele>307.0</ele><time>2026-05-02T13:39:45.789Z</time></trkpt><trkpt lat="42.9921467" lon="11.6868917"><ele>307.0</ele><time>2026-05-02T13:39:46.789Z</time></trkpt><trkpt lat="42.9923433" lon="11.6868483"><ele>307.3333333333333</ele><time>2026-05-02T13:39:47.789Z</time></trkpt><trkpt lat="42.9925417" lon="11.6868033"><ele>307.6666666666667</ele><time>2026-05-02T13:39:48.786Z</time></trkpt><trkpt lat="42.9927383" lon="11.686755"><ele>308.0</ele><time>2026-05-02T13:39:49.786Z</time></trkpt><trkpt lat="42.9929333" lon="11.6867083"><ele>308.0</ele><time>2026-05-02T13:39:50.788Z</time></trkpt><trkpt lat="42.99313" lon="11.6866567"><ele>308.0</ele><time>2026-05-02T13:39:51.788Z</time></trkpt><trkpt lat="42.9933267" lon="11.686585"><ele>308.0</ele><time>2026-05-02T13:39:52.788Z</time></trkpt><trkpt lat="42.9935267" lon="11.6864833"><ele>306.5</ele><time>2026-05-02T13:39:53.789Z</time></trkpt><trkpt lat="42.9937283" lon="11.6863533"><ele>305.0</ele><time>2026-05-02T13:39:54.788Z</time></trkpt><trkpt lat="42.993935" lon="11.6862033"><ele>304.5</ele><time>2026-05-02T13:39:55.788Z</time></trkpt><trkpt lat="42.99415" lon="11.6860417"><ele>304.0</ele><time>2026-05-02T13:39:56.785Z</time></trkpt><trkpt lat="42.9943733" lon="11.6858683"><ele>304.0</ele><time>2026-05-02T13:39:57.785Z</time></trkpt><trkpt lat="42.9946" lon="11.6856933"><ele>304.0</ele><time>2026-05-02T13:39:58.785Z</time></trkpt><trkpt lat="42.9948217" lon="11.685525"><ele>304.5</ele><time>2026-05-02T13:39:59.785Z</time></trkpt><trkpt lat="42.9950333" lon="11.685365"><ele>305.0</ele><time>2026-05-02T13:40:00.785Z</time></trkpt><trkpt lat="42.995235" lon="11.6852167"><ele>305.0</ele><time>2026-05-02T13:40:01.789Z</time></trkpt><trkpt lat="42.9954267" lon="11.685075"><ele>305.0</ele><time>2026-05-02T13:40:02.787Z</time></trkpt><trkpt lat="42.995605" lon="11.68494"><ele>305.0</ele><time>2026-05-02T13:40:03.789Z</time></trkpt><trkpt lat="42.9957717" lon="11.6848117"><ele>304.0</ele><time>2026-05-02T13:40:04.785Z</time></trkpt><trkpt lat="42.9959233" lon="11.6846883"><ele>303.0</ele><time>2026-05-02T13:40:05.789Z</time></trkpt><trkpt lat="42.996065" lon="11.6845717"><ele>302.0</ele><time>2026-05-02T13:40:06.79Z</time></trkpt><trkpt lat="42.99619" lon="11.6844533"><ele>303.25</ele><time>2026-05-02T13:40:07.787Z</time></trkpt><trkpt lat="42.996295" lon="11.6843383"><ele>304.5</ele><time>2026-05-02T13:40:08.786Z</time></trkpt><trkpt lat="42.9963817" lon="11.6842167"><ele>305.75</ele><time>2026-05-02T13:40:09.787Z</time></trkpt><trkpt lat="42.99645" lon="11.6840933"><ele>307.0</ele><time>2026-05-02T13:40:10.788Z</time></trkpt><trkpt lat="42.9965067" lon="11.6839717"><ele>307.0</ele><time>2026-05-02T13:40:11.786Z</time></trkpt><trkpt lat="42.9965583" lon="11.683855"><ele>307.0</ele><time>2026-05-02T13:40:12.787Z</time></trkpt><trkpt lat="42.9966183" lon="11.683755"><ele>307.0</ele><time>2026-05-02T13:40:13.787Z</time></trkpt><trkpt lat="42.9966933" lon="11.68367"><ele>307.0</ele><time>2026-05-02T13:40:14.786Z</time></trkpt><trkpt lat="42.9967817" lon="11.683605"><ele>307.0</ele><time>2026-05-02T13:40:15.786Z</time></trkpt><trkpt lat="42.9968733" lon="11.683565"><ele>307.6</ele><time>2026-05-02T13:40:16.786Z</time></trkpt><trkpt lat="42.9969717" lon="11.68354"><ele>308.2</ele><time>2026-05-02T13:40:17.786Z</time></trkpt><trkpt lat="42.9970733" lon="11.6835333"><ele>308.8</ele><time>2026-05-02T13:40:18.786Z</time></trkpt><trkpt lat="42.99718" lon="11.6835333"><ele>309.4</ele><time>2026-05-02T13:40:19.788Z</time></trkpt><trkpt lat="42.9972867" lon="11.6835417"><ele>310.0</ele><time>2026-05-02T13:40:20.786Z</time></trkpt><trkpt lat="42.99739" lon="11.6835533"><ele>310.0</ele><time>2026-05-02T13:40:21.786Z</time></trkpt><trkpt lat="42.997495" lon="11.6835683"><ele>310.0</ele><time>2026-05-02T13:40:22.786Z</time></trkpt><trkpt lat="42.997605" lon="11.6835767"><ele>310.0</ele><time>2026-05-02T13:40:23.787Z</time></trkpt><trkpt lat="42.9977167" lon="11.6835817"><ele>310.0</ele><time>2026-05-02T13:40:24.787Z</time></trkpt><trkpt lat="42.99782" lon="11.683595"><ele>310.0</ele><time>2026-05-02T13:40:25.789Z</time></trkpt><trkpt lat="42.9979183" lon="11.6836067"><ele>310.2</ele><time>2026-05-02T13:40:26.788Z</time></trkpt><trkpt lat="42.9980167" lon="11.6836167"><ele>310.4</ele><time>2026-05-02T13:40:27.789Z</time></trkpt><trkpt lat="42.9981167" lon="11.6836217"><ele>310.6</ele><time>2026-05-02T13:40:28.791Z</time></trkpt><trkpt lat="42.99822" lon="11.6836233"><ele>310.8</ele><time>2026-05-02T13:40:29.79Z</time></trkpt><trkpt lat="42.998325" lon="11.68363"><ele>311.0</ele><time>2026-05-02T13:40:30.79Z</time></trkpt><trkpt lat="42.9984333" lon="11.6836367"><ele>311.40000000000003</ele><time>2026-05-02T13:40:31.789Z</time></trkpt><trkpt lat="42.9985433" lon="11.6836383"><ele>311.8</ele><time>2026-05-02T13:40:32.789Z</time></trkpt><trkpt lat="42.998655" lon="11.6836417"><ele>312.20000000000005</ele><time>2026-05-02T13:40:33.789Z</time></trkpt><trkpt lat="42.99876" lon="11.6836433"><ele>312.6</ele><time>2026-05-02T13:40:34.789Z</time></trkpt><trkpt lat="42.99886" lon="11.6836417"><ele>313.0</ele><time>2026-05-02T13:40:35.789Z</time></trkpt><trkpt lat="42.99896" lon="11.683645"><ele>313.0</ele><time>2026-05-02T13:40:36.789Z</time></trkpt><trkpt lat="42.9990633" lon="11.6836467"><ele>313.0</ele><time>2026-05-02T13:40:37.791Z</time></trkpt><trkpt lat="42.9991683" lon="11.683645"><ele>313.0</ele><time>2026-05-02T13:40:38.789Z</time></trkpt><trkpt lat="42.9992717" lon="11.683645"><ele>313.0</ele><time>2026-05-02T13:40:39.79Z</time></trkpt><trkpt lat="42.9993617" lon="11.6836483"><ele>313.0</ele><time>2026-05-02T13:40:40.789Z</time></trkpt><trkpt lat="42.9994483" lon="11.6836483"><ele>313.4</ele><time>2026-05-02T13:40:41.789Z</time></trkpt><trkpt lat="42.9995283" lon="11.6836483"><ele>313.8</ele><time>2026-05-02T13:40:42.79Z</time></trkpt><trkpt lat="42.9996" lon="11.6836417"><ele>314.2</ele><time>2026-05-02T13:40:43.787Z</time></trkpt><trkpt lat="42.9997133" lon="11.6835983"><ele>314.6</ele><time>2026-05-02T13:40:45.787Z</time></trkpt><trkpt lat="42.9997517" lon="11.6834817"><ele>315.0</ele><time>2026-05-02T13:40:47.789Z</time></trkpt><trkpt lat="42.9997367" lon="11.6832967"><ele>316.2</ele><time>2026-05-02T13:40:49.789Z</time></trkpt><trkpt lat="42.9997183" lon="11.68317"><ele>317.4</ele><time>2026-05-02T13:40:50.878Z</time></trkpt><trkpt lat="42.9997033" lon="11.6830333"><ele>318.6</ele><time>2026-05-02T13:40:51.786Z</time></trkpt><trkpt lat="42.999685" lon="11.6828833"><ele>319.8</ele><time>2026-05-02T13:40:52.787Z</time></trkpt><trkpt lat="42.9996567" lon="11.6827167"><ele>321.0</ele><time>2026-05-02T13:40:53.786Z</time></trkpt><trkpt lat="42.9996233" lon="11.682545"><ele>321.25</ele><time>2026-05-02T13:40:54.787Z</time></trkpt><trkpt lat="42.9995983" lon="11.6823667"><ele>321.5</ele><time>2026-05-02T13:40:55.787Z</time></trkpt><trkpt lat="42.99957" lon="11.682185"><ele>321.75</ele><time>2026-05-02T13:40:56.786Z</time></trkpt><trkpt lat="42.9995383" lon="11.6820133"><ele>322.0</ele><time>2026-05-02T13:40:57.787Z</time></trkpt><trkpt lat="42.9994917" lon="11.6818533"><ele>322.25</ele><time>2026-05-02T13:40:58.787Z</time></trkpt><trkpt lat="42.9994333" lon="11.6817017"><ele>322.5</ele><time>2026-05-02T13:40:59.788Z</time></trkpt><trkpt lat="42.9993617" lon="11.68156"><ele>322.75</ele><time>2026-05-02T13:41:00.787Z</time></trkpt><trkpt lat="42.9992783" lon="11.6814317"><ele>323.0</ele><time>2026-05-02T13:41:01.787Z</time></trkpt><trkpt lat="42.99919" lon="11.6813083"><ele>325.25</ele><time>2026-05-02T13:41:02.788Z</time></trkpt><trkpt lat="42.9990983" lon="11.6811933"><ele>327.5</ele><time>2026-05-02T13:41:03.788Z</time></trkpt><trkpt lat="42.9990067" lon="11.6810783"><ele>329.75</ele><time>2026-05-02T13:41:04.79Z</time></trkpt><trkpt lat="42.9989217" lon="11.680965"><ele>332.0</ele><time>2026-05-02T13:41:05.789Z</time></trkpt><trkpt lat="42.998845" lon="11.6808433"><ele>332.5</ele><time>2026-05-02T13:41:06.789Z</time></trkpt><trkpt lat="42.998785" lon="11.6807117"><ele>333.0</ele><time>2026-05-02T13:41:07.789Z</time></trkpt><trkpt lat="42.998745" lon="11.68057"><ele>333.5</ele><time>2026-05-02T13:41:08.79Z</time></trkpt><trkpt lat="42.998725" lon="11.6804133"><ele>334.0</ele><time>2026-05-02T13:41:09.789Z</time></trkpt><trkpt lat="42.9987133" lon="11.680245"><ele>334.75</ele><time>2026-05-02T13:41:10.79Z</time></trkpt><trkpt lat="42.9986983" lon="11.6800667"><ele>335.5</ele><time>2026-05-02T13:41:11.789Z</time></trkpt><trkpt lat="42.9986867" lon="11.67988"><ele>336.25</ele><time>2026-05-02T13:41:12.79Z</time></trkpt><trkpt lat="42.9986717" lon="11.6796833"><ele>337.0</ele><time>2026-05-02T13:41:13.787Z</time></trkpt><trkpt lat="42.9986567" lon="11.6794733"><ele>338.66666666666663</ele><time>2026-05-02T13:41:14.787Z</time></trkpt><trkpt lat="42.9986417" lon="11.67926"><ele>340.3333333333333</ele><time>2026-05-02T13:41:15.788Z</time></trkpt><trkpt lat="42.9986267" lon="11.6790483"><ele>342.0</ele><time>2026-05-02T13:41:16.787Z</time></trkpt><trkpt lat="42.9986083" lon="11.6788417"><ele>342.0</ele><time>2026-05-02T13:41:17.788Z</time></trkpt><trkpt lat="42.998595" lon="11.6786433"><ele>342.0</ele><time>2026-05-02T13:41:18.786Z</time></trkpt><trkpt lat="42.998575" lon="11.6784583"><ele>342.0</ele><time>2026-05-02T13:41:19.786Z</time></trkpt><trkpt lat="42.9985433" lon="11.67829"><ele>342.0</ele><time>2026-05-02T13:41:20.789Z</time></trkpt><trkpt lat="42.9984983" lon="11.6781417"><ele>342.75</ele><time>2026-05-02T13:41:21.786Z</time></trkpt><trkpt lat="42.998435" lon="11.678005"><ele>343.5</ele><time>2026-05-02T13:41:22.787Z</time></trkpt><trkpt lat="42.9983483" lon="11.67787"><ele>344.25</ele><time>2026-05-02T13:41:23.787Z</time></trkpt><trkpt lat="42.9982567" lon="11.6777383"><ele>345.0</ele><time>2026-05-02T13:41:24.786Z</time></trkpt><trkpt lat="42.9981633" lon="11.6776083"><ele>348.0</ele><time>2026-05-02T13:41:25.786Z</time></trkpt><trkpt lat="42.998075" lon="11.6774933"><ele>351.0</ele><time>2026-05-02T13:41:26.788Z</time></trkpt><trkpt lat="42.997985" lon="11.6774083"><ele>354.0</ele><time>2026-05-02T13:41:27.787Z</time></trkpt><trkpt lat="42.9978933" lon="11.6773517"><ele>357.0</ele><time>2026-05-02T13:41:28.788Z</time></trkpt><trkpt lat="42.9977933" lon="11.6773217"><ele>360.0</ele><time>2026-05-02T13:41:29.788Z</time></trkpt><trkpt lat="42.9976833" lon="11.6773133"><ele>360.0</ele><time>2026-05-02T13:41:30.787Z</time></trkpt><trkpt lat="42.9975717" lon="11.677315"><ele>360.0</ele><time>2026-05-02T13:41:31.789Z</time></trkpt><trkpt lat="42.9974617" lon="11.6773133"><ele>360.0</ele><time>2026-05-02T13:41:32.789Z</time></trkpt><trkpt lat="42.9973533" lon="11.677295"><ele>360.0</ele><time>2026-05-02T13:41:33.789Z</time></trkpt><trkpt lat="42.9972533" lon="11.6772467"><ele>360.0</ele><time>2026-05-02T13:41:34.79Z</time></trkpt><trkpt lat="42.9971567" lon="11.6771717"><ele>362.25</ele><time>2026-05-02T13:41:35.789Z</time></trkpt><trkpt lat="42.9970617" lon="11.6770683"><ele>364.5</ele><time>2026-05-02T13:41:36.789Z</time></trkpt><trkpt lat="42.9969667" lon="11.676945"><ele>366.75</ele><time>2026-05-02T13:41:37.789Z</time></trkpt><trkpt lat="42.9968817" lon="11.6768083"><ele>369.0</ele><time>2026-05-02T13:41:38.79Z</time></trkpt><trkpt lat="42.9968083" lon="11.6766517"><ele>369.25</ele><time>2026-05-02T13:41:39.79Z</time></trkpt><trkpt lat="42.9967333" lon="11.6764783"><ele>369.5</ele><time>2026-05-02T13:41:40.788Z</time></trkpt><trkpt lat="42.9966633" lon="11.6762983"><ele>369.75</ele><time>2026-05-02T13:41:41.79Z</time></trkpt><trkpt lat="42.9965933" lon="11.6761167"><ele>370.0</ele><time>2026-05-02T13:41:42.789Z</time></trkpt><trkpt lat="42.9965217" lon="11.67593"><ele>373.0</ele><time>2026-05-02T13:41:43.786Z</time></trkpt><trkpt lat="42.9964517" lon="11.6757467"><ele>376.0</ele><time>2026-05-02T13:41:44.788Z</time></trkpt><trkpt lat="42.9963833" lon="11.6755717"><ele>379.0</ele><time>2026-05-02T13:41:45.786Z</time></trkpt><trkpt lat="42.99632" lon="11.6754133"><ele>382.0</ele><time>2026-05-02T13:41:46.786Z</time></trkpt><trkpt lat="42.996265" lon="11.6752733"><ele>381.66666666666663</ele><time>2026-05-02T13:41:47.787Z</time></trkpt><trkpt lat="42.9962183" lon="11.6751533"><ele>381.3333333333333</ele><time>2026-05-02T13:41:48.786Z</time></trkpt><trkpt lat="42.996175" lon="11.67505"><ele>381.0</ele><time>2026-05-02T13:41:49.786Z</time></trkpt><trkpt lat="42.9961383" lon="11.6749583"><ele>380.6666666666667</ele><time>2026-05-02T13:41:50.79Z</time></trkpt><trkpt lat="42.9961033" lon="11.674875"><ele>380.33333333333337</ele><time>2026-05-02T13:41:51.787Z</time></trkpt><trkpt lat="42.9960733" lon="11.6747983"><ele>380.0</ele><time>2026-05-02T13:41:52.786Z</time></trkpt><trkpt lat="42.9960183" lon="11.6746583"><ele>380.0</ele><time>2026-05-02T13:41:54.788Z</time></trkpt><trkpt lat="42.9959667" lon="11.6745317"><ele>380.0</ele><time>2026-05-02T13:41:56.787Z</time></trkpt><trkpt lat="42.995925" lon="11.67443"><ele>380.0</ele><time>2026-05-02T13:41:58.788Z</time></trkpt><trkpt lat="42.9958883" lon="11.6743517"><ele>380.0</ele><time>2026-05-02T13:42:00.788Z</time></trkpt><trkpt lat="42.9958417" lon="11.674265"><ele>380.0</ele><time>2026-05-02T13:42:03.788Z</time></trkpt><trkpt lat="42.9958133" lon="11.6741767"><ele>380.0</ele><time>2026-05-02T13:42:07.789Z</time></trkpt><trkpt lat="42.9957817" lon="11.67406"><ele>381.4</ele><time>2026-05-02T13:42:09.788Z</time></trkpt><trkpt lat="42.995735" lon="11.6739217"><ele>382.8</ele><time>2026-05-02T13:42:11.785Z</time></trkpt><trkpt lat="42.9956733" lon="11.6737617"><ele>384.20000000000005</ele><time>2026-05-02T13:42:13.785Z</time></trkpt><trkpt lat="42.9956417" lon="11.6736733"><ele>385.6</ele><time>2026-05-02T13:42:14.787Z</time></trkpt><trkpt lat="42.9956133" lon="11.6735883"><ele>387.0</ele><time>2026-05-02T13:42:15.785Z</time></trkpt><trkpt lat="42.9955617" lon="11.6734367"><ele>387.0</ele><time>2026-05-02T13:42:17.785Z</time></trkpt><trkpt lat="42.9955017" lon="11.67328"><ele>387.0</ele><time>2026-05-02T13:42:19.785Z</time></trkpt><trkpt lat="42.9954733" lon="11.6731867"><ele>387.0</ele><time>2026-05-02T13:42:20.786Z</time></trkpt><trkpt lat="42.995445" lon="11.6730833"><ele>387.0</ele><time>2026-05-02T13:42:21.785Z</time></trkpt><trkpt lat="42.9954183" lon="11.672975"><ele>387.0</ele><time>2026-05-02T13:42:22.785Z</time></trkpt><trkpt lat="42.995395" lon="11.672865"><ele>387.0</ele><time>2026-05-02T13:42:23.786Z</time></trkpt><trkpt lat="42.9953733" lon="11.67275"><ele>387.0</ele><time>2026-05-02T13:42:24.785Z</time></trkpt><trkpt lat="42.9953533" lon="11.6726283"><ele>387.0</ele><time>2026-05-02T13:42:25.785Z</time></trkpt><trkpt lat="42.995335" lon="11.6724983"><ele>387.0</ele><time>2026-05-02T13:42:26.786Z</time></trkpt><trkpt lat="42.9953167" lon="11.67236"><ele>387.0</ele><time>2026-05-02T13:42:27.786Z</time></trkpt><trkpt lat="42.9952967" lon="11.6722117"><ele>387.0</ele><time>2026-05-02T13:42:28.786Z</time></trkpt><trkpt lat="42.995275" lon="11.6720517"><ele>387.0</ele><time>2026-05-02T13:42:29.786Z</time></trkpt><trkpt lat="42.9952517" lon="11.671885"><ele>387.0</ele><time>2026-05-02T13:42:30.786Z</time></trkpt><trkpt lat="42.9952283" lon="11.6717133"><ele>387.0</ele><time>2026-05-02T13:42:31.788Z</time></trkpt><trkpt lat="42.995205" lon="11.6715383"><ele>387.0</ele><time>2026-05-02T13:42:32.788Z</time></trkpt><trkpt lat="42.99518" lon="11.6713617"><ele>387.0</ele><time>2026-05-02T13:42:33.788Z</time></trkpt><trkpt lat="42.9951483" lon="11.6711933"><ele>387.0</ele><time>2026-05-02T13:42:34.79Z</time></trkpt><trkpt lat="42.99511" lon="11.6710433"><ele>387.0</ele><time>2026-05-02T13:42:35.789Z</time></trkpt><trkpt lat="42.9950617" lon="11.6709183"><ele>388.75</ele><time>2026-05-02T13:42:36.789Z</time></trkpt><trkpt lat="42.9950017" lon="11.6708017"><ele>390.5</ele><time>2026-05-02T13:42:37.788Z</time></trkpt><trkpt lat="42.9949283" lon="11.67069"><ele>392.25</ele><time>2026-05-02T13:42:38.788Z</time></trkpt><trkpt lat="42.9948417" lon="11.67058"><ele>394.0</ele><time>2026-05-02T13:42:39.788Z</time></trkpt><trkpt lat="42.9947483" lon="11.6704667"><ele>394.0</ele><time>2026-05-02T13:42:40.785Z</time></trkpt><trkpt lat="42.9946483" lon="11.6703483"><ele>394.0</ele><time>2026-05-02T13:42:41.789Z</time></trkpt><trkpt lat="42.9945483" lon="11.670225"><ele>394.0</ele><time>2026-05-02T13:42:42.789Z</time></trkpt><trkpt lat="42.9944467" lon="11.6701033"><ele>394.0</ele><time>2026-05-02T13:42:43.788Z</time></trkpt><trkpt lat="42.9943483" lon="11.669985"><ele>393.5</ele><time>2026-05-02T13:42:44.788Z</time></trkpt><trkpt lat="42.9942533" lon="11.669865"><ele>393.0</ele><time>2026-05-02T13:42:45.788Z</time></trkpt><trkpt lat="42.9941633" lon="11.6697383"><ele>392.5</ele><time>2026-05-02T13:42:46.785Z</time></trkpt><trkpt lat="42.9940767" lon="11.6696083"><ele>392.0</ele><time>2026-05-02T13:42:47.787Z</time></trkpt><trkpt lat="42.993995" lon="11.6694783"><ele>392.0</ele><time>2026-05-02T13:42:48.789Z</time></trkpt><trkpt lat="42.9939067" lon="11.6693517"><ele>392.0</ele><time>2026-05-02T13:42:49.785Z</time></trkpt><trkpt lat="42.9938083" lon="11.6692333"><ele>392.0</ele><time>2026-05-02T13:42:50.785Z</time></trkpt><trkpt lat="42.9937" lon="11.669125"><ele>392.0</ele><time>2026-05-02T13:42:51.785Z</time></trkpt><trkpt lat="42.9935783" lon="11.6690317"><ele>392.0</ele><time>2026-05-02T13:42:52.785Z</time></trkpt><trkpt lat="42.99345" lon="11.668945"><ele>392.0</ele><time>2026-05-02T13:42:53.785Z</time></trkpt><trkpt lat="42.9933133" lon="11.6688667"><ele>392.0</ele><time>2026-05-02T13:42:54.787Z</time></trkpt><trkpt lat="42.9931733" lon="11.6687883"><ele>392.0</ele><time>2026-05-02T13:42:55.785Z</time></trkpt><trkpt lat="42.9930333" lon="11.66871"><ele>390.3333333333333</ele><time>2026-05-02T13:42:56.785Z</time></trkpt><trkpt lat="42.99289" lon="11.6686283"><ele>388.66666666666663</ele><time>2026-05-02T13:42:57.785Z</time></trkpt><trkpt lat="42.992745" lon="11.6685483"><ele>387.0</ele><time>2026-05-02T13:42:58.787Z</time></trkpt><trkpt lat="42.9925967" lon="11.6684667"><ele>388.0</ele><time>2026-05-02T13:42:59.786Z</time></trkpt><trkpt lat="42.99245" lon="11.668385"><ele>389.0</ele><time>2026-05-02T13:43:00.785Z</time></trkpt><trkpt lat="42.9923067" lon="11.668305"><ele>390.0</ele><time>2026-05-02T13:43:01.789Z</time></trkpt><trkpt lat="42.992165" lon="11.66822"><ele>390.0</ele><time>2026-05-02T13:43:02.789Z</time></trkpt><trkpt lat="42.992025" lon="11.6681383"><ele>390.0</ele><time>2026-05-02T13:43:03.789Z</time></trkpt><trkpt lat="42.9918817" lon="11.6680583"><ele>390.0</ele><time>2026-05-02T13:43:04.789Z</time></trkpt><trkpt lat="42.99174" lon="11.6679817"><ele>391.75</ele><time>2026-05-02T13:43:05.789Z</time></trkpt><trkpt lat="42.9916" lon="11.6679133"><ele>393.5</ele><time>2026-05-02T13:43:06.788Z</time></trkpt><trkpt lat="42.9914633" lon="11.6678567"><ele>395.25</ele><time>2026-05-02T13:43:07.788Z</time></trkpt><trkpt lat="42.9913317" lon="11.6678183"><ele>397.0</ele><time>2026-05-02T13:43:08.788Z</time></trkpt><trkpt lat="42.99121" lon="11.6677917"><ele>397.1666666666667</ele><time>2026-05-02T13:43:09.789Z</time></trkpt><trkpt lat="42.9911067" lon="11.66776"><ele>397.33333333333337</ele><time>2026-05-02T13:43:10.785Z</time></trkpt><trkpt lat="42.9910167" lon="11.6677183"><ele>397.5</ele><time>2026-05-02T13:43:11.787Z</time></trkpt><trkpt lat="42.9909383" lon="11.6676617"><ele>397.66666666666663</ele><time>2026-05-02T13:43:12.787Z</time></trkpt><trkpt lat="42.9908717" lon="11.6675933"><ele>397.8333333333333</ele><time>2026-05-02T13:43:13.786Z</time></trkpt><trkpt lat="42.99083" lon="11.66751"><ele>398.0</ele><time>2026-05-02T13:43:14.786Z</time></trkpt><trkpt lat="42.9908033" lon="11.6674017"><ele>400.2</ele><time>2026-05-02T13:43:15.785Z</time></trkpt><trkpt lat="42.990785" lon="11.6672683"><ele>402.4</ele><time>2026-05-02T13:43:16.787Z</time></trkpt><trkpt lat="42.9907667" lon="11.6671183"><ele>404.59999999999997</ele><time>2026-05-02T13:43:17.787Z</time></trkpt><trkpt lat="42.99074" lon="11.66697"><ele>406.79999999999995</ele><time>2026-05-02T13:43:18.787Z</time></trkpt><trkpt lat="42.9906983" lon="11.6668367"><ele>409.0</ele><time>2026-05-02T13:43:19.786Z</time></trkpt><trkpt lat="42.9906417" lon="11.6667217"><ele>410.0</ele><time>2026-05-02T13:43:20.785Z</time></trkpt><trkpt lat="42.9905667" lon="11.66662"><ele>411.0</ele><time>2026-05-02T13:43:21.786Z</time></trkpt><trkpt lat="42.9904783" lon="11.6665267"><ele>412.0</ele><time>2026-05-02T13:43:22.785Z</time></trkpt><trkpt lat="42.990385" lon="11.666435"><ele>413.0</ele><time>2026-05-02T13:43:23.787Z</time></trkpt><trkpt lat="42.9902983" lon="11.6663433"><ele>414.0</ele><time>2026-05-02T13:43:24.785Z</time></trkpt><trkpt lat="42.9902317" lon="11.6662467"><ele>414.0</ele><time>2026-05-02T13:43:25.789Z</time></trkpt><trkpt lat="42.9901917" lon="11.66614"><ele>414.0</ele><time>2026-05-02T13:43:26.786Z</time></trkpt><trkpt lat="42.9901717" lon="11.66603"><ele>414.0</ele><time>2026-05-02T13:43:27.789Z</time></trkpt><trkpt lat="42.9901717" lon="11.6658933"><ele>414.0</ele><time>2026-05-02T13:43:28.788Z</time></trkpt><trkpt lat="42.9901683" lon="11.6657367"><ele>414.0</ele><time>2026-05-02T13:43:29.789Z</time></trkpt><trkpt lat="42.9901567" lon="11.6655683"><ele>413.5</ele><time>2026-05-02T13:43:30.789Z</time></trkpt><trkpt lat="42.9901167" lon="11.6654033"><ele>413.0</ele><time>2026-05-02T13:43:31.789Z</time></trkpt><trkpt lat="42.9900567" lon="11.6652433"><ele>412.5</ele><time>2026-05-02T13:43:32.789Z</time></trkpt><trkpt lat="42.98999" lon="11.66509"><ele>412.0</ele><time>2026-05-02T13:43:33.79Z</time></trkpt><trkpt lat="42.9899167" lon="11.6649333"><ele>413.75</ele><time>2026-05-02T13:43:34.79Z</time></trkpt><trkpt lat="42.9898433" lon="11.6647733"><ele>415.5</ele><time>2026-05-02T13:43:35.79Z</time></trkpt><trkpt lat="42.98977" lon="11.6646083"><ele>417.25</ele><time>2026-05-02T13:43:36.789Z</time></trkpt><trkpt lat="42.9896983" lon="11.6644417"><ele>419.0</ele><time>2026-05-02T13:43:37.788Z</time></trkpt><trkpt lat="42.9896283" lon="11.6642683"><ele>419.0</ele><time>2026-05-02T13:43:38.789Z</time></trkpt><trkpt lat="42.9895667" lon="11.6640867"><ele>419.0</ele><time>2026-05-02T13:43:39.79Z</time></trkpt><trkpt lat="42.9895183" lon="11.663895"><ele>419.0</ele><time>2026-05-02T13:43:40.789Z</time></trkpt><trkpt lat="42.9894783" lon="11.663695"><ele>419.0</ele><time>2026-05-02T13:43:41.789Z</time></trkpt><trkpt lat="42.98945" lon="11.6634867"><ele>418.0</ele><time>2026-05-02T13:43:42.788Z</time></trkpt><trkpt lat="42.9894283" lon="11.6632717"><ele>417.0</ele><time>2026-05-02T13:43:43.785Z</time></trkpt><trkpt lat="42.98941" lon="11.6630533"><ele>416.0</ele><time>2026-05-02T13:43:44.788Z</time></trkpt><trkpt lat="42.98939" lon="11.6628333"><ele>416.3333333333333</ele><time>2026-05-02T13:43:45.787Z</time></trkpt><trkpt lat="42.9893667" lon="11.66261"><ele>416.66666666666663</ele><time>2026-05-02T13:43:46.786Z</time></trkpt><trkpt lat="42.98934" lon="11.66238"><ele>417.0</ele><time>2026-05-02T13:43:47.787Z</time></trkpt><trkpt lat="42.98931" lon="11.6621567"><ele>415.33333333333337</ele><time>2026-05-02T13:43:48.787Z</time></trkpt><trkpt lat="42.9892783" lon="11.6619333"><ele>413.6666666666667</ele><time>2026-05-02T13:43:49.789Z</time></trkpt><trkpt lat="42.9892467" lon="11.6617117"><ele>412.0</ele><time>2026-05-02T13:43:50.786Z</time></trkpt><trkpt lat="42.9892117" lon="11.66149"><ele>415.6666666666667</ele><time>2026-05-02T13:43:51.789Z</time></trkpt><trkpt lat="42.989175" lon="11.6612667"><ele>419.33333333333337</ele><time>2026-05-02T13:43:52.789Z</time></trkpt><trkpt lat="42.98914" lon="11.6610433"><ele>423.0</ele><time>2026-05-02T13:43:53.787Z</time></trkpt><trkpt lat="42.9890983" lon="11.6608233"><ele>423.33333333333337</ele><time>2026-05-02T13:43:54.786Z</time></trkpt><trkpt lat="42.989055" lon="11.6606083"><ele>423.6666666666667</ele><time>2026-05-02T13:43:55.786Z</time></trkpt><trkpt lat="42.9890083" lon="11.6604017"><ele>424.0</ele><time>2026-05-02T13:43:56.787Z</time></trkpt><trkpt lat="42.9889567" lon="11.6602067"><ele>425.25</ele><time>2026-05-02T13:43:57.787Z</time></trkpt><trkpt lat="42.9889" lon="11.6600233"><ele>426.5</ele><time>2026-05-02T13:43:58.788Z</time></trkpt><trkpt lat="42.9888383" lon="11.6598483"><ele>427.75</ele><time>2026-05-02T13:43:59.787Z</time></trkpt><trkpt lat="42.9887667" lon="11.659685"><ele>429.0</ele><time>2026-05-02T13:44:00.787Z</time></trkpt><trkpt lat="42.9886867" lon="11.6595283"><ele>429.25</ele><time>2026-05-02T13:44:01.787Z</time></trkpt><trkpt lat="42.9886033" lon="11.6593667"><ele>429.5</ele><time>2026-05-02T13:44:02.787Z</time></trkpt><trkpt lat="42.9885217" lon="11.6592017"><ele>429.75</ele><time>2026-05-02T13:44:03.789Z</time></trkpt><trkpt lat="42.9884417" lon="11.65903"><ele>430.0</ele><time>2026-05-02T13:44:04.788Z</time></trkpt><trkpt lat="42.988365" lon="11.65885"><ele>430.0</ele><time>2026-05-02T13:44:05.789Z</time></trkpt><trkpt lat="42.988295" lon="11.6586667"><ele>430.0</ele><time>2026-05-02T13:44:06.788Z</time></trkpt><trkpt lat="42.9882217" lon="11.658475"><ele>430.0</ele><time>2026-05-02T13:44:07.789Z</time></trkpt><trkpt lat="42.988145" lon="11.6582767"><ele>430.0</ele><time>2026-05-02T13:44:08.789Z</time></trkpt><trkpt lat="42.9880667" lon="11.65808"><ele>430.0</ele><time>2026-05-02T13:44:09.789Z</time></trkpt><trkpt lat="42.9879917" lon="11.6578867"><ele>430.0</ele><time>2026-05-02T13:44:10.789Z</time></trkpt><trkpt lat="42.987915" lon="11.65769"><ele>430.0</ele><time>2026-05-02T13:44:11.786Z</time></trkpt><trkpt lat="42.9878383" lon="11.6574917"><ele>430.0</ele><time>2026-05-02T13:44:12.785Z</time></trkpt><trkpt lat="42.987765" lon="11.6573033"><ele>430.0</ele><time>2026-05-02T13:44:13.786Z</time></trkpt><trkpt lat="42.9876967" lon="11.6571283"><ele>430.0</ele><time>2026-05-02T13:44:14.787Z</time></trkpt><trkpt lat="42.9876367" lon="11.65697"><ele>430.0</ele><time>2026-05-02T13:44:15.786Z</time></trkpt><trkpt lat="42.9875783" lon="11.6568233"><ele>430.0</ele><time>2026-05-02T13:44:16.792Z</time></trkpt><trkpt lat="42.9875283" lon="11.656685"><ele>430.0</ele><time>2026-05-02T13:44:17.787Z</time></trkpt><trkpt lat="42.9874883" lon="11.65655"><ele>430.0</ele><time>2026-05-02T13:44:18.785Z</time></trkpt><trkpt lat="42.9874633" lon="11.656405"><ele>430.0</ele><time>2026-05-02T13:44:19.786Z</time></trkpt><trkpt lat="42.9874467" lon="11.6562483"><ele>430.0</ele><time>2026-05-02T13:44:20.789Z</time></trkpt><trkpt lat="42.98744" lon="11.6560817"><ele>430.0</ele><time>2026-05-02T13:44:21.79Z</time></trkpt><trkpt lat="42.9874483" lon="11.6559067"><ele>430.0</ele><time>2026-05-02T13:44:22.789Z</time></trkpt><trkpt lat="42.9874633" lon="11.6557267"><ele>430.0</ele><time>2026-05-02T13:44:23.789Z</time></trkpt><trkpt lat="42.9874833" lon="11.6555467"><ele>430.0</ele><time>2026-05-02T13:44:24.789Z</time></trkpt><trkpt lat="42.9875117" lon="11.655365"><ele>430.0</ele><time>2026-05-02T13:44:25.787Z</time></trkpt><trkpt lat="42.987545" lon="11.6551833"><ele>429.75</ele><time>2026-05-02T13:44:26.786Z</time></trkpt><trkpt lat="42.9875867" lon="11.6550017"><ele>429.5</ele><time>2026-05-02T13:44:27.786Z</time></trkpt><trkpt lat="42.9876333" lon="11.6548183"><ele>429.25</ele><time>2026-05-02T13:44:28.786Z</time></trkpt><trkpt lat="42.987685" lon="11.654635"><ele>429.0</ele><time>2026-05-02T13:44:29.786Z</time></trkpt><trkpt lat="42.98774" lon="11.65445"><ele>429.0</ele><time>2026-05-02T13:44:30.786Z</time></trkpt><trkpt lat="42.987795" lon="11.6542667"><ele>429.0</ele><time>2026-05-02T13:44:31.786Z</time></trkpt><trkpt lat="42.9878517" lon="11.65408"><ele>429.0</ele><time>2026-05-02T13:44:32.787Z</time></trkpt><trkpt lat="42.9879083" lon="11.6538967"><ele>429.0</ele><time>2026-05-02T13:44:33.79Z</time></trkpt><trkpt lat="42.98796" lon="11.6537133"><ele>429.0</ele><time>2026-05-02T13:44:34.79Z</time></trkpt><trkpt lat="42.9880117" lon="11.6535333"><ele>429.0</ele><time>2026-05-02T13:44:35.79Z</time></trkpt><trkpt lat="42.9880617" lon="11.653355"><ele>429.0</ele><time>2026-05-02T13:44:36.79Z</time></trkpt><trkpt lat="42.98811" lon="11.6531733"><ele>429.0</ele><time>2026-05-02T13:44:37.788Z</time></trkpt><trkpt lat="42.9881617" lon="11.6529917"><ele>429.0</ele><time>2026-05-02T13:44:38.789Z</time></trkpt><trkpt lat="42.9882133" lon="11.6528067"><ele>429.0</ele><time>2026-05-02T13:44:39.789Z</time></trkpt><trkpt lat="42.988265" lon="11.652625"><ele>429.0</ele><time>2026-05-02T13:44:40.79Z</time></trkpt><trkpt lat="42.988315" lon="11.652445"><ele>429.0</ele><time>2026-05-02T13:44:41.79Z</time></trkpt><trkpt lat="42.9883633" lon="11.6522683"><ele>429.0</ele><time>2026-05-02T13:44:42.785Z</time></trkpt><trkpt lat="42.9884117" lon="11.652095"><ele>429.0</ele><time>2026-05-02T13:44:43.787Z</time></trkpt><trkpt lat="42.9884617" lon="11.6519233"><ele>429.0</ele><time>2026-05-02T13:44:44.789Z</time></trkpt><trkpt lat="42.98851" lon="11.6517533"><ele>429.0</ele><time>2026-05-02T13:44:45.789Z</time></trkpt><trkpt lat="42.98856" lon="11.6515867"><ele>429.0</ele><time>2026-05-02T13:44:46.789Z</time></trkpt><trkpt lat="42.9886167" lon="11.651425"><ele>429.0</ele><time>2026-05-02T13:44:47.789Z</time></trkpt><trkpt lat="42.98868" lon="11.65126"><ele>429.0</ele><time>2026-05-02T13:44:48.789Z</time></trkpt><trkpt lat="42.98874" lon="11.6510817"><ele>429.0</ele><time>2026-05-02T13:44:49.787Z</time></trkpt><trkpt lat="42.9887917" lon="11.6508917"><ele>428.33333333333337</ele><time>2026-05-02T13:44:50.789Z</time></trkpt><trkpt lat="42.9888267" lon="11.6506933"><ele>427.6666666666667</ele><time>2026-05-02T13:44:51.789Z</time></trkpt><trkpt lat="42.9888467" lon="11.6504867"><ele>427.0</ele><time>2026-05-02T13:44:52.787Z</time></trkpt><trkpt lat="42.9888583" lon="11.6502817"><ele>426.6666666666667</ele><time>2026-05-02T13:44:53.789Z</time></trkpt><trkpt lat="42.98886" lon="11.6500767"><ele>426.33333333333337</ele><time>2026-05-02T13:44:54.79Z</time></trkpt><trkpt lat="42.9888617" lon="11.6498667"><ele>426.0</ele><time>2026-05-02T13:44:55.787Z</time></trkpt><trkpt lat="42.988865" lon="11.6496633"><ele>426.0</ele><time>2026-05-02T13:44:56.786Z</time></trkpt><trkpt lat="42.988865" lon="11.6494633"><ele>426.0</ele><time>2026-05-02T13:44:57.787Z</time></trkpt><trkpt lat="42.9888667" lon="11.6492633"><ele>426.0</ele><time>2026-05-02T13:44:58.786Z</time></trkpt><trkpt lat="42.9888683" lon="11.6490617"><ele>426.0</ele><time>2026-05-02T13:44:59.786Z</time></trkpt><trkpt lat="42.9888733" lon="11.6488633"><ele>426.25</ele><time>2026-05-02T13:45:00.786Z</time></trkpt><trkpt lat="42.9888717" lon="11.6486633"><ele>426.5</ele><time>2026-05-02T13:45:01.787Z</time></trkpt><trkpt lat="42.98886" lon="11.6484583"><ele>426.75</ele><time>2026-05-02T13:45:02.786Z</time></trkpt><trkpt lat="42.9888317" lon="11.648255"><ele>427.0</ele><time>2026-05-02T13:45:03.789Z</time></trkpt><trkpt lat="42.98879" lon="11.648055"><ele>427.0</ele><time>2026-05-02T13:45:04.789Z</time></trkpt><trkpt lat="42.988735" lon="11.6478533"><ele>427.0</ele><time>2026-05-02T13:45:05.791Z</time></trkpt><trkpt lat="42.9886767" lon="11.64765"><ele>427.0</ele><time>2026-05-02T13:45:06.789Z</time></trkpt><trkpt lat="42.9886167" lon="11.6474583"><ele>427.25</ele><time>2026-05-02T13:45:07.789Z</time></trkpt><trkpt lat="42.98856" lon="11.6472767"><ele>427.5</ele><time>2026-05-02T13:45:08.788Z</time></trkpt><trkpt lat="42.9885067" lon="11.6471017"><ele>427.75</ele><time>2026-05-02T13:45:09.789Z</time></trkpt><trkpt lat="42.988445" lon="11.646935"><ele>428.0</ele><time>2026-05-02T13:45:10.785Z</time></trkpt><trkpt lat="42.988375" lon="11.64677"><ele>430.0</ele><time>2026-05-02T13:45:11.786Z</time></trkpt><trkpt lat="42.9883017" lon="11.646615"><ele>432.0</ele><time>2026-05-02T13:45:12.785Z</time></trkpt><trkpt lat="42.9882333" lon="11.6464667"><ele>434.0</ele><time>2026-05-02T13:45:13.785Z</time></trkpt><trkpt lat="42.9881783" lon="11.6463167"><ele>436.0</ele><time>2026-05-02T13:45:14.788Z</time></trkpt><trkpt lat="42.9881383" lon="11.6461583"><ele>436.5</ele><time>2026-05-02T13:45:15.784Z</time></trkpt><trkpt lat="42.988115" lon="11.64599"><ele>437.0</ele><time>2026-05-02T13:45:16.785Z</time></trkpt><trkpt lat="42.9880967" lon="11.6458183"><ele>437.5</ele><time>2026-05-02T13:45:17.785Z</time></trkpt><trkpt lat="42.98807" lon="11.645645"><ele>438.0</ele><time>2026-05-02T13:45:18.785Z</time></trkpt><trkpt lat="42.98803" lon="11.6454817"><ele>438.0</ele><time>2026-05-02T13:45:19.785Z</time></trkpt><trkpt lat="42.98798" lon="11.6453333"><ele>438.0</ele><time>2026-05-02T13:45:20.785Z</time></trkpt><trkpt lat="42.9879183" lon="11.645195"><ele>438.0</ele><time>2026-05-02T13:45:21.786Z</time></trkpt><trkpt lat="42.987845" lon="11.6450633"><ele>438.0</ele><time>2026-05-02T13:45:22.785Z</time></trkpt><trkpt lat="42.9877583" lon="11.64493"><ele>436.75</ele><time>2026-05-02T13:45:23.785Z</time></trkpt><trkpt lat="42.987665" lon="11.6447967"><ele>435.5</ele><time>2026-05-02T13:45:24.785Z</time></trkpt><trkpt lat="42.9875733" lon="11.6446667"><ele>434.25</ele><time>2026-05-02T13:45:25.786Z</time></trkpt><trkpt lat="42.9874767" lon="11.6445317"><ele>433.0</ele><time>2026-05-02T13:45:26.786Z</time></trkpt><trkpt lat="42.987375" lon="11.6443883"><ele>432.0</ele><time>2026-05-02T13:45:27.785Z</time></trkpt><trkpt lat="42.9872683" lon="11.6442367"><ele>431.0</ele><time>2026-05-02T13:45:28.786Z</time></trkpt><trkpt lat="42.9871667" lon="11.6440817"><ele>430.0</ele><time>2026-05-02T13:45:29.786Z</time></trkpt><trkpt lat="42.987075" lon="11.6439283"><ele>430.0</ele><time>2026-05-02T13:45:30.785Z</time></trkpt><trkpt lat="42.986985" lon="11.64378"><ele>430.0</ele><time>2026-05-02T13:45:31.785Z</time></trkpt><trkpt lat="42.986895" lon="11.6436333"><ele>430.0</ele><time>2026-05-02T13:45:32.785Z</time></trkpt><trkpt lat="42.9868017" lon="11.6434867"><ele>430.0</ele><time>2026-05-02T13:45:33.788Z</time></trkpt><trkpt lat="42.9867133" lon="11.6433433"><ele>428.25</ele><time>2026-05-02T13:45:34.788Z</time></trkpt><trkpt lat="42.9866233" lon="11.6431983"><ele>426.5</ele><time>2026-05-02T13:45:35.789Z</time></trkpt><trkpt lat="42.9865333" lon="11.6430533"><ele>424.75</ele><time>2026-05-02T13:45:36.788Z</time></trkpt><trkpt lat="42.98644" lon="11.6429067"><ele>423.0</ele><time>2026-05-02T13:45:37.788Z</time></trkpt><trkpt lat="42.9863417" lon="11.6427767"><ele>422.25</ele><time>2026-05-02T13:45:38.788Z</time></trkpt><trkpt lat="42.986235" lon="11.6426683"><ele>421.5</ele><time>2026-05-02T13:45:39.788Z</time></trkpt><trkpt lat="42.9861233" lon="11.642575"><ele>420.75</ele><time>2026-05-02T13:45:40.786Z</time></trkpt><trkpt lat="42.9860067" lon="11.6424817"><ele>420.0</ele><time>2026-05-02T13:45:41.785Z</time></trkpt><trkpt lat="42.9858883" lon="11.6423817"><ele>419.75</ele><time>2026-05-02T13:45:42.788Z</time></trkpt><trkpt lat="42.9857717" lon="11.6422617"><ele>419.5</ele><time>2026-05-02T13:45:43.785Z</time></trkpt><trkpt lat="42.98567" lon="11.642125"><ele>419.25</ele><time>2026-05-02T13:45:44.788Z</time></trkpt><trkpt lat="42.98557" lon="11.6419783"><ele>419.0</ele><time>2026-05-02T13:45:45.789Z</time></trkpt><trkpt lat="42.98548" lon="11.6418333"><ele>418.25</ele><time>2026-05-02T13:45:46.785Z</time></trkpt><trkpt lat="42.98539" lon="11.6416933"><ele>417.5</ele><time>2026-05-02T13:45:47.786Z</time></trkpt><trkpt lat="42.9853033" lon="11.6415617"><ele>416.75</ele><time>2026-05-02T13:45:48.785Z</time></trkpt><trkpt lat="42.9852167" lon="11.6414383"><ele>416.0</ele><time>2026-05-02T13:45:49.785Z</time></trkpt><trkpt lat="42.9851333" lon="11.64132"><ele>416.0</ele><time>2026-05-02T13:45:50.786Z</time></trkpt><trkpt lat="42.9850483" lon="11.6411983"><ele>416.0</ele><time>2026-05-02T13:45:51.789Z</time></trkpt><trkpt lat="42.9849633" lon="11.641065"><ele>416.0</ele><time>2026-05-02T13:45:52.788Z</time></trkpt><trkpt lat="42.9848767" lon="11.640925"><ele>416.0</ele><time>2026-05-02T13:45:53.789Z</time></trkpt><trkpt lat="42.9847883" lon="11.64078"><ele>416.0</ele><time>2026-05-02T13:45:54.786Z</time></trkpt><trkpt lat="42.9847" lon="11.640635"><ele>416.0</ele><time>2026-05-02T13:45:55.785Z</time></trkpt><trkpt lat="42.98461" lon="11.640495"><ele>416.0</ele><time>2026-05-02T13:45:56.786Z</time></trkpt><trkpt lat="42.9845117" lon="11.6403617"><ele>416.0</ele><time>2026-05-02T13:45:57.786Z</time></trkpt><trkpt lat="42.9844033" lon="11.6402317"><ele>415.75</ele><time>2026-05-02T13:45:58.786Z</time></trkpt><trkpt lat="42.9842967" lon="11.6401017"><ele>415.5</ele><time>2026-05-02T13:45:59.788Z</time></trkpt><trkpt lat="42.9841933" lon="11.6399617"><ele>415.25</ele><time>2026-05-02T13:46:00.786Z</time></trkpt><trkpt lat="42.9840967" lon="11.639825"><ele>415.0</ele><time>2026-05-02T13:46:01.786Z</time></trkpt><trkpt lat="42.98401" lon="11.6397017"><ele>414.83333333333337</ele><time>2026-05-02T13:46:02.787Z</time></trkpt><trkpt lat="42.9839317" lon="11.6395983"><ele>414.6666666666667</ele><time>2026-05-02T13:46:03.789Z</time></trkpt><trkpt lat="42.983865" lon="11.6395183"><ele>414.5</ele><time>2026-05-02T13:46:04.789Z</time></trkpt><trkpt lat="42.9837967" lon="11.63945"><ele>414.33333333333337</ele><time>2026-05-02T13:46:05.79Z</time></trkpt><trkpt lat="42.9837283" lon="11.639395"><ele>414.1666666666667</ele><time>2026-05-02T13:46:06.789Z</time></trkpt><trkpt lat="42.98365" lon="11.6393467"><ele>414.0</ele><time>2026-05-02T13:46:07.789Z</time></trkpt><trkpt lat="42.98356" lon="11.6393133"><ele>414.0</ele><time>2026-05-02T13:46:08.788Z</time></trkpt><trkpt lat="42.98346" lon="11.6392933"><ele>414.0</ele><time>2026-05-02T13:46:09.786Z</time></trkpt><trkpt lat="42.98335" lon="11.639285"><ele>414.0</ele><time>2026-05-02T13:46:10.786Z</time></trkpt><trkpt lat="42.9832383" lon="11.639285"><ele>414.0</ele><time>2026-05-02T13:46:11.786Z</time></trkpt><trkpt lat="42.9831283" lon="11.6393017"><ele>414.0</ele><time>2026-05-02T13:46:12.786Z</time></trkpt><trkpt lat="42.9830167" lon="11.6393467"><ele>415.25</ele><time>2026-05-02T13:46:13.786Z</time></trkpt><trkpt lat="42.9829133" lon="11.6394183"><ele>416.5</ele><time>2026-05-02T13:46:14.786Z</time></trkpt><trkpt lat="42.9828117" lon="11.63951"><ele>417.75</ele><time>2026-05-02T13:46:15.787Z</time></trkpt><trkpt lat="42.9827133" lon="11.6396133"><ele>419.0</ele><time>2026-05-02T13:46:16.787Z</time></trkpt><trkpt lat="42.9826117" lon="11.63972"><ele>420.0</ele><time>2026-05-02T13:46:17.788Z</time></trkpt><trkpt lat="42.9825133" lon="11.639825"><ele>421.0</ele><time>2026-05-02T13:46:18.786Z</time></trkpt><trkpt lat="42.9824167" lon="11.6399333"><ele>422.0</ele><time>2026-05-02T13:46:19.787Z</time></trkpt><trkpt lat="42.9823267" lon="11.6400367"><ele>423.0</ele><time>2026-05-02T13:46:20.788Z</time></trkpt><trkpt lat="42.9822417" lon="11.6401233"><ele>423.0</ele><time>2026-05-02T13:46:21.786Z</time></trkpt><trkpt lat="42.982165" lon="11.6401933"><ele>423.0</ele><time>2026-05-02T13:46:22.787Z</time></trkpt><trkpt lat="42.9820983" lon="11.640245"><ele>423.0</ele><time>2026-05-02T13:46:23.787Z</time></trkpt><trkpt lat="42.9820333" lon="11.64028"><ele>423.0</ele><time>2026-05-02T13:46:24.787Z</time></trkpt><trkpt lat="42.9819617" lon="11.6402967"><ele>423.0</ele><time>2026-05-02T13:46:25.786Z</time></trkpt><trkpt lat="42.9818867" lon="11.64029"><ele>423.0</ele><time>2026-05-02T13:46:26.788Z</time></trkpt><trkpt lat="42.9818017" lon="11.6402483"><ele>423.0</ele><time>2026-05-02T13:46:27.786Z</time></trkpt><trkpt lat="42.9817133" lon="11.6401633"><ele>423.0</ele><time>2026-05-02T13:46:28.787Z</time></trkpt><trkpt lat="42.98162" lon="11.640045"><ele>423.0</ele><time>2026-05-02T13:46:29.786Z</time></trkpt><trkpt lat="42.98152" lon="11.639925"><ele>423.0</ele><time>2026-05-02T13:46:30.786Z</time></trkpt><trkpt lat="42.9814133" lon="11.6397967"><ele>422.75</ele><time>2026-05-02T13:46:31.786Z</time></trkpt><trkpt lat="42.9813083" lon="11.63967"><ele>422.5</ele><time>2026-05-02T13:46:32.786Z</time></trkpt><trkpt lat="42.981205" lon="11.6395383"><ele>422.25</ele><time>2026-05-02T13:46:33.789Z</time></trkpt><trkpt lat="42.9811067" lon="11.6394167"><ele>422.0</ele><time>2026-05-02T13:46:34.788Z</time></trkpt><trkpt lat="42.9810133" lon="11.63931"><ele>422.40000000000003</ele><time>2026-05-02T13:46:35.789Z</time></trkpt><trkpt lat="42.9809267" lon="11.6392067"><ele>422.8</ele><time>2026-05-02T13:46:36.789Z</time></trkpt><trkpt lat="42.9808467" lon="11.6391167"><ele>423.2</ele><time>2026-05-02T13:46:37.79Z</time></trkpt><trkpt lat="42.9807617" lon="11.6390433"><ele>423.6</ele><time>2026-05-02T13:46:38.788Z</time></trkpt><trkpt lat="42.9806767" lon="11.6389917"><ele>424.0</ele><time>2026-05-02T13:46:39.787Z</time></trkpt><trkpt lat="42.98059" lon="11.6389717"><ele>424.00000000000006</ele><time>2026-05-02T13:46:40.785Z</time></trkpt><trkpt lat="42.980505" lon="11.6389817"><ele>424.0</ele><time>2026-05-02T13:46:41.785Z</time></trkpt><trkpt lat="42.980425" lon="11.6390167"><ele>424.0</ele><time>2026-05-02T13:46:42.785Z</time></trkpt><trkpt lat="42.9803517" lon="11.6390883"><ele>424.0</ele><time>2026-05-02T13:46:43.786Z</time></trkpt><trkpt lat="42.9802917" lon="11.6391883"><ele>424.00000000000006</ele><time>2026-05-02T13:46:44.788Z</time></trkpt><trkpt lat="42.9802433" lon="11.6392883"><ele>424.0</ele><time>2026-05-02T13:46:45.786Z</time></trkpt><trkpt lat="42.9802183" lon="11.6394117"><ele>421.5</ele><time>2026-05-02T13:46:46.787Z</time></trkpt><trkpt lat="42.98021" lon="11.6395533"><ele>419.0</ele><time>2026-05-02T13:46:47.79Z</time></trkpt><trkpt lat="42.980225" lon="11.6397017"><ele>416.5</ele><time>2026-05-02T13:46:48.788Z</time></trkpt><trkpt lat="42.980255" lon="11.6398683"><ele>414.0</ele><time>2026-05-02T13:46:49.787Z</time></trkpt><trkpt lat="42.98028" lon="11.64004"><ele>414.0</ele><time>2026-05-02T13:46:50.785Z</time></trkpt><trkpt lat="42.9803033" lon="11.6402133"><ele>414.0</ele><time>2026-05-02T13:46:51.79Z</time></trkpt><trkpt lat="42.9803217" lon="11.6403867"><ele>414.0</ele><time>2026-05-02T13:46:52.786Z</time></trkpt><trkpt lat="42.980335" lon="11.640555"><ele>414.0</ele><time>2026-05-02T13:46:53.785Z</time></trkpt><trkpt lat="42.9803433" lon="11.6407183"><ele>412.75</ele><time>2026-05-02T13:46:54.789Z</time></trkpt><trkpt lat="42.98034" lon="11.6408817"><ele>411.5</ele><time>2026-05-02T13:46:55.789Z</time></trkpt><trkpt lat="42.9803183" lon="11.64103"><ele>410.25</ele><time>2026-05-02T13:46:56.787Z</time></trkpt><trkpt lat="42.9802833" lon="11.6411817"><ele>409.0</ele><time>2026-05-02T13:46:57.787Z</time></trkpt><trkpt lat="42.9802417" lon="11.641345"><ele>408.0</ele><time>2026-05-02T13:46:58.786Z</time></trkpt><trkpt lat="42.9801967" lon="11.6415117"><ele>407.0</ele><time>2026-05-02T13:46:59.788Z</time></trkpt><trkpt lat="42.9801483" lon="11.6416767"><ele>406.0</ele><time>2026-05-02T13:47:00.786Z</time></trkpt><trkpt lat="42.9801033" lon="11.6418433"><ele>405.0</ele><time>2026-05-02T13:47:01.787Z</time></trkpt><trkpt lat="42.9800567" lon="11.64201"><ele>403.5</ele><time>2026-05-02T13:47:02.786Z</time></trkpt><trkpt lat="42.9800133" lon="11.6421717"><ele>402.0</ele><time>2026-05-02T13:47:03.789Z</time></trkpt><trkpt lat="42.9799667" lon="11.642325"><ele>400.5</ele><time>2026-05-02T13:47:04.789Z</time></trkpt><trkpt lat="42.9799117" lon="11.642465"><ele>399.0</ele><time>2026-05-02T13:47:05.789Z</time></trkpt><trkpt lat="42.97984" lon="11.64259"><ele>399.0</ele><time>2026-05-02T13:47:06.789Z</time></trkpt><trkpt lat="42.9797633" lon="11.642705"><ele>399.0</ele><time>2026-05-02T13:47:07.789Z</time></trkpt><trkpt lat="42.9796783" lon="11.642815"><ele>399.0</ele><time>2026-05-02T13:47:08.789Z</time></trkpt><trkpt lat="42.9795833" lon="11.64292"><ele>399.0</ele><time>2026-05-02T13:47:09.79Z</time></trkpt><trkpt lat="42.9794833" lon="11.6430367"><ele>398.4</ele><time>2026-05-02T13:47:10.786Z</time></trkpt><trkpt lat="42.979385" lon="11.64315"><ele>397.79999999999995</ele><time>2026-05-02T13:47:11.787Z</time></trkpt><trkpt lat="42.97929" lon="11.64325"><ele>397.20000000000005</ele><time>2026-05-02T13:47:12.788Z</time></trkpt><trkpt lat="42.9792" lon="11.6433267"><ele>396.6</ele><time>2026-05-02T13:47:13.786Z</time></trkpt><trkpt lat="42.97911" lon="11.6433633"><ele>396.0</ele><time>2026-05-02T13:47:14.787Z</time></trkpt><trkpt lat="42.9790167" lon="11.6433567"><ele>396.0</ele><time>2026-05-02T13:47:15.788Z</time></trkpt><trkpt lat="42.9789233" lon="11.6433217"><ele>396.0</ele><time>2026-05-02T13:47:16.788Z</time></trkpt><trkpt lat="42.9788267" lon="11.6432667"><ele>396.0</ele><time>2026-05-02T13:47:17.787Z</time></trkpt><trkpt lat="42.9787267" lon="11.643195"><ele>396.0</ele><time>2026-05-02T13:47:18.787Z</time></trkpt><trkpt lat="42.9786233" lon="11.6431183"><ele>396.0</ele><time>2026-05-02T13:47:19.787Z</time></trkpt><trkpt lat="42.9785117" lon="11.6430317"><ele>396.0</ele><time>2026-05-02T13:47:20.788Z</time></trkpt><trkpt lat="42.9783933" lon="11.642945"><ele>396.0</ele><time>2026-05-02T13:47:21.787Z</time></trkpt><trkpt lat="42.97827" lon="11.6428617"><ele>396.0</ele><time>2026-05-02T13:47:22.787Z</time></trkpt><trkpt lat="42.9781583" lon="11.6427817"><ele>396.0</ele><time>2026-05-02T13:47:23.786Z</time></trkpt><trkpt lat="42.978045" lon="11.6427017"><ele>396.75</ele><time>2026-05-02T13:47:24.787Z</time></trkpt><trkpt lat="42.97793" lon="11.6426217"><ele>397.5</ele><time>2026-05-02T13:47:25.786Z</time></trkpt><trkpt lat="42.97781" lon="11.64254"><ele>398.25</ele><time>2026-05-02T13:47:26.787Z</time></trkpt><trkpt lat="42.9776883" lon="11.6424583"><ele>399.0</ele><time>2026-05-02T13:47:27.786Z</time></trkpt><trkpt lat="42.9775633" lon="11.642375"><ele>397.0</ele><time>2026-05-02T13:47:28.788Z</time></trkpt><trkpt lat="42.977435" lon="11.6422917"><ele>395.0</ele><time>2026-05-02T13:47:29.787Z</time></trkpt><trkpt lat="42.977305" lon="11.64221"><ele>393.0</ele><time>2026-05-02T13:47:30.786Z</time></trkpt><trkpt lat="42.9771767" lon="11.64213"><ele>391.0</ele><time>2026-05-02T13:47:31.786Z</time></trkpt><trkpt lat="42.9770517" lon="11.64205"><ele>391.0</ele><time>2026-05-02T13:47:32.787Z</time></trkpt><trkpt lat="42.976925" lon="11.6419683"><ele>391.0</ele><time>2026-05-02T13:47:33.789Z</time></trkpt><trkpt lat="42.9768017" lon="11.641885"><ele>391.0</ele><time>2026-05-02T13:47:34.789Z</time></trkpt><trkpt lat="42.9766867" lon="11.6417967"><ele>391.0</ele><time>2026-05-02T13:47:35.789Z</time></trkpt><trkpt lat="42.976575" lon="11.6417017"><ele>392.25</ele><time>2026-05-02T13:47:36.789Z</time></trkpt><trkpt lat="42.97647" lon="11.6416"><ele>393.5</ele><time>2026-05-02T13:47:37.789Z</time></trkpt><trkpt lat="42.9763717" lon="11.6414867"><ele>394.75</ele><time>2026-05-02T13:47:38.79Z</time></trkpt><trkpt lat="42.976275" lon="11.641365"><ele>396.0</ele><time>2026-05-02T13:47:39.877Z</time></trkpt><trkpt lat="42.976175" lon="11.6412483"><ele>396.0</ele><time>2026-05-02T13:47:40.787Z</time></trkpt><trkpt lat="42.97607" lon="11.6411467"><ele>396.0</ele><time>2026-05-02T13:47:41.786Z</time></trkpt><trkpt lat="42.9759583" lon="11.6410683"><ele>396.0</ele><time>2026-05-02T13:47:42.786Z</time></trkpt><trkpt lat="42.9758333" lon="11.6410133"><ele>396.0</ele><time>2026-05-02T13:47:43.786Z</time></trkpt><trkpt lat="42.9757033" lon="11.640975"><ele>398.75</ele><time>2026-05-02T13:47:44.786Z</time></trkpt><trkpt lat="42.9755717" lon="11.64094"><ele>401.5</ele><time>2026-05-02T13:47:45.787Z</time></trkpt><trkpt lat="42.97544" lon="11.6409"><ele>404.25</ele><time>2026-05-02T13:47:46.79Z</time></trkpt><trkpt lat="42.9753067" lon="11.6408433"><ele>407.0</ele><time>2026-05-02T13:47:47.786Z</time></trkpt><trkpt lat="42.9751717" lon="11.64078"><ele>407.0</ele><time>2026-05-02T13:47:48.789Z</time></trkpt><trkpt lat="42.9750417" lon="11.64071"><ele>407.0</ele><time>2026-05-02T13:47:49.789Z</time></trkpt><trkpt lat="42.974915" lon="11.64064"><ele>407.0</ele><time>2026-05-02T13:47:50.789Z</time></trkpt><trkpt lat="42.97479" lon="11.6405917"><ele>407.0</ele><time>2026-05-02T13:47:51.785Z</time></trkpt><trkpt lat="42.9746633" lon="11.6405667"><ele>407.25</ele><time>2026-05-02T13:47:52.786Z</time></trkpt><trkpt lat="42.97453" lon="11.640555"><ele>407.5</ele><time>2026-05-02T13:47:53.788Z</time></trkpt><trkpt lat="42.9743933" lon="11.6405533"><ele>407.75</ele><time>2026-05-02T13:47:54.788Z</time></trkpt><trkpt lat="42.9742533" lon="11.64056"><ele>408.0</ele><time>2026-05-02T13:47:55.79Z</time></trkpt><trkpt lat="42.974115" lon="11.6405633"><ele>408.0</ele><time>2026-05-02T13:47:56.79Z</time></trkpt><trkpt lat="42.9739683" lon="11.640565"><ele>408.0</ele><time>2026-05-02T13:47:57.88Z</time></trkpt><trkpt lat="42.9738217" lon="11.6405683"><ele>408.0</ele><time>2026-05-02T13:47:58.787Z</time></trkpt><trkpt lat="42.9736833" lon="11.6405633"><ele>408.0</ele><time>2026-05-02T13:47:59.787Z</time></trkpt><trkpt lat="42.9735567" lon="11.640565"><ele>408.0</ele><time>2026-05-02T13:48:00.789Z</time></trkpt><trkpt lat="42.9734367" lon="11.640555"><ele>408.0</ele><time>2026-05-02T13:48:01.786Z</time></trkpt><trkpt lat="42.9733183" lon="11.6405383"><ele>408.0</ele><time>2026-05-02T13:48:02.789Z</time></trkpt><trkpt lat="42.9732" lon="11.6405117"><ele>408.0</ele><time>2026-05-02T13:48:03.789Z</time></trkpt><trkpt lat="42.9730683" lon="11.64048"><ele>408.5</ele><time>2026-05-02T13:48:04.789Z</time></trkpt><trkpt lat="42.972935" lon="11.6404433"><ele>409.0</ele><time>2026-05-02T13:48:05.789Z</time></trkpt><trkpt lat="42.9728067" lon="11.6404117"><ele>409.5</ele><time>2026-05-02T13:48:06.786Z</time></trkpt><trkpt lat="42.97269" lon="11.6403733"><ele>410.0</ele><time>2026-05-02T13:48:07.787Z</time></trkpt><trkpt lat="42.9725917" lon="11.6403383"><ele>409.99999999999994</ele><time>2026-05-02T13:48:08.786Z</time></trkpt><trkpt lat="42.9725083" lon="11.6403117"><ele>410.0</ele><time>2026-05-02T13:48:09.786Z</time></trkpt><trkpt lat="42.972435" lon="11.6402867"><ele>410.0</ele><time>2026-05-02T13:48:10.786Z</time></trkpt><trkpt lat="42.97237" lon="11.6402083"><ele>410.0</ele><time>2026-05-02T13:48:12.786Z</time></trkpt><trkpt lat="42.9723867" lon="11.6401083"><ele>409.99999999999994</ele><time>2026-05-02T13:48:14.786Z</time></trkpt><trkpt lat="42.9724617" lon="11.6400033"><ele>410.0</ele><time>2026-05-02T13:48:16.786Z</time></trkpt><trkpt lat="42.9725167" lon="11.639955"><ele>412.8</ele><time>2026-05-02T13:48:17.788Z</time></trkpt><trkpt lat="42.972585" lon="11.6399083"><ele>415.6</ele><time>2026-05-02T13:48:18.786Z</time></trkpt><trkpt lat="42.9726983" lon="11.6398517"><ele>418.4</ele><time>2026-05-02T13:48:19.786Z</time></trkpt><trkpt lat="42.9728067" lon="11.6398017"><ele>421.2</ele><time>2026-05-02T13:48:20.79Z</time></trkpt><trkpt lat="42.9729233" lon="11.6397633"><ele>424.0</ele><time>2026-05-02T13:48:21.787Z</time></trkpt><trkpt lat="42.9730433" lon="11.63975"><ele>424.0</ele><time>2026-05-02T13:48:22.787Z</time></trkpt><trkpt lat="42.9731683" lon="11.63975"><ele>424.0</ele><time>2026-05-02T13:48:23.787Z</time></trkpt><trkpt lat="42.9732983" lon="11.63974"><ele>424.0</ele><time>2026-05-02T13:48:24.787Z</time></trkpt><trkpt lat="42.9734333" lon="11.6397467"><ele>424.0</ele><time>2026-05-02T13:48:25.787Z</time></trkpt><trkpt lat="42.9735683" lon="11.6397583"><ele>424.5</ele><time>2026-05-02T13:48:26.787Z</time></trkpt><trkpt lat="42.9736967" lon="11.6397633"><ele>425.0</ele><time>2026-05-02T13:48:27.79Z</time></trkpt><trkpt lat="42.9738217" lon="11.6397683"><ele>425.5</ele><time>2026-05-02T13:48:28.785Z</time></trkpt><trkpt lat="42.97394" lon="11.6397717"><ele>426.0</ele><time>2026-05-02T13:48:29.786Z</time></trkpt><trkpt lat="42.9740683" lon="11.6397583"><ele>426.0</ele><time>2026-05-02T13:48:30.786Z</time></trkpt><trkpt lat="42.974185" lon="11.6397383"><ele>426.0</ele><time>2026-05-02T13:48:31.785Z</time></trkpt><trkpt lat="42.97429" lon="11.639725"><ele>426.0</ele><time>2026-05-02T13:48:32.785Z</time></trkpt><trkpt lat="42.9743817" lon="11.6397133"><ele>426.0</ele><time>2026-05-02T13:48:33.786Z</time></trkpt><trkpt lat="42.9744617" lon="11.6396983"><ele>426.0</ele><time>2026-05-02T13:48:34.788Z</time></trkpt><trkpt lat="42.9745633" lon="11.6396333"><ele>425.8333333333333</ele><time>2026-05-02T13:48:36.788Z</time></trkpt><trkpt lat="42.974585" lon="11.6395"><ele>425.66666666666663</ele><time>2026-05-02T13:48:38.788Z</time></trkpt><trkpt lat="42.97456" lon="11.6394133"><ele>425.5</ele><time>2026-05-02T13:48:39.788Z</time></trkpt><trkpt lat="42.9745117" lon="11.6393183"><ele>425.3333333333333</ele><time>2026-05-02T13:48:40.785Z</time></trkpt><trkpt lat="42.974445" lon="11.63923"><ele>425.16666666666663</ele><time>2026-05-02T13:48:41.789Z</time></trkpt><trkpt lat="42.974375" lon="11.6391683"><ele>425.0</ele><time>2026-05-02T13:48:42.789Z</time></trkpt><trkpt lat="42.9743017" lon="11.6391433"><ele>428.2</ele><time>2026-05-02T13:48:43.789Z</time></trkpt><trkpt lat="42.9742217" lon="11.6391383"><ele>431.4</ele><time>2026-05-02T13:48:44.788Z</time></trkpt><trkpt lat="42.9741383" lon="11.6391267"><ele>434.6</ele><time>2026-05-02T13:48:45.79Z</time></trkpt><trkpt lat="42.9740383" lon="11.6391133"><ele>437.8</ele><time>2026-05-02T13:48:46.788Z</time></trkpt><trkpt lat="42.9739333" lon="11.6390833"><ele>441.0</ele><time>2026-05-02T13:48:47.788Z</time></trkpt><trkpt lat="42.9738283" lon="11.6390317"><ele>441.75</ele><time>2026-05-02T13:48:48.788Z</time></trkpt><trkpt lat="42.973725" lon="11.6389583"><ele>442.5</ele><time>2026-05-02T13:48:49.788Z</time></trkpt><trkpt lat="42.9736233" lon="11.6388733"><ele>443.25</ele><time>2026-05-02T13:48:50.788Z</time></trkpt><trkpt lat="42.9735183" lon="11.6387917"><ele>444.0</ele><time>2026-05-02T13:48:51.785Z</time></trkpt><trkpt lat="42.9734033" lon="11.638725"><ele>442.5</ele><time>2026-05-02T13:48:52.789Z</time></trkpt><trkpt lat="42.9732817" lon="11.6386683"><ele>441.0</ele><time>2026-05-02T13:48:53.79Z</time></trkpt><trkpt lat="42.973155" lon="11.6386167"><ele>439.5</ele><time>2026-05-02T13:48:54.79Z</time></trkpt><trkpt lat="42.9730283" lon="11.6385817"><ele>438.0</ele><time>2026-05-02T13:48:55.788Z</time></trkpt><trkpt lat="42.97292" lon="11.638555"><ele>441.79999999999995</ele><time>2026-05-02T13:48:56.785Z</time></trkpt><trkpt lat="42.9728217" lon="11.6385017"><ele>445.59999999999997</ele><time>2026-05-02T13:48:57.789Z</time></trkpt><trkpt lat="42.97272" lon="11.6384417"><ele>449.40000000000003</ele><time>2026-05-02T13:48:58.788Z</time></trkpt><trkpt lat="42.9726217" lon="11.6383667"><ele>453.20000000000005</ele><time>2026-05-02T13:48:59.789Z</time></trkpt><trkpt lat="42.9725217" lon="11.6382917"><ele>457.0</ele><time>2026-05-02T13:49:00.789Z</time></trkpt><trkpt lat="42.9724267" lon="11.6381983"><ele>457.0</ele><time>2026-05-02T13:49:01.789Z</time></trkpt><trkpt lat="42.972335" lon="11.638105"><ele>457.0</ele><time>2026-05-02T13:49:02.786Z</time></trkpt><trkpt lat="42.9722433" lon="11.63801"><ele>457.0</ele><time>2026-05-02T13:49:03.788Z</time></trkpt><trkpt lat="42.9721483" lon="11.637915"><ele>457.0</ele><time>2026-05-02T13:49:04.788Z</time></trkpt><trkpt lat="42.9720567" lon="11.6378217"><ele>459.8</ele><time>2026-05-02T13:49:05.79Z</time></trkpt><trkpt lat="42.971975" lon="11.6377267"><ele>462.6</ele><time>2026-05-02T13:49:06.788Z</time></trkpt><trkpt lat="42.9718933" lon="11.6376317"><ele>465.40000000000003</ele><time>2026-05-02T13:49:07.787Z</time></trkpt><trkpt lat="42.9718133" lon="11.6375433"><ele>468.20000000000005</ele><time>2026-05-02T13:49:08.789Z</time></trkpt><trkpt lat="42.9717317" lon="11.6374533"><ele>471.0</ele><time>2026-05-02T13:49:09.785Z</time></trkpt><trkpt lat="42.971665" lon="11.63736"><ele>471.0</ele><time>2026-05-02T13:49:10.786Z</time></trkpt><trkpt lat="42.971605" lon="11.6372717"><ele>471.0</ele><time>2026-05-02T13:49:11.786Z</time></trkpt><trkpt lat="42.9715683" lon="11.6371767"><ele>471.0</ele><time>2026-05-02T13:49:12.785Z</time></trkpt><trkpt lat="42.9715467" lon="11.6370733"><ele>471.0</ele><time>2026-05-02T13:49:13.789Z</time></trkpt><trkpt lat="42.971525" lon="11.63695"><ele>471.0</ele><time>2026-05-02T13:49:14.786Z</time></trkpt><trkpt lat="42.971505" lon="11.63682"><ele>471.0</ele><time>2026-05-02T13:49:15.786Z</time></trkpt><trkpt lat="42.9714867" lon="11.6366933"><ele>473.6</ele><time>2026-05-02T13:49:16.785Z</time></trkpt><trkpt lat="42.971455" lon="11.6365567"><ele>476.20000000000005</ele><time>2026-05-02T13:49:17.785Z</time></trkpt><trkpt lat="42.9714133" lon="11.6364317"><ele>478.79999999999995</ele><time>2026-05-02T13:49:18.785Z</time></trkpt><trkpt lat="42.9713583" lon="11.6363133"><ele>481.4</ele><time>2026-05-02T13:49:19.785Z</time></trkpt><trkpt lat="42.971285" lon="11.6362017"><ele>484.0</ele><time>2026-05-02T13:49:20.788Z</time></trkpt><trkpt lat="42.9712067" lon="11.636115"><ele>485.33333333333337</ele><time>2026-05-02T13:49:21.788Z</time></trkpt><trkpt lat="42.9711317" lon="11.6360467"><ele>486.6666666666667</ele><time>2026-05-02T13:49:22.785Z</time></trkpt><trkpt lat="42.9710733" lon="11.635975"><ele>488.0</ele><time>2026-05-02T13:49:23.789Z</time></trkpt><trkpt lat="42.9710317" lon="11.6358933"><ele>489.33333333333337</ele><time>2026-05-02T13:49:24.788Z</time></trkpt><trkpt lat="42.9710167" lon="11.6358017"><ele>490.6666666666667</ele><time>2026-05-02T13:49:25.788Z</time></trkpt><trkpt lat="42.9710283" lon="11.6357133"><ele>492.0</ele><time>2026-05-02T13:49:26.789Z</time></trkpt><trkpt lat="42.9710567" lon="11.635615"><ele>492.0</ele><time>2026-05-02T13:49:27.786Z</time></trkpt><trkpt lat="42.9710767" lon="11.6355033"><ele>492.00000000000006</ele><time>2026-05-02T13:49:28.785Z</time></trkpt><trkpt lat="42.9710883" lon="11.6353817"><ele>492.00000000000006</ele><time>2026-05-02T13:49:29.785Z</time></trkpt><trkpt lat="42.97109" lon="11.63524"><ele>492.0</ele><time>2026-05-02T13:49:30.785Z</time></trkpt><trkpt lat="42.9710917" lon="11.6350833"><ele>492.0</ele><time>2026-05-02T13:49:31.787Z</time></trkpt><trkpt lat="42.971095" lon="11.6349183"><ele>494.25</ele><time>2026-05-02T13:49:32.786Z</time></trkpt><trkpt lat="42.9710983" lon="11.6347483"><ele>496.5</ele><time>2026-05-02T13:49:33.786Z</time></trkpt><trkpt lat="42.9710883" lon="11.6345867"><ele>498.75</ele><time>2026-05-02T13:49:34.786Z</time></trkpt><trkpt lat="42.9710583" lon="11.63444"><ele>501.0</ele><time>2026-05-02T13:49:35.785Z</time></trkpt><trkpt lat="42.971005" lon="11.6343067"><ele>498.5</ele><time>2026-05-02T13:49:36.785Z</time></trkpt><trkpt lat="42.9709417" lon="11.6341817"><ele>496.0</ele><time>2026-05-02T13:49:37.787Z</time></trkpt><trkpt lat="42.9708767" lon="11.634055"><ele>493.5</ele><time>2026-05-02T13:49:38.789Z</time></trkpt><trkpt lat="42.9708167" lon="11.63392"><ele>491.0</ele><time>2026-05-02T13:49:39.791Z</time></trkpt><trkpt lat="42.9707617" lon="11.633785"><ele>491.0</ele><time>2026-05-02T13:49:40.789Z</time></trkpt><trkpt lat="42.9707183" lon="11.6336617"><ele>491.0</ele><time>2026-05-02T13:49:41.789Z</time></trkpt><trkpt lat="42.970685" lon="11.6335333"><ele>491.0</ele><time>2026-05-02T13:49:42.788Z</time></trkpt><trkpt lat="42.9706683" lon="11.6333983"><ele>491.0</ele><time>2026-05-02T13:49:43.788Z</time></trkpt><trkpt lat="42.9706583" lon="11.6332583"><ele>491.0</ele><time>2026-05-02T13:49:44.788Z</time></trkpt><trkpt lat="42.970655" lon="11.633125"><ele>493.0</ele><time>2026-05-02T13:49:45.789Z</time></trkpt><trkpt lat="42.9706533" lon="11.6329917"><ele>495.0</ele><time>2026-05-02T13:49:46.788Z</time></trkpt><trkpt lat="42.9706433" lon="11.6328567"><ele>497.0</ele><time>2026-05-02T13:49:47.789Z</time></trkpt><trkpt lat="42.970615" lon="11.632725"><ele>499.0</ele><time>2026-05-02T13:49:48.786Z</time></trkpt><trkpt lat="42.9705617" lon="11.6325983"><ele>501.0</ele><time>2026-05-02T13:49:49.788Z</time></trkpt><trkpt lat="42.9704867" lon="11.632465"><ele>502.5</ele><time>2026-05-02T13:49:50.789Z</time></trkpt><trkpt lat="42.9704133" lon="11.63233"><ele>504.0</ele><time>2026-05-02T13:49:51.788Z</time></trkpt><trkpt lat="42.9703567" lon="11.6321967"><ele>505.5</ele><time>2026-05-02T13:49:52.789Z</time></trkpt><trkpt lat="42.9703133" lon="11.6320567"><ele>507.0</ele><time>2026-05-02T13:49:53.789Z</time></trkpt><trkpt lat="42.9702833" lon="11.63191"><ele>508.25</ele><time>2026-05-02T13:49:54.789Z</time></trkpt><trkpt lat="42.9702567" lon="11.6317567"><ele>509.5</ele><time>2026-05-02T13:49:55.788Z</time></trkpt><trkpt lat="42.9702283" lon="11.6315967"><ele>510.75</ele><time>2026-05-02T13:49:56.79Z</time></trkpt><trkpt lat="42.970205" lon="11.6314383"><ele>512.0</ele><time>2026-05-02T13:49:57.786Z</time></trkpt><trkpt lat="42.9701983" lon="11.6312767"><ele>512.75</ele><time>2026-05-02T13:49:58.786Z</time></trkpt><trkpt lat="42.9702033" lon="11.6311067"><ele>513.5</ele><time>2026-05-02T13:49:59.785Z</time></trkpt><trkpt lat="42.9702033" lon="11.6309333"><ele>514.25</ele><time>2026-05-02T13:50:00.786Z</time></trkpt><trkpt lat="42.970205" lon="11.63076"><ele>515.0</ele><time>2026-05-02T13:50:01.785Z</time></trkpt><trkpt lat="42.9702083" lon="11.6305867"><ele>515.0</ele><time>2026-05-02T13:50:02.786Z</time></trkpt><trkpt lat="42.9702083" lon="11.6304167"><ele>515.0</ele><time>2026-05-02T13:50:03.786Z</time></trkpt><trkpt lat="42.970215" lon="11.6302533"><ele>515.0</ele><time>2026-05-02T13:50:04.786Z</time></trkpt><trkpt lat="42.9702233" lon="11.63011"><ele>515.0</ele><time>2026-05-02T13:50:05.786Z</time></trkpt><trkpt lat="42.97023" lon="11.6299967"><ele>515.0</ele><time>2026-05-02T13:50:06.785Z</time></trkpt><trkpt lat="42.9702783" lon="11.62987"><ele>516.5</ele><time>2026-05-02T13:50:08.789Z</time></trkpt><trkpt lat="42.9703733" lon="11.6298917"><ele>518.0</ele><time>2026-05-02T13:50:10.789Z</time></trkpt><trkpt lat="42.9704383" lon="11.6299267"><ele>519.5</ele><time>2026-05-02T13:50:11.789Z</time></trkpt><trkpt lat="42.970515" lon="11.6299617"><ele>521.0</ele><time>2026-05-02T13:50:12.788Z</time></trkpt><trkpt lat="42.9706067" lon="11.6299733"><ele>522.5</ele><time>2026-05-02T13:50:13.785Z</time></trkpt><trkpt lat="42.9707017" lon="11.62996"><ele>524.0</ele><time>2026-05-02T13:50:14.788Z</time></trkpt><trkpt lat="42.970785" lon="11.629915"><ele>524.0</ele><time>2026-05-02T13:50:15.788Z</time></trkpt><trkpt lat="42.970845" lon="11.6298383"><ele>524.0</ele><time>2026-05-02T13:50:16.788Z</time></trkpt><trkpt lat="42.970895" lon="11.62974"><ele>524.0</ele><time>2026-05-02T13:50:17.789Z</time></trkpt><trkpt lat="42.9709183" lon="11.6296233"><ele>524.0</ele><time>2026-05-02T13:50:18.789Z</time></trkpt><trkpt lat="42.970905" lon="11.62949"><ele>524.0</ele><time>2026-05-02T13:50:19.789Z</time></trkpt><trkpt lat="42.9709" lon="11.6293667"><ele>524.0</ele><time>2026-05-02T13:50:20.789Z</time></trkpt><trkpt lat="42.970895" lon="11.629255"><ele>530.8333333333333</ele><time>2026-05-02T13:50:21.789Z</time></trkpt><trkpt lat="42.9709" lon="11.6291467"><ele>537.6666666666666</ele><time>2026-05-02T13:50:22.789Z</time></trkpt><trkpt lat="42.9709133" lon="11.6290417"><ele>544.5</ele><time>2026-05-02T13:50:23.789Z</time></trkpt><trkpt lat="42.9709383" lon="11.6289383"><ele>551.3333333333334</ele><time>2026-05-02T13:50:24.788Z</time></trkpt><trkpt lat="42.9709533" lon="11.62883"><ele>558.1666666666667</ele><time>2026-05-02T13:50:25.789Z</time></trkpt><trkpt lat="42.9709617" lon="11.6286867"><ele>565.0</ele><time>2026-05-02T13:50:26.788Z</time></trkpt><trkpt lat="42.97096" lon="11.6285417"><ele>566.2</ele><time>2026-05-02T13:50:27.785Z</time></trkpt><trkpt lat="42.9709517" lon="11.6283933"><ele>567.4</ele><time>2026-05-02T13:50:28.786Z</time></trkpt><trkpt lat="42.970945" lon="11.6282433"><ele>568.6</ele><time>2026-05-02T13:50:29.785Z</time></trkpt><trkpt lat="42.9709383" lon="11.628095"><ele>569.8</ele><time>2026-05-02T13:50:30.787Z</time></trkpt><trkpt lat="42.9709183" lon="11.6279483"><ele>571.0</ele><time>2026-05-02T13:50:31.786Z</time></trkpt><trkpt lat="42.9708783" lon="11.6278117"><ele>563.0</ele><time>2026-05-02T13:50:32.786Z</time></trkpt><trkpt lat="42.9708233" lon="11.627675"><ele>555.0</ele><time>2026-05-02T13:50:33.786Z</time></trkpt><trkpt lat="42.9707667" lon="11.6275283"><ele>547.0</ele><time>2026-05-02T13:50:34.786Z</time></trkpt><trkpt lat="42.9707233" lon="11.6273783"><ele>539.0</ele><time>2026-05-02T13:50:35.786Z</time></trkpt><trkpt lat="42.9706967" lon="11.6272283"><ele>539.0</ele><time>2026-05-02T13:50:36.786Z</time></trkpt><trkpt lat="42.9706817" lon="11.6270733"><ele>539.0</ele><time>2026-05-02T13:50:37.786Z</time></trkpt><trkpt lat="42.970675" lon="11.6269167"><ele>539.0</ele><time>2026-05-02T13:50:38.789Z</time></trkpt><trkpt lat="42.9706783" lon="11.6267667"><ele>539.0</ele><time>2026-05-02T13:50:39.789Z</time></trkpt><trkpt lat="42.9706917" lon="11.6266233"><ele>539.0</ele><time>2026-05-02T13:50:40.789Z</time></trkpt><trkpt lat="42.9707067" lon="11.6264967"><ele>541.3333333333333</ele><time>2026-05-02T13:50:41.789Z</time></trkpt><trkpt lat="42.9707033" lon="11.626375"><ele>543.6666666666666</ele><time>2026-05-02T13:50:42.789Z</time></trkpt><trkpt lat="42.9706867" lon="11.6262583"><ele>546.0</ele><time>2026-05-02T13:50:43.786Z</time></trkpt><trkpt lat="42.9706633" lon="11.626145"><ele>548.3333333333334</ele><time>2026-05-02T13:50:44.786Z</time></trkpt><trkpt lat="42.970635" lon="11.62603"><ele>550.6666666666667</ele><time>2026-05-02T13:50:45.788Z</time></trkpt><trkpt lat="42.9706" lon="11.6259067"><ele>553.0</ele><time>2026-05-02T13:50:46.786Z</time></trkpt><trkpt lat="42.9705433" lon="11.6257867"><ele>556.6</ele><time>2026-05-02T13:50:47.787Z</time></trkpt><trkpt lat="42.970475" lon="11.625675"><ele>560.1999999999999</ele><time>2026-05-02T13:50:48.789Z</time></trkpt><trkpt lat="42.9704183" lon="11.6255617"><ele>563.8</ele><time>2026-05-02T13:50:49.789Z</time></trkpt><trkpt lat="42.97038" lon="11.6254583"><ele>567.4</ele><time>2026-05-02T13:50:50.79Z</time></trkpt><trkpt lat="42.9703517" lon="11.6253417"><ele>571.0</ele><time>2026-05-02T13:50:51.789Z</time></trkpt><trkpt lat="42.97033" lon="11.6252167"><ele>572.5</ele><time>2026-05-02T13:50:52.79Z</time></trkpt><trkpt lat="42.9703117" lon="11.6250717"><ele>574.0</ele><time>2026-05-02T13:50:53.79Z</time></trkpt><trkpt lat="42.970275" lon="11.624915"><ele>575.5</ele><time>2026-05-02T13:50:54.789Z</time></trkpt><trkpt lat="42.9702267" lon="11.62475"><ele>577.0</ele><time>2026-05-02T13:50:55.789Z</time></trkpt><trkpt lat="42.970175" lon="11.6245867"><ele>577.25</ele><time>2026-05-02T13:50:56.787Z</time></trkpt><trkpt lat="42.9701233" lon="11.6244383"><ele>577.5</ele><time>2026-05-02T13:50:57.786Z</time></trkpt><trkpt lat="42.9700617" lon="11.6243083"><ele>577.75</ele><time>2026-05-02T13:50:58.786Z</time></trkpt><trkpt lat="42.969995" lon="11.624185"><ele>578.0</ele><time>2026-05-02T13:50:59.786Z</time></trkpt><trkpt lat="42.9699333" lon="11.6240517"><ele>576.0</ele><time>2026-05-02T13:51:00.787Z</time></trkpt><trkpt lat="42.96989" lon="11.623905"><ele>574.0</ele><time>2026-05-02T13:51:01.786Z</time></trkpt><trkpt lat="42.9698617" lon="11.623735"><ele>572.0</ele><time>2026-05-02T13:51:02.787Z</time></trkpt><trkpt lat="42.969835" lon="11.6235633"><ele>570.0</ele><time>2026-05-02T13:51:03.786Z</time></trkpt><trkpt lat="42.9698083" lon="11.6233933"><ele>570.0</ele><time>2026-05-02T13:51:04.787Z</time></trkpt><trkpt lat="42.9697883" lon="11.6232217"><ele>570.0</ele><time>2026-05-02T13:51:05.786Z</time></trkpt><trkpt lat="42.9697783" lon="11.6230617"><ele>570.0</ele><time>2026-05-02T13:51:06.786Z</time></trkpt><trkpt lat="42.9697633" lon="11.622925"><ele>570.0</ele><time>2026-05-02T13:51:07.787Z</time></trkpt><trkpt lat="42.9697567" lon="11.6228017"><ele>570.0</ele><time>2026-05-02T13:51:08.789Z</time></trkpt><trkpt lat="42.969745" lon="11.6226833"><ele>571.5</ele><time>2026-05-02T13:51:09.789Z</time></trkpt><trkpt lat="42.9697317" lon="11.6225733"><ele>573.0</ele><time>2026-05-02T13:51:10.786Z</time></trkpt><trkpt lat="42.96971" lon="11.62247"><ele>574.5</ele><time>2026-05-02T13:51:11.79Z</time></trkpt><trkpt lat="42.9696717" lon="11.6223833"><ele>576.0</ele><time>2026-05-02T13:51:12.79Z</time></trkpt><trkpt lat="42.9696167" lon="11.622295"><ele>577.5</ele><time>2026-05-02T13:51:13.786Z</time></trkpt><trkpt lat="42.969555" lon="11.6222317"><ele>579.0</ele><time>2026-05-02T13:51:14.789Z</time></trkpt><trkpt lat="42.96948" lon="11.6221933"><ele>579.0</ele><time>2026-05-02T13:51:15.789Z</time></trkpt><trkpt lat="42.969385" lon="11.6222017"><ele>579.0</ele><time>2026-05-02T13:51:16.789Z</time></trkpt><trkpt lat="42.9692833" lon="11.6222467"><ele>579.0</ele><time>2026-05-02T13:51:17.789Z</time></trkpt><trkpt lat="42.9691867" lon="11.6222817"><ele>579.0</ele><time>2026-05-02T13:51:18.786Z</time></trkpt><trkpt lat="42.969115" lon="11.6222533"><ele>579.0</ele><time>2026-05-02T13:51:19.789Z</time></trkpt><trkpt lat="42.96906" lon="11.6221933"><ele>579.0</ele><time>2026-05-02T13:51:20.786Z</time></trkpt><trkpt lat="42.9690283" lon="11.6220267"><ele>581.4</ele><time>2026-05-02T13:51:22.789Z</time></trkpt><trkpt lat="42.9690517" lon="11.6219317"><ele>583.8</ele><time>2026-05-02T13:51:23.789Z</time></trkpt><trkpt lat="42.9691233" lon="11.6218"><ele>586.2</ele><time>2026-05-02T13:51:24.789Z</time></trkpt><trkpt lat="42.96919" lon="11.621665"><ele>588.6</ele><time>2026-05-02T13:51:25.789Z</time></trkpt><trkpt lat="42.9692367" lon="11.6215417"><ele>591.0</ele><time>2026-05-02T13:51:26.786Z</time></trkpt><trkpt lat="42.96925" lon="11.62144"><ele>591.0</ele><time>2026-05-02T13:51:27.786Z</time></trkpt><trkpt lat="42.9692167" lon="11.6213433"><ele>591.0</ele><time>2026-05-02T13:51:28.786Z</time></trkpt><trkpt lat="42.9691467" lon="11.6212367"><ele>591.0</ele><time>2026-05-02T13:51:29.786Z</time></trkpt><trkpt lat="42.9690917" lon="11.621115"><ele>591.0</ele><time>2026-05-02T13:51:30.787Z</time></trkpt><trkpt lat="42.9690467" lon="11.6209833"><ele>591.0</ele><time>2026-05-02T13:51:31.787Z</time></trkpt><trkpt lat="42.9690117" lon="11.6208367"><ele>593.8</ele><time>2026-05-02T13:51:32.786Z</time></trkpt><trkpt lat="42.9689767" lon="11.6206867"><ele>596.6</ele><time>2026-05-02T13:51:33.786Z</time></trkpt><trkpt lat="42.9689617" lon="11.62054"><ele>599.4</ele><time>2026-05-02T13:51:34.79Z</time></trkpt><trkpt lat="42.9689667" lon="11.6204017"><ele>602.2</ele><time>2026-05-02T13:51:35.789Z</time></trkpt><trkpt lat="42.9690067" lon="11.6202917"><ele>605.0</ele><time>2026-05-02T13:51:36.786Z</time></trkpt><trkpt lat="42.9690767" lon="11.6201967"><ele>607.8</ele><time>2026-05-02T13:51:37.789Z</time></trkpt><trkpt lat="42.9691583" lon="11.6201067"><ele>610.6</ele><time>2026-05-02T13:51:38.786Z</time></trkpt><trkpt lat="42.96924" lon="11.6200067"><ele>613.4</ele><time>2026-05-02T13:51:39.79Z</time></trkpt><trkpt lat="42.9693217" lon="11.6199083"><ele>616.2</ele><time>2026-05-02T13:51:40.792Z</time></trkpt><trkpt lat="42.96941" lon="11.6198117"><ele>619.0</ele><time>2026-05-02T13:51:41.789Z</time></trkpt><trkpt lat="42.96948" lon="11.619715"><ele>619.4</ele><time>2026-05-02T13:51:42.785Z</time></trkpt><trkpt lat="42.9695317" lon="11.6196117"><ele>619.8</ele><time>2026-05-02T13:51:43.786Z</time></trkpt><trkpt lat="42.969555" lon="11.6195083"><ele>620.2</ele><time>2026-05-02T13:51:44.787Z</time></trkpt><trkpt lat="42.9695567" lon="11.619395"><ele>620.6</ele><time>2026-05-02T13:51:45.786Z</time></trkpt><trkpt lat="42.9695267" lon="11.619275"><ele>621.0</ele><time>2026-05-02T13:51:46.786Z</time></trkpt><trkpt lat="42.969485" lon="11.619145"><ele>624.0</ele><time>2026-05-02T13:51:47.787Z</time></trkpt><trkpt lat="42.9694167" lon="11.6190167"><ele>627.0</ele><time>2026-05-02T13:51:48.789Z</time></trkpt><trkpt lat="42.9693567" lon="11.6188733"><ele>630.0</ele><time>2026-05-02T13:51:49.79Z</time></trkpt><trkpt lat="42.9692817" lon="11.6187267"><ele>633.0</ele><time>2026-05-02T13:51:50.79Z</time></trkpt><trkpt lat="42.9692167" lon="11.6185967"><ele>635.75</ele><time>2026-05-02T13:51:51.79Z</time></trkpt><trkpt lat="42.969155" lon="11.6184883"><ele>638.5</ele><time>2026-05-02T13:51:52.79Z</time></trkpt><trkpt lat="42.9690733" lon="11.6183883"><ele>641.25</ele><time>2026-05-02T13:51:53.786Z</time></trkpt><trkpt lat="42.9689733" lon="11.6182917"><ele>644.0</ele><time>2026-05-02T13:51:54.788Z</time></trkpt><trkpt lat="42.9688567" lon="11.6181967"><ele>644.0</ele><time>2026-05-02T13:51:55.788Z</time></trkpt><trkpt lat="42.96874" lon="11.6181183"><ele>644.0</ele><time>2026-05-02T13:51:56.785Z</time></trkpt><trkpt lat="42.968625" lon="11.6180467"><ele>644.0</ele><time>2026-05-02T13:51:57.785Z</time></trkpt><trkpt lat="42.96852" lon="11.6179683"><ele>644.0</ele><time>2026-05-02T13:51:58.785Z</time></trkpt><trkpt lat="42.9684233" lon="11.6178983"><ele>644.2</ele><time>2026-05-02T13:51:59.786Z</time></trkpt><trkpt lat="42.9683217" lon="11.61784"><ele>644.4000000000001</ele><time>2026-05-02T13:52:00.786Z</time></trkpt><trkpt lat="42.9682233" lon="11.6177783"><ele>644.6</ele><time>2026-05-02T13:52:01.785Z</time></trkpt><trkpt lat="42.968145" lon="11.6177183"><ele>644.8</ele><time>2026-05-02T13:52:02.785Z</time></trkpt><trkpt lat="42.9680783" lon="11.6176433"><ele>645.0</ele><time>2026-05-02T13:52:03.789Z</time></trkpt><trkpt lat="42.9680183" lon="11.6175533"><ele>648.0</ele><time>2026-05-02T13:52:04.788Z</time></trkpt><trkpt lat="42.9679683" lon="11.6174267"><ele>651.0</ele><time>2026-05-02T13:52:05.786Z</time></trkpt><trkpt lat="42.9679167" lon="11.6172833"><ele>654.0</ele><time>2026-05-02T13:52:06.785Z</time></trkpt><trkpt lat="42.96787" lon="11.6171383"><ele>657.0</ele><time>2026-05-02T13:52:07.788Z</time></trkpt><trkpt lat="42.9678267" lon="11.61701"><ele>660.0</ele><time>2026-05-02T13:52:08.788Z</time></trkpt><trkpt lat="42.9677867" lon="11.616895"><ele>660.0</ele><time>2026-05-02T13:52:09.788Z</time></trkpt><trkpt lat="42.96776" lon="11.6168017"><ele>660.0</ele><time>2026-05-02T13:52:10.788Z</time></trkpt><trkpt lat="42.9677283" lon="11.6166833"><ele>660.0</ele><time>2026-05-02T13:52:12.789Z</time></trkpt><trkpt lat="42.9676933" lon="11.6165867"><ele>660.0</ele><time>2026-05-02T13:52:15.788Z</time></trkpt><trkpt lat="42.96762" lon="11.61655"><ele>660.0</ele><time>2026-05-02T13:52:19.788Z</time></trkpt><trkpt lat="42.96755" lon="11.6165833"><ele>660.0</ele><time>2026-05-02T13:52:21.788Z</time></trkpt><trkpt lat="42.9674333" lon="11.6166483"><ele>660.0</ele><time>2026-05-02T13:52:23.789Z</time></trkpt><trkpt lat="42.967365" lon="11.6166733"><ele>660.0</ele><time>2026-05-02T13:52:24.788Z</time></trkpt><trkpt lat="42.9672967" lon="11.6166933"><ele>660.0</ele><time>2026-05-02T13:52:25.788Z</time></trkpt><trkpt lat="42.9671783" lon="11.6167167"><ele>660.0</ele><time>2026-05-02T13:52:27.788Z</time></trkpt><trkpt lat="42.9670617" lon="11.616735"><ele>660.0</ele><time>2026-05-02T13:52:29.789Z</time></trkpt><trkpt lat="42.9669867" lon="11.6167383"><ele>660.0</ele><time>2026-05-02T13:52:30.788Z</time></trkpt><trkpt lat="42.9669033" lon="11.6167383"><ele>660.0</ele><time>2026-05-02T13:52:31.788Z</time></trkpt><trkpt lat="42.9668317" lon="11.6167433"><ele>660.0</ele><time>2026-05-02T13:52:32.788Z</time></trkpt><trkpt lat="42.9667567" lon="11.6167383"><ele>660.0</ele><time>2026-05-02T13:52:34.788Z</time></trkpt><trkpt lat="42.9668167" lon="11.6166633"><ele>660.0</ele><time>2026-05-02T13:52:38.787Z</time></trkpt><trkpt lat="42.966885" lon="11.6166683"><ele>660.0</ele><time>2026-05-02T13:52:39.786Z</time></trkpt><trkpt lat="42.9669783" lon="11.6166483"><ele>660.0</ele><time>2026-05-02T13:52:40.785Z</time></trkpt><trkpt lat="42.9670683" lon="11.6166283"><ele>660.0</ele><time>2026-05-02T13:52:41.785Z</time></trkpt><trkpt lat="42.9671583" lon="11.6166"><ele>660.0</ele><time>2026-05-02T13:52:42.785Z</time></trkpt><trkpt lat="42.9672433" lon="11.6165567"><ele>660.0</ele><time>2026-05-02T13:52:43.785Z</time></trkpt><trkpt lat="42.967325" lon="11.6165033"><ele>660.0</ele><time>2026-05-02T13:52:44.786Z</time></trkpt><trkpt lat="42.9674017" lon="11.6164333"><ele>660.0</ele><time>2026-05-02T13:52:45.786Z</time></trkpt><trkpt lat="42.9674767" lon="11.6163317"><ele>660.0</ele><time>2026-05-02T13:52:46.787Z</time></trkpt><trkpt lat="42.96754" lon="11.6162083"><ele>660.0</ele><time>2026-05-02T13:52:47.789Z</time></trkpt><trkpt lat="42.9675883" lon="11.6160633"><ele>660.0</ele><time>2026-05-02T13:52:48.786Z</time></trkpt><trkpt lat="42.96762" lon="11.6159"><ele>663.0</ele><time>2026-05-02T13:52:49.787Z</time></trkpt><trkpt lat="42.9676333" lon="11.615725"><ele>666.0</ele><time>2026-05-02T13:52:50.787Z</time></trkpt><trkpt lat="42.967635" lon="11.615545"><ele>669.0</ele><time>2026-05-02T13:52:51.787Z</time></trkpt><trkpt lat="42.9676283" lon="11.6153633"><ele>672.0</ele><time>2026-05-02T13:52:52.786Z</time></trkpt><trkpt lat="42.9676217" lon="11.6151717"><ele>672.25</ele><time>2026-05-02T13:52:53.786Z</time></trkpt><trkpt lat="42.9676267" lon="11.614985"><ele>672.5</ele><time>2026-05-02T13:52:54.789Z</time></trkpt><trkpt lat="42.967655" lon="11.614795"><ele>672.75</ele><time>2026-05-02T13:52:55.79Z</time></trkpt><trkpt lat="42.9677133" lon="11.614605"><ele>673.0</ele><time>2026-05-02T13:52:56.788Z</time></trkpt><trkpt lat="42.9678" lon="11.614425"><ele>673.0</ele><time>2026-05-02T13:52:57.788Z</time></trkpt><trkpt lat="42.9679217" lon="11.614285"><ele>673.0</ele><time>2026-05-02T13:52:58.789Z</time></trkpt><trkpt lat="42.96806" lon="11.6141717"><ele>673.0</ele><time>2026-05-02T13:52:59.788Z</time></trkpt><trkpt lat="42.968195" lon="11.6140717"><ele>673.0</ele><time>2026-05-02T13:53:00.786Z</time></trkpt><trkpt lat="42.968315" lon="11.613965"><ele>673.0</ele><time>2026-05-02T13:53:01.788Z</time></trkpt><trkpt lat="42.9683983" lon="11.61382"><ele>673.0</ele><time>2026-05-02T13:53:02.788Z</time></trkpt><trkpt lat="42.96844" lon="11.6136467"><ele>673.0</ele><time>2026-05-02T13:53:03.789Z</time></trkpt><trkpt lat="42.9684567" lon="11.6134483"><ele>671.6666666666667</ele><time>2026-05-02T13:53:04.788Z</time></trkpt><trkpt lat="42.9684617" lon="11.61324"><ele>670.3333333333334</ele><time>2026-05-02T13:53:05.789Z</time></trkpt><trkpt lat="42.9684667" lon="11.6130267"><ele>669.0</ele><time>2026-05-02T13:53:06.788Z</time></trkpt><trkpt lat="42.9684817" lon="11.61281"><ele>668.3333333333334</ele><time>2026-05-02T13:53:07.788Z</time></trkpt><trkpt lat="42.9685017" lon="11.6125933"><ele>667.6666666666667</ele><time>2026-05-02T13:53:08.788Z</time></trkpt><trkpt lat="42.9685283" lon="11.6123817"><ele>667.0</ele><time>2026-05-02T13:53:09.788Z</time></trkpt><trkpt lat="42.9685617" lon="11.612175"><ele>667.0</ele><time>2026-05-02T13:53:10.788Z</time></trkpt><trkpt lat="42.968595" lon="11.61197"><ele>667.0</ele><time>2026-05-02T13:53:11.789Z</time></trkpt><trkpt lat="42.9686283" lon="11.6117617"><ele>667.0</ele><time>2026-05-02T13:53:12.788Z</time></trkpt><trkpt lat="42.96866" lon="11.6115483"><ele>667.0</ele><time>2026-05-02T13:53:13.789Z</time></trkpt><trkpt lat="42.9686867" lon="11.6113283"><ele>667.0</ele><time>2026-05-02T13:53:14.789Z</time></trkpt><trkpt lat="42.968715" lon="11.6111067"><ele>667.0</ele><time>2026-05-02T13:53:15.788Z</time></trkpt><trkpt lat="42.9687467" lon="11.61088"><ele>668.3333333333334</ele><time>2026-05-02T13:53:16.788Z</time></trkpt><trkpt lat="42.9687767" lon="11.6106517"><ele>669.6666666666666</ele><time>2026-05-02T13:53:17.789Z</time></trkpt><trkpt lat="42.9688083" lon="11.610425"><ele>671.0</ele><time>2026-05-02T13:53:18.789Z</time></trkpt><trkpt lat="42.9688433" lon="11.6101933"><ele>673.0</ele><time>2026-05-02T13:53:19.79Z</time></trkpt><trkpt lat="42.968875" lon="11.6099617"><ele>675.0</ele><time>2026-05-02T13:53:20.79Z</time></trkpt><trkpt lat="42.9689" lon="11.6097317"><ele>677.0</ele><time>2026-05-02T13:53:21.789Z</time></trkpt><trkpt lat="42.9689217" lon="11.6095017"><ele>676.0</ele><time>2026-05-02T13:53:22.788Z</time></trkpt><trkpt lat="42.96893" lon="11.609265"><ele>675.0</ele><time>2026-05-02T13:53:23.79Z</time></trkpt><trkpt lat="42.9689283" lon="11.60903"><ele>674.0</ele><time>2026-05-02T13:53:24.79Z</time></trkpt><trkpt lat="42.9689217" lon="11.60879"><ele>674.0</ele><time>2026-05-02T13:53:25.789Z</time></trkpt><trkpt lat="42.9689133" lon="11.6085533"><ele>674.0</ele><time>2026-05-02T13:53:26.79Z</time></trkpt><trkpt lat="42.9689017" lon="11.6083233"><ele>674.0</ele><time>2026-05-02T13:53:27.789Z</time></trkpt><trkpt lat="42.9688933" lon="11.6081067"><ele>674.0</ele><time>2026-05-02T13:53:28.789Z</time></trkpt><trkpt lat="42.96889" lon="11.607895"><ele>674.0</ele><time>2026-05-02T13:53:29.789Z</time></trkpt><trkpt lat="42.9688883" lon="11.6076933"><ele>674.0</ele><time>2026-05-02T13:53:30.79Z</time></trkpt><trkpt lat="42.9688867" lon="11.6075"><ele>674.0</ele><time>2026-05-02T13:53:31.789Z</time></trkpt><trkpt lat="42.9688867" lon="11.607315"><ele>673.25</ele><time>2026-05-02T13:53:32.788Z</time></trkpt><trkpt lat="42.968885" lon="11.60714"><ele>672.5</ele><time>2026-05-02T13:53:33.79Z</time></trkpt><trkpt lat="42.968885" lon="11.6069633"><ele>671.75</ele><time>2026-05-02T13:53:34.789Z</time></trkpt><trkpt lat="42.9688917" lon="11.60679"><ele>671.0</ele><time>2026-05-02T13:53:35.789Z</time></trkpt><trkpt lat="42.96891" lon="11.6066233"><ele>670.0</ele><time>2026-05-02T13:53:36.789Z</time></trkpt><trkpt lat="42.9689467" lon="11.6064617"><ele>669.0</ele><time>2026-05-02T13:53:37.789Z</time></trkpt><trkpt lat="42.9689983" lon="11.6063083"><ele>668.0</ele><time>2026-05-02T13:53:38.789Z</time></trkpt><trkpt lat="42.969065" lon="11.6061617"><ele>667.0</ele><time>2026-05-02T13:53:39.789Z</time></trkpt><trkpt lat="42.9691467" lon="11.6060233"><ele>664.75</ele><time>2026-05-02T13:53:40.789Z</time></trkpt><trkpt lat="42.9692433" lon="11.605905"><ele>662.5</ele><time>2026-05-02T13:53:41.79Z</time></trkpt><trkpt lat="42.9693567" lon="11.60578"><ele>660.25</ele><time>2026-05-02T13:53:42.789Z</time></trkpt><trkpt lat="42.9694817" lon="11.605665"><ele>658.0</ele><time>2026-05-02T13:53:43.786Z</time></trkpt><trkpt lat="42.9696133" lon="11.6055583"><ele>658.0</ele><time>2026-05-02T13:53:44.79Z</time></trkpt><trkpt lat="42.9697467" lon="11.605445"><ele>658.0</ele><time>2026-05-02T13:53:45.789Z</time></trkpt><trkpt lat="42.96988" lon="11.60533"><ele>658.0</ele><time>2026-05-02T13:53:46.789Z</time></trkpt><trkpt lat="42.9700167" lon="11.6052067"><ele>653.3333333333334</ele><time>2026-05-02T13:53:47.789Z</time></trkpt><trkpt lat="42.9701533" lon="11.605075"><ele>648.6666666666666</ele><time>2026-05-02T13:53:48.788Z</time></trkpt><trkpt lat="42.9702867" lon="11.6049333"><ele>644.0</ele><time>2026-05-02T13:53:49.789Z</time></trkpt><trkpt lat="42.97042" lon="11.6047917"><ele>644.0</ele><time>2026-05-02T13:53:50.789Z</time></trkpt><trkpt lat="42.9705533" lon="11.604655"><ele>644.0</ele><time>2026-05-02T13:53:51.789Z</time></trkpt><trkpt lat="42.970685" lon="11.6045217"><ele>644.0</ele><time>2026-05-02T13:53:52.79Z</time></trkpt><trkpt lat="42.970815" lon="11.6043933"><ele>639.6666666666666</ele><time>2026-05-02T13:53:53.789Z</time></trkpt><trkpt lat="42.970945" lon="11.60427"><ele>635.3333333333334</ele><time>2026-05-02T13:53:54.789Z</time></trkpt><trkpt lat="42.97107" lon="11.60414"><ele>631.0</ele><time>2026-05-02T13:53:55.79Z</time></trkpt><trkpt lat="42.9711917" lon="11.6040117"><ele>631.0</ele><time>2026-05-02T13:53:56.789Z</time></trkpt><trkpt lat="42.971305" lon="11.60388"><ele>631.0</ele><time>2026-05-02T13:53:57.79Z</time></trkpt><trkpt lat="42.9714067" lon="11.6037367"><ele>631.0</ele><time>2026-05-02T13:53:58.789Z</time></trkpt><trkpt lat="42.9714917" lon="11.60357"><ele>631.0</ele><time>2026-05-02T13:53:59.789Z</time></trkpt><trkpt lat="42.9715517" lon="11.6033917"><ele>630.75</ele><time>2026-05-02T13:54:00.789Z</time></trkpt><trkpt lat="42.9715883" lon="11.6032033"><ele>630.5</ele><time>2026-05-02T13:54:01.789Z</time></trkpt><trkpt lat="42.9716117" lon="11.6030167"><ele>630.25</ele><time>2026-05-02T13:54:02.789Z</time></trkpt><trkpt lat="42.9716517" lon="11.6028433"><ele>630.0</ele><time>2026-05-02T13:54:03.789Z</time></trkpt><trkpt lat="42.9717267" lon="11.6026883"><ele>630.0</ele><time>2026-05-02T13:54:04.789Z</time></trkpt><trkpt lat="42.9718267" lon="11.6025617"><ele>630.0</ele><time>2026-05-02T13:54:05.789Z</time></trkpt><trkpt lat="42.9719433" lon="11.6024717"><ele>630.0</ele><time>2026-05-02T13:54:06.789Z</time></trkpt><trkpt lat="42.9720717" lon="11.602425"><ele>630.0</ele><time>2026-05-02T13:54:07.787Z</time></trkpt><trkpt lat="42.972225" lon="11.60242"><ele>630.0</ele><time>2026-05-02T13:54:08.79Z</time></trkpt><trkpt lat="42.9723867" lon="11.6024133"><ele>630.0</ele><time>2026-05-02T13:54:09.789Z</time></trkpt><trkpt lat="42.9725533" lon="11.6023883"><ele>630.0</ele><time>2026-05-02T13:54:10.789Z</time></trkpt><trkpt lat="42.9727167" lon="11.6023433"><ele>626.6666666666666</ele><time>2026-05-02T13:54:11.789Z</time></trkpt><trkpt lat="42.9728683" lon="11.6022783"><ele>623.3333333333333</ele><time>2026-05-02T13:54:12.789Z</time></trkpt><trkpt lat="42.973015" lon="11.602195"><ele>620.0</ele><time>2026-05-02T13:54:13.789Z</time></trkpt><trkpt lat="42.97316" lon="11.6020883"><ele>623.3333333333333</ele><time>2026-05-02T13:54:14.789Z</time></trkpt><trkpt lat="42.9732967" lon="11.6019467"><ele>626.6666666666666</ele><time>2026-05-02T13:54:15.789Z</time></trkpt><trkpt lat="42.9734133" lon="11.60178"><ele>630.0</ele><time>2026-05-02T13:54:16.789Z</time></trkpt><trkpt lat="42.9735217" lon="11.6015883"><ele>624.0</ele><time>2026-05-02T13:54:17.789Z</time></trkpt><trkpt lat="42.973615" lon="11.6013967"><ele>618.0</ele><time>2026-05-02T13:54:18.786Z</time></trkpt><trkpt lat="42.9737" lon="11.60121"><ele>612.0</ele><time>2026-05-02T13:54:19.789Z</time></trkpt><trkpt lat="42.9737867" lon="11.6010383"><ele>612.0</ele><time>2026-05-02T13:54:20.79Z</time></trkpt><trkpt lat="42.97389" lon="11.6008967"><ele>612.0</ele><time>2026-05-02T13:54:21.789Z</time></trkpt><trkpt lat="42.97401" lon="11.6007967"><ele>612.0</ele><time>2026-05-02T13:54:22.789Z</time></trkpt><trkpt lat="42.974145" lon="11.60071"><ele>612.0</ele><time>2026-05-02T13:54:23.789Z</time></trkpt><trkpt lat="42.9742917" lon="11.6006267"><ele>609.0</ele><time>2026-05-02T13:54:24.79Z</time></trkpt><trkpt lat="42.9744433" lon="11.6005383"><ele>606.0</ele><time>2026-05-02T13:54:25.789Z</time></trkpt><trkpt lat="42.974595" lon="11.6004333"><ele>603.0</ele><time>2026-05-02T13:54:26.789Z</time></trkpt><trkpt lat="42.9747317" lon="11.6003117"><ele>603.0</ele><time>2026-05-02T13:54:27.789Z</time></trkpt><trkpt lat="42.97485" lon="11.6001667"><ele>603.0</ele><time>2026-05-02T13:54:28.789Z</time></trkpt><trkpt lat="42.974955" lon="11.60001"><ele>603.0</ele><time>2026-05-02T13:54:29.789Z</time></trkpt><trkpt lat="42.975045" lon="11.599845"><ele>599.25</ele><time>2026-05-02T13:54:30.789Z</time></trkpt><trkpt lat="42.97511" lon="11.5996667"><ele>595.5</ele><time>2026-05-02T13:54:31.79Z</time></trkpt><trkpt lat="42.975145" lon="11.5994767"><ele>591.75</ele><time>2026-05-02T13:54:32.789Z</time></trkpt><trkpt lat="42.975155" lon="11.5992733"><ele>588.0</ele><time>2026-05-02T13:54:33.789Z</time></trkpt><trkpt lat="42.975145" lon="11.59906"><ele>586.0</ele><time>2026-05-02T13:54:34.789Z</time></trkpt><trkpt lat="42.975115" lon="11.5988483"><ele>584.0</ele><time>2026-05-02T13:54:35.79Z</time></trkpt><trkpt lat="42.9750767" lon="11.5986417"><ele>582.0</ele><time>2026-05-02T13:54:36.789Z</time></trkpt><trkpt lat="42.9750333" lon="11.5984433"><ele>582.5</ele><time>2026-05-02T13:54:37.789Z</time></trkpt><trkpt lat="42.974995" lon="11.598255"><ele>583.0</ele><time>2026-05-02T13:54:38.79Z</time></trkpt><trkpt lat="42.974965" lon="11.5980783"><ele>583.5</ele><time>2026-05-02T13:54:39.79Z</time></trkpt><trkpt lat="42.9749617" lon="11.597925"><ele>584.0</ele><time>2026-05-02T13:54:40.789Z</time></trkpt><trkpt lat="42.97498" lon="11.597795"><ele>581.8</ele><time>2026-05-02T13:54:41.79Z</time></trkpt><trkpt lat="42.97503" lon="11.597695"><ele>579.5999999999999</ele><time>2026-05-02T13:54:42.789Z</time></trkpt><trkpt lat="42.9750983" lon="11.59764"><ele>577.4</ele><time>2026-05-02T13:54:43.79Z</time></trkpt><trkpt lat="42.97519" lon="11.5976317"><ele>575.1999999999999</ele><time>2026-05-02T13:54:44.79Z</time></trkpt><trkpt lat="42.9752833" lon="11.5976817"><ele>573.0</ele><time>2026-05-02T13:54:45.792Z</time></trkpt><trkpt lat="42.9753567" lon="11.59777"><ele>574.25</ele><time>2026-05-02T13:54:46.79Z</time></trkpt><trkpt lat="42.9754" lon="11.5979083"><ele>575.5</ele><time>2026-05-02T13:54:47.786Z</time></trkpt><trkpt lat="42.9754183" lon="11.5981967"><ele>576.75</ele><time>2026-05-02T13:54:48.786Z</time></trkpt><trkpt lat="42.97545" lon="11.5983583"><ele>578.0</ele><time>2026-05-02T13:54:49.786Z</time></trkpt><trkpt lat="42.9755017" lon="11.5985183"><ele>578.0</ele><time>2026-05-02T13:54:50.79Z</time></trkpt><trkpt lat="42.9755717" lon="11.5986517"><ele>578.0</ele><time>2026-05-02T13:54:51.789Z</time></trkpt><trkpt lat="42.9756633" lon="11.59877"><ele>578.0</ele><time>2026-05-02T13:54:52.789Z</time></trkpt><trkpt lat="42.97577" lon="11.5988817"><ele>578.0</ele><time>2026-05-02T13:54:53.789Z</time></trkpt><trkpt lat="42.9758817" lon="11.5989983"><ele>576.25</ele><time>2026-05-02T13:54:54.789Z</time></trkpt><trkpt lat="42.9759883" lon="11.5991183"><ele>574.5</ele><time>2026-05-02T13:54:55.789Z</time></trkpt><trkpt lat="42.97609" lon="11.5992333"><ele>572.75</ele><time>2026-05-02T13:54:56.789Z</time></trkpt><trkpt lat="42.9762" lon="11.5993283"><ele>571.0</ele><time>2026-05-02T13:54:57.79Z</time></trkpt><trkpt lat="42.9763283" lon="11.59939"><ele>571.0</ele><time>2026-05-02T13:54:58.79Z</time></trkpt><trkpt lat="42.9764733" lon="11.5994283"><ele>571.0</ele><time>2026-05-02T13:54:59.789Z</time></trkpt><trkpt lat="42.976625" lon="11.5994517"><ele>571.0</ele><time>2026-05-02T13:55:00.79Z</time></trkpt><trkpt lat="42.9767767" lon="11.5994667"><ele>570.75</ele><time>2026-05-02T13:55:01.789Z</time></trkpt><trkpt lat="42.976925" lon="11.599485"><ele>570.5</ele><time>2026-05-02T13:55:02.79Z</time></trkpt><trkpt lat="42.9770667" lon="11.5995067"><ele>570.25</ele><time>2026-05-02T13:55:03.789Z</time></trkpt><trkpt lat="42.9772017" lon="11.5995283"><ele>570.0</ele><time>2026-05-02T13:55:04.79Z</time></trkpt><trkpt lat="42.9773233" lon="11.5995483"><ele>570.0</ele><time>2026-05-02T13:55:05.79Z</time></trkpt><trkpt lat="42.977435" lon="11.5995633"><ele>570.0</ele><time>2026-05-02T13:55:06.789Z</time></trkpt><trkpt lat="42.9775317" lon="11.5995717"><ele>570.0</ele><time>2026-05-02T13:55:07.789Z</time></trkpt><trkpt lat="42.9776133" lon="11.5995717"><ele>570.0</ele><time>2026-05-02T13:55:08.789Z</time></trkpt><trkpt lat="42.977685" lon="11.5995533"><ele>570.0</ele><time>2026-05-02T13:55:09.79Z</time></trkpt><trkpt lat="42.9777717" lon="11.5994717"><ele>567.4</ele><time>2026-05-02T13:55:11.79Z</time></trkpt><trkpt lat="42.9778" lon="11.59936"><ele>564.8</ele><time>2026-05-02T13:55:13.79Z</time></trkpt><trkpt lat="42.97779" lon="11.5992717"><ele>562.2</ele><time>2026-05-02T13:55:14.788Z</time></trkpt><trkpt lat="42.9777517" lon="11.5991517"><ele>559.6</ele><time>2026-05-02T13:55:15.789Z</time></trkpt><trkpt lat="42.9777" lon="11.5990167"><ele>557.0</ele><time>2026-05-02T13:55:16.788Z</time></trkpt><trkpt lat="42.9776467" lon="11.5988667"><ele>557.0</ele><time>2026-05-02T13:55:17.788Z</time></trkpt><trkpt lat="42.9775933" lon="11.5987133"><ele>557.0</ele><time>2026-05-02T13:55:18.788Z</time></trkpt><trkpt lat="42.9775417" lon="11.5985733"><ele>557.0</ele><time>2026-05-02T13:55:19.788Z</time></trkpt><trkpt lat="42.9774883" lon="11.5984483"><ele>557.0</ele><time>2026-05-02T13:55:20.788Z</time></trkpt><trkpt lat="42.9774317" lon="11.59833"><ele>557.0</ele><time>2026-05-02T13:55:21.788Z</time></trkpt><trkpt lat="42.9773633" lon="11.5982117"><ele>557.5</ele><time>2026-05-02T13:55:22.79Z</time></trkpt><trkpt lat="42.977285" lon="11.59809"><ele>558.0</ele><time>2026-05-02T13:55:23.789Z</time></trkpt><trkpt lat="42.9772" lon="11.597965"><ele>558.5</ele><time>2026-05-02T13:55:24.788Z</time></trkpt><trkpt lat="42.9771067" lon="11.5978383"><ele>559.0</ele><time>2026-05-02T13:55:25.788Z</time></trkpt><trkpt lat="42.977015" lon="11.5977083"><ele>559.0</ele><time>2026-05-02T13:55:26.789Z</time></trkpt><trkpt lat="42.9769267" lon="11.5975767"><ele>559.0</ele><time>2026-05-02T13:55:27.789Z</time></trkpt><trkpt lat="42.976835" lon="11.5974517"><ele>559.0</ele><time>2026-05-02T13:55:28.789Z</time></trkpt><trkpt lat="42.9767417" lon="11.59733"><ele>559.0</ele><time>2026-05-02T13:55:29.788Z</time></trkpt><trkpt lat="42.9766433" lon="11.5972017"><ele>559.0</ele><time>2026-05-02T13:55:30.789Z</time></trkpt><trkpt lat="42.976545" lon="11.59706"><ele>559.0</ele><time>2026-05-02T13:55:31.788Z</time></trkpt><trkpt lat="42.976445" lon="11.5969133"><ele>559.0</ele><time>2026-05-02T13:55:32.788Z</time></trkpt><trkpt lat="42.976345" lon="11.59676"><ele>559.0</ele><time>2026-05-02T13:55:33.788Z</time></trkpt><trkpt lat="42.9762483" lon="11.596605"><ele>556.5</ele><time>2026-05-02T13:55:34.789Z</time></trkpt><trkpt lat="42.97616" lon="11.5964533"><ele>554.0</ele><time>2026-05-02T13:55:35.79Z</time></trkpt><trkpt lat="42.9760767" lon="11.5962983"><ele>551.5</ele><time>2026-05-02T13:55:36.788Z</time></trkpt><trkpt lat="42.9759983" lon="11.5961433"><ele>549.0</ele><time>2026-05-02T13:55:37.789Z</time></trkpt><trkpt lat="42.9759183" lon="11.595985"><ele>550.0</ele><time>2026-05-02T13:55:38.789Z</time></trkpt><trkpt lat="42.9758483" lon="11.5958317"><ele>551.0</ele><time>2026-05-02T13:55:39.788Z</time></trkpt><trkpt lat="42.9757817" lon="11.595675"><ele>552.0</ele><time>2026-05-02T13:55:40.79Z</time></trkpt><trkpt lat="42.97573" lon="11.595515"><ele>553.0</ele><time>2026-05-02T13:55:41.788Z</time></trkpt><trkpt lat="42.9757" lon="11.5953433"><ele>552.0</ele><time>2026-05-02T13:55:42.789Z</time></trkpt><trkpt lat="42.975685" lon="11.5951683"><ele>551.0</ele><time>2026-05-02T13:55:43.789Z</time></trkpt><trkpt lat="42.9756783" lon="11.5949767"><ele>550.0</ele><time>2026-05-02T13:55:44.789Z</time></trkpt><trkpt lat="42.975675" lon="11.5947833"><ele>549.0</ele><time>2026-05-02T13:55:45.789Z</time></trkpt><trkpt lat="42.9756717" lon="11.5945917"><ele>547.4</ele><time>2026-05-02T13:55:46.788Z</time></trkpt><trkpt lat="42.9756667" lon="11.5944083"><ele>545.8</ele><time>2026-05-02T13:55:47.789Z</time></trkpt><trkpt lat="42.9756533" lon="11.594245"><ele>544.2</ele><time>2026-05-02T13:55:48.788Z</time></trkpt><trkpt lat="42.9756217" lon="11.5941167"><ele>542.6</ele><time>2026-05-02T13:55:49.788Z</time></trkpt><trkpt lat="42.9755783" lon="11.59401"><ele>541.0</ele><time>2026-05-02T13:55:50.789Z</time></trkpt><trkpt lat="42.9755217" lon="11.5939183"><ele>541.0</ele><time>2026-05-02T13:55:51.788Z</time></trkpt><trkpt lat="42.9754517" lon="11.5938433"><ele>541.0</ele><time>2026-05-02T13:55:52.789Z</time></trkpt><trkpt lat="42.97536" lon="11.5937833"><ele>541.0</ele><time>2026-05-02T13:55:53.788Z</time></trkpt><trkpt lat="42.9752433" lon="11.59374"><ele>541.0</ele><time>2026-05-02T13:55:54.789Z</time></trkpt><trkpt lat="42.9751017" lon="11.5937117"><ele>542.6666666666667</ele><time>2026-05-02T13:55:55.789Z</time></trkpt><trkpt lat="42.9749517" lon="11.5936933"><ele>544.3333333333334</ele><time>2026-05-02T13:55:56.785Z</time></trkpt><trkpt lat="42.9748117" lon="11.5936733"><ele>546.0</ele><time>2026-05-02T13:55:57.786Z</time></trkpt><trkpt lat="42.9745817" lon="11.5935883"><ele>542.75</ele><time>2026-05-02T13:55:59.785Z</time></trkpt><trkpt lat="42.9745133" lon="11.593485"><ele>539.5</ele><time>2026-05-02T13:56:00.787Z</time></trkpt><trkpt lat="42.97449" lon="11.59334"><ele>536.25</ele><time>2026-05-02T13:56:01.785Z</time></trkpt><trkpt lat="42.9745" lon="11.5931633"><ele>533.0</ele><time>2026-05-02T13:56:02.787Z</time></trkpt><trkpt lat="42.9745183" lon="11.5929733"><ele>531.75</ele><time>2026-05-02T13:56:03.789Z</time></trkpt><trkpt lat="42.9745233" lon="11.5927733"><ele>530.5</ele><time>2026-05-02T13:56:04.789Z</time></trkpt><trkpt lat="42.9745" lon="11.5925733"><ele>529.25</ele><time>2026-05-02T13:56:05.788Z</time></trkpt><trkpt lat="42.974445" lon="11.5923767"><ele>528.0</ele><time>2026-05-02T13:56:06.789Z</time></trkpt><trkpt lat="42.974355" lon="11.59219"><ele>528.0</ele><time>2026-05-02T13:56:07.788Z</time></trkpt><trkpt lat="42.97425" lon="11.5920117"><ele>528.0</ele><time>2026-05-02T13:56:08.79Z</time></trkpt><trkpt lat="42.9741433" lon="11.5918433"><ele>528.0</ele><time>2026-05-02T13:56:09.789Z</time></trkpt><trkpt lat="42.9740467" lon="11.591685"><ele>527.0</ele><time>2026-05-02T13:56:10.788Z</time></trkpt><trkpt lat="42.9739567" lon="11.5915383"><ele>526.0</ele><time>2026-05-02T13:56:11.788Z</time></trkpt><trkpt lat="42.9738783" lon="11.5913917"><ele>525.0</ele><time>2026-05-02T13:56:12.788Z</time></trkpt><trkpt lat="42.9738117" lon="11.5912467"><ele>524.0</ele><time>2026-05-02T13:56:13.789Z</time></trkpt><trkpt lat="42.973765" lon="11.5911133"><ele>524.0</ele><time>2026-05-02T13:56:14.789Z</time></trkpt><trkpt lat="42.9737317" lon="11.591"><ele>524.0</ele><time>2026-05-02T13:56:15.788Z</time></trkpt><trkpt lat="42.973685" lon="11.590805"><ele>524.0</ele><time>2026-05-02T13:56:17.789Z</time></trkpt><trkpt lat="42.9736467" lon="11.59066"><ele>524.0</ele><time>2026-05-02T13:56:19.789Z</time></trkpt><trkpt lat="42.97362" lon="11.59056"><ele>524.0</ele><time>2026-05-02T13:56:21.789Z</time></trkpt><trkpt lat="42.9735967" lon="11.5904517"><ele>524.0</ele><time>2026-05-02T13:56:24.786Z</time></trkpt><trkpt lat="42.973585" lon="11.5903667"><ele>524.0</ele><time>2026-05-02T13:56:28.786Z</time></trkpt><trkpt lat="42.97355" lon="11.590265"><ele>524.0</ele><time>2026-05-02T14:20:46.789Z</time></trkpt><trkpt lat="42.973505" lon="11.5901417"><ele>524.0</ele><time>2026-05-02T14:20:48.789Z</time></trkpt><trkpt lat="42.973475" lon="11.5900517"><ele>524.0</ele><time>2026-05-02T14:20:49.789Z</time></trkpt><trkpt lat="42.9734417" lon="11.58996"><ele>524.0</ele><time>2026-05-02T14:20:50.789Z</time></trkpt><trkpt lat="42.9734067" lon="11.5898667"><ele>524.2</ele><time>2026-05-02T14:20:51.79Z</time></trkpt><trkpt lat="42.973365" lon="11.5897633"><ele>524.4</ele><time>2026-05-02T14:20:52.789Z</time></trkpt><trkpt lat="42.9733183" lon="11.5896517"><ele>524.6</ele><time>2026-05-02T14:20:53.79Z</time></trkpt><trkpt lat="42.9732717" lon="11.5895367"><ele>524.8</ele><time>2026-05-02T14:20:54.79Z</time></trkpt><trkpt lat="42.9732267" lon="11.5894167"><ele>525.0</ele><time>2026-05-02T14:20:55.789Z</time></trkpt><trkpt lat="42.9731833" lon="11.5892867"><ele>525.0</ele><time>2026-05-02T14:20:56.786Z</time></trkpt><trkpt lat="42.9731417" lon="11.5891467"><ele>525.0</ele><time>2026-05-02T14:20:57.789Z</time></trkpt><trkpt lat="42.97311" lon="11.58901"><ele>525.0</ele><time>2026-05-02T14:20:58.791Z</time></trkpt><trkpt lat="42.9730767" lon="11.58888"><ele>525.0</ele><time>2026-05-02T14:20:59.79Z</time></trkpt><trkpt lat="42.97304" lon="11.58875"><ele>525.0</ele><time>2026-05-02T14:21:00.788Z</time></trkpt><trkpt lat="42.97299" lon="11.5886367"><ele>523.2</ele><time>2026-05-02T14:21:01.789Z</time></trkpt><trkpt lat="42.9729167" lon="11.5885317"><ele>521.4</ele><time>2026-05-02T14:21:02.789Z</time></trkpt><trkpt lat="42.97283" lon="11.5884367"><ele>519.6</ele><time>2026-05-02T14:21:03.791Z</time></trkpt><trkpt lat="42.9727367" lon="11.5883517"><ele>517.8</ele><time>2026-05-02T14:21:04.79Z</time></trkpt><trkpt lat="42.9726433" lon="11.58827"><ele>516.0</ele><time>2026-05-02T14:21:05.791Z</time></trkpt><trkpt lat="42.972555" lon="11.588185"><ele>516.6</ele><time>2026-05-02T14:21:06.789Z</time></trkpt><trkpt lat="42.9724767" lon="11.5880817"><ele>517.2</ele><time>2026-05-02T14:21:07.789Z</time></trkpt><trkpt lat="42.9724083" lon="11.5879583"><ele>517.8</ele><time>2026-05-02T14:21:08.789Z</time></trkpt><trkpt lat="42.9723533" lon="11.5878217"><ele>518.4</ele><time>2026-05-02T14:21:09.789Z</time></trkpt><trkpt lat="42.9723067" lon="11.5876817"><ele>519.0</ele><time>2026-05-02T14:21:10.79Z</time></trkpt><trkpt lat="42.972265" lon="11.5875417"><ele>517.0</ele><time>2026-05-02T14:21:11.79Z</time></trkpt><trkpt lat="42.9722233" lon="11.5874"><ele>515.0</ele><time>2026-05-02T14:21:12.789Z</time></trkpt><trkpt lat="42.9721783" lon="11.5872583"><ele>513.0</ele><time>2026-05-02T14:21:13.789Z</time></trkpt><trkpt lat="42.9721267" lon="11.5871233"><ele>511.0</ele><time>2026-05-02T14:21:14.79Z</time></trkpt><trkpt lat="42.9720667" lon="11.5869983"><ele>509.0</ele><time>2026-05-02T14:21:15.789Z</time></trkpt><trkpt lat="42.9720033" lon="11.5868833"><ele>506.25</ele><time>2026-05-02T14:21:16.789Z</time></trkpt><trkpt lat="42.9719367" lon="11.5867783"><ele>503.5</ele><time>2026-05-02T14:21:17.79Z</time></trkpt><trkpt lat="42.9718767" lon="11.5866733"><ele>500.75</ele><time>2026-05-02T14:21:18.788Z</time></trkpt><trkpt lat="42.971825" lon="11.5865633"><ele>498.0</ele><time>2026-05-02T14:21:19.788Z</time></trkpt><trkpt lat="42.9717" lon="11.5863533"><ele>499.0</ele><time>2026-05-02T14:21:21.189Z</time></trkpt><trkpt lat="42.9716283" lon="11.58609"><ele>500.0</ele><time>2026-05-02T14:21:23.785Z</time></trkpt><trkpt lat="42.971585" lon="11.5859533"><ele>501.0</ele><time>2026-05-02T14:21:24.786Z</time></trkpt><trkpt lat="42.971535" lon="11.5858083"><ele>502.0</ele><time>2026-05-02T14:21:25.787Z</time></trkpt><trkpt lat="42.971485" lon="11.5856683"><ele>502.0</ele><time>2026-05-02T14:21:26.787Z</time></trkpt><trkpt lat="42.9714267" lon="11.5855233"><ele>502.0</ele><time>2026-05-02T14:21:27.786Z</time></trkpt><trkpt lat="42.971355" lon="11.5853817"><ele>502.0</ele><time>2026-05-02T14:21:28.786Z</time></trkpt><trkpt lat="42.971265" lon="11.5852583"><ele>502.0</ele><time>2026-05-02T14:21:29.786Z</time></trkpt><trkpt lat="42.9711683" lon="11.5851533"><ele>501.25</ele><time>2026-05-02T14:21:30.786Z</time></trkpt><trkpt lat="42.97107" lon="11.5850517"><ele>500.5</ele><time>2026-05-02T14:21:31.786Z</time></trkpt><trkpt lat="42.970975" lon="11.58495"><ele>499.75</ele><time>2026-05-02T14:21:32.786Z</time></trkpt><trkpt lat="42.97088" lon="11.5848517"><ele>499.0</ele><time>2026-05-02T14:21:33.786Z</time></trkpt><trkpt lat="42.9708" lon="11.5847467"><ele>499.0</ele><time>2026-05-02T14:21:34.787Z</time></trkpt><trkpt lat="42.9707483" lon="11.584625"><ele>499.0</ele><time>2026-05-02T14:21:35.787Z</time></trkpt><trkpt lat="42.970745" lon="11.5844767"><ele>499.0</ele><time>2026-05-02T14:21:36.787Z</time></trkpt><trkpt lat="42.9707783" lon="11.5843117"><ele>499.0</ele><time>2026-05-02T14:21:37.787Z</time></trkpt><trkpt lat="42.9708267" lon="11.584145"><ele>495.25</ele><time>2026-05-02T14:21:38.788Z</time></trkpt><trkpt lat="42.9708717" lon="11.58398"><ele>491.5</ele><time>2026-05-02T14:21:39.788Z</time></trkpt><trkpt lat="42.9708967" lon="11.5838183"><ele>487.75</ele><time>2026-05-02T14:21:40.788Z</time></trkpt><trkpt lat="42.9708817" lon="11.5836567"><ele>484.0</ele><time>2026-05-02T14:21:41.787Z</time></trkpt><trkpt lat="42.9708233" lon="11.58351"><ele>483.75</ele><time>2026-05-02T14:21:42.786Z</time></trkpt><trkpt lat="42.970725" lon="11.5833817"><ele>483.5</ele><time>2026-05-02T14:21:43.786Z</time></trkpt><trkpt lat="42.9706067" lon="11.5832667"><ele>483.25</ele><time>2026-05-02T14:21:44.787Z</time></trkpt><trkpt lat="42.970485" lon="11.58315"><ele>483.0</ele><time>2026-05-02T14:21:45.786Z</time></trkpt><trkpt lat="42.97037" lon="11.5830467"><ele>483.0</ele><time>2026-05-02T14:21:46.786Z</time></trkpt><trkpt lat="42.970255" lon="11.5829717"><ele>483.0</ele><time>2026-05-02T14:21:47.787Z</time></trkpt><trkpt lat="42.9701283" lon="11.5829417"><ele>483.0</ele><time>2026-05-02T14:21:48.786Z</time></trkpt><trkpt lat="42.969995" lon="11.5829633"><ele>483.0</ele><time>2026-05-02T14:21:49.786Z</time></trkpt><trkpt lat="42.969865" lon="11.58303"><ele>482.75</ele><time>2026-05-02T14:21:50.786Z</time></trkpt><trkpt lat="42.9697517" lon="11.58314"><ele>482.5</ele><time>2026-05-02T14:21:51.786Z</time></trkpt><trkpt lat="42.9696533" lon="11.5832833"><ele>482.25</ele><time>2026-05-02T14:21:52.786Z</time></trkpt><trkpt lat="42.9695667" lon="11.583455"><ele>482.0</ele><time>2026-05-02T14:21:53.787Z</time></trkpt><trkpt lat="42.9694833" lon="11.5836217"><ele>481.5</ele><time>2026-05-02T14:21:54.786Z</time></trkpt><trkpt lat="42.9693983" lon="11.58376"><ele>481.0</ele><time>2026-05-02T14:21:55.787Z</time></trkpt><trkpt lat="42.9693083" lon="11.5838533"><ele>480.5</ele><time>2026-05-02T14:21:56.787Z</time></trkpt><trkpt lat="42.96921" lon="11.583895"><ele>480.0</ele><time>2026-05-02T14:21:57.786Z</time></trkpt><trkpt lat="42.9691033" lon="11.5838783"><ele>480.0</ele><time>2026-05-02T14:21:58.786Z</time></trkpt><trkpt lat="42.9690017" lon="11.5837933"><ele>480.0</ele><time>2026-05-02T14:21:59.787Z</time></trkpt><trkpt lat="42.9689033" lon="11.5836967"><ele>480.0</ele><time>2026-05-02T14:22:00.787Z</time></trkpt><trkpt lat="42.9687967" lon="11.58364"><ele>480.0</ele><time>2026-05-02T14:22:01.788Z</time></trkpt><trkpt lat="42.9686867" lon="11.5836467"><ele>480.0</ele><time>2026-05-02T14:22:02.786Z</time></trkpt><trkpt lat="42.9685783" lon="11.5837133"><ele>480.0</ele><time>2026-05-02T14:22:03.786Z</time></trkpt><trkpt lat="42.9684717" lon="11.5838167"><ele>480.0</ele><time>2026-05-02T14:22:04.787Z</time></trkpt><trkpt lat="42.9683667" lon="11.5839267"><ele>480.0</ele><time>2026-05-02T14:22:05.787Z</time></trkpt><trkpt lat="42.9682633" lon="11.58402"><ele>478.6</ele><time>2026-05-02T14:22:06.786Z</time></trkpt><trkpt lat="42.968155" lon="11.5840783"><ele>477.2</ele><time>2026-05-02T14:22:07.786Z</time></trkpt><trkpt lat="42.9680467" lon="11.5840833"><ele>475.79999999999995</ele><time>2026-05-02T14:22:08.786Z</time></trkpt><trkpt lat="42.9679417" lon="11.5840433"><ele>474.4</ele><time>2026-05-02T14:22:09.786Z</time></trkpt><trkpt lat="42.9678517" lon="11.5839517"><ele>473.0</ele><time>2026-05-02T14:22:10.786Z</time></trkpt><trkpt lat="42.9677817" lon="11.5838267"><ele>473.0</ele><time>2026-05-02T14:22:11.786Z</time></trkpt><trkpt lat="42.9677367" lon="11.5836833"><ele>473.0</ele><time>2026-05-02T14:22:12.787Z</time></trkpt><trkpt lat="42.9677367" lon="11.5835333"><ele>473.0</ele><time>2026-05-02T14:22:13.786Z</time></trkpt><trkpt lat="42.967775" lon="11.5833817"><ele>473.0</ele><time>2026-05-02T14:22:14.787Z</time></trkpt><trkpt lat="42.9678533" lon="11.583245"><ele>470.75</ele><time>2026-05-02T14:22:15.786Z</time></trkpt><trkpt lat="42.9679517" lon="11.583125"><ele>468.5</ele><time>2026-05-02T14:22:16.787Z</time></trkpt><trkpt lat="42.9680667" lon="11.583035"><ele>466.25</ele><time>2026-05-02T14:22:17.787Z</time></trkpt><trkpt lat="42.9681917" lon="11.5829933"><ele>464.0</ele><time>2026-05-02T14:22:18.787Z</time></trkpt><trkpt lat="42.9683183" lon="11.5829817"><ele>464.4</ele><time>2026-05-02T14:22:19.786Z</time></trkpt><trkpt lat="42.96843" lon="11.582965"><ele>464.79999999999995</ele><time>2026-05-02T14:22:20.786Z</time></trkpt><trkpt lat="42.968525" lon="11.5829183"><ele>465.20000000000005</ele><time>2026-05-02T14:22:21.786Z</time></trkpt><trkpt lat="42.968595" lon="11.5828183"><ele>465.6</ele><time>2026-05-02T14:22:22.787Z</time></trkpt><trkpt lat="42.9686333" lon="11.5826683"><ele>466.0</ele><time>2026-05-02T14:22:23.788Z</time></trkpt><trkpt lat="42.968645" lon="11.58249"><ele>466.0</ele><time>2026-05-02T14:22:24.789Z</time></trkpt><trkpt lat="42.9686333" lon="11.5822933"><ele>466.0</ele><time>2026-05-02T14:22:25.79Z</time></trkpt><trkpt lat="42.9686183" lon="11.5820867"><ele>466.0</ele><time>2026-05-02T14:22:26.786Z</time></trkpt><trkpt lat="42.9686167" lon="11.5818767"><ele>463.0</ele><time>2026-05-02T14:22:27.786Z</time></trkpt><trkpt lat="42.96863" lon="11.5816617"><ele>460.0</ele><time>2026-05-02T14:22:28.786Z</time></trkpt><trkpt lat="42.96866" lon="11.5814583"><ele>457.0</ele><time>2026-05-02T14:22:29.786Z</time></trkpt><trkpt lat="42.968715" lon="11.5812667"><ele>454.0</ele><time>2026-05-02T14:22:30.786Z</time></trkpt><trkpt lat="42.968795" lon="11.5811"><ele>451.0</ele><time>2026-05-02T14:22:31.785Z</time></trkpt><trkpt lat="42.9688983" lon="11.58095"><ele>448.0</ele><time>2026-05-02T14:22:32.786Z</time></trkpt><trkpt lat="42.9690233" lon="11.5808067"><ele>448.0</ele><time>2026-05-02T14:22:33.79Z</time></trkpt><trkpt lat="42.969155" lon="11.5806633"><ele>448.0</ele><time>2026-05-02T14:22:34.786Z</time></trkpt><trkpt lat="42.969285" lon="11.58052"><ele>448.0</ele><time>2026-05-02T14:22:35.786Z</time></trkpt><trkpt lat="42.96941" lon="11.5803867"><ele>444.6666666666667</ele><time>2026-05-02T14:22:36.786Z</time></trkpt><trkpt lat="42.969535" lon="11.580255"><ele>441.33333333333337</ele><time>2026-05-02T14:22:37.785Z</time></trkpt><trkpt lat="42.96966" lon="11.5801283"><ele>438.0</ele><time>2026-05-02T14:22:38.789Z</time></trkpt><trkpt lat="42.96978" lon="11.5800017"><ele>438.0</ele><time>2026-05-02T14:22:39.785Z</time></trkpt><trkpt lat="42.969895" lon="11.5798833"><ele>438.0</ele><time>2026-05-02T14:22:40.786Z</time></trkpt><trkpt lat="42.9700117" lon="11.579775"><ele>438.0</ele><time>2026-05-02T14:22:41.786Z</time></trkpt><trkpt lat="42.9701383" lon="11.579695"><ele>438.0</ele><time>2026-05-02T14:22:42.789Z</time></trkpt><trkpt lat="42.9702767" lon="11.5796717"><ele>437.5</ele><time>2026-05-02T14:22:43.789Z</time></trkpt><trkpt lat="42.9704133" lon="11.5797133"><ele>437.0</ele><time>2026-05-02T14:22:44.79Z</time></trkpt><trkpt lat="42.970545" lon="11.5797583"><ele>436.5</ele><time>2026-05-02T14:22:45.789Z</time></trkpt><trkpt lat="42.9706767" lon="11.5797667"><ele>436.0</ele><time>2026-05-02T14:22:46.79Z</time></trkpt><trkpt lat="42.970805" lon="11.579725"><ele>435.5</ele><time>2026-05-02T14:22:47.79Z</time></trkpt><trkpt lat="42.9709317" lon="11.5796483"><ele>435.0</ele><time>2026-05-02T14:22:48.79Z</time></trkpt><trkpt lat="42.9710567" lon="11.5795617"><ele>434.5</ele><time>2026-05-02T14:22:49.786Z</time></trkpt><trkpt lat="42.9711883" lon="11.5794817"><ele>434.0</ele><time>2026-05-02T14:22:50.786Z</time></trkpt><trkpt lat="42.9713317" lon="11.57942"><ele>431.25</ele><time>2026-05-02T14:22:51.789Z</time></trkpt><trkpt lat="42.9714767" lon="11.5793867"><ele>428.5</ele><time>2026-05-02T14:22:52.786Z</time></trkpt><trkpt lat="42.971625" lon="11.5793567"><ele>425.75</ele><time>2026-05-02T14:22:53.789Z</time></trkpt><trkpt lat="42.9717717" lon="11.5793233"><ele>423.0</ele><time>2026-05-02T14:22:54.789Z</time></trkpt><trkpt lat="42.9719167" lon="11.5792917"><ele>421.5</ele><time>2026-05-02T14:22:55.79Z</time></trkpt><trkpt lat="42.972055" lon="11.5792783"><ele>420.0</ele><time>2026-05-02T14:22:56.788Z</time></trkpt><trkpt lat="42.9721867" lon="11.5792983"><ele>418.5</ele><time>2026-05-02T14:22:57.788Z</time></trkpt><trkpt lat="42.9723067" lon="11.5793517"><ele>417.0</ele><time>2026-05-02T14:22:58.787Z</time></trkpt><trkpt lat="42.9724217" lon="11.5794067"><ele>414.8</ele><time>2026-05-02T14:22:59.789Z</time></trkpt><trkpt lat="42.97253" lon="11.5794333"><ele>412.6</ele><time>2026-05-02T14:23:00.788Z</time></trkpt><trkpt lat="42.972625" lon="11.57941"><ele>410.40000000000003</ele><time>2026-05-02T14:23:01.788Z</time></trkpt><trkpt lat="42.9727017" lon="11.5793267"><ele>408.20000000000005</ele><time>2026-05-02T14:23:02.788Z</time></trkpt><trkpt lat="42.9727467" lon="11.5792083"><ele>406.0</ele><time>2026-05-02T14:23:03.789Z</time></trkpt><trkpt lat="42.9727433" lon="11.5790783"><ele>406.0</ele><time>2026-05-02T14:23:04.789Z</time></trkpt><trkpt lat="42.9727" lon="11.5789517"><ele>406.0</ele><time>2026-05-02T14:23:05.789Z</time></trkpt><trkpt lat="42.97262" lon="11.5788617"><ele>406.0</ele><time>2026-05-02T14:23:06.789Z</time></trkpt><trkpt lat="42.97251" lon="11.5788133"><ele>406.0</ele><time>2026-05-02T14:23:07.789Z</time></trkpt><trkpt lat="42.9723867" lon="11.5787767"><ele>406.0</ele><time>2026-05-02T14:23:08.787Z</time></trkpt><trkpt lat="42.97226" lon="11.578735"><ele>405.75</ele><time>2026-05-02T14:23:09.791Z</time></trkpt><trkpt lat="42.97214" lon="11.5786633"><ele>405.5</ele><time>2026-05-02T14:23:10.789Z</time></trkpt><trkpt lat="42.9720367" lon="11.578555"><ele>405.25</ele><time>2026-05-02T14:23:11.79Z</time></trkpt><trkpt lat="42.9719467" lon="11.5784217"><ele>405.0</ele><time>2026-05-02T14:23:12.789Z</time></trkpt><trkpt lat="42.9718567" lon="11.5782733"><ele>405.0</ele><time>2026-05-02T14:23:13.791Z</time></trkpt><trkpt lat="42.971755" lon="11.5781367"><ele>405.0</ele><time>2026-05-02T14:23:14.789Z</time></trkpt><trkpt lat="42.9716383" lon="11.5780267"><ele>405.0</ele><time>2026-05-02T14:23:15.789Z</time></trkpt><trkpt lat="42.9715133" lon="11.577935"><ele>405.0</ele><time>2026-05-02T14:23:16.789Z</time></trkpt><trkpt lat="42.9714033" lon="11.5778267"><ele>403.25</ele><time>2026-05-02T14:23:17.789Z</time></trkpt><trkpt lat="42.9713117" lon="11.5776883"><ele>401.5</ele><time>2026-05-02T14:23:18.789Z</time></trkpt><trkpt lat="42.97123" lon="11.577525"><ele>399.75</ele><time>2026-05-02T14:23:19.789Z</time></trkpt><trkpt lat="42.97115" lon="11.57736"><ele>398.0</ele><time>2026-05-02T14:23:20.79Z</time></trkpt><trkpt lat="42.97106" lon="11.5772217"><ele>398.0</ele><time>2026-05-02T14:23:21.789Z</time></trkpt><trkpt lat="42.9709567" lon="11.57712"><ele>398.0</ele><time>2026-05-02T14:23:22.789Z</time></trkpt><trkpt lat="42.9708433" lon="11.577065"><ele>398.0</ele><time>2026-05-02T14:23:23.789Z</time></trkpt><trkpt lat="42.9707133" lon="11.5770633"><ele>398.0</ele><time>2026-05-02T14:23:24.79Z</time></trkpt><trkpt lat="42.9705917" lon="11.577095"><ele>397.4</ele><time>2026-05-02T14:23:25.789Z</time></trkpt><trkpt lat="42.970475" lon="11.577115"><ele>396.79999999999995</ele><time>2026-05-02T14:23:26.788Z</time></trkpt><trkpt lat="42.970365" lon="11.5770917"><ele>396.2</ele><time>2026-05-02T14:23:27.786Z</time></trkpt><trkpt lat="42.9702817" lon="11.5770217"><ele>395.6</ele><time>2026-05-02T14:23:28.786Z</time></trkpt><trkpt lat="42.97024" lon="11.57691"><ele>395.0</ele><time>2026-05-02T14:23:29.787Z</time></trkpt><trkpt lat="42.97021" lon="11.5767917"><ele>395.0</ele><time>2026-05-02T14:23:30.786Z</time></trkpt><trkpt lat="42.9702083" lon="11.5766633"><ele>395.0</ele><time>2026-05-02T14:23:31.786Z</time></trkpt><trkpt lat="42.9702683" lon="11.5765417"><ele>395.0</ele><time>2026-05-02T14:23:32.786Z</time></trkpt><trkpt lat="42.97039" lon="11.57645"><ele>395.0</ele><time>2026-05-02T14:23:33.786Z</time></trkpt><trkpt lat="42.9705117" lon="11.5763917"><ele>395.0</ele><time>2026-05-02T14:23:34.788Z</time></trkpt><trkpt lat="42.9706717" lon="11.576345"><ele>395.0</ele><time>2026-05-02T14:23:35.79Z</time></trkpt><trkpt lat="42.9708017" lon="11.57637"><ele>395.0</ele><time>2026-05-02T14:23:36.79Z</time></trkpt><trkpt lat="42.970925" lon="11.5764433"><ele>395.0</ele><time>2026-05-02T14:23:37.789Z</time></trkpt><trkpt lat="42.9710433" lon="11.576555"><ele>393.0</ele><time>2026-05-02T14:23:38.789Z</time></trkpt><trkpt lat="42.9711717" lon="11.5766883"><ele>391.0</ele><time>2026-05-02T14:23:39.79Z</time></trkpt><trkpt lat="42.9712867" lon="11.5768033"><ele>389.0</ele><time>2026-05-02T14:23:40.79Z</time></trkpt><trkpt lat="42.971395" lon="11.5768867"><ele>387.0</ele><time>2026-05-02T14:23:41.79Z</time></trkpt><trkpt lat="42.9715017" lon="11.5769233"><ele>387.0</ele><time>2026-05-02T14:23:42.787Z</time></trkpt><trkpt lat="42.9715983" lon="11.5769133"><ele>387.0</ele><time>2026-05-02T14:23:43.787Z</time></trkpt><trkpt lat="42.9716917" lon="11.57686"><ele>387.0</ele><time>2026-05-02T14:23:44.79Z</time></trkpt><trkpt lat="42.9717533" lon="11.5767533"><ele>387.0</ele><time>2026-05-02T14:23:45.786Z</time></trkpt><trkpt lat="42.97178" lon="11.5766067"><ele>387.0</ele><time>2026-05-02T14:23:46.789Z</time></trkpt><trkpt lat="42.971755" lon="11.5764467"><ele>385.5</ele><time>2026-05-02T14:23:47.789Z</time></trkpt><trkpt lat="42.9716917" lon="11.5763083"><ele>384.0</ele><time>2026-05-02T14:23:48.79Z</time></trkpt><trkpt lat="42.9716067" lon="11.57618"><ele>382.5</ele><time>2026-05-02T14:23:49.789Z</time></trkpt><trkpt lat="42.9715067" lon="11.5760517"><ele>381.0</ele><time>2026-05-02T14:23:50.79Z</time></trkpt><trkpt lat="42.9714133" lon="11.5759217"><ele>380.25</ele><time>2026-05-02T14:23:51.789Z</time></trkpt><trkpt lat="42.9713367" lon="11.5757717"><ele>379.5</ele><time>2026-05-02T14:23:52.789Z</time></trkpt><trkpt lat="42.9712783" lon="11.575605"><ele>378.75</ele><time>2026-05-02T14:23:53.789Z</time></trkpt><trkpt lat="42.97123" lon="11.5754333"><ele>378.0</ele><time>2026-05-02T14:23:54.787Z</time></trkpt><trkpt lat="42.9711933" lon="11.57527"><ele>376.0</ele><time>2026-05-02T14:23:55.789Z</time></trkpt><trkpt lat="42.971155" lon="11.5751217"><ele>374.0</ele><time>2026-05-02T14:23:56.79Z</time></trkpt><trkpt lat="42.9710917" lon="11.5749983"><ele>372.0</ele><time>2026-05-02T14:23:57.79Z</time></trkpt><trkpt lat="42.9710067" lon="11.5749067"><ele>370.0</ele><time>2026-05-02T14:23:58.79Z</time></trkpt><trkpt lat="42.9708933" lon="11.5748617"><ele>371.0</ele><time>2026-05-02T14:23:59.79Z</time></trkpt><trkpt lat="42.9707633" lon="11.5748617"><ele>372.0</ele><time>2026-05-02T14:24:00.789Z</time></trkpt><trkpt lat="42.9706233" lon="11.574895"><ele>373.0</ele><time>2026-05-02T14:24:01.79Z</time></trkpt><trkpt lat="42.9705" lon="11.574955"><ele>374.0</ele><time>2026-05-02T14:24:02.79Z</time></trkpt><trkpt lat="42.9703817" lon="11.5750333"><ele>374.0</ele><time>2026-05-02T14:24:03.786Z</time></trkpt><trkpt lat="42.97027" lon="11.5750983"><ele>374.0</ele><time>2026-05-02T14:24:04.789Z</time></trkpt><trkpt lat="42.970155" lon="11.5751167"><ele>374.0</ele><time>2026-05-02T14:24:05.789Z</time></trkpt><trkpt lat="42.9700367" lon="11.5750967"><ele>374.0</ele><time>2026-05-02T14:24:06.79Z</time></trkpt><trkpt lat="42.969915" lon="11.5750467"><ele>373.0</ele><time>2026-05-02T14:24:07.789Z</time></trkpt><trkpt lat="42.9697933" lon="11.5749767"><ele>372.0</ele><time>2026-05-02T14:24:08.789Z</time></trkpt><trkpt lat="42.9696783" lon="11.57491"><ele>371.0</ele><time>2026-05-02T14:24:09.789Z</time></trkpt><trkpt lat="42.969575" lon="11.57485"><ele>370.0</ele><time>2026-05-02T14:24:10.788Z</time></trkpt><trkpt lat="42.969495" lon="11.574785"><ele>370.0</ele><time>2026-05-02T14:24:11.788Z</time></trkpt><trkpt lat="42.96944" lon="11.5747033"><ele>370.0</ele><time>2026-05-02T14:24:12.788Z</time></trkpt><trkpt lat="42.96941" lon="11.5746117"><ele>370.0</ele><time>2026-05-02T14:24:13.788Z</time></trkpt><trkpt lat="42.9694083" lon="11.5745017"><ele>370.0</ele><time>2026-05-02T14:24:14.788Z</time></trkpt><trkpt lat="42.9694217" lon="11.5743933"><ele>370.0</ele><time>2026-05-02T14:24:15.788Z</time></trkpt><trkpt lat="42.969465" lon="11.5743017"><ele>370.0</ele><time>2026-05-02T14:24:16.788Z</time></trkpt><trkpt lat="42.9695883" lon="11.57422"><ele>367.75</ele><time>2026-05-02T14:24:17.786Z</time></trkpt><trkpt lat="42.9697483" lon="11.57416"><ele>365.5</ele><time>2026-05-02T14:24:18.785Z</time></trkpt><trkpt lat="42.9698833" lon="11.574095"><ele>363.25</ele><time>2026-05-02T14:24:19.785Z</time></trkpt><trkpt lat="42.9699967" lon="11.574025"><ele>361.0</ele><time>2026-05-02T14:24:20.788Z</time></trkpt><trkpt lat="42.9700767" lon="11.573945"><ele>361.0</ele><time>2026-05-02T14:24:21.789Z</time></trkpt><trkpt lat="42.970135" lon="11.573855"><ele>361.0</ele><time>2026-05-02T14:24:22.785Z</time></trkpt><trkpt lat="42.9701817" lon="11.5737683"><ele>361.0</ele><time>2026-05-02T14:24:23.789Z</time></trkpt><trkpt lat="42.9702333" lon="11.573685"><ele>361.0</ele><time>2026-05-02T14:24:24.786Z</time></trkpt><trkpt lat="42.970305" lon="11.573615"><ele>361.0</ele><time>2026-05-02T14:24:25.791Z</time></trkpt><trkpt lat="42.9703883" lon="11.573555"><ele>361.0</ele><time>2026-05-02T14:24:26.786Z</time></trkpt><trkpt lat="42.9704983" lon="11.57351"><ele>359.0</ele><time>2026-05-02T14:24:27.786Z</time></trkpt><trkpt lat="42.9706117" lon="11.5734683"><ele>357.0</ele><time>2026-05-02T14:24:28.786Z</time></trkpt><trkpt lat="42.9707217" lon="11.5734183"><ele>355.0</ele><time>2026-05-02T14:24:29.787Z</time></trkpt><trkpt lat="42.9708183" lon="11.57335"><ele>353.0</ele><time>2026-05-02T14:24:30.789Z</time></trkpt><trkpt lat="42.9708933" lon="11.57325"><ele>351.0</ele><time>2026-05-02T14:24:31.787Z</time></trkpt><trkpt lat="42.9709417" lon="11.5731117"><ele>351.0</ele><time>2026-05-02T14:24:32.786Z</time></trkpt><trkpt lat="42.9709683" lon="11.5729467"><ele>351.0</ele><time>2026-05-02T14:24:33.789Z</time></trkpt><trkpt lat="42.9709767" lon="11.5727583"><ele>351.0</ele><time>2026-05-02T14:24:34.789Z</time></trkpt><trkpt lat="42.9709867" lon="11.5725583"><ele>351.0</ele><time>2026-05-02T14:24:35.79Z</time></trkpt><trkpt lat="42.971" lon="11.5723633"><ele>349.25</ele><time>2026-05-02T14:24:36.785Z</time></trkpt><trkpt lat="42.971025" lon="11.5721617"><ele>347.5</ele><time>2026-05-02T14:24:37.786Z</time></trkpt><trkpt lat="42.9710567" lon="11.571965"><ele>345.75</ele><time>2026-05-02T14:24:38.785Z</time></trkpt><trkpt lat="42.9711033" lon="11.5717683"><ele>344.0</ele><time>2026-05-02T14:24:39.789Z</time></trkpt><trkpt lat="42.97116" lon="11.5715717"><ele>341.6666666666667</ele><time>2026-05-02T14:24:40.787Z</time></trkpt><trkpt lat="42.9712233" lon="11.571365"><ele>339.3333333333333</ele><time>2026-05-02T14:24:41.787Z</time></trkpt><trkpt lat="42.9712883" lon="11.571155"><ele>337.0</ele><time>2026-05-02T14:24:42.788Z</time></trkpt><trkpt lat="42.9713567" lon="11.57093"><ele>335.0</ele><time>2026-05-02T14:24:43.787Z</time></trkpt><trkpt lat="42.9714233" lon="11.5707133"><ele>333.0</ele><time>2026-05-02T14:24:44.787Z</time></trkpt><trkpt lat="42.9714833" lon="11.5705033"><ele>331.0</ele><time>2026-05-02T14:24:45.786Z</time></trkpt><trkpt lat="42.9715467" lon="11.5703"><ele>330.0</ele><time>2026-05-02T14:24:46.787Z</time></trkpt><trkpt lat="42.9716167" lon="11.5701133"><ele>329.0</ele><time>2026-05-02T14:24:47.787Z</time></trkpt><trkpt lat="42.9716983" lon="11.5699483"><ele>328.0</ele><time>2026-05-02T14:24:48.786Z</time></trkpt><trkpt lat="42.97179" lon="11.5698033"><ele>327.0</ele><time>2026-05-02T14:24:49.792Z</time></trkpt><trkpt lat="42.9718933" lon="11.5696683"><ele>325.75</ele><time>2026-05-02T14:24:50.788Z</time></trkpt><trkpt lat="42.9720033" lon="11.5695367"><ele>324.5</ele><time>2026-05-02T14:24:51.788Z</time></trkpt><trkpt lat="42.9721067" lon="11.5694033"><ele>323.25</ele><time>2026-05-02T14:24:52.787Z</time></trkpt><trkpt lat="42.9721967" lon="11.569265"><ele>322.0</ele><time>2026-05-02T14:24:53.786Z</time></trkpt><trkpt lat="42.9722733" lon="11.56911"><ele>322.0</ele><time>2026-05-02T14:24:54.788Z</time></trkpt><trkpt lat="42.9723333" lon="11.56894"><ele>322.0</ele><time>2026-05-02T14:24:55.79Z</time></trkpt><trkpt lat="42.9723733" lon="11.5687517"><ele>322.0</ele><time>2026-05-02T14:24:56.788Z</time></trkpt><trkpt lat="42.9723967" lon="11.5685633"><ele>322.0</ele><time>2026-05-02T14:24:57.789Z</time></trkpt><trkpt lat="42.9724183" lon="11.56838"><ele>322.5</ele><time>2026-05-02T14:24:58.789Z</time></trkpt><trkpt lat="42.9724533" lon="11.5682067"><ele>323.0</ele><time>2026-05-02T14:24:59.787Z</time></trkpt><trkpt lat="42.9725133" lon="11.5680517"><ele>323.5</ele><time>2026-05-02T14:25:00.786Z</time></trkpt><trkpt lat="42.9726083" lon="11.5679167"><ele>324.0</ele><time>2026-05-02T14:25:01.788Z</time></trkpt><trkpt lat="42.9727283" lon="11.5678083"><ele>321.6666666666667</ele><time>2026-05-02T14:25:02.789Z</time></trkpt><trkpt lat="42.9728617" lon="11.5677183"><ele>319.33333333333337</ele><time>2026-05-02T14:25:03.789Z</time></trkpt><trkpt lat="42.9730017" lon="11.567645"><ele>317.0</ele><time>2026-05-02T14:25:04.788Z</time></trkpt><trkpt lat="42.97315" lon="11.5675583"><ele>317.0</ele><time>2026-05-02T14:25:05.79Z</time></trkpt><trkpt lat="42.9732917" lon="11.5674717"><ele>317.0</ele><time>2026-05-02T14:25:06.786Z</time></trkpt><trkpt lat="42.97343" lon="11.5673733"><ele>317.0</ele><time>2026-05-02T14:25:07.785Z</time></trkpt><trkpt lat="42.9735583" lon="11.5672817"><ele>314.75</ele><time>2026-05-02T14:25:08.786Z</time></trkpt><trkpt lat="42.9736867" lon="11.567205"><ele>312.5</ele><time>2026-05-02T14:25:09.789Z</time></trkpt><trkpt lat="42.97381" lon="11.567145"><ele>310.25</ele><time>2026-05-02T14:25:10.79Z</time></trkpt><trkpt lat="42.9739283" lon="11.5670817"><ele>308.0</ele><time>2026-05-02T14:25:11.79Z</time></trkpt><trkpt lat="42.9740267" lon="11.5669867"><ele>308.0</ele><time>2026-05-02T14:25:12.786Z</time></trkpt><trkpt lat="42.9741" lon="11.5668517"><ele>308.0</ele><time>2026-05-02T14:25:13.788Z</time></trkpt><trkpt lat="42.9741467" lon="11.5666817"><ele>308.0</ele><time>2026-05-02T14:25:14.788Z</time></trkpt><trkpt lat="42.974175" lon="11.5664867"><ele>308.0</ele><time>2026-05-02T14:25:15.788Z</time></trkpt><trkpt lat="42.9741983" lon="11.5662767"><ele>302.6666666666667</ele><time>2026-05-02T14:25:16.789Z</time></trkpt><trkpt lat="42.9742317" lon="11.5660683"><ele>297.3333333333333</ele><time>2026-05-02T14:25:17.787Z</time></trkpt><trkpt lat="42.9742733" lon="11.5658667"><ele>292.0</ele><time>2026-05-02T14:25:18.791Z</time></trkpt><trkpt lat="42.974325" lon="11.565675"><ele>292.0</ele><time>2026-05-02T14:25:19.787Z</time></trkpt><trkpt lat="42.974385" lon="11.5654967"><ele>292.0</ele><time>2026-05-02T14:25:20.786Z</time></trkpt><trkpt lat="42.9744533" lon="11.5653317"><ele>292.0</ele><time>2026-05-02T14:25:21.787Z</time></trkpt><trkpt lat="42.9745383" lon="11.5651733"><ele>292.0</ele><time>2026-05-02T14:25:22.789Z</time></trkpt><trkpt lat="42.974625" lon="11.5650233"><ele>293.0</ele><time>2026-05-02T14:25:23.786Z</time></trkpt><trkpt lat="42.9747267" lon="11.5648917"><ele>294.0</ele><time>2026-05-02T14:25:24.786Z</time></trkpt><trkpt lat="42.9748433" lon="11.5647783"><ele>295.0</ele><time>2026-05-02T14:25:25.787Z</time></trkpt><trkpt lat="42.9749617" lon="11.5646683"><ele>296.0</ele><time>2026-05-02T14:25:26.788Z</time></trkpt><trkpt lat="42.9750783" lon="11.56455"><ele>292.0</ele><time>2026-05-02T14:25:27.786Z</time></trkpt><trkpt lat="42.975185" lon="11.564415"><ele>288.0</ele><time>2026-05-02T14:25:28.786Z</time></trkpt><trkpt lat="42.9752733" lon="11.5642583"><ele>284.0</ele><time>2026-05-02T14:25:29.788Z</time></trkpt><trkpt lat="42.97534" lon="11.5640767"><ele>280.0</ele><time>2026-05-02T14:25:30.788Z</time></trkpt><trkpt lat="42.975385" lon="11.5638783"><ele>282.0</ele><time>2026-05-02T14:25:31.786Z</time></trkpt><trkpt lat="42.9754267" lon="11.5636917"><ele>284.0</ele><time>2026-05-02T14:25:32.787Z</time></trkpt><trkpt lat="42.975465" lon="11.563505"><ele>286.0</ele><time>2026-05-02T14:25:33.788Z</time></trkpt><trkpt lat="42.9755083" lon="11.56334"><ele>288.0</ele><time>2026-05-02T14:25:34.788Z</time></trkpt><trkpt lat="42.97553" lon="11.5631867"><ele>288.0</ele><time>2026-05-02T14:25:35.788Z</time></trkpt><trkpt lat="42.9755083" lon="11.56305"><ele>288.0</ele><time>2026-05-02T14:25:36.788Z</time></trkpt><trkpt lat="42.9754417" lon="11.5629317"><ele>288.0</ele><time>2026-05-02T14:25:37.787Z</time></trkpt><trkpt lat="42.9753467" lon="11.5628517"><ele>288.0</ele><time>2026-05-02T14:25:38.79Z</time></trkpt><trkpt lat="42.9752233" lon="11.5628117"><ele>287.75</ele><time>2026-05-02T14:25:39.789Z</time></trkpt><trkpt lat="42.975085" lon="11.5628083"><ele>287.5</ele><time>2026-05-02T14:25:40.789Z</time></trkpt><trkpt lat="42.974945" lon="11.56282"><ele>287.25</ele><time>2026-05-02T14:25:41.79Z</time></trkpt><trkpt lat="42.97481" lon="11.562815"><ele>287.0</ele><time>2026-05-02T14:25:42.79Z</time></trkpt><trkpt lat="42.9746833" lon="11.5627767"><ele>287.5</ele><time>2026-05-02T14:25:43.789Z</time></trkpt><trkpt lat="42.9745667" lon="11.5627017"><ele>288.0</ele><time>2026-05-02T14:25:44.79Z</time></trkpt><trkpt lat="42.9744567" lon="11.5626"><ele>288.5</ele><time>2026-05-02T14:25:45.786Z</time></trkpt><trkpt lat="42.974365" lon="11.562485"><ele>289.0</ele><time>2026-05-02T14:25:46.789Z</time></trkpt><trkpt lat="42.9742917" lon="11.5623533"><ele>289.0</ele><time>2026-05-02T14:25:47.788Z</time></trkpt><trkpt lat="42.9742483" lon="11.5622133"><ele>289.0</ele><time>2026-05-02T14:25:48.789Z</time></trkpt><trkpt lat="42.9742317" lon="11.5620517"><ele>289.0</ele><time>2026-05-02T14:25:49.789Z</time></trkpt><trkpt lat="42.974225" lon="11.5618717"><ele>289.0</ele><time>2026-05-02T14:25:50.789Z</time></trkpt><trkpt lat="42.9742167" lon="11.5616717"><ele>287.5</ele><time>2026-05-02T14:25:51.79Z</time></trkpt><trkpt lat="42.9742083" lon="11.5614667"><ele>286.0</ele><time>2026-05-02T14:25:52.79Z</time></trkpt><trkpt lat="42.9742" lon="11.561275"><ele>284.5</ele><time>2026-05-02T14:25:53.79Z</time></trkpt><trkpt lat="42.9741967" lon="11.5610833"><ele>283.0</ele><time>2026-05-02T14:25:54.79Z</time></trkpt><trkpt lat="42.97418" lon="11.5609133"><ele>283.0</ele><time>2026-05-02T14:25:55.791Z</time></trkpt><trkpt lat="42.9741433" lon="11.56077"><ele>283.0</ele><time>2026-05-02T14:25:56.789Z</time></trkpt><trkpt lat="42.9740717" lon="11.5606583"><ele>283.0</ele><time>2026-05-02T14:25:57.786Z</time></trkpt><trkpt lat="42.9739733" lon="11.5605833"><ele>283.0</ele><time>2026-05-02T14:25:58.786Z</time></trkpt><trkpt lat="42.973845" lon="11.560555"><ele>283.0</ele><time>2026-05-02T14:25:59.787Z</time></trkpt><trkpt lat="42.97371" lon="11.56056"><ele>283.0</ele><time>2026-05-02T14:26:00.786Z</time></trkpt><trkpt lat="42.9735883" lon="11.5605667"><ele>283.0</ele><time>2026-05-02T14:26:01.787Z</time></trkpt><trkpt lat="42.9734767" lon="11.5605583"><ele>283.0</ele><time>2026-05-02T14:26:02.787Z</time></trkpt><trkpt lat="42.9733817" lon="11.5605217"><ele>283.5</ele><time>2026-05-02T14:26:03.786Z</time></trkpt><trkpt lat="42.9733067" lon="11.56045"><ele>284.0</ele><time>2026-05-02T14:26:04.786Z</time></trkpt><trkpt lat="42.9732667" lon="11.560355"><ele>284.5</ele><time>2026-05-02T14:26:05.786Z</time></trkpt><trkpt lat="42.9732583" lon="11.560255"><ele>285.0</ele><time>2026-05-02T14:26:06.786Z</time></trkpt><trkpt lat="42.9732967" lon="11.560155"><ele>285.5</ele><time>2026-05-02T14:26:07.786Z</time></trkpt><trkpt lat="42.9733767" lon="11.5600483"><ele>286.0</ele><time>2026-05-02T14:26:08.79Z</time></trkpt><trkpt lat="42.9734917" lon="11.55993"><ele>283.75</ele><time>2026-05-02T14:26:09.789Z</time></trkpt><trkpt lat="42.9736317" lon="11.5598017"><ele>281.5</ele><time>2026-05-02T14:26:10.788Z</time></trkpt><trkpt lat="42.9737417" lon="11.5596767"><ele>279.25</ele><time>2026-05-02T14:26:11.789Z</time></trkpt><trkpt lat="42.97385" lon="11.55957"><ele>277.0</ele><time>2026-05-02T14:26:12.786Z</time></trkpt><trkpt lat="42.9739683" lon="11.559485"><ele>277.0</ele><time>2026-05-02T14:26:13.789Z</time></trkpt><trkpt lat="42.9740967" lon="11.5594117"><ele>277.0</ele><time>2026-05-02T14:26:14.789Z</time></trkpt><trkpt lat="42.97422" lon="11.559335"><ele>277.0</ele><time>2026-05-02T14:26:15.791Z</time></trkpt><trkpt lat="42.9743217" lon="11.559235"><ele>277.0</ele><time>2026-05-02T14:26:16.786Z</time></trkpt><trkpt lat="42.9743917" lon="11.5591017"><ele>274.8</ele><time>2026-05-02T14:26:17.79Z</time></trkpt><trkpt lat="42.9744417" lon="11.55895"><ele>272.6</ele><time>2026-05-02T14:26:18.786Z</time></trkpt><trkpt lat="42.9745017" lon="11.55883"><ele>270.40000000000003</ele><time>2026-05-02T14:26:19.79Z</time></trkpt><trkpt lat="42.9745767" lon="11.55875"><ele>268.2</ele><time>2026-05-02T14:26:20.789Z</time></trkpt><trkpt lat="42.9746667" lon="11.558725"><ele>266.0</ele><time>2026-05-02T14:26:21.787Z</time></trkpt><trkpt lat="42.9747567" lon="11.5587417"><ele>266.0</ele><time>2026-05-02T14:26:22.789Z</time></trkpt><trkpt lat="42.9748467" lon="11.5587983"><ele>266.0</ele><time>2026-05-02T14:26:23.79Z</time></trkpt><trkpt lat="42.974935" lon="11.558875"><ele>266.0</ele><time>2026-05-02T14:26:24.789Z</time></trkpt><trkpt lat="42.97503" lon="11.5589333"><ele>266.0</ele><time>2026-05-02T14:26:25.789Z</time></trkpt><trkpt lat="42.975135" lon="11.5589617"><ele>266.0</ele><time>2026-05-02T14:26:26.789Z</time></trkpt><trkpt lat="42.9752367" lon="11.5589517"><ele>264.5</ele><time>2026-05-02T14:26:27.788Z</time></trkpt><trkpt lat="42.9753367" lon="11.5588967"><ele>263.0</ele><time>2026-05-02T14:26:28.788Z</time></trkpt><trkpt lat="42.9754417" lon="11.55881"><ele>261.5</ele><time>2026-05-02T14:26:29.788Z</time></trkpt><trkpt lat="42.97555" lon="11.5587417"><ele>260.0</ele><time>2026-05-02T14:26:30.789Z</time></trkpt><trkpt lat="42.9756667" lon="11.5586767"><ele>261.0</ele><time>2026-05-02T14:26:31.789Z</time></trkpt><trkpt lat="42.975795" lon="11.5586417"><ele>262.0</ele><time>2026-05-02T14:26:32.789Z</time></trkpt><trkpt lat="42.975935" lon="11.558655"><ele>263.0</ele><time>2026-05-02T14:26:33.788Z</time></trkpt><trkpt lat="42.9760833" lon="11.5586817"><ele>264.0</ele><time>2026-05-02T14:26:34.79Z</time></trkpt><trkpt lat="42.9762317" lon="11.5587033"><ele>264.0</ele><time>2026-05-02T14:26:35.792Z</time></trkpt><trkpt lat="42.9763733" lon="11.55871"><ele>264.0</ele><time>2026-05-02T14:26:36.788Z</time></trkpt><trkpt lat="42.97651" lon="11.558695"><ele>264.0</ele><time>2026-05-02T14:26:37.788Z</time></trkpt><trkpt lat="42.9766367" lon="11.5586733"><ele>264.0</ele><time>2026-05-02T14:26:38.79Z</time></trkpt><trkpt lat="42.9767467" lon="11.5586067"><ele>261.8</ele><time>2026-05-02T14:26:39.789Z</time></trkpt><trkpt lat="42.976845" lon="11.558525"><ele>259.59999999999997</ele><time>2026-05-02T14:26:40.789Z</time></trkpt><trkpt lat="42.97694" lon="11.5584467"><ele>257.4</ele><time>2026-05-02T14:26:41.791Z</time></trkpt><trkpt lat="42.9770333" lon="11.5584"><ele>255.2</ele><time>2026-05-02T14:26:42.787Z</time></trkpt><trkpt lat="42.9771433" lon="11.5583717"><ele>253.0</ele><time>2026-05-02T14:26:43.79Z</time></trkpt><trkpt lat="42.9772567" lon="11.55839"><ele>253.0</ele><time>2026-05-02T14:26:44.787Z</time></trkpt><trkpt lat="42.9773683" lon="11.558425"><ele>253.0</ele><time>2026-05-02T14:26:45.788Z</time></trkpt><trkpt lat="42.977485" lon="11.5584483"><ele>253.0</ele><time>2026-05-02T14:26:46.789Z</time></trkpt><trkpt lat="42.9775917" lon="11.55843"><ele>253.0</ele><time>2026-05-02T14:26:47.787Z</time></trkpt><trkpt lat="42.97769" lon="11.5583683"><ele>253.0</ele><time>2026-05-02T14:26:48.789Z</time></trkpt><trkpt lat="42.9777833" lon="11.558265"><ele>251.25</ele><time>2026-05-02T14:26:49.789Z</time></trkpt><trkpt lat="42.9778717" lon="11.5581367"><ele>249.5</ele><time>2026-05-02T14:26:50.787Z</time></trkpt><trkpt lat="42.9779617" lon="11.558005"><ele>247.75</ele><time>2026-05-02T14:26:51.786Z</time></trkpt><trkpt lat="42.9780667" lon="11.5578467"><ele>246.0</ele><time>2026-05-02T14:26:52.787Z</time></trkpt><trkpt lat="42.9781683" lon="11.5576883"><ele>246.0</ele><time>2026-05-02T14:26:53.787Z</time></trkpt><trkpt lat="42.9782583" lon="11.5575233"><ele>246.0</ele><time>2026-05-02T14:26:54.787Z</time></trkpt><trkpt lat="42.978335" lon="11.5573583"><ele>246.0</ele><time>2026-05-02T14:26:55.787Z</time></trkpt><trkpt lat="42.97841" lon="11.55719"><ele>246.0</ele><time>2026-05-02T14:26:56.787Z</time></trkpt><trkpt lat="42.9784817" lon="11.5570233"><ele>242.25</ele><time>2026-05-02T14:26:57.787Z</time></trkpt><trkpt lat="42.9785533" lon="11.5568717"><ele>238.5</ele><time>2026-05-02T14:26:58.787Z</time></trkpt><trkpt lat="42.9786283" lon="11.5567233"><ele>234.75</ele><time>2026-05-02T14:26:59.787Z</time></trkpt><trkpt lat="42.9787017" lon="11.5565783"><ele>231.0</ele><time>2026-05-02T14:27:00.787Z</time></trkpt><trkpt lat="42.9787733" lon="11.5564367"><ele>231.0</ele><time>2026-05-02T14:27:01.788Z</time></trkpt><trkpt lat="42.9788567" lon="11.5563133"><ele>231.0</ele><time>2026-05-02T14:27:02.787Z</time></trkpt><trkpt lat="42.9789567" lon="11.5562167"><ele>231.0</ele><time>2026-05-02T14:27:03.789Z</time></trkpt><trkpt lat="42.9790633" lon="11.556135"><ele>231.0</ele><time>2026-05-02T14:27:04.785Z</time></trkpt><trkpt lat="42.9791583" lon="11.556055"><ele>226.25</ele><time>2026-05-02T14:27:05.786Z</time></trkpt><trkpt lat="42.979235" lon="11.5559533"><ele>221.5</ele><time>2026-05-02T14:27:06.787Z</time></trkpt><trkpt lat="42.97929" lon="11.55583"><ele>216.75</ele><time>2026-05-02T14:27:07.785Z</time></trkpt><trkpt lat="42.97931" lon="11.5556717"><ele>212.0</ele><time>2026-05-02T14:27:08.788Z</time></trkpt><trkpt lat="42.9792917" lon="11.5554933"><ele>212.0</ele><time>2026-05-02T14:27:09.789Z</time></trkpt><trkpt lat="42.9792483" lon="11.55531"><ele>212.0</ele><time>2026-05-02T14:27:10.788Z</time></trkpt><trkpt lat="42.9792017" lon="11.5551217"><ele>212.0</ele><time>2026-05-02T14:27:11.79Z</time></trkpt><trkpt lat="42.9791583" lon="11.554915"><ele>212.0</ele><time>2026-05-02T14:27:12.788Z</time></trkpt><trkpt lat="42.9791233" lon="11.5547"><ele>217.66666666666669</ele><time>2026-05-02T14:27:13.789Z</time></trkpt><trkpt lat="42.979095" lon="11.5544783"><ele>223.33333333333331</ele><time>2026-05-02T14:27:14.788Z</time></trkpt><trkpt lat="42.9790283" lon="11.5542833"><ele>229.0</ele><time>2026-05-02T14:27:15.973Z</time></trkpt><trkpt lat="42.9790317" lon="11.55396"><ele>227.66666666666666</ele><time>2026-05-02T14:27:17.285Z</time></trkpt><trkpt lat="42.9790117" lon="11.5536367"><ele>226.33333333333331</ele><time>2026-05-02T14:27:18.785Z</time></trkpt><trkpt lat="42.97899" lon="11.5534283"><ele>225.0</ele><time>2026-05-02T14:27:19.785Z</time></trkpt><trkpt lat="42.9789433" lon="11.553235"><ele>225.0</ele><time>2026-05-02T14:27:20.786Z</time></trkpt><trkpt lat="42.9788833" lon="11.5530633"><ele>225.0</ele><time>2026-05-02T14:27:21.787Z</time></trkpt><trkpt lat="42.9788167" lon="11.55292"><ele>225.0</ele><time>2026-05-02T14:27:22.785Z</time></trkpt><trkpt lat="42.9787283" lon="11.5528117"><ele>225.0</ele><time>2026-05-02T14:27:23.785Z</time></trkpt><trkpt lat="42.97863" lon="11.5527583"><ele>223.5</ele><time>2026-05-02T14:27:24.787Z</time></trkpt><trkpt lat="42.978525" lon="11.5527633"><ele>222.0</ele><time>2026-05-02T14:27:25.785Z</time></trkpt><trkpt lat="42.97841" lon="11.5528267"><ele>220.5</ele><time>2026-05-02T14:27:26.786Z</time></trkpt><trkpt lat="42.9782933" lon="11.5529117"><ele>219.0</ele><time>2026-05-02T14:27:27.786Z</time></trkpt><trkpt lat="42.9781783" lon="11.55301"><ele>222.0</ele><time>2026-05-02T14:27:28.787Z</time></trkpt><trkpt lat="42.978065" lon="11.5531033"><ele>225.0</ele><time>2026-05-02T14:27:29.786Z</time></trkpt><trkpt lat="42.9779417" lon="11.5531683"><ele>228.0</ele><time>2026-05-02T14:27:30.786Z</time></trkpt><trkpt lat="42.9778117" lon="11.5532067"><ele>231.0</ele><time>2026-05-02T14:27:31.787Z</time></trkpt><trkpt lat="42.9776867" lon="11.5532117"><ele>231.0</ele><time>2026-05-02T14:27:32.786Z</time></trkpt><trkpt lat="42.9775667" lon="11.5531817"><ele>231.00000000000003</ele><time>2026-05-02T14:27:33.785Z</time></trkpt><trkpt lat="42.9774667" lon="11.5531167"><ele>231.00000000000003</ele><time>2026-05-02T14:27:34.785Z</time></trkpt><trkpt lat="42.97739" lon="11.5530233"><ele>231.0</ele><time>2026-05-02T14:27:35.787Z</time></trkpt><trkpt lat="42.9773367" lon="11.5529017"><ele>231.0</ele><time>2026-05-02T14:27:36.785Z</time></trkpt><trkpt lat="42.9772917" lon="11.552775"><ele>227.4</ele><time>2026-05-02T14:27:37.786Z</time></trkpt><trkpt lat="42.9772433" lon="11.5526567"><ele>223.8</ele><time>2026-05-02T14:27:38.786Z</time></trkpt><trkpt lat="42.9771783" lon="11.5525567"><ele>220.20000000000002</ele><time>2026-05-02T14:27:39.787Z</time></trkpt><trkpt lat="42.9770867" lon="11.552485"><ele>216.60000000000002</ele><time>2026-05-02T14:27:40.786Z</time></trkpt><trkpt lat="42.9769817" lon="11.5524467"><ele>213.0</ele><time>2026-05-02T14:27:41.786Z</time></trkpt><trkpt lat="42.9768583" lon="11.552435"><ele>213.0</ele><time>2026-05-02T14:27:42.785Z</time></trkpt><trkpt lat="42.9767333" lon="11.5524167"><ele>213.0</ele><time>2026-05-02T14:27:43.786Z</time></trkpt><trkpt lat="42.9766067" lon="11.5523833"><ele>213.0</ele><time>2026-05-02T14:27:44.786Z</time></trkpt><trkpt lat="42.9764733" lon="11.5523267"><ele>213.0</ele><time>2026-05-02T14:27:45.786Z</time></trkpt><trkpt lat="42.9763417" lon="11.5522567"><ele>214.0</ele><time>2026-05-02T14:27:46.786Z</time></trkpt><trkpt lat="42.9762117" lon="11.5521883"><ele>215.0</ele><time>2026-05-02T14:27:47.786Z</time></trkpt><trkpt lat="42.976085" lon="11.5521233"><ele>216.0</ele><time>2026-05-02T14:27:48.786Z</time></trkpt><trkpt lat="42.97597" lon="11.5520667"><ele>217.0</ele><time>2026-05-02T14:27:49.785Z</time></trkpt><trkpt lat="42.97587" lon="11.5520067"><ele>216.6</ele><time>2026-05-02T14:27:50.786Z</time></trkpt><trkpt lat="42.97579" lon="11.551925"><ele>216.2</ele><time>2026-05-02T14:27:51.786Z</time></trkpt><trkpt lat="42.9757333" lon="11.5518267"><ele>215.8</ele><time>2026-05-02T14:27:52.787Z</time></trkpt><trkpt lat="42.9757033" lon="11.551725"><ele>215.4</ele><time>2026-05-02T14:27:53.786Z</time></trkpt><trkpt lat="42.9757117" lon="11.55161"><ele>215.0</ele><time>2026-05-02T14:27:54.785Z</time></trkpt><trkpt lat="42.9757433" lon="11.5514783"><ele>215.0</ele><time>2026-05-02T14:27:55.785Z</time></trkpt><trkpt lat="42.97582" lon="11.5513333"><ele>215.0</ele><time>2026-05-02T14:27:56.785Z</time></trkpt><trkpt lat="42.9758917" lon="11.5511533"><ele>215.0</ele><time>2026-05-02T14:27:57.785Z</time></trkpt><trkpt lat="42.9759483" lon="11.5509633"><ele>215.0</ele><time>2026-05-02T14:27:58.787Z</time></trkpt><trkpt lat="42.9759767" lon="11.5507717"><ele>210.25</ele><time>2026-05-02T14:27:59.786Z</time></trkpt><trkpt lat="42.9759983" lon="11.5506017"><ele>205.5</ele><time>2026-05-02T14:28:00.785Z</time></trkpt><trkpt lat="42.976025" lon="11.5504367"><ele>200.75</ele><time>2026-05-02T14:28:01.785Z</time></trkpt><trkpt lat="42.976075" lon="11.550285"><ele>196.0</ele><time>2026-05-02T14:28:02.785Z</time></trkpt><trkpt lat="42.9761483" lon="11.5501367"><ele>195.25</ele><time>2026-05-02T14:28:03.785Z</time></trkpt><trkpt lat="42.9762367" lon="11.5499967"><ele>194.5</ele><time>2026-05-02T14:28:04.786Z</time></trkpt><trkpt lat="42.9763233" lon="11.5498567"><ele>193.75</ele><time>2026-05-02T14:28:05.787Z</time></trkpt><trkpt lat="42.9763967" lon="11.5497267"><ele>193.0</ele><time>2026-05-02T14:28:06.786Z</time></trkpt><trkpt lat="42.9764533" lon="11.5495967"><ele>191.0</ele><time>2026-05-02T14:28:07.785Z</time></trkpt><trkpt lat="42.97649" lon="11.5494717"><ele>189.0</ele><time>2026-05-02T14:28:08.786Z</time></trkpt><trkpt lat="42.976495" lon="11.5493433"><ele>187.0</ele><time>2026-05-02T14:28:09.785Z</time></trkpt><trkpt lat="42.97646" lon="11.5492133"><ele>185.0</ele><time>2026-05-02T14:28:10.786Z</time></trkpt><trkpt lat="42.9763917" lon="11.5490917"><ele>183.0</ele><time>2026-05-02T14:28:11.786Z</time></trkpt><trkpt lat="42.9763017" lon="11.5489783"><ele>183.0</ele><time>2026-05-02T14:28:12.786Z</time></trkpt><trkpt lat="42.9762" lon="11.5488667"><ele>183.0</ele><time>2026-05-02T14:28:13.787Z</time></trkpt><trkpt lat="42.97611" lon="11.5487383"><ele>183.0</ele><time>2026-05-02T14:28:14.786Z</time></trkpt><trkpt lat="42.9760317" lon="11.5485967"><ele>183.0</ele><time>2026-05-02T14:28:15.786Z</time></trkpt><trkpt lat="42.9759633" lon="11.54845"><ele>184.4</ele><time>2026-05-02T14:28:16.786Z</time></trkpt><trkpt lat="42.97589" lon="11.5483133"><ele>185.8</ele><time>2026-05-02T14:28:17.786Z</time></trkpt><trkpt lat="42.9758117" lon="11.5481967"><ele>187.2</ele><time>2026-05-02T14:28:18.786Z</time></trkpt><trkpt lat="42.975735" lon="11.5480917"><ele>188.6</ele><time>2026-05-02T14:28:19.786Z</time></trkpt><trkpt lat="42.97567" lon="11.54799"><ele>190.0</ele><time>2026-05-02T14:28:20.79Z</time></trkpt><trkpt lat="42.975625" lon="11.5478833"><ele>188.0</ele><time>2026-05-02T14:28:21.786Z</time></trkpt><trkpt lat="42.9755967" lon="11.547775"><ele>186.0</ele><time>2026-05-02T14:28:22.79Z</time></trkpt><trkpt lat="42.9756" lon="11.5476767"><ele>184.0</ele><time>2026-05-02T14:28:23.789Z</time></trkpt><trkpt lat="42.9756383" lon="11.54759"><ele>182.0</ele><time>2026-05-02T14:28:24.789Z</time></trkpt><trkpt lat="42.9757083" lon="11.5474933"><ele>180.0</ele><time>2026-05-02T14:28:25.789Z</time></trkpt><trkpt lat="42.9758083" lon="11.5473767"><ele>177.5</ele><time>2026-05-02T14:28:26.79Z</time></trkpt><trkpt lat="42.9759167" lon="11.54725"><ele>175.0</ele><time>2026-05-02T14:28:27.789Z</time></trkpt><trkpt lat="42.9760133" lon="11.5471283"><ele>172.5</ele><time>2026-05-02T14:28:28.786Z</time></trkpt><trkpt lat="42.9761" lon="11.5470083"><ele>170.0</ele><time>2026-05-02T14:28:29.79Z</time></trkpt><trkpt lat="42.9761867" lon="11.5469017"><ele>170.0</ele><time>2026-05-02T14:28:30.787Z</time></trkpt><trkpt lat="42.9762667" lon="11.5468"><ele>170.0</ele><time>2026-05-02T14:28:31.789Z</time></trkpt><trkpt lat="42.97634" lon="11.546705"><ele>170.0</ele><time>2026-05-02T14:28:32.787Z</time></trkpt><trkpt lat="42.9764133" lon="11.5466133"><ele>170.0</ele><time>2026-05-02T14:28:33.791Z</time></trkpt><trkpt lat="42.976485" lon="11.546555"><ele>170.0</ele><time>2026-05-02T14:28:34.788Z</time></trkpt><trkpt lat="42.9765517" lon="11.546535"><ele>170.0</ele><time>2026-05-02T14:28:35.791Z</time></trkpt><trkpt lat="42.9766167" lon="11.546555"><ele>170.0</ele><time>2026-05-02T14:28:36.789Z</time></trkpt><trkpt lat="42.9766833" lon="11.54663"><ele>170.0</ele><time>2026-05-02T14:28:37.786Z</time></trkpt><trkpt lat="42.976745" lon="11.5467233"><ele>170.0</ele><time>2026-05-02T14:28:38.786Z</time></trkpt><trkpt lat="42.9768133" lon="11.546825"><ele>170.0</ele><time>2026-05-02T14:28:39.787Z</time></trkpt><trkpt lat="42.97688" lon="11.5469283"><ele>170.0</ele><time>2026-05-02T14:28:40.787Z</time></trkpt><trkpt lat="42.9769467" lon="11.5470183"><ele>170.5</ele><time>2026-05-02T14:28:41.788Z</time></trkpt><trkpt lat="42.9770133" lon="11.547095"><ele>171.0</ele><time>2026-05-02T14:28:42.787Z</time></trkpt><trkpt lat="42.97708" lon="11.547145"><ele>171.5</ele><time>2026-05-02T14:28:43.787Z</time></trkpt><trkpt lat="42.9771867" lon="11.5471383"><ele>172.0</ele><time>2026-05-02T14:28:45.786Z</time></trkpt><trkpt lat="42.977255" lon="11.5470233"><ele>172.5</ele><time>2026-05-02T14:28:47.787Z</time></trkpt><trkpt lat="42.977275" lon="11.54694"><ele>173.0</ele><time>2026-05-02T14:28:48.786Z</time></trkpt><trkpt lat="42.97726" lon="11.54685"><ele>174.66666666666666</ele><time>2026-05-02T14:28:49.786Z</time></trkpt><trkpt lat="42.9771917" lon="11.5467217"><ele>176.33333333333331</ele><time>2026-05-02T14:28:51.786Z</time></trkpt><trkpt lat="42.9771567" lon="11.54663"><ele>178.0</ele><time>2026-05-02T14:28:53.786Z</time></trkpt><trkpt lat="42.977245" lon="11.5466133"><ele>179.66666666666666</ele><time>2026-05-02T14:28:56.79Z</time></trkpt><trkpt lat="42.977305" lon="11.5466783"><ele>181.33333333333334</ele><time>2026-05-02T14:28:57.789Z</time></trkpt><trkpt lat="42.9773767" lon="11.5467533"><ele>183.0</ele><time>2026-05-02T14:28:58.789Z</time></trkpt><trkpt lat="42.97746" lon="11.5468567"><ele>182.4</ele><time>2026-05-02T14:28:59.792Z</time></trkpt><trkpt lat="42.9775383" lon="11.5469617"><ele>181.8</ele><time>2026-05-02T14:29:00.787Z</time></trkpt><trkpt lat="42.9776117" lon="11.547065"><ele>181.2</ele><time>2026-05-02T14:29:01.789Z</time></trkpt><trkpt lat="42.9776917" lon="11.54716"><ele>180.6</ele><time>2026-05-02T14:29:02.789Z</time></trkpt><trkpt lat="42.9777783" lon="11.5472367"><ele>180.0</ele><time>2026-05-02T14:29:03.786Z</time></trkpt><trkpt lat="42.9778783" lon="11.54729"><ele>180.0</ele><time>2026-05-02T14:29:04.789Z</time></trkpt><trkpt lat="42.9779717" lon="11.54733"><ele>180.0</ele><time>2026-05-02T14:29:05.79Z</time></trkpt><trkpt lat="42.9780533" lon="11.54736"><ele>180.0</ele><time>2026-05-02T14:29:06.789Z</time></trkpt><trkpt lat="42.9781317" lon="11.54738"><ele>180.0</ele><time>2026-05-02T14:29:07.788Z</time></trkpt><trkpt lat="42.9782083" lon="11.547385"><ele>180.0</ele><time>2026-05-02T14:29:08.789Z</time></trkpt><trkpt lat="42.9782717" lon="11.5473717"><ele>180.0</ele><time>2026-05-02T14:29:09.789Z</time></trkpt><trkpt lat="42.97837" lon="11.5472733"><ele>180.7142857142857</ele><time>2026-05-02T14:29:11.788Z</time></trkpt><trkpt lat="42.9784033" lon="11.547185"><ele>181.42857142857144</ele><time>2026-05-02T14:29:12.788Z</time></trkpt><trkpt lat="42.9784183" lon="11.547085"><ele>182.14285714285714</ele><time>2026-05-02T14:29:13.788Z</time></trkpt><trkpt lat="42.9784017" lon="11.546995"><ele>182.85714285714283</ele><time>2026-05-02T14:29:14.79Z</time></trkpt><trkpt lat="42.9783667" lon="11.5469217"><ele>183.57142857142856</ele><time>2026-05-02T14:29:15.788Z</time></trkpt><trkpt lat="42.97831" lon="11.54687"><ele>184.28571428571428</ele><time>2026-05-02T14:29:16.789Z</time></trkpt><trkpt lat="42.9782417" lon="11.54683"><ele>185.0</ele><time>2026-05-02T14:29:17.787Z</time></trkpt><trkpt lat="42.978155" lon="11.5468033"><ele>185.83333333333331</ele><time>2026-05-02T14:29:18.789Z</time></trkpt><trkpt lat="42.9780433" lon="11.546785"><ele>186.66666666666666</ele><time>2026-05-02T14:29:19.789Z</time></trkpt><trkpt lat="42.977955" lon="11.54675"><ele>187.5</ele><time>2026-05-02T14:29:20.79Z</time></trkpt><trkpt lat="42.9778733" lon="11.54671"><ele>188.33333333333334</ele><time>2026-05-02T14:29:21.786Z</time></trkpt><trkpt lat="42.9778217" lon="11.5466383"><ele>189.16666666666669</ele><time>2026-05-02T14:29:22.79Z</time></trkpt><trkpt lat="42.9777883" lon="11.5465467"><ele>190.0</ele><time>2026-05-02T14:29:23.788Z</time></trkpt><trkpt lat="42.977795" lon="11.54644"><ele>190.0</ele><time>2026-05-02T14:29:24.79Z</time></trkpt><trkpt lat="42.97781" lon="11.546345"><ele>190.0</ele><time>2026-05-02T14:29:25.789Z</time></trkpt><trkpt lat="42.9778483" lon="11.5462517"><ele>190.0</ele><time>2026-05-02T14:29:26.789Z</time></trkpt><trkpt lat="42.97793" lon="11.5461533"><ele>190.0</ele><time>2026-05-02T14:29:27.789Z</time></trkpt><trkpt lat="42.9780633" lon="11.5460417"><ele>190.0</ele><time>2026-05-02T14:29:28.789Z</time></trkpt><trkpt lat="42.9782483" lon="11.5458867"><ele>192.0</ele><time>2026-05-02T14:29:29.79Z</time></trkpt><trkpt lat="42.9784333" lon="11.545715"><ele>194.0</ele><time>2026-05-02T14:29:30.787Z</time></trkpt><trkpt lat="42.9786017" lon="11.545535"><ele>196.0</ele><time>2026-05-02T14:29:31.789Z</time></trkpt><trkpt lat="42.9787483" lon="11.54535"><ele>199.33333333333331</ele><time>2026-05-02T14:29:32.789Z</time></trkpt><trkpt lat="42.9788817" lon="11.545195"><ele>202.66666666666669</ele><time>2026-05-02T14:29:33.789Z</time></trkpt><trkpt lat="42.9790217" lon="11.545085"><ele>206.0</ele><time>2026-05-02T14:29:34.788Z</time></trkpt><trkpt lat="42.9791867" lon="11.5450233"><ele>206.0</ele><time>2026-05-02T14:29:35.79Z</time></trkpt><trkpt lat="42.9793917" lon="11.5450083"><ele>206.0</ele><time>2026-05-02T14:29:36.786Z</time></trkpt><trkpt lat="42.9795883" lon="11.545015"><ele>206.0</ele><time>2026-05-02T14:29:37.788Z</time></trkpt><trkpt lat="42.97975" lon="11.5450033"><ele>206.0</ele><time>2026-05-02T14:29:38.787Z</time></trkpt><trkpt lat="42.9798817" lon="11.54495"><ele>206.0</ele><time>2026-05-02T14:29:39.788Z</time></trkpt><trkpt lat="42.98001" lon="11.5448333"><ele>206.0</ele><time>2026-05-02T14:29:40.788Z</time></trkpt><trkpt lat="42.9801333" lon="11.5446433"><ele>211.0</ele><time>2026-05-02T14:29:41.789Z</time></trkpt><trkpt lat="42.98024" lon="11.5444417"><ele>216.0</ele><time>2026-05-02T14:29:42.788Z</time></trkpt><trkpt lat="42.9803383" lon="11.5442833"><ele>221.0</ele><time>2026-05-02T14:29:43.789Z</time></trkpt><trkpt lat="42.9804383" lon="11.544175"><ele>221.0</ele><time>2026-05-02T14:29:44.789Z</time></trkpt><trkpt lat="42.980545" lon="11.5441517"><ele>221.0</ele><time>2026-05-02T14:29:45.788Z</time></trkpt><trkpt lat="42.9806517" lon="11.5442"><ele>221.0</ele><time>2026-05-02T14:29:46.788Z</time></trkpt><trkpt lat="42.9807633" lon="11.5442367"><ele>221.0</ele><time>2026-05-02T14:29:47.79Z</time></trkpt><trkpt lat="42.9808817" lon="11.5442"><ele>219.0</ele><time>2026-05-02T14:29:48.788Z</time></trkpt><trkpt lat="42.981" lon="11.5440833"><ele>217.0</ele><time>2026-05-02T14:29:49.788Z</time></trkpt><trkpt lat="42.9811233" lon="11.5439133"><ele>215.0</ele><time>2026-05-02T14:29:50.79Z</time></trkpt><trkpt lat="42.98125" lon="11.54375"><ele>219.33333333333334</ele><time>2026-05-02T14:29:51.789Z</time></trkpt><trkpt lat="42.9814" lon="11.5436067"><ele>223.66666666666669</ele><time>2026-05-02T14:29:52.791Z</time></trkpt><trkpt lat="42.9815883" lon="11.5435"><ele>228.0</ele><time>2026-05-02T14:29:53.79Z</time></trkpt><trkpt lat="42.98177" lon="11.543425"><ele>228.0</ele><time>2026-05-02T14:29:54.789Z</time></trkpt><trkpt lat="42.9819283" lon="11.54336"><ele>228.0</ele><time>2026-05-02T14:29:55.79Z</time></trkpt><trkpt lat="42.98206" lon="11.5432917"><ele>228.0</ele><time>2026-05-02T14:29:56.79Z</time></trkpt><trkpt lat="42.9821667" lon="11.543195"><ele>228.0</ele><time>2026-05-02T14:29:57.786Z</time></trkpt><trkpt lat="42.9822517" lon="11.5430667"><ele>228.0</ele><time>2026-05-02T14:29:58.787Z</time></trkpt><trkpt lat="42.9823267" lon="11.5429217"><ele>228.0</ele><time>2026-05-02T14:29:59.79Z</time></trkpt><trkpt lat="42.9824067" lon="11.5427767"><ele>228.0</ele><time>2026-05-02T14:30:00.79Z</time></trkpt><trkpt lat="42.9825067" lon="11.5426433"><ele>228.0</ele><time>2026-05-02T14:30:01.788Z</time></trkpt><trkpt lat="42.982625" lon="11.5425467"><ele>232.33333333333331</ele><time>2026-05-02T14:30:02.787Z</time></trkpt><trkpt lat="42.9827633" lon="11.542515"><ele>236.66666666666666</ele><time>2026-05-02T14:30:03.788Z</time></trkpt><trkpt lat="42.9829283" lon="11.5425433"><ele>241.0</ele><time>2026-05-02T14:30:04.789Z</time></trkpt><trkpt lat="42.9831183" lon="11.5425983"><ele>241.0</ele><time>2026-05-02T14:30:05.791Z</time></trkpt><trkpt lat="42.983305" lon="11.5426533"><ele>241.0</ele><time>2026-05-02T14:30:06.789Z</time></trkpt><trkpt lat="42.98347" lon="11.5426983"><ele>241.0</ele><time>2026-05-02T14:30:07.787Z</time></trkpt><trkpt lat="42.98361" lon="11.5427367"><ele>241.75</ele><time>2026-05-02T14:30:08.786Z</time></trkpt><trkpt lat="42.98373" lon="11.5427517"><ele>242.5</ele><time>2026-05-02T14:30:09.786Z</time></trkpt><trkpt lat="42.983835" lon="11.5427183"><ele>243.25</ele><time>2026-05-02T14:30:10.787Z</time></trkpt><trkpt lat="42.9839267" lon="11.5426083"><ele>244.0</ele><time>2026-05-02T14:30:11.789Z</time></trkpt><trkpt lat="42.98401" lon="11.542435"><ele>244.0</ele><time>2026-05-02T14:30:12.786Z</time></trkpt><trkpt lat="42.9840983" lon="11.5422167"><ele>244.0</ele><time>2026-05-02T14:30:13.786Z</time></trkpt><trkpt lat="42.9841983" lon="11.5419583"><ele>244.0</ele><time>2026-05-02T14:30:14.787Z</time></trkpt><trkpt lat="42.98431" lon="11.5416917"><ele>243.66666666666666</ele><time>2026-05-02T14:30:15.786Z</time></trkpt><trkpt lat="42.98442" lon="11.54144"><ele>243.33333333333331</ele><time>2026-05-02T14:30:16.788Z</time></trkpt><trkpt lat="42.9845183" lon="11.5412133"><ele>243.0</ele><time>2026-05-02T14:30:17.788Z</time></trkpt><trkpt lat="42.9845883" lon="11.5410383"><ele>244.60000000000002</ele><time>2026-05-02T14:30:18.786Z</time></trkpt><trkpt lat="42.9846233" lon="11.540895"><ele>246.20000000000002</ele><time>2026-05-02T14:30:19.786Z</time></trkpt><trkpt lat="42.9845967" lon="11.54078"><ele>247.8</ele><time>2026-05-02T14:30:20.787Z</time></trkpt><trkpt lat="42.9845267" lon="11.540685"><ele>249.4</ele><time>2026-05-02T14:30:21.786Z</time></trkpt><trkpt lat="42.984415" lon="11.5406133"><ele>251.0</ele><time>2026-05-02T14:30:22.786Z</time></trkpt><trkpt lat="42.984255" lon="11.5405883"><ele>253.0</ele><time>2026-05-02T14:30:23.788Z</time></trkpt><trkpt lat="42.984065" lon="11.540585"><ele>255.0</ele><time>2026-05-02T14:30:24.786Z</time></trkpt><trkpt lat="42.9838467" lon="11.540585"><ele>257.0</ele><time>2026-05-02T14:30:25.786Z</time></trkpt><trkpt lat="42.9836167" lon="11.5405767"><ele>257.0</ele><time>2026-05-02T14:30:26.788Z</time></trkpt><trkpt lat="42.9833733" lon="11.5405667"><ele>257.0</ele><time>2026-05-02T14:30:27.787Z</time></trkpt><trkpt lat="42.983135" lon="11.5405583"><ele>258.6666666666667</ele><time>2026-05-02T14:30:28.786Z</time></trkpt><trkpt lat="42.9829167" lon="11.5405517"><ele>260.3333333333333</ele><time>2026-05-02T14:30:29.788Z</time></trkpt><trkpt lat="42.9827233" lon="11.5405517"><ele>262.0</ele><time>2026-05-02T14:30:30.786Z</time></trkpt><trkpt lat="42.9825617" lon="11.5405483"><ele>262.4</ele><time>2026-05-02T14:30:31.787Z</time></trkpt><trkpt lat="42.98243" lon="11.5405333"><ele>262.79999999999995</ele><time>2026-05-02T14:30:32.789Z</time></trkpt><trkpt lat="42.98233" lon="11.5404983"><ele>263.2</ele><time>2026-05-02T14:30:33.789Z</time></trkpt><trkpt lat="42.98226" lon="11.5404267"><ele>263.59999999999997</ele><time>2026-05-02T14:30:34.788Z</time></trkpt><trkpt lat="42.982205" lon="11.5403417"><ele>264.0</ele><time>2026-05-02T14:30:35.79Z</time></trkpt><trkpt lat="42.982205" lon="11.5402033"><ele>265.59999999999997</ele><time>2026-05-02T14:30:36.788Z</time></trkpt><trkpt lat="42.9822283" lon="11.54011"><ele>267.2</ele><time>2026-05-02T14:30:37.785Z</time></trkpt><trkpt lat="42.9822817" lon="11.5400267"><ele>268.79999999999995</ele><time>2026-05-02T14:30:38.787Z</time></trkpt><trkpt lat="42.9823767" lon="11.5399533"><ele>270.4</ele><time>2026-05-02T14:30:39.787Z</time></trkpt><trkpt lat="42.982535" lon="11.539895"><ele>272.0</ele><time>2026-05-02T14:30:40.788Z</time></trkpt><trkpt lat="42.9827" lon="11.5398533"><ele>272.0</ele><time>2026-05-02T14:30:41.789Z</time></trkpt><trkpt lat="42.9828533" lon="11.5397883"><ele>272.0</ele><time>2026-05-02T14:30:42.786Z</time></trkpt><trkpt lat="42.982995" lon="11.5396983"><ele>272.0</ele><time>2026-05-02T14:30:43.787Z</time></trkpt><trkpt lat="42.9831267" lon="11.5395783"><ele>275.33333333333337</ele><time>2026-05-02T14:30:44.787Z</time></trkpt><trkpt lat="42.983245" lon="11.5394367"><ele>278.6666666666667</ele><time>2026-05-02T14:30:45.789Z</time></trkpt><trkpt lat="42.98336" lon="11.5392917"><ele>282.0</ele><time>2026-05-02T14:30:46.788Z</time></trkpt><trkpt lat="42.9834883" lon="11.5391567"><ele>282.0</ele><time>2026-05-02T14:30:47.789Z</time></trkpt><trkpt lat="42.9836283" lon="11.53906"><ele>282.0</ele><time>2026-05-02T14:30:48.788Z</time></trkpt><trkpt lat="42.9837867" lon="11.5389817"><ele>282.0</ele><time>2026-05-02T14:30:49.789Z</time></trkpt><trkpt lat="42.9839533" lon="11.538905"><ele>282.0</ele><time>2026-05-02T14:30:50.788Z</time></trkpt><trkpt lat="42.9841183" lon="11.538795"><ele>282.0</ele><time>2026-05-02T14:30:51.789Z</time></trkpt><trkpt lat="42.9842833" lon="11.5386583"><ele>282.0</ele><time>2026-05-02T14:30:52.788Z</time></trkpt><trkpt lat="42.9844467" lon="11.5385017"><ele>285.0</ele><time>2026-05-02T14:30:53.786Z</time></trkpt><trkpt lat="42.9846067" lon="11.53835"><ele>288.0</ele><time>2026-05-02T14:30:54.788Z</time></trkpt><trkpt lat="42.98477" lon="11.5381933"><ele>291.0</ele><time>2026-05-02T14:30:55.786Z</time></trkpt><trkpt lat="42.9849283" lon="11.53804"><ele>288.0</ele><time>2026-05-02T14:30:56.788Z</time></trkpt><trkpt lat="42.9850833" lon="11.5378883"><ele>285.0</ele><time>2026-05-02T14:30:57.789Z</time></trkpt><trkpt lat="42.9852333" lon="11.53774"><ele>282.0</ele><time>2026-05-02T14:30:58.788Z</time></trkpt><trkpt lat="42.9853783" lon="11.537605"><ele>289.0</ele><time>2026-05-02T14:30:59.789Z</time></trkpt><trkpt lat="42.9855267" lon="11.5374667"><ele>296.0</ele><time>2026-05-02T14:31:00.789Z</time></trkpt><trkpt lat="42.9856733" lon="11.5373533"><ele>303.0</ele><time>2026-05-02T14:31:01.79Z</time></trkpt><trkpt lat="42.9858283" lon="11.5372417"><ele>301.0</ele><time>2026-05-02T14:31:02.789Z</time></trkpt><trkpt lat="42.9859817" lon="11.53716"><ele>299.0</ele><time>2026-05-02T14:31:03.789Z</time></trkpt><trkpt lat="42.9861267" lon="11.537085"><ele>297.0</ele><time>2026-05-02T14:31:04.79Z</time></trkpt><trkpt lat="42.9862467" lon="11.5369983"><ele>302.0</ele><time>2026-05-02T14:31:05.789Z</time></trkpt><trkpt lat="42.9863483" lon="11.5368883"><ele>307.0</ele><time>2026-05-02T14:31:06.789Z</time></trkpt><trkpt lat="42.9864433" lon="11.5367833"><ele>312.0</ele><time>2026-05-02T14:31:07.789Z</time></trkpt><trkpt lat="42.9865367" lon="11.5367183"><ele>317.0</ele><time>2026-05-02T14:31:08.786Z</time></trkpt><trkpt lat="42.9866367" lon="11.5367"><ele>317.5</ele><time>2026-05-02T14:31:09.787Z</time></trkpt><trkpt lat="42.98674" lon="11.5367267"><ele>318.0</ele><time>2026-05-02T14:31:10.787Z</time></trkpt><trkpt lat="42.98685" lon="11.5367817"><ele>318.5</ele><time>2026-05-02T14:31:11.788Z</time></trkpt><trkpt lat="42.9869667" lon="11.5368133"><ele>319.0</ele><time>2026-05-02T14:31:12.788Z</time></trkpt><trkpt lat="42.987085" lon="11.5367933"><ele>319.0</ele><time>2026-05-02T14:31:13.789Z</time></trkpt><trkpt lat="42.9872033" lon="11.536735"><ele>319.0</ele><time>2026-05-02T14:31:14.789Z</time></trkpt><trkpt lat="42.987325" lon="11.5366467"><ele>319.0</ele><time>2026-05-02T14:31:15.788Z</time></trkpt><trkpt lat="42.9874533" lon="11.5365567"><ele>319.0</ele><time>2026-05-02T14:31:16.789Z</time></trkpt><trkpt lat="42.987585" lon="11.5364733"><ele>318.25</ele><time>2026-05-02T14:31:17.79Z</time></trkpt><trkpt lat="42.9877" lon="11.5363817"><ele>317.5</ele><time>2026-05-02T14:31:18.79Z</time></trkpt><trkpt lat="42.9877967" lon="11.5362783"><ele>316.75</ele><time>2026-05-02T14:31:19.788Z</time></trkpt><trkpt lat="42.9878667" lon="11.53615"><ele>316.0</ele><time>2026-05-02T14:31:20.786Z</time></trkpt><trkpt lat="42.987895" lon="11.5359983"><ele>316.0</ele><time>2026-05-02T14:31:21.786Z</time></trkpt><trkpt lat="42.9878867" lon="11.53583"><ele>316.0</ele><time>2026-05-02T14:31:22.792Z</time></trkpt><trkpt lat="42.9878533" lon="11.5356517"><ele>316.0</ele><time>2026-05-02T14:31:23.788Z</time></trkpt><trkpt lat="42.9878067" lon="11.5354633"><ele>316.0</ele><time>2026-05-02T14:31:24.789Z</time></trkpt><trkpt lat="42.9877583" lon="11.5352633"><ele>320.66666666666663</ele><time>2026-05-02T14:31:25.786Z</time></trkpt><trkpt lat="42.9877183" lon="11.5350367"><ele>325.3333333333333</ele><time>2026-05-02T14:31:26.789Z</time></trkpt><trkpt lat="42.9876833" lon="11.5347883"><ele>330.0</ele><time>2026-05-02T14:31:27.786Z</time></trkpt><trkpt lat="42.9876533" lon="11.5345217"><ele>334.0</ele><time>2026-05-02T14:31:28.786Z</time></trkpt><trkpt lat="42.987625" lon="11.5342617"><ele>338.0</ele><time>2026-05-02T14:31:29.787Z</time></trkpt><trkpt lat="42.9876033" lon="11.5340267"><ele>342.0</ele><time>2026-05-02T14:31:30.789Z</time></trkpt><trkpt lat="42.987585" lon="11.53381"><ele>344.25</ele><time>2026-05-02T14:31:31.789Z</time></trkpt><trkpt lat="42.98758" lon="11.53362"><ele>346.5</ele><time>2026-05-02T14:31:32.787Z</time></trkpt><trkpt lat="42.9875933" lon="11.5334633"><ele>348.75</ele><time>2026-05-02T14:31:33.789Z</time></trkpt><trkpt lat="42.9876433" lon="11.5333283"><ele>351.0</ele><time>2026-05-02T14:31:34.789Z</time></trkpt><trkpt lat="42.987725" lon="11.53319"><ele>351.0</ele><time>2026-05-02T14:31:35.79Z</time></trkpt><trkpt lat="42.9878167" lon="11.5330483"><ele>351.0</ele><time>2026-05-02T14:31:36.785Z</time></trkpt><trkpt lat="42.987915" lon="11.5328883"><ele>351.0</ele><time>2026-05-02T14:31:37.789Z</time></trkpt><trkpt lat="42.9880133" lon="11.532725"><ele>351.0</ele><time>2026-05-02T14:31:38.789Z</time></trkpt><trkpt lat="42.9881033" lon="11.532575"><ele>351.0</ele><time>2026-05-02T14:31:39.788Z</time></trkpt><trkpt lat="42.9881883" lon="11.5324417"><ele>351.0</ele><time>2026-05-02T14:31:40.786Z</time></trkpt><trkpt lat="42.9882733" lon="11.532325"><ele>351.0</ele><time>2026-05-02T14:31:41.788Z</time></trkpt><trkpt lat="42.9883667" lon="11.5322233"><ele>351.0</ele><time>2026-05-02T14:31:42.787Z</time></trkpt><trkpt lat="42.988485" lon="11.53213"><ele>349.6666666666667</ele><time>2026-05-02T14:31:43.789Z</time></trkpt><trkpt lat="42.98862" lon="11.5320583"><ele>348.33333333333337</ele><time>2026-05-02T14:31:44.789Z</time></trkpt><trkpt lat="42.988765" lon="11.531995"><ele>347.0</ele><time>2026-05-02T14:31:45.79Z</time></trkpt><trkpt lat="42.9889217" lon="11.5319283"><ele>349.33333333333337</ele><time>2026-05-02T14:31:46.79Z</time></trkpt><trkpt lat="42.9890833" lon="11.5318483"><ele>351.6666666666667</ele><time>2026-05-02T14:31:47.791Z</time></trkpt><trkpt lat="42.9892417" lon="11.531765"><ele>354.0</ele><time>2026-05-02T14:31:48.787Z</time></trkpt><trkpt lat="42.9893983" lon="11.5316267"><ele>354.0</ele><time>2026-05-02T14:31:49.789Z</time></trkpt><trkpt lat="42.98954" lon="11.5314517"><ele>354.0</ele><time>2026-05-02T14:31:50.787Z</time></trkpt><trkpt lat="42.9896683" lon="11.53126"><ele>354.0</ele><time>2026-05-02T14:31:51.791Z</time></trkpt><trkpt lat="42.9897733" lon="11.531065"><ele>357.0</ele><time>2026-05-02T14:31:52.786Z</time></trkpt><trkpt lat="42.98984" lon="11.5308667"><ele>360.0</ele><time>2026-05-02T14:31:53.79Z</time></trkpt><trkpt lat="42.9898817" lon="11.530655"><ele>363.0</ele><time>2026-05-02T14:31:54.789Z</time></trkpt><trkpt lat="42.9899033" lon="11.5304183"><ele>363.0</ele><time>2026-05-02T14:31:55.789Z</time></trkpt><trkpt lat="42.9899167" lon="11.530175"><ele>363.0</ele><time>2026-05-02T14:31:56.786Z</time></trkpt><trkpt lat="42.98993" lon="11.5299283"><ele>363.0</ele><time>2026-05-02T14:31:57.788Z</time></trkpt><trkpt lat="42.9899517" lon="11.5296933"><ele>362.0</ele><time>2026-05-02T14:31:58.789Z</time></trkpt><trkpt lat="42.9899917" lon="11.529455"><ele>361.0</ele><time>2026-05-02T14:31:59.79Z</time></trkpt><trkpt lat="42.9900467" lon="11.5292367"><ele>360.0</ele><time>2026-05-02T14:32:00.788Z</time></trkpt><trkpt lat="42.99011" lon="11.5290333"><ele>363.0</ele><time>2026-05-02T14:32:01.788Z</time></trkpt><trkpt lat="42.9901917" lon="11.52885"><ele>366.0</ele><time>2026-05-02T14:32:02.788Z</time></trkpt><trkpt lat="42.9902883" lon="11.5286717"><ele>369.0</ele><time>2026-05-02T14:32:03.79Z</time></trkpt><trkpt lat="42.99039" lon="11.52849"><ele>369.0</ele><time>2026-05-02T14:32:04.788Z</time></trkpt><trkpt lat="42.99049" lon="11.5283067"><ele>369.0</ele><time>2026-05-02T14:32:05.789Z</time></trkpt><trkpt lat="42.9905733" lon="11.528115"><ele>369.0</ele><time>2026-05-02T14:32:06.789Z</time></trkpt><trkpt lat="42.99065" lon="11.5279133"><ele>368.6666666666667</ele><time>2026-05-02T14:32:07.789Z</time></trkpt><trkpt lat="42.9907283" lon="11.527715"><ele>368.33333333333337</ele><time>2026-05-02T14:32:08.786Z</time></trkpt><trkpt lat="42.9908083" lon="11.52754"><ele>368.0</ele><time>2026-05-02T14:32:09.786Z</time></trkpt><trkpt lat="42.990905" lon="11.5273817"><ele>368.0</ele><time>2026-05-02T14:32:10.787Z</time></trkpt><trkpt lat="42.991015" lon="11.5272433"><ele>368.0</ele><time>2026-05-02T14:32:11.787Z</time></trkpt><trkpt lat="42.9911367" lon="11.5271167"><ele>368.0</ele><time>2026-05-02T14:32:12.786Z</time></trkpt><trkpt lat="42.991405" lon="11.5269217"><ele>365.0</ele><time>2026-05-02T14:32:14.786Z</time></trkpt><trkpt lat="42.991555" lon="11.5268433"><ele>362.0</ele><time>2026-05-02T14:32:15.786Z</time></trkpt><trkpt lat="42.9917117" lon="11.52677"><ele>359.0</ele><time>2026-05-02T14:32:16.787Z</time></trkpt><trkpt lat="42.99187" lon="11.5266983"><ele>359.0</ele><time>2026-05-02T14:32:17.787Z</time></trkpt><trkpt lat="42.99203" lon="11.52663"><ele>359.0</ele><time>2026-05-02T14:32:18.787Z</time></trkpt><trkpt lat="42.992185" lon="11.5265683"><ele>359.0</ele><time>2026-05-02T14:32:19.786Z</time></trkpt><trkpt lat="42.9923283" lon="11.5265117"><ele>359.0</ele><time>2026-05-02T14:32:20.786Z</time></trkpt><trkpt lat="42.992455" lon="11.5264383"><ele>359.0</ele><time>2026-05-02T14:32:21.786Z</time></trkpt><trkpt lat="42.9925533" lon="11.5263417"><ele>359.0</ele><time>2026-05-02T14:32:22.786Z</time></trkpt><trkpt lat="42.992625" lon="11.5262017"><ele>359.0</ele><time>2026-05-02T14:32:23.789Z</time></trkpt><trkpt lat="42.99267" lon="11.5260267"><ele>360.0</ele><time>2026-05-02T14:32:24.786Z</time></trkpt><trkpt lat="42.9926783" lon="11.5258467"><ele>361.0</ele><time>2026-05-02T14:32:25.789Z</time></trkpt><trkpt lat="42.992645" lon="11.5256767"><ele>362.0</ele><time>2026-05-02T14:32:26.786Z</time></trkpt><trkpt lat="42.9925783" lon="11.52552"><ele>363.0</ele><time>2026-05-02T14:32:27.786Z</time></trkpt><trkpt lat="42.9924917" lon="11.525385"><ele>363.0</ele><time>2026-05-02T14:32:28.786Z</time></trkpt><trkpt lat="42.9924083" lon="11.525255"><ele>363.0</ele><time>2026-05-02T14:32:29.787Z</time></trkpt><trkpt lat="42.9923367" lon="11.5251117"><ele>363.0</ele><time>2026-05-02T14:32:30.786Z</time></trkpt><trkpt lat="42.992285" lon="11.5249567"><ele>363.0</ele><time>2026-05-02T14:32:31.786Z</time></trkpt><trkpt lat="42.992265" lon="11.5247917"><ele>363.0</ele><time>2026-05-02T14:32:32.787Z</time></trkpt><trkpt lat="42.9922767" lon="11.5246283"><ele>363.0</ele><time>2026-05-02T14:32:33.79Z</time></trkpt><trkpt lat="42.9923183" lon="11.52448"><ele>363.0</ele><time>2026-05-02T14:32:34.789Z</time></trkpt><trkpt lat="42.9923867" lon="11.52436"><ele>363.0</ele><time>2026-05-02T14:32:35.79Z</time></trkpt><trkpt lat="42.992475" lon="11.5242483"><ele>367.25</ele><time>2026-05-02T14:32:36.787Z</time></trkpt><trkpt lat="42.9925667" lon="11.524135"><ele>371.5</ele><time>2026-05-02T14:32:37.788Z</time></trkpt><trkpt lat="42.9926567" lon="11.524025"><ele>375.75</ele><time>2026-05-02T14:32:38.788Z</time></trkpt><trkpt lat="42.9927383" lon="11.52392"><ele>380.0</ele><time>2026-05-02T14:32:39.789Z</time></trkpt><trkpt lat="42.9928117" lon="11.5238117"><ele>376.8</ele><time>2026-05-02T14:32:40.789Z</time></trkpt><trkpt lat="42.992875" lon="11.5237017"><ele>373.6</ele><time>2026-05-02T14:32:41.79Z</time></trkpt><trkpt lat="42.9929283" lon="11.5235933"><ele>370.4</ele><time>2026-05-02T14:32:42.788Z</time></trkpt><trkpt lat="42.9929833" lon="11.523485"><ele>367.2</ele><time>2026-05-02T14:32:43.789Z</time></trkpt><trkpt lat="42.9930433" lon="11.5233617"><ele>364.0</ele><time>2026-05-02T14:32:44.789Z</time></trkpt><trkpt lat="42.9930983" lon="11.5232333"><ele>364.0</ele><time>2026-05-02T14:32:45.788Z</time></trkpt><trkpt lat="42.9931517" lon="11.5230867"><ele>364.0</ele><time>2026-05-02T14:32:46.789Z</time></trkpt><trkpt lat="42.9932033" lon="11.5229217"><ele>364.0</ele><time>2026-05-02T14:32:47.79Z</time></trkpt><trkpt lat="42.9932567" lon="11.522755"><ele>364.0</ele><time>2026-05-02T14:32:48.787Z</time></trkpt><trkpt lat="42.9933083" lon="11.5225983"><ele>364.5</ele><time>2026-05-02T14:32:49.789Z</time></trkpt><trkpt lat="42.993355" lon="11.5224467"><ele>365.0</ele><time>2026-05-02T14:32:50.79Z</time></trkpt><trkpt lat="42.993395" lon="11.5222933"><ele>365.5</ele><time>2026-05-02T14:32:51.789Z</time></trkpt><trkpt lat="42.99343" lon="11.5221483"><ele>366.0</ele><time>2026-05-02T14:32:52.786Z</time></trkpt><trkpt lat="42.9934667" lon="11.521995"><ele>366.0</ele><time>2026-05-02T14:32:53.79Z</time></trkpt><trkpt lat="42.9935067" lon="11.52185"><ele>366.0</ele><time>2026-05-02T14:32:54.789Z</time></trkpt><trkpt lat="42.9935483" lon="11.5217167"><ele>366.0</ele><time>2026-05-02T14:32:55.79Z</time></trkpt><trkpt lat="42.9935933" lon="11.521595"><ele>366.0</ele><time>2026-05-02T14:32:56.788Z</time></trkpt><trkpt lat="42.99364" lon="11.5214817"><ele>366.0</ele><time>2026-05-02T14:32:57.788Z</time></trkpt><trkpt lat="42.9936883" lon="11.521375"><ele>366.0</ele><time>2026-05-02T14:32:58.789Z</time></trkpt><trkpt lat="42.993735" lon="11.5212683"><ele>366.0</ele><time>2026-05-02T14:32:59.788Z</time></trkpt><trkpt lat="42.993795" lon="11.5211567"><ele>366.0</ele><time>2026-05-02T14:33:00.788Z</time></trkpt><trkpt lat="42.9938733" lon="11.52104"><ele>366.0</ele><time>2026-05-02T14:33:01.788Z</time></trkpt><trkpt lat="42.9939667" lon="11.5209117"><ele>366.0</ele><time>2026-05-02T14:33:02.79Z</time></trkpt><trkpt lat="42.9940633" lon="11.520775"><ele>364.0</ele><time>2026-05-02T14:33:03.788Z</time></trkpt><trkpt lat="42.994165" lon="11.5206367"><ele>362.0</ele><time>2026-05-02T14:33:04.788Z</time></trkpt><trkpt lat="42.99426" lon="11.52051"><ele>360.0</ele><time>2026-05-02T14:33:05.788Z</time></trkpt><trkpt lat="42.99435" lon="11.5203933"><ele>358.0</ele><time>2026-05-02T14:33:06.787Z</time></trkpt><trkpt lat="42.9944417" lon="11.520285"><ele>356.0</ele><time>2026-05-02T14:33:07.787Z</time></trkpt><trkpt lat="42.99453" lon="11.5201783"><ele>354.0</ele><time>2026-05-02T14:33:08.787Z</time></trkpt><trkpt lat="42.994615" lon="11.5200883"><ele>352.0</ele><time>2026-05-02T14:33:09.787Z</time></trkpt><trkpt lat="42.9946917" lon="11.520015"><ele>350.0</ele><time>2026-05-02T14:33:10.788Z</time></trkpt><trkpt lat="42.9947567" lon="11.519955"><ele>348.0</ele><time>2026-05-02T14:33:11.79Z</time></trkpt><trkpt lat="42.99481" lon="11.5199033"><ele>348.0</ele><time>2026-05-02T14:33:12.791Z</time></trkpt><trkpt lat="42.9948617" lon="11.5197883"><ele>348.0</ele><time>2026-05-02T14:33:14.789Z</time></trkpt><trkpt lat="42.994835" lon="11.5196583"><ele>348.0</ele><time>2026-05-02T14:33:16.785Z</time></trkpt><trkpt lat="42.99475" lon="11.5195317"><ele>348.0</ele><time>2026-05-02T14:33:18.786Z</time></trkpt><trkpt lat="42.9946983" lon="11.51946"><ele>348.0</ele><time>2026-05-02T14:33:19.788Z</time></trkpt><trkpt lat="42.9946517" lon="11.5193783"><ele>347.4</ele><time>2026-05-02T14:33:20.789Z</time></trkpt><trkpt lat="42.9946067" lon="11.5192867"><ele>346.79999999999995</ele><time>2026-05-02T14:33:21.785Z</time></trkpt><trkpt lat="42.99456" lon="11.5191867"><ele>346.2</ele><time>2026-05-02T14:33:22.789Z</time></trkpt><trkpt lat="42.9945167" lon="11.5190767"><ele>345.6</ele><time>2026-05-02T14:33:23.79Z</time></trkpt><trkpt lat="42.994475" lon="11.51896"><ele>345.0</ele><time>2026-05-02T14:33:24.79Z</time></trkpt><trkpt lat="42.9944317" lon="11.5188383"><ele>347.4</ele><time>2026-05-02T14:33:25.788Z</time></trkpt><trkpt lat="42.99439" lon="11.5187133"><ele>349.8</ele><time>2026-05-02T14:33:26.789Z</time></trkpt><trkpt lat="42.9943533" lon="11.5186"><ele>352.20000000000005</ele><time>2026-05-02T14:33:27.787Z</time></trkpt><trkpt lat="42.9943267" lon="11.5185067"><ele>354.6</ele><time>2026-05-02T14:33:28.788Z</time></trkpt><trkpt lat="42.9942867" lon="11.5183567"><ele>357.0</ele><time>2026-05-02T14:33:30.787Z</time></trkpt><trkpt lat="42.9942383" lon="11.5182417"><ele>357.0</ele><time>2026-05-02T14:33:32.789Z</time></trkpt><trkpt lat="42.994185" lon="11.518135"><ele>357.0</ele><time>2026-05-02T14:33:34.79Z</time></trkpt><trkpt lat="42.994135" lon="11.5180117"><ele>357.0</ele><time>2026-05-02T14:33:36.786Z</time></trkpt><trkpt lat="42.9941017" lon="11.51793"><ele>357.0</ele><time>2026-05-02T14:33:37.788Z</time></trkpt><trkpt lat="42.99406" lon="11.51784"><ele>357.0</ele><time>2026-05-02T14:33:38.789Z</time></trkpt><trkpt lat="42.99401" lon="11.5177533"><ele>357.0</ele><time>2026-05-02T14:33:39.787Z</time></trkpt><trkpt lat="42.9939517" lon="11.5176767"><ele>358.1666666666667</ele><time>2026-05-02T14:33:40.788Z</time></trkpt><trkpt lat="42.99388" lon="11.5176167"><ele>359.3333333333333</ele><time>2026-05-02T14:33:41.788Z</time></trkpt><trkpt lat="42.9938117" lon="11.517565"><ele>360.5</ele><time>2026-05-02T14:33:42.788Z</time></trkpt><trkpt lat="42.9937433" lon="11.5175267"><ele>361.66666666666663</ele><time>2026-05-02T14:33:43.788Z</time></trkpt><trkpt lat="42.99368" lon="11.5174867"><ele>362.8333333333333</ele><time>2026-05-02T14:33:44.788Z</time></trkpt><trkpt lat="42.9936217" lon="11.51745"><ele>364.0</ele><time>2026-05-02T14:33:45.788Z</time></trkpt><trkpt lat="42.99351" lon="11.5173567"><ele>364.0</ele><time>2026-05-02T14:33:47.786Z</time></trkpt><trkpt lat="42.9934517" lon="11.5172967"><ele>364.0</ele><time>2026-05-02T14:33:48.786Z</time></trkpt><trkpt lat="42.9933933" lon="11.5172317"><ele>364.0</ele><time>2026-05-02T14:33:49.785Z</time></trkpt><trkpt lat="42.9933317" lon="11.517165"><ele>364.0</ele><time>2026-05-02T14:33:50.786Z</time></trkpt><trkpt lat="42.9932717" lon="11.5170967"><ele>364.0</ele><time>2026-05-02T14:33:51.786Z</time></trkpt><trkpt lat="42.993215" lon="11.517025"><ele>364.0</ele><time>2026-05-02T14:33:52.786Z</time></trkpt><trkpt lat="42.9931567" lon="11.516945"><ele>361.0</ele><time>2026-05-02T14:33:53.786Z</time></trkpt><trkpt lat="42.9931033" lon="11.5168517"><ele>358.0</ele><time>2026-05-02T14:33:54.789Z</time></trkpt><trkpt lat="42.9930567" lon="11.5167617"><ele>355.0</ele><time>2026-05-02T14:33:55.786Z</time></trkpt><trkpt lat="42.9930133" lon="11.51667"><ele>352.0</ele><time>2026-05-02T14:33:56.786Z</time></trkpt><trkpt lat="42.9929817" lon="11.5165667"><ele>349.0</ele><time>2026-05-02T14:33:57.786Z</time></trkpt><trkpt lat="42.9929567" lon="11.516465"><ele>346.0</ele><time>2026-05-02T14:33:58.786Z</time></trkpt><trkpt lat="42.9929283" lon="11.516385"><ele>346.0</ele><time>2026-05-02T14:33:59.787Z</time></trkpt><trkpt lat="42.9928967" lon="11.51631"><ele>346.0</ele><time>2026-05-02T14:34:00.786Z</time></trkpt><trkpt lat="42.99283" lon="11.516235"><ele>346.0</ele><time>2026-05-02T14:34:02.789Z</time></trkpt><trkpt lat="42.9926983" lon="11.5163033"><ele>346.0</ele><time>2026-05-02T14:34:04.786Z</time></trkpt><trkpt lat="42.9926167" lon="11.5163767"><ele>346.0</ele><time>2026-05-02T14:34:05.786Z</time></trkpt><trkpt lat="42.99254" lon="11.5164383"><ele>342.66666666666663</ele><time>2026-05-02T14:34:06.785Z</time></trkpt><trkpt lat="42.9924667" lon="11.5164883"><ele>339.3333333333333</ele><time>2026-05-02T14:34:07.786Z</time></trkpt><trkpt lat="42.9923967" lon="11.5165117"><ele>336.0</ele><time>2026-05-02T14:34:08.789Z</time></trkpt><trkpt lat="42.992325" lon="11.516505"><ele>332.6666666666667</ele><time>2026-05-02T14:34:09.79Z</time></trkpt><trkpt lat="42.992255" lon="11.516475"><ele>329.33333333333337</ele><time>2026-05-02T14:34:10.786Z</time></trkpt><trkpt lat="42.99218" lon="11.5164417"><ele>326.0</ele><time>2026-05-02T14:34:11.787Z</time></trkpt><trkpt lat="42.992105" lon="11.516405"><ele>326.0</ele><time>2026-05-02T14:34:12.791Z</time></trkpt><trkpt lat="42.9920433" lon="11.5163617"><ele>326.0</ele><time>2026-05-02T14:34:13.788Z</time></trkpt><trkpt lat="42.9919967" lon="11.516245"><ele>326.0</ele><time>2026-05-02T14:34:15.788Z</time></trkpt><trkpt lat="42.9919917" lon="11.5161133"><ele>326.0</ele><time>2026-05-02T14:34:17.789Z</time></trkpt><trkpt lat="42.9919717" lon="11.5159983"><ele>326.0</ele><time>2026-05-02T14:34:19.788Z</time></trkpt><trkpt lat="42.991945" lon="11.5158917"><ele>326.0</ele><time>2026-05-02T14:34:21.79Z</time></trkpt><trkpt lat="42.99191" lon="11.515765"><ele>324.2</ele><time>2026-05-02T14:34:23.79Z</time></trkpt><trkpt lat="42.991875" lon="11.515625"><ele>322.40000000000003</ele><time>2026-05-02T14:34:25.789Z</time></trkpt><trkpt lat="42.99183" lon="11.5154867"><ele>320.6</ele><time>2026-05-02T14:34:27.788Z</time></trkpt><trkpt lat="42.9917883" lon="11.515345"><ele>318.8</ele><time>2026-05-02T14:34:29.789Z</time></trkpt><trkpt lat="42.9917617" lon="11.515265"><ele>317.0</ele><time>2026-05-02T14:34:30.787Z</time></trkpt><trkpt lat="42.9917317" lon="11.51517"><ele>315.0</ele><time>2026-05-02T14:34:31.788Z</time></trkpt><trkpt lat="42.991695" lon="11.5150683"><ele>313.0</ele><time>2026-05-02T14:34:32.788Z</time></trkpt><trkpt lat="42.9916517" lon="11.5149683"><ele>311.0</ele><time>2026-05-02T14:34:33.788Z</time></trkpt><trkpt lat="42.991605" lon="11.5148617"><ele>309.0</ele><time>2026-05-02T14:34:34.789Z</time></trkpt><trkpt lat="42.9915567" lon="11.5147517"><ele>307.0</ele><time>2026-05-02T14:34:35.79Z</time></trkpt><trkpt lat="42.9915033" lon="11.514645"><ele>305.0</ele><time>2026-05-02T14:34:36.79Z</time></trkpt><trkpt lat="42.9914433" lon="11.5145417"><ele>302.33333333333337</ele><time>2026-05-02T14:34:37.787Z</time></trkpt><trkpt lat="42.991385" lon="11.5144517"><ele>299.6666666666667</ele><time>2026-05-02T14:34:38.79Z</time></trkpt><trkpt lat="42.9913333" lon="11.5143683"><ele>297.0</ele><time>2026-05-02T14:34:39.79Z</time></trkpt><trkpt lat="42.9912783" lon="11.5142767"><ele>294.3333333333333</ele><time>2026-05-02T14:34:40.79Z</time></trkpt><trkpt lat="42.9912283" lon="11.5141817"><ele>291.66666666666663</ele><time>2026-05-02T14:34:41.79Z</time></trkpt><trkpt lat="42.9911833" lon="11.51409"><ele>289.0</ele><time>2026-05-02T14:34:42.789Z</time></trkpt><trkpt lat="42.9911383" lon="11.5140067"><ele>289.0</ele><time>2026-05-02T14:34:43.789Z</time></trkpt><trkpt lat="42.9910933" lon="11.5139283"><ele>289.0</ele><time>2026-05-02T14:34:44.789Z</time></trkpt><trkpt lat="42.9910383" lon="11.5138533"><ele>289.0</ele><time>2026-05-02T14:34:45.789Z</time></trkpt><trkpt lat="42.990975" lon="11.513795"><ele>289.0</ele><time>2026-05-02T14:34:46.79Z</time></trkpt><trkpt lat="42.9908967" lon="11.5137533"><ele>289.0</ele><time>2026-05-02T14:34:47.787Z</time></trkpt><trkpt lat="42.99081" lon="11.5137183"><ele>289.0</ele><time>2026-05-02T14:34:48.788Z</time></trkpt><trkpt lat="42.990725" lon="11.5136817"><ele>288.16666666666663</ele><time>2026-05-02T14:34:49.788Z</time></trkpt><trkpt lat="42.9906533" lon="11.51363"><ele>287.3333333333333</ele><time>2026-05-02T14:34:50.789Z</time></trkpt><trkpt lat="42.9905917" lon="11.5135617"><ele>286.5</ele><time>2026-05-02T14:34:51.79Z</time></trkpt><trkpt lat="42.9905433" lon="11.5134733"><ele>285.6666666666667</ele><time>2026-05-02T14:34:52.789Z</time></trkpt><trkpt lat="42.9905033" lon="11.5133817"><ele>284.83333333333337</ele><time>2026-05-02T14:34:53.789Z</time></trkpt><trkpt lat="42.9904733" lon="11.513285"><ele>284.0</ele><time>2026-05-02T14:34:54.789Z</time></trkpt><trkpt lat="42.9904467" lon="11.5131933"><ele>284.0</ele><time>2026-05-02T14:34:55.789Z</time></trkpt><trkpt lat="42.99042" lon="11.513115"><ele>284.0</ele><time>2026-05-02T14:34:56.786Z</time></trkpt><trkpt lat="42.9903833" lon="11.5130417"><ele>284.0</ele><time>2026-05-02T14:34:57.788Z</time></trkpt><trkpt lat="42.9903283" lon="11.5129717"><ele>284.0</ele><time>2026-05-02T14:34:58.786Z</time></trkpt><trkpt lat="42.990265" lon="11.5129183"><ele>284.0</ele><time>2026-05-02T14:34:59.787Z</time></trkpt><trkpt lat="42.9902" lon="11.5128833"><ele>284.0</ele><time>2026-05-02T14:35:00.787Z</time></trkpt><trkpt lat="42.990135" lon="11.5128683"><ele>284.0</ele><time>2026-05-02T14:35:01.787Z</time></trkpt><trkpt lat="42.99002" lon="11.5129067"><ele>282.8</ele><time>2026-05-02T14:35:03.786Z</time></trkpt><trkpt lat="42.989925" lon="11.5129667"><ele>281.59999999999997</ele><time>2026-05-02T14:35:05.794Z</time></trkpt><trkpt lat="42.9898717" lon="11.5130167"><ele>280.4</ele><time>2026-05-02T14:35:08.788Z</time></trkpt><trkpt lat="42.98982" lon="11.5131717"><ele>279.2</ele><time>2026-05-02T14:35:23.918Z</time></trkpt><trkpt lat="42.9898417" lon="11.5130267"><ele>278.0</ele><time>2026-05-02T14:35:25.287Z</time></trkpt><trkpt lat="42.98986" lon="11.5129217"><ele>277.7142857142857</ele><time>2026-05-02T14:35:35.786Z</time></trkpt><trkpt lat="42.9898917" lon="11.5128383"><ele>277.42857142857144</ele><time>2026-05-02T14:35:38.786Z</time></trkpt><trkpt lat="42.98995" lon="11.5128"><ele>277.14285714285717</ele><time>2026-05-02T14:35:40.786Z</time></trkpt><trkpt lat="42.9900167" lon="11.5127533"><ele>276.8571428571429</ele><time>2026-05-02T14:35:42.786Z</time></trkpt><trkpt lat="42.9900833" lon="11.5127033"><ele>276.5714285714286</ele><time>2026-05-02T14:35:44.788Z</time></trkpt><trkpt lat="42.9901367" lon="11.5126483"><ele>276.2857142857143</ele><time>2026-05-02T14:35:46.786Z</time></trkpt><trkpt lat="42.9901883" lon="11.5125867"><ele>276.0</ele><time>2026-05-02T14:35:50.786Z</time></trkpt><trkpt lat="42.9902517" lon="11.512575"><ele>276.0</ele><time>2026-05-02T14:36:01.786Z</time></trkpt><trkpt lat="42.9903167" lon="11.51252"><ele>276.0</ele><time>2026-05-02T14:37:47.787Z</time></trkpt><trkpt lat="42.990245" lon="11.5125283"><ele>276.0</ele><time>2026-05-02T14:37:50.786Z</time></trkpt><trkpt lat="42.99019" lon="11.5125733"><ele>276.0</ele><time>2026-05-02T14:37:51.787Z</time></trkpt><trkpt lat="42.9901267" lon="11.51263"><ele>276.0</ele><time>2026-05-02T14:37:53.786Z</time></trkpt><trkpt lat="42.9900467" lon="11.5127067"><ele>276.0</ele><time>2026-05-02T14:37:55.786Z</time></trkpt><trkpt lat="42.9899733" lon="11.51278"><ele>276.0</ele><time>2026-05-02T14:37:57.786Z</time></trkpt><trkpt lat="42.9899067" lon="11.5128517"><ele>276.0</ele><time>2026-05-02T14:37:59.786Z</time></trkpt><trkpt lat="42.9898567" lon="11.5129483"><ele>276.0</ele><time>2026-05-02T14:38:01.787Z</time></trkpt><trkpt lat="42.9898367" lon="11.5130333"><ele>276.0</ele><time>2026-05-02T14:38:10.786Z</time></trkpt><trkpt lat="42.9899033" lon="11.5129883"><ele>276.0</ele><time>2026-05-02T14:38:14.786Z</time></trkpt><trkpt lat="42.9899833" lon="11.5129433"><ele>276.0</ele><time>2026-05-02T14:38:16.786Z</time></trkpt><trkpt lat="42.9901" lon="11.5129283"><ele>277.6</ele><time>2026-05-02T14:38:18.787Z</time></trkpt><trkpt lat="42.99022" lon="11.5129683"><ele>279.20000000000005</ele><time>2026-05-02T14:38:20.786Z</time></trkpt><trkpt lat="42.9902783" lon="11.5130067"><ele>280.79999999999995</ele><time>2026-05-02T14:38:21.786Z</time></trkpt><trkpt lat="42.9903667" lon="11.51311"><ele>282.4</ele><time>2026-05-02T14:38:23.786Z</time></trkpt><trkpt lat="42.9904283" lon="11.5132467"><ele>284.0</ele><time>2026-05-02T14:38:25.786Z</time></trkpt><trkpt lat="42.9904717" lon="11.5134"><ele>284.0</ele><time>2026-05-02T14:38:27.788Z</time></trkpt><trkpt lat="42.9905" lon="11.5134783"><ele>284.0</ele><time>2026-05-02T14:38:28.786Z</time></trkpt><trkpt lat="42.9905383" lon="11.513555"><ele>284.0</ele><time>2026-05-02T14:38:29.787Z</time></trkpt><trkpt lat="42.99059" lon="11.5136217"><ele>284.0</ele><time>2026-05-02T14:38:30.786Z</time></trkpt><trkpt lat="42.9906483" lon="11.5136783"><ele>284.0</ele><time>2026-05-02T14:38:31.786Z</time></trkpt><trkpt lat="42.9907133" lon="11.51372"><ele>284.0</ele><time>2026-05-02T14:38:32.788Z</time></trkpt><trkpt lat="42.9907867" lon="11.5137533"><ele>284.0</ele><time>2026-05-02T14:38:33.786Z</time></trkpt><trkpt lat="42.9908667" lon="11.5137867"><ele>284.83333333333337</ele><time>2026-05-02T14:38:34.786Z</time></trkpt><trkpt lat="42.990945" lon="11.51383"><ele>285.6666666666667</ele><time>2026-05-02T14:38:35.788Z</time></trkpt><trkpt lat="42.991015" lon="11.5138917"><ele>286.5</ele><time>2026-05-02T14:38:36.788Z</time></trkpt><trkpt lat="42.991075" lon="11.5139733"><ele>287.3333333333333</ele><time>2026-05-02T14:38:37.786Z</time></trkpt><trkpt lat="42.9911317" lon="11.514075"><ele>288.16666666666663</ele><time>2026-05-02T14:38:38.787Z</time></trkpt><trkpt lat="42.9911867" lon="11.5141833"><ele>289.0</ele><time>2026-05-02T14:38:39.786Z</time></trkpt><trkpt lat="42.991245" lon="11.514295"><ele>289.0</ele><time>2026-05-02T14:38:40.789Z</time></trkpt><trkpt lat="42.991305" lon="11.5143983"><ele>289.0</ele><time>2026-05-02T14:38:41.787Z</time></trkpt><trkpt lat="42.9913683" lon="11.5144933"><ele>289.0</ele><time>2026-05-02T14:38:42.785Z</time></trkpt><trkpt lat="42.99143" lon="11.5145917"><ele>289.0</ele><time>2026-05-02T14:38:43.786Z</time></trkpt><trkpt lat="42.9914883" lon="11.5146983"><ele>289.0</ele><time>2026-05-02T14:38:44.787Z</time></trkpt><trkpt lat="42.9915433" lon="11.5148133"><ele>291.4</ele><time>2026-05-02T14:38:45.786Z</time></trkpt><trkpt lat="42.9915967" lon="11.5149317"><ele>293.79999999999995</ele><time>2026-05-02T14:38:46.785Z</time></trkpt><trkpt lat="42.9916483" lon="11.5150517"><ele>296.20000000000005</ele><time>2026-05-02T14:38:47.787Z</time></trkpt><trkpt lat="42.9916967" lon="11.5151667"><ele>298.6</ele><time>2026-05-02T14:38:48.786Z</time></trkpt><trkpt lat="42.9917433" lon="11.515285"><ele>301.0</ele><time>2026-05-02T14:38:49.785Z</time></trkpt><trkpt lat="42.9917867" lon="11.51541"><ele>303.66666666666663</ele><time>2026-05-02T14:38:50.785Z</time></trkpt><trkpt lat="42.991825" lon="11.5155283"><ele>306.3333333333333</ele><time>2026-05-02T14:38:51.785Z</time></trkpt><trkpt lat="42.9918617" lon="11.5156433"><ele>309.0</ele><time>2026-05-02T14:38:52.786Z</time></trkpt><trkpt lat="42.9918983" lon="11.515755"><ele>311.6666666666667</ele><time>2026-05-02T14:38:53.786Z</time></trkpt><trkpt lat="42.9919267" lon="11.5158683"><ele>314.33333333333337</ele><time>2026-05-02T14:38:54.787Z</time></trkpt><trkpt lat="42.9919483" lon="11.5159733"><ele>317.0</ele><time>2026-05-02T14:38:55.785Z</time></trkpt><trkpt lat="42.9919617" lon="11.51606"><ele>317.0</ele><time>2026-05-02T14:38:56.786Z</time></trkpt><trkpt lat="42.991985" lon="11.5161617"><ele>317.0</ele><time>2026-05-02T14:38:58.786Z</time></trkpt><trkpt lat="42.99205" lon="11.516135"><ele>317.0</ele><time>2026-05-02T14:39:02.785Z</time></trkpt><trkpt lat="42.9921017" lon="11.516045"><ele>317.0</ele><time>2026-05-02T14:39:04.784Z</time></trkpt><trkpt lat="42.99215" lon="11.5159517"><ele>317.0</ele><time>2026-05-02T14:39:06.785Z</time></trkpt><trkpt lat="42.992195" lon="11.5158617"><ele>317.0</ele><time>2026-05-02T14:39:08.785Z</time></trkpt><trkpt lat="42.99224" lon="11.5157717"><ele>317.0</ele><time>2026-05-02T14:39:10.785Z</time></trkpt><trkpt lat="42.9922917" lon="11.5156767"><ele>317.0</ele><time>2026-05-02T14:39:12.786Z</time></trkpt><trkpt lat="42.9923633" lon="11.515565"><ele>317.0</ele><time>2026-05-02T14:39:14.786Z</time></trkpt><trkpt lat="42.9924433" lon="11.515445"><ele>317.0</ele><time>2026-05-02T14:39:16.786Z</time></trkpt><trkpt lat="42.9924867" lon="11.51538"><ele>317.0</ele><time>2026-05-02T14:39:17.787Z</time></trkpt><trkpt lat="42.9925283" lon="11.5153083"><ele>317.0</ele><time>2026-05-02T14:39:18.787Z</time></trkpt><trkpt lat="42.99257" lon="11.5152383"><ele>317.0</ele><time>2026-05-02T14:39:19.788Z</time></trkpt><trkpt lat="42.9926117" lon="11.5151717"><ele>317.0</ele><time>2026-05-02T14:39:20.788Z</time></trkpt><trkpt lat="42.9926533" lon="11.515105"><ele>317.0</ele><time>2026-05-02T14:39:21.789Z</time></trkpt><trkpt lat="42.9927" lon="11.5150383"><ele>317.0</ele><time>2026-05-02T14:39:22.787Z</time></trkpt><trkpt lat="42.992755" lon="11.5149667"><ele>317.0</ele><time>2026-05-02T14:39:23.787Z</time></trkpt><trkpt lat="42.99281" lon="11.5149133"><ele>317.0</ele><time>2026-05-02T14:39:24.785Z</time></trkpt><trkpt lat="42.99291" lon="11.51483"><ele>317.0</ele><time>2026-05-02T14:39:26.786Z</time></trkpt><trkpt lat="42.99299" lon="11.5147533"><ele>317.0</ele><time>2026-05-02T14:39:28.787Z</time></trkpt><trkpt lat="42.99306" lon="11.514615"><ele>317.0</ele><time>2026-05-02T14:39:30.785Z</time></trkpt><trkpt lat="42.9930967" lon="11.51453"><ele>317.0</ele><time>2026-05-02T14:39:31.787Z</time></trkpt><trkpt lat="42.9931317" lon="11.5144467"><ele>317.0</ele><time>2026-05-02T14:39:32.786Z</time></trkpt><trkpt lat="42.993155" lon="11.5143633"><ele>317.0</ele><time>2026-05-02T14:39:33.787Z</time></trkpt><trkpt lat="42.993165" lon="11.5142783"><ele>313.6666666666667</ele><time>2026-05-02T14:39:34.786Z</time></trkpt><trkpt lat="42.993155" lon="11.51418"><ele>310.33333333333337</ele><time>2026-05-02T14:39:35.787Z</time></trkpt><trkpt lat="42.993135" lon="11.5140817"><ele>307.0</ele><time>2026-05-02T14:39:36.787Z</time></trkpt><trkpt lat="42.9931117" lon="11.5139783"><ele>303.6666666666667</ele><time>2026-05-02T14:39:37.785Z</time></trkpt><trkpt lat="42.9930833" lon="11.5138733"><ele>300.3333333333333</ele><time>2026-05-02T14:39:38.785Z</time></trkpt><trkpt lat="42.99306" lon="11.5137667"><ele>297.0</ele><time>2026-05-02T14:39:39.786Z</time></trkpt><trkpt lat="42.9930383" lon="11.513665"><ele>293.4</ele><time>2026-05-02T14:39:40.785Z</time></trkpt><trkpt lat="42.9930233" lon="11.5135767"><ele>289.79999999999995</ele><time>2026-05-02T14:39:41.787Z</time></trkpt><trkpt lat="42.99299" lon="11.5134483"><ele>286.2</ele><time>2026-05-02T14:39:43.785Z</time></trkpt><trkpt lat="42.9928767" lon="11.5133033"><ele>282.59999999999997</ele><time>2026-05-02T14:39:46.786Z</time></trkpt><trkpt lat="42.9928067" lon="11.5132583"><ele>279.0</ele><time>2026-05-02T14:39:47.787Z</time></trkpt><trkpt lat="42.9927267" lon="11.5132183"><ele>279.0</ele><time>2026-05-02T14:39:48.787Z</time></trkpt><trkpt lat="42.9926417" lon="11.5131833"><ele>279.0</ele><time>2026-05-02T14:39:49.787Z</time></trkpt><trkpt lat="42.9925533" lon="11.51315"><ele>279.0</ele><time>2026-05-02T14:39:50.787Z</time></trkpt><trkpt lat="42.9924633" lon="11.51312"><ele>279.0</ele><time>2026-05-02T14:39:51.788Z</time></trkpt><trkpt lat="42.9923733" lon="11.5130867"><ele>279.0</ele><time>2026-05-02T14:39:52.789Z</time></trkpt><trkpt lat="42.9922867" lon="11.5130483"><ele>279.2</ele><time>2026-05-02T14:39:53.786Z</time></trkpt><trkpt lat="42.9922067" lon="11.513"><ele>279.4</ele><time>2026-05-02T14:39:54.789Z</time></trkpt><trkpt lat="42.992135" lon="11.5129383"><ele>279.6</ele><time>2026-05-02T14:39:55.788Z</time></trkpt><trkpt lat="42.9920683" lon="11.5128533"><ele>279.8</ele><time>2026-05-02T14:39:56.786Z</time></trkpt><trkpt lat="42.99201" lon="11.512745"><ele>280.0</ele><time>2026-05-02T14:39:57.787Z</time></trkpt><trkpt lat="42.9919617" lon="11.5126067"><ele>280.0</ele><time>2026-05-02T14:39:58.786Z</time></trkpt><trkpt lat="42.99191" lon="11.5124783"><ele>280.0</ele><time>2026-05-02T14:39:59.787Z</time></trkpt><trkpt lat="42.9918433" lon="11.5123767"><ele>280.0</ele><time>2026-05-02T14:40:00.787Z</time></trkpt><trkpt lat="42.991755" lon="11.5122967"><ele>280.0</ele><time>2026-05-02T14:40:01.787Z</time></trkpt><trkpt lat="42.9916533" lon="11.512235"><ele>280.0</ele><time>2026-05-02T14:40:02.788Z</time></trkpt><trkpt lat="42.9915417" lon="11.5121967"><ele>278.5</ele><time>2026-05-02T14:40:03.786Z</time></trkpt><trkpt lat="42.991425" lon="11.5121683"><ele>277.0</ele><time>2026-05-02T14:40:04.79Z</time></trkpt><trkpt lat="42.9913067" lon="11.51214"><ele>275.5</ele><time>2026-05-02T14:40:05.789Z</time></trkpt><trkpt lat="42.9911883" lon="11.5121083"><ele>274.0</ele><time>2026-05-02T14:40:06.785Z</time></trkpt><trkpt lat="42.99107" lon="11.51207"><ele>277.0</ele><time>2026-05-02T14:40:07.789Z</time></trkpt><trkpt lat="42.990955" lon="11.5120283"><ele>280.0</ele><time>2026-05-02T14:40:08.786Z</time></trkpt><trkpt lat="42.9908383" lon="11.51199"><ele>283.0</ele><time>2026-05-02T14:40:09.786Z</time></trkpt><trkpt lat="42.99072" lon="11.5119683"><ele>286.0</ele><time>2026-05-02T14:40:10.786Z</time></trkpt><trkpt lat="42.9906067" lon="11.5119267"><ele>286.0</ele><time>2026-05-02T14:40:11.79Z</time></trkpt><trkpt lat="42.990485" lon="11.51189"><ele>286.0</ele><time>2026-05-02T14:40:12.789Z</time></trkpt><trkpt lat="42.9903583" lon="11.5118517"><ele>286.0</ele><time>2026-05-02T14:40:13.79Z</time></trkpt><trkpt lat="42.9902417" lon="11.5118233"><ele>286.0</ele><time>2026-05-02T14:40:14.786Z</time></trkpt><trkpt lat="42.9901333" lon="11.5117933"><ele>286.0</ele><time>2026-05-02T14:40:15.789Z</time></trkpt><trkpt lat="42.99003" lon="11.511765"><ele>286.0</ele><time>2026-05-02T14:40:16.789Z</time></trkpt><trkpt lat="42.989925" lon="11.5117367"><ele>286.0</ele><time>2026-05-02T14:40:17.79Z</time></trkpt><trkpt lat="42.9898267" lon="11.5117033"><ele>286.0</ele><time>2026-05-02T14:40:18.785Z</time></trkpt><trkpt lat="42.9897417" lon="11.5116633"><ele>286.0</ele><time>2026-05-02T14:40:19.789Z</time></trkpt><trkpt lat="42.9896683" lon="11.5116183"><ele>285.99999999999994</ele><time>2026-05-02T14:40:20.786Z</time></trkpt><trkpt lat="42.989615" lon="11.5115633"><ele>286.0</ele><time>2026-05-02T14:40:21.785Z</time></trkpt><trkpt lat="42.9895867" lon="11.5114767"><ele>286.0</ele><time>2026-05-02T14:40:22.788Z</time></trkpt><trkpt lat="42.98959" lon="11.5113617"><ele>286.0</ele><time>2026-05-02T14:40:23.789Z</time></trkpt><trkpt lat="42.9895817" lon="11.511265"><ele>286.0</ele><time>2026-05-02T14:40:24.789Z</time></trkpt><trkpt lat="42.9895683" lon="11.5111617"><ele>285.99999999999994</ele><time>2026-05-02T14:40:25.786Z</time></trkpt><trkpt lat="42.98955" lon="11.5110617"><ele>286.0</ele><time>2026-05-02T14:40:26.789Z</time></trkpt><trkpt lat="42.9895333" lon="11.510955"><ele>287.6</ele><time>2026-05-02T14:40:27.789Z</time></trkpt><trkpt lat="42.9895133" lon="11.51083"><ele>289.20000000000005</ele><time>2026-05-02T14:40:28.789Z</time></trkpt><trkpt lat="42.989495" lon="11.5107017"><ele>290.79999999999995</ele><time>2026-05-02T14:40:29.788Z</time></trkpt><trkpt lat="42.9894717" lon="11.5105667"><ele>292.4</ele><time>2026-05-02T14:40:30.789Z</time></trkpt><trkpt lat="42.98945" lon="11.5104267"><ele>294.0</ele><time>2026-05-02T14:40:31.789Z</time></trkpt><trkpt lat="42.9894267" lon="11.5102917"><ele>295.75</ele><time>2026-05-02T14:40:32.789Z</time></trkpt><trkpt lat="42.9894033" lon="11.5101483"><ele>297.5</ele><time>2026-05-02T14:40:33.789Z</time></trkpt><trkpt lat="42.9893867" lon="11.5099983"><ele>299.25</ele><time>2026-05-02T14:40:34.789Z</time></trkpt><trkpt lat="42.9893817" lon="11.50983"><ele>301.0</ele><time>2026-05-02T14:40:35.789Z</time></trkpt><trkpt lat="42.9893867" lon="11.5096633"><ele>299.5</ele><time>2026-05-02T14:40:36.789Z</time></trkpt><trkpt lat="42.9894" lon="11.5094867"><ele>298.0</ele><time>2026-05-02T14:40:37.786Z</time></trkpt><trkpt lat="42.9894183" lon="11.509295"><ele>296.5</ele><time>2026-05-02T14:40:38.79Z</time></trkpt><trkpt lat="42.989435" lon="11.5091067"><ele>295.0</ele><time>2026-05-02T14:40:39.789Z</time></trkpt><trkpt lat="42.9894533" lon="11.508915"><ele>291.75</ele><time>2026-05-02T14:40:40.791Z</time></trkpt><trkpt lat="42.9894683" lon="11.5087267"><ele>288.5</ele><time>2026-05-02T14:40:41.79Z</time></trkpt><trkpt lat="42.989485" lon="11.5085467"><ele>285.25</ele><time>2026-05-02T14:40:42.786Z</time></trkpt><trkpt lat="42.9895" lon="11.5083783"><ele>282.0</ele><time>2026-05-02T14:40:43.786Z</time></trkpt><trkpt lat="42.9895167" lon="11.50821"><ele>282.0</ele><time>2026-05-02T14:40:44.787Z</time></trkpt><trkpt lat="42.98954" lon="11.5080433"><ele>282.0</ele><time>2026-05-02T14:40:45.787Z</time></trkpt><trkpt lat="42.9895717" lon="11.5078767"><ele>282.0</ele><time>2026-05-02T14:40:46.787Z</time></trkpt><trkpt lat="42.9896167" lon="11.5077167"><ele>282.0</ele><time>2026-05-02T14:40:47.788Z</time></trkpt><trkpt lat="42.9896767" lon="11.5075617"><ele>279.25</ele><time>2026-05-02T14:40:48.787Z</time></trkpt><trkpt lat="42.9897517" lon="11.5074283"><ele>276.5</ele><time>2026-05-02T14:40:49.789Z</time></trkpt><trkpt lat="42.98983" lon="11.5073133"><ele>273.75</ele><time>2026-05-02T14:40:50.789Z</time></trkpt><trkpt lat="42.98992" lon="11.507205"><ele>271.0</ele><time>2026-05-02T14:40:51.789Z</time></trkpt><trkpt lat="42.9899983" lon="11.5070833"><ele>275.0</ele><time>2026-05-02T14:40:52.786Z</time></trkpt><trkpt lat="42.99006" lon="11.5069667"><ele>279.0</ele><time>2026-05-02T14:40:53.787Z</time></trkpt><trkpt lat="42.9900983" lon="11.5068433"><ele>283.0</ele><time>2026-05-02T14:40:54.786Z</time></trkpt><trkpt lat="42.9901167" lon="11.5066933"><ele>287.0</ele><time>2026-05-02T14:40:55.789Z</time></trkpt><trkpt lat="42.9901283" lon="11.506535"><ele>291.0</ele><time>2026-05-02T14:40:56.789Z</time></trkpt><trkpt lat="42.99014" lon="11.506365"><ele>289.6</ele><time>2026-05-02T14:40:57.786Z</time></trkpt><trkpt lat="42.99017" lon="11.5062267"><ele>288.20000000000005</ele><time>2026-05-02T14:40:58.786Z</time></trkpt><trkpt lat="42.9902083" lon="11.50609"><ele>286.79999999999995</ele><time>2026-05-02T14:40:59.787Z</time></trkpt><trkpt lat="42.990265" lon="11.5059583"><ele>285.4</ele><time>2026-05-02T14:41:00.787Z</time></trkpt><trkpt lat="42.9903267" lon="11.5058433"><ele>284.0</ele><time>2026-05-02T14:41:01.786Z</time></trkpt><trkpt lat="42.9904033" lon="11.505715"><ele>284.0</ele><time>2026-05-02T14:41:02.789Z</time></trkpt><trkpt lat="42.990475" lon="11.5055717"><ele>284.0</ele><time>2026-05-02T14:41:03.79Z</time></trkpt><trkpt lat="42.9905483" lon="11.50541"><ele>284.0</ele><time>2026-05-02T14:41:04.786Z</time></trkpt><trkpt lat="42.9906167" lon="11.5052417"><ele>284.0</ele><time>2026-05-02T14:41:05.787Z</time></trkpt><trkpt lat="42.9906867" lon="11.50507"><ele>286.25</ele><time>2026-05-02T14:41:06.79Z</time></trkpt><trkpt lat="42.9907583" lon="11.5048983"><ele>288.5</ele><time>2026-05-02T14:41:07.786Z</time></trkpt><trkpt lat="42.9908267" lon="11.5047217"><ele>290.75</ele><time>2026-05-02T14:41:08.786Z</time></trkpt><trkpt lat="42.99089" lon="11.5045483"><ele>293.0</ele><time>2026-05-02T14:41:09.787Z</time></trkpt><trkpt lat="42.99095" lon="11.5043767"><ele>293.0</ele><time>2026-05-02T14:41:10.786Z</time></trkpt><trkpt lat="42.9910167" lon="11.5042117"><ele>293.0</ele><time>2026-05-02T14:41:11.789Z</time></trkpt><trkpt lat="42.991085" lon="11.5040483"><ele>293.0</ele><time>2026-05-02T14:41:12.788Z</time></trkpt><trkpt lat="42.991165" lon="11.5038833"><ele>293.0</ele><time>2026-05-02T14:41:13.788Z</time></trkpt><trkpt lat="42.9912467" lon="11.50372"><ele>290.0</ele><time>2026-05-02T14:41:14.787Z</time></trkpt><trkpt lat="42.9913283" lon="11.5035517"><ele>287.0</ele><time>2026-05-02T14:41:15.789Z</time></trkpt><trkpt lat="42.9914067" lon="11.503375"><ele>284.0</ele><time>2026-05-02T14:41:16.788Z</time></trkpt><trkpt lat="42.9914717" lon="11.5031917"><ele>281.0</ele><time>2026-05-02T14:41:17.786Z</time></trkpt><trkpt lat="42.9915317" lon="11.5030033"><ele>277.6666666666667</ele><time>2026-05-02T14:41:18.786Z</time></trkpt><trkpt lat="42.9915933" lon="11.5028067"><ele>274.3333333333333</ele><time>2026-05-02T14:41:19.787Z</time></trkpt><trkpt lat="42.9916567" lon="11.502615"><ele>271.0</ele><time>2026-05-02T14:41:20.786Z</time></trkpt><trkpt lat="42.9917283" lon="11.502425"><ele>275.25</ele><time>2026-05-02T14:41:21.786Z</time></trkpt><trkpt lat="42.991795" lon="11.5022467"><ele>279.5</ele><time>2026-05-02T14:41:22.787Z</time></trkpt><trkpt lat="42.99186" lon="11.5020667"><ele>283.75</ele><time>2026-05-02T14:41:23.787Z</time></trkpt><trkpt lat="42.9919217" lon="11.5018917"><ele>288.0</ele><time>2026-05-02T14:41:24.792Z</time></trkpt><trkpt lat="42.99198" lon="11.5017333"><ele>288.0</ele><time>2026-05-02T14:41:25.787Z</time></trkpt><trkpt lat="42.9920283" lon="11.5015867"><ele>288.0</ele><time>2026-05-02T14:41:26.79Z</time></trkpt><trkpt lat="42.9920633" lon="11.5014483"><ele>288.0</ele><time>2026-05-02T14:41:27.789Z</time></trkpt><trkpt lat="42.9920783" lon="11.5013183"><ele>288.0</ele><time>2026-05-02T14:41:28.79Z</time></trkpt><trkpt lat="42.992065" lon="11.5012017"><ele>288.0</ele><time>2026-05-02T14:41:29.785Z</time></trkpt><trkpt lat="42.9920333" lon="11.5010967"><ele>287.6</ele><time>2026-05-02T14:41:30.788Z</time></trkpt><trkpt lat="42.99198" lon="11.5009983"><ele>287.20000000000005</ele><time>2026-05-02T14:41:31.785Z</time></trkpt><trkpt lat="42.9918833" lon="11.5009267"><ele>286.8</ele><time>2026-05-02T14:41:32.786Z</time></trkpt><trkpt lat="42.99177" lon="11.5008667"><ele>286.40000000000003</ele><time>2026-05-02T14:41:33.786Z</time></trkpt><trkpt lat="42.9916583" lon="11.5008"><ele>286.0</ele><time>2026-05-02T14:41:34.788Z</time></trkpt><trkpt lat="42.9915583" lon="11.5007283"><ele>285.75</ele><time>2026-05-02T14:41:35.786Z</time></trkpt><trkpt lat="42.9914617" lon="11.5006433"><ele>285.5</ele><time>2026-05-02T14:41:36.785Z</time></trkpt><trkpt lat="42.9913767" lon="11.5005467"><ele>285.25</ele><time>2026-05-02T14:41:37.787Z</time></trkpt><trkpt lat="42.9912867" lon="11.5004333"><ele>285.0</ele><time>2026-05-02T14:41:38.788Z</time></trkpt><trkpt lat="42.9911933" lon="11.5003033"><ele>285.0</ele><time>2026-05-02T14:41:39.789Z</time></trkpt><trkpt lat="42.9910967" lon="11.50016"><ele>285.0</ele><time>2026-05-02T14:41:40.785Z</time></trkpt><trkpt lat="42.9909967" lon="11.50001"><ele>285.0</ele><time>2026-05-02T14:41:41.785Z</time></trkpt><trkpt lat="42.9908917" lon="11.49985"><ele>285.0</ele><time>2026-05-02T14:41:42.786Z</time></trkpt><trkpt lat="42.990775" lon="11.499675"><ele>285.6666666666667</ele><time>2026-05-02T14:41:43.786Z</time></trkpt><trkpt lat="42.9906533" lon="11.4995017"><ele>286.33333333333337</ele><time>2026-05-02T14:41:44.789Z</time></trkpt><trkpt lat="42.990535" lon="11.4993317"><ele>287.0</ele><time>2026-05-02T14:41:45.789Z</time></trkpt><trkpt lat="42.99043" lon="11.4991733"><ele>287.0</ele><time>2026-05-02T14:41:46.786Z</time></trkpt><trkpt lat="42.9903383" lon="11.4990333"><ele>287.0</ele><time>2026-05-02T14:41:47.789Z</time></trkpt><trkpt lat="42.9902567" lon="11.4989083"><ele>287.0</ele><time>2026-05-02T14:41:48.789Z</time></trkpt><trkpt lat="42.9901817" lon="11.4988"><ele>287.0</ele><time>2026-05-02T14:41:49.789Z</time></trkpt><trkpt lat="42.99012" lon="11.4986983"><ele>288.8</ele><time>2026-05-02T14:41:50.79Z</time></trkpt><trkpt lat="42.9900733" lon="11.49859"><ele>290.6</ele><time>2026-05-02T14:41:51.789Z</time></trkpt><trkpt lat="42.9900433" lon="11.4984667"><ele>292.40000000000003</ele><time>2026-05-02T14:41:52.789Z</time></trkpt><trkpt lat="42.9900217" lon="11.4983383"><ele>294.2</ele><time>2026-05-02T14:41:53.79Z</time></trkpt><trkpt lat="42.9900233" lon="11.4981867"><ele>296.0</ele><time>2026-05-02T14:41:54.785Z</time></trkpt><trkpt lat="42.9900317" lon="11.4980283"><ele>296.5</ele><time>2026-05-02T14:41:55.793Z</time></trkpt><trkpt lat="42.9900433" lon="11.4978617"><ele>297.0</ele><time>2026-05-02T14:41:56.788Z</time></trkpt><trkpt lat="42.9900533" lon="11.4977083"><ele>297.5</ele><time>2026-05-02T14:41:57.786Z</time></trkpt><trkpt lat="42.9900683" lon="11.49756"><ele>298.0</ele><time>2026-05-02T14:41:58.786Z</time></trkpt><trkpt lat="42.99009" lon="11.4974167"><ele>298.0</ele><time>2026-05-02T14:41:59.786Z</time></trkpt><trkpt lat="42.9901217" lon="11.4972617"><ele>298.0</ele><time>2026-05-02T14:42:00.788Z</time></trkpt><trkpt lat="42.990165" lon="11.497095"><ele>298.0</ele><time>2026-05-02T14:42:01.786Z</time></trkpt><trkpt lat="42.9902183" lon="11.4969117"><ele>298.0</ele><time>2026-05-02T14:42:02.786Z</time></trkpt><trkpt lat="42.99028" lon="11.496715"><ele>296.0</ele><time>2026-05-02T14:42:03.785Z</time></trkpt><trkpt lat="42.9903467" lon="11.4965067"><ele>294.0</ele><time>2026-05-02T14:42:04.787Z</time></trkpt><trkpt lat="42.9904233" lon="11.4962783"><ele>292.0</ele><time>2026-05-02T14:42:05.786Z</time></trkpt><trkpt lat="42.990505" lon="11.4960333"><ele>289.0</ele><time>2026-05-02T14:42:06.785Z</time></trkpt><trkpt lat="42.9905817" lon="11.4957833"><ele>286.0</ele><time>2026-05-02T14:42:07.785Z</time></trkpt><trkpt lat="42.9906517" lon="11.49553"><ele>283.0</ele><time>2026-05-02T14:42:08.786Z</time></trkpt><trkpt lat="42.9907133" lon="11.495275"><ele>281.66666666666663</ele><time>2026-05-02T14:42:09.785Z</time></trkpt><trkpt lat="42.990775" lon="11.49502"><ele>280.3333333333333</ele><time>2026-05-02T14:42:10.787Z</time></trkpt><trkpt lat="42.99084" lon="11.49474"><ele>279.0</ele><time>2026-05-02T14:42:11.786Z</time></trkpt><trkpt lat="42.9909117" lon="11.4944183"><ele>286.5</ele><time>2026-05-02T14:42:12.785Z</time></trkpt><trkpt lat="42.9909817" lon="11.4940783"><ele>294.0</ele><time>2026-05-02T14:42:13.789Z</time></trkpt><trkpt lat="42.9910483" lon="11.4937617"><ele>293.3333333333333</ele><time>2026-05-02T14:42:14.789Z</time></trkpt><trkpt lat="42.991105" lon="11.49348"><ele>292.66666666666663</ele><time>2026-05-02T14:42:15.785Z</time></trkpt><trkpt lat="42.9911583" lon="11.4932067"><ele>292.0</ele><time>2026-05-02T14:42:16.79Z</time></trkpt><trkpt lat="42.9912133" lon="11.4929417"><ele>292.3333333333333</ele><time>2026-05-02T14:42:17.787Z</time></trkpt><trkpt lat="42.9912633" lon="11.4926983"><ele>292.6666666666667</ele><time>2026-05-02T14:42:18.786Z</time></trkpt><trkpt lat="42.9913083" lon="11.4924683"><ele>293.0</ele><time>2026-05-02T14:42:19.785Z</time></trkpt><trkpt lat="42.99135" lon="11.4922467"><ele>293.0</ele><time>2026-05-02T14:42:20.789Z</time></trkpt><trkpt lat="42.99139" lon="11.4920367"><ele>293.0</ele><time>2026-05-02T14:42:21.789Z</time></trkpt><trkpt lat="42.991425" lon="11.4918267"><ele>293.0</ele><time>2026-05-02T14:42:22.786Z</time></trkpt><trkpt lat="42.9914617" lon="11.4916167"><ele>293.0</ele><time>2026-05-02T14:42:23.786Z</time></trkpt><trkpt lat="42.9914967" lon="11.49142"><ele>293.0</ele><time>2026-05-02T14:42:24.79Z</time></trkpt><trkpt lat="42.991535" lon="11.49122"><ele>293.0</ele><time>2026-05-02T14:42:25.788Z</time></trkpt><trkpt lat="42.99157" lon="11.4910267"><ele>293.0</ele><time>2026-05-02T14:42:26.789Z</time></trkpt><trkpt lat="42.9916017" lon="11.4908367"><ele>293.25</ele><time>2026-05-02T14:42:27.789Z</time></trkpt><trkpt lat="42.9916333" lon="11.4906517"><ele>293.5</ele><time>2026-05-02T14:42:28.787Z</time></trkpt><trkpt lat="42.9916633" lon="11.4904717"><ele>293.75</ele><time>2026-05-02T14:42:29.789Z</time></trkpt><trkpt lat="42.9916933" lon="11.4902933"><ele>294.0</ele><time>2026-05-02T14:42:30.789Z</time></trkpt><trkpt lat="42.991725" lon="11.490115"><ele>298.25</ele><time>2026-05-02T14:42:31.786Z</time></trkpt><trkpt lat="42.9917533" lon="11.4899333"><ele>302.5</ele><time>2026-05-02T14:42:32.791Z</time></trkpt><trkpt lat="42.9917867" lon="11.4897533"><ele>306.75</ele><time>2026-05-02T14:42:33.785Z</time></trkpt><trkpt lat="42.99182" lon="11.48957"><ele>311.0</ele><time>2026-05-02T14:42:34.785Z</time></trkpt><trkpt lat="42.9918517" lon="11.489385"><ele>311.0</ele><time>2026-05-02T14:42:35.786Z</time></trkpt><trkpt lat="42.9918783" lon="11.4892017"><ele>311.0</ele><time>2026-05-02T14:42:36.785Z</time></trkpt><trkpt lat="42.9919017" lon="11.4890267"><ele>311.0</ele><time>2026-05-02T14:42:37.789Z</time></trkpt><trkpt lat="42.9919217" lon="11.488865"><ele>311.0</ele><time>2026-05-02T14:42:38.786Z</time></trkpt><trkpt lat="42.9919333" lon="11.48872"><ele>310.6</ele><time>2026-05-02T14:42:39.785Z</time></trkpt><trkpt lat="42.9919417" lon="11.48858"><ele>310.20000000000005</ele><time>2026-05-02T14:42:40.786Z</time></trkpt><trkpt lat="42.9919517" lon="11.4884467"><ele>309.79999999999995</ele><time>2026-05-02T14:42:41.789Z</time></trkpt><trkpt lat="42.99196" lon="11.4883167"><ele>309.4</ele><time>2026-05-02T14:42:42.785Z</time></trkpt><trkpt lat="42.9919733" lon="11.488195"><ele>309.0</ele><time>2026-05-02T14:42:43.786Z</time></trkpt><trkpt lat="42.99199" lon="11.48806"><ele>309.0</ele><time>2026-05-02T14:42:44.786Z</time></trkpt><trkpt lat="42.9920117" lon="11.4879283"><ele>309.0</ele><time>2026-05-02T14:42:45.785Z</time></trkpt><trkpt lat="42.9920317" lon="11.4878"><ele>309.0</ele><time>2026-05-02T14:42:46.786Z</time></trkpt><trkpt lat="42.9920517" lon="11.48768"><ele>309.0</ele><time>2026-05-02T14:42:47.787Z</time></trkpt><trkpt lat="42.9920717" lon="11.487575"><ele>309.0</ele><time>2026-05-02T14:42:48.785Z</time></trkpt><trkpt lat="42.9920867" lon="11.4874883"><ele>309.0</ele><time>2026-05-02T14:42:49.786Z</time></trkpt><trkpt lat="42.9920983" lon="11.487355"><ele>308.0</ele><time>2026-05-02T14:42:51.786Z</time></trkpt><trkpt lat="42.992045" lon="11.4872733"><ele>307.0</ele><time>2026-05-02T14:42:55.789Z</time></trkpt><trkpt lat="42.9919717" lon="11.4872483"><ele>306.0</ele><time>2026-05-02T14:42:57.789Z</time></trkpt><trkpt lat="42.991845" lon="11.4872067"><ele>305.0</ele><time>2026-05-02T14:42:59.788Z</time></trkpt><trkpt lat="42.991745" lon="11.4871667"><ele>304.0</ele><time>2026-05-02T14:43:00.789Z</time></trkpt><trkpt lat="42.9916383" lon="11.4871217"><ele>299.25</ele><time>2026-05-02T14:43:01.79Z</time></trkpt><trkpt lat="42.991535" lon="11.4870817"><ele>294.5</ele><time>2026-05-02T14:43:02.789Z</time></trkpt><trkpt lat="42.99142" lon="11.4870433"><ele>289.75</ele><time>2026-05-02T14:43:03.786Z</time></trkpt><trkpt lat="42.9913" lon="11.4870033"><ele>285.0</ele><time>2026-05-02T14:43:04.787Z</time></trkpt><trkpt lat="42.9911767" lon="11.4869633"><ele>285.0</ele><time>2026-05-02T14:43:05.789Z</time></trkpt><trkpt lat="42.9910533" lon="11.4869217"><ele>285.0</ele><time>2026-05-02T14:43:06.789Z</time></trkpt><trkpt lat="42.9909233" lon="11.486875"><ele>285.0</ele><time>2026-05-02T14:43:07.787Z</time></trkpt><trkpt lat="42.9907983" lon="11.4868267"><ele>285.0</ele><time>2026-05-02T14:43:08.786Z</time></trkpt><trkpt lat="42.9906733" lon="11.48678"><ele>283.25</ele><time>2026-05-02T14:43:09.786Z</time></trkpt><trkpt lat="42.9905517" lon="11.486735"><ele>281.5</ele><time>2026-05-02T14:43:10.789Z</time></trkpt><trkpt lat="42.9904317" lon="11.4866867"><ele>279.75</ele><time>2026-05-02T14:43:11.786Z</time></trkpt><trkpt lat="42.990315" lon="11.4866383"><ele>278.0</ele><time>2026-05-02T14:43:12.785Z</time></trkpt><trkpt lat="42.9901967" lon="11.4865933"><ele>278.0</ele><time>2026-05-02T14:43:13.785Z</time></trkpt><trkpt lat="42.9900767" lon="11.4865517"><ele>278.0</ele><time>2026-05-02T14:43:14.787Z</time></trkpt><trkpt lat="42.9899567" lon="11.48651"><ele>278.0</ele><time>2026-05-02T14:43:15.787Z</time></trkpt><trkpt lat="42.9898417" lon="11.48647"><ele>278.0</ele><time>2026-05-02T14:43:16.786Z</time></trkpt><trkpt lat="42.9897283" lon="11.4864333"><ele>276.6</ele><time>2026-05-02T14:43:17.786Z</time></trkpt><trkpt lat="42.9896217" lon="11.4863917"><ele>275.20000000000005</ele><time>2026-05-02T14:43:18.785Z</time></trkpt><trkpt lat="42.9895183" lon="11.486355"><ele>273.8</ele><time>2026-05-02T14:43:19.787Z</time></trkpt><trkpt lat="42.98942" lon="11.48632"><ele>272.40000000000003</ele><time>2026-05-02T14:43:20.787Z</time></trkpt><trkpt lat="42.9893283" lon="11.4862867"><ele>271.0</ele><time>2026-05-02T14:43:21.788Z</time></trkpt><trkpt lat="42.9892433" lon="11.486255"><ele>270.42857142857144</ele><time>2026-05-02T14:43:22.787Z</time></trkpt><trkpt lat="42.9891617" lon="11.4862283"><ele>269.8571428571429</ele><time>2026-05-02T14:43:23.788Z</time></trkpt><trkpt lat="42.98909" lon="11.4862"><ele>269.28571428571433</ele><time>2026-05-02T14:43:24.789Z</time></trkpt><trkpt lat="42.9890233" lon="11.4861733"><ele>268.7142857142857</ele><time>2026-05-02T14:43:25.789Z</time></trkpt><trkpt lat="42.9889617" lon="11.4861533"><ele>268.14285714285717</ele><time>2026-05-02T14:43:26.789Z</time></trkpt><trkpt lat="42.988895" lon="11.486135"><ele>267.5714285714286</ele><time>2026-05-02T14:43:27.789Z</time></trkpt><trkpt lat="42.9888167" lon="11.48611"><ele>267.0</ele><time>2026-05-02T14:43:28.789Z</time></trkpt><trkpt lat="42.9887267" lon="11.4860783"><ele>267.0</ele><time>2026-05-02T14:43:29.789Z</time></trkpt><trkpt lat="42.9886333" lon="11.48604"><ele>267.0</ele><time>2026-05-02T14:43:30.79Z</time></trkpt><trkpt lat="42.9885333" lon="11.4859983"><ele>267.0</ele><time>2026-05-02T14:43:31.787Z</time></trkpt><trkpt lat="42.9884333" lon="11.48596"><ele>267.0</ele><time>2026-05-02T14:43:32.789Z</time></trkpt><trkpt lat="42.9883317" lon="11.4859217"><ele>267.0</ele><time>2026-05-02T14:43:33.785Z</time></trkpt><trkpt lat="42.9882283" lon="11.4858833"><ele>267.4</ele><time>2026-05-02T14:43:34.786Z</time></trkpt><trkpt lat="42.988125" lon="11.4858467"><ele>267.79999999999995</ele><time>2026-05-02T14:43:35.787Z</time></trkpt><trkpt lat="42.9880217" lon="11.4858117"><ele>268.2</ele><time>2026-05-02T14:43:36.786Z</time></trkpt><trkpt lat="42.9879217" lon="11.4857783"><ele>268.59999999999997</ele><time>2026-05-02T14:43:37.787Z</time></trkpt><trkpt lat="42.9878267" lon="11.4857433"><ele>269.0</ele><time>2026-05-02T14:43:38.787Z</time></trkpt><trkpt lat="42.9877333" lon="11.48571"><ele>269.0</ele><time>2026-05-02T14:43:39.786Z</time></trkpt><trkpt lat="42.9876367" lon="11.4856767"><ele>269.0</ele><time>2026-05-02T14:43:40.786Z</time></trkpt><trkpt lat="42.9875383" lon="11.485645"><ele>269.0</ele><time>2026-05-02T14:43:41.787Z</time></trkpt><trkpt lat="42.98744" lon="11.48561"><ele>269.0</ele><time>2026-05-02T14:43:42.786Z</time></trkpt><trkpt lat="42.9873483" lon="11.4855767"><ele>269.0</ele><time>2026-05-02T14:43:43.787Z</time></trkpt><trkpt lat="42.987265" lon="11.4855383"><ele>269.0</ele><time>2026-05-02T14:43:44.786Z</time></trkpt><trkpt lat="42.9871883" lon="11.4855033"><ele>269.0</ele><time>2026-05-02T14:43:45.786Z</time></trkpt><trkpt lat="42.9871233" lon="11.4854633"><ele>269.0</ele><time>2026-05-02T14:43:46.786Z</time></trkpt><trkpt lat="42.9870683" lon="11.4854033"><ele>269.0</ele><time>2026-05-02T14:43:47.788Z</time></trkpt><trkpt lat="42.9870167" lon="11.4853267"><ele>269.0</ele><time>2026-05-02T14:43:48.787Z</time></trkpt><trkpt lat="42.9869617" lon="11.4852483"><ele>269.0</ele><time>2026-05-02T14:43:49.787Z</time></trkpt><trkpt lat="42.9869117" lon="11.4851783"><ele>269.0</ele><time>2026-05-02T14:43:50.788Z</time></trkpt><trkpt lat="42.98686" lon="11.4851117"><ele>269.0</ele><time>2026-05-02T14:43:51.787Z</time></trkpt><trkpt lat="42.9867617" lon="11.4850133"><ele>269.0</ele><time>2026-05-02T14:43:53.786Z</time></trkpt><trkpt lat="42.9867017" lon="11.484985"><ele>269.0</ele><time>2026-05-02T14:43:54.789Z</time></trkpt><trkpt lat="42.9866317" lon="11.4849767"><ele>269.0</ele><time>2026-05-02T14:43:55.789Z</time></trkpt><trkpt lat="42.9865517" lon="11.4849867"><ele>269.0</ele><time>2026-05-02T14:43:56.788Z</time></trkpt><trkpt lat="42.9864683" lon="11.4849967"><ele>268.8</ele><time>2026-05-02T14:43:57.787Z</time></trkpt><trkpt lat="42.98638" lon="11.4849983"><ele>268.59999999999997</ele><time>2026-05-02T14:43:58.787Z</time></trkpt><trkpt lat="42.986295" lon="11.484995"><ele>268.4</ele><time>2026-05-02T14:43:59.787Z</time></trkpt><trkpt lat="42.9862067" lon="11.4849883"><ele>268.2</ele><time>2026-05-02T14:44:00.787Z</time></trkpt><trkpt lat="42.9861117" lon="11.4849817"><ele>268.0</ele><time>2026-05-02T14:44:01.787Z</time></trkpt><trkpt lat="42.986015" lon="11.4849783"><ele>268.0</ele><time>2026-05-02T14:44:02.788Z</time></trkpt><trkpt lat="42.985915" lon="11.484975"><ele>268.0</ele><time>2026-05-02T14:44:03.787Z</time></trkpt><trkpt lat="42.9858217" lon="11.4849717"><ele>268.0</ele><time>2026-05-02T14:44:04.786Z</time></trkpt><trkpt lat="42.9857367" lon="11.4849567"><ele>268.0</ele><time>2026-05-02T14:44:05.788Z</time></trkpt><trkpt lat="42.98566" lon="11.48493"><ele>268.0</ele><time>2026-05-02T14:44:06.786Z</time></trkpt><trkpt lat="42.9855867" lon="11.484895"><ele>268.0</ele><time>2026-05-02T14:44:07.787Z</time></trkpt><trkpt lat="42.9855167" lon="11.4848567"><ele>267.7142857142857</ele><time>2026-05-02T14:44:08.789Z</time></trkpt><trkpt lat="42.9854533" lon="11.4848167"><ele>267.42857142857144</ele><time>2026-05-02T14:44:09.787Z</time></trkpt><trkpt lat="42.9853883" lon="11.4847883"><ele>267.1428571428571</ele><time>2026-05-02T14:44:10.786Z</time></trkpt><trkpt lat="42.9853167" lon="11.48478"><ele>266.8571428571429</ele><time>2026-05-02T14:44:11.788Z</time></trkpt><trkpt lat="42.9852417" lon="11.484795"><ele>266.57142857142856</ele><time>2026-05-02T14:44:12.786Z</time></trkpt><trkpt lat="42.98517" lon="11.4848233"><ele>266.2857142857143</ele><time>2026-05-02T14:44:13.787Z</time></trkpt><trkpt lat="42.985105" lon="11.4848517"><ele>266.0</ele><time>2026-05-02T14:44:14.786Z</time></trkpt><trkpt lat="42.9850017" lon="11.4848517"><ele>266.0</ele><time>2026-05-02T14:44:16.786Z</time></trkpt><trkpt lat="42.9848767" lon="11.4847767"><ele>266.0</ele><time>2026-05-02T14:44:18.788Z</time></trkpt><trkpt lat="42.9847967" lon="11.4847083"><ele>266.0</ele><time>2026-05-02T14:44:19.787Z</time></trkpt><trkpt lat="42.98472" lon="11.4846383"><ele>266.0</ele><time>2026-05-02T14:44:20.789Z</time></trkpt><trkpt lat="42.984645" lon="11.48456"><ele>266.0</ele><time>2026-05-02T14:44:21.786Z</time></trkpt><trkpt lat="42.9845717" lon="11.48447"><ele>265.6</ele><time>2026-05-02T14:44:22.79Z</time></trkpt><trkpt lat="42.984495" lon="11.484375"><ele>265.20000000000005</ele><time>2026-05-02T14:44:23.787Z</time></trkpt><trkpt lat="42.9844117" lon="11.4842867"><ele>264.79999999999995</ele><time>2026-05-02T14:44:24.79Z</time></trkpt><trkpt lat="42.9843167" lon="11.4842133"><ele>264.4</ele><time>2026-05-02T14:44:25.789Z</time></trkpt><trkpt lat="42.984215" lon="11.484165"><ele>264.0</ele><time>2026-05-02T14:44:26.786Z</time></trkpt><trkpt lat="42.9841083" lon="11.4841317"><ele>264.0</ele><time>2026-05-02T14:44:27.787Z</time></trkpt><trkpt lat="42.9840017" lon="11.4841117"><ele>264.0</ele><time>2026-05-02T14:44:28.786Z</time></trkpt><trkpt lat="42.98389" lon="11.4841067"><ele>264.0</ele><time>2026-05-02T14:44:29.786Z</time></trkpt><trkpt lat="42.98378" lon="11.4841017"><ele>264.0</ele><time>2026-05-02T14:44:30.786Z</time></trkpt><trkpt lat="42.9836733" lon="11.4840883"><ele>264.0</ele><time>2026-05-02T14:44:31.785Z</time></trkpt><trkpt lat="42.9835733" lon="11.4840683"><ele>264.0</ele><time>2026-05-02T14:44:32.785Z</time></trkpt><trkpt lat="42.9834767" lon="11.4840417"><ele>264.0</ele><time>2026-05-02T14:44:33.787Z</time></trkpt><trkpt lat="42.9833783" lon="11.4839983"><ele>264.0</ele><time>2026-05-02T14:44:34.786Z</time></trkpt><trkpt lat="42.9832733" lon="11.483965"><ele>264.0</ele><time>2026-05-02T14:44:35.786Z</time></trkpt><trkpt lat="42.9831683" lon="11.4839333"><ele>264.0</ele><time>2026-05-02T14:44:36.785Z</time></trkpt><trkpt lat="42.9830683" lon="11.48392"><ele>264.1666666666667</ele><time>2026-05-02T14:44:37.785Z</time></trkpt><trkpt lat="42.982975" lon="11.4839217"><ele>264.3333333333333</ele><time>2026-05-02T14:44:38.786Z</time></trkpt><trkpt lat="42.98289" lon="11.4839233"><ele>264.5</ele><time>2026-05-02T14:44:39.787Z</time></trkpt><trkpt lat="42.9828083" lon="11.483915"><ele>264.66666666666663</ele><time>2026-05-02T14:44:40.786Z</time></trkpt><trkpt lat="42.9827283" lon="11.48389"><ele>264.8333333333333</ele><time>2026-05-02T14:44:41.786Z</time></trkpt><trkpt lat="42.98264" lon="11.48385"><ele>265.0</ele><time>2026-05-02T14:44:42.786Z</time></trkpt><trkpt lat="42.9825533" lon="11.4837983"><ele>264.3333333333333</ele><time>2026-05-02T14:44:43.785Z</time></trkpt><trkpt lat="42.9824717" lon="11.48374"><ele>263.66666666666663</ele><time>2026-05-02T14:44:44.785Z</time></trkpt><trkpt lat="42.9823917" lon="11.4836767"><ele>263.0</ele><time>2026-05-02T14:44:45.785Z</time></trkpt><trkpt lat="42.982315" lon="11.4836133"><ele>262.3333333333333</ele><time>2026-05-02T14:44:46.786Z</time></trkpt><trkpt lat="42.9822383" lon="11.4835517"><ele>261.6666666666667</ele><time>2026-05-02T14:44:47.786Z</time></trkpt><trkpt lat="42.9821717" lon="11.4834933"><ele>261.0</ele><time>2026-05-02T14:44:48.785Z</time></trkpt><trkpt lat="42.982105" lon="11.4834367"><ele>261.0</ele><time>2026-05-02T14:44:49.785Z</time></trkpt><trkpt lat="42.9820333" lon="11.48337"><ele>261.0</ele><time>2026-05-02T14:44:50.786Z</time></trkpt><trkpt lat="42.9819533" lon="11.4832933"><ele>261.0</ele><time>2026-05-02T14:44:51.785Z</time></trkpt><trkpt lat="42.9818667" lon="11.483215"><ele>261.0</ele><time>2026-05-02T14:44:52.785Z</time></trkpt><trkpt lat="42.98177" lon="11.4831317"><ele>261.0</ele><time>2026-05-02T14:44:53.787Z</time></trkpt><trkpt lat="42.9816717" lon="11.48304"><ele>259.0</ele><time>2026-05-02T14:44:54.785Z</time></trkpt><trkpt lat="42.98157" lon="11.4829417"><ele>257.0</ele><time>2026-05-02T14:44:55.789Z</time></trkpt><trkpt lat="42.9814633" lon="11.4828367"><ele>255.0</ele><time>2026-05-02T14:44:56.787Z</time></trkpt><trkpt lat="42.98135" lon="11.4827367"><ele>253.0</ele><time>2026-05-02T14:44:57.785Z</time></trkpt><trkpt lat="42.98123" lon="11.4826333"><ele>252.25</ele><time>2026-05-02T14:44:58.785Z</time></trkpt><trkpt lat="42.9811133" lon="11.48253"><ele>251.5</ele><time>2026-05-02T14:44:59.786Z</time></trkpt><trkpt lat="42.9810033" lon="11.4824283"><ele>250.75</ele><time>2026-05-02T14:45:00.786Z</time></trkpt><trkpt lat="42.9809017" lon="11.482325"><ele>250.0</ele><time>2026-05-02T14:45:01.786Z</time></trkpt><trkpt lat="42.980795" lon="11.4822267"><ele>248.5</ele><time>2026-05-02T14:45:02.786Z</time></trkpt><trkpt lat="42.98068" lon="11.4821333"><ele>247.0</ele><time>2026-05-02T14:45:03.785Z</time></trkpt><trkpt lat="42.9805583" lon="11.482045"><ele>245.5</ele><time>2026-05-02T14:45:04.786Z</time></trkpt><trkpt lat="42.9804367" lon="11.48196"><ele>244.0</ele><time>2026-05-02T14:45:05.786Z</time></trkpt><trkpt lat="42.9803117" lon="11.4818733"><ele>243.25</ele><time>2026-05-02T14:45:06.785Z</time></trkpt><trkpt lat="42.980185" lon="11.4817867"><ele>242.5</ele><time>2026-05-02T14:45:07.786Z</time></trkpt><trkpt lat="42.98006" lon="11.4817083"><ele>241.75</ele><time>2026-05-02T14:45:08.786Z</time></trkpt><trkpt lat="42.9799383" lon="11.48164"><ele>241.0</ele><time>2026-05-02T14:45:09.785Z</time></trkpt><trkpt lat="42.9798133" lon="11.48159"><ele>239.5</ele><time>2026-05-02T14:45:10.785Z</time></trkpt><trkpt lat="42.9796883" lon="11.4815533"><ele>238.0</ele><time>2026-05-02T14:45:11.785Z</time></trkpt><trkpt lat="42.9795617" lon="11.4815217"><ele>236.5</ele><time>2026-05-02T14:45:12.785Z</time></trkpt><trkpt lat="42.9794317" lon="11.4814767"><ele>235.0</ele><time>2026-05-02T14:45:13.785Z</time></trkpt><trkpt lat="42.979305" lon="11.4814183"><ele>233.25</ele><time>2026-05-02T14:45:14.787Z</time></trkpt><trkpt lat="42.979175" lon="11.481355"><ele>231.5</ele><time>2026-05-02T14:45:15.785Z</time></trkpt><trkpt lat="42.9790433" lon="11.4812867"><ele>229.75</ele><time>2026-05-02T14:45:16.786Z</time></trkpt><trkpt lat="42.978915" lon="11.48122"><ele>228.0</ele><time>2026-05-02T14:45:17.786Z</time></trkpt><trkpt lat="42.97879" lon="11.48116"><ele>227.5</ele><time>2026-05-02T14:45:18.785Z</time></trkpt><trkpt lat="42.97867" lon="11.4811017"><ele>227.0</ele><time>2026-05-02T14:45:19.785Z</time></trkpt><trkpt lat="42.9785567" lon="11.481035"><ele>226.5</ele><time>2026-05-02T14:45:20.785Z</time></trkpt><trkpt lat="42.9784367" lon="11.48097"><ele>226.0</ele><time>2026-05-02T14:45:21.786Z</time></trkpt><trkpt lat="42.9783217" lon="11.4809033"><ele>224.75</ele><time>2026-05-02T14:45:22.785Z</time></trkpt><trkpt lat="42.9782133" lon="11.48085"><ele>223.5</ele><time>2026-05-02T14:45:23.786Z</time></trkpt><trkpt lat="42.9781117" lon="11.4807983"><ele>222.25</ele><time>2026-05-02T14:45:24.787Z</time></trkpt><trkpt lat="42.978" lon="11.4807517"><ele>221.0</ele><time>2026-05-02T14:45:25.79Z</time></trkpt><trkpt lat="42.9778917" lon="11.48071"><ele>221.0</ele><time>2026-05-02T14:45:26.785Z</time></trkpt><trkpt lat="42.977775" lon="11.4806783"><ele>221.0</ele><time>2026-05-02T14:45:27.785Z</time></trkpt><trkpt lat="42.9776483" lon="11.4806633"><ele>221.0</ele><time>2026-05-02T14:45:28.786Z</time></trkpt><trkpt lat="42.9775133" lon="11.4806583"><ele>221.0</ele><time>2026-05-02T14:45:29.787Z</time></trkpt><trkpt lat="42.9773717" lon="11.4806567"><ele>220.5</ele><time>2026-05-02T14:45:30.785Z</time></trkpt><trkpt lat="42.9772317" lon="11.48066"><ele>220.0</ele><time>2026-05-02T14:45:31.786Z</time></trkpt><trkpt lat="42.9770967" lon="11.4806617"><ele>219.5</ele><time>2026-05-02T14:45:32.786Z</time></trkpt><trkpt lat="42.9769683" lon="11.4806667"><ele>219.0</ele><time>2026-05-02T14:45:33.785Z</time></trkpt><trkpt lat="42.9768433" lon="11.4806733"><ele>219.0</ele><time>2026-05-02T14:45:34.785Z</time></trkpt><trkpt lat="42.9767217" lon="11.4806783"><ele>219.0</ele><time>2026-05-02T14:45:35.786Z</time></trkpt><trkpt lat="42.976605" lon="11.4806833"><ele>219.0</ele><time>2026-05-02T14:45:36.785Z</time></trkpt><trkpt lat="42.9764917" lon="11.4806883"><ele>219.0</ele><time>2026-05-02T14:45:37.785Z</time></trkpt><trkpt lat="42.9763833" lon="11.4806917"><ele>218.39999999999998</ele><time>2026-05-02T14:45:38.786Z</time></trkpt><trkpt lat="42.97628" lon="11.4806967"><ele>217.79999999999998</ele><time>2026-05-02T14:45:39.785Z</time></trkpt><trkpt lat="42.9761783" lon="11.4807017"><ele>217.20000000000002</ele><time>2026-05-02T14:45:40.786Z</time></trkpt><trkpt lat="42.9760817" lon="11.4807083"><ele>216.60000000000002</ele><time>2026-05-02T14:45:41.786Z</time></trkpt><trkpt lat="42.975995" lon="11.4807117"><ele>216.0</ele><time>2026-05-02T14:45:42.786Z</time></trkpt><trkpt lat="42.9759217" lon="11.4807117"><ele>215.0</ele><time>2026-05-02T14:45:43.786Z</time></trkpt><trkpt lat="42.975815" lon="11.4806933"><ele>214.00000000000003</ele><time>2026-05-02T14:45:45.786Z</time></trkpt><trkpt lat="42.97574" lon="11.4806233"><ele>213.0</ele><time>2026-05-02T14:45:47.786Z</time></trkpt><trkpt lat="42.9756933" lon="11.480505"><ele>212.0</ele><time>2026-05-02T14:45:49.786Z</time></trkpt><trkpt lat="42.97569" lon="11.48032"><ele>211.0</ele><time>2026-05-02T14:45:51.786Z</time></trkpt><trkpt lat="42.9757117" lon="11.4802017"><ele>211.60000000000002</ele><time>2026-05-02T14:45:52.79Z</time></trkpt><trkpt lat="42.9757467" lon="11.4800617"><ele>212.2</ele><time>2026-05-02T14:45:53.791Z</time></trkpt><trkpt lat="42.9757917" lon="11.4799183"><ele>212.79999999999998</ele><time>2026-05-02T14:45:54.785Z</time></trkpt><trkpt lat="42.97584" lon="11.479775"><ele>213.39999999999998</ele><time>2026-05-02T14:45:55.789Z</time></trkpt><trkpt lat="42.9758967" lon="11.479645"><ele>214.0</ele><time>2026-05-02T14:45:56.786Z</time></trkpt><trkpt lat="42.975965" lon="11.4795267"><ele>212.0</ele><time>2026-05-02T14:45:57.785Z</time></trkpt><trkpt lat="42.9760467" lon="11.47942"><ele>210.0</ele><time>2026-05-02T14:45:58.785Z</time></trkpt><trkpt lat="42.97614" lon="11.4793267"><ele>208.0</ele><time>2026-05-02T14:45:59.786Z</time></trkpt><trkpt lat="42.97624" lon="11.479245"><ele>206.0</ele><time>2026-05-02T14:46:00.785Z</time></trkpt><trkpt lat="42.97634" lon="11.4791767"><ele>206.0</ele><time>2026-05-02T14:46:01.788Z</time></trkpt><trkpt lat="42.976435" lon="11.47913"><ele>206.0</ele><time>2026-05-02T14:46:02.786Z</time></trkpt><trkpt lat="42.9765133" lon="11.4790983"><ele>206.0</ele><time>2026-05-02T14:46:03.787Z</time></trkpt><trkpt lat="42.9765783" lon="11.4790617"><ele>206.0</ele><time>2026-05-02T14:46:04.785Z</time></trkpt><trkpt lat="42.9766417" lon="11.4789533"><ele>206.0</ele><time>2026-05-02T14:46:06.786Z</time></trkpt><trkpt lat="42.9766067" lon="11.478815"><ele>206.4</ele><time>2026-05-02T14:46:08.789Z</time></trkpt><trkpt lat="42.9765417" lon="11.4787433"><ele>206.8</ele><time>2026-05-02T14:46:09.786Z</time></trkpt><trkpt lat="42.97647" lon="11.47868"><ele>207.20000000000002</ele><time>2026-05-02T14:46:10.79Z</time></trkpt><trkpt lat="42.9763783" lon="11.4786033"><ele>207.60000000000002</ele><time>2026-05-02T14:46:11.788Z</time></trkpt><trkpt lat="42.9762783" lon="11.4785233"><ele>208.0</ele><time>2026-05-02T14:46:12.79Z</time></trkpt><trkpt lat="42.9761867" lon="11.478435"><ele>207.99999999999997</ele><time>2026-05-02T14:46:13.789Z</time></trkpt><trkpt lat="42.9761117" lon="11.4783383"><ele>208.0</ele><time>2026-05-02T14:46:14.789Z</time></trkpt><trkpt lat="42.9760667" lon="11.478245"><ele>208.0</ele><time>2026-05-02T14:46:15.789Z</time></trkpt><trkpt lat="42.9760483" lon="11.4781567"><ele>208.0</ele><time>2026-05-02T14:46:16.789Z</time></trkpt><trkpt lat="42.9760333" lon="11.4780717"><ele>207.99999999999997</ele><time>2026-05-02T14:46:17.789Z</time></trkpt><trkpt lat="42.9760183" lon="11.47795"><ele>208.0</ele><time>2026-05-02T14:46:19.789Z</time></trkpt><trkpt lat="42.9760217" lon="11.4778483"><ele>208.66666666666666</ele><time>2026-05-02T14:46:22.789Z</time></trkpt><trkpt lat="42.9760467" lon="11.477765"><ele>209.33333333333331</ele><time>2026-05-02T14:46:25.788Z</time></trkpt><trkpt lat="42.976055" lon="11.47765"><ele>210.0</ele><time>2026-05-02T14:46:28.787Z</time></trkpt><trkpt lat="42.976075" lon="11.47752"><ele>210.66666666666669</ele><time>2026-05-02T14:46:31.786Z</time></trkpt><trkpt lat="42.976085" lon="11.47743"><ele>211.33333333333334</ele><time>2026-05-02T14:46:33.787Z</time></trkpt><trkpt lat="42.97609" lon="11.4773033"><ele>212.0</ele><time>2026-05-02T14:46:36.789Z</time></trkpt><trkpt lat="42.976085" lon="11.47718"><ele>211.66666666666669</ele><time>2026-05-02T14:46:39.789Z</time></trkpt><trkpt lat="42.976085" lon="11.4770833"><ele>211.33333333333334</ele><time>2026-05-02T14:46:41.79Z</time></trkpt><trkpt lat="42.9760983" lon="11.4769817"><ele>211.0</ele><time>2026-05-02T14:46:43.789Z</time></trkpt><trkpt lat="42.9761133" lon="11.4768567"><ele>210.66666666666669</ele><time>2026-05-02T14:46:46.789Z</time></trkpt><trkpt lat="42.9761133" lon="11.476765"><ele>210.33333333333334</ele><time>2026-05-02T14:46:48.789Z</time></trkpt><trkpt lat="42.9761033" lon="11.476665"><ele>210.0</ele><time>2026-05-02T14:46:50.789Z</time></trkpt><trkpt lat="42.9760733" lon="11.476575"><ele>210.0</ele><time>2026-05-02T14:46:52.786Z</time></trkpt><trkpt lat="42.9760117" lon="11.47645"><ele>210.0</ele><time>2026-05-02T14:46:54.789Z</time></trkpt><trkpt lat="42.9759633" lon="11.4763633"><ele>210.0</ele><time>2026-05-02T14:46:55.789Z</time></trkpt><trkpt lat="42.9759133" lon="11.47626"><ele>210.0</ele><time>2026-05-02T14:46:56.787Z</time></trkpt><trkpt lat="42.9758583" lon="11.4761383"><ele>210.0</ele><time>2026-05-02T14:46:57.786Z</time></trkpt><trkpt lat="42.97581" lon="11.475995"><ele>209.4</ele><time>2026-05-02T14:46:58.786Z</time></trkpt><trkpt lat="42.9757767" lon="11.4758533"><ele>208.8</ele><time>2026-05-02T14:46:59.786Z</time></trkpt><trkpt lat="42.9757567" lon="11.4757233"><ele>208.2</ele><time>2026-05-02T14:47:00.786Z</time></trkpt><trkpt lat="42.97576" lon="11.4756033"><ele>207.6</ele><time>2026-05-02T14:47:01.787Z</time></trkpt><trkpt lat="42.975785" lon="11.4754833"><ele>207.0</ele><time>2026-05-02T14:47:02.787Z</time></trkpt><trkpt lat="42.9758183" lon="11.4753483"><ele>206.33333333333334</ele><time>2026-05-02T14:47:03.788Z</time></trkpt><trkpt lat="42.97585" lon="11.4752233"><ele>205.66666666666669</ele><time>2026-05-02T14:47:04.786Z</time></trkpt><trkpt lat="42.97588" lon="11.4751167"><ele>205.0</ele><time>2026-05-02T14:47:05.787Z</time></trkpt><trkpt lat="42.9759017" lon="11.4750217"><ele>204.33333333333334</ele><time>2026-05-02T14:47:06.786Z</time></trkpt><trkpt lat="42.97592" lon="11.4748783"><ele>203.66666666666669</ele><time>2026-05-02T14:47:08.786Z</time></trkpt><trkpt lat="42.9758967" lon="11.4747917"><ele>203.0</ele><time>2026-05-02T14:47:10.786Z</time></trkpt><trkpt lat="42.9758333" lon="11.4747083"><ele>203.0</ele><time>2026-05-02T14:47:12.789Z</time></trkpt><trkpt lat="42.9757267" lon="11.474655"><ele>203.0</ele><time>2026-05-02T14:47:14.789Z</time></trkpt><trkpt lat="42.97562" lon="11.474625"><ele>203.0</ele><time>2026-05-02T14:47:16.79Z</time></trkpt><trkpt lat="42.9754967" lon="11.47459"><ele>203.0</ele><time>2026-05-02T14:47:18.789Z</time></trkpt><trkpt lat="42.9753933" lon="11.4745567"><ele>201.66666666666669</ele><time>2026-05-02T14:47:20.789Z</time></trkpt><trkpt lat="42.975275" lon="11.4745217"><ele>200.33333333333334</ele><time>2026-05-02T14:47:22.789Z</time></trkpt><trkpt lat="42.9752083" lon="11.4744917"><ele>199.0</ele><time>2026-05-02T14:47:23.786Z</time></trkpt><trkpt lat="42.9751333" lon="11.474465"><ele>197.66666666666669</ele><time>2026-05-02T14:47:24.79Z</time></trkpt><trkpt lat="42.9750517" lon="11.4744433"><ele>196.33333333333334</ele><time>2026-05-02T14:47:25.786Z</time></trkpt><trkpt lat="42.9749717" lon="11.4744217"><ele>195.0</ele><time>2026-05-02T14:47:26.787Z</time></trkpt><trkpt lat="42.9748883" lon="11.4744033"><ele>195.0</ele><time>2026-05-02T14:47:27.791Z</time></trkpt><trkpt lat="42.9748017" lon="11.4743783"><ele>195.0</ele><time>2026-05-02T14:47:28.786Z</time></trkpt><trkpt lat="42.97471" lon="11.4743583"><ele>195.0</ele><time>2026-05-02T14:47:29.786Z</time></trkpt><trkpt lat="42.9746267" lon="11.4743333"><ele>195.0</ele><time>2026-05-02T14:47:30.786Z</time></trkpt><trkpt lat="42.9745383" lon="11.4743067"><ele>195.0</ele><time>2026-05-02T14:47:31.786Z</time></trkpt><trkpt lat="42.9744483" lon="11.474275"><ele>195.0</ele><time>2026-05-02T14:47:32.787Z</time></trkpt><trkpt lat="42.974365" lon="11.4742417"><ele>195.0</ele><time>2026-05-02T14:47:33.786Z</time></trkpt><trkpt lat="42.9742933" lon="11.47421"><ele>195.0</ele><time>2026-05-02T14:47:34.786Z</time></trkpt><trkpt lat="42.9742267" lon="11.4741817"><ele>195.0</ele><time>2026-05-02T14:47:35.787Z</time></trkpt><trkpt lat="42.97416" lon="11.4741567"><ele>195.0</ele><time>2026-05-02T14:47:36.788Z</time></trkpt><trkpt lat="42.9740433" lon="11.4741133"><ele>195.0</ele><time>2026-05-02T14:47:38.786Z</time></trkpt><trkpt lat="42.9739283" lon="11.47407"><ele>195.8</ele><time>2026-05-02T14:47:40.789Z</time></trkpt><trkpt lat="42.97385" lon="11.474035"><ele>196.6</ele><time>2026-05-02T14:47:42.788Z</time></trkpt><trkpt lat="42.9737833" lon="11.4740167"><ele>197.39999999999998</ele><time>2026-05-02T14:47:45.788Z</time></trkpt><trkpt lat="42.973725" lon="11.4739567"><ele>198.2</ele><time>2026-05-02T14:48:59.036Z</time></trkpt><trkpt lat="42.97356" lon="11.4739067"><ele>199.0</ele><time>2026-05-02T14:49:01.786Z</time></trkpt><trkpt lat="42.9734767" lon="11.4738783"><ele>199.0</ele><time>2026-05-02T14:49:02.787Z</time></trkpt><trkpt lat="42.9733883" lon="11.473845"><ele>199.0</ele><time>2026-05-02T14:49:03.786Z</time></trkpt><trkpt lat="42.9732933" lon="11.4738133"><ele>199.0</ele><time>2026-05-02T14:49:04.785Z</time></trkpt><trkpt lat="42.97319" lon="11.4737767"><ele>199.0</ele><time>2026-05-02T14:49:05.786Z</time></trkpt><trkpt lat="42.9730867" lon="11.47374"><ele>199.0</ele><time>2026-05-02T14:49:06.786Z</time></trkpt><trkpt lat="42.9729917" lon="11.4737067"><ele>198.33333333333331</ele><time>2026-05-02T14:49:07.785Z</time></trkpt><trkpt lat="42.9729083" lon="11.4736767"><ele>197.66666666666666</ele><time>2026-05-02T14:49:08.786Z</time></trkpt><trkpt lat="42.9728333" lon="11.47365"><ele>197.0</ele><time>2026-05-02T14:49:09.786Z</time></trkpt><trkpt lat="42.9727667" lon="11.4736217"><ele>196.33333333333331</ele><time>2026-05-02T14:49:10.787Z</time></trkpt><trkpt lat="42.97266" lon="11.4735617"><ele>195.66666666666666</ele><time>2026-05-02T14:49:12.787Z</time></trkpt><trkpt lat="42.972585" lon="11.4735033"><ele>195.0</ele><time>2026-05-02T14:49:14.787Z</time></trkpt><trkpt lat="42.9725133" lon="11.4734333"><ele>194.6</ele><time>2026-05-02T14:49:17.787Z</time></trkpt><trkpt lat="42.9724683" lon="11.4733217"><ele>194.2</ele><time>2026-05-02T14:49:19.787Z</time></trkpt><trkpt lat="42.9724383" lon="11.4732267"><ele>193.8</ele><time>2026-05-02T14:49:20.787Z</time></trkpt><trkpt lat="42.9723983" lon="11.4731083"><ele>193.4</ele><time>2026-05-02T14:49:21.786Z</time></trkpt><trkpt lat="42.97235" lon="11.47297"><ele>193.0</ele><time>2026-05-02T14:49:22.786Z</time></trkpt><trkpt lat="42.972295" lon="11.472825"><ele>191.60000000000002</ele><time>2026-05-02T14:49:23.788Z</time></trkpt><trkpt lat="42.97224" lon="11.4726883"><ele>190.20000000000002</ele><time>2026-05-02T14:49:24.787Z</time></trkpt><trkpt lat="42.972185" lon="11.4725567"><ele>188.8</ele><time>2026-05-02T14:49:25.786Z</time></trkpt><trkpt lat="42.9721333" lon="11.4724317"><ele>187.4</ele><time>2026-05-02T14:49:26.788Z</time></trkpt><trkpt lat="42.9720833" lon="11.4723117"><ele>186.0</ele><time>2026-05-02T14:49:27.786Z</time></trkpt><trkpt lat="42.97204" lon="11.4721983"><ele>184.5</ele><time>2026-05-02T14:49:28.787Z</time></trkpt><trkpt lat="42.9720033" lon="11.4720967"><ele>183.0</ele><time>2026-05-02T14:49:29.788Z</time></trkpt><trkpt lat="42.971965" lon="11.4719783"><ele>181.5</ele><time>2026-05-02T14:49:31.79Z</time></trkpt><trkpt lat="42.9719033" lon="11.4719017"><ele>180.0</ele><time>2026-05-02T14:51:39.446Z</time></trkpt><trkpt lat="42.9718567" lon="11.4717883"><ele>178.5</ele><time>2026-05-02T14:51:41.785Z</time></trkpt><trkpt lat="42.9718167" lon="11.4717067"><ele>177.0</ele><time>2026-05-02T14:51:42.785Z</time></trkpt><trkpt lat="42.9717683" lon="11.47161"><ele>177.0</ele><time>2026-05-02T14:51:43.785Z</time></trkpt><trkpt lat="42.9717133" lon="11.4715017"><ele>177.0</ele><time>2026-05-02T14:51:44.785Z</time></trkpt><trkpt lat="42.9716533" lon="11.4713867"><ele>177.0</ele><time>2026-05-02T14:51:45.785Z</time></trkpt><trkpt lat="42.9715917" lon="11.4712683"><ele>177.0</ele><time>2026-05-02T14:51:46.785Z</time></trkpt><trkpt lat="42.9715283" lon="11.4711483"><ele>177.0</ele><time>2026-05-02T14:51:47.786Z</time></trkpt><trkpt lat="42.97146" lon="11.471025"><ele>176.5</ele><time>2026-05-02T14:51:48.786Z</time></trkpt><trkpt lat="42.9713933" lon="11.4709033"><ele>176.0</ele><time>2026-05-02T14:51:49.786Z</time></trkpt><trkpt lat="42.9713233" lon="11.47078"><ele>175.5</ele><time>2026-05-02T14:51:50.785Z</time></trkpt><trkpt lat="42.97125" lon="11.4706533"><ele>175.0</ele><time>2026-05-02T14:51:51.786Z</time></trkpt><trkpt lat="42.9711783" lon="11.4705317"><ele>175.2</ele><time>2026-05-02T14:51:52.785Z</time></trkpt><trkpt lat="42.97111" lon="11.4704167"><ele>175.4</ele><time>2026-05-02T14:51:53.787Z</time></trkpt><trkpt lat="42.9710417" lon="11.47031"><ele>175.60000000000002</ele><time>2026-05-02T14:51:54.786Z</time></trkpt><trkpt lat="42.9709733" lon="11.4702017"><ele>175.8</ele><time>2026-05-02T14:51:55.785Z</time></trkpt><trkpt lat="42.9709033" lon="11.4701"><ele>176.0</ele><time>2026-05-02T14:51:56.785Z</time></trkpt><trkpt lat="42.9708367" lon="11.4700033"><ele>176.0</ele><time>2026-05-02T14:51:57.786Z</time></trkpt><trkpt lat="42.97077" lon="11.4699117"><ele>176.0</ele><time>2026-05-02T14:51:58.787Z</time></trkpt><trkpt lat="42.970705" lon="11.4698083"><ele>176.0</ele><time>2026-05-02T14:51:59.786Z</time></trkpt><trkpt lat="42.97065" lon="11.4696883"><ele>176.0</ele><time>2026-05-02T14:52:00.786Z</time></trkpt><trkpt lat="42.9706083" lon="11.46956"><ele>176.0</ele><time>2026-05-02T14:52:01.787Z</time></trkpt><trkpt lat="42.9705683" lon="11.4694317"><ele>174.66666666666666</ele><time>2026-05-02T14:52:02.787Z</time></trkpt><trkpt lat="42.97053" lon="11.46932"><ele>173.33333333333331</ele><time>2026-05-02T14:52:03.786Z</time></trkpt><trkpt lat="42.9704883" lon="11.46923"><ele>172.0</ele><time>2026-05-02T14:52:04.786Z</time></trkpt><trkpt lat="42.970435" lon="11.4691567"><ele>170.66666666666666</ele><time>2026-05-02T14:52:05.786Z</time></trkpt><trkpt lat="42.9703633" lon="11.4690967"><ele>169.33333333333334</ele><time>2026-05-02T14:52:06.785Z</time></trkpt><trkpt lat="42.97028" lon="11.4690533"><ele>168.0</ele><time>2026-05-02T14:52:07.786Z</time></trkpt><trkpt lat="42.9701833" lon="11.469015"><ele>168.0</ele><time>2026-05-02T14:52:08.787Z</time></trkpt><trkpt lat="42.97008" lon="11.4689783"><ele>168.0</ele><time>2026-05-02T14:52:09.788Z</time></trkpt><trkpt lat="42.9699717" lon="11.468935"><ele>168.0</ele><time>2026-05-02T14:52:10.786Z</time></trkpt><trkpt lat="42.9698567" lon="11.46889"><ele>168.0</ele><time>2026-05-02T14:52:11.787Z</time></trkpt><trkpt lat="42.9697417" lon="11.4688383"><ele>168.4</ele><time>2026-05-02T14:52:12.786Z</time></trkpt><trkpt lat="42.9696317" lon="11.46878"><ele>168.8</ele><time>2026-05-02T14:52:13.786Z</time></trkpt><trkpt lat="42.9695317" lon="11.4687217"><ele>169.2</ele><time>2026-05-02T14:52:14.787Z</time></trkpt><trkpt lat="42.9694433" lon="11.4686633"><ele>169.6</ele><time>2026-05-02T14:52:15.787Z</time></trkpt><trkpt lat="42.9693683" lon="11.4686117"><ele>170.0</ele><time>2026-05-02T14:52:16.787Z</time></trkpt><trkpt lat="42.9693067" lon="11.4685733"><ele>169.4</ele><time>2026-05-02T14:52:17.787Z</time></trkpt><trkpt lat="42.9691883" lon="11.4685533"><ele>168.8</ele><time>2026-05-02T14:52:19.786Z</time></trkpt><trkpt lat="42.969125" lon="11.4685833"><ele>168.2</ele><time>2026-05-02T14:52:20.786Z</time></trkpt><trkpt lat="42.9690617" lon="11.468615"><ele>167.6</ele><time>2026-05-02T14:52:21.787Z</time></trkpt><trkpt lat="42.968955" lon="11.46861"><ele>167.0</ele><time>2026-05-02T14:52:23.786Z</time></trkpt><trkpt lat="42.9689033" lon="11.4684867"><ele>167.0</ele><time>2026-05-02T14:52:25.787Z</time></trkpt><trkpt lat="42.968895" lon="11.4683767"><ele>167.0</ele><time>2026-05-02T14:52:26.787Z</time></trkpt><trkpt lat="42.9688767" lon="11.4682467"><ele>167.0</ele><time>2026-05-02T14:52:27.786Z</time></trkpt><trkpt lat="42.96884" lon="11.4681117"><ele>167.0</ele><time>2026-05-02T14:52:28.787Z</time></trkpt><trkpt lat="42.9687817" lon="11.4679817"><ele>167.0</ele><time>2026-05-02T14:52:29.786Z</time></trkpt><trkpt lat="42.968715" lon="11.4678617"><ele>166.5</ele><time>2026-05-02T14:52:30.788Z</time></trkpt><trkpt lat="42.96864" lon="11.4677417"><ele>166.0</ele><time>2026-05-02T14:52:31.786Z</time></trkpt><trkpt lat="42.9685617" lon="11.4676233"><ele>165.5</ele><time>2026-05-02T14:52:32.787Z</time></trkpt><trkpt lat="42.9684833" lon="11.4675017"><ele>165.0</ele><time>2026-05-02T14:52:33.786Z</time></trkpt><trkpt lat="42.9684083" lon="11.46738"><ele>162.0</ele><time>2026-05-02T14:52:34.787Z</time></trkpt><trkpt lat="42.9683317" lon="11.46726"><ele>159.0</ele><time>2026-05-02T14:52:35.787Z</time></trkpt><trkpt lat="42.9682567" lon="11.4671467"><ele>156.0</ele><time>2026-05-02T14:52:36.785Z</time></trkpt><trkpt lat="42.9681783" lon="11.4670433"><ele>153.0</ele><time>2026-05-02T14:52:37.787Z</time></trkpt><trkpt lat="42.968095" lon="11.4669433"><ele>150.0</ele><time>2026-05-02T14:52:38.786Z</time></trkpt><trkpt lat="42.968005" lon="11.466855"><ele>150.0</ele><time>2026-05-02T14:52:39.786Z</time></trkpt><trkpt lat="42.9679033" lon="11.466775"><ele>150.0</ele><time>2026-05-02T14:52:40.787Z</time></trkpt><trkpt lat="42.9677933" lon="11.4667033"><ele>150.0</ele><time>2026-05-02T14:52:41.79Z</time></trkpt><trkpt lat="42.967675" lon="11.4666367"><ele>150.0</ele><time>2026-05-02T14:52:42.789Z</time></trkpt><trkpt lat="42.9675517" lon="11.46657"><ele>146.75</ele><time>2026-05-02T14:52:43.788Z</time></trkpt><trkpt lat="42.9674333" lon="11.4665017"><ele>143.5</ele><time>2026-05-02T14:52:44.79Z</time></trkpt><trkpt lat="42.9673133" lon="11.46643"><ele>140.25</ele><time>2026-05-02T14:52:45.789Z</time></trkpt><trkpt lat="42.9671933" lon="11.4663583"><ele>137.0</ele><time>2026-05-02T14:52:46.791Z</time></trkpt><trkpt lat="42.9670717" lon="11.4662867"><ele>135.75</ele><time>2026-05-02T14:52:47.789Z</time></trkpt><trkpt lat="42.9669483" lon="11.466215"><ele>134.5</ele><time>2026-05-02T14:52:48.789Z</time></trkpt><trkpt lat="42.9668233" lon="11.466145"><ele>133.25</ele><time>2026-05-02T14:52:49.788Z</time></trkpt><trkpt lat="42.9667033" lon="11.4660767"><ele>132.0</ele><time>2026-05-02T14:52:50.791Z</time></trkpt><trkpt lat="42.9665883" lon="11.4660117"><ele>131.2</ele><time>2026-05-02T14:52:51.79Z</time></trkpt><trkpt lat="42.9664783" lon="11.46595"><ele>130.39999999999998</ele><time>2026-05-02T14:52:52.789Z</time></trkpt><trkpt lat="42.9663733" lon="11.4658933"><ele>129.60000000000002</ele><time>2026-05-02T14:52:53.79Z</time></trkpt><trkpt lat="42.96627" lon="11.4658483"><ele>128.8</ele><time>2026-05-02T14:52:54.786Z</time></trkpt><trkpt lat="42.966165" lon="11.4658133"><ele>128.0</ele><time>2026-05-02T14:52:55.786Z</time></trkpt><trkpt lat="42.96606" lon="11.4657883"><ele>128.0</ele><time>2026-05-02T14:52:56.786Z</time></trkpt><trkpt lat="42.965945" lon="11.46578"><ele>128.0</ele><time>2026-05-02T14:52:57.789Z</time></trkpt><trkpt lat="42.9658283" lon="11.4657817"><ele>128.0</ele><time>2026-05-02T14:52:58.789Z</time></trkpt><trkpt lat="42.9657117" lon="11.4657883"><ele>128.0</ele><time>2026-05-02T14:52:59.791Z</time></trkpt><trkpt lat="42.9656017" lon="11.4657933"><ele>127.66666666666666</ele><time>2026-05-02T14:53:00.789Z</time></trkpt><trkpt lat="42.9655067" lon="11.4658017"><ele>127.33333333333333</ele><time>2026-05-02T14:53:01.79Z</time></trkpt><trkpt lat="42.9654233" lon="11.465805"><ele>127.0</ele><time>2026-05-02T14:53:02.79Z</time></trkpt><trkpt lat="42.9653417" lon="11.465795"><ele>126.66666666666666</ele><time>2026-05-02T14:53:03.789Z</time></trkpt><trkpt lat="42.96526" lon="11.4657633"><ele>126.33333333333333</ele><time>2026-05-02T14:53:04.786Z</time></trkpt><trkpt lat="42.9651833" lon="11.4657217"><ele>126.0</ele><time>2026-05-02T14:53:05.789Z</time></trkpt><trkpt lat="42.9651167" lon="11.465655"><ele>126.0</ele><time>2026-05-02T14:53:06.79Z</time></trkpt><trkpt lat="42.9650583" lon="11.465555"><ele>126.0</ele><time>2026-05-02T14:53:07.786Z</time></trkpt><trkpt lat="42.965015" lon="11.4654283"><ele>126.0</ele><time>2026-05-02T14:53:08.789Z</time></trkpt><trkpt lat="42.9649733" lon="11.465285"><ele>126.0</ele><time>2026-05-02T14:53:09.789Z</time></trkpt><trkpt lat="42.9649333" lon="11.46512"><ele>126.0</ele><time>2026-05-02T14:53:10.789Z</time></trkpt><trkpt lat="42.9649" lon="11.4649417"><ele>125.5</ele><time>2026-05-02T14:53:11.789Z</time></trkpt><trkpt lat="42.9648817" lon="11.46477"><ele>125.0</ele><time>2026-05-02T14:53:12.789Z</time></trkpt><trkpt lat="42.9648733" lon="11.4645983"><ele>124.5</ele><time>2026-05-02T14:53:13.789Z</time></trkpt><trkpt lat="42.9648683" lon="11.4644233"><ele>124.0</ele><time>2026-05-02T14:53:14.79Z</time></trkpt><trkpt lat="42.9648617" lon="11.4642367"><ele>123.66666666666667</ele><time>2026-05-02T14:53:15.789Z</time></trkpt><trkpt lat="42.9648517" lon="11.4640333"><ele>123.33333333333334</ele><time>2026-05-02T14:53:16.789Z</time></trkpt><trkpt lat="42.964845" lon="11.4638083"><ele>123.0</ele><time>2026-05-02T14:53:17.79Z</time></trkpt><trkpt lat="42.9648367" lon="11.463575"><ele>123.0</ele><time>2026-05-02T14:53:18.789Z</time></trkpt><trkpt lat="42.9648267" lon="11.46332"><ele>123.0</ele><time>2026-05-02T14:53:19.789Z</time></trkpt><trkpt lat="42.964815" lon="11.4630517"><ele>123.0</ele><time>2026-05-02T14:53:20.79Z</time></trkpt><trkpt lat="42.9648033" lon="11.462745"><ele>123.66666666666666</ele><time>2026-05-02T14:53:21.791Z</time></trkpt><trkpt lat="42.96479" lon="11.46243"><ele>124.33333333333333</ele><time>2026-05-02T14:53:22.789Z</time></trkpt><trkpt lat="42.964775" lon="11.4621333"><ele>125.0</ele><time>2026-05-02T14:53:23.79Z</time></trkpt><trkpt lat="42.9647633" lon="11.46186"><ele>125.0</ele><time>2026-05-02T14:53:24.789Z</time></trkpt><trkpt lat="42.96475" lon="11.461605"><ele>125.0</ele><time>2026-05-02T14:53:25.787Z</time></trkpt><trkpt lat="42.964735" lon="11.4613667"><ele>125.0</ele><time>2026-05-02T14:53:26.786Z</time></trkpt><trkpt lat="42.9647233" lon="11.46114"><ele>125.0</ele><time>2026-05-02T14:53:27.786Z</time></trkpt><trkpt lat="42.964715" lon="11.4609233"><ele>125.0</ele><time>2026-05-02T14:53:28.787Z</time></trkpt><trkpt lat="42.964715" lon="11.4607083"><ele>125.0</ele><time>2026-05-02T14:53:29.788Z</time></trkpt><trkpt lat="42.9647217" lon="11.460495"><ele>125.0</ele><time>2026-05-02T14:53:30.785Z</time></trkpt><trkpt lat="42.9647317" lon="11.4602783"><ele>125.0</ele><time>2026-05-02T14:53:31.785Z</time></trkpt><trkpt lat="42.9647467" lon="11.4600667"><ele>125.0</ele><time>2026-05-02T14:53:32.785Z</time></trkpt><trkpt lat="42.9647533" lon="11.4598467"><ele>125.0</ele><time>2026-05-02T14:53:33.785Z</time></trkpt><trkpt lat="42.9647567" lon="11.4596183"><ele>125.0</ele><time>2026-05-02T14:53:34.785Z</time></trkpt><trkpt lat="42.9647567" lon="11.4593783"><ele>125.0</ele><time>2026-05-02T14:53:35.787Z</time></trkpt><trkpt lat="42.9647533" lon="11.4591383"><ele>125.0</ele><time>2026-05-02T14:53:36.788Z</time></trkpt><trkpt lat="42.96475" lon="11.4589"><ele>125.0</ele><time>2026-05-02T14:53:37.788Z</time></trkpt><trkpt lat="42.9647483" lon="11.45867"><ele>125.0</ele><time>2026-05-02T14:53:38.785Z</time></trkpt><trkpt lat="42.9647433" lon="11.45845"><ele>125.0</ele><time>2026-05-02T14:53:39.79Z</time></trkpt><trkpt lat="42.9647367" lon="11.458245"><ele>125.0</ele><time>2026-05-02T14:53:40.785Z</time></trkpt><trkpt lat="42.9647317" lon="11.458035"><ele>125.0</ele><time>2026-05-02T14:53:41.788Z</time></trkpt><trkpt lat="42.96473" lon="11.457825"><ele>125.0</ele><time>2026-05-02T14:53:42.788Z</time></trkpt><trkpt lat="42.964725" lon="11.45762"><ele>125.0</ele><time>2026-05-02T14:53:43.786Z</time></trkpt><trkpt lat="42.9647217" lon="11.457415"><ele>125.0</ele><time>2026-05-02T14:53:44.789Z</time></trkpt><trkpt lat="42.96472" lon="11.457215"><ele>125.0</ele><time>2026-05-02T14:53:45.788Z</time></trkpt><trkpt lat="42.96472" lon="11.457025"><ele>124.5</ele><time>2026-05-02T14:53:46.789Z</time></trkpt><trkpt lat="42.964715" lon="11.45684"><ele>124.0</ele><time>2026-05-02T14:53:47.788Z</time></trkpt><trkpt lat="42.964715" lon="11.4566633"><ele>123.5</ele><time>2026-05-02T14:53:48.788Z</time></trkpt><trkpt lat="42.964715" lon="11.4564933"><ele>123.0</ele><time>2026-05-02T14:53:49.785Z</time></trkpt><trkpt lat="42.96472" lon="11.4563317"><ele>122.60000000000001</ele><time>2026-05-02T14:53:50.785Z</time></trkpt><trkpt lat="42.9647367" lon="11.4561833"><ele>122.20000000000002</ele><time>2026-05-02T14:53:51.788Z</time></trkpt><trkpt lat="42.96477" lon="11.456045"><ele>121.8</ele><time>2026-05-02T14:53:52.785Z</time></trkpt><trkpt lat="42.964815" lon="11.455925"><ele>121.4</ele><time>2026-05-02T14:53:53.785Z</time></trkpt><trkpt lat="42.9648567" lon="11.4558167"><ele>121.0</ele><time>2026-05-02T14:53:54.786Z</time></trkpt><trkpt lat="42.9648867" lon="11.4557067"><ele>121.0</ele><time>2026-05-02T14:53:55.786Z</time></trkpt><trkpt lat="42.9648967" lon="11.4555933"><ele>121.0</ele><time>2026-05-02T14:53:56.786Z</time></trkpt><trkpt lat="42.9648933" lon="11.4554683"><ele>121.0</ele><time>2026-05-02T14:53:57.786Z</time></trkpt><trkpt lat="42.9648667" lon="11.4553233"><ele>121.0</ele><time>2026-05-02T14:53:58.789Z</time></trkpt><trkpt lat="42.9648283" lon="11.4551617"><ele>121.0</ele><time>2026-05-02T14:53:59.788Z</time></trkpt><trkpt lat="42.96479" lon="11.4549883"><ele>120.75</ele><time>2026-05-02T14:54:00.786Z</time></trkpt><trkpt lat="42.9647617" lon="11.4548033"><ele>120.5</ele><time>2026-05-02T14:54:01.786Z</time></trkpt><trkpt lat="42.9647467" lon="11.454605"><ele>120.25</ele><time>2026-05-02T14:54:02.789Z</time></trkpt><trkpt lat="42.9647483" lon="11.4543983"><ele>120.0</ele><time>2026-05-02T14:54:03.789Z</time></trkpt><trkpt lat="42.9647567" lon="11.4541917"><ele>119.75</ele><time>2026-05-02T14:54:04.785Z</time></trkpt><trkpt lat="42.964765" lon="11.4539883"><ele>119.5</ele><time>2026-05-02T14:54:05.785Z</time></trkpt><trkpt lat="42.9647717" lon="11.4537933"><ele>119.25</ele><time>2026-05-02T14:54:06.785Z</time></trkpt><trkpt lat="42.9647767" lon="11.4536083"><ele>119.0</ele><time>2026-05-02T14:54:07.785Z</time></trkpt><trkpt lat="42.9647833" lon="11.4534333"><ele>118.5</ele><time>2026-05-02T14:54:08.786Z</time></trkpt><trkpt lat="42.9647917" lon="11.4532667"><ele>118.0</ele><time>2026-05-02T14:54:09.786Z</time></trkpt><trkpt lat="42.9648033" lon="11.4531067"><ele>117.5</ele><time>2026-05-02T14:54:10.789Z</time></trkpt><trkpt lat="42.9648133" lon="11.452955"><ele>117.0</ele><time>2026-05-02T14:54:11.789Z</time></trkpt><trkpt lat="42.9648267" lon="11.4528117"><ele>117.0</ele><time>2026-05-02T14:54:12.789Z</time></trkpt><trkpt lat="42.9648433" lon="11.45268"><ele>116.99999999999999</ele><time>2026-05-02T14:54:13.788Z</time></trkpt><trkpt lat="42.9648733" lon="11.4525567"><ele>116.99999999999999</ele><time>2026-05-02T14:54:14.789Z</time></trkpt><trkpt lat="42.9649167" lon="11.4524383"><ele>117.0</ele><time>2026-05-02T14:54:15.789Z</time></trkpt><trkpt lat="42.9649817" lon="11.4523283"><ele>117.0</ele><time>2026-05-02T14:54:16.788Z</time></trkpt><trkpt lat="42.96505" lon="11.4522167"><ele>119.0</ele><time>2026-05-02T14:54:17.788Z</time></trkpt><trkpt lat="42.9651283" lon="11.4521033"><ele>121.0</ele><time>2026-05-02T14:54:18.789Z</time></trkpt><trkpt lat="42.9652067" lon="11.45199"><ele>123.0</ele><time>2026-05-02T14:54:19.785Z</time></trkpt><trkpt lat="42.96529" lon="11.45187"><ele>125.0</ele><time>2026-05-02T14:54:20.785Z</time></trkpt><trkpt lat="42.96537" lon="11.4517483"><ele>125.0</ele><time>2026-05-02T14:54:21.786Z</time></trkpt><trkpt lat="42.9654567" lon="11.4516233"><ele>125.0</ele><time>2026-05-02T14:54:22.786Z</time></trkpt><trkpt lat="42.9655483" lon="11.45149"><ele>125.0</ele><time>2026-05-02T14:54:23.788Z</time></trkpt><trkpt lat="42.96564" lon="11.4513533"><ele>125.0</ele><time>2026-05-02T14:54:24.785Z</time></trkpt><trkpt lat="42.9657367" lon="11.4512133"><ele>125.5</ele><time>2026-05-02T14:54:25.787Z</time></trkpt><trkpt lat="42.9658367" lon="11.45108"><ele>126.0</ele><time>2026-05-02T14:54:26.786Z</time></trkpt><trkpt lat="42.9659433" lon="11.45094"><ele>126.5</ele><time>2026-05-02T14:54:27.786Z</time></trkpt><trkpt lat="42.9660483" lon="11.4508017"><ele>127.0</ele><time>2026-05-02T14:54:28.786Z</time></trkpt><trkpt lat="42.9661583" lon="11.4506717"><ele>127.0</ele><time>2026-05-02T14:54:29.787Z</time></trkpt><trkpt lat="42.966275" lon="11.4505433"><ele>127.0</ele><time>2026-05-02T14:54:30.789Z</time></trkpt><trkpt lat="42.9663917" lon="11.4503983"><ele>127.0</ele><time>2026-05-02T14:54:31.786Z</time></trkpt><trkpt lat="42.9665033" lon="11.4502317"><ele>129.33333333333334</ele><time>2026-05-02T14:54:32.789Z</time></trkpt><trkpt lat="42.9666033" lon="11.4500267"><ele>131.66666666666666</ele><time>2026-05-02T14:54:33.788Z</time></trkpt><trkpt lat="42.9666867" lon="11.4498183"><ele>134.0</ele><time>2026-05-02T14:54:34.789Z</time></trkpt><trkpt lat="42.9667617" lon="11.44962"><ele>134.0</ele><time>2026-05-02T14:54:35.785Z</time></trkpt><trkpt lat="42.9668317" lon="11.4494317"><ele>134.0</ele><time>2026-05-02T14:54:36.785Z</time></trkpt><trkpt lat="42.9668767" lon="11.4492483"><ele>134.0</ele><time>2026-05-02T14:54:37.788Z</time></trkpt><trkpt lat="42.9668983" lon="11.44905"><ele>134.0</ele><time>2026-05-02T14:54:38.788Z</time></trkpt><trkpt lat="42.9668917" lon="11.4488417"><ele>133.0</ele><time>2026-05-02T14:54:39.789Z</time></trkpt><trkpt lat="42.966865" lon="11.4486367"><ele>132.0</ele><time>2026-05-02T14:54:40.788Z</time></trkpt><trkpt lat="42.9668317" lon="11.4484267"><ele>131.0</ele><time>2026-05-02T14:54:41.789Z</time></trkpt><trkpt lat="42.9668" lon="11.4482167"><ele>131.0</ele><time>2026-05-02T14:54:42.788Z</time></trkpt><trkpt lat="42.9667667" lon="11.4480233"><ele>131.0</ele><time>2026-05-02T14:54:43.785Z</time></trkpt><trkpt lat="42.9667383" lon="11.447835"><ele>131.0</ele><time>2026-05-02T14:54:44.788Z</time></trkpt><trkpt lat="42.966715" lon="11.4476733"><ele>131.0</ele><time>2026-05-02T14:54:45.788Z</time></trkpt><trkpt lat="42.966695" lon="11.4475383"><ele>129.16666666666666</ele><time>2026-05-02T14:54:46.789Z</time></trkpt><trkpt lat="42.9666817" lon="11.4474317"><ele>127.33333333333333</ele><time>2026-05-02T14:54:47.79Z</time></trkpt><trkpt lat="42.9666717" lon="11.4473467"><ele>125.5</ele><time>2026-05-02T14:54:48.788Z</time></trkpt><trkpt lat="42.96666" lon="11.44724"><ele>123.66666666666666</ele><time>2026-05-02T14:54:50.788Z</time></trkpt><trkpt lat="42.966645" lon="11.4471467"><ele>121.83333333333333</ele><time>2026-05-02T14:54:53.787Z</time></trkpt><trkpt lat="42.966625" lon="11.4472567"><ele>120.0</ele><time>2026-05-02T14:55:01.786Z</time></trkpt><trkpt lat="42.9666467" lon="11.4474"><ele>120.0</ele><time>2026-05-02T14:55:03.788Z</time></trkpt><trkpt lat="42.9666533" lon="11.4475433"><ele>120.0</ele><time>2026-05-02T14:55:05.789Z</time></trkpt><trkpt lat="42.96664" lon="11.44763"><ele>120.0</ele><time>2026-05-02T14:55:07.785Z</time></trkpt><trkpt lat="42.966585" lon="11.4476983"><ele>120.0</ele><time>2026-05-02T14:55:09.786Z</time></trkpt><trkpt lat="42.9665117" lon="11.44777"><ele>120.0</ele><time>2026-05-02T14:55:11.786Z</time></trkpt><trkpt lat="42.9664317" lon="11.44783"><ele>120.0</ele><time>2026-05-02T14:55:13.786Z</time></trkpt><trkpt lat="42.9663217" lon="11.4478583"><ele>120.0</ele><time>2026-05-02T14:55:15.786Z</time></trkpt><trkpt lat="42.9662317" lon="11.4478383"><ele>120.0</ele><time>2026-05-02T14:55:17.786Z</time></trkpt><trkpt lat="42.9661617" lon="11.447805"><ele>120.0</ele><time>2026-05-02T14:55:20.787Z</time></trkpt><trkpt lat="42.9660967" lon="11.4477733"><ele>120.0</ele><time>2026-05-02T14:55:24.789Z</time></trkpt><trkpt lat="42.9660333" lon="11.4477317"><ele>120.0</ele><time>2026-05-02T14:55:27.79Z</time></trkpt><trkpt lat="42.9659683" lon="11.447685"><ele>120.0</ele><time>2026-05-02T14:55:29.79Z</time></trkpt><trkpt lat="42.9658933" lon="11.447655"><ele>118.33333333333333</ele><time>2026-05-02T14:55:36.792Z</time></trkpt><trkpt lat="42.9657833" lon="11.4475683"><ele>116.66666666666666</ele><time>2026-05-02T14:55:38.789Z</time></trkpt><trkpt lat="42.965705" lon="11.4475017"><ele>115.0</ele><time>2026-05-02T14:55:40.789Z</time></trkpt><trkpt lat="42.9656433" lon="11.447445"><ele>113.33333333333333</ele><time>2026-05-02T14:55:43.789Z</time></trkpt><trkpt lat="42.96558" lon="11.4474083"><ele>111.66666666666666</ele><time>2026-05-02T14:55:45.79Z</time></trkpt><trkpt lat="42.965535" lon="11.44734"><ele>110.0</ele><time>2026-05-02T14:55:49.789Z</time></trkpt><trkpt lat="42.9654767" lon="11.44725"><ele>109.99999999999999</ele><time>2026-05-02T14:55:52.79Z</time></trkpt><trkpt lat="42.9655483" lon="11.447335"><ele>110.0</ele><time>2026-05-02T14:56:01.786Z</time></trkpt><trkpt lat="42.9656183" lon="11.4474"><ele>110.0</ele><time>2026-05-02T14:56:03.789Z</time></trkpt><trkpt lat="42.9657033" lon="11.4474683"><ele>110.0</ele><time>2026-05-02T14:56:05.789Z</time></trkpt><trkpt lat="42.9657617" lon="11.4475167"><ele>109.99999999999999</ele><time>2026-05-02T14:56:06.789Z</time></trkpt><trkpt lat="42.9658283" lon="11.4475783"><ele>110.0</ele><time>2026-05-02T14:56:07.789Z</time></trkpt><trkpt lat="42.965915" lon="11.4476483"><ele>112.0</ele><time>2026-05-02T14:56:08.786Z</time></trkpt><trkpt lat="42.9660233" lon="11.4477217"><ele>114.0</ele><time>2026-05-02T14:56:09.789Z</time></trkpt><trkpt lat="42.96612" lon="11.4477867"><ele>116.0</ele><time>2026-05-02T14:56:10.789Z</time></trkpt><trkpt lat="42.966205" lon="11.4478367"><ele>118.0</ele><time>2026-05-02T14:56:11.79Z</time></trkpt><trkpt lat="42.9662817" lon="11.44787"><ele>120.0</ele><time>2026-05-02T14:56:12.789Z</time></trkpt><trkpt lat="42.96635" lon="11.4478817"><ele>120.0</ele><time>2026-05-02T14:56:13.79Z</time></trkpt><trkpt lat="42.9664133" lon="11.4478733"><ele>120.0</ele><time>2026-05-02T14:56:14.789Z</time></trkpt><trkpt lat="42.9665283" lon="11.4477883"><ele>120.0</ele><time>2026-05-02T14:56:16.789Z</time></trkpt><trkpt lat="42.9666183" lon="11.447715"><ele>120.0</ele><time>2026-05-02T14:56:18.79Z</time></trkpt><trkpt lat="42.966675" lon="11.44764"><ele>120.0</ele><time>2026-05-02T14:56:20.788Z</time></trkpt><trkpt lat="42.9666917" lon="11.4475367"><ele>120.0</ele><time>2026-05-02T14:56:22.791Z</time></trkpt><trkpt lat="42.9666717" lon="11.4473633"><ele>120.0</ele><time>2026-05-02T14:56:24.79Z</time></trkpt><trkpt lat="42.9666533" lon="11.44726"><ele>120.0</ele><time>2026-05-02T14:56:25.789Z</time></trkpt><trkpt lat="42.96663" lon="11.4471417"><ele>120.0</ele><time>2026-05-02T14:56:26.785Z</time></trkpt><trkpt lat="42.9666183" lon="11.4469983"><ele>120.0</ele><time>2026-05-02T14:56:27.786Z</time></trkpt><trkpt lat="42.96661" lon="11.4468333"><ele>119.75</ele><time>2026-05-02T14:56:28.785Z</time></trkpt><trkpt lat="42.9666083" lon="11.4466567"><ele>119.5</ele><time>2026-05-02T14:56:29.786Z</time></trkpt><trkpt lat="42.9666183" lon="11.44646"><ele>119.25</ele><time>2026-05-02T14:56:30.785Z</time></trkpt><trkpt lat="42.96664" lon="11.4462733"><ele>119.0</ele><time>2026-05-02T14:56:31.786Z</time></trkpt><trkpt lat="42.9666667" lon="11.4460867"><ele>120.5</ele><time>2026-05-02T14:56:32.786Z</time></trkpt><trkpt lat="42.9666967" lon="11.4459"><ele>122.0</ele><time>2026-05-02T14:56:33.786Z</time></trkpt><trkpt lat="42.9667367" lon="11.4457117"><ele>123.5</ele><time>2026-05-02T14:56:34.786Z</time></trkpt><trkpt lat="42.966775" lon="11.4455217"><ele>125.0</ele><time>2026-05-02T14:56:35.785Z</time></trkpt><trkpt lat="42.9668083" lon="11.44534"><ele>125.0</ele><time>2026-05-02T14:56:36.785Z</time></trkpt><trkpt lat="42.9668383" lon="11.4451583"><ele>125.0</ele><time>2026-05-02T14:56:37.786Z</time></trkpt><trkpt lat="42.966865" lon="11.4449783"><ele>125.0</ele><time>2026-05-02T14:56:38.786Z</time></trkpt><trkpt lat="42.966885" lon="11.4447917"><ele>125.0</ele><time>2026-05-02T14:56:39.789Z</time></trkpt><trkpt lat="42.966905" lon="11.444615"><ele>124.25</ele><time>2026-05-02T14:56:40.786Z</time></trkpt><trkpt lat="42.9669233" lon="11.444455"><ele>123.5</ele><time>2026-05-02T14:56:41.789Z</time></trkpt><trkpt lat="42.96694" lon="11.4442967"><ele>122.75</ele><time>2026-05-02T14:56:42.789Z</time></trkpt><trkpt lat="42.9669583" lon="11.444145"><ele>122.0</ele><time>2026-05-02T14:56:43.788Z</time></trkpt><trkpt lat="42.9669783" lon="11.4439833"><ele>122.0</ele><time>2026-05-02T14:56:44.788Z</time></trkpt><trkpt lat="42.9669967" lon="11.4438133"><ele>122.0</ele><time>2026-05-02T14:56:45.79Z</time></trkpt><trkpt lat="42.967015" lon="11.4436367"><ele>122.0</ele><time>2026-05-02T14:56:46.789Z</time></trkpt><trkpt lat="42.9670333" lon="11.4434517"><ele>122.0</ele><time>2026-05-02T14:56:47.79Z</time></trkpt><trkpt lat="42.9670533" lon="11.44326"><ele>123.33333333333333</ele><time>2026-05-02T14:56:48.786Z</time></trkpt><trkpt lat="42.96707" lon="11.4430633"><ele>124.66666666666666</ele><time>2026-05-02T14:56:49.785Z</time></trkpt><trkpt lat="42.9670883" lon="11.4428533"><ele>126.0</ele><time>2026-05-02T14:56:50.786Z</time></trkpt><trkpt lat="42.9671117" lon="11.44264"><ele>126.0</ele><time>2026-05-02T14:56:51.786Z</time></trkpt><trkpt lat="42.9671617" lon="11.4422333"><ele>126.0</ele><time>2026-05-02T14:56:53.789Z</time></trkpt><trkpt lat="42.9671867" lon="11.44204"><ele>126.0</ele><time>2026-05-02T14:56:54.788Z</time></trkpt><trkpt lat="42.9672183" lon="11.4418483"><ele>124.75</ele><time>2026-05-02T14:56:55.785Z</time></trkpt><trkpt lat="42.9672617" lon="11.44166"><ele>123.5</ele><time>2026-05-02T14:56:56.788Z</time></trkpt><trkpt lat="42.9673183" lon="11.4414867"><ele>122.25</ele><time>2026-05-02T14:56:57.788Z</time></trkpt><trkpt lat="42.9673783" lon="11.441335"><ele>121.0</ele><time>2026-05-02T14:56:58.787Z</time></trkpt><trkpt lat="42.9674233" lon="11.441185"><ele>120.0</ele><time>2026-05-02T14:56:59.788Z</time></trkpt><trkpt lat="42.96745" lon="11.4410367"><ele>119.0</ele><time>2026-05-02T14:57:00.787Z</time></trkpt><trkpt lat="42.9674517" lon="11.4408817"><ele>118.0</ele><time>2026-05-02T14:57:01.789Z</time></trkpt><trkpt lat="42.9674383" lon="11.4407267"><ele>117.0</ele><time>2026-05-02T14:57:02.788Z</time></trkpt><trkpt lat="42.9674217" lon="11.440575"><ele>117.25</ele><time>2026-05-02T14:57:03.788Z</time></trkpt><trkpt lat="42.9674133" lon="11.440425"><ele>117.5</ele><time>2026-05-02T14:57:04.789Z</time></trkpt><trkpt lat="42.96742" lon="11.4402567"><ele>117.75</ele><time>2026-05-02T14:57:05.789Z</time></trkpt><trkpt lat="42.96743" lon="11.4400767"><ele>118.0</ele><time>2026-05-02T14:57:06.787Z</time></trkpt><trkpt lat="42.96745" lon="11.43989"><ele>118.0</ele><time>2026-05-02T14:57:07.789Z</time></trkpt><trkpt lat="42.9674717" lon="11.4396967"><ele>118.0</ele><time>2026-05-02T14:57:08.786Z</time></trkpt><trkpt lat="42.9674883" lon="11.4395067"><ele>118.0</ele><time>2026-05-02T14:57:09.786Z</time></trkpt><trkpt lat="42.9675033" lon="11.4393267"><ele>118.0</ele><time>2026-05-02T14:57:10.789Z</time></trkpt><trkpt lat="42.9675117" lon="11.439155"><ele>118.0</ele><time>2026-05-02T14:57:11.789Z</time></trkpt><trkpt lat="42.9675117" lon="11.4389933"><ele>118.0</ele><time>2026-05-02T14:57:12.788Z</time></trkpt><trkpt lat="42.9675133" lon="11.4388267"><ele>118.0</ele><time>2026-05-02T14:57:13.785Z</time></trkpt><trkpt lat="42.9675083" lon="11.43866"><ele>118.0</ele><time>2026-05-02T14:57:14.786Z</time></trkpt><trkpt lat="42.9675033" lon="11.4384883"><ele>118.0</ele><time>2026-05-02T14:57:15.785Z</time></trkpt><trkpt lat="42.96751" lon="11.4382867"><ele>118.0</ele><time>2026-05-02T14:57:16.789Z</time></trkpt><trkpt lat="42.9675183" lon="11.438065"><ele>118.0</ele><time>2026-05-02T14:57:17.786Z</time></trkpt><trkpt lat="42.9675383" lon="11.4378417"><ele>122.5</ele><time>2026-05-02T14:57:18.877Z</time></trkpt><trkpt lat="42.96756" lon="11.437635"><ele>127.0</ele><time>2026-05-02T14:57:19.785Z</time></trkpt><trkpt lat="42.9675783" lon="11.4374417"><ele>131.5</ele><time>2026-05-02T14:57:20.785Z</time></trkpt><trkpt lat="42.967585" lon="11.4372567"><ele>136.0</ele><time>2026-05-02T14:57:21.785Z</time></trkpt><trkpt lat="42.967565" lon="11.4370717"><ele>130.0</ele><time>2026-05-02T14:57:22.787Z</time></trkpt><trkpt lat="42.9675217" lon="11.4368733"><ele>124.0</ele><time>2026-05-02T14:57:23.786Z</time></trkpt><trkpt lat="42.96748" lon="11.43667"><ele>118.0</ele><time>2026-05-02T14:57:24.785Z</time></trkpt><trkpt lat="42.9674567" lon="11.4364683"><ele>118.5</ele><time>2026-05-02T14:57:25.789Z</time></trkpt><trkpt lat="42.96744" lon="11.4362767"><ele>119.0</ele><time>2026-05-02T14:57:26.785Z</time></trkpt><trkpt lat="42.9674133" lon="11.43611"><ele>119.5</ele><time>2026-05-02T14:57:27.788Z</time></trkpt><trkpt lat="42.9673583" lon="11.43596"><ele>120.0</ele><time>2026-05-02T14:57:28.787Z</time></trkpt><trkpt lat="42.9672767" lon="11.435815"><ele>120.0</ele><time>2026-05-02T14:57:29.788Z</time></trkpt><trkpt lat="42.9671967" lon="11.4356717"><ele>120.0</ele><time>2026-05-02T14:57:30.786Z</time></trkpt><trkpt lat="42.9671183" lon="11.4355217"><ele>120.0</ele><time>2026-05-02T14:57:31.788Z</time></trkpt><trkpt lat="42.9670567" lon="11.435385"><ele>120.0</ele><time>2026-05-02T14:57:32.787Z</time></trkpt><trkpt lat="42.9670083" lon="11.4352683"><ele>120.66666666666667</ele><time>2026-05-02T14:57:33.787Z</time></trkpt><trkpt lat="42.9669667" lon="11.4351633"><ele>121.33333333333334</ele><time>2026-05-02T14:57:34.789Z</time></trkpt><trkpt lat="42.966925" lon="11.4350667"><ele>122.0</ele><time>2026-05-02T14:57:35.786Z</time></trkpt><trkpt lat="42.9668667" lon="11.4349817"><ele>122.66666666666667</ele><time>2026-05-02T14:57:36.79Z</time></trkpt><trkpt lat="42.9668033" lon="11.4349083"><ele>123.33333333333334</ele><time>2026-05-02T14:57:37.789Z</time></trkpt><trkpt lat="42.966735" lon="11.4348317"><ele>124.0</ele><time>2026-05-02T14:57:38.787Z</time></trkpt><trkpt lat="42.966665" lon="11.434745"><ele>122.4</ele><time>2026-05-02T14:57:39.789Z</time></trkpt><trkpt lat="42.9666" lon="11.4346533"><ele>120.80000000000001</ele><time>2026-05-02T14:57:40.789Z</time></trkpt><trkpt lat="42.9665367" lon="11.4345533"><ele>119.19999999999999</ele><time>2026-05-02T14:57:41.789Z</time></trkpt><trkpt lat="42.9664817" lon="11.434445"><ele>117.6</ele><time>2026-05-02T14:57:42.789Z</time></trkpt><trkpt lat="42.9664433" lon="11.4343217"><ele>116.0</ele><time>2026-05-02T14:57:43.789Z</time></trkpt><trkpt lat="42.9664183" lon="11.4341767"><ele>116.0</ele><time>2026-05-02T14:57:44.79Z</time></trkpt><trkpt lat="42.9664083" lon="11.4340167"><ele>116.0</ele><time>2026-05-02T14:57:45.785Z</time></trkpt><trkpt lat="42.96641" lon="11.4338433"><ele>116.0</ele><time>2026-05-02T14:57:46.787Z</time></trkpt><trkpt lat="42.96642" lon="11.4336633"><ele>116.0</ele><time>2026-05-02T14:57:47.787Z</time></trkpt><trkpt lat="42.9664367" lon="11.4334767"><ele>115.25</ele><time>2026-05-02T14:57:48.789Z</time></trkpt><trkpt lat="42.9664583" lon="11.4332783"><ele>114.5</ele><time>2026-05-02T14:57:49.786Z</time></trkpt><trkpt lat="42.9664783" lon="11.4330767"><ele>113.75</ele><time>2026-05-02T14:57:50.789Z</time></trkpt><trkpt lat="42.9664967" lon="11.4328717"><ele>113.0</ele><time>2026-05-02T14:57:51.786Z</time></trkpt><trkpt lat="42.9665183" lon="11.4326617"><ele>112.66666666666666</ele><time>2026-05-02T14:57:52.787Z</time></trkpt><trkpt lat="42.9665383" lon="11.4324567"><ele>112.33333333333334</ele><time>2026-05-02T14:57:53.786Z</time></trkpt><trkpt lat="42.96656" lon="11.4322517"><ele>112.0</ele><time>2026-05-02T14:57:54.787Z</time></trkpt><trkpt lat="42.9665783" lon="11.43204"><ele>112.0</ele><time>2026-05-02T14:57:55.785Z</time></trkpt><trkpt lat="42.9665917" lon="11.4318317"><ele>112.0</ele><time>2026-05-02T14:57:56.787Z</time></trkpt><trkpt lat="42.9665967" lon="11.4316283"><ele>112.0</ele><time>2026-05-02T14:57:57.786Z</time></trkpt><trkpt lat="42.9665867" lon="11.4314317"><ele>112.0</ele><time>2026-05-02T14:57:58.787Z</time></trkpt><trkpt lat="42.9665633" lon="11.4312417"><ele>112.5</ele><time>2026-05-02T14:57:59.787Z</time></trkpt><trkpt lat="42.9665283" lon="11.431055"><ele>113.0</ele><time>2026-05-02T14:58:00.788Z</time></trkpt><trkpt lat="42.9664917" lon="11.4308767"><ele>113.5</ele><time>2026-05-02T14:58:01.785Z</time></trkpt><trkpt lat="42.966465" lon="11.4307167"><ele>114.0</ele><time>2026-05-02T14:58:02.787Z</time></trkpt><trkpt lat="42.966445" lon="11.43057"><ele>114.0</ele><time>2026-05-02T14:58:03.789Z</time></trkpt><trkpt lat="42.9664283" lon="11.430435"><ele>114.0</ele><time>2026-05-02T14:58:04.789Z</time></trkpt><trkpt lat="42.96641" lon="11.4302967"><ele>114.0</ele><time>2026-05-02T14:58:05.789Z</time></trkpt><trkpt lat="42.9663983" lon="11.4301517"><ele>114.0</ele><time>2026-05-02T14:58:06.789Z</time></trkpt><trkpt lat="42.9663833" lon="11.4300067"><ele>114.0</ele><time>2026-05-02T14:58:07.787Z</time></trkpt><trkpt lat="42.9663717" lon="11.429855"><ele>114.0</ele><time>2026-05-02T14:58:08.787Z</time></trkpt><trkpt lat="42.9663617" lon="11.4297083"><ele>114.0</ele><time>2026-05-02T14:58:09.786Z</time></trkpt><trkpt lat="42.966365" lon="11.4295583"><ele>114.0</ele><time>2026-05-02T14:58:10.786Z</time></trkpt><trkpt lat="42.96638" lon="11.4294067"><ele>114.0</ele><time>2026-05-02T14:58:11.788Z</time></trkpt><trkpt lat="42.9664" lon="11.4292617"><ele>114.0</ele><time>2026-05-02T14:58:12.786Z</time></trkpt><trkpt lat="42.9664267" lon="11.4291233"><ele>114.2</ele><time>2026-05-02T14:58:13.786Z</time></trkpt><trkpt lat="42.9664517" lon="11.4289917"><ele>114.4</ele><time>2026-05-02T14:58:14.786Z</time></trkpt><trkpt lat="42.96647" lon="11.4288683"><ele>114.6</ele><time>2026-05-02T14:58:15.786Z</time></trkpt><trkpt lat="42.9664833" lon="11.4287483"><ele>114.8</ele><time>2026-05-02T14:58:16.786Z</time></trkpt><trkpt lat="42.966485" lon="11.42862"><ele>115.0</ele><time>2026-05-02T14:58:17.788Z</time></trkpt><trkpt lat="42.9664783" lon="11.4285117"><ele>115.00000000000001</ele><time>2026-05-02T14:58:18.786Z</time></trkpt><trkpt lat="42.9664667" lon="11.428415"><ele>115.0</ele><time>2026-05-02T14:58:19.786Z</time></trkpt><trkpt lat="42.966445" lon="11.4283233"><ele>115.0</ele><time>2026-05-02T14:58:20.789Z</time></trkpt><trkpt lat="42.96642" lon="11.4282367"><ele>115.0</ele><time>2026-05-02T14:58:21.789Z</time></trkpt><trkpt lat="42.9663917" lon="11.4281533"><ele>115.00000000000001</ele><time>2026-05-02T14:58:22.786Z</time></trkpt><trkpt lat="42.9663383" lon="11.427995"><ele>115.0</ele><time>2026-05-02T14:58:24.786Z</time></trkpt><trkpt lat="42.9663133" lon="11.427915"><ele>115.25</ele><time>2026-05-02T14:58:25.786Z</time></trkpt><trkpt lat="42.9662733" lon="11.427775"><ele>115.5</ele><time>2026-05-02T14:58:27.787Z</time></trkpt><trkpt lat="42.9662383" lon="11.427635"><ele>115.75</ele><time>2026-05-02T14:58:29.786Z</time></trkpt><trkpt lat="42.9661983" lon="11.4274917"><ele>116.0</ele><time>2026-05-02T14:58:31.788Z</time></trkpt><trkpt lat="42.9661583" lon="11.427315"><ele>115.99999999999999</ele><time>2026-05-02T14:58:33.791Z</time></trkpt><trkpt lat="42.9661283" lon="11.4272"><ele>116.0</ele><time>2026-05-02T14:58:34.786Z</time></trkpt><trkpt lat="42.9660967" lon="11.4270883"><ele>116.0</ele><time>2026-05-02T14:58:35.787Z</time></trkpt><trkpt lat="42.9660617" lon="11.4269817"><ele>116.0</ele><time>2026-05-02T14:58:36.785Z</time></trkpt><trkpt lat="42.9660183" lon="11.4268817"><ele>115.99999999999999</ele><time>2026-05-02T14:58:37.785Z</time></trkpt><trkpt lat="42.9659633" lon="11.4267833"><ele>116.0</ele><time>2026-05-02T14:58:38.786Z</time></trkpt><trkpt lat="42.9658983" lon="11.4266917"><ele>114.4</ele><time>2026-05-02T14:58:39.788Z</time></trkpt><trkpt lat="42.9658233" lon="11.42661"><ele>112.8</ele><time>2026-05-02T14:58:40.787Z</time></trkpt><trkpt lat="42.9657433" lon="11.4265383"><ele>111.20000000000002</ele><time>2026-05-02T14:58:41.788Z</time></trkpt><trkpt lat="42.96566" lon="11.4264817"><ele>109.60000000000001</ele><time>2026-05-02T14:58:42.786Z</time></trkpt><trkpt lat="42.965575" lon="11.426425"><ele>108.0</ele><time>2026-05-02T14:58:43.786Z</time></trkpt><trkpt lat="42.9654867" lon="11.4263667"><ele>108.16666666666667</ele><time>2026-05-02T14:58:44.786Z</time></trkpt><trkpt lat="42.965395" lon="11.4263067"><ele>108.33333333333334</ele><time>2026-05-02T14:58:45.787Z</time></trkpt><trkpt lat="42.9653067" lon="11.42625"><ele>108.5</ele><time>2026-05-02T14:58:46.789Z</time></trkpt><trkpt lat="42.965225" lon="11.4261917"><ele>108.66666666666667</ele><time>2026-05-02T14:58:47.788Z</time></trkpt><trkpt lat="42.9651583" lon="11.4261217"><ele>108.83333333333334</ele><time>2026-05-02T14:58:48.788Z</time></trkpt><trkpt lat="42.9651067" lon="11.4260517"><ele>109.0</ele><time>2026-05-02T14:58:49.786Z</time></trkpt><trkpt lat="42.9650617" lon="11.425955"><ele>108.0</ele><time>2026-05-02T14:58:52.789Z</time></trkpt><trkpt lat="42.9649917" lon="11.425905"><ele>107.0</ele><time>2026-05-02T14:58:54.786Z</time></trkpt><trkpt lat="42.964925" lon="11.4258717"><ele>106.0</ele><time>2026-05-02T14:58:55.786Z</time></trkpt><trkpt lat="42.9648367" lon="11.4258433"><ele>105.0</ele><time>2026-05-02T14:58:56.787Z</time></trkpt><trkpt lat="42.9647317" lon="11.4258183"><ele>104.0</ele><time>2026-05-02T14:58:57.786Z</time></trkpt><trkpt lat="42.964615" lon="11.42579"><ele>104.0</ele><time>2026-05-02T14:58:58.786Z</time></trkpt><trkpt lat="42.9644867" lon="11.4257617"><ele>104.0</ele><time>2026-05-02T14:58:59.786Z</time></trkpt><trkpt lat="42.96434" lon="11.425735"><ele>104.0</ele><time>2026-05-02T14:59:00.788Z</time></trkpt><trkpt lat="42.9641733" lon="11.425715"><ele>104.0</ele><time>2026-05-02T14:59:01.787Z</time></trkpt><trkpt lat="42.9639917" lon="11.425705"><ele>103.66666666666666</ele><time>2026-05-02T14:59:02.788Z</time></trkpt><trkpt lat="42.9638017" lon="11.4256983"><ele>103.33333333333334</ele><time>2026-05-02T14:59:03.788Z</time></trkpt><trkpt lat="42.96361" lon="11.4256933"><ele>103.0</ele><time>2026-05-02T14:59:04.786Z</time></trkpt><trkpt lat="42.9634183" lon="11.4256867"><ele>102.66666666666667</ele><time>2026-05-02T14:59:05.786Z</time></trkpt><trkpt lat="42.9632267" lon="11.4256783"><ele>102.33333333333334</ele><time>2026-05-02T14:59:06.787Z</time></trkpt><trkpt lat="42.963035" lon="11.4256717"><ele>102.0</ele><time>2026-05-02T14:59:07.786Z</time></trkpt><trkpt lat="42.9628417" lon="11.4256683"><ele>102.0</ele><time>2026-05-02T14:59:08.788Z</time></trkpt><trkpt lat="42.96265" lon="11.4256633"><ele>102.0</ele><time>2026-05-02T14:59:09.786Z</time></trkpt><trkpt lat="42.96246" lon="11.4256583"><ele>102.0</ele><time>2026-05-02T14:59:10.787Z</time></trkpt><trkpt lat="42.96227" lon="11.42565"><ele>101.33333333333334</ele><time>2026-05-02T14:59:11.787Z</time></trkpt><trkpt lat="42.9620883" lon="11.4256383"><ele>100.66666666666667</ele><time>2026-05-02T14:59:12.786Z</time></trkpt><trkpt lat="42.9619133" lon="11.4256317"><ele>100.0</ele><time>2026-05-02T14:59:13.787Z</time></trkpt><trkpt lat="42.9617433" lon="11.4256267"><ele>100.33333333333334</ele><time>2026-05-02T14:59:14.787Z</time></trkpt><trkpt lat="42.961575" lon="11.425625"><ele>100.66666666666666</ele><time>2026-05-02T14:59:15.788Z</time></trkpt><trkpt lat="42.9614133" lon="11.42562"><ele>101.0</ele><time>2026-05-02T14:59:16.786Z</time></trkpt><trkpt lat="42.9612583" lon="11.425615"><ele>101.0</ele><time>2026-05-02T14:59:17.787Z</time></trkpt><trkpt lat="42.9611083" lon="11.42561"><ele>101.0</ele><time>2026-05-02T14:59:18.787Z</time></trkpt><trkpt lat="42.9609533" lon="11.425605"><ele>101.0</ele><time>2026-05-02T14:59:19.786Z</time></trkpt><trkpt lat="42.9607983" lon="11.4256017"><ele>101.0</ele><time>2026-05-02T14:59:20.787Z</time></trkpt><trkpt lat="42.9606433" lon="11.4255967"><ele>101.0</ele><time>2026-05-02T14:59:21.788Z</time></trkpt><trkpt lat="42.9604833" lon="11.42559"><ele>101.0</ele><time>2026-05-02T14:59:22.785Z</time></trkpt><trkpt lat="42.960315" lon="11.4255817"><ele>101.0</ele><time>2026-05-02T14:59:23.786Z</time></trkpt><trkpt lat="42.96014" lon="11.4255717"><ele>101.0</ele><time>2026-05-02T14:59:24.786Z</time></trkpt><trkpt lat="42.95996" lon="11.425565"><ele>101.0</ele><time>2026-05-02T14:59:25.785Z</time></trkpt><trkpt lat="42.9597867" lon="11.425555"><ele>101.33333333333333</ele><time>2026-05-02T14:59:26.786Z</time></trkpt><trkpt lat="42.9596217" lon="11.425545"><ele>101.66666666666666</ele><time>2026-05-02T14:59:27.786Z</time></trkpt><trkpt lat="42.9594683" lon="11.4255367"><ele>102.0</ele><time>2026-05-02T14:59:28.786Z</time></trkpt><trkpt lat="42.9593217" lon="11.4255333"><ele>102.0</ele><time>2026-05-02T14:59:29.786Z</time></trkpt><trkpt lat="42.9591867" lon="11.42553"><ele>102.0</ele><time>2026-05-02T14:59:30.787Z</time></trkpt><trkpt lat="42.959055" lon="11.42553"><ele>102.0</ele><time>2026-05-02T14:59:31.786Z</time></trkpt><trkpt lat="42.9589333" lon="11.4255283"><ele>102.0</ele><time>2026-05-02T14:59:32.785Z</time></trkpt><trkpt lat="42.958815" lon="11.425525"><ele>102.0</ele><time>2026-05-02T14:59:33.786Z</time></trkpt><trkpt lat="42.9587033" lon="11.42552"><ele>102.0</ele><time>2026-05-02T14:59:34.787Z</time></trkpt><trkpt lat="42.9585933" lon="11.4255133"><ele>102.0</ele><time>2026-05-02T14:59:35.786Z</time></trkpt><trkpt lat="42.9584767" lon="11.4255083"><ele>102.0</ele><time>2026-05-02T14:59:36.786Z</time></trkpt><trkpt lat="42.958355" lon="11.425505"><ele>103.25</ele><time>2026-05-02T14:59:37.785Z</time></trkpt><trkpt lat="42.9582233" lon="11.4255017"><ele>104.5</ele><time>2026-05-02T14:59:38.786Z</time></trkpt><trkpt lat="42.9580817" lon="11.4254967"><ele>105.75</ele><time>2026-05-02T14:59:39.785Z</time></trkpt><trkpt lat="42.9579383" lon="11.4254917"><ele>107.0</ele><time>2026-05-02T14:59:40.785Z</time></trkpt><trkpt lat="42.9577883" lon="11.4254883"><ele>107.0</ele><time>2026-05-02T14:59:41.786Z</time></trkpt><trkpt lat="42.95763" lon="11.425485"><ele>107.0</ele><time>2026-05-02T14:59:42.788Z</time></trkpt><trkpt lat="42.957455" lon="11.425485"><ele>107.0</ele><time>2026-05-02T14:59:43.785Z</time></trkpt><trkpt lat="42.95728" lon="11.4254967"><ele>109.66666666666666</ele><time>2026-05-02T14:59:44.785Z</time></trkpt><trkpt lat="42.9571033" lon="11.4255217"><ele>112.33333333333334</ele><time>2026-05-02T14:59:45.786Z</time></trkpt><trkpt lat="42.9569167" lon="11.4255717"><ele>115.0</ele><time>2026-05-02T14:59:46.788Z</time></trkpt><trkpt lat="42.9567233" lon="11.42564"><ele>117.0</ele><time>2026-05-02T14:59:47.786Z</time></trkpt><trkpt lat="42.9565233" lon="11.42573"><ele>119.0</ele><time>2026-05-02T14:59:48.785Z</time></trkpt><trkpt lat="42.95632" lon="11.4258267"><ele>121.0</ele><time>2026-05-02T14:59:49.788Z</time></trkpt><trkpt lat="42.9561167" lon="11.42591"><ele>121.0</ele><time>2026-05-02T14:59:50.787Z</time></trkpt><trkpt lat="42.9559117" lon="11.4259717"><ele>121.0</ele><time>2026-05-02T14:59:51.786Z</time></trkpt><trkpt lat="42.9557083" lon="11.42601"><ele>121.0</ele><time>2026-05-02T14:59:52.785Z</time></trkpt><trkpt lat="42.9555067" lon="11.4260217"><ele>123.33333333333334</ele><time>2026-05-02T14:59:53.787Z</time></trkpt><trkpt lat="42.9553183" lon="11.426005"><ele>125.66666666666666</ele><time>2026-05-02T14:59:54.786Z</time></trkpt><trkpt lat="42.9551517" lon="11.425955"><ele>128.0</ele><time>2026-05-02T14:59:55.785Z</time></trkpt><trkpt lat="42.9549933" lon="11.4258717"><ele>129.33333333333331</ele><time>2026-05-02T14:59:56.786Z</time></trkpt><trkpt lat="42.9548467" lon="11.4257583"><ele>130.66666666666666</ele><time>2026-05-02T14:59:57.789Z</time></trkpt><trkpt lat="42.9547" lon="11.4256183"><ele>132.0</ele><time>2026-05-02T14:59:58.786Z</time></trkpt><trkpt lat="42.9545467" lon="11.4254783"><ele>132.0</ele><time>2026-05-02T14:59:59.786Z</time></trkpt><trkpt lat="42.9543867" lon="11.425345"><ele>132.0</ele><time>2026-05-02T15:00:00.785Z</time></trkpt><trkpt lat="42.9542167" lon="11.4252383"><ele>132.0</ele><time>2026-05-02T15:00:01.787Z</time></trkpt><trkpt lat="42.9540383" lon="11.4251717"><ele>133.66666666666666</ele><time>2026-05-02T15:00:02.786Z</time></trkpt><trkpt lat="42.9538567" lon="11.4251433"><ele>135.33333333333331</ele><time>2026-05-02T15:00:03.787Z</time></trkpt><trkpt lat="42.953685" lon="11.42513"><ele>137.0</ele><time>2026-05-02T15:00:04.786Z</time></trkpt><trkpt lat="42.9535283" lon="11.4251067"><ele>137.0</ele><time>2026-05-02T15:00:05.787Z</time></trkpt><trkpt lat="42.9533933" lon="11.4250533"><ele>137.0</ele><time>2026-05-02T15:00:06.787Z</time></trkpt><trkpt lat="42.9532783" lon="11.4249617"><ele>137.0</ele><time>2026-05-02T15:00:07.787Z</time></trkpt><trkpt lat="42.953185" lon="11.4248367"><ele>137.0</ele><time>2026-05-02T15:00:08.787Z</time></trkpt><trkpt lat="42.9531217" lon="11.424685"><ele>138.25</ele><time>2026-05-02T15:00:09.787Z</time></trkpt><trkpt lat="42.95309" lon="11.424535"><ele>139.5</ele><time>2026-05-02T15:00:10.786Z</time></trkpt><trkpt lat="42.953085" lon="11.4243817"><ele>140.75</ele><time>2026-05-02T15:00:11.786Z</time></trkpt><trkpt lat="42.9531" lon="11.4242267"><ele>142.0</ele><time>2026-05-02T15:00:12.787Z</time></trkpt><trkpt lat="42.953135" lon="11.4240683"><ele>142.0</ele><time>2026-05-02T15:00:13.786Z</time></trkpt><trkpt lat="42.9531783" lon="11.4239033"><ele>142.0</ele><time>2026-05-02T15:00:14.786Z</time></trkpt><trkpt lat="42.95322" lon="11.4237233"><ele>142.0</ele><time>2026-05-02T15:00:15.787Z</time></trkpt><trkpt lat="42.9532617" lon="11.423535"><ele>142.0</ele><time>2026-05-02T15:00:16.786Z</time></trkpt><trkpt lat="42.953305" lon="11.4233367"><ele>142.33333333333334</ele><time>2026-05-02T15:00:17.789Z</time></trkpt><trkpt lat="42.9533483" lon="11.4231267"><ele>142.66666666666666</ele><time>2026-05-02T15:00:18.785Z</time></trkpt><trkpt lat="42.95339" lon="11.4229033"><ele>143.0</ele><time>2026-05-02T15:00:19.785Z</time></trkpt><trkpt lat="42.9534317" lon="11.4226733"><ele>141.66666666666666</ele><time>2026-05-02T15:00:20.787Z</time></trkpt><trkpt lat="42.953475" lon="11.4224383"><ele>140.33333333333334</ele><time>2026-05-02T15:00:21.788Z</time></trkpt><trkpt lat="42.9535217" lon="11.4221983"><ele>139.0</ele><time>2026-05-02T15:00:22.787Z</time></trkpt><trkpt lat="42.95357" lon="11.4219583"><ele>138.66666666666669</ele><time>2026-05-02T15:00:23.788Z</time></trkpt><trkpt lat="42.9536217" lon="11.4217167"><ele>138.33333333333334</ele><time>2026-05-02T15:00:24.786Z</time></trkpt><trkpt lat="42.9536667" lon="11.4214817"><ele>138.0</ele><time>2026-05-02T15:00:25.786Z</time></trkpt><trkpt lat="42.9537117" lon="11.42125"><ele>137.33333333333334</ele><time>2026-05-02T15:00:26.787Z</time></trkpt><trkpt lat="42.953755" lon="11.42102"><ele>136.66666666666669</ele><time>2026-05-02T15:00:27.785Z</time></trkpt><trkpt lat="42.9538" lon="11.4207933"><ele>136.0</ele><time>2026-05-02T15:00:28.788Z</time></trkpt><trkpt lat="42.9538433" lon="11.4205733"><ele>134.66666666666669</ele><time>2026-05-02T15:00:29.785Z</time></trkpt><trkpt lat="42.9538883" lon="11.42036"><ele>133.33333333333334</ele><time>2026-05-02T15:00:30.786Z</time></trkpt><trkpt lat="42.953935" lon="11.4201433"><ele>132.0</ele><time>2026-05-02T15:00:31.786Z</time></trkpt><trkpt lat="42.95398" lon="11.4199233"><ele>132.0</ele><time>2026-05-02T15:00:32.785Z</time></trkpt><trkpt lat="42.9540233" lon="11.419695"><ele>132.0</ele><time>2026-05-02T15:00:33.787Z</time></trkpt><trkpt lat="42.9540667" lon="11.419465"><ele>132.0</ele><time>2026-05-02T15:00:34.787Z</time></trkpt><trkpt lat="42.9541133" lon="11.4192317"><ele>131.0</ele><time>2026-05-02T15:00:35.787Z</time></trkpt><trkpt lat="42.9541617" lon="11.418995"><ele>130.0</ele><time>2026-05-02T15:00:36.789Z</time></trkpt><trkpt lat="42.9542083" lon="11.4187567"><ele>129.0</ele><time>2026-05-02T15:00:37.786Z</time></trkpt><trkpt lat="42.9542583" lon="11.4185133"><ele>128.0</ele><time>2026-05-02T15:00:38.787Z</time></trkpt><trkpt lat="42.9543067" lon="11.41827"><ele>127.0</ele><time>2026-05-02T15:00:39.786Z</time></trkpt><trkpt lat="42.9543533" lon="11.41802"><ele>126.0</ele><time>2026-05-02T15:00:40.789Z</time></trkpt><trkpt lat="42.9544017" lon="11.41777"><ele>125.66666666666666</ele><time>2026-05-02T15:00:41.789Z</time></trkpt><trkpt lat="42.9544517" lon="11.4175217"><ele>125.33333333333333</ele><time>2026-05-02T15:00:42.79Z</time></trkpt><trkpt lat="42.9545017" lon="11.41727"><ele>125.0</ele><time>2026-05-02T15:00:43.789Z</time></trkpt><trkpt lat="42.954555" lon="11.41702"><ele>124.33333333333333</ele><time>2026-05-02T15:00:44.79Z</time></trkpt><trkpt lat="42.954605" lon="11.4167733"><ele>123.66666666666666</ele><time>2026-05-02T15:00:45.79Z</time></trkpt><trkpt lat="42.954655" lon="11.4165233"><ele>123.0</ele><time>2026-05-02T15:00:46.785Z</time></trkpt><trkpt lat="42.954705" lon="11.4162717"><ele>122.33333333333334</ele><time>2026-05-02T15:00:47.787Z</time></trkpt><trkpt lat="42.9547567" lon="11.41602"><ele>121.66666666666667</ele><time>2026-05-02T15:00:48.79Z</time></trkpt><trkpt lat="42.9548083" lon="11.4157667"><ele>121.0</ele><time>2026-05-02T15:00:49.787Z</time></trkpt><trkpt lat="42.95486" lon="11.4155117"><ele>121.0</ele><time>2026-05-02T15:00:50.788Z</time></trkpt><trkpt lat="42.9549133" lon="11.4152583"><ele>121.0</ele><time>2026-05-02T15:00:51.786Z</time></trkpt><trkpt lat="42.954965" lon="11.4150033"><ele>121.0</ele><time>2026-05-02T15:00:52.787Z</time></trkpt><trkpt lat="42.9550167" lon="11.4147467"><ele>118.0</ele><time>2026-05-02T15:00:53.786Z</time></trkpt><trkpt lat="42.9550683" lon="11.41449"><ele>115.0</ele><time>2026-05-02T15:00:54.786Z</time></trkpt><trkpt lat="42.9551717" lon="11.4139783"><ele>114.66666666666667</ele><time>2026-05-02T15:00:56.787Z</time></trkpt><trkpt lat="42.9552233" lon="11.4137217"><ele>114.33333333333334</ele><time>2026-05-02T15:00:57.786Z</time></trkpt><trkpt lat="42.9552733" lon="11.4134667"><ele>114.0</ele><time>2026-05-02T15:00:58.786Z</time></trkpt><trkpt lat="42.9553233" lon="11.4132133"><ele>113.66666666666666</ele><time>2026-05-02T15:00:59.788Z</time></trkpt><trkpt lat="42.955375" lon="11.4129583"><ele>113.33333333333333</ele><time>2026-05-02T15:01:00.788Z</time></trkpt><trkpt lat="42.9554267" lon="11.4127017"><ele>113.0</ele><time>2026-05-02T15:01:01.788Z</time></trkpt><trkpt lat="42.9554767" lon="11.4124467"><ele>113.0</ele><time>2026-05-02T15:01:02.787Z</time></trkpt><trkpt lat="42.9555267" lon="11.4121917"><ele>113.0</ele><time>2026-05-02T15:01:03.787Z</time></trkpt><trkpt lat="42.95558" lon="11.411935"><ele>113.0</ele><time>2026-05-02T15:01:04.787Z</time></trkpt><trkpt lat="42.95563" lon="11.4116817"><ele>114.0</ele><time>2026-05-02T15:01:05.786Z</time></trkpt><trkpt lat="42.9556783" lon="11.4114317"><ele>115.0</ele><time>2026-05-02T15:01:06.787Z</time></trkpt><trkpt lat="42.9557267" lon="11.411185"><ele>116.0</ele><time>2026-05-02T15:01:07.787Z</time></trkpt><trkpt lat="42.955775" lon="11.4109383"><ele>116.33333333333333</ele><time>2026-05-02T15:01:08.787Z</time></trkpt><trkpt lat="42.955825" lon="11.4106933"><ele>116.66666666666666</ele><time>2026-05-02T15:01:09.787Z</time></trkpt><trkpt lat="42.9558733" lon="11.4104483"><ele>117.0</ele><time>2026-05-02T15:01:10.789Z</time></trkpt><trkpt lat="42.9559233" lon="11.4102017"><ele>115.0</ele><time>2026-05-02T15:01:11.789Z</time></trkpt><trkpt lat="42.9559733" lon="11.4099533"><ele>113.0</ele><time>2026-05-02T15:01:12.789Z</time></trkpt><trkpt lat="42.9560217" lon="11.4097117"><ele>111.0</ele><time>2026-05-02T15:01:13.789Z</time></trkpt><trkpt lat="42.9560717" lon="11.4094817"><ele>111.0</ele><time>2026-05-02T15:01:14.789Z</time></trkpt><trkpt lat="42.9561183" lon="11.4092617"><ele>111.0</ele><time>2026-05-02T15:01:15.789Z</time></trkpt><trkpt lat="42.95616" lon="11.4090467"><ele>111.0</ele><time>2026-05-02T15:01:16.789Z</time></trkpt><trkpt lat="42.9562017" lon="11.4088367"><ele>112.0</ele><time>2026-05-02T15:01:17.789Z</time></trkpt><trkpt lat="42.956245" lon="11.4086183"><ele>113.0</ele><time>2026-05-02T15:01:18.79Z</time></trkpt><trkpt lat="42.95629" lon="11.4084017"><ele>114.0</ele><time>2026-05-02T15:01:19.787Z</time></trkpt><trkpt lat="42.9563333" lon="11.4081917"><ele>113.66666666666666</ele><time>2026-05-02T15:01:20.787Z</time></trkpt><trkpt lat="42.956375" lon="11.4079867"><ele>113.33333333333333</ele><time>2026-05-02T15:01:21.786Z</time></trkpt><trkpt lat="42.9564167" lon="11.4077867"><ele>113.0</ele><time>2026-05-02T15:01:22.788Z</time></trkpt><trkpt lat="42.9564567" lon="11.40758"><ele>113.0</ele><time>2026-05-02T15:01:23.788Z</time></trkpt><trkpt lat="42.9564983" lon="11.4073683"><ele>113.0</ele><time>2026-05-02T15:01:24.787Z</time></trkpt><trkpt lat="42.95654" lon="11.40715"><ele>113.0</ele><time>2026-05-02T15:01:25.787Z</time></trkpt><trkpt lat="42.9565833" lon="11.4069267"><ele>112.33333333333333</ele><time>2026-05-02T15:01:26.787Z</time></trkpt><trkpt lat="42.9566283" lon="11.4067033"><ele>111.66666666666666</ele><time>2026-05-02T15:01:27.788Z</time></trkpt><trkpt lat="42.9566783" lon="11.40648"><ele>111.0</ele><time>2026-05-02T15:01:28.787Z</time></trkpt><trkpt lat="42.9567333" lon="11.40626"><ele>110.0</ele><time>2026-05-02T15:01:29.787Z</time></trkpt><trkpt lat="42.9567917" lon="11.4060317"><ele>109.0</ele><time>2026-05-02T15:01:30.788Z</time></trkpt><trkpt lat="42.95685" lon="11.405805"><ele>108.0</ele><time>2026-05-02T15:01:31.787Z</time></trkpt><trkpt lat="42.9569117" lon="11.405575"><ele>107.66666666666666</ele><time>2026-05-02T15:01:32.787Z</time></trkpt><trkpt lat="42.9569767" lon="11.4053467"><ele>107.33333333333333</ele><time>2026-05-02T15:01:33.786Z</time></trkpt><trkpt lat="42.95704" lon="11.4051117"><ele>107.0</ele><time>2026-05-02T15:01:34.787Z</time></trkpt><trkpt lat="42.9571033" lon="11.4048817"><ele>105.0</ele><time>2026-05-02T15:01:35.786Z</time></trkpt><trkpt lat="42.9571667" lon="11.4046533"><ele>103.0</ele><time>2026-05-02T15:01:36.787Z</time></trkpt><trkpt lat="42.9572267" lon="11.40442"><ele>101.0</ele><time>2026-05-02T15:01:37.786Z</time></trkpt><trkpt lat="42.9572783" lon="11.4041833"><ele>101.0</ele><time>2026-05-02T15:01:38.787Z</time></trkpt><trkpt lat="42.9573183" lon="11.4039467"><ele>101.0</ele><time>2026-05-02T15:01:39.787Z</time></trkpt><trkpt lat="42.9573467" lon="11.4037083"><ele>101.0</ele><time>2026-05-02T15:01:40.79Z</time></trkpt><trkpt lat="42.95736" lon="11.403465"><ele>99.33333333333333</ele><time>2026-05-02T15:01:41.789Z</time></trkpt><trkpt lat="42.9573683" lon="11.4032167"><ele>97.66666666666666</ele><time>2026-05-02T15:01:42.789Z</time></trkpt><trkpt lat="42.9573733" lon="11.40297"><ele>96.0</ele><time>2026-05-02T15:01:43.788Z</time></trkpt><trkpt lat="42.957375" lon="11.40272"><ele>95.66666666666667</ele><time>2026-05-02T15:01:44.789Z</time></trkpt><trkpt lat="42.9573767" lon="11.402475"><ele>95.33333333333334</ele><time>2026-05-02T15:01:45.789Z</time></trkpt><trkpt lat="42.9573817" lon="11.40223"><ele>95.0</ele><time>2026-05-02T15:01:46.789Z</time></trkpt><trkpt lat="42.9573817" lon="11.4019867"><ele>94.33333333333334</ele><time>2026-05-02T15:01:47.79Z</time></trkpt><trkpt lat="42.9573833" lon="11.4017433"><ele>93.66666666666667</ele><time>2026-05-02T15:01:48.789Z</time></trkpt><trkpt lat="42.9573867" lon="11.4015033"><ele>93.0</ele><time>2026-05-02T15:01:49.786Z</time></trkpt><trkpt lat="42.9573867" lon="11.40127"><ele>93.0</ele><time>2026-05-02T15:01:50.787Z</time></trkpt><trkpt lat="42.957385" lon="11.4010317"><ele>93.0</ele><time>2026-05-02T15:01:51.788Z</time></trkpt><trkpt lat="42.957385" lon="11.4007933"><ele>93.0</ele><time>2026-05-02T15:01:52.789Z</time></trkpt><trkpt lat="42.9573917" lon="11.4005533"><ele>94.33333333333334</ele><time>2026-05-02T15:01:53.789Z</time></trkpt><trkpt lat="42.957395" lon="11.4003133"><ele>95.66666666666667</ele><time>2026-05-02T15:01:54.789Z</time></trkpt><trkpt lat="42.9574" lon="11.400065"><ele>97.0</ele><time>2026-05-02T15:01:55.786Z</time></trkpt><trkpt lat="42.9573983" lon="11.3998133"><ele>98.33333333333334</ele><time>2026-05-02T15:01:56.787Z</time></trkpt><trkpt lat="42.9573933" lon="11.3995617"><ele>99.66666666666666</ele><time>2026-05-02T15:01:57.787Z</time></trkpt><trkpt lat="42.9573817" lon="11.3993117"><ele>101.0</ele><time>2026-05-02T15:01:58.789Z</time></trkpt><trkpt lat="42.9573683" lon="11.399055"><ele>101.0</ele><time>2026-05-02T15:01:59.787Z</time></trkpt><trkpt lat="42.9573533" lon="11.3987933"><ele>101.0</ele><time>2026-05-02T15:02:00.788Z</time></trkpt><trkpt lat="42.9573383" lon="11.3985333"><ele>101.0</ele><time>2026-05-02T15:02:01.786Z</time></trkpt><trkpt lat="42.957325" lon="11.3982717"><ele>101.0</ele><time>2026-05-02T15:02:02.789Z</time></trkpt><trkpt lat="42.957315" lon="11.3980133"><ele>101.0</ele><time>2026-05-02T15:02:03.788Z</time></trkpt><trkpt lat="42.9573067" lon="11.397765"><ele>101.0</ele><time>2026-05-02T15:02:04.788Z</time></trkpt><trkpt lat="42.9573" lon="11.3975317"><ele>101.66666666666666</ele><time>2026-05-02T15:02:05.787Z</time></trkpt><trkpt lat="42.957295" lon="11.3973167"><ele>102.33333333333334</ele><time>2026-05-02T15:02:06.787Z</time></trkpt><trkpt lat="42.9572983" lon="11.39711"><ele>103.0</ele><time>2026-05-02T15:02:07.787Z</time></trkpt><trkpt lat="42.9573083" lon="11.3969067"><ele>104.0</ele><time>2026-05-02T15:02:08.788Z</time></trkpt><trkpt lat="42.9573417" lon="11.396505"><ele>105.0</ele><time>2026-05-02T15:02:10.787Z</time></trkpt><trkpt lat="42.95736" lon="11.3963033"><ele>106.0</ele><time>2026-05-02T15:02:11.789Z</time></trkpt><trkpt lat="42.9573783" lon="11.396095"><ele>106.66666666666667</ele><time>2026-05-02T15:02:12.787Z</time></trkpt><trkpt lat="42.957395" lon="11.3958833"><ele>107.33333333333334</ele><time>2026-05-02T15:02:13.793Z</time></trkpt><trkpt lat="42.957415" lon="11.3956667"><ele>108.0</ele><time>2026-05-02T15:02:14.789Z</time></trkpt><trkpt lat="42.9574367" lon="11.39545"><ele>108.66666666666666</ele><time>2026-05-02T15:02:15.789Z</time></trkpt><trkpt lat="42.9574583" lon="11.3952217"><ele>109.33333333333333</ele><time>2026-05-02T15:02:16.789Z</time></trkpt><trkpt lat="42.95748" lon="11.39499"><ele>110.0</ele><time>2026-05-02T15:02:17.789Z</time></trkpt><trkpt lat="42.9575017" lon="11.3947567"><ele>109.66666666666666</ele><time>2026-05-02T15:02:18.791Z</time></trkpt><trkpt lat="42.95752" lon="11.3945133"><ele>109.33333333333334</ele><time>2026-05-02T15:02:19.786Z</time></trkpt><trkpt lat="42.9575367" lon="11.39427"><ele>109.0</ele><time>2026-05-02T15:02:20.787Z</time></trkpt><trkpt lat="42.9575567" lon="11.3940217"><ele>107.66666666666667</ele><time>2026-05-02T15:02:21.788Z</time></trkpt><trkpt lat="42.957575" lon="11.3937767"><ele>106.33333333333334</ele><time>2026-05-02T15:02:22.787Z</time></trkpt><trkpt lat="42.9575967" lon="11.3935317"><ele>105.0</ele><time>2026-05-02T15:02:23.788Z</time></trkpt><trkpt lat="42.95762" lon="11.3932867"><ele>105.0</ele><time>2026-05-02T15:02:24.788Z</time></trkpt><trkpt lat="42.9576417" lon="11.39304"><ele>105.0</ele><time>2026-05-02T15:02:25.789Z</time></trkpt><trkpt lat="42.9576633" lon="11.3927933"><ele>105.0</ele><time>2026-05-02T15:02:26.785Z</time></trkpt><trkpt lat="42.9576833" lon="11.3925467"><ele>105.33333333333334</ele><time>2026-05-02T15:02:27.788Z</time></trkpt><trkpt lat="42.9577" lon="11.3923"><ele>105.66666666666667</ele><time>2026-05-02T15:02:28.787Z</time></trkpt><trkpt lat="42.95772" lon="11.3920517"><ele>106.0</ele><time>2026-05-02T15:02:29.787Z</time></trkpt><trkpt lat="42.95774" lon="11.391805"><ele>106.33333333333334</ele><time>2026-05-02T15:02:30.787Z</time></trkpt><trkpt lat="42.9577617" lon="11.3915583"><ele>106.66666666666666</ele><time>2026-05-02T15:02:31.786Z</time></trkpt><trkpt lat="42.9577833" lon="11.3913117"><ele>107.0</ele><time>2026-05-02T15:02:32.788Z</time></trkpt><trkpt lat="42.9578033" lon="11.39107"><ele>106.66666666666666</ele><time>2026-05-02T15:02:33.787Z</time></trkpt><trkpt lat="42.9578217" lon="11.3908383"><ele>106.33333333333334</ele><time>2026-05-02T15:02:34.787Z</time></trkpt><trkpt lat="42.95784" lon="11.39061"><ele>106.0</ele><time>2026-05-02T15:02:35.788Z</time></trkpt><trkpt lat="42.9578633" lon="11.39038"><ele>106.0</ele><time>2026-05-02T15:02:36.787Z</time></trkpt><trkpt lat="42.957885" lon="11.3901483"><ele>106.0</ele><time>2026-05-02T15:02:37.787Z</time></trkpt><trkpt lat="42.957905" lon="11.3899133"><ele>106.0</ele><time>2026-05-02T15:02:38.788Z</time></trkpt><trkpt lat="42.9579117" lon="11.3896767"><ele>105.66666666666667</ele><time>2026-05-02T15:02:39.787Z</time></trkpt><trkpt lat="42.9579083" lon="11.38944"><ele>105.33333333333334</ele><time>2026-05-02T15:02:40.789Z</time></trkpt><trkpt lat="42.95789" lon="11.389205"><ele>105.0</ele><time>2026-05-02T15:02:41.788Z</time></trkpt><trkpt lat="42.9578633" lon="11.3889667"><ele>103.66666666666666</ele><time>2026-05-02T15:02:42.788Z</time></trkpt><trkpt lat="42.957835" lon="11.3887267"><ele>102.33333333333333</ele><time>2026-05-02T15:02:43.785Z</time></trkpt><trkpt lat="42.957805" lon="11.388485"><ele>101.0</ele><time>2026-05-02T15:02:44.789Z</time></trkpt><trkpt lat="42.9577767" lon="11.3882417"><ele>100.0</ele><time>2026-05-02T15:02:45.789Z</time></trkpt><trkpt lat="42.9577517" lon="11.3880017"><ele>99.0</ele><time>2026-05-02T15:02:46.789Z</time></trkpt><trkpt lat="42.957725" lon="11.387755"><ele>98.0</ele><time>2026-05-02T15:02:47.785Z</time></trkpt><trkpt lat="42.9577017" lon="11.387515"><ele>98.0</ele><time>2026-05-02T15:02:48.788Z</time></trkpt><trkpt lat="42.9576733" lon="11.3872817"><ele>98.0</ele><time>2026-05-02T15:02:49.79Z</time></trkpt><trkpt lat="42.9576483" lon="11.3870533"><ele>98.0</ele><time>2026-05-02T15:02:50.785Z</time></trkpt><trkpt lat="42.9576267" lon="11.3868417"><ele>98.5</ele><time>2026-05-02T15:02:51.785Z</time></trkpt><trkpt lat="42.9576067" lon="11.3866417"><ele>99.0</ele><time>2026-05-02T15:02:52.786Z</time></trkpt><trkpt lat="42.9575883" lon="11.386455"><ele>99.5</ele><time>2026-05-02T15:02:53.786Z</time></trkpt><trkpt lat="42.9575717" lon="11.3862817"><ele>100.0</ele><time>2026-05-02T15:02:54.785Z</time></trkpt><trkpt lat="42.9575533" lon="11.3861117"><ele>101.2</ele><time>2026-05-02T15:02:55.786Z</time></trkpt><trkpt lat="42.957535" lon="11.38595"><ele>102.4</ele><time>2026-05-02T15:02:56.785Z</time></trkpt><trkpt lat="42.957515" lon="11.3857967"><ele>103.6</ele><time>2026-05-02T15:02:57.785Z</time></trkpt><trkpt lat="42.9575" lon="11.3856467"><ele>104.8</ele><time>2026-05-02T15:02:58.786Z</time></trkpt><trkpt lat="42.957495" lon="11.38551"><ele>106.0</ele><time>2026-05-02T15:02:59.785Z</time></trkpt><trkpt lat="42.9575" lon="11.3853933"><ele>106.00000000000001</ele><time>2026-05-02T15:03:00.785Z</time></trkpt><trkpt lat="42.9575167" lon="11.3852783"><ele>106.0</ele><time>2026-05-02T15:03:01.787Z</time></trkpt><trkpt lat="42.9575467" lon="11.3851767"><ele>106.0</ele><time>2026-05-02T15:03:02.785Z</time></trkpt><trkpt lat="42.9575667" lon="11.3850733"><ele>106.0</ele><time>2026-05-02T15:03:03.786Z</time></trkpt><trkpt lat="42.9575617" lon="11.3849733"><ele>106.00000000000001</ele><time>2026-05-02T15:03:04.785Z</time></trkpt><trkpt lat="42.9575317" lon="11.3848683"><ele>106.0</ele><time>2026-05-02T15:03:05.785Z</time></trkpt><trkpt lat="42.9574817" lon="11.38476"><ele>105.75</ele><time>2026-05-02T15:03:06.785Z</time></trkpt><trkpt lat="42.957435" lon="11.384635"><ele>105.5</ele><time>2026-05-02T15:03:07.785Z</time></trkpt><trkpt lat="42.957395" lon="11.384485"><ele>105.25</ele><time>2026-05-02T15:03:08.786Z</time></trkpt><trkpt lat="42.957365" lon="11.384315"><ele>105.0</ele><time>2026-05-02T15:03:09.787Z</time></trkpt><trkpt lat="42.95734" lon="11.384135"><ele>105.0</ele><time>2026-05-02T15:03:10.789Z</time></trkpt><trkpt lat="42.9573183" lon="11.3839467"><ele>105.0</ele><time>2026-05-02T15:03:11.789Z</time></trkpt><trkpt lat="42.9572933" lon="11.3837533"><ele>105.0</ele><time>2026-05-02T15:03:12.789Z</time></trkpt><trkpt lat="42.9572667" lon="11.3835483"><ele>105.0</ele><time>2026-05-02T15:03:13.789Z</time></trkpt><trkpt lat="42.9572417" lon="11.3833333"><ele>105.0</ele><time>2026-05-02T15:03:14.788Z</time></trkpt><trkpt lat="42.9572183" lon="11.3831167"><ele>105.0</ele><time>2026-05-02T15:03:15.785Z</time></trkpt><trkpt lat="42.9571933" lon="11.3829"><ele>105.0</ele><time>2026-05-02T15:03:16.789Z</time></trkpt><trkpt lat="42.9571683" lon="11.3826767"><ele>104.66666666666666</ele><time>2026-05-02T15:03:17.785Z</time></trkpt><trkpt lat="42.957145" lon="11.3824483"><ele>104.33333333333333</ele><time>2026-05-02T15:03:18.788Z</time></trkpt><trkpt lat="42.9571267" lon="11.382225"><ele>104.0</ele><time>2026-05-02T15:03:19.788Z</time></trkpt><trkpt lat="42.957105" lon="11.3820017"><ele>103.33333333333333</ele><time>2026-05-02T15:03:20.787Z</time></trkpt><trkpt lat="42.9570817" lon="11.3817733"><ele>102.66666666666666</ele><time>2026-05-02T15:03:21.785Z</time></trkpt><trkpt lat="42.9570583" lon="11.3815433"><ele>102.0</ele><time>2026-05-02T15:03:22.785Z</time></trkpt><trkpt lat="42.957035" lon="11.3813083"><ele>101.66666666666666</ele><time>2026-05-02T15:03:23.787Z</time></trkpt><trkpt lat="42.95701" lon="11.3810717"><ele>101.33333333333333</ele><time>2026-05-02T15:03:24.789Z</time></trkpt><trkpt lat="42.956985" lon="11.380835"><ele>101.0</ele><time>2026-05-02T15:03:25.79Z</time></trkpt><trkpt lat="42.95696" lon="11.3806017"><ele>101.0</ele><time>2026-05-02T15:03:26.785Z</time></trkpt><trkpt lat="42.9569333" lon="11.3803633"><ele>101.0</ele><time>2026-05-02T15:03:27.786Z</time></trkpt><trkpt lat="42.9569067" lon="11.38013"><ele>101.0</ele><time>2026-05-02T15:03:28.786Z</time></trkpt><trkpt lat="42.95688" lon="11.3798983"><ele>101.0</ele><time>2026-05-02T15:03:29.786Z</time></trkpt><trkpt lat="42.9568533" lon="11.37966"><ele>101.0</ele><time>2026-05-02T15:03:30.786Z</time></trkpt><trkpt lat="42.9568267" lon="11.3794183"><ele>101.0</ele><time>2026-05-02T15:03:31.786Z</time></trkpt><trkpt lat="42.9568" lon="11.379175"><ele>101.0</ele><time>2026-05-02T15:03:32.787Z</time></trkpt><trkpt lat="42.9567717" lon="11.3789317"><ele>101.0</ele><time>2026-05-02T15:03:33.79Z</time></trkpt><trkpt lat="42.956745" lon="11.37869"><ele>101.0</ele><time>2026-05-02T15:03:34.787Z</time></trkpt><trkpt lat="42.9567167" lon="11.3784433"><ele>100.33333333333333</ele><time>2026-05-02T15:03:35.786Z</time></trkpt><trkpt lat="42.9566883" lon="11.3782"><ele>99.66666666666666</ele><time>2026-05-02T15:03:36.785Z</time></trkpt><trkpt lat="42.95666" lon="11.3779583"><ele>99.0</ele><time>2026-05-02T15:03:37.786Z</time></trkpt><trkpt lat="42.9566333" lon="11.3777167"><ele>99.0</ele><time>2026-05-02T15:03:38.785Z</time></trkpt><trkpt lat="42.9566067" lon="11.3774767"><ele>99.0</ele><time>2026-05-02T15:03:39.785Z</time></trkpt><trkpt lat="42.9565817" lon="11.3772417"><ele>99.0</ele><time>2026-05-02T15:03:40.785Z</time></trkpt><trkpt lat="42.9565533" lon="11.377005"><ele>99.0</ele><time>2026-05-02T15:03:41.789Z</time></trkpt><trkpt lat="42.95653" lon="11.3767683"><ele>99.0</ele><time>2026-05-02T15:03:42.789Z</time></trkpt><trkpt lat="42.956505" lon="11.3765333"><ele>99.0</ele><time>2026-05-02T15:03:43.79Z</time></trkpt><trkpt lat="42.9564817" lon="11.3762983"><ele>100.33333333333334</ele><time>2026-05-02T15:03:44.789Z</time></trkpt><trkpt lat="42.9564583" lon="11.3760683"><ele>101.66666666666667</ele><time>2026-05-02T15:03:45.79Z</time></trkpt><trkpt lat="42.9564367" lon="11.3758383"><ele>103.0</ele><time>2026-05-02T15:03:46.789Z</time></trkpt><trkpt lat="42.9564133" lon="11.3756033"><ele>103.0</ele><time>2026-05-02T15:03:47.789Z</time></trkpt><trkpt lat="42.95639" lon="11.3753633"><ele>103.0</ele><time>2026-05-02T15:03:48.789Z</time></trkpt><trkpt lat="42.9563717" lon="11.375125"><ele>103.0</ele><time>2026-05-02T15:03:49.788Z</time></trkpt><trkpt lat="42.9563517" lon="11.3748883"><ele>102.0</ele><time>2026-05-02T15:03:50.786Z</time></trkpt><trkpt lat="42.9563333" lon="11.37465"><ele>101.0</ele><time>2026-05-02T15:03:51.789Z</time></trkpt><trkpt lat="42.956325" lon="11.3744133"><ele>100.0</ele><time>2026-05-02T15:03:52.787Z</time></trkpt><trkpt lat="42.9563167" lon="11.3741733"><ele>100.0</ele><time>2026-05-02T15:03:53.789Z</time></trkpt><trkpt lat="42.95631" lon="11.3739283"><ele>100.0</ele><time>2026-05-02T15:03:54.785Z</time></trkpt><trkpt lat="42.9563033" lon="11.3736833"><ele>100.0</ele><time>2026-05-02T15:03:55.787Z</time></trkpt><trkpt lat="42.9562967" lon="11.37344"><ele>99.66666666666667</ele><time>2026-05-02T15:03:56.786Z</time></trkpt><trkpt lat="42.9562917" lon="11.3732"><ele>99.33333333333334</ele><time>2026-05-02T15:03:57.785Z</time></trkpt><trkpt lat="42.956285" lon="11.3729617"><ele>99.0</ele><time>2026-05-02T15:03:58.786Z</time></trkpt><trkpt lat="42.95628" lon="11.3727217"><ele>99.0</ele><time>2026-05-02T15:03:59.787Z</time></trkpt><trkpt lat="42.9562733" lon="11.3724767"><ele>99.0</ele><time>2026-05-02T15:04:00.785Z</time></trkpt><trkpt lat="42.9562683" lon="11.372235"><ele>99.0</ele><time>2026-05-02T15:04:01.786Z</time></trkpt><trkpt lat="42.9562617" lon="11.3719917"><ele>98.66666666666666</ele><time>2026-05-02T15:04:02.786Z</time></trkpt><trkpt lat="42.9562567" lon="11.3717517"><ele>98.33333333333333</ele><time>2026-05-02T15:04:03.785Z</time></trkpt><trkpt lat="42.9562517" lon="11.3715067"><ele>98.0</ele><time>2026-05-02T15:04:04.789Z</time></trkpt><trkpt lat="42.956245" lon="11.3712583"><ele>98.0</ele><time>2026-05-02T15:04:05.789Z</time></trkpt><trkpt lat="42.9562383" lon="11.3710117"><ele>98.0</ele><time>2026-05-02T15:04:06.789Z</time></trkpt><trkpt lat="42.9562317" lon="11.37077"><ele>98.0</ele><time>2026-05-02T15:04:07.79Z</time></trkpt><trkpt lat="42.956225" lon="11.37052"><ele>97.66666666666666</ele><time>2026-05-02T15:04:08.789Z</time></trkpt><trkpt lat="42.95622" lon="11.37027"><ele>97.33333333333334</ele><time>2026-05-02T15:04:09.789Z</time></trkpt><trkpt lat="42.9562133" lon="11.37002"><ele>97.0</ele><time>2026-05-02T15:04:10.789Z</time></trkpt><trkpt lat="42.9562067" lon="11.3697717"><ele>97.33333333333334</ele><time>2026-05-02T15:04:11.789Z</time></trkpt><trkpt lat="42.9561983" lon="11.3695267"><ele>97.66666666666666</ele><time>2026-05-02T15:04:12.785Z</time></trkpt><trkpt lat="42.9561917" lon="11.3692817"><ele>98.0</ele><time>2026-05-02T15:04:13.789Z</time></trkpt><trkpt lat="42.956185" lon="11.3690333"><ele>98.0</ele><time>2026-05-02T15:04:14.789Z</time></trkpt><trkpt lat="42.9561817" lon="11.368785"><ele>98.0</ele><time>2026-05-02T15:04:15.789Z</time></trkpt><trkpt lat="42.9561767" lon="11.368535"><ele>98.0</ele><time>2026-05-02T15:04:16.789Z</time></trkpt><trkpt lat="42.9561717" lon="11.3682867"><ele>98.0</ele><time>2026-05-02T15:04:17.789Z</time></trkpt><trkpt lat="42.9561633" lon="11.36804"><ele>98.0</ele><time>2026-05-02T15:04:18.79Z</time></trkpt><trkpt lat="42.9561567" lon="11.367795"><ele>98.0</ele><time>2026-05-02T15:04:19.789Z</time></trkpt><trkpt lat="42.9561483" lon="11.36755"><ele>97.33333333333333</ele><time>2026-05-02T15:04:20.789Z</time></trkpt><trkpt lat="42.9561433" lon="11.3673017"><ele>96.66666666666666</ele><time>2026-05-02T15:04:21.789Z</time></trkpt><trkpt lat="42.95614" lon="11.3670533"><ele>96.0</ele><time>2026-05-02T15:04:22.79Z</time></trkpt><trkpt lat="42.9561367" lon="11.3668033"><ele>95.66666666666667</ele><time>2026-05-02T15:04:23.789Z</time></trkpt><trkpt lat="42.9561317" lon="11.3665517"><ele>95.33333333333334</ele><time>2026-05-02T15:04:24.789Z</time></trkpt><trkpt lat="42.9561283" lon="11.3662983"><ele>95.0</ele><time>2026-05-02T15:04:25.789Z</time></trkpt><trkpt lat="42.9561217" lon="11.3660467"><ele>94.66666666666667</ele><time>2026-05-02T15:04:26.789Z</time></trkpt><trkpt lat="42.956115" lon="11.3657967"><ele>94.33333333333333</ele><time>2026-05-02T15:04:27.785Z</time></trkpt><trkpt lat="42.9561117" lon="11.3655433"><ele>94.0</ele><time>2026-05-02T15:04:28.786Z</time></trkpt><trkpt lat="42.95611" lon="11.3652883"><ele>94.0</ele><time>2026-05-02T15:04:29.789Z</time></trkpt><trkpt lat="42.956105" lon="11.3650367"><ele>94.0</ele><time>2026-05-02T15:04:30.789Z</time></trkpt><trkpt lat="42.9560983" lon="11.3647833"><ele>94.0</ele><time>2026-05-02T15:04:31.79Z</time></trkpt><trkpt lat="42.956095" lon="11.36453"><ele>94.0</ele><time>2026-05-02T15:04:32.79Z</time></trkpt><trkpt lat="42.95609" lon="11.3642733"><ele>94.0</ele><time>2026-05-02T15:04:33.791Z</time></trkpt><trkpt lat="42.956085" lon="11.364015"><ele>94.0</ele><time>2026-05-02T15:04:34.789Z</time></trkpt><trkpt lat="42.9560783" lon="11.3637567"><ele>94.0</ele><time>2026-05-02T15:04:35.789Z</time></trkpt><trkpt lat="42.95607" lon="11.3635017"><ele>94.0</ele><time>2026-05-02T15:04:36.789Z</time></trkpt><trkpt lat="42.956065" lon="11.363245"><ele>94.0</ele><time>2026-05-02T15:04:37.79Z</time></trkpt><trkpt lat="42.9560583" lon="11.3629883"><ele>93.33333333333333</ele><time>2026-05-02T15:04:38.789Z</time></trkpt><trkpt lat="42.9560517" lon="11.3627333"><ele>92.66666666666667</ele><time>2026-05-02T15:04:39.789Z</time></trkpt><trkpt lat="42.9560467" lon="11.3624767"><ele>92.0</ele><time>2026-05-02T15:04:40.79Z</time></trkpt><trkpt lat="42.9560417" lon="11.362225"><ele>92.33333333333334</ele><time>2026-05-02T15:04:41.79Z</time></trkpt><trkpt lat="42.956035" lon="11.3619717"><ele>92.66666666666667</ele><time>2026-05-02T15:04:42.789Z</time></trkpt><trkpt lat="42.95603" lon="11.36172"><ele>93.0</ele><time>2026-05-02T15:04:43.789Z</time></trkpt><trkpt lat="42.9560217" lon="11.36147"><ele>92.66666666666667</ele><time>2026-05-02T15:04:44.789Z</time></trkpt><trkpt lat="42.956015" lon="11.3612217"><ele>92.33333333333334</ele><time>2026-05-02T15:04:45.789Z</time></trkpt><trkpt lat="42.95601" lon="11.360975"><ele>92.0</ele><time>2026-05-02T15:04:46.789Z</time></trkpt><trkpt lat="42.95601" lon="11.360735"><ele>91.33333333333334</ele><time>2026-05-02T15:04:47.79Z</time></trkpt><trkpt lat="42.956005" lon="11.3605067"><ele>90.66666666666667</ele><time>2026-05-02T15:04:48.79Z</time></trkpt><trkpt lat="42.9559983" lon="11.3602933"><ele>90.0</ele><time>2026-05-02T15:04:49.79Z</time></trkpt><trkpt lat="42.9559933" lon="11.3600817"><ele>90.0</ele><time>2026-05-02T15:04:50.787Z</time></trkpt><trkpt lat="42.9559917" lon="11.3598617"><ele>90.0</ele><time>2026-05-02T15:04:51.786Z</time></trkpt><trkpt lat="42.9559883" lon="11.3596433"><ele>90.0</ele><time>2026-05-02T15:04:52.787Z</time></trkpt><trkpt lat="42.9559817" lon="11.3594167"><ele>90.33333333333333</ele><time>2026-05-02T15:04:53.789Z</time></trkpt><trkpt lat="42.9559633" lon="11.359185"><ele>90.66666666666666</ele><time>2026-05-02T15:04:54.789Z</time></trkpt><trkpt lat="42.955925" lon="11.3589483"><ele>91.0</ele><time>2026-05-02T15:04:55.789Z</time></trkpt><trkpt lat="42.9558667" lon="11.3587167"><ele>89.66666666666666</ele><time>2026-05-02T15:04:56.789Z</time></trkpt><trkpt lat="42.9557917" lon="11.3584867"><ele>88.33333333333333</ele><time>2026-05-02T15:04:57.789Z</time></trkpt><trkpt lat="42.9557117" lon="11.3582617"><ele>87.0</ele><time>2026-05-02T15:04:58.787Z</time></trkpt><trkpt lat="42.9556283" lon="11.358035"><ele>87.0</ele><time>2026-05-02T15:04:59.789Z</time></trkpt><trkpt lat="42.955545" lon="11.357805"><ele>87.0</ele><time>2026-05-02T15:05:00.79Z</time></trkpt><trkpt lat="42.955465" lon="11.3575733"><ele>87.0</ele><time>2026-05-02T15:05:01.79Z</time></trkpt><trkpt lat="42.955385" lon="11.3573383"><ele>87.33333333333333</ele><time>2026-05-02T15:05:02.789Z</time></trkpt><trkpt lat="42.9553" lon="11.3571033"><ele>87.66666666666666</ele><time>2026-05-02T15:05:03.789Z</time></trkpt><trkpt lat="42.9552167" lon="11.356875"><ele>88.0</ele><time>2026-05-02T15:05:04.79Z</time></trkpt><trkpt lat="42.9551317" lon="11.356645"><ele>88.0</ele><time>2026-05-02T15:05:05.789Z</time></trkpt><trkpt lat="42.955045" lon="11.3564133"><ele>88.0</ele><time>2026-05-02T15:05:06.789Z</time></trkpt><trkpt lat="42.9549617" lon="11.3561817"><ele>88.0</ele><time>2026-05-02T15:05:07.789Z</time></trkpt><trkpt lat="42.95488" lon="11.3559467"><ele>85.33333333333333</ele><time>2026-05-02T15:05:08.789Z</time></trkpt><trkpt lat="42.9547983" lon="11.3557117"><ele>82.66666666666667</ele><time>2026-05-02T15:05:09.789Z</time></trkpt><trkpt lat="42.95472" lon="11.35548"><ele>80.0</ele><time>2026-05-02T15:05:10.789Z</time></trkpt><trkpt lat="42.9546383" lon="11.3552533"><ele>80.0</ele><time>2026-05-02T15:05:11.79Z</time></trkpt><trkpt lat="42.9545567" lon="11.35503"><ele>80.0</ele><time>2026-05-02T15:05:12.789Z</time></trkpt><trkpt lat="42.9544767" lon="11.3548067"><ele>80.0</ele><time>2026-05-02T15:05:13.789Z</time></trkpt><trkpt lat="42.954395" lon="11.354585"><ele>81.0</ele><time>2026-05-02T15:05:14.791Z</time></trkpt><trkpt lat="42.9543183" lon="11.3543633"><ele>82.0</ele><time>2026-05-02T15:05:15.79Z</time></trkpt><trkpt lat="42.9542417" lon="11.3541467"><ele>83.0</ele><time>2026-05-02T15:05:16.79Z</time></trkpt><trkpt lat="42.9541683" lon="11.353935"><ele>80.33333333333334</ele><time>2026-05-02T15:05:17.79Z</time></trkpt><trkpt lat="42.9541017" lon="11.3537267"><ele>77.66666666666667</ele><time>2026-05-02T15:05:18.789Z</time></trkpt><trkpt lat="42.9540467" lon="11.35352"><ele>75.0</ele><time>2026-05-02T15:05:19.79Z</time></trkpt><trkpt lat="42.9540033" lon="11.353305"><ele>75.0</ele><time>2026-05-02T15:05:20.788Z</time></trkpt><trkpt lat="42.953965" lon="11.35309"><ele>75.0</ele><time>2026-05-02T15:05:21.789Z</time></trkpt><trkpt lat="42.9539383" lon="11.3528633"><ele>75.0</ele><time>2026-05-02T15:05:22.788Z</time></trkpt><trkpt lat="42.9539217" lon="11.3526317"><ele>73.66666666666667</ele><time>2026-05-02T15:05:23.788Z</time></trkpt><trkpt lat="42.9539067" lon="11.3523967"><ele>72.33333333333334</ele><time>2026-05-02T15:05:24.787Z</time></trkpt><trkpt lat="42.9538917" lon="11.35216"><ele>71.0</ele><time>2026-05-02T15:05:25.79Z</time></trkpt><trkpt lat="42.953875" lon="11.3519233"><ele>70.0</ele><time>2026-05-02T15:05:26.79Z</time></trkpt><trkpt lat="42.95386" lon="11.351685"><ele>69.0</ele><time>2026-05-02T15:05:27.789Z</time></trkpt><trkpt lat="42.9538467" lon="11.3514433"><ele>68.0</ele><time>2026-05-02T15:05:28.787Z</time></trkpt><trkpt lat="42.9538317" lon="11.3512083"><ele>67.33333333333334</ele><time>2026-05-02T15:05:29.79Z</time></trkpt><trkpt lat="42.9538183" lon="11.3509733"><ele>66.66666666666667</ele><time>2026-05-02T15:05:30.788Z</time></trkpt><trkpt lat="42.953805" lon="11.35074"><ele>66.0</ele><time>2026-05-02T15:05:31.788Z</time></trkpt><trkpt lat="42.95379" lon="11.3505117"><ele>65.33333333333333</ele><time>2026-05-02T15:05:32.879Z</time></trkpt><trkpt lat="42.953775" lon="11.3502917"><ele>64.66666666666666</ele><time>2026-05-02T15:05:33.784Z</time></trkpt><trkpt lat="42.9537633" lon="11.35008"><ele>64.0</ele><time>2026-05-02T15:05:34.789Z</time></trkpt><trkpt lat="42.9537483" lon="11.3498733"><ele>64.33333333333333</ele><time>2026-05-02T15:05:35.789Z</time></trkpt><trkpt lat="42.953735" lon="11.3496617"><ele>64.66666666666667</ele><time>2026-05-02T15:05:36.788Z</time></trkpt><trkpt lat="42.9537183" lon="11.3494467"><ele>65.0</ele><time>2026-05-02T15:05:37.788Z</time></trkpt><trkpt lat="42.9537033" lon="11.34923"><ele>65.0</ele><time>2026-05-02T15:05:38.789Z</time></trkpt><trkpt lat="42.9536883" lon="11.3490067"><ele>65.0</ele><time>2026-05-02T15:05:39.789Z</time></trkpt><trkpt lat="42.9536733" lon="11.3487833"><ele>65.0</ele><time>2026-05-02T15:05:40.788Z</time></trkpt><trkpt lat="42.9536583" lon="11.3485533"><ele>65.66666666666667</ele><time>2026-05-02T15:05:41.788Z</time></trkpt><trkpt lat="42.953645" lon="11.3483233"><ele>66.33333333333333</ele><time>2026-05-02T15:05:42.788Z</time></trkpt><trkpt lat="42.9536317" lon="11.3480883"><ele>67.0</ele><time>2026-05-02T15:05:43.788Z</time></trkpt><trkpt lat="42.9536167" lon="11.3478633"><ele>67.33333333333333</ele><time>2026-05-02T15:05:44.788Z</time></trkpt><trkpt lat="42.9536" lon="11.347635"><ele>67.66666666666667</ele><time>2026-05-02T15:05:45.788Z</time></trkpt><trkpt lat="42.9535867" lon="11.34741"><ele>68.0</ele><time>2026-05-02T15:05:46.789Z</time></trkpt><trkpt lat="42.95357" lon="11.34718"><ele>67.33333333333334</ele><time>2026-05-02T15:05:47.788Z</time></trkpt><trkpt lat="42.9535533" lon="11.3469467"><ele>66.66666666666667</ele><time>2026-05-02T15:05:48.789Z</time></trkpt><trkpt lat="42.95354" lon="11.3467117"><ele>66.0</ele><time>2026-05-02T15:05:49.788Z</time></trkpt><trkpt lat="42.9535283" lon="11.346475"><ele>66.0</ele><time>2026-05-02T15:05:50.789Z</time></trkpt><trkpt lat="42.953515" lon="11.3462367"><ele>66.0</ele><time>2026-05-02T15:05:51.789Z</time></trkpt><trkpt lat="42.9535017" lon="11.3460033"><ele>66.0</ele><time>2026-05-02T15:05:52.788Z</time></trkpt><trkpt lat="42.9534883" lon="11.3457683"><ele>66.66666666666667</ele><time>2026-05-02T15:05:53.786Z</time></trkpt><trkpt lat="42.9534733" lon="11.3455367"><ele>67.33333333333334</ele><time>2026-05-02T15:05:54.79Z</time></trkpt><trkpt lat="42.9534567" lon="11.3453017"><ele>68.0</ele><time>2026-05-02T15:05:55.789Z</time></trkpt><trkpt lat="42.9534417" lon="11.3450717"><ele>68.0</ele><time>2026-05-02T15:05:56.789Z</time></trkpt><trkpt lat="42.953425" lon="11.3448383"><ele>68.0</ele><time>2026-05-02T15:05:57.792Z</time></trkpt><trkpt lat="42.9534083" lon="11.3446067"><ele>68.0</ele><time>2026-05-02T15:05:58.789Z</time></trkpt><trkpt lat="42.95339" lon="11.3443733"><ele>67.66666666666667</ele><time>2026-05-02T15:05:59.787Z</time></trkpt><trkpt lat="42.9533717" lon="11.34415"><ele>67.33333333333333</ele><time>2026-05-02T15:06:00.788Z</time></trkpt><trkpt lat="42.9533583" lon="11.3439183"><ele>67.0</ele><time>2026-05-02T15:06:01.788Z</time></trkpt><trkpt lat="42.9533433" lon="11.3436867"><ele>66.66666666666666</ele><time>2026-05-02T15:06:02.788Z</time></trkpt><trkpt lat="42.9533317" lon="11.343455"><ele>66.33333333333333</ele><time>2026-05-02T15:06:03.79Z</time></trkpt><trkpt lat="42.9533183" lon="11.343225"><ele>66.0</ele><time>2026-05-02T15:06:04.788Z</time></trkpt><trkpt lat="42.9533033" lon="11.34299"><ele>65.66666666666667</ele><time>2026-05-02T15:06:05.788Z</time></trkpt><trkpt lat="42.95329" lon="11.3427567"><ele>65.33333333333334</ele><time>2026-05-02T15:06:06.788Z</time></trkpt><trkpt lat="42.953275" lon="11.34252"><ele>65.0</ele><time>2026-05-02T15:06:07.788Z</time></trkpt><trkpt lat="42.9532567" lon="11.3422783"><ele>65.33333333333334</ele><time>2026-05-02T15:06:08.79Z</time></trkpt><trkpt lat="42.95324" lon="11.3420333"><ele>65.66666666666667</ele><time>2026-05-02T15:06:09.788Z</time></trkpt><trkpt lat="42.9532233" lon="11.34179"><ele>66.0</ele><time>2026-05-02T15:06:10.789Z</time></trkpt><trkpt lat="42.9532083" lon="11.3415467"><ele>66.33333333333333</ele><time>2026-05-02T15:06:11.789Z</time></trkpt><trkpt lat="42.9531933" lon="11.3413067"><ele>66.66666666666666</ele><time>2026-05-02T15:06:12.789Z</time></trkpt><trkpt lat="42.953175" lon="11.3410667"><ele>67.0</ele><time>2026-05-02T15:06:13.789Z</time></trkpt><trkpt lat="42.95316" lon="11.340825"><ele>67.0</ele><time>2026-05-02T15:06:14.789Z</time></trkpt><trkpt lat="42.9531467" lon="11.34058"><ele>67.0</ele><time>2026-05-02T15:06:15.79Z</time></trkpt><trkpt lat="42.9531333" lon="11.340335"><ele>67.0</ele><time>2026-05-02T15:06:16.789Z</time></trkpt><trkpt lat="42.9531183" lon="11.3400967"><ele>66.33333333333333</ele><time>2026-05-02T15:06:17.789Z</time></trkpt><trkpt lat="42.9531017" lon="11.3398617"><ele>65.66666666666667</ele><time>2026-05-02T15:06:18.788Z</time></trkpt><trkpt lat="42.953085" lon="11.3396233"><ele>65.0</ele><time>2026-05-02T15:06:19.788Z</time></trkpt><trkpt lat="42.9530683" lon="11.339385"><ele>65.0</ele><time>2026-05-02T15:06:20.789Z</time></trkpt><trkpt lat="42.9530533" lon="11.3391433"><ele>65.0</ele><time>2026-05-02T15:06:21.788Z</time></trkpt><trkpt lat="42.9530383" lon="11.3389"><ele>65.0</ele><time>2026-05-02T15:06:22.788Z</time></trkpt><trkpt lat="42.9530233" lon="11.3386533"><ele>65.33333333333334</ele><time>2026-05-02T15:06:23.789Z</time></trkpt><trkpt lat="42.95301" lon="11.3384083"><ele>65.66666666666667</ele><time>2026-05-02T15:06:24.789Z</time></trkpt><trkpt lat="42.9529967" lon="11.3381617"><ele>66.0</ele><time>2026-05-02T15:06:25.789Z</time></trkpt><trkpt lat="42.9529817" lon="11.33791"><ele>66.0</ele><time>2026-05-02T15:06:26.785Z</time></trkpt><trkpt lat="42.952965" lon="11.337655"><ele>66.0</ele><time>2026-05-02T15:06:27.788Z</time></trkpt><trkpt lat="42.9529483" lon="11.337405"><ele>66.0</ele><time>2026-05-02T15:06:28.789Z</time></trkpt><trkpt lat="42.9529317" lon="11.337155"><ele>65.66666666666667</ele><time>2026-05-02T15:06:29.786Z</time></trkpt><trkpt lat="42.9529117" lon="11.3368983"><ele>65.33333333333334</ele><time>2026-05-02T15:06:30.789Z</time></trkpt><trkpt lat="42.9528933" lon="11.3366467"><ele>65.0</ele><time>2026-05-02T15:06:31.789Z</time></trkpt><trkpt lat="42.9528767" lon="11.3363983"><ele>64.66666666666667</ele><time>2026-05-02T15:06:32.788Z</time></trkpt><trkpt lat="42.9528617" lon="11.33615"><ele>64.33333333333333</ele><time>2026-05-02T15:06:33.789Z</time></trkpt><trkpt lat="42.9528483" lon="11.3358983"><ele>64.0</ele><time>2026-05-02T15:06:34.788Z</time></trkpt><trkpt lat="42.952835" lon="11.3356483"><ele>64.33333333333333</ele><time>2026-05-02T15:06:35.789Z</time></trkpt><trkpt lat="42.9528183" lon="11.3353933"><ele>64.66666666666667</ele><time>2026-05-02T15:06:36.788Z</time></trkpt><trkpt lat="42.9528033" lon="11.335135"><ele>65.0</ele><time>2026-05-02T15:06:37.788Z</time></trkpt><trkpt lat="42.9527867" lon="11.334875"><ele>65.33333333333334</ele><time>2026-05-02T15:06:38.789Z</time></trkpt><trkpt lat="42.95277" lon="11.3346133"><ele>65.66666666666667</ele><time>2026-05-02T15:06:39.789Z</time></trkpt><trkpt lat="42.952755" lon="11.334355"><ele>66.0</ele><time>2026-05-02T15:06:40.788Z</time></trkpt><trkpt lat="42.9527383" lon="11.3340967"><ele>66.0</ele><time>2026-05-02T15:06:41.789Z</time></trkpt><trkpt lat="42.95272" lon="11.3338333"><ele>66.0</ele><time>2026-05-02T15:06:42.79Z</time></trkpt><trkpt lat="42.952705" lon="11.333575"><ele>66.0</ele><time>2026-05-02T15:06:43.789Z</time></trkpt><trkpt lat="42.9526883" lon="11.3333167"><ele>66.0</ele><time>2026-05-02T15:06:44.788Z</time></trkpt><trkpt lat="42.95267" lon="11.33306"><ele>66.0</ele><time>2026-05-02T15:06:45.789Z</time></trkpt><trkpt lat="42.952655" lon="11.3328083"><ele>66.0</ele><time>2026-05-02T15:06:46.788Z</time></trkpt><trkpt lat="42.95264" lon="11.332555"><ele>66.0</ele><time>2026-05-02T15:06:47.789Z</time></trkpt><trkpt lat="42.952625" lon="11.3323033"><ele>66.0</ele><time>2026-05-02T15:06:48.789Z</time></trkpt><trkpt lat="42.95261" lon="11.3320517"><ele>66.0</ele><time>2026-05-02T15:06:49.788Z</time></trkpt><trkpt lat="42.9525917" lon="11.3318067"><ele>66.33333333333333</ele><time>2026-05-02T15:06:50.789Z</time></trkpt><trkpt lat="42.952575" lon="11.3315567"><ele>66.66666666666666</ele><time>2026-05-02T15:06:51.789Z</time></trkpt><trkpt lat="42.9525583" lon="11.3313083"><ele>67.0</ele><time>2026-05-02T15:06:52.789Z</time></trkpt><trkpt lat="42.9525433" lon="11.3310617"><ele>68.0</ele><time>2026-05-02T15:06:53.789Z</time></trkpt><trkpt lat="42.9525283" lon="11.3308117"><ele>69.0</ele><time>2026-05-02T15:06:54.788Z</time></trkpt><trkpt lat="42.9525133" lon="11.3305633"><ele>70.0</ele><time>2026-05-02T15:06:55.788Z</time></trkpt><trkpt lat="42.9524967" lon="11.3303133"><ele>70.33333333333333</ele><time>2026-05-02T15:06:56.789Z</time></trkpt><trkpt lat="42.95248" lon="11.330065"><ele>70.66666666666667</ele><time>2026-05-02T15:06:57.788Z</time></trkpt><trkpt lat="42.952465" lon="11.3298183"><ele>71.0</ele><time>2026-05-02T15:06:58.79Z</time></trkpt><trkpt lat="42.9524483" lon="11.32957"><ele>71.66666666666667</ele><time>2026-05-02T15:06:59.791Z</time></trkpt><trkpt lat="42.9524317" lon="11.32932"><ele>72.33333333333333</ele><time>2026-05-02T15:07:00.788Z</time></trkpt><trkpt lat="42.9524167" lon="11.3290717"><ele>73.0</ele><time>2026-05-02T15:07:01.789Z</time></trkpt><trkpt lat="42.9524017" lon="11.3288283"><ele>73.66666666666666</ele><time>2026-05-02T15:07:02.789Z</time></trkpt><trkpt lat="42.952385" lon="11.3285817"><ele>74.33333333333333</ele><time>2026-05-02T15:07:03.789Z</time></trkpt><trkpt lat="42.9523683" lon="11.328335"><ele>75.0</ele><time>2026-05-02T15:07:04.788Z</time></trkpt><trkpt lat="42.9523533" lon="11.3280817"><ele>75.66666666666667</ele><time>2026-05-02T15:07:05.79Z</time></trkpt><trkpt lat="42.9523383" lon="11.3278333"><ele>76.33333333333334</ele><time>2026-05-02T15:07:06.789Z</time></trkpt><trkpt lat="42.9523233" lon="11.3275733"><ele>77.0</ele><time>2026-05-02T15:07:07.785Z</time></trkpt><trkpt lat="42.9523083" lon="11.32732"><ele>77.66666666666667</ele><time>2026-05-02T15:07:08.789Z</time></trkpt><trkpt lat="42.9522867" lon="11.3270683"><ele>78.33333333333333</ele><time>2026-05-02T15:07:09.789Z</time></trkpt><trkpt lat="42.9522633" lon="11.3268167"><ele>79.0</ele><time>2026-05-02T15:07:10.789Z</time></trkpt><trkpt lat="42.9522317" lon="11.3265667"><ele>79.0</ele><time>2026-05-02T15:07:11.789Z</time></trkpt><trkpt lat="42.9521867" lon="11.32632"><ele>79.0</ele><time>2026-05-02T15:07:12.789Z</time></trkpt><trkpt lat="42.95213" lon="11.3260767"><ele>79.0</ele><time>2026-05-02T15:07:13.789Z</time></trkpt><trkpt lat="42.9520633" lon="11.32584"><ele>79.0</ele><time>2026-05-02T15:07:14.79Z</time></trkpt><trkpt lat="42.9519883" lon="11.3256033"><ele>79.0</ele><time>2026-05-02T15:07:15.789Z</time></trkpt><trkpt lat="42.95191" lon="11.3253733"><ele>79.0</ele><time>2026-05-02T15:07:16.789Z</time></trkpt><trkpt lat="42.9518333" lon="11.3251467"><ele>79.0</ele><time>2026-05-02T15:07:17.79Z</time></trkpt><trkpt lat="42.95176" lon="11.32492"><ele>79.0</ele><time>2026-05-02T15:07:18.789Z</time></trkpt><trkpt lat="42.9516867" lon="11.32469"><ele>79.0</ele><time>2026-05-02T15:07:19.788Z</time></trkpt><trkpt lat="42.9516117" lon="11.32446"><ele>79.0</ele><time>2026-05-02T15:07:20.789Z</time></trkpt><trkpt lat="42.951535" lon="11.3242333"><ele>79.0</ele><time>2026-05-02T15:07:21.789Z</time></trkpt><trkpt lat="42.9514567" lon="11.3240083"><ele>79.0</ele><time>2026-05-02T15:07:22.79Z</time></trkpt><trkpt lat="42.95138" lon="11.3237833"><ele>79.66666666666666</ele><time>2026-05-02T15:07:23.789Z</time></trkpt><trkpt lat="42.9513033" lon="11.3235583"><ele>80.33333333333333</ele><time>2026-05-02T15:07:24.789Z</time></trkpt><trkpt lat="42.95123" lon="11.3233367"><ele>81.0</ele><time>2026-05-02T15:07:25.789Z</time></trkpt><trkpt lat="42.9511567" lon="11.3231083"><ele>81.33333333333333</ele><time>2026-05-02T15:07:26.789Z</time></trkpt><trkpt lat="42.9510817" lon="11.32288"><ele>81.66666666666666</ele><time>2026-05-02T15:07:27.789Z</time></trkpt><trkpt lat="42.9510083" lon="11.322655"><ele>82.0</ele><time>2026-05-02T15:07:28.789Z</time></trkpt><trkpt lat="42.9509333" lon="11.3224317"><ele>81.66666666666666</ele><time>2026-05-02T15:07:29.789Z</time></trkpt><trkpt lat="42.9508567" lon="11.322215"><ele>81.33333333333333</ele><time>2026-05-02T15:07:30.789Z</time></trkpt><trkpt lat="42.9507833" lon="11.321995"><ele>81.0</ele><time>2026-05-02T15:07:31.79Z</time></trkpt><trkpt lat="42.9507083" lon="11.3217767"><ele>81.0</ele><time>2026-05-02T15:07:32.789Z</time></trkpt><trkpt lat="42.9506367" lon="11.32156"><ele>81.0</ele><time>2026-05-02T15:07:33.789Z</time></trkpt><trkpt lat="42.9505683" lon="11.3213433"><ele>81.0</ele><time>2026-05-02T15:07:34.786Z</time></trkpt><trkpt lat="42.950495" lon="11.3211233"><ele>81.0</ele><time>2026-05-02T15:07:35.786Z</time></trkpt><trkpt lat="42.9504217" lon="11.3209033"><ele>81.0</ele><time>2026-05-02T15:07:36.789Z</time></trkpt><trkpt lat="42.95035" lon="11.3206817"><ele>81.0</ele><time>2026-05-02T15:07:37.786Z</time></trkpt><trkpt lat="42.9502783" lon="11.320455"><ele>81.66666666666667</ele><time>2026-05-02T15:07:38.788Z</time></trkpt><trkpt lat="42.9502033" lon="11.320225"><ele>82.33333333333334</ele><time>2026-05-02T15:07:39.786Z</time></trkpt><trkpt lat="42.9501283" lon="11.3200017"><ele>83.0</ele><time>2026-05-02T15:07:40.787Z</time></trkpt><trkpt lat="42.9500583" lon="11.3197933"><ele>83.0</ele><time>2026-05-02T15:07:41.787Z</time></trkpt><trkpt lat="42.9499933" lon="11.3195967"><ele>83.0</ele><time>2026-05-02T15:07:42.785Z</time></trkpt><trkpt lat="42.9499317" lon="11.319415"><ele>83.0</ele><time>2026-05-02T15:07:43.787Z</time></trkpt><trkpt lat="42.9498717" lon="11.3192333"><ele>83.0</ele><time>2026-05-02T15:07:44.788Z</time></trkpt><trkpt lat="42.9498083" lon="11.3190433"><ele>83.0</ele><time>2026-05-02T15:07:45.787Z</time></trkpt><trkpt lat="42.9497383" lon="11.3188433"><ele>83.0</ele><time>2026-05-02T15:07:46.788Z</time></trkpt><trkpt lat="42.9496617" lon="11.3186333"><ele>84.0</ele><time>2026-05-02T15:07:47.788Z</time></trkpt><trkpt lat="42.949575" lon="11.3184133"><ele>85.0</ele><time>2026-05-02T15:07:48.786Z</time></trkpt><trkpt lat="42.9494733" lon="11.318175"><ele>86.0</ele><time>2026-05-02T15:07:49.785Z</time></trkpt><trkpt lat="42.9493517" lon="11.31794"><ele>85.0</ele><time>2026-05-02T15:07:50.786Z</time></trkpt><trkpt lat="42.949215" lon="11.3177233"><ele>84.0</ele><time>2026-05-02T15:07:51.786Z</time></trkpt><trkpt lat="42.9490633" lon="11.31752"><ele>83.0</ele><time>2026-05-02T15:07:52.786Z</time></trkpt><trkpt lat="42.9489133" lon="11.31732"><ele>83.33333333333334</ele><time>2026-05-02T15:07:53.787Z</time></trkpt><trkpt lat="42.948765" lon="11.3171267"><ele>83.66666666666667</ele><time>2026-05-02T15:07:54.789Z</time></trkpt><trkpt lat="42.9486167" lon="11.3169367"><ele>84.0</ele><time>2026-05-02T15:07:55.79Z</time></trkpt><trkpt lat="42.9484733" lon="11.31675"><ele>84.66666666666667</ele><time>2026-05-02T15:07:56.787Z</time></trkpt><trkpt lat="42.948335" lon="11.316565"><ele>85.33333333333334</ele><time>2026-05-02T15:07:57.786Z</time></trkpt><trkpt lat="42.9482017" lon="11.3163817"><ele>86.0</ele><time>2026-05-02T15:07:58.786Z</time></trkpt><trkpt lat="42.948075" lon="11.3161933"><ele>86.66666666666667</ele><time>2026-05-02T15:07:59.786Z</time></trkpt><trkpt lat="42.9479533" lon="11.3159933"><ele>87.33333333333333</ele><time>2026-05-02T15:08:00.787Z</time></trkpt><trkpt lat="42.94784" lon="11.3157833"><ele>88.0</ele><time>2026-05-02T15:08:01.787Z</time></trkpt><trkpt lat="42.9477383" lon="11.3155567"><ele>88.0</ele><time>2026-05-02T15:08:02.788Z</time></trkpt><trkpt lat="42.9476483" lon="11.315305"><ele>88.0</ele><time>2026-05-02T15:08:03.789Z</time></trkpt><trkpt lat="42.9475717" lon="11.31504"><ele>88.0</ele><time>2026-05-02T15:08:04.789Z</time></trkpt><trkpt lat="42.94751" lon="11.3147567"><ele>88.66666666666666</ele><time>2026-05-02T15:08:05.789Z</time></trkpt><trkpt lat="42.9474567" lon="11.314475"><ele>89.33333333333333</ele><time>2026-05-02T15:08:06.79Z</time></trkpt><trkpt lat="42.9474133" lon="11.3141783"><ele>90.0</ele><time>2026-05-02T15:08:07.789Z</time></trkpt><trkpt lat="42.9473733" lon="11.3138933"><ele>90.0</ele><time>2026-05-02T15:08:08.789Z</time></trkpt><trkpt lat="42.9473333" lon="11.3136017"><ele>90.0</ele><time>2026-05-02T15:08:09.786Z</time></trkpt><trkpt lat="42.9472967" lon="11.3133117"><ele>90.0</ele><time>2026-05-02T15:08:10.786Z</time></trkpt><trkpt lat="42.94726" lon="11.3130217"><ele>89.33333333333333</ele><time>2026-05-02T15:08:11.787Z</time></trkpt><trkpt lat="42.9472233" lon="11.3127333"><ele>88.66666666666666</ele><time>2026-05-02T15:08:12.789Z</time></trkpt><trkpt lat="42.947175" lon="11.3124533"><ele>88.0</ele><time>2026-05-02T15:08:13.789Z</time></trkpt><trkpt lat="42.94711" lon="11.3121817"><ele>88.0</ele><time>2026-05-02T15:08:14.789Z</time></trkpt><trkpt lat="42.947025" lon="11.3119133"><ele>88.0</ele><time>2026-05-02T15:08:15.786Z</time></trkpt><trkpt lat="42.94692" lon="11.3116483"><ele>88.0</ele><time>2026-05-02T15:08:16.786Z</time></trkpt><trkpt lat="42.9467967" lon="11.311395"><ele>93.0</ele><time>2026-05-02T15:08:17.786Z</time></trkpt><trkpt lat="42.9466517" lon="11.3111533"><ele>98.0</ele><time>2026-05-02T15:08:18.786Z</time></trkpt><trkpt lat="42.9464917" lon="11.3109233"><ele>98.0</ele><time>2026-05-02T15:08:19.791Z</time></trkpt><trkpt lat="42.9463283" lon="11.310705"><ele>98.0</ele><time>2026-05-02T15:08:20.79Z</time></trkpt><trkpt lat="42.9461783" lon="11.310495"><ele>98.0</ele><time>2026-05-02T15:08:21.789Z</time></trkpt><trkpt lat="42.9460367" lon="11.3102917"><ele>98.33333333333333</ele><time>2026-05-02T15:08:22.789Z</time></trkpt><trkpt lat="42.9459" lon="11.3100883"><ele>98.66666666666666</ele><time>2026-05-02T15:08:23.789Z</time></trkpt><trkpt lat="42.9457717" lon="11.309885"><ele>99.0</ele><time>2026-05-02T15:08:24.789Z</time></trkpt><trkpt lat="42.94565" lon="11.3096783"><ele>99.33333333333334</ele><time>2026-05-02T15:08:25.789Z</time></trkpt><trkpt lat="42.945535" lon="11.309465"><ele>99.66666666666667</ele><time>2026-05-02T15:08:26.786Z</time></trkpt><trkpt lat="42.9454317" lon="11.30924"><ele>100.0</ele><time>2026-05-02T15:08:27.786Z</time></trkpt><trkpt lat="42.94534" lon="11.3089983"><ele>99.33333333333334</ele><time>2026-05-02T15:08:28.786Z</time></trkpt><trkpt lat="42.9452567" lon="11.308745"><ele>98.66666666666666</ele><time>2026-05-02T15:08:29.787Z</time></trkpt><trkpt lat="42.9451817" lon="11.3084783"><ele>98.0</ele><time>2026-05-02T15:08:30.788Z</time></trkpt><trkpt lat="42.9451167" lon="11.308205"><ele>97.0</ele><time>2026-05-02T15:08:31.789Z</time></trkpt><trkpt lat="42.945065" lon="11.307925"><ele>96.0</ele><time>2026-05-02T15:08:32.789Z</time></trkpt><trkpt lat="42.9450267" lon="11.3076417"><ele>95.0</ele><time>2026-05-02T15:08:33.788Z</time></trkpt><trkpt lat="42.945" lon="11.307355"><ele>94.66666666666667</ele><time>2026-05-02T15:08:34.788Z</time></trkpt><trkpt lat="42.9449783" lon="11.3070633"><ele>94.33333333333333</ele><time>2026-05-02T15:08:35.788Z</time></trkpt><trkpt lat="42.9449567" lon="11.3067733"><ele>94.0</ele><time>2026-05-02T15:08:36.788Z</time></trkpt><trkpt lat="42.9449333" lon="11.3064767"><ele>93.33333333333333</ele><time>2026-05-02T15:08:37.79Z</time></trkpt><trkpt lat="42.9449117" lon="11.3061783"><ele>92.66666666666667</ele><time>2026-05-02T15:08:38.79Z</time></trkpt><trkpt lat="42.94489" lon="11.3058783"><ele>92.0</ele><time>2026-05-02T15:08:39.789Z</time></trkpt><trkpt lat="42.9448683" lon="11.3055883"><ele>91.66666666666667</ele><time>2026-05-02T15:08:40.789Z</time></trkpt><trkpt lat="42.9448483" lon="11.3052983"><ele>91.33333333333333</ele><time>2026-05-02T15:08:41.79Z</time></trkpt><trkpt lat="42.9448317" lon="11.3050067"><ele>91.0</ele><time>2026-05-02T15:08:42.789Z</time></trkpt><trkpt lat="42.9448117" lon="11.30472"><ele>90.0</ele><time>2026-05-02T15:08:43.786Z</time></trkpt><trkpt lat="42.9447883" lon="11.3044383"><ele>89.0</ele><time>2026-05-02T15:08:44.786Z</time></trkpt><trkpt lat="42.944765" lon="11.3041517"><ele>88.0</ele><time>2026-05-02T15:08:45.787Z</time></trkpt><trkpt lat="42.94474" lon="11.3038667"><ele>87.66666666666666</ele><time>2026-05-02T15:08:46.788Z</time></trkpt><trkpt lat="42.944715" lon="11.3035783"><ele>87.33333333333333</ele><time>2026-05-02T15:08:47.787Z</time></trkpt><trkpt lat="42.94469" lon="11.3033"><ele>87.0</ele><time>2026-05-02T15:08:48.788Z</time></trkpt><trkpt lat="42.9446667" lon="11.3030217"><ele>86.33333333333333</ele><time>2026-05-02T15:08:49.788Z</time></trkpt><trkpt lat="42.9446383" lon="11.3027433"><ele>85.66666666666666</ele><time>2026-05-02T15:08:50.785Z</time></trkpt><trkpt lat="42.9446033" lon="11.3024617"><ele>85.0</ele><time>2026-05-02T15:08:51.789Z</time></trkpt><trkpt lat="42.9445683" lon="11.302175"><ele>84.33333333333333</ele><time>2026-05-02T15:08:52.786Z</time></trkpt><trkpt lat="42.9445333" lon="11.3018917"><ele>83.66666666666667</ele><time>2026-05-02T15:08:53.787Z</time></trkpt><trkpt lat="42.9445" lon="11.3016067"><ele>83.0</ele><time>2026-05-02T15:08:54.786Z</time></trkpt><trkpt lat="42.9444667" lon="11.301315"><ele>82.66666666666667</ele><time>2026-05-02T15:08:55.786Z</time></trkpt><trkpt lat="42.944435" lon="11.3010267"><ele>82.33333333333333</ele><time>2026-05-02T15:08:56.787Z</time></trkpt><trkpt lat="42.9444033" lon="11.3007367"><ele>82.0</ele><time>2026-05-02T15:08:57.788Z</time></trkpt><trkpt lat="42.944375" lon="11.30045"><ele>81.0</ele><time>2026-05-02T15:08:58.787Z</time></trkpt><trkpt lat="42.94435" lon="11.3001667"><ele>80.0</ele><time>2026-05-02T15:08:59.788Z</time></trkpt><trkpt lat="42.9443233" lon="11.2999033"><ele>79.0</ele><time>2026-05-02T15:09:00.786Z</time></trkpt><trkpt lat="42.9442917" lon="11.2996483"><ele>78.33333333333333</ele><time>2026-05-02T15:09:01.786Z</time></trkpt><trkpt lat="42.944255" lon="11.2993967"><ele>77.66666666666667</ele><time>2026-05-02T15:09:02.788Z</time></trkpt><trkpt lat="42.9442067" lon="11.2991417"><ele>77.0</ele><time>2026-05-02T15:09:03.789Z</time></trkpt><trkpt lat="42.94414" lon="11.29889"><ele>76.33333333333334</ele><time>2026-05-02T15:09:04.787Z</time></trkpt><trkpt lat="42.9440467" lon="11.2986467"><ele>75.66666666666667</ele><time>2026-05-02T15:09:05.789Z</time></trkpt><trkpt lat="42.9439317" lon="11.2984167"><ele>75.0</ele><time>2026-05-02T15:09:06.787Z</time></trkpt><trkpt lat="42.9437933" lon="11.2981967"><ele>74.66666666666667</ele><time>2026-05-02T15:09:07.789Z</time></trkpt><trkpt lat="42.943635" lon="11.297995"><ele>74.33333333333334</ele><time>2026-05-02T15:09:08.785Z</time></trkpt><trkpt lat="42.9434717" lon="11.2977967"><ele>74.0</ele><time>2026-05-02T15:09:09.787Z</time></trkpt><trkpt lat="42.9433067" lon="11.2976017"><ele>73.0</ele><time>2026-05-02T15:09:10.786Z</time></trkpt><trkpt lat="42.9431533" lon="11.297405"><ele>72.0</ele><time>2026-05-02T15:09:11.787Z</time></trkpt><trkpt lat="42.943015" lon="11.2972133"><ele>71.0</ele><time>2026-05-02T15:09:12.787Z</time></trkpt><trkpt lat="42.94289" lon="11.29701"><ele>71.0</ele><time>2026-05-02T15:09:13.787Z</time></trkpt><trkpt lat="42.9427917" lon="11.296785"><ele>71.0</ele><time>2026-05-02T15:09:14.788Z</time></trkpt><trkpt lat="42.9427183" lon="11.29654"><ele>71.0</ele><time>2026-05-02T15:09:15.789Z</time></trkpt><trkpt lat="42.9426683" lon="11.296285"><ele>71.66666666666667</ele><time>2026-05-02T15:09:16.785Z</time></trkpt><trkpt lat="42.94264" lon="11.2960217"><ele>72.33333333333333</ele><time>2026-05-02T15:09:17.786Z</time></trkpt><trkpt lat="42.9426183" lon="11.295765"><ele>73.0</ele><time>2026-05-02T15:09:18.786Z</time></trkpt><trkpt lat="42.9426017" lon="11.295525"><ele>73.66666666666666</ele><time>2026-05-02T15:09:19.79Z</time></trkpt><trkpt lat="42.9425817" lon="11.2953017"><ele>74.33333333333333</ele><time>2026-05-02T15:09:20.789Z</time></trkpt><trkpt lat="42.94255" lon="11.2950867"><ele>75.0</ele><time>2026-05-02T15:09:21.788Z</time></trkpt><trkpt lat="42.9424917" lon="11.2948817"><ele>76.66666666666667</ele><time>2026-05-02T15:09:22.789Z</time></trkpt><trkpt lat="42.9424" lon="11.29469"><ele>78.33333333333334</ele><time>2026-05-02T15:09:23.789Z</time></trkpt><trkpt lat="42.9422867" lon="11.2945067"><ele>80.0</ele><time>2026-05-02T15:09:24.789Z</time></trkpt><trkpt lat="42.9421617" lon="11.2943217"><ele>80.0</ele><time>2026-05-02T15:09:25.785Z</time></trkpt><trkpt lat="42.9420367" lon="11.2941333"><ele>80.0</ele><time>2026-05-02T15:09:26.788Z</time></trkpt><trkpt lat="42.9419117" lon="11.293945"><ele>80.0</ele><time>2026-05-02T15:09:27.788Z</time></trkpt><trkpt lat="42.9417883" lon="11.293755"><ele>79.66666666666667</ele><time>2026-05-02T15:09:28.789Z</time></trkpt><trkpt lat="42.941665" lon="11.2935683"><ele>79.33333333333333</ele><time>2026-05-02T15:09:29.788Z</time></trkpt><trkpt lat="42.941545" lon="11.2933833"><ele>79.0</ele><time>2026-05-02T15:09:30.787Z</time></trkpt><trkpt lat="42.9414283" lon="11.293195"><ele>79.66666666666666</ele><time>2026-05-02T15:09:31.787Z</time></trkpt><trkpt lat="42.94131" lon="11.29301"><ele>80.33333333333333</ele><time>2026-05-02T15:09:32.788Z</time></trkpt><trkpt lat="42.9412" lon="11.29282"><ele>81.0</ele><time>2026-05-02T15:09:33.788Z</time></trkpt><trkpt lat="42.9411017" lon="11.2926183"><ele>81.0</ele><time>2026-05-02T15:09:34.789Z</time></trkpt><trkpt lat="42.9410217" lon="11.2924"><ele>81.0</ele><time>2026-05-02T15:09:35.788Z</time></trkpt><trkpt lat="42.94096" lon="11.2921617"><ele>81.0</ele><time>2026-05-02T15:09:36.789Z</time></trkpt><trkpt lat="42.9409167" lon="11.2919"><ele>80.33333333333333</ele><time>2026-05-02T15:09:37.786Z</time></trkpt><trkpt lat="42.9408833" lon="11.291625"><ele>79.66666666666666</ele><time>2026-05-02T15:09:38.786Z</time></trkpt><trkpt lat="42.9408583" lon="11.2913433"><ele>79.0</ele><time>2026-05-02T15:09:39.786Z</time></trkpt><trkpt lat="42.9408383" lon="11.29106"><ele>78.0</ele><time>2026-05-02T15:09:40.786Z</time></trkpt><trkpt lat="42.94082" lon="11.2907783"><ele>77.0</ele><time>2026-05-02T15:09:41.786Z</time></trkpt><trkpt lat="42.9408067" lon="11.2905017"><ele>76.0</ele><time>2026-05-02T15:09:42.791Z</time></trkpt><trkpt lat="42.9407933" lon="11.2902283"><ele>76.0</ele><time>2026-05-02T15:09:43.79Z</time></trkpt><trkpt lat="42.9407783" lon="11.2899533"><ele>76.0</ele><time>2026-05-02T15:09:44.788Z</time></trkpt><trkpt lat="42.940765" lon="11.2896733"><ele>76.0</ele><time>2026-05-02T15:09:45.788Z</time></trkpt><trkpt lat="42.9407433" lon="11.2894"><ele>75.33333333333333</ele><time>2026-05-02T15:09:46.788Z</time></trkpt><trkpt lat="42.940715" lon="11.289125"><ele>74.66666666666667</ele><time>2026-05-02T15:09:47.789Z</time></trkpt><trkpt lat="42.9406717" lon="11.28886"><ele>74.0</ele><time>2026-05-02T15:09:48.789Z</time></trkpt><trkpt lat="42.9406167" lon="11.2886083"><ele>74.0</ele><time>2026-05-02T15:09:49.788Z</time></trkpt><trkpt lat="42.9405483" lon="11.2883633"><ele>74.0</ele><time>2026-05-02T15:09:50.788Z</time></trkpt><trkpt lat="42.94047" lon="11.2881167"><ele>74.0</ele><time>2026-05-02T15:09:51.789Z</time></trkpt><trkpt lat="42.9403867" lon="11.2878783"><ele>74.0</ele><time>2026-05-02T15:09:52.789Z</time></trkpt><trkpt lat="42.9403" lon="11.2876483"><ele>74.0</ele><time>2026-05-02T15:09:53.79Z</time></trkpt><trkpt lat="42.940215" lon="11.287425"><ele>74.0</ele><time>2026-05-02T15:09:54.788Z</time></trkpt><trkpt lat="42.94013" lon="11.2872117"><ele>73.0</ele><time>2026-05-02T15:09:55.788Z</time></trkpt><trkpt lat="42.940045" lon="11.287"><ele>72.0</ele><time>2026-05-02T15:09:56.786Z</time></trkpt><trkpt lat="42.9399567" lon="11.286785"><ele>71.0</ele><time>2026-05-02T15:09:57.785Z</time></trkpt><trkpt lat="42.93987" lon="11.2865667"><ele>70.66666666666667</ele><time>2026-05-02T15:09:58.785Z</time></trkpt><trkpt lat="42.9397833" lon="11.2863433"><ele>70.33333333333333</ele><time>2026-05-02T15:09:59.786Z</time></trkpt><trkpt lat="42.9397" lon="11.2861183"><ele>70.0</ele><time>2026-05-02T15:10:00.787Z</time></trkpt><trkpt lat="42.9396183" lon="11.2858883"><ele>70.0</ele><time>2026-05-02T15:10:01.786Z</time></trkpt><trkpt lat="42.9395367" lon="11.28566"><ele>70.0</ele><time>2026-05-02T15:10:02.786Z</time></trkpt><trkpt lat="42.9394617" lon="11.2854383"><ele>70.0</ele><time>2026-05-02T15:10:03.785Z</time></trkpt><trkpt lat="42.939395" lon="11.2852233"><ele>70.0</ele><time>2026-05-02T15:10:04.786Z</time></trkpt><trkpt lat="42.9393367" lon="11.2850167"><ele>70.0</ele><time>2026-05-02T15:10:05.787Z</time></trkpt><trkpt lat="42.9392933" lon="11.2848083"><ele>70.0</ele><time>2026-05-02T15:10:06.79Z</time></trkpt><trkpt lat="42.9392617" lon="11.284605"><ele>70.0</ele><time>2026-05-02T15:10:07.786Z</time></trkpt><trkpt lat="42.93923" lon="11.284405"><ele>70.0</ele><time>2026-05-02T15:10:08.789Z</time></trkpt><trkpt lat="42.9391817" lon="11.2842117"><ele>70.0</ele><time>2026-05-02T15:10:09.785Z</time></trkpt><trkpt lat="42.9391167" lon="11.2840283"><ele>70.0</ele><time>2026-05-02T15:10:10.789Z</time></trkpt><trkpt lat="42.9390333" lon="11.2838567"><ele>70.75</ele><time>2026-05-02T15:10:11.789Z</time></trkpt><trkpt lat="42.9389483" lon="11.2836983"><ele>71.5</ele><time>2026-05-02T15:10:12.79Z</time></trkpt><trkpt lat="42.9388633" lon="11.2835533"><ele>72.25</ele><time>2026-05-02T15:10:13.789Z</time></trkpt><trkpt lat="42.93878" lon="11.2834183"><ele>73.0</ele><time>2026-05-02T15:10:14.789Z</time></trkpt><trkpt lat="42.938705" lon="11.28329"><ele>73.0</ele><time>2026-05-02T15:10:15.789Z</time></trkpt><trkpt lat="42.9386317" lon="11.2831683"><ele>73.0</ele><time>2026-05-02T15:10:16.789Z</time></trkpt><trkpt lat="42.9385533" lon="11.28304"><ele>73.0</ele><time>2026-05-02T15:10:17.789Z</time></trkpt><trkpt lat="42.9384717" lon="11.2829033"><ele>73.0</ele><time>2026-05-02T15:10:18.789Z</time></trkpt><trkpt lat="42.9383783" lon="11.2827633"><ele>73.0</ele><time>2026-05-02T15:10:19.789Z</time></trkpt><trkpt lat="42.938275" lon="11.2826217"><ele>73.0</ele><time>2026-05-02T15:10:20.786Z</time></trkpt><trkpt lat="42.9381733" lon="11.2824833"><ele>73.0</ele><time>2026-05-02T15:10:21.786Z</time></trkpt><trkpt lat="42.93806" lon="11.2823533"><ele>73.0</ele><time>2026-05-02T15:10:22.786Z</time></trkpt><trkpt lat="42.937945" lon="11.28221"><ele>73.0</ele><time>2026-05-02T15:10:23.789Z</time></trkpt><trkpt lat="42.9378317" lon="11.2820683"><ele>73.0</ele><time>2026-05-02T15:10:24.789Z</time></trkpt><trkpt lat="42.93772" lon="11.28193"><ele>73.0</ele><time>2026-05-02T15:10:25.789Z</time></trkpt><trkpt lat="42.9376117" lon="11.2817917"><ele>72.5</ele><time>2026-05-02T15:10:26.786Z</time></trkpt><trkpt lat="42.9375017" lon="11.2816567"><ele>72.0</ele><time>2026-05-02T15:10:27.787Z</time></trkpt><trkpt lat="42.9373967" lon="11.2815217"><ele>71.5</ele><time>2026-05-02T15:10:28.786Z</time></trkpt><trkpt lat="42.9372867" lon="11.2813833"><ele>71.0</ele><time>2026-05-02T15:10:29.785Z</time></trkpt><trkpt lat="42.9371767" lon="11.2812367"><ele>70.25</ele><time>2026-05-02T15:10:30.787Z</time></trkpt><trkpt lat="42.93708" lon="11.2810867"><ele>69.5</ele><time>2026-05-02T15:10:31.786Z</time></trkpt><trkpt lat="42.9369733" lon="11.2809317"><ele>68.75</ele><time>2026-05-02T15:10:32.786Z</time></trkpt><trkpt lat="42.9368783" lon="11.2807783"><ele>68.0</ele><time>2026-05-02T15:10:33.79Z</time></trkpt><trkpt lat="42.93679" lon="11.2806217"><ele>68.25</ele><time>2026-05-02T15:10:34.786Z</time></trkpt><trkpt lat="42.9367083" lon="11.2804583"><ele>68.5</ele><time>2026-05-02T15:10:35.786Z</time></trkpt><trkpt lat="42.9366517" lon="11.2802867"><ele>68.75</ele><time>2026-05-02T15:10:36.786Z</time></trkpt><trkpt lat="42.9365983" lon="11.280095"><ele>69.0</ele><time>2026-05-02T15:10:37.786Z</time></trkpt><trkpt lat="42.9365533" lon="11.2798867"><ele>66.66666666666667</ele><time>2026-05-02T15:10:38.786Z</time></trkpt><trkpt lat="42.936515" lon="11.27967"><ele>64.33333333333334</ele><time>2026-05-02T15:10:39.786Z</time></trkpt><trkpt lat="42.9364817" lon="11.2794517"><ele>62.0</ele><time>2026-05-02T15:10:40.789Z</time></trkpt><trkpt lat="42.936445" lon="11.2792333"><ele>62.0</ele><time>2026-05-02T15:10:41.787Z</time></trkpt><trkpt lat="42.9364067" lon="11.2790067"><ele>62.0</ele><time>2026-05-02T15:10:42.789Z</time></trkpt><trkpt lat="42.9363717" lon="11.2787917"><ele>62.0</ele><time>2026-05-02T15:10:43.788Z</time></trkpt><trkpt lat="42.9363433" lon="11.2785867"><ele>61.0</ele><time>2026-05-02T15:10:44.789Z</time></trkpt><trkpt lat="42.936315" lon="11.2783933"><ele>60.0</ele><time>2026-05-02T15:10:45.785Z</time></trkpt><trkpt lat="42.936285" lon="11.278205"><ele>59.0</ele><time>2026-05-02T15:10:46.79Z</time></trkpt><trkpt lat="42.936255" lon="11.2780217"><ele>58.0</ele><time>2026-05-02T15:10:47.786Z</time></trkpt><trkpt lat="42.936225" lon="11.277845"><ele>58.0</ele><time>2026-05-02T15:10:48.786Z</time></trkpt><trkpt lat="42.9361967" lon="11.2776733"><ele>58.0</ele><time>2026-05-02T15:10:49.786Z</time></trkpt><trkpt lat="42.93617" lon="11.2775017"><ele>58.0</ele><time>2026-05-02T15:10:50.789Z</time></trkpt><trkpt lat="42.936145" lon="11.27734"><ele>58.0</ele><time>2026-05-02T15:10:51.786Z</time></trkpt><trkpt lat="42.93612" lon="11.2771717"><ele>57.75</ele><time>2026-05-02T15:10:52.787Z</time></trkpt><trkpt lat="42.9360967" lon="11.2770067"><ele>57.5</ele><time>2026-05-02T15:10:53.789Z</time></trkpt><trkpt lat="42.9360767" lon="11.2768517"><ele>57.25</ele><time>2026-05-02T15:10:54.788Z</time></trkpt><trkpt lat="42.9360567" lon="11.2767033"><ele>57.0</ele><time>2026-05-02T15:10:55.789Z</time></trkpt><trkpt lat="42.9360383" lon="11.2765633"><ele>56.666666666666664</ele><time>2026-05-02T15:10:56.787Z</time></trkpt><trkpt lat="42.93602" lon="11.2764283"><ele>56.33333333333333</ele><time>2026-05-02T15:10:57.786Z</time></trkpt><trkpt lat="42.936015" lon="11.2763033"><ele>56.0</ele><time>2026-05-02T15:10:58.786Z</time></trkpt><trkpt lat="42.9360217" lon="11.276185"><ele>55.666666666666664</ele><time>2026-05-02T15:10:59.786Z</time></trkpt><trkpt lat="42.9360433" lon="11.2760767"><ele>55.33333333333333</ele><time>2026-05-02T15:11:00.786Z</time></trkpt><trkpt lat="42.9360767" lon="11.2759717"><ele>55.0</ele><time>2026-05-02T15:11:01.786Z</time></trkpt><trkpt lat="42.9361033" lon="11.2758667"><ele>54.99999999999999</ele><time>2026-05-02T15:11:02.786Z</time></trkpt><trkpt lat="42.93611" lon="11.2757567"><ele>55.0</ele><time>2026-05-02T15:11:03.786Z</time></trkpt><trkpt lat="42.9360933" lon="11.2756517"><ele>55.0</ele><time>2026-05-02T15:11:04.789Z</time></trkpt><trkpt lat="42.9360517" lon="11.27556"><ele>55.0</ele><time>2026-05-02T15:11:05.789Z</time></trkpt><trkpt lat="42.9359883" lon="11.2755067"><ele>54.99999999999999</ele><time>2026-05-02T15:11:06.786Z</time></trkpt><trkpt lat="42.9358867" lon="11.275525"><ele>55.0</ele><time>2026-05-02T15:11:07.786Z</time></trkpt><trkpt lat="42.9357783" lon="11.2755617"><ele>55.75</ele><time>2026-05-02T15:11:08.786Z</time></trkpt><trkpt lat="42.93567" lon="11.2755867"><ele>56.5</ele><time>2026-05-02T15:11:09.789Z</time></trkpt><trkpt lat="42.935555" lon="11.275575"><ele>57.25</ele><time>2026-05-02T15:11:10.79Z</time></trkpt><trkpt lat="42.935435" lon="11.275535"><ele>58.0</ele><time>2026-05-02T15:11:11.789Z</time></trkpt><trkpt lat="42.9353183" lon="11.2754633"><ele>58.0</ele><time>2026-05-02T15:11:12.789Z</time></trkpt><trkpt lat="42.9352083" lon="11.2753667"><ele>58.0</ele><time>2026-05-02T15:11:13.79Z</time></trkpt><trkpt lat="42.9350917" lon="11.2752483"><ele>58.0</ele><time>2026-05-02T15:11:14.789Z</time></trkpt><trkpt lat="42.9349733" lon="11.27512"><ele>58.0</ele><time>2026-05-02T15:11:15.789Z</time></trkpt><trkpt lat="42.9348533" lon="11.2749867"><ele>59.0</ele><time>2026-05-02T15:11:16.789Z</time></trkpt><trkpt lat="42.9347317" lon="11.27486"><ele>60.0</ele><time>2026-05-02T15:11:17.789Z</time></trkpt><trkpt lat="42.934605" lon="11.2747283"><ele>61.0</ele><time>2026-05-02T15:11:18.789Z</time></trkpt><trkpt lat="42.9344683" lon="11.274605"><ele>61.666666666666664</ele><time>2026-05-02T15:11:19.785Z</time></trkpt><trkpt lat="42.9343233" lon="11.2744967"><ele>62.33333333333333</ele><time>2026-05-02T15:11:20.789Z</time></trkpt><trkpt lat="42.934175" lon="11.274405"><ele>63.0</ele><time>2026-05-02T15:11:21.789Z</time></trkpt><trkpt lat="42.9340367" lon="11.27433"><ele>63.0</ele><time>2026-05-02T15:11:22.789Z</time></trkpt><trkpt lat="42.9339067" lon="11.27427"><ele>63.0</ele><time>2026-05-02T15:11:23.789Z</time></trkpt><trkpt lat="42.933785" lon="11.2742117"><ele>63.0</ele><time>2026-05-02T15:11:24.789Z</time></trkpt><trkpt lat="42.9336717" lon="11.2741517"><ele>63.0</ele><time>2026-05-02T15:11:25.789Z</time></trkpt><trkpt lat="42.9335733" lon="11.2741"><ele>63.0</ele><time>2026-05-02T15:11:26.786Z</time></trkpt><trkpt lat="42.9334817" lon="11.2740567"><ele>63.0</ele><time>2026-05-02T15:11:27.787Z</time></trkpt><trkpt lat="42.9334017" lon="11.2740117"><ele>63.0</ele><time>2026-05-02T15:11:28.787Z</time></trkpt><trkpt lat="42.9333317" lon="11.2739633"><ele>63.0</ele><time>2026-05-02T15:11:29.786Z</time></trkpt><trkpt lat="42.9332733" lon="11.27391"><ele>63.0</ele><time>2026-05-02T15:11:30.786Z</time></trkpt><trkpt lat="42.9332" lon="11.273785"><ele>63.0</ele><time>2026-05-02T15:11:32.789Z</time></trkpt><trkpt lat="42.9331717" lon="11.2737067"><ele>62.2</ele><time>2026-05-02T15:11:33.789Z</time></trkpt><trkpt lat="42.9331433" lon="11.273625"><ele>61.4</ele><time>2026-05-02T15:11:34.786Z</time></trkpt><trkpt lat="42.9330933" lon="11.2734933"><ele>60.60000000000001</ele><time>2026-05-02T15:11:36.79Z</time></trkpt><trkpt lat="42.9330533" lon="11.2733867"><ele>59.800000000000004</ele><time>2026-05-02T15:11:38.791Z</time></trkpt><trkpt lat="42.933" lon="11.27325"><ele>59.0</ele><time>2026-05-02T15:11:40.789Z</time></trkpt><trkpt lat="42.9329417" lon="11.2731067"><ele>59.75</ele><time>2026-05-02T15:11:42.789Z</time></trkpt><trkpt lat="42.932875" lon="11.2729567"><ele>60.5</ele><time>2026-05-02T15:11:44.789Z</time></trkpt><trkpt lat="42.9328133" lon="11.2728133"><ele>61.25</ele><time>2026-05-02T15:11:46.789Z</time></trkpt><trkpt lat="42.9327467" lon="11.2726583"><ele>62.0</ele><time>2026-05-02T15:11:48.787Z</time></trkpt><trkpt lat="42.9327133" lon="11.2725733"><ele>62.00000000000001</ele><time>2026-05-02T15:11:49.787Z</time></trkpt><trkpt lat="42.9326783" lon="11.2724833"><ele>62.0</ele><time>2026-05-02T15:11:50.787Z</time></trkpt><trkpt lat="42.93265" lon="11.2723883"><ele>62.0</ele><time>2026-05-02T15:11:51.788Z</time></trkpt><trkpt lat="42.9326233" lon="11.2722983"><ele>62.0</ele><time>2026-05-02T15:11:52.786Z</time></trkpt><trkpt lat="42.9325767" lon="11.2722"><ele>62.00000000000001</ele><time>2026-05-02T15:11:53.786Z</time></trkpt><trkpt lat="42.9325317" lon="11.27211"><ele>62.0</ele><time>2026-05-02T15:11:54.786Z</time></trkpt><trkpt lat="42.9324883" lon="11.2720267"><ele>62.66666666666667</ele><time>2026-05-02T15:11:55.786Z</time></trkpt><trkpt lat="42.9324517" lon="11.2719483"><ele>63.333333333333336</ele><time>2026-05-02T15:11:56.786Z</time></trkpt><trkpt lat="42.932415" lon="11.271875"><ele>64.0</ele><time>2026-05-02T15:11:57.786Z</time></trkpt><trkpt lat="42.932375" lon="11.2718083"><ele>64.66666666666667</ele><time>2026-05-02T15:11:58.786Z</time></trkpt><trkpt lat="42.93234" lon="11.2717"><ele>65.33333333333333</ele><time>2026-05-02T15:12:00.786Z</time></trkpt><trkpt lat="42.9324117" lon="11.271595"><ele>66.0</ele><time>2026-05-02T15:12:03.789Z</time></trkpt><trkpt lat="42.93252" lon="11.271515"><ele>65.8</ele><time>2026-05-02T15:12:05.789Z</time></trkpt><trkpt lat="42.9326183" lon="11.27144"><ele>65.6</ele><time>2026-05-02T15:12:07.786Z</time></trkpt><trkpt lat="42.9327033" lon="11.271395"><ele>65.4</ele><time>2026-05-02T15:12:09.785Z</time></trkpt><trkpt lat="42.93272" lon="11.2712933"><ele>65.2</ele><time>2026-05-02T15:12:13.786Z</time></trkpt><trkpt lat="42.932675" lon="11.2711583"><ele>65.0</ele><time>2026-05-02T15:12:15.788Z</time></trkpt><trkpt lat="42.93263" lon="11.2710733"><ele>65.0</ele><time>2026-05-02T15:12:16.788Z</time></trkpt><trkpt lat="42.9325817" lon="11.2709667"><ele>65.0</ele><time>2026-05-02T15:12:17.787Z</time></trkpt><trkpt lat="42.9325383" lon="11.2708633"><ele>65.0</ele><time>2026-05-02T15:12:18.786Z</time></trkpt><trkpt lat="42.9325" lon="11.27077"><ele>65.0</ele><time>2026-05-02T15:12:19.785Z</time></trkpt><trkpt lat="42.93247" lon="11.27069"><ele>65.0</ele><time>2026-05-02T15:12:20.785Z</time></trkpt><trkpt lat="42.9324117" lon="11.27054"><ele>65.0</ele><time>2026-05-02T15:12:22.789Z</time></trkpt><trkpt lat="42.9323417" lon="11.270425"><ele>65.33333333333334</ele><time>2026-05-02T15:12:24.787Z</time></trkpt><trkpt lat="42.9322783" lon="11.2703533"><ele>65.66666666666667</ele><time>2026-05-02T15:12:26.785Z</time></trkpt><trkpt lat="42.9322667" lon="11.270265"><ele>66.0</ele><time>2026-05-02T15:12:29.788Z</time></trkpt><trkpt lat="42.9323183" lon="11.2701983"><ele>66.33333333333333</ele><time>2026-05-02T15:12:31.785Z</time></trkpt><trkpt lat="42.932395" lon="11.2701267"><ele>66.66666666666666</ele><time>2026-05-02T15:12:33.788Z</time></trkpt><trkpt lat="42.9324767" lon="11.27005"><ele>67.0</ele><time>2026-05-02T15:12:35.786Z</time></trkpt><trkpt lat="42.9325417" lon="11.26997"><ele>66.6</ele><time>2026-05-02T15:12:37.788Z</time></trkpt><trkpt lat="42.9326133" lon="11.26993"><ele>66.2</ele><time>2026-05-02T15:12:39.786Z</time></trkpt><trkpt lat="42.9326817" lon="11.269925"><ele>65.8</ele><time>2026-05-02T15:12:41.786Z</time></trkpt><trkpt lat="42.93278" lon="11.2699"><ele>65.4</ele><time>2026-05-02T15:12:43.787Z</time></trkpt><trkpt lat="42.932905" lon="11.2698183"><ele>65.0</ele><time>2026-05-02T15:12:45.79Z</time></trkpt><trkpt lat="42.9329833" lon="11.2697583"><ele>65.0</ele><time>2026-05-02T15:12:46.79Z</time></trkpt><trkpt lat="42.9330667" lon="11.269685"><ele>65.0</ele><time>2026-05-02T15:12:47.785Z</time></trkpt><trkpt lat="42.93316" lon="11.26961"><ele>65.0</ele><time>2026-05-02T15:12:48.788Z</time></trkpt><trkpt lat="42.9332567" lon="11.2695267"><ele>65.0</ele><time>2026-05-02T15:12:49.789Z</time></trkpt><trkpt lat="42.9333617" lon="11.2694467"><ele>65.0</ele><time>2026-05-02T15:12:50.789Z</time></trkpt><trkpt lat="42.9334533" lon="11.2693667"><ele>65.0</ele><time>2026-05-02T15:12:51.788Z</time></trkpt><trkpt lat="42.93354" lon="11.269295"><ele>65.0</ele><time>2026-05-02T15:12:52.788Z</time></trkpt><trkpt lat="42.93362" lon="11.2692333"><ele>65.0</ele><time>2026-05-02T15:12:53.788Z</time></trkpt><trkpt lat="42.93369" lon="11.2691717"><ele>65.0</ele><time>2026-05-02T15:12:54.788Z</time></trkpt><trkpt lat="42.9337467" lon="11.2691217"><ele>65.0</ele><time>2026-05-02T15:12:55.789Z</time></trkpt><trkpt lat="42.933805" lon="11.2690533"><ele>65.0</ele><time>2026-05-02T15:12:57.789Z</time></trkpt><trkpt lat="42.9338067" lon="11.2689417"><ele>64.5</ele><time>2026-05-02T15:13:00.789Z</time></trkpt><trkpt lat="42.93372" lon="11.26878"><ele>64.0</ele><time>2026-05-02T15:13:02.788Z</time></trkpt><trkpt lat="42.93367" lon="11.268645"><ele>63.5</ele><time>2026-05-02T15:13:03.788Z</time></trkpt><trkpt lat="42.933665" lon="11.2684667"><ele>63.0</ele><time>2026-05-02T15:13:04.786Z</time></trkpt><trkpt lat="42.93372" lon="11.2682667"><ele>63.0</ele><time>2026-05-02T15:13:05.786Z</time></trkpt><trkpt lat="42.9338333" lon="11.2680883"><ele>63.0</ele><time>2026-05-02T15:13:06.786Z</time></trkpt><trkpt lat="42.933975" lon="11.2679433"><ele>63.0</ele><time>2026-05-02T15:13:07.786Z</time></trkpt><trkpt lat="42.9341333" lon="11.2678117"><ele>63.33333333333333</ele><time>2026-05-02T15:13:08.785Z</time></trkpt><trkpt lat="42.934295" lon="11.267685"><ele>63.666666666666664</ele><time>2026-05-02T15:13:09.788Z</time></trkpt><trkpt lat="42.9344533" lon="11.267565"><ele>64.0</ele><time>2026-05-02T15:13:10.786Z</time></trkpt><trkpt lat="42.9346" lon="11.26745"><ele>64.0</ele><time>2026-05-02T15:13:11.788Z</time></trkpt><trkpt lat="42.9347433" lon="11.2673367"><ele>64.0</ele><time>2026-05-02T15:13:12.785Z</time></trkpt><trkpt lat="42.9348833" lon="11.267225"><ele>64.0</ele><time>2026-05-02T15:13:13.786Z</time></trkpt><trkpt lat="42.9350167" lon="11.2671217"><ele>64.5</ele><time>2026-05-02T15:13:14.785Z</time></trkpt><trkpt lat="42.9351417" lon="11.26703"><ele>65.0</ele><time>2026-05-02T15:13:15.786Z</time></trkpt><trkpt lat="42.93526" lon="11.2669533"><ele>65.5</ele><time>2026-05-02T15:13:16.785Z</time></trkpt><trkpt lat="42.9353717" lon="11.2669133"><ele>66.0</ele><time>2026-05-02T15:13:17.786Z</time></trkpt><trkpt lat="42.9354667" lon="11.2669233"><ele>66.0</ele><time>2026-05-02T15:13:18.789Z</time></trkpt><trkpt lat="42.9355467" lon="11.266965"><ele>66.0</ele><time>2026-05-02T15:13:19.789Z</time></trkpt><trkpt lat="42.9356133" lon="11.26703"><ele>66.0</ele><time>2026-05-02T15:13:20.791Z</time></trkpt><trkpt lat="42.935675" lon="11.267115"><ele>66.0</ele><time>2026-05-02T15:13:21.791Z</time></trkpt><trkpt lat="42.9357483" lon="11.2671833"><ele>66.0</ele><time>2026-05-02T15:13:22.788Z</time></trkpt><trkpt lat="42.9358283" lon="11.2672083"><ele>66.0</ele><time>2026-05-02T15:13:23.786Z</time></trkpt><trkpt lat="42.9359067" lon="11.267195"><ele>66.8</ele><time>2026-05-02T15:13:24.789Z</time></trkpt><trkpt lat="42.935985" lon="11.26714"><ele>67.6</ele><time>2026-05-02T15:13:25.789Z</time></trkpt><trkpt lat="42.9360683" lon="11.2670767"><ele>68.4</ele><time>2026-05-02T15:13:26.788Z</time></trkpt><trkpt lat="42.9361667" lon="11.26703"><ele>69.2</ele><time>2026-05-02T15:13:27.786Z</time></trkpt><trkpt lat="42.936275" lon="11.2669933"><ele>70.0</ele><time>2026-05-02T15:13:28.786Z</time></trkpt><trkpt lat="42.936385" lon="11.2669467"><ele>70.0</ele><time>2026-05-02T15:13:29.786Z</time></trkpt><trkpt lat="42.9364933" lon="11.26687"><ele>70.0</ele><time>2026-05-02T15:13:30.786Z</time></trkpt><trkpt lat="42.9365933" lon="11.26676"><ele>70.0</ele><time>2026-05-02T15:13:31.786Z</time></trkpt><trkpt lat="42.9366833" lon="11.2666283"><ele>70.0</ele><time>2026-05-02T15:13:32.786Z</time></trkpt><trkpt lat="42.936755" lon="11.266475"><ele>70.75</ele><time>2026-05-02T15:13:33.787Z</time></trkpt><trkpt lat="42.93681" lon="11.2663017"><ele>71.5</ele><time>2026-05-02T15:13:34.785Z</time></trkpt><trkpt lat="42.9368567" lon="11.2661167"><ele>72.25</ele><time>2026-05-02T15:13:35.786Z</time></trkpt><trkpt lat="42.9369067" lon="11.2659233"><ele>73.0</ele><time>2026-05-02T15:13:36.785Z</time></trkpt><trkpt lat="42.9369583" lon="11.2657217"><ele>74.0</ele><time>2026-05-02T15:13:37.788Z</time></trkpt><trkpt lat="42.9370117" lon="11.2655167"><ele>75.0</ele><time>2026-05-02T15:13:38.789Z</time></trkpt><trkpt lat="42.937065" lon="11.26531"><ele>76.0</ele><time>2026-05-02T15:13:39.789Z</time></trkpt><trkpt lat="42.9371183" lon="11.2651033"><ele>76.0</ele><time>2026-05-02T15:13:40.789Z</time></trkpt><trkpt lat="42.9371733" lon="11.2648933"><ele>76.0</ele><time>2026-05-02T15:13:41.789Z</time></trkpt><trkpt lat="42.9372267" lon="11.2646817"><ele>76.0</ele><time>2026-05-02T15:13:42.789Z</time></trkpt><trkpt lat="42.937285" lon="11.2644783"><ele>76.5</ele><time>2026-05-02T15:13:43.789Z</time></trkpt><trkpt lat="42.937355" lon="11.264295"><ele>77.0</ele><time>2026-05-02T15:13:44.789Z</time></trkpt><trkpt lat="42.937435" lon="11.2641517"><ele>77.5</ele><time>2026-05-02T15:13:45.789Z</time></trkpt><trkpt lat="42.937535" lon="11.2640383"><ele>78.0</ele><time>2026-05-02T15:13:46.789Z</time></trkpt><trkpt lat="42.9376417" lon="11.2639383"><ele>78.0</ele><time>2026-05-02T15:13:47.789Z</time></trkpt><trkpt lat="42.9377483" lon="11.2638617"><ele>78.0</ele><time>2026-05-02T15:13:48.789Z</time></trkpt><trkpt lat="42.937845" lon="11.263795"><ele>78.0</ele><time>2026-05-02T15:13:49.789Z</time></trkpt><trkpt lat="42.937925" lon="11.2637417"><ele>78.0</ele><time>2026-05-02T15:13:50.789Z</time></trkpt><trkpt lat="42.9379833" lon="11.2637"><ele>78.0</ele><time>2026-05-02T15:13:51.785Z</time></trkpt><trkpt lat="42.9380617" lon="11.26367"><ele>78.0</ele><time>2026-05-02T15:13:53.789Z</time></trkpt><trkpt lat="42.9380833" lon="11.2637767"><ele>78.0</ele><time>2026-05-02T15:13:56.789Z</time></trkpt><trkpt lat="42.9380917" lon="11.2638783"><ele>78.0</ele><time>2026-05-02T15:13:58.786Z</time></trkpt><trkpt lat="42.9381317" lon="11.2639683"><ele>78.0</ele><time>2026-05-02T15:14:32.786Z</time></trkpt><trkpt lat="42.9381917" lon="11.2641167"><ele>78.0</ele><time>2026-05-02T15:14:34.788Z</time></trkpt><trkpt lat="42.9382283" lon="11.264205"><ele>78.0</ele><time>2026-05-02T15:14:35.787Z</time></trkpt><trkpt lat="42.9382633" lon="11.264305"><ele>78.0</ele><time>2026-05-02T15:14:36.788Z</time></trkpt><trkpt lat="42.9382867" lon="11.2643933"><ele>78.0</ele><time>2026-05-02T15:14:37.786Z</time></trkpt><trkpt lat="42.938305" lon="11.264485"><ele>78.0</ele><time>2026-05-02T15:14:38.787Z</time></trkpt><trkpt lat="42.9383183" lon="11.264585"><ele>78.0</ele><time>2026-05-02T15:14:39.786Z</time></trkpt><trkpt lat="42.9383317" lon="11.2646733"><ele>78.0</ele><time>2026-05-02T15:14:40.786Z</time></trkpt><trkpt lat="42.9383717" lon="11.2648083"><ele>78.0</ele><time>2026-05-02T15:14:42.787Z</time></trkpt><trkpt lat="42.9384383" lon="11.2649517"><ele>78.0</ele><time>2026-05-02T15:14:44.787Z</time></trkpt><trkpt lat="42.9384733" lon="11.2650317"><ele>78.0</ele><time>2026-05-02T15:14:45.786Z</time></trkpt><trkpt lat="42.9385117" lon="11.2651167"><ele>78.0</ele><time>2026-05-02T15:14:46.786Z</time></trkpt><trkpt lat="42.93855" lon="11.265205"><ele>78.0</ele><time>2026-05-02T15:14:47.786Z</time></trkpt><trkpt lat="42.9385883" lon="11.2652933"><ele>78.0</ele><time>2026-05-02T15:14:48.787Z</time></trkpt><trkpt lat="42.9386267" lon="11.2653817"><ele>78.0</ele><time>2026-05-02T15:14:49.787Z</time></trkpt><trkpt lat="42.9386617" lon="11.2654733"><ele>78.0</ele><time>2026-05-02T15:14:50.789Z</time></trkpt><trkpt lat="42.9386983" lon="11.2655683"><ele>77.71428571428572</ele><time>2026-05-02T15:14:51.787Z</time></trkpt><trkpt lat="42.938735" lon="11.2656633"><ele>77.42857142857142</ele><time>2026-05-02T15:14:52.787Z</time></trkpt><trkpt lat="42.9387733" lon="11.2657533"><ele>77.14285714285714</ele><time>2026-05-02T15:14:53.786Z</time></trkpt><trkpt lat="42.93881" lon="11.265835"><ele>76.85714285714286</ele><time>2026-05-02T15:14:54.786Z</time></trkpt><trkpt lat="42.9388517" lon="11.2659067"><ele>76.57142857142858</ele><time>2026-05-02T15:14:55.786Z</time></trkpt><trkpt lat="42.9389" lon="11.2659633"><ele>76.28571428571428</ele><time>2026-05-02T15:14:56.787Z</time></trkpt><trkpt lat="42.9389617" lon="11.266005"><ele>76.0</ele><time>2026-05-02T15:14:57.786Z</time></trkpt><trkpt lat="42.93903" lon="11.2660267"><ele>76.0</ele><time>2026-05-02T15:14:58.787Z</time></trkpt><trkpt lat="42.9390983" lon="11.26603"><ele>76.0</ele><time>2026-05-02T15:14:59.787Z</time></trkpt><trkpt lat="42.9391683" lon="11.26603"><ele>76.0</ele><time>2026-05-02T15:15:00.786Z</time></trkpt><trkpt lat="42.9392367" lon="11.26603"><ele>76.0</ele><time>2026-05-02T15:15:01.787Z</time></trkpt><trkpt lat="42.9393083" lon="11.2660283"><ele>76.0</ele><time>2026-05-02T15:15:02.786Z</time></trkpt><trkpt lat="42.9393867" lon="11.26602"><ele>76.0</ele><time>2026-05-02T15:15:03.787Z</time></trkpt><trkpt lat="42.939465" lon="11.2660033"><ele>76.0</ele><time>2026-05-02T15:15:04.786Z</time></trkpt><trkpt lat="42.9395433" lon="11.265985"><ele>74.2</ele><time>2026-05-02T15:15:05.786Z</time></trkpt><trkpt lat="42.9396133" lon="11.265975"><ele>72.39999999999999</ele><time>2026-05-02T15:15:06.786Z</time></trkpt><trkpt lat="42.9396817" lon="11.2659767"><ele>70.6</ele><time>2026-05-02T15:15:07.786Z</time></trkpt><trkpt lat="42.9398033" lon="11.265995"><ele>68.8</ele><time>2026-05-02T15:15:09.786Z</time></trkpt><trkpt lat="42.939925" lon="11.2659967"><ele>67.0</ele><time>2026-05-02T15:15:11.787Z</time></trkpt><trkpt lat="42.940045" lon="11.2660017"><ele>66.6</ele><time>2026-05-02T15:15:13.785Z</time></trkpt><trkpt lat="42.9401083" lon="11.266"><ele>66.2</ele><time>2026-05-02T15:15:14.787Z</time></trkpt><trkpt lat="42.940225" lon="11.2659717"><ele>65.8</ele><time>2026-05-02T15:15:16.786Z</time></trkpt><trkpt lat="42.940325" lon="11.2658717"><ele>65.4</ele><time>2026-05-02T15:15:18.785Z</time></trkpt><trkpt lat="42.9404267" lon="11.2657617"><ele>65.0</ele><time>2026-05-02T15:15:20.786Z</time></trkpt><trkpt lat="42.9405217" lon="11.2656883"><ele>65.0</ele><time>2026-05-02T15:15:22.786Z</time></trkpt><trkpt lat="42.9406183" lon="11.2656467"><ele>65.0</ele><time>2026-05-02T15:15:24.785Z</time></trkpt><trkpt lat="42.94072" lon="11.2656433"><ele>65.0</ele><time>2026-05-02T15:15:26.786Z</time></trkpt><trkpt lat="42.9407917" lon="11.265635"><ele>65.0</ele><time>2026-05-02T15:15:27.785Z</time></trkpt><trkpt lat="42.940865" lon="11.2656233"><ele>65.0</ele><time>2026-05-02T15:15:28.786Z</time></trkpt><trkpt lat="42.9409417" lon="11.2656117"><ele>65.0</ele><time>2026-05-02T15:15:29.786Z</time></trkpt><trkpt lat="42.9410233" lon="11.265595"><ele>64.5</ele><time>2026-05-02T15:15:30.785Z</time></trkpt><trkpt lat="42.941105" lon="11.2655783"><ele>64.0</ele><time>2026-05-02T15:15:31.787Z</time></trkpt><trkpt lat="42.9411833" lon="11.265565"><ele>63.5</ele><time>2026-05-02T15:15:32.787Z</time></trkpt><trkpt lat="42.941255" lon="11.2655533"><ele>63.0</ele><time>2026-05-02T15:15:33.785Z</time></trkpt><trkpt lat="42.9413183" lon="11.2655417"><ele>62.50000000000001</ele><time>2026-05-02T15:15:34.786Z</time></trkpt><trkpt lat="42.9414383" lon="11.2655283"><ele>62.0</ele><time>2026-05-02T15:15:36.786Z</time></trkpt><trkpt lat="42.9415033" lon="11.2655367"><ele>62.0</ele><time>2026-05-02T15:15:37.785Z</time></trkpt><trkpt lat="42.9415683" lon="11.2655483"><ele>62.0</ele><time>2026-05-02T15:15:38.785Z</time></trkpt><trkpt lat="42.9416867" lon="11.2655967"><ele>62.0</ele><time>2026-05-02T15:15:40.785Z</time></trkpt><trkpt lat="42.9417967" lon="11.2656567"><ele>62.0</ele><time>2026-05-02T15:15:42.786Z</time></trkpt><trkpt lat="42.94188" lon="11.2657333"><ele>62.0</ele><time>2026-05-02T15:15:44.786Z</time></trkpt><trkpt lat="42.9419433" lon="11.2657817"><ele>62.00000000000001</ele><time>2026-05-02T15:15:46.786Z</time></trkpt><trkpt lat="42.9420317" lon="11.2657867"><ele>62.0</ele><time>2026-05-02T15:15:48.785Z</time></trkpt><trkpt lat="42.9421533" lon="11.2658117"><ele>62.0</ele><time>2026-05-02T15:15:50.788Z</time></trkpt><trkpt lat="42.9422267" lon="11.2658483"><ele>62.0</ele><time>2026-05-02T15:15:51.785Z</time></trkpt><trkpt lat="42.9422867" lon="11.2659067"><ele>62.00000000000001</ele><time>2026-05-02T15:15:52.787Z</time></trkpt><trkpt lat="42.9423417" lon="11.26599"><ele>62.0</ele><time>2026-05-02T15:15:53.787Z</time></trkpt><trkpt lat="42.942405" lon="11.2660617"><ele>62.00000000000001</ele><time>2026-05-02T15:15:54.79Z</time></trkpt><trkpt lat="42.9424783" lon="11.266125"><ele>62.0</ele><time>2026-05-02T15:15:55.786Z</time></trkpt><trkpt lat="42.9425517" lon="11.2661783"><ele>62.0</ele><time>2026-05-02T15:15:56.788Z</time></trkpt><trkpt lat="42.9426283" lon="11.266225"><ele>62.0</ele><time>2026-05-02T15:15:57.785Z</time></trkpt><trkpt lat="42.942695" lon="11.2662683"><ele>62.00000000000001</ele><time>2026-05-02T15:15:58.787Z</time></trkpt><trkpt lat="42.9427917" lon="11.266285"><ele>62.0</ele><time>2026-05-02T15:16:00.788Z</time></trkpt><trkpt lat="42.942845" lon="11.2662183"><ele>62.0</ele><time>2026-05-02T15:16:02.786Z</time></trkpt><trkpt lat="42.9428617" lon="11.2660417"><ele>62.0</ele><time>2026-05-02T15:16:04.785Z</time></trkpt><trkpt lat="42.94286" lon="11.2658983"><ele>62.0</ele><time>2026-05-02T15:16:05.788Z</time></trkpt><trkpt lat="42.94286" lon="11.265775"><ele>62.0</ele><time>2026-05-02T15:16:06.789Z</time></trkpt><trkpt lat="42.9428717" lon="11.26566"><ele>62.0</ele><time>2026-05-02T15:16:07.79Z</time></trkpt><trkpt lat="42.9429" lon="11.2655617"><ele>62.0</ele><time>2026-05-02T15:16:08.79Z</time></trkpt><trkpt lat="42.9429533" lon="11.2654683"><ele>62.0</ele><time>2026-05-02T15:16:09.789Z</time></trkpt><trkpt lat="42.9430267" lon="11.2653767"><ele>62.0</ele><time>2026-05-02T15:16:10.79Z</time></trkpt><trkpt lat="42.94312" lon="11.2652783"><ele>62.0</ele><time>2026-05-02T15:16:11.789Z</time></trkpt><trkpt lat="42.9432117" lon="11.2651767"><ele>62.0</ele><time>2026-05-02T15:16:12.789Z</time></trkpt><trkpt lat="42.9433083" lon="11.2650667"><ele>62.25</ele><time>2026-05-02T15:16:13.789Z</time></trkpt><trkpt lat="42.943405" lon="11.264955"><ele>62.5</ele><time>2026-05-02T15:16:14.789Z</time></trkpt><trkpt lat="42.9434983" lon="11.26485"><ele>62.75</ele><time>2026-05-02T15:16:15.789Z</time></trkpt><trkpt lat="42.94359" lon="11.2647467"><ele>63.0</ele><time>2026-05-02T15:16:16.789Z</time></trkpt><trkpt lat="42.9436833" lon="11.26464"><ele>63.2</ele><time>2026-05-02T15:16:17.789Z</time></trkpt><trkpt lat="42.9437717" lon="11.26454"><ele>63.4</ele><time>2026-05-02T15:16:18.789Z</time></trkpt><trkpt lat="42.9438567" lon="11.2644417"><ele>63.60000000000001</ele><time>2026-05-02T15:16:19.785Z</time></trkpt><trkpt lat="42.9439417" lon="11.2643533"><ele>63.800000000000004</ele><time>2026-05-02T15:16:20.789Z</time></trkpt><trkpt lat="42.9440367" lon="11.2642783"><ele>64.0</ele><time>2026-05-02T15:16:21.789Z</time></trkpt><trkpt lat="42.9441367" lon="11.2642283"><ele>65.5</ele><time>2026-05-02T15:16:22.789Z</time></trkpt><trkpt lat="42.944245" lon="11.26419"><ele>67.0</ele><time>2026-05-02T15:16:23.789Z</time></trkpt><trkpt lat="42.9443617" lon="11.2641667"><ele>68.5</ele><time>2026-05-02T15:16:24.789Z</time></trkpt><trkpt lat="42.94448" lon="11.2641517"><ele>70.0</ele><time>2026-05-02T15:16:25.789Z</time></trkpt><trkpt lat="42.9445933" lon="11.2641383"><ele>70.0</ele><time>2026-05-02T15:16:26.788Z</time></trkpt><trkpt lat="42.944705" lon="11.2641367"><ele>70.0</ele><time>2026-05-02T15:16:27.79Z</time></trkpt><trkpt lat="42.9448133" lon="11.26415"><ele>70.0</ele><time>2026-05-02T15:16:28.79Z</time></trkpt><trkpt lat="42.9449283" lon="11.2641783"><ele>70.0</ele><time>2026-05-02T15:16:29.789Z</time></trkpt><trkpt lat="42.94503" lon="11.26421"><ele>70.0</ele><time>2026-05-02T15:16:30.788Z</time></trkpt><trkpt lat="42.945125" lon="11.2642483"><ele>71.4</ele><time>2026-05-02T15:16:31.787Z</time></trkpt><trkpt lat="42.9452267" lon="11.2642883"><ele>72.8</ele><time>2026-05-02T15:16:32.787Z</time></trkpt><trkpt lat="42.9453317" lon="11.2643333"><ele>74.2</ele><time>2026-05-02T15:16:33.785Z</time></trkpt><trkpt lat="42.9454383" lon="11.2643883"><ele>75.6</ele><time>2026-05-02T15:16:34.787Z</time></trkpt><trkpt lat="42.9455367" lon="11.2644533"><ele>77.0</ele><time>2026-05-02T15:16:35.787Z</time></trkpt><trkpt lat="42.9456283" lon="11.26453"><ele>77.0</ele><time>2026-05-02T15:16:36.787Z</time></trkpt><trkpt lat="42.94572" lon="11.2646283"><ele>77.0</ele><time>2026-05-02T15:16:37.788Z</time></trkpt><trkpt lat="42.9458183" lon="11.26472"><ele>77.0</ele><time>2026-05-02T15:16:38.789Z</time></trkpt><trkpt lat="42.9459133" lon="11.2648067"><ele>77.0</ele><time>2026-05-02T15:16:39.789Z</time></trkpt><trkpt lat="42.9460017" lon="11.2648817"><ele>77.66666666666667</ele><time>2026-05-02T15:16:40.789Z</time></trkpt><trkpt lat="42.946085" lon="11.26495"><ele>78.33333333333334</ele><time>2026-05-02T15:16:41.789Z</time></trkpt><trkpt lat="42.9461617" lon="11.2650167"><ele>79.0</ele><time>2026-05-02T15:16:42.79Z</time></trkpt><trkpt lat="42.946235" lon="11.2650733"><ele>79.66666666666667</ele><time>2026-05-02T15:16:43.789Z</time></trkpt><trkpt lat="42.946295" lon="11.2651233"><ele>80.33333333333333</ele><time>2026-05-02T15:16:44.789Z</time></trkpt><trkpt lat="42.9463467" lon="11.26518"><ele>81.0</ele><time>2026-05-02T15:16:45.789Z</time></trkpt><trkpt lat="42.9464417" lon="11.2652683"><ele>81.0</ele><time>2026-05-02T15:16:47.787Z</time></trkpt><trkpt lat="42.9465333" lon="11.2653117"><ele>81.0</ele><time>2026-05-02T15:16:49.79Z</time></trkpt><trkpt lat="42.9466217" lon="11.2652667"><ele>81.0</ele><time>2026-05-02T15:16:51.789Z</time></trkpt><trkpt lat="42.946695" lon="11.2651383"><ele>81.0</ele><time>2026-05-02T15:16:53.791Z</time></trkpt><trkpt lat="42.9467233" lon="11.2650533"><ele>81.0</ele><time>2026-05-02T15:16:54.789Z</time></trkpt><trkpt lat="42.94675" lon="11.2649617"><ele>80.6</ele><time>2026-05-02T15:16:55.789Z</time></trkpt><trkpt lat="42.9467817" lon="11.2648567"><ele>80.19999999999999</ele><time>2026-05-02T15:16:56.79Z</time></trkpt><trkpt lat="42.9468267" lon="11.2647517"><ele>79.80000000000001</ele><time>2026-05-02T15:16:57.785Z</time></trkpt><trkpt lat="42.9468833" lon="11.2646383"><ele>79.4</ele><time>2026-05-02T15:16:58.789Z</time></trkpt><trkpt lat="42.9469333" lon="11.2645333"><ele>79.0</ele><time>2026-05-02T15:16:59.788Z</time></trkpt><trkpt lat="42.9469767" lon="11.2644317"><ele>79.0</ele><time>2026-05-02T15:17:00.786Z</time></trkpt><trkpt lat="42.9470133" lon="11.2643367"><ele>79.0</ele><time>2026-05-02T15:17:01.789Z</time></trkpt><trkpt lat="42.94705" lon="11.2642433"><ele>79.0</ele><time>2026-05-02T15:17:02.79Z</time></trkpt><trkpt lat="42.9470817" lon="11.2641517"><ele>79.0</ele><time>2026-05-02T15:17:03.788Z</time></trkpt><trkpt lat="42.94712" lon="11.2640617"><ele>79.0</ele><time>2026-05-02T15:17:04.786Z</time></trkpt><trkpt lat="42.9471617" lon="11.26397"><ele>79.0</ele><time>2026-05-02T15:17:05.788Z</time></trkpt><trkpt lat="42.9472033" lon="11.2638767"><ele>79.14285714285715</ele><time>2026-05-02T15:17:06.788Z</time></trkpt><trkpt lat="42.9472433" lon="11.2637917"><ele>79.28571428571429</ele><time>2026-05-02T15:17:07.786Z</time></trkpt><trkpt lat="42.9472883" lon="11.2637"><ele>79.42857142857143</ele><time>2026-05-02T15:17:08.788Z</time></trkpt><trkpt lat="42.94733" lon="11.2636117"><ele>79.57142857142858</ele><time>2026-05-02T15:17:09.789Z</time></trkpt><trkpt lat="42.9473717" lon="11.2635317"><ele>79.71428571428572</ele><time>2026-05-02T15:17:10.788Z</time></trkpt><trkpt lat="42.9474017" lon="11.2634433"><ele>79.85714285714286</ele><time>2026-05-02T15:17:11.788Z</time></trkpt><trkpt lat="42.9474333" lon="11.2633517"><ele>80.0</ele><time>2026-05-02T15:17:12.789Z</time></trkpt><trkpt lat="42.9474667" lon="11.2632667"><ele>80.2</ele><time>2026-05-02T15:17:13.789Z</time></trkpt><trkpt lat="42.9475467" lon="11.2631767"><ele>80.4</ele><time>2026-05-02T15:17:15.79Z</time></trkpt><trkpt lat="42.9476467" lon="11.2631633"><ele>80.6</ele><time>2026-05-02T15:17:17.79Z</time></trkpt><trkpt lat="42.9477233" lon="11.2631967"><ele>80.8</ele><time>2026-05-02T15:17:18.789Z</time></trkpt><trkpt lat="42.9478017" lon="11.2632383"><ele>81.0</ele><time>2026-05-02T15:17:19.789Z</time></trkpt><trkpt lat="42.9478817" lon="11.26328"><ele>81.0</ele><time>2026-05-02T15:17:20.79Z</time></trkpt><trkpt lat="42.947965" lon="11.263315"><ele>81.0</ele><time>2026-05-02T15:17:21.791Z</time></trkpt><trkpt lat="42.948045" lon="11.26335"><ele>81.0</ele><time>2026-05-02T15:17:22.789Z</time></trkpt><trkpt lat="42.9481217" lon="11.2633867"><ele>81.0</ele><time>2026-05-02T15:17:23.79Z</time></trkpt><trkpt lat="42.9482017" lon="11.2634283"><ele>81.0</ele><time>2026-05-02T15:17:24.788Z</time></trkpt><trkpt lat="42.9482767" lon="11.2634767"><ele>81.0</ele><time>2026-05-02T15:17:25.789Z</time></trkpt><trkpt lat="42.9483517" lon="11.2635133"><ele>80.83333333333333</ele><time>2026-05-02T15:17:26.789Z</time></trkpt><trkpt lat="42.9484317" lon="11.2635317"><ele>80.66666666666667</ele><time>2026-05-02T15:17:27.786Z</time></trkpt><trkpt lat="42.948505" lon="11.26352"><ele>80.5</ele><time>2026-05-02T15:17:28.792Z</time></trkpt><trkpt lat="42.9485717" lon="11.2634933"><ele>80.33333333333334</ele><time>2026-05-02T15:17:29.789Z</time></trkpt><trkpt lat="42.9486333" lon="11.2634667"><ele>80.16666666666667</ele><time>2026-05-02T15:17:30.789Z</time></trkpt><trkpt lat="42.9487383" lon="11.263395"><ele>80.0</ele><time>2026-05-02T15:17:32.792Z</time></trkpt><trkpt lat="42.9488217" lon="11.2633117"><ele>80.0</ele><time>2026-05-02T15:17:34.789Z</time></trkpt><trkpt lat="42.9489133" lon="11.2632283"><ele>80.0</ele><time>2026-05-02T15:17:36.789Z</time></trkpt><trkpt lat="42.949005" lon="11.26315"><ele>80.0</ele><time>2026-05-02T15:17:38.791Z</time></trkpt><trkpt lat="42.9490883" lon="11.263075"><ele>80.0</ele><time>2026-05-02T15:17:40.79Z</time></trkpt><trkpt lat="42.9491783" lon="11.262995"><ele>80.0</ele><time>2026-05-02T15:17:42.791Z</time></trkpt><trkpt lat="42.9492767" lon="11.2629083"><ele>80.0</ele><time>2026-05-02T15:17:44.789Z</time></trkpt><trkpt lat="42.9493833" lon="11.2628167"><ele>80.0</ele><time>2026-05-02T15:17:46.79Z</time></trkpt><trkpt lat="42.9494417" lon="11.2627633"><ele>80.0</ele><time>2026-05-02T15:17:47.79Z</time></trkpt><trkpt lat="42.9495017" lon="11.2627083"><ele>80.0</ele><time>2026-05-02T15:17:48.789Z</time></trkpt><trkpt lat="42.9495633" lon="11.2626483"><ele>80.0</ele><time>2026-05-02T15:17:49.789Z</time></trkpt><trkpt lat="42.949625" lon="11.2625817"><ele>80.0</ele><time>2026-05-02T15:17:50.789Z</time></trkpt><trkpt lat="42.9496867" lon="11.2625067"><ele>80.0</ele><time>2026-05-02T15:17:51.79Z</time></trkpt><trkpt lat="42.9497467" lon="11.2624283"><ele>80.0</ele><time>2026-05-02T15:17:52.79Z</time></trkpt><trkpt lat="42.949805" lon="11.2623433"><ele>80.0</ele><time>2026-05-02T15:17:53.79Z</time></trkpt><trkpt lat="42.949865" lon="11.2622567"><ele>80.0</ele><time>2026-05-02T15:17:54.789Z</time></trkpt><trkpt lat="42.9499233" lon="11.2621667"><ele>80.0</ele><time>2026-05-02T15:17:55.789Z</time></trkpt><trkpt lat="42.9499833" lon="11.26208"><ele>80.0</ele><time>2026-05-02T15:17:56.789Z</time></trkpt><trkpt lat="42.9500417" lon="11.2619917"><ele>80.16666666666667</ele><time>2026-05-02T15:17:57.789Z</time></trkpt><trkpt lat="42.9500983" lon="11.2619067"><ele>80.33333333333334</ele><time>2026-05-02T15:17:58.789Z</time></trkpt><trkpt lat="42.95015" lon="11.26183"><ele>80.5</ele><time>2026-05-02T15:17:59.79Z</time></trkpt><trkpt lat="42.9501983" lon="11.261765"><ele>80.66666666666667</ele><time>2026-05-02T15:18:00.791Z</time></trkpt><trkpt lat="42.950275" lon="11.2616583"><ele>80.83333333333333</ele><time>2026-05-02T15:18:02.79Z</time></trkpt><trkpt lat="42.9503633" lon="11.2615917"><ele>81.0</ele><time>2026-05-02T15:18:04.789Z</time></trkpt><trkpt lat="42.950485" lon="11.26152"><ele>81.0</ele><time>2026-05-02T15:18:06.79Z</time></trkpt><trkpt lat="42.950545" lon="11.261455"><ele>81.0</ele><time>2026-05-02T15:18:07.788Z</time></trkpt><trkpt lat="42.9506033" lon="11.2613783"><ele>81.0</ele><time>2026-05-02T15:18:08.789Z</time></trkpt><trkpt lat="42.9506617" lon="11.2612917"><ele>81.0</ele><time>2026-05-02T15:18:09.788Z</time></trkpt><trkpt lat="42.9507183" lon="11.2612067"><ele>81.0</ele><time>2026-05-02T15:18:10.788Z</time></trkpt><trkpt lat="42.950775" lon="11.2611167"><ele>81.0</ele><time>2026-05-02T15:18:11.788Z</time></trkpt><trkpt lat="42.9508367" lon="11.261035"><ele>81.19999999999999</ele><time>2026-05-02T15:18:12.79Z</time></trkpt><trkpt lat="42.9508967" lon="11.2609433"><ele>81.39999999999999</ele><time>2026-05-02T15:18:13.79Z</time></trkpt><trkpt lat="42.95096" lon="11.26084"><ele>81.6</ele><time>2026-05-02T15:18:14.789Z</time></trkpt><trkpt lat="42.9510283" lon="11.26073"><ele>81.8</ele><time>2026-05-02T15:18:15.788Z</time></trkpt><trkpt lat="42.9511083" lon="11.2606233"><ele>82.0</ele><time>2026-05-02T15:18:16.788Z</time></trkpt><trkpt lat="42.9512" lon="11.26053"><ele>82.0</ele><time>2026-05-02T15:18:17.789Z</time></trkpt><trkpt lat="42.9512967" lon="11.2604333"><ele>82.0</ele><time>2026-05-02T15:18:18.789Z</time></trkpt><trkpt lat="42.9513983" lon="11.2603283"><ele>82.0</ele><time>2026-05-02T15:18:19.788Z</time></trkpt><trkpt lat="42.9515033" lon="11.2602217"><ele>82.0</ele><time>2026-05-02T15:18:20.79Z</time></trkpt><trkpt lat="42.9516067" lon="11.2601133"><ele>82.0</ele><time>2026-05-02T15:18:21.788Z</time></trkpt><trkpt lat="42.951705" lon="11.2600117"><ele>82.0</ele><time>2026-05-02T15:18:22.79Z</time></trkpt><trkpt lat="42.9517967" lon="11.259915"><ele>82.0</ele><time>2026-05-02T15:18:23.788Z</time></trkpt><trkpt lat="42.9518817" lon="11.25983"><ele>82.0</ele><time>2026-05-02T15:18:24.789Z</time></trkpt><trkpt lat="42.9519617" lon="11.25975"><ele>82.0</ele><time>2026-05-02T15:18:25.789Z</time></trkpt><trkpt lat="42.952035" lon="11.2596817"><ele>82.39999999999999</ele><time>2026-05-02T15:18:26.79Z</time></trkpt><trkpt lat="42.952105" lon="11.2596183"><ele>82.8</ele><time>2026-05-02T15:18:27.789Z</time></trkpt><trkpt lat="42.9521717" lon="11.2595717"><ele>83.2</ele><time>2026-05-02T15:18:28.788Z</time></trkpt><trkpt lat="42.9522967" lon="11.2595517"><ele>83.6</ele><time>2026-05-02T15:18:30.789Z</time></trkpt><trkpt lat="42.95238" lon="11.2595617"><ele>84.0</ele><time>2026-05-02T15:18:31.79Z</time></trkpt><trkpt lat="42.9524783" lon="11.2595633"><ele>85.5</ele><time>2026-05-02T15:18:32.787Z</time></trkpt><trkpt lat="42.9525967" lon="11.25954"><ele>87.0</ele><time>2026-05-02T15:18:33.785Z</time></trkpt><trkpt lat="42.9527133" lon="11.2595083"><ele>88.5</ele><time>2026-05-02T15:18:34.789Z</time></trkpt><trkpt lat="42.9528317" lon="11.259475"><ele>90.0</ele><time>2026-05-02T15:18:35.785Z</time></trkpt><trkpt lat="42.9529583" lon="11.25943"><ele>90.0</ele><time>2026-05-02T15:18:36.789Z</time></trkpt><trkpt lat="42.9530867" lon="11.25938"><ele>90.0</ele><time>2026-05-02T15:18:37.79Z</time></trkpt><trkpt lat="42.9532133" lon="11.259335"><ele>90.0</ele><time>2026-05-02T15:18:38.789Z</time></trkpt><trkpt lat="42.953345" lon="11.259295"><ele>90.0</ele><time>2026-05-02T15:18:39.788Z</time></trkpt><trkpt lat="42.9534717" lon="11.2592583"><ele>91.0</ele><time>2026-05-02T15:18:40.79Z</time></trkpt><trkpt lat="42.9535933" lon="11.2592233"><ele>92.0</ele><time>2026-05-02T15:18:41.789Z</time></trkpt><trkpt lat="42.9537" lon="11.2591767"><ele>93.0</ele><time>2026-05-02T15:18:42.787Z</time></trkpt><trkpt lat="42.9538033" lon="11.2591033"><ele>94.0</ele><time>2026-05-02T15:18:43.788Z</time></trkpt><trkpt lat="42.9539017" lon="11.2590133"><ele>94.5</ele><time>2026-05-02T15:18:44.789Z</time></trkpt><trkpt lat="42.9539967" lon="11.2589067"><ele>95.0</ele><time>2026-05-02T15:18:45.786Z</time></trkpt><trkpt lat="42.954095" lon="11.2588"><ele>95.5</ele><time>2026-05-02T15:18:46.789Z</time></trkpt><trkpt lat="42.9541983" lon="11.2586967"><ele>96.0</ele><time>2026-05-02T15:18:47.79Z</time></trkpt><trkpt lat="42.9543" lon="11.2585817"><ele>97.25</ele><time>2026-05-02T15:18:48.789Z</time></trkpt><trkpt lat="42.9544" lon="11.2584683"><ele>98.5</ele><time>2026-05-02T15:18:49.788Z</time></trkpt><trkpt lat="42.9545" lon="11.25835"><ele>99.75</ele><time>2026-05-02T15:18:50.788Z</time></trkpt><trkpt lat="42.9546" lon="11.258225"><ele>101.0</ele><time>2026-05-02T15:18:51.789Z</time></trkpt><trkpt lat="42.954695" lon="11.2580933"><ele>101.0</ele><time>2026-05-02T15:18:52.789Z</time></trkpt><trkpt lat="42.95479" lon="11.2579667"><ele>101.0</ele><time>2026-05-02T15:18:53.789Z</time></trkpt><trkpt lat="42.9548867" lon="11.2578517"><ele>101.0</ele><time>2026-05-02T15:18:54.789Z</time></trkpt><trkpt lat="42.9549733" lon="11.257735"><ele>101.0</ele><time>2026-05-02T15:18:55.788Z</time></trkpt><trkpt lat="42.955055" lon="11.2576083"><ele>102.5</ele><time>2026-05-02T15:18:56.79Z</time></trkpt><trkpt lat="42.955135" lon="11.25748"><ele>104.0</ele><time>2026-05-02T15:18:57.789Z</time></trkpt><trkpt lat="42.9552233" lon="11.2573583"><ele>105.5</ele><time>2026-05-02T15:18:58.788Z</time></trkpt><trkpt lat="42.955325" lon="11.2572417"><ele>107.0</ele><time>2026-05-02T15:18:59.789Z</time></trkpt><trkpt lat="42.9554283" lon="11.2571267"><ele>107.0</ele><time>2026-05-02T15:19:00.789Z</time></trkpt><trkpt lat="42.95554" lon="11.2570167"><ele>107.0</ele><time>2026-05-02T15:19:01.789Z</time></trkpt><trkpt lat="42.95565" lon="11.2569067"><ele>107.0</ele><time>2026-05-02T15:19:02.789Z</time></trkpt><trkpt lat="42.9557617" lon="11.2568083"><ele>107.0</ele><time>2026-05-02T15:19:03.787Z</time></trkpt><trkpt lat="42.955865" lon="11.2567267"><ele>109.25</ele><time>2026-05-02T15:19:04.786Z</time></trkpt><trkpt lat="42.955965" lon="11.256665"><ele>111.5</ele><time>2026-05-02T15:19:05.788Z</time></trkpt><trkpt lat="42.956075" lon="11.2566183"><ele>113.75</ele><time>2026-05-02T15:19:06.789Z</time></trkpt><trkpt lat="42.9561867" lon="11.25659"><ele>116.0</ele><time>2026-05-02T15:19:07.789Z</time></trkpt><trkpt lat="42.9563033" lon="11.25656"><ele>116.0</ele><time>2026-05-02T15:19:08.789Z</time></trkpt><trkpt lat="42.9564233" lon="11.2565333"><ele>116.0</ele><time>2026-05-02T15:19:09.785Z</time></trkpt><trkpt lat="42.9565383" lon="11.2565067"><ele>116.0</ele><time>2026-05-02T15:19:10.789Z</time></trkpt><trkpt lat="42.9566617" lon="11.256485"><ele>116.0</ele><time>2026-05-02T15:19:11.789Z</time></trkpt><trkpt lat="42.956785" lon="11.2564833"><ele>117.75</ele><time>2026-05-02T15:19:12.789Z</time></trkpt><trkpt lat="42.9569167" lon="11.2564883"><ele>119.5</ele><time>2026-05-02T15:19:13.789Z</time></trkpt><trkpt lat="42.957045" lon="11.2565083"><ele>121.25</ele><time>2026-05-02T15:19:14.789Z</time></trkpt><trkpt lat="42.9571683" lon="11.256545"><ele>123.0</ele><time>2026-05-02T15:19:15.786Z</time></trkpt><trkpt lat="42.95729" lon="11.2565933"><ele>123.0</ele><time>2026-05-02T15:19:16.789Z</time></trkpt><trkpt lat="42.957395" lon="11.2566717"><ele>123.0</ele><time>2026-05-02T15:19:17.789Z</time></trkpt><trkpt lat="42.9575" lon="11.2567533"><ele>123.0</ele><time>2026-05-02T15:19:18.789Z</time></trkpt><trkpt lat="42.9576133" lon="11.2568217"><ele>123.0</ele><time>2026-05-02T15:19:19.789Z</time></trkpt><trkpt lat="42.9577317" lon="11.2568783"><ele>125.25</ele><time>2026-05-02T15:19:20.789Z</time></trkpt><trkpt lat="42.95785" lon="11.256935"><ele>127.5</ele><time>2026-05-02T15:19:21.789Z</time></trkpt><trkpt lat="42.9579633" lon="11.25699"><ele>129.75</ele><time>2026-05-02T15:19:22.785Z</time></trkpt><trkpt lat="42.958075" lon="11.2570333"><ele>132.0</ele><time>2026-05-02T15:19:23.789Z</time></trkpt><trkpt lat="42.9581833" lon="11.2570683"><ele>132.0</ele><time>2026-05-02T15:19:24.789Z</time></trkpt><trkpt lat="42.9582967" lon="11.2570817"><ele>132.0</ele><time>2026-05-02T15:19:25.789Z</time></trkpt><trkpt lat="42.9584133" lon="11.2570783"><ele>132.0</ele><time>2026-05-02T15:19:26.79Z</time></trkpt><trkpt lat="42.9585417" lon="11.2570683"><ele>132.0</ele><time>2026-05-02T15:19:27.79Z</time></trkpt><trkpt lat="42.9586633" lon="11.2570533"><ele>133.0</ele><time>2026-05-02T15:19:28.789Z</time></trkpt><trkpt lat="42.958795" lon="11.2570333"><ele>134.0</ele><time>2026-05-02T15:19:29.79Z</time></trkpt><trkpt lat="42.9589133" lon="11.25701"><ele>135.0</ele><time>2026-05-02T15:19:30.791Z</time></trkpt><trkpt lat="42.959015" lon="11.2569717"><ele>136.0</ele><time>2026-05-02T15:19:31.789Z</time></trkpt><trkpt lat="42.9591067" lon="11.2569117"><ele>136.0</ele><time>2026-05-02T15:19:32.79Z</time></trkpt><trkpt lat="42.9591833" lon="11.2568267"><ele>136.0</ele><time>2026-05-02T15:19:33.789Z</time></trkpt><trkpt lat="42.9592467" lon="11.2567383"><ele>136.0</ele><time>2026-05-02T15:19:34.789Z</time></trkpt><trkpt lat="42.9592983" lon="11.2566533"><ele>136.0</ele><time>2026-05-02T15:19:35.789Z</time></trkpt><trkpt lat="42.9593483" lon="11.256565"><ele>136.0</ele><time>2026-05-02T15:19:36.793Z</time></trkpt><trkpt lat="42.95939" lon="11.2564683"><ele>136.0</ele><time>2026-05-02T15:19:37.793Z</time></trkpt><trkpt lat="42.9594317" lon="11.25638"><ele>136.5</ele><time>2026-05-02T15:19:38.79Z</time></trkpt><trkpt lat="42.959475" lon="11.2563017"><ele>137.0</ele><time>2026-05-02T15:19:39.789Z</time></trkpt><trkpt lat="42.9595333" lon="11.2562333"><ele>137.5</ele><time>2026-05-02T15:19:40.789Z</time></trkpt><trkpt lat="42.959605" lon="11.25618"><ele>138.0</ele><time>2026-05-02T15:19:41.786Z</time></trkpt><trkpt lat="42.9596817" lon="11.2561483"><ele>138.5</ele><time>2026-05-02T15:19:42.789Z</time></trkpt><trkpt lat="42.959765" lon="11.2561333"><ele>139.0</ele><time>2026-05-02T15:19:43.79Z</time></trkpt><trkpt lat="42.9598633" lon="11.2561217"><ele>139.0</ele><time>2026-05-02T15:19:44.789Z</time></trkpt><trkpt lat="42.9599617" lon="11.25611"><ele>139.0</ele><time>2026-05-02T15:19:45.79Z</time></trkpt><trkpt lat="42.9600717" lon="11.2560983"><ele>139.0</ele><time>2026-05-02T15:19:46.786Z</time></trkpt><trkpt lat="42.96018" lon="11.2560883"><ele>139.0</ele><time>2026-05-02T15:19:47.786Z</time></trkpt><trkpt lat="42.9602733" lon="11.2560833"><ele>139.0</ele><time>2026-05-02T15:19:48.785Z</time></trkpt><trkpt lat="42.9603633" lon="11.256075"><ele>138.2</ele><time>2026-05-02T15:19:49.786Z</time></trkpt><trkpt lat="42.9604517" lon="11.256055"><ele>137.4</ele><time>2026-05-02T15:19:50.788Z</time></trkpt><trkpt lat="42.9605283" lon="11.2560167"><ele>136.6</ele><time>2026-05-02T15:19:51.786Z</time></trkpt><trkpt lat="42.9606067" lon="11.255965"><ele>135.8</ele><time>2026-05-02T15:19:52.786Z</time></trkpt><trkpt lat="42.9606983" lon="11.2558833"><ele>135.0</ele><time>2026-05-02T15:19:53.787Z</time></trkpt><trkpt lat="42.960785" lon="11.2558083"><ele>134.4</ele><time>2026-05-02T15:19:54.791Z</time></trkpt><trkpt lat="42.9608733" lon="11.25574"><ele>133.8</ele><time>2026-05-02T15:19:55.789Z</time></trkpt><trkpt lat="42.960955" lon="11.255695"><ele>133.2</ele><time>2026-05-02T15:19:56.786Z</time></trkpt><trkpt lat="42.96103" lon="11.2556517"><ele>132.6</ele><time>2026-05-02T15:19:57.786Z</time></trkpt><trkpt lat="42.96115" lon="11.2556"><ele>132.0</ele><time>2026-05-02T15:19:59.787Z</time></trkpt><trkpt lat="42.9612183" lon="11.2555833"><ele>132.2</ele><time>2026-05-02T15:20:00.786Z</time></trkpt><trkpt lat="42.961305" lon="11.2555683"><ele>132.39999999999998</ele><time>2026-05-02T15:20:01.786Z</time></trkpt><trkpt lat="42.9614067" lon="11.255555"><ele>132.60000000000002</ele><time>2026-05-02T15:20:02.786Z</time></trkpt><trkpt lat="42.9615083" lon="11.25554"><ele>132.8</ele><time>2026-05-02T15:20:03.789Z</time></trkpt><trkpt lat="42.9616083" lon="11.2555217"><ele>133.0</ele><time>2026-05-02T15:20:04.789Z</time></trkpt><trkpt lat="42.9617067" lon="11.2555017"><ele>133.0</ele><time>2026-05-02T15:20:05.79Z</time></trkpt><trkpt lat="42.9617933" lon="11.2554917"><ele>133.0</ele><time>2026-05-02T15:20:06.789Z</time></trkpt><trkpt lat="42.96189" lon="11.2555017"><ele>133.0</ele><time>2026-05-02T15:20:07.789Z</time></trkpt><trkpt lat="42.96198" lon="11.2555383"><ele>133.0</ele><time>2026-05-02T15:20:08.786Z</time></trkpt><trkpt lat="42.9620733" lon="11.255595"><ele>133.0</ele><time>2026-05-02T15:20:09.787Z</time></trkpt><trkpt lat="42.9621617" lon="11.2556583"><ele>133.16666666666669</ele><time>2026-05-02T15:20:10.786Z</time></trkpt><trkpt lat="42.9622467" lon="11.25571"><ele>133.33333333333334</ele><time>2026-05-02T15:20:11.788Z</time></trkpt><trkpt lat="42.96233" lon="11.2557433"><ele>133.5</ele><time>2026-05-02T15:20:12.787Z</time></trkpt><trkpt lat="42.9624117" lon="11.2557433"><ele>133.66666666666666</ele><time>2026-05-02T15:20:13.788Z</time></trkpt><trkpt lat="42.9624833" lon="11.2557167"><ele>133.83333333333331</ele><time>2026-05-02T15:20:14.79Z</time></trkpt><trkpt lat="42.9625517" lon="11.255655"><ele>134.0</ele><time>2026-05-02T15:20:15.787Z</time></trkpt><trkpt lat="42.9626117" lon="11.2555583"><ele>135.8</ele><time>2026-05-02T15:20:16.787Z</time></trkpt><trkpt lat="42.9626467" lon="11.255425"><ele>137.60000000000002</ele><time>2026-05-02T15:20:17.786Z</time></trkpt><trkpt lat="42.962675" lon="11.2553133"><ele>139.4</ele><time>2026-05-02T15:20:18.787Z</time></trkpt><trkpt lat="42.9626967" lon="11.2552017"><ele>141.20000000000002</ele><time>2026-05-02T15:20:19.788Z</time></trkpt><trkpt lat="42.962705" lon="11.255085"><ele>143.0</ele><time>2026-05-02T15:20:20.786Z</time></trkpt><trkpt lat="42.9626917" lon="11.2549533"><ele>143.0</ele><time>2026-05-02T15:20:21.788Z</time></trkpt><trkpt lat="42.9626833" lon="11.2548317"><ele>143.0</ele><time>2026-05-02T15:20:22.788Z</time></trkpt><trkpt lat="42.9626733" lon="11.2547267"><ele>143.0</ele><time>2026-05-02T15:20:23.787Z</time></trkpt><trkpt lat="42.9626767" lon="11.2546233"><ele>143.0</ele><time>2026-05-02T15:20:24.787Z</time></trkpt><trkpt lat="42.9626983" lon="11.2545333"><ele>143.0</ele><time>2026-05-02T15:20:25.785Z</time></trkpt><trkpt lat="42.96273" lon="11.2544283"><ele>143.0</ele><time>2026-05-02T15:20:26.786Z</time></trkpt><trkpt lat="42.9627683" lon="11.2543167"><ele>143.4</ele><time>2026-05-02T15:20:27.786Z</time></trkpt><trkpt lat="42.96281" lon="11.2542117"><ele>143.8</ele><time>2026-05-02T15:20:28.787Z</time></trkpt><trkpt lat="42.9628617" lon="11.2541033"><ele>144.2</ele><time>2026-05-02T15:20:29.786Z</time></trkpt><trkpt lat="42.9629233" lon="11.2540017"><ele>144.6</ele><time>2026-05-02T15:20:30.786Z</time></trkpt><trkpt lat="42.9629917" lon="11.2539017"><ele>145.0</ele><time>2026-05-02T15:20:31.789Z</time></trkpt><trkpt lat="42.96306" lon="11.253795"><ele>145.0</ele><time>2026-05-02T15:20:32.786Z</time></trkpt><trkpt lat="42.9631283" lon="11.2536883"><ele>145.0</ele><time>2026-05-02T15:20:33.786Z</time></trkpt><trkpt lat="42.9631933" lon="11.2535817"><ele>145.0</ele><time>2026-05-02T15:20:34.786Z</time></trkpt><trkpt lat="42.9632617" lon="11.25346"><ele>145.0</ele><time>2026-05-02T15:20:35.79Z</time></trkpt><trkpt lat="42.9633233" lon="11.2533333"><ele>145.0</ele><time>2026-05-02T15:20:36.786Z</time></trkpt><trkpt lat="42.9633833" lon="11.2532133"><ele>145.2</ele><time>2026-05-02T15:20:37.786Z</time></trkpt><trkpt lat="42.9634417" lon="11.2531"><ele>145.4</ele><time>2026-05-02T15:20:38.787Z</time></trkpt><trkpt lat="42.963505" lon="11.253005"><ele>145.6</ele><time>2026-05-02T15:20:39.787Z</time></trkpt><trkpt lat="42.96356" lon="11.2529167"><ele>145.8</ele><time>2026-05-02T15:20:40.787Z</time></trkpt><trkpt lat="42.9636267" lon="11.252835"><ele>146.0</ele><time>2026-05-02T15:20:41.786Z</time></trkpt><trkpt lat="42.9637067" lon="11.2527583"><ele>146.0</ele><time>2026-05-02T15:20:42.789Z</time></trkpt><trkpt lat="42.9637933" lon="11.2526883"><ele>146.0</ele><time>2026-05-02T15:20:43.786Z</time></trkpt><trkpt lat="42.9638933" lon="11.2526183"><ele>146.0</ele><time>2026-05-02T15:20:44.787Z</time></trkpt><trkpt lat="42.9639983" lon="11.2525433"><ele>146.0</ele><time>2026-05-02T15:20:45.786Z</time></trkpt><trkpt lat="42.9641" lon="11.2524667"><ele>146.0</ele><time>2026-05-02T15:20:46.786Z</time></trkpt><trkpt lat="42.9642033" lon="11.2524"><ele>145.6</ele><time>2026-05-02T15:20:47.787Z</time></trkpt><trkpt lat="42.9643033" lon="11.2523417"><ele>145.2</ele><time>2026-05-02T15:20:48.787Z</time></trkpt><trkpt lat="42.9644" lon="11.2522817"><ele>144.8</ele><time>2026-05-02T15:20:49.787Z</time></trkpt><trkpt lat="42.9644983" lon="11.2522283"><ele>144.4</ele><time>2026-05-02T15:20:50.786Z</time></trkpt><trkpt lat="42.9645967" lon="11.252165"><ele>144.0</ele><time>2026-05-02T15:20:51.786Z</time></trkpt><trkpt lat="42.964695" lon="11.252095"><ele>143.6</ele><time>2026-05-02T15:20:52.786Z</time></trkpt><trkpt lat="42.964795" lon="11.2520133"><ele>143.2</ele><time>2026-05-02T15:20:53.791Z</time></trkpt><trkpt lat="42.9648917" lon="11.2519233"><ele>142.79999999999998</ele><time>2026-05-02T15:20:54.79Z</time></trkpt><trkpt lat="42.96498" lon="11.2518367"><ele>142.4</ele><time>2026-05-02T15:20:55.791Z</time></trkpt><trkpt lat="42.9650633" lon="11.25175"><ele>142.0</ele><time>2026-05-02T15:20:56.787Z</time></trkpt><trkpt lat="42.96515" lon="11.2516617"><ele>143.0</ele><time>2026-05-02T15:20:57.787Z</time></trkpt><trkpt lat="42.9652333" lon="11.2515583"><ele>144.0</ele><time>2026-05-02T15:20:58.79Z</time></trkpt><trkpt lat="42.9653267" lon="11.2514517"><ele>145.0</ele><time>2026-05-02T15:20:59.787Z</time></trkpt><trkpt lat="42.965415" lon="11.2513483"><ele>146.0</ele><time>2026-05-02T15:21:00.786Z</time></trkpt><trkpt lat="42.965495" lon="11.2512583"><ele>146.16666666666666</ele><time>2026-05-02T15:21:01.786Z</time></trkpt><trkpt lat="42.9655683" lon="11.2511867"><ele>146.33333333333331</ele><time>2026-05-02T15:21:02.786Z</time></trkpt><trkpt lat="42.9656367" lon="11.2511233"><ele>146.5</ele><time>2026-05-02T15:21:03.789Z</time></trkpt><trkpt lat="42.965705" lon="11.25107"><ele>146.66666666666666</ele><time>2026-05-02T15:21:04.79Z</time></trkpt><trkpt lat="42.9657683" lon="11.2510283"><ele>146.83333333333334</ele><time>2026-05-02T15:21:05.786Z</time></trkpt><trkpt lat="42.96584" lon="11.2509833"><ele>147.0</ele><time>2026-05-02T15:21:06.787Z</time></trkpt><trkpt lat="42.965905" lon="11.2509417"><ele>147.0</ele><time>2026-05-02T15:21:07.786Z</time></trkpt><trkpt lat="42.9659667" lon="11.2509017"><ele>147.0</ele><time>2026-05-02T15:21:08.788Z</time></trkpt><trkpt lat="42.9660767" lon="11.2508467"><ele>147.0</ele><time>2026-05-02T15:21:10.788Z</time></trkpt><trkpt lat="42.966145" lon="11.250795"><ele>147.0</ele><time>2026-05-02T15:21:12.788Z</time></trkpt><trkpt lat="42.96616" lon="11.250685"><ele>147.0</ele><time>2026-05-02T15:21:15.786Z</time></trkpt><trkpt lat="42.9661217" lon="11.25057"><ele>147.0</ele><time>2026-05-02T15:21:17.788Z</time></trkpt><trkpt lat="42.9660867" lon="11.250475"><ele>146.0</ele><time>2026-05-02T15:21:19.789Z</time></trkpt><trkpt lat="42.9660433" lon="11.2504067"><ele>145.0</ele><time>2026-05-02T15:21:22.789Z</time></trkpt><trkpt lat="42.9659967" lon="11.2503317"><ele>144.0</ele><time>2026-05-02T15:21:46.789Z</time></trkpt><trkpt lat="42.9657617" lon="11.2500383"><ele>144.0</ele><time>2026-05-02T15:22:31.046Z</time></trkpt><trkpt lat="42.96592" lon="11.25025"><ele>144.0</ele><time>2026-05-02T15:22:32.287Z</time></trkpt><trkpt lat="42.96586" lon="11.25016"><ele>144.0</ele><time>2026-05-02T15:22:46.786Z</time></trkpt><trkpt lat="42.965775" lon="11.250125"><ele>144.0</ele><time>2026-05-02T15:22:48.786Z</time></trkpt><trkpt lat="42.9656483" lon="11.2501083"><ele>144.0</ele><time>2026-05-02T15:22:50.787Z</time></trkpt><trkpt lat="42.965575" lon="11.2501"><ele>144.0</ele><time>2026-05-02T15:22:51.787Z</time></trkpt><trkpt lat="42.9654983" lon="11.250095"><ele>144.0</ele><time>2026-05-02T15:22:52.786Z</time></trkpt><trkpt lat="42.9654167" lon="11.25009"><ele>144.0</ele><time>2026-05-02T15:22:53.786Z</time></trkpt><trkpt lat="42.9653233" lon="11.2500817"><ele>144.0</ele><time>2026-05-02T15:22:54.785Z</time></trkpt><trkpt lat="42.9652333" lon="11.250075"><ele>144.0</ele><time>2026-05-02T15:22:55.787Z</time></trkpt><trkpt lat="42.965145" lon="11.25007"><ele>144.0</ele><time>2026-05-02T15:22:56.786Z</time></trkpt><trkpt lat="42.9650617" lon="11.250065"><ele>144.0</ele><time>2026-05-02T15:22:57.785Z</time></trkpt><trkpt lat="42.96498" lon="11.25006"><ele>144.0</ele><time>2026-05-02T15:22:58.787Z</time></trkpt><trkpt lat="42.9648983" lon="11.250055"><ele>144.0</ele><time>2026-05-02T15:22:59.787Z</time></trkpt><trkpt lat="42.9648167" lon="11.2500567"><ele>144.0</ele><time>2026-05-02T15:23:00.786Z</time></trkpt><trkpt lat="42.96473" lon="11.2500633"><ele>144.0</ele><time>2026-05-02T15:23:01.786Z</time></trkpt><trkpt lat="42.9646467" lon="11.2500717"><ele>143.2857142857143</ele><time>2026-05-02T15:23:02.788Z</time></trkpt><trkpt lat="42.9645717" lon="11.2500817"><ele>142.57142857142858</ele><time>2026-05-02T15:23:03.787Z</time></trkpt><trkpt lat="42.9645" lon="11.2500817"><ele>141.85714285714286</ele><time>2026-05-02T15:23:04.786Z</time></trkpt><trkpt lat="42.9644317" lon="11.250075"><ele>141.14285714285717</ele><time>2026-05-02T15:23:05.786Z</time></trkpt><trkpt lat="42.9643583" lon="11.2500617"><ele>140.42857142857144</ele><time>2026-05-02T15:23:06.787Z</time></trkpt><trkpt lat="42.9642883" lon="11.250045"><ele>139.71428571428572</ele><time>2026-05-02T15:23:07.786Z</time></trkpt><trkpt lat="42.9642233" lon="11.250025"><ele>139.0</ele><time>2026-05-02T15:23:08.787Z</time></trkpt><trkpt lat="42.9641" lon="11.2499667"><ele>138.33333333333334</ele><time>2026-05-02T15:23:10.787Z</time></trkpt><trkpt lat="42.9640333" lon="11.249925"><ele>137.66666666666669</ele><time>2026-05-02T15:23:11.786Z</time></trkpt><trkpt lat="42.96396" lon="11.2498767"><ele>137.0</ele><time>2026-05-02T15:23:12.786Z</time></trkpt><trkpt lat="42.963885" lon="11.2498333"><ele>136.33333333333334</ele><time>2026-05-02T15:23:13.787Z</time></trkpt><trkpt lat="42.9638083" lon="11.2497933"><ele>135.66666666666666</ele><time>2026-05-02T15:23:14.787Z</time></trkpt><trkpt lat="42.9637317" lon="11.24975"><ele>135.0</ele><time>2026-05-02T15:23:15.786Z</time></trkpt><trkpt lat="42.963655" lon="11.2497167"><ele>135.42857142857142</ele><time>2026-05-02T15:23:16.787Z</time></trkpt><trkpt lat="42.9635867" lon="11.249685"><ele>135.85714285714283</ele><time>2026-05-02T15:23:17.787Z</time></trkpt><trkpt lat="42.9635183" lon="11.2496567"><ele>136.28571428571428</ele><time>2026-05-02T15:23:18.786Z</time></trkpt><trkpt lat="42.9634567" lon="11.24962"><ele>136.71428571428572</ele><time>2026-05-02T15:23:19.786Z</time></trkpt><trkpt lat="42.9633917" lon="11.24959"><ele>137.14285714285717</ele><time>2026-05-02T15:23:20.786Z</time></trkpt><trkpt lat="42.9633183" lon="11.2495617"><ele>137.57142857142858</ele><time>2026-05-02T15:23:21.786Z</time></trkpt><trkpt lat="42.9632467" lon="11.24954"><ele>138.0</ele><time>2026-05-02T15:23:22.787Z</time></trkpt><trkpt lat="42.96317" lon="11.24952"><ele>138.0</ele><time>2026-05-02T15:23:23.788Z</time></trkpt><trkpt lat="42.9630833" lon="11.2495033"><ele>138.0</ele><time>2026-05-02T15:23:24.786Z</time></trkpt><trkpt lat="42.9629983" lon="11.249495"><ele>138.0</ele><time>2026-05-02T15:23:25.787Z</time></trkpt><trkpt lat="42.9629133" lon="11.2495"><ele>138.0</ele><time>2026-05-02T15:23:26.786Z</time></trkpt><trkpt lat="42.96283" lon="11.249515"><ele>138.0</ele><time>2026-05-02T15:23:27.786Z</time></trkpt><trkpt lat="42.9627417" lon="11.24954"><ele>138.0</ele><time>2026-05-02T15:23:28.786Z</time></trkpt><trkpt lat="42.9626567" lon="11.2495667"><ele>138.0</ele><time>2026-05-02T15:23:29.786Z</time></trkpt><trkpt lat="42.9625783" lon="11.2495917"><ele>138.0</ele><time>2026-05-02T15:23:30.786Z</time></trkpt><trkpt lat="42.9625017" lon="11.249615"><ele>138.0</ele><time>2026-05-02T15:23:31.786Z</time></trkpt><trkpt lat="42.96243" lon="11.24964"><ele>138.0</ele><time>2026-05-02T15:23:32.786Z</time></trkpt><trkpt lat="42.96236" lon="11.2496717"><ele>138.0</ele><time>2026-05-02T15:23:33.787Z</time></trkpt><trkpt lat="42.9622917" lon="11.249705"><ele>138.0</ele><time>2026-05-02T15:23:34.786Z</time></trkpt><trkpt lat="42.9622267" lon="11.2497333"><ele>138.0</ele><time>2026-05-02T15:23:35.787Z</time></trkpt><trkpt lat="42.96211" lon="11.2497483"><ele>137.8</ele><time>2026-05-02T15:23:37.786Z</time></trkpt><trkpt lat="42.962005" lon="11.2497117"><ele>137.60000000000002</ele><time>2026-05-02T15:23:39.786Z</time></trkpt><trkpt lat="42.9618983" lon="11.249615"><ele>137.39999999999998</ele><time>2026-05-02T15:23:41.787Z</time></trkpt><trkpt lat="42.961835" lon="11.24955"><ele>137.2</ele><time>2026-05-02T15:23:42.786Z</time></trkpt><trkpt lat="42.961775" lon="11.249485"><ele>137.0</ele><time>2026-05-02T15:23:43.786Z</time></trkpt><trkpt lat="42.9617017" lon="11.2494067"><ele>136.83333333333331</ele><time>2026-05-02T15:23:44.789Z</time></trkpt><trkpt lat="42.9616283" lon="11.2493317"><ele>136.66666666666666</ele><time>2026-05-02T15:23:45.789Z</time></trkpt><trkpt lat="42.96156" lon="11.24926"><ele>136.5</ele><time>2026-05-02T15:23:46.791Z</time></trkpt><trkpt lat="42.9615067" lon="11.2491917"><ele>136.33333333333334</ele><time>2026-05-02T15:23:47.789Z</time></trkpt><trkpt lat="42.96145" lon="11.24912"><ele>136.16666666666669</ele><time>2026-05-02T15:23:48.789Z</time></trkpt><trkpt lat="42.9613967" lon="11.2490483"><ele>136.0</ele><time>2026-05-02T15:23:49.79Z</time></trkpt><trkpt lat="42.9613483" lon="11.248975"><ele>134.33333333333334</ele><time>2026-05-02T15:23:50.79Z</time></trkpt><trkpt lat="42.9612983" lon="11.2488933"><ele>132.66666666666669</ele><time>2026-05-02T15:23:51.789Z</time></trkpt><trkpt lat="42.9612467" lon="11.24881"><ele>131.0</ele><time>2026-05-02T15:23:52.79Z</time></trkpt><trkpt lat="42.961195" lon="11.2487283"><ele>129.33333333333334</ele><time>2026-05-02T15:23:53.789Z</time></trkpt><trkpt lat="42.9611417" lon="11.248645"><ele>127.66666666666667</ele><time>2026-05-02T15:23:54.789Z</time></trkpt><trkpt lat="42.96109" lon="11.24857"><ele>126.0</ele><time>2026-05-02T15:23:55.789Z</time></trkpt><trkpt lat="42.961045" lon="11.24849"><ele>126.0</ele><time>2026-05-02T15:23:56.789Z</time></trkpt><trkpt lat="42.9609883" lon="11.2484067"><ele>126.0</ele><time>2026-05-02T15:23:57.791Z</time></trkpt><trkpt lat="42.9609317" lon="11.248325"><ele>126.0</ele><time>2026-05-02T15:23:58.791Z</time></trkpt><trkpt lat="42.9608767" lon="11.2482567"><ele>126.0</ele><time>2026-05-02T15:23:59.789Z</time></trkpt><trkpt lat="42.9608233" lon="11.2481967"><ele>126.0</ele><time>2026-05-02T15:24:00.786Z</time></trkpt><trkpt lat="42.9607667" lon="11.2481433"><ele>126.0</ele><time>2026-05-02T15:24:01.79Z</time></trkpt><trkpt lat="42.9607117" lon="11.248095"><ele>126.0</ele><time>2026-05-02T15:24:02.788Z</time></trkpt><trkpt lat="42.9606167" lon="11.2480133"><ele>126.83333333333333</ele><time>2026-05-02T15:24:04.789Z</time></trkpt><trkpt lat="42.9605067" lon="11.2479183"><ele>127.66666666666666</ele><time>2026-05-02T15:24:06.788Z</time></trkpt><trkpt lat="42.9604467" lon="11.247865"><ele>128.5</ele><time>2026-05-02T15:24:07.785Z</time></trkpt><trkpt lat="42.9603867" lon="11.2478117"><ele>129.33333333333331</ele><time>2026-05-02T15:24:08.787Z</time></trkpt><trkpt lat="42.96033" lon="11.24777"><ele>130.16666666666666</ele><time>2026-05-02T15:24:09.787Z</time></trkpt><trkpt lat="42.9602717" lon="11.24773"><ele>131.0</ele><time>2026-05-02T15:24:10.787Z</time></trkpt><trkpt lat="42.9602033" lon="11.2476967"><ele>131.0</ele><time>2026-05-02T15:24:11.786Z</time></trkpt><trkpt lat="42.96013" lon="11.2476633"><ele>131.0</ele><time>2026-05-02T15:24:12.788Z</time></trkpt><trkpt lat="42.9600567" lon="11.2476283"><ele>131.0</ele><time>2026-05-02T15:24:13.789Z</time></trkpt><trkpt lat="42.9599867" lon="11.247605"><ele>131.0</ele><time>2026-05-02T15:24:14.785Z</time></trkpt><trkpt lat="42.9599133" lon="11.2475867"><ele>131.0</ele><time>2026-05-02T15:24:15.788Z</time></trkpt><trkpt lat="42.959835" lon="11.24756"><ele>131.0</ele><time>2026-05-02T15:24:16.788Z</time></trkpt><trkpt lat="42.9597717" lon="11.2475333"><ele>131.0</ele><time>2026-05-02T15:24:17.786Z</time></trkpt><trkpt lat="42.9597117" lon="11.2475033"><ele>130.85714285714286</ele><time>2026-05-02T15:24:18.789Z</time></trkpt><trkpt lat="42.9596467" lon="11.2474733"><ele>130.71428571428572</ele><time>2026-05-02T15:24:19.786Z</time></trkpt><trkpt lat="42.95958" lon="11.2474517"><ele>130.57142857142858</ele><time>2026-05-02T15:24:20.785Z</time></trkpt><trkpt lat="42.959505" lon="11.24743"><ele>130.42857142857144</ele><time>2026-05-02T15:24:21.785Z</time></trkpt><trkpt lat="42.959435" lon="11.24742"><ele>130.28571428571428</ele><time>2026-05-02T15:24:22.785Z</time></trkpt><trkpt lat="42.9593633" lon="11.2474017"><ele>130.14285714285717</ele><time>2026-05-02T15:24:23.788Z</time></trkpt><trkpt lat="42.959295" lon="11.2473833"><ele>130.0</ele><time>2026-05-02T15:24:24.785Z</time></trkpt><trkpt lat="42.9591733" lon="11.2473583"><ele>127.75</ele><time>2026-05-02T15:24:26.785Z</time></trkpt><trkpt lat="42.9590633" lon="11.2473083"><ele>125.5</ele><time>2026-05-02T15:24:28.788Z</time></trkpt><trkpt lat="42.9589633" lon="11.2472633"><ele>123.25</ele><time>2026-05-02T15:24:30.786Z</time></trkpt><trkpt lat="42.958845" lon="11.2472333"><ele>121.0</ele><time>2026-05-02T15:24:32.786Z</time></trkpt><trkpt lat="42.95873" lon="11.2472217"><ele>121.0</ele><time>2026-05-02T15:24:34.786Z</time></trkpt><trkpt lat="42.9586217" lon="11.2472683"><ele>121.0</ele><time>2026-05-02T15:24:36.79Z</time></trkpt><trkpt lat="42.9585217" lon="11.2473433"><ele>121.0</ele><time>2026-05-02T15:24:38.786Z</time></trkpt><trkpt lat="42.95843" lon="11.2474133"><ele>121.0</ele><time>2026-05-02T15:24:40.785Z</time></trkpt><trkpt lat="42.95835" lon="11.247485"><ele>121.0</ele><time>2026-05-02T15:24:42.785Z</time></trkpt><trkpt lat="42.958275" lon="11.2475467"><ele>119.50000000000001</ele><time>2026-05-02T15:24:44.788Z</time></trkpt><trkpt lat="42.958195" lon="11.2475583"><ele>118.0</ele><time>2026-05-02T15:24:46.786Z</time></trkpt><trkpt lat="42.9581217" lon="11.247515"><ele>116.5</ele><time>2026-05-02T15:24:48.789Z</time></trkpt><trkpt lat="42.95805" lon="11.2474733"><ele>115.0</ele><time>2026-05-02T15:24:50.785Z</time></trkpt><trkpt lat="42.95798" lon="11.24742"><ele>113.50000000000001</ele><time>2026-05-02T15:24:52.785Z</time></trkpt><trkpt lat="42.9579317" lon="11.2473383"><ele>112.0</ele><time>2026-05-02T15:24:54.79Z</time></trkpt><trkpt lat="42.9578617" lon="11.2472617"><ele>111.19999999999999</ele><time>2026-05-02T15:24:56.789Z</time></trkpt><trkpt lat="42.9577617" lon="11.2471767"><ele>110.39999999999999</ele><time>2026-05-02T15:24:58.788Z</time></trkpt><trkpt lat="42.957665" lon="11.2471017"><ele>109.60000000000001</ele><time>2026-05-02T15:25:00.789Z</time></trkpt><trkpt lat="42.9576033" lon="11.2470683"><ele>108.80000000000001</ele><time>2026-05-02T15:25:04.789Z</time></trkpt><trkpt lat="42.9575133" lon="11.2470167"><ele>108.0</ele><time>2026-05-02T15:25:07.789Z</time></trkpt><trkpt lat="42.9573933" lon="11.2469317"><ele>107.0</ele><time>2026-05-02T15:25:09.788Z</time></trkpt><trkpt lat="42.957335" lon="11.2468817"><ele>106.0</ele><time>2026-05-02T15:25:10.789Z</time></trkpt><trkpt lat="42.9572833" lon="11.246825"><ele>105.0</ele><time>2026-05-02T15:25:11.786Z</time></trkpt><trkpt lat="42.95724" lon="11.2467533"><ele>104.0</ele><time>2026-05-02T15:25:12.786Z</time></trkpt><trkpt lat="42.9572083" lon="11.246675"><ele>103.0</ele><time>2026-05-02T15:25:13.789Z</time></trkpt><trkpt lat="42.95719" lon="11.24659"><ele>102.0</ele><time>2026-05-02T15:25:14.785Z</time></trkpt><trkpt lat="42.9571483" lon="11.2464967"><ele>101.0</ele><time>2026-05-02T15:25:15.785Z</time></trkpt><trkpt lat="42.9570833" lon="11.246395"><ele>99.99999999999999</ele><time>2026-05-02T15:25:16.79Z</time></trkpt><trkpt lat="42.957005" lon="11.246315"><ele>99.0</ele><time>2026-05-02T15:25:17.787Z</time></trkpt><trkpt lat="42.95693" lon="11.24625"><ele>98.0</ele><time>2026-05-02T15:25:18.788Z</time></trkpt><trkpt lat="42.95685" lon="11.24619"><ele>97.0</ele><time>2026-05-02T15:25:19.788Z</time></trkpt><trkpt lat="42.9567767" lon="11.2461417"><ele>96.0</ele><time>2026-05-02T15:25:20.789Z</time></trkpt><trkpt lat="42.956715" lon="11.2460983"><ele>95.0</ele><time>2026-05-02T15:25:21.789Z</time></trkpt><trkpt lat="42.956655" lon="11.24605"><ele>94.5</ele><time>2026-05-02T15:25:22.79Z</time></trkpt><trkpt lat="42.9565983" lon="11.2460067"><ele>94.0</ele><time>2026-05-02T15:25:23.79Z</time></trkpt><trkpt lat="42.9565117" lon="11.24592"><ele>93.5</ele><time>2026-05-02T15:25:25.789Z</time></trkpt><trkpt lat="42.9564667" lon="11.2457917"><ele>93.0</ele><time>2026-05-02T15:25:27.785Z</time></trkpt><trkpt lat="42.9564717" lon="11.2456917"><ele>92.5</ele><time>2026-05-02T15:25:28.787Z</time></trkpt><trkpt lat="42.9564983" lon="11.2455767"><ele>92.0</ele><time>2026-05-02T15:25:29.786Z</time></trkpt><trkpt lat="42.95653" lon="11.24547"><ele>91.0</ele><time>2026-05-02T15:25:30.788Z</time></trkpt><trkpt lat="42.9565617" lon="11.2453767"><ele>90.0</ele><time>2026-05-02T15:25:31.785Z</time></trkpt><trkpt lat="42.9565967" lon="11.2452317"><ele>89.0</ele><time>2026-05-02T15:25:33.786Z</time></trkpt><trkpt lat="42.9565717" lon="11.245115"><ele>88.0</ele><time>2026-05-02T15:25:35.786Z</time></trkpt><trkpt lat="42.9565317" lon="11.2450483"><ele>87.0</ele><time>2026-05-02T15:25:36.786Z</time></trkpt><trkpt lat="42.9564767" lon="11.2449717"><ele>86.0</ele><time>2026-05-02T15:25:37.786Z</time></trkpt><trkpt lat="42.956405" lon="11.244885"><ele>85.4</ele><time>2026-05-02T15:25:38.786Z</time></trkpt><trkpt lat="42.956325" lon="11.2447933"><ele>84.8</ele><time>2026-05-02T15:25:39.786Z</time></trkpt><trkpt lat="42.9562417" lon="11.2446983"><ele>84.2</ele><time>2026-05-02T15:25:40.786Z</time></trkpt><trkpt lat="42.9561617" lon="11.2446117"><ele>83.60000000000001</ele><time>2026-05-02T15:25:41.786Z</time></trkpt><trkpt lat="42.95609" lon="11.2445333"><ele>83.0</ele><time>2026-05-02T15:25:42.79Z</time></trkpt><trkpt lat="42.95603" lon="11.2444683"><ele>83.0</ele><time>2026-05-02T15:25:43.789Z</time></trkpt><trkpt lat="42.95596" lon="11.2443683"><ele>83.0</ele><time>2026-05-02T15:25:45.789Z</time></trkpt><trkpt lat="42.9559967" lon="11.244265"><ele>83.0</ele><time>2026-05-02T15:25:47.789Z</time></trkpt><trkpt lat="42.9560483" lon="11.244195"><ele>83.0</ele><time>2026-05-02T15:25:48.79Z</time></trkpt><trkpt lat="42.9561033" lon="11.24413"><ele>83.0</ele><time>2026-05-02T15:25:49.789Z</time></trkpt><trkpt lat="42.9561633" lon="11.2440617"><ele>83.0</ele><time>2026-05-02T15:25:50.79Z</time></trkpt><trkpt lat="42.95622" lon="11.2439983"><ele>82.83333333333334</ele><time>2026-05-02T15:25:51.791Z</time></trkpt><trkpt lat="42.95627" lon="11.2439317"><ele>82.66666666666667</ele><time>2026-05-02T15:25:52.789Z</time></trkpt><trkpt lat="42.9563083" lon="11.2438533"><ele>82.5</ele><time>2026-05-02T15:25:53.789Z</time></trkpt><trkpt lat="42.9563117" lon="11.2437117"><ele>82.33333333333333</ele><time>2026-05-02T15:25:55.79Z</time></trkpt><trkpt lat="42.9562617" lon="11.2436267"><ele>82.16666666666666</ele><time>2026-05-02T15:25:57.786Z</time></trkpt><trkpt lat="42.9562" lon="11.2435617"><ele>82.0</ele><time>2026-05-02T15:26:00.787Z</time></trkpt><trkpt lat="42.9562133" lon="11.2434567"><ele>82.0</ele><time>2026-05-02T15:26:06.787Z</time></trkpt><trkpt lat="42.95626" lon="11.243395"><ele>82.0</ele><time>2026-05-02T15:26:08.789Z</time></trkpt><trkpt lat="42.9563283" lon="11.2433"><ele>82.0</ele><time>2026-05-02T15:26:10.789Z</time></trkpt><trkpt lat="42.9563867" lon="11.2432233"><ele>82.0</ele><time>2026-05-02T15:26:12.79Z</time></trkpt><trkpt lat="42.95644" lon="11.243155"><ele>82.0</ele><time>2026-05-02T15:26:14.79Z</time></trkpt><trkpt lat="42.9564883" lon="11.24309"><ele>82.0</ele><time>2026-05-02T15:26:16.786Z</time></trkpt><trkpt lat="42.956465" lon="11.24326"><ele>82.0</ele><time>2026-05-02T15:27:03.371Z</time></trkpt><trkpt lat="42.9563917" lon="11.2432883"><ele>82.0</ele><time>2026-05-02T15:27:11.785Z</time></trkpt><trkpt lat="42.95633" lon="11.2433583"><ele>82.0</ele><time>2026-05-02T15:27:15.785Z</time></trkpt><trkpt lat="42.9562767" lon="11.2434267"><ele>82.0</ele><time>2026-05-02T15:27:19.786Z</time></trkpt><trkpt lat="42.9562067" lon="11.2434833"><ele>82.0</ele><time>2026-05-02T15:27:31.785Z</time></trkpt><trkpt lat="42.9561233" lon="11.2434667"><ele>82.0</ele><time>2026-05-02T15:27:34.786Z</time></trkpt><trkpt lat="42.9561167" lon="11.2433483"><ele>82.0</ele><time>2026-05-02T15:27:36.786Z</time></trkpt><trkpt lat="42.9561333" lon="11.243265"><ele>82.0</ele><time>2026-05-02T15:27:37.785Z</time></trkpt><trkpt lat="42.9561583" lon="11.243165"><ele>82.0</ele><time>2026-05-02T15:27:38.786Z</time></trkpt><trkpt lat="42.956195" lon="11.2430483"><ele>82.0</ele><time>2026-05-02T15:27:39.786Z</time></trkpt><trkpt lat="42.9562367" lon="11.2429283"><ele>82.0</ele><time>2026-05-02T15:27:40.785Z</time></trkpt><trkpt lat="42.9562733" lon="11.2428133"><ele>82.0</ele><time>2026-05-02T15:27:41.785Z</time></trkpt><trkpt lat="42.956305" lon="11.2427117"><ele>82.0</ele><time>2026-05-02T15:27:42.785Z</time></trkpt><trkpt lat="42.9563317" lon="11.2426233"><ele>82.0</ele><time>2026-05-02T15:27:43.786Z</time></trkpt><trkpt lat="42.9563683" lon="11.2424633"><ele>82.0</ele><time>2026-05-02T15:27:45.786Z</time></trkpt><trkpt lat="42.9563867" lon="11.2423733"><ele>82.0</ele><time>2026-05-02T15:27:46.785Z</time></trkpt><trkpt lat="42.9564033" lon="11.2422817"><ele>82.0</ele><time>2026-05-02T15:27:47.786Z</time></trkpt><trkpt lat="42.9564183" lon="11.24219"><ele>82.0</ele><time>2026-05-02T15:27:48.785Z</time></trkpt><trkpt lat="42.9564467" lon="11.24204"><ele>82.16666666666666</ele><time>2026-05-02T15:27:50.785Z</time></trkpt><trkpt lat="42.956465" lon="11.241935"><ele>82.33333333333333</ele><time>2026-05-02T15:27:52.786Z</time></trkpt><trkpt lat="42.9564767" lon="11.2418217"><ele>82.5</ele><time>2026-05-02T15:27:54.786Z</time></trkpt><trkpt lat="42.9564967" lon="11.241675"><ele>82.66666666666667</ele><time>2026-05-02T15:27:56.785Z</time></trkpt><trkpt lat="42.9565117" lon="11.2415883"><ele>82.83333333333334</ele><time>2026-05-02T15:27:57.786Z</time></trkpt><trkpt lat="42.95652" lon="11.2414933"><ele>83.0</ele><time>2026-05-02T15:27:58.785Z</time></trkpt><trkpt lat="42.95653" lon="11.24139"><ele>83.4</ele><time>2026-05-02T15:27:59.786Z</time></trkpt><trkpt lat="42.9565433" lon="11.2412783"><ele>83.80000000000001</ele><time>2026-05-02T15:28:00.785Z</time></trkpt><trkpt lat="42.95656" lon="11.24115"><ele>84.2</ele><time>2026-05-02T15:28:01.785Z</time></trkpt><trkpt lat="42.9565833" lon="11.240995"><ele>84.6</ele><time>2026-05-02T15:28:02.786Z</time></trkpt><trkpt lat="42.956615" lon="11.24081"><ele>85.0</ele><time>2026-05-02T15:28:03.786Z</time></trkpt><trkpt lat="42.9566567" lon="11.2405967"><ele>85.33333333333333</ele><time>2026-05-02T15:28:04.787Z</time></trkpt><trkpt lat="42.9567" lon="11.2403633"><ele>85.66666666666667</ele><time>2026-05-02T15:28:05.789Z</time></trkpt><trkpt lat="42.9567483" lon="11.2401167"><ele>86.0</ele><time>2026-05-02T15:28:06.789Z</time></trkpt><trkpt lat="42.9568433" lon="11.2396417"><ele>85.33333333333334</ele><time>2026-05-02T15:28:08.785Z</time></trkpt><trkpt lat="42.95688" lon="11.239425"><ele>84.66666666666667</ele><time>2026-05-02T15:28:09.786Z</time></trkpt><trkpt lat="42.956915" lon="11.2392167"><ele>84.0</ele><time>2026-05-02T15:28:10.786Z</time></trkpt><trkpt lat="42.9569533" lon="11.2390067"><ele>84.66666666666667</ele><time>2026-05-02T15:28:11.786Z</time></trkpt><trkpt lat="42.9569933" lon="11.2387967"><ele>85.33333333333334</ele><time>2026-05-02T15:28:12.786Z</time></trkpt><trkpt lat="42.9570317" lon="11.2385967"><ele>86.0</ele><time>2026-05-02T15:28:13.786Z</time></trkpt><trkpt lat="42.9570667" lon="11.2384067"><ele>86.0</ele><time>2026-05-02T15:28:14.787Z</time></trkpt><trkpt lat="42.9571017" lon="11.238215"><ele>86.0</ele><time>2026-05-02T15:28:15.789Z</time></trkpt><trkpt lat="42.9571367" lon="11.2380233"><ele>86.0</ele><time>2026-05-02T15:28:16.785Z</time></trkpt><trkpt lat="42.9571733" lon="11.2378317"><ele>86.0</ele><time>2026-05-02T15:28:17.787Z</time></trkpt><trkpt lat="42.9572083" lon="11.237635"><ele>85.66666666666667</ele><time>2026-05-02T15:28:18.786Z</time></trkpt><trkpt lat="42.9572433" lon="11.2374317"><ele>85.33333333333333</ele><time>2026-05-02T15:28:19.786Z</time></trkpt><trkpt lat="42.9572833" lon="11.237225"><ele>85.0</ele><time>2026-05-02T15:28:20.786Z</time></trkpt><trkpt lat="42.95732" lon="11.2370233"><ele>85.5</ele><time>2026-05-02T15:28:21.789Z</time></trkpt><trkpt lat="42.9573567" lon="11.23683"><ele>86.0</ele><time>2026-05-02T15:28:22.786Z</time></trkpt><trkpt lat="42.9573917" lon="11.2366333"><ele>86.5</ele><time>2026-05-02T15:28:23.789Z</time></trkpt><trkpt lat="42.9574267" lon="11.2364383"><ele>87.0</ele><time>2026-05-02T15:28:24.789Z</time></trkpt><trkpt lat="42.9574617" lon="11.2362583"><ele>87.6</ele><time>2026-05-02T15:28:25.789Z</time></trkpt><trkpt lat="42.9574933" lon="11.236095"><ele>88.19999999999999</ele><time>2026-05-02T15:28:26.787Z</time></trkpt><trkpt lat="42.9575233" lon="11.2359433"><ele>88.8</ele><time>2026-05-02T15:28:27.786Z</time></trkpt><trkpt lat="42.9575517" lon="11.2358067"><ele>89.4</ele><time>2026-05-02T15:28:28.786Z</time></trkpt><trkpt lat="42.9575783" lon="11.23569"><ele>90.0</ele><time>2026-05-02T15:28:29.79Z</time></trkpt><trkpt lat="42.9576133" lon="11.2355917"><ele>90.16666666666667</ele><time>2026-05-02T15:28:30.788Z</time></trkpt><trkpt lat="42.95766" lon="11.2355067"><ele>90.33333333333333</ele><time>2026-05-02T15:28:31.789Z</time></trkpt><trkpt lat="42.9577183" lon="11.235425"><ele>90.5</ele><time>2026-05-02T15:28:32.789Z</time></trkpt><trkpt lat="42.95778" lon="11.2353517"><ele>90.66666666666666</ele><time>2026-05-02T15:28:33.79Z</time></trkpt><trkpt lat="42.9578367" lon="11.2352883"><ele>90.83333333333333</ele><time>2026-05-02T15:28:34.791Z</time></trkpt><trkpt lat="42.95788" lon="11.235225"><ele>91.0</ele><time>2026-05-02T15:28:35.789Z</time></trkpt><trkpt lat="42.95791" lon="11.2350983"><ele>91.0</ele><time>2026-05-02T15:28:37.786Z</time></trkpt><trkpt lat="42.9578367" lon="11.234935"><ele>91.0</ele><time>2026-05-02T15:28:40.788Z</time></trkpt><trkpt lat="42.95785" lon="11.2348383"><ele>91.0</ele><time>2026-05-02T15:28:42.786Z</time></trkpt><trkpt lat="42.95796" lon="11.2347367"><ele>91.0</ele><time>2026-05-02T15:28:44.788Z</time></trkpt><trkpt lat="42.958025" lon="11.2346517"><ele>91.0</ele><time>2026-05-02T15:28:45.786Z</time></trkpt><trkpt lat="42.958095" lon="11.2345267"><ele>91.0</ele><time>2026-05-02T15:28:46.787Z</time></trkpt><trkpt lat="42.95817" lon="11.2343683"><ele>91.0</ele><time>2026-05-02T15:28:47.789Z</time></trkpt><trkpt lat="42.9582433" lon="11.2342"><ele>91.0</ele><time>2026-05-02T15:28:48.786Z</time></trkpt><trkpt lat="42.95832" lon="11.2340167"><ele>91.0</ele><time>2026-05-02T15:28:49.787Z</time></trkpt><trkpt lat="42.9583933" lon="11.233835"><ele>91.0</ele><time>2026-05-02T15:28:50.791Z</time></trkpt><trkpt lat="42.9584633" lon="11.2336567"><ele>91.0</ele><time>2026-05-02T15:28:51.789Z</time></trkpt><trkpt lat="42.9585233" lon="11.2334867"><ele>91.0</ele><time>2026-05-02T15:28:52.786Z</time></trkpt><trkpt lat="42.958575" lon="11.233335"><ele>91.0</ele><time>2026-05-02T15:28:53.786Z</time></trkpt><trkpt lat="42.9586217" lon="11.2332067"><ele>91.4</ele><time>2026-05-02T15:28:54.79Z</time></trkpt><trkpt lat="42.9586683" lon="11.2330983"><ele>91.8</ele><time>2026-05-02T15:28:55.789Z</time></trkpt><trkpt lat="42.95871" lon="11.2329983"><ele>92.2</ele><time>2026-05-02T15:28:56.791Z</time></trkpt><trkpt lat="42.958755" lon="11.2329"><ele>92.60000000000001</ele><time>2026-05-02T15:28:57.789Z</time></trkpt><trkpt lat="42.9588067" lon="11.2327933"><ele>93.0</ele><time>2026-05-02T15:28:58.79Z</time></trkpt><trkpt lat="42.9588683" lon="11.2326883"><ele>93.0</ele><time>2026-05-02T15:28:59.79Z</time></trkpt><trkpt lat="42.9589317" lon="11.2325867"><ele>93.0</ele><time>2026-05-02T15:29:00.79Z</time></trkpt><trkpt lat="42.9589967" lon="11.232495"><ele>93.0</ele><time>2026-05-02T15:29:01.79Z</time></trkpt><trkpt lat="42.9590667" lon="11.2324083"><ele>93.0</ele><time>2026-05-02T15:29:02.791Z</time></trkpt><trkpt lat="42.9591383" lon="11.2323333"><ele>93.0</ele><time>2026-05-02T15:29:03.789Z</time></trkpt><trkpt lat="42.9592017" lon="11.2322667"><ele>94.0</ele><time>2026-05-02T15:29:04.791Z</time></trkpt><trkpt lat="42.9592567" lon="11.2322017"><ele>95.0</ele><time>2026-05-02T15:29:05.789Z</time></trkpt><trkpt lat="42.95935" lon="11.2321083"><ele>96.0</ele><time>2026-05-02T15:29:07.787Z</time></trkpt><trkpt lat="42.9594367" lon="11.23204"><ele>97.0</ele><time>2026-05-02T15:29:09.787Z</time></trkpt><trkpt lat="42.959505" lon="11.2319883"><ele>98.0</ele><time>2026-05-02T15:29:11.786Z</time></trkpt><trkpt lat="42.9595667" lon="11.2319467"><ele>99.0</ele><time>2026-05-02T15:29:13.786Z</time></trkpt><trkpt lat="42.9596383" lon="11.2318967"><ele>99.0</ele><time>2026-05-02T15:29:16.786Z</time></trkpt><trkpt lat="42.9597117" lon="11.231855"><ele>99.0</ele><time>2026-05-02T15:29:19.787Z</time></trkpt><trkpt lat="42.9597683" lon="11.2317717"><ele>99.0</ele><time>2026-05-02T15:29:46.02Z</time></trkpt><trkpt lat="42.9599017" lon="11.2317683"><ele>99.0</ele><time>2026-05-02T15:29:48.786Z</time></trkpt><trkpt lat="42.9599833" lon="11.231745"><ele>99.0</ele><time>2026-05-02T15:29:49.786Z</time></trkpt><trkpt lat="42.9600717" lon="11.2317133"><ele>97.6</ele><time>2026-05-02T15:29:50.787Z</time></trkpt><trkpt lat="42.96016" lon="11.23168"><ele>96.2</ele><time>2026-05-02T15:29:51.787Z</time></trkpt><trkpt lat="42.9602517" lon="11.231645"><ele>94.8</ele><time>2026-05-02T15:29:52.787Z</time></trkpt><trkpt lat="42.960345" lon="11.2315917"><ele>93.39999999999999</ele><time>2026-05-02T15:29:53.786Z</time></trkpt><trkpt lat="42.9604317" lon="11.2315383"><ele>92.0</ele><time>2026-05-02T15:29:54.786Z</time></trkpt><trkpt lat="42.9605183" lon="11.2314817"><ele>93.0</ele><time>2026-05-02T15:29:55.785Z</time></trkpt><trkpt lat="42.9606017" lon="11.23142"><ele>94.0</ele><time>2026-05-02T15:29:56.786Z</time></trkpt><trkpt lat="42.960685" lon="11.231355"><ele>95.0</ele><time>2026-05-02T15:29:57.785Z</time></trkpt><trkpt lat="42.9607633" lon="11.23129"><ele>96.0</ele><time>2026-05-02T15:29:58.786Z</time></trkpt><trkpt lat="42.9608433" lon="11.231225"><ele>97.0</ele><time>2026-05-02T15:29:59.787Z</time></trkpt><trkpt lat="42.9609267" lon="11.2311733"><ele>97.00000000000001</ele><time>2026-05-02T15:30:00.785Z</time></trkpt><trkpt lat="42.96102" lon="11.231135"><ele>97.0</ele><time>2026-05-02T15:30:01.785Z</time></trkpt><trkpt lat="42.9611083" lon="11.2311117"><ele>97.0</ele><time>2026-05-02T15:30:02.786Z</time></trkpt><trkpt lat="42.961195" lon="11.231095"><ele>97.0</ele><time>2026-05-02T15:30:03.785Z</time></trkpt><trkpt lat="42.9612767" lon="11.2310817"><ele>97.00000000000001</ele><time>2026-05-02T15:30:04.785Z</time></trkpt><trkpt lat="42.9613567" lon="11.23107"><ele>97.0</ele><time>2026-05-02T15:30:05.785Z</time></trkpt><trkpt lat="42.9614383" lon="11.2310583"><ele>97.0</ele><time>2026-05-02T15:30:06.785Z</time></trkpt><trkpt lat="42.9615317" lon="11.2310417"><ele>97.0</ele><time>2026-05-02T15:30:07.785Z</time></trkpt><trkpt lat="42.9616283" lon="11.231025"><ele>97.0</ele><time>2026-05-02T15:30:08.787Z</time></trkpt><trkpt lat="42.9617233" lon="11.2310083"><ele>97.0</ele><time>2026-05-02T15:30:09.785Z</time></trkpt><trkpt lat="42.9618133" lon="11.23099"><ele>97.0</ele><time>2026-05-02T15:30:10.785Z</time></trkpt><trkpt lat="42.9619017" lon="11.2309733"><ele>96.66666666666667</ele><time>2026-05-02T15:30:11.786Z</time></trkpt><trkpt lat="42.9619883" lon="11.2309633"><ele>96.33333333333334</ele><time>2026-05-02T15:30:12.785Z</time></trkpt><trkpt lat="42.9620683" lon="11.2309517"><ele>96.0</ele><time>2026-05-02T15:30:13.786Z</time></trkpt><trkpt lat="42.9621483" lon="11.2309417"><ele>95.66666666666667</ele><time>2026-05-02T15:30:14.786Z</time></trkpt><trkpt lat="42.9622333" lon="11.2309333"><ele>95.33333333333334</ele><time>2026-05-02T15:30:15.786Z</time></trkpt><trkpt lat="42.962325" lon="11.2309217"><ele>95.0</ele><time>2026-05-02T15:30:16.785Z</time></trkpt><trkpt lat="42.962415" lon="11.2309083"><ele>95.0</ele><time>2026-05-02T15:30:17.785Z</time></trkpt><trkpt lat="42.9625" lon="11.2308967"><ele>95.0</ele><time>2026-05-02T15:30:18.786Z</time></trkpt><trkpt lat="42.962585" lon="11.2308833"><ele>95.0</ele><time>2026-05-02T15:30:19.785Z</time></trkpt><trkpt lat="42.9626717" lon="11.2308633"><ele>95.0</ele><time>2026-05-02T15:30:20.785Z</time></trkpt><trkpt lat="42.9627567" lon="11.230845"><ele>95.0</ele><time>2026-05-02T15:30:21.785Z</time></trkpt><trkpt lat="42.9628417" lon="11.2308283"><ele>95.0</ele><time>2026-05-02T15:30:22.785Z</time></trkpt><trkpt lat="42.9629333" lon="11.23081"><ele>95.2</ele><time>2026-05-02T15:30:23.785Z</time></trkpt><trkpt lat="42.9630267" lon="11.2307867"><ele>95.4</ele><time>2026-05-02T15:30:24.785Z</time></trkpt><trkpt lat="42.9631233" lon="11.2307633"><ele>95.6</ele><time>2026-05-02T15:30:25.786Z</time></trkpt><trkpt lat="42.963215" lon="11.2307433"><ele>95.8</ele><time>2026-05-02T15:30:26.785Z</time></trkpt><trkpt lat="42.9632983" lon="11.2307283"><ele>96.0</ele><time>2026-05-02T15:30:27.785Z</time></trkpt><trkpt lat="42.9633833" lon="11.230715"><ele>95.66666666666667</ele><time>2026-05-02T15:30:28.786Z</time></trkpt><trkpt lat="42.9634717" lon="11.2306967"><ele>95.33333333333333</ele><time>2026-05-02T15:30:29.786Z</time></trkpt><trkpt lat="42.963555" lon="11.230675"><ele>95.0</ele><time>2026-05-02T15:30:30.785Z</time></trkpt><trkpt lat="42.9636367" lon="11.2306517"><ele>94.66666666666666</ele><time>2026-05-02T15:30:31.785Z</time></trkpt><trkpt lat="42.96371" lon="11.2306283"><ele>94.33333333333333</ele><time>2026-05-02T15:30:32.785Z</time></trkpt><trkpt lat="42.9637883" lon="11.2306067"><ele>94.0</ele><time>2026-05-02T15:30:33.785Z</time></trkpt><trkpt lat="42.9638733" lon="11.230595"><ele>95.4</ele><time>2026-05-02T15:30:34.785Z</time></trkpt><trkpt lat="42.9639583" lon="11.2305933"><ele>96.80000000000001</ele><time>2026-05-02T15:30:35.786Z</time></trkpt><trkpt lat="42.9640467" lon="11.2305817"><ele>98.19999999999999</ele><time>2026-05-02T15:30:36.785Z</time></trkpt><trkpt lat="42.9641433" lon="11.230555"><ele>99.6</ele><time>2026-05-02T15:30:37.786Z</time></trkpt><trkpt lat="42.9642283" lon="11.2305267"><ele>101.0</ele><time>2026-05-02T15:30:38.786Z</time></trkpt><trkpt lat="42.9643133" lon="11.230485"><ele>101.0</ele><time>2026-05-02T15:30:39.785Z</time></trkpt><trkpt lat="42.964405" lon="11.2304383"><ele>101.0</ele><time>2026-05-02T15:30:40.786Z</time></trkpt><trkpt lat="42.964495" lon="11.230385"><ele>101.0</ele><time>2026-05-02T15:30:41.786Z</time></trkpt><trkpt lat="42.96458" lon="11.2303367"><ele>101.0</ele><time>2026-05-02T15:30:42.785Z</time></trkpt><trkpt lat="42.964665" lon="11.23029"><ele>101.0</ele><time>2026-05-02T15:30:43.787Z</time></trkpt><trkpt lat="42.9647533" lon="11.2302383"><ele>100.99999999999999</ele><time>2026-05-02T15:30:44.785Z</time></trkpt><trkpt lat="42.964835" lon="11.2301967"><ele>101.0</ele><time>2026-05-02T15:30:45.786Z</time></trkpt><trkpt lat="42.96492" lon="11.2301583"><ele>101.0</ele><time>2026-05-02T15:30:46.787Z</time></trkpt><trkpt lat="42.965" lon="11.2301267"><ele>101.0</ele><time>2026-05-02T15:30:47.786Z</time></trkpt><trkpt lat="42.9650767" lon="11.2300983"><ele>100.99999999999999</ele><time>2026-05-02T15:30:48.785Z</time></trkpt><trkpt lat="42.9651517" lon="11.23006"><ele>101.0</ele><time>2026-05-02T15:30:49.787Z</time></trkpt><trkpt lat="42.9652233" lon="11.2300167"><ele>99.99999999999999</ele><time>2026-05-02T15:30:50.785Z</time></trkpt><trkpt lat="42.9652967" lon="11.2299733"><ele>99.0</ele><time>2026-05-02T15:30:51.785Z</time></trkpt><trkpt lat="42.9653733" lon="11.2299333"><ele>98.0</ele><time>2026-05-02T15:30:52.787Z</time></trkpt><trkpt lat="42.965455" lon="11.2298967"><ele>97.0</ele><time>2026-05-02T15:30:53.786Z</time></trkpt><trkpt lat="42.9655417" lon="11.2298633"><ele>96.0</ele><time>2026-05-02T15:30:54.785Z</time></trkpt><trkpt lat="42.965635" lon="11.2298233"><ele>95.0</ele><time>2026-05-02T15:30:55.785Z</time></trkpt><trkpt lat="42.96572" lon="11.229795"><ele>95.2</ele><time>2026-05-02T15:30:56.785Z</time></trkpt><trkpt lat="42.965795" lon="11.2297667"><ele>95.4</ele><time>2026-05-02T15:30:57.785Z</time></trkpt><trkpt lat="42.9658717" lon="11.2297283"><ele>95.6</ele><time>2026-05-02T15:30:58.786Z</time></trkpt><trkpt lat="42.96595" lon="11.2296683"><ele>95.8</ele><time>2026-05-02T15:30:59.786Z</time></trkpt><trkpt lat="42.96603" lon="11.229595"><ele>96.0</ele><time>2026-05-02T15:31:00.794Z</time></trkpt><trkpt lat="42.96611" lon="11.2294983"><ele>96.0</ele><time>2026-05-02T15:31:01.786Z</time></trkpt><trkpt lat="42.9661867" lon="11.2294033"><ele>96.0</ele><time>2026-05-02T15:31:02.787Z</time></trkpt><trkpt lat="42.9662617" lon="11.2293183"><ele>96.0</ele><time>2026-05-02T15:31:03.786Z</time></trkpt><trkpt lat="42.9663317" lon="11.22924"><ele>96.0</ele><time>2026-05-02T15:31:04.787Z</time></trkpt><trkpt lat="42.9663983" lon="11.22916"><ele>96.0</ele><time>2026-05-02T15:31:05.786Z</time></trkpt><trkpt lat="42.966465" lon="11.2290917"><ele>96.0</ele><time>2026-05-02T15:31:06.789Z</time></trkpt><trkpt lat="42.9665367" lon="11.2290317"><ele>96.0</ele><time>2026-05-02T15:31:07.788Z</time></trkpt><trkpt lat="42.9666067" lon="11.228995"><ele>96.0</ele><time>2026-05-02T15:31:08.786Z</time></trkpt><trkpt lat="42.9667183" lon="11.2289417"><ele>96.0</ele><time>2026-05-02T15:31:10.787Z</time></trkpt><trkpt lat="42.9667867" lon="11.2288933"><ele>96.0</ele><time>2026-05-02T15:31:11.787Z</time></trkpt><trkpt lat="42.9668483" lon="11.228835"><ele>96.0</ele><time>2026-05-02T15:31:12.788Z</time></trkpt><trkpt lat="42.9669133" lon="11.2287533"><ele>96.0</ele><time>2026-05-02T15:31:13.788Z</time></trkpt><trkpt lat="42.9669883" lon="11.2286483"><ele>96.0</ele><time>2026-05-02T15:31:14.787Z</time></trkpt><trkpt lat="42.9670633" lon="11.2285383"><ele>96.0</ele><time>2026-05-02T15:31:15.786Z</time></trkpt><trkpt lat="42.96714" lon="11.2284217"><ele>96.0</ele><time>2026-05-02T15:31:16.787Z</time></trkpt><trkpt lat="42.967215" lon="11.2282967"><ele>96.0</ele><time>2026-05-02T15:31:17.787Z</time></trkpt><trkpt lat="42.9672867" lon="11.2281817"><ele>96.0</ele><time>2026-05-02T15:31:18.786Z</time></trkpt><trkpt lat="42.9673567" lon="11.228075"><ele>96.0</ele><time>2026-05-02T15:31:19.787Z</time></trkpt><trkpt lat="42.96742" lon="11.227975"><ele>96.0</ele><time>2026-05-02T15:31:20.787Z</time></trkpt><trkpt lat="42.9674817" lon="11.227885"><ele>96.0</ele><time>2026-05-02T15:31:21.787Z</time></trkpt><trkpt lat="42.9675433" lon="11.2278"><ele>96.0</ele><time>2026-05-02T15:31:22.79Z</time></trkpt><trkpt lat="42.9676083" lon="11.2277067"><ele>96.0</ele><time>2026-05-02T15:31:23.788Z</time></trkpt><trkpt lat="42.9676733" lon="11.2276067"><ele>96.0</ele><time>2026-05-02T15:31:24.787Z</time></trkpt><trkpt lat="42.9677333" lon="11.2274967"><ele>96.0</ele><time>2026-05-02T15:31:25.786Z</time></trkpt><trkpt lat="42.9677917" lon="11.2273817"><ele>96.0</ele><time>2026-05-02T15:31:26.786Z</time></trkpt><trkpt lat="42.96785" lon="11.2272617"><ele>96.6</ele><time>2026-05-02T15:31:27.787Z</time></trkpt><trkpt lat="42.96791" lon="11.2271467"><ele>97.19999999999999</ele><time>2026-05-02T15:31:28.786Z</time></trkpt><trkpt lat="42.9679717" lon="11.2270283"><ele>97.80000000000001</ele><time>2026-05-02T15:31:29.786Z</time></trkpt><trkpt lat="42.968035" lon="11.2269233"><ele>98.4</ele><time>2026-05-02T15:31:30.786Z</time></trkpt><trkpt lat="42.9680883" lon="11.2268267"><ele>99.0</ele><time>2026-05-02T15:31:31.786Z</time></trkpt><trkpt lat="42.9681467" lon="11.2267317"><ele>99.0</ele><time>2026-05-02T15:31:32.788Z</time></trkpt><trkpt lat="42.968205" lon="11.22663"><ele>99.0</ele><time>2026-05-02T15:31:33.787Z</time></trkpt><trkpt lat="42.968265" lon="11.2265283"><ele>99.0</ele><time>2026-05-02T15:31:34.787Z</time></trkpt><trkpt lat="42.9683233" lon="11.2264233"><ele>99.0</ele><time>2026-05-02T15:31:35.789Z</time></trkpt><trkpt lat="42.96838" lon="11.2263217"><ele>99.0</ele><time>2026-05-02T15:31:36.789Z</time></trkpt><trkpt lat="42.9684267" lon="11.22623"><ele>98.71428571428572</ele><time>2026-05-02T15:31:37.789Z</time></trkpt><trkpt lat="42.9684683" lon="11.2261433"><ele>98.42857142857142</ele><time>2026-05-02T15:31:38.786Z</time></trkpt><trkpt lat="42.9685133" lon="11.22605"><ele>98.14285714285714</ele><time>2026-05-02T15:31:39.786Z</time></trkpt><trkpt lat="42.96856" lon="11.2259633"><ele>97.85714285714286</ele><time>2026-05-02T15:31:40.789Z</time></trkpt><trkpt lat="42.968605" lon="11.2258883"><ele>97.57142857142858</ele><time>2026-05-02T15:31:41.786Z</time></trkpt><trkpt lat="42.9686467" lon="11.2258217"><ele>97.28571428571428</ele><time>2026-05-02T15:31:42.786Z</time></trkpt><trkpt lat="42.9686883" lon="11.22575"><ele>97.0</ele><time>2026-05-02T15:31:43.789Z</time></trkpt><trkpt lat="42.9687383" lon="11.22566"><ele>98.0</ele><time>2026-05-02T15:31:44.786Z</time></trkpt><trkpt lat="42.9687933" lon="11.2255633"><ele>99.0</ele><time>2026-05-02T15:31:45.786Z</time></trkpt><trkpt lat="42.9688533" lon="11.2254633"><ele>100.0</ele><time>2026-05-02T15:31:46.786Z</time></trkpt><trkpt lat="42.968915" lon="11.2253617"><ele>101.0</ele><time>2026-05-02T15:31:47.786Z</time></trkpt><trkpt lat="42.9689733" lon="11.22526"><ele>102.0</ele><time>2026-05-02T15:31:48.787Z</time></trkpt><trkpt lat="42.96903" lon="11.2251683"><ele>102.0</ele><time>2026-05-02T15:31:49.786Z</time></trkpt><trkpt lat="42.969085" lon="11.22508"><ele>102.0</ele><time>2026-05-02T15:31:50.789Z</time></trkpt><trkpt lat="42.96914" lon="11.224995"><ele>102.0</ele><time>2026-05-02T15:31:51.789Z</time></trkpt><trkpt lat="42.9692" lon="11.22491"><ele>102.0</ele><time>2026-05-02T15:31:52.789Z</time></trkpt><trkpt lat="42.9692633" lon="11.2248167"><ele>102.0</ele><time>2026-05-02T15:31:53.79Z</time></trkpt><trkpt lat="42.9693317" lon="11.224715"><ele>102.0</ele><time>2026-05-02T15:31:54.79Z</time></trkpt><trkpt lat="42.9694" lon="11.2246083"><ele>102.0</ele><time>2026-05-02T15:31:55.789Z</time></trkpt><trkpt lat="42.9694717" lon="11.2244967"><ele>102.0</ele><time>2026-05-02T15:31:56.791Z</time></trkpt><trkpt lat="42.969545" lon="11.2243833"><ele>102.0</ele><time>2026-05-02T15:31:57.789Z</time></trkpt><trkpt lat="42.96962" lon="11.2242717"><ele>102.0</ele><time>2026-05-02T15:31:58.786Z</time></trkpt><trkpt lat="42.969695" lon="11.2241533"><ele>102.0</ele><time>2026-05-02T15:31:59.786Z</time></trkpt><trkpt lat="42.96977" lon="11.2240433"><ele>101.6</ele><time>2026-05-02T15:32:00.786Z</time></trkpt><trkpt lat="42.969845" lon="11.2239333"><ele>101.19999999999999</ele><time>2026-05-02T15:32:01.79Z</time></trkpt><trkpt lat="42.9699183" lon="11.2238217"><ele>100.8</ele><time>2026-05-02T15:32:02.79Z</time></trkpt><trkpt lat="42.969985" lon="11.2237117"><ele>100.4</ele><time>2026-05-02T15:32:03.79Z</time></trkpt><trkpt lat="42.9700533" lon="11.2236033"><ele>100.0</ele><time>2026-05-02T15:32:04.79Z</time></trkpt><trkpt lat="42.9701217" lon="11.2235117"><ele>100.0</ele><time>2026-05-02T15:32:05.786Z</time></trkpt><trkpt lat="42.9701883" lon="11.2234167"><ele>100.0</ele><time>2026-05-02T15:32:06.789Z</time></trkpt><trkpt lat="42.9702483" lon="11.2233217"><ele>100.0</ele><time>2026-05-02T15:32:07.789Z</time></trkpt><trkpt lat="42.97031" lon="11.22324"><ele>100.0</ele><time>2026-05-02T15:32:08.787Z</time></trkpt><trkpt lat="42.970375" lon="11.2231517"><ele>100.0</ele><time>2026-05-02T15:32:09.789Z</time></trkpt><trkpt lat="42.9704417" lon="11.2230567"><ele>100.8</ele><time>2026-05-02T15:32:10.786Z</time></trkpt><trkpt lat="42.9705083" lon="11.2229517"><ele>101.6</ele><time>2026-05-02T15:32:11.789Z</time></trkpt><trkpt lat="42.9705767" lon="11.222845"><ele>102.4</ele><time>2026-05-02T15:32:12.785Z</time></trkpt><trkpt lat="42.9706467" lon="11.222735"><ele>103.2</ele><time>2026-05-02T15:32:13.789Z</time></trkpt><trkpt lat="42.9707167" lon="11.2226233"><ele>104.0</ele><time>2026-05-02T15:32:14.789Z</time></trkpt><trkpt lat="42.9707883" lon="11.22252"><ele>104.0</ele><time>2026-05-02T15:32:15.785Z</time></trkpt><trkpt lat="42.9708617" lon="11.2224233"><ele>104.0</ele><time>2026-05-02T15:32:16.789Z</time></trkpt><trkpt lat="42.9709367" lon="11.22232"><ele>104.0</ele><time>2026-05-02T15:32:17.789Z</time></trkpt><trkpt lat="42.9710117" lon="11.2222117"><ele>104.0</ele><time>2026-05-02T15:32:18.785Z</time></trkpt><trkpt lat="42.9710817" lon="11.2221"><ele>104.0</ele><time>2026-05-02T15:32:19.786Z</time></trkpt><trkpt lat="42.9711517" lon="11.2219917"><ele>104.0</ele><time>2026-05-02T15:32:20.789Z</time></trkpt><trkpt lat="42.9712217" lon="11.22189"><ele>104.0</ele><time>2026-05-02T15:32:21.79Z</time></trkpt><trkpt lat="42.9712917" lon="11.2217817"><ele>104.0</ele><time>2026-05-02T15:32:22.789Z</time></trkpt><trkpt lat="42.9713667" lon="11.221665"><ele>104.0</ele><time>2026-05-02T15:32:23.789Z</time></trkpt><trkpt lat="42.9714417" lon="11.2215433"><ele>104.0</ele><time>2026-05-02T15:32:24.79Z</time></trkpt><trkpt lat="42.9715117" lon="11.22142"><ele>104.0</ele><time>2026-05-02T15:32:25.789Z</time></trkpt><trkpt lat="42.9715767" lon="11.221305"><ele>104.0</ele><time>2026-05-02T15:32:26.787Z</time></trkpt><trkpt lat="42.9716383" lon="11.2212017"><ele>104.0</ele><time>2026-05-02T15:32:27.786Z</time></trkpt><trkpt lat="42.9717" lon="11.221105"><ele>104.0</ele><time>2026-05-02T15:32:28.786Z</time></trkpt><trkpt lat="42.9717617" lon="11.2210067"><ele>104.0</ele><time>2026-05-02T15:32:29.787Z</time></trkpt><trkpt lat="42.9718233" lon="11.2209083"><ele>104.0</ele><time>2026-05-02T15:32:30.785Z</time></trkpt><trkpt lat="42.97189" lon="11.2208133"><ele>104.0</ele><time>2026-05-02T15:32:31.786Z</time></trkpt><trkpt lat="42.9719533" lon="11.2207183"><ele>104.0</ele><time>2026-05-02T15:32:32.786Z</time></trkpt><trkpt lat="42.9720167" lon="11.2206183"><ele>104.0</ele><time>2026-05-02T15:32:33.79Z</time></trkpt><trkpt lat="42.97208" lon="11.2205183"><ele>104.0</ele><time>2026-05-02T15:32:34.79Z</time></trkpt><trkpt lat="42.97215" lon="11.2204083"><ele>105.0</ele><time>2026-05-02T15:32:35.79Z</time></trkpt><trkpt lat="42.972225" lon="11.2202967"><ele>106.0</ele><time>2026-05-02T15:32:36.787Z</time></trkpt><trkpt lat="42.9722983" lon="11.22019"><ele>107.0</ele><time>2026-05-02T15:32:37.786Z</time></trkpt><trkpt lat="42.9723767" lon="11.2200783"><ele>108.0</ele><time>2026-05-02T15:32:38.786Z</time></trkpt><trkpt lat="42.9724483" lon="11.2199683"><ele>109.0</ele><time>2026-05-02T15:32:39.786Z</time></trkpt><trkpt lat="42.9725167" lon="11.21986"><ele>109.00000000000001</ele><time>2026-05-02T15:32:40.786Z</time></trkpt><trkpt lat="42.9725783" lon="11.2197617"><ele>109.0</ele><time>2026-05-02T15:32:41.786Z</time></trkpt><trkpt lat="42.9726417" lon="11.2196683"><ele>109.0</ele><time>2026-05-02T15:32:42.786Z</time></trkpt><trkpt lat="42.9727017" lon="11.219585"><ele>109.0</ele><time>2026-05-02T15:32:43.786Z</time></trkpt><trkpt lat="42.972755" lon="11.2195183"><ele>109.00000000000001</ele><time>2026-05-02T15:32:44.786Z</time></trkpt><trkpt lat="42.9728067" lon="11.219465"><ele>109.0</ele><time>2026-05-02T15:32:45.787Z</time></trkpt><trkpt lat="42.9728917" lon="11.2194333"><ele>109.0</ele><time>2026-05-02T15:32:47.787Z</time></trkpt><trkpt lat="42.9730283" lon="11.2194117"><ele>109.0</ele><time>2026-05-02T15:32:49.787Z</time></trkpt><trkpt lat="42.973115" lon="11.219385"><ele>109.0</ele><time>2026-05-02T15:32:50.786Z</time></trkpt><trkpt lat="42.9731983" lon="11.2193633"><ele>109.0</ele><time>2026-05-02T15:32:51.786Z</time></trkpt><trkpt lat="42.973275" lon="11.2193467"><ele>109.0</ele><time>2026-05-02T15:32:52.787Z</time></trkpt><trkpt lat="42.973355" lon="11.219325"><ele>108.66666666666667</ele><time>2026-05-02T15:32:53.787Z</time></trkpt><trkpt lat="42.973435" lon="11.2193017"><ele>108.33333333333334</ele><time>2026-05-02T15:32:54.788Z</time></trkpt><trkpt lat="42.9735067" lon="11.2192833"><ele>108.0</ele><time>2026-05-02T15:32:55.789Z</time></trkpt><trkpt lat="42.9735817" lon="11.2192617"><ele>107.66666666666666</ele><time>2026-05-02T15:32:56.786Z</time></trkpt><trkpt lat="42.9736583" lon="11.2192383"><ele>107.33333333333333</ele><time>2026-05-02T15:32:57.787Z</time></trkpt><trkpt lat="42.973735" lon="11.2192233"><ele>107.0</ele><time>2026-05-02T15:32:58.787Z</time></trkpt><trkpt lat="42.9738033" lon="11.21921"><ele>106.99999999999999</ele><time>2026-05-02T15:32:59.788Z</time></trkpt><trkpt lat="42.9738683" lon="11.219195"><ele>107.0</ele><time>2026-05-02T15:33:00.785Z</time></trkpt><trkpt lat="42.9739833" lon="11.2191633"><ele>107.0</ele><time>2026-05-02T15:33:02.786Z</time></trkpt><trkpt lat="42.9740483" lon="11.219145"><ele>107.0</ele><time>2026-05-02T15:33:03.789Z</time></trkpt><trkpt lat="42.9741167" lon="11.2191233"><ele>106.99999999999999</ele><time>2026-05-02T15:33:04.789Z</time></trkpt><trkpt lat="42.9741833" lon="11.2191"><ele>107.0</ele><time>2026-05-02T15:33:05.789Z</time></trkpt><trkpt lat="42.9742533" lon="11.2190833"><ele>106.99999999999999</ele><time>2026-05-02T15:33:06.789Z</time></trkpt><trkpt lat="42.9743317" lon="11.2190617"><ele>107.0</ele><time>2026-05-02T15:33:07.789Z</time></trkpt><trkpt lat="42.9744117" lon="11.2190417"><ele>107.0</ele><time>2026-05-02T15:33:08.785Z</time></trkpt><trkpt lat="42.9744833" lon="11.219025"><ele>107.0</ele><time>2026-05-02T15:33:09.785Z</time></trkpt><trkpt lat="42.974555" lon="11.21901"><ele>106.99999999999999</ele><time>2026-05-02T15:33:10.785Z</time></trkpt><trkpt lat="42.97463" lon="11.2189967"><ele>107.0</ele><time>2026-05-02T15:33:11.788Z</time></trkpt><trkpt lat="42.9747033" lon="11.2189817"><ele>106.99999999999999</ele><time>2026-05-02T15:33:12.786Z</time></trkpt><trkpt lat="42.9747767" lon="11.2189667"><ele>107.0</ele><time>2026-05-02T15:33:13.785Z</time></trkpt><trkpt lat="42.97485" lon="11.2189467"><ele>107.0</ele><time>2026-05-02T15:33:14.79Z</time></trkpt><trkpt lat="42.97493" lon="11.218925"><ele>107.0</ele><time>2026-05-02T15:33:15.784Z</time></trkpt><trkpt lat="42.9750167" lon="11.2189017"><ele>106.99999999999999</ele><time>2026-05-02T15:33:16.789Z</time></trkpt><trkpt lat="42.975105" lon="11.2188783"><ele>107.0</ele><time>2026-05-02T15:33:17.788Z</time></trkpt><trkpt lat="42.9751967" lon="11.21885"><ele>107.33333333333333</ele><time>2026-05-02T15:33:18.79Z</time></trkpt><trkpt lat="42.9752867" lon="11.218825"><ele>107.66666666666666</ele><time>2026-05-02T15:33:19.789Z</time></trkpt><trkpt lat="42.9753683" lon="11.218805"><ele>108.0</ele><time>2026-05-02T15:33:20.79Z</time></trkpt><trkpt lat="42.9754567" lon="11.2187783"><ele>108.33333333333334</ele><time>2026-05-02T15:33:21.788Z</time></trkpt><trkpt lat="42.975545" lon="11.218755"><ele>108.66666666666667</ele><time>2026-05-02T15:33:22.788Z</time></trkpt><trkpt lat="42.9756317" lon="11.2187333"><ele>109.0</ele><time>2026-05-02T15:33:23.788Z</time></trkpt><trkpt lat="42.97571" lon="11.2187183"><ele>109.0</ele><time>2026-05-02T15:33:24.788Z</time></trkpt><trkpt lat="42.9757867" lon="11.2187033"><ele>109.0</ele><time>2026-05-02T15:33:25.788Z</time></trkpt><trkpt lat="42.9758667" lon="11.2186933"><ele>109.0</ele><time>2026-05-02T15:33:26.785Z</time></trkpt><trkpt lat="42.9759517" lon="11.21868"><ele>109.0</ele><time>2026-05-02T15:33:27.786Z</time></trkpt><trkpt lat="42.97605" lon="11.2186617"><ele>109.0</ele><time>2026-05-02T15:33:28.788Z</time></trkpt><trkpt lat="42.9761617" lon="11.2186283"><ele>109.4</ele><time>2026-05-02T15:33:29.788Z</time></trkpt><trkpt lat="42.9762767" lon="11.2185983"><ele>109.80000000000001</ele><time>2026-05-02T15:33:30.785Z</time></trkpt><trkpt lat="42.9763883" lon="11.21857"><ele>110.19999999999999</ele><time>2026-05-02T15:33:31.785Z</time></trkpt><trkpt lat="42.9764983" lon="11.2185433"><ele>110.6</ele><time>2026-05-02T15:33:32.786Z</time></trkpt><trkpt lat="42.9766017" lon="11.2185117"><ele>111.0</ele><time>2026-05-02T15:33:33.788Z</time></trkpt><trkpt lat="42.9767083" lon="11.21848"><ele>111.0</ele><time>2026-05-02T15:33:34.789Z</time></trkpt><trkpt lat="42.976815" lon="11.2184517"><ele>111.0</ele><time>2026-05-02T15:33:35.789Z</time></trkpt><trkpt lat="42.9769217" lon="11.2184283"><ele>111.0</ele><time>2026-05-02T15:33:36.788Z</time></trkpt><trkpt lat="42.97703" lon="11.2184033"><ele>111.0</ele><time>2026-05-02T15:33:37.785Z</time></trkpt><trkpt lat="42.97714" lon="11.2183767"><ele>111.0</ele><time>2026-05-02T15:33:38.79Z</time></trkpt><trkpt lat="42.9772517" lon="11.2183483"><ele>111.0</ele><time>2026-05-02T15:33:39.789Z</time></trkpt><trkpt lat="42.9773667" lon="11.2183183"><ele>111.0</ele><time>2026-05-02T15:33:40.787Z</time></trkpt><trkpt lat="42.9774767" lon="11.21829"><ele>111.0</ele><time>2026-05-02T15:33:41.789Z</time></trkpt><trkpt lat="42.9775867" lon="11.2182667"><ele>111.0</ele><time>2026-05-02T15:33:42.788Z</time></trkpt><trkpt lat="42.9776917" lon="11.21824"><ele>111.0</ele><time>2026-05-02T15:33:43.785Z</time></trkpt><trkpt lat="42.977805" lon="11.2182133"><ele>111.0</ele><time>2026-05-02T15:33:44.789Z</time></trkpt><trkpt lat="42.9779217" lon="11.21819"><ele>111.0</ele><time>2026-05-02T15:33:45.789Z</time></trkpt><trkpt lat="42.978045" lon="11.2181683"><ele>111.0</ele><time>2026-05-02T15:33:46.789Z</time></trkpt><trkpt lat="42.9781767" lon="11.218135"><ele>111.0</ele><time>2026-05-02T15:33:47.789Z</time></trkpt><trkpt lat="42.97831" lon="11.2180967"><ele>111.66666666666666</ele><time>2026-05-02T15:33:48.788Z</time></trkpt><trkpt lat="42.9784567" lon="11.2180533"><ele>112.33333333333333</ele><time>2026-05-02T15:33:49.788Z</time></trkpt><trkpt lat="42.978625" lon="11.2180083"><ele>113.0</ele><time>2026-05-02T15:33:50.789Z</time></trkpt><trkpt lat="42.9788133" lon="11.2179633"><ele>113.0</ele><time>2026-05-02T15:33:51.788Z</time></trkpt><trkpt lat="42.9790183" lon="11.2179117"><ele>113.0</ele><time>2026-05-02T15:33:52.79Z</time></trkpt><trkpt lat="42.979225" lon="11.21786"><ele>113.0</ele><time>2026-05-02T15:33:53.788Z</time></trkpt><trkpt lat="42.97941" lon="11.2178117"><ele>113.33333333333333</ele><time>2026-05-02T15:33:54.788Z</time></trkpt><trkpt lat="42.9795767" lon="11.2177683"><ele>113.66666666666666</ele><time>2026-05-02T15:33:55.788Z</time></trkpt><trkpt lat="42.9797317" lon="11.2177267"><ele>114.0</ele><time>2026-05-02T15:33:56.785Z</time></trkpt><trkpt lat="42.979875" lon="11.2176883"><ele>114.0</ele><time>2026-05-02T15:33:57.786Z</time></trkpt><trkpt lat="42.980015" lon="11.2176517"><ele>114.0</ele><time>2026-05-02T15:33:58.786Z</time></trkpt><trkpt lat="42.980155" lon="11.2176167"><ele>114.0</ele><time>2026-05-02T15:33:59.786Z</time></trkpt><trkpt lat="42.9803" lon="11.2175783"><ele>114.0</ele><time>2026-05-02T15:34:00.786Z</time></trkpt><trkpt lat="42.9804467" lon="11.21754"><ele>114.5</ele><time>2026-05-02T15:34:01.786Z</time></trkpt><trkpt lat="42.9805817" lon="11.2175067"><ele>115.0</ele><time>2026-05-02T15:34:02.785Z</time></trkpt><trkpt lat="42.9807067" lon="11.21748"><ele>115.5</ele><time>2026-05-02T15:34:03.785Z</time></trkpt><trkpt lat="42.98083" lon="11.21745"><ele>116.0</ele><time>2026-05-02T15:34:04.786Z</time></trkpt><trkpt lat="42.9809483" lon="11.2174183"><ele>116.75</ele><time>2026-05-02T15:34:05.786Z</time></trkpt><trkpt lat="42.9810683" lon="11.2173867"><ele>117.5</ele><time>2026-05-02T15:34:06.785Z</time></trkpt><trkpt lat="42.9812067" lon="11.2173517"><ele>118.25</ele><time>2026-05-02T15:34:07.786Z</time></trkpt><trkpt lat="42.9813517" lon="11.2173167"><ele>119.0</ele><time>2026-05-02T15:34:08.787Z</time></trkpt><trkpt lat="42.9814917" lon="11.2172783"><ele>119.0</ele><time>2026-05-02T15:34:09.786Z</time></trkpt><trkpt lat="42.9816167" lon="11.2172417"><ele>119.0</ele><time>2026-05-02T15:34:10.788Z</time></trkpt><trkpt lat="42.9817367" lon="11.21721"><ele>119.0</ele><time>2026-05-02T15:34:11.789Z</time></trkpt><trkpt lat="42.9818567" lon="11.2171833"><ele>119.0</ele><time>2026-05-02T15:34:12.789Z</time></trkpt><trkpt lat="42.9819817" lon="11.21716"><ele>119.80000000000001</ele><time>2026-05-02T15:34:13.789Z</time></trkpt><trkpt lat="42.9821033" lon="11.2171383"><ele>120.60000000000001</ele><time>2026-05-02T15:34:14.789Z</time></trkpt><trkpt lat="42.9822217" lon="11.2171133"><ele>121.4</ele><time>2026-05-02T15:34:15.785Z</time></trkpt><trkpt lat="42.9823283" lon="11.2170917"><ele>122.2</ele><time>2026-05-02T15:34:16.79Z</time></trkpt><trkpt lat="42.9824217" lon="11.2170717"><ele>123.0</ele><time>2026-05-02T15:34:17.789Z</time></trkpt><trkpt lat="42.9824967" lon="11.21706"><ele>123.16666666666667</ele><time>2026-05-02T15:34:18.785Z</time></trkpt><trkpt lat="42.98256" lon="11.2170467"><ele>123.33333333333334</ele><time>2026-05-02T15:34:19.786Z</time></trkpt><trkpt lat="42.982675" lon="11.217"><ele>123.5</ele><time>2026-05-02T15:34:21.785Z</time></trkpt><trkpt lat="42.9827333" lon="11.2169617"><ele>123.66666666666667</ele><time>2026-05-02T15:34:22.787Z</time></trkpt><trkpt lat="42.9827917" lon="11.216915"><ele>123.83333333333334</ele><time>2026-05-02T15:34:23.788Z</time></trkpt><trkpt lat="42.982895" lon="11.2168317"><ele>124.0</ele><time>2026-05-02T15:34:25.787Z</time></trkpt><trkpt lat="42.9830017" lon="11.2167533"><ele>124.00000000000001</ele><time>2026-05-02T15:34:27.786Z</time></trkpt><trkpt lat="42.9830583" lon="11.2167117"><ele>124.0</ele><time>2026-05-02T15:34:28.786Z</time></trkpt><trkpt lat="42.9831183" lon="11.2166667"><ele>124.0</ele><time>2026-05-02T15:34:29.786Z</time></trkpt><trkpt lat="42.9831867" lon="11.216615"><ele>124.0</ele><time>2026-05-02T15:34:30.786Z</time></trkpt><trkpt lat="42.983265" lon="11.2165533"><ele>124.00000000000001</ele><time>2026-05-02T15:34:31.786Z</time></trkpt><trkpt lat="42.98335" lon="11.2164883"><ele>124.0</ele><time>2026-05-02T15:34:32.786Z</time></trkpt><trkpt lat="42.9834383" lon="11.2164183"><ele>123.5</ele><time>2026-05-02T15:34:33.786Z</time></trkpt><trkpt lat="42.9835333" lon="11.2163417"><ele>123.0</ele><time>2026-05-02T15:34:34.786Z</time></trkpt><trkpt lat="42.9836383" lon="11.21626"><ele>122.5</ele><time>2026-05-02T15:34:35.787Z</time></trkpt><trkpt lat="42.9837483" lon="11.2161733"><ele>122.0</ele><time>2026-05-02T15:34:36.786Z</time></trkpt><trkpt lat="42.9838567" lon="11.2160883"><ele>122.0</ele><time>2026-05-02T15:34:37.786Z</time></trkpt><trkpt lat="42.9839567" lon="11.2160067"><ele>121.99999999999999</ele><time>2026-05-02T15:34:38.787Z</time></trkpt><trkpt lat="42.9840517" lon="11.2159317"><ele>121.99999999999999</ele><time>2026-05-02T15:34:39.787Z</time></trkpt><trkpt lat="42.9841383" lon="11.2158567"><ele>122.0</ele><time>2026-05-02T15:34:40.789Z</time></trkpt><trkpt lat="42.98423" lon="11.2157833"><ele>122.0</ele><time>2026-05-02T15:34:41.789Z</time></trkpt><trkpt lat="42.9843233" lon="11.2157083"><ele>121.19999999999999</ele><time>2026-05-02T15:34:42.789Z</time></trkpt><trkpt lat="42.98442" lon="11.215635"><ele>120.39999999999999</ele><time>2026-05-02T15:34:43.79Z</time></trkpt><trkpt lat="42.9845133" lon="11.215565"><ele>119.60000000000001</ele><time>2026-05-02T15:34:44.789Z</time></trkpt><trkpt lat="42.9846033" lon="11.2155017"><ele>118.80000000000001</ele><time>2026-05-02T15:34:45.785Z</time></trkpt><trkpt lat="42.98468" lon="11.2154533"><ele>118.0</ele><time>2026-05-02T15:34:46.787Z</time></trkpt><trkpt lat="42.9847483" lon="11.2154183"><ele>118.0</ele><time>2026-05-02T15:34:47.786Z</time></trkpt><trkpt lat="42.984855" lon="11.2154333"><ele>118.00000000000001</ele><time>2026-05-02T15:34:49.788Z</time></trkpt><trkpt lat="42.9849217" lon="11.21556"><ele>118.00000000000001</ele><time>2026-05-02T15:34:51.786Z</time></trkpt><trkpt lat="42.9849483" lon="11.21566"><ele>118.0</ele><time>2026-05-02T15:34:52.788Z</time></trkpt><trkpt lat="42.9849767" lon="11.2157967"><ele>118.0</ele><time>2026-05-02T15:34:53.786Z</time></trkpt><trkpt lat="42.9850133" lon="11.215955"><ele>118.0</ele><time>2026-05-02T15:34:54.786Z</time></trkpt><trkpt lat="42.9850483" lon="11.2161"><ele>118.00000000000001</ele><time>2026-05-02T15:34:55.786Z</time></trkpt><trkpt lat="42.9850817" lon="11.2162267"><ele>118.00000000000001</ele><time>2026-05-02T15:34:56.786Z</time></trkpt><trkpt lat="42.985125" lon="11.2163333"><ele>118.0</ele><time>2026-05-02T15:34:57.786Z</time></trkpt><trkpt lat="42.9851767" lon="11.21642"><ele>118.0</ele><time>2026-05-02T15:34:58.786Z</time></trkpt><trkpt lat="42.9852433" lon="11.21649"><ele>118.0</ele><time>2026-05-02T15:34:59.786Z</time></trkpt><trkpt lat="42.9853283" lon="11.21655"><ele>118.00000000000001</ele><time>2026-05-02T15:35:00.786Z</time></trkpt><trkpt lat="42.9854233" lon="11.2166"><ele>118.00000000000001</ele><time>2026-05-02T15:35:01.786Z</time></trkpt><trkpt lat="42.9855233" lon="11.2166483"><ele>118.0</ele><time>2026-05-02T15:35:02.786Z</time></trkpt><trkpt lat="42.9856317" lon="11.216695"><ele>118.0</ele><time>2026-05-02T15:35:03.786Z</time></trkpt><trkpt lat="42.9857467" lon="11.2167333"><ele>118.0</ele><time>2026-05-02T15:35:04.786Z</time></trkpt><trkpt lat="42.985865" lon="11.216765"><ele>118.0</ele><time>2026-05-02T15:35:05.787Z</time></trkpt><trkpt lat="42.9859833" lon="11.2167983"><ele>118.0</ele><time>2026-05-02T15:35:06.786Z</time></trkpt><trkpt lat="42.9861067" lon="11.2168283"><ele>118.0</ele><time>2026-05-02T15:35:07.786Z</time></trkpt><trkpt lat="42.9862317" lon="11.2168517"><ele>118.0</ele><time>2026-05-02T15:35:08.786Z</time></trkpt><trkpt lat="42.9863583" lon="11.2168583"><ele>118.0</ele><time>2026-05-02T15:35:09.786Z</time></trkpt><trkpt lat="42.9864833" lon="11.2168517"><ele>118.0</ele><time>2026-05-02T15:35:10.787Z</time></trkpt><trkpt lat="42.9866083" lon="11.216835"><ele>118.0</ele><time>2026-05-02T15:35:11.786Z</time></trkpt><trkpt lat="42.986735" lon="11.2168083"><ele>117.75</ele><time>2026-05-02T15:35:12.786Z</time></trkpt><trkpt lat="42.9868633" lon="11.2167767"><ele>117.5</ele><time>2026-05-02T15:35:13.787Z</time></trkpt><trkpt lat="42.9869933" lon="11.2167467"><ele>117.25</ele><time>2026-05-02T15:35:14.788Z</time></trkpt><trkpt lat="42.987125" lon="11.216715"><ele>117.0</ele><time>2026-05-02T15:35:15.787Z</time></trkpt><trkpt lat="42.98726" lon="11.2166817"><ele>117.0</ele><time>2026-05-02T15:35:16.788Z</time></trkpt><trkpt lat="42.9873967" lon="11.2166467"><ele>117.0</ele><time>2026-05-02T15:35:17.787Z</time></trkpt><trkpt lat="42.9875333" lon="11.216615"><ele>117.0</ele><time>2026-05-02T15:35:18.786Z</time></trkpt><trkpt lat="42.98767" lon="11.2165867"><ele>117.0</ele><time>2026-05-02T15:35:19.786Z</time></trkpt><trkpt lat="42.9878067" lon="11.2165617"><ele>117.0</ele><time>2026-05-02T15:35:20.789Z</time></trkpt><trkpt lat="42.9879517" lon="11.21654"><ele>117.0</ele><time>2026-05-02T15:35:21.786Z</time></trkpt><trkpt lat="42.9880967" lon="11.2165283"><ele>117.0</ele><time>2026-05-02T15:35:22.789Z</time></trkpt><trkpt lat="42.9882417" lon="11.21652"><ele>117.0</ele><time>2026-05-02T15:35:23.786Z</time></trkpt><trkpt lat="42.9883767" lon="11.2165183"><ele>117.0</ele><time>2026-05-02T15:35:24.787Z</time></trkpt><trkpt lat="42.9885067" lon="11.2165117"><ele>117.0</ele><time>2026-05-02T15:35:25.79Z</time></trkpt><trkpt lat="42.9886267" lon="11.2165117"><ele>117.0</ele><time>2026-05-02T15:35:26.787Z</time></trkpt><trkpt lat="42.988735" lon="11.216505"><ele>117.0</ele><time>2026-05-02T15:35:27.786Z</time></trkpt><trkpt lat="42.988835" lon="11.2164883"><ele>117.39999999999999</ele><time>2026-05-02T15:35:28.79Z</time></trkpt><trkpt lat="42.9889233" lon="11.2164683"><ele>117.79999999999998</ele><time>2026-05-02T15:35:29.786Z</time></trkpt><trkpt lat="42.98901" lon="11.2164433"><ele>118.2</ele><time>2026-05-02T15:35:30.786Z</time></trkpt><trkpt lat="42.9891" lon="11.21641"><ele>118.6</ele><time>2026-05-02T15:35:31.786Z</time></trkpt><trkpt lat="42.9891867" lon="11.2163717"><ele>119.0</ele><time>2026-05-02T15:35:32.788Z</time></trkpt><trkpt lat="42.98927" lon="11.2163367"><ele>118.99999999999999</ele><time>2026-05-02T15:35:33.786Z</time></trkpt><trkpt lat="42.9893517" lon="11.2162983"><ele>119.0</ele><time>2026-05-02T15:35:34.789Z</time></trkpt><trkpt lat="42.9894233" lon="11.216265"><ele>119.0</ele><time>2026-05-02T15:35:35.789Z</time></trkpt><trkpt lat="42.989525" lon="11.2162217"><ele>119.0</ele><time>2026-05-02T15:35:37.786Z</time></trkpt><trkpt lat="42.98959" lon="11.21617"><ele>118.99999999999999</ele><time>2026-05-02T15:35:40.786Z</time></trkpt><trkpt lat="42.9896233" lon="11.216085"><ele>119.0</ele><time>2026-05-02T15:35:42.787Z</time></trkpt><trkpt lat="42.9896567" lon="11.2160083"><ele>119.0</ele><time>2026-05-02T15:35:43.786Z</time></trkpt><trkpt lat="42.9897017" lon="11.2159117"><ele>119.0</ele><time>2026-05-02T15:35:44.786Z</time></trkpt><trkpt lat="42.989765" lon="11.2157883"><ele>119.0</ele><time>2026-05-02T15:35:45.786Z</time></trkpt><trkpt lat="42.9898467" lon="11.2156017"><ele>119.0</ele><time>2026-05-02T15:35:46.789Z</time></trkpt><trkpt lat="42.9899433" lon="11.2153867"><ele>119.0</ele><time>2026-05-02T15:35:47.789Z</time></trkpt><trkpt lat="42.9900583" lon="11.2151533"><ele>119.0</ele><time>2026-05-02T15:35:48.79Z</time></trkpt><trkpt lat="42.9901833" lon="11.2149017"><ele>119.0</ele><time>2026-05-02T15:35:49.79Z</time></trkpt><trkpt lat="42.9903033" lon="11.2146583"><ele>120.0</ele><time>2026-05-02T15:35:50.789Z</time></trkpt><trkpt lat="42.9904117" lon="11.21444"><ele>121.0</ele><time>2026-05-02T15:35:51.79Z</time></trkpt><trkpt lat="42.99051" lon="11.2142367"><ele>122.0</ele><time>2026-05-02T15:35:52.789Z</time></trkpt><trkpt lat="42.9906033" lon="11.21405"><ele>122.5</ele><time>2026-05-02T15:35:53.79Z</time></trkpt><trkpt lat="42.99069" lon="11.2138783"><ele>123.0</ele><time>2026-05-02T15:35:54.79Z</time></trkpt><trkpt lat="42.9907683" lon="11.2137183"><ele>123.5</ele><time>2026-05-02T15:35:55.791Z</time></trkpt><trkpt lat="42.99084" lon="11.2135717"><ele>124.0</ele><time>2026-05-02T15:35:56.79Z</time></trkpt><trkpt lat="42.990905" lon="11.2134417"><ele>124.0</ele><time>2026-05-02T15:35:57.79Z</time></trkpt><trkpt lat="42.990965" lon="11.2133333"><ele>124.0</ele><time>2026-05-02T15:35:58.79Z</time></trkpt><trkpt lat="42.9910167" lon="11.2132267"><ele>124.0</ele><time>2026-05-02T15:35:59.789Z</time></trkpt><trkpt lat="42.9910633" lon="11.2131183"><ele>124.0</ele><time>2026-05-02T15:36:00.79Z</time></trkpt><trkpt lat="42.9911017" lon="11.212995"><ele>124.0</ele><time>2026-05-02T15:36:01.789Z</time></trkpt><trkpt lat="42.99113" lon="11.2128617"><ele>124.2</ele><time>2026-05-02T15:36:02.79Z</time></trkpt><trkpt lat="42.99115" lon="11.21272"><ele>124.4</ele><time>2026-05-02T15:36:03.79Z</time></trkpt><trkpt lat="42.99116" lon="11.2125867"><ele>124.6</ele><time>2026-05-02T15:36:04.79Z</time></trkpt><trkpt lat="42.99116" lon="11.212455"><ele>124.8</ele><time>2026-05-02T15:36:05.79Z</time></trkpt><trkpt lat="42.9911483" lon="11.2123167"><ele>125.0</ele><time>2026-05-02T15:36:06.791Z</time></trkpt><trkpt lat="42.9911233" lon="11.212165"><ele>125.25</ele><time>2026-05-02T15:36:07.788Z</time></trkpt><trkpt lat="42.9910917" lon="11.2120017"><ele>125.5</ele><time>2026-05-02T15:36:08.79Z</time></trkpt><trkpt lat="42.99106" lon="11.2118417"><ele>125.75</ele><time>2026-05-02T15:36:09.786Z</time></trkpt><trkpt lat="42.9910333" lon="11.2116867"><ele>126.0</ele><time>2026-05-02T15:36:10.788Z</time></trkpt><trkpt lat="42.9910183" lon="11.211525"><ele>126.5</ele><time>2026-05-02T15:36:11.786Z</time></trkpt><trkpt lat="42.991015" lon="11.2113567"><ele>127.0</ele><time>2026-05-02T15:36:12.786Z</time></trkpt><trkpt lat="42.9910217" lon="11.21118"><ele>127.5</ele><time>2026-05-02T15:36:13.789Z</time></trkpt><trkpt lat="42.9910383" lon="11.2110133"><ele>128.0</ele><time>2026-05-02T15:36:14.788Z</time></trkpt><trkpt lat="42.9910517" lon="11.2108683"><ele>128.0</ele><time>2026-05-02T15:36:15.789Z</time></trkpt><trkpt lat="42.9910633" lon="11.2107333"><ele>128.0</ele><time>2026-05-02T15:36:16.788Z</time></trkpt><trkpt lat="42.99108" lon="11.2106017"><ele>128.0</ele><time>2026-05-02T15:36:17.788Z</time></trkpt><trkpt lat="42.991115" lon="11.21048"><ele>128.0</ele><time>2026-05-02T15:36:18.789Z</time></trkpt><trkpt lat="42.9911683" lon="11.2103717"><ele>128.0</ele><time>2026-05-02T15:36:19.789Z</time></trkpt><trkpt lat="42.9912383" lon="11.21026"><ele>129.0</ele><time>2026-05-02T15:36:20.785Z</time></trkpt><trkpt lat="42.9913217" lon="11.2101333"><ele>130.0</ele><time>2026-05-02T15:36:21.789Z</time></trkpt><trkpt lat="42.9914167" lon="11.2100017"><ele>131.0</ele><time>2026-05-02T15:36:22.789Z</time></trkpt><trkpt lat="42.9915167" lon="11.20986"><ele>132.0</ele><time>2026-05-02T15:36:23.788Z</time></trkpt><trkpt lat="42.9916117" lon="11.209715"><ele>131.75</ele><time>2026-05-02T15:36:24.789Z</time></trkpt><trkpt lat="42.9916983" lon="11.209575"><ele>131.5</ele><time>2026-05-02T15:36:25.789Z</time></trkpt><trkpt lat="42.9917817" lon="11.20944"><ele>131.25</ele><time>2026-05-02T15:36:26.789Z</time></trkpt><trkpt lat="42.9918583" lon="11.2093183"><ele>131.0</ele><time>2026-05-02T15:36:27.788Z</time></trkpt><trkpt lat="42.9919317" lon="11.2092133"><ele>131.0</ele><time>2026-05-02T15:36:28.788Z</time></trkpt><trkpt lat="42.99199" lon="11.20912"><ele>131.0</ele><time>2026-05-02T15:36:29.788Z</time></trkpt><trkpt lat="42.9920333" lon="11.2090383"><ele>131.0</ele><time>2026-05-02T15:36:30.789Z</time></trkpt><trkpt lat="42.99204" lon="11.20889"><ele>131.0</ele><time>2026-05-02T15:36:32.789Z</time></trkpt><trkpt lat="42.9919967" lon="11.2088083"><ele>131.0</ele><time>2026-05-02T15:36:33.789Z</time></trkpt><trkpt lat="42.9919083" lon="11.2087183"><ele>131.5</ele><time>2026-05-02T15:36:34.789Z</time></trkpt><trkpt lat="42.991805" lon="11.208625"><ele>132.0</ele><time>2026-05-02T15:36:35.789Z</time></trkpt><trkpt lat="42.991705" lon="11.2085267"><ele>132.5</ele><time>2026-05-02T15:36:36.786Z</time></trkpt><trkpt lat="42.991615" lon="11.2084333"><ele>133.0</ele><time>2026-05-02T15:36:37.785Z</time></trkpt><trkpt lat="42.9915283" lon="11.2083467"><ele>133.75</ele><time>2026-05-02T15:36:38.785Z</time></trkpt><trkpt lat="42.9914383" lon="11.2082583"><ele>134.5</ele><time>2026-05-02T15:36:39.786Z</time></trkpt><trkpt lat="42.991345" lon="11.2081633"><ele>135.25</ele><time>2026-05-02T15:36:40.785Z</time></trkpt><trkpt lat="42.9912517" lon="11.208065"><ele>136.0</ele><time>2026-05-02T15:36:41.786Z</time></trkpt><trkpt lat="42.9911517" lon="11.2079633"><ele>136.0</ele><time>2026-05-02T15:36:42.785Z</time></trkpt><trkpt lat="42.99105" lon="11.2078533"><ele>136.0</ele><time>2026-05-02T15:36:43.785Z</time></trkpt><trkpt lat="42.9909467" lon="11.2077333"><ele>136.0</ele><time>2026-05-02T15:36:44.787Z</time></trkpt><trkpt lat="42.9908383" lon="11.20761"><ele>136.0</ele><time>2026-05-02T15:36:45.786Z</time></trkpt><trkpt lat="42.990725" lon="11.2074833"><ele>136.66666666666669</ele><time>2026-05-02T15:36:46.786Z</time></trkpt><trkpt lat="42.990605" lon="11.2073533"><ele>137.33333333333334</ele><time>2026-05-02T15:36:47.786Z</time></trkpt><trkpt lat="42.9904817" lon="11.2072217"><ele>138.0</ele><time>2026-05-02T15:36:48.786Z</time></trkpt><trkpt lat="42.9903617" lon="11.2070933"><ele>138.0</ele><time>2026-05-02T15:36:49.785Z</time></trkpt><trkpt lat="42.9902533" lon="11.2069767"><ele>138.0</ele><time>2026-05-02T15:36:50.785Z</time></trkpt><trkpt lat="42.9901483" lon="11.206865"><ele>138.0</ele><time>2026-05-02T15:36:51.786Z</time></trkpt><trkpt lat="42.990045" lon="11.2067533"><ele>138.0</ele><time>2026-05-02T15:36:52.786Z</time></trkpt><trkpt lat="42.9899383" lon="11.2066433"><ele>138.0</ele><time>2026-05-02T15:36:53.786Z</time></trkpt><trkpt lat="42.9898333" lon="11.20653"><ele>138.0</ele><time>2026-05-02T15:36:54.789Z</time></trkpt><trkpt lat="42.9897233" lon="11.20641"><ele>138.0</ele><time>2026-05-02T15:36:55.789Z</time></trkpt><trkpt lat="42.9896167" lon="11.2062917"><ele>138.0</ele><time>2026-05-02T15:36:56.788Z</time></trkpt><trkpt lat="42.9895167" lon="11.206185"><ele>138.4</ele><time>2026-05-02T15:36:57.789Z</time></trkpt><trkpt lat="42.9894233" lon="11.2061017"><ele>138.8</ele><time>2026-05-02T15:36:58.788Z</time></trkpt><trkpt lat="42.9893383" lon="11.2060567"><ele>139.2</ele><time>2026-05-02T15:36:59.789Z</time></trkpt><trkpt lat="42.9892617" lon="11.206045"><ele>139.6</ele><time>2026-05-02T15:37:00.789Z</time></trkpt><trkpt lat="42.9891817" lon="11.206065"><ele>140.0</ele><time>2026-05-02T15:37:01.789Z</time></trkpt><trkpt lat="42.9890933" lon="11.2061017"><ele>141.5</ele><time>2026-05-02T15:37:02.789Z</time></trkpt><trkpt lat="42.9889883" lon="11.2061517"><ele>143.0</ele><time>2026-05-02T15:37:03.789Z</time></trkpt><trkpt lat="42.9888683" lon="11.2061933"><ele>144.5</ele><time>2026-05-02T15:37:04.789Z</time></trkpt><trkpt lat="42.98873" lon="11.2062333"><ele>146.0</ele><time>2026-05-02T15:37:05.79Z</time></trkpt><trkpt lat="42.9885917" lon="11.2062667"><ele>146.0</ele><time>2026-05-02T15:37:06.789Z</time></trkpt><trkpt lat="42.98846" lon="11.2062983"><ele>146.0</ele><time>2026-05-02T15:37:07.788Z</time></trkpt><trkpt lat="42.9883367" lon="11.20633"><ele>146.0</ele><time>2026-05-02T15:37:08.785Z</time></trkpt><trkpt lat="42.9882217" lon="11.2063567"><ele>146.0</ele><time>2026-05-02T15:37:09.786Z</time></trkpt><trkpt lat="42.9881167" lon="11.2063817"><ele>146.5</ele><time>2026-05-02T15:37:10.785Z</time></trkpt><trkpt lat="42.9880217" lon="11.2064167"><ele>147.0</ele><time>2026-05-02T15:37:11.786Z</time></trkpt><trkpt lat="42.9879333" lon="11.2064633"><ele>147.5</ele><time>2026-05-02T15:37:12.786Z</time></trkpt><trkpt lat="42.9878533" lon="11.2065083"><ele>148.0</ele><time>2026-05-02T15:37:13.789Z</time></trkpt><trkpt lat="42.9877817" lon="11.2065417"><ele>148.5</ele><time>2026-05-02T15:37:14.789Z</time></trkpt><trkpt lat="42.987715" lon="11.20656"><ele>149.0</ele><time>2026-05-02T15:37:15.789Z</time></trkpt><trkpt lat="42.9876483" lon="11.206575"><ele>147.4</ele><time>2026-05-02T15:37:16.789Z</time></trkpt><trkpt lat="42.9875267" lon="11.20661"><ele>145.8</ele><time>2026-05-02T15:37:18.785Z</time></trkpt><trkpt lat="42.9874083" lon="11.20666"><ele>144.2</ele><time>2026-05-02T15:37:20.789Z</time></trkpt><trkpt lat="42.9873467" lon="11.2066833"><ele>142.6</ele><time>2026-05-02T15:37:21.79Z</time></trkpt><trkpt lat="42.9872833" lon="11.20671"><ele>141.0</ele><time>2026-05-02T15:37:22.785Z</time></trkpt><trkpt lat="42.9871633" lon="11.2067467"><ele>140.83333333333334</ele><time>2026-05-02T15:37:24.785Z</time></trkpt><trkpt lat="42.9871033" lon="11.2067783"><ele>140.66666666666666</ele><time>2026-05-02T15:37:25.79Z</time></trkpt><trkpt lat="42.9870233" lon="11.2068217"><ele>140.5</ele><time>2026-05-02T15:37:26.789Z</time></trkpt><trkpt lat="42.986945" lon="11.206875"><ele>140.33333333333331</ele><time>2026-05-02T15:37:27.786Z</time></trkpt><trkpt lat="42.9868683" lon="11.2069283"><ele>140.16666666666666</ele><time>2026-05-02T15:37:28.789Z</time></trkpt><trkpt lat="42.98679" lon="11.2069883"><ele>140.0</ele><time>2026-05-02T15:37:29.786Z</time></trkpt><trkpt lat="42.986705" lon="11.207055"><ele>138.4</ele><time>2026-05-02T15:37:30.786Z</time></trkpt><trkpt lat="42.9866183" lon="11.2071217"><ele>136.8</ele><time>2026-05-02T15:37:31.786Z</time></trkpt><trkpt lat="42.986535" lon="11.2071917"><ele>135.2</ele><time>2026-05-02T15:37:32.785Z</time></trkpt><trkpt lat="42.9864583" lon="11.2072583"><ele>133.6</ele><time>2026-05-02T15:37:33.786Z</time></trkpt><trkpt lat="42.9863867" lon="11.2073167"><ele>132.0</ele><time>2026-05-02T15:37:34.787Z</time></trkpt><trkpt lat="42.986315" lon="11.2073667"><ele>132.0</ele><time>2026-05-02T15:37:35.786Z</time></trkpt><trkpt lat="42.986245" lon="11.2074"><ele>132.0</ele><time>2026-05-02T15:37:36.786Z</time></trkpt><trkpt lat="42.98618" lon="11.2074167"><ele>132.0</ele><time>2026-05-02T15:37:37.785Z</time></trkpt><trkpt lat="42.986115" lon="11.2074133"><ele>132.0</ele><time>2026-05-02T15:37:38.787Z</time></trkpt><trkpt lat="42.98605" lon="11.2073933"><ele>132.0</ele><time>2026-05-02T15:37:39.785Z</time></trkpt><trkpt lat="42.9859917" lon="11.2073533"><ele>132.0</ele><time>2026-05-02T15:37:40.786Z</time></trkpt><trkpt lat="42.9859417" lon="11.207295"><ele>132.0</ele><time>2026-05-02T15:37:41.787Z</time></trkpt><trkpt lat="42.9858967" lon="11.2072117"><ele>131.5</ele><time>2026-05-02T15:37:42.786Z</time></trkpt><trkpt lat="42.9858417" lon="11.2071033"><ele>131.0</ele><time>2026-05-02T15:37:43.789Z</time></trkpt><trkpt lat="42.9857733" lon="11.2069767"><ele>130.5</ele><time>2026-05-02T15:37:44.789Z</time></trkpt><trkpt lat="42.985695" lon="11.20684"><ele>130.0</ele><time>2026-05-02T15:37:45.786Z</time></trkpt><trkpt lat="42.9856117" lon="11.2066933"><ele>130.0</ele><time>2026-05-02T15:37:46.785Z</time></trkpt><trkpt lat="42.9855217" lon="11.20654"><ele>130.0</ele><time>2026-05-02T15:37:47.786Z</time></trkpt><trkpt lat="42.9854283" lon="11.2063817"><ele>130.0</ele><time>2026-05-02T15:37:48.785Z</time></trkpt><trkpt lat="42.9853367" lon="11.2062317"><ele>130.0</ele><time>2026-05-02T15:37:49.786Z</time></trkpt><trkpt lat="42.9852583" lon="11.2061033"><ele>130.33333333333334</ele><time>2026-05-02T15:37:50.787Z</time></trkpt><trkpt lat="42.9851883" lon="11.2059967"><ele>130.66666666666669</ele><time>2026-05-02T15:37:51.787Z</time></trkpt><trkpt lat="42.9851217" lon="11.2059217"><ele>131.0</ele><time>2026-05-02T15:37:52.79Z</time></trkpt><trkpt lat="42.9850567" lon="11.2058817"><ele>131.33333333333334</ele><time>2026-05-02T15:37:53.789Z</time></trkpt><trkpt lat="42.9849533" lon="11.2059217"><ele>131.66666666666666</ele><time>2026-05-02T15:37:55.786Z</time></trkpt><trkpt lat="42.9849033" lon="11.2059783"><ele>132.0</ele><time>2026-05-02T15:37:56.789Z</time></trkpt><trkpt lat="42.9848583" lon="11.2060417"><ele>132.6</ele><time>2026-05-02T15:37:57.786Z</time></trkpt><trkpt lat="42.9847917" lon="11.2061717"><ele>133.2</ele><time>2026-05-02T15:37:59.787Z</time></trkpt><trkpt lat="42.984725" lon="11.20631"><ele>133.8</ele><time>2026-05-02T15:38:01.786Z</time></trkpt><trkpt lat="42.9846467" lon="11.206385"><ele>134.4</ele><time>2026-05-02T15:38:03.788Z</time></trkpt><trkpt lat="42.9845483" lon="11.2063433"><ele>135.0</ele><time>2026-05-02T15:38:05.786Z</time></trkpt><trkpt lat="42.9844867" lon="11.2063017"><ele>135.0</ele><time>2026-05-02T15:38:06.787Z</time></trkpt><trkpt lat="42.9844017" lon="11.20624"><ele>135.0</ele><time>2026-05-02T15:38:07.786Z</time></trkpt><trkpt lat="42.9842967" lon="11.2061717"><ele>135.0</ele><time>2026-05-02T15:38:08.789Z</time></trkpt><trkpt lat="42.9841767" lon="11.206105"><ele>135.0</ele><time>2026-05-02T15:38:09.785Z</time></trkpt><trkpt lat="42.9840533" lon="11.2060417"><ele>135.25</ele><time>2026-05-02T15:38:10.789Z</time></trkpt><trkpt lat="42.9839217" lon="11.205975"><ele>135.5</ele><time>2026-05-02T15:38:11.79Z</time></trkpt><trkpt lat="42.9837933" lon="11.2059083"><ele>135.75</ele><time>2026-05-02T15:38:12.789Z</time></trkpt><trkpt lat="42.983675" lon="11.2058467"><ele>136.0</ele><time>2026-05-02T15:38:13.789Z</time></trkpt><trkpt lat="42.983565" lon="11.20579"><ele>136.0</ele><time>2026-05-02T15:38:14.786Z</time></trkpt><trkpt lat="42.9834617" lon="11.2057417"><ele>136.0</ele><time>2026-05-02T15:38:15.789Z</time></trkpt><trkpt lat="42.9833683" lon="11.2056933"><ele>136.0</ele><time>2026-05-02T15:38:16.789Z</time></trkpt><trkpt lat="42.9832833" lon="11.20565"><ele>136.0</ele><time>2026-05-02T15:38:17.79Z</time></trkpt><trkpt lat="42.9832133" lon="11.2056"><ele>136.0</ele><time>2026-05-02T15:38:18.79Z</time></trkpt><trkpt lat="42.9831517" lon="11.205535"><ele>136.6</ele><time>2026-05-02T15:38:19.786Z</time></trkpt><trkpt lat="42.9830983" lon="11.2054483"><ele>137.2</ele><time>2026-05-02T15:38:20.786Z</time></trkpt><trkpt lat="42.983045" lon="11.2053417"><ele>137.8</ele><time>2026-05-02T15:38:21.79Z</time></trkpt><trkpt lat="42.982995" lon="11.2052217"><ele>138.4</ele><time>2026-05-02T15:38:22.789Z</time></trkpt><trkpt lat="42.98294" lon="11.2050967"><ele>139.0</ele><time>2026-05-02T15:38:23.789Z</time></trkpt><trkpt lat="42.9828867" lon="11.20497"><ele>139.0</ele><time>2026-05-02T15:38:24.789Z</time></trkpt><trkpt lat="42.98283" lon="11.2048417"><ele>139.0</ele><time>2026-05-02T15:38:25.789Z</time></trkpt><trkpt lat="42.9827733" lon="11.2047183"><ele>139.0</ele><time>2026-05-02T15:38:26.79Z</time></trkpt><trkpt lat="42.98272" lon="11.2046067"><ele>139.0</ele><time>2026-05-02T15:38:27.786Z</time></trkpt><trkpt lat="42.982675" lon="11.2045167"><ele>139.0</ele><time>2026-05-02T15:38:28.786Z</time></trkpt><trkpt lat="42.9826383" lon="11.2044417"><ele>139.6</ele><time>2026-05-02T15:38:29.786Z</time></trkpt><trkpt lat="42.98264" lon="11.2043217"><ele>140.2</ele><time>2026-05-02T15:38:31.786Z</time></trkpt><trkpt lat="42.9827" lon="11.204175"><ele>140.79999999999998</ele><time>2026-05-02T15:38:33.786Z</time></trkpt><trkpt lat="42.982745" lon="11.2040783"><ele>141.4</ele><time>2026-05-02T15:38:34.786Z</time></trkpt><trkpt lat="42.9827983" lon="11.203975"><ele>142.0</ele><time>2026-05-02T15:38:35.786Z</time></trkpt><trkpt lat="42.9828617" lon="11.20385"><ele>142.5</ele><time>2026-05-02T15:38:36.786Z</time></trkpt><trkpt lat="42.9829367" lon="11.2037033"><ele>143.0</ele><time>2026-05-02T15:38:37.787Z</time></trkpt><trkpt lat="42.9830167" lon="11.2035483"><ele>143.5</ele><time>2026-05-02T15:38:38.789Z</time></trkpt><trkpt lat="42.9830983" lon="11.2033883"><ele>144.0</ele><time>2026-05-02T15:38:39.789Z</time></trkpt><trkpt lat="42.9831817" lon="11.2032167"><ele>145.66666666666666</ele><time>2026-05-02T15:38:40.789Z</time></trkpt><trkpt lat="42.9832617" lon="11.2030383"><ele>147.33333333333331</ele><time>2026-05-02T15:38:41.789Z</time></trkpt><trkpt lat="42.9833433" lon="11.2028583"><ele>149.0</ele><time>2026-05-02T15:38:42.789Z</time></trkpt><trkpt lat="42.983425" lon="11.2026783"><ele>151.33333333333331</ele><time>2026-05-02T15:38:43.79Z</time></trkpt><trkpt lat="42.9835083" lon="11.2024967"><ele>153.66666666666666</ele><time>2026-05-02T15:38:44.789Z</time></trkpt><trkpt lat="42.9835883" lon="11.202315"><ele>156.0</ele><time>2026-05-02T15:38:45.789Z</time></trkpt><trkpt lat="42.9836717" lon="11.202135"><ele>158.66666666666666</ele><time>2026-05-02T15:38:46.789Z</time></trkpt><trkpt lat="42.9837567" lon="11.2019567"><ele>161.33333333333331</ele><time>2026-05-02T15:38:47.79Z</time></trkpt><trkpt lat="42.9838417" lon="11.201785"><ele>164.0</ele><time>2026-05-02T15:38:48.79Z</time></trkpt><trkpt lat="42.9839233" lon="11.2016167"><ele>165.0</ele><time>2026-05-02T15:38:49.79Z</time></trkpt><trkpt lat="42.9840017" lon="11.2014483"><ele>166.0</ele><time>2026-05-02T15:38:50.787Z</time></trkpt><trkpt lat="42.9840767" lon="11.2012833"><ele>167.0</ele><time>2026-05-02T15:38:51.789Z</time></trkpt><trkpt lat="42.9841483" lon="11.2011183"><ele>168.0</ele><time>2026-05-02T15:38:52.789Z</time></trkpt><trkpt lat="42.9842167" lon="11.200965"><ele>168.0</ele><time>2026-05-02T15:38:53.786Z</time></trkpt><trkpt lat="42.9842767" lon="11.2008367"><ele>168.0</ele><time>2026-05-02T15:38:54.79Z</time></trkpt><trkpt lat="42.9843283" lon="11.2007283"><ele>168.0</ele><time>2026-05-02T15:38:55.789Z</time></trkpt><trkpt lat="42.9843717" lon="11.200635"><ele>168.0</ele><time>2026-05-02T15:38:56.787Z</time></trkpt><trkpt lat="42.98441" lon="11.2005433"><ele>168.0</ele><time>2026-05-02T15:38:57.786Z</time></trkpt><trkpt lat="42.984455" lon="11.20046"><ele>168.0</ele><time>2026-05-02T15:38:58.786Z</time></trkpt><trkpt lat="42.98452" lon="11.2003783"><ele>168.4</ele><time>2026-05-02T15:38:59.786Z</time></trkpt><trkpt lat="42.9846" lon="11.200305"><ele>168.8</ele><time>2026-05-02T15:39:00.786Z</time></trkpt><trkpt lat="42.9846917" lon="11.20023"><ele>169.2</ele><time>2026-05-02T15:39:01.787Z</time></trkpt><trkpt lat="42.9847917" lon="11.2001467"><ele>169.6</ele><time>2026-05-02T15:39:02.786Z</time></trkpt><trkpt lat="42.9848967" lon="11.2000533"><ele>170.0</ele><time>2026-05-02T15:39:03.787Z</time></trkpt><trkpt lat="42.985005" lon="11.1999567"><ele>170.25</ele><time>2026-05-02T15:39:04.787Z</time></trkpt><trkpt lat="42.98511" lon="11.1998617"><ele>170.5</ele><time>2026-05-02T15:39:05.787Z</time></trkpt><trkpt lat="42.9852083" lon="11.1997717"><ele>170.75</ele><time>2026-05-02T15:39:06.787Z</time></trkpt><trkpt lat="42.985295" lon="11.19969"><ele>171.0</ele><time>2026-05-02T15:39:07.787Z</time></trkpt><trkpt lat="42.9853783" lon="11.1996083"><ele>171.8</ele><time>2026-05-02T15:39:08.79Z</time></trkpt><trkpt lat="42.985455" lon="11.1995217"><ele>172.60000000000002</ele><time>2026-05-02T15:39:09.788Z</time></trkpt><trkpt lat="42.9855217" lon="11.1994217"><ele>173.4</ele><time>2026-05-02T15:39:10.789Z</time></trkpt><trkpt lat="42.9855783" lon="11.1993067"><ele>174.2</ele><time>2026-05-02T15:39:11.789Z</time></trkpt><trkpt lat="42.98563" lon="11.19917"><ele>175.0</ele><time>2026-05-02T15:39:12.789Z</time></trkpt><trkpt lat="42.985675" lon="11.1990233"><ele>175.75</ele><time>2026-05-02T15:39:13.79Z</time></trkpt><trkpt lat="42.9857167" lon="11.1988717"><ele>176.5</ele><time>2026-05-02T15:39:14.79Z</time></trkpt><trkpt lat="42.98576" lon="11.19872"><ele>177.25</ele><time>2026-05-02T15:39:15.789Z</time></trkpt><trkpt lat="42.9858033" lon="11.19856"><ele>178.0</ele><time>2026-05-02T15:39:16.789Z</time></trkpt><trkpt lat="42.9858483" lon="11.1983933"><ele>180.75</ele><time>2026-05-02T15:39:17.79Z</time></trkpt><trkpt lat="42.9858917" lon="11.1982267"><ele>183.5</ele><time>2026-05-02T15:39:18.789Z</time></trkpt><trkpt lat="42.9859383" lon="11.19805"><ele>186.25</ele><time>2026-05-02T15:39:19.789Z</time></trkpt><trkpt lat="42.9859883" lon="11.197855"><ele>189.0</ele><time>2026-05-02T15:39:20.789Z</time></trkpt><trkpt lat="42.9860417" lon="11.1976517"><ele>190.5</ele><time>2026-05-02T15:39:21.791Z</time></trkpt><trkpt lat="42.986095" lon="11.1974517"><ele>192.0</ele><time>2026-05-02T15:39:22.789Z</time></trkpt><trkpt lat="42.9861483" lon="11.19726"><ele>193.5</ele><time>2026-05-02T15:39:23.79Z</time></trkpt><trkpt lat="42.9862" lon="11.1970817"><ele>195.0</ele><time>2026-05-02T15:39:24.79Z</time></trkpt><trkpt lat="42.986245" lon="11.196905"><ele>196.25</ele><time>2026-05-02T15:39:25.79Z</time></trkpt><trkpt lat="42.986285" lon="11.19674"><ele>197.5</ele><time>2026-05-02T15:39:26.786Z</time></trkpt><trkpt lat="42.9863233" lon="11.1965733"><ele>198.75</ele><time>2026-05-02T15:39:27.787Z</time></trkpt><trkpt lat="42.9863683" lon="11.1964183"><ele>200.0</ele><time>2026-05-02T15:39:28.786Z</time></trkpt><trkpt lat="42.9864133" lon="11.196275"><ele>200.33333333333334</ele><time>2026-05-02T15:39:29.788Z</time></trkpt><trkpt lat="42.9864517" lon="11.19615"><ele>200.66666666666669</ele><time>2026-05-02T15:39:30.786Z</time></trkpt><trkpt lat="42.986485" lon="11.1960367"><ele>201.0</ele><time>2026-05-02T15:39:31.788Z</time></trkpt><trkpt lat="42.986515" lon="11.1959283"><ele>201.33333333333331</ele><time>2026-05-02T15:39:32.79Z</time></trkpt><trkpt lat="42.9865483" lon="11.19583"><ele>201.66666666666666</ele><time>2026-05-02T15:39:33.789Z</time></trkpt><trkpt lat="42.98658" lon="11.1957233"><ele>202.0</ele><time>2026-05-02T15:39:34.878Z</time></trkpt><trkpt lat="42.98661" lon="11.1956033"><ele>203.25</ele><time>2026-05-02T15:39:35.785Z</time></trkpt><trkpt lat="42.9866417" lon="11.1954633"><ele>204.5</ele><time>2026-05-02T15:39:36.789Z</time></trkpt><trkpt lat="42.986675" lon="11.1953117"><ele>205.75</ele><time>2026-05-02T15:39:37.79Z</time></trkpt><trkpt lat="42.98671" lon="11.1951583"><ele>207.0</ele><time>2026-05-02T15:39:38.79Z</time></trkpt><trkpt lat="42.9867467" lon="11.195005"><ele>206.25</ele><time>2026-05-02T15:39:39.788Z</time></trkpt><trkpt lat="42.9867883" lon="11.1948483"><ele>205.5</ele><time>2026-05-02T15:39:40.789Z</time></trkpt><trkpt lat="42.986835" lon="11.1946883"><ele>204.75</ele><time>2026-05-02T15:39:41.788Z</time></trkpt><trkpt lat="42.9868817" lon="11.194525"><ele>204.0</ele><time>2026-05-02T15:39:42.788Z</time></trkpt><trkpt lat="42.9869233" lon="11.1943567"><ele>204.0</ele><time>2026-05-02T15:39:43.789Z</time></trkpt><trkpt lat="42.9869667" lon="11.1941917"><ele>204.0</ele><time>2026-05-02T15:39:44.788Z</time></trkpt><trkpt lat="42.987005" lon="11.1940267"><ele>204.0</ele><time>2026-05-02T15:39:45.789Z</time></trkpt><trkpt lat="42.9870467" lon="11.193875"><ele>204.0</ele><time>2026-05-02T15:39:46.79Z</time></trkpt><trkpt lat="42.9870867" lon="11.1937467"><ele>205.33333333333334</ele><time>2026-05-02T15:39:47.789Z</time></trkpt><trkpt lat="42.9871183" lon="11.1936433"><ele>206.66666666666669</ele><time>2026-05-02T15:39:48.79Z</time></trkpt><trkpt lat="42.9871517" lon="11.193555"><ele>208.0</ele><time>2026-05-02T15:39:49.788Z</time></trkpt><trkpt lat="42.9871833" lon="11.1934633"><ele>209.33333333333334</ele><time>2026-05-02T15:39:50.789Z</time></trkpt><trkpt lat="42.9872283" lon="11.19336"><ele>210.66666666666669</ele><time>2026-05-02T15:39:51.789Z</time></trkpt><trkpt lat="42.9872817" lon="11.1932433"><ele>212.0</ele><time>2026-05-02T15:39:52.789Z</time></trkpt><trkpt lat="42.9873417" lon="11.1931083"><ele>213.0</ele><time>2026-05-02T15:39:53.79Z</time></trkpt><trkpt lat="42.98741" lon="11.192965"><ele>214.0</ele><time>2026-05-02T15:39:54.79Z</time></trkpt><trkpt lat="42.9874783" lon="11.1928133"><ele>215.0</ele><time>2026-05-02T15:39:55.789Z</time></trkpt><trkpt lat="42.98755" lon="11.1926667"><ele>216.0</ele><time>2026-05-02T15:39:56.789Z</time></trkpt><trkpt lat="42.9876183" lon="11.1925217"><ele>216.0</ele><time>2026-05-02T15:39:57.788Z</time></trkpt><trkpt lat="42.9876867" lon="11.1923783"><ele>216.0</ele><time>2026-05-02T15:39:58.79Z</time></trkpt><trkpt lat="42.987755" lon="11.19223"><ele>216.0</ele><time>2026-05-02T15:39:59.788Z</time></trkpt><trkpt lat="42.987815" lon="11.192095"><ele>216.0</ele><time>2026-05-02T15:40:00.785Z</time></trkpt><trkpt lat="42.98787" lon="11.1919767"><ele>217.33333333333334</ele><time>2026-05-02T15:40:01.785Z</time></trkpt><trkpt lat="42.98792" lon="11.19187"><ele>218.66666666666669</ele><time>2026-05-02T15:40:02.789Z</time></trkpt><trkpt lat="42.9879733" lon="11.1917767"><ele>220.0</ele><time>2026-05-02T15:40:03.789Z</time></trkpt><trkpt lat="42.9880317" lon="11.1917033"><ele>221.33333333333334</ele><time>2026-05-02T15:40:04.788Z</time></trkpt><trkpt lat="42.9880983" lon="11.1916317"><ele>222.66666666666669</ele><time>2026-05-02T15:40:05.788Z</time></trkpt><trkpt lat="42.9881767" lon="11.1915567"><ele>224.0</ele><time>2026-05-02T15:40:06.789Z</time></trkpt><trkpt lat="42.98826" lon="11.1914883"><ele>228.25</ele><time>2026-05-02T15:40:07.786Z</time></trkpt><trkpt lat="42.98835" lon="11.191415"><ele>232.5</ele><time>2026-05-02T15:40:08.79Z</time></trkpt><trkpt lat="42.98844" lon="11.191335"><ele>236.75</ele><time>2026-05-02T15:40:09.787Z</time></trkpt><trkpt lat="42.9885367" lon="11.19125"><ele>241.0</ele><time>2026-05-02T15:40:10.789Z</time></trkpt><trkpt lat="42.98864" lon="11.1911583"><ele>241.0</ele><time>2026-05-02T15:40:11.788Z</time></trkpt><trkpt lat="42.9887433" lon="11.1910667"><ele>241.0</ele><time>2026-05-02T15:40:12.789Z</time></trkpt><trkpt lat="42.9888517" lon="11.1909733"><ele>241.0</ele><time>2026-05-02T15:40:13.789Z</time></trkpt><trkpt lat="42.9889567" lon="11.19088"><ele>241.0</ele><time>2026-05-02T15:40:14.79Z</time></trkpt><trkpt lat="42.9890567" lon="11.1907817"><ele>241.0</ele><time>2026-05-02T15:40:15.788Z</time></trkpt><trkpt lat="42.98916" lon="11.19068"><ele>241.0</ele><time>2026-05-02T15:40:16.789Z</time></trkpt><trkpt lat="42.9892583" lon="11.1905817"><ele>241.0</ele><time>2026-05-02T15:40:17.785Z</time></trkpt><trkpt lat="42.98936" lon="11.19049"><ele>241.0</ele><time>2026-05-02T15:40:18.789Z</time></trkpt><trkpt lat="42.989455" lon="11.1903933"><ele>246.75</ele><time>2026-05-02T15:40:19.785Z</time></trkpt><trkpt lat="42.9895417" lon="11.190295"><ele>252.5</ele><time>2026-05-02T15:40:20.786Z</time></trkpt><trkpt lat="42.98962" lon="11.19018"><ele>258.25</ele><time>2026-05-02T15:40:21.785Z</time></trkpt><trkpt lat="42.9896883" lon="11.1900467"><ele>264.0</ele><time>2026-05-02T15:40:22.786Z</time></trkpt><trkpt lat="42.9897683" lon="11.1899117"><ele>264.2</ele><time>2026-05-02T15:40:23.789Z</time></trkpt><trkpt lat="42.9898417" lon="11.1897867"><ele>264.4</ele><time>2026-05-02T15:40:24.788Z</time></trkpt><trkpt lat="42.9899117" lon="11.1896783"><ele>264.6</ele><time>2026-05-02T15:40:25.789Z</time></trkpt><trkpt lat="42.9899817" lon="11.1895733"><ele>264.8</ele><time>2026-05-02T15:40:26.785Z</time></trkpt><trkpt lat="42.99005" lon="11.18948"><ele>265.0</ele><time>2026-05-02T15:40:27.785Z</time></trkpt><trkpt lat="42.9901233" lon="11.1893983"><ele>268.0</ele><time>2026-05-02T15:40:28.788Z</time></trkpt><trkpt lat="42.9901967" lon="11.1893183"><ele>271.0</ele><time>2026-05-02T15:40:29.786Z</time></trkpt><trkpt lat="42.99027" lon="11.1892233"><ele>274.0</ele><time>2026-05-02T15:40:30.789Z</time></trkpt><trkpt lat="42.9903267" lon="11.1891067"><ele>277.0</ele><time>2026-05-02T15:40:31.786Z</time></trkpt><trkpt lat="42.990375" lon="11.1889583"><ele>280.0</ele><time>2026-05-02T15:40:32.786Z</time></trkpt><trkpt lat="42.990425" lon="11.1887867"><ele>281.75</ele><time>2026-05-02T15:40:33.791Z</time></trkpt><trkpt lat="42.990475" lon="11.18861"><ele>283.5</ele><time>2026-05-02T15:40:34.789Z</time></trkpt><trkpt lat="42.990515" lon="11.1884383"><ele>285.25</ele><time>2026-05-02T15:40:35.787Z</time></trkpt><trkpt lat="42.990545" lon="11.18826"><ele>287.0</ele><time>2026-05-02T15:40:36.787Z</time></trkpt><trkpt lat="42.99056" lon="11.1880683"><ele>287.83333333333337</ele><time>2026-05-02T15:40:37.786Z</time></trkpt><trkpt lat="42.99056" lon="11.1878983"><ele>288.6666666666667</ele><time>2026-05-02T15:40:38.79Z</time></trkpt><trkpt lat="42.9905467" lon="11.1877717"><ele>289.5</ele><time>2026-05-02T15:40:39.79Z</time></trkpt><trkpt lat="42.99053" lon="11.1876717"><ele>290.3333333333333</ele><time>2026-05-02T15:40:40.789Z</time></trkpt><trkpt lat="42.9905217" lon="11.18758"><ele>291.16666666666663</ele><time>2026-05-02T15:40:41.79Z</time></trkpt><trkpt lat="42.9905633" lon="11.1874867"><ele>292.0</ele><time>2026-05-02T15:40:43.789Z</time></trkpt><trkpt lat="42.99065" lon="11.1874667"><ele>292.0</ele><time>2026-05-02T15:40:45.79Z</time></trkpt><trkpt lat="42.9907633" lon="11.1874617"><ele>292.0</ele><time>2026-05-02T15:40:47.786Z</time></trkpt><trkpt lat="42.990875" lon="11.1874417"><ele>292.0</ele><time>2026-05-02T15:40:49.789Z</time></trkpt><trkpt lat="42.990995" lon="11.1874217"><ele>292.0</ele><time>2026-05-02T15:40:51.789Z</time></trkpt><trkpt lat="42.9910583" lon="11.1874067"><ele>292.0</ele><time>2026-05-02T15:40:52.786Z</time></trkpt><trkpt lat="42.9911217" lon="11.1873867"><ele>294.66666666666663</ele><time>2026-05-02T15:40:53.786Z</time></trkpt><trkpt lat="42.9911883" lon="11.1873733"><ele>297.3333333333333</ele><time>2026-05-02T15:40:54.785Z</time></trkpt><trkpt lat="42.9912683" lon="11.18736"><ele>300.0</ele><time>2026-05-02T15:40:55.785Z</time></trkpt><trkpt lat="42.9913517" lon="11.18735"><ele>302.6666666666667</ele><time>2026-05-02T15:40:56.787Z</time></trkpt><trkpt lat="42.99144" lon="11.1873367"><ele>305.33333333333337</ele><time>2026-05-02T15:40:57.786Z</time></trkpt><trkpt lat="42.991525" lon="11.1873167"><ele>308.0</ele><time>2026-05-02T15:40:58.786Z</time></trkpt><trkpt lat="42.9916" lon="11.1872967"><ele>308.5</ele><time>2026-05-02T15:40:59.786Z</time></trkpt><trkpt lat="42.9916667" lon="11.1872833"><ele>309.0</ele><time>2026-05-02T15:41:00.786Z</time></trkpt><trkpt lat="42.99173" lon="11.1872783"><ele>309.5</ele><time>2026-05-02T15:41:01.786Z</time></trkpt><trkpt lat="42.9918133" lon="11.1873267"><ele>310.0</ele><time>2026-05-02T15:41:03.786Z</time></trkpt><trkpt lat="42.99192" lon="11.1874083"><ele>310.5</ele><time>2026-05-02T15:41:05.789Z</time></trkpt><trkpt lat="42.9919967" lon="11.187435"><ele>311.0</ele><time>2026-05-02T15:41:06.789Z</time></trkpt><trkpt lat="42.9920783" lon="11.187445"><ele>311.0</ele><time>2026-05-02T15:41:07.785Z</time></trkpt><trkpt lat="42.9921567" lon="11.1874367"><ele>311.0</ele><time>2026-05-02T15:41:08.786Z</time></trkpt><trkpt lat="42.992235" lon="11.1874033"><ele>311.0</ele><time>2026-05-02T15:41:09.786Z</time></trkpt><trkpt lat="42.9923133" lon="11.1873583"><ele>311.0</ele><time>2026-05-02T15:41:10.789Z</time></trkpt><trkpt lat="42.9923883" lon="11.187315"><ele>311.0</ele><time>2026-05-02T15:41:11.79Z</time></trkpt><trkpt lat="42.992465" lon="11.1872767"><ele>311.0</ele><time>2026-05-02T15:41:12.787Z</time></trkpt><trkpt lat="42.9925417" lon="11.1872383"><ele>312.2</ele><time>2026-05-02T15:41:13.79Z</time></trkpt><trkpt lat="42.992615" lon="11.1871967"><ele>313.40000000000003</ele><time>2026-05-02T15:41:14.785Z</time></trkpt><trkpt lat="42.9926933" lon="11.1871433"><ele>314.6</ele><time>2026-05-02T15:41:15.79Z</time></trkpt><trkpt lat="42.9927733" lon="11.1870717"><ele>315.8</ele><time>2026-05-02T15:41:16.788Z</time></trkpt><trkpt lat="42.9928567" lon="11.186985"><ele>317.0</ele><time>2026-05-02T15:41:17.789Z</time></trkpt><trkpt lat="42.992945" lon="11.186885"><ele>317.0</ele><time>2026-05-02T15:41:18.789Z</time></trkpt><trkpt lat="42.9930367" lon="11.1867783"><ele>317.0</ele><time>2026-05-02T15:41:19.788Z</time></trkpt><trkpt lat="42.9931367" lon="11.1866633"><ele>317.0</ele><time>2026-05-02T15:41:20.789Z</time></trkpt><trkpt lat="42.9932433" lon="11.1865383"><ele>317.0</ele><time>2026-05-02T15:41:21.79Z</time></trkpt><trkpt lat="42.9933483" lon="11.18641"><ele>319.25</ele><time>2026-05-02T15:41:22.79Z</time></trkpt><trkpt lat="42.9934467" lon="11.1863067"><ele>321.5</ele><time>2026-05-02T15:41:23.787Z</time></trkpt><trkpt lat="42.993535" lon="11.186215"><ele>323.75</ele><time>2026-05-02T15:41:24.79Z</time></trkpt><trkpt lat="42.9936233" lon="11.1861133"><ele>326.0</ele><time>2026-05-02T15:41:25.789Z</time></trkpt><trkpt lat="42.9937133" lon="11.1860083"><ele>326.0</ele><time>2026-05-02T15:41:26.79Z</time></trkpt><trkpt lat="42.9938133" lon="11.1858933"><ele>326.0</ele><time>2026-05-02T15:41:27.789Z</time></trkpt><trkpt lat="42.99392" lon="11.1857767"><ele>326.0</ele><time>2026-05-02T15:41:28.789Z</time></trkpt><trkpt lat="42.9940233" lon="11.185655"><ele>326.0</ele><time>2026-05-02T15:41:29.789Z</time></trkpt><trkpt lat="42.9941283" lon="11.1855383"><ele>328.75</ele><time>2026-05-02T15:41:30.79Z</time></trkpt><trkpt lat="42.994235" lon="11.18542"><ele>331.5</ele><time>2026-05-02T15:41:31.789Z</time></trkpt><trkpt lat="42.99434" lon="11.185305"><ele>334.25</ele><time>2026-05-02T15:41:32.79Z</time></trkpt><trkpt lat="42.9944433" lon="11.185195"><ele>337.0</ele><time>2026-05-02T15:41:33.79Z</time></trkpt><trkpt lat="42.9945433" lon="11.185085"><ele>337.0</ele><time>2026-05-02T15:41:34.789Z</time></trkpt><trkpt lat="42.9946417" lon="11.1849817"><ele>337.0</ele><time>2026-05-02T15:41:35.789Z</time></trkpt><trkpt lat="42.99474" lon="11.1848767"><ele>337.0</ele><time>2026-05-02T15:41:36.789Z</time></trkpt><trkpt lat="42.9948383" lon="11.1847717"><ele>337.0</ele><time>2026-05-02T15:41:37.789Z</time></trkpt><trkpt lat="42.9949383" lon="11.18467"><ele>336.20000000000005</ele><time>2026-05-02T15:41:38.79Z</time></trkpt><trkpt lat="42.99503" lon="11.184565"><ele>335.4</ele><time>2026-05-02T15:41:39.789Z</time></trkpt><trkpt lat="42.9951117" lon="11.1844583"><ele>334.6</ele><time>2026-05-02T15:41:40.789Z</time></trkpt><trkpt lat="42.9951767" lon="11.184365"><ele>333.79999999999995</ele><time>2026-05-02T15:41:41.789Z</time></trkpt><trkpt lat="42.9952233" lon="11.1842883"><ele>333.0</ele><time>2026-05-02T15:41:42.789Z</time></trkpt><trkpt lat="42.9952567" lon="11.1842083"><ele>333.0</ele><time>2026-05-02T15:41:43.787Z</time></trkpt><trkpt lat="42.9952733" lon="11.1841167"><ele>333.0</ele><time>2026-05-02T15:41:44.789Z</time></trkpt><trkpt lat="42.995285" lon="11.1840117"><ele>333.0</ele><time>2026-05-02T15:41:45.79Z</time></trkpt><trkpt lat="42.9953017" lon="11.18391"><ele>333.0</ele><time>2026-05-02T15:41:46.79Z</time></trkpt><trkpt lat="42.9953267" lon="11.1838067"><ele>333.0</ele><time>2026-05-02T15:41:47.878Z</time></trkpt><trkpt lat="42.99536" lon="11.1837067"><ele>333.0</ele><time>2026-05-02T15:41:48.787Z</time></trkpt><trkpt lat="42.9953867" lon="11.1836133"><ele>334.3333333333333</ele><time>2026-05-02T15:41:49.786Z</time></trkpt><trkpt lat="42.9954" lon="11.18351"><ele>335.6666666666667</ele><time>2026-05-02T15:41:50.789Z</time></trkpt><trkpt lat="42.9953967" lon="11.183395"><ele>337.0</ele><time>2026-05-02T15:41:51.789Z</time></trkpt><trkpt lat="42.9954" lon="11.1832667"><ele>338.33333333333337</ele><time>2026-05-02T15:41:52.789Z</time></trkpt><trkpt lat="42.9954033" lon="11.1831317"><ele>339.6666666666667</ele><time>2026-05-02T15:41:53.789Z</time></trkpt><trkpt lat="42.9954233" lon="11.1830217"><ele>341.0</ele><time>2026-05-02T15:41:54.789Z</time></trkpt><trkpt lat="42.9954583" lon="11.1829233"><ele>343.33333333333337</ele><time>2026-05-02T15:41:55.789Z</time></trkpt><trkpt lat="42.9955083" lon="11.182835"><ele>345.6666666666667</ele><time>2026-05-02T15:41:56.789Z</time></trkpt><trkpt lat="42.99557" lon="11.1827467"><ele>348.0</ele><time>2026-05-02T15:41:57.789Z</time></trkpt><trkpt lat="42.9956417" lon="11.1826617"><ele>350.3333333333333</ele><time>2026-05-02T15:41:58.79Z</time></trkpt><trkpt lat="42.9957067" lon="11.1825817"><ele>352.66666666666663</ele><time>2026-05-02T15:41:59.789Z</time></trkpt><trkpt lat="42.9957617" lon="11.1825083"><ele>355.0</ele><time>2026-05-02T15:42:00.791Z</time></trkpt><trkpt lat="42.995805" lon="11.1824367"><ele>351.8333333333333</ele><time>2026-05-02T15:42:01.79Z</time></trkpt><trkpt lat="42.9958417" lon="11.1823667"><ele>348.66666666666663</ele><time>2026-05-02T15:42:02.789Z</time></trkpt><trkpt lat="42.99587" lon="11.1822833"><ele>345.5</ele><time>2026-05-02T15:42:03.789Z</time></trkpt><trkpt lat="42.9959" lon="11.1821783"><ele>342.3333333333333</ele><time>2026-05-02T15:42:04.789Z</time></trkpt><trkpt lat="42.995925" lon="11.1820633"><ele>339.1666666666667</ele><time>2026-05-02T15:42:05.79Z</time></trkpt><trkpt lat="42.9959533" lon="11.1819467"><ele>336.0</ele><time>2026-05-02T15:42:06.789Z</time></trkpt><trkpt lat="42.9959767" lon="11.1818283"><ele>336.0</ele><time>2026-05-02T15:42:07.789Z</time></trkpt><trkpt lat="42.99601" lon="11.181715"><ele>336.0</ele><time>2026-05-02T15:42:08.787Z</time></trkpt><trkpt lat="42.9960533" lon="11.1815983"><ele>336.0</ele><time>2026-05-02T15:42:09.789Z</time></trkpt><trkpt lat="42.9961" lon="11.1814867"><ele>336.0</ele><time>2026-05-02T15:42:10.789Z</time></trkpt><trkpt lat="42.996145" lon="11.181385"><ele>336.0</ele><time>2026-05-02T15:42:11.789Z</time></trkpt><trkpt lat="42.9961767" lon="11.1813017"><ele>336.0</ele><time>2026-05-02T15:42:12.789Z</time></trkpt><trkpt lat="42.9962083" lon="11.1811383"><ele>337.6666666666667</ele><time>2026-05-02T15:42:14.789Z</time></trkpt><trkpt lat="42.9961933" lon="11.1809733"><ele>339.3333333333333</ele><time>2026-05-02T15:42:16.789Z</time></trkpt><trkpt lat="42.99617" lon="11.1808783"><ele>341.0</ele><time>2026-05-02T15:42:17.789Z</time></trkpt><trkpt lat="42.9961483" lon="11.1807767"><ele>342.66666666666663</ele><time>2026-05-02T15:42:18.79Z</time></trkpt><trkpt lat="42.9961267" lon="11.1806667"><ele>344.3333333333333</ele><time>2026-05-02T15:42:19.79Z</time></trkpt><trkpt lat="42.996115" lon="11.1805433"><ele>346.0</ele><time>2026-05-02T15:42:20.791Z</time></trkpt><trkpt lat="42.996105" lon="11.1804133"><ele>347.0</ele><time>2026-05-02T15:42:21.79Z</time></trkpt><trkpt lat="42.99609" lon="11.18029"><ele>348.0</ele><time>2026-05-02T15:42:22.789Z</time></trkpt><trkpt lat="42.9960783" lon="11.18018"><ele>349.0</ele><time>2026-05-02T15:42:23.789Z</time></trkpt><trkpt lat="42.9960717" lon="11.1800917"><ele>350.0</ele><time>2026-05-02T15:42:24.79Z</time></trkpt><trkpt lat="42.9960883" lon="11.1799533"><ele>351.0</ele><time>2026-05-02T15:42:26.79Z</time></trkpt><trkpt lat="42.9961083" lon="11.179865"><ele>352.0</ele><time>2026-05-02T15:42:27.789Z</time></trkpt><trkpt lat="42.9961217" lon="11.1797667"><ele>352.5</ele><time>2026-05-02T15:42:28.791Z</time></trkpt><trkpt lat="42.9961317" lon="11.17965"><ele>353.0</ele><time>2026-05-02T15:42:29.79Z</time></trkpt><trkpt lat="42.9961367" lon="11.179525"><ele>353.5</ele><time>2026-05-02T15:42:30.79Z</time></trkpt><trkpt lat="42.99615" lon="11.179405"><ele>354.0</ele><time>2026-05-02T15:42:31.79Z</time></trkpt><trkpt lat="42.9961817" lon="11.179305"><ele>354.5</ele><time>2026-05-02T15:42:32.79Z</time></trkpt><trkpt lat="42.9962333" lon="11.1792117"><ele>355.0</ele><time>2026-05-02T15:42:33.79Z</time></trkpt><trkpt lat="42.9963" lon="11.1791117"><ele>356.4</ele><time>2026-05-02T15:42:34.791Z</time></trkpt><trkpt lat="42.9963817" lon="11.17901"><ele>357.8</ele><time>2026-05-02T15:42:35.787Z</time></trkpt><trkpt lat="42.9964583" lon="11.17892"><ele>359.20000000000005</ele><time>2026-05-02T15:42:36.79Z</time></trkpt><trkpt lat="42.9965333" lon="11.178835"><ele>360.6</ele><time>2026-05-02T15:42:37.79Z</time></trkpt><trkpt lat="42.9965983" lon="11.1787567"><ele>362.0</ele><time>2026-05-02T15:42:38.789Z</time></trkpt><trkpt lat="42.9966583" lon="11.178695"><ele>361.5</ele><time>2026-05-02T15:42:39.79Z</time></trkpt><trkpt lat="42.9967183" lon="11.178645"><ele>361.0</ele><time>2026-05-02T15:42:40.79Z</time></trkpt><trkpt lat="42.9968117" lon="11.17856"><ele>360.5</ele><time>2026-05-02T15:42:42.79Z</time></trkpt><trkpt lat="42.99689" lon="11.1784667"><ele>360.0</ele><time>2026-05-02T15:42:44.789Z</time></trkpt><trkpt lat="42.9969417" lon="11.1784117"><ele>359.5</ele><time>2026-05-02T15:42:45.791Z</time></trkpt><trkpt lat="42.9969967" lon="11.1783583"><ele>359.0</ele><time>2026-05-02T15:42:46.79Z</time></trkpt><trkpt lat="42.997095" lon="11.1782633"><ele>361.4</ele><time>2026-05-02T15:42:48.789Z</time></trkpt><trkpt lat="42.997195" lon="11.1781667"><ele>363.79999999999995</ele><time>2026-05-02T15:42:50.788Z</time></trkpt><trkpt lat="42.9972467" lon="11.17811"><ele>366.20000000000005</ele><time>2026-05-02T15:42:51.789Z</time></trkpt><trkpt lat="42.9972967" lon="11.1780517"><ele>368.6</ele><time>2026-05-02T15:42:52.788Z</time></trkpt><trkpt lat="42.9973967" lon="11.17795"><ele>371.0</ele><time>2026-05-02T15:42:54.79Z</time></trkpt><trkpt lat="42.99749" lon="11.1778667"><ele>369.4</ele><time>2026-05-02T15:42:56.789Z</time></trkpt><trkpt lat="42.99758" lon="11.1777867"><ele>367.8</ele><time>2026-05-02T15:42:58.789Z</time></trkpt><trkpt lat="42.99766" lon="11.1777117"><ele>366.2</ele><time>2026-05-02T15:43:00.79Z</time></trkpt><trkpt lat="42.9977317" lon="11.177645"><ele>364.59999999999997</ele><time>2026-05-02T15:43:02.788Z</time></trkpt><trkpt lat="42.9978167" lon="11.17756"><ele>363.0</ele><time>2026-05-02T15:43:04.789Z</time></trkpt><trkpt lat="42.9978733" lon="11.1775033"><ele>363.0</ele><time>2026-05-02T15:43:05.787Z</time></trkpt><trkpt lat="42.9979417" lon="11.1774533"><ele>363.0</ele><time>2026-05-02T15:43:06.788Z</time></trkpt><trkpt lat="42.9980133" lon="11.1773967"><ele>363.0</ele><time>2026-05-02T15:43:07.79Z</time></trkpt><trkpt lat="42.998085" lon="11.17734"><ele>363.0</ele><time>2026-05-02T15:43:08.789Z</time></trkpt><trkpt lat="42.9981483" lon="11.1772817"><ele>363.0</ele><time>2026-05-02T15:43:09.785Z</time></trkpt><trkpt lat="42.99822" lon="11.1772183"><ele>363.0</ele><time>2026-05-02T15:43:10.789Z</time></trkpt><trkpt lat="42.99829" lon="11.1771517"><ele>362.3333333333333</ele><time>2026-05-02T15:43:11.788Z</time></trkpt><trkpt lat="42.998355" lon="11.1770933"><ele>361.6666666666667</ele><time>2026-05-02T15:43:12.789Z</time></trkpt><trkpt lat="42.9984233" lon="11.1770233"><ele>361.0</ele><time>2026-05-02T15:43:13.789Z</time></trkpt><trkpt lat="42.9984833" lon="11.1769467"><ele>360.33333333333337</ele><time>2026-05-02T15:43:14.789Z</time></trkpt><trkpt lat="42.9985383" lon="11.1768717"><ele>359.6666666666667</ele><time>2026-05-02T15:43:15.789Z</time></trkpt><trkpt lat="42.9985883" lon="11.1767933"><ele>359.0</ele><time>2026-05-02T15:43:16.785Z</time></trkpt><trkpt lat="42.9986367" lon="11.1767217"><ele>359.0</ele><time>2026-05-02T15:43:17.786Z</time></trkpt><trkpt lat="42.9986783" lon="11.1766567"><ele>359.0</ele><time>2026-05-02T15:43:18.785Z</time></trkpt><trkpt lat="42.9987517" lon="11.176535"><ele>359.0</ele><time>2026-05-02T15:43:20.788Z</time></trkpt><trkpt lat="42.9987967" lon="11.1764533"><ele>359.0</ele><time>2026-05-02T15:43:21.789Z</time></trkpt><trkpt lat="42.9988433" lon="11.1763817"><ele>359.0</ele><time>2026-05-02T15:43:22.789Z</time></trkpt><trkpt lat="42.998895" lon="11.1763183"><ele>359.0</ele><time>2026-05-02T15:43:23.79Z</time></trkpt><trkpt lat="42.9989533" lon="11.1762767"><ele>360.0</ele><time>2026-05-02T15:43:24.79Z</time></trkpt><trkpt lat="42.9990767" lon="11.1762767"><ele>361.0</ele><time>2026-05-02T15:43:26.789Z</time></trkpt><trkpt lat="42.9991433" lon="11.1762833"><ele>362.0</ele><time>2026-05-02T15:43:27.786Z</time></trkpt><trkpt lat="42.9992133" lon="11.176285"><ele>363.0</ele><time>2026-05-02T15:43:28.785Z</time></trkpt><trkpt lat="42.99928" lon="11.17627"><ele>364.0</ele><time>2026-05-02T15:43:29.788Z</time></trkpt><trkpt lat="42.99934" lon="11.17624"><ele>365.0</ele><time>2026-05-02T15:43:30.789Z</time></trkpt><trkpt lat="42.9994283" lon="11.176105"><ele>365.1666666666667</ele><time>2026-05-02T15:43:32.789Z</time></trkpt><trkpt lat="42.9994733" lon="11.1760167"><ele>365.33333333333337</ele><time>2026-05-02T15:43:33.789Z</time></trkpt><trkpt lat="42.9995217" lon="11.17594"><ele>365.5</ele><time>2026-05-02T15:43:34.786Z</time></trkpt><trkpt lat="42.999585" lon="11.1758633"><ele>365.6666666666667</ele><time>2026-05-02T15:43:35.788Z</time></trkpt><trkpt lat="42.99966" lon="11.1757967"><ele>365.8333333333333</ele><time>2026-05-02T15:43:36.789Z</time></trkpt><trkpt lat="42.9997517" lon="11.175735"><ele>366.0</ele><time>2026-05-02T15:43:37.789Z</time></trkpt><trkpt lat="42.99985" lon="11.175665"><ele>367.4</ele><time>2026-05-02T15:43:38.789Z</time></trkpt><trkpt lat="42.9999433" lon="11.1755917"><ele>368.8</ele><time>2026-05-02T15:43:39.79Z</time></trkpt><trkpt lat="43.0000433" lon="11.1755"><ele>370.2</ele><time>2026-05-02T15:43:40.789Z</time></trkpt><trkpt lat="43.000135" lon="11.1754167"><ele>371.59999999999997</ele><time>2026-05-02T15:43:41.79Z</time></trkpt><trkpt lat="43.0002167" lon="11.1753333"><ele>373.0</ele><time>2026-05-02T15:43:42.789Z</time></trkpt><trkpt lat="43.000285" lon="11.1752683"><ele>373.0</ele><time>2026-05-02T15:43:43.789Z</time></trkpt><trkpt lat="43.0003467" lon="11.1752133"><ele>373.0</ele><time>2026-05-02T15:43:44.789Z</time></trkpt><trkpt lat="43.00041" lon="11.1751567"><ele>373.0</ele><time>2026-05-02T15:43:46.79Z</time></trkpt><trkpt lat="43.000475" lon="11.1753967"><ele>373.0</ele><time>2026-05-02T15:44:11.339Z</time></trkpt><trkpt lat="43.000445" lon="11.1752333"><ele>373.0</ele><time>2026-05-02T15:44:14.732Z</time></trkpt><trkpt lat="43.0004833" lon="11.1751233"><ele>373.0</ele><time>2026-05-02T15:44:21.786Z</time></trkpt><trkpt lat="43.00046" lon="11.1749933"><ele>373.0</ele><time>2026-05-02T15:44:23.786Z</time></trkpt><trkpt lat="43.0004283" lon="11.1748283"><ele>373.0</ele><time>2026-05-02T15:44:25.785Z</time></trkpt><trkpt lat="43.00041" lon="11.1747383"><ele>373.0</ele><time>2026-05-02T15:44:26.786Z</time></trkpt><trkpt lat="43.00039" lon="11.17465"><ele>373.0</ele><time>2026-05-02T15:44:27.786Z</time></trkpt><trkpt lat="43.00037" lon="11.1745617"><ele>374.2857142857143</ele><time>2026-05-02T15:44:28.786Z</time></trkpt><trkpt lat="43.00035" lon="11.17447"><ele>375.57142857142856</ele><time>2026-05-02T15:44:29.786Z</time></trkpt><trkpt lat="43.00033" lon="11.17438"><ele>376.8571428571429</ele><time>2026-05-02T15:44:30.785Z</time></trkpt><trkpt lat="43.0003083" lon="11.174285"><ele>378.1428571428571</ele><time>2026-05-02T15:44:31.786Z</time></trkpt><trkpt lat="43.0002867" lon="11.1741933"><ele>379.4285714285714</ele><time>2026-05-02T15:44:32.786Z</time></trkpt><trkpt lat="43.0002667" lon="11.1741"><ele>380.7142857142857</ele><time>2026-05-02T15:44:33.786Z</time></trkpt><trkpt lat="43.0002483" lon="11.174005"><ele>382.0</ele><time>2026-05-02T15:44:34.788Z</time></trkpt><trkpt lat="43.000235" lon="11.1739"><ele>382.40000000000003</ele><time>2026-05-02T15:44:35.786Z</time></trkpt><trkpt lat="43.0002283" lon="11.1737967"><ele>382.8</ele><time>2026-05-02T15:44:36.786Z</time></trkpt><trkpt lat="43.0002317" lon="11.1736917"><ele>383.2</ele><time>2026-05-02T15:44:37.785Z</time></trkpt><trkpt lat="43.00025" lon="11.1735933"><ele>383.6</ele><time>2026-05-02T15:44:38.785Z</time></trkpt><trkpt lat="43.0003017" lon="11.1734567"><ele>384.0</ele><time>2026-05-02T15:44:40.786Z</time></trkpt><trkpt lat="43.0003683" lon="11.173335"><ele>384.0</ele><time>2026-05-02T15:44:43.786Z</time></trkpt><trkpt lat="43.0004067" lon="11.1732333"><ele>384.0</ele><time>2026-05-02T15:44:46.786Z</time></trkpt><trkpt lat="43.0004683" lon="11.173095"><ele>384.0</ele><time>2026-05-02T15:44:48.789Z</time></trkpt><trkpt lat="43.0005067" lon="11.173005"><ele>384.0</ele><time>2026-05-02T15:44:49.786Z</time></trkpt><trkpt lat="43.000545" lon="11.1729167"><ele>384.0</ele><time>2026-05-02T15:44:50.786Z</time></trkpt><trkpt lat="43.0005883" lon="11.1728133"><ele>384.0</ele><time>2026-05-02T15:44:51.786Z</time></trkpt><trkpt lat="43.000635" lon="11.1727083"><ele>382.0</ele><time>2026-05-02T15:44:52.786Z</time></trkpt><trkpt lat="43.000685" lon="11.1725967"><ele>380.0</ele><time>2026-05-02T15:44:53.787Z</time></trkpt><trkpt lat="43.0007367" lon="11.172475"><ele>378.0</ele><time>2026-05-02T15:44:54.787Z</time></trkpt><trkpt lat="43.0007917" lon="11.1723483"><ele>376.0</ele><time>2026-05-02T15:44:55.786Z</time></trkpt><trkpt lat="43.0008483" lon="11.1722217"><ele>374.0</ele><time>2026-05-02T15:44:56.787Z</time></trkpt><trkpt lat="43.0009033" lon="11.1720983"><ele>373.6</ele><time>2026-05-02T15:44:57.786Z</time></trkpt><trkpt lat="43.000955" lon="11.1719833"><ele>373.2</ele><time>2026-05-02T15:44:58.785Z</time></trkpt><trkpt lat="43.0010083" lon="11.1718667"><ele>372.8</ele><time>2026-05-02T15:44:59.788Z</time></trkpt><trkpt lat="43.0010633" lon="11.1717517"><ele>372.40000000000003</ele><time>2026-05-02T15:45:00.787Z</time></trkpt><trkpt lat="43.001115" lon="11.171635"><ele>372.0</ele><time>2026-05-02T15:45:01.786Z</time></trkpt><trkpt lat="43.0011717" lon="11.171515"><ele>371.40000000000003</ele><time>2026-05-02T15:45:02.786Z</time></trkpt><trkpt lat="43.0012317" lon="11.1713933"><ele>370.8</ele><time>2026-05-02T15:45:03.787Z</time></trkpt><trkpt lat="43.0012933" lon="11.1712667"><ele>370.2</ele><time>2026-05-02T15:45:04.787Z</time></trkpt><trkpt lat="43.0013533" lon="11.1711383"><ele>369.6</ele><time>2026-05-02T15:45:05.788Z</time></trkpt><trkpt lat="43.0014133" lon="11.1710033"><ele>369.0</ele><time>2026-05-02T15:45:06.786Z</time></trkpt><trkpt lat="43.001475" lon="11.1708667"><ele>369.0</ele><time>2026-05-02T15:45:07.787Z</time></trkpt><trkpt lat="43.0015367" lon="11.17073"><ele>369.0</ele><time>2026-05-02T15:45:08.787Z</time></trkpt><trkpt lat="43.001595" lon="11.1705883"><ele>369.0</ele><time>2026-05-02T15:45:09.787Z</time></trkpt><trkpt lat="43.00165" lon="11.1704383"><ele>369.0</ele><time>2026-05-02T15:45:10.786Z</time></trkpt><trkpt lat="43.0016983" lon="11.170275"><ele>369.25</ele><time>2026-05-02T15:45:11.786Z</time></trkpt><trkpt lat="43.0017383" lon="11.170105"><ele>369.5</ele><time>2026-05-02T15:45:12.786Z</time></trkpt><trkpt lat="43.0017633" lon="11.1699283"><ele>369.75</ele><time>2026-05-02T15:45:13.786Z</time></trkpt><trkpt lat="43.0017717" lon="11.1697533"><ele>370.0</ele><time>2026-05-02T15:45:14.786Z</time></trkpt><trkpt lat="43.0017617" lon="11.1695867"><ele>370.0</ele><time>2026-05-02T15:45:15.787Z</time></trkpt><trkpt lat="43.0017333" lon="11.1694267"><ele>370.0</ele><time>2026-05-02T15:45:16.786Z</time></trkpt><trkpt lat="43.0016933" lon="11.1692767"><ele>370.0</ele><time>2026-05-02T15:45:17.787Z</time></trkpt><trkpt lat="43.0016467" lon="11.1691333"><ele>370.0</ele><time>2026-05-02T15:45:18.787Z</time></trkpt><trkpt lat="43.0015967" lon="11.168995"><ele>369.6</ele><time>2026-05-02T15:45:19.786Z</time></trkpt><trkpt lat="43.001545" lon="11.16886"><ele>369.2</ele><time>2026-05-02T15:45:20.786Z</time></trkpt><trkpt lat="43.0014967" lon="11.1687233"><ele>368.79999999999995</ele><time>2026-05-02T15:45:21.787Z</time></trkpt><trkpt lat="43.00146" lon="11.1685817"><ele>368.4</ele><time>2026-05-02T15:45:22.786Z</time></trkpt><trkpt lat="43.0014417" lon="11.1684367"><ele>368.0</ele><time>2026-05-02T15:45:23.786Z</time></trkpt><trkpt lat="43.0014367" lon="11.16829"><ele>366.5</ele><time>2026-05-02T15:45:24.789Z</time></trkpt><trkpt lat="43.0014433" lon="11.1681433"><ele>365.0</ele><time>2026-05-02T15:45:25.785Z</time></trkpt><trkpt lat="43.0014667" lon="11.1679767"><ele>363.5</ele><time>2026-05-02T15:45:26.787Z</time></trkpt><trkpt lat="43.0015" lon="11.1678"><ele>362.0</ele><time>2026-05-02T15:45:27.789Z</time></trkpt><trkpt lat="43.0015367" lon="11.1676117"><ele>362.0</ele><time>2026-05-02T15:45:28.787Z</time></trkpt><trkpt lat="43.0015783" lon="11.1674217"><ele>362.0</ele><time>2026-05-02T15:45:29.787Z</time></trkpt><trkpt lat="43.001615" lon="11.1672317"><ele>362.0</ele><time>2026-05-02T15:45:30.787Z</time></trkpt><trkpt lat="43.0016533" lon="11.1670433"><ele>362.0</ele><time>2026-05-02T15:45:31.787Z</time></trkpt><trkpt lat="43.0016933" lon="11.1668583"><ele>364.0</ele><time>2026-05-02T15:45:32.788Z</time></trkpt><trkpt lat="43.0017333" lon="11.1666733"><ele>366.0</ele><time>2026-05-02T15:45:33.787Z</time></trkpt><trkpt lat="43.0017733" lon="11.1664933"><ele>368.0</ele><time>2026-05-02T15:45:34.787Z</time></trkpt><trkpt lat="43.0018083" lon="11.1663167"><ele>370.0</ele><time>2026-05-02T15:45:35.787Z</time></trkpt><trkpt lat="43.0018433" lon="11.166145"><ele>370.0</ele><time>2026-05-02T15:45:36.787Z</time></trkpt><trkpt lat="43.0018783" lon="11.1659733"><ele>370.0</ele><time>2026-05-02T15:45:37.787Z</time></trkpt><trkpt lat="43.0019133" lon="11.1658033"><ele>370.0</ele><time>2026-05-02T15:45:38.787Z</time></trkpt><trkpt lat="43.0019467" lon="11.165635"><ele>370.0</ele><time>2026-05-02T15:45:39.788Z</time></trkpt><trkpt lat="43.0019817" lon="11.1654667"><ele>370.0</ele><time>2026-05-02T15:45:40.787Z</time></trkpt><trkpt lat="43.002015" lon="11.1652917"><ele>370.0</ele><time>2026-05-02T15:45:41.79Z</time></trkpt><trkpt lat="43.00205" lon="11.16512"><ele>370.0</ele><time>2026-05-02T15:45:42.79Z</time></trkpt><trkpt lat="43.0020867" lon="11.164955"><ele>370.0</ele><time>2026-05-02T15:45:43.79Z</time></trkpt><trkpt lat="43.00213" lon="11.1647967"><ele>369.5</ele><time>2026-05-02T15:45:44.789Z</time></trkpt><trkpt lat="43.0021833" lon="11.1646467"><ele>369.0</ele><time>2026-05-02T15:45:45.789Z</time></trkpt><trkpt lat="43.0022467" lon="11.1644967"><ele>368.5</ele><time>2026-05-02T15:45:46.789Z</time></trkpt><trkpt lat="43.00232" lon="11.1643483"><ele>368.0</ele><time>2026-05-02T15:45:47.789Z</time></trkpt><trkpt lat="43.0023983" lon="11.164195"><ele>368.0</ele><time>2026-05-02T15:45:48.789Z</time></trkpt><trkpt lat="43.002475" lon="11.1640483"><ele>368.0</ele><time>2026-05-02T15:45:49.789Z</time></trkpt><trkpt lat="43.00255" lon="11.1639117"><ele>368.0</ele><time>2026-05-02T15:45:50.789Z</time></trkpt><trkpt lat="43.00262" lon="11.1637717"><ele>368.0</ele><time>2026-05-02T15:45:51.789Z</time></trkpt><trkpt lat="43.0026933" lon="11.1636267"><ele>367.0</ele><time>2026-05-02T15:45:52.789Z</time></trkpt><trkpt lat="43.002765" lon="11.1634833"><ele>366.0</ele><time>2026-05-02T15:45:53.789Z</time></trkpt><trkpt lat="43.0028333" lon="11.1633467"><ele>365.0</ele><time>2026-05-02T15:45:54.787Z</time></trkpt><trkpt lat="43.0029" lon="11.16321"><ele>364.0</ele><time>2026-05-02T15:45:55.789Z</time></trkpt><trkpt lat="43.00296" lon="11.1630867"><ele>364.0</ele><time>2026-05-02T15:45:56.788Z</time></trkpt><trkpt lat="43.003015" lon="11.1629817"><ele>364.0</ele><time>2026-05-02T15:45:57.788Z</time></trkpt><trkpt lat="43.00306" lon="11.1628967"><ele>364.0</ele><time>2026-05-02T15:45:58.788Z</time></trkpt><trkpt lat="43.003115" lon="11.1627917"><ele>364.0</ele><time>2026-05-02T15:46:00.787Z</time></trkpt><trkpt lat="43.0031133" lon="11.162695"><ele>364.0</ele><time>2026-05-02T15:46:02.787Z</time></trkpt><trkpt lat="43.0030333" lon="11.162605"><ele>364.0</ele><time>2026-05-02T15:46:04.787Z</time></trkpt><trkpt lat="43.0029683" lon="11.1625533"><ele>364.0</ele><time>2026-05-02T15:46:05.786Z</time></trkpt><trkpt lat="43.0028867" lon="11.1624983"><ele>364.0</ele><time>2026-05-02T15:46:06.786Z</time></trkpt><trkpt lat="43.0028017" lon="11.1624383"><ele>364.0</ele><time>2026-05-02T15:46:07.786Z</time></trkpt><trkpt lat="43.0027167" lon="11.1623767"><ele>364.0</ele><time>2026-05-02T15:46:08.787Z</time></trkpt><trkpt lat="43.00264" lon="11.16231"><ele>364.0</ele><time>2026-05-02T15:46:09.79Z</time></trkpt><trkpt lat="43.0025733" lon="11.1622417"><ele>363.0</ele><time>2026-05-02T15:46:10.792Z</time></trkpt><trkpt lat="43.002525" lon="11.1621733"><ele>362.0</ele><time>2026-05-02T15:46:11.788Z</time></trkpt><trkpt lat="43.00249" lon="11.1620983"><ele>361.0</ele><time>2026-05-02T15:46:12.788Z</time></trkpt><trkpt lat="43.0024617" lon="11.1620033"><ele>360.0</ele><time>2026-05-02T15:46:13.785Z</time></trkpt><trkpt lat="43.0024433" lon="11.16188"><ele>359.0</ele><time>2026-05-02T15:46:14.788Z</time></trkpt><trkpt lat="43.0024217" lon="11.1617517"><ele>358.0</ele><time>2026-05-02T15:46:15.788Z</time></trkpt><trkpt lat="43.00239" lon="11.1616283"><ele>355.0</ele><time>2026-05-02T15:46:16.789Z</time></trkpt><trkpt lat="43.0023533" lon="11.1615133"><ele>352.0</ele><time>2026-05-02T15:46:17.789Z</time></trkpt><trkpt lat="43.0023117" lon="11.1614083"><ele>349.0</ele><time>2026-05-02T15:46:18.788Z</time></trkpt><trkpt lat="43.00227" lon="11.1613117"><ele>346.0</ele><time>2026-05-02T15:46:19.788Z</time></trkpt><trkpt lat="43.0022283" lon="11.1612333"><ele>343.0</ele><time>2026-05-02T15:46:20.788Z</time></trkpt><trkpt lat="43.00218" lon="11.16117"><ele>340.0</ele><time>2026-05-02T15:46:21.788Z</time></trkpt><trkpt lat="43.0021233" lon="11.1611117"><ele>340.0</ele><time>2026-05-02T15:46:22.785Z</time></trkpt><trkpt lat="43.0020583" lon="11.1610533"><ele>340.0</ele><time>2026-05-02T15:46:23.785Z</time></trkpt><trkpt lat="43.001995" lon="11.1609983"><ele>340.0</ele><time>2026-05-02T15:46:24.788Z</time></trkpt><trkpt lat="43.0019383" lon="11.1609517"><ele>340.0</ele><time>2026-05-02T15:46:25.788Z</time></trkpt><trkpt lat="43.00183" lon="11.1609017"><ele>340.0</ele><time>2026-05-02T15:46:27.786Z</time></trkpt><trkpt lat="43.0017133" lon="11.1609183"><ele>337.16666666666663</ele><time>2026-05-02T15:46:29.785Z</time></trkpt><trkpt lat="43.0016" lon="11.1609133"><ele>334.3333333333333</ele><time>2026-05-02T15:46:31.785Z</time></trkpt><trkpt lat="43.0014917" lon="11.16084"><ele>331.5</ele><time>2026-05-02T15:46:33.785Z</time></trkpt><trkpt lat="43.0014417" lon="11.1607783"><ele>328.6666666666667</ele><time>2026-05-02T15:46:34.785Z</time></trkpt><trkpt lat="43.0013933" lon="11.1607033"><ele>325.83333333333337</ele><time>2026-05-02T15:46:35.785Z</time></trkpt><trkpt lat="43.0013483" lon="11.160625"><ele>323.0</ele><time>2026-05-02T15:46:36.785Z</time></trkpt><trkpt lat="43.0013017" lon="11.1605467"><ele>322.0</ele><time>2026-05-02T15:46:37.788Z</time></trkpt><trkpt lat="43.001255" lon="11.1604767"><ele>321.0</ele><time>2026-05-02T15:46:38.785Z</time></trkpt><trkpt lat="43.0011967" lon="11.1603383"><ele>320.0</ele><time>2026-05-02T15:46:40.788Z</time></trkpt><trkpt lat="43.0011917" lon="11.1602083"><ele>319.0</ele><time>2026-05-02T15:46:42.787Z</time></trkpt><trkpt lat="43.001235" lon="11.16009"><ele>318.0</ele><time>2026-05-02T15:46:44.787Z</time></trkpt><trkpt lat="43.00132" lon="11.1599883"><ele>316.4</ele><time>2026-05-02T15:46:46.789Z</time></trkpt><trkpt lat="43.0013917" lon="11.1598633"><ele>314.8</ele><time>2026-05-02T15:46:48.788Z</time></trkpt><trkpt lat="43.0014033" lon="11.1596833"><ele>313.2</ele><time>2026-05-02T15:46:50.786Z</time></trkpt><trkpt lat="43.0013733" lon="11.15959"><ele>311.6</ele><time>2026-05-02T15:46:51.788Z</time></trkpt><trkpt lat="43.00133" lon="11.1595017"><ele>310.0</ele><time>2026-05-02T15:46:52.789Z</time></trkpt><trkpt lat="43.0012767" lon="11.1594383"><ele>310.0</ele><time>2026-05-02T15:46:53.789Z</time></trkpt><trkpt lat="43.0012133" lon="11.159385"><ele>310.0</ele><time>2026-05-02T15:46:54.789Z</time></trkpt><trkpt lat="43.001145" lon="11.159355"><ele>310.0</ele><time>2026-05-02T15:46:55.788Z</time></trkpt><trkpt lat="43.001075" lon="11.1593433"><ele>310.0</ele><time>2026-05-02T15:46:56.786Z</time></trkpt><trkpt lat="43.001005" lon="11.15932"><ele>310.0</ele><time>2026-05-02T15:46:57.785Z</time></trkpt><trkpt lat="43.000945" lon="11.15928"><ele>310.0</ele><time>2026-05-02T15:46:58.785Z</time></trkpt><trkpt lat="43.0008883" lon="11.159225"><ele>310.0</ele><time>2026-05-02T15:46:59.791Z</time></trkpt><trkpt lat="43.000825" lon="11.15918"><ele>307.8333333333333</ele><time>2026-05-02T15:47:00.785Z</time></trkpt><trkpt lat="43.0007633" lon="11.1591517"><ele>305.66666666666663</ele><time>2026-05-02T15:47:01.785Z</time></trkpt><trkpt lat="43.0006983" lon="11.1591467"><ele>303.5</ele><time>2026-05-02T15:47:02.786Z</time></trkpt><trkpt lat="43.0006167" lon="11.159155"><ele>301.3333333333333</ele><time>2026-05-02T15:47:03.785Z</time></trkpt><trkpt lat="43.0005283" lon="11.159155"><ele>299.1666666666667</ele><time>2026-05-02T15:47:04.786Z</time></trkpt><trkpt lat="43.0004367" lon="11.1591517"><ele>297.0</ele><time>2026-05-02T15:47:05.785Z</time></trkpt><trkpt lat="43.000355" lon="11.1591433"><ele>297.0</ele><time>2026-05-02T15:47:06.786Z</time></trkpt><trkpt lat="43.000285" lon="11.1591333"><ele>297.0</ele><time>2026-05-02T15:47:07.785Z</time></trkpt><trkpt lat="43.0002217" lon="11.1591267"><ele>297.0</ele><time>2026-05-02T15:47:08.787Z</time></trkpt><trkpt lat="43.0001117" lon="11.1591233"><ele>297.0</ele><time>2026-05-02T15:47:10.786Z</time></trkpt><trkpt lat="43.000005" lon="11.159105"><ele>297.0</ele><time>2026-05-02T15:47:12.785Z</time></trkpt><trkpt lat="42.9998933" lon="11.1590617"><ele>294.8333333333333</ele><time>2026-05-02T15:47:14.785Z</time></trkpt><trkpt lat="42.9998417" lon="11.1590067"><ele>292.6666666666667</ele><time>2026-05-02T15:47:15.786Z</time></trkpt><trkpt lat="42.99974" lon="11.1589117"><ele>290.5</ele><time>2026-05-02T15:47:17.785Z</time></trkpt><trkpt lat="42.9996733" lon="11.158885"><ele>288.33333333333337</ele><time>2026-05-02T15:47:18.785Z</time></trkpt><trkpt lat="42.9996083" lon="11.158855"><ele>286.1666666666667</ele><time>2026-05-02T15:47:19.789Z</time></trkpt><trkpt lat="42.99954" lon="11.158805"><ele>284.0</ele><time>2026-05-02T15:47:20.787Z</time></trkpt><trkpt lat="42.9994733" lon="11.15875"><ele>284.0</ele><time>2026-05-02T15:47:21.786Z</time></trkpt><trkpt lat="42.99942" lon="11.1586717"><ele>284.0</ele><time>2026-05-02T15:47:22.785Z</time></trkpt><trkpt lat="42.9993833" lon="11.1585833"><ele>284.0</ele><time>2026-05-02T15:47:23.789Z</time></trkpt><trkpt lat="42.999355" lon="11.15848"><ele>284.0</ele><time>2026-05-02T15:47:24.789Z</time></trkpt><trkpt lat="42.9993333" lon="11.15837"><ele>284.0</ele><time>2026-05-02T15:47:25.877Z</time></trkpt><trkpt lat="42.999315" lon="11.1582517"><ele>284.0</ele><time>2026-05-02T15:47:26.785Z</time></trkpt><trkpt lat="42.9993" lon="11.1581333"><ele>281.5</ele><time>2026-05-02T15:47:27.786Z</time></trkpt><trkpt lat="42.9992817" lon="11.15802"><ele>279.0</ele><time>2026-05-02T15:47:28.785Z</time></trkpt><trkpt lat="42.999255" lon="11.1579067"><ele>276.5</ele><time>2026-05-02T15:47:29.786Z</time></trkpt><trkpt lat="42.9992217" lon="11.15779"><ele>274.0</ele><time>2026-05-02T15:47:30.786Z</time></trkpt><trkpt lat="42.9991817" lon="11.1576783"><ele>271.5</ele><time>2026-05-02T15:47:31.786Z</time></trkpt><trkpt lat="42.9991417" lon="11.1575683"><ele>269.0</ele><time>2026-05-02T15:47:32.787Z</time></trkpt><trkpt lat="42.9991" lon="11.1574567"><ele>267.0</ele><time>2026-05-02T15:47:33.789Z</time></trkpt><trkpt lat="42.9990567" lon="11.1573483"><ele>265.0</ele><time>2026-05-02T15:47:34.788Z</time></trkpt><trkpt lat="42.9990117" lon="11.1572517"><ele>263.0</ele><time>2026-05-02T15:47:35.789Z</time></trkpt><trkpt lat="42.9989667" lon="11.1571717"><ele>261.0</ele><time>2026-05-02T15:47:36.785Z</time></trkpt><trkpt lat="42.9989183" lon="11.1571083"><ele>259.0</ele><time>2026-05-02T15:47:37.785Z</time></trkpt><trkpt lat="42.9988083" lon="11.1570217"><ele>257.0</ele><time>2026-05-02T15:47:39.785Z</time></trkpt><trkpt lat="42.9987417" lon="11.1569967"><ele>257.0</ele><time>2026-05-02T15:47:40.786Z</time></trkpt><trkpt lat="42.9986667" lon="11.1569767"><ele>257.0</ele><time>2026-05-02T15:47:41.786Z</time></trkpt><trkpt lat="42.9986" lon="11.156955"><ele>257.0</ele><time>2026-05-02T15:47:42.789Z</time></trkpt><trkpt lat="42.9985117" lon="11.1569017"><ele>257.0</ele><time>2026-05-02T15:47:44.786Z</time></trkpt><trkpt lat="42.9984583" lon="11.156845"><ele>257.0</ele><time>2026-05-02T15:54:58.787Z</time></trkpt><trkpt lat="42.9983783" lon="11.156715"><ele>257.0</ele><time>2026-05-02T15:55:00.786Z</time></trkpt><trkpt lat="42.9983317" lon="11.1566217"><ele>255.6</ele><time>2026-05-02T15:55:01.786Z</time></trkpt><trkpt lat="42.9982817" lon="11.1565233"><ele>254.2</ele><time>2026-05-02T15:55:02.786Z</time></trkpt><trkpt lat="42.9982283" lon="11.1564133"><ele>252.8</ele><time>2026-05-02T15:55:03.787Z</time></trkpt><trkpt lat="42.9981717" lon="11.1562917"><ele>251.4</ele><time>2026-05-02T15:55:04.786Z</time></trkpt><trkpt lat="42.9981083" lon="11.15616"><ele>250.0</ele><time>2026-05-02T15:55:05.786Z</time></trkpt><trkpt lat="42.998035" lon="11.1560117"><ele>250.0</ele><time>2026-05-02T15:55:06.786Z</time></trkpt><trkpt lat="42.9979667" lon="11.1558567"><ele>250.0</ele><time>2026-05-02T15:55:07.788Z</time></trkpt><trkpt lat="42.9979" lon="11.1556933"><ele>250.0</ele><time>2026-05-02T15:55:08.787Z</time></trkpt><trkpt lat="42.997835" lon="11.1555217"><ele>250.0</ele><time>2026-05-02T15:55:09.787Z</time></trkpt><trkpt lat="42.9977817" lon="11.1553417"><ele>248.75</ele><time>2026-05-02T15:55:10.788Z</time></trkpt><trkpt lat="42.9977383" lon="11.1551567"><ele>247.5</ele><time>2026-05-02T15:55:11.787Z</time></trkpt><trkpt lat="42.9977067" lon="11.15496"><ele>246.25</ele><time>2026-05-02T15:55:12.786Z</time></trkpt><trkpt lat="42.9976817" lon="11.1547533"><ele>245.0</ele><time>2026-05-02T15:55:13.786Z</time></trkpt><trkpt lat="42.9976617" lon="11.15454"><ele>244.66666666666669</ele><time>2026-05-02T15:55:14.786Z</time></trkpt><trkpt lat="42.9976417" lon="11.1543233"><ele>244.33333333333331</ele><time>2026-05-02T15:55:15.786Z</time></trkpt><trkpt lat="42.99762" lon="11.1541033"><ele>244.0</ele><time>2026-05-02T15:55:16.787Z</time></trkpt><trkpt lat="42.9975983" lon="11.15388"><ele>243.66666666666666</ele><time>2026-05-02T15:55:17.787Z</time></trkpt><trkpt lat="42.9975767" lon="11.1536567"><ele>243.33333333333331</ele><time>2026-05-02T15:55:18.786Z</time></trkpt><trkpt lat="42.9975567" lon="11.153435"><ele>243.0</ele><time>2026-05-02T15:55:19.786Z</time></trkpt><trkpt lat="42.9975317" lon="11.1532133"><ele>245.0</ele><time>2026-05-02T15:55:20.787Z</time></trkpt><trkpt lat="42.9974983" lon="11.1529967"><ele>247.0</ele><time>2026-05-02T15:55:21.787Z</time></trkpt><trkpt lat="42.997455" lon="11.1527817"><ele>249.0</ele><time>2026-05-02T15:55:22.786Z</time></trkpt><trkpt lat="42.9974033" lon="11.15257"><ele>247.33333333333331</ele><time>2026-05-02T15:55:23.787Z</time></trkpt><trkpt lat="42.9973433" lon="11.15236"><ele>245.66666666666666</ele><time>2026-05-02T15:55:24.787Z</time></trkpt><trkpt lat="42.997275" lon="11.1521533"><ele>244.0</ele><time>2026-05-02T15:55:25.786Z</time></trkpt><trkpt lat="42.9972" lon="11.1519483"><ele>244.0</ele><time>2026-05-02T15:55:26.786Z</time></trkpt><trkpt lat="42.9971267" lon="11.1517467"><ele>244.0</ele><time>2026-05-02T15:55:27.787Z</time></trkpt><trkpt lat="42.9970517" lon="11.151545"><ele>244.0</ele><time>2026-05-02T15:55:28.786Z</time></trkpt><trkpt lat="42.9969817" lon="11.1513383"><ele>241.33333333333331</ele><time>2026-05-02T15:55:29.787Z</time></trkpt><trkpt lat="42.9969233" lon="11.151125"><ele>238.66666666666669</ele><time>2026-05-02T15:55:30.786Z</time></trkpt><trkpt lat="42.9968733" lon="11.150905"><ele>236.0</ele><time>2026-05-02T15:55:31.786Z</time></trkpt><trkpt lat="42.99684" lon="11.15068"><ele>234.33333333333334</ele><time>2026-05-02T15:55:32.786Z</time></trkpt><trkpt lat="42.9968217" lon="11.1504567"><ele>232.66666666666669</ele><time>2026-05-02T15:55:33.786Z</time></trkpt><trkpt lat="42.9968083" lon="11.150235"><ele>231.0</ele><time>2026-05-02T15:55:34.786Z</time></trkpt><trkpt lat="42.996805" lon="11.1500133"><ele>231.0</ele><time>2026-05-02T15:55:35.787Z</time></trkpt><trkpt lat="42.9968033" lon="11.1497917"><ele>231.0</ele><time>2026-05-02T15:55:36.786Z</time></trkpt><trkpt lat="42.9968" lon="11.1495717"><ele>231.0</ele><time>2026-05-02T15:55:37.786Z</time></trkpt><trkpt lat="42.996795" lon="11.14935"><ele>231.0</ele><time>2026-05-02T15:55:38.786Z</time></trkpt><trkpt lat="42.9967917" lon="11.1491267"><ele>231.0</ele><time>2026-05-02T15:55:39.787Z</time></trkpt><trkpt lat="42.9967883" lon="11.1489"><ele>231.0</ele><time>2026-05-02T15:55:40.786Z</time></trkpt><trkpt lat="42.9967817" lon="11.1486733"><ele>231.0</ele><time>2026-05-02T15:55:41.787Z</time></trkpt><trkpt lat="42.9967633" lon="11.1484483"><ele>231.0</ele><time>2026-05-02T15:55:42.787Z</time></trkpt><trkpt lat="42.9967283" lon="11.1482283"><ele>231.0</ele><time>2026-05-02T15:55:43.786Z</time></trkpt><trkpt lat="42.9966733" lon="11.1480167"><ele>231.66666666666669</ele><time>2026-05-02T15:55:44.786Z</time></trkpt><trkpt lat="42.9965967" lon="11.1478233"><ele>232.33333333333334</ele><time>2026-05-02T15:55:45.786Z</time></trkpt><trkpt lat="42.9965033" lon="11.1476467"><ele>233.0</ele><time>2026-05-02T15:55:46.787Z</time></trkpt><trkpt lat="42.99639" lon="11.14749"><ele>232.66666666666669</ele><time>2026-05-02T15:55:47.785Z</time></trkpt><trkpt lat="42.996255" lon="11.147355"><ele>232.33333333333331</ele><time>2026-05-02T15:55:48.787Z</time></trkpt><trkpt lat="42.9961083" lon="11.147245"><ele>232.0</ele><time>2026-05-02T15:55:49.786Z</time></trkpt><trkpt lat="42.9959483" lon="11.147165"><ele>230.66666666666666</ele><time>2026-05-02T15:55:50.785Z</time></trkpt><trkpt lat="42.9957833" lon="11.147105"><ele>229.33333333333331</ele><time>2026-05-02T15:55:51.786Z</time></trkpt><trkpt lat="42.995615" lon="11.14705"><ele>228.0</ele><time>2026-05-02T15:55:52.785Z</time></trkpt><trkpt lat="42.9954433" lon="11.146995"><ele>228.0</ele><time>2026-05-02T15:55:53.786Z</time></trkpt><trkpt lat="42.99527" lon="11.1469467"><ele>228.0</ele><time>2026-05-02T15:55:54.785Z</time></trkpt><trkpt lat="42.9950933" lon="11.1469133"><ele>228.0</ele><time>2026-05-02T15:55:55.785Z</time></trkpt><trkpt lat="42.994915" lon="11.1468967"><ele>227.33333333333331</ele><time>2026-05-02T15:55:56.785Z</time></trkpt><trkpt lat="42.994735" lon="11.1468917"><ele>226.66666666666666</ele><time>2026-05-02T15:55:57.787Z</time></trkpt><trkpt lat="42.994555" lon="11.146895"><ele>226.0</ele><time>2026-05-02T15:55:58.788Z</time></trkpt><trkpt lat="42.994375" lon="11.1468983"><ele>226.0</ele><time>2026-05-02T15:55:59.786Z</time></trkpt><trkpt lat="42.9941983" lon="11.1469017"><ele>226.0</ele><time>2026-05-02T15:56:00.785Z</time></trkpt><trkpt lat="42.99402" lon="11.1469017"><ele>226.0</ele><time>2026-05-02T15:56:01.785Z</time></trkpt><trkpt lat="42.9938467" lon="11.1468967"><ele>225.33333333333331</ele><time>2026-05-02T15:56:02.786Z</time></trkpt><trkpt lat="42.993675" lon="11.14688"><ele>224.66666666666669</ele><time>2026-05-02T15:56:03.788Z</time></trkpt><trkpt lat="42.9935083" lon="11.1468417"><ele>224.0</ele><time>2026-05-02T15:56:04.788Z</time></trkpt><trkpt lat="42.9933417" lon="11.1467767"><ele>222.66666666666669</ele><time>2026-05-02T15:56:05.788Z</time></trkpt><trkpt lat="42.993185" lon="11.14668"><ele>221.33333333333331</ele><time>2026-05-02T15:56:06.788Z</time></trkpt><trkpt lat="42.9930333" lon="11.1465567"><ele>220.0</ele><time>2026-05-02T15:56:07.788Z</time></trkpt><trkpt lat="42.99289" lon="11.1464133"><ele>218.0</ele><time>2026-05-02T15:56:08.789Z</time></trkpt><trkpt lat="42.992755" lon="11.146255"><ele>216.0</ele><time>2026-05-02T15:56:09.788Z</time></trkpt><trkpt lat="42.992625" lon="11.146085"><ele>214.0</ele><time>2026-05-02T15:56:10.788Z</time></trkpt><trkpt lat="42.9924983" lon="11.1459033"><ele>214.0</ele><time>2026-05-02T15:56:11.789Z</time></trkpt><trkpt lat="42.9923733" lon="11.1457183"><ele>214.0</ele><time>2026-05-02T15:56:12.789Z</time></trkpt><trkpt lat="42.9922467" lon="11.1455283"><ele>214.0</ele><time>2026-05-02T15:56:13.788Z</time></trkpt><trkpt lat="42.9921183" lon="11.1453367"><ele>211.66666666666666</ele><time>2026-05-02T15:56:14.788Z</time></trkpt><trkpt lat="42.99199" lon="11.1451433"><ele>209.33333333333331</ele><time>2026-05-02T15:56:15.789Z</time></trkpt><trkpt lat="42.9918617" lon="11.144955"><ele>207.0</ele><time>2026-05-02T15:56:16.788Z</time></trkpt><trkpt lat="42.9917283" lon="11.1447667"><ele>207.66666666666669</ele><time>2026-05-02T15:56:17.789Z</time></trkpt><trkpt lat="42.9915983" lon="11.1445783"><ele>208.33333333333334</ele><time>2026-05-02T15:56:18.788Z</time></trkpt><trkpt lat="42.9914683" lon="11.1443933"><ele>209.0</ele><time>2026-05-02T15:56:19.789Z</time></trkpt><trkpt lat="42.9913417" lon="11.14421"><ele>206.33333333333334</ele><time>2026-05-02T15:56:20.788Z</time></trkpt><trkpt lat="42.9912133" lon="11.1440283"><ele>203.66666666666669</ele><time>2026-05-02T15:56:21.788Z</time></trkpt><trkpt lat="42.9910917" lon="11.1438483"><ele>201.0</ele><time>2026-05-02T15:56:22.79Z</time></trkpt><trkpt lat="42.9909667" lon="11.1436667"><ele>201.0</ele><time>2026-05-02T15:56:23.788Z</time></trkpt><trkpt lat="42.9908417" lon="11.1434867"><ele>201.0</ele><time>2026-05-02T15:56:24.788Z</time></trkpt><trkpt lat="42.9907167" lon="11.1433033"><ele>201.0</ele><time>2026-05-02T15:56:25.788Z</time></trkpt><trkpt lat="42.990595" lon="11.143125"><ele>202.33333333333331</ele><time>2026-05-02T15:56:26.785Z</time></trkpt><trkpt lat="42.9904717" lon="11.1429467"><ele>203.66666666666666</ele><time>2026-05-02T15:56:27.786Z</time></trkpt><trkpt lat="42.99035" lon="11.1427717"><ele>205.0</ele><time>2026-05-02T15:56:28.785Z</time></trkpt><trkpt lat="42.9902267" lon="11.1425967"><ele>205.0</ele><time>2026-05-02T15:56:29.785Z</time></trkpt><trkpt lat="42.9901067" lon="11.1424167"><ele>205.0</ele><time>2026-05-02T15:56:30.786Z</time></trkpt><trkpt lat="42.9899933" lon="11.1422367"><ele>205.0</ele><time>2026-05-02T15:56:31.786Z</time></trkpt><trkpt lat="42.98988" lon="11.14205"><ele>206.0</ele><time>2026-05-02T15:56:32.785Z</time></trkpt><trkpt lat="42.9897617" lon="11.1418567"><ele>207.0</ele><time>2026-05-02T15:56:33.788Z</time></trkpt><trkpt lat="42.989645" lon="11.1416617"><ele>208.0</ele><time>2026-05-02T15:56:34.788Z</time></trkpt><trkpt lat="42.9895233" lon="11.14146"><ele>208.0</ele><time>2026-05-02T15:56:35.789Z</time></trkpt><trkpt lat="42.9893983" lon="11.1412533"><ele>208.0</ele><time>2026-05-02T15:56:36.788Z</time></trkpt><trkpt lat="42.989275" lon="11.14105"><ele>208.0</ele><time>2026-05-02T15:56:37.789Z</time></trkpt><trkpt lat="42.98916" lon="11.1408567"><ele>204.33333333333331</ele><time>2026-05-02T15:56:38.788Z</time></trkpt><trkpt lat="42.9890483" lon="11.1406767"><ele>200.66666666666669</ele><time>2026-05-02T15:56:39.789Z</time></trkpt><trkpt lat="42.98894" lon="11.1405033"><ele>197.0</ele><time>2026-05-02T15:56:40.788Z</time></trkpt><trkpt lat="42.9888333" lon="11.1403317"><ele>197.0</ele><time>2026-05-02T15:56:41.789Z</time></trkpt><trkpt lat="42.9887283" lon="11.1401567"><ele>197.0</ele><time>2026-05-02T15:56:42.788Z</time></trkpt><trkpt lat="42.9886317" lon="11.1399767"><ele>197.0</ele><time>2026-05-02T15:56:43.789Z</time></trkpt><trkpt lat="42.9885517" lon="11.1397933"><ele>194.66666666666669</ele><time>2026-05-02T15:56:44.788Z</time></trkpt><trkpt lat="42.98849" lon="11.139595"><ele>192.33333333333334</ele><time>2026-05-02T15:56:45.788Z</time></trkpt><trkpt lat="42.98845" lon="11.1393817"><ele>190.0</ele><time>2026-05-02T15:56:46.788Z</time></trkpt><trkpt lat="42.9884367" lon="11.1391583"><ele>188.33333333333334</ele><time>2026-05-02T15:56:47.789Z</time></trkpt><trkpt lat="42.9884533" lon="11.1389383"><ele>186.66666666666666</ele><time>2026-05-02T15:56:48.789Z</time></trkpt><trkpt lat="42.9884983" lon="11.1387233"><ele>185.0</ele><time>2026-05-02T15:56:49.79Z</time></trkpt><trkpt lat="42.9885683" lon="11.13852"><ele>185.0</ele><time>2026-05-02T15:56:50.789Z</time></trkpt><trkpt lat="42.9886633" lon="11.1383317"><ele>185.0</ele><time>2026-05-02T15:56:51.789Z</time></trkpt><trkpt lat="42.9887733" lon="11.138165"><ele>185.0</ele><time>2026-05-02T15:56:52.788Z</time></trkpt><trkpt lat="42.98889" lon="11.138005"><ele>186.33333333333331</ele><time>2026-05-02T15:56:53.79Z</time></trkpt><trkpt lat="42.9890067" lon="11.137845"><ele>187.66666666666666</ele><time>2026-05-02T15:56:54.789Z</time></trkpt><trkpt lat="42.9891183" lon="11.1376767"><ele>189.0</ele><time>2026-05-02T15:56:55.789Z</time></trkpt><trkpt lat="42.98922" lon="11.137505"><ele>184.33333333333334</ele><time>2026-05-02T15:56:56.785Z</time></trkpt><trkpt lat="42.9893" lon="11.1373267"><ele>179.66666666666669</ele><time>2026-05-02T15:56:57.786Z</time></trkpt><trkpt lat="42.989365" lon="11.1371433"><ele>175.0</ele><time>2026-05-02T15:56:58.786Z</time></trkpt><trkpt lat="42.9894117" lon="11.1369467"><ele>175.0</ele><time>2026-05-02T15:56:59.786Z</time></trkpt><trkpt lat="42.989445" lon="11.1367433"><ele>175.0</ele><time>2026-05-02T15:57:00.786Z</time></trkpt><trkpt lat="42.98947" lon="11.1365417"><ele>175.0</ele><time>2026-05-02T15:57:01.785Z</time></trkpt><trkpt lat="42.98949" lon="11.1363433"><ele>175.0</ele><time>2026-05-02T15:57:02.785Z</time></trkpt><trkpt lat="42.9895033" lon="11.1361517"><ele>174.5</ele><time>2026-05-02T15:57:03.789Z</time></trkpt><trkpt lat="42.9895" lon="11.1359683"><ele>174.0</ele><time>2026-05-02T15:57:04.79Z</time></trkpt><trkpt lat="42.989475" lon="11.13579"><ele>173.5</ele><time>2026-05-02T15:57:05.789Z</time></trkpt><trkpt lat="42.9894333" lon="11.135615"><ele>173.0</ele><time>2026-05-02T15:57:06.788Z</time></trkpt><trkpt lat="42.9893683" lon="11.1354417"><ele>171.33333333333331</ele><time>2026-05-02T15:57:07.788Z</time></trkpt><trkpt lat="42.98928" lon="11.1352683"><ele>169.66666666666666</ele><time>2026-05-02T15:57:08.789Z</time></trkpt><trkpt lat="42.9891767" lon="11.1350917"><ele>168.0</ele><time>2026-05-02T15:57:09.788Z</time></trkpt><trkpt lat="42.989065" lon="11.1349133"><ele>168.66666666666666</ele><time>2026-05-02T15:57:10.789Z</time></trkpt><trkpt lat="42.9889417" lon="11.134735"><ele>169.33333333333331</ele><time>2026-05-02T15:57:11.789Z</time></trkpt><trkpt lat="42.988815" lon="11.1345517"><ele>170.0</ele><time>2026-05-02T15:57:12.789Z</time></trkpt><trkpt lat="42.98869" lon="11.1343617"><ele>170.0</ele><time>2026-05-02T15:57:13.789Z</time></trkpt><trkpt lat="42.9885617" lon="11.1341767"><ele>170.0</ele><time>2026-05-02T15:57:14.788Z</time></trkpt><trkpt lat="42.988435" lon="11.1339983"><ele>170.0</ele><time>2026-05-02T15:57:15.79Z</time></trkpt><trkpt lat="42.9883117" lon="11.1338267"><ele>169.0</ele><time>2026-05-02T15:57:16.789Z</time></trkpt><trkpt lat="42.9881933" lon="11.1336567"><ele>168.0</ele><time>2026-05-02T15:57:17.792Z</time></trkpt><trkpt lat="42.9880817" lon="11.1334883"><ele>167.0</ele><time>2026-05-02T15:57:18.789Z</time></trkpt><trkpt lat="42.9879717" lon="11.133325"><ele>161.66666666666666</ele><time>2026-05-02T15:57:19.789Z</time></trkpt><trkpt lat="42.98786" lon="11.13316"><ele>156.33333333333334</ele><time>2026-05-02T15:57:20.789Z</time></trkpt><trkpt lat="42.9877383" lon="11.133"><ele>151.0</ele><time>2026-05-02T15:57:21.788Z</time></trkpt><trkpt lat="42.9876067" lon="11.1328533"><ele>154.0</ele><time>2026-05-02T15:57:22.788Z</time></trkpt><trkpt lat="42.9874633" lon="11.1327217"><ele>157.0</ele><time>2026-05-02T15:57:23.789Z</time></trkpt><trkpt lat="42.98732" lon="11.13259"><ele>160.0</ele><time>2026-05-02T15:57:24.79Z</time></trkpt><trkpt lat="42.9871733" lon="11.132465"><ele>155.0</ele><time>2026-05-02T15:57:25.789Z</time></trkpt><trkpt lat="42.987025" lon="11.1323433"><ele>150.0</ele><time>2026-05-02T15:57:26.785Z</time></trkpt><trkpt lat="42.9868733" lon="11.1322217"><ele>145.0</ele><time>2026-05-02T15:57:27.785Z</time></trkpt><trkpt lat="42.9867233" lon="11.132095"><ele>147.66666666666669</ele><time>2026-05-02T15:57:28.789Z</time></trkpt><trkpt lat="42.98657" lon="11.13197"><ele>150.33333333333334</ele><time>2026-05-02T15:57:29.786Z</time></trkpt><trkpt lat="42.9864167" lon="11.131845"><ele>153.0</ele><time>2026-05-02T15:57:30.786Z</time></trkpt><trkpt lat="42.9862633" lon="11.13172"><ele>153.0</ele><time>2026-05-02T15:57:31.786Z</time></trkpt><trkpt lat="42.9861133" lon="11.1315983"><ele>153.0</ele><time>2026-05-02T15:57:32.788Z</time></trkpt><trkpt lat="42.9859683" lon="11.131475"><ele>153.0</ele><time>2026-05-02T15:57:33.789Z</time></trkpt><trkpt lat="42.9858183" lon="11.131345"><ele>151.33333333333334</ele><time>2026-05-02T15:57:34.789Z</time></trkpt><trkpt lat="42.9856617" lon="11.1312183"><ele>149.66666666666669</ele><time>2026-05-02T15:57:35.789Z</time></trkpt><trkpt lat="42.9855083" lon="11.13109"><ele>148.0</ele><time>2026-05-02T15:57:36.789Z</time></trkpt><trkpt lat="42.9853517" lon="11.1309583"><ele>148.0</ele><time>2026-05-02T15:57:37.785Z</time></trkpt><trkpt lat="42.9852" lon="11.13083"><ele>148.0</ele><time>2026-05-02T15:57:38.786Z</time></trkpt><trkpt lat="42.985055" lon="11.1307033"><ele>148.0</ele><time>2026-05-02T15:57:39.787Z</time></trkpt><trkpt lat="42.9849117" lon="11.1305833"><ele>146.33333333333334</ele><time>2026-05-02T15:57:40.786Z</time></trkpt><trkpt lat="42.9847767" lon="11.130465"><ele>144.66666666666666</ele><time>2026-05-02T15:57:41.786Z</time></trkpt><trkpt lat="42.9846433" lon="11.13035"><ele>143.0</ele><time>2026-05-02T15:57:42.788Z</time></trkpt><trkpt lat="42.9845117" lon="11.1302367"><ele>143.0</ele><time>2026-05-02T15:57:43.786Z</time></trkpt><trkpt lat="42.9843833" lon="11.130125"><ele>143.0</ele><time>2026-05-02T15:57:44.789Z</time></trkpt><trkpt lat="42.984255" lon="11.1300067"><ele>143.0</ele><time>2026-05-02T15:57:45.786Z</time></trkpt><trkpt lat="42.9841317" lon="11.12989"><ele>139.75</ele><time>2026-05-02T15:57:46.787Z</time></trkpt><trkpt lat="42.9840133" lon="11.1297633"><ele>136.5</ele><time>2026-05-02T15:57:47.787Z</time></trkpt><trkpt lat="42.9838983" lon="11.1296283"><ele>133.25</ele><time>2026-05-02T15:57:48.787Z</time></trkpt><trkpt lat="42.9837983" lon="11.1294817"><ele>130.0</ele><time>2026-05-02T15:57:49.786Z</time></trkpt><trkpt lat="42.9837183" lon="11.1293233"><ele>130.0</ele><time>2026-05-02T15:57:50.786Z</time></trkpt><trkpt lat="42.98366" lon="11.1291483"><ele>130.0</ele><time>2026-05-02T15:57:51.786Z</time></trkpt><trkpt lat="42.9836183" lon="11.128965"><ele>130.0</ele><time>2026-05-02T15:57:52.787Z</time></trkpt><trkpt lat="42.9835933" lon="11.1287683"><ele>130.0</ele><time>2026-05-02T15:57:53.786Z</time></trkpt><trkpt lat="42.983585" lon="11.128555"><ele>128.66666666666669</ele><time>2026-05-02T15:57:54.789Z</time></trkpt><trkpt lat="42.9835983" lon="11.12833"><ele>127.33333333333334</ele><time>2026-05-02T15:57:55.789Z</time></trkpt><trkpt lat="42.9836267" lon="11.1281"><ele>126.0</ele><time>2026-05-02T15:57:56.786Z</time></trkpt><trkpt lat="42.9836633" lon="11.12787"><ele>124.66666666666666</ele><time>2026-05-02T15:57:57.786Z</time></trkpt><trkpt lat="42.9837083" lon="11.1276417"><ele>123.33333333333333</ele><time>2026-05-02T15:57:58.786Z</time></trkpt><trkpt lat="42.983755" lon="11.1274183"><ele>122.0</ele><time>2026-05-02T15:57:59.786Z</time></trkpt><trkpt lat="42.9837967" lon="11.1271983"><ele>120.66666666666666</ele><time>2026-05-02T15:58:00.786Z</time></trkpt><trkpt lat="42.9838333" lon="11.126985"><ele>119.33333333333334</ele><time>2026-05-02T15:58:01.787Z</time></trkpt><trkpt lat="42.9838583" lon="11.126775"><ele>118.0</ele><time>2026-05-02T15:58:02.787Z</time></trkpt><trkpt lat="42.9838633" lon="11.1265683"><ele>117.0</ele><time>2026-05-02T15:58:03.789Z</time></trkpt><trkpt lat="42.9838467" lon="11.12637"><ele>116.0</ele><time>2026-05-02T15:58:04.789Z</time></trkpt><trkpt lat="42.98381" lon="11.1261867"><ele>115.0</ele><time>2026-05-02T15:58:05.789Z</time></trkpt><trkpt lat="42.9837567" lon="11.126015"><ele>114.0</ele><time>2026-05-02T15:58:06.79Z</time></trkpt><trkpt lat="42.9836883" lon="11.1258433"><ele>113.25</ele><time>2026-05-02T15:58:07.786Z</time></trkpt><trkpt lat="42.98361" lon="11.1256783"><ele>112.5</ele><time>2026-05-02T15:58:08.786Z</time></trkpt><trkpt lat="42.98352" lon="11.12553"><ele>111.75</ele><time>2026-05-02T15:58:09.787Z</time></trkpt><trkpt lat="42.98343" lon="11.1253917"><ele>111.0</ele><time>2026-05-02T15:58:10.788Z</time></trkpt><trkpt lat="42.98334" lon="11.12526"><ele>110.4</ele><time>2026-05-02T15:58:11.787Z</time></trkpt><trkpt lat="42.9832567" lon="11.125135"><ele>109.8</ele><time>2026-05-02T15:58:12.787Z</time></trkpt><trkpt lat="42.9831833" lon="11.1250217"><ele>109.20000000000002</ele><time>2026-05-02T15:58:13.787Z</time></trkpt><trkpt lat="42.98312" lon="11.1249217"><ele>108.60000000000001</ele><time>2026-05-02T15:58:14.788Z</time></trkpt><trkpt lat="42.983075" lon="11.1248367"><ele>108.0</ele><time>2026-05-02T15:58:15.787Z</time></trkpt><trkpt lat="42.983045" lon="11.12471"><ele>108.0</ele><time>2026-05-02T15:58:17.787Z</time></trkpt><trkpt lat="42.9831067" lon="11.1246867"><ele>108.00000000000001</ele><time>2026-05-02T15:58:19.788Z</time></trkpt><trkpt lat="42.9831917" lon="11.1248233"><ele>108.00000000000001</ele><time>2026-05-02T15:58:21.79Z</time></trkpt><trkpt lat="42.98325" lon="11.1249433"><ele>108.0</ele><time>2026-05-02T15:58:22.789Z</time></trkpt><trkpt lat="42.9833267" lon="11.1250817"><ele>108.0</ele><time>2026-05-02T15:58:23.789Z</time></trkpt><trkpt lat="42.9834133" lon="11.1252183"><ele>108.75</ele><time>2026-05-02T15:58:24.791Z</time></trkpt><trkpt lat="42.9835067" lon="11.1253567"><ele>109.5</ele><time>2026-05-02T15:58:25.789Z</time></trkpt><trkpt lat="42.9835983" lon="11.1254867"><ele>110.25</ele><time>2026-05-02T15:58:26.786Z</time></trkpt><trkpt lat="42.9836767" lon="11.1255967"><ele>111.0</ele><time>2026-05-02T15:58:27.787Z</time></trkpt><trkpt lat="42.98375" lon="11.1256883"><ele>111.0</ele><time>2026-05-02T15:58:28.786Z</time></trkpt><trkpt lat="42.983825" lon="11.1257467"><ele>111.0</ele><time>2026-05-02T15:58:29.787Z</time></trkpt><trkpt lat="42.98391" lon="11.12577"><ele>111.0</ele><time>2026-05-02T15:58:30.786Z</time></trkpt><trkpt lat="42.984005" lon="11.1257583"><ele>111.0</ele><time>2026-05-02T15:58:31.787Z</time></trkpt><trkpt lat="42.9841067" lon="11.125715"><ele>111.0</ele><time>2026-05-02T15:58:32.788Z</time></trkpt><trkpt lat="42.9842083" lon="11.1256583"><ele>111.4</ele><time>2026-05-02T15:58:33.79Z</time></trkpt><trkpt lat="42.984305" lon="11.1256083"><ele>111.8</ele><time>2026-05-02T15:58:34.789Z</time></trkpt><trkpt lat="42.9844" lon="11.1255767"><ele>112.20000000000002</ele><time>2026-05-02T15:58:35.789Z</time></trkpt><trkpt lat="42.98449" lon="11.1255783"><ele>112.60000000000001</ele><time>2026-05-02T15:58:36.789Z</time></trkpt><trkpt lat="42.9845733" lon="11.1256167"><ele>113.0</ele><time>2026-05-02T15:58:37.787Z</time></trkpt><trkpt lat="42.9846633" lon="11.1256883"><ele>113.5</ele><time>2026-05-02T15:58:38.786Z</time></trkpt><trkpt lat="42.9847617" lon="11.1257833"><ele>114.0</ele><time>2026-05-02T15:58:39.786Z</time></trkpt><trkpt lat="42.98486" lon="11.1258917"><ele>114.5</ele><time>2026-05-02T15:58:40.786Z</time></trkpt><trkpt lat="42.9849583" lon="11.1260083"><ele>115.0</ele><time>2026-05-02T15:58:41.786Z</time></trkpt><trkpt lat="42.9850683" lon="11.1261367"><ele>115.0</ele><time>2026-05-02T15:58:42.786Z</time></trkpt><trkpt lat="42.985185" lon="11.1262667"><ele>115.0</ele><time>2026-05-02T15:58:43.786Z</time></trkpt><trkpt lat="42.9852967" lon="11.1263933"><ele>115.0</ele><time>2026-05-02T15:58:44.787Z</time></trkpt><trkpt lat="42.985405" lon="11.1265133"><ele>115.0</ele><time>2026-05-02T15:58:45.786Z</time></trkpt><trkpt lat="42.9855083" lon="11.12662"><ele>114.75</ele><time>2026-05-02T15:58:46.787Z</time></trkpt><trkpt lat="42.985605" lon="11.1267183"><ele>114.5</ele><time>2026-05-02T15:58:47.787Z</time></trkpt><trkpt lat="42.9856967" lon="11.1268117"><ele>114.25</ele><time>2026-05-02T15:58:48.787Z</time></trkpt><trkpt lat="42.98579" lon="11.1268917"><ele>114.0</ele><time>2026-05-02T15:58:49.786Z</time></trkpt><trkpt lat="42.98588" lon="11.1269667"><ele>114.0</ele><time>2026-05-02T15:58:50.79Z</time></trkpt><trkpt lat="42.9859717" lon="11.127035"><ele>114.0</ele><time>2026-05-02T15:58:51.79Z</time></trkpt><trkpt lat="42.9860667" lon="11.1270983"><ele>114.0</ele><time>2026-05-02T15:58:52.789Z</time></trkpt><trkpt lat="42.9861583" lon="11.127155"><ele>114.0</ele><time>2026-05-02T15:58:53.789Z</time></trkpt><trkpt lat="42.9862467" lon="11.127215"><ele>114.0</ele><time>2026-05-02T15:58:54.789Z</time></trkpt><trkpt lat="42.98633" lon="11.1272767"><ele>114.0</ele><time>2026-05-02T15:58:55.79Z</time></trkpt><trkpt lat="42.9863983" lon="11.1273383"><ele>114.0</ele><time>2026-05-02T15:58:56.789Z</time></trkpt><trkpt lat="42.9864617" lon="11.1273933"><ele>114.0</ele><time>2026-05-02T15:58:57.786Z</time></trkpt><trkpt lat="42.986525" lon="11.127445"><ele>114.0</ele><time>2026-05-02T15:58:58.786Z</time></trkpt><trkpt lat="42.9865867" lon="11.127485"><ele>114.0</ele><time>2026-05-02T15:58:59.787Z</time></trkpt><trkpt lat="42.9867017" lon="11.12756"><ele>114.0</ele><time>2026-05-02T15:59:01.789Z</time></trkpt><trkpt lat="42.9867733" lon="11.127605"><ele>114.75</ele><time>2026-05-02T15:59:02.79Z</time></trkpt><trkpt lat="42.986855" lon="11.1276617"><ele>115.5</ele><time>2026-05-02T15:59:03.786Z</time></trkpt><trkpt lat="42.9869483" lon="11.1277383"><ele>116.25</ele><time>2026-05-02T15:59:04.785Z</time></trkpt><trkpt lat="42.987045" lon="11.1278383"><ele>117.0</ele><time>2026-05-02T15:59:05.879Z</time></trkpt><trkpt lat="42.9871567" lon="11.12796"><ele>117.0</ele><time>2026-05-02T15:59:06.786Z</time></trkpt><trkpt lat="42.9872817" lon="11.1280883"><ele>117.0</ele><time>2026-05-02T15:59:07.789Z</time></trkpt><trkpt lat="42.987415" lon="11.1282233"><ele>117.0</ele><time>2026-05-02T15:59:08.785Z</time></trkpt><trkpt lat="42.9875567" lon="11.1283483"><ele>119.0</ele><time>2026-05-02T15:59:09.785Z</time></trkpt><trkpt lat="42.9877" lon="11.1284667"><ele>121.0</ele><time>2026-05-02T15:59:10.787Z</time></trkpt><trkpt lat="42.9878483" lon="11.12859"><ele>123.0</ele><time>2026-05-02T15:59:11.785Z</time></trkpt><trkpt lat="42.98799" lon="11.128725"><ele>123.0</ele><time>2026-05-02T15:59:12.785Z</time></trkpt><trkpt lat="42.9881317" lon="11.12887"><ele>123.0</ele><time>2026-05-02T15:59:13.785Z</time></trkpt><trkpt lat="42.9882633" lon="11.1290233"><ele>123.0</ele><time>2026-05-02T15:59:14.786Z</time></trkpt><trkpt lat="42.988385" lon="11.1291833"><ele>123.66666666666666</ele><time>2026-05-02T15:59:15.785Z</time></trkpt><trkpt lat="42.9885133" lon="11.1293317"><ele>124.33333333333333</ele><time>2026-05-02T15:59:16.786Z</time></trkpt><trkpt lat="42.988645" lon="11.12947"><ele>125.0</ele><time>2026-05-02T15:59:17.785Z</time></trkpt><trkpt lat="42.9887817" lon="11.1296033"><ele>125.0</ele><time>2026-05-02T15:59:18.786Z</time></trkpt><trkpt lat="42.9889217" lon="11.1297333"><ele>125.0</ele><time>2026-05-02T15:59:19.786Z</time></trkpt><trkpt lat="42.9890617" lon="11.1298567"><ele>125.0</ele><time>2026-05-02T15:59:20.789Z</time></trkpt><trkpt lat="42.9891967" lon="11.1299633"><ele>125.5</ele><time>2026-05-02T15:59:21.788Z</time></trkpt><trkpt lat="42.9893133" lon="11.1300517"><ele>126.0</ele><time>2026-05-02T15:59:22.788Z</time></trkpt><trkpt lat="42.98942" lon="11.130135"><ele>126.5</ele><time>2026-05-02T15:59:23.79Z</time></trkpt><trkpt lat="42.9895267" lon="11.1302167"><ele>127.0</ele><time>2026-05-02T15:59:24.789Z</time></trkpt><trkpt lat="42.989635" lon="11.1303033"><ele>127.0</ele><time>2026-05-02T15:59:25.787Z</time></trkpt><trkpt lat="42.98976" lon="11.1303983"><ele>127.0</ele><time>2026-05-02T15:59:26.786Z</time></trkpt><trkpt lat="42.98989" lon="11.1304967"><ele>127.0</ele><time>2026-05-02T15:59:27.786Z</time></trkpt><trkpt lat="42.99002" lon="11.1305933"><ele>127.0</ele><time>2026-05-02T15:59:28.786Z</time></trkpt><trkpt lat="42.9901467" lon="11.13068"><ele>127.0</ele><time>2026-05-02T15:59:29.787Z</time></trkpt><trkpt lat="42.99027" lon="11.13075"><ele>126.99999999999999</ele><time>2026-05-02T15:59:30.785Z</time></trkpt><trkpt lat="42.9903867" lon="11.13081"><ele>126.99999999999999</ele><time>2026-05-02T15:59:31.785Z</time></trkpt><trkpt lat="42.990485" lon="11.13085"><ele>127.0</ele><time>2026-05-02T15:59:32.785Z</time></trkpt><trkpt lat="42.9905617" lon="11.130875"><ele>127.0</ele><time>2026-05-02T15:59:33.79Z</time></trkpt><trkpt lat="42.99067" lon="11.1309133"><ele>127.0</ele><time>2026-05-02T15:59:35.788Z</time></trkpt><trkpt lat="42.9907783" lon="11.1309833"><ele>126.99999999999999</ele><time>2026-05-02T15:59:37.788Z</time></trkpt><trkpt lat="42.9908417" lon="11.13104"><ele>126.99999999999999</ele><time>2026-05-02T15:59:38.786Z</time></trkpt><trkpt lat="42.990915" lon="11.1311083"><ele>127.0</ele><time>2026-05-02T15:59:39.785Z</time></trkpt><trkpt lat="42.991005" lon="11.1311883"><ele>127.0</ele><time>2026-05-02T15:59:40.786Z</time></trkpt><trkpt lat="42.9911133" lon="11.13128"><ele>127.25</ele><time>2026-05-02T15:59:41.787Z</time></trkpt><trkpt lat="42.9912433" lon="11.1313883"><ele>127.5</ele><time>2026-05-02T15:59:42.785Z</time></trkpt><trkpt lat="42.9913517" lon="11.1314733"><ele>127.75</ele><time>2026-05-02T15:59:43.786Z</time></trkpt><trkpt lat="42.9914467" lon="11.1315567"><ele>128.0</ele><time>2026-05-02T15:59:44.786Z</time></trkpt><trkpt lat="42.9915367" lon="11.1316267"><ele>127.33333333333333</ele><time>2026-05-02T15:59:45.786Z</time></trkpt><trkpt lat="42.9916117" lon="11.13171"><ele>126.66666666666666</ele><time>2026-05-02T15:59:46.786Z</time></trkpt><trkpt lat="42.9916733" lon="11.13179"><ele>126.0</ele><time>2026-05-02T15:59:47.789Z</time></trkpt><trkpt lat="42.991725" lon="11.1318783"><ele>125.33333333333334</ele><time>2026-05-02T15:59:48.786Z</time></trkpt><trkpt lat="42.9917533" lon="11.1319683"><ele>124.66666666666667</ele><time>2026-05-02T15:59:49.786Z</time></trkpt><trkpt lat="42.99177" lon="11.1320533"><ele>124.0</ele><time>2026-05-02T15:59:50.789Z</time></trkpt><trkpt lat="42.991775" lon="11.1321517"><ele>123.83333333333334</ele><time>2026-05-02T15:59:51.788Z</time></trkpt><trkpt lat="42.9917783" lon="11.1322517"><ele>123.66666666666667</ele><time>2026-05-02T15:59:52.789Z</time></trkpt><trkpt lat="42.9918" lon="11.13236"><ele>123.5</ele><time>2026-05-02T15:59:53.789Z</time></trkpt><trkpt lat="42.9918283" lon="11.132465"><ele>123.33333333333334</ele><time>2026-05-02T15:59:54.785Z</time></trkpt><trkpt lat="42.99187" lon="11.1325667"><ele>123.16666666666667</ele><time>2026-05-02T15:59:55.786Z</time></trkpt><trkpt lat="42.99192" lon="11.13266"><ele>123.0</ele><time>2026-05-02T15:59:56.789Z</time></trkpt><trkpt lat="42.9919683" lon="11.1327283"><ele>123.4</ele><time>2026-05-02T15:59:57.79Z</time></trkpt><trkpt lat="42.9920433" lon="11.132795"><ele>123.80000000000001</ele><time>2026-05-02T15:59:58.789Z</time></trkpt><trkpt lat="42.9921167" lon="11.1328617"><ele>124.2</ele><time>2026-05-02T15:59:59.789Z</time></trkpt><trkpt lat="42.9921917" lon="11.1329283"><ele>124.6</ele><time>2026-05-02T16:00:00.789Z</time></trkpt><trkpt lat="42.9922733" lon="11.1329933"><ele>125.0</ele><time>2026-05-02T16:00:01.789Z</time></trkpt><trkpt lat="42.9923533" lon="11.1330667"><ele>125.0</ele><time>2026-05-02T16:00:02.789Z</time></trkpt><trkpt lat="42.99243" lon="11.133145"><ele>125.0</ele><time>2026-05-02T16:00:03.793Z</time></trkpt><trkpt lat="42.9924983" lon="11.133235"><ele>125.0</ele><time>2026-05-02T16:00:04.789Z</time></trkpt><trkpt lat="42.9925683" lon="11.1333383"><ele>125.0</ele><time>2026-05-02T16:00:05.791Z</time></trkpt><trkpt lat="42.992635" lon="11.1334517"><ele>125.0</ele><time>2026-05-02T16:00:06.789Z</time></trkpt><trkpt lat="42.9926833" lon="11.1335783"><ele>124.6</ele><time>2026-05-02T16:00:07.785Z</time></trkpt><trkpt lat="42.9927317" lon="11.1337167"><ele>124.2</ele><time>2026-05-02T16:00:08.787Z</time></trkpt><trkpt lat="42.992775" lon="11.13385"><ele>123.80000000000001</ele><time>2026-05-02T16:00:09.785Z</time></trkpt><trkpt lat="42.99282" lon="11.1339767"><ele>123.4</ele><time>2026-05-02T16:00:10.787Z</time></trkpt><trkpt lat="42.9928783" lon="11.13409"><ele>123.0</ele><time>2026-05-02T16:00:11.786Z</time></trkpt><trkpt lat="42.9929517" lon="11.13418"><ele>124.2</ele><time>2026-05-02T16:00:12.785Z</time></trkpt><trkpt lat="42.9930383" lon="11.134235"><ele>125.4</ele><time>2026-05-02T16:00:13.788Z</time></trkpt><trkpt lat="42.9931317" lon="11.134275"><ele>126.60000000000001</ele><time>2026-05-02T16:00:14.785Z</time></trkpt><trkpt lat="42.9932267" lon="11.13431"><ele>127.80000000000001</ele><time>2026-05-02T16:00:15.786Z</time></trkpt><trkpt lat="42.9933317" lon="11.1343417"><ele>129.0</ele><time>2026-05-02T16:00:16.787Z</time></trkpt><trkpt lat="42.9934383" lon="11.1343717"><ele>129.0</ele><time>2026-05-02T16:00:17.786Z</time></trkpt><trkpt lat="42.9935367" lon="11.1343967"><ele>129.0</ele><time>2026-05-02T16:00:18.786Z</time></trkpt><trkpt lat="42.99364" lon="11.1344167"><ele>129.0</ele><time>2026-05-02T16:00:19.787Z</time></trkpt><trkpt lat="42.9937333" lon="11.1344317"><ele>129.0</ele><time>2026-05-02T16:00:20.79Z</time></trkpt><trkpt lat="42.9938183" lon="11.1344367"><ele>129.0</ele><time>2026-05-02T16:00:21.789Z</time></trkpt><trkpt lat="42.9939" lon="11.13442"><ele>129.0</ele><time>2026-05-02T16:00:22.789Z</time></trkpt><trkpt lat="42.993975" lon="11.134395"><ele>129.0</ele><time>2026-05-02T16:00:23.791Z</time></trkpt><trkpt lat="42.994055" lon="11.13436"><ele>129.0</ele><time>2026-05-02T16:00:24.789Z</time></trkpt><trkpt lat="42.9941367" lon="11.1343117"><ele>129.0</ele><time>2026-05-02T16:00:25.789Z</time></trkpt><trkpt lat="42.9942217" lon="11.134255"><ele>129.0</ele><time>2026-05-02T16:00:26.79Z</time></trkpt><trkpt lat="42.9943033" lon="11.1341933"><ele>129.0</ele><time>2026-05-02T16:00:27.786Z</time></trkpt><trkpt lat="42.9943783" lon="11.1341333"><ele>129.2</ele><time>2026-05-02T16:00:28.79Z</time></trkpt><trkpt lat="42.9944383" lon="11.134075"><ele>129.4</ele><time>2026-05-02T16:00:29.788Z</time></trkpt><trkpt lat="42.9945417" lon="11.1339883"><ele>129.6</ele><time>2026-05-02T16:00:31.79Z</time></trkpt><trkpt lat="42.9946017" lon="11.1339233"><ele>129.8</ele><time>2026-05-02T16:00:33.79Z</time></trkpt><trkpt lat="42.9946333" lon="11.133825"><ele>130.0</ele><time>2026-05-02T16:00:35.789Z</time></trkpt><trkpt lat="42.9946083" lon="11.13369"><ele>130.0</ele><time>2026-05-02T16:00:37.786Z</time></trkpt><trkpt lat="42.9945317" lon="11.13354"><ele>130.0</ele><time>2026-05-02T16:00:39.788Z</time></trkpt><trkpt lat="42.99449" lon="11.133465"><ele>130.0</ele><time>2026-05-02T16:00:40.786Z</time></trkpt><trkpt lat="42.99445" lon="11.1333183"><ele>130.0</ele><time>2026-05-02T16:00:42.785Z</time></trkpt><trkpt lat="42.994485" lon="11.1331767"><ele>130.0</ele><time>2026-05-02T16:00:44.789Z</time></trkpt><trkpt lat="42.9945283" lon="11.133095"><ele>130.2</ele><time>2026-05-02T16:00:45.785Z</time></trkpt><trkpt lat="42.9945817" lon="11.1329933"><ele>130.4</ele><time>2026-05-02T16:00:46.787Z</time></trkpt><trkpt lat="42.9946383" lon="11.1328833"><ele>130.6</ele><time>2026-05-02T16:00:47.786Z</time></trkpt><trkpt lat="42.9946933" lon="11.1327667"><ele>130.8</ele><time>2026-05-02T16:00:48.786Z</time></trkpt><trkpt lat="42.994745" lon="11.1326567"><ele>131.0</ele><time>2026-05-02T16:00:49.785Z</time></trkpt><trkpt lat="42.9947983" lon="11.1325617"><ele>131.0</ele><time>2026-05-02T16:00:50.786Z</time></trkpt><trkpt lat="42.9948583" lon="11.1324867"><ele>131.0</ele><time>2026-05-02T16:00:51.786Z</time></trkpt><trkpt lat="42.994925" lon="11.1324317"><ele>131.0</ele><time>2026-05-02T16:00:52.789Z</time></trkpt><trkpt lat="42.9950017" lon="11.13238"><ele>131.0</ele><time>2026-05-02T16:00:53.789Z</time></trkpt><trkpt lat="42.995095" lon="11.1323267"><ele>131.0</ele><time>2026-05-02T16:00:54.789Z</time></trkpt><trkpt lat="42.9951967" lon="11.1322717"><ele>132.8</ele><time>2026-05-02T16:00:55.79Z</time></trkpt><trkpt lat="42.9952967" lon="11.1322117"><ele>134.6</ele><time>2026-05-02T16:00:56.79Z</time></trkpt><trkpt lat="42.9953867" lon="11.1321483"><ele>136.4</ele><time>2026-05-02T16:00:57.79Z</time></trkpt><trkpt lat="42.9954683" lon="11.1320767"><ele>138.2</ele><time>2026-05-02T16:00:58.789Z</time></trkpt><trkpt lat="42.99554" lon="11.1320033"><ele>140.0</ele><time>2026-05-02T16:00:59.789Z</time></trkpt><trkpt lat="42.9956067" lon="11.1319383"><ele>140.0</ele><time>2026-05-02T16:01:00.785Z</time></trkpt><trkpt lat="42.9956767" lon="11.1318633"><ele>140.0</ele><time>2026-05-02T16:01:01.79Z</time></trkpt><trkpt lat="42.9957333" lon="11.1317683"><ele>140.0</ele><time>2026-05-02T16:01:02.789Z</time></trkpt><trkpt lat="42.9957783" lon="11.13166"><ele>140.0</ele><time>2026-05-02T16:01:03.79Z</time></trkpt><trkpt lat="42.9958183" lon="11.1315333"><ele>140.0</ele><time>2026-05-02T16:01:04.79Z</time></trkpt><trkpt lat="42.9958633" lon="11.131395"><ele>143.4</ele><time>2026-05-02T16:01:05.789Z</time></trkpt><trkpt lat="42.995915" lon="11.1312517"><ele>146.8</ele><time>2026-05-02T16:01:06.789Z</time></trkpt><trkpt lat="42.9959583" lon="11.1311117"><ele>150.2</ele><time>2026-05-02T16:01:07.787Z</time></trkpt><trkpt lat="42.9959933" lon="11.130985"><ele>153.6</ele><time>2026-05-02T16:01:08.787Z</time></trkpt><trkpt lat="42.9960283" lon="11.1308633"><ele>157.0</ele><time>2026-05-02T16:01:09.787Z</time></trkpt><trkpt lat="42.996075" lon="11.13075"><ele>159.2</ele><time>2026-05-02T16:01:10.789Z</time></trkpt><trkpt lat="42.996145" lon="11.1306483"><ele>161.39999999999998</ele><time>2026-05-02T16:01:11.789Z</time></trkpt><trkpt lat="42.9962367" lon="11.1305617"><ele>163.60000000000002</ele><time>2026-05-02T16:01:12.789Z</time></trkpt><trkpt lat="42.9963433" lon="11.1305017"><ele>165.8</ele><time>2026-05-02T16:01:13.787Z</time></trkpt><trkpt lat="42.9964517" lon="11.13046"><ele>168.0</ele><time>2026-05-02T16:01:14.786Z</time></trkpt><trkpt lat="42.996555" lon="11.130425"><ele>168.0</ele><time>2026-05-02T16:01:15.786Z</time></trkpt><trkpt lat="42.9966433" lon="11.1303767"><ele>168.0</ele><time>2026-05-02T16:01:16.786Z</time></trkpt><trkpt lat="42.9967283" lon="11.1302917"><ele>168.0</ele><time>2026-05-02T16:01:17.789Z</time></trkpt><trkpt lat="42.9968133" lon="11.1301933"><ele>168.0</ele><time>2026-05-02T16:01:18.785Z</time></trkpt><trkpt lat="42.9968817" lon="11.1301067"><ele>168.0</ele><time>2026-05-02T16:01:19.786Z</time></trkpt><trkpt lat="42.9969283" lon="11.1300317"><ele>168.83333333333334</ele><time>2026-05-02T16:01:20.789Z</time></trkpt><trkpt lat="42.9969367" lon="11.1299067"><ele>169.66666666666666</ele><time>2026-05-02T16:01:22.789Z</time></trkpt><trkpt lat="42.9968617" lon="11.1297933"><ele>170.5</ele><time>2026-05-02T16:01:24.79Z</time></trkpt><trkpt lat="42.9968017" lon="11.12973"><ele>171.33333333333331</ele><time>2026-05-02T16:01:25.789Z</time></trkpt><trkpt lat="42.9967333" lon="11.1296633"><ele>172.16666666666666</ele><time>2026-05-02T16:01:26.789Z</time></trkpt><trkpt lat="42.996665" lon="11.1296"><ele>173.0</ele><time>2026-05-02T16:01:27.785Z</time></trkpt><trkpt lat="42.9966167" lon="11.1295417"><ele>173.0</ele><time>2026-05-02T16:01:28.786Z</time></trkpt><trkpt lat="42.9965783" lon="11.1294417"><ele>173.0</ele><time>2026-05-02T16:01:30.787Z</time></trkpt><trkpt lat="42.9966283" lon="11.1293517"><ele>173.0</ele><time>2026-05-02T16:01:32.787Z</time></trkpt><trkpt lat="42.9966783" lon="11.1292917"><ele>173.0</ele><time>2026-05-02T16:01:33.786Z</time></trkpt><trkpt lat="42.9967433" lon="11.129235"><ele>173.0</ele><time>2026-05-02T16:01:34.787Z</time></trkpt><trkpt lat="42.9968183" lon="11.1291767"><ele>173.0</ele><time>2026-05-02T16:01:35.786Z</time></trkpt><trkpt lat="42.9969083" lon="11.12912"><ele>175.0</ele><time>2026-05-02T16:01:36.786Z</time></trkpt><trkpt lat="42.997" lon="11.129065"><ele>177.0</ele><time>2026-05-02T16:01:37.786Z</time></trkpt><trkpt lat="42.9970867" lon="11.1289967"><ele>179.0</ele><time>2026-05-02T16:01:38.788Z</time></trkpt><trkpt lat="42.997155" lon="11.1289217"><ele>181.0</ele><time>2026-05-02T16:01:39.786Z</time></trkpt><trkpt lat="42.9972067" lon="11.1288467"><ele>183.0</ele><time>2026-05-02T16:01:40.786Z</time></trkpt><trkpt lat="42.99725" lon="11.1287633"><ele>185.0</ele><time>2026-05-02T16:01:41.786Z</time></trkpt><trkpt lat="42.9972783" lon="11.1286633"><ele>185.83333333333331</ele><time>2026-05-02T16:01:42.786Z</time></trkpt><trkpt lat="42.9973033" lon="11.1285483"><ele>186.66666666666666</ele><time>2026-05-02T16:01:43.787Z</time></trkpt><trkpt lat="42.9973367" lon="11.128435"><ele>187.5</ele><time>2026-05-02T16:01:44.789Z</time></trkpt><trkpt lat="42.9973767" lon="11.1283183"><ele>188.33333333333334</ele><time>2026-05-02T16:01:45.786Z</time></trkpt><trkpt lat="42.9974283" lon="11.1282183"><ele>189.16666666666669</ele><time>2026-05-02T16:01:46.79Z</time></trkpt><trkpt lat="42.99748" lon="11.1281333"><ele>190.0</ele><time>2026-05-02T16:01:47.786Z</time></trkpt><trkpt lat="42.9975267" lon="11.12806"><ele>193.16666666666669</ele><time>2026-05-02T16:01:48.789Z</time></trkpt><trkpt lat="42.99755" lon="11.1279783"><ele>196.33333333333334</ele><time>2026-05-02T16:01:49.79Z</time></trkpt><trkpt lat="42.997555" lon="11.12788"><ele>199.5</ele><time>2026-05-02T16:01:50.789Z</time></trkpt><trkpt lat="42.9975633" lon="11.1277767"><ele>202.66666666666669</ele><time>2026-05-02T16:01:51.789Z</time></trkpt><trkpt lat="42.99757" lon="11.1276817"><ele>205.83333333333334</ele><time>2026-05-02T16:01:52.789Z</time></trkpt><trkpt lat="42.9975967" lon="11.1275333"><ele>209.0</ele><time>2026-05-02T16:01:54.789Z</time></trkpt><trkpt lat="42.997675" lon="11.1274467"><ele>209.0</ele><time>2026-05-02T16:01:56.786Z</time></trkpt><trkpt lat="42.9977883" lon="11.1274617"><ele>209.0</ele><time>2026-05-02T16:01:58.786Z</time></trkpt><trkpt lat="42.9978633" lon="11.1275017"><ele>209.0</ele><time>2026-05-02T16:01:59.787Z</time></trkpt><trkpt lat="42.9979533" lon="11.1275367"><ele>209.0</ele><time>2026-05-02T16:02:00.786Z</time></trkpt><trkpt lat="42.9980433" lon="11.1275717"><ele>209.0</ele><time>2026-05-02T16:02:01.786Z</time></trkpt><trkpt lat="42.9981417" lon="11.127625"><ele>209.00000000000003</ele><time>2026-05-02T16:02:02.788Z</time></trkpt><trkpt lat="42.99823" lon="11.1276783"><ele>209.0</ele><time>2026-05-02T16:02:03.786Z</time></trkpt><trkpt lat="42.9983083" lon="11.1277133"><ele>209.0</ele><time>2026-05-02T16:02:04.787Z</time></trkpt><trkpt lat="42.9983817" lon="11.127725"><ele>209.0</ele><time>2026-05-02T16:02:05.787Z</time></trkpt><trkpt lat="42.99845" lon="11.1276983"><ele>209.00000000000003</ele><time>2026-05-02T16:02:06.787Z</time></trkpt><trkpt lat="42.9985183" lon="11.12764"><ele>209.0</ele><time>2026-05-02T16:02:07.787Z</time></trkpt><trkpt lat="42.99859" lon="11.1275717"><ele>211.0</ele><time>2026-05-02T16:02:08.787Z</time></trkpt><trkpt lat="42.9986683" lon="11.127505"><ele>213.0</ele><time>2026-05-02T16:02:09.786Z</time></trkpt><trkpt lat="42.9987517" lon="11.1274417"><ele>214.99999999999997</ele><time>2026-05-02T16:02:10.788Z</time></trkpt><trkpt lat="42.99884" lon="11.1273817"><ele>217.0</ele><time>2026-05-02T16:02:11.787Z</time></trkpt><trkpt lat="42.99893" lon="11.1273333"><ele>219.0</ele><time>2026-05-02T16:02:12.786Z</time></trkpt><trkpt lat="42.999025" lon="11.127285"><ele>220.39999999999998</ele><time>2026-05-02T16:02:13.787Z</time></trkpt><trkpt lat="42.9991233" lon="11.12724"><ele>221.79999999999998</ele><time>2026-05-02T16:02:14.786Z</time></trkpt><trkpt lat="42.9992217" lon="11.1271933"><ele>223.20000000000002</ele><time>2026-05-02T16:02:15.789Z</time></trkpt><trkpt lat="42.99932" lon="11.12714"><ele>224.60000000000002</ele><time>2026-05-02T16:02:16.79Z</time></trkpt><trkpt lat="42.9994183" lon="11.1270917"><ele>226.0</ele><time>2026-05-02T16:02:17.789Z</time></trkpt><trkpt lat="42.99951" lon="11.1270483"><ele>227.0</ele><time>2026-05-02T16:02:18.789Z</time></trkpt><trkpt lat="42.99959" lon="11.126995"><ele>228.00000000000003</ele><time>2026-05-02T16:02:19.789Z</time></trkpt><trkpt lat="42.9996667" lon="11.126935"><ele>229.00000000000003</ele><time>2026-05-02T16:02:20.79Z</time></trkpt><trkpt lat="42.99974" lon="11.1268617"><ele>230.0</ele><time>2026-05-02T16:02:21.789Z</time></trkpt><trkpt lat="42.99981" lon="11.12677"><ele>231.0</ele><time>2026-05-02T16:02:22.789Z</time></trkpt><trkpt lat="42.99988" lon="11.1266717"><ele>231.0</ele><time>2026-05-02T16:02:23.789Z</time></trkpt><trkpt lat="42.9999517" lon="11.1265733"><ele>231.00000000000003</ele><time>2026-05-02T16:02:24.789Z</time></trkpt><trkpt lat="43.00002" lon="11.1264733"><ele>231.00000000000003</ele><time>2026-05-02T16:02:25.789Z</time></trkpt><trkpt lat="43.0000817" lon="11.126365"><ele>231.0</ele><time>2026-05-02T16:02:26.789Z</time></trkpt><trkpt lat="43.0001417" lon="11.1262483"><ele>231.0</ele><time>2026-05-02T16:02:27.786Z</time></trkpt><trkpt lat="43.0001917" lon="11.126125"><ele>232.16666666666666</ele><time>2026-05-02T16:02:28.786Z</time></trkpt><trkpt lat="43.0002317" lon="11.1260067"><ele>233.33333333333331</ele><time>2026-05-02T16:02:29.786Z</time></trkpt><trkpt lat="43.0002667" lon="11.12589"><ele>234.5</ele><time>2026-05-02T16:02:30.786Z</time></trkpt><trkpt lat="43.0003033" lon="11.1257767"><ele>235.66666666666666</ele><time>2026-05-02T16:02:31.786Z</time></trkpt><trkpt lat="43.0003433" lon="11.12568"><ele>236.83333333333331</ele><time>2026-05-02T16:02:32.786Z</time></trkpt><trkpt lat="43.00038" lon="11.125605"><ele>238.0</ele><time>2026-05-02T16:02:33.786Z</time></trkpt><trkpt lat="43.0004517" lon="11.125505"><ele>238.2</ele><time>2026-05-02T16:02:35.786Z</time></trkpt><trkpt lat="43.0005683" lon="11.1254083"><ele>238.4</ele><time>2026-05-02T16:02:37.786Z</time></trkpt><trkpt lat="43.0006383" lon="11.12535"><ele>238.59999999999997</ele><time>2026-05-02T16:02:38.79Z</time></trkpt><trkpt lat="43.0007117" lon="11.12528"><ele>238.79999999999998</ele><time>2026-05-02T16:02:39.788Z</time></trkpt><trkpt lat="43.00078" lon="11.1251967"><ele>239.0</ele><time>2026-05-02T16:02:40.788Z</time></trkpt><trkpt lat="43.0008517" lon="11.12511"><ele>240.0</ele><time>2026-05-02T16:02:41.789Z</time></trkpt><trkpt lat="43.0009217" lon="11.1250267"><ele>240.99999999999997</ele><time>2026-05-02T16:02:42.788Z</time></trkpt><trkpt lat="43.0009817" lon="11.1249533"><ele>241.99999999999997</ele><time>2026-05-02T16:02:43.788Z</time></trkpt><trkpt lat="43.0010667" lon="11.1248683"><ele>243.0</ele><time>2026-05-02T16:02:45.785Z</time></trkpt><trkpt lat="43.0010683" lon="11.1247467"><ele>244.0</ele><time>2026-05-02T16:02:48.785Z</time></trkpt><trkpt lat="43.001035" lon="11.1245817"><ele>244.49999999999997</ele><time>2026-05-02T16:02:50.786Z</time></trkpt><trkpt lat="43.001035" lon="11.12449"><ele>245.0</ele><time>2026-05-02T16:02:51.789Z</time></trkpt><trkpt lat="43.0010467" lon="11.1243867"><ele>245.5</ele><time>2026-05-02T16:02:52.785Z</time></trkpt><trkpt lat="43.0010633" lon="11.1242717"><ele>246.0</ele><time>2026-05-02T16:02:53.789Z</time></trkpt><trkpt lat="43.00109" lon="11.1241617"><ele>246.49999999999997</ele><time>2026-05-02T16:02:54.789Z</time></trkpt><trkpt lat="43.00113" lon="11.1240717"><ele>247.0</ele><time>2026-05-02T16:02:55.788Z</time></trkpt><trkpt lat="43.0011717" lon="11.1239817"><ele>247.16666666666666</ele><time>2026-05-02T16:02:56.785Z</time></trkpt><trkpt lat="43.00122" lon="11.1238817"><ele>247.33333333333331</ele><time>2026-05-02T16:02:57.788Z</time></trkpt><trkpt lat="43.0012717" lon="11.1237667"><ele>247.5</ele><time>2026-05-02T16:02:58.786Z</time></trkpt><trkpt lat="43.0013217" lon="11.12366"><ele>247.66666666666669</ele><time>2026-05-02T16:02:59.788Z</time></trkpt><trkpt lat="43.0013617" lon="11.12356"><ele>247.83333333333334</ele><time>2026-05-02T16:03:00.786Z</time></trkpt><trkpt lat="43.0014017" lon="11.123475"><ele>248.0</ele><time>2026-05-02T16:03:01.786Z</time></trkpt><trkpt lat="43.0014383" lon="11.1233867"><ele>248.00000000000003</ele><time>2026-05-02T16:03:02.788Z</time></trkpt><trkpt lat="43.0014817" lon="11.1233033"><ele>248.0</ele><time>2026-05-02T16:03:03.786Z</time></trkpt><trkpt lat="43.0015317" lon="11.1232167"><ele>248.0</ele><time>2026-05-02T16:03:04.786Z</time></trkpt><trkpt lat="43.0015833" lon="11.1231283"><ele>248.0</ele><time>2026-05-02T16:03:05.788Z</time></trkpt><trkpt lat="43.0016283" lon="11.1230383"><ele>248.00000000000003</ele><time>2026-05-02T16:03:06.786Z</time></trkpt><trkpt lat="43.0016717" lon="11.1229467"><ele>248.0</ele><time>2026-05-02T16:03:07.786Z</time></trkpt><trkpt lat="43.0017167" lon="11.12284"><ele>249.83333333333334</ele><time>2026-05-02T16:03:08.787Z</time></trkpt><trkpt lat="43.0017433" lon="11.122745"><ele>251.66666666666669</ele><time>2026-05-02T16:03:09.786Z</time></trkpt><trkpt lat="43.0017617" lon="11.12265"><ele>253.5</ele><time>2026-05-02T16:03:10.786Z</time></trkpt><trkpt lat="43.0017767" lon="11.122555"><ele>255.33333333333331</ele><time>2026-05-02T16:03:11.787Z</time></trkpt><trkpt lat="43.00179" lon="11.1224667"><ele>257.16666666666663</ele><time>2026-05-02T16:03:12.788Z</time></trkpt><trkpt lat="43.0018283" lon="11.1223533"><ele>259.0</ele><time>2026-05-02T16:03:14.789Z</time></trkpt><trkpt lat="43.00192" lon="11.1222933"><ele>259.0</ele><time>2026-05-02T16:03:16.785Z</time></trkpt><trkpt lat="43.0019867" lon="11.122255"><ele>259.0</ele><time>2026-05-02T16:03:17.788Z</time></trkpt><trkpt lat="43.00206" lon="11.1222133"><ele>259.0</ele><time>2026-05-02T16:03:18.789Z</time></trkpt><trkpt lat="43.0021283" lon="11.1221717"><ele>259.0</ele><time>2026-05-02T16:03:19.79Z</time></trkpt><trkpt lat="43.0021933" lon="11.1221167"><ele>259.0</ele><time>2026-05-02T16:03:20.789Z</time></trkpt><trkpt lat="43.0022483" lon="11.1220417"><ele>259.0</ele><time>2026-05-02T16:03:21.788Z</time></trkpt><trkpt lat="43.002285" lon="11.1219533"><ele>259.0</ele><time>2026-05-02T16:03:22.788Z</time></trkpt><trkpt lat="43.0023183" lon="11.1218717"><ele>259.0</ele><time>2026-05-02T16:03:23.789Z</time></trkpt><trkpt lat="43.0023533" lon="11.1217933"><ele>259.0</ele><time>2026-05-02T16:03:24.881Z</time></trkpt><trkpt lat="43.0023933" lon="11.121725"><ele>259.0</ele><time>2026-05-02T16:03:25.785Z</time></trkpt><trkpt lat="43.0024467" lon="11.1216617"><ele>259.0</ele><time>2026-05-02T16:03:26.79Z</time></trkpt><trkpt lat="43.0025017" lon="11.121585"><ele>259.0</ele><time>2026-05-02T16:03:27.787Z</time></trkpt><trkpt lat="43.00256" lon="11.1215167"><ele>259.0</ele><time>2026-05-02T16:03:28.787Z</time></trkpt><trkpt lat="43.002625" lon="11.1214517"><ele>260.42857142857144</ele><time>2026-05-02T16:03:29.787Z</time></trkpt><trkpt lat="43.00268" lon="11.121395"><ele>261.8571428571429</ele><time>2026-05-02T16:03:30.786Z</time></trkpt><trkpt lat="43.0027333" lon="11.1213417"><ele>263.2857142857143</ele><time>2026-05-02T16:03:31.788Z</time></trkpt><trkpt lat="43.0027867" lon="11.12129"><ele>264.7142857142857</ele><time>2026-05-02T16:03:32.79Z</time></trkpt><trkpt lat="43.002845" lon="11.1212483"><ele>266.14285714285717</ele><time>2026-05-02T16:03:33.789Z</time></trkpt><trkpt lat="43.00291" lon="11.1212133"><ele>267.57142857142856</ele><time>2026-05-02T16:03:34.789Z</time></trkpt><trkpt lat="43.0029833" lon="11.12118"><ele>269.0</ele><time>2026-05-02T16:03:35.79Z</time></trkpt><trkpt lat="43.0030633" lon="11.1211683"><ele>269.0</ele><time>2026-05-02T16:03:36.789Z</time></trkpt><trkpt lat="43.0031517" lon="11.12115"><ele>269.0</ele><time>2026-05-02T16:03:37.788Z</time></trkpt><trkpt lat="43.0032433" lon="11.12114"><ele>269.0</ele><time>2026-05-02T16:03:38.789Z</time></trkpt><trkpt lat="43.003335" lon="11.1211117"><ele>269.0</ele><time>2026-05-02T16:03:39.788Z</time></trkpt><trkpt lat="43.003425" lon="11.12108"><ele>269.0</ele><time>2026-05-02T16:03:40.789Z</time></trkpt><trkpt lat="43.00352" lon="11.1210517"><ele>271.59999999999997</ele><time>2026-05-02T16:03:41.786Z</time></trkpt><trkpt lat="43.0036067" lon="11.1210467"><ele>274.2</ele><time>2026-05-02T16:03:42.786Z</time></trkpt><trkpt lat="43.003705" lon="11.1210333"><ele>276.79999999999995</ele><time>2026-05-02T16:03:43.788Z</time></trkpt><trkpt lat="43.0038033" lon="11.1210267"><ele>279.4</ele><time>2026-05-02T16:03:44.79Z</time></trkpt><trkpt lat="43.003895" lon="11.1210317"><ele>282.0</ele><time>2026-05-02T16:03:45.785Z</time></trkpt><trkpt lat="43.0039867" lon="11.1210417"><ele>282.0</ele><time>2026-05-02T16:03:46.786Z</time></trkpt><trkpt lat="43.0040767" lon="11.1210417"><ele>282.0</ele><time>2026-05-02T16:03:47.789Z</time></trkpt><trkpt lat="43.0041683" lon="11.12103"><ele>282.0</ele><time>2026-05-02T16:03:48.789Z</time></trkpt><trkpt lat="43.0042533" lon="11.12102"><ele>282.0</ele><time>2026-05-02T16:03:49.789Z</time></trkpt><trkpt lat="43.0043333" lon="11.1210167"><ele>282.0</ele><time>2026-05-02T16:03:50.79Z</time></trkpt><trkpt lat="43.0044017" lon="11.12103"><ele>282.0</ele><time>2026-05-02T16:03:51.788Z</time></trkpt><trkpt lat="43.0044983" lon="11.1211"><ele>283.5</ele><time>2026-05-02T16:03:53.789Z</time></trkpt><trkpt lat="43.0045483" lon="11.1212167"><ele>285.0</ele><time>2026-05-02T16:03:55.788Z</time></trkpt><trkpt lat="43.00456" lon="11.1213033"><ele>286.5</ele><time>2026-05-02T16:03:56.786Z</time></trkpt><trkpt lat="43.004585" lon="11.121395"><ele>288.0</ele><time>2026-05-02T16:03:57.786Z</time></trkpt><trkpt lat="43.0046133" lon="11.1214983"><ele>289.5</ele><time>2026-05-02T16:03:58.786Z</time></trkpt><trkpt lat="43.004635" lon="11.1216117"><ele>291.0</ele><time>2026-05-02T16:03:59.787Z</time></trkpt><trkpt lat="43.00466" lon="11.1217317"><ele>291.6</ele><time>2026-05-02T16:04:00.785Z</time></trkpt><trkpt lat="43.0046817" lon="11.12185"><ele>292.20000000000005</ele><time>2026-05-02T16:04:01.787Z</time></trkpt><trkpt lat="43.0046983" lon="11.1219567"><ele>292.79999999999995</ele><time>2026-05-02T16:04:02.788Z</time></trkpt><trkpt lat="43.0047417" lon="11.1220833"><ele>293.4</ele><time>2026-05-02T16:04:04.789Z</time></trkpt><trkpt lat="43.00487" lon="11.12209"><ele>294.0</ele><time>2026-05-02T16:04:07.789Z</time></trkpt><trkpt lat="43.004935" lon="11.1220467"><ele>295.59999999999997</ele><time>2026-05-02T16:04:08.79Z</time></trkpt><trkpt lat="43.0050033" lon="11.1219967"><ele>297.2</ele><time>2026-05-02T16:04:09.789Z</time></trkpt><trkpt lat="43.0050867" lon="11.1219417"><ele>298.79999999999995</ele><time>2026-05-02T16:04:10.79Z</time></trkpt><trkpt lat="43.005175" lon="11.12189"><ele>300.4</ele><time>2026-05-02T16:04:11.789Z</time></trkpt><trkpt lat="43.0052683" lon="11.1218467"><ele>302.0</ele><time>2026-05-02T16:04:12.789Z</time></trkpt><trkpt lat="43.00536" lon="11.1218083"><ele>302.0</ele><time>2026-05-02T16:04:13.79Z</time></trkpt><trkpt lat="43.005455" lon="11.121775"><ele>302.0</ele><time>2026-05-02T16:04:14.79Z</time></trkpt><trkpt lat="43.0055517" lon="11.121735"><ele>302.0</ele><time>2026-05-02T16:04:15.789Z</time></trkpt><trkpt lat="43.00565" lon="11.12169"><ele>302.0</ele><time>2026-05-02T16:04:16.791Z</time></trkpt><trkpt lat="43.0057467" lon="11.1216433"><ele>302.0</ele><time>2026-05-02T16:04:17.789Z</time></trkpt><trkpt lat="43.0058417" lon="11.1215983"><ele>303.4</ele><time>2026-05-02T16:04:18.79Z</time></trkpt><trkpt lat="43.005935" lon="11.1215617"><ele>304.79999999999995</ele><time>2026-05-02T16:04:19.789Z</time></trkpt><trkpt lat="43.006035" lon="11.121535"><ele>306.2</ele><time>2026-05-02T16:04:20.786Z</time></trkpt><trkpt lat="43.006135" lon="11.121515"><ele>307.59999999999997</ele><time>2026-05-02T16:04:21.789Z</time></trkpt><trkpt lat="43.0062417" lon="11.1214817"><ele>309.0</ele><time>2026-05-02T16:04:22.786Z</time></trkpt><trkpt lat="43.0063417" lon="11.1214467"><ele>309.0</ele><time>2026-05-02T16:04:23.789Z</time></trkpt><trkpt lat="43.0064333" lon="11.1213917"><ele>309.0</ele><time>2026-05-02T16:04:24.79Z</time></trkpt><trkpt lat="43.006505" lon="11.12135"><ele>309.0</ele><time>2026-05-02T16:04:25.789Z</time></trkpt><trkpt lat="43.0065667" lon="11.12132"><ele>309.0</ele><time>2026-05-02T16:04:26.789Z</time></trkpt><trkpt lat="43.006675" lon="11.1213283"><ele>309.0</ele><time>2026-05-02T16:04:28.789Z</time></trkpt><trkpt lat="43.00674" lon="11.12136"><ele>309.0</ele><time>2026-05-02T16:04:29.789Z</time></trkpt><trkpt lat="43.0068217" lon="11.1213917"><ele>311.4</ele><time>2026-05-02T16:04:30.789Z</time></trkpt><trkpt lat="43.00691" lon="11.1214283"><ele>313.79999999999995</ele><time>2026-05-02T16:04:31.787Z</time></trkpt><trkpt lat="43.0070083" lon="11.121455"><ele>316.20000000000005</ele><time>2026-05-02T16:04:32.789Z</time></trkpt><trkpt lat="43.0071133" lon="11.1214617"><ele>318.6</ele><time>2026-05-02T16:04:33.79Z</time></trkpt><trkpt lat="43.007225" lon="11.1214583"><ele>321.0</ele><time>2026-05-02T16:04:34.79Z</time></trkpt><trkpt lat="43.0073317" lon="11.1214583"><ele>321.0</ele><time>2026-05-02T16:04:35.789Z</time></trkpt><trkpt lat="43.0074283" lon="11.12146"><ele>321.0</ele><time>2026-05-02T16:04:36.79Z</time></trkpt><trkpt lat="43.0075167" lon="11.1214517"><ele>321.0</ele><time>2026-05-02T16:04:37.789Z</time></trkpt><trkpt lat="43.0075933" lon="11.1214283"><ele>321.0</ele><time>2026-05-02T16:04:38.79Z</time></trkpt><trkpt lat="43.0076567" lon="11.121395"><ele>321.0</ele><time>2026-05-02T16:04:39.79Z</time></trkpt><trkpt lat="43.007715" lon="11.1213383"><ele>321.0</ele><time>2026-05-02T16:04:40.789Z</time></trkpt><trkpt lat="43.007765" lon="11.1212583"><ele>321.75</ele><time>2026-05-02T16:04:41.789Z</time></trkpt><trkpt lat="43.0078017" lon="11.1211417"><ele>322.5</ele><time>2026-05-02T16:04:42.789Z</time></trkpt><trkpt lat="43.0078317" lon="11.120995"><ele>323.25</ele><time>2026-05-02T16:04:43.79Z</time></trkpt><trkpt lat="43.0078583" lon="11.12083"><ele>324.0</ele><time>2026-05-02T16:04:44.789Z</time></trkpt><trkpt lat="43.0078967" lon="11.120665"><ele>326.25</ele><time>2026-05-02T16:04:45.789Z</time></trkpt><trkpt lat="43.0079283" lon="11.1205"><ele>328.5</ele><time>2026-05-02T16:04:46.789Z</time></trkpt><trkpt lat="43.0079667" lon="11.120355"><ele>330.75</ele><time>2026-05-02T16:04:47.79Z</time></trkpt><trkpt lat="43.0080167" lon="11.1202283"><ele>333.0</ele><time>2026-05-02T16:04:48.789Z</time></trkpt><trkpt lat="43.008075" lon="11.120105"><ele>333.0</ele><time>2026-05-02T16:04:49.786Z</time></trkpt><trkpt lat="43.00814" lon="11.119995"><ele>333.0</ele><time>2026-05-02T16:04:50.789Z</time></trkpt><trkpt lat="43.00821" lon="11.11989"><ele>333.0</ele><time>2026-05-02T16:04:51.789Z</time></trkpt><trkpt lat="43.00828" lon="11.1198033"><ele>333.0</ele><time>2026-05-02T16:04:52.789Z</time></trkpt><trkpt lat="43.0083533" lon="11.1197317"><ele>333.0</ele><time>2026-05-02T16:04:53.789Z</time></trkpt><trkpt lat="43.008425" lon="11.1196517"><ele>334.8333333333333</ele><time>2026-05-02T16:04:54.789Z</time></trkpt><trkpt lat="43.008485" lon="11.11955"><ele>336.6666666666667</ele><time>2026-05-02T16:04:55.789Z</time></trkpt><trkpt lat="43.008535" lon="11.1194433"><ele>338.5</ele><time>2026-05-02T16:04:56.79Z</time></trkpt><trkpt lat="43.00858" lon="11.1193267"><ele>340.33333333333337</ele><time>2026-05-02T16:04:57.79Z</time></trkpt><trkpt lat="43.0086133" lon="11.1192117"><ele>342.1666666666667</ele><time>2026-05-02T16:04:58.789Z</time></trkpt><trkpt lat="43.0086317" lon="11.119115"><ele>344.0</ele><time>2026-05-02T16:04:59.789Z</time></trkpt><trkpt lat="43.0086417" lon="11.1190167"><ele>344.7142857142857</ele><time>2026-05-02T16:05:00.789Z</time></trkpt><trkpt lat="43.00864" lon="11.118915"><ele>345.42857142857144</ele><time>2026-05-02T16:05:01.79Z</time></trkpt><trkpt lat="43.0086183" lon="11.11883"><ele>346.1428571428571</ele><time>2026-05-02T16:05:02.789Z</time></trkpt><trkpt lat="43.0086" lon="11.1187417"><ele>346.8571428571429</ele><time>2026-05-02T16:05:03.789Z</time></trkpt><trkpt lat="43.0085883" lon="11.1186517"><ele>347.57142857142856</ele><time>2026-05-02T16:05:04.787Z</time></trkpt><trkpt lat="43.008595" lon="11.1185517"><ele>348.2857142857143</ele><time>2026-05-02T16:05:05.786Z</time></trkpt><trkpt lat="43.0086167" lon="11.1184467"><ele>349.0</ele><time>2026-05-02T16:05:06.787Z</time></trkpt><trkpt lat="43.0086417" lon="11.118325"><ele>349.5</ele><time>2026-05-02T16:05:07.786Z</time></trkpt><trkpt lat="43.0086933" lon="11.1181933"><ele>350.0</ele><time>2026-05-02T16:05:08.79Z</time></trkpt><trkpt lat="43.0087483" lon="11.1180567"><ele>350.5</ele><time>2026-05-02T16:05:09.79Z</time></trkpt><trkpt lat="43.00882" lon="11.1179217"><ele>351.0</ele><time>2026-05-02T16:05:10.79Z</time></trkpt><trkpt lat="43.0089017" lon="11.1177783"><ele>351.0</ele><time>2026-05-02T16:05:11.79Z</time></trkpt><trkpt lat="43.008975" lon="11.11764"><ele>351.0</ele><time>2026-05-02T16:05:12.789Z</time></trkpt><trkpt lat="43.0090367" lon="11.1175017"><ele>351.0</ele><time>2026-05-02T16:05:13.789Z</time></trkpt><trkpt lat="43.009085" lon="11.1173567"><ele>351.0</ele><time>2026-05-02T16:05:14.786Z</time></trkpt><trkpt lat="43.0091183" lon="11.1172083"><ele>351.5</ele><time>2026-05-02T16:05:15.787Z</time></trkpt><trkpt lat="43.0091333" lon="11.1170567"><ele>352.0</ele><time>2026-05-02T16:05:16.787Z</time></trkpt><trkpt lat="43.0091367" lon="11.1168967"><ele>352.5</ele><time>2026-05-02T16:05:17.786Z</time></trkpt><trkpt lat="43.0091333" lon="11.116735"><ele>353.0</ele><time>2026-05-02T16:05:18.786Z</time></trkpt><trkpt lat="43.0091267" lon="11.11657"><ele>352.59999999999997</ele><time>2026-05-02T16:05:19.788Z</time></trkpt><trkpt lat="43.00912" lon="11.1164083"><ele>352.2</ele><time>2026-05-02T16:05:20.79Z</time></trkpt><trkpt lat="43.0091067" lon="11.1162567"><ele>351.8</ele><time>2026-05-02T16:05:21.789Z</time></trkpt><trkpt lat="43.0090933" lon="11.1161233"><ele>351.4</ele><time>2026-05-02T16:05:22.789Z</time></trkpt><trkpt lat="43.0090833" lon="11.11601"><ele>351.0</ele><time>2026-05-02T16:05:23.789Z</time></trkpt><trkpt lat="43.0090733" lon="11.1159133"><ele>351.0</ele><time>2026-05-02T16:05:24.79Z</time></trkpt><trkpt lat="43.0090783" lon="11.1157483"><ele>351.0</ele><time>2026-05-02T16:05:26.789Z</time></trkpt><trkpt lat="43.0091033" lon="11.1156683"><ele>351.0</ele><time>2026-05-02T16:05:27.79Z</time></trkpt><trkpt lat="43.00914" lon="11.115585"><ele>351.0</ele><time>2026-05-02T16:05:28.787Z</time></trkpt><trkpt lat="43.0091917" lon="11.11551"><ele>351.0</ele><time>2026-05-02T16:05:29.787Z</time></trkpt><trkpt lat="43.0092533" lon="11.1154283"><ele>351.0</ele><time>2026-05-02T16:05:30.791Z</time></trkpt><trkpt lat="43.0093267" lon="11.11535"><ele>352.6666666666667</ele><time>2026-05-02T16:05:31.789Z</time></trkpt><trkpt lat="43.009405" lon="11.115275"><ele>354.3333333333333</ele><time>2026-05-02T16:05:32.791Z</time></trkpt><trkpt lat="43.0094783" lon="11.1152067"><ele>356.0</ele><time>2026-05-02T16:05:33.785Z</time></trkpt><trkpt lat="43.00954" lon="11.115145"><ele>357.66666666666663</ele><time>2026-05-02T16:05:34.79Z</time></trkpt><trkpt lat="43.0095933" lon="11.11509"><ele>359.3333333333333</ele><time>2026-05-02T16:05:35.787Z</time></trkpt><trkpt lat="43.009675" lon="11.1149733"><ele>361.0</ele><time>2026-05-02T16:05:37.787Z</time></trkpt><trkpt lat="43.0096917" lon="11.114845"><ele>362.20000000000005</ele><time>2026-05-02T16:05:39.786Z</time></trkpt><trkpt lat="43.0096467" lon="11.1147617"><ele>363.40000000000003</ele><time>2026-05-02T16:05:40.789Z</time></trkpt><trkpt lat="43.0095883" lon="11.1146933"><ele>364.6</ele><time>2026-05-02T16:05:41.787Z</time></trkpt><trkpt lat="43.0095133" lon="11.11461"><ele>365.8</ele><time>2026-05-02T16:05:42.79Z</time></trkpt><trkpt lat="43.0094367" lon="11.1145083"><ele>367.0</ele><time>2026-05-02T16:05:43.79Z</time></trkpt><trkpt lat="43.009365" lon="11.1143933"><ele>367.0</ele><time>2026-05-02T16:05:44.789Z</time></trkpt><trkpt lat="43.00929" lon="11.11428"><ele>367.0</ele><time>2026-05-02T16:05:45.79Z</time></trkpt><trkpt lat="43.0092017" lon="11.1141667"><ele>367.0</ele><time>2026-05-02T16:05:46.789Z</time></trkpt><trkpt lat="43.00912" lon="11.1140467"><ele>367.0</ele><time>2026-05-02T16:05:47.789Z</time></trkpt><trkpt lat="43.009045" lon="11.1139217"><ele>367.25</ele><time>2026-05-02T16:05:48.79Z</time></trkpt><trkpt lat="43.008965" lon="11.1137917"><ele>367.5</ele><time>2026-05-02T16:05:49.79Z</time></trkpt><trkpt lat="43.0088933" lon="11.1136717"><ele>367.75</ele><time>2026-05-02T16:05:50.79Z</time></trkpt><trkpt lat="43.008815" lon="11.1135533"><ele>368.0</ele><time>2026-05-02T16:05:51.789Z</time></trkpt><trkpt lat="43.0087433" lon="11.1134417"><ele>368.0</ele><time>2026-05-02T16:05:52.79Z</time></trkpt><trkpt lat="43.0086833" lon="11.1133467"><ele>368.0</ele><time>2026-05-02T16:05:53.787Z</time></trkpt><trkpt lat="43.008635" lon="11.1132583"><ele>368.0</ele><time>2026-05-02T16:05:54.789Z</time></trkpt><trkpt lat="43.0086017" lon="11.1131733"><ele>368.0</ele><time>2026-05-02T16:05:55.788Z</time></trkpt><trkpt lat="43.0085933" lon="11.1130333"><ele>368.0</ele><time>2026-05-02T16:05:57.785Z</time></trkpt><trkpt lat="43.0086383" lon="11.1129217"><ele>368.0</ele><time>2026-05-02T16:05:59.786Z</time></trkpt><trkpt lat="43.0087333" lon="11.1128267"><ele>369.0</ele><time>2026-05-02T16:06:01.788Z</time></trkpt><trkpt lat="43.008815" lon="11.1127767"><ele>370.0</ele><time>2026-05-02T16:06:02.788Z</time></trkpt><trkpt lat="43.0089083" lon="11.1127217"><ele>371.0</ele><time>2026-05-02T16:06:03.788Z</time></trkpt><trkpt lat="43.0089933" lon="11.1126667"><ele>372.0</ele><time>2026-05-02T16:06:04.789Z</time></trkpt><trkpt lat="43.0090783" lon="11.112605"><ele>373.0</ele><time>2026-05-02T16:06:05.788Z</time></trkpt><trkpt lat="43.009165" lon="11.11255"><ele>374.59999999999997</ele><time>2026-05-02T16:06:06.789Z</time></trkpt><trkpt lat="43.0092517" lon="11.1125033"><ele>376.2</ele><time>2026-05-02T16:06:07.788Z</time></trkpt><trkpt lat="43.0093417" lon="11.1124583"><ele>377.8</ele><time>2026-05-02T16:06:08.79Z</time></trkpt><trkpt lat="43.0094267" lon="11.1123917"><ele>379.4</ele><time>2026-05-02T16:06:09.788Z</time></trkpt><trkpt lat="43.0095083" lon="11.1123167"><ele>381.0</ele><time>2026-05-02T16:06:10.789Z</time></trkpt><trkpt lat="43.0095833" lon="11.1122267"><ele>381.8</ele><time>2026-05-02T16:06:11.788Z</time></trkpt><trkpt lat="43.0096633" lon="11.1121367"><ele>382.6</ele><time>2026-05-02T16:06:12.789Z</time></trkpt><trkpt lat="43.0097433" lon="11.1120667"><ele>383.4</ele><time>2026-05-02T16:06:13.785Z</time></trkpt><trkpt lat="43.0098117" lon="11.1120367"><ele>384.2</ele><time>2026-05-02T16:06:14.789Z</time></trkpt><trkpt lat="43.0099383" lon="11.1120433"><ele>385.0</ele><time>2026-05-02T16:06:16.789Z</time></trkpt><trkpt lat="43.0100067" lon="11.112055"><ele>387.0</ele><time>2026-05-02T16:06:17.788Z</time></trkpt><trkpt lat="43.0100783" lon="11.11206"><ele>389.0</ele><time>2026-05-02T16:06:18.789Z</time></trkpt><trkpt lat="43.01016" lon="11.1120467"><ele>391.0</ele><time>2026-05-02T16:06:19.789Z</time></trkpt><trkpt lat="43.010255" lon="11.1120183"><ele>393.0</ele><time>2026-05-02T16:06:20.789Z</time></trkpt><trkpt lat="43.0103633" lon="11.1119883"><ele>395.0</ele><time>2026-05-02T16:06:21.788Z</time></trkpt><trkpt lat="43.0104833" lon="11.1119533"><ele>395.0</ele><time>2026-05-02T16:06:22.789Z</time></trkpt><trkpt lat="43.0106083" lon="11.1119117"><ele>395.0</ele><time>2026-05-02T16:06:23.789Z</time></trkpt><trkpt lat="43.0107233" lon="11.1118683"><ele>395.0</ele><time>2026-05-02T16:06:24.79Z</time></trkpt><trkpt lat="43.0108267" lon="11.11181"><ele>395.0</ele><time>2026-05-02T16:06:25.788Z</time></trkpt><trkpt lat="43.0109133" lon="11.11174"><ele>395.49999999999994</ele><time>2026-05-02T16:06:26.788Z</time></trkpt><trkpt lat="43.0109767" lon="11.111665"><ele>396.0</ele><time>2026-05-02T16:06:27.788Z</time></trkpt><trkpt lat="43.0110433" lon="11.111585"><ele>396.5</ele><time>2026-05-02T16:06:28.789Z</time></trkpt><trkpt lat="43.01111" lon="11.1115083"><ele>397.0</ele><time>2026-05-02T16:06:29.786Z</time></trkpt><trkpt lat="43.0111883" lon="11.111445"><ele>397.49999999999994</ele><time>2026-05-02T16:06:30.785Z</time></trkpt><trkpt lat="43.0112717" lon="11.111395"><ele>398.0</ele><time>2026-05-02T16:06:31.785Z</time></trkpt><trkpt lat="43.011365" lon="11.11136"><ele>398.0</ele><time>2026-05-02T16:06:32.789Z</time></trkpt><trkpt lat="43.0114917" lon="11.11135"><ele>398.0</ele><time>2026-05-02T16:06:33.789Z</time></trkpt><trkpt lat="43.0116183" lon="11.1113333"><ele>398.0</ele><time>2026-05-02T16:06:34.788Z</time></trkpt><trkpt lat="43.0117383" lon="11.111315"><ele>398.0</ele><time>2026-05-02T16:06:35.788Z</time></trkpt><trkpt lat="43.01185" lon="11.11129"><ele>399.0</ele><time>2026-05-02T16:06:36.788Z</time></trkpt><trkpt lat="43.0119583" lon="11.1112567"><ele>400.0</ele><time>2026-05-02T16:06:37.789Z</time></trkpt><trkpt lat="43.0120583" lon="11.1112167"><ele>401.0</ele><time>2026-05-02T16:06:38.789Z</time></trkpt><trkpt lat="43.01215" lon="11.1111683"><ele>402.0</ele><time>2026-05-02T16:06:39.788Z</time></trkpt><trkpt lat="43.012235" lon="11.11112"><ele>403.0</ele><time>2026-05-02T16:06:40.789Z</time></trkpt><trkpt lat="43.0123217" lon="11.111075"><ele>403.0</ele><time>2026-05-02T16:06:41.789Z</time></trkpt><trkpt lat="43.01241" lon="11.1110367"><ele>403.0</ele><time>2026-05-02T16:06:42.786Z</time></trkpt><trkpt lat="43.0124967" lon="11.111015"><ele>403.0</ele><time>2026-05-02T16:06:43.786Z</time></trkpt><trkpt lat="43.0125983" lon="11.111"><ele>403.0</ele><time>2026-05-02T16:06:44.786Z</time></trkpt><trkpt lat="43.0127" lon="11.1110017"><ele>403.0</ele><time>2026-05-02T16:06:45.788Z</time></trkpt><trkpt lat="43.012785" lon="11.1110067"><ele>404.4</ele><time>2026-05-02T16:06:46.789Z</time></trkpt><trkpt lat="43.0128633" lon="11.11099"><ele>405.79999999999995</ele><time>2026-05-02T16:06:47.789Z</time></trkpt><trkpt lat="43.0129333" lon="11.110955"><ele>407.2</ele><time>2026-05-02T16:06:48.79Z</time></trkpt><trkpt lat="43.0130017" lon="11.1108033"><ele>408.6</ele><time>2026-05-02T16:06:50.79Z</time></trkpt><trkpt lat="43.0130283" lon="11.1107017"><ele>410.0</ele><time>2026-05-02T16:06:51.789Z</time></trkpt><trkpt lat="43.0130667" lon="11.11059"><ele>410.8</ele><time>2026-05-02T16:06:52.785Z</time></trkpt><trkpt lat="43.0131217" lon="11.1104683"><ele>411.6</ele><time>2026-05-02T16:06:53.786Z</time></trkpt><trkpt lat="43.0131683" lon="11.1103417"><ele>412.4</ele><time>2026-05-02T16:06:54.79Z</time></trkpt><trkpt lat="43.01321" lon="11.1102117"><ele>413.2</ele><time>2026-05-02T16:06:55.789Z</time></trkpt><trkpt lat="43.013245" lon="11.1100733"><ele>414.0</ele><time>2026-05-02T16:06:56.789Z</time></trkpt><trkpt lat="43.0132783" lon="11.1099333"><ele>414.6</ele><time>2026-05-02T16:06:57.789Z</time></trkpt><trkpt lat="43.0133217" lon="11.1098033"><ele>415.2</ele><time>2026-05-02T16:06:58.786Z</time></trkpt><trkpt lat="43.0133717" lon="11.10969"><ele>415.8</ele><time>2026-05-02T16:06:59.788Z</time></trkpt><trkpt lat="43.0134333" lon="11.1095983"><ele>416.40000000000003</ele><time>2026-05-02T16:07:00.786Z</time></trkpt><trkpt lat="43.0135" lon="11.10953"><ele>417.0</ele><time>2026-05-02T16:07:01.786Z</time></trkpt><trkpt lat="43.01358" lon="11.1094767"><ele>420.0</ele><time>2026-05-02T16:07:02.789Z</time></trkpt><trkpt lat="43.0136733" lon="11.1094333"><ele>423.0</ele><time>2026-05-02T16:07:03.786Z</time></trkpt><trkpt lat="43.0137733" lon="11.1093817"><ele>426.00000000000006</ele><time>2026-05-02T16:07:04.789Z</time></trkpt><trkpt lat="43.0138767" lon="11.1093133"><ele>429.0</ele><time>2026-05-02T16:07:05.79Z</time></trkpt><trkpt lat="43.0139767" lon="11.1092417"><ele>432.0</ele><time>2026-05-02T16:07:06.789Z</time></trkpt><trkpt lat="43.0140767" lon="11.1091733"><ele>434.25</ele><time>2026-05-02T16:07:07.788Z</time></trkpt><trkpt lat="43.0141783" lon="11.1091083"><ele>436.5</ele><time>2026-05-02T16:07:08.789Z</time></trkpt><trkpt lat="43.0142833" lon="11.109045"><ele>438.75</ele><time>2026-05-02T16:07:09.785Z</time></trkpt><trkpt lat="43.01439" lon="11.1089833"><ele>441.0</ele><time>2026-05-02T16:07:10.789Z</time></trkpt><trkpt lat="43.0144983" lon="11.1089167"><ele>441.0</ele><time>2026-05-02T16:07:11.789Z</time></trkpt><trkpt lat="43.0145983" lon="11.1088533"><ele>441.0</ele><time>2026-05-02T16:07:12.789Z</time></trkpt><trkpt lat="43.0147017" lon="11.1087833"><ele>441.0</ele><time>2026-05-02T16:07:13.786Z</time></trkpt><trkpt lat="43.0147983" lon="11.1087283"><ele>441.0</ele><time>2026-05-02T16:07:14.79Z</time></trkpt><trkpt lat="43.0148967" lon="11.108665"><ele>441.0</ele><time>2026-05-02T16:07:15.789Z</time></trkpt><trkpt lat="43.0149967" lon="11.1085983"><ele>443.4</ele><time>2026-05-02T16:07:16.789Z</time></trkpt><trkpt lat="43.0150917" lon="11.1085417"><ele>445.8</ele><time>2026-05-02T16:07:17.786Z</time></trkpt><trkpt lat="43.0151833" lon="11.1084983"><ele>448.19999999999993</ele><time>2026-05-02T16:07:18.785Z</time></trkpt><trkpt lat="43.0152783" lon="11.1084683"><ele>450.59999999999997</ele><time>2026-05-02T16:07:19.785Z</time></trkpt><trkpt lat="43.01537" lon="11.108465"><ele>453.0</ele><time>2026-05-02T16:07:20.786Z</time></trkpt><trkpt lat="43.015465" lon="11.1084867"><ele>453.0</ele><time>2026-05-02T16:07:21.785Z</time></trkpt><trkpt lat="43.0155683" lon="11.108515"><ele>452.99999999999994</ele><time>2026-05-02T16:07:22.789Z</time></trkpt><trkpt lat="43.0156717" lon="11.108545"><ele>452.99999999999994</ele><time>2026-05-02T16:07:23.789Z</time></trkpt><trkpt lat="43.0157717" lon="11.10856"><ele>453.0</ele><time>2026-05-02T16:07:24.789Z</time></trkpt><trkpt lat="43.01588" lon="11.1085517"><ele>453.0</ele><time>2026-05-02T16:07:25.789Z</time></trkpt><trkpt lat="43.01598" lon="11.1085183"><ele>454.59999999999997</ele><time>2026-05-02T16:07:26.789Z</time></trkpt><trkpt lat="43.0160733" lon="11.10848"><ele>456.19999999999993</ele><time>2026-05-02T16:07:27.789Z</time></trkpt><trkpt lat="43.0161717" lon="11.108435"><ele>457.8</ele><time>2026-05-02T16:07:28.789Z</time></trkpt><trkpt lat="43.016275" lon="11.1083883"><ele>459.4</ele><time>2026-05-02T16:07:29.786Z</time></trkpt><trkpt lat="43.01638" lon="11.1083517"><ele>461.0</ele><time>2026-05-02T16:07:30.787Z</time></trkpt><trkpt lat="43.01649" lon="11.1083317"><ele>461.0</ele><time>2026-05-02T16:07:31.786Z</time></trkpt><trkpt lat="43.016595" lon="11.1083333"><ele>461.0</ele><time>2026-05-02T16:07:32.789Z</time></trkpt><trkpt lat="43.0167" lon="11.10835"><ele>461.0</ele><time>2026-05-02T16:07:33.785Z</time></trkpt><trkpt lat="43.0168017" lon="11.1083667"><ele>461.0</ele><time>2026-05-02T16:07:34.786Z</time></trkpt><trkpt lat="43.01692" lon="11.108385"><ele>461.0</ele><time>2026-05-02T16:07:35.786Z</time></trkpt><trkpt lat="43.0170333" lon="11.1084017"><ele>462.75</ele><time>2026-05-02T16:07:36.789Z</time></trkpt><trkpt lat="43.0171467" lon="11.1084033"><ele>464.5</ele><time>2026-05-02T16:07:37.785Z</time></trkpt><trkpt lat="43.0172567" lon="11.108395"><ele>466.25</ele><time>2026-05-02T16:07:38.789Z</time></trkpt><trkpt lat="43.0173717" lon="11.1083867"><ele>468.0</ele><time>2026-05-02T16:07:39.789Z</time></trkpt><trkpt lat="43.0174917" lon="11.108375"><ele>469.59999999999997</ele><time>2026-05-02T16:07:40.789Z</time></trkpt><trkpt lat="43.0175983" lon="11.1083567"><ele>471.19999999999993</ele><time>2026-05-02T16:07:41.786Z</time></trkpt><trkpt lat="43.0177083" lon="11.10834"><ele>472.8</ele><time>2026-05-02T16:07:42.785Z</time></trkpt><trkpt lat="43.0178183" lon="11.1083317"><ele>474.4</ele><time>2026-05-02T16:07:43.786Z</time></trkpt><trkpt lat="43.01792" lon="11.1083333"><ele>476.0</ele><time>2026-05-02T16:07:44.791Z</time></trkpt><trkpt lat="43.0180183" lon="11.10833"><ele>476.0</ele><time>2026-05-02T16:07:45.789Z</time></trkpt><trkpt lat="43.0181017" lon="11.1083167"><ele>476.0</ele><time>2026-05-02T16:07:46.789Z</time></trkpt><trkpt lat="43.0181883" lon="11.10829"><ele>476.0</ele><time>2026-05-02T16:07:47.787Z</time></trkpt><trkpt lat="43.01828" lon="11.1082383"><ele>476.0</ele><time>2026-05-02T16:07:48.789Z</time></trkpt><trkpt lat="43.018375" lon="11.1081717"><ele>476.0</ele><time>2026-05-02T16:07:49.789Z</time></trkpt><trkpt lat="43.0184733" lon="11.1081"><ele>476.75</ele><time>2026-05-02T16:07:50.79Z</time></trkpt><trkpt lat="43.0185733" lon="11.1080167"><ele>477.5</ele><time>2026-05-02T16:07:51.791Z</time></trkpt><trkpt lat="43.0186733" lon="11.1079267"><ele>478.25</ele><time>2026-05-02T16:07:52.789Z</time></trkpt><trkpt lat="43.018775" lon="11.1078367"><ele>479.0</ele><time>2026-05-02T16:07:53.79Z</time></trkpt><trkpt lat="43.0188733" lon="11.107755"><ele>479.0</ele><time>2026-05-02T16:07:54.789Z</time></trkpt><trkpt lat="43.018975" lon="11.107675"><ele>479.0</ele><time>2026-05-02T16:07:55.789Z</time></trkpt><trkpt lat="43.0190717" lon="11.1075917"><ele>479.0</ele><time>2026-05-02T16:07:56.786Z</time></trkpt><trkpt lat="43.0191683" lon="11.1075033"><ele>479.0</ele><time>2026-05-02T16:07:57.786Z</time></trkpt><trkpt lat="43.019265" lon="11.1074167"><ele>482.25</ele><time>2026-05-02T16:07:58.786Z</time></trkpt><trkpt lat="43.0193633" lon="11.1073417"><ele>485.5</ele><time>2026-05-02T16:07:59.786Z</time></trkpt><trkpt lat="43.0194633" lon="11.1072717"><ele>488.75</ele><time>2026-05-02T16:08:00.785Z</time></trkpt><trkpt lat="43.0195667" lon="11.1072"><ele>492.0</ele><time>2026-05-02T16:08:01.786Z</time></trkpt><trkpt lat="43.019675" lon="11.1071217"><ele>492.0</ele><time>2026-05-02T16:08:02.786Z</time></trkpt><trkpt lat="43.0197833" lon="11.10704"><ele>492.0</ele><time>2026-05-02T16:08:03.79Z</time></trkpt><trkpt lat="43.01989" lon="11.1069617"><ele>492.0</ele><time>2026-05-02T16:08:04.789Z</time></trkpt><trkpt lat="43.0199933" lon="11.1068883"><ele>492.0</ele><time>2026-05-02T16:08:05.789Z</time></trkpt><trkpt lat="43.0200833" lon="11.106825"><ele>494.6666666666667</ele><time>2026-05-02T16:08:06.79Z</time></trkpt><trkpt lat="43.0201617" lon="11.1067733"><ele>497.33333333333337</ele><time>2026-05-02T16:08:07.789Z</time></trkpt><trkpt lat="43.0202383" lon="11.1067383"><ele>500.0</ele><time>2026-05-02T16:08:08.787Z</time></trkpt><trkpt lat="43.02031" lon="11.10672"><ele>502.6666666666667</ele><time>2026-05-02T16:08:09.787Z</time></trkpt><trkpt lat="43.0203867" lon="11.106735"><ele>505.33333333333337</ele><time>2026-05-02T16:08:10.786Z</time></trkpt><trkpt lat="43.0204817" lon="11.1067367"><ele>508.0</ele><time>2026-05-02T16:08:11.79Z</time></trkpt><trkpt lat="43.02058" lon="11.1067467"><ele>508.0</ele><time>2026-05-02T16:08:12.789Z</time></trkpt><trkpt lat="43.0206867" lon="11.1067483"><ele>507.99999999999994</ele><time>2026-05-02T16:08:13.789Z</time></trkpt><trkpt lat="43.0207917" lon="11.1067533"><ele>507.99999999999994</ele><time>2026-05-02T16:08:14.79Z</time></trkpt><trkpt lat="43.0208967" lon="11.10675"><ele>508.0</ele><time>2026-05-02T16:08:15.789Z</time></trkpt><trkpt lat="43.0210067" lon="11.1067317"><ele>508.0</ele><time>2026-05-02T16:08:16.79Z</time></trkpt><trkpt lat="43.0211067" lon="11.106705"><ele>510.0</ele><time>2026-05-02T16:08:17.789Z</time></trkpt><trkpt lat="43.0212" lon="11.1066567"><ele>511.99999999999994</ele><time>2026-05-02T16:08:18.789Z</time></trkpt><trkpt lat="43.021285" lon="11.106585"><ele>514.0</ele><time>2026-05-02T16:08:19.791Z</time></trkpt><trkpt lat="43.02136" lon="11.1064917"><ele>516.0</ele><time>2026-05-02T16:08:20.792Z</time></trkpt><trkpt lat="43.0214317" lon="11.10639"><ele>518.0</ele><time>2026-05-02T16:08:21.79Z</time></trkpt><trkpt lat="43.0215" lon="11.1062883"><ele>518.6</ele><time>2026-05-02T16:08:22.789Z</time></trkpt><trkpt lat="43.0215733" lon="11.1061733"><ele>519.1999999999999</ele><time>2026-05-02T16:08:23.787Z</time></trkpt><trkpt lat="43.021645" lon="11.1060667"><ele>519.8</ele><time>2026-05-02T16:08:24.786Z</time></trkpt><trkpt lat="43.0217267" lon="11.1059583"><ele>520.4</ele><time>2026-05-02T16:08:25.789Z</time></trkpt><trkpt lat="43.021805" lon="11.1058667"><ele>521.0</ele><time>2026-05-02T16:08:26.787Z</time></trkpt><trkpt lat="43.0218883" lon="11.10577"><ele>521.8</ele><time>2026-05-02T16:08:27.787Z</time></trkpt><trkpt lat="43.0219717" lon="11.1056733"><ele>522.6</ele><time>2026-05-02T16:08:28.786Z</time></trkpt><trkpt lat="43.0220533" lon="11.1055767"><ele>523.4</ele><time>2026-05-02T16:08:29.786Z</time></trkpt><trkpt lat="43.0221367" lon="11.1054833"><ele>524.2</ele><time>2026-05-02T16:08:30.786Z</time></trkpt><trkpt lat="43.0222167" lon="11.10541"><ele>525.0</ele><time>2026-05-02T16:08:31.786Z</time></trkpt><trkpt lat="43.0223" lon="11.1053567"><ele>525.0</ele><time>2026-05-02T16:08:32.786Z</time></trkpt><trkpt lat="43.0223833" lon="11.1053333"><ele>525.0</ele><time>2026-05-02T16:08:33.79Z</time></trkpt><trkpt lat="43.0224667" lon="11.1053283"><ele>525.0</ele><time>2026-05-02T16:08:34.789Z</time></trkpt><trkpt lat="43.0225367" lon="11.1053267"><ele>525.0</ele><time>2026-05-02T16:08:35.79Z</time></trkpt><trkpt lat="43.0226417" lon="11.1052617"><ele>525.0</ele><time>2026-05-02T16:08:37.789Z</time></trkpt><trkpt lat="43.02266" lon="11.1051067"><ele>527.2</ele><time>2026-05-02T16:08:39.788Z</time></trkpt><trkpt lat="43.022665" lon="11.1049633"><ele>529.4</ele><time>2026-05-02T16:08:41.786Z</time></trkpt><trkpt lat="43.0227533" lon="11.1049133"><ele>531.6</ele><time>2026-05-02T16:08:44.789Z</time></trkpt><trkpt lat="43.0228717" lon="11.10493"><ele>533.8</ele><time>2026-05-02T16:08:46.789Z</time></trkpt><trkpt lat="43.0229367" lon="11.1049333"><ele>536.0</ele><time>2026-05-02T16:08:47.789Z</time></trkpt><trkpt lat="43.023065" lon="11.1049417"><ele>536.0</ele><time>2026-05-02T16:08:49.789Z</time></trkpt><trkpt lat="43.02313" lon="11.1049417"><ele>536.0</ele><time>2026-05-02T16:08:50.789Z</time></trkpt><trkpt lat="43.02322" lon="11.104935"><ele>536.0</ele><time>2026-05-02T16:08:52.79Z</time></trkpt><trkpt lat="43.02332" lon="11.1047817"><ele>536.0</ele><time>2026-05-02T16:09:05.948Z</time></trkpt><trkpt lat="43.0232983" lon="11.1049017"><ele>536.0</ele><time>2026-05-02T16:09:07.287Z</time></trkpt><trkpt lat="43.0233217" lon="11.1049817"><ele>538.3333333333333</ele><time>2026-05-02T16:09:08.786Z</time></trkpt><trkpt lat="43.0233567" lon="11.10512"><ele>540.6666666666666</ele><time>2026-05-02T16:09:10.786Z</time></trkpt><trkpt lat="43.0233817" lon="11.1052033"><ele>543.0</ele><time>2026-05-02T16:09:11.786Z</time></trkpt><trkpt lat="43.0234433" lon="11.10536"><ele>545.3333333333334</ele><time>2026-05-02T16:09:13.785Z</time></trkpt><trkpt lat="43.0234767" lon="11.10544"><ele>547.6666666666667</ele><time>2026-05-02T16:09:14.786Z</time></trkpt><trkpt lat="43.0235133" lon="11.10552"><ele>550.0</ele><time>2026-05-02T16:09:15.787Z</time></trkpt><trkpt lat="43.0235433" lon="11.1055983"><ele>550.0</ele><time>2026-05-02T16:09:16.787Z</time></trkpt><trkpt lat="43.0235933" lon="11.1057283"><ele>550.0</ele><time>2026-05-02T16:09:18.786Z</time></trkpt><trkpt lat="43.0236267" lon="11.105805"><ele>550.0</ele><time>2026-05-02T16:09:19.786Z</time></trkpt><trkpt lat="43.0236633" lon="11.105895"><ele>550.0</ele><time>2026-05-02T16:09:20.787Z</time></trkpt><trkpt lat="43.0237033" lon="11.1059967"><ele>550.0</ele><time>2026-05-02T16:09:21.786Z</time></trkpt><trkpt lat="43.0237467" lon="11.1061133"><ele>550.0</ele><time>2026-05-02T16:09:22.787Z</time></trkpt><trkpt lat="43.0237933" lon="11.106235"><ele>549.1666666666667</ele><time>2026-05-02T16:09:23.787Z</time></trkpt><trkpt lat="43.02384" lon="11.10635"><ele>548.3333333333334</ele><time>2026-05-02T16:09:24.786Z</time></trkpt><trkpt lat="43.0238833" lon="11.1064517"><ele>547.5</ele><time>2026-05-02T16:09:25.786Z</time></trkpt><trkpt lat="43.0239233" lon="11.1065417"><ele>546.6666666666666</ele><time>2026-05-02T16:09:26.786Z</time></trkpt><trkpt lat="43.0239583" lon="11.10662"><ele>545.8333333333333</ele><time>2026-05-02T16:09:27.786Z</time></trkpt><trkpt lat="43.0240133" lon="11.1067283"><ele>545.0</ele><time>2026-05-02T16:09:29.788Z</time></trkpt><trkpt lat="43.0240667" lon="11.1067917"><ele>544.0</ele><time>2026-05-02T16:09:32.786Z</time></trkpt><trkpt lat="43.024145" lon="11.1067267"><ele>543.0</ele><time>2026-05-02T16:09:35.79Z</time></trkpt><trkpt lat="43.0242467" lon="11.1066283"><ele>542.0</ele><time>2026-05-02T16:09:37.786Z</time></trkpt><trkpt lat="43.0243067" lon="11.1065783"><ele>541.0</ele><time>2026-05-02T16:09:38.788Z</time></trkpt><trkpt lat="43.0243633" lon="11.1065317"><ele>540.0</ele><time>2026-05-02T16:09:39.786Z</time></trkpt><trkpt lat="43.024455" lon="11.1064667"><ele>543.4</ele><time>2026-05-02T16:09:41.786Z</time></trkpt><trkpt lat="43.02452" lon="11.10639"><ele>546.8</ele><time>2026-05-02T16:09:43.787Z</time></trkpt><trkpt lat="43.024575" lon="11.106285"><ele>550.2</ele><time>2026-05-02T16:09:45.786Z</time></trkpt><trkpt lat="43.0246467" lon="11.1061517"><ele>553.6</ele><time>2026-05-02T16:09:47.786Z</time></trkpt><trkpt lat="43.0247117" lon="11.1060417"><ele>557.0</ele><time>2026-05-02T16:09:49.786Z</time></trkpt><trkpt lat="43.0247517" lon="11.1059233"><ele>557.0</ele><time>2026-05-02T16:09:51.786Z</time></trkpt><trkpt lat="43.0247733" lon="11.1057933"><ele>557.0</ele><time>2026-05-02T16:09:53.788Z</time></trkpt><trkpt lat="43.0247667" lon="11.1056433"><ele>557.0</ele><time>2026-05-02T16:09:55.786Z</time></trkpt><trkpt lat="43.0247583" lon="11.1054917"><ele>557.0</ele><time>2026-05-02T16:09:57.786Z</time></trkpt><trkpt lat="43.0247767" lon="11.10537"><ele>557.0</ele><time>2026-05-02T16:09:59.786Z</time></trkpt><trkpt lat="43.0247733" lon="11.1052617"><ele>557.7142857142858</ele><time>2026-05-02T16:10:02.787Z</time></trkpt><trkpt lat="43.024715" lon="11.1052033"><ele>558.4285714285714</ele><time>2026-05-02T16:10:06.786Z</time></trkpt><trkpt lat="43.0246583" lon="11.10514"><ele>559.1428571428571</ele><time>2026-05-02T16:10:08.787Z</time></trkpt><trkpt lat="43.0245967" lon="11.1050883"><ele>559.8571428571429</ele><time>2026-05-02T16:10:10.789Z</time></trkpt><trkpt lat="43.024555" lon="11.1050017"><ele>560.5714285714286</ele><time>2026-05-02T16:10:13.786Z</time></trkpt><trkpt lat="43.0245567" lon="11.1048933"><ele>561.2857142857143</ele><time>2026-05-02T16:10:16.786Z</time></trkpt><trkpt lat="43.0246033" lon="11.1048217"><ele>562.0</ele><time>2026-05-02T16:10:18.786Z</time></trkpt><trkpt lat="43.0246733" lon="11.1047433"><ele>563.0</ele><time>2026-05-02T16:10:20.787Z</time></trkpt><trkpt lat="43.024755" lon="11.104685"><ele>564.0</ele><time>2026-05-02T16:10:22.787Z</time></trkpt><trkpt lat="43.0248" lon="11.1046033"><ele>565.0</ele><time>2026-05-02T16:10:24.789Z</time></trkpt><trkpt lat="43.0247833" lon="11.1044833"><ele>566.0</ele><time>2026-05-02T16:10:26.785Z</time></trkpt><trkpt lat="43.0247617" lon="11.1043517"><ele>567.0</ele><time>2026-05-02T16:10:28.785Z</time></trkpt><trkpt lat="43.0247467" lon="11.1042317"><ele>568.0</ele><time>2026-05-02T16:10:30.785Z</time></trkpt><trkpt lat="43.024745" lon="11.1041167"><ele>567.3333333333334</ele><time>2026-05-02T16:10:32.785Z</time></trkpt><trkpt lat="43.0247533" lon="11.103985"><ele>566.6666666666667</ele><time>2026-05-02T16:10:34.785Z</time></trkpt><trkpt lat="43.0247583" lon="11.103855"><ele>566.0</ele><time>2026-05-02T16:10:36.788Z</time></trkpt><trkpt lat="43.0247617" lon="11.1037583"><ele>565.3333333333334</ele><time>2026-05-02T16:10:38.788Z</time></trkpt><trkpt lat="43.0247883" lon="11.1036567"><ele>564.6666666666666</ele><time>2026-05-02T16:10:41.789Z</time></trkpt><trkpt lat="43.024865" lon="11.103635"><ele>564.0</ele><time>2026-05-02T16:10:45.789Z</time></trkpt><trkpt lat="43.02492" lon="11.1037"><ele>564.0</ele><time>2026-05-02T16:10:48.788Z</time></trkpt><trkpt lat="43.0249683" lon="11.1037717"><ele>564.0</ele><time>2026-05-02T16:10:50.788Z</time></trkpt><trkpt lat="43.0250217" lon="11.1038283"><ele>564.0</ele><time>2026-05-02T16:10:52.788Z</time></trkpt><trkpt lat="43.0251167" lon="11.1038817"><ele>564.0</ele><time>2026-05-02T16:10:54.789Z</time></trkpt><trkpt lat="43.0252167" lon="11.10392"><ele>564.0</ele><time>2026-05-02T16:10:56.785Z</time></trkpt><trkpt lat="43.02531" lon="11.1038783"><ele>564.0</ele><time>2026-05-02T16:10:58.785Z</time></trkpt><trkpt lat="43.0253783" lon="11.1038233"><ele>567.6666666666666</ele><time>2026-05-02T16:11:00.789Z</time></trkpt><trkpt lat="43.02539" lon="11.1037067"><ele>571.3333333333334</ele><time>2026-05-02T16:11:03.789Z</time></trkpt><trkpt lat="43.0253483" lon="11.103595"><ele>575.0</ele><time>2026-05-02T16:11:05.79Z</time></trkpt><trkpt lat="43.025335" lon="11.1034917"><ele>578.6666666666667</ele><time>2026-05-02T16:11:07.786Z</time></trkpt><trkpt lat="43.0253267" lon="11.1033533"><ele>582.3333333333334</ele><time>2026-05-02T16:11:09.786Z</time></trkpt><trkpt lat="43.02532" lon="11.10326"><ele>586.0</ele><time>2026-05-02T16:11:10.786Z</time></trkpt><trkpt lat="43.02531" lon="11.1031533"><ele>586.0</ele><time>2026-05-02T16:11:11.786Z</time></trkpt><trkpt lat="43.025295" lon="11.10303"><ele>586.0</ele><time>2026-05-02T16:11:12.785Z</time></trkpt><trkpt lat="43.0252833" lon="11.1029067"><ele>586.0</ele><time>2026-05-02T16:11:13.785Z</time></trkpt><trkpt lat="43.0252733" lon="11.1027783"><ele>586.0</ele><time>2026-05-02T16:11:14.785Z</time></trkpt><trkpt lat="43.0252733" lon="11.1026433"><ele>586.0</ele><time>2026-05-02T16:11:15.787Z</time></trkpt><trkpt lat="43.0252917" lon="11.1024983"><ele>585.8</ele><time>2026-05-02T16:11:16.786Z</time></trkpt><trkpt lat="43.0253117" lon="11.1023617"><ele>585.6</ele><time>2026-05-02T16:11:17.786Z</time></trkpt><trkpt lat="43.025335" lon="11.1022117"><ele>585.4</ele><time>2026-05-02T16:11:18.786Z</time></trkpt><trkpt lat="43.025365" lon="11.1020633"><ele>585.2</ele><time>2026-05-02T16:11:19.786Z</time></trkpt><trkpt lat="43.0253817" lon="11.1019"><ele>585.0</ele><time>2026-05-02T16:11:20.791Z</time></trkpt><trkpt lat="43.025395" lon="11.1017333"><ele>586.0</ele><time>2026-05-02T16:11:21.788Z</time></trkpt><trkpt lat="43.025395" lon="11.1015617"><ele>587.0</ele><time>2026-05-02T16:11:22.789Z</time></trkpt><trkpt lat="43.0253967" lon="11.1013983"><ele>588.0</ele><time>2026-05-02T16:11:23.789Z</time></trkpt><trkpt lat="43.0253967" lon="11.1012467"><ele>589.0</ele><time>2026-05-02T16:11:24.787Z</time></trkpt><trkpt lat="43.0253883" lon="11.1011"><ele>589.0</ele><time>2026-05-02T16:11:25.786Z</time></trkpt><trkpt lat="43.0253667" lon="11.1009567"><ele>589.0</ele><time>2026-05-02T16:11:26.786Z</time></trkpt><trkpt lat="43.0253267" lon="11.1008167"><ele>589.0</ele><time>2026-05-02T16:11:27.785Z</time></trkpt><trkpt lat="43.0252867" lon="11.100675"><ele>589.0</ele><time>2026-05-02T16:11:28.786Z</time></trkpt><trkpt lat="43.025245" lon="11.10053"><ele>589.0</ele><time>2026-05-02T16:11:29.787Z</time></trkpt><trkpt lat="43.0252033" lon="11.100385"><ele>589.25</ele><time>2026-05-02T16:11:30.785Z</time></trkpt><trkpt lat="43.025165" lon="11.100245"><ele>589.5</ele><time>2026-05-02T16:11:31.786Z</time></trkpt><trkpt lat="43.0251267" lon="11.1000983"><ele>589.75</ele><time>2026-05-02T16:11:32.786Z</time></trkpt><trkpt lat="43.0251033" lon="11.0999433"><ele>590.0</ele><time>2026-05-02T16:11:33.787Z</time></trkpt><trkpt lat="43.0250967" lon="11.09979"><ele>590.5</ele><time>2026-05-02T16:11:34.786Z</time></trkpt><trkpt lat="43.02511" lon="11.0996367"><ele>591.0</ele><time>2026-05-02T16:11:35.786Z</time></trkpt><trkpt lat="43.0251433" lon="11.0994833"><ele>591.5</ele><time>2026-05-02T16:11:36.786Z</time></trkpt><trkpt lat="43.0251833" lon="11.09933"><ele>592.0</ele><time>2026-05-02T16:11:37.789Z</time></trkpt><trkpt lat="43.0252383" lon="11.09918"><ele>592.2</ele><time>2026-05-02T16:11:38.789Z</time></trkpt><trkpt lat="43.0252867" lon="11.0990317"><ele>592.4000000000001</ele><time>2026-05-02T16:11:39.786Z</time></trkpt><trkpt lat="43.0253317" lon="11.098885"><ele>592.5999999999999</ele><time>2026-05-02T16:11:40.786Z</time></trkpt><trkpt lat="43.0253683" lon="11.0987517"><ele>592.8</ele><time>2026-05-02T16:11:41.787Z</time></trkpt><trkpt lat="43.0253933" lon="11.09863"><ele>593.0</ele><time>2026-05-02T16:11:42.785Z</time></trkpt><trkpt lat="43.0254033" lon="11.0985233"><ele>593.0</ele><time>2026-05-02T16:11:43.786Z</time></trkpt><trkpt lat="43.02541" lon="11.0984233"><ele>593.0</ele><time>2026-05-02T16:11:44.787Z</time></trkpt><trkpt lat="43.02542" lon="11.0983217"><ele>593.0</ele><time>2026-05-02T16:11:45.785Z</time></trkpt><trkpt lat="43.025445" lon="11.0982167"><ele>593.0</ele><time>2026-05-02T16:11:46.786Z</time></trkpt><trkpt lat="43.0254767" lon="11.0981067"><ele>593.0</ele><time>2026-05-02T16:11:47.787Z</time></trkpt><trkpt lat="43.02552" lon="11.0979817"><ele>593.0</ele><time>2026-05-02T16:11:48.786Z</time></trkpt><trkpt lat="43.0255767" lon="11.0978667"><ele>591.1999999999999</ele><time>2026-05-02T16:11:49.786Z</time></trkpt><trkpt lat="43.0256383" lon="11.0977483"><ele>589.4</ele><time>2026-05-02T16:11:50.787Z</time></trkpt><trkpt lat="43.02569" lon="11.097625"><ele>587.5999999999999</ele><time>2026-05-02T16:11:51.787Z</time></trkpt><trkpt lat="43.02573" lon="11.0975"><ele>585.8</ele><time>2026-05-02T16:11:52.788Z</time></trkpt><trkpt lat="43.0257567" lon="11.097375"><ele>584.0</ele><time>2026-05-02T16:11:53.788Z</time></trkpt><trkpt lat="43.02575" lon="11.0972467"><ele>582.8</ele><time>2026-05-02T16:11:54.786Z</time></trkpt><trkpt lat="43.0257267" lon="11.097125"><ele>581.5999999999999</ele><time>2026-05-02T16:11:55.786Z</time></trkpt><trkpt lat="43.0257033" lon="11.0970033"><ele>580.4</ele><time>2026-05-02T16:11:56.789Z</time></trkpt><trkpt lat="43.02568" lon="11.09688"><ele>579.1999999999999</ele><time>2026-05-02T16:11:57.79Z</time></trkpt><trkpt lat="43.02565" lon="11.0967633"><ele>578.0</ele><time>2026-05-02T16:11:58.788Z</time></trkpt><trkpt lat="43.0256183" lon="11.0966483"><ele>577.8</ele><time>2026-05-02T16:11:59.786Z</time></trkpt><trkpt lat="43.0255917" lon="11.096525"><ele>577.5999999999999</ele><time>2026-05-02T16:12:00.789Z</time></trkpt><trkpt lat="43.025585" lon="11.0963917"><ele>577.4000000000001</ele><time>2026-05-02T16:12:01.789Z</time></trkpt><trkpt lat="43.0255933" lon="11.09627"><ele>577.2</ele><time>2026-05-02T16:12:02.789Z</time></trkpt><trkpt lat="43.025625" lon="11.0961567"><ele>577.0</ele><time>2026-05-02T16:12:03.789Z</time></trkpt><trkpt lat="43.025675" lon="11.0960467"><ele>577.0</ele><time>2026-05-02T16:12:04.789Z</time></trkpt><trkpt lat="43.025745" lon="11.0959567"><ele>577.0</ele><time>2026-05-02T16:12:05.786Z</time></trkpt><trkpt lat="43.0258217" lon="11.0958933"><ele>577.0</ele><time>2026-05-02T16:12:06.785Z</time></trkpt><trkpt lat="43.025905" lon="11.09585"><ele>577.0</ele><time>2026-05-02T16:12:07.786Z</time></trkpt><trkpt lat="43.026005" lon="11.0958267"><ele>577.0</ele><time>2026-05-02T16:12:08.786Z</time></trkpt><trkpt lat="43.0261183" lon="11.0957983"><ele>579.25</ele><time>2026-05-02T16:12:09.789Z</time></trkpt><trkpt lat="43.0262367" lon="11.095765"><ele>581.5</ele><time>2026-05-02T16:12:10.787Z</time></trkpt><trkpt lat="43.02635" lon="11.0957117"><ele>583.75</ele><time>2026-05-02T16:12:11.787Z</time></trkpt><trkpt lat="43.026465" lon="11.09566"><ele>586.0</ele><time>2026-05-02T16:12:12.785Z</time></trkpt><trkpt lat="43.0265767" lon="11.0956133"><ele>591.25</ele><time>2026-05-02T16:12:13.789Z</time></trkpt><trkpt lat="43.026695" lon="11.0955683"><ele>596.5</ele><time>2026-05-02T16:12:14.787Z</time></trkpt><trkpt lat="43.026805" lon="11.0955183"><ele>601.75</ele><time>2026-05-02T16:12:15.788Z</time></trkpt><trkpt lat="43.0269083" lon="11.0954517"><ele>607.0</ele><time>2026-05-02T16:12:16.786Z</time></trkpt><trkpt lat="43.0270167" lon="11.0953733"><ele>607.0</ele><time>2026-05-02T16:12:17.786Z</time></trkpt><trkpt lat="43.027125" lon="11.0952983"><ele>607.0</ele><time>2026-05-02T16:12:18.786Z</time></trkpt><trkpt lat="43.02722" lon="11.09523"><ele>607.0</ele><time>2026-05-02T16:12:19.787Z</time></trkpt><trkpt lat="43.0272967" lon="11.09517"><ele>607.0</ele><time>2026-05-02T16:12:20.786Z</time></trkpt><trkpt lat="43.0273567" lon="11.095115"><ele>607.0</ele><time>2026-05-02T16:12:21.791Z</time></trkpt><trkpt lat="43.0274183" lon="11.0950133"><ele>606.8000000000001</ele><time>2026-05-02T16:12:23.786Z</time></trkpt><trkpt lat="43.0274417" lon="11.0949033"><ele>606.6</ele><time>2026-05-02T16:12:26.786Z</time></trkpt><trkpt lat="43.02743" lon="11.0947583"><ele>606.4000000000001</ele><time>2026-05-02T16:12:28.789Z</time></trkpt><trkpt lat="43.0274467" lon="11.0946317"><ele>606.2</ele><time>2026-05-02T16:12:30.791Z</time></trkpt><trkpt lat="43.0274883" lon="11.09453"><ele>606.0</ele><time>2026-05-02T16:12:32.789Z</time></trkpt><trkpt lat="43.0275333" lon="11.0944217"><ele>606.5</ele><time>2026-05-02T16:12:34.79Z</time></trkpt><trkpt lat="43.0275967" lon="11.0942833"><ele>607.0</ele><time>2026-05-02T16:12:36.789Z</time></trkpt><trkpt lat="43.0276367" lon="11.0942017"><ele>607.5</ele><time>2026-05-02T16:12:37.786Z</time></trkpt><trkpt lat="43.027675" lon="11.0941167"><ele>608.0</ele><time>2026-05-02T16:12:38.789Z</time></trkpt><trkpt lat="43.027715" lon="11.0940317"><ele>608.5</ele><time>2026-05-02T16:12:39.789Z</time></trkpt><trkpt lat="43.02775" lon="11.0939483"><ele>609.0</ele><time>2026-05-02T16:12:40.787Z</time></trkpt><trkpt lat="43.0277917" lon="11.093855"><ele>609.0</ele><time>2026-05-02T16:12:41.789Z</time></trkpt><trkpt lat="43.0278383" lon="11.093765"><ele>609.0</ele><time>2026-05-02T16:12:42.786Z</time></trkpt><trkpt lat="43.0278817" lon="11.0936733"><ele>609.0</ele><time>2026-05-02T16:12:43.788Z</time></trkpt><trkpt lat="43.0279133" lon="11.0935817"><ele>609.0</ele><time>2026-05-02T16:12:44.786Z</time></trkpt><trkpt lat="43.0279567" lon="11.09348"><ele>609.0</ele><time>2026-05-02T16:12:45.786Z</time></trkpt><trkpt lat="43.0279983" lon="11.0933917"><ele>609.0</ele><time>2026-05-02T16:12:46.786Z</time></trkpt><trkpt lat="43.02804" lon="11.0933117"><ele>608.7142857142857</ele><time>2026-05-02T16:12:47.789Z</time></trkpt><trkpt lat="43.0280783" lon="11.0932267"><ele>608.4285714285714</ele><time>2026-05-02T16:12:48.785Z</time></trkpt><trkpt lat="43.02812" lon="11.093145"><ele>608.1428571428571</ele><time>2026-05-02T16:12:49.786Z</time></trkpt><trkpt lat="43.0281583" lon="11.09306"><ele>607.8571428571429</ele><time>2026-05-02T16:12:50.788Z</time></trkpt><trkpt lat="43.028195" lon="11.0929717"><ele>607.5714285714286</ele><time>2026-05-02T16:12:51.787Z</time></trkpt><trkpt lat="43.0282333" lon="11.09288"><ele>607.2857142857142</ele><time>2026-05-02T16:12:52.787Z</time></trkpt><trkpt lat="43.028275" lon="11.0927967"><ele>607.0</ele><time>2026-05-02T16:12:53.786Z</time></trkpt><trkpt lat="43.0283167" lon="11.0927117"><ele>607.8333333333334</ele><time>2026-05-02T16:12:54.786Z</time></trkpt><trkpt lat="43.0283667" lon="11.09262"><ele>608.6666666666667</ele><time>2026-05-02T16:12:55.786Z</time></trkpt><trkpt lat="43.02842" lon="11.0925217"><ele>609.5</ele><time>2026-05-02T16:12:56.786Z</time></trkpt><trkpt lat="43.0284717" lon="11.0924233"><ele>610.3333333333334</ele><time>2026-05-02T16:12:57.786Z</time></trkpt><trkpt lat="43.0285233" lon="11.09233"><ele>611.1666666666666</ele><time>2026-05-02T16:12:58.786Z</time></trkpt><trkpt lat="43.02857" lon="11.0922433"><ele>612.0</ele><time>2026-05-02T16:12:59.787Z</time></trkpt><trkpt lat="43.0286167" lon="11.0921583"><ele>612.0</ele><time>2026-05-02T16:13:00.789Z</time></trkpt><trkpt lat="43.0286633" lon="11.09207"><ele>612.0</ele><time>2026-05-02T16:13:01.79Z</time></trkpt><trkpt lat="43.0287033" lon="11.091985"><ele>612.0</ele><time>2026-05-02T16:13:02.789Z</time></trkpt><trkpt lat="43.0287417" lon="11.0919017"><ele>612.0</ele><time>2026-05-02T16:13:03.789Z</time></trkpt><trkpt lat="43.028775" lon="11.0918217"><ele>612.0</ele><time>2026-05-02T16:13:04.79Z</time></trkpt><trkpt lat="43.02881" lon="11.0917467"><ele>612.0</ele><time>2026-05-02T16:13:05.789Z</time></trkpt><trkpt lat="43.0288517" lon="11.0916783"><ele>612.0</ele><time>2026-05-02T16:13:06.789Z</time></trkpt><trkpt lat="43.02889" lon="11.0916"><ele>610.8333333333334</ele><time>2026-05-02T16:13:07.787Z</time></trkpt><trkpt lat="43.0289267" lon="11.0915117"><ele>609.6666666666666</ele><time>2026-05-02T16:13:08.789Z</time></trkpt><trkpt lat="43.0289633" lon="11.091405"><ele>608.5</ele><time>2026-05-02T16:13:09.789Z</time></trkpt><trkpt lat="43.029005" lon="11.0912917"><ele>607.3333333333333</ele><time>2026-05-02T16:13:10.786Z</time></trkpt><trkpt lat="43.0290467" lon="11.091175"><ele>606.1666666666666</ele><time>2026-05-02T16:13:11.787Z</time></trkpt><trkpt lat="43.0290867" lon="11.0910683"><ele>605.0</ele><time>2026-05-02T16:13:12.787Z</time></trkpt><trkpt lat="43.0291317" lon="11.0909717"><ele>604.8333333333333</ele><time>2026-05-02T16:13:13.79Z</time></trkpt><trkpt lat="43.02918" lon="11.0908917"><ele>604.6666666666666</ele><time>2026-05-02T16:13:14.792Z</time></trkpt><trkpt lat="43.0292283" lon="11.0908283"><ele>604.5</ele><time>2026-05-02T16:13:15.786Z</time></trkpt><trkpt lat="43.029305" lon="11.090745"><ele>604.3333333333334</ele><time>2026-05-02T16:13:17.786Z</time></trkpt><trkpt lat="43.02934" lon="11.090655"><ele>604.1666666666667</ele><time>2026-05-02T16:13:19.789Z</time></trkpt><trkpt lat="43.029345" lon="11.09049"><ele>604.0</ele><time>2026-05-02T16:13:21.786Z</time></trkpt><trkpt lat="43.029345" lon="11.0903783"><ele>601.4</ele><time>2026-05-02T16:13:22.786Z</time></trkpt><trkpt lat="43.029355" lon="11.0902583"><ele>598.8</ele><time>2026-05-02T16:13:23.788Z</time></trkpt><trkpt lat="43.0293733" lon="11.090135"><ele>596.2</ele><time>2026-05-02T16:13:24.788Z</time></trkpt><trkpt lat="43.0293933" lon="11.090005"><ele>593.6</ele><time>2026-05-02T16:13:25.786Z</time></trkpt><trkpt lat="43.0294183" lon="11.0898783"><ele>591.0</ele><time>2026-05-02T16:13:26.785Z</time></trkpt><trkpt lat="43.0294483" lon="11.089755"><ele>588.1666666666666</ele><time>2026-05-02T16:13:27.785Z</time></trkpt><trkpt lat="43.0294783" lon="11.0896317"><ele>585.3333333333334</ele><time>2026-05-02T16:13:28.785Z</time></trkpt><trkpt lat="43.0295017" lon="11.0895183"><ele>582.5</ele><time>2026-05-02T16:13:29.785Z</time></trkpt><trkpt lat="43.0295217" lon="11.0894117"><ele>579.6666666666667</ele><time>2026-05-02T16:13:30.785Z</time></trkpt><trkpt lat="43.0295267" lon="11.0893067"><ele>576.8333333333334</ele><time>2026-05-02T16:13:31.785Z</time></trkpt><trkpt lat="43.029525" lon="11.089205"><ele>574.0</ele><time>2026-05-02T16:13:32.786Z</time></trkpt><trkpt lat="43.02952" lon="11.0891067"><ele>573.5</ele><time>2026-05-02T16:13:33.786Z</time></trkpt><trkpt lat="43.029515" lon="11.0890117"><ele>573.0</ele><time>2026-05-02T16:13:34.785Z</time></trkpt><trkpt lat="43.02952" lon="11.0889167"><ele>572.5</ele><time>2026-05-02T16:13:35.785Z</time></trkpt><trkpt lat="43.029535" lon="11.08882"><ele>572.0</ele><time>2026-05-02T16:13:36.786Z</time></trkpt><trkpt lat="43.029555" lon="11.0887233"><ele>571.5</ele><time>2026-05-02T16:13:37.785Z</time></trkpt><trkpt lat="43.0295667" lon="11.0886333"><ele>571.0</ele><time>2026-05-02T16:13:38.788Z</time></trkpt><trkpt lat="43.0295583" lon="11.0884933"><ele>571.0</ele><time>2026-05-02T16:13:40.788Z</time></trkpt><trkpt lat="43.0295017" lon="11.088385"><ele>571.0</ele><time>2026-05-02T16:13:42.789Z</time></trkpt><trkpt lat="43.0294217" lon="11.0883033"><ele>571.0</ele><time>2026-05-02T16:13:44.789Z</time></trkpt><trkpt lat="43.0293433" lon="11.0882333"><ele>571.0</ele><time>2026-05-02T16:13:46.789Z</time></trkpt><trkpt lat="43.0293" lon="11.088125"><ele>571.0</ele><time>2026-05-02T16:13:48.79Z</time></trkpt><trkpt lat="43.029325" lon="11.0880017"><ele>569.3333333333334</ele><time>2026-05-02T16:13:50.79Z</time></trkpt><trkpt lat="43.02939" lon="11.0879"><ele>567.6666666666667</ele><time>2026-05-02T16:13:52.788Z</time></trkpt><trkpt lat="43.0295017" lon="11.0878517"><ele>566.0</ele><time>2026-05-02T16:13:54.788Z</time></trkpt><trkpt lat="43.029575" lon="11.0878383"><ele>564.3333333333334</ele><time>2026-05-02T16:13:55.789Z</time></trkpt><trkpt lat="43.029645" lon="11.0878333"><ele>562.6666666666666</ele><time>2026-05-02T16:13:56.786Z</time></trkpt><trkpt lat="43.0297083" lon="11.0878483"><ele>561.0</ele><time>2026-05-02T16:13:57.788Z</time></trkpt><trkpt lat="43.0297683" lon="11.0878767"><ele>561.0</ele><time>2026-05-02T16:13:58.788Z</time></trkpt><trkpt lat="43.029825" lon="11.0879167"><ele>561.0</ele><time>2026-05-02T16:13:59.788Z</time></trkpt><trkpt lat="43.0299183" lon="11.08797"><ele>561.0</ele><time>2026-05-02T16:14:01.786Z</time></trkpt><trkpt lat="43.0299817" lon="11.0878983"><ele>561.0</ele><time>2026-05-02T16:14:04.786Z</time></trkpt><trkpt lat="43.0299867" lon="11.08775"><ele>561.0</ele><time>2026-05-02T16:14:06.787Z</time></trkpt><trkpt lat="43.0299767" lon="11.08766"><ele>561.0</ele><time>2026-05-02T16:14:07.787Z</time></trkpt><trkpt lat="43.029955" lon="11.0875683"><ele>561.0</ele><time>2026-05-02T16:14:08.788Z</time></trkpt><trkpt lat="43.029925" lon="11.0874767"><ele>561.0</ele><time>2026-05-02T16:14:09.789Z</time></trkpt><trkpt lat="43.0299017" lon="11.0873817"><ele>561.0</ele><time>2026-05-02T16:14:10.789Z</time></trkpt><trkpt lat="43.02988" lon="11.0872917"><ele>561.0</ele><time>2026-05-02T16:14:11.79Z</time></trkpt><trkpt lat="43.02981" lon="11.0871383"><ele>561.0</ele><time>2026-05-02T16:14:13.789Z</time></trkpt><trkpt lat="43.0297617" lon="11.08707"><ele>561.0</ele><time>2026-05-02T16:14:14.785Z</time></trkpt><trkpt lat="43.029715" lon="11.0869967"><ele>557.3333333333334</ele><time>2026-05-02T16:14:15.787Z</time></trkpt><trkpt lat="43.02967" lon="11.0869167"><ele>553.6666666666666</ele><time>2026-05-02T16:14:16.787Z</time></trkpt><trkpt lat="43.029635" lon="11.0868217"><ele>550.0</ele><time>2026-05-02T16:14:17.789Z</time></trkpt><trkpt lat="43.0295967" lon="11.08673"><ele>546.3333333333333</ele><time>2026-05-02T16:14:18.789Z</time></trkpt><trkpt lat="43.0295533" lon="11.0866333"><ele>542.6666666666666</ele><time>2026-05-02T16:14:19.789Z</time></trkpt><trkpt lat="43.029505" lon="11.0865317"><ele>539.0</ele><time>2026-05-02T16:14:20.785Z</time></trkpt><trkpt lat="43.0294533" lon="11.0864333"><ele>536.4</ele><time>2026-05-02T16:14:21.789Z</time></trkpt><trkpt lat="43.0294033" lon="11.0863467"><ele>533.8</ele><time>2026-05-02T16:14:22.789Z</time></trkpt><trkpt lat="43.029365" lon="11.0862667"><ele>531.2</ele><time>2026-05-02T16:14:23.787Z</time></trkpt><trkpt lat="43.0293333" lon="11.08611"><ele>528.6</ele><time>2026-05-02T16:14:25.787Z</time></trkpt><trkpt lat="43.029325" lon="11.0859667"><ele>526.0</ele><time>2026-05-02T16:14:27.786Z</time></trkpt><trkpt lat="43.0292733" lon="11.0858317"><ele>526.0</ele><time>2026-05-02T16:14:29.787Z</time></trkpt><trkpt lat="43.0292233" lon="11.0857633"><ele>526.0</ele><time>2026-05-02T16:14:30.79Z</time></trkpt><trkpt lat="43.029155" lon="11.0857"><ele>526.0</ele><time>2026-05-02T16:14:31.788Z</time></trkpt><trkpt lat="43.0290767" lon="11.0856467"><ele>526.0</ele><time>2026-05-02T16:14:32.789Z</time></trkpt><trkpt lat="43.0290017" lon="11.085615"><ele>526.0</ele><time>2026-05-02T16:14:33.791Z</time></trkpt><trkpt lat="43.0289317" lon="11.085615"><ele>526.0</ele><time>2026-05-02T16:14:34.787Z</time></trkpt><trkpt lat="43.0288717" lon="11.0856417"><ele>525.0</ele><time>2026-05-02T16:14:35.787Z</time></trkpt><trkpt lat="43.0288083" lon="11.0857083"><ele>524.0</ele><time>2026-05-02T16:14:36.787Z</time></trkpt><trkpt lat="43.0287533" lon="11.0857933"><ele>523.0</ele><time>2026-05-02T16:14:37.786Z</time></trkpt><trkpt lat="43.0286967" lon="11.0858783"><ele>522.0</ele><time>2026-05-02T16:14:38.789Z</time></trkpt><trkpt lat="43.0286467" lon="11.0859467"><ele>521.0</ele><time>2026-05-02T16:14:39.787Z</time></trkpt><trkpt lat="43.028595" lon="11.0860083"><ele>520.0</ele><time>2026-05-02T16:14:40.787Z</time></trkpt><trkpt lat="43.02853" lon="11.0860117"><ele>520.0</ele><time>2026-05-02T16:14:42.786Z</time></trkpt><trkpt lat="43.0285067" lon="11.0858983"><ele>520.0</ele><time>2026-05-02T16:14:44.786Z</time></trkpt><trkpt lat="43.0285033" lon="11.0857817"><ele>520.0</ele><time>2026-05-02T16:14:46.791Z</time></trkpt><trkpt lat="43.02866" lon="11.08589"><ele>520.0</ele><time>2026-05-02T16:15:07.443Z</time></trkpt><trkpt lat="43.02861" lon="11.0857367"><ele>516.4</ele><time>2026-05-02T16:15:08.786Z</time></trkpt><trkpt lat="43.028615" lon="11.0855767"><ele>512.8</ele><time>2026-05-02T16:15:10.786Z</time></trkpt><trkpt lat="43.0286533" lon="11.08546"><ele>509.20000000000005</ele><time>2026-05-02T16:15:11.786Z</time></trkpt><trkpt lat="43.02871" lon="11.085345"><ele>505.6</ele><time>2026-05-02T16:15:12.785Z</time></trkpt><trkpt lat="43.0287733" lon="11.0852383"><ele>502.0</ele><time>2026-05-02T16:15:13.786Z</time></trkpt><trkpt lat="43.02887" lon="11.0851717"><ele>502.0</ele><time>2026-05-02T16:15:14.787Z</time></trkpt><trkpt lat="43.028965" lon="11.08513"><ele>502.00000000000006</ele><time>2026-05-02T16:15:15.787Z</time></trkpt><trkpt lat="43.029075" lon="11.08514"><ele>502.00000000000006</ele><time>2026-05-02T16:15:16.789Z</time></trkpt><trkpt lat="43.02918" lon="11.0851617"><ele>502.0</ele><time>2026-05-02T16:15:17.786Z</time></trkpt><trkpt lat="43.0292817" lon="11.0851883"><ele>502.0</ele><time>2026-05-02T16:15:18.786Z</time></trkpt><trkpt lat="43.0293717" lon="11.0852067"><ele>503.00000000000006</ele><time>2026-05-02T16:15:19.785Z</time></trkpt><trkpt lat="43.0294467" lon="11.08521"><ele>504.0</ele><time>2026-05-02T16:15:20.786Z</time></trkpt><trkpt lat="43.0295517" lon="11.085145"><ele>505.0</ele><time>2026-05-02T16:15:22.787Z</time></trkpt><trkpt lat="43.0295933" lon="11.0850783"><ele>506.0</ele><time>2026-05-02T16:15:23.786Z</time></trkpt><trkpt lat="43.02962" lon="11.0849833"><ele>507.00000000000006</ele><time>2026-05-02T16:15:24.785Z</time></trkpt><trkpt lat="43.0295783" lon="11.08483"><ele>508.0</ele><time>2026-05-02T16:15:25.786Z</time></trkpt><trkpt lat="43.0295317" lon="11.0846817"><ele>508.0</ele><time>2026-05-02T16:15:26.787Z</time></trkpt><trkpt lat="43.02948" lon="11.0845367"><ele>508.0</ele><time>2026-05-02T16:15:27.786Z</time></trkpt><trkpt lat="43.0294267" lon="11.0843967"><ele>508.0</ele><time>2026-05-02T16:15:28.786Z</time></trkpt><trkpt lat="43.02937" lon="11.0842617"><ele>508.0</ele><time>2026-05-02T16:15:29.787Z</time></trkpt><trkpt lat="43.0293017" lon="11.0841217"><ele>507.75</ele><time>2026-05-02T16:15:30.787Z</time></trkpt><trkpt lat="43.0292333" lon="11.0839933"><ele>507.5</ele><time>2026-05-02T16:15:31.786Z</time></trkpt><trkpt lat="43.0291617" lon="11.0838717"><ele>507.25</ele><time>2026-05-02T16:15:32.786Z</time></trkpt><trkpt lat="43.02909" lon="11.0837483"><ele>507.0</ele><time>2026-05-02T16:15:33.787Z</time></trkpt><trkpt lat="43.0290217" lon="11.0836267"><ele>507.0</ele><time>2026-05-02T16:15:34.787Z</time></trkpt><trkpt lat="43.028955" lon="11.0835067"><ele>507.00000000000006</ele><time>2026-05-02T16:15:35.786Z</time></trkpt><trkpt lat="43.0288867" lon="11.0833933"><ele>507.00000000000006</ele><time>2026-05-02T16:15:36.786Z</time></trkpt><trkpt lat="43.0288183" lon="11.0832817"><ele>507.0</ele><time>2026-05-02T16:15:37.787Z</time></trkpt><trkpt lat="43.0287517" lon="11.0831683"><ele>507.0</ele><time>2026-05-02T16:15:38.786Z</time></trkpt><trkpt lat="43.0286883" lon="11.0830567"><ele>508.0</ele><time>2026-05-02T16:15:39.787Z</time></trkpt><trkpt lat="43.0286283" lon="11.0829467"><ele>509.00000000000006</ele><time>2026-05-02T16:15:40.787Z</time></trkpt><trkpt lat="43.0285717" lon="11.082835"><ele>510.00000000000006</ele><time>2026-05-02T16:15:41.786Z</time></trkpt><trkpt lat="43.028515" lon="11.082725"><ele>511.0</ele><time>2026-05-02T16:15:42.786Z</time></trkpt><trkpt lat="43.02846" lon="11.08261"><ele>512.0</ele><time>2026-05-02T16:15:43.787Z</time></trkpt><trkpt lat="43.0284117" lon="11.08249"><ele>511.20000000000005</ele><time>2026-05-02T16:15:44.787Z</time></trkpt><trkpt lat="43.02836" lon="11.0823667"><ele>510.40000000000003</ele><time>2026-05-02T16:15:45.786Z</time></trkpt><trkpt lat="43.0283083" lon="11.0822483"><ele>509.59999999999997</ele><time>2026-05-02T16:15:46.786Z</time></trkpt><trkpt lat="43.0282567" lon="11.082135"><ele>508.79999999999995</ele><time>2026-05-02T16:15:47.786Z</time></trkpt><trkpt lat="43.0282067" lon="11.082035"><ele>508.0</ele><time>2026-05-02T16:15:48.786Z</time></trkpt><trkpt lat="43.0281617" lon="11.081945"><ele>508.0</ele><time>2026-05-02T16:15:49.786Z</time></trkpt><trkpt lat="43.028125" lon="11.0818617"><ele>508.0</ele><time>2026-05-02T16:15:50.786Z</time></trkpt><trkpt lat="43.0280883" lon="11.0817833"><ele>508.0</ele><time>2026-05-02T16:15:51.787Z</time></trkpt><trkpt lat="43.0280467" lon="11.0817083"><ele>508.0</ele><time>2026-05-02T16:15:52.788Z</time></trkpt><trkpt lat="43.02801" lon="11.08163"><ele>508.0</ele><time>2026-05-02T16:15:53.788Z</time></trkpt><trkpt lat="43.0279683" lon="11.0815467"><ele>508.0</ele><time>2026-05-02T16:15:54.787Z</time></trkpt><trkpt lat="43.0279267" lon="11.081455"><ele>508.0</ele><time>2026-05-02T16:15:55.788Z</time></trkpt><trkpt lat="43.0278883" lon="11.0813567"><ele>509.00000000000006</ele><time>2026-05-02T16:15:56.786Z</time></trkpt><trkpt lat="43.02785" lon="11.0812483"><ele>510.0</ele><time>2026-05-02T16:15:57.786Z</time></trkpt><trkpt lat="43.027815" lon="11.0811367"><ele>511.0</ele><time>2026-05-02T16:15:58.788Z</time></trkpt><trkpt lat="43.0277883" lon="11.0810233"><ele>512.0</ele><time>2026-05-02T16:15:59.787Z</time></trkpt><trkpt lat="43.0277617" lon="11.0809167"><ele>513.0</ele><time>2026-05-02T16:16:00.786Z</time></trkpt><trkpt lat="43.027735" lon="11.0808133"><ele>514.0</ele><time>2026-05-02T16:16:01.787Z</time></trkpt><trkpt lat="43.0277017" lon="11.08072"><ele>514.5714285714286</ele><time>2026-05-02T16:16:02.786Z</time></trkpt><trkpt lat="43.0276683" lon="11.080635"><ele>515.1428571428571</ele><time>2026-05-02T16:16:03.786Z</time></trkpt><trkpt lat="43.0276367" lon="11.0805533"><ele>515.7142857142858</ele><time>2026-05-02T16:16:04.787Z</time></trkpt><trkpt lat="43.02761" lon="11.0804717"><ele>516.2857142857142</ele><time>2026-05-02T16:16:05.786Z</time></trkpt><trkpt lat="43.027585" lon="11.0803917"><ele>516.8571428571429</ele><time>2026-05-02T16:16:06.788Z</time></trkpt><trkpt lat="43.0275583" lon="11.0803117"><ele>517.4285714285714</ele><time>2026-05-02T16:16:07.787Z</time></trkpt><trkpt lat="43.0275317" lon="11.0802333"><ele>518.0</ele><time>2026-05-02T16:16:08.788Z</time></trkpt><trkpt lat="43.0274983" lon="11.080085"><ele>518.0</ele><time>2026-05-02T16:16:10.789Z</time></trkpt><trkpt lat="43.02751" lon="11.07994"><ele>518.0</ele><time>2026-05-02T16:16:12.786Z</time></trkpt><trkpt lat="43.0275717" lon="11.0798183"><ele>518.0</ele><time>2026-05-02T16:16:14.787Z</time></trkpt><trkpt lat="43.0276217" lon="11.0797417"><ele>518.0</ele><time>2026-05-02T16:16:16.789Z</time></trkpt><trkpt lat="43.0276817" lon="11.0796817"><ele>518.0</ele><time>2026-05-02T16:16:19.789Z</time></trkpt><trkpt lat="43.027745" lon="11.0797083"><ele>518.0</ele><time>2026-05-02T16:16:25.79Z</time></trkpt><trkpt lat="43.0278167" lon="11.079765"><ele>518.0</ele><time>2026-05-02T16:17:19.785Z</time></trkpt><trkpt lat="43.0279183" lon="11.0798583"><ele>518.0</ele><time>2026-05-02T16:17:21.786Z</time></trkpt><trkpt lat="43.0279817" lon="11.079925"><ele>518.0</ele><time>2026-05-02T16:17:22.786Z</time></trkpt><trkpt lat="43.028045" lon="11.0799933"><ele>518.0</ele><time>2026-05-02T16:17:23.785Z</time></trkpt><trkpt lat="43.0281083" lon="11.0800617"><ele>518.0</ele><time>2026-05-02T16:17:24.786Z</time></trkpt><trkpt lat="43.0281633" lon="11.0801267"><ele>518.0</ele><time>2026-05-02T16:17:25.787Z</time></trkpt><trkpt lat="43.0282283" lon="11.080185"><ele>518.0</ele><time>2026-05-02T16:17:26.786Z</time></trkpt><trkpt lat="43.028285" lon="11.080245"><ele>518.0</ele><time>2026-05-02T16:17:27.785Z</time></trkpt><trkpt lat="43.028345" lon="11.080315"><ele>518.0</ele><time>2026-05-02T16:17:28.785Z</time></trkpt><trkpt lat="43.02841" lon="11.0803917"><ele>518.0</ele><time>2026-05-02T16:17:29.785Z</time></trkpt><trkpt lat="43.0284867" lon="11.0804767"><ele>518.0</ele><time>2026-05-02T16:17:30.785Z</time></trkpt><trkpt lat="43.0285633" lon="11.08056"><ele>518.0</ele><time>2026-05-02T16:17:31.785Z</time></trkpt><trkpt lat="43.028635" lon="11.080645"><ele>518.1999999999999</ele><time>2026-05-02T16:17:32.785Z</time></trkpt><trkpt lat="43.02871" lon="11.080725"><ele>518.4</ele><time>2026-05-02T16:17:33.785Z</time></trkpt><trkpt lat="43.0287817" lon="11.0808117"><ele>518.5999999999999</ele><time>2026-05-02T16:17:34.786Z</time></trkpt><trkpt lat="43.0288567" lon="11.0808933"><ele>518.8</ele><time>2026-05-02T16:17:35.786Z</time></trkpt><trkpt lat="43.0289367" lon="11.0809767"><ele>519.0</ele><time>2026-05-02T16:17:36.786Z</time></trkpt><trkpt lat="43.0290133" lon="11.081055"><ele>519.0</ele><time>2026-05-02T16:17:37.785Z</time></trkpt><trkpt lat="43.0290767" lon="11.08112"><ele>519.0</ele><time>2026-05-02T16:17:38.786Z</time></trkpt><trkpt lat="43.0291633" lon="11.0811767"><ele>519.0</ele><time>2026-05-02T16:17:40.789Z</time></trkpt><trkpt lat="43.029265" lon="11.0811617"><ele>519.0</ele><time>2026-05-02T16:17:42.785Z</time></trkpt><trkpt lat="43.0293317" lon="11.0811333"><ele>519.0</ele><time>2026-05-02T16:17:43.786Z</time></trkpt><trkpt lat="43.0294067" lon="11.0810917"><ele>519.0</ele><time>2026-05-02T16:17:44.785Z</time></trkpt><trkpt lat="43.029495" lon="11.08104"><ele>516.8</ele><time>2026-05-02T16:17:45.785Z</time></trkpt><trkpt lat="43.0295967" lon="11.0809683"><ele>514.5999999999999</ele><time>2026-05-02T16:17:46.785Z</time></trkpt><trkpt lat="43.0296983" lon="11.0808967"><ele>512.4</ele><time>2026-05-02T16:17:47.785Z</time></trkpt><trkpt lat="43.029795" lon="11.0808433"><ele>510.2</ele><time>2026-05-02T16:17:48.785Z</time></trkpt><trkpt lat="43.0298783" lon="11.0808083"><ele>508.0</ele><time>2026-05-02T16:17:49.785Z</time></trkpt><trkpt lat="43.0299583" lon="11.08079"><ele>508.79999999999995</ele><time>2026-05-02T16:17:50.786Z</time></trkpt><trkpt lat="43.03004" lon="11.0807867"><ele>509.59999999999997</ele><time>2026-05-02T16:17:51.785Z</time></trkpt><trkpt lat="43.0301233" lon="11.08079"><ele>510.40000000000003</ele><time>2026-05-02T16:17:52.787Z</time></trkpt><trkpt lat="43.030215" lon="11.0808117"><ele>511.20000000000005</ele><time>2026-05-02T16:17:53.787Z</time></trkpt><trkpt lat="43.030325" lon="11.0808433"><ele>512.0</ele><time>2026-05-02T16:17:54.786Z</time></trkpt><trkpt lat="43.0304417" lon="11.0808767"><ele>512.0</ele><time>2026-05-02T16:17:55.785Z</time></trkpt><trkpt lat="43.030565" lon="11.0809117"><ele>512.0</ele><time>2026-05-02T16:17:56.786Z</time></trkpt><trkpt lat="43.030695" lon="11.08095"><ele>512.0</ele><time>2026-05-02T16:17:57.785Z</time></trkpt><trkpt lat="43.0308317" lon="11.08098"><ele>512.0</ele><time>2026-05-02T16:17:58.785Z</time></trkpt><trkpt lat="43.0309717" lon="11.0809967"><ele>510.75</ele><time>2026-05-02T16:17:59.785Z</time></trkpt><trkpt lat="43.0311083" lon="11.08098"><ele>509.5</ele><time>2026-05-02T16:18:00.786Z</time></trkpt><trkpt lat="43.03124" lon="11.0809267"><ele>508.25</ele><time>2026-05-02T16:18:01.785Z</time></trkpt><trkpt lat="43.0313533" lon="11.080845"><ele>507.0</ele><time>2026-05-02T16:18:02.786Z</time></trkpt><trkpt lat="43.0314383" lon="11.080725"><ele>503.5</ele><time>2026-05-02T16:18:03.787Z</time></trkpt><trkpt lat="43.03149" lon="11.0805633"><ele>500.0</ele><time>2026-05-02T16:18:04.786Z</time></trkpt><trkpt lat="43.0315183" lon="11.080375"><ele>496.5</ele><time>2026-05-02T16:18:05.786Z</time></trkpt><trkpt lat="43.0315533" lon="11.0801733"><ele>493.0</ele><time>2026-05-02T16:18:06.786Z</time></trkpt><trkpt lat="43.031605" lon="11.0799783"><ele>492.6666666666667</ele><time>2026-05-02T16:18:07.786Z</time></trkpt><trkpt lat="43.0316767" lon="11.0797917"><ele>492.33333333333337</ele><time>2026-05-02T16:18:08.787Z</time></trkpt><trkpt lat="43.031775" lon="11.079625"><ele>492.0</ele><time>2026-05-02T16:18:09.785Z</time></trkpt><trkpt lat="43.0319" lon="11.07948"><ele>492.0</ele><time>2026-05-02T16:18:10.786Z</time></trkpt><trkpt lat="43.0320417" lon="11.0793467"><ele>492.0</ele><time>2026-05-02T16:18:11.786Z</time></trkpt><trkpt lat="43.032185" lon="11.0792117"><ele>492.0</ele><time>2026-05-02T16:18:12.786Z</time></trkpt><trkpt lat="43.03231" lon="11.0790633"><ele>494.33333333333337</ele><time>2026-05-02T16:18:13.785Z</time></trkpt><trkpt lat="43.0324" lon="11.0788867"><ele>496.6666666666667</ele><time>2026-05-02T16:18:14.786Z</time></trkpt><trkpt lat="43.0324617" lon="11.0786867"><ele>499.0</ele><time>2026-05-02T16:18:15.788Z</time></trkpt><trkpt lat="43.032475" lon="11.0784467"><ele>490.0</ele><time>2026-05-02T16:18:16.785Z</time></trkpt><trkpt lat="43.0324683" lon="11.0781933"><ele>481.0</ele><time>2026-05-02T16:18:17.789Z</time></trkpt><trkpt lat="43.0324533" lon="11.0779483"><ele>472.0</ele><time>2026-05-02T16:18:18.788Z</time></trkpt><trkpt lat="43.0324433" lon="11.0777167"><ele>472.0</ele><time>2026-05-02T16:18:19.789Z</time></trkpt><trkpt lat="43.0324517" lon="11.0775"><ele>472.0</ele><time>2026-05-02T16:18:20.788Z</time></trkpt><trkpt lat="43.0324783" lon="11.0773017"><ele>472.0</ele><time>2026-05-02T16:18:21.785Z</time></trkpt><trkpt lat="43.0325283" lon="11.07713"><ele>472.0</ele><time>2026-05-02T16:18:22.785Z</time></trkpt><trkpt lat="43.0326033" lon="11.077"><ele>474.75</ele><time>2026-05-02T16:18:23.786Z</time></trkpt><trkpt lat="43.0326967" lon="11.0769167"><ele>477.5</ele><time>2026-05-02T16:18:24.785Z</time></trkpt><trkpt lat="43.03281" lon="11.0768783"><ele>480.25</ele><time>2026-05-02T16:18:25.788Z</time></trkpt><trkpt lat="43.0329517" lon="11.0768683"><ele>483.0</ele><time>2026-05-02T16:18:26.785Z</time></trkpt><trkpt lat="43.0331083" lon="11.0768467"><ele>483.0</ele><time>2026-05-02T16:18:27.786Z</time></trkpt><trkpt lat="43.0332583" lon="11.0767967"><ele>483.0</ele><time>2026-05-02T16:18:28.786Z</time></trkpt><trkpt lat="43.0333883" lon="11.0767233"><ele>483.0</ele><time>2026-05-02T16:18:29.786Z</time></trkpt><trkpt lat="43.0334917" lon="11.0766317"><ele>483.0</ele><time>2026-05-02T16:18:30.785Z</time></trkpt><trkpt lat="43.0335633" lon="11.0765017"><ele>484.0</ele><time>2026-05-02T16:18:31.788Z</time></trkpt><trkpt lat="43.0336017" lon="11.0763433"><ele>485.0</ele><time>2026-05-02T16:18:32.789Z</time></trkpt><trkpt lat="43.0335967" lon="11.0761467"><ele>486.0</ele><time>2026-05-02T16:18:33.788Z</time></trkpt><trkpt lat="43.0335533" lon="11.07593"><ele>487.0</ele><time>2026-05-02T16:18:34.788Z</time></trkpt><trkpt lat="43.0334883" lon="11.0757283"><ele>487.25</ele><time>2026-05-02T16:18:35.788Z</time></trkpt><trkpt lat="43.0334217" lon="11.0755417"><ele>487.5</ele><time>2026-05-02T16:18:36.788Z</time></trkpt><trkpt lat="43.0333733" lon="11.075365"><ele>487.75</ele><time>2026-05-02T16:18:37.788Z</time></trkpt><trkpt lat="43.0333483" lon="11.0751833"><ele>488.0</ele><time>2026-05-02T16:18:38.789Z</time></trkpt><trkpt lat="43.033355" lon="11.07499"><ele>487.0</ele><time>2026-05-02T16:18:39.785Z</time></trkpt><trkpt lat="43.03339" lon="11.0747817"><ele>486.0</ele><time>2026-05-02T16:18:40.786Z</time></trkpt><trkpt lat="43.0334417" lon="11.0745633"><ele>485.0</ele><time>2026-05-02T16:18:41.789Z</time></trkpt><trkpt lat="43.0335033" lon="11.0743417"><ele>485.0</ele><time>2026-05-02T16:18:42.788Z</time></trkpt><trkpt lat="43.0335767" lon="11.07413"><ele>485.0</ele><time>2026-05-02T16:18:43.788Z</time></trkpt><trkpt lat="43.033655" lon="11.0739217"><ele>485.0</ele><time>2026-05-02T16:18:44.789Z</time></trkpt><trkpt lat="43.0337483" lon="11.0737133"><ele>481.0</ele><time>2026-05-02T16:18:45.785Z</time></trkpt><trkpt lat="43.0338467" lon="11.0735117"><ele>477.0</ele><time>2026-05-02T16:18:46.79Z</time></trkpt><trkpt lat="43.03395" lon="11.0733083"><ele>473.0</ele><time>2026-05-02T16:18:47.789Z</time></trkpt><trkpt lat="43.0340517" lon="11.0731017"><ele>477.0</ele><time>2026-05-02T16:18:48.789Z</time></trkpt><trkpt lat="43.0341483" lon="11.0728983"><ele>481.0</ele><time>2026-05-02T16:18:49.789Z</time></trkpt><trkpt lat="43.0342417" lon="11.0727067"><ele>485.0</ele><time>2026-05-02T16:18:50.789Z</time></trkpt><trkpt lat="43.0343317" lon="11.07252"><ele>480.3333333333333</ele><time>2026-05-02T16:18:51.785Z</time></trkpt><trkpt lat="43.03442" lon="11.07234"><ele>475.66666666666663</ele><time>2026-05-02T16:18:52.785Z</time></trkpt><trkpt lat="43.0345267" lon="11.0721833"><ele>471.0</ele><time>2026-05-02T16:18:53.786Z</time></trkpt><trkpt lat="43.0346533" lon="11.0720517"><ele>471.0</ele><time>2026-05-02T16:18:54.785Z</time></trkpt><trkpt lat="43.0347883" lon="11.07192"><ele>471.0</ele><time>2026-05-02T16:18:55.786Z</time></trkpt><trkpt lat="43.0349167" lon="11.0717817"><ele>471.0</ele><time>2026-05-02T16:18:56.785Z</time></trkpt><trkpt lat="43.0350217" lon="11.071605"><ele>473.0</ele><time>2026-05-02T16:18:57.786Z</time></trkpt><trkpt lat="43.0351033" lon="11.0713883"><ele>475.0</ele><time>2026-05-02T16:18:58.787Z</time></trkpt><trkpt lat="43.035155" lon="11.0711433"><ele>477.0</ele><time>2026-05-02T16:18:59.786Z</time></trkpt><trkpt lat="43.0351867" lon="11.0708883"><ele>477.0</ele><time>2026-05-02T16:19:00.786Z</time></trkpt><trkpt lat="43.0351933" lon="11.0706267"><ele>477.0</ele><time>2026-05-02T16:19:01.79Z</time></trkpt><trkpt lat="43.0351733" lon="11.070365"><ele>477.0</ele><time>2026-05-02T16:19:02.787Z</time></trkpt><trkpt lat="43.0351467" lon="11.070105"><ele>478.0</ele><time>2026-05-02T16:19:03.786Z</time></trkpt><trkpt lat="43.0351267" lon="11.0698617"><ele>479.0</ele><time>2026-05-02T16:19:04.79Z</time></trkpt><trkpt lat="43.035105" lon="11.0696233"><ele>480.0</ele><time>2026-05-02T16:19:05.787Z</time></trkpt><trkpt lat="43.03507" lon="11.0693983"><ele>480.0</ele><time>2026-05-02T16:19:06.789Z</time></trkpt><trkpt lat="43.0350017" lon="11.0692"><ele>480.0</ele><time>2026-05-02T16:19:07.788Z</time></trkpt><trkpt lat="43.03491" lon="11.0690317"><ele>480.0</ele><time>2026-05-02T16:19:08.787Z</time></trkpt><trkpt lat="43.0347967" lon="11.0689017"><ele>476.75</ele><time>2026-05-02T16:19:09.789Z</time></trkpt><trkpt lat="43.0346717" lon="11.0687933"><ele>473.5</ele><time>2026-05-02T16:19:10.788Z</time></trkpt><trkpt lat="43.0345517" lon="11.0686933"><ele>470.25</ele><time>2026-05-02T16:19:11.789Z</time></trkpt><trkpt lat="43.0344533" lon="11.068575"><ele>467.0</ele><time>2026-05-02T16:19:12.788Z</time></trkpt><trkpt lat="43.0343717" lon="11.0684517"><ele>467.0</ele><time>2026-05-02T16:19:13.79Z</time></trkpt><trkpt lat="43.0343283" lon="11.0682967"><ele>467.0</ele><time>2026-05-02T16:19:14.789Z</time></trkpt><trkpt lat="43.0343183" lon="11.0681367"><ele>467.0</ele><time>2026-05-02T16:19:15.789Z</time></trkpt><trkpt lat="43.0343433" lon="11.0679867"><ele>467.0</ele><time>2026-05-02T16:19:16.789Z</time></trkpt><trkpt lat="43.0344033" lon="11.0678667"><ele>466.6</ele><time>2026-05-02T16:19:17.786Z</time></trkpt><trkpt lat="43.0344817" lon="11.0677817"><ele>466.20000000000005</ele><time>2026-05-02T16:19:18.786Z</time></trkpt><trkpt lat="43.0345667" lon="11.0676983"><ele>465.8</ele><time>2026-05-02T16:19:19.79Z</time></trkpt><trkpt lat="43.0346467" lon="11.06758"><ele>465.4</ele><time>2026-05-02T16:19:20.79Z</time></trkpt><trkpt lat="43.0347133" lon="11.0674333"><ele>465.0</ele><time>2026-05-02T16:19:21.788Z</time></trkpt><trkpt lat="43.0347633" lon="11.0672617"><ele>465.0</ele><time>2026-05-02T16:19:22.789Z</time></trkpt><trkpt lat="43.0347717" lon="11.0670733"><ele>465.0</ele><time>2026-05-02T16:19:23.79Z</time></trkpt><trkpt lat="43.03473" lon="11.0669"><ele>465.0</ele><time>2026-05-02T16:19:24.788Z</time></trkpt><trkpt lat="43.0346483" lon="11.0667367"><ele>465.0</ele><time>2026-05-02T16:19:25.79Z</time></trkpt><trkpt lat="43.0345467" lon="11.066585"><ele>468.66666666666663</ele><time>2026-05-02T16:19:26.79Z</time></trkpt><trkpt lat="43.0344317" lon="11.066445"><ele>472.3333333333333</ele><time>2026-05-02T16:19:27.789Z</time></trkpt><trkpt lat="43.0343167" lon="11.0663017"><ele>476.0</ele><time>2026-05-02T16:19:28.789Z</time></trkpt><trkpt lat="43.0341983" lon="11.0661683"><ele>473.75</ele><time>2026-05-02T16:19:29.79Z</time></trkpt><trkpt lat="43.0340883" lon="11.066045"><ele>471.5</ele><time>2026-05-02T16:19:30.789Z</time></trkpt><trkpt lat="43.0339833" lon="11.065935"><ele>469.25</ele><time>2026-05-02T16:19:31.79Z</time></trkpt><trkpt lat="43.03388" lon="11.065835"><ele>467.0</ele><time>2026-05-02T16:19:32.788Z</time></trkpt><trkpt lat="43.0337767" lon="11.06574"><ele>467.0</ele><time>2026-05-02T16:19:33.785Z</time></trkpt><trkpt lat="43.0336783" lon="11.0656367"><ele>467.00000000000006</ele><time>2026-05-02T16:19:34.79Z</time></trkpt><trkpt lat="43.0335867" lon="11.0655333"><ele>467.00000000000006</ele><time>2026-05-02T16:19:35.79Z</time></trkpt><trkpt lat="43.0335067" lon="11.065435"><ele>467.0</ele><time>2026-05-02T16:19:36.788Z</time></trkpt><trkpt lat="43.0334467" lon="11.0653433"><ele>467.0</ele><time>2026-05-02T16:19:37.789Z</time></trkpt><trkpt lat="43.0333983" lon="11.0652567"><ele>467.0</ele><time>2026-05-02T16:19:38.789Z</time></trkpt><trkpt lat="43.03335" lon="11.0651633"><ele>467.00000000000006</ele><time>2026-05-02T16:19:39.789Z</time></trkpt><trkpt lat="43.0333033" lon="11.0650483"><ele>467.00000000000006</ele><time>2026-05-02T16:19:40.789Z</time></trkpt><trkpt lat="43.0332633" lon="11.064915"><ele>467.0</ele><time>2026-05-02T16:19:41.79Z</time></trkpt><trkpt lat="43.0332167" lon="11.064765"><ele>467.0</ele><time>2026-05-02T16:19:42.79Z</time></trkpt><trkpt lat="43.0331483" lon="11.064605"><ele>467.75</ele><time>2026-05-02T16:19:43.789Z</time></trkpt><trkpt lat="43.0330617" lon="11.06445"><ele>468.5</ele><time>2026-05-02T16:19:44.789Z</time></trkpt><trkpt lat="43.032955" lon="11.06431"><ele>469.25</ele><time>2026-05-02T16:19:45.789Z</time></trkpt><trkpt lat="43.03283" lon="11.064185"><ele>470.0</ele><time>2026-05-02T16:19:46.789Z</time></trkpt><trkpt lat="43.0326933" lon="11.0640667"><ele>468.3333333333333</ele><time>2026-05-02T16:19:47.789Z</time></trkpt><trkpt lat="43.03256" lon="11.06395"><ele>466.66666666666663</ele><time>2026-05-02T16:19:48.79Z</time></trkpt><trkpt lat="43.0324367" lon="11.0638283"><ele>465.0</ele><time>2026-05-02T16:19:49.789Z</time></trkpt><trkpt lat="43.0323283" lon="11.06368"><ele>465.0</ele><time>2026-05-02T16:19:50.789Z</time></trkpt><trkpt lat="43.0322267" lon="11.06351"><ele>465.0</ele><time>2026-05-02T16:19:51.789Z</time></trkpt><trkpt lat="43.0321283" lon="11.063325"><ele>465.0</ele><time>2026-05-02T16:19:52.789Z</time></trkpt><trkpt lat="43.032035" lon="11.063135"><ele>466.66666666666663</ele><time>2026-05-02T16:19:53.79Z</time></trkpt><trkpt lat="43.0319517" lon="11.0629267"><ele>468.3333333333333</ele><time>2026-05-02T16:19:54.789Z</time></trkpt><trkpt lat="43.03187" lon="11.062705"><ele>470.0</ele><time>2026-05-02T16:19:55.789Z</time></trkpt><trkpt lat="43.03179" lon="11.0624833"><ele>470.66666666666663</ele><time>2026-05-02T16:19:56.786Z</time></trkpt><trkpt lat="43.0317167" lon="11.0622733"><ele>471.33333333333337</ele><time>2026-05-02T16:19:57.786Z</time></trkpt><trkpt lat="43.0316433" lon="11.0620767"><ele>472.0</ele><time>2026-05-02T16:19:58.786Z</time></trkpt><trkpt lat="43.0315567" lon="11.061905"><ele>473.33333333333337</ele><time>2026-05-02T16:19:59.787Z</time></trkpt><trkpt lat="43.0314567" lon="11.0617617"><ele>474.66666666666663</ele><time>2026-05-02T16:20:00.785Z</time></trkpt><trkpt lat="43.031335" lon="11.0616483"><ele>476.0</ele><time>2026-05-02T16:20:01.787Z</time></trkpt><trkpt lat="43.031185" lon="11.061565"><ele>480.66666666666663</ele><time>2026-05-02T16:20:02.789Z</time></trkpt><trkpt lat="43.0310217" lon="11.061505"><ele>485.33333333333337</ele><time>2026-05-02T16:20:03.79Z</time></trkpt><trkpt lat="43.0308683" lon="11.0614517"><ele>490.0</ele><time>2026-05-02T16:20:04.79Z</time></trkpt><trkpt lat="43.0307267" lon="11.06141"><ele>490.25</ele><time>2026-05-02T16:20:05.789Z</time></trkpt><trkpt lat="43.0305933" lon="11.06139"><ele>490.5</ele><time>2026-05-02T16:20:06.789Z</time></trkpt><trkpt lat="43.0304533" lon="11.0614117"><ele>490.75</ele><time>2026-05-02T16:20:07.79Z</time></trkpt><trkpt lat="43.0303117" lon="11.0614783"><ele>491.0</ele><time>2026-05-02T16:20:08.79Z</time></trkpt><trkpt lat="43.0301783" lon="11.06157"><ele>489.5</ele><time>2026-05-02T16:20:09.789Z</time></trkpt><trkpt lat="43.0300467" lon="11.061655"><ele>488.0</ele><time>2026-05-02T16:20:10.789Z</time></trkpt><trkpt lat="43.0299167" lon="11.0617133"><ele>486.5</ele><time>2026-05-02T16:20:11.789Z</time></trkpt><trkpt lat="43.02978" lon="11.0617433"><ele>485.0</ele><time>2026-05-02T16:20:12.785Z</time></trkpt><trkpt lat="43.029635" lon="11.0617383"><ele>484.5</ele><time>2026-05-02T16:20:13.786Z</time></trkpt><trkpt lat="43.0295033" lon="11.0616967"><ele>484.0</ele><time>2026-05-02T16:20:14.789Z</time></trkpt><trkpt lat="43.0293867" lon="11.0616217"><ele>483.5</ele><time>2026-05-02T16:20:15.786Z</time></trkpt><trkpt lat="43.0292933" lon="11.0615033"><ele>483.0</ele><time>2026-05-02T16:20:16.789Z</time></trkpt><trkpt lat="43.0292167" lon="11.0613517"><ele>484.33333333333337</ele><time>2026-05-02T16:20:17.79Z</time></trkpt><trkpt lat="43.0291383" lon="11.0611817"><ele>485.6666666666667</ele><time>2026-05-02T16:20:18.789Z</time></trkpt><trkpt lat="43.029045" lon="11.0610067"><ele>487.0</ele><time>2026-05-02T16:20:19.789Z</time></trkpt><trkpt lat="43.02894" lon="11.0608333"><ele>485.6666666666667</ele><time>2026-05-02T16:20:20.789Z</time></trkpt><trkpt lat="43.02882" lon="11.06067"><ele>484.33333333333337</ele><time>2026-05-02T16:20:21.79Z</time></trkpt><trkpt lat="43.0286817" lon="11.0605217"><ele>483.0</ele><time>2026-05-02T16:20:22.789Z</time></trkpt><trkpt lat="43.0285317" lon="11.0603767"><ele>483.0</ele><time>2026-05-02T16:20:23.79Z</time></trkpt><trkpt lat="43.0283783" lon="11.0602183"><ele>483.0</ele><time>2026-05-02T16:20:24.789Z</time></trkpt><trkpt lat="43.0282133" lon="11.0600567"><ele>483.0</ele><time>2026-05-02T16:20:25.789Z</time></trkpt><trkpt lat="43.0280517" lon="11.0598967"><ele>481.33333333333337</ele><time>2026-05-02T16:20:26.786Z</time></trkpt><trkpt lat="43.0278933" lon="11.05974"><ele>479.6666666666667</ele><time>2026-05-02T16:20:27.787Z</time></trkpt><trkpt lat="43.027735" lon="11.0595733"><ele>478.0</ele><time>2026-05-02T16:20:28.787Z</time></trkpt><trkpt lat="43.0275867" lon="11.0594"><ele>478.33333333333337</ele><time>2026-05-02T16:20:29.787Z</time></trkpt><trkpt lat="43.02744" lon="11.0592333"><ele>478.66666666666663</ele><time>2026-05-02T16:20:30.786Z</time></trkpt><trkpt lat="43.027305" lon="11.0590783"><ele>479.0</ele><time>2026-05-02T16:20:31.786Z</time></trkpt><trkpt lat="43.027175" lon="11.0589417"><ele>479.0</ele><time>2026-05-02T16:20:32.787Z</time></trkpt><trkpt lat="43.0270583" lon="11.0588167"><ele>479.0</ele><time>2026-05-02T16:20:33.791Z</time></trkpt><trkpt lat="43.0269533" lon="11.05869"><ele>479.0</ele><time>2026-05-02T16:20:34.789Z</time></trkpt><trkpt lat="43.0268733" lon="11.0585583"><ele>479.0</ele><time>2026-05-02T16:20:35.79Z</time></trkpt><trkpt lat="43.0268267" lon="11.0584133"><ele>480.75</ele><time>2026-05-02T16:20:36.787Z</time></trkpt><trkpt lat="43.0268117" lon="11.05825"><ele>482.5</ele><time>2026-05-02T16:20:37.789Z</time></trkpt><trkpt lat="43.0268033" lon="11.0580733"><ele>484.25</ele><time>2026-05-02T16:20:38.787Z</time></trkpt><trkpt lat="43.02677" lon="11.0578983"><ele>486.0</ele><time>2026-05-02T16:20:39.79Z</time></trkpt><trkpt lat="43.0267083" lon="11.05773"><ele>485.0</ele><time>2026-05-02T16:20:40.789Z</time></trkpt><trkpt lat="43.02661" lon="11.0575867"><ele>484.0</ele><time>2026-05-02T16:20:41.79Z</time></trkpt><trkpt lat="43.0264817" lon="11.05749"><ele>483.0</ele><time>2026-05-02T16:20:42.789Z</time></trkpt><trkpt lat="43.0263533" lon="11.0574183"><ele>482.0</ele><time>2026-05-02T16:20:43.789Z</time></trkpt><trkpt lat="43.0262217" lon="11.057355"><ele>482.0</ele><time>2026-05-02T16:20:44.787Z</time></trkpt><trkpt lat="43.0261" lon="11.0572633"><ele>482.0</ele><time>2026-05-02T16:20:45.787Z</time></trkpt><trkpt lat="43.025985" lon="11.05713"><ele>482.0</ele><time>2026-05-02T16:20:46.786Z</time></trkpt><trkpt lat="43.02588" lon="11.05696"><ele>479.25</ele><time>2026-05-02T16:20:47.79Z</time></trkpt><trkpt lat="43.0257867" lon="11.0567833"><ele>476.5</ele><time>2026-05-02T16:20:48.79Z</time></trkpt><trkpt lat="43.02571" lon="11.0566117"><ele>473.75</ele><time>2026-05-02T16:20:49.789Z</time></trkpt><trkpt lat="43.025655" lon="11.0564433"><ele>471.0</ele><time>2026-05-02T16:20:50.79Z</time></trkpt><trkpt lat="43.0256367" lon="11.0562817"><ele>471.0</ele><time>2026-05-02T16:20:51.789Z</time></trkpt><trkpt lat="43.02565" lon="11.0561217"><ele>471.0</ele><time>2026-05-02T16:20:52.786Z</time></trkpt><trkpt lat="43.0256883" lon="11.0559767"><ele>471.0</ele><time>2026-05-02T16:20:53.786Z</time></trkpt><trkpt lat="43.0257717" lon="11.055855"><ele>471.0</ele><time>2026-05-02T16:20:54.787Z</time></trkpt><trkpt lat="43.0258367" lon="11.0557467"><ele>473.6</ele><time>2026-05-02T16:20:55.79Z</time></trkpt><trkpt lat="43.02588" lon="11.05562"><ele>476.20000000000005</ele><time>2026-05-02T16:20:56.787Z</time></trkpt><trkpt lat="43.0258833" lon="11.0554967"><ele>478.79999999999995</ele><time>2026-05-02T16:20:57.786Z</time></trkpt><trkpt lat="43.02585" lon="11.055375"><ele>481.4</ele><time>2026-05-02T16:20:58.787Z</time></trkpt><trkpt lat="43.0257867" lon="11.0552517"><ele>484.0</ele><time>2026-05-02T16:20:59.786Z</time></trkpt><trkpt lat="43.0256933" lon="11.0551167"><ele>484.0</ele><time>2026-05-02T16:21:00.786Z</time></trkpt><trkpt lat="43.0255817" lon="11.054995"><ele>484.0</ele><time>2026-05-02T16:21:01.785Z</time></trkpt><trkpt lat="43.0254467" lon="11.0548933"><ele>484.0</ele><time>2026-05-02T16:21:02.787Z</time></trkpt><trkpt lat="43.0253" lon="11.0548217"><ele>489.0</ele><time>2026-05-02T16:21:03.788Z</time></trkpt><trkpt lat="43.0251467" lon="11.0547633"><ele>494.0</ele><time>2026-05-02T16:21:04.788Z</time></trkpt><trkpt lat="43.0249833" lon="11.0547167"><ele>499.0</ele><time>2026-05-02T16:21:05.788Z</time></trkpt><trkpt lat="43.0248233" lon="11.054675"><ele>499.0</ele><time>2026-05-02T16:21:06.788Z</time></trkpt><trkpt lat="43.0246583" lon="11.0546583"><ele>499.0</ele><time>2026-05-02T16:21:07.788Z</time></trkpt><trkpt lat="43.0245" lon="11.05467"><ele>499.0</ele><time>2026-05-02T16:21:08.788Z</time></trkpt><trkpt lat="43.0243417" lon="11.0547067"><ele>499.0</ele><time>2026-05-02T16:21:09.789Z</time></trkpt><trkpt lat="43.0241967" lon="11.0547517"><ele>499.0</ele><time>2026-05-02T16:21:10.788Z</time></trkpt><trkpt lat="43.02405" lon="11.05479"><ele>499.0</ele><time>2026-05-02T16:21:11.786Z</time></trkpt><trkpt lat="43.0239117" lon="11.054805"><ele>499.0</ele><time>2026-05-02T16:21:12.789Z</time></trkpt><trkpt lat="43.0237933" lon="11.05478"><ele>497.0</ele><time>2026-05-02T16:21:13.788Z</time></trkpt><trkpt lat="43.02369" lon="11.0547483"><ele>495.0</ele><time>2026-05-02T16:21:14.788Z</time></trkpt><trkpt lat="43.0236033" lon="11.0547"><ele>493.0</ele><time>2026-05-02T16:21:15.789Z</time></trkpt><trkpt lat="43.02353" lon="11.0546367"><ele>491.0</ele><time>2026-05-02T16:21:16.788Z</time></trkpt><trkpt lat="43.0234633" lon="11.0545533"><ele>489.0</ele><time>2026-05-02T16:21:17.786Z</time></trkpt><trkpt lat="43.023405" lon="11.0544617"><ele>489.0</ele><time>2026-05-02T16:21:18.788Z</time></trkpt><trkpt lat="43.0233633" lon="11.05435"><ele>489.0</ele><time>2026-05-02T16:21:19.788Z</time></trkpt><trkpt lat="43.023325" lon="11.0542267"><ele>489.0</ele><time>2026-05-02T16:21:20.785Z</time></trkpt><trkpt lat="43.023285" lon="11.0540917"><ele>489.0</ele><time>2026-05-02T16:21:21.785Z</time></trkpt><trkpt lat="43.02325" lon="11.0539417"><ele>489.0</ele><time>2026-05-02T16:21:22.786Z</time></trkpt><trkpt lat="43.0232117" lon="11.0537733"><ele>484.5</ele><time>2026-05-02T16:21:23.788Z</time></trkpt><trkpt lat="43.02317" lon="11.0535917"><ele>480.0</ele><time>2026-05-02T16:21:24.789Z</time></trkpt><trkpt lat="43.023135" lon="11.0534033"><ele>475.5</ele><time>2026-05-02T16:21:25.79Z</time></trkpt><trkpt lat="43.0231067" lon="11.05321"><ele>471.0</ele><time>2026-05-02T16:21:26.785Z</time></trkpt><trkpt lat="43.023085" lon="11.05302"><ele>470.0</ele><time>2026-05-02T16:21:27.788Z</time></trkpt><trkpt lat="43.023065" lon="11.052845"><ele>469.0</ele><time>2026-05-02T16:21:28.786Z</time></trkpt><trkpt lat="43.0230517" lon="11.052685"><ele>468.0</ele><time>2026-05-02T16:21:29.789Z</time></trkpt><trkpt lat="43.0230533" lon="11.0525333"><ele>467.0</ele><time>2026-05-02T16:21:30.786Z</time></trkpt><trkpt lat="43.0230783" lon="11.05238"><ele>465.25</ele><time>2026-05-02T16:21:31.787Z</time></trkpt><trkpt lat="43.0231183" lon="11.052225"><ele>463.5</ele><time>2026-05-02T16:21:32.788Z</time></trkpt><trkpt lat="43.02318" lon="11.052075"><ele>461.75</ele><time>2026-05-02T16:21:33.786Z</time></trkpt><trkpt lat="43.0232667" lon="11.0519383"><ele>460.0</ele><time>2026-05-02T16:21:34.787Z</time></trkpt><trkpt lat="43.023355" lon="11.0517967"><ele>460.5</ele><time>2026-05-02T16:21:35.788Z</time></trkpt><trkpt lat="43.023445" lon="11.0516583"><ele>461.0</ele><time>2026-05-02T16:21:36.788Z</time></trkpt><trkpt lat="43.0235333" lon="11.0515233"><ele>461.5</ele><time>2026-05-02T16:21:37.785Z</time></trkpt><trkpt lat="43.0236233" lon="11.0513983"><ele>462.0</ele><time>2026-05-02T16:21:38.787Z</time></trkpt><trkpt lat="43.02373" lon="11.051315"><ele>462.0</ele><time>2026-05-02T16:21:39.786Z</time></trkpt><trkpt lat="43.0238483" lon="11.0512533"><ele>462.0</ele><time>2026-05-02T16:21:40.786Z</time></trkpt><trkpt lat="43.0239733" lon="11.0512167"><ele>462.0</ele><time>2026-05-02T16:21:41.788Z</time></trkpt><trkpt lat="43.0240883" lon="11.051175"><ele>462.0</ele><time>2026-05-02T16:21:42.785Z</time></trkpt><trkpt lat="43.0241917" lon="11.0511083"><ele>463.5</ele><time>2026-05-02T16:21:43.786Z</time></trkpt><trkpt lat="43.0242667" lon="11.0509967"><ele>465.0</ele><time>2026-05-02T16:21:44.786Z</time></trkpt><trkpt lat="43.0242983" lon="11.0508433"><ele>466.5</ele><time>2026-05-02T16:21:45.788Z</time></trkpt><trkpt lat="43.02432" lon="11.0506867"><ele>468.0</ele><time>2026-05-02T16:21:46.788Z</time></trkpt><trkpt lat="43.02436" lon="11.050545"><ele>468.0</ele><time>2026-05-02T16:21:47.787Z</time></trkpt><trkpt lat="43.02443" lon="11.0504033"><ele>468.0</ele><time>2026-05-02T16:21:48.787Z</time></trkpt><trkpt lat="43.0245333" lon="11.0502817"><ele>468.0</ele><time>2026-05-02T16:21:49.786Z</time></trkpt><trkpt lat="43.0246433" lon="11.0501667"><ele>468.0</ele><time>2026-05-02T16:21:50.786Z</time></trkpt><trkpt lat="43.0247567" lon="11.0500383"><ele>471.0</ele><time>2026-05-02T16:21:51.786Z</time></trkpt><trkpt lat="43.024855" lon="11.0498917"><ele>474.0</ele><time>2026-05-02T16:21:52.786Z</time></trkpt><trkpt lat="43.0249433" lon="11.0497183"><ele>477.0</ele><time>2026-05-02T16:21:53.787Z</time></trkpt><trkpt lat="43.0250283" lon="11.04952"><ele>477.0</ele><time>2026-05-02T16:21:54.788Z</time></trkpt><trkpt lat="43.025105" lon="11.049315"><ele>477.0</ele><time>2026-05-02T16:21:55.788Z</time></trkpt><trkpt lat="43.025165" lon="11.04912"><ele>477.0</ele><time>2026-05-02T16:21:56.785Z</time></trkpt><trkpt lat="43.0252" lon="11.0489333"><ele>476.0</ele><time>2026-05-02T16:21:57.786Z</time></trkpt><trkpt lat="43.0252083" lon="11.0487533"><ele>475.0</ele><time>2026-05-02T16:21:58.786Z</time></trkpt><trkpt lat="43.025185" lon="11.0485667"><ele>474.0</ele><time>2026-05-02T16:21:59.787Z</time></trkpt><trkpt lat="43.0251367" lon="11.04838"><ele>473.0</ele><time>2026-05-02T16:22:00.785Z</time></trkpt><trkpt lat="43.0250883" lon="11.04818"><ele>472.66666666666663</ele><time>2026-05-02T16:22:01.786Z</time></trkpt><trkpt lat="43.025055" lon="11.0479633"><ele>472.33333333333337</ele><time>2026-05-02T16:22:02.786Z</time></trkpt><trkpt lat="43.0250317" lon="11.0477283"><ele>472.0</ele><time>2026-05-02T16:22:03.788Z</time></trkpt><trkpt lat="43.02501" lon="11.0474817"><ele>472.33333333333337</ele><time>2026-05-02T16:22:04.788Z</time></trkpt><trkpt lat="43.02499" lon="11.04723"><ele>472.66666666666663</ele><time>2026-05-02T16:22:05.789Z</time></trkpt><trkpt lat="43.0249633" lon="11.0469783"><ele>473.0</ele><time>2026-05-02T16:22:06.789Z</time></trkpt><trkpt lat="43.0249333" lon="11.04673"><ele>467.0</ele><time>2026-05-02T16:22:07.788Z</time></trkpt><trkpt lat="43.0249033" lon="11.0464917"><ele>461.0</ele><time>2026-05-02T16:22:08.787Z</time></trkpt><trkpt lat="43.0248767" lon="11.0462733"><ele>455.0</ele><time>2026-05-02T16:22:09.789Z</time></trkpt><trkpt lat="43.0248567" lon="11.0460683"><ele>455.0</ele><time>2026-05-02T16:22:10.788Z</time></trkpt><trkpt lat="43.0248467" lon="11.045895"><ele>455.0</ele><time>2026-05-02T16:22:11.789Z</time></trkpt><trkpt lat="43.0248517" lon="11.0457517"><ele>455.0</ele><time>2026-05-02T16:22:12.791Z</time></trkpt><trkpt lat="43.0248983" lon="11.045645"><ele>455.0</ele><time>2026-05-02T16:22:13.789Z</time></trkpt><trkpt lat="43.024955" lon="11.04557"><ele>455.0</ele><time>2026-05-02T16:22:14.788Z</time></trkpt><trkpt lat="43.0250333" lon="11.0455333"><ele>455.25</ele><time>2026-05-02T16:22:15.789Z</time></trkpt><trkpt lat="43.0251217" lon="11.0455483"><ele>455.5</ele><time>2026-05-02T16:22:16.789Z</time></trkpt><trkpt lat="43.0252317" lon="11.04563"><ele>455.75</ele><time>2026-05-02T16:22:17.79Z</time></trkpt><trkpt lat="43.0253633" lon="11.0456917"><ele>456.0</ele><time>2026-05-02T16:22:18.788Z</time></trkpt><trkpt lat="43.0255083" lon="11.0457217"><ele>456.0</ele><time>2026-05-02T16:22:19.789Z</time></trkpt><trkpt lat="43.0256517" lon="11.0456983"><ele>456.0</ele><time>2026-05-02T16:22:20.79Z</time></trkpt><trkpt lat="43.0257933" lon="11.0456333"><ele>456.0</ele><time>2026-05-02T16:22:21.788Z</time></trkpt><trkpt lat="43.0259333" lon="11.0455533"><ele>456.0</ele><time>2026-05-02T16:22:22.789Z</time></trkpt><trkpt lat="43.0260617" lon="11.0454567"><ele>456.5</ele><time>2026-05-02T16:22:23.786Z</time></trkpt><trkpt lat="43.0261683" lon="11.0453367"><ele>457.0</ele><time>2026-05-02T16:22:24.787Z</time></trkpt><trkpt lat="43.0262667" lon="11.0451933"><ele>457.5</ele><time>2026-05-02T16:22:25.788Z</time></trkpt><trkpt lat="43.0263617" lon="11.045065"><ele>458.0</ele><time>2026-05-02T16:22:26.787Z</time></trkpt><trkpt lat="43.0264683" lon="11.0449633"><ele>454.75</ele><time>2026-05-02T16:22:27.785Z</time></trkpt><trkpt lat="43.0265883" lon="11.04489"><ele>451.5</ele><time>2026-05-02T16:22:28.787Z</time></trkpt><trkpt lat="43.0267183" lon="11.0448433"><ele>448.25</ele><time>2026-05-02T16:22:29.787Z</time></trkpt><trkpt lat="43.0268533" lon="11.0448283"><ele>445.0</ele><time>2026-05-02T16:22:30.786Z</time></trkpt><trkpt lat="43.02699" lon="11.04482"><ele>445.0</ele><time>2026-05-02T16:22:31.786Z</time></trkpt><trkpt lat="43.0271217" lon="11.0448333"><ele>445.0</ele><time>2026-05-02T16:22:32.785Z</time></trkpt><trkpt lat="43.0272433" lon="11.0448467"><ele>445.0</ele><time>2026-05-02T16:22:33.785Z</time></trkpt><trkpt lat="43.0273517" lon="11.04482"><ele>445.0</ele><time>2026-05-02T16:22:34.788Z</time></trkpt><trkpt lat="43.0274417" lon="11.0447383"><ele>448.0</ele><time>2026-05-02T16:22:35.789Z</time></trkpt><trkpt lat="43.027525" lon="11.0446217"><ele>451.0</ele><time>2026-05-02T16:22:36.785Z</time></trkpt><trkpt lat="43.0276117" lon="11.04449"><ele>454.0</ele><time>2026-05-02T16:22:37.785Z</time></trkpt><trkpt lat="43.0277017" lon="11.0443717"><ele>457.0</ele><time>2026-05-02T16:22:38.787Z</time></trkpt><trkpt lat="43.0277833" lon="11.0442767"><ele>457.0</ele><time>2026-05-02T16:22:39.786Z</time></trkpt><trkpt lat="43.0278417" lon="11.0441867"><ele>457.00000000000006</ele><time>2026-05-02T16:22:40.785Z</time></trkpt><trkpt lat="43.02788" lon="11.0440933"><ele>457.00000000000006</ele><time>2026-05-02T16:22:41.787Z</time></trkpt><trkpt lat="43.027905" lon="11.0439967"><ele>457.0</ele><time>2026-05-02T16:22:42.786Z</time></trkpt><trkpt lat="43.0279433" lon="11.043845"><ele>457.0</ele><time>2026-05-02T16:22:44.786Z</time></trkpt><trkpt lat="43.0280033" lon="11.04373"><ele>456.20000000000005</ele><time>2026-05-02T16:22:46.787Z</time></trkpt><trkpt lat="43.028105" lon="11.04368"><ele>455.40000000000003</ele><time>2026-05-02T16:22:48.786Z</time></trkpt><trkpt lat="43.028225" lon="11.0436733"><ele>454.59999999999997</ele><time>2026-05-02T16:22:50.786Z</time></trkpt><trkpt lat="43.0282883" lon="11.0436833"><ele>453.79999999999995</ele><time>2026-05-02T16:22:51.787Z</time></trkpt><trkpt lat="43.02838" lon="11.0437217"><ele>453.0</ele><time>2026-05-02T16:22:53.786Z</time></trkpt><trkpt lat="43.0282917" lon="11.0436317"><ele>450.2</ele><time>2026-05-02T16:23:01.787Z</time></trkpt><trkpt lat="43.0281933" lon="11.04363"><ele>447.4</ele><time>2026-05-02T16:23:02.786Z</time></trkpt><trkpt lat="43.028095" lon="11.0436483"><ele>444.59999999999997</ele><time>2026-05-02T16:23:03.789Z</time></trkpt><trkpt lat="43.0280033" lon="11.043695"><ele>441.79999999999995</ele><time>2026-05-02T16:23:04.788Z</time></trkpt><trkpt lat="43.0279117" lon="11.04378"><ele>439.0</ele><time>2026-05-02T16:23:05.789Z</time></trkpt><trkpt lat="43.0278567" lon="11.0439083"><ele>439.0</ele><time>2026-05-02T16:23:06.788Z</time></trkpt><trkpt lat="43.02781" lon="11.04405"><ele>439.0</ele><time>2026-05-02T16:23:07.788Z</time></trkpt><trkpt lat="43.0277483" lon="11.04419"><ele>439.0</ele><time>2026-05-02T16:23:08.789Z</time></trkpt><trkpt lat="43.02767" lon="11.04431"><ele>439.0</ele><time>2026-05-02T16:23:09.794Z</time></trkpt><trkpt lat="43.0275867" lon="11.0444217"><ele>440.2</ele><time>2026-05-02T16:23:10.789Z</time></trkpt><trkpt lat="43.027505" lon="11.0445467"><ele>441.4</ele><time>2026-05-02T16:23:11.79Z</time></trkpt><trkpt lat="43.027435" lon="11.0446733"><ele>442.6</ele><time>2026-05-02T16:23:12.788Z</time></trkpt><trkpt lat="43.02736" lon="11.044775"><ele>443.8</ele><time>2026-05-02T16:23:13.788Z</time></trkpt><trkpt lat="43.0272667" lon="11.0448367"><ele>445.0</ele><time>2026-05-02T16:23:14.788Z</time></trkpt><trkpt lat="43.02717" lon="11.0448533"><ele>445.0</ele><time>2026-05-02T16:23:15.786Z</time></trkpt><trkpt lat="43.0270667" lon="11.04485"><ele>445.0</ele><time>2026-05-02T16:23:16.788Z</time></trkpt><trkpt lat="43.02696" lon="11.0448517"><ele>445.0</ele><time>2026-05-02T16:23:17.789Z</time></trkpt><trkpt lat="43.0268517" lon="11.0448633"><ele>445.0</ele><time>2026-05-02T16:23:18.788Z</time></trkpt><trkpt lat="43.02676" lon="11.04487"><ele>445.0</ele><time>2026-05-02T16:23:19.789Z</time></trkpt><trkpt lat="43.0266783" lon="11.0448717"><ele>445.00000000000006</ele><time>2026-05-02T16:23:20.788Z</time></trkpt><trkpt lat="43.0266117" lon="11.0448667"><ele>445.0</ele><time>2026-05-02T16:23:21.788Z</time></trkpt><trkpt lat="43.026545" lon="11.0448467"><ele>445.0</ele><time>2026-05-02T16:23:23.79Z</time></trkpt><trkpt lat="43.0266267" lon="11.0448833"><ele>445.0</ele><time>2026-05-02T16:23:51.787Z</time></trkpt><trkpt lat="43.0267" lon="11.0448817"><ele>445.00000000000006</ele><time>2026-05-02T16:23:52.786Z</time></trkpt><trkpt lat="43.0267767" lon="11.0448817"><ele>445.0</ele><time>2026-05-02T16:23:53.786Z</time></trkpt><trkpt lat="43.02687" lon="11.04488"><ele>445.0</ele><time>2026-05-02T16:23:54.786Z</time></trkpt><trkpt lat="43.0269717" lon="11.0448817"><ele>445.0</ele><time>2026-05-02T16:23:55.789Z</time></trkpt><trkpt lat="43.02708" lon="11.04489"><ele>445.0</ele><time>2026-05-02T16:23:56.792Z</time></trkpt><trkpt lat="43.0271867" lon="11.0448933"><ele>445.0</ele><time>2026-05-02T16:23:57.786Z</time></trkpt><trkpt lat="43.02728" lon="11.0448883"><ele>445.0</ele><time>2026-05-02T16:23:58.786Z</time></trkpt><trkpt lat="43.0273717" lon="11.044845"><ele>445.0</ele><time>2026-05-02T16:23:59.787Z</time></trkpt><trkpt lat="43.0274633" lon="11.0447333"><ele>445.0</ele><time>2026-05-02T16:24:00.787Z</time></trkpt><trkpt lat="43.027565" lon="11.0445717"><ele>445.0</ele><time>2026-05-02T16:24:01.786Z</time></trkpt><trkpt lat="43.027665" lon="11.04444"><ele>445.0</ele><time>2026-05-02T16:24:02.787Z</time></trkpt><trkpt lat="43.0277633" lon="11.0442983"><ele>443.5</ele><time>2026-05-02T16:24:03.786Z</time></trkpt><trkpt lat="43.0278283" lon="11.0441533"><ele>442.0</ele><time>2026-05-02T16:24:04.786Z</time></trkpt><trkpt lat="43.0278817" lon="11.0439983"><ele>440.5</ele><time>2026-05-02T16:24:05.787Z</time></trkpt><trkpt lat="43.0279317" lon="11.0438667"><ele>439.0</ele><time>2026-05-02T16:24:06.786Z</time></trkpt><trkpt lat="43.027995" lon="11.0437583"><ele>439.0</ele><time>2026-05-02T16:24:07.788Z</time></trkpt><trkpt lat="43.02808" lon="11.04369"><ele>439.0</ele><time>2026-05-02T16:24:08.786Z</time></trkpt><trkpt lat="43.0281833" lon="11.0436683"><ele>439.0</ele><time>2026-05-02T16:24:09.786Z</time></trkpt><trkpt lat="43.0283" lon="11.043685"><ele>439.0</ele><time>2026-05-02T16:24:10.789Z</time></trkpt><trkpt lat="43.028405" lon="11.04372"><ele>439.0</ele><time>2026-05-02T16:24:11.786Z</time></trkpt><trkpt lat="43.0285033" lon="11.0437417"><ele>441.79999999999995</ele><time>2026-05-02T16:24:12.787Z</time></trkpt><trkpt lat="43.0285917" lon="11.043725"><ele>444.59999999999997</ele><time>2026-05-02T16:24:13.786Z</time></trkpt><trkpt lat="43.0286717" lon="11.0436767"><ele>447.4</ele><time>2026-05-02T16:24:14.787Z</time></trkpt><trkpt lat="43.0287467" lon="11.04358"><ele>450.2</ele><time>2026-05-02T16:24:15.786Z</time></trkpt><trkpt lat="43.02884" lon="11.0434567"><ele>453.0</ele><time>2026-05-02T16:24:16.788Z</time></trkpt><trkpt lat="43.0289433" lon="11.0433433"><ele>452.75</ele><time>2026-05-02T16:24:17.787Z</time></trkpt><trkpt lat="43.029045" lon="11.0432283"><ele>452.5</ele><time>2026-05-02T16:24:18.786Z</time></trkpt><trkpt lat="43.0291217" lon="11.043075"><ele>452.25</ele><time>2026-05-02T16:24:19.786Z</time></trkpt><trkpt lat="43.029185" lon="11.0429333"><ele>452.0</ele><time>2026-05-02T16:24:20.786Z</time></trkpt><trkpt lat="43.0292517" lon="11.0428067"><ele>452.0</ele><time>2026-05-02T16:24:21.786Z</time></trkpt><trkpt lat="43.02934" lon="11.04272"><ele>452.0</ele><time>2026-05-02T16:24:22.786Z</time></trkpt><trkpt lat="43.029455" lon="11.0426667"><ele>452.0</ele><time>2026-05-02T16:24:23.786Z</time></trkpt><trkpt lat="43.02958" lon="11.0426383"><ele>452.0</ele><time>2026-05-02T16:24:24.786Z</time></trkpt><trkpt lat="43.0297183" lon="11.04261"><ele>452.0</ele><time>2026-05-02T16:24:25.787Z</time></trkpt><trkpt lat="43.0298567" lon="11.0425733"><ele>452.0</ele><time>2026-05-02T16:24:26.786Z</time></trkpt><trkpt lat="43.0299733" lon="11.0425383"><ele>452.0</ele><time>2026-05-02T16:24:27.786Z</time></trkpt><trkpt lat="43.0300767" lon="11.0425"><ele>452.0</ele><time>2026-05-02T16:24:28.786Z</time></trkpt><trkpt lat="43.0301767" lon="11.0424833"><ele>453.20000000000005</ele><time>2026-05-02T16:24:29.786Z</time></trkpt><trkpt lat="43.030275" lon="11.0424867"><ele>454.40000000000003</ele><time>2026-05-02T16:24:30.786Z</time></trkpt><trkpt lat="43.0303733" lon="11.04251"><ele>455.59999999999997</ele><time>2026-05-02T16:24:31.786Z</time></trkpt><trkpt lat="43.0304617" lon="11.04254"><ele>456.79999999999995</ele><time>2026-05-02T16:24:32.786Z</time></trkpt><trkpt lat="43.0305483" lon="11.0425783"><ele>458.0</ele><time>2026-05-02T16:24:33.786Z</time></trkpt><trkpt lat="43.030625" lon="11.0426133"><ele>458.0</ele><time>2026-05-02T16:24:34.787Z</time></trkpt><trkpt lat="43.0306917" lon="11.042625"><ele>457.99999999999994</ele><time>2026-05-02T16:24:35.786Z</time></trkpt><trkpt lat="43.0308067" lon="11.04256"><ele>457.99999999999994</ele><time>2026-05-02T16:24:37.786Z</time></trkpt><trkpt lat="43.0308433" lon="11.04242"><ele>458.0</ele><time>2026-05-02T16:24:39.786Z</time></trkpt><trkpt lat="43.0308367" lon="11.0423117"><ele>458.0</ele><time>2026-05-02T16:24:41.788Z</time></trkpt><trkpt lat="43.030835" lon="11.0421967"><ele>457.3333333333333</ele><time>2026-05-02T16:24:44.786Z</time></trkpt><trkpt lat="43.0308433" lon="11.0420767"><ele>456.66666666666663</ele><time>2026-05-02T16:24:47.788Z</time></trkpt><trkpt lat="43.030875" lon="11.041985"><ele>456.0</ele><time>2026-05-02T16:24:49.786Z</time></trkpt><trkpt lat="43.030915" lon="11.0419"><ele>455.33333333333337</ele><time>2026-05-02T16:24:51.79Z</time></trkpt><trkpt lat="43.0309717" lon="11.0418067"><ele>454.6666666666667</ele><time>2026-05-02T16:24:53.79Z</time></trkpt><trkpt lat="43.03104" lon="11.0417067"><ele>454.0</ele><time>2026-05-02T16:24:55.789Z</time></trkpt><trkpt lat="43.0311333" lon="11.041625"><ele>451.1666666666667</ele><time>2026-05-02T16:24:57.79Z</time></trkpt><trkpt lat="43.031195" lon="11.0415933"><ele>448.33333333333337</ele><time>2026-05-02T16:24:58.79Z</time></trkpt><trkpt lat="43.0312633" lon="11.0415817"><ele>445.5</ele><time>2026-05-02T16:24:59.789Z</time></trkpt><trkpt lat="43.031335" lon="11.0416017"><ele>442.66666666666663</ele><time>2026-05-02T16:25:00.791Z</time></trkpt><trkpt lat="43.0314467" lon="11.04161"><ele>439.8333333333333</ele><time>2026-05-02T16:25:02.786Z</time></trkpt><trkpt lat="43.031515" lon="11.041535"><ele>437.0</ele><time>2026-05-02T16:25:04.786Z</time></trkpt><trkpt lat="43.0315383" lon="11.0414483"><ele>436.99999999999994</ele><time>2026-05-02T16:25:05.787Z</time></trkpt><trkpt lat="43.0315483" lon="11.041355"><ele>437.0</ele><time>2026-05-02T16:25:06.787Z</time></trkpt><trkpt lat="43.0315567" lon="11.0412433"><ele>437.0</ele><time>2026-05-02T16:25:07.79Z</time></trkpt><trkpt lat="43.0315783" lon="11.0411267"><ele>437.0</ele><time>2026-05-02T16:25:08.787Z</time></trkpt><trkpt lat="43.031615" lon="11.04101"><ele>436.99999999999994</ele><time>2026-05-02T16:25:09.786Z</time></trkpt><trkpt lat="43.0316667" lon="11.040905"><ele>437.0</ele><time>2026-05-02T16:25:10.786Z</time></trkpt><trkpt lat="43.0317317" lon="11.0408"><ele>439.25</ele><time>2026-05-02T16:25:11.786Z</time></trkpt><trkpt lat="43.0318167" lon="11.040695"><ele>441.5</ele><time>2026-05-02T16:25:12.786Z</time></trkpt><trkpt lat="43.0319167" lon="11.0405933"><ele>443.75</ele><time>2026-05-02T16:25:13.786Z</time></trkpt><trkpt lat="43.0320233" lon="11.0404833"><ele>446.0</ele><time>2026-05-02T16:25:14.787Z</time></trkpt><trkpt lat="43.0321383" lon="11.0403483"><ele>446.0</ele><time>2026-05-02T16:25:15.786Z</time></trkpt><trkpt lat="43.0322483" lon="11.0402017"><ele>446.0</ele><time>2026-05-02T16:25:16.786Z</time></trkpt><trkpt lat="43.0323567" lon="11.04007"><ele>446.0</ele><time>2026-05-02T16:25:17.787Z</time></trkpt><trkpt lat="43.0324483" lon="11.039945"><ele>446.0</ele><time>2026-05-02T16:25:18.786Z</time></trkpt><trkpt lat="43.0325067" lon="11.03982"><ele>446.16666666666663</ele><time>2026-05-02T16:25:19.786Z</time></trkpt><trkpt lat="43.0325233" lon="11.0396967"><ele>446.3333333333333</ele><time>2026-05-02T16:25:20.788Z</time></trkpt><trkpt lat="43.0325183" lon="11.03958"><ele>446.5</ele><time>2026-05-02T16:25:21.789Z</time></trkpt><trkpt lat="43.0324967" lon="11.0394733"><ele>446.66666666666663</ele><time>2026-05-02T16:25:22.785Z</time></trkpt><trkpt lat="43.03243" lon="11.03939"><ele>446.8333333333333</ele><time>2026-05-02T16:25:23.788Z</time></trkpt><trkpt lat="43.03234" lon="11.03933"><ele>447.0</ele><time>2026-05-02T16:25:24.789Z</time></trkpt><trkpt lat="43.03223" lon="11.0392833"><ele>447.0</ele><time>2026-05-02T16:25:25.789Z</time></trkpt><trkpt lat="43.032115" lon="11.0392283"><ele>447.00000000000006</ele><time>2026-05-02T16:25:26.785Z</time></trkpt><trkpt lat="43.03202" lon="11.0391533"><ele>447.00000000000006</ele><time>2026-05-02T16:25:27.785Z</time></trkpt><trkpt lat="43.0319467" lon="11.039065"><ele>447.0</ele><time>2026-05-02T16:25:28.785Z</time></trkpt><trkpt lat="43.031895" lon="11.038965"><ele>447.0</ele><time>2026-05-02T16:25:29.786Z</time></trkpt><trkpt lat="43.0318683" lon="11.0388667"><ele>446.3333333333333</ele><time>2026-05-02T16:25:30.786Z</time></trkpt><trkpt lat="43.0318683" lon="11.0387733"><ele>445.66666666666663</ele><time>2026-05-02T16:25:31.785Z</time></trkpt><trkpt lat="43.03189" lon="11.038685"><ele>445.0</ele><time>2026-05-02T16:25:32.786Z</time></trkpt><trkpt lat="43.03194" lon="11.0386233"><ele>444.3333333333333</ele><time>2026-05-02T16:25:33.786Z</time></trkpt><trkpt lat="43.0320283" lon="11.0385933"><ele>443.66666666666663</ele><time>2026-05-02T16:25:34.785Z</time></trkpt><trkpt lat="43.0321267" lon="11.03857"><ele>443.0</ele><time>2026-05-02T16:25:35.786Z</time></trkpt><trkpt lat="43.0322333" lon="11.0385367"><ele>443.0</ele><time>2026-05-02T16:25:36.786Z</time></trkpt><trkpt lat="43.03235" lon="11.0385183"><ele>442.99999999999994</ele><time>2026-05-02T16:25:37.785Z</time></trkpt><trkpt lat="43.03247" lon="11.03851"><ele>442.99999999999994</ele><time>2026-05-02T16:25:38.789Z</time></trkpt><trkpt lat="43.0325733" lon="11.0385083"><ele>443.0</ele><time>2026-05-02T16:25:39.789Z</time></trkpt><trkpt lat="43.0326583" lon="11.0384783"><ele>443.0</ele><time>2026-05-02T16:25:40.789Z</time></trkpt><trkpt lat="43.0327283" lon="11.0384267"><ele>445.4</ele><time>2026-05-02T16:25:41.79Z</time></trkpt><trkpt lat="43.0327567" lon="11.0383417"><ele>447.79999999999995</ele><time>2026-05-02T16:25:42.788Z</time></trkpt><trkpt lat="43.0327633" lon="11.0382233"><ele>450.2</ele><time>2026-05-02T16:25:43.788Z</time></trkpt><trkpt lat="43.0327333" lon="11.0380717"><ele>452.6</ele><time>2026-05-02T16:25:44.786Z</time></trkpt><trkpt lat="43.0327117" lon="11.0379017"><ele>455.0</ele><time>2026-05-02T16:25:45.785Z</time></trkpt><trkpt lat="43.0326767" lon="11.0377217"><ele>455.0</ele><time>2026-05-02T16:25:46.787Z</time></trkpt><trkpt lat="43.0326233" lon="11.03755"><ele>455.0</ele><time>2026-05-02T16:25:47.791Z</time></trkpt><trkpt lat="43.0325433" lon="11.0373817"><ele>455.0</ele><time>2026-05-02T16:25:48.79Z</time></trkpt><trkpt lat="43.0324417" lon="11.037255"><ele>455.0</ele><time>2026-05-02T16:25:49.788Z</time></trkpt><trkpt lat="43.03232" lon="11.0371667"><ele>454.25</ele><time>2026-05-02T16:25:50.788Z</time></trkpt><trkpt lat="43.0321833" lon="11.037105"><ele>453.5</ele><time>2026-05-02T16:25:51.789Z</time></trkpt><trkpt lat="43.0320383" lon="11.0370583"><ele>452.75</ele><time>2026-05-02T16:25:52.788Z</time></trkpt><trkpt lat="43.0318933" lon="11.0370033"><ele>452.0</ele><time>2026-05-02T16:25:53.789Z</time></trkpt><trkpt lat="43.0317533" lon="11.0369417"><ele>447.5</ele><time>2026-05-02T16:25:54.785Z</time></trkpt><trkpt lat="43.031615" lon="11.0368733"><ele>443.0</ele><time>2026-05-02T16:25:55.786Z</time></trkpt><trkpt lat="43.0314933" lon="11.0367967"><ele>438.5</ele><time>2026-05-02T16:25:56.789Z</time></trkpt><trkpt lat="43.0313867" lon="11.03672"><ele>434.0</ele><time>2026-05-02T16:25:57.787Z</time></trkpt><trkpt lat="43.0313017" lon="11.0366267"><ele>433.6</ele><time>2026-05-02T16:25:58.787Z</time></trkpt><trkpt lat="43.0312433" lon="11.0365083"><ele>433.2</ele><time>2026-05-02T16:25:59.787Z</time></trkpt><trkpt lat="43.031205" lon="11.0363683"><ele>432.80000000000007</ele><time>2026-05-02T16:26:00.788Z</time></trkpt><trkpt lat="43.0311917" lon="11.0362167"><ele>432.40000000000003</ele><time>2026-05-02T16:26:01.786Z</time></trkpt><trkpt lat="43.0312167" lon="11.036065"><ele>432.0</ele><time>2026-05-02T16:26:02.786Z</time></trkpt><trkpt lat="43.031275" lon="11.035935"><ele>432.0</ele><time>2026-05-02T16:26:03.788Z</time></trkpt><trkpt lat="43.0313617" lon="11.0358167"><ele>432.0</ele><time>2026-05-02T16:26:04.786Z</time></trkpt><trkpt lat="43.0314733" lon="11.0357217"><ele>432.0</ele><time>2026-05-02T16:26:05.787Z</time></trkpt><trkpt lat="43.03161" lon="11.0356217"><ele>432.0</ele><time>2026-05-02T16:26:06.786Z</time></trkpt><trkpt lat="43.03175" lon="11.0355333"><ele>435.5</ele><time>2026-05-02T16:26:07.787Z</time></trkpt><trkpt lat="43.0318783" lon="11.0354483"><ele>439.0</ele><time>2026-05-02T16:26:08.786Z</time></trkpt><trkpt lat="43.0319983" lon="11.03538"><ele>442.5</ele><time>2026-05-02T16:26:09.789Z</time></trkpt><trkpt lat="43.0320967" lon="11.03534"><ele>446.0</ele><time>2026-05-02T16:26:10.786Z</time></trkpt><trkpt lat="43.03217" lon="11.03528"><ele>446.0</ele><time>2026-05-02T16:26:11.788Z</time></trkpt><trkpt lat="43.0322067" lon="11.03518"><ele>446.0</ele><time>2026-05-02T16:26:12.788Z</time></trkpt><trkpt lat="43.03224" lon="11.0350633"><ele>446.0</ele><time>2026-05-02T16:26:13.789Z</time></trkpt><trkpt lat="43.0322433" lon="11.0349283"><ele>446.0</ele><time>2026-05-02T16:26:14.788Z</time></trkpt><trkpt lat="43.0322217" lon="11.0347967"><ele>446.0</ele><time>2026-05-02T16:26:15.788Z</time></trkpt><trkpt lat="43.0321833" lon="11.03467"><ele>446.99999999999994</ele><time>2026-05-02T16:26:16.788Z</time></trkpt><trkpt lat="43.03213" lon="11.0345917"><ele>448.0</ele><time>2026-05-02T16:26:17.789Z</time></trkpt><trkpt lat="43.0320567" lon="11.034545"><ele>449.0</ele><time>2026-05-02T16:26:18.788Z</time></trkpt><trkpt lat="43.0320033" lon="11.034495"><ele>450.0</ele><time>2026-05-02T16:26:19.785Z</time></trkpt><trkpt lat="43.0318833" lon="11.034505"><ele>450.99999999999994</ele><time>2026-05-02T16:26:21.786Z</time></trkpt><trkpt lat="43.03179" lon="11.0345233"><ele>452.0</ele><time>2026-05-02T16:26:22.785Z</time></trkpt><trkpt lat="43.0316783" lon="11.0345317"><ele>445.3333333333333</ele><time>2026-05-02T16:26:23.786Z</time></trkpt><trkpt lat="43.0315283" lon="11.0345217"><ele>438.66666666666663</ele><time>2026-05-02T16:26:24.787Z</time></trkpt><trkpt lat="43.0313567" lon="11.0345517"><ele>432.0</ele><time>2026-05-02T16:26:25.786Z</time></trkpt><trkpt lat="43.0312067" lon="11.0345783"><ele>432.0</ele><time>2026-05-02T16:26:26.786Z</time></trkpt><trkpt lat="43.031045" lon="11.0345833"><ele>432.00000000000006</ele><time>2026-05-02T16:26:27.786Z</time></trkpt><trkpt lat="43.0309833" lon="11.0345233"><ele>432.00000000000006</ele><time>2026-05-02T16:26:28.786Z</time></trkpt><trkpt lat="43.0309617" lon="11.03444"><ele>432.0</ele><time>2026-05-02T16:26:29.786Z</time></trkpt><trkpt lat="43.0309633" lon="11.0342533"><ele>432.0</ele><time>2026-05-02T16:26:31.786Z</time></trkpt><trkpt lat="43.0310183" lon="11.0341083"><ele>429.33333333333337</ele><time>2026-05-02T16:26:32.787Z</time></trkpt><trkpt lat="43.0310867" lon="11.0339333"><ele>426.6666666666667</ele><time>2026-05-02T16:26:33.787Z</time></trkpt><trkpt lat="43.031175" lon="11.0337467"><ele>424.0</ele><time>2026-05-02T16:26:34.786Z</time></trkpt><trkpt lat="43.031295" lon="11.0335217"><ele>424.0</ele><time>2026-05-02T16:26:35.786Z</time></trkpt><trkpt lat="43.0313983" lon="11.0333167"><ele>424.0</ele><time>2026-05-02T16:26:36.785Z</time></trkpt><trkpt lat="43.0314833" lon="11.0331283"><ele>424.0</ele><time>2026-05-02T16:26:37.786Z</time></trkpt><trkpt lat="43.031555" lon="11.03295"><ele>426.0</ele><time>2026-05-02T16:26:38.786Z</time></trkpt><trkpt lat="43.0315983" lon="11.032785"><ele>428.0</ele><time>2026-05-02T16:26:39.788Z</time></trkpt><trkpt lat="43.0315983" lon="11.0326333"><ele>430.0</ele><time>2026-05-02T16:26:40.786Z</time></trkpt><trkpt lat="43.0315667" lon="11.0325117"><ele>432.0</ele><time>2026-05-02T16:26:41.788Z</time></trkpt><trkpt lat="43.0315167" lon="11.0324317"><ele>434.0</ele><time>2026-05-02T16:26:42.789Z</time></trkpt><trkpt lat="43.0314483" lon="11.0323817"><ele>434.0</ele><time>2026-05-02T16:26:43.789Z</time></trkpt><trkpt lat="43.0313617" lon="11.0323767"><ele>434.0</ele><time>2026-05-02T16:26:44.788Z</time></trkpt><trkpt lat="43.0311567" lon="11.0324167"><ele>434.0</ele><time>2026-05-02T16:26:46.787Z</time></trkpt><trkpt lat="43.03104" lon="11.032485"><ele>434.0</ele><time>2026-05-02T16:26:47.788Z</time></trkpt><trkpt lat="43.0309383" lon="11.0324767"><ele>434.0</ele><time>2026-05-02T16:26:48.786Z</time></trkpt><trkpt lat="43.030815" lon="11.0325283"><ele>434.0</ele><time>2026-05-02T16:26:49.786Z</time></trkpt><trkpt lat="43.0306817" lon="11.032525"><ele>434.0</ele><time>2026-05-02T16:26:50.789Z</time></trkpt><trkpt lat="43.0305433" lon="11.0324883"><ele>434.0</ele><time>2026-05-02T16:26:51.79Z</time></trkpt><trkpt lat="43.0304017" lon="11.03243"><ele>438.0</ele><time>2026-05-02T16:26:52.788Z</time></trkpt><trkpt lat="43.030265" lon="11.03236"><ele>442.0</ele><time>2026-05-02T16:26:53.786Z</time></trkpt><trkpt lat="43.03014" lon="11.0322883"><ele>446.0</ele><time>2026-05-02T16:26:54.787Z</time></trkpt><trkpt lat="43.03001" lon="11.03224"><ele>450.0</ele><time>2026-05-02T16:26:55.79Z</time></trkpt><trkpt lat="43.0298783" lon="11.0322017"><ele>450.0</ele><time>2026-05-02T16:26:56.786Z</time></trkpt><trkpt lat="43.0297533" lon="11.0321783"><ele>450.0</ele><time>2026-05-02T16:26:57.785Z</time></trkpt><trkpt lat="43.0296367" lon="11.0321883"><ele>450.0</ele><time>2026-05-02T16:26:58.785Z</time></trkpt><trkpt lat="43.0295367" lon="11.0322183"><ele>450.0</ele><time>2026-05-02T16:26:59.786Z</time></trkpt><trkpt lat="43.02944" lon="11.0322483"><ele>450.0</ele><time>2026-05-02T16:27:00.785Z</time></trkpt><trkpt lat="43.0293417" lon="11.0322767"><ele>450.0</ele><time>2026-05-02T16:27:01.786Z</time></trkpt><trkpt lat="43.0292417" lon="11.03228"><ele>450.0</ele><time>2026-05-02T16:27:02.785Z</time></trkpt><trkpt lat="43.0291433" lon="11.0322383"><ele>450.0</ele><time>2026-05-02T16:27:03.786Z</time></trkpt><trkpt lat="43.0290533" lon="11.0321667"><ele>450.0</ele><time>2026-05-02T16:27:04.786Z</time></trkpt><trkpt lat="43.0289633" lon="11.0321"><ele>450.0</ele><time>2026-05-02T16:27:05.786Z</time></trkpt><trkpt lat="43.0288683" lon="11.03204"><ele>448.6</ele><time>2026-05-02T16:27:06.786Z</time></trkpt><trkpt lat="43.02877" lon="11.031995"><ele>447.2</ele><time>2026-05-02T16:27:07.786Z</time></trkpt><trkpt lat="43.0286633" lon="11.0319683"><ele>445.79999999999995</ele><time>2026-05-02T16:27:08.79Z</time></trkpt><trkpt lat="43.028555" lon="11.0319517"><ele>444.4</ele><time>2026-05-02T16:27:09.789Z</time></trkpt><trkpt lat="43.0284383" lon="11.0319217"><ele>443.0</ele><time>2026-05-02T16:27:10.788Z</time></trkpt><trkpt lat="43.02832" lon="11.031875"><ele>442.5</ele><time>2026-05-02T16:27:11.786Z</time></trkpt><trkpt lat="43.028205" lon="11.0318083"><ele>442.0</ele><time>2026-05-02T16:27:12.785Z</time></trkpt><trkpt lat="43.0280983" lon="11.0317183"><ele>441.5</ele><time>2026-05-02T16:27:13.786Z</time></trkpt><trkpt lat="43.0279983" lon="11.031605"><ele>441.0</ele><time>2026-05-02T16:27:14.785Z</time></trkpt><trkpt lat="43.0279017" lon="11.0314917"><ele>441.0</ele><time>2026-05-02T16:27:15.786Z</time></trkpt><trkpt lat="43.027805" lon="11.03138"><ele>441.0</ele><time>2026-05-02T16:27:16.786Z</time></trkpt><trkpt lat="43.0277" lon="11.0312783"><ele>441.0</ele><time>2026-05-02T16:27:17.789Z</time></trkpt><trkpt lat="43.027605" lon="11.0311617"><ele>441.0</ele><time>2026-05-02T16:27:18.786Z</time></trkpt><trkpt lat="43.0275117" lon="11.0310283"><ele>437.75</ele><time>2026-05-02T16:27:19.787Z</time></trkpt><trkpt lat="43.027415" lon="11.0308883"><ele>434.5</ele><time>2026-05-02T16:27:20.786Z</time></trkpt><trkpt lat="43.0273183" lon="11.0307467"><ele>431.25</ele><time>2026-05-02T16:27:21.786Z</time></trkpt><trkpt lat="43.027225" lon="11.03061"><ele>428.0</ele><time>2026-05-02T16:27:22.789Z</time></trkpt><trkpt lat="43.0271367" lon="11.0304833"><ele>428.0</ele><time>2026-05-02T16:27:23.786Z</time></trkpt><trkpt lat="43.0270517" lon="11.0303567"><ele>428.0</ele><time>2026-05-02T16:27:24.788Z</time></trkpt><trkpt lat="43.02696" lon="11.0302367"><ele>428.0</ele><time>2026-05-02T16:27:25.789Z</time></trkpt><trkpt lat="43.0268717" lon="11.0301217"><ele>428.0</ele><time>2026-05-02T16:27:26.787Z</time></trkpt><trkpt lat="43.026765" lon="11.0300367"><ele>428.0</ele><time>2026-05-02T16:27:27.787Z</time></trkpt><trkpt lat="43.0266533" lon="11.0299933"><ele>428.0</ele><time>2026-05-02T16:27:28.787Z</time></trkpt><trkpt lat="43.02652" lon="11.029995"><ele>428.0</ele><time>2026-05-02T16:27:29.787Z</time></trkpt><trkpt lat="43.026375" lon="11.0300233"><ele>428.0</ele><time>2026-05-02T16:27:30.787Z</time></trkpt><trkpt lat="43.0262333" lon="11.0300667"><ele>427.75</ele><time>2026-05-02T16:27:31.788Z</time></trkpt><trkpt lat="43.0260933" lon="11.0301233"><ele>427.5</ele><time>2026-05-02T16:27:32.789Z</time></trkpt><trkpt lat="43.025955" lon="11.03018"><ele>427.25</ele><time>2026-05-02T16:27:33.789Z</time></trkpt><trkpt lat="43.0258117" lon="11.03022"><ele>427.0</ele><time>2026-05-02T16:27:34.79Z</time></trkpt><trkpt lat="43.0256667" lon="11.0302483"><ele>424.0</ele><time>2026-05-02T16:27:35.789Z</time></trkpt><trkpt lat="43.0255233" lon="11.0302717"><ele>421.0</ele><time>2026-05-02T16:27:36.789Z</time></trkpt><trkpt lat="43.0253917" lon="11.0302967"><ele>418.0</ele><time>2026-05-02T16:27:37.789Z</time></trkpt><trkpt lat="43.02528" lon="11.0303033"><ele>415.0</ele><time>2026-05-02T16:27:38.79Z</time></trkpt><trkpt lat="43.0251833" lon="11.03029"><ele>415.00000000000006</ele><time>2026-05-02T16:27:39.789Z</time></trkpt><trkpt lat="43.0251083" lon="11.0302433"><ele>415.0</ele><time>2026-05-02T16:27:40.79Z</time></trkpt><trkpt lat="43.0250433" lon="11.0301783"><ele>415.0</ele><time>2026-05-02T16:27:41.789Z</time></trkpt><trkpt lat="43.025" lon="11.03009"><ele>415.0</ele><time>2026-05-02T16:27:42.79Z</time></trkpt><trkpt lat="43.0249983" lon="11.0299583"><ele>415.00000000000006</ele><time>2026-05-02T16:27:43.789Z</time></trkpt><trkpt lat="43.0250183" lon="11.0298117"><ele>415.0</ele><time>2026-05-02T16:27:44.791Z</time></trkpt><trkpt lat="43.0250333" lon="11.0296767"><ele>414.33333333333337</ele><time>2026-05-02T16:27:45.79Z</time></trkpt><trkpt lat="43.0250433" lon="11.0295433"><ele>413.6666666666667</ele><time>2026-05-02T16:27:46.789Z</time></trkpt><trkpt lat="43.0250367" lon="11.029415"><ele>413.0</ele><time>2026-05-02T16:27:47.79Z</time></trkpt><trkpt lat="43.0250117" lon="11.029305"><ele>412.33333333333337</ele><time>2026-05-02T16:27:48.79Z</time></trkpt><trkpt lat="43.0249683" lon="11.029215"><ele>411.6666666666667</ele><time>2026-05-02T16:27:49.79Z</time></trkpt><trkpt lat="43.0248983" lon="11.0291467"><ele>411.0</ele><time>2026-05-02T16:27:50.789Z</time></trkpt><trkpt lat="43.02482" lon="11.0290967"><ele>414.0</ele><time>2026-05-02T16:27:51.789Z</time></trkpt><trkpt lat="43.0247383" lon="11.0290617"><ele>417.0</ele><time>2026-05-02T16:27:52.79Z</time></trkpt><trkpt lat="43.02465" lon="11.0290367"><ele>420.0</ele><time>2026-05-02T16:27:53.789Z</time></trkpt><trkpt lat="43.0245583" lon="11.0290217"><ele>423.0</ele><time>2026-05-02T16:27:54.789Z</time></trkpt><trkpt lat="43.0244633" lon="11.02902"><ele>426.0</ele><time>2026-05-02T16:27:55.789Z</time></trkpt><trkpt lat="43.024365" lon="11.02902"><ele>426.0</ele><time>2026-05-02T16:27:56.786Z</time></trkpt><trkpt lat="43.0242683" lon="11.0290183"><ele>426.0</ele><time>2026-05-02T16:27:57.786Z</time></trkpt><trkpt lat="43.0241733" lon="11.0290083"><ele>426.0</ele><time>2026-05-02T16:27:58.786Z</time></trkpt><trkpt lat="43.0240883" lon="11.0289833"><ele>426.0</ele><time>2026-05-02T16:27:59.786Z</time></trkpt><trkpt lat="43.0240033" lon="11.0289467"><ele>426.0</ele><time>2026-05-02T16:28:00.786Z</time></trkpt><trkpt lat="43.0239233" lon="11.0288883"><ele>424.0</ele><time>2026-05-02T16:28:01.788Z</time></trkpt><trkpt lat="43.0238483" lon="11.0288117"><ele>422.0</ele><time>2026-05-02T16:28:02.786Z</time></trkpt><trkpt lat="43.023765" lon="11.028725"><ele>420.0</ele><time>2026-05-02T16:28:03.788Z</time></trkpt><trkpt lat="43.02368" lon="11.0286383"><ele>418.0</ele><time>2026-05-02T16:28:04.789Z</time></trkpt><trkpt lat="43.0236" lon="11.0285483"><ele>416.0</ele><time>2026-05-02T16:28:05.789Z</time></trkpt><trkpt lat="43.023525" lon="11.0284683"><ele>415.99999999999994</ele><time>2026-05-02T16:28:06.883Z</time></trkpt><trkpt lat="43.0234533" lon="11.0283867"><ele>416.0</ele><time>2026-05-02T16:28:07.787Z</time></trkpt><trkpt lat="43.0233867" lon="11.0283183"><ele>416.0</ele><time>2026-05-02T16:28:08.789Z</time></trkpt><trkpt lat="43.0233283" lon="11.0282517"><ele>416.0</ele><time>2026-05-02T16:28:09.787Z</time></trkpt><trkpt lat="43.0232733" lon="11.0281933"><ele>415.99999999999994</ele><time>2026-05-02T16:28:10.789Z</time></trkpt><trkpt lat="43.0232167" lon="11.0281383"><ele>416.0</ele><time>2026-05-02T16:28:11.787Z</time></trkpt><trkpt lat="43.0231617" lon="11.0280917"><ele>415.16666666666663</ele><time>2026-05-02T16:28:12.786Z</time></trkpt><trkpt lat="43.0231017" lon="11.0280567"><ele>414.3333333333333</ele><time>2026-05-02T16:28:13.787Z</time></trkpt><trkpt lat="43.02299" lon="11.027995"><ele>413.5</ele><time>2026-05-02T16:28:15.787Z</time></trkpt><trkpt lat="43.022925" lon="11.0279617"><ele>412.66666666666663</ele><time>2026-05-02T16:28:18.787Z</time></trkpt><trkpt lat="43.0228633" lon="11.0280833"><ele>411.8333333333333</ele><time>2026-05-02T16:28:22.789Z</time></trkpt><trkpt lat="43.0228367" lon="11.0281817"><ele>411.0</ele><time>2026-05-02T16:28:23.792Z</time></trkpt><trkpt lat="43.0228033" lon="11.0282967"><ele>410.3333333333333</ele><time>2026-05-02T16:28:24.79Z</time></trkpt><trkpt lat="43.022775" lon="11.0284033"><ele>409.66666666666663</ele><time>2026-05-02T16:28:25.79Z</time></trkpt><trkpt lat="43.0227467" lon="11.0285133"><ele>409.0</ele><time>2026-05-02T16:28:26.79Z</time></trkpt><trkpt lat="43.022715" lon="11.02862"><ele>408.3333333333333</ele><time>2026-05-02T16:28:27.79Z</time></trkpt><trkpt lat="43.0226917" lon="11.0287217"><ele>407.66666666666663</ele><time>2026-05-02T16:28:28.789Z</time></trkpt><trkpt lat="43.0226283" lon="11.0288417"><ele>407.0</ele><time>2026-05-02T16:28:30.789Z</time></trkpt><trkpt lat="43.0225483" lon="11.02884"><ele>406.99999999999994</ele><time>2026-05-02T16:28:32.789Z</time></trkpt><trkpt lat="43.0225083" lon="11.0287383"><ele>407.0</ele><time>2026-05-02T16:28:34.789Z</time></trkpt><trkpt lat="43.0225" lon="11.0286183"><ele>407.0</ele><time>2026-05-02T16:28:36.79Z</time></trkpt><trkpt lat="43.0225017" lon="11.0285267"><ele>407.0</ele><time>2026-05-02T16:28:38.788Z</time></trkpt><trkpt lat="43.022455" lon="11.0284317"><ele>406.99999999999994</ele><time>2026-05-02T16:56:56.786Z</time></trkpt><trkpt lat="43.0224667" lon="11.0283033"><ele>407.0</ele><time>2026-05-02T16:56:58.788Z</time></trkpt><trkpt lat="43.02243" lon="11.0282033"><ele>404.20000000000005</ele><time>2026-05-02T16:57:00.786Z</time></trkpt><trkpt lat="43.022365" lon="11.0280983"><ele>401.4</ele><time>2026-05-02T16:57:02.786Z</time></trkpt><trkpt lat="43.0222833" lon="11.0279967"><ele>398.6</ele><time>2026-05-02T16:57:04.788Z</time></trkpt><trkpt lat="43.0222183" lon="11.0278783"><ele>395.79999999999995</ele><time>2026-05-02T16:57:06.791Z</time></trkpt><trkpt lat="43.0221583" lon="11.0277767"><ele>393.0</ele><time>2026-05-02T16:57:08.79Z</time></trkpt><trkpt lat="43.0221017" lon="11.0277083"><ele>393.0</ele><time>2026-05-02T16:57:10.789Z</time></trkpt><trkpt lat="43.0220533" lon="11.0276233"><ele>393.0</ele><time>2026-05-02T16:57:12.79Z</time></trkpt><trkpt lat="43.022" lon="11.0275017"><ele>393.0</ele><time>2026-05-02T16:57:14.788Z</time></trkpt><trkpt lat="43.0219583" lon="11.0273533"><ele>393.0</ele><time>2026-05-02T16:57:16.788Z</time></trkpt><trkpt lat="43.0219517" lon="11.0271983"><ele>393.0</ele><time>2026-05-02T16:57:18.786Z</time></trkpt><trkpt lat="43.021985" lon="11.0270267"><ele>392.0</ele><time>2026-05-02T16:57:20.787Z</time></trkpt><trkpt lat="43.0220133" lon="11.0269483"><ele>391.0</ele><time>2026-05-02T16:57:21.787Z</time></trkpt><trkpt lat="43.0220483" lon="11.0268683"><ele>390.0</ele><time>2026-05-02T16:57:22.788Z</time></trkpt><trkpt lat="43.0220867" lon="11.0267917"><ele>389.0</ele><time>2026-05-02T16:57:23.787Z</time></trkpt><trkpt lat="43.0221283" lon="11.02672"><ele>388.0</ele><time>2026-05-02T16:57:24.788Z</time></trkpt><trkpt lat="43.0222083" lon="11.0266033"><ele>387.0</ele><time>2026-05-02T16:57:26.787Z</time></trkpt><trkpt lat="43.02228" lon="11.0265267"><ele>384.3333333333333</ele><time>2026-05-02T16:57:28.789Z</time></trkpt><trkpt lat="43.0223" lon="11.02641"><ele>381.6666666666667</ele><time>2026-05-02T16:57:31.787Z</time></trkpt><trkpt lat="43.0222583" lon="11.0263183"><ele>379.0</ele><time>2026-05-02T16:57:33.787Z</time></trkpt><trkpt lat="43.02216" lon="11.02628"><ele>376.33333333333337</ele><time>2026-05-02T16:57:35.789Z</time></trkpt><trkpt lat="43.0220983" lon="11.0262983"><ele>373.6666666666667</ele><time>2026-05-02T16:57:36.788Z</time></trkpt><trkpt lat="43.0220167" lon="11.02635"><ele>371.0</ele><time>2026-05-02T16:57:37.79Z</time></trkpt><trkpt lat="43.021935" lon="11.0264067"><ele>371.0</ele><time>2026-05-02T16:57:38.789Z</time></trkpt><trkpt lat="43.0218583" lon="11.0264783"><ele>371.0</ele><time>2026-05-02T16:57:39.789Z</time></trkpt><trkpt lat="43.02178" lon="11.0265483"><ele>371.0</ele><time>2026-05-02T16:57:40.789Z</time></trkpt><trkpt lat="43.0217033" lon="11.0266217"><ele>371.0</ele><time>2026-05-02T16:57:41.789Z</time></trkpt><trkpt lat="43.02163" lon="11.026705"><ele>371.0</ele><time>2026-05-02T16:57:42.789Z</time></trkpt><trkpt lat="43.0215617" lon="11.026795"><ele>371.0</ele><time>2026-05-02T16:57:43.786Z</time></trkpt><trkpt lat="43.0214967" lon="11.0268783"><ele>371.0</ele><time>2026-05-02T16:57:44.789Z</time></trkpt><trkpt lat="43.02144" lon="11.0269617"><ele>371.0</ele><time>2026-05-02T16:57:45.79Z</time></trkpt><trkpt lat="43.0213967" lon="11.0270467"><ele>371.0</ele><time>2026-05-02T16:57:46.789Z</time></trkpt><trkpt lat="43.02136" lon="11.0271383"><ele>371.0</ele><time>2026-05-02T16:57:47.787Z</time></trkpt><trkpt lat="43.0213217" lon="11.027235"><ele>371.0</ele><time>2026-05-02T16:57:48.789Z</time></trkpt><trkpt lat="43.021275" lon="11.0273233"><ele>371.0</ele><time>2026-05-02T16:57:49.791Z</time></trkpt><trkpt lat="43.0212267" lon="11.027405"><ele>371.0</ele><time>2026-05-02T16:57:50.789Z</time></trkpt><trkpt lat="43.0211767" lon="11.0274733"><ele>371.0</ele><time>2026-05-02T16:57:51.79Z</time></trkpt><trkpt lat="43.0211033" lon="11.027515"><ele>371.0</ele><time>2026-05-02T16:57:52.79Z</time></trkpt><trkpt lat="43.021015" lon="11.0275333"><ele>371.0</ele><time>2026-05-02T16:57:53.789Z</time></trkpt><trkpt lat="43.020915" lon="11.0275367"><ele>371.0</ele><time>2026-05-02T16:57:54.789Z</time></trkpt><trkpt lat="43.0208117" lon="11.0275417"><ele>370.20000000000005</ele><time>2026-05-02T16:57:55.79Z</time></trkpt><trkpt lat="43.020705" lon="11.0275383"><ele>369.40000000000003</ele><time>2026-05-02T16:57:56.786Z</time></trkpt><trkpt lat="43.0205967" lon="11.02752"><ele>368.6</ele><time>2026-05-02T16:57:57.787Z</time></trkpt><trkpt lat="43.0204867" lon="11.0274883"><ele>367.8</ele><time>2026-05-02T16:57:58.786Z</time></trkpt><trkpt lat="43.0203733" lon="11.0274467"><ele>367.0</ele><time>2026-05-02T16:57:59.787Z</time></trkpt><trkpt lat="43.02026" lon="11.0274083"><ele>367.0</ele><time>2026-05-02T16:58:00.786Z</time></trkpt><trkpt lat="43.0201417" lon="11.0273683"><ele>367.0</ele><time>2026-05-02T16:58:01.787Z</time></trkpt><trkpt lat="43.0200167" lon="11.027335"><ele>367.0</ele><time>2026-05-02T16:58:02.786Z</time></trkpt><trkpt lat="43.019895" lon="11.0273"><ele>367.0</ele><time>2026-05-02T16:58:03.79Z</time></trkpt><trkpt lat="43.019775" lon="11.0272733"><ele>366.5</ele><time>2026-05-02T16:58:04.789Z</time></trkpt><trkpt lat="43.01965" lon="11.0272533"><ele>366.0</ele><time>2026-05-02T16:58:05.789Z</time></trkpt><trkpt lat="43.019525" lon="11.0272317"><ele>365.5</ele><time>2026-05-02T16:58:06.789Z</time></trkpt><trkpt lat="43.0194033" lon="11.027205"><ele>365.0</ele><time>2026-05-02T16:58:07.787Z</time></trkpt><trkpt lat="43.01928" lon="11.0271783"><ele>365.0</ele><time>2026-05-02T16:58:08.786Z</time></trkpt><trkpt lat="43.019155" lon="11.0271533"><ele>365.0</ele><time>2026-05-02T16:58:09.787Z</time></trkpt><trkpt lat="43.0190367" lon="11.027125"><ele>365.0</ele><time>2026-05-02T16:58:10.786Z</time></trkpt><trkpt lat="43.0189183" lon="11.0270983"><ele>365.0</ele><time>2026-05-02T16:58:11.786Z</time></trkpt><trkpt lat="43.0188117" lon="11.0270633"><ele>363.8</ele><time>2026-05-02T16:58:12.786Z</time></trkpt><trkpt lat="43.0187067" lon="11.0270183"><ele>362.6</ele><time>2026-05-02T16:58:13.786Z</time></trkpt><trkpt lat="43.018605" lon="11.02696"><ele>361.4</ele><time>2026-05-02T16:58:14.787Z</time></trkpt><trkpt lat="43.0185117" lon="11.0268767"><ele>360.2</ele><time>2026-05-02T16:58:15.785Z</time></trkpt><trkpt lat="43.0184317" lon="11.02677"><ele>359.0</ele><time>2026-05-02T16:58:16.791Z</time></trkpt><trkpt lat="43.018365" lon="11.02664"><ele>358.5</ele><time>2026-05-02T16:58:17.786Z</time></trkpt><trkpt lat="43.018305" lon="11.026495"><ele>358.0</ele><time>2026-05-02T16:58:18.786Z</time></trkpt><trkpt lat="43.0182467" lon="11.02635"><ele>357.5</ele><time>2026-05-02T16:58:19.787Z</time></trkpt><trkpt lat="43.0181883" lon="11.0262033"><ele>357.0</ele><time>2026-05-02T16:58:20.789Z</time></trkpt><trkpt lat="43.018115" lon="11.0260683"><ele>357.0</ele><time>2026-05-02T16:58:21.789Z</time></trkpt><trkpt lat="43.0180317" lon="11.0259483"><ele>357.0</ele><time>2026-05-02T16:58:22.789Z</time></trkpt><trkpt lat="43.01794" lon="11.0258467"><ele>357.0</ele><time>2026-05-02T16:58:23.789Z</time></trkpt><trkpt lat="43.0178433" lon="11.025755"><ele>357.0</ele><time>2026-05-02T16:58:24.789Z</time></trkpt><trkpt lat="43.0177417" lon="11.0256683"><ele>355.25</ele><time>2026-05-02T16:58:25.79Z</time></trkpt><trkpt lat="43.0176383" lon="11.0255883"><ele>353.5</ele><time>2026-05-02T16:58:26.786Z</time></trkpt><trkpt lat="43.0175383" lon="11.025505"><ele>351.75</ele><time>2026-05-02T16:58:27.787Z</time></trkpt><trkpt lat="43.0174383" lon="11.0254117"><ele>350.0</ele><time>2026-05-02T16:58:28.786Z</time></trkpt><trkpt lat="43.0173417" lon="11.0252983"><ele>350.0</ele><time>2026-05-02T16:58:29.788Z</time></trkpt><trkpt lat="43.01725" lon="11.0251767"><ele>350.0</ele><time>2026-05-02T16:58:30.786Z</time></trkpt><trkpt lat="43.0171667" lon="11.0250383"><ele>350.0</ele><time>2026-05-02T16:58:31.786Z</time></trkpt><trkpt lat="43.0170917" lon="11.0248983"><ele>350.0</ele><time>2026-05-02T16:58:32.789Z</time></trkpt><trkpt lat="43.0170267" lon="11.0247533"><ele>349.5</ele><time>2026-05-02T16:58:33.789Z</time></trkpt><trkpt lat="43.0169767" lon="11.0246"><ele>349.0</ele><time>2026-05-02T16:58:34.789Z</time></trkpt><trkpt lat="43.0169467" lon="11.0244417"><ele>348.5</ele><time>2026-05-02T16:58:35.789Z</time></trkpt><trkpt lat="43.0169283" lon="11.0242783"><ele>348.0</ele><time>2026-05-02T16:58:36.786Z</time></trkpt><trkpt lat="43.016915" lon="11.0241033"><ele>347.75</ele><time>2026-05-02T16:58:37.786Z</time></trkpt><trkpt lat="43.0168967" lon="11.023915"><ele>347.5</ele><time>2026-05-02T16:58:38.788Z</time></trkpt><trkpt lat="43.0168717" lon="11.023725"><ele>347.25</ele><time>2026-05-02T16:58:39.786Z</time></trkpt><trkpt lat="43.0168367" lon="11.02354"><ele>347.0</ele><time>2026-05-02T16:58:40.786Z</time></trkpt><trkpt lat="43.016805" lon="11.0233583"><ele>346.0</ele><time>2026-05-02T16:58:41.792Z</time></trkpt><trkpt lat="43.01677" lon="11.0231817"><ele>345.0</ele><time>2026-05-02T16:58:42.787Z</time></trkpt><trkpt lat="43.0167283" lon="11.0230183"><ele>344.0</ele><time>2026-05-02T16:58:43.787Z</time></trkpt><trkpt lat="43.0166633" lon="11.022875"><ele>343.0</ele><time>2026-05-02T16:58:44.786Z</time></trkpt><trkpt lat="43.016585" lon="11.0227467"><ele>343.0</ele><time>2026-05-02T16:58:45.787Z</time></trkpt><trkpt lat="43.016485" lon="11.0226367"><ele>343.0</ele><time>2026-05-02T16:58:46.786Z</time></trkpt><trkpt lat="43.01638" lon="11.0225317"><ele>343.0</ele><time>2026-05-02T16:58:47.786Z</time></trkpt><trkpt lat="43.016285" lon="11.0224233"><ele>343.0</ele><time>2026-05-02T16:58:48.785Z</time></trkpt><trkpt lat="43.0161917" lon="11.02232"><ele>341.2</ele><time>2026-05-02T16:58:49.784Z</time></trkpt><trkpt lat="43.0161117" lon="11.0222267"><ele>339.4</ele><time>2026-05-02T16:58:50.789Z</time></trkpt><trkpt lat="43.0160183" lon="11.0221583"><ele>337.59999999999997</ele><time>2026-05-02T16:58:51.789Z</time></trkpt><trkpt lat="43.0159183" lon="11.02212"><ele>335.79999999999995</ele><time>2026-05-02T16:58:52.79Z</time></trkpt><trkpt lat="43.0157967" lon="11.02212"><ele>334.0</ele><time>2026-05-02T16:58:53.788Z</time></trkpt><trkpt lat="43.0156817" lon="11.0221383"><ele>334.0</ele><time>2026-05-02T16:58:54.788Z</time></trkpt><trkpt lat="43.015575" lon="11.0221233"><ele>334.0</ele><time>2026-05-02T16:58:55.788Z</time></trkpt><trkpt lat="43.0154783" lon="11.0220717"><ele>334.0</ele><time>2026-05-02T16:58:56.786Z</time></trkpt><trkpt lat="43.0154083" lon="11.0219867"><ele>334.0</ele><time>2026-05-02T16:58:57.785Z</time></trkpt><trkpt lat="43.015375" lon="11.021855"><ele>334.0</ele><time>2026-05-02T16:58:58.785Z</time></trkpt><trkpt lat="43.015355" lon="11.0217017"><ele>331.25</ele><time>2026-05-02T16:58:59.785Z</time></trkpt><trkpt lat="43.0153183" lon="11.0215467"><ele>328.5</ele><time>2026-05-02T16:59:00.786Z</time></trkpt><trkpt lat="43.0152567" lon="11.021405"><ele>325.75</ele><time>2026-05-02T16:59:01.785Z</time></trkpt><trkpt lat="43.015175" lon="11.0212783"><ele>323.0</ele><time>2026-05-02T16:59:02.785Z</time></trkpt><trkpt lat="43.0150683" lon="11.0211683"><ele>325.25</ele><time>2026-05-02T16:59:03.79Z</time></trkpt><trkpt lat="43.014965" lon="11.0210583"><ele>327.5</ele><time>2026-05-02T16:59:04.789Z</time></trkpt><trkpt lat="43.014865" lon="11.0209583"><ele>329.75</ele><time>2026-05-02T16:59:05.788Z</time></trkpt><trkpt lat="43.01476" lon="11.0208783"><ele>332.0</ele><time>2026-05-02T16:59:06.789Z</time></trkpt><trkpt lat="43.0146483" lon="11.02083"><ele>329.8</ele><time>2026-05-02T16:59:07.785Z</time></trkpt><trkpt lat="43.01454" lon="11.0207817"><ele>327.6</ele><time>2026-05-02T16:59:08.786Z</time></trkpt><trkpt lat="43.0144567" lon="11.0207033"><ele>325.40000000000003</ele><time>2026-05-02T16:59:09.785Z</time></trkpt><trkpt lat="43.01439" lon="11.020595"><ele>323.20000000000005</ele><time>2026-05-02T16:59:10.785Z</time></trkpt><trkpt lat="43.0143633" lon="11.0204367"><ele>321.0</ele><time>2026-05-02T16:59:11.785Z</time></trkpt><trkpt lat="43.0143333" lon="11.0202633"><ele>321.0</ele><time>2026-05-02T16:59:12.786Z</time></trkpt><trkpt lat="43.0142983" lon="11.02009"><ele>321.0</ele><time>2026-05-02T16:59:13.785Z</time></trkpt><trkpt lat="43.0142467" lon="11.01994"><ele>321.0</ele><time>2026-05-02T16:59:14.786Z</time></trkpt><trkpt lat="43.0141833" lon="11.0198133"><ele>321.0</ele><time>2026-05-02T16:59:15.785Z</time></trkpt><trkpt lat="43.0141017" lon="11.01972"><ele>316.0</ele><time>2026-05-02T16:59:16.789Z</time></trkpt><trkpt lat="43.0139983" lon="11.0196783"><ele>311.0</ele><time>2026-05-02T16:59:17.786Z</time></trkpt><trkpt lat="43.0138883" lon="11.0196833"><ele>306.0</ele><time>2026-05-02T16:59:18.786Z</time></trkpt><trkpt lat="43.0137783" lon="11.0197333"><ele>301.0</ele><time>2026-05-02T16:59:19.786Z</time></trkpt><trkpt lat="43.01367" lon="11.019795"><ele>301.0</ele><time>2026-05-02T16:59:20.789Z</time></trkpt><trkpt lat="43.0135617" lon="11.0198417"><ele>301.0</ele><time>2026-05-02T16:59:21.789Z</time></trkpt><trkpt lat="43.01345" lon="11.0198717"><ele>301.0</ele><time>2026-05-02T16:59:22.788Z</time></trkpt><trkpt lat="43.0133333" lon="11.0198667"><ele>301.0</ele><time>2026-05-02T16:59:23.79Z</time></trkpt><trkpt lat="43.0132217" lon="11.0198183"><ele>299.75</ele><time>2026-05-02T16:59:24.785Z</time></trkpt><trkpt lat="43.0131183" lon="11.01973"><ele>298.5</ele><time>2026-05-02T16:59:25.787Z</time></trkpt><trkpt lat="43.0130283" lon="11.0196433"><ele>297.25</ele><time>2026-05-02T16:59:26.787Z</time></trkpt><trkpt lat="43.0129267" lon="11.019585"><ele>296.0</ele><time>2026-05-02T16:59:27.786Z</time></trkpt><trkpt lat="43.01281" lon="11.019575"><ele>296.0</ele><time>2026-05-02T16:59:28.787Z</time></trkpt><trkpt lat="43.01268" lon="11.0196"><ele>296.0</ele><time>2026-05-02T16:59:29.787Z</time></trkpt><trkpt lat="43.01255" lon="11.019635"><ele>296.0</ele><time>2026-05-02T16:59:30.786Z</time></trkpt><trkpt lat="43.01242" lon="11.0196633"><ele>296.0</ele><time>2026-05-02T16:59:31.787Z</time></trkpt><trkpt lat="43.0122983" lon="11.01968"><ele>298.75</ele><time>2026-05-02T16:59:32.788Z</time></trkpt><trkpt lat="43.0121833" lon="11.0196767"><ele>301.5</ele><time>2026-05-02T16:59:33.789Z</time></trkpt><trkpt lat="43.012075" lon="11.019625"><ele>304.25</ele><time>2026-05-02T16:59:34.79Z</time></trkpt><trkpt lat="43.011985" lon="11.0195333"><ele>307.0</ele><time>2026-05-02T16:59:35.79Z</time></trkpt><trkpt lat="43.0118967" lon="11.0194267"><ele>307.0</ele><time>2026-05-02T16:59:36.788Z</time></trkpt><trkpt lat="43.0118083" lon="11.0192917"><ele>307.0</ele><time>2026-05-02T16:59:37.785Z</time></trkpt><trkpt lat="43.0117183" lon="11.0191517"><ele>307.0</ele><time>2026-05-02T16:59:38.786Z</time></trkpt><trkpt lat="43.0116417" lon="11.0189967"><ele>307.0</ele><time>2026-05-02T16:59:39.785Z</time></trkpt><trkpt lat="43.011575" lon="11.0188383"><ele>304.75</ele><time>2026-05-02T16:59:40.785Z</time></trkpt><trkpt lat="43.011505" lon="11.0186917"><ele>302.5</ele><time>2026-05-02T16:59:41.785Z</time></trkpt><trkpt lat="43.0114267" lon="11.0185533"><ele>300.25</ele><time>2026-05-02T16:59:42.785Z</time></trkpt><trkpt lat="43.01133" lon="11.0184283"><ele>298.0</ele><time>2026-05-02T16:59:43.786Z</time></trkpt><trkpt lat="43.0112117" lon="11.0183233"><ele>294.25</ele><time>2026-05-02T16:59:44.786Z</time></trkpt><trkpt lat="43.011075" lon="11.0182333"><ele>290.5</ele><time>2026-05-02T16:59:45.785Z</time></trkpt><trkpt lat="43.0109333" lon="11.018165"><ele>286.75</ele><time>2026-05-02T16:59:46.79Z</time></trkpt><trkpt lat="43.01079" lon="11.0181233"><ele>283.0</ele><time>2026-05-02T16:59:47.786Z</time></trkpt><trkpt lat="43.0106583" lon="11.0180933"><ele>283.0</ele><time>2026-05-02T16:59:48.786Z</time></trkpt><trkpt lat="43.0105383" lon="11.018065"><ele>283.0</ele><time>2026-05-02T16:59:49.786Z</time></trkpt><trkpt lat="43.010425" lon="11.0180133"><ele>283.0</ele><time>2026-05-02T16:59:50.789Z</time></trkpt><trkpt lat="43.0103117" lon="11.0179567"><ele>283.0</ele><time>2026-05-02T16:59:51.788Z</time></trkpt><trkpt lat="43.0102083" lon="11.0179083"><ele>283.0</ele><time>2026-05-02T16:59:52.789Z</time></trkpt><trkpt lat="43.0100983" lon="11.0178917"><ele>283.0</ele><time>2026-05-02T16:59:53.788Z</time></trkpt><trkpt lat="43.01" lon="11.0179"><ele>283.0</ele><time>2026-05-02T16:59:54.785Z</time></trkpt><trkpt lat="43.009905" lon="11.01793"><ele>283.0</ele><time>2026-05-02T16:59:55.79Z</time></trkpt><trkpt lat="43.0098017" lon="11.017965"><ele>283.0</ele><time>2026-05-02T16:59:56.785Z</time></trkpt><trkpt lat="43.0096933" lon="11.0179917"><ele>282.2</ele><time>2026-05-02T16:59:57.789Z</time></trkpt><trkpt lat="43.0095833" lon="11.0180133"><ele>281.4</ele><time>2026-05-02T16:59:58.789Z</time></trkpt><trkpt lat="43.00948" lon="11.0180217"><ele>280.59999999999997</ele><time>2026-05-02T16:59:59.788Z</time></trkpt><trkpt lat="43.0093783" lon="11.018015"><ele>279.8</ele><time>2026-05-02T17:00:00.788Z</time></trkpt><trkpt lat="43.0092833" lon="11.0179833"><ele>279.0</ele><time>2026-05-02T17:00:01.788Z</time></trkpt><trkpt lat="43.0092" lon="11.0179083"><ele>277.5</ele><time>2026-05-02T17:00:02.788Z</time></trkpt><trkpt lat="43.0091317" lon="11.0177933"><ele>276.0</ele><time>2026-05-02T17:00:03.788Z</time></trkpt><trkpt lat="43.009075" lon="11.0176417"><ele>274.5</ele><time>2026-05-02T17:00:04.788Z</time></trkpt><trkpt lat="43.0090183" lon="11.0174767"><ele>273.0</ele><time>2026-05-02T17:00:05.789Z</time></trkpt><trkpt lat="43.0089617" lon="11.0173033"><ele>273.0</ele><time>2026-05-02T17:00:06.788Z</time></trkpt><trkpt lat="43.0089" lon="11.017125"><ele>273.0</ele><time>2026-05-02T17:00:07.785Z</time></trkpt><trkpt lat="43.008835" lon="11.0169417"><ele>273.0</ele><time>2026-05-02T17:00:08.787Z</time></trkpt><trkpt lat="43.0087667" lon="11.0167633"><ele>273.0</ele><time>2026-05-02T17:00:09.785Z</time></trkpt><trkpt lat="43.0086967" lon="11.0165983"><ele>273.5</ele><time>2026-05-02T17:00:10.787Z</time></trkpt><trkpt lat="43.00862" lon="11.016455"><ele>274.0</ele><time>2026-05-02T17:00:11.788Z</time></trkpt><trkpt lat="43.0085217" lon="11.01635"><ele>274.5</ele><time>2026-05-02T17:00:12.785Z</time></trkpt><trkpt lat="43.0084" lon="11.0162717"><ele>275.0</ele><time>2026-05-02T17:00:13.785Z</time></trkpt><trkpt lat="43.00827" lon="11.01621"><ele>274.0</ele><time>2026-05-02T17:00:14.785Z</time></trkpt><trkpt lat="43.0081417" lon="11.0161467"><ele>273.0</ele><time>2026-05-02T17:00:15.785Z</time></trkpt><trkpt lat="43.0080217" lon="11.0160583"><ele>272.0</ele><time>2026-05-02T17:00:16.785Z</time></trkpt><trkpt lat="43.007905" lon="11.0159483"><ele>271.0</ele><time>2026-05-02T17:00:17.786Z</time></trkpt><trkpt lat="43.0077917" lon="11.0158217"><ele>274.0</ele><time>2026-05-02T17:00:18.786Z</time></trkpt><trkpt lat="43.007675" lon="11.015685"><ele>277.0</ele><time>2026-05-02T17:00:19.786Z</time></trkpt><trkpt lat="43.0075533" lon="11.0155433"><ele>280.0</ele><time>2026-05-02T17:00:20.786Z</time></trkpt><trkpt lat="43.0074333" lon="11.0153933"><ele>278.0</ele><time>2026-05-02T17:00:21.785Z</time></trkpt><trkpt lat="43.00731" lon="11.01524"><ele>276.0</ele><time>2026-05-02T17:00:22.785Z</time></trkpt><trkpt lat="43.0071867" lon="11.01508"><ele>274.0</ele><time>2026-05-02T17:00:23.787Z</time></trkpt><trkpt lat="43.0070667" lon="11.01491"><ele>274.0</ele><time>2026-05-02T17:00:24.789Z</time></trkpt><trkpt lat="43.0069467" lon="11.0147417"><ele>274.0</ele><time>2026-05-02T17:00:25.788Z</time></trkpt><trkpt lat="43.0068283" lon="11.0145767"><ele>274.0</ele><time>2026-05-02T17:00:26.788Z</time></trkpt><trkpt lat="43.006715" lon="11.0144067"><ele>275.3333333333333</ele><time>2026-05-02T17:00:27.789Z</time></trkpt><trkpt lat="43.0066017" lon="11.01425"><ele>276.6666666666667</ele><time>2026-05-02T17:00:28.788Z</time></trkpt><trkpt lat="43.0064883" lon="11.0141117"><ele>278.0</ele><time>2026-05-02T17:00:29.789Z</time></trkpt><trkpt lat="43.0063617" lon="11.01401"><ele>278.0</ele><time>2026-05-02T17:00:30.788Z</time></trkpt><trkpt lat="43.0062217" lon="11.0139583"><ele>278.0</ele><time>2026-05-02T17:00:31.789Z</time></trkpt><trkpt lat="43.0060767" lon="11.0139617"><ele>278.0</ele><time>2026-05-02T17:00:32.789Z</time></trkpt><trkpt lat="43.0059267" lon="11.0140067"><ele>278.0</ele><time>2026-05-02T17:00:33.788Z</time></trkpt><trkpt lat="43.0057783" lon="11.014065"><ele>276.33333333333337</ele><time>2026-05-02T17:00:34.788Z</time></trkpt><trkpt lat="43.0056267" lon="11.0141033"><ele>274.6666666666667</ele><time>2026-05-02T17:00:35.786Z</time></trkpt><trkpt lat="43.0054717" lon="11.014125"><ele>273.0</ele><time>2026-05-02T17:00:36.785Z</time></trkpt><trkpt lat="43.0053267" lon="11.0141517"><ele>273.5</ele><time>2026-05-02T17:00:37.786Z</time></trkpt><trkpt lat="43.0051883" lon="11.0142033"><ele>274.0</ele><time>2026-05-02T17:00:38.789Z</time></trkpt><trkpt lat="43.0050567" lon="11.0142867"><ele>274.5</ele><time>2026-05-02T17:00:39.785Z</time></trkpt><trkpt lat="43.0049383" lon="11.0143967"><ele>275.0</ele><time>2026-05-02T17:00:40.788Z</time></trkpt><trkpt lat="43.0048383" lon="11.014525"><ele>275.0</ele><time>2026-05-02T17:00:41.787Z</time></trkpt><trkpt lat="43.0047483" lon="11.014655"><ele>275.0</ele><time>2026-05-02T17:00:42.786Z</time></trkpt><trkpt lat="43.00467" lon="11.014785"><ele>275.0</ele><time>2026-05-02T17:00:43.789Z</time></trkpt><trkpt lat="43.0046" lon="11.0149033"><ele>275.0</ele><time>2026-05-02T17:00:44.787Z</time></trkpt><trkpt lat="43.0045183" lon="11.0150067"><ele>273.0</ele><time>2026-05-02T17:00:45.786Z</time></trkpt><trkpt lat="43.0044183" lon="11.01509"><ele>271.0</ele><time>2026-05-02T17:00:46.785Z</time></trkpt><trkpt lat="43.00431" lon="11.0151617"><ele>269.0</ele><time>2026-05-02T17:00:47.789Z</time></trkpt><trkpt lat="43.0042033" lon="11.01525"><ele>267.0</ele><time>2026-05-02T17:00:48.787Z</time></trkpt><trkpt lat="43.0041067" lon="11.015375"><ele>266.75</ele><time>2026-05-02T17:00:49.787Z</time></trkpt><trkpt lat="43.0040183" lon="11.0155167"><ele>266.5</ele><time>2026-05-02T17:00:50.791Z</time></trkpt><trkpt lat="43.0039367" lon="11.0156583"><ele>266.25</ele><time>2026-05-02T17:00:51.789Z</time></trkpt><trkpt lat="43.003855" lon="11.0157783"><ele>266.0</ele><time>2026-05-02T17:00:52.788Z</time></trkpt><trkpt lat="43.0037667" lon="11.0158633"><ele>266.0</ele><time>2026-05-02T17:00:53.789Z</time></trkpt><trkpt lat="43.0036717" lon="11.0158967"><ele>266.0</ele><time>2026-05-02T17:00:54.79Z</time></trkpt><trkpt lat="43.0035683" lon="11.0158767"><ele>266.0</ele><time>2026-05-02T17:00:55.79Z</time></trkpt><trkpt lat="43.003465" lon="11.0158217"><ele>266.0</ele><time>2026-05-02T17:00:56.789Z</time></trkpt><trkpt lat="43.003355" lon="11.0157467"><ele>266.0</ele><time>2026-05-02T17:00:57.789Z</time></trkpt><trkpt lat="43.0032433" lon="11.0156633"><ele>265.5</ele><time>2026-05-02T17:00:58.791Z</time></trkpt><trkpt lat="43.0031167" lon="11.0156017"><ele>265.0</ele><time>2026-05-02T17:00:59.789Z</time></trkpt><trkpt lat="43.0029833" lon="11.0155633"><ele>264.5</ele><time>2026-05-02T17:01:00.785Z</time></trkpt><trkpt lat="43.0028367" lon="11.0155633"><ele>264.0</ele><time>2026-05-02T17:01:01.789Z</time></trkpt><trkpt lat="43.0027033" lon="11.01558"><ele>264.0</ele><time>2026-05-02T17:01:02.789Z</time></trkpt><trkpt lat="43.0025883" lon="11.0156217"><ele>264.0</ele><time>2026-05-02T17:01:03.785Z</time></trkpt><trkpt lat="43.0024883" lon="11.0157083"><ele>264.0</ele><time>2026-05-02T17:01:04.787Z</time></trkpt><trkpt lat="43.00241" lon="11.01584"><ele>264.0</ele><time>2026-05-02T17:01:05.79Z</time></trkpt><trkpt lat="43.0023433" lon="11.0159967"><ele>263.0</ele><time>2026-05-02T17:01:06.79Z</time></trkpt><trkpt lat="43.0022833" lon="11.01616"><ele>262.0</ele><time>2026-05-02T17:01:07.788Z</time></trkpt><trkpt lat="43.0022317" lon="11.0163133"><ele>261.0</ele><time>2026-05-02T17:01:08.789Z</time></trkpt><trkpt lat="43.0022033" lon="11.0164717"><ele>260.0</ele><time>2026-05-02T17:01:09.785Z</time></trkpt><trkpt lat="43.002185" lon="11.0166267"><ele>257.5</ele><time>2026-05-02T17:01:10.79Z</time></trkpt><trkpt lat="43.0021433" lon="11.0167833"><ele>255.0</ele><time>2026-05-02T17:01:11.79Z</time></trkpt><trkpt lat="43.0020683" lon="11.016925"><ele>252.5</ele><time>2026-05-02T17:01:12.789Z</time></trkpt><trkpt lat="43.0019733" lon="11.0170217"><ele>250.0</ele><time>2026-05-02T17:01:13.789Z</time></trkpt><trkpt lat="43.001865" lon="11.0170783"><ele>250.0</ele><time>2026-05-02T17:01:14.786Z</time></trkpt><trkpt lat="43.0017367" lon="11.0171083"><ele>250.0</ele><time>2026-05-02T17:01:15.79Z</time></trkpt><trkpt lat="43.001595" lon="11.0171333"><ele>250.0</ele><time>2026-05-02T17:01:16.786Z</time></trkpt><trkpt lat="43.001445" lon="11.01717"><ele>250.0</ele><time>2026-05-02T17:01:17.79Z</time></trkpt><trkpt lat="43.0013067" lon="11.0171983"><ele>247.25</ele><time>2026-05-02T17:01:18.789Z</time></trkpt><trkpt lat="43.0011767" lon="11.0172033"><ele>244.5</ele><time>2026-05-02T17:01:19.786Z</time></trkpt><trkpt lat="43.0010567" lon="11.0171783"><ele>241.75</ele><time>2026-05-02T17:01:20.787Z</time></trkpt><trkpt lat="43.0009617" lon="11.0171183"><ele>239.0</ele><time>2026-05-02T17:01:21.789Z</time></trkpt><trkpt lat="43.0008833" lon="11.01702"><ele>239.0</ele><time>2026-05-02T17:01:22.786Z</time></trkpt><trkpt lat="43.000835" lon="11.0168667"><ele>239.0</ele><time>2026-05-02T17:01:23.788Z</time></trkpt><trkpt lat="43.0007917" lon="11.0166967"><ele>239.0</ele><time>2026-05-02T17:01:24.788Z</time></trkpt><trkpt lat="43.0007233" lon="11.0165383"><ele>239.0</ele><time>2026-05-02T17:01:25.79Z</time></trkpt><trkpt lat="43.000635" lon="11.0163933"><ele>238.5</ele><time>2026-05-02T17:01:26.789Z</time></trkpt><trkpt lat="43.000535" lon="11.0162617"><ele>238.0</ele><time>2026-05-02T17:01:27.785Z</time></trkpt><trkpt lat="43.000425" lon="11.0161517"><ele>237.5</ele><time>2026-05-02T17:01:28.786Z</time></trkpt><trkpt lat="43.000305" lon="11.01606"><ele>237.0</ele><time>2026-05-02T17:01:29.787Z</time></trkpt><trkpt lat="43.0001833" lon="11.015995"><ele>237.0</ele><time>2026-05-02T17:01:30.787Z</time></trkpt><trkpt lat="43.0000617" lon="11.01596"><ele>237.0</ele><time>2026-05-02T17:01:31.787Z</time></trkpt><trkpt lat="42.9999267" lon="11.0159617"><ele>237.0</ele><time>2026-05-02T17:01:32.788Z</time></trkpt><trkpt lat="42.9997883" lon="11.0159633"><ele>237.0</ele><time>2026-05-02T17:01:33.787Z</time></trkpt><trkpt lat="42.9996517" lon="11.0159583"><ele>237.0</ele><time>2026-05-02T17:01:34.786Z</time></trkpt><trkpt lat="42.99952" lon="11.01593"><ele>237.0</ele><time>2026-05-02T17:01:35.787Z</time></trkpt><trkpt lat="42.9993933" lon="11.0158717"><ele>237.0</ele><time>2026-05-02T17:01:36.787Z</time></trkpt><trkpt lat="42.99927" lon="11.01578"><ele>237.0</ele><time>2026-05-02T17:01:37.786Z</time></trkpt><trkpt lat="42.99915" lon="11.0156717"><ele>237.0</ele><time>2026-05-02T17:01:38.787Z</time></trkpt><trkpt lat="42.9990133" lon="11.0155817"><ele>237.0</ele><time>2026-05-02T17:01:39.791Z</time></trkpt><trkpt lat="42.9988783" lon="11.0155"><ele>237.0</ele><time>2026-05-02T17:01:40.789Z</time></trkpt><trkpt lat="42.99875" lon="11.015415"><ele>237.0</ele><time>2026-05-02T17:01:41.786Z</time></trkpt><trkpt lat="42.998625" lon="11.0153033"><ele>237.0</ele><time>2026-05-02T17:01:42.789Z</time></trkpt><trkpt lat="42.998505" lon="11.0151667"><ele>237.0</ele><time>2026-05-02T17:01:43.786Z</time></trkpt><trkpt lat="42.99838" lon="11.0150317"><ele>237.0</ele><time>2026-05-02T17:01:44.792Z</time></trkpt><trkpt lat="42.9982567" lon="11.0149133"><ele>236.25</ele><time>2026-05-02T17:01:45.79Z</time></trkpt><trkpt lat="42.998145" lon="11.0148"><ele>235.5</ele><time>2026-05-02T17:01:46.787Z</time></trkpt><trkpt lat="42.9980433" lon="11.014695"><ele>234.75</ele><time>2026-05-02T17:01:47.788Z</time></trkpt><trkpt lat="42.99794" lon="11.01462"><ele>234.0</ele><time>2026-05-02T17:01:48.789Z</time></trkpt><trkpt lat="42.9978283" lon="11.0145933"><ele>234.0</ele><time>2026-05-02T17:01:49.786Z</time></trkpt><trkpt lat="42.9977083" lon="11.01462"><ele>234.0</ele><time>2026-05-02T17:01:50.789Z</time></trkpt><trkpt lat="42.9975983" lon="11.0146667"><ele>234.0</ele><time>2026-05-02T17:01:51.789Z</time></trkpt><trkpt lat="42.9974933" lon="11.0147"><ele>234.0</ele><time>2026-05-02T17:01:52.786Z</time></trkpt><trkpt lat="42.9973883" lon="11.0147067"><ele>232.2</ele><time>2026-05-02T17:01:53.786Z</time></trkpt><trkpt lat="42.99728" lon="11.0146783"><ele>230.39999999999998</ele><time>2026-05-02T17:01:54.791Z</time></trkpt><trkpt lat="42.99717" lon="11.0146233"><ele>228.6</ele><time>2026-05-02T17:01:55.79Z</time></trkpt><trkpt lat="42.997065" lon="11.01456"><ele>226.8</ele><time>2026-05-02T17:01:56.789Z</time></trkpt><trkpt lat="42.996965" lon="11.0145183"><ele>225.0</ele><time>2026-05-02T17:01:57.785Z</time></trkpt><trkpt lat="42.99687" lon="11.014515"><ele>225.0</ele><time>2026-05-02T17:01:58.786Z</time></trkpt><trkpt lat="42.9967783" lon="11.01457"><ele>225.0</ele><time>2026-05-02T17:01:59.786Z</time></trkpt><trkpt lat="42.99669" lon="11.01466"><ele>225.0</ele><time>2026-05-02T17:02:00.786Z</time></trkpt><trkpt lat="42.9965967" lon="11.014745"><ele>225.0</ele><time>2026-05-02T17:02:01.785Z</time></trkpt><trkpt lat="42.9964933" lon="11.0148017"><ele>225.0</ele><time>2026-05-02T17:02:02.787Z</time></trkpt><trkpt lat="42.9963783" lon="11.01482"><ele>223.5</ele><time>2026-05-02T17:02:03.787Z</time></trkpt><trkpt lat="42.99626" lon="11.014795"><ele>222.0</ele><time>2026-05-02T17:02:04.786Z</time></trkpt><trkpt lat="42.996145" lon="11.0147433"><ele>220.5</ele><time>2026-05-02T17:02:05.787Z</time></trkpt><trkpt lat="42.996035" lon="11.0146833"><ele>219.0</ele><time>2026-05-02T17:02:06.785Z</time></trkpt><trkpt lat="42.99593" lon="11.01464"><ele>218.79999999999998</ele><time>2026-05-02T17:02:07.786Z</time></trkpt><trkpt lat="42.99583" lon="11.0146317"><ele>218.59999999999997</ele><time>2026-05-02T17:02:08.791Z</time></trkpt><trkpt lat="42.9957367" lon="11.0146767"><ele>218.4</ele><time>2026-05-02T17:02:09.785Z</time></trkpt><trkpt lat="42.9956683" lon="11.0147683"><ele>218.2</ele><time>2026-05-02T17:02:10.787Z</time></trkpt><trkpt lat="42.99562" lon="11.0148967"><ele>218.0</ele><time>2026-05-02T17:02:11.788Z</time></trkpt><trkpt lat="42.9955683" lon="11.0150317"><ele>215.5</ele><time>2026-05-02T17:02:12.787Z</time></trkpt><trkpt lat="42.9954933" lon="11.0151567"><ele>213.0</ele><time>2026-05-02T17:02:13.787Z</time></trkpt><trkpt lat="42.9954" lon="11.0152733"><ele>210.5</ele><time>2026-05-02T17:02:14.787Z</time></trkpt><trkpt lat="42.9953033" lon="11.015385"><ele>208.0</ele><time>2026-05-02T17:02:15.787Z</time></trkpt><trkpt lat="42.9952117" lon="11.0155017"><ele>208.0</ele><time>2026-05-02T17:02:16.788Z</time></trkpt><trkpt lat="42.9951283" lon="11.01562"><ele>208.0</ele><time>2026-05-02T17:02:17.789Z</time></trkpt><trkpt lat="42.9950567" lon="11.01575"><ele>208.0</ele><time>2026-05-02T17:02:18.788Z</time></trkpt><trkpt lat="42.9950033" lon="11.0159033"><ele>208.0</ele><time>2026-05-02T17:02:19.787Z</time></trkpt><trkpt lat="42.9949583" lon="11.0160683"><ele>207.5</ele><time>2026-05-02T17:02:20.791Z</time></trkpt><trkpt lat="42.9949083" lon="11.01624"><ele>207.0</ele><time>2026-05-02T17:02:21.789Z</time></trkpt><trkpt lat="42.9948417" lon="11.0164133"><ele>206.5</ele><time>2026-05-02T17:02:22.789Z</time></trkpt><trkpt lat="42.9947733" lon="11.016585"><ele>206.0</ele><time>2026-05-02T17:02:23.789Z</time></trkpt><trkpt lat="42.9947217" lon="11.0167717"><ele>203.0</ele><time>2026-05-02T17:02:24.79Z</time></trkpt><trkpt lat="42.9946883" lon="11.0169733"><ele>200.0</ele><time>2026-05-02T17:02:25.79Z</time></trkpt><trkpt lat="42.9946633" lon="11.0171817"><ele>197.0</ele><time>2026-05-02T17:02:26.789Z</time></trkpt><trkpt lat="42.9946517" lon="11.0173783"><ele>195.25</ele><time>2026-05-02T17:02:27.786Z</time></trkpt><trkpt lat="42.994665" lon="11.0175683"><ele>193.5</ele><time>2026-05-02T17:02:28.787Z</time></trkpt><trkpt lat="42.9946933" lon="11.0177467"><ele>191.75</ele><time>2026-05-02T17:02:29.787Z</time></trkpt><trkpt lat="42.9947233" lon="11.01792"><ele>190.0</ele><time>2026-05-02T17:02:30.786Z</time></trkpt><trkpt lat="42.9947417" lon="11.018085"><ele>190.0</ele><time>2026-05-02T17:02:31.786Z</time></trkpt><trkpt lat="42.9947283" lon="11.0182483"><ele>190.0</ele><time>2026-05-02T17:02:32.787Z</time></trkpt><trkpt lat="42.99469" lon="11.0184117"><ele>190.0</ele><time>2026-05-02T17:02:33.786Z</time></trkpt><trkpt lat="42.99464" lon="11.01856"><ele>190.0</ele><time>2026-05-02T17:02:34.788Z</time></trkpt><trkpt lat="42.99458" lon="11.01868"><ele>189.4</ele><time>2026-05-02T17:02:35.787Z</time></trkpt><trkpt lat="42.9945117" lon="11.0187667"><ele>188.8</ele><time>2026-05-02T17:02:36.786Z</time></trkpt><trkpt lat="42.994415" lon="11.01879"><ele>188.2</ele><time>2026-05-02T17:02:37.786Z</time></trkpt><trkpt lat="42.9943083" lon="11.0187683"><ele>187.6</ele><time>2026-05-02T17:02:38.786Z</time></trkpt><trkpt lat="42.99417" lon="11.0186917"><ele>187.0</ele><time>2026-05-02T17:02:39.786Z</time></trkpt><trkpt lat="42.9940133" lon="11.0185767"><ele>192.0</ele><time>2026-05-02T17:02:40.786Z</time></trkpt><trkpt lat="42.9938767" lon="11.018445"><ele>197.0</ele><time>2026-05-02T17:02:41.786Z</time></trkpt><trkpt lat="42.9937483" lon="11.0183033"><ele>202.0</ele><time>2026-05-02T17:02:42.789Z</time></trkpt><trkpt lat="42.99363" lon="11.0181667"><ele>202.5</ele><time>2026-05-02T17:02:43.786Z</time></trkpt><trkpt lat="42.9935233" lon="11.0180433"><ele>203.0</ele><time>2026-05-02T17:02:44.787Z</time></trkpt><trkpt lat="42.9934083" lon="11.0179617"><ele>203.5</ele><time>2026-05-02T17:02:45.789Z</time></trkpt><trkpt lat="42.9932817" lon="11.0179167"><ele>204.0</ele><time>2026-05-02T17:02:46.788Z</time></trkpt><trkpt lat="42.9931483" lon="11.0179083"><ele>204.0</ele><time>2026-05-02T17:02:47.788Z</time></trkpt><trkpt lat="42.9930133" lon="11.0179267"><ele>204.0</ele><time>2026-05-02T17:02:48.787Z</time></trkpt><trkpt lat="42.992885" lon="11.01797"><ele>204.0</ele><time>2026-05-02T17:02:49.787Z</time></trkpt><trkpt lat="42.9927583" lon="11.0180117"><ele>204.0</ele><time>2026-05-02T17:02:50.786Z</time></trkpt><trkpt lat="42.99263" lon="11.01803"><ele>203.5</ele><time>2026-05-02T17:02:51.786Z</time></trkpt><trkpt lat="42.9924817" lon="11.0180317"><ele>203.0</ele><time>2026-05-02T17:02:52.785Z</time></trkpt><trkpt lat="42.9923383" lon="11.0180067"><ele>202.5</ele><time>2026-05-02T17:02:53.789Z</time></trkpt><trkpt lat="42.9921967" lon="11.0179967"><ele>202.0</ele><time>2026-05-02T17:02:54.788Z</time></trkpt><trkpt lat="42.9920717" lon="11.0180133"><ele>202.0</ele><time>2026-05-02T17:02:55.789Z</time></trkpt><trkpt lat="42.9919633" lon="11.0180567"><ele>202.0</ele><time>2026-05-02T17:02:56.785Z</time></trkpt><trkpt lat="42.9918683" lon="11.01814"><ele>202.0</ele><time>2026-05-02T17:02:57.787Z</time></trkpt><trkpt lat="42.9917817" lon="11.0182533"><ele>202.0</ele><time>2026-05-02T17:02:58.786Z</time></trkpt><trkpt lat="42.9916917" lon="11.018375"><ele>199.5</ele><time>2026-05-02T17:02:59.786Z</time></trkpt><trkpt lat="42.9915867" lon="11.0184867"><ele>197.0</ele><time>2026-05-02T17:03:00.786Z</time></trkpt><trkpt lat="42.9914567" lon="11.0185967"><ele>194.5</ele><time>2026-05-02T17:03:01.786Z</time></trkpt><trkpt lat="42.99134" lon="11.0187"><ele>192.0</ele><time>2026-05-02T17:03:02.787Z</time></trkpt><trkpt lat="42.9912283" lon="11.0187967"><ele>192.0</ele><time>2026-05-02T17:03:03.787Z</time></trkpt><trkpt lat="42.9911117" lon="11.01887"><ele>192.0</ele><time>2026-05-02T17:03:04.787Z</time></trkpt><trkpt lat="42.99099" lon="11.0189067"><ele>192.0</ele><time>2026-05-02T17:03:05.786Z</time></trkpt><trkpt lat="42.9908633" lon="11.0189033"><ele>192.0</ele><time>2026-05-02T17:03:06.786Z</time></trkpt><trkpt lat="42.9907367" lon="11.0188733"><ele>192.5</ele><time>2026-05-02T17:03:07.787Z</time></trkpt><trkpt lat="42.9906083" lon="11.0188433"><ele>193.0</ele><time>2026-05-02T17:03:08.788Z</time></trkpt><trkpt lat="42.990475" lon="11.0188483"><ele>193.5</ele><time>2026-05-02T17:03:09.784Z</time></trkpt><trkpt lat="42.9903483" lon="11.018865"><ele>194.0</ele><time>2026-05-02T17:03:10.786Z</time></trkpt><trkpt lat="42.99023" lon="11.0188833"><ele>194.0</ele><time>2026-05-02T17:03:11.787Z</time></trkpt><trkpt lat="42.9901183" lon="11.018895"><ele>194.0</ele><time>2026-05-02T17:03:12.787Z</time></trkpt><trkpt lat="42.990015" lon="11.0188783"><ele>194.0</ele><time>2026-05-02T17:03:13.786Z</time></trkpt><trkpt lat="42.989925" lon="11.0188217"><ele>194.0</ele><time>2026-05-02T17:03:14.786Z</time></trkpt><trkpt lat="42.9898633" lon="11.0187367"><ele>194.0</ele><time>2026-05-02T17:03:15.787Z</time></trkpt><trkpt lat="42.9898217" lon="11.0186433"><ele>195.5</ele><time>2026-05-02T17:03:16.788Z</time></trkpt><trkpt lat="42.9898367" lon="11.0185167"><ele>197.0</ele><time>2026-05-02T17:03:17.789Z</time></trkpt><trkpt lat="42.9899" lon="11.018335"><ele>198.5</ele><time>2026-05-02T17:03:18.785Z</time></trkpt><trkpt lat="42.9899867" lon="11.0181267"><ele>200.0</ele><time>2026-05-02T17:03:19.787Z</time></trkpt><trkpt lat="42.9900767" lon="11.0179017"><ele>200.0</ele><time>2026-05-02T17:03:20.788Z</time></trkpt><trkpt lat="42.99013" lon="11.0177083"><ele>200.0</ele><time>2026-05-02T17:03:21.79Z</time></trkpt><trkpt lat="42.990155" lon="11.0175267"><ele>200.0</ele><time>2026-05-02T17:03:22.789Z</time></trkpt><trkpt lat="42.9901383" lon="11.0173567"><ele>200.0</ele><time>2026-05-02T17:03:23.788Z</time></trkpt><trkpt lat="42.9900817" lon="11.01722"><ele>194.4</ele><time>2026-05-02T17:03:24.788Z</time></trkpt><trkpt lat="42.9900067" lon="11.0171167"><ele>188.8</ele><time>2026-05-02T17:03:25.788Z</time></trkpt><trkpt lat="42.98992" lon="11.0170317"><ele>183.2</ele><time>2026-05-02T17:03:26.785Z</time></trkpt><trkpt lat="42.9898467" lon="11.0169333"><ele>177.6</ele><time>2026-05-02T17:03:27.785Z</time></trkpt><trkpt lat="42.9897933" lon="11.0168117"><ele>172.0</ele><time>2026-05-02T17:03:28.786Z</time></trkpt><trkpt lat="42.98976" lon="11.0166717"><ele>170.5</ele><time>2026-05-02T17:03:29.786Z</time></trkpt><trkpt lat="42.9897533" lon="11.01652"><ele>169.0</ele><time>2026-05-02T17:03:30.785Z</time></trkpt><trkpt lat="42.9897667" lon="11.0163667"><ele>167.5</ele><time>2026-05-02T17:03:31.785Z</time></trkpt><trkpt lat="42.9898" lon="11.0162183"><ele>166.0</ele><time>2026-05-02T17:03:32.785Z</time></trkpt><trkpt lat="42.9898483" lon="11.01608"><ele>166.0</ele><time>2026-05-02T17:03:33.789Z</time></trkpt><trkpt lat="42.9899167" lon="11.0159417"><ele>166.0</ele><time>2026-05-02T17:03:34.788Z</time></trkpt><trkpt lat="42.990005" lon="11.015815"><ele>166.0</ele><time>2026-05-02T17:03:35.788Z</time></trkpt><trkpt lat="42.99011" lon="11.0157017"><ele>166.0</ele><time>2026-05-02T17:03:36.786Z</time></trkpt><trkpt lat="42.9902283" lon="11.015595"><ele>166.0</ele><time>2026-05-02T17:03:37.787Z</time></trkpt><trkpt lat="42.9903483" lon="11.0154867"><ele>166.0</ele><time>2026-05-02T17:03:38.787Z</time></trkpt><trkpt lat="42.9904667" lon="11.0153783"><ele>166.0</ele><time>2026-05-02T17:03:39.786Z</time></trkpt><trkpt lat="42.99058" lon="11.0152883"><ele>166.0</ele><time>2026-05-02T17:03:40.787Z</time></trkpt><trkpt lat="42.9906867" lon="11.0152117"><ele>166.0</ele><time>2026-05-02T17:03:41.787Z</time></trkpt><trkpt lat="42.9907883" lon="11.015145"><ele>166.0</ele><time>2026-05-02T17:03:42.788Z</time></trkpt><trkpt lat="42.9908867" lon="11.0150867"><ele>166.0</ele><time>2026-05-02T17:03:43.787Z</time></trkpt><trkpt lat="42.9909767" lon="11.01503"><ele>166.0</ele><time>2026-05-02T17:03:44.788Z</time></trkpt><trkpt lat="42.99104" lon="11.01497"><ele>166.0</ele><time>2026-05-02T17:03:45.789Z</time></trkpt><trkpt lat="42.9910883" lon="11.0148983"><ele>168.14285714285714</ele><time>2026-05-02T17:03:46.788Z</time></trkpt><trkpt lat="42.9911117" lon="11.0148083"><ele>170.2857142857143</ele><time>2026-05-02T17:03:47.788Z</time></trkpt><trkpt lat="42.99111" lon="11.0147083"><ele>172.42857142857144</ele><time>2026-05-02T17:03:48.786Z</time></trkpt><trkpt lat="42.9910817" lon="11.0146083"><ele>174.57142857142856</ele><time>2026-05-02T17:03:49.788Z</time></trkpt><trkpt lat="42.99105" lon="11.0145217"><ele>176.71428571428572</ele><time>2026-05-02T17:03:50.785Z</time></trkpt><trkpt lat="42.9910067" lon="11.0144483"><ele>178.85714285714286</ele><time>2026-05-02T17:03:51.789Z</time></trkpt><trkpt lat="42.9909517" lon="11.014395"><ele>181.0</ele><time>2026-05-02T17:03:52.786Z</time></trkpt><trkpt lat="42.990895" lon="11.0143483"><ele>180.85714285714286</ele><time>2026-05-02T17:03:53.786Z</time></trkpt><trkpt lat="42.99083" lon="11.01431"><ele>180.71428571428572</ele><time>2026-05-02T17:03:54.786Z</time></trkpt><trkpt lat="42.9907733" lon="11.0142567"><ele>180.57142857142856</ele><time>2026-05-02T17:03:55.787Z</time></trkpt><trkpt lat="42.9907267" lon="11.01419"><ele>180.42857142857144</ele><time>2026-05-02T17:03:56.786Z</time></trkpt><trkpt lat="42.99069" lon="11.0141167"><ele>180.2857142857143</ele><time>2026-05-02T17:03:57.786Z</time></trkpt><trkpt lat="42.9906517" lon="11.0140383"><ele>180.14285714285714</ele><time>2026-05-02T17:03:58.787Z</time></trkpt><trkpt lat="42.9906083" lon="11.0139667"><ele>180.0</ele><time>2026-05-02T17:03:59.788Z</time></trkpt><trkpt lat="42.99056" lon="11.0139017"><ele>180.0</ele><time>2026-05-02T17:04:00.786Z</time></trkpt><trkpt lat="42.9904983" lon="11.013845"><ele>180.0</ele><time>2026-05-02T17:04:01.786Z</time></trkpt><trkpt lat="42.990435" lon="11.0137817"><ele>180.0</ele><time>2026-05-02T17:04:02.788Z</time></trkpt><trkpt lat="42.9903667" lon="11.0137133"><ele>180.0</ele><time>2026-05-02T17:04:03.789Z</time></trkpt><trkpt lat="42.9903017" lon="11.01364"><ele>180.0</ele><time>2026-05-02T17:04:04.788Z</time></trkpt><trkpt lat="42.9902367" lon="11.0135633"><ele>180.0</ele><time>2026-05-02T17:04:05.786Z</time></trkpt><trkpt lat="42.990165" lon="11.0135"><ele>180.0</ele><time>2026-05-02T17:04:06.786Z</time></trkpt><trkpt lat="42.9900967" lon="11.0134433"><ele>180.0</ele><time>2026-05-02T17:04:07.788Z</time></trkpt><trkpt lat="42.9900067" lon="11.01341"><ele>180.0</ele><time>2026-05-02T17:04:08.786Z</time></trkpt><trkpt lat="42.9899183" lon="11.0133783"><ele>180.0</ele><time>2026-05-02T17:04:09.787Z</time></trkpt><trkpt lat="42.98984" lon="11.0133417"><ele>180.0</ele><time>2026-05-02T17:04:10.789Z</time></trkpt><trkpt lat="42.9897733" lon="11.0133083"><ele>180.0</ele><time>2026-05-02T17:04:11.789Z</time></trkpt><trkpt lat="42.9896833" lon="11.0132533"><ele>178.8</ele><time>2026-05-02T17:04:13.789Z</time></trkpt><trkpt lat="42.9896317" lon="11.013185"><ele>177.6</ele><time>2026-05-02T17:04:16.789Z</time></trkpt><trkpt lat="42.98955" lon="11.013185"><ele>176.39999999999998</ele><time>2026-05-02T17:04:19.789Z</time></trkpt><trkpt lat="42.9894667" lon="11.0132183"><ele>175.2</ele><time>2026-05-02T17:04:21.787Z</time></trkpt><trkpt lat="42.9893717" lon="11.0132567"><ele>174.0</ele><time>2026-05-02T17:04:23.786Z</time></trkpt><trkpt lat="42.9892433" lon="11.0132867"><ele>173.66666666666666</ele><time>2026-05-02T17:04:25.785Z</time></trkpt><trkpt lat="42.9891667" lon="11.0133"><ele>173.33333333333334</ele><time>2026-05-02T17:04:26.789Z</time></trkpt><trkpt lat="42.9890833" lon="11.0133167"><ele>173.0</ele><time>2026-05-02T17:04:27.789Z</time></trkpt><trkpt lat="42.9889933" lon="11.013335"><ele>172.66666666666669</ele><time>2026-05-02T17:04:28.785Z</time></trkpt><trkpt lat="42.9889033" lon="11.0133633"><ele>172.33333333333334</ele><time>2026-05-02T17:04:29.789Z</time></trkpt><trkpt lat="42.9888167" lon="11.0133883"><ele>172.0</ele><time>2026-05-02T17:04:30.785Z</time></trkpt><trkpt lat="42.988735" lon="11.0134133"><ele>172.0</ele><time>2026-05-02T17:04:31.789Z</time></trkpt><trkpt lat="42.9886717" lon="11.013435"><ele>172.0</ele><time>2026-05-02T17:04:32.788Z</time></trkpt><trkpt lat="42.98858" lon="11.0134733"><ele>172.0</ele><time>2026-05-02T17:04:34.785Z</time></trkpt><trkpt lat="42.9885217" lon="11.0135333"><ele>172.0</ele><time>2026-05-02T17:04:36.788Z</time></trkpt><trkpt lat="42.98843" lon="11.0136533"><ele>172.0</ele><time>2026-05-02T17:04:38.786Z</time></trkpt><trkpt lat="42.9883717" lon="11.0137183"><ele>172.0</ele><time>2026-05-02T17:04:39.79Z</time></trkpt><trkpt lat="42.98831" lon="11.0137867"><ele>172.0</ele><time>2026-05-02T17:04:40.787Z</time></trkpt><trkpt lat="42.98825" lon="11.01385"><ele>172.0</ele><time>2026-05-02T17:04:41.787Z</time></trkpt><trkpt lat="42.98819" lon="11.0139083"><ele>172.0</ele><time>2026-05-02T17:04:42.789Z</time></trkpt><trkpt lat="42.988135" lon="11.0139567"><ele>172.0</ele><time>2026-05-02T17:04:43.789Z</time></trkpt><trkpt lat="42.988015" lon="11.0140417"><ele>172.0</ele><time>2026-05-02T17:04:45.789Z</time></trkpt><trkpt lat="42.987955" lon="11.0140867"><ele>172.0</ele><time>2026-05-02T17:04:46.789Z</time></trkpt><trkpt lat="42.9878967" lon="11.0141267"><ele>171.2</ele><time>2026-05-02T17:04:47.786Z</time></trkpt><trkpt lat="42.9878333" lon="11.0141683"><ele>170.39999999999998</ele><time>2026-05-02T17:04:48.789Z</time></trkpt><trkpt lat="42.9877183" lon="11.0142433"><ele>169.60000000000002</ele><time>2026-05-02T17:04:50.786Z</time></trkpt><trkpt lat="42.9876217" lon="11.01429"><ele>168.8</ele><time>2026-05-02T17:04:52.788Z</time></trkpt><trkpt lat="42.9875033" lon="11.014335"><ele>168.0</ele><time>2026-05-02T17:04:54.788Z</time></trkpt><trkpt lat="42.9873883" lon="11.01437"><ele>168.0</ele><time>2026-05-02T17:04:56.786Z</time></trkpt><trkpt lat="42.98728" lon="11.014395"><ele>168.0</ele><time>2026-05-02T17:04:58.786Z</time></trkpt><trkpt lat="42.98716" lon="11.0143967"><ele>168.0</ele><time>2026-05-02T17:05:00.787Z</time></trkpt><trkpt lat="42.9870383" lon="11.01439"><ele>168.0</ele><time>2026-05-02T17:05:02.786Z</time></trkpt><trkpt lat="42.9869233" lon="11.0143833"><ele>168.0</ele><time>2026-05-02T17:05:04.785Z</time></trkpt><trkpt lat="42.9868167" lon="11.014385"><ele>168.0</ele><time>2026-05-02T17:05:06.785Z</time></trkpt><trkpt lat="42.9867183" lon="11.0143667"><ele>168.0</ele><time>2026-05-02T17:05:08.786Z</time></trkpt><trkpt lat="42.9866017" lon="11.0143333"><ele>168.0</ele><time>2026-05-02T17:05:10.789Z</time></trkpt><trkpt lat="42.98653" lon="11.0143133"><ele>168.0</ele><time>2026-05-02T17:05:11.788Z</time></trkpt><trkpt lat="42.986465" lon="11.0142983"><ele>166.85714285714286</ele><time>2026-05-02T17:05:12.788Z</time></trkpt><trkpt lat="42.9864" lon="11.014295"><ele>165.71428571428572</ele><time>2026-05-02T17:05:13.788Z</time></trkpt><trkpt lat="42.9863367" lon="11.0142967"><ele>164.57142857142856</ele><time>2026-05-02T17:05:14.788Z</time></trkpt><trkpt lat="42.9862667" lon="11.0143017"><ele>163.42857142857144</ele><time>2026-05-02T17:05:15.79Z</time></trkpt><trkpt lat="42.98619" lon="11.0143083"><ele>162.28571428571428</ele><time>2026-05-02T17:05:16.789Z</time></trkpt><trkpt lat="42.986115" lon="11.0143133"><ele>161.14285714285714</ele><time>2026-05-02T17:05:17.789Z</time></trkpt><trkpt lat="42.9860383" lon="11.01431"><ele>160.0</ele><time>2026-05-02T17:05:18.789Z</time></trkpt><trkpt lat="42.9859617" lon="11.0143083"><ele>160.0</ele><time>2026-05-02T17:05:19.788Z</time></trkpt><trkpt lat="42.9858917" lon="11.0143"><ele>160.0</ele><time>2026-05-02T17:05:20.789Z</time></trkpt><trkpt lat="42.9857767" lon="11.01423"><ele>160.0</ele><time>2026-05-02T17:05:22.789Z</time></trkpt><trkpt lat="42.985715" lon="11.0141817"><ele>160.0</ele><time>2026-05-02T17:05:23.79Z</time></trkpt><trkpt lat="42.9856067" lon="11.0141117"><ele>160.0</ele><time>2026-05-02T17:05:25.788Z</time></trkpt><trkpt lat="42.9855167" lon="11.014075"><ele>156.8</ele><time>2026-05-02T17:05:27.789Z</time></trkpt><trkpt lat="42.9854167" lon="11.0140617"><ele>153.6</ele><time>2026-05-02T17:05:29.789Z</time></trkpt><trkpt lat="42.9852867" lon="11.0140967"><ele>150.4</ele><time>2026-05-02T17:05:31.789Z</time></trkpt><trkpt lat="42.9852183" lon="11.0141167"><ele>147.2</ele><time>2026-05-02T17:05:32.789Z</time></trkpt><trkpt lat="42.9851417" lon="11.0141267"><ele>144.0</ele><time>2026-05-02T17:05:33.788Z</time></trkpt><trkpt lat="42.98507" lon="11.014135"><ele>142.16666666666666</ele><time>2026-05-02T17:05:34.79Z</time></trkpt><trkpt lat="42.985" lon="11.0141433"><ele>140.33333333333334</ele><time>2026-05-02T17:05:35.789Z</time></trkpt><trkpt lat="42.9849267" lon="11.014145"><ele>138.5</ele><time>2026-05-02T17:05:36.789Z</time></trkpt><trkpt lat="42.9848433" lon="11.0141533"><ele>136.66666666666669</ele><time>2026-05-02T17:05:37.787Z</time></trkpt><trkpt lat="42.9847583" lon="11.01416"><ele>134.83333333333334</ele><time>2026-05-02T17:05:38.788Z</time></trkpt><trkpt lat="42.9846717" lon="11.0141683"><ele>133.0</ele><time>2026-05-02T17:05:39.787Z</time></trkpt><trkpt lat="42.984585" lon="11.0141667"><ele>133.0</ele><time>2026-05-02T17:05:40.787Z</time></trkpt><trkpt lat="42.9845117" lon="11.014165"><ele>133.0</ele><time>2026-05-02T17:05:41.789Z</time></trkpt><trkpt lat="42.9844483" lon="11.0141633"><ele>133.0</ele><time>2026-05-02T17:05:42.785Z</time></trkpt><trkpt lat="42.9843333" lon="11.0141733"><ele>133.0</ele><time>2026-05-02T17:05:44.786Z</time></trkpt><trkpt lat="42.9842683" lon="11.014195"><ele>133.0</ele><time>2026-05-02T17:05:45.786Z</time></trkpt><trkpt lat="42.9841583" lon="11.0142367"><ele>133.0</ele><time>2026-05-02T17:05:47.787Z</time></trkpt><trkpt lat="42.9840683" lon="11.01427"><ele>132.66666666666669</ele><time>2026-05-02T17:05:49.787Z</time></trkpt><trkpt lat="42.98397" lon="11.0142833"><ele>132.33333333333334</ele><time>2026-05-02T17:05:51.789Z</time></trkpt><trkpt lat="42.9839033" lon="11.0142767"><ele>132.0</ele><time>2026-05-02T17:05:52.788Z</time></trkpt><trkpt lat="42.98383" lon="11.0142667"><ele>131.66666666666666</ele><time>2026-05-02T17:05:53.789Z</time></trkpt><trkpt lat="42.9837517" lon="11.014265"><ele>131.33333333333331</ele><time>2026-05-02T17:05:54.79Z</time></trkpt><trkpt lat="42.9836783" lon="11.0142633"><ele>131.0</ele><time>2026-05-02T17:05:55.786Z</time></trkpt><trkpt lat="42.9836117" lon="11.0142617"><ele>131.0</ele><time>2026-05-02T17:05:56.789Z</time></trkpt><trkpt lat="42.9835017" lon="11.0142483"><ele>131.0</ele><time>2026-05-02T17:05:58.789Z</time></trkpt><trkpt lat="42.9833967" lon="11.0142183"><ele>131.0</ele><time>2026-05-02T17:06:00.789Z</time></trkpt><trkpt lat="42.9832867" lon="11.0141817"><ele>131.0</ele><time>2026-05-02T17:06:02.789Z</time></trkpt><trkpt lat="42.9832217" lon="11.0141867"><ele>131.0</ele><time>2026-05-02T17:06:03.789Z</time></trkpt><trkpt lat="42.983155" lon="11.0141883"><ele>130.33333333333331</ele><time>2026-05-02T17:06:04.789Z</time></trkpt><trkpt lat="42.9830783" lon="11.0142"><ele>129.66666666666666</ele><time>2026-05-02T17:06:05.789Z</time></trkpt><trkpt lat="42.983005" lon="11.0142033"><ele>129.0</ele><time>2026-05-02T17:06:06.789Z</time></trkpt><trkpt lat="42.9829217" lon="11.014205"><ele>128.33333333333334</ele><time>2026-05-02T17:06:07.79Z</time></trkpt><trkpt lat="42.9828417" lon="11.0142067"><ele>127.66666666666667</ele><time>2026-05-02T17:06:08.786Z</time></trkpt><trkpt lat="42.982765" lon="11.0142083"><ele>127.0</ele><time>2026-05-02T17:06:09.786Z</time></trkpt><trkpt lat="42.9826867" lon="11.0142133"><ele>127.00000000000001</ele><time>2026-05-02T17:06:10.789Z</time></trkpt><trkpt lat="42.98261" lon="11.0142217"><ele>127.0</ele><time>2026-05-02T17:06:11.786Z</time></trkpt><trkpt lat="42.9825383" lon="11.0142233"><ele>127.0</ele><time>2026-05-02T17:06:12.787Z</time></trkpt><trkpt lat="42.9824733" lon="11.0142217"><ele>127.0</ele><time>2026-05-02T17:06:13.789Z</time></trkpt><trkpt lat="42.9823567" lon="11.01424"><ele>127.00000000000001</ele><time>2026-05-02T17:06:15.787Z</time></trkpt><trkpt lat="42.9822933" lon="11.01426"><ele>127.0</ele><time>2026-05-02T17:06:16.789Z</time></trkpt><trkpt lat="42.9822217" lon="11.0142867"><ele>126.16666666666667</ele><time>2026-05-02T17:06:17.786Z</time></trkpt><trkpt lat="42.982145" lon="11.0143183"><ele>125.33333333333334</ele><time>2026-05-02T17:06:18.786Z</time></trkpt><trkpt lat="42.982065" lon="11.0143417"><ele>124.5</ele><time>2026-05-02T17:06:19.787Z</time></trkpt><trkpt lat="42.98199" lon="11.014355"><ele>123.66666666666666</ele><time>2026-05-02T17:06:20.79Z</time></trkpt><trkpt lat="42.9819133" lon="11.014365"><ele>122.83333333333333</ele><time>2026-05-02T17:06:21.786Z</time></trkpt><trkpt lat="42.981835" lon="11.0143733"><ele>122.0</ele><time>2026-05-02T17:06:22.786Z</time></trkpt><trkpt lat="42.98175" lon="11.01438"><ele>120.83333333333333</ele><time>2026-05-02T17:06:23.787Z</time></trkpt><trkpt lat="42.981665" lon="11.0143883"><ele>119.66666666666666</ele><time>2026-05-02T17:06:24.787Z</time></trkpt><trkpt lat="42.9815817" lon="11.0143983"><ele>118.5</ele><time>2026-05-02T17:06:25.786Z</time></trkpt><trkpt lat="42.9815017" lon="11.014405"><ele>117.33333333333334</ele><time>2026-05-02T17:06:26.79Z</time></trkpt><trkpt lat="42.98142" lon="11.014415"><ele>116.16666666666667</ele><time>2026-05-02T17:06:27.79Z</time></trkpt><trkpt lat="42.981335" lon="11.0144233"><ele>115.0</ele><time>2026-05-02T17:06:28.786Z</time></trkpt><trkpt lat="42.98125" lon="11.0144283"><ele>115.00000000000001</ele><time>2026-05-02T17:06:29.786Z</time></trkpt><trkpt lat="42.9811617" lon="11.0144317"><ele>115.0</ele><time>2026-05-02T17:06:30.785Z</time></trkpt><trkpt lat="42.9810783" lon="11.0144283"><ele>115.0</ele><time>2026-05-02T17:06:31.788Z</time></trkpt><trkpt lat="42.9809983" lon="11.0144233"><ele>115.0</ele><time>2026-05-02T17:06:32.79Z</time></trkpt><trkpt lat="42.980925" lon="11.01442"><ele>115.00000000000001</ele><time>2026-05-02T17:06:33.785Z</time></trkpt><trkpt lat="42.9808467" lon="11.0144167"><ele>115.0</ele><time>2026-05-02T17:06:34.787Z</time></trkpt><trkpt lat="42.9807667" lon="11.0144117"><ele>113.42857142857142</ele><time>2026-05-02T17:06:35.789Z</time></trkpt><trkpt lat="42.9806917" lon="11.0144017"><ele>111.85714285714286</ele><time>2026-05-02T17:06:36.787Z</time></trkpt><trkpt lat="42.9806217" lon="11.014395"><ele>110.28571428571428</ele><time>2026-05-02T17:06:37.787Z</time></trkpt><trkpt lat="42.9805517" lon="11.0143917"><ele>108.71428571428571</ele><time>2026-05-02T17:06:38.788Z</time></trkpt><trkpt lat="42.98048" lon="11.01439"><ele>107.14285714285714</ele><time>2026-05-02T17:06:39.787Z</time></trkpt><trkpt lat="42.9804" lon="11.01439"><ele>105.57142857142857</ele><time>2026-05-02T17:06:40.787Z</time></trkpt><trkpt lat="42.98032" lon="11.0143883"><ele>104.0</ele><time>2026-05-02T17:06:41.788Z</time></trkpt><trkpt lat="42.9802467" lon="11.0143883"><ele>104.0</ele><time>2026-05-02T17:06:42.788Z</time></trkpt><trkpt lat="42.98018" lon="11.0143867"><ele>104.0</ele><time>2026-05-02T17:06:43.788Z</time></trkpt><trkpt lat="42.9801167" lon="11.0143833"><ele>104.0</ele><time>2026-05-02T17:06:44.787Z</time></trkpt><trkpt lat="42.9800083" lon="11.014385"><ele>104.0</ele><time>2026-05-02T17:06:46.789Z</time></trkpt><trkpt lat="42.9799083" lon="11.0143967"><ele>104.0</ele><time>2026-05-02T17:06:48.789Z</time></trkpt><trkpt lat="42.979785" lon="11.014425"><ele>103.28571428571428</ele><time>2026-05-02T17:06:50.789Z</time></trkpt><trkpt lat="42.9797117" lon="11.0144367"><ele>102.57142857142858</ele><time>2026-05-02T17:06:51.789Z</time></trkpt><trkpt lat="42.9796417" lon="11.0144583"><ele>101.85714285714286</ele><time>2026-05-02T17:06:52.789Z</time></trkpt><trkpt lat="42.9795717" lon="11.0144983"><ele>101.14285714285714</ele><time>2026-05-02T17:06:53.789Z</time></trkpt><trkpt lat="42.97951" lon="11.014555"><ele>100.42857142857142</ele><time>2026-05-02T17:06:54.79Z</time></trkpt><trkpt lat="42.9794433" lon="11.014615"><ele>99.71428571428572</ele><time>2026-05-02T17:06:55.789Z</time></trkpt><trkpt lat="42.979385" lon="11.014665"><ele>99.0</ele><time>2026-05-02T17:06:56.789Z</time></trkpt><trkpt lat="42.9793017" lon="11.0147633"><ele>99.0</ele><time>2026-05-02T17:06:58.789Z</time></trkpt><trkpt lat="42.97929" lon="11.0148567"><ele>99.0</ele><time>2026-05-02T17:07:00.79Z</time></trkpt><trkpt lat="42.9793583" lon="11.0148983"><ele>99.0</ele><time>2026-05-02T17:07:02.79Z</time></trkpt><trkpt lat="42.979425" lon="11.0148933"><ele>99.0</ele><time>2026-05-02T17:07:03.789Z</time></trkpt><trkpt lat="42.97954" lon="11.0148733"><ele>99.0</ele><time>2026-05-02T17:07:05.786Z</time></trkpt><trkpt lat="42.97944" lon="11.01494"><ele>99.0</ele><time>2026-05-02T17:07:11.79Z</time></trkpt><trkpt lat="42.97934" lon="11.0149517"><ele>99.0</ele><time>2026-05-02T17:07:12.789Z</time></trkpt><trkpt lat="42.9792367" lon="11.0149733"><ele>99.0</ele><time>2026-05-02T17:07:13.789Z</time></trkpt><trkpt lat="42.979135" lon="11.0149933"><ele>99.0</ele><time>2026-05-02T17:07:14.789Z</time></trkpt><trkpt lat="42.979035" lon="11.0149817"><ele>99.0</ele><time>2026-05-02T17:07:15.786Z</time></trkpt><trkpt lat="42.9789483" lon="11.01494"><ele>99.0</ele><time>2026-05-02T17:07:16.787Z</time></trkpt><trkpt lat="42.9788733" lon="11.0148833"><ele>96.6</ele><time>2026-05-02T17:07:17.79Z</time></trkpt><trkpt lat="42.9788183" lon="11.014815"><ele>94.2</ele><time>2026-05-02T17:07:18.79Z</time></trkpt><trkpt lat="42.9787683" lon="11.014695"><ele>91.8</ele><time>2026-05-02T17:07:20.789Z</time></trkpt><trkpt lat="42.978815" lon="11.0145467"><ele>89.39999999999999</ele><time>2026-05-02T17:07:22.789Z</time></trkpt><trkpt lat="42.9788583" lon="11.0144483"><ele>87.0</ele><time>2026-05-02T17:07:23.789Z</time></trkpt><trkpt lat="42.9789283" lon="11.0143333"><ele>87.0</ele><time>2026-05-02T17:07:24.789Z</time></trkpt><trkpt lat="42.9790083" lon="11.01418"><ele>87.0</ele><time>2026-05-02T17:07:25.789Z</time></trkpt><trkpt lat="42.9790833" lon="11.0140317"><ele>87.0</ele><time>2026-05-02T17:07:26.789Z</time></trkpt><trkpt lat="42.9791583" lon="11.0138717"><ele>87.0</ele><time>2026-05-02T17:07:27.789Z</time></trkpt><trkpt lat="42.9792367" lon="11.01371"><ele>87.0</ele><time>2026-05-02T17:07:28.789Z</time></trkpt><trkpt lat="42.97932" lon="11.0135417"><ele>87.0</ele><time>2026-05-02T17:07:29.789Z</time></trkpt><trkpt lat="42.979405" lon="11.013365"><ele>87.0</ele><time>2026-05-02T17:07:30.789Z</time></trkpt><trkpt lat="42.9794933" lon="11.01318"><ele>82.33333333333333</ele><time>2026-05-02T17:07:31.789Z</time></trkpt><trkpt lat="42.979585" lon="11.0129917"><ele>77.66666666666666</ele><time>2026-05-02T17:07:32.791Z</time></trkpt><trkpt lat="42.97968" lon="11.0128033"><ele>73.0</ele><time>2026-05-02T17:07:33.79Z</time></trkpt><trkpt lat="42.979775" lon="11.0126033"><ele>74.0</ele><time>2026-05-02T17:07:34.789Z</time></trkpt><trkpt lat="42.9798717" lon="11.0123967"><ele>75.0</ele><time>2026-05-02T17:07:35.789Z</time></trkpt><trkpt lat="42.9799683" lon="11.012195"><ele>76.0</ele><time>2026-05-02T17:07:36.789Z</time></trkpt><trkpt lat="42.9800683" lon="11.0119883"><ele>76.0</ele><time>2026-05-02T17:07:37.786Z</time></trkpt><trkpt lat="42.9801733" lon="11.01177"><ele>76.0</ele><time>2026-05-02T17:07:38.789Z</time></trkpt><trkpt lat="42.9802783" lon="11.0115533"><ele>76.0</ele><time>2026-05-02T17:07:39.789Z</time></trkpt><trkpt lat="42.9803783" lon="11.0113333"><ele>73.66666666666666</ele><time>2026-05-02T17:07:40.788Z</time></trkpt><trkpt lat="42.980475" lon="11.01111"><ele>71.33333333333333</ele><time>2026-05-02T17:07:41.79Z</time></trkpt><trkpt lat="42.98056" lon="11.0108817"><ele>69.0</ele><time>2026-05-02T17:07:42.792Z</time></trkpt><trkpt lat="42.9806233" lon="11.0106383"><ele>68.0</ele><time>2026-05-02T17:07:43.788Z</time></trkpt><trkpt lat="42.9806717" lon="11.0103883"><ele>67.0</ele><time>2026-05-02T17:07:44.788Z</time></trkpt><trkpt lat="42.9807083" lon="11.0101317"><ele>66.0</ele><time>2026-05-02T17:07:45.788Z</time></trkpt><trkpt lat="42.9807417" lon="11.00988"><ele>66.0</ele><time>2026-05-02T17:07:46.789Z</time></trkpt><trkpt lat="42.9807717" lon="11.00963"><ele>66.0</ele><time>2026-05-02T17:07:47.788Z</time></trkpt><trkpt lat="42.9808033" lon="11.00938"><ele>66.0</ele><time>2026-05-02T17:07:48.788Z</time></trkpt><trkpt lat="42.9808367" lon="11.0091267"><ele>66.33333333333333</ele><time>2026-05-02T17:07:49.788Z</time></trkpt><trkpt lat="42.9808683" lon="11.0088783"><ele>66.66666666666666</ele><time>2026-05-02T17:07:50.789Z</time></trkpt><trkpt lat="42.9808967" lon="11.00862"><ele>67.0</ele><time>2026-05-02T17:07:51.788Z</time></trkpt><trkpt lat="42.9809283" lon="11.008365"><ele>66.66666666666666</ele><time>2026-05-02T17:07:52.789Z</time></trkpt><trkpt lat="42.9809617" lon="11.0081083"><ele>66.33333333333333</ele><time>2026-05-02T17:07:53.788Z</time></trkpt><trkpt lat="42.9809933" lon="11.0078533"><ele>66.0</ele><time>2026-05-02T17:07:54.789Z</time></trkpt><trkpt lat="42.981025" lon="11.007595"><ele>66.0</ele><time>2026-05-02T17:07:55.789Z</time></trkpt><trkpt lat="42.9810533" lon="11.0073417"><ele>66.0</ele><time>2026-05-02T17:07:56.785Z</time></trkpt><trkpt lat="42.9810833" lon="11.007085"><ele>66.0</ele><time>2026-05-02T17:07:57.786Z</time></trkpt><trkpt lat="42.9811117" lon="11.0068317"><ele>65.33333333333333</ele><time>2026-05-02T17:07:58.786Z</time></trkpt><trkpt lat="42.9811383" lon="11.0065833"><ele>64.66666666666666</ele><time>2026-05-02T17:07:59.786Z</time></trkpt><trkpt lat="42.98117" lon="11.0063333"><ele>64.0</ele><time>2026-05-02T17:08:00.786Z</time></trkpt><trkpt lat="42.9812017" lon="11.006085"><ele>64.0</ele><time>2026-05-02T17:08:01.787Z</time></trkpt><trkpt lat="42.981235" lon="11.005855"><ele>64.0</ele><time>2026-05-02T17:08:02.787Z</time></trkpt><trkpt lat="42.9812633" lon="11.0056317"><ele>64.0</ele><time>2026-05-02T17:08:03.788Z</time></trkpt><trkpt lat="42.9812883" lon="11.0054117"><ele>63.33333333333333</ele><time>2026-05-02T17:08:04.788Z</time></trkpt><trkpt lat="42.98131" lon="11.0052"><ele>62.66666666666667</ele><time>2026-05-02T17:08:05.788Z</time></trkpt><trkpt lat="42.9813167" lon="11.0049833"><ele>62.0</ele><time>2026-05-02T17:08:06.788Z</time></trkpt><trkpt lat="42.9813167" lon="11.0047633"><ele>62.0</ele><time>2026-05-02T17:08:07.785Z</time></trkpt><trkpt lat="42.9813067" lon="11.00454"><ele>62.0</ele><time>2026-05-02T17:08:08.79Z</time></trkpt><trkpt lat="42.9812867" lon="11.004315"><ele>62.0</ele><time>2026-05-02T17:08:09.788Z</time></trkpt><trkpt lat="42.9812567" lon="11.0040933"><ele>61.0</ele><time>2026-05-02T17:08:10.788Z</time></trkpt><trkpt lat="42.981215" lon="11.003875"><ele>60.0</ele><time>2026-05-02T17:08:11.789Z</time></trkpt><trkpt lat="42.9811567" lon="11.0036583"><ele>59.0</ele><time>2026-05-02T17:08:12.789Z</time></trkpt><trkpt lat="42.9811" lon="11.0034433"><ele>58.66666666666667</ele><time>2026-05-02T17:08:13.788Z</time></trkpt><trkpt lat="42.98104" lon="11.0032267"><ele>58.33333333333333</ele><time>2026-05-02T17:08:14.788Z</time></trkpt><trkpt lat="42.9809817" lon="11.0030083"><ele>58.0</ele><time>2026-05-02T17:08:15.788Z</time></trkpt><trkpt lat="42.9809217" lon="11.0027867"><ele>58.0</ele><time>2026-05-02T17:08:16.788Z</time></trkpt><trkpt lat="42.9808583" lon="11.0025667"><ele>58.0</ele><time>2026-05-02T17:08:17.788Z</time></trkpt><trkpt lat="42.9807967" lon="11.0023467"><ele>58.0</ele><time>2026-05-02T17:08:18.788Z</time></trkpt><trkpt lat="42.9807333" lon="11.00213"><ele>58.0</ele><time>2026-05-02T17:08:19.789Z</time></trkpt><trkpt lat="42.9806617" lon="11.0019183"><ele>58.0</ele><time>2026-05-02T17:08:20.789Z</time></trkpt><trkpt lat="42.9805783" lon="11.0017133"><ele>58.0</ele><time>2026-05-02T17:08:21.784Z</time></trkpt><trkpt lat="42.9804917" lon="11.001515"><ele>59.33333333333333</ele><time>2026-05-02T17:08:22.79Z</time></trkpt><trkpt lat="42.9803983" lon="11.0013267"><ele>60.66666666666667</ele><time>2026-05-02T17:08:23.788Z</time></trkpt><trkpt lat="42.9802983" lon="11.0011417"><ele>62.0</ele><time>2026-05-02T17:08:24.785Z</time></trkpt><trkpt lat="42.980195" lon="11.0009633"><ele>61.333333333333336</ele><time>2026-05-02T17:08:25.788Z</time></trkpt><trkpt lat="42.980095" lon="11.0007867"><ele>60.66666666666667</ele><time>2026-05-02T17:08:26.786Z</time></trkpt><trkpt lat="42.98" lon="11.0006117"><ele>60.0</ele><time>2026-05-02T17:08:27.786Z</time></trkpt><trkpt lat="42.9799133" lon="11.0004383"><ele>60.0</ele><time>2026-05-02T17:08:28.786Z</time></trkpt><trkpt lat="42.9798317" lon="11.0002567"><ele>60.0</ele><time>2026-05-02T17:08:29.786Z</time></trkpt><trkpt lat="42.9797567" lon="11.0000667"><ele>60.0</ele><time>2026-05-02T17:08:30.785Z</time></trkpt><trkpt lat="42.9796917" lon="10.9998667"><ele>60.0</ele><time>2026-05-02T17:08:31.785Z</time></trkpt><trkpt lat="42.9796367" lon="10.999655"><ele>60.0</ele><time>2026-05-02T17:08:32.785Z</time></trkpt><trkpt lat="42.9795883" lon="10.9994383"><ele>60.0</ele><time>2026-05-02T17:08:33.789Z</time></trkpt><trkpt lat="42.9795533" lon="10.999215"><ele>60.0</ele><time>2026-05-02T17:08:34.789Z</time></trkpt><trkpt lat="42.979525" lon="10.9989867"><ele>60.0</ele><time>2026-05-02T17:08:35.788Z</time></trkpt><trkpt lat="42.9795133" lon="10.9987567"><ele>60.0</ele><time>2026-05-02T17:08:36.788Z</time></trkpt><trkpt lat="42.9795183" lon="10.998285"><ele>58.66666666666667</ele><time>2026-05-02T17:08:38.787Z</time></trkpt><trkpt lat="42.9795383" lon="10.9980517"><ele>57.333333333333336</ele><time>2026-05-02T17:08:39.787Z</time></trkpt><trkpt lat="42.97957" lon="10.9978167"><ele>56.0</ele><time>2026-05-02T17:08:40.789Z</time></trkpt><trkpt lat="42.9796083" lon="10.9975883"><ele>55.0</ele><time>2026-05-02T17:08:41.79Z</time></trkpt><trkpt lat="42.9796533" lon="10.9973617"><ele>54.0</ele><time>2026-05-02T17:08:42.788Z</time></trkpt><trkpt lat="42.9797017" lon="10.9971367"><ele>53.0</ele><time>2026-05-02T17:08:43.788Z</time></trkpt><trkpt lat="42.9797517" lon="10.996915"><ele>53.0</ele><time>2026-05-02T17:08:44.789Z</time></trkpt><trkpt lat="42.9798" lon="10.9966917"><ele>53.0</ele><time>2026-05-02T17:08:45.789Z</time></trkpt><trkpt lat="42.97985" lon="10.9964717"><ele>53.0</ele><time>2026-05-02T17:08:46.789Z</time></trkpt><trkpt lat="42.9799" lon="10.9962517"><ele>53.0</ele><time>2026-05-02T17:08:47.79Z</time></trkpt><trkpt lat="42.9799517" lon="10.996025"><ele>53.0</ele><time>2026-05-02T17:08:48.789Z</time></trkpt><trkpt lat="42.9800017" lon="10.9958"><ele>53.0</ele><time>2026-05-02T17:08:49.789Z</time></trkpt><trkpt lat="42.9800533" lon="10.9955767"><ele>53.0</ele><time>2026-05-02T17:08:50.789Z</time></trkpt><trkpt lat="42.9801067" lon="10.99535"><ele>53.0</ele><time>2026-05-02T17:08:51.789Z</time></trkpt><trkpt lat="42.9801583" lon="10.995125"><ele>53.0</ele><time>2026-05-02T17:08:52.79Z</time></trkpt><trkpt lat="42.98021" lon="10.9948983"><ele>53.333333333333336</ele><time>2026-05-02T17:08:53.789Z</time></trkpt><trkpt lat="42.9802567" lon="10.994675"><ele>53.66666666666667</ele><time>2026-05-02T17:08:54.789Z</time></trkpt><trkpt lat="42.980305" lon="10.994455"><ele>54.0</ele><time>2026-05-02T17:08:55.79Z</time></trkpt><trkpt lat="42.9803533" lon="10.9942383"><ele>54.75</ele><time>2026-05-02T17:08:56.785Z</time></trkpt><trkpt lat="42.9803967" lon="10.9940317"><ele>55.5</ele><time>2026-05-02T17:08:57.787Z</time></trkpt><trkpt lat="42.9804367" lon="10.9938417"><ele>56.25</ele><time>2026-05-02T17:08:58.787Z</time></trkpt><trkpt lat="42.98047" lon="10.9936783"><ele>57.0</ele><time>2026-05-02T17:08:59.788Z</time></trkpt><trkpt lat="42.9804967" lon="10.993545"><ele>57.0</ele><time>2026-05-02T17:09:00.786Z</time></trkpt><trkpt lat="42.9805117" lon="10.9934383"><ele>57.0</ele><time>2026-05-02T17:09:01.787Z</time></trkpt><trkpt lat="42.9805" lon="10.993295"><ele>57.0</ele><time>2026-05-02T17:09:03.788Z</time></trkpt><trkpt lat="42.9804233" lon="10.99324"><ele>57.0</ele><time>2026-05-02T17:09:05.789Z</time></trkpt><trkpt lat="42.9802867" lon="10.9932417"><ele>57.0</ele><time>2026-05-02T17:09:07.788Z</time></trkpt><trkpt lat="42.9802033" lon="10.9932433"><ele>57.6</ele><time>2026-05-02T17:09:08.788Z</time></trkpt><trkpt lat="42.9801133" lon="10.993245"><ele>58.2</ele><time>2026-05-02T17:09:09.789Z</time></trkpt><trkpt lat="42.980015" lon="10.9932433"><ele>58.8</ele><time>2026-05-02T17:09:10.786Z</time></trkpt><trkpt lat="42.97992" lon="10.993245"><ele>59.4</ele><time>2026-05-02T17:09:11.789Z</time></trkpt><trkpt lat="42.97982" lon="10.9932483"><ele>60.0</ele><time>2026-05-02T17:09:12.785Z</time></trkpt><trkpt lat="42.9797183" lon="10.9932533"><ele>60.0</ele><time>2026-05-02T17:09:13.789Z</time></trkpt><trkpt lat="42.9796133" lon="10.9932567"><ele>60.0</ele><time>2026-05-02T17:09:14.788Z</time></trkpt><trkpt lat="42.9795033" lon="10.99326"><ele>60.0</ele><time>2026-05-02T17:09:15.789Z</time></trkpt><trkpt lat="42.9793867" lon="10.993265"><ele>60.0</ele><time>2026-05-02T17:09:16.789Z</time></trkpt><trkpt lat="42.9792717" lon="10.9932683"><ele>60.0</ele><time>2026-05-02T17:09:17.789Z</time></trkpt><trkpt lat="42.97916" lon="10.99327"><ele>61.0</ele><time>2026-05-02T17:09:18.789Z</time></trkpt><trkpt lat="42.9790433" lon="10.9932733"><ele>62.0</ele><time>2026-05-02T17:09:19.788Z</time></trkpt><trkpt lat="42.9789283" lon="10.993275"><ele>63.0</ele><time>2026-05-02T17:09:20.789Z</time></trkpt><trkpt lat="42.9788117" lon="10.993275"><ele>64.0</ele><time>2026-05-02T17:09:21.789Z</time></trkpt><trkpt lat="42.9787033" lon="10.9932717"><ele>64.0</ele><time>2026-05-02T17:09:22.789Z</time></trkpt><trkpt lat="42.9785967" lon="10.9932717"><ele>64.0</ele><time>2026-05-02T17:09:23.789Z</time></trkpt><trkpt lat="42.9785033" lon="10.99327"><ele>64.0</ele><time>2026-05-02T17:09:24.789Z</time></trkpt><trkpt lat="42.9784067" lon="10.99327"><ele>64.0</ele><time>2026-05-02T17:09:25.789Z</time></trkpt><trkpt lat="42.9783133" lon="10.9932717"><ele>64.0</ele><time>2026-05-02T17:09:26.785Z</time></trkpt><trkpt lat="42.9782183" lon="10.99327"><ele>64.4</ele><time>2026-05-02T17:09:27.785Z</time></trkpt><trkpt lat="42.9781217" lon="10.99327"><ele>64.80000000000001</ele><time>2026-05-02T17:09:28.785Z</time></trkpt><trkpt lat="42.9780217" lon="10.993265"><ele>65.19999999999999</ele><time>2026-05-02T17:09:29.787Z</time></trkpt><trkpt lat="42.9779167" lon="10.99326"><ele>65.6</ele><time>2026-05-02T17:09:30.785Z</time></trkpt><trkpt lat="42.9778117" lon="10.993265"><ele>66.0</ele><time>2026-05-02T17:09:31.786Z</time></trkpt><trkpt lat="42.9777" lon="10.993275"><ele>66.0</ele><time>2026-05-02T17:09:32.787Z</time></trkpt><trkpt lat="42.9775917" lon="10.9932833"><ele>66.0</ele><time>2026-05-02T17:09:33.786Z</time></trkpt><trkpt lat="42.9774967" lon="10.9932867"><ele>66.0</ele><time>2026-05-02T17:09:34.786Z</time></trkpt><trkpt lat="42.97741" lon="10.9932867"><ele>66.0</ele><time>2026-05-02T17:09:35.786Z</time></trkpt><trkpt lat="42.9773317" lon="10.993295"><ele>66.0</ele><time>2026-05-02T17:09:36.789Z</time></trkpt><trkpt lat="42.9772633" lon="10.9932967"><ele>66.0</ele><time>2026-05-02T17:09:37.785Z</time></trkpt><trkpt lat="42.9771967" lon="10.9932933"><ele>66.33333333333333</ele><time>2026-05-02T17:09:38.785Z</time></trkpt><trkpt lat="42.9771333" lon="10.9932867"><ele>66.66666666666667</ele><time>2026-05-02T17:09:39.785Z</time></trkpt><trkpt lat="42.9770683" lon="10.9932767"><ele>67.0</ele><time>2026-05-02T17:09:40.79Z</time></trkpt><trkpt lat="42.9769983" lon="10.9932683"><ele>67.33333333333334</ele><time>2026-05-02T17:09:41.789Z</time></trkpt><trkpt lat="42.9769167" lon="10.9932633"><ele>67.66666666666667</ele><time>2026-05-02T17:09:42.788Z</time></trkpt><trkpt lat="42.976825" lon="10.99326"><ele>68.0</ele><time>2026-05-02T17:09:43.789Z</time></trkpt><trkpt lat="42.976725" lon="10.9932567"><ele>67.4</ele><time>2026-05-02T17:09:44.788Z</time></trkpt><trkpt lat="42.97662" lon="10.9932567"><ele>66.8</ele><time>2026-05-02T17:09:45.789Z</time></trkpt><trkpt lat="42.97651" lon="10.99326"><ele>66.2</ele><time>2026-05-02T17:09:46.788Z</time></trkpt><trkpt lat="42.9764033" lon="10.9932633"><ele>65.6</ele><time>2026-05-02T17:09:47.789Z</time></trkpt><trkpt lat="42.9763017" lon="10.9932617"><ele>65.0</ele><time>2026-05-02T17:09:48.788Z</time></trkpt><trkpt lat="42.9762017" lon="10.9932617"><ele>65.0</ele><time>2026-05-02T17:09:49.789Z</time></trkpt><trkpt lat="42.9761" lon="10.9932583"><ele>65.0</ele><time>2026-05-02T17:09:50.788Z</time></trkpt><trkpt lat="42.975995" lon="10.9932533"><ele>65.0</ele><time>2026-05-02T17:09:51.789Z</time></trkpt><trkpt lat="42.97589" lon="10.9932517"><ele>65.0</ele><time>2026-05-02T17:09:52.788Z</time></trkpt><trkpt lat="42.97579" lon="10.9932567"><ele>65.0</ele><time>2026-05-02T17:09:53.786Z</time></trkpt><trkpt lat="42.975685" lon="10.99326"><ele>63.8</ele><time>2026-05-02T17:09:54.786Z</time></trkpt><trkpt lat="42.9755783" lon="10.9932633"><ele>62.6</ele><time>2026-05-02T17:09:55.787Z</time></trkpt><trkpt lat="42.9754733" lon="10.9932667"><ele>61.400000000000006</ele><time>2026-05-02T17:09:56.788Z</time></trkpt><trkpt lat="42.9753733" lon="10.9932667"><ele>60.2</ele><time>2026-05-02T17:09:57.786Z</time></trkpt><trkpt lat="42.975285" lon="10.9932667"><ele>59.0</ele><time>2026-05-02T17:09:58.788Z</time></trkpt><trkpt lat="42.9752" lon="10.993275"><ele>59.00000000000001</ele><time>2026-05-02T17:09:59.788Z</time></trkpt><trkpt lat="42.975125" lon="10.9932783"><ele>59.0</ele><time>2026-05-02T17:10:00.786Z</time></trkpt><trkpt lat="42.9750617" lon="10.9932767"><ele>59.0</ele><time>2026-05-02T17:10:01.786Z</time></trkpt><trkpt lat="42.974985" lon="10.9932717"><ele>59.0</ele><time>2026-05-02T17:10:03.789Z</time></trkpt><trkpt lat="42.9749217" lon="10.9932583"><ele>59.00000000000001</ele><time>2026-05-02T17:10:20.792Z</time></trkpt><trkpt lat="42.97501" lon="10.9932917"><ele>59.0</ele><time>2026-05-02T17:10:30.787Z</time></trkpt><trkpt lat="42.9751167" lon="10.99331"><ele>59.00000000000001</ele><time>2026-05-02T17:10:38.789Z</time></trkpt><trkpt lat="42.9752" lon="10.9933033"><ele>59.0</ele><time>2026-05-02T17:10:39.79Z</time></trkpt><trkpt lat="42.975285" lon="10.9932983"><ele>59.0</ele><time>2026-05-02T17:10:40.79Z</time></trkpt><trkpt lat="42.9753717" lon="10.9932933"><ele>59.0</ele><time>2026-05-02T17:10:41.789Z</time></trkpt><trkpt lat="42.97546" lon="10.9932933"><ele>59.00000000000001</ele><time>2026-05-02T17:10:42.789Z</time></trkpt><trkpt lat="42.9755417" lon="10.9932967"><ele>59.0</ele><time>2026-05-02T17:10:43.79Z</time></trkpt><trkpt lat="42.9756217" lon="10.993295"><ele>59.00000000000001</ele><time>2026-05-02T17:10:44.789Z</time></trkpt><trkpt lat="42.9757033" lon="10.9932917"><ele>59.0</ele><time>2026-05-02T17:10:45.789Z</time></trkpt><trkpt lat="42.9757867" lon="10.9932883"><ele>59.0</ele><time>2026-05-02T17:10:46.786Z</time></trkpt><trkpt lat="42.97593" lon="10.993285"><ele>59.0</ele><time>2026-05-02T17:10:48.791Z</time></trkpt><trkpt lat="42.975995" lon="10.9932817"><ele>59.00000000000001</ele><time>2026-05-02T17:10:49.789Z</time></trkpt><trkpt lat="42.97606" lon="10.99328"><ele>59.0</ele><time>2026-05-02T17:10:50.786Z</time></trkpt><trkpt lat="42.9761783" lon="10.993275"><ele>60.00000000000001</ele><time>2026-05-02T17:10:52.786Z</time></trkpt><trkpt lat="42.9763067" lon="10.9932733"><ele>61.0</ele><time>2026-05-02T17:10:54.789Z</time></trkpt><trkpt lat="42.9763767" lon="10.9932733"><ele>62.0</ele><time>2026-05-02T17:10:55.79Z</time></trkpt><trkpt lat="42.9764533" lon="10.9932717"><ele>63.0</ele><time>2026-05-02T17:10:56.786Z</time></trkpt><trkpt lat="42.976535" lon="10.99327"><ele>64.0</ele><time>2026-05-02T17:10:57.787Z</time></trkpt><trkpt lat="42.97662" lon="10.99327"><ele>65.0</ele><time>2026-05-02T17:10:58.787Z</time></trkpt><trkpt lat="42.97671" lon="10.9932683"><ele>65.42857142857143</ele><time>2026-05-02T17:10:59.787Z</time></trkpt><trkpt lat="42.9767983" lon="10.99327"><ele>65.85714285714286</ele><time>2026-05-02T17:11:00.789Z</time></trkpt><trkpt lat="42.9768833" lon="10.99327"><ele>66.28571428571428</ele><time>2026-05-02T17:11:01.787Z</time></trkpt><trkpt lat="42.9769583" lon="10.9932683"><ele>66.71428571428572</ele><time>2026-05-02T17:11:02.787Z</time></trkpt><trkpt lat="42.9770233" lon="10.9932667"><ele>67.14285714285714</ele><time>2026-05-02T17:11:03.789Z</time></trkpt><trkpt lat="42.9770883" lon="10.9932683"><ele>67.57142857142857</ele><time>2026-05-02T17:11:04.786Z</time></trkpt><trkpt lat="42.9771567" lon="10.9932717"><ele>68.0</ele><time>2026-05-02T17:11:05.789Z</time></trkpt><trkpt lat="42.9772283" lon="10.9932733"><ele>67.99999999999999</ele><time>2026-05-02T17:11:06.789Z</time></trkpt><trkpt lat="42.9772983" lon="10.9932817"><ele>68.0</ele><time>2026-05-02T17:11:07.789Z</time></trkpt><trkpt lat="42.97737" lon="10.99328"><ele>68.0</ele><time>2026-05-02T17:11:08.789Z</time></trkpt><trkpt lat="42.9774433" lon="10.9932833"><ele>68.0</ele><time>2026-05-02T17:11:09.789Z</time></trkpt><trkpt lat="42.97752" lon="10.993285"><ele>68.0</ele><time>2026-05-02T17:11:10.786Z</time></trkpt><trkpt lat="42.9775967" lon="10.9932867"><ele>67.99999999999999</ele><time>2026-05-02T17:11:11.789Z</time></trkpt><trkpt lat="42.9776733" lon="10.993295"><ele>68.0</ele><time>2026-05-02T17:11:12.789Z</time></trkpt><trkpt lat="42.9777567" lon="10.993295"><ele>67.6</ele><time>2026-05-02T17:11:13.789Z</time></trkpt><trkpt lat="42.9778417" lon="10.993295"><ele>67.19999999999999</ele><time>2026-05-02T17:11:14.79Z</time></trkpt><trkpt lat="42.977935" lon="10.9932933"><ele>66.8</ele><time>2026-05-02T17:11:15.79Z</time></trkpt><trkpt lat="42.9780417" lon="10.9932967"><ele>66.39999999999999</ele><time>2026-05-02T17:11:16.789Z</time></trkpt><trkpt lat="42.9781683" lon="10.99329"><ele>66.0</ele><time>2026-05-02T17:11:17.789Z</time></trkpt><trkpt lat="42.978295" lon="10.993285"><ele>65.6</ele><time>2026-05-02T17:11:18.789Z</time></trkpt><trkpt lat="42.97841" lon="10.99328"><ele>65.19999999999999</ele><time>2026-05-02T17:11:19.789Z</time></trkpt><trkpt lat="42.9785133" lon="10.993275"><ele>64.80000000000001</ele><time>2026-05-02T17:11:20.789Z</time></trkpt><trkpt lat="42.9786067" lon="10.9932717"><ele>64.4</ele><time>2026-05-02T17:11:21.789Z</time></trkpt><trkpt lat="42.9786917" lon="10.9932733"><ele>64.0</ele><time>2026-05-02T17:11:22.79Z</time></trkpt><trkpt lat="42.9787733" lon="10.9932733"><ele>64.0</ele><time>2026-05-02T17:11:23.79Z</time></trkpt><trkpt lat="42.9788583" lon="10.9932717"><ele>64.0</ele><time>2026-05-02T17:11:24.79Z</time></trkpt><trkpt lat="42.9789517" lon="10.9932683"><ele>64.0</ele><time>2026-05-02T17:11:25.786Z</time></trkpt><trkpt lat="42.9790533" lon="10.993265"><ele>64.0</ele><time>2026-05-02T17:11:26.786Z</time></trkpt><trkpt lat="42.9791633" lon="10.993265"><ele>64.0</ele><time>2026-05-02T17:11:27.786Z</time></trkpt><trkpt lat="42.9792767" lon="10.993265"><ele>63.2</ele><time>2026-05-02T17:11:28.787Z</time></trkpt><trkpt lat="42.97939" lon="10.9932633"><ele>62.400000000000006</ele><time>2026-05-02T17:11:29.786Z</time></trkpt><trkpt lat="42.9795" lon="10.993265"><ele>61.6</ele><time>2026-05-02T17:11:30.786Z</time></trkpt><trkpt lat="42.97961" lon="10.9932667"><ele>60.8</ele><time>2026-05-02T17:11:31.786Z</time></trkpt><trkpt lat="42.9797117" lon="10.9932683"><ele>60.0</ele><time>2026-05-02T17:11:32.787Z</time></trkpt><trkpt lat="42.9798167" lon="10.9932667"><ele>60.0</ele><time>2026-05-02T17:11:33.789Z</time></trkpt><trkpt lat="42.9799217" lon="10.993265"><ele>60.0</ele><time>2026-05-02T17:11:34.789Z</time></trkpt><trkpt lat="42.9801133" lon="10.9932617"><ele>60.0</ele><time>2026-05-02T17:11:36.789Z</time></trkpt><trkpt lat="42.9802733" lon="10.99325"><ele>60.0</ele><time>2026-05-02T17:11:38.789Z</time></trkpt><trkpt lat="42.9803933" lon="10.9932583"><ele>60.0</ele><time>2026-05-02T17:11:41.789Z</time></trkpt><trkpt lat="42.9804633" lon="10.9932617"><ele>60.0</ele><time>2026-05-02T17:12:33.789Z</time></trkpt><trkpt lat="42.9805583" lon="10.9931083"><ele>60.0</ele><time>2026-05-02T17:12:37.785Z</time></trkpt><trkpt lat="42.9805883" lon="10.992975"><ele>60.0</ele><time>2026-05-02T17:12:38.786Z</time></trkpt><trkpt lat="42.9806767" lon="10.9925433"><ele>59.5</ele><time>2026-05-02T17:12:40.785Z</time></trkpt><trkpt lat="42.9807733" lon="10.9920783"><ele>59.0</ele><time>2026-05-02T17:12:42.786Z</time></trkpt><trkpt lat="42.9808233" lon="10.9918317"><ele>59.0</ele><time>2026-05-02T17:12:43.787Z</time></trkpt><trkpt lat="42.98087" lon="10.9915717"><ele>59.0</ele><time>2026-05-02T17:12:44.785Z</time></trkpt><trkpt lat="42.9809217" lon="10.9912967"><ele>59.0</ele><time>2026-05-02T17:12:45.785Z</time></trkpt><trkpt lat="42.981035" lon="10.9907033"><ele>59.5</ele><time>2026-05-02T17:12:47.785Z</time></trkpt><trkpt lat="42.981095" lon="10.99039"><ele>60.0</ele><time>2026-05-02T17:12:48.786Z</time></trkpt><trkpt lat="42.9811533" lon="10.9900717"><ele>59.5</ele><time>2026-05-02T17:12:49.788Z</time></trkpt><trkpt lat="42.981215" lon="10.989755"><ele>59.0</ele><time>2026-05-02T17:12:50.786Z</time></trkpt><trkpt lat="42.9812783" lon="10.9894383"><ele>58.5</ele><time>2026-05-02T17:12:51.785Z</time></trkpt><trkpt lat="42.98134" lon="10.9891267"><ele>58.0</ele><time>2026-05-02T17:12:52.786Z</time></trkpt><trkpt lat="42.9814033" lon="10.9888217"><ele>58.0</ele><time>2026-05-02T17:12:53.786Z</time></trkpt><trkpt lat="42.98146" lon="10.98852"><ele>58.0</ele><time>2026-05-02T17:12:54.789Z</time></trkpt><trkpt lat="42.9815167" lon="10.988225"><ele>58.0</ele><time>2026-05-02T17:12:55.788Z</time></trkpt><trkpt lat="42.9815717" lon="10.9879333"><ele>58.0</ele><time>2026-05-02T17:12:56.786Z</time></trkpt><trkpt lat="42.9816283" lon="10.9876483"><ele>58.0</ele><time>2026-05-02T17:12:57.786Z</time></trkpt><trkpt lat="42.9816867" lon="10.987365"><ele>58.0</ele><time>2026-05-02T17:12:58.788Z</time></trkpt><trkpt lat="42.981745" lon="10.9870867"><ele>58.0</ele><time>2026-05-02T17:12:59.788Z</time></trkpt><trkpt lat="42.9818" lon="10.9868133"><ele>58.0</ele><time>2026-05-02T17:13:00.788Z</time></trkpt><trkpt lat="42.9818517" lon="10.9865483"><ele>58.0</ele><time>2026-05-02T17:13:01.788Z</time></trkpt><trkpt lat="42.9819033" lon="10.9862833"><ele>58.0</ele><time>2026-05-02T17:13:02.788Z</time></trkpt><trkpt lat="42.981955" lon="10.9860183"><ele>58.0</ele><time>2026-05-02T17:13:03.788Z</time></trkpt><trkpt lat="42.9820033" lon="10.9857517"><ele>58.0</ele><time>2026-05-02T17:13:04.789Z</time></trkpt><trkpt lat="42.9820483" lon="10.9854767"><ele>58.0</ele><time>2026-05-02T17:13:05.785Z</time></trkpt><trkpt lat="42.9820833" lon="10.9851933"><ele>58.0</ele><time>2026-05-02T17:13:06.787Z</time></trkpt><trkpt lat="42.9821033" lon="10.9849"><ele>59.5</ele><time>2026-05-02T17:13:07.789Z</time></trkpt><trkpt lat="42.9821033" lon="10.98459"><ele>61.0</ele><time>2026-05-02T17:13:08.789Z</time></trkpt><trkpt lat="42.9820867" lon="10.9842733"><ele>61.0</ele><time>2026-05-02T17:13:09.786Z</time></trkpt><trkpt lat="42.982045" lon="10.9839483"><ele>61.0</ele><time>2026-05-02T17:13:10.789Z</time></trkpt><trkpt lat="42.98199" lon="10.983625"><ele>60.0</ele><time>2026-05-02T17:13:11.786Z</time></trkpt><trkpt lat="42.98192" lon="10.9833"><ele>59.0</ele><time>2026-05-02T17:13:12.786Z</time></trkpt><trkpt lat="42.9818417" lon="10.9829867"><ele>59.0</ele><time>2026-05-02T17:13:13.785Z</time></trkpt><trkpt lat="42.98176" lon="10.9826683"><ele>59.0</ele><time>2026-05-02T17:13:14.786Z</time></trkpt><trkpt lat="42.9816817" lon="10.9823467"><ele>58.5</ele><time>2026-05-02T17:13:15.788Z</time></trkpt><trkpt lat="42.981605" lon="10.9820267"><ele>58.0</ele><time>2026-05-02T17:13:16.789Z</time></trkpt><trkpt lat="42.9815283" lon="10.98171"><ele>58.5</ele><time>2026-05-02T17:13:17.786Z</time></trkpt><trkpt lat="42.9814533" lon="10.9813983"><ele>59.0</ele><time>2026-05-02T17:13:18.786Z</time></trkpt><trkpt lat="42.9813817" lon="10.9810917"><ele>59.0</ele><time>2026-05-02T17:13:19.785Z</time></trkpt><trkpt lat="42.9813117" lon="10.9807867"><ele>59.0</ele><time>2026-05-02T17:13:20.789Z</time></trkpt><trkpt lat="42.9812433" lon="10.9804833"><ele>59.0</ele><time>2026-05-02T17:13:21.789Z</time></trkpt><trkpt lat="42.9811833" lon="10.9801783"><ele>59.0</ele><time>2026-05-02T17:13:22.787Z</time></trkpt><trkpt lat="42.981135" lon="10.9798667"><ele>58.5</ele><time>2026-05-02T17:13:23.789Z</time></trkpt><trkpt lat="42.9811017" lon="10.979555"><ele>58.0</ele><time>2026-05-02T17:13:24.789Z</time></trkpt><trkpt lat="42.9810767" lon="10.9792367"><ele>58.0</ele><time>2026-05-02T17:13:25.789Z</time></trkpt><trkpt lat="42.98106" lon="10.9789217"><ele>58.0</ele><time>2026-05-02T17:13:26.79Z</time></trkpt><trkpt lat="42.9810433" lon="10.978605"><ele>57.5</ele><time>2026-05-02T17:13:27.786Z</time></trkpt><trkpt lat="42.9810283" lon="10.9782883"><ele>57.0</ele><time>2026-05-02T17:13:28.786Z</time></trkpt><trkpt lat="42.9810083" lon="10.9779683"><ele>57.0</ele><time>2026-05-02T17:13:29.786Z</time></trkpt><trkpt lat="42.980985" lon="10.9776567"><ele>57.0</ele><time>2026-05-02T17:13:30.786Z</time></trkpt><trkpt lat="42.9809667" lon="10.9773417"><ele>56.5</ele><time>2026-05-02T17:13:31.786Z</time></trkpt><trkpt lat="42.9809517" lon="10.9770267"><ele>56.0</ele><time>2026-05-02T17:13:32.785Z</time></trkpt><trkpt lat="42.9809333" lon="10.9767117"><ele>55.66666666666667</ele><time>2026-05-02T17:13:33.786Z</time></trkpt><trkpt lat="42.980915" lon="10.976405"><ele>55.33333333333333</ele><time>2026-05-02T17:13:34.786Z</time></trkpt><trkpt lat="42.9808983" lon="10.9761033"><ele>55.0</ele><time>2026-05-02T17:13:35.786Z</time></trkpt><trkpt lat="42.980885" lon="10.975815"><ele>54.666666666666664</ele><time>2026-05-02T17:13:36.785Z</time></trkpt><trkpt lat="42.9808717" lon="10.97554"><ele>54.33333333333333</ele><time>2026-05-02T17:13:37.786Z</time></trkpt><trkpt lat="42.9808567" lon="10.9752867"><ele>54.0</ele><time>2026-05-02T17:13:38.787Z</time></trkpt><trkpt lat="42.9808367" lon="10.9750567"><ele>54.0</ele><time>2026-05-02T17:13:39.785Z</time></trkpt><trkpt lat="42.9807967" lon="10.9748483"><ele>54.0</ele><time>2026-05-02T17:13:40.789Z</time></trkpt><trkpt lat="42.98073" lon="10.9746533"><ele>54.0</ele><time>2026-05-02T17:13:41.786Z</time></trkpt><trkpt lat="42.9806267" lon="10.97447"><ele>54.0</ele><time>2026-05-02T17:13:42.878Z</time></trkpt><trkpt lat="42.980485" lon="10.9743017"><ele>54.0</ele><time>2026-05-02T17:13:43.785Z</time></trkpt><trkpt lat="42.9803167" lon="10.974145"><ele>54.0</ele><time>2026-05-02T17:13:44.785Z</time></trkpt><trkpt lat="42.9801283" lon="10.9739867"><ele>54.0</ele><time>2026-05-02T17:13:45.787Z</time></trkpt><trkpt lat="42.97993" lon="10.97382"><ele>54.0</ele><time>2026-05-02T17:13:46.789Z</time></trkpt><trkpt lat="42.9797233" lon="10.9736483"><ele>54.0</ele><time>2026-05-02T17:13:47.788Z</time></trkpt><trkpt lat="42.9795033" lon="10.9734733"><ele>54.0</ele><time>2026-05-02T17:13:48.788Z</time></trkpt><trkpt lat="42.9792833" lon="10.9732933"><ele>53.0</ele><time>2026-05-02T17:13:49.788Z</time></trkpt><trkpt lat="42.97906" lon="10.9731117"><ele>52.0</ele><time>2026-05-02T17:13:50.789Z</time></trkpt><trkpt lat="42.978835" lon="10.97293"><ele>52.0</ele><time>2026-05-02T17:13:51.789Z</time></trkpt><trkpt lat="42.9786133" lon="10.97275"><ele>52.0</ele><time>2026-05-02T17:13:52.788Z</time></trkpt><trkpt lat="42.9783967" lon="10.97257"><ele>52.5</ele><time>2026-05-02T17:13:53.788Z</time></trkpt><trkpt lat="42.9781817" lon="10.9723967"><ele>53.0</ele><time>2026-05-02T17:13:54.79Z</time></trkpt><trkpt lat="42.977975" lon="10.9722267"><ele>53.0</ele><time>2026-05-02T17:13:55.788Z</time></trkpt><trkpt lat="42.9777733" lon="10.9720617"><ele>53.0</ele><time>2026-05-02T17:13:56.789Z</time></trkpt><trkpt lat="42.9773783" lon="10.9717417"><ele>53.0</ele><time>2026-05-02T17:13:58.786Z</time></trkpt><trkpt lat="42.9771883" lon="10.9715867"><ele>53.0</ele><time>2026-05-02T17:13:59.787Z</time></trkpt><trkpt lat="42.9770033" lon="10.9714333"><ele>53.0</ele><time>2026-05-02T17:14:00.787Z</time></trkpt><trkpt lat="42.9768233" lon="10.97128"><ele>53.0</ele><time>2026-05-02T17:14:01.786Z</time></trkpt><trkpt lat="42.9766433" lon="10.9711267"><ele>53.0</ele><time>2026-05-02T17:14:02.788Z</time></trkpt><trkpt lat="42.9764617" lon="10.970975"><ele>53.0</ele><time>2026-05-02T17:14:03.788Z</time></trkpt><trkpt lat="42.9762783" lon="10.970825"><ele>53.0</ele><time>2026-05-02T17:14:04.786Z</time></trkpt><trkpt lat="42.9760983" lon="10.9706733"><ele>53.0</ele><time>2026-05-02T17:14:05.787Z</time></trkpt><trkpt lat="42.97592" lon="10.970525"><ele>53.0</ele><time>2026-05-02T17:14:06.788Z</time></trkpt><trkpt lat="42.9757417" lon="10.9703733"><ele>53.0</ele><time>2026-05-02T17:14:07.787Z</time></trkpt><trkpt lat="42.9755633" lon="10.9702233"><ele>53.0</ele><time>2026-05-02T17:14:08.79Z</time></trkpt><trkpt lat="42.9753867" lon="10.9700733"><ele>53.0</ele><time>2026-05-02T17:14:09.79Z</time></trkpt><trkpt lat="42.9752133" lon="10.9699283"><ele>52.66666666666667</ele><time>2026-05-02T17:14:10.788Z</time></trkpt><trkpt lat="42.975045" lon="10.9697817"><ele>52.33333333333333</ele><time>2026-05-02T17:14:11.789Z</time></trkpt><trkpt lat="42.97488" lon="10.9696433"><ele>52.0</ele><time>2026-05-02T17:14:12.789Z</time></trkpt><trkpt lat="42.9747133" lon="10.9695017"><ele>52.0</ele><time>2026-05-02T17:14:13.789Z</time></trkpt><trkpt lat="42.9745533" lon="10.96935"><ele>52.0</ele><time>2026-05-02T17:14:14.789Z</time></trkpt><trkpt lat="42.9744017" lon="10.9691867"><ele>52.0</ele><time>2026-05-02T17:14:15.789Z</time></trkpt><trkpt lat="42.97425" lon="10.9690133"><ele>52.0</ele><time>2026-05-02T17:14:16.79Z</time></trkpt><trkpt lat="42.974105" lon="10.9688217"><ele>52.0</ele><time>2026-05-02T17:14:17.79Z</time></trkpt><trkpt lat="42.9739717" lon="10.9686167"><ele>52.0</ele><time>2026-05-02T17:14:18.79Z</time></trkpt><trkpt lat="42.973845" lon="10.9684067"><ele>52.666666666666664</ele><time>2026-05-02T17:14:19.788Z</time></trkpt><trkpt lat="42.9737217" lon="10.968185"><ele>53.33333333333333</ele><time>2026-05-02T17:14:20.789Z</time></trkpt><trkpt lat="42.9735967" lon="10.9679533"><ele>54.0</ele><time>2026-05-02T17:14:21.79Z</time></trkpt><trkpt lat="42.9734733" lon="10.9677167"><ele>53.66666666666667</ele><time>2026-05-02T17:14:22.788Z</time></trkpt><trkpt lat="42.9733467" lon="10.9674817"><ele>53.333333333333336</ele><time>2026-05-02T17:14:23.789Z</time></trkpt><trkpt lat="42.9732233" lon="10.9672483"><ele>53.0</ele><time>2026-05-02T17:14:24.79Z</time></trkpt><trkpt lat="42.9731" lon="10.967015"><ele>53.0</ele><time>2026-05-02T17:14:25.788Z</time></trkpt><trkpt lat="42.972975" lon="10.96678"><ele>53.0</ele><time>2026-05-02T17:14:26.789Z</time></trkpt><trkpt lat="42.972855" lon="10.9665567"><ele>53.0</ele><time>2026-05-02T17:14:27.785Z</time></trkpt><trkpt lat="42.97274" lon="10.9663433"><ele>53.333333333333336</ele><time>2026-05-02T17:14:28.786Z</time></trkpt><trkpt lat="42.9726267" lon="10.9661383"><ele>53.66666666666667</ele><time>2026-05-02T17:14:29.786Z</time></trkpt><trkpt lat="42.97252" lon="10.9659417"><ele>54.0</ele><time>2026-05-02T17:14:30.785Z</time></trkpt><trkpt lat="42.9724167" lon="10.965755"><ele>54.33333333333333</ele><time>2026-05-02T17:14:31.785Z</time></trkpt><trkpt lat="42.9723183" lon="10.9655733"><ele>54.666666666666664</ele><time>2026-05-02T17:14:32.786Z</time></trkpt><trkpt lat="42.972225" lon="10.9653983"><ele>55.0</ele><time>2026-05-02T17:14:33.786Z</time></trkpt><trkpt lat="42.9721317" lon="10.965225"><ele>55.0</ele><time>2026-05-02T17:14:34.787Z</time></trkpt><trkpt lat="42.972035" lon="10.9650483"><ele>55.0</ele><time>2026-05-02T17:14:35.787Z</time></trkpt><trkpt lat="42.971935" lon="10.9648683"><ele>55.0</ele><time>2026-05-02T17:14:36.785Z</time></trkpt><trkpt lat="42.9718333" lon="10.964685"><ele>55.0</ele><time>2026-05-02T17:14:37.787Z</time></trkpt><trkpt lat="42.9717283" lon="10.9644983"><ele>55.0</ele><time>2026-05-02T17:14:38.789Z</time></trkpt><trkpt lat="42.9716217" lon="10.9643083"><ele>55.0</ele><time>2026-05-02T17:14:39.788Z</time></trkpt><trkpt lat="42.9715183" lon="10.9641167"><ele>56.666666666666664</ele><time>2026-05-02T17:14:40.789Z</time></trkpt><trkpt lat="42.9714167" lon="10.9639233"><ele>58.33333333333333</ele><time>2026-05-02T17:14:41.789Z</time></trkpt><trkpt lat="42.9713133" lon="10.9637233"><ele>60.0</ele><time>2026-05-02T17:14:42.789Z</time></trkpt><trkpt lat="42.9712117" lon="10.9635167"><ele>58.66666666666667</ele><time>2026-05-02T17:14:43.789Z</time></trkpt><trkpt lat="42.97111" lon="10.963305"><ele>57.333333333333336</ele><time>2026-05-02T17:14:44.789Z</time></trkpt><trkpt lat="42.9710083" lon="10.9630883"><ele>56.0</ele><time>2026-05-02T17:14:45.789Z</time></trkpt><trkpt lat="42.9709117" lon="10.962865"><ele>59.66666666666667</ele><time>2026-05-02T17:14:46.787Z</time></trkpt><trkpt lat="42.9708167" lon="10.962645"><ele>63.33333333333333</ele><time>2026-05-02T17:14:47.789Z</time></trkpt><trkpt lat="42.97072" lon="10.962425"><ele>67.0</ele><time>2026-05-02T17:14:48.789Z</time></trkpt><trkpt lat="42.97063" lon="10.9621983"><ele>67.0</ele><time>2026-05-02T17:14:49.789Z</time></trkpt><trkpt lat="42.9705383" lon="10.9619767"><ele>67.0</ele><time>2026-05-02T17:14:50.789Z</time></trkpt><trkpt lat="42.9704483" lon="10.9617567"><ele>67.0</ele><time>2026-05-02T17:14:51.79Z</time></trkpt><trkpt lat="42.9703583" lon="10.9615367"><ele>64.33333333333333</ele><time>2026-05-02T17:14:52.789Z</time></trkpt><trkpt lat="42.97027" lon="10.9613283"><ele>61.66666666666667</ele><time>2026-05-02T17:14:53.789Z</time></trkpt><trkpt lat="42.9701917" lon="10.9611283"><ele>59.0</ele><time>2026-05-02T17:14:54.79Z</time></trkpt><trkpt lat="42.97012" lon="10.9609367"><ele>58.75</ele><time>2026-05-02T17:14:55.79Z</time></trkpt><trkpt lat="42.97005" lon="10.960755"><ele>58.5</ele><time>2026-05-02T17:14:56.787Z</time></trkpt><trkpt lat="42.9699783" lon="10.9605783"><ele>58.25</ele><time>2026-05-02T17:14:57.787Z</time></trkpt><trkpt lat="42.9699117" lon="10.960405"><ele>58.0</ele><time>2026-05-02T17:14:58.787Z</time></trkpt><trkpt lat="42.9698467" lon="10.9602267"><ele>59.0</ele><time>2026-05-02T17:14:59.788Z</time></trkpt><trkpt lat="42.9697933" lon="10.9600433"><ele>60.0</ele><time>2026-05-02T17:15:00.787Z</time></trkpt><trkpt lat="42.9697533" lon="10.9598517"><ele>61.0</ele><time>2026-05-02T17:15:01.787Z</time></trkpt><trkpt lat="42.9697333" lon="10.9596567"><ele>62.0</ele><time>2026-05-02T17:15:02.788Z</time></trkpt><trkpt lat="42.9697267" lon="10.95946"><ele>62.0</ele><time>2026-05-02T17:15:03.787Z</time></trkpt><trkpt lat="42.9697267" lon="10.9592517"><ele>62.0</ele><time>2026-05-02T17:15:04.787Z</time></trkpt><trkpt lat="42.969725" lon="10.959035"><ele>62.0</ele><time>2026-05-02T17:15:05.787Z</time></trkpt><trkpt lat="42.9697217" lon="10.9588167"><ele>62.0</ele><time>2026-05-02T17:15:06.788Z</time></trkpt><trkpt lat="42.96971" lon="10.9585967"><ele>62.0</ele><time>2026-05-02T17:15:07.787Z</time></trkpt><trkpt lat="42.969695" lon="10.9583667"><ele>62.0</ele><time>2026-05-02T17:15:08.79Z</time></trkpt><trkpt lat="42.9696717" lon="10.9581317"><ele>61.66666666666667</ele><time>2026-05-02T17:15:09.789Z</time></trkpt><trkpt lat="42.96965" lon="10.9578917"><ele>61.33333333333333</ele><time>2026-05-02T17:15:10.79Z</time></trkpt><trkpt lat="42.969625" lon="10.9576467"><ele>61.0</ele><time>2026-05-02T17:15:11.789Z</time></trkpt><trkpt lat="42.9695983" lon="10.9573983"><ele>61.33333333333333</ele><time>2026-05-02T17:15:12.789Z</time></trkpt><trkpt lat="42.9695717" lon="10.9571517"><ele>61.66666666666667</ele><time>2026-05-02T17:15:13.789Z</time></trkpt><trkpt lat="42.9695433" lon="10.9569067"><ele>62.0</ele><time>2026-05-02T17:15:14.789Z</time></trkpt><trkpt lat="42.96952" lon="10.9566633"><ele>62.0</ele><time>2026-05-02T17:15:15.789Z</time></trkpt><trkpt lat="42.9695033" lon="10.95641"><ele>62.0</ele><time>2026-05-02T17:15:16.789Z</time></trkpt><trkpt lat="42.96949" lon="10.9561483"><ele>62.0</ele><time>2026-05-02T17:15:17.789Z</time></trkpt><trkpt lat="42.9694883" lon="10.95588"><ele>61.66666666666667</ele><time>2026-05-02T17:15:18.789Z</time></trkpt><trkpt lat="42.9695" lon="10.9556083"><ele>61.33333333333333</ele><time>2026-05-02T17:15:19.789Z</time></trkpt><trkpt lat="42.9695267" lon="10.9553267"><ele>61.0</ele><time>2026-05-02T17:15:20.789Z</time></trkpt><trkpt lat="42.9695617" lon="10.955045"><ele>61.33333333333333</ele><time>2026-05-02T17:15:21.789Z</time></trkpt><trkpt lat="42.9696017" lon="10.9547683"><ele>61.66666666666667</ele><time>2026-05-02T17:15:22.79Z</time></trkpt><trkpt lat="42.9696383" lon="10.954495"><ele>62.0</ele><time>2026-05-02T17:15:23.789Z</time></trkpt><trkpt lat="42.9696767" lon="10.954225"><ele>62.66666666666667</ele><time>2026-05-02T17:15:24.789Z</time></trkpt><trkpt lat="42.9697067" lon="10.953955"><ele>63.33333333333333</ele><time>2026-05-02T17:15:25.79Z</time></trkpt><trkpt lat="42.9697417" lon="10.9536917"><ele>64.0</ele><time>2026-05-02T17:15:26.786Z</time></trkpt><trkpt lat="42.969775" lon="10.9534317"><ele>64.33333333333333</ele><time>2026-05-02T17:15:27.786Z</time></trkpt><trkpt lat="42.9698033" lon="10.9531767"><ele>64.66666666666667</ele><time>2026-05-02T17:15:28.786Z</time></trkpt><trkpt lat="42.9698233" lon="10.952925"><ele>65.0</ele><time>2026-05-02T17:15:29.787Z</time></trkpt><trkpt lat="42.9698317" lon="10.95268"><ele>65.0</ele><time>2026-05-02T17:15:30.786Z</time></trkpt><trkpt lat="42.9698267" lon="10.9524383"><ele>65.0</ele><time>2026-05-02T17:15:31.787Z</time></trkpt><trkpt lat="42.96982" lon="10.95221"><ele>65.0</ele><time>2026-05-02T17:15:32.787Z</time></trkpt><trkpt lat="42.9698083" lon="10.9519917"><ele>65.0</ele><time>2026-05-02T17:15:33.789Z</time></trkpt><trkpt lat="42.969795" lon="10.9517867"><ele>65.0</ele><time>2026-05-02T17:15:34.79Z</time></trkpt><trkpt lat="42.9697817" lon="10.95159"><ele>65.0</ele><time>2026-05-02T17:15:35.786Z</time></trkpt><trkpt lat="42.9697717" lon="10.9514017"><ele>65.0</ele><time>2026-05-02T17:15:36.789Z</time></trkpt><trkpt lat="42.969765" lon="10.9512333"><ele>65.0</ele><time>2026-05-02T17:15:37.789Z</time></trkpt><trkpt lat="42.9697583" lon="10.9510783"><ele>65.0</ele><time>2026-05-02T17:15:38.789Z</time></trkpt><trkpt lat="42.9697583" lon="10.9509533"><ele>65.0</ele><time>2026-05-02T17:15:39.789Z</time></trkpt><trkpt lat="42.9697633" lon="10.9508517"><ele>65.0</ele><time>2026-05-02T17:15:40.789Z</time></trkpt><trkpt lat="42.9697933" lon="10.9507517"><ele>65.0</ele><time>2026-05-02T17:15:42.79Z</time></trkpt><trkpt lat="42.9698883" lon="10.9507617"><ele>65.0</ele><time>2026-05-02T17:15:44.789Z</time></trkpt><trkpt lat="42.9699683" lon="10.95078"><ele>65.0</ele><time>2026-05-02T17:15:45.789Z</time></trkpt><trkpt lat="42.9700517" lon="10.9508267"><ele>65.0</ele><time>2026-05-02T17:15:46.79Z</time></trkpt><trkpt lat="42.9701417" lon="10.95089"><ele>65.0</ele><time>2026-05-02T17:15:47.789Z</time></trkpt><trkpt lat="42.9702317" lon="10.951"><ele>65.0</ele><time>2026-05-02T17:15:48.789Z</time></trkpt><trkpt lat="42.9703267" lon="10.9511233"><ele>63.333333333333336</ele><time>2026-05-02T17:15:49.789Z</time></trkpt><trkpt lat="42.9704333" lon="10.951265"><ele>61.66666666666667</ele><time>2026-05-02T17:15:50.79Z</time></trkpt><trkpt lat="42.9705483" lon="10.951415"><ele>60.0</ele><time>2026-05-02T17:15:51.789Z</time></trkpt><trkpt lat="42.970665" lon="10.9515667"><ele>60.5</ele><time>2026-05-02T17:15:52.79Z</time></trkpt><trkpt lat="42.970775" lon="10.95171"><ele>61.0</ele><time>2026-05-02T17:15:53.789Z</time></trkpt><trkpt lat="42.9708767" lon="10.9518333"><ele>61.5</ele><time>2026-05-02T17:15:54.79Z</time></trkpt><trkpt lat="42.9709683" lon="10.951935"><ele>62.0</ele><time>2026-05-02T17:15:55.789Z</time></trkpt><trkpt lat="42.9710517" lon="10.95201"><ele>62.0</ele><time>2026-05-02T17:15:56.786Z</time></trkpt><trkpt lat="42.9711367" lon="10.9520683"><ele>62.0</ele><time>2026-05-02T17:15:57.787Z</time></trkpt><trkpt lat="42.9712333" lon="10.9521283"><ele>62.0</ele><time>2026-05-02T17:15:58.786Z</time></trkpt><trkpt lat="42.9713433" lon="10.9521967"><ele>62.0</ele><time>2026-05-02T17:15:59.787Z</time></trkpt><trkpt lat="42.9714533" lon="10.9522633"><ele>62.0</ele><time>2026-05-02T17:16:00.787Z</time></trkpt><trkpt lat="42.9715617" lon="10.9523033"><ele>62.0</ele><time>2026-05-02T17:16:01.787Z</time></trkpt><trkpt lat="42.97167" lon="10.95229"><ele>62.0</ele><time>2026-05-02T17:16:02.787Z</time></trkpt><trkpt lat="42.971775" lon="10.952225"><ele>62.0</ele><time>2026-05-02T17:16:03.789Z</time></trkpt><trkpt lat="42.97188" lon="10.9521017"><ele>62.0</ele><time>2026-05-02T17:16:04.79Z</time></trkpt><trkpt lat="42.9720117" lon="10.95193"><ele>62.333333333333336</ele><time>2026-05-02T17:16:05.79Z</time></trkpt><trkpt lat="42.9721367" lon="10.95177"><ele>62.66666666666667</ele><time>2026-05-02T17:16:06.789Z</time></trkpt><trkpt lat="42.972265" lon="10.9516083"><ele>63.0</ele><time>2026-05-02T17:16:07.79Z</time></trkpt><trkpt lat="42.9723967" lon="10.9514367"><ele>63.66666666666667</ele><time>2026-05-02T17:16:08.789Z</time></trkpt><trkpt lat="42.9725317" lon="10.95126"><ele>64.33333333333334</ele><time>2026-05-02T17:16:09.789Z</time></trkpt><trkpt lat="42.97267" lon="10.95108"><ele>65.0</ele><time>2026-05-02T17:16:10.789Z</time></trkpt><trkpt lat="42.9728033" lon="10.9509033"><ele>65.0</ele><time>2026-05-02T17:16:11.789Z</time></trkpt><trkpt lat="42.9729367" lon="10.950735"><ele>65.0</ele><time>2026-05-02T17:16:12.789Z</time></trkpt><trkpt lat="42.9730683" lon="10.9505733"><ele>65.0</ele><time>2026-05-02T17:16:13.789Z</time></trkpt><trkpt lat="42.9732033" lon="10.9504083"><ele>65.0</ele><time>2026-05-02T17:16:14.789Z</time></trkpt><trkpt lat="42.9733333" lon="10.950245"><ele>65.0</ele><time>2026-05-02T17:16:15.789Z</time></trkpt><trkpt lat="42.9734717" lon="10.9500733"><ele>65.0</ele><time>2026-05-02T17:16:16.79Z</time></trkpt><trkpt lat="42.9736233" lon="10.9498883"><ele>65.5</ele><time>2026-05-02T17:16:17.79Z</time></trkpt><trkpt lat="42.97379" lon="10.949705"><ele>66.0</ele><time>2026-05-02T17:16:18.791Z</time></trkpt><trkpt lat="42.9739867" lon="10.94952"><ele>66.0</ele><time>2026-05-02T17:16:19.789Z</time></trkpt><trkpt lat="42.9742033" lon="10.9493467"><ele>66.0</ele><time>2026-05-02T17:16:20.789Z</time></trkpt><trkpt lat="42.9744267" lon="10.949175"><ele>66.0</ele><time>2026-05-02T17:16:21.789Z</time></trkpt><trkpt lat="42.9746567" lon="10.949005"><ele>66.0</ele><time>2026-05-02T17:16:22.789Z</time></trkpt><trkpt lat="42.9748867" lon="10.9488333"><ele>66.0</ele><time>2026-05-02T17:16:23.791Z</time></trkpt><trkpt lat="42.9751017" lon="10.948675"><ele>66.0</ele><time>2026-05-02T17:16:24.789Z</time></trkpt><trkpt lat="42.9752883" lon="10.948535"><ele>66.0</ele><time>2026-05-02T17:16:25.789Z</time></trkpt><trkpt lat="42.9754483" lon="10.9484167"><ele>66.0</ele><time>2026-05-02T17:16:26.789Z</time></trkpt><trkpt lat="42.97559" lon="10.94831"><ele>66.0</ele><time>2026-05-02T17:16:27.79Z</time></trkpt><trkpt lat="42.9757267" lon="10.9482067"><ele>67.33333333333333</ele><time>2026-05-02T17:16:28.79Z</time></trkpt><trkpt lat="42.9758617" lon="10.9481017"><ele>68.66666666666666</ele><time>2026-05-02T17:16:29.79Z</time></trkpt><trkpt lat="42.976005" lon="10.9479867"><ele>70.0</ele><time>2026-05-02T17:16:30.79Z</time></trkpt><trkpt lat="42.97615" lon="10.9478733"><ele>70.0</ele><time>2026-05-02T17:16:31.79Z</time></trkpt><trkpt lat="42.9762883" lon="10.9477683"><ele>70.0</ele><time>2026-05-02T17:16:32.789Z</time></trkpt><trkpt lat="42.976415" lon="10.9476717"><ele>70.0</ele><time>2026-05-02T17:16:33.79Z</time></trkpt><trkpt lat="42.9765367" lon="10.9475817"><ele>70.0</ele><time>2026-05-02T17:16:34.79Z</time></trkpt><trkpt lat="42.9766583" lon="10.9474917"><ele>70.5</ele><time>2026-05-02T17:16:35.789Z</time></trkpt><trkpt lat="42.9767817" lon="10.9474"><ele>71.0</ele><time>2026-05-02T17:16:36.79Z</time></trkpt><trkpt lat="42.9769" lon="10.9473117"><ele>71.5</ele><time>2026-05-02T17:16:37.789Z</time></trkpt><trkpt lat="42.9770033" lon="10.947235"><ele>72.0</ele><time>2026-05-02T17:16:38.792Z</time></trkpt><trkpt lat="42.977085" lon="10.9471733"><ele>72.0</ele><time>2026-05-02T17:16:39.789Z</time></trkpt><trkpt lat="42.9771533" lon="10.94712"><ele>72.0</ele><time>2026-05-02T17:16:40.789Z</time></trkpt><trkpt lat="42.97721" lon="10.9470767"><ele>72.0</ele><time>2026-05-02T17:16:41.789Z</time></trkpt><trkpt lat="42.9772817" lon="10.9470183"><ele>72.0</ele><time>2026-05-02T17:16:43.79Z</time></trkpt><trkpt lat="42.9773367" lon="10.9469683"><ele>72.0</ele><time>2026-05-02T17:16:44.791Z</time></trkpt><trkpt lat="42.977425" lon="10.9469017"><ele>72.0</ele><time>2026-05-02T17:16:45.79Z</time></trkpt><trkpt lat="42.97755" lon="10.9468283"><ele>71.33333333333333</ele><time>2026-05-02T17:16:46.79Z</time></trkpt><trkpt lat="42.9776933" lon="10.9467517"><ele>70.66666666666666</ele><time>2026-05-02T17:16:47.789Z</time></trkpt><trkpt lat="42.9778483" lon="10.9466733"><ele>70.0</ele><time>2026-05-02T17:16:48.789Z</time></trkpt><trkpt lat="42.978015" lon="10.9465917"><ele>70.0</ele><time>2026-05-02T17:16:49.791Z</time></trkpt><trkpt lat="42.978185" lon="10.9465033"><ele>70.0</ele><time>2026-05-02T17:16:50.79Z</time></trkpt><trkpt lat="42.97836" lon="10.9464133"><ele>70.0</ele><time>2026-05-02T17:16:51.789Z</time></trkpt><trkpt lat="42.9785367" lon="10.94632"><ele>69.66666666666666</ele><time>2026-05-02T17:16:52.789Z</time></trkpt><trkpt lat="42.978715" lon="10.946225"><ele>69.33333333333333</ele><time>2026-05-02T17:16:53.789Z</time></trkpt><trkpt lat="42.9789" lon="10.946125"><ele>69.0</ele><time>2026-05-02T17:16:54.791Z</time></trkpt><trkpt lat="42.9791" lon="10.9460183"><ele>70.0</ele><time>2026-05-02T17:16:55.789Z</time></trkpt><trkpt lat="42.9793183" lon="10.9459017"><ele>71.0</ele><time>2026-05-02T17:16:56.789Z</time></trkpt><trkpt lat="42.9795483" lon="10.9457817"><ele>71.0</ele><time>2026-05-02T17:16:57.789Z</time></trkpt><trkpt lat="42.9797817" lon="10.94566"><ele>71.0</ele><time>2026-05-02T17:16:58.79Z</time></trkpt><trkpt lat="42.98002" lon="10.9455283"><ele>71.5</ele><time>2026-05-02T17:16:59.789Z</time></trkpt><trkpt lat="42.9802717" lon="10.9453817"><ele>72.0</ele><time>2026-05-02T17:17:00.789Z</time></trkpt><trkpt lat="42.9805367" lon="10.945225"><ele>72.0</ele><time>2026-05-02T17:17:01.791Z</time></trkpt><trkpt lat="42.98081" lon="10.9450617"><ele>72.0</ele><time>2026-05-02T17:17:02.791Z</time></trkpt><trkpt lat="42.9810717" lon="10.9449033"><ele>73.5</ele><time>2026-05-02T17:17:03.788Z</time></trkpt><trkpt lat="42.9813167" lon="10.944755"><ele>75.0</ele><time>2026-05-02T17:17:04.789Z</time></trkpt><trkpt lat="42.9815467" lon="10.944615"><ele>75.5</ele><time>2026-05-02T17:17:05.788Z</time></trkpt><trkpt lat="42.9817617" lon="10.9444833"><ele>76.0</ele><time>2026-05-02T17:17:06.789Z</time></trkpt><trkpt lat="42.9819633" lon="10.9443633"><ele>76.0</ele><time>2026-05-02T17:17:07.789Z</time></trkpt><trkpt lat="42.9821517" lon="10.9442517"><ele>76.0</ele><time>2026-05-02T17:17:08.788Z</time></trkpt><trkpt lat="42.9823267" lon="10.94415"><ele>76.0</ele><time>2026-05-02T17:17:09.788Z</time></trkpt><trkpt lat="42.9824917" lon="10.9440517"><ele>76.66666666666666</ele><time>2026-05-02T17:17:10.789Z</time></trkpt><trkpt lat="42.9826483" lon="10.9439617"><ele>77.33333333333333</ele><time>2026-05-02T17:17:11.788Z</time></trkpt><trkpt lat="42.9827933" lon="10.9438767"><ele>78.0</ele><time>2026-05-02T17:17:12.79Z</time></trkpt><trkpt lat="42.9829283" lon="10.9437967"><ele>78.0</ele><time>2026-05-02T17:17:13.788Z</time></trkpt><trkpt lat="42.9830517" lon="10.9437217"><ele>78.0</ele><time>2026-05-02T17:17:14.789Z</time></trkpt><trkpt lat="42.98316" lon="10.9436567"><ele>78.0</ele><time>2026-05-02T17:17:15.788Z</time></trkpt><trkpt lat="42.983255" lon="10.9436017"><ele>78.0</ele><time>2026-05-02T17:17:16.789Z</time></trkpt><trkpt lat="42.9833467" lon="10.943545"><ele>78.16666666666667</ele><time>2026-05-02T17:17:17.789Z</time></trkpt><trkpt lat="42.9834267" lon="10.9435"><ele>78.33333333333333</ele><time>2026-05-02T17:17:18.788Z</time></trkpt><trkpt lat="42.9835" lon="10.9434583"><ele>78.5</ele><time>2026-05-02T17:17:19.788Z</time></trkpt><trkpt lat="42.9835633" lon="10.9434167"><ele>78.66666666666666</ele><time>2026-05-02T17:17:20.79Z</time></trkpt><trkpt lat="42.9836633" lon="10.94335"><ele>78.83333333333333</ele><time>2026-05-02T17:17:22.788Z</time></trkpt><trkpt lat="42.9836967" lon="10.9432283"><ele>79.0</ele><time>2026-05-02T17:17:25.789Z</time></trkpt><trkpt lat="42.9836667" lon="10.94315"><ele>79.4</ele><time>2026-05-02T17:17:26.788Z</time></trkpt><trkpt lat="42.983625" lon="10.943055"><ele>79.80000000000001</ele><time>2026-05-02T17:17:27.788Z</time></trkpt><trkpt lat="42.9835783" lon="10.9429467"><ele>80.19999999999999</ele><time>2026-05-02T17:17:28.789Z</time></trkpt><trkpt lat="42.983525" lon="10.942825"><ele>80.6</ele><time>2026-05-02T17:17:29.789Z</time></trkpt><trkpt lat="42.9834733" lon="10.9427"><ele>81.0</ele><time>2026-05-02T17:17:30.788Z</time></trkpt><trkpt lat="42.98342" lon="10.942565"><ele>81.4</ele><time>2026-05-02T17:17:31.789Z</time></trkpt><trkpt lat="42.9833717" lon="10.942435"><ele>81.8</ele><time>2026-05-02T17:17:32.79Z</time></trkpt><trkpt lat="42.983325" lon="10.94232"><ele>82.2</ele><time>2026-05-02T17:17:33.789Z</time></trkpt><trkpt lat="42.9832833" lon="10.94222"><ele>82.60000000000001</ele><time>2026-05-02T17:17:34.788Z</time></trkpt><trkpt lat="42.9832433" lon="10.9421233"><ele>83.0</ele><time>2026-05-02T17:17:35.788Z</time></trkpt><trkpt lat="42.983205" lon="10.9420217"><ele>83.2</ele><time>2026-05-02T17:17:36.789Z</time></trkpt><trkpt lat="42.983165" lon="10.9419083"><ele>83.4</ele><time>2026-05-02T17:17:37.789Z</time></trkpt><trkpt lat="42.98312" lon="10.9417867"><ele>83.60000000000001</ele><time>2026-05-02T17:17:38.79Z</time></trkpt><trkpt lat="42.9830717" lon="10.9416567"><ele>83.80000000000001</ele><time>2026-05-02T17:17:39.785Z</time></trkpt><trkpt lat="42.9830167" lon="10.9415183"><ele>84.0</ele><time>2026-05-02T17:17:40.788Z</time></trkpt><trkpt lat="42.9829633" lon="10.9413767"><ele>84.0</ele><time>2026-05-02T17:17:41.789Z</time></trkpt><trkpt lat="42.9829033" lon="10.94123"><ele>84.0</ele><time>2026-05-02T17:17:42.788Z</time></trkpt><trkpt lat="42.9828383" lon="10.9410783"><ele>84.0</ele><time>2026-05-02T17:17:43.789Z</time></trkpt><trkpt lat="42.9827783" lon="10.9409267"><ele>84.0</ele><time>2026-05-02T17:17:44.79Z</time></trkpt><trkpt lat="42.9827183" lon="10.9407733"><ele>83.25</ele><time>2026-05-02T17:17:45.786Z</time></trkpt><trkpt lat="42.9826633" lon="10.94062"><ele>82.5</ele><time>2026-05-02T17:17:46.788Z</time></trkpt><trkpt lat="42.9826083" lon="10.9404733"><ele>81.75</ele><time>2026-05-02T17:17:47.788Z</time></trkpt><trkpt lat="42.98255" lon="10.94033"><ele>81.0</ele><time>2026-05-02T17:17:48.79Z</time></trkpt><trkpt lat="42.9824933" lon="10.94019"><ele>80.39999999999999</ele><time>2026-05-02T17:17:49.788Z</time></trkpt><trkpt lat="42.98244" lon="10.9400617"><ele>79.8</ele><time>2026-05-02T17:17:50.79Z</time></trkpt><trkpt lat="42.9823933" lon="10.9399417"><ele>79.19999999999999</ele><time>2026-05-02T17:17:51.789Z</time></trkpt><trkpt lat="42.98235" lon="10.93983"><ele>78.6</ele><time>2026-05-02T17:17:52.789Z</time></trkpt><trkpt lat="42.982305" lon="10.9397283"><ele>78.0</ele><time>2026-05-02T17:17:53.79Z</time></trkpt><trkpt lat="42.9822617" lon="10.9396417"><ele>78.0</ele><time>2026-05-02T17:17:54.788Z</time></trkpt><trkpt lat="42.9822133" lon="10.9395683"><ele>78.0</ele><time>2026-05-02T17:17:55.79Z</time></trkpt><trkpt lat="42.9821467" lon="10.9395167"><ele>78.0</ele><time>2026-05-02T17:17:56.789Z</time></trkpt><trkpt lat="42.9820767" lon="10.9394833"><ele>78.0</ele><time>2026-05-02T17:17:57.788Z</time></trkpt><trkpt lat="42.982" lon="10.9394883"><ele>78.0</ele><time>2026-05-02T17:17:58.789Z</time></trkpt><trkpt lat="42.9818983" lon="10.9395383"><ele>78.0</ele><time>2026-05-02T17:17:59.794Z</time></trkpt><trkpt lat="42.9817817" lon="10.9396117"><ele>78.25</ele><time>2026-05-02T17:18:00.789Z</time></trkpt><trkpt lat="42.9816633" lon="10.9396833"><ele>78.5</ele><time>2026-05-02T17:18:01.789Z</time></trkpt><trkpt lat="42.981545" lon="10.9397483"><ele>78.75</ele><time>2026-05-02T17:18:02.788Z</time></trkpt><trkpt lat="42.9814333" lon="10.9398133"><ele>79.0</ele><time>2026-05-02T17:18:03.789Z</time></trkpt><trkpt lat="42.98133" lon="10.9398683"><ele>79.0</ele><time>2026-05-02T17:18:04.789Z</time></trkpt><trkpt lat="42.981235" lon="10.9399183"><ele>79.0</ele><time>2026-05-02T17:18:05.789Z</time></trkpt><trkpt lat="42.981145" lon="10.9399517"><ele>79.0</ele><time>2026-05-02T17:18:06.788Z</time></trkpt><trkpt lat="42.9810567" lon="10.9399683"><ele>79.0</ele><time>2026-05-02T17:18:07.789Z</time></trkpt><trkpt lat="42.9809733" lon="10.93996"><ele>79.0</ele><time>2026-05-02T17:18:08.789Z</time></trkpt><trkpt lat="42.980885" lon="10.9399283"><ele>78.60000000000001</ele><time>2026-05-02T17:18:09.788Z</time></trkpt><trkpt lat="42.9807967" lon="10.93987"><ele>78.2</ele><time>2026-05-02T17:18:10.789Z</time></trkpt><trkpt lat="42.98071" lon="10.9397933"><ele>77.80000000000001</ele><time>2026-05-02T17:18:11.789Z</time></trkpt><trkpt lat="42.9806167" lon="10.939705"><ele>77.4</ele><time>2026-05-02T17:18:12.791Z</time></trkpt><trkpt lat="42.9805183" lon="10.9396067"><ele>77.0</ele><time>2026-05-02T17:18:13.789Z</time></trkpt><trkpt lat="42.9804167" lon="10.9395067"><ele>77.0</ele><time>2026-05-02T17:18:14.79Z</time></trkpt><trkpt lat="42.9803133" lon="10.9394083"><ele>77.0</ele><time>2026-05-02T17:18:15.789Z</time></trkpt><trkpt lat="42.9802083" lon="10.93931"><ele>77.0</ele><time>2026-05-02T17:18:16.79Z</time></trkpt><trkpt lat="42.980105" lon="10.939215"><ele>77.0</ele><time>2026-05-02T17:18:17.789Z</time></trkpt><trkpt lat="42.98" lon="10.93912"><ele>76.75</ele><time>2026-05-02T17:18:18.788Z</time></trkpt><trkpt lat="42.9798967" lon="10.9390233"><ele>76.5</ele><time>2026-05-02T17:18:19.789Z</time></trkpt><trkpt lat="42.979785" lon="10.9389267"><ele>76.25</ele><time>2026-05-02T17:18:20.789Z</time></trkpt><trkpt lat="42.97967" lon="10.938825"><ele>76.0</ele><time>2026-05-02T17:18:21.789Z</time></trkpt><trkpt lat="42.979555" lon="10.93872"><ele>76.0</ele><time>2026-05-02T17:18:22.789Z</time></trkpt><trkpt lat="42.9794467" lon="10.9386167"><ele>76.0</ele><time>2026-05-02T17:18:23.788Z</time></trkpt><trkpt lat="42.9793433" lon="10.9385167"><ele>76.0</ele><time>2026-05-02T17:18:24.789Z</time></trkpt><trkpt lat="42.979245" lon="10.938415"><ele>76.0</ele><time>2026-05-02T17:18:25.789Z</time></trkpt><trkpt lat="42.9791617" lon="10.93831"><ele>76.75</ele><time>2026-05-02T17:18:26.789Z</time></trkpt><trkpt lat="42.9790933" lon="10.9381917"><ele>77.5</ele><time>2026-05-02T17:18:27.79Z</time></trkpt><trkpt lat="42.97904" lon="10.9380517"><ele>78.25</ele><time>2026-05-02T17:18:28.788Z</time></trkpt><trkpt lat="42.9789983" lon="10.9379033"><ele>79.0</ele><time>2026-05-02T17:18:29.789Z</time></trkpt><trkpt lat="42.9789617" lon="10.9377567"><ele>79.0</ele><time>2026-05-02T17:18:30.789Z</time></trkpt><trkpt lat="42.97893" lon="10.9376117"><ele>79.0</ele><time>2026-05-02T17:18:31.785Z</time></trkpt><trkpt lat="42.9788867" lon="10.9374767"><ele>79.0</ele><time>2026-05-02T17:18:32.785Z</time></trkpt><trkpt lat="42.978825" lon="10.9373517"><ele>79.0</ele><time>2026-05-02T17:18:33.789Z</time></trkpt><trkpt lat="42.9787483" lon="10.9372333"><ele>79.0</ele><time>2026-05-02T17:18:34.789Z</time></trkpt><trkpt lat="42.9786583" lon="10.9371067"><ele>79.25</ele><time>2026-05-02T17:18:35.788Z</time></trkpt><trkpt lat="42.9785717" lon="10.936975"><ele>79.5</ele><time>2026-05-02T17:18:36.789Z</time></trkpt><trkpt lat="42.9784833" lon="10.9368417"><ele>79.75</ele><time>2026-05-02T17:18:37.789Z</time></trkpt><trkpt lat="42.9784017" lon="10.9367167"><ele>80.0</ele><time>2026-05-02T17:18:38.789Z</time></trkpt><trkpt lat="42.9783217" lon="10.9366017"><ele>81.2</ele><time>2026-05-02T17:18:39.789Z</time></trkpt><trkpt lat="42.9782483" lon="10.9364933"><ele>82.4</ele><time>2026-05-02T17:18:40.785Z</time></trkpt><trkpt lat="42.9781767" lon="10.936405"><ele>83.6</ele><time>2026-05-02T17:18:41.79Z</time></trkpt><trkpt lat="42.9781017" lon="10.9363417"><ele>84.8</ele><time>2026-05-02T17:18:42.788Z</time></trkpt><trkpt lat="42.97802" lon="10.936295"><ele>86.0</ele><time>2026-05-02T17:18:43.789Z</time></trkpt><trkpt lat="42.97794" lon="10.9362633"><ele>86.00000000000001</ele><time>2026-05-02T17:18:44.789Z</time></trkpt><trkpt lat="42.9778667" lon="10.9362517"><ele>86.0</ele><time>2026-05-02T17:18:45.789Z</time></trkpt><trkpt lat="42.9778033" lon="10.9362483"><ele>86.0</ele><time>2026-05-02T17:18:46.789Z</time></trkpt><trkpt lat="42.9777183" lon="10.9362433"><ele>86.0</ele><time>2026-05-02T17:18:48.789Z</time></trkpt><trkpt lat="42.9777317" lon="10.9361583"><ele>86.0</ele><time>2026-05-02T17:18:53.79Z</time></trkpt><trkpt lat="42.9777917" lon="10.936185"><ele>86.00000000000001</ele><time>2026-05-02T17:18:56.789Z</time></trkpt><trkpt lat="42.9778633" lon="10.9361933"><ele>86.0</ele><time>2026-05-02T17:18:58.79Z</time></trkpt><trkpt lat="42.9777567" lon="10.9361933"><ele>86.0</ele><time>2026-05-02T17:19:08.789Z</time></trkpt><trkpt lat="42.9776917" lon="10.9362217"><ele>86.0</ele><time>2026-05-02T17:19:10.79Z</time></trkpt><trkpt lat="42.9775983" lon="10.9362383"><ele>86.0</ele><time>2026-05-02T17:21:04.791Z</time></trkpt><trkpt lat="42.9775367" lon="10.9362617"><ele>86.0</ele><time>2026-05-02T17:21:05.789Z</time></trkpt><trkpt lat="42.9774317" lon="10.93625"><ele>86.0</ele><time>2026-05-02T17:21:07.79Z</time></trkpt><trkpt lat="42.97733" lon="10.936175"><ele>86.0</ele><time>2026-05-02T17:21:09.79Z</time></trkpt><trkpt lat="42.9772767" lon="10.9361183"><ele>85.83333333333334</ele><time>2026-05-02T17:21:10.789Z</time></trkpt><trkpt lat="42.9772033" lon="10.9359983"><ele>85.66666666666667</ele><time>2026-05-02T17:21:12.789Z</time></trkpt><trkpt lat="42.9771433" lon="10.935895"><ele>85.5</ele><time>2026-05-02T17:21:14.79Z</time></trkpt><trkpt lat="42.9770933" lon="10.9358117"><ele>85.33333333333333</ele><time>2026-05-02T17:21:16.791Z</time></trkpt><trkpt lat="42.977045" lon="10.93572"><ele>85.16666666666666</ele><time>2026-05-02T17:21:30.787Z</time></trkpt><trkpt lat="42.976995" lon="10.93564"><ele>85.0</ele><time>2026-05-02T17:21:31.787Z</time></trkpt><trkpt lat="42.9769383" lon="10.9355417"><ele>84.6</ele><time>2026-05-02T17:21:32.787Z</time></trkpt><trkpt lat="42.976875" lon="10.9354333"><ele>84.2</ele><time>2026-05-02T17:21:33.789Z</time></trkpt><trkpt lat="42.9768083" lon="10.9353217"><ele>83.80000000000001</ele><time>2026-05-02T17:21:34.786Z</time></trkpt><trkpt lat="42.9767383" lon="10.93521"><ele>83.4</ele><time>2026-05-02T17:21:35.789Z</time></trkpt><trkpt lat="42.9766683" lon="10.9351017"><ele>83.0</ele><time>2026-05-02T17:21:36.79Z</time></trkpt><trkpt lat="42.9765933" lon="10.935"><ele>82.5</ele><time>2026-05-02T17:21:37.791Z</time></trkpt><trkpt lat="42.9765267" lon="10.9349017"><ele>82.0</ele><time>2026-05-02T17:21:38.878Z</time></trkpt><trkpt lat="42.9764633" lon="10.9348133"><ele>81.5</ele><time>2026-05-02T17:21:39.785Z</time></trkpt><trkpt lat="42.9763917" lon="10.9347467"><ele>81.0</ele><time>2026-05-02T17:21:40.786Z</time></trkpt><trkpt lat="42.9763183" lon="10.9346967"><ele>80.5</ele><time>2026-05-02T17:21:41.789Z</time></trkpt><trkpt lat="42.9762317" lon="10.9346617"><ele>80.0</ele><time>2026-05-02T17:21:42.788Z</time></trkpt><trkpt lat="42.9761383" lon="10.9346367"><ele>80.0</ele><time>2026-05-02T17:21:43.788Z</time></trkpt><trkpt lat="42.9760417" lon="10.93462"><ele>80.0</ele><time>2026-05-02T17:21:44.79Z</time></trkpt><trkpt lat="42.9759367" lon="10.93461"><ele>80.0</ele><time>2026-05-02T17:21:45.788Z</time></trkpt><trkpt lat="42.9758283" lon="10.9346167"><ele>80.0</ele><time>2026-05-02T17:21:46.789Z</time></trkpt><trkpt lat="42.97572" lon="10.9346333"><ele>80.0</ele><time>2026-05-02T17:21:47.788Z</time></trkpt><trkpt lat="42.9756217" lon="10.9346433"><ele>79.8</ele><time>2026-05-02T17:21:48.791Z</time></trkpt><trkpt lat="42.9755217" lon="10.934645"><ele>79.6</ele><time>2026-05-02T17:21:49.789Z</time></trkpt><trkpt lat="42.9754183" lon="10.9346317"><ele>79.4</ele><time>2026-05-02T17:21:50.788Z</time></trkpt><trkpt lat="42.9753083" lon="10.9345983"><ele>79.2</ele><time>2026-05-02T17:21:51.789Z</time></trkpt><trkpt lat="42.9751917" lon="10.9345567"><ele>79.0</ele><time>2026-05-02T17:21:52.79Z</time></trkpt><trkpt lat="42.9750717" lon="10.9345167"><ele>79.2</ele><time>2026-05-02T17:21:53.788Z</time></trkpt><trkpt lat="42.9749567" lon="10.934475"><ele>79.4</ele><time>2026-05-02T17:21:54.79Z</time></trkpt><trkpt lat="42.9748533" lon="10.934435"><ele>79.6</ele><time>2026-05-02T17:21:55.788Z</time></trkpt><trkpt lat="42.9747717" lon="10.9344017"><ele>79.8</ele><time>2026-05-02T17:21:56.785Z</time></trkpt><trkpt lat="42.9747017" lon="10.9343617"><ele>80.0</ele><time>2026-05-02T17:21:57.788Z</time></trkpt><trkpt lat="42.97464" lon="10.9343183"><ele>80.0</ele><time>2026-05-02T17:21:58.786Z</time></trkpt><trkpt lat="42.974595" lon="10.9342483"><ele>80.0</ele><time>2026-05-02T17:21:59.786Z</time></trkpt><trkpt lat="42.9745883" lon="10.934145"><ele>80.0</ele><time>2026-05-02T17:22:00.786Z</time></trkpt><trkpt lat="42.9745883" lon="10.9340233"><ele>80.0</ele><time>2026-05-02T17:22:01.785Z</time></trkpt><trkpt lat="42.9746" lon="10.9338733"><ele>80.0</ele><time>2026-05-02T17:22:02.785Z</time></trkpt><trkpt lat="42.9746117" lon="10.9337117"><ele>80.5</ele><time>2026-05-02T17:22:03.79Z</time></trkpt><trkpt lat="42.9746183" lon="10.933545"><ele>81.0</ele><time>2026-05-02T17:22:04.789Z</time></trkpt><trkpt lat="42.97462" lon="10.933375"><ele>81.5</ele><time>2026-05-02T17:22:05.789Z</time></trkpt><trkpt lat="42.9746233" lon="10.933205"><ele>82.0</ele><time>2026-05-02T17:22:06.789Z</time></trkpt><trkpt lat="42.974625" lon="10.9330383"><ele>82.39999999999999</ele><time>2026-05-02T17:22:07.785Z</time></trkpt><trkpt lat="42.9746267" lon="10.9328833"><ele>82.8</ele><time>2026-05-02T17:22:08.788Z</time></trkpt><trkpt lat="42.97463" lon="10.9327367"><ele>83.2</ele><time>2026-05-02T17:22:09.789Z</time></trkpt><trkpt lat="42.9746367" lon="10.932605"><ele>83.6</ele><time>2026-05-02T17:22:10.789Z</time></trkpt><trkpt lat="42.9746533" lon="10.932475"><ele>84.0</ele><time>2026-05-02T17:22:11.787Z</time></trkpt><trkpt lat="42.97468" lon="10.9323483"><ele>84.0</ele><time>2026-05-02T17:22:12.785Z</time></trkpt><trkpt lat="42.974715" lon="10.9322233"><ele>84.0</ele><time>2026-05-02T17:22:13.788Z</time></trkpt><trkpt lat="42.974755" lon="10.9321017"><ele>84.0</ele><time>2026-05-02T17:22:14.787Z</time></trkpt><trkpt lat="42.9747967" lon="10.931975"><ele>84.0</ele><time>2026-05-02T17:22:15.785Z</time></trkpt><trkpt lat="42.974845" lon="10.9318467"><ele>84.0</ele><time>2026-05-02T17:22:16.792Z</time></trkpt><trkpt lat="42.9749067" lon="10.9317167"><ele>84.0</ele><time>2026-05-02T17:22:17.786Z</time></trkpt><trkpt lat="42.9749767" lon="10.93159"><ele>84.0</ele><time>2026-05-02T17:22:18.786Z</time></trkpt><trkpt lat="42.9750583" lon="10.9314583"><ele>84.0</ele><time>2026-05-02T17:22:19.785Z</time></trkpt><trkpt lat="42.9751433" lon="10.9313233"><ele>84.0</ele><time>2026-05-02T17:22:20.789Z</time></trkpt><trkpt lat="42.97523" lon="10.931175"><ele>84.5</ele><time>2026-05-02T17:22:21.786Z</time></trkpt><trkpt lat="42.97532" lon="10.93103"><ele>85.0</ele><time>2026-05-02T17:22:22.787Z</time></trkpt><trkpt lat="42.9754067" lon="10.9308767"><ele>85.5</ele><time>2026-05-02T17:22:23.788Z</time></trkpt><trkpt lat="42.9754917" lon="10.9307233"><ele>86.0</ele><time>2026-05-02T17:22:24.791Z</time></trkpt><trkpt lat="42.9755767" lon="10.9305767"><ele>86.0</ele><time>2026-05-02T17:22:25.79Z</time></trkpt><trkpt lat="42.9756567" lon="10.9304367"><ele>86.0</ele><time>2026-05-02T17:22:26.788Z</time></trkpt><trkpt lat="42.97574" lon="10.930295"><ele>86.0</ele><time>2026-05-02T17:22:27.785Z</time></trkpt><trkpt lat="42.975825" lon="10.9301533"><ele>86.0</ele><time>2026-05-02T17:22:28.786Z</time></trkpt><trkpt lat="42.97591" lon="10.93001"><ele>86.0</ele><time>2026-05-02T17:22:29.788Z</time></trkpt><trkpt lat="42.9759983" lon="10.929865"><ele>86.0</ele><time>2026-05-02T17:22:30.786Z</time></trkpt><trkpt lat="42.9760833" lon="10.9297233"><ele>86.0</ele><time>2026-05-02T17:22:31.785Z</time></trkpt><trkpt lat="42.9761617" lon="10.9296017"><ele>86.0</ele><time>2026-05-02T17:22:32.786Z</time></trkpt><trkpt lat="42.9762367" lon="10.9294967"><ele>86.0</ele><time>2026-05-02T17:22:33.789Z</time></trkpt><trkpt lat="42.9763167" lon="10.929405"><ele>86.0</ele><time>2026-05-02T17:22:34.79Z</time></trkpt><trkpt lat="42.976405" lon="10.9293117"><ele>86.0</ele><time>2026-05-02T17:22:35.789Z</time></trkpt><trkpt lat="42.97649" lon="10.9292167"><ele>86.0</ele><time>2026-05-02T17:22:36.789Z</time></trkpt><trkpt lat="42.97657" lon="10.92912"><ele>86.0</ele><time>2026-05-02T17:22:37.786Z</time></trkpt><trkpt lat="42.9766483" lon="10.9290167"><ele>86.0</ele><time>2026-05-02T17:22:38.79Z</time></trkpt><trkpt lat="42.9767167" lon="10.9289067"><ele>86.0</ele><time>2026-05-02T17:22:39.789Z</time></trkpt><trkpt lat="42.976775" lon="10.928785"><ele>86.0</ele><time>2026-05-02T17:22:40.785Z</time></trkpt><trkpt lat="42.976825" lon="10.9286433"><ele>86.0</ele><time>2026-05-02T17:22:41.789Z</time></trkpt><trkpt lat="42.97686" lon="10.928485"><ele>86.0</ele><time>2026-05-02T17:22:42.789Z</time></trkpt><trkpt lat="42.976885" lon="10.928315"><ele>86.0</ele><time>2026-05-02T17:22:43.786Z</time></trkpt><trkpt lat="42.976905" lon="10.928135"><ele>86.0</ele><time>2026-05-02T17:22:44.787Z</time></trkpt><trkpt lat="42.9769233" lon="10.9279567"><ele>86.0</ele><time>2026-05-02T17:22:45.786Z</time></trkpt><trkpt lat="42.9769383" lon="10.9277817"><ele>86.0</ele><time>2026-05-02T17:22:46.789Z</time></trkpt><trkpt lat="42.9769517" lon="10.9276183"><ele>86.6</ele><time>2026-05-02T17:22:47.787Z</time></trkpt><trkpt lat="42.9769667" lon="10.9274683"><ele>87.19999999999999</ele><time>2026-05-02T17:22:48.786Z</time></trkpt><trkpt lat="42.97698" lon="10.9273317"><ele>87.80000000000001</ele><time>2026-05-02T17:22:49.786Z</time></trkpt><trkpt lat="42.9769917" lon="10.9271967"><ele>88.4</ele><time>2026-05-02T17:22:50.789Z</time></trkpt><trkpt lat="42.976995" lon="10.9270683"><ele>89.0</ele><time>2026-05-02T17:22:51.789Z</time></trkpt><trkpt lat="42.9769917" lon="10.926955"><ele>89.0</ele><time>2026-05-02T17:22:52.79Z</time></trkpt><trkpt lat="42.976985" lon="10.9268583"><ele>89.0</ele><time>2026-05-02T17:22:53.789Z</time></trkpt><trkpt lat="42.9769817" lon="10.926715"><ele>89.0</ele><time>2026-05-02T17:22:55.786Z</time></trkpt><trkpt lat="42.9770217" lon="10.9265733"><ele>89.0</ele><time>2026-05-02T17:22:57.787Z</time></trkpt><trkpt lat="42.9770617" lon="10.9264867"><ele>89.0</ele><time>2026-05-02T17:22:58.786Z</time></trkpt><trkpt lat="42.977105" lon="10.9263933"><ele>89.0</ele><time>2026-05-02T17:22:59.786Z</time></trkpt><trkpt lat="42.977155" lon="10.9262983"><ele>89.0</ele><time>2026-05-02T17:23:00.787Z</time></trkpt><trkpt lat="42.9772067" lon="10.92619"><ele>89.0</ele><time>2026-05-02T17:23:01.787Z</time></trkpt><trkpt lat="42.977265" lon="10.9260667"><ele>89.0</ele><time>2026-05-02T17:23:02.786Z</time></trkpt><trkpt lat="42.977325" lon="10.9259417"><ele>89.0</ele><time>2026-05-02T17:23:03.79Z</time></trkpt><trkpt lat="42.9773867" lon="10.9258167"><ele>89.0</ele><time>2026-05-02T17:23:04.789Z</time></trkpt><trkpt lat="42.9774517" lon="10.9256817"><ele>89.0</ele><time>2026-05-02T17:23:05.789Z</time></trkpt><trkpt lat="42.9775183" lon="10.9255417"><ele>89.0</ele><time>2026-05-02T17:23:06.785Z</time></trkpt><trkpt lat="42.9775883" lon="10.9254067"><ele>89.0</ele><time>2026-05-02T17:23:07.787Z</time></trkpt><trkpt lat="42.9776567" lon="10.9252717"><ele>89.0</ele><time>2026-05-02T17:23:08.787Z</time></trkpt><trkpt lat="42.9777183" lon="10.9251417"><ele>90.2</ele><time>2026-05-02T17:23:09.788Z</time></trkpt><trkpt lat="42.9777783" lon="10.9250117"><ele>91.4</ele><time>2026-05-02T17:23:10.788Z</time></trkpt><trkpt lat="42.97784" lon="10.9248867"><ele>92.6</ele><time>2026-05-02T17:23:11.787Z</time></trkpt><trkpt lat="42.9778983" lon="10.9247667"><ele>93.8</ele><time>2026-05-02T17:23:12.787Z</time></trkpt><trkpt lat="42.9779567" lon="10.9246483"><ele>95.0</ele><time>2026-05-02T17:23:13.786Z</time></trkpt><trkpt lat="42.9780133" lon="10.924535"><ele>95.0</ele><time>2026-05-02T17:23:14.788Z</time></trkpt><trkpt lat="42.9780683" lon="10.924425"><ele>95.0</ele><time>2026-05-02T17:23:15.789Z</time></trkpt><trkpt lat="42.9781167" lon="10.924325"><ele>95.0</ele><time>2026-05-02T17:23:16.786Z</time></trkpt><trkpt lat="42.97816" lon="10.9242317"><ele>95.0</ele><time>2026-05-02T17:23:17.787Z</time></trkpt><trkpt lat="42.9782" lon="10.9241533"><ele>95.0</ele><time>2026-05-02T17:23:18.787Z</time></trkpt><trkpt lat="42.9782367" lon="10.92408"><ele>95.0</ele><time>2026-05-02T17:23:19.787Z</time></trkpt><trkpt lat="42.9783033" lon="10.9239517"><ele>96.6</ele><time>2026-05-02T17:23:21.785Z</time></trkpt><trkpt lat="42.9783717" lon="10.92382"><ele>98.2</ele><time>2026-05-02T17:23:23.788Z</time></trkpt><trkpt lat="42.97841" lon="10.923745"><ele>99.80000000000001</ele><time>2026-05-02T17:23:24.789Z</time></trkpt><trkpt lat="42.978455" lon="10.9236533"><ele>101.4</ele><time>2026-05-02T17:23:25.789Z</time></trkpt><trkpt lat="42.9785083" lon="10.9235383"><ele>103.0</ele><time>2026-05-02T17:23:26.786Z</time></trkpt><trkpt lat="42.9785783" lon="10.9233933"><ele>104.33333333333334</ele><time>2026-05-02T17:23:27.787Z</time></trkpt><trkpt lat="42.9786733" lon="10.9232"><ele>105.66666666666666</ele><time>2026-05-02T17:23:28.786Z</time></trkpt><trkpt lat="42.9787867" lon="10.9229867"><ele>107.0</ele><time>2026-05-02T17:23:29.786Z</time></trkpt><trkpt lat="42.9789183" lon="10.9227533"><ele>106.66666666666666</ele><time>2026-05-02T17:23:30.786Z</time></trkpt><trkpt lat="42.9790633" lon="10.9225517"><ele>106.33333333333334</ele><time>2026-05-02T17:23:31.787Z</time></trkpt><trkpt lat="42.97922" lon="10.9223717"><ele>106.0</ele><time>2026-05-02T17:23:32.787Z</time></trkpt><trkpt lat="42.9793917" lon="10.922205"><ele>108.5</ele><time>2026-05-02T17:23:33.785Z</time></trkpt><trkpt lat="42.9795833" lon="10.922045"><ele>111.0</ele><time>2026-05-02T17:23:34.786Z</time></trkpt><trkpt lat="42.979795" lon="10.9218817"><ele>111.5</ele><time>2026-05-02T17:23:35.789Z</time></trkpt><trkpt lat="42.9800217" lon="10.921715"><ele>112.0</ele><time>2026-05-02T17:23:36.786Z</time></trkpt><trkpt lat="42.980255" lon="10.921545"><ele>112.0</ele><time>2026-05-02T17:23:37.788Z</time></trkpt><trkpt lat="42.9804983" lon="10.92137"><ele>112.0</ele><time>2026-05-02T17:23:38.789Z</time></trkpt><trkpt lat="42.9807317" lon="10.9212017"><ele>116.5</ele><time>2026-05-02T17:23:39.789Z</time></trkpt><trkpt lat="42.9809467" lon="10.9210367"><ele>121.0</ele><time>2026-05-02T17:23:40.787Z</time></trkpt><trkpt lat="42.9811483" lon="10.920865"><ele>121.5</ele><time>2026-05-02T17:23:41.787Z</time></trkpt><trkpt lat="42.98133" lon="10.920675"><ele>122.0</ele><time>2026-05-02T17:23:42.79Z</time></trkpt><trkpt lat="42.9814967" lon="10.920455"><ele>125.0</ele><time>2026-05-02T17:23:43.789Z</time></trkpt><trkpt lat="42.9817983" lon="10.9199717"><ele>125.0</ele><time>2026-05-02T17:23:45.791Z</time></trkpt><trkpt lat="42.9819567" lon="10.9197067"><ele>125.0</ele><time>2026-05-02T17:23:46.789Z</time></trkpt><trkpt lat="42.9821217" lon="10.919435"><ele>123.5</ele><time>2026-05-02T17:23:47.789Z</time></trkpt><trkpt lat="42.9822933" lon="10.9191517"><ele>122.0</ele><time>2026-05-02T17:23:48.785Z</time></trkpt><trkpt lat="42.9824667" lon="10.9188583"><ele>125.5</ele><time>2026-05-02T17:23:49.787Z</time></trkpt><trkpt lat="42.9826417" lon="10.9185617"><ele>129.0</ele><time>2026-05-02T17:23:50.789Z</time></trkpt><trkpt lat="42.9828133" lon="10.9182717"><ele>129.5</ele><time>2026-05-02T17:23:51.79Z</time></trkpt><trkpt lat="42.9829767" lon="10.9180017"><ele>130.0</ele><time>2026-05-02T17:23:52.789Z</time></trkpt><trkpt lat="42.9831317" lon="10.9177567"><ele>130.33333333333334</ele><time>2026-05-02T17:23:53.789Z</time></trkpt><trkpt lat="42.9832767" lon="10.917525"><ele>130.66666666666666</ele><time>2026-05-02T17:23:54.789Z</time></trkpt><trkpt lat="42.9834117" lon="10.9173017"><ele>131.0</ele><time>2026-05-02T17:23:55.789Z</time></trkpt><trkpt lat="42.98354" lon="10.917085"><ele>132.66666666666666</ele><time>2026-05-02T17:23:56.789Z</time></trkpt><trkpt lat="42.98367" lon="10.9168767"><ele>134.33333333333334</ele><time>2026-05-02T17:23:57.785Z</time></trkpt><trkpt lat="42.9838067" lon="10.9166833"><ele>136.0</ele><time>2026-05-02T17:23:58.792Z</time></trkpt><trkpt lat="42.9839483" lon="10.916515"><ele>137.0</ele><time>2026-05-02T17:23:59.79Z</time></trkpt><trkpt lat="42.9840967" lon="10.916365"><ele>138.0</ele><time>2026-05-02T17:24:00.789Z</time></trkpt><trkpt lat="42.9842583" lon="10.916235"><ele>139.0</ele><time>2026-05-02T17:24:01.791Z</time></trkpt><trkpt lat="42.9844267" lon="10.916115"><ele>139.66666666666669</ele><time>2026-05-02T17:24:02.789Z</time></trkpt><trkpt lat="42.9846067" lon="10.9159917"><ele>140.33333333333334</ele><time>2026-05-02T17:24:03.789Z</time></trkpt><trkpt lat="42.9847933" lon="10.9158667"><ele>141.0</ele><time>2026-05-02T17:24:04.789Z</time></trkpt><trkpt lat="42.9849867" lon="10.9157367"><ele>142.66666666666666</ele><time>2026-05-02T17:24:05.79Z</time></trkpt><trkpt lat="42.9851867" lon="10.9156067"><ele>144.33333333333331</ele><time>2026-05-02T17:24:06.79Z</time></trkpt><trkpt lat="42.98539" lon="10.91547"><ele>146.0</ele><time>2026-05-02T17:24:07.789Z</time></trkpt><trkpt lat="42.9855867" lon="10.9153317"><ele>146.0</ele><time>2026-05-02T17:24:08.789Z</time></trkpt><trkpt lat="42.9857767" lon="10.9151733"><ele>146.0</ele><time>2026-05-02T17:24:09.789Z</time></trkpt><trkpt lat="42.98595" lon="10.91499"><ele>146.0</ele><time>2026-05-02T17:24:10.789Z</time></trkpt><trkpt lat="42.9861133" lon="10.9147633"><ele>145.5</ele><time>2026-05-02T17:24:11.789Z</time></trkpt><trkpt lat="42.9862683" lon="10.9144983"><ele>145.0</ele><time>2026-05-02T17:24:12.789Z</time></trkpt><trkpt lat="42.986425" lon="10.91421"><ele>145.0</ele><time>2026-05-02T17:24:13.789Z</time></trkpt><trkpt lat="42.986585" lon="10.91391"><ele>145.0</ele><time>2026-05-02T17:24:14.787Z</time></trkpt><trkpt lat="42.9867433" lon="10.9136083"><ele>150.0</ele><time>2026-05-02T17:24:15.79Z</time></trkpt><trkpt lat="42.9868967" lon="10.9133133"><ele>155.0</ele><time>2026-05-02T17:24:16.789Z</time></trkpt><trkpt lat="42.9870433" lon="10.9130383"><ele>155.0</ele><time>2026-05-02T17:24:17.789Z</time></trkpt><trkpt lat="42.98719" lon="10.9127833"><ele>155.0</ele><time>2026-05-02T17:24:18.786Z</time></trkpt><trkpt lat="42.98735" lon="10.9125467"><ele>155.0</ele><time>2026-05-02T17:24:19.789Z</time></trkpt><trkpt lat="42.9875333" lon="10.9123317"><ele>155.0</ele><time>2026-05-02T17:24:20.79Z</time></trkpt><trkpt lat="42.9877317" lon="10.91213"><ele>155.0</ele><time>2026-05-02T17:24:21.787Z</time></trkpt><trkpt lat="42.98794" lon="10.9119333"><ele>155.0</ele><time>2026-05-02T17:24:22.789Z</time></trkpt><trkpt lat="42.98816" lon="10.9117483"><ele>154.5</ele><time>2026-05-02T17:24:23.789Z</time></trkpt><trkpt lat="42.98838" lon="10.9115733"><ele>154.0</ele><time>2026-05-02T17:24:24.79Z</time></trkpt><trkpt lat="42.9886083" lon="10.9114133"><ele>154.0</ele><time>2026-05-02T17:24:25.79Z</time></trkpt><trkpt lat="42.9888417" lon="10.9112733"><ele>154.0</ele><time>2026-05-02T17:24:26.79Z</time></trkpt><trkpt lat="42.989065" lon="10.9111583"><ele>152.66666666666669</ele><time>2026-05-02T17:24:27.791Z</time></trkpt><trkpt lat="42.9892683" lon="10.9110433"><ele>151.33333333333334</ele><time>2026-05-02T17:24:28.789Z</time></trkpt><trkpt lat="42.989465" lon="10.9109117"><ele>150.0</ele><time>2026-05-02T17:24:29.791Z</time></trkpt><trkpt lat="42.9896717" lon="10.9107517"><ele>150.0</ele><time>2026-05-02T17:24:30.79Z</time></trkpt><trkpt lat="42.989875" lon="10.9105633"><ele>150.0</ele><time>2026-05-02T17:24:31.79Z</time></trkpt><trkpt lat="42.9900717" lon="10.910365"><ele>153.5</ele><time>2026-05-02T17:24:32.79Z</time></trkpt><trkpt lat="42.9902667" lon="10.9101717"><ele>157.0</ele><time>2026-05-02T17:24:33.789Z</time></trkpt><trkpt lat="42.9904583" lon="10.9099833"><ele>157.0</ele><time>2026-05-02T17:24:34.79Z</time></trkpt><trkpt lat="42.9906417" lon="10.9098"><ele>157.0</ele><time>2026-05-02T17:24:35.789Z</time></trkpt><trkpt lat="42.9908167" lon="10.90962"><ele>157.0</ele><time>2026-05-02T17:24:36.79Z</time></trkpt><trkpt lat="42.99098" lon="10.9094267"><ele>158.5</ele><time>2026-05-02T17:24:37.789Z</time></trkpt><trkpt lat="42.9911333" lon="10.909205"><ele>160.0</ele><time>2026-05-02T17:24:38.79Z</time></trkpt><trkpt lat="42.9912783" lon="10.90895"><ele>160.0</ele><time>2026-05-02T17:24:39.789Z</time></trkpt><trkpt lat="42.9914083" lon="10.90869"><ele>160.0</ele><time>2026-05-02T17:24:40.79Z</time></trkpt><trkpt lat="42.9915267" lon="10.9084433"><ele>160.0</ele><time>2026-05-02T17:24:41.791Z</time></trkpt><trkpt lat="42.991635" lon="10.9082083"><ele>160.66666666666669</ele><time>2026-05-02T17:24:42.789Z</time></trkpt><trkpt lat="42.991725" lon="10.9079733"><ele>161.33333333333334</ele><time>2026-05-02T17:24:43.786Z</time></trkpt><trkpt lat="42.9917933" lon="10.9077417"><ele>162.0</ele><time>2026-05-02T17:24:44.786Z</time></trkpt><trkpt lat="42.9918367" lon="10.9075217"><ele>162.0</ele><time>2026-05-02T17:24:45.787Z</time></trkpt><trkpt lat="42.9918533" lon="10.90731"><ele>162.0</ele><time>2026-05-02T17:24:46.788Z</time></trkpt><trkpt lat="42.9918533" lon="10.90711"><ele>162.0</ele><time>2026-05-02T17:24:47.787Z</time></trkpt><trkpt lat="42.99184" lon="10.906915"><ele>162.0</ele><time>2026-05-02T17:24:48.787Z</time></trkpt><trkpt lat="42.9918167" lon="10.9067267"><ele>161.0</ele><time>2026-05-02T17:24:49.786Z</time></trkpt><trkpt lat="42.9917833" lon="10.906535"><ele>160.0</ele><time>2026-05-02T17:24:50.787Z</time></trkpt><trkpt lat="42.991745" lon="10.9063467"><ele>159.0</ele><time>2026-05-02T17:24:51.789Z</time></trkpt><trkpt lat="42.9917067" lon="10.906155"><ele>158.0</ele><time>2026-05-02T17:24:52.789Z</time></trkpt><trkpt lat="42.991665" lon="10.9059633"><ele>157.75</ele><time>2026-05-02T17:24:53.789Z</time></trkpt><trkpt lat="42.9916317" lon="10.9057717"><ele>157.5</ele><time>2026-05-02T17:24:54.789Z</time></trkpt><trkpt lat="42.9915933" lon="10.9055867"><ele>157.25</ele><time>2026-05-02T17:24:55.786Z</time></trkpt><trkpt lat="42.99156" lon="10.9054067"><ele>157.0</ele><time>2026-05-02T17:24:56.79Z</time></trkpt><trkpt lat="42.99153" lon="10.905235"><ele>157.5</ele><time>2026-05-02T17:24:57.79Z</time></trkpt><trkpt lat="42.991505" lon="10.90507"><ele>158.0</ele><time>2026-05-02T17:24:58.79Z</time></trkpt><trkpt lat="42.9914883" lon="10.90491"><ele>158.5</ele><time>2026-05-02T17:24:59.789Z</time></trkpt><trkpt lat="42.9914817" lon="10.9047533"><ele>159.0</ele><time>2026-05-02T17:25:00.789Z</time></trkpt><trkpt lat="42.991485" lon="10.9046083"><ele>159.0</ele><time>2026-05-02T17:25:01.789Z</time></trkpt><trkpt lat="42.9914983" lon="10.9044667"><ele>159.0</ele><time>2026-05-02T17:25:02.786Z</time></trkpt><trkpt lat="42.991515" lon="10.9043167"><ele>159.0</ele><time>2026-05-02T17:25:03.79Z</time></trkpt><trkpt lat="42.9915317" lon="10.904165"><ele>159.0</ele><time>2026-05-02T17:25:04.786Z</time></trkpt><trkpt lat="42.99155" lon="10.9040017"><ele>159.0</ele><time>2026-05-02T17:25:05.789Z</time></trkpt><trkpt lat="42.9915717" lon="10.9038367"><ele>159.5</ele><time>2026-05-02T17:25:06.786Z</time></trkpt><trkpt lat="42.991595" lon="10.9036567"><ele>160.0</ele><time>2026-05-02T17:25:07.787Z</time></trkpt><trkpt lat="42.99162" lon="10.9034767"><ele>160.5</ele><time>2026-05-02T17:25:08.786Z</time></trkpt><trkpt lat="42.9916433" lon="10.9032967"><ele>161.0</ele><time>2026-05-02T17:25:09.787Z</time></trkpt><trkpt lat="42.9916683" lon="10.9031233"><ele>162.25</ele><time>2026-05-02T17:25:10.788Z</time></trkpt><trkpt lat="42.99169" lon="10.9029533"><ele>163.5</ele><time>2026-05-02T17:25:11.789Z</time></trkpt><trkpt lat="42.99171" lon="10.9027933"><ele>164.75</ele><time>2026-05-02T17:25:12.787Z</time></trkpt><trkpt lat="42.9917283" lon="10.9026417"><ele>166.0</ele><time>2026-05-02T17:25:13.787Z</time></trkpt><trkpt lat="42.9917483" lon="10.9025"><ele>166.75</ele><time>2026-05-02T17:25:14.788Z</time></trkpt><trkpt lat="42.9917683" lon="10.902355"><ele>167.5</ele><time>2026-05-02T17:25:15.788Z</time></trkpt><trkpt lat="42.99179" lon="10.9022"><ele>168.25</ele><time>2026-05-02T17:25:16.787Z</time></trkpt><trkpt lat="42.9918117" lon="10.902035"><ele>169.0</ele><time>2026-05-02T17:25:17.788Z</time></trkpt><trkpt lat="42.9918317" lon="10.901865"><ele>169.5</ele><time>2026-05-02T17:25:18.788Z</time></trkpt><trkpt lat="42.99185" lon="10.9016967"><ele>170.0</ele><time>2026-05-02T17:25:19.787Z</time></trkpt><trkpt lat="42.9918683" lon="10.9015367"><ele>170.5</ele><time>2026-05-02T17:25:20.787Z</time></trkpt><trkpt lat="42.99189" lon="10.9013883"><ele>171.0</ele><time>2026-05-02T17:25:21.786Z</time></trkpt><trkpt lat="42.9919117" lon="10.9012583"><ele>171.0</ele><time>2026-05-02T17:25:22.788Z</time></trkpt><trkpt lat="42.9919283" lon="10.9011517"><ele>171.0</ele><time>2026-05-02T17:25:23.787Z</time></trkpt><trkpt lat="42.99195" lon="10.9010183"><ele>171.0</ele><time>2026-05-02T17:25:25.79Z</time></trkpt><trkpt lat="42.9919017" lon="10.9010817"><ele>171.0</ele><time>2026-05-02T17:25:30.786Z</time></trkpt><trkpt lat="42.9918967" lon="10.9011933"><ele>171.0</ele><time>2026-05-02T17:25:31.786Z</time></trkpt><trkpt lat="42.9918783" lon="10.901355"><ele>171.0</ele><time>2026-05-02T17:25:32.786Z</time></trkpt><trkpt lat="42.9918467" lon="10.901575"><ele>170.33333333333334</ele><time>2026-05-02T17:25:33.786Z</time></trkpt><trkpt lat="42.9918133" lon="10.901825"><ele>169.66666666666669</ele><time>2026-05-02T17:25:34.786Z</time></trkpt><trkpt lat="42.9917767" lon="10.902105"><ele>169.0</ele><time>2026-05-02T17:25:35.787Z</time></trkpt><trkpt lat="42.9917383" lon="10.9024"><ele>168.0</ele><time>2026-05-02T17:25:36.786Z</time></trkpt><trkpt lat="42.9917" lon="10.902685"><ele>167.0</ele><time>2026-05-02T17:25:37.787Z</time></trkpt><trkpt lat="42.9916667" lon="10.9029567"><ele>166.0</ele><time>2026-05-02T17:25:38.789Z</time></trkpt><trkpt lat="42.991605" lon="10.9034617"><ele>164.33333333333334</ele><time>2026-05-02T17:25:40.79Z</time></trkpt><trkpt lat="42.9915783" lon="10.903695"><ele>162.66666666666666</ele><time>2026-05-02T17:25:41.791Z</time></trkpt><trkpt lat="42.991555" lon="10.90391"><ele>161.0</ele><time>2026-05-02T17:25:42.789Z</time></trkpt><trkpt lat="42.99153" lon="10.9041017"><ele>160.60000000000002</ele><time>2026-05-02T17:25:43.79Z</time></trkpt><trkpt lat="42.9915033" lon="10.9042667"><ele>160.20000000000002</ele><time>2026-05-02T17:25:44.79Z</time></trkpt><trkpt lat="42.9914833" lon="10.904405"><ele>159.8</ele><time>2026-05-02T17:25:45.79Z</time></trkpt><trkpt lat="42.9914633" lon="10.9045117"><ele>159.4</ele><time>2026-05-02T17:25:46.791Z</time></trkpt><trkpt lat="42.9914567" lon="10.9046067"><ele>159.0</ele><time>2026-05-02T17:25:47.79Z</time></trkpt><trkpt lat="42.9914517" lon="10.9047483"><ele>159.0</ele><time>2026-05-02T17:25:49.79Z</time></trkpt><trkpt lat="42.9913917" lon="10.9046433"><ele>159.0</ele><time>2026-05-02T17:25:53.789Z</time></trkpt><trkpt lat="42.9913417" lon="10.9044667"><ele>159.0</ele><time>2026-05-02T17:25:55.79Z</time></trkpt><trkpt lat="42.9913133" lon="10.90437"><ele>159.0</ele><time>2026-05-02T17:25:56.88Z</time></trkpt><trkpt lat="42.9912833" lon="10.9042833"><ele>159.0</ele><time>2026-05-02T17:25:57.786Z</time></trkpt><trkpt lat="42.9912517" lon="10.90419"><ele>159.33333333333334</ele><time>2026-05-02T17:25:58.788Z</time></trkpt><trkpt lat="42.99121" lon="10.9040867"><ele>159.66666666666666</ele><time>2026-05-02T17:25:59.787Z</time></trkpt><trkpt lat="42.99117" lon="10.9039917"><ele>160.0</ele><time>2026-05-02T17:26:00.787Z</time></trkpt><trkpt lat="42.991125" lon="10.9039083"><ele>160.33333333333331</ele><time>2026-05-02T17:26:01.788Z</time></trkpt><trkpt lat="42.9910817" lon="10.9038433"><ele>160.66666666666666</ele><time>2026-05-02T17:26:02.789Z</time></trkpt><trkpt lat="42.9910383" lon="10.9037767"><ele>161.0</ele><time>2026-05-02T17:26:03.787Z</time></trkpt><trkpt lat="42.9909733" lon="10.9036633"><ele>161.0</ele><time>2026-05-02T17:26:05.788Z</time></trkpt><trkpt lat="42.9909183" lon="10.9035517"><ele>161.0</ele><time>2026-05-02T17:26:07.789Z</time></trkpt><trkpt lat="42.9908583" lon="10.9034417"><ele>161.0</ele><time>2026-05-02T17:26:09.788Z</time></trkpt><trkpt lat="42.9907867" lon="10.9033517"><ele>161.0</ele><time>2026-05-02T17:26:11.787Z</time></trkpt><trkpt lat="42.9907417" lon="10.903285"><ele>161.0</ele><time>2026-05-02T17:26:12.787Z</time></trkpt><trkpt lat="42.990695" lon="10.9032133"><ele>161.0</ele><time>2026-05-02T17:26:13.79Z</time></trkpt><trkpt lat="42.9906483" lon="10.90313"><ele>161.16666666666666</ele><time>2026-05-02T17:26:14.787Z</time></trkpt><trkpt lat="42.9906" lon="10.90305"><ele>161.33333333333331</ele><time>2026-05-02T17:26:15.789Z</time></trkpt><trkpt lat="42.9905583" lon="10.902975"><ele>161.5</ele><time>2026-05-02T17:26:16.788Z</time></trkpt><trkpt lat="42.990485" lon="10.9028417"><ele>161.66666666666666</ele><time>2026-05-02T17:26:18.786Z</time></trkpt><trkpt lat="42.9904467" lon="10.9027717"><ele>161.83333333333334</ele><time>2026-05-02T17:26:19.786Z</time></trkpt><trkpt lat="42.99041" lon="10.902695"><ele>162.0</ele><time>2026-05-02T17:26:20.787Z</time></trkpt><trkpt lat="42.99038" lon="10.9026117"><ele>162.16666666666666</ele><time>2026-05-02T17:26:21.786Z</time></trkpt><trkpt lat="42.9903633" lon="10.902525"><ele>162.33333333333334</ele><time>2026-05-02T17:26:22.789Z</time></trkpt><trkpt lat="42.9903467" lon="10.9024233"><ele>162.5</ele><time>2026-05-02T17:26:23.788Z</time></trkpt><trkpt lat="42.9903183" lon="10.9023"><ele>162.66666666666669</ele><time>2026-05-02T17:26:24.788Z</time></trkpt><trkpt lat="42.99029" lon="10.90217"><ele>162.83333333333334</ele><time>2026-05-02T17:26:25.786Z</time></trkpt><trkpt lat="42.9902667" lon="10.9020433"><ele>163.0</ele><time>2026-05-02T17:26:26.789Z</time></trkpt><trkpt lat="42.9902417" lon="10.901905"><ele>163.0</ele><time>2026-05-02T17:26:27.785Z</time></trkpt><trkpt lat="42.9902183" lon="10.9017617"><ele>163.0</ele><time>2026-05-02T17:26:28.788Z</time></trkpt><trkpt lat="42.9901983" lon="10.9016233"><ele>163.0</ele><time>2026-05-02T17:26:29.787Z</time></trkpt><trkpt lat="42.9901767" lon="10.90148"><ele>163.0</ele><time>2026-05-02T17:26:30.788Z</time></trkpt><trkpt lat="42.9901533" lon="10.901335"><ele>163.0</ele><time>2026-05-02T17:26:31.786Z</time></trkpt><trkpt lat="42.9901267" lon="10.9012"><ele>163.5</ele><time>2026-05-02T17:26:32.788Z</time></trkpt><trkpt lat="42.9901" lon="10.9010783"><ele>164.0</ele><time>2026-05-02T17:26:33.787Z</time></trkpt><trkpt lat="42.9900767" lon="10.90097"><ele>164.5</ele><time>2026-05-02T17:26:34.787Z</time></trkpt><trkpt lat="42.990055" lon="10.9008733"><ele>165.0</ele><time>2026-05-02T17:26:35.787Z</time></trkpt><trkpt lat="42.990035" lon="10.900785"><ele>165.5</ele><time>2026-05-02T17:26:36.786Z</time></trkpt><trkpt lat="42.989975" lon="10.9006483"><ele>166.0</ele><time>2026-05-02T17:26:38.788Z</time></trkpt><trkpt lat="42.9898867" lon="10.9005267"><ele>164.66666666666669</ele><time>2026-05-02T17:26:40.789Z</time></trkpt><trkpt lat="42.9898233" lon="10.9004917"><ele>163.33333333333334</ele><time>2026-05-02T17:26:41.786Z</time></trkpt><trkpt lat="42.9897467" lon="10.9004767"><ele>162.0</ele><time>2026-05-02T17:26:42.789Z</time></trkpt><trkpt lat="42.9896667" lon="10.90048"><ele>160.66666666666666</ele><time>2026-05-02T17:26:43.789Z</time></trkpt><trkpt lat="42.9895917" lon="10.900495"><ele>159.33333333333331</ele><time>2026-05-02T17:26:44.79Z</time></trkpt><trkpt lat="42.9895267" lon="10.90051"><ele>158.0</ele><time>2026-05-02T17:26:45.788Z</time></trkpt><trkpt lat="42.9894067" lon="10.9005333"><ele>158.0</ele><time>2026-05-02T17:26:47.788Z</time></trkpt><trkpt lat="42.9893183" lon="10.9005433"><ele>158.0</ele><time>2026-05-02T17:26:49.788Z</time></trkpt><trkpt lat="42.9892517" lon="10.9005"><ele>158.0</ele><time>2026-05-02T17:26:52.789Z</time></trkpt><trkpt lat="42.9892667" lon="10.90059"><ele>158.0</ele><time>2026-05-02T17:30:17.788Z</time></trkpt><trkpt lat="42.9893467" lon="10.90059"><ele>158.0</ele><time>2026-05-02T17:30:19.786Z</time></trkpt><trkpt lat="42.9894733" lon="10.90057"><ele>158.0</ele><time>2026-05-02T17:30:21.788Z</time></trkpt><trkpt lat="42.989555" lon="10.90057"><ele>158.0</ele><time>2026-05-02T17:30:22.788Z</time></trkpt><trkpt lat="42.9896467" lon="10.9005833"><ele>158.0</ele><time>2026-05-02T17:30:23.788Z</time></trkpt><trkpt lat="42.9897417" lon="10.90062"><ele>158.0</ele><time>2026-05-02T17:30:24.788Z</time></trkpt><trkpt lat="42.989825" lon="10.9006733"><ele>158.0</ele><time>2026-05-02T17:30:25.789Z</time></trkpt><trkpt lat="42.9898933" lon="10.90073"><ele>158.0</ele><time>2026-05-02T17:30:26.788Z</time></trkpt><trkpt lat="42.989955" lon="10.9008"><ele>158.0</ele><time>2026-05-02T17:30:27.788Z</time></trkpt><trkpt lat="42.9900067" lon="10.9008917"><ele>159.60000000000002</ele><time>2026-05-02T17:30:28.788Z</time></trkpt><trkpt lat="42.9900467" lon="10.901"><ele>161.20000000000002</ele><time>2026-05-02T17:30:29.789Z</time></trkpt><trkpt lat="42.9900767" lon="10.9011217"><ele>162.8</ele><time>2026-05-02T17:30:30.789Z</time></trkpt><trkpt lat="42.990105" lon="10.9012517"><ele>164.4</ele><time>2026-05-02T17:30:31.789Z</time></trkpt><trkpt lat="42.9901317" lon="10.9013917"><ele>166.0</ele><time>2026-05-02T17:30:32.789Z</time></trkpt><trkpt lat="42.9901533" lon="10.9015317"><ele>166.0</ele><time>2026-05-02T17:30:33.788Z</time></trkpt><trkpt lat="42.990175" lon="10.90167"><ele>166.0</ele><time>2026-05-02T17:30:34.788Z</time></trkpt><trkpt lat="42.990195" lon="10.9018"><ele>166.0</ele><time>2026-05-02T17:30:35.79Z</time></trkpt><trkpt lat="42.9902117" lon="10.9019133"><ele>166.0</ele><time>2026-05-02T17:30:36.789Z</time></trkpt><trkpt lat="42.99023" lon="10.9020217"><ele>166.0</ele><time>2026-05-02T17:30:37.786Z</time></trkpt><trkpt lat="42.99025" lon="10.9021317"><ele>166.0</ele><time>2026-05-02T17:30:38.786Z</time></trkpt><trkpt lat="42.990275" lon="10.9022533"><ele>165.4</ele><time>2026-05-02T17:30:39.787Z</time></trkpt><trkpt lat="42.9903033" lon="10.902375"><ele>164.8</ele><time>2026-05-02T17:30:40.787Z</time></trkpt><trkpt lat="42.990335" lon="10.9024933"><ele>164.20000000000002</ele><time>2026-05-02T17:30:41.788Z</time></trkpt><trkpt lat="42.9903717" lon="10.9026083"><ele>163.60000000000002</ele><time>2026-05-02T17:30:42.789Z</time></trkpt><trkpt lat="42.9904117" lon="10.902715"><ele>163.0</ele><time>2026-05-02T17:30:43.786Z</time></trkpt><trkpt lat="42.9904633" lon="10.902825"><ele>162.8</ele><time>2026-05-02T17:30:44.787Z</time></trkpt><trkpt lat="42.9905267" lon="10.902935"><ele>162.60000000000002</ele><time>2026-05-02T17:30:45.789Z</time></trkpt><trkpt lat="42.9905917" lon="10.9030467"><ele>162.39999999999998</ele><time>2026-05-02T17:30:46.787Z</time></trkpt><trkpt lat="42.9906533" lon="10.9031483"><ele>162.2</ele><time>2026-05-02T17:30:47.787Z</time></trkpt><trkpt lat="42.9907167" lon="10.9032583"><ele>162.0</ele><time>2026-05-02T17:30:48.786Z</time></trkpt><trkpt lat="42.9907783" lon="10.9033633"><ele>161.83333333333334</ele><time>2026-05-02T17:30:49.786Z</time></trkpt><trkpt lat="42.9908383" lon="10.9034617"><ele>161.66666666666666</ele><time>2026-05-02T17:30:50.786Z</time></trkpt><trkpt lat="42.9908967" lon="10.9035633"><ele>161.5</ele><time>2026-05-02T17:30:51.787Z</time></trkpt><trkpt lat="42.9909533" lon="10.90366"><ele>161.33333333333331</ele><time>2026-05-02T17:30:52.79Z</time></trkpt><trkpt lat="42.9910083" lon="10.9037433"><ele>161.16666666666666</ele><time>2026-05-02T17:30:53.789Z</time></trkpt><trkpt lat="42.991055" lon="10.9038317"><ele>161.0</ele><time>2026-05-02T17:30:54.787Z</time></trkpt><trkpt lat="42.9911083" lon="10.903925"><ele>161.0</ele><time>2026-05-02T17:30:55.786Z</time></trkpt><trkpt lat="42.9911617" lon="10.90401"><ele>161.0</ele><time>2026-05-02T17:30:56.787Z</time></trkpt><trkpt lat="42.99121" lon="10.9041017"><ele>161.0</ele><time>2026-05-02T17:30:57.787Z</time></trkpt><trkpt lat="42.9912483" lon="10.904205"><ele>161.0</ele><time>2026-05-02T17:30:58.787Z</time></trkpt><trkpt lat="42.9912817" lon="10.9043017"><ele>161.0</ele><time>2026-05-02T17:30:59.787Z</time></trkpt><trkpt lat="42.9913067" lon="10.9043817"><ele>161.0</ele><time>2026-05-02T17:31:00.787Z</time></trkpt><trkpt lat="42.99133" lon="10.9044633"><ele>160.60000000000002</ele><time>2026-05-02T17:31:01.787Z</time></trkpt><trkpt lat="42.9913567" lon="10.9045417"><ele>160.20000000000002</ele><time>2026-05-02T17:31:02.787Z</time></trkpt><trkpt lat="42.9913833" lon="10.9046733"><ele>159.8</ele><time>2026-05-02T17:31:04.787Z</time></trkpt><trkpt lat="42.99142" lon="10.90475"><ele>159.4</ele><time>2026-05-02T17:31:07.786Z</time></trkpt><trkpt lat="42.9914833" lon="10.9046133"><ele>159.0</ele><time>2026-05-02T17:31:10.79Z</time></trkpt><trkpt lat="42.9914917" lon="10.90447"><ele>159.0</ele><time>2026-05-02T17:31:11.789Z</time></trkpt><trkpt lat="42.99151" lon="10.9042783"><ele>159.0</ele><time>2026-05-02T17:31:12.789Z</time></trkpt><trkpt lat="42.99154" lon="10.904075"><ele>159.0</ele><time>2026-05-02T17:31:13.786Z</time></trkpt><trkpt lat="42.9915667" lon="10.90388"><ele>159.0</ele><time>2026-05-02T17:31:14.786Z</time></trkpt><trkpt lat="42.9915917" lon="10.9036867"><ele>159.5</ele><time>2026-05-02T17:31:15.786Z</time></trkpt><trkpt lat="42.99162" lon="10.9034917"><ele>160.0</ele><time>2026-05-02T17:31:16.788Z</time></trkpt><trkpt lat="42.9916417" lon="10.90329"><ele>160.5</ele><time>2026-05-02T17:31:17.787Z</time></trkpt><trkpt lat="42.9916667" lon="10.90309"><ele>161.0</ele><time>2026-05-02T17:31:18.786Z</time></trkpt><trkpt lat="42.9916917" lon="10.9028883"><ele>162.66666666666666</ele><time>2026-05-02T17:31:19.786Z</time></trkpt><trkpt lat="42.9917183" lon="10.9026817"><ele>164.33333333333334</ele><time>2026-05-02T17:31:20.789Z</time></trkpt><trkpt lat="42.991745" lon="10.9024717"><ele>166.0</ele><time>2026-05-02T17:31:21.789Z</time></trkpt><trkpt lat="42.99177" lon="10.9022517"><ele>167.0</ele><time>2026-05-02T17:31:22.79Z</time></trkpt><trkpt lat="42.9918" lon="10.9020233"><ele>168.0</ele><time>2026-05-02T17:31:23.789Z</time></trkpt><trkpt lat="42.99183" lon="10.90179"><ele>169.0</ele><time>2026-05-02T17:31:24.789Z</time></trkpt><trkpt lat="42.99186" lon="10.90155"><ele>169.66666666666669</ele><time>2026-05-02T17:31:25.789Z</time></trkpt><trkpt lat="42.991895" lon="10.9013"><ele>170.33333333333334</ele><time>2026-05-02T17:31:26.789Z</time></trkpt><trkpt lat="42.9919283" lon="10.90104"><ele>171.0</ele><time>2026-05-02T17:31:27.789Z</time></trkpt><trkpt lat="42.9919633" lon="10.9007683"><ele>171.33333333333334</ele><time>2026-05-02T17:31:28.789Z</time></trkpt><trkpt lat="42.9920017" lon="10.9004817"><ele>171.66666666666669</ele><time>2026-05-02T17:31:29.789Z</time></trkpt><trkpt lat="42.9920417" lon="10.9001683"><ele>172.0</ele><time>2026-05-02T17:31:30.789Z</time></trkpt><trkpt lat="42.9920833" lon="10.89983"><ele>172.5</ele><time>2026-05-02T17:31:31.789Z</time></trkpt><trkpt lat="42.99213" lon="10.8994833"><ele>173.0</ele><time>2026-05-02T17:31:32.789Z</time></trkpt><trkpt lat="42.9921767" lon="10.899115"><ele>173.0</ele><time>2026-05-02T17:31:33.789Z</time></trkpt><trkpt lat="42.9922283" lon="10.8987383"><ele>173.0</ele><time>2026-05-02T17:31:34.789Z</time></trkpt><trkpt lat="42.9922783" lon="10.89836"><ele>171.5</ele><time>2026-05-02T17:31:35.786Z</time></trkpt><trkpt lat="42.99233" lon="10.8979767"><ele>170.0</ele><time>2026-05-02T17:31:36.789Z</time></trkpt><trkpt lat="42.99238" lon="10.8976"><ele>168.0</ele><time>2026-05-02T17:31:37.789Z</time></trkpt><trkpt lat="42.99243" lon="10.89722"><ele>166.0</ele><time>2026-05-02T17:31:38.789Z</time></trkpt><trkpt lat="42.99248" lon="10.89684"><ele>169.0</ele><time>2026-05-02T17:31:39.79Z</time></trkpt><trkpt lat="42.9925317" lon="10.89647"><ele>172.0</ele><time>2026-05-02T17:31:40.789Z</time></trkpt><trkpt lat="42.99258" lon="10.8961083"><ele>170.5</ele><time>2026-05-02T17:31:41.79Z</time></trkpt><trkpt lat="42.9926267" lon="10.8957533"><ele>169.0</ele><time>2026-05-02T17:31:42.785Z</time></trkpt><trkpt lat="42.9926717" lon="10.8954033"><ele>168.0</ele><time>2026-05-02T17:31:43.787Z</time></trkpt><trkpt lat="42.9927183" lon="10.8950483"><ele>167.0</ele><time>2026-05-02T17:31:44.788Z</time></trkpt><trkpt lat="42.9927683" lon="10.894675"><ele>167.0</ele><time>2026-05-02T17:31:45.791Z</time></trkpt><trkpt lat="42.9928217" lon="10.8942867"><ele>167.0</ele><time>2026-05-02T17:31:46.789Z</time></trkpt><trkpt lat="42.992875" lon="10.8939017"><ele>166.0</ele><time>2026-05-02T17:31:47.789Z</time></trkpt><trkpt lat="42.9929267" lon="10.8935417"><ele>165.0</ele><time>2026-05-02T17:31:48.789Z</time></trkpt><trkpt lat="42.9929733" lon="10.8932033"><ele>164.0</ele><time>2026-05-02T17:31:49.789Z</time></trkpt><trkpt lat="42.993015" lon="10.892885"><ele>163.0</ele><time>2026-05-02T17:31:50.789Z</time></trkpt><trkpt lat="42.993055" lon="10.8925767"><ele>162.0</ele><time>2026-05-02T17:31:51.789Z</time></trkpt><trkpt lat="42.9930917" lon="10.8922767"><ele>161.0</ele><time>2026-05-02T17:31:52.789Z</time></trkpt><trkpt lat="42.99313" lon="10.8919717"><ele>160.0</ele><time>2026-05-02T17:31:53.787Z</time></trkpt><trkpt lat="42.9931667" lon="10.8916583"><ele>160.0</ele><time>2026-05-02T17:31:54.789Z</time></trkpt><trkpt lat="42.9932067" lon="10.89134"><ele>160.0</ele><time>2026-05-02T17:31:55.789Z</time></trkpt><trkpt lat="42.9932517" lon="10.8910183"><ele>160.5</ele><time>2026-05-02T17:31:56.786Z</time></trkpt><trkpt lat="42.993295" lon="10.890695"><ele>161.0</ele><time>2026-05-02T17:31:57.787Z</time></trkpt><trkpt lat="42.993335" lon="10.8903783"><ele>165.5</ele><time>2026-05-02T17:31:58.788Z</time></trkpt><trkpt lat="42.9933767" lon="10.8900667"><ele>170.0</ele><time>2026-05-02T17:31:59.79Z</time></trkpt><trkpt lat="42.9934183" lon="10.88977"><ele>170.0</ele><time>2026-05-02T17:32:00.787Z</time></trkpt><trkpt lat="42.9934567" lon="10.889495"><ele>170.0</ele><time>2026-05-02T17:32:01.787Z</time></trkpt><trkpt lat="42.9934917" lon="10.8892383"><ele>170.0</ele><time>2026-05-02T17:32:02.788Z</time></trkpt><trkpt lat="42.9935233" lon="10.8890033"><ele>173.66666666666666</ele><time>2026-05-02T17:32:03.789Z</time></trkpt><trkpt lat="42.9935583" lon="10.8887833"><ele>177.33333333333334</ele><time>2026-05-02T17:32:04.789Z</time></trkpt><trkpt lat="42.9935867" lon="10.8885833"><ele>181.0</ele><time>2026-05-02T17:32:05.786Z</time></trkpt><trkpt lat="42.9936167" lon="10.8884"><ele>182.5</ele><time>2026-05-02T17:32:06.788Z</time></trkpt><trkpt lat="42.993645" lon="10.8882433"><ele>184.0</ele><time>2026-05-02T17:32:07.786Z</time></trkpt><trkpt lat="42.9936767" lon="10.8880933"><ele>185.5</ele><time>2026-05-02T17:32:08.787Z</time></trkpt><trkpt lat="42.9937067" lon="10.8879433"><ele>187.0</ele><time>2026-05-02T17:32:09.788Z</time></trkpt><trkpt lat="42.9937483" lon="10.8877933"><ele>187.0</ele><time>2026-05-02T17:32:10.789Z</time></trkpt><trkpt lat="42.9937967" lon="10.887635"><ele>187.0</ele><time>2026-05-02T17:32:11.789Z</time></trkpt><trkpt lat="42.99385" lon="10.8874733"><ele>187.0</ele><time>2026-05-02T17:32:12.789Z</time></trkpt><trkpt lat="42.9939083" lon="10.88731"><ele>187.0</ele><time>2026-05-02T17:32:13.789Z</time></trkpt><trkpt lat="42.9939717" lon="10.8871433"><ele>186.75</ele><time>2026-05-02T17:32:14.789Z</time></trkpt><trkpt lat="42.99404" lon="10.88698"><ele>186.5</ele><time>2026-05-02T17:32:15.789Z</time></trkpt><trkpt lat="42.994115" lon="10.8868267"><ele>186.25</ele><time>2026-05-02T17:32:16.787Z</time></trkpt><trkpt lat="42.9941883" lon="10.8866867"><ele>186.0</ele><time>2026-05-02T17:32:17.79Z</time></trkpt><trkpt lat="42.9942567" lon="10.88655"><ele>189.25</ele><time>2026-05-02T17:32:18.785Z</time></trkpt><trkpt lat="42.994325" lon="10.886415"><ele>192.5</ele><time>2026-05-02T17:32:19.787Z</time></trkpt><trkpt lat="42.9943917" lon="10.8862717"><ele>195.75</ele><time>2026-05-02T17:32:20.79Z</time></trkpt><trkpt lat="42.9944567" lon="10.8861283"><ele>199.0</ele><time>2026-05-02T17:32:21.792Z</time></trkpt><trkpt lat="42.9945233" lon="10.8859933"><ele>197.2</ele><time>2026-05-02T17:32:22.786Z</time></trkpt><trkpt lat="42.994585" lon="10.8858633"><ele>195.39999999999998</ele><time>2026-05-02T17:32:23.789Z</time></trkpt><trkpt lat="42.994645" lon="10.8857417"><ele>193.6</ele><time>2026-05-02T17:32:24.787Z</time></trkpt><trkpt lat="42.9947017" lon="10.885615"><ele>191.8</ele><time>2026-05-02T17:32:25.789Z</time></trkpt><trkpt lat="42.994765" lon="10.8854983"><ele>190.0</ele><time>2026-05-02T17:32:26.788Z</time></trkpt><trkpt lat="42.9948333" lon="10.885375"><ele>190.0</ele><time>2026-05-02T17:32:27.787Z</time></trkpt><trkpt lat="42.9949033" lon="10.8852467"><ele>190.0</ele><time>2026-05-02T17:32:28.787Z</time></trkpt><trkpt lat="42.9949733" lon="10.8851083"><ele>190.0</ele><time>2026-05-02T17:32:29.787Z</time></trkpt><trkpt lat="42.99505" lon="10.8849667"><ele>190.0</ele><time>2026-05-02T17:32:30.787Z</time></trkpt><trkpt lat="42.9951283" lon="10.8848167"><ele>191.5</ele><time>2026-05-02T17:32:31.787Z</time></trkpt><trkpt lat="42.9952133" lon="10.884665"><ele>193.0</ele><time>2026-05-02T17:32:32.787Z</time></trkpt><trkpt lat="42.9953017" lon="10.8845017"><ele>194.5</ele><time>2026-05-02T17:32:33.789Z</time></trkpt><trkpt lat="42.9953933" lon="10.8843317"><ele>196.0</ele><time>2026-05-02T17:32:34.789Z</time></trkpt><trkpt lat="42.9954917" lon="10.8841733"><ele>196.0</ele><time>2026-05-02T17:32:35.786Z</time></trkpt><trkpt lat="42.9955883" lon="10.8840183"><ele>196.0</ele><time>2026-05-02T17:32:36.789Z</time></trkpt><trkpt lat="42.99568" lon="10.8838717"><ele>196.0</ele><time>2026-05-02T17:32:37.789Z</time></trkpt><trkpt lat="42.9957683" lon="10.8837367"><ele>196.0</ele><time>2026-05-02T17:32:38.79Z</time></trkpt><trkpt lat="42.9958583" lon="10.883605"><ele>198.5</ele><time>2026-05-02T17:32:39.789Z</time></trkpt><trkpt lat="42.9959433" lon="10.88347"><ele>201.0</ele><time>2026-05-02T17:32:40.79Z</time></trkpt><trkpt lat="42.9960217" lon="10.883335"><ele>203.5</ele><time>2026-05-02T17:32:41.789Z</time></trkpt><trkpt lat="42.996105" lon="10.8832017"><ele>206.0</ele><time>2026-05-02T17:32:42.789Z</time></trkpt><trkpt lat="42.9961933" lon="10.8830667"><ele>206.0</ele><time>2026-05-02T17:32:43.789Z</time></trkpt><trkpt lat="42.9962767" lon="10.8829283"><ele>206.0</ele><time>2026-05-02T17:32:44.789Z</time></trkpt><trkpt lat="42.9963617" lon="10.88279"><ele>206.0</ele><time>2026-05-02T17:32:45.789Z</time></trkpt><trkpt lat="42.9964433" lon="10.88265"><ele>206.0</ele><time>2026-05-02T17:32:46.789Z</time></trkpt><trkpt lat="42.9965283" lon="10.882505"><ele>204.75</ele><time>2026-05-02T17:32:47.789Z</time></trkpt><trkpt lat="42.9966083" lon="10.8823583"><ele>203.5</ele><time>2026-05-02T17:32:48.789Z</time></trkpt><trkpt lat="42.9967033" lon="10.8822117"><ele>202.25</ele><time>2026-05-02T17:32:49.789Z</time></trkpt><trkpt lat="42.9968017" lon="10.88207"><ele>201.0</ele><time>2026-05-02T17:32:50.789Z</time></trkpt><trkpt lat="42.9969083" lon="10.8819317"><ele>202.0</ele><time>2026-05-02T17:32:51.789Z</time></trkpt><trkpt lat="42.997025" lon="10.8818033"><ele>203.0</ele><time>2026-05-02T17:32:52.789Z</time></trkpt><trkpt lat="42.9971467" lon="10.8816883"><ele>204.0</ele><time>2026-05-02T17:32:53.789Z</time></trkpt><trkpt lat="42.9972767" lon="10.8815917"><ele>205.0</ele><time>2026-05-02T17:32:54.789Z</time></trkpt><trkpt lat="42.9974117" lon="10.881515"><ele>206.75</ele><time>2026-05-02T17:32:55.789Z</time></trkpt><trkpt lat="42.9975467" lon="10.8814533"><ele>208.5</ele><time>2026-05-02T17:32:56.787Z</time></trkpt><trkpt lat="42.9976767" lon="10.8813967"><ele>210.25</ele><time>2026-05-02T17:32:57.787Z</time></trkpt><trkpt lat="42.9978" lon="10.8813533"><ele>212.0</ele><time>2026-05-02T17:32:58.787Z</time></trkpt><trkpt lat="42.99792" lon="10.8813183"><ele>212.0</ele><time>2026-05-02T17:32:59.788Z</time></trkpt><trkpt lat="42.998035" lon="10.8812833"><ele>212.0</ele><time>2026-05-02T17:33:00.787Z</time></trkpt><trkpt lat="42.9981533" lon="10.8812467"><ele>212.0</ele><time>2026-05-02T17:33:01.787Z</time></trkpt><trkpt lat="42.9982717" lon="10.8812067"><ele>212.0</ele><time>2026-05-02T17:33:02.787Z</time></trkpt><trkpt lat="42.9983933" lon="10.88117"><ele>213.75</ele><time>2026-05-02T17:33:03.789Z</time></trkpt><trkpt lat="42.9985117" lon="10.8811333"><ele>215.5</ele><time>2026-05-02T17:33:04.79Z</time></trkpt><trkpt lat="42.9986283" lon="10.8810983"><ele>217.25</ele><time>2026-05-02T17:33:05.789Z</time></trkpt><trkpt lat="42.9987433" lon="10.881065"><ele>219.0</ele><time>2026-05-02T17:33:06.79Z</time></trkpt><trkpt lat="42.9988617" lon="10.88103"><ele>219.0</ele><time>2026-05-02T17:33:07.789Z</time></trkpt><trkpt lat="42.9989833" lon="10.880995"><ele>219.0</ele><time>2026-05-02T17:33:08.786Z</time></trkpt><trkpt lat="42.9991067" lon="10.880965"><ele>219.0</ele><time>2026-05-02T17:33:09.787Z</time></trkpt><trkpt lat="42.99923" lon="10.8809367"><ele>219.0</ele><time>2026-05-02T17:33:10.789Z</time></trkpt><trkpt lat="42.9993483" lon="10.880905"><ele>216.6</ele><time>2026-05-02T17:33:11.79Z</time></trkpt><trkpt lat="42.9994633" lon="10.8808833"><ele>214.2</ele><time>2026-05-02T17:33:12.786Z</time></trkpt><trkpt lat="42.9995667" lon="10.8808717"><ele>211.79999999999998</ele><time>2026-05-02T17:33:13.787Z</time></trkpt><trkpt lat="42.99967" lon="10.8808683"><ele>209.39999999999998</ele><time>2026-05-02T17:33:14.787Z</time></trkpt><trkpt lat="42.9997733" lon="10.8808783"><ele>207.0</ele><time>2026-05-02T17:33:15.789Z</time></trkpt><trkpt lat="42.9998783" lon="10.8808883"><ele>207.0</ele><time>2026-05-02T17:33:16.789Z</time></trkpt><trkpt lat="42.9999817" lon="10.8808883"><ele>207.0</ele><time>2026-05-02T17:33:17.789Z</time></trkpt><trkpt lat="43.000075" lon="10.8808733"><ele>207.0</ele><time>2026-05-02T17:33:18.789Z</time></trkpt><trkpt lat="43.0001433" lon="10.880845"><ele>207.0</ele><time>2026-05-02T17:33:19.79Z</time></trkpt><trkpt lat="43.00024" lon="10.8807533"><ele>207.0</ele><time>2026-05-02T17:33:21.789Z</time></trkpt><trkpt lat="43.0002867" lon="10.8806567"><ele>207.0</ele><time>2026-05-02T17:33:22.789Z</time></trkpt><trkpt lat="43.0003183" lon="10.88052"><ele>207.0</ele><time>2026-05-02T17:33:23.789Z</time></trkpt><trkpt lat="43.000325" lon="10.8803733"><ele>207.0</ele><time>2026-05-02T17:33:24.789Z</time></trkpt><trkpt lat="43.0002917" lon="10.8802083"><ele>207.0</ele><time>2026-05-02T17:33:25.789Z</time></trkpt><trkpt lat="43.00021" lon="10.8800433"><ele>203.33333333333331</ele><time>2026-05-02T17:33:26.786Z</time></trkpt><trkpt lat="43.000095" lon="10.8798983"><ele>199.66666666666666</ele><time>2026-05-02T17:33:27.786Z</time></trkpt><trkpt lat="42.9999567" lon="10.8797717"><ele>196.0</ele><time>2026-05-02T17:33:28.786Z</time></trkpt><trkpt lat="42.9998267" lon="10.879645"><ele>196.0</ele><time>2026-05-02T17:33:29.786Z</time></trkpt><trkpt lat="42.999705" lon="10.879505"><ele>196.0</ele><time>2026-05-02T17:33:30.786Z</time></trkpt><trkpt lat="42.9996033" lon="10.8793233"><ele>196.0</ele><time>2026-05-02T17:33:31.786Z</time></trkpt><trkpt lat="42.9995033" lon="10.8790883"><ele>192.0</ele><time>2026-05-02T17:33:32.786Z</time></trkpt><trkpt lat="42.99941" lon="10.8788133"><ele>188.0</ele><time>2026-05-02T17:33:33.789Z</time></trkpt><trkpt lat="42.9993267" lon="10.8785333"><ele>184.0</ele><time>2026-05-02T17:33:34.789Z</time></trkpt><trkpt lat="42.99927" lon="10.8782667"><ele>179.33333333333334</ele><time>2026-05-02T17:33:35.79Z</time></trkpt><trkpt lat="42.9992367" lon="10.8779883"><ele>174.66666666666666</ele><time>2026-05-02T17:33:36.789Z</time></trkpt><trkpt lat="42.99923" lon="10.8776933"><ele>170.0</ele><time>2026-05-02T17:33:37.789Z</time></trkpt><trkpt lat="42.99925" lon="10.8773683"><ele>168.5</ele><time>2026-05-02T17:33:38.79Z</time></trkpt><trkpt lat="42.999285" lon="10.8770417"><ele>167.0</ele><time>2026-05-02T17:33:39.787Z</time></trkpt><trkpt lat="42.9993183" lon="10.8767283"><ele>167.0</ele><time>2026-05-02T17:33:40.787Z</time></trkpt><trkpt lat="42.9993517" lon="10.8764283"><ele>167.0</ele><time>2026-05-02T17:33:41.789Z</time></trkpt><trkpt lat="42.9993833" lon="10.876145"><ele>167.0</ele><time>2026-05-02T17:33:42.79Z</time></trkpt><trkpt lat="42.9994167" lon="10.8758717"><ele>167.0</ele><time>2026-05-02T17:33:43.786Z</time></trkpt><trkpt lat="42.9994467" lon="10.8756133"><ele>167.0</ele><time>2026-05-02T17:33:44.789Z</time></trkpt><trkpt lat="42.99948" lon="10.8753633"><ele>167.0</ele><time>2026-05-02T17:33:45.789Z</time></trkpt><trkpt lat="42.99952" lon="10.8751233"><ele>167.0</ele><time>2026-05-02T17:33:46.787Z</time></trkpt><trkpt lat="42.999575" lon="10.8748833"><ele>167.0</ele><time>2026-05-02T17:33:47.789Z</time></trkpt><trkpt lat="42.99965" lon="10.8746517"><ele>167.0</ele><time>2026-05-02T17:33:48.789Z</time></trkpt><trkpt lat="42.9997367" lon="10.874415"><ele>168.0</ele><time>2026-05-02T17:33:49.789Z</time></trkpt><trkpt lat="42.999825" lon="10.874175"><ele>169.0</ele><time>2026-05-02T17:33:50.789Z</time></trkpt><trkpt lat="42.999915" lon="10.87393"><ele>170.0</ele><time>2026-05-02T17:33:51.792Z</time></trkpt><trkpt lat="43.0000017" lon="10.8736983"><ele>170.0</ele><time>2026-05-02T17:33:52.79Z</time></trkpt><trkpt lat="43.0001" lon="10.873475"><ele>170.0</ele><time>2026-05-02T17:33:53.787Z</time></trkpt><trkpt lat="43.0002167" lon="10.8732667"><ele>170.0</ele><time>2026-05-02T17:33:54.791Z</time></trkpt><trkpt lat="43.0003567" lon="10.87306"><ele>169.33333333333331</ele><time>2026-05-02T17:33:55.79Z</time></trkpt><trkpt lat="43.0005117" lon="10.8728567"><ele>168.66666666666666</ele><time>2026-05-02T17:33:56.787Z</time></trkpt><trkpt lat="43.000675" lon="10.8726517"><ele>168.0</ele><time>2026-05-02T17:33:57.787Z</time></trkpt><trkpt lat="43.0008417" lon="10.8724417"><ele>168.0</ele><time>2026-05-02T17:33:58.79Z</time></trkpt><trkpt lat="43.00101" lon="10.8722333"><ele>168.0</ele><time>2026-05-02T17:33:59.787Z</time></trkpt><trkpt lat="43.0011733" lon="10.872035"><ele>168.0</ele><time>2026-05-02T17:34:00.787Z</time></trkpt><trkpt lat="43.001325" lon="10.8718367"><ele>167.66666666666666</ele><time>2026-05-02T17:34:01.788Z</time></trkpt><trkpt lat="43.0014583" lon="10.8716417"><ele>167.33333333333331</ele><time>2026-05-02T17:34:02.788Z</time></trkpt><trkpt lat="43.0015717" lon="10.8714417"><ele>167.0</ele><time>2026-05-02T17:34:03.79Z</time></trkpt><trkpt lat="43.00167" lon="10.871225"><ele>167.0</ele><time>2026-05-02T17:34:04.789Z</time></trkpt><trkpt lat="43.0017517" lon="10.8710017"><ele>167.0</ele><time>2026-05-02T17:34:05.789Z</time></trkpt><trkpt lat="43.0018217" lon="10.8707683"><ele>167.0</ele><time>2026-05-02T17:34:06.789Z</time></trkpt><trkpt lat="43.0018817" lon="10.870535"><ele>168.33333333333331</ele><time>2026-05-02T17:34:07.79Z</time></trkpt><trkpt lat="43.0019333" lon="10.870315"><ele>169.66666666666666</ele><time>2026-05-02T17:34:08.79Z</time></trkpt><trkpt lat="43.00197" lon="10.8701033"><ele>171.0</ele><time>2026-05-02T17:34:09.79Z</time></trkpt><trkpt lat="43.001985" lon="10.86989"><ele>171.0</ele><time>2026-05-02T17:34:10.789Z</time></trkpt><trkpt lat="43.0019783" lon="10.8696633"><ele>171.0</ele><time>2026-05-02T17:34:11.789Z</time></trkpt><trkpt lat="43.0019467" lon="10.869435"><ele>171.0</ele><time>2026-05-02T17:34:12.789Z</time></trkpt><trkpt lat="43.0019033" lon="10.86921"><ele>171.0</ele><time>2026-05-02T17:34:13.79Z</time></trkpt><trkpt lat="43.00186" lon="10.8689933"><ele>171.0</ele><time>2026-05-02T17:34:14.798Z</time></trkpt><trkpt lat="43.0017983" lon="10.8685783"><ele>170.5</ele><time>2026-05-02T17:34:16.79Z</time></trkpt><trkpt lat="43.0017733" lon="10.8683817"><ele>170.0</ele><time>2026-05-02T17:34:17.788Z</time></trkpt><trkpt lat="43.0017583" lon="10.868185"><ele>169.5</ele><time>2026-05-02T17:34:18.788Z</time></trkpt><trkpt lat="43.0017467" lon="10.867975"><ele>169.0</ele><time>2026-05-02T17:34:19.789Z</time></trkpt><trkpt lat="43.00174" lon="10.8677583"><ele>169.0</ele><time>2026-05-02T17:34:20.789Z</time></trkpt><trkpt lat="43.00173" lon="10.8675367"><ele>169.0</ele><time>2026-05-02T17:34:21.789Z</time></trkpt><trkpt lat="43.001715" lon="10.867315"><ele>169.0</ele><time>2026-05-02T17:34:22.79Z</time></trkpt><trkpt lat="43.0017017" lon="10.8670917"><ele>169.0</ele><time>2026-05-02T17:34:23.788Z</time></trkpt><trkpt lat="43.0016883" lon="10.86686"><ele>169.0</ele><time>2026-05-02T17:34:24.788Z</time></trkpt><trkpt lat="43.0016733" lon="10.86662"><ele>169.0</ele><time>2026-05-02T17:34:25.788Z</time></trkpt><trkpt lat="43.00166" lon="10.866375"><ele>171.0</ele><time>2026-05-02T17:34:26.786Z</time></trkpt><trkpt lat="43.0016517" lon="10.86613"><ele>173.0</ele><time>2026-05-02T17:34:27.785Z</time></trkpt><trkpt lat="43.001645" lon="10.8658817"><ele>175.0</ele><time>2026-05-02T17:34:28.785Z</time></trkpt><trkpt lat="43.0016383" lon="10.865625"><ele>175.33333333333334</ele><time>2026-05-02T17:34:29.786Z</time></trkpt><trkpt lat="43.0016333" lon="10.8653667"><ele>175.66666666666666</ele><time>2026-05-02T17:34:30.786Z</time></trkpt><trkpt lat="43.00163" lon="10.8651083"><ele>176.0</ele><time>2026-05-02T17:34:31.785Z</time></trkpt><trkpt lat="43.0016283" lon="10.8648517"><ele>175.33333333333331</ele><time>2026-05-02T17:34:32.786Z</time></trkpt><trkpt lat="43.0016233" lon="10.8645983"><ele>174.66666666666666</ele><time>2026-05-02T17:34:33.789Z</time></trkpt><trkpt lat="43.0016167" lon="10.8643433"><ele>174.0</ele><time>2026-05-02T17:34:34.788Z</time></trkpt><trkpt lat="43.0016117" lon="10.864085"><ele>174.0</ele><time>2026-05-02T17:34:35.789Z</time></trkpt><trkpt lat="43.0016133" lon="10.863825"><ele>174.0</ele><time>2026-05-02T17:34:36.786Z</time></trkpt><trkpt lat="43.0016217" lon="10.8635667"><ele>174.0</ele><time>2026-05-02T17:34:37.788Z</time></trkpt><trkpt lat="43.0016417" lon="10.86331"><ele>170.0</ele><time>2026-05-02T17:34:38.79Z</time></trkpt><trkpt lat="43.0016783" lon="10.8630567"><ele>166.0</ele><time>2026-05-02T17:34:39.789Z</time></trkpt><trkpt lat="43.0017433" lon="10.8628183"><ele>162.0</ele><time>2026-05-02T17:34:40.788Z</time></trkpt><trkpt lat="43.0018333" lon="10.8625883"><ele>160.66666666666666</ele><time>2026-05-02T17:34:41.789Z</time></trkpt><trkpt lat="43.0019383" lon="10.8623783"><ele>159.33333333333331</ele><time>2026-05-02T17:34:42.785Z</time></trkpt><trkpt lat="43.0020567" lon="10.862185"><ele>158.0</ele><time>2026-05-02T17:34:43.789Z</time></trkpt><trkpt lat="43.0021917" lon="10.8620067"><ele>158.0</ele><time>2026-05-02T17:34:44.789Z</time></trkpt><trkpt lat="43.0023417" lon="10.861855"><ele>158.0</ele><time>2026-05-02T17:34:45.789Z</time></trkpt><trkpt lat="43.0025033" lon="10.86173"><ele>158.0</ele><time>2026-05-02T17:34:46.789Z</time></trkpt><trkpt lat="43.002665" lon="10.8616217"><ele>158.0</ele><time>2026-05-02T17:34:47.788Z</time></trkpt><trkpt lat="43.002815" lon="10.8614933"><ele>158.0</ele><time>2026-05-02T17:34:48.789Z</time></trkpt><trkpt lat="43.002955" lon="10.8613167"><ele>158.0</ele><time>2026-05-02T17:34:49.79Z</time></trkpt><trkpt lat="43.0030867" lon="10.8611033"><ele>158.0</ele><time>2026-05-02T17:34:50.788Z</time></trkpt><trkpt lat="43.0032117" lon="10.860865"><ele>158.0</ele><time>2026-05-02T17:34:51.789Z</time></trkpt><trkpt lat="43.003335" lon="10.8606133"><ele>158.0</ele><time>2026-05-02T17:34:52.788Z</time></trkpt><trkpt lat="43.0034617" lon="10.8603533"><ele>156.5</ele><time>2026-05-02T17:34:53.788Z</time></trkpt><trkpt lat="43.00359" lon="10.8600883"><ele>155.0</ele><time>2026-05-02T17:34:54.789Z</time></trkpt><trkpt lat="43.0037217" lon="10.8598233"><ele>155.0</ele><time>2026-05-02T17:34:55.788Z</time></trkpt><trkpt lat="43.0038533" lon="10.859555"><ele>155.0</ele><time>2026-05-02T17:34:56.785Z</time></trkpt><trkpt lat="43.0039867" lon="10.8592833"><ele>154.5</ele><time>2026-05-02T17:34:57.785Z</time></trkpt><trkpt lat="43.0041183" lon="10.8590133"><ele>154.0</ele><time>2026-05-02T17:34:58.785Z</time></trkpt><trkpt lat="43.0042483" lon="10.858745"><ele>154.0</ele><time>2026-05-02T17:34:59.786Z</time></trkpt><trkpt lat="43.0043767" lon="10.858485"><ele>154.0</ele><time>2026-05-02T17:35:00.786Z</time></trkpt><trkpt lat="43.0045033" lon="10.8582283"><ele>154.0</ele><time>2026-05-02T17:35:01.785Z</time></trkpt><trkpt lat="43.0046283" lon="10.857975"><ele>154.0</ele><time>2026-05-02T17:35:02.786Z</time></trkpt><trkpt lat="43.0047483" lon="10.857735"><ele>154.0</ele><time>2026-05-02T17:35:03.788Z</time></trkpt><trkpt lat="43.0048633" lon="10.8575033"><ele>153.66666666666669</ele><time>2026-05-02T17:35:04.789Z</time></trkpt><trkpt lat="43.0049683" lon="10.85728"><ele>153.33333333333334</ele><time>2026-05-02T17:35:05.788Z</time></trkpt><trkpt lat="43.0050583" lon="10.8570533"><ele>153.0</ele><time>2026-05-02T17:35:06.785Z</time></trkpt><trkpt lat="43.0051317" lon="10.8568183"><ele>153.0</ele><time>2026-05-02T17:35:07.786Z</time></trkpt><trkpt lat="43.0051833" lon="10.8565683"><ele>153.0</ele><time>2026-05-02T17:35:08.788Z</time></trkpt><trkpt lat="43.00522" lon="10.8563133"><ele>153.0</ele><time>2026-05-02T17:35:09.788Z</time></trkpt><trkpt lat="43.0052383" lon="10.85605"><ele>152.33333333333334</ele><time>2026-05-02T17:35:10.789Z</time></trkpt><trkpt lat="43.0052433" lon="10.8557783"><ele>151.66666666666669</ele><time>2026-05-02T17:35:11.789Z</time></trkpt><trkpt lat="43.0052417" lon="10.8555183"><ele>151.0</ele><time>2026-05-02T17:35:12.789Z</time></trkpt><trkpt lat="43.0052283" lon="10.8552633"><ele>151.0</ele><time>2026-05-02T17:35:13.789Z</time></trkpt><trkpt lat="43.005205" lon="10.8550217"><ele>151.0</ele><time>2026-05-02T17:35:14.789Z</time></trkpt><trkpt lat="43.0051717" lon="10.8547933"><ele>151.0</ele><time>2026-05-02T17:35:15.788Z</time></trkpt><trkpt lat="43.005125" lon="10.85458"><ele>151.0</ele><time>2026-05-02T17:35:16.79Z</time></trkpt><trkpt lat="43.00508" lon="10.8543783"><ele>151.0</ele><time>2026-05-02T17:35:17.789Z</time></trkpt><trkpt lat="43.0050317" lon="10.8541833"><ele>151.0</ele><time>2026-05-02T17:35:18.79Z</time></trkpt><trkpt lat="43.0049767" lon="10.854"><ele>150.75</ele><time>2026-05-02T17:35:19.788Z</time></trkpt><trkpt lat="43.0049217" lon="10.8538233"><ele>150.5</ele><time>2026-05-02T17:35:20.789Z</time></trkpt><trkpt lat="43.0048683" lon="10.8536467"><ele>150.25</ele><time>2026-05-02T17:35:21.79Z</time></trkpt><trkpt lat="43.0048167" lon="10.8534633"><ele>150.0</ele><time>2026-05-02T17:35:22.788Z</time></trkpt><trkpt lat="43.0047667" lon="10.8532817"><ele>150.0</ele><time>2026-05-02T17:35:23.789Z</time></trkpt><trkpt lat="43.00472" lon="10.85311"><ele>150.0</ele><time>2026-05-02T17:35:24.788Z</time></trkpt><trkpt lat="43.004675" lon="10.85294"><ele>150.0</ele><time>2026-05-02T17:35:25.788Z</time></trkpt><trkpt lat="43.00463" lon="10.8527783"><ele>150.0</ele><time>2026-05-02T17:35:26.785Z</time></trkpt><trkpt lat="43.004585" lon="10.8526233"><ele>149.8</ele><time>2026-05-02T17:35:27.786Z</time></trkpt><trkpt lat="43.004545" lon="10.8524767"><ele>149.6</ele><time>2026-05-02T17:35:28.786Z</time></trkpt><trkpt lat="43.00451" lon="10.852335"><ele>149.4</ele><time>2026-05-02T17:35:29.787Z</time></trkpt><trkpt lat="43.0044817" lon="10.852195"><ele>149.2</ele><time>2026-05-02T17:35:30.786Z</time></trkpt><trkpt lat="43.0044617" lon="10.8520633"><ele>149.0</ele><time>2026-05-02T17:35:31.786Z</time></trkpt><trkpt lat="43.0044583" lon="10.8519267"><ele>148.6</ele><time>2026-05-02T17:35:32.787Z</time></trkpt><trkpt lat="43.00447" lon="10.8517883"><ele>148.2</ele><time>2026-05-02T17:35:33.79Z</time></trkpt><trkpt lat="43.00449" lon="10.8516583"><ele>147.79999999999998</ele><time>2026-05-02T17:35:34.789Z</time></trkpt><trkpt lat="43.0045133" lon="10.8515367"><ele>147.4</ele><time>2026-05-02T17:35:35.79Z</time></trkpt><trkpt lat="43.00454" lon="10.851415"><ele>147.0</ele><time>2026-05-02T17:35:36.789Z</time></trkpt><trkpt lat="43.0045683" lon="10.8513133"><ele>147.0</ele><time>2026-05-02T17:35:37.789Z</time></trkpt><trkpt lat="43.0046" lon="10.8512283"><ele>147.0</ele><time>2026-05-02T17:35:38.788Z</time></trkpt><trkpt lat="43.0046433" lon="10.8511617"><ele>147.0</ele><time>2026-05-02T17:35:39.788Z</time></trkpt><trkpt lat="43.004725" lon="10.8510783"><ele>147.0</ele><time>2026-05-02T17:35:41.786Z</time></trkpt><trkpt lat="43.0047883" lon="10.8510167"><ele>147.0</ele><time>2026-05-02T17:35:44.786Z</time></trkpt><trkpt lat="43.0047867" lon="10.8509267"><ele>147.0</ele><time>2026-05-02T17:35:46.789Z</time></trkpt><trkpt lat="43.00471" lon="10.85077"><ele>146.79999999999998</ele><time>2026-05-02T17:35:48.789Z</time></trkpt><trkpt lat="43.0046533" lon="10.8506633"><ele>146.6</ele><time>2026-05-02T17:35:49.79Z</time></trkpt><trkpt lat="43.0045783" lon="10.8505467"><ele>146.39999999999998</ele><time>2026-05-02T17:35:50.788Z</time></trkpt><trkpt lat="43.0045017" lon="10.8504317"><ele>146.2</ele><time>2026-05-02T17:35:51.788Z</time></trkpt><trkpt lat="43.0044217" lon="10.8503083"><ele>146.0</ele><time>2026-05-02T17:35:52.789Z</time></trkpt><trkpt lat="43.0043433" lon="10.850175"><ele>145.75</ele><time>2026-05-02T17:35:53.79Z</time></trkpt><trkpt lat="43.0042583" lon="10.8500283"><ele>145.5</ele><time>2026-05-02T17:35:54.785Z</time></trkpt><trkpt lat="43.0041683" lon="10.8498733"><ele>145.25</ele><time>2026-05-02T17:35:55.789Z</time></trkpt><trkpt lat="43.0040717" lon="10.8497133"><ele>145.0</ele><time>2026-05-02T17:35:56.788Z</time></trkpt><trkpt lat="43.0039733" lon="10.8495433"><ele>144.0</ele><time>2026-05-02T17:35:57.788Z</time></trkpt><trkpt lat="43.00387" lon="10.8493767"><ele>143.0</ele><time>2026-05-02T17:35:58.788Z</time></trkpt><trkpt lat="43.003765" lon="10.8492217"><ele>142.0</ele><time>2026-05-02T17:35:59.789Z</time></trkpt><trkpt lat="43.0036567" lon="10.8490783"><ele>141.33333333333334</ele><time>2026-05-02T17:36:00.788Z</time></trkpt><trkpt lat="43.0035383" lon="10.84895"><ele>140.66666666666666</ele><time>2026-05-02T17:36:01.791Z</time></trkpt><trkpt lat="43.0034" lon="10.8488417"><ele>140.0</ele><time>2026-05-02T17:36:02.789Z</time></trkpt><trkpt lat="43.003245" lon="10.84874"><ele>140.0</ele><time>2026-05-02T17:36:03.788Z</time></trkpt><trkpt lat="43.0030783" lon="10.84864"><ele>140.0</ele><time>2026-05-02T17:36:04.789Z</time></trkpt><trkpt lat="43.0029083" lon="10.8485367"><ele>140.0</ele><time>2026-05-02T17:36:05.789Z</time></trkpt><trkpt lat="43.0027383" lon="10.8484267"><ele>140.0</ele><time>2026-05-02T17:36:06.789Z</time></trkpt><trkpt lat="43.002565" lon="10.8483133"><ele>140.0</ele><time>2026-05-02T17:36:07.789Z</time></trkpt><trkpt lat="43.0023917" lon="10.8482"><ele>140.0</ele><time>2026-05-02T17:36:08.789Z</time></trkpt><trkpt lat="43.0022167" lon="10.8480817"><ele>139.33333333333331</ele><time>2026-05-02T17:36:09.788Z</time></trkpt><trkpt lat="43.0020433" lon="10.8479667"><ele>138.66666666666666</ele><time>2026-05-02T17:36:10.789Z</time></trkpt><trkpt lat="43.0018667" lon="10.847855"><ele>138.0</ele><time>2026-05-02T17:36:11.788Z</time></trkpt><trkpt lat="43.00169" lon="10.8477433"><ele>136.66666666666666</ele><time>2026-05-02T17:36:12.789Z</time></trkpt><trkpt lat="43.00152" lon="10.8476383"><ele>135.33333333333331</ele><time>2026-05-02T17:36:13.789Z</time></trkpt><trkpt lat="43.0013583" lon="10.847535"><ele>134.0</ele><time>2026-05-02T17:36:14.789Z</time></trkpt><trkpt lat="43.001205" lon="10.8474333"><ele>133.33333333333331</ele><time>2026-05-02T17:36:15.789Z</time></trkpt><trkpt lat="43.00106" lon="10.8473233"><ele>132.66666666666666</ele><time>2026-05-02T17:36:16.788Z</time></trkpt><trkpt lat="43.0009217" lon="10.8471917"><ele>132.0</ele><time>2026-05-02T17:36:17.789Z</time></trkpt><trkpt lat="43.0007867" lon="10.8470417"><ele>129.0</ele><time>2026-05-02T17:36:18.789Z</time></trkpt><trkpt lat="43.0006467" lon="10.8468867"><ele>126.0</ele><time>2026-05-02T17:36:19.79Z</time></trkpt><trkpt lat="43.0005067" lon="10.846735"><ele>123.0</ele><time>2026-05-02T17:36:20.788Z</time></trkpt><trkpt lat="43.00037" lon="10.846595"><ele>122.25</ele><time>2026-05-02T17:36:21.789Z</time></trkpt><trkpt lat="43.0002433" lon="10.8464617"><ele>121.5</ele><time>2026-05-02T17:36:22.786Z</time></trkpt><trkpt lat="43.000125" lon="10.8463383"><ele>120.75</ele><time>2026-05-02T17:36:23.789Z</time></trkpt><trkpt lat="43.0000167" lon="10.84623"><ele>120.0</ele><time>2026-05-02T17:36:24.79Z</time></trkpt><trkpt lat="42.9999217" lon="10.84613"><ele>120.0</ele><time>2026-05-02T17:36:25.788Z</time></trkpt><trkpt lat="42.9998383" lon="10.84604"><ele>120.0</ele><time>2026-05-02T17:36:26.789Z</time></trkpt><trkpt lat="42.9997833" lon="10.8459383"><ele>120.0</ele><time>2026-05-02T17:36:27.788Z</time></trkpt><trkpt lat="42.999755" lon="10.84583"><ele>120.0</ele><time>2026-05-02T17:36:28.789Z</time></trkpt><trkpt lat="42.9997467" lon="10.8457233"><ele>120.0</ele><time>2026-05-02T17:36:29.791Z</time></trkpt><trkpt lat="42.9997483" lon="10.8456333"><ele>120.0</ele><time>2026-05-02T17:36:30.789Z</time></trkpt><trkpt lat="42.9997433" lon="10.8455217"><ele>119.2</ele><time>2026-05-02T17:36:32.788Z</time></trkpt><trkpt lat="42.9996933" lon="10.8454683"><ele>118.4</ele><time>2026-05-02T17:36:40.789Z</time></trkpt><trkpt lat="42.99961" lon="10.8454083"><ele>117.6</ele><time>2026-05-02T17:36:41.79Z</time></trkpt><trkpt lat="42.9995083" lon="10.8453433"><ele>116.8</ele><time>2026-05-02T17:36:42.789Z</time></trkpt><trkpt lat="42.9993917" lon="10.84527"><ele>116.0</ele><time>2026-05-02T17:36:43.788Z</time></trkpt><trkpt lat="42.9992583" lon="10.845175"><ele>114.0</ele><time>2026-05-02T17:36:44.79Z</time></trkpt><trkpt lat="42.9991083" lon="10.8450633"><ele>112.0</ele><time>2026-05-02T17:36:45.788Z</time></trkpt><trkpt lat="42.9989567" lon="10.8449417"><ele>110.0</ele><time>2026-05-02T17:36:46.788Z</time></trkpt><trkpt lat="42.9987967" lon="10.844805"><ele>110.0</ele><time>2026-05-02T17:36:47.789Z</time></trkpt><trkpt lat="42.9986317" lon="10.844645"><ele>110.0</ele><time>2026-05-02T17:36:48.79Z</time></trkpt><trkpt lat="42.99846" lon="10.844475"><ele>110.0</ele><time>2026-05-02T17:36:49.789Z</time></trkpt><trkpt lat="42.9982883" lon="10.8442917"><ele>107.0</ele><time>2026-05-02T17:36:50.789Z</time></trkpt><trkpt lat="42.9981133" lon="10.8441017"><ele>104.0</ele><time>2026-05-02T17:36:51.788Z</time></trkpt><trkpt lat="42.997935" lon="10.84391"><ele>104.0</ele><time>2026-05-02T17:36:52.79Z</time></trkpt><trkpt lat="42.9977567" lon="10.8437217"><ele>104.0</ele><time>2026-05-02T17:36:53.789Z</time></trkpt><trkpt lat="42.9975833" lon="10.8435367"><ele>104.0</ele><time>2026-05-02T17:36:54.788Z</time></trkpt><trkpt lat="42.9974133" lon="10.8433533"><ele>103.33333333333333</ele><time>2026-05-02T17:36:55.789Z</time></trkpt><trkpt lat="42.9972417" lon="10.84317"><ele>102.66666666666666</ele><time>2026-05-02T17:36:56.789Z</time></trkpt><trkpt lat="42.9970667" lon="10.8429833"><ele>102.0</ele><time>2026-05-02T17:36:57.788Z</time></trkpt><trkpt lat="42.996895" lon="10.8428"><ele>101.33333333333334</ele><time>2026-05-02T17:36:58.789Z</time></trkpt><trkpt lat="42.996725" lon="10.8426183"><ele>100.66666666666667</ele><time>2026-05-02T17:36:59.789Z</time></trkpt><trkpt lat="42.9965567" lon="10.842435"><ele>100.0</ele><time>2026-05-02T17:37:00.788Z</time></trkpt><trkpt lat="42.9963883" lon="10.8422517"><ele>99.33333333333334</ele><time>2026-05-02T17:37:01.789Z</time></trkpt><trkpt lat="42.9962233" lon="10.8420667"><ele>98.66666666666666</ele><time>2026-05-02T17:37:02.788Z</time></trkpt><trkpt lat="42.996055" lon="10.8418833"><ele>98.0</ele><time>2026-05-02T17:37:03.788Z</time></trkpt><trkpt lat="42.99589" lon="10.8417033"><ele>97.0</ele><time>2026-05-02T17:37:04.789Z</time></trkpt><trkpt lat="42.995725" lon="10.84152"><ele>96.0</ele><time>2026-05-02T17:37:05.789Z</time></trkpt><trkpt lat="42.9955567" lon="10.841335"><ele>95.0</ele><time>2026-05-02T17:37:06.79Z</time></trkpt><trkpt lat="42.9953883" lon="10.84115"><ele>94.33333333333334</ele><time>2026-05-02T17:37:07.789Z</time></trkpt><trkpt lat="42.9952183" lon="10.84096"><ele>93.66666666666667</ele><time>2026-05-02T17:37:08.788Z</time></trkpt><trkpt lat="42.9950467" lon="10.840775"><ele>93.0</ele><time>2026-05-02T17:37:09.789Z</time></trkpt><trkpt lat="42.994875" lon="10.8405883"><ele>92.0</ele><time>2026-05-02T17:37:10.788Z</time></trkpt><trkpt lat="42.9945333" lon="10.84022"><ele>91.0</ele><time>2026-05-02T17:37:12.789Z</time></trkpt><trkpt lat="42.9943633" lon="10.8400367"><ele>90.66666666666666</ele><time>2026-05-02T17:37:13.789Z</time></trkpt><trkpt lat="42.9941967" lon="10.8398533"><ele>90.33333333333333</ele><time>2026-05-02T17:37:14.789Z</time></trkpt><trkpt lat="42.9940333" lon="10.8396717"><ele>90.0</ele><time>2026-05-02T17:37:15.789Z</time></trkpt><trkpt lat="42.9938717" lon="10.839485"><ele>88.66666666666667</ele><time>2026-05-02T17:37:16.789Z</time></trkpt><trkpt lat="42.9937083" lon="10.8392983"><ele>87.33333333333334</ele><time>2026-05-02T17:37:17.789Z</time></trkpt><trkpt lat="42.9935467" lon="10.839115"><ele>86.0</ele><time>2026-05-02T17:37:18.79Z</time></trkpt><trkpt lat="42.9933917" lon="10.8389317"><ele>86.0</ele><time>2026-05-02T17:37:19.789Z</time></trkpt><trkpt lat="42.9932367" lon="10.8387433"><ele>86.0</ele><time>2026-05-02T17:37:20.789Z</time></trkpt><trkpt lat="42.9930867" lon="10.838545"><ele>86.0</ele><time>2026-05-02T17:37:21.789Z</time></trkpt><trkpt lat="42.9929383" lon="10.83834"><ele>86.0</ele><time>2026-05-02T17:37:22.789Z</time></trkpt><trkpt lat="42.9927933" lon="10.838125"><ele>86.0</ele><time>2026-05-02T17:37:23.79Z</time></trkpt><trkpt lat="42.99266" lon="10.8378983"><ele>86.0</ele><time>2026-05-02T17:37:24.789Z</time></trkpt><trkpt lat="42.9925367" lon="10.837665"><ele>84.66666666666667</ele><time>2026-05-02T17:37:25.789Z</time></trkpt><trkpt lat="42.9924167" lon="10.8374233"><ele>83.33333333333333</ele><time>2026-05-02T17:37:26.789Z</time></trkpt><trkpt lat="42.9922983" lon="10.8371767"><ele>82.0</ele><time>2026-05-02T17:37:27.785Z</time></trkpt><trkpt lat="42.99218" lon="10.8369267"><ele>81.0</ele><time>2026-05-02T17:37:28.787Z</time></trkpt><trkpt lat="42.99206" lon="10.8366767"><ele>80.0</ele><time>2026-05-02T17:37:29.788Z</time></trkpt><trkpt lat="42.99194" lon="10.8364283"><ele>79.0</ele><time>2026-05-02T17:37:30.788Z</time></trkpt><trkpt lat="42.9918183" lon="10.8361817"><ele>78.33333333333333</ele><time>2026-05-02T17:37:31.787Z</time></trkpt><trkpt lat="42.991695" lon="10.835935"><ele>77.66666666666667</ele><time>2026-05-02T17:37:32.787Z</time></trkpt><trkpt lat="42.99157" lon="10.8356917"><ele>77.0</ele><time>2026-05-02T17:37:33.788Z</time></trkpt><trkpt lat="42.9914417" lon="10.8354517"><ele>76.66666666666667</ele><time>2026-05-02T17:37:34.787Z</time></trkpt><trkpt lat="42.9913083" lon="10.835215"><ele>76.33333333333333</ele><time>2026-05-02T17:37:35.787Z</time></trkpt><trkpt lat="42.9911717" lon="10.834985"><ele>76.0</ele><time>2026-05-02T17:37:36.787Z</time></trkpt><trkpt lat="42.99103" lon="10.83476"><ele>75.66666666666666</ele><time>2026-05-02T17:37:37.787Z</time></trkpt><trkpt lat="42.990885" lon="10.83454"><ele>75.33333333333333</ele><time>2026-05-02T17:37:38.787Z</time></trkpt><trkpt lat="42.9907317" lon="10.8343333"><ele>75.0</ele><time>2026-05-02T17:37:39.787Z</time></trkpt><trkpt lat="42.9905717" lon="10.8341367"><ele>74.66666666666667</ele><time>2026-05-02T17:37:40.787Z</time></trkpt><trkpt lat="42.9904067" lon="10.8339483"><ele>74.33333333333334</ele><time>2026-05-02T17:37:41.788Z</time></trkpt><trkpt lat="42.9902383" lon="10.8337683"><ele>74.0</ele><time>2026-05-02T17:37:42.787Z</time></trkpt><trkpt lat="42.9900717" lon="10.8335917"><ele>73.0</ele><time>2026-05-02T17:37:43.786Z</time></trkpt><trkpt lat="42.9899083" lon="10.8334133"><ele>72.0</ele><time>2026-05-02T17:37:44.787Z</time></trkpt><trkpt lat="42.9897467" lon="10.8332317"><ele>71.0</ele><time>2026-05-02T17:37:45.787Z</time></trkpt><trkpt lat="42.98959" lon="10.8330483"><ele>71.0</ele><time>2026-05-02T17:37:46.787Z</time></trkpt><trkpt lat="42.989435" lon="10.83286"><ele>71.0</ele><time>2026-05-02T17:37:47.79Z</time></trkpt><trkpt lat="42.9892833" lon="10.83267"><ele>71.0</ele><time>2026-05-02T17:37:48.788Z</time></trkpt><trkpt lat="42.98913" lon="10.8324817"><ele>71.66666666666667</ele><time>2026-05-02T17:37:49.788Z</time></trkpt><trkpt lat="42.9889783" lon="10.832295"><ele>72.33333333333333</ele><time>2026-05-02T17:37:50.788Z</time></trkpt><trkpt lat="42.9888283" lon="10.8321083"><ele>73.0</ele><time>2026-05-02T17:37:51.787Z</time></trkpt><trkpt lat="42.9886817" lon="10.8319283"><ele>72.0</ele><time>2026-05-02T17:37:52.788Z</time></trkpt><trkpt lat="42.98854" lon="10.8317533"><ele>71.0</ele><time>2026-05-02T17:37:53.788Z</time></trkpt><trkpt lat="42.9884" lon="10.8315833"><ele>70.0</ele><time>2026-05-02T17:37:54.789Z</time></trkpt><trkpt lat="42.9882583" lon="10.831415"><ele>69.0</ele><time>2026-05-02T17:37:55.79Z</time></trkpt><trkpt lat="42.9881183" lon="10.8312467"><ele>68.0</ele><time>2026-05-02T17:37:56.789Z</time></trkpt><trkpt lat="42.98798" lon="10.8310783"><ele>67.0</ele><time>2026-05-02T17:37:57.786Z</time></trkpt><trkpt lat="42.9878367" lon="10.8309083"><ele>67.0</ele><time>2026-05-02T17:37:58.787Z</time></trkpt><trkpt lat="42.9876933" lon="10.83074"><ele>67.0</ele><time>2026-05-02T17:37:59.788Z</time></trkpt><trkpt lat="42.98755" lon="10.83057"><ele>67.0</ele><time>2026-05-02T17:38:00.787Z</time></trkpt><trkpt lat="42.987405" lon="10.8303967"><ele>66.66666666666666</ele><time>2026-05-02T17:38:01.788Z</time></trkpt><trkpt lat="42.9872617" lon="10.8302217"><ele>66.33333333333333</ele><time>2026-05-02T17:38:02.787Z</time></trkpt><trkpt lat="42.98712" lon="10.830045"><ele>66.0</ele><time>2026-05-02T17:38:03.788Z</time></trkpt><trkpt lat="42.9869767" lon="10.82987"><ele>65.66666666666667</ele><time>2026-05-02T17:38:04.787Z</time></trkpt><trkpt lat="42.9868283" lon="10.829695"><ele>65.33333333333334</ele><time>2026-05-02T17:38:05.788Z</time></trkpt><trkpt lat="42.9866833" lon="10.8295233"><ele>65.0</ele><time>2026-05-02T17:38:06.788Z</time></trkpt><trkpt lat="42.9865433" lon="10.8293533"><ele>64.33333333333334</ele><time>2026-05-02T17:38:07.788Z</time></trkpt><trkpt lat="42.9864017" lon="10.8291833"><ele>63.66666666666667</ele><time>2026-05-02T17:38:08.789Z</time></trkpt><trkpt lat="42.9862617" lon="10.8290117"><ele>63.0</ele><time>2026-05-02T17:38:09.79Z</time></trkpt><trkpt lat="42.98612" lon="10.82884"><ele>63.0</ele><time>2026-05-02T17:38:10.789Z</time></trkpt><trkpt lat="42.9859767" lon="10.8286667"><ele>63.0</ele><time>2026-05-02T17:38:11.79Z</time></trkpt><trkpt lat="42.9858367" lon="10.828495"><ele>63.0</ele><time>2026-05-02T17:38:12.786Z</time></trkpt><trkpt lat="42.9856983" lon="10.8283283"><ele>62.0</ele><time>2026-05-02T17:38:13.785Z</time></trkpt><trkpt lat="42.9855683" lon="10.8281683"><ele>61.0</ele><time>2026-05-02T17:38:14.786Z</time></trkpt><trkpt lat="42.9854367" lon="10.8280117"><ele>60.0</ele><time>2026-05-02T17:38:15.79Z</time></trkpt><trkpt lat="42.985305" lon="10.8278533"><ele>60.0</ele><time>2026-05-02T17:38:16.786Z</time></trkpt><trkpt lat="42.98517" lon="10.8276867"><ele>60.0</ele><time>2026-05-02T17:38:17.787Z</time></trkpt><trkpt lat="42.985035" lon="10.82752"><ele>60.0</ele><time>2026-05-02T17:38:18.789Z</time></trkpt><trkpt lat="42.9849" lon="10.8273533"><ele>60.0</ele><time>2026-05-02T17:38:19.79Z</time></trkpt><trkpt lat="42.9847633" lon="10.827185"><ele>60.0</ele><time>2026-05-02T17:38:20.789Z</time></trkpt><trkpt lat="42.9846233" lon="10.827015"><ele>60.0</ele><time>2026-05-02T17:38:21.79Z</time></trkpt><trkpt lat="42.9844867" lon="10.8268433"><ele>60.0</ele><time>2026-05-02T17:38:22.789Z</time></trkpt><trkpt lat="42.9843517" lon="10.8266733"><ele>60.0</ele><time>2026-05-02T17:38:23.79Z</time></trkpt><trkpt lat="42.984215" lon="10.8265017"><ele>60.0</ele><time>2026-05-02T17:38:24.789Z</time></trkpt><trkpt lat="42.9840783" lon="10.82633"><ele>60.0</ele><time>2026-05-02T17:38:25.789Z</time></trkpt><trkpt lat="42.98394" lon="10.82616"><ele>60.0</ele><time>2026-05-02T17:38:26.789Z</time></trkpt><trkpt lat="42.983795" lon="10.8259917"><ele>60.0</ele><time>2026-05-02T17:38:27.785Z</time></trkpt><trkpt lat="42.9836533" lon="10.8258217"><ele>59.66666666666667</ele><time>2026-05-02T17:38:28.787Z</time></trkpt><trkpt lat="42.9835083" lon="10.825655"><ele>59.333333333333336</ele><time>2026-05-02T17:38:29.787Z</time></trkpt><trkpt lat="42.9833633" lon="10.8254883"><ele>59.0</ele><time>2026-05-02T17:38:30.787Z</time></trkpt><trkpt lat="42.9832183" lon="10.8253167"><ele>58.0</ele><time>2026-05-02T17:38:31.787Z</time></trkpt><trkpt lat="42.9830767" lon="10.8251433"><ele>57.0</ele><time>2026-05-02T17:38:32.788Z</time></trkpt><trkpt lat="42.982935" lon="10.8249667"><ele>56.0</ele><time>2026-05-02T17:38:33.788Z</time></trkpt><trkpt lat="42.9827917" lon="10.824795"><ele>56.0</ele><time>2026-05-02T17:38:34.788Z</time></trkpt><trkpt lat="42.9826483" lon="10.8246233"><ele>56.0</ele><time>2026-05-02T17:38:35.789Z</time></trkpt><trkpt lat="42.9825067" lon="10.824455"><ele>56.0</ele><time>2026-05-02T17:38:36.787Z</time></trkpt><trkpt lat="42.9823667" lon="10.82429"><ele>55.333333333333336</ele><time>2026-05-02T17:38:37.787Z</time></trkpt><trkpt lat="42.9822317" lon="10.824125"><ele>54.66666666666667</ele><time>2026-05-02T17:38:38.789Z</time></trkpt><trkpt lat="42.9820983" lon="10.8239617"><ele>54.0</ele><time>2026-05-02T17:38:39.791Z</time></trkpt><trkpt lat="42.9819617" lon="10.8237967"><ele>54.0</ele><time>2026-05-02T17:38:40.789Z</time></trkpt><trkpt lat="42.981825" lon="10.8236317"><ele>54.0</ele><time>2026-05-02T17:38:41.789Z</time></trkpt><trkpt lat="42.9816917" lon="10.8234667"><ele>54.0</ele><time>2026-05-02T17:38:42.789Z</time></trkpt><trkpt lat="42.9815583" lon="10.8233033"><ele>53.33333333333333</ele><time>2026-05-02T17:38:43.789Z</time></trkpt><trkpt lat="42.981425" lon="10.8231433"><ele>52.666666666666664</ele><time>2026-05-02T17:38:44.789Z</time></trkpt><trkpt lat="42.9812967" lon="10.8229833"><ele>52.0</ele><time>2026-05-02T17:38:45.789Z</time></trkpt><trkpt lat="42.9811633" lon="10.8228217"><ele>52.0</ele><time>2026-05-02T17:38:46.789Z</time></trkpt><trkpt lat="42.98103" lon="10.8226617"><ele>52.0</ele><time>2026-05-02T17:38:47.79Z</time></trkpt><trkpt lat="42.9809" lon="10.8225017"><ele>52.0</ele><time>2026-05-02T17:38:48.789Z</time></trkpt><trkpt lat="42.9807717" lon="10.82234"><ele>51.666666666666664</ele><time>2026-05-02T17:38:49.789Z</time></trkpt><trkpt lat="42.9806417" lon="10.8221767"><ele>51.33333333333333</ele><time>2026-05-02T17:38:50.789Z</time></trkpt><trkpt lat="42.98051" lon="10.8220117"><ele>51.0</ele><time>2026-05-02T17:38:51.788Z</time></trkpt><trkpt lat="42.980375" lon="10.8218467"><ele>50.66666666666667</ele><time>2026-05-02T17:38:52.789Z</time></trkpt><trkpt lat="42.98024" lon="10.8216817"><ele>50.333333333333336</ele><time>2026-05-02T17:38:53.791Z</time></trkpt><trkpt lat="42.98011" lon="10.8215167"><ele>50.0</ele><time>2026-05-02T17:38:54.789Z</time></trkpt><trkpt lat="42.979975" lon="10.8213517"><ele>50.0</ele><time>2026-05-02T17:38:55.789Z</time></trkpt><trkpt lat="42.97984" lon="10.8211883"><ele>50.0</ele><time>2026-05-02T17:38:56.786Z</time></trkpt><trkpt lat="42.9797067" lon="10.821025"><ele>50.0</ele><time>2026-05-02T17:38:57.787Z</time></trkpt><trkpt lat="42.9795767" lon="10.820865"><ele>50.0</ele><time>2026-05-02T17:38:58.787Z</time></trkpt><trkpt lat="42.9794467" lon="10.8207067"><ele>50.0</ele><time>2026-05-02T17:38:59.788Z</time></trkpt><trkpt lat="42.9793183" lon="10.8205467"><ele>50.0</ele><time>2026-05-02T17:39:00.788Z</time></trkpt><trkpt lat="42.9791867" lon="10.820385"><ele>49.333333333333336</ele><time>2026-05-02T17:39:01.788Z</time></trkpt><trkpt lat="42.9790533" lon="10.8202217"><ele>48.66666666666667</ele><time>2026-05-02T17:39:02.788Z</time></trkpt><trkpt lat="42.9789167" lon="10.820055"><ele>48.0</ele><time>2026-05-02T17:39:03.787Z</time></trkpt><trkpt lat="42.9787817" lon="10.8198917"><ele>47.666666666666664</ele><time>2026-05-02T17:39:04.788Z</time></trkpt><trkpt lat="42.978645" lon="10.8197267"><ele>47.33333333333333</ele><time>2026-05-02T17:39:05.788Z</time></trkpt><trkpt lat="42.9785117" lon="10.8195633"><ele>47.0</ele><time>2026-05-02T17:39:06.787Z</time></trkpt><trkpt lat="42.97838" lon="10.8194067"><ele>46.666666666666664</ele><time>2026-05-02T17:39:07.79Z</time></trkpt><trkpt lat="42.9782483" lon="10.8192517"><ele>46.333333333333336</ele><time>2026-05-02T17:39:08.789Z</time></trkpt><trkpt lat="42.9781167" lon="10.819095"><ele>46.0</ele><time>2026-05-02T17:39:09.789Z</time></trkpt><trkpt lat="42.9779867" lon="10.81894"><ele>46.0</ele><time>2026-05-02T17:39:10.787Z</time></trkpt><trkpt lat="42.977855" lon="10.81878"><ele>46.0</ele><time>2026-05-02T17:39:11.788Z</time></trkpt><trkpt lat="42.977725" lon="10.8186217"><ele>46.0</ele><time>2026-05-02T17:39:12.79Z</time></trkpt><trkpt lat="42.977595" lon="10.818465"><ele>45.0</ele><time>2026-05-02T17:39:13.79Z</time></trkpt><trkpt lat="42.9774717" lon="10.8183133"><ele>44.0</ele><time>2026-05-02T17:39:14.79Z</time></trkpt><trkpt lat="42.977355" lon="10.8181683"><ele>43.0</ele><time>2026-05-02T17:39:15.789Z</time></trkpt><trkpt lat="42.97724" lon="10.8180267"><ele>43.0</ele><time>2026-05-02T17:39:16.786Z</time></trkpt><trkpt lat="42.977125" lon="10.8178833"><ele>43.0</ele><time>2026-05-02T17:39:17.789Z</time></trkpt><trkpt lat="42.977005" lon="10.8177367"><ele>43.0</ele><time>2026-05-02T17:39:18.789Z</time></trkpt><trkpt lat="42.9768833" lon="10.8175883"><ele>43.333333333333336</ele><time>2026-05-02T17:39:19.787Z</time></trkpt><trkpt lat="42.97676" lon="10.8174383"><ele>43.666666666666664</ele><time>2026-05-02T17:39:20.789Z</time></trkpt><trkpt lat="42.9766367" lon="10.81729"><ele>44.0</ele><time>2026-05-02T17:39:21.789Z</time></trkpt><trkpt lat="42.9765183" lon="10.817145"><ele>44.0</ele><time>2026-05-02T17:39:22.789Z</time></trkpt><trkpt lat="42.976405" lon="10.817005"><ele>44.0</ele><time>2026-05-02T17:39:23.789Z</time></trkpt><trkpt lat="42.97629" lon="10.81687"><ele>44.0</ele><time>2026-05-02T17:39:24.789Z</time></trkpt><trkpt lat="42.9761767" lon="10.816735"><ele>43.75</ele><time>2026-05-02T17:39:25.789Z</time></trkpt><trkpt lat="42.976065" lon="10.8165983"><ele>43.5</ele><time>2026-05-02T17:39:26.786Z</time></trkpt><trkpt lat="42.9759583" lon="10.8164617"><ele>43.25</ele><time>2026-05-02T17:39:27.787Z</time></trkpt><trkpt lat="42.9758517" lon="10.8163317"><ele>43.0</ele><time>2026-05-02T17:39:28.787Z</time></trkpt><trkpt lat="42.97575" lon="10.8162067"><ele>43.0</ele><time>2026-05-02T17:39:29.787Z</time></trkpt><trkpt lat="42.9756467" lon="10.816085"><ele>43.0</ele><time>2026-05-02T17:39:30.786Z</time></trkpt><trkpt lat="42.975545" lon="10.8159617"><ele>43.0</ele><time>2026-05-02T17:39:31.786Z</time></trkpt><trkpt lat="42.9754417" lon="10.8158417"><ele>43.0</ele><time>2026-05-02T17:39:32.787Z</time></trkpt><trkpt lat="42.9753483" lon="10.8157283"><ele>42.4</ele><time>2026-05-02T17:39:33.789Z</time></trkpt><trkpt lat="42.9752633" lon="10.8156217"><ele>41.8</ele><time>2026-05-02T17:39:34.789Z</time></trkpt><trkpt lat="42.97519" lon="10.8155267"><ele>41.2</ele><time>2026-05-02T17:39:35.789Z</time></trkpt><trkpt lat="42.9751317" lon="10.8154333"><ele>40.6</ele><time>2026-05-02T17:39:36.789Z</time></trkpt><trkpt lat="42.975085" lon="10.815335"><ele>40.0</ele><time>2026-05-02T17:39:37.786Z</time></trkpt><trkpt lat="42.9750567" lon="10.81523"><ele>39.833333333333336</ele><time>2026-05-02T17:39:38.786Z</time></trkpt><trkpt lat="42.97505" lon="10.8151283"><ele>39.66666666666667</ele><time>2026-05-02T17:39:39.786Z</time></trkpt><trkpt lat="42.9750433" lon="10.8150383"><ele>39.5</ele><time>2026-05-02T17:39:40.787Z</time></trkpt><trkpt lat="42.974985" lon="10.8148933"><ele>39.333333333333336</ele><time>2026-05-02T17:39:42.789Z</time></trkpt><trkpt lat="42.9749267" lon="10.8148467"><ele>39.166666666666664</ele><time>2026-05-02T17:39:43.789Z</time></trkpt><trkpt lat="42.9748533" lon="10.8148217"><ele>39.0</ele><time>2026-05-02T17:39:44.79Z</time></trkpt><trkpt lat="42.9747717" lon="10.8148033"><ele>39.0</ele><time>2026-05-02T17:39:45.785Z</time></trkpt><trkpt lat="42.9746817" lon="10.81478"><ele>39.0</ele><time>2026-05-02T17:39:46.786Z</time></trkpt><trkpt lat="42.9745917" lon="10.8147117"><ele>39.0</ele><time>2026-05-02T17:39:47.787Z</time></trkpt><trkpt lat="42.9744967" lon="10.8146117"><ele>39.0</ele><time>2026-05-02T17:39:48.786Z</time></trkpt><trkpt lat="42.9743717" lon="10.8144533"><ele>37.666666666666664</ele><time>2026-05-02T17:39:49.786Z</time></trkpt><trkpt lat="42.9742317" lon="10.814285"><ele>36.33333333333333</ele><time>2026-05-02T17:39:50.79Z</time></trkpt><trkpt lat="42.9740883" lon="10.8141183"><ele>35.0</ele><time>2026-05-02T17:39:51.789Z</time></trkpt><trkpt lat="42.973935" lon="10.8139433"><ele>35.0</ele><time>2026-05-02T17:39:52.789Z</time></trkpt><trkpt lat="42.9737717" lon="10.813755"><ele>35.0</ele><time>2026-05-02T17:39:53.79Z</time></trkpt><trkpt lat="42.973605" lon="10.813555"><ele>35.0</ele><time>2026-05-02T17:39:54.789Z</time></trkpt><trkpt lat="42.97343" lon="10.8133533"><ele>32.5</ele><time>2026-05-02T17:39:55.789Z</time></trkpt><trkpt lat="42.9732533" lon="10.8131467"><ele>30.0</ele><time>2026-05-02T17:39:56.786Z</time></trkpt><trkpt lat="42.9730767" lon="10.8129383"><ele>30.0</ele><time>2026-05-02T17:39:57.786Z</time></trkpt><trkpt lat="42.972905" lon="10.8127367"><ele>30.0</ele><time>2026-05-02T17:39:58.788Z</time></trkpt><trkpt lat="42.97274" lon="10.8125433"><ele>30.0</ele><time>2026-05-02T17:39:59.787Z</time></trkpt><trkpt lat="42.972575" lon="10.8123517"><ele>29.666666666666664</ele><time>2026-05-02T17:40:00.786Z</time></trkpt><trkpt lat="42.97241" lon="10.81216"><ele>29.333333333333332</ele><time>2026-05-02T17:40:01.787Z</time></trkpt><trkpt lat="42.9722417" lon="10.8119633"><ele>29.0</ele><time>2026-05-02T17:40:02.787Z</time></trkpt><trkpt lat="42.9720733" lon="10.8117667"><ele>29.0</ele><time>2026-05-02T17:40:03.789Z</time></trkpt><trkpt lat="42.9719" lon="10.81157"><ele>29.0</ele><time>2026-05-02T17:40:04.789Z</time></trkpt><trkpt lat="42.9717267" lon="10.8113733"><ele>29.5</ele><time>2026-05-02T17:40:05.789Z</time></trkpt><trkpt lat="42.97155" lon="10.8111783"><ele>30.0</ele><time>2026-05-02T17:40:06.789Z</time></trkpt><trkpt lat="42.971375" lon="10.81098"><ele>28.5</ele><time>2026-05-02T17:40:07.786Z</time></trkpt><trkpt lat="42.9711983" lon="10.81078"><ele>27.0</ele><time>2026-05-02T17:40:08.786Z</time></trkpt><trkpt lat="42.9710217" lon="10.8105817"><ele>28.0</ele><time>2026-05-02T17:40:09.786Z</time></trkpt><trkpt lat="42.970845" lon="10.8103783"><ele>29.0</ele><time>2026-05-02T17:40:10.788Z</time></trkpt><trkpt lat="42.97067" lon="10.810175"><ele>28.0</ele><time>2026-05-02T17:40:11.787Z</time></trkpt><trkpt lat="42.970495" lon="10.8099717"><ele>27.0</ele><time>2026-05-02T17:40:12.786Z</time></trkpt><trkpt lat="42.9703167" lon="10.8097717"><ele>27.0</ele><time>2026-05-02T17:40:13.788Z</time></trkpt><trkpt lat="42.9701483" lon="10.8095783"><ele>27.0</ele><time>2026-05-02T17:40:14.788Z</time></trkpt><trkpt lat="42.9699883" lon="10.8093967"><ele>27.0</ele><time>2026-05-02T17:40:15.788Z</time></trkpt><trkpt lat="42.9698383" lon="10.80922"><ele>26.666666666666664</ele><time>2026-05-02T17:40:16.789Z</time></trkpt><trkpt lat="42.9696967" lon="10.80904"><ele>26.333333333333332</ele><time>2026-05-02T17:40:17.789Z</time></trkpt><trkpt lat="42.96957" lon="10.808845"><ele>26.0</ele><time>2026-05-02T17:40:18.789Z</time></trkpt><trkpt lat="42.9694617" lon="10.8086317"><ele>24.666666666666664</ele><time>2026-05-02T17:40:19.788Z</time></trkpt><trkpt lat="42.9693817" lon="10.8084033"><ele>23.333333333333332</ele><time>2026-05-02T17:40:20.789Z</time></trkpt><trkpt lat="42.969325" lon="10.8081633"><ele>22.0</ele><time>2026-05-02T17:40:21.789Z</time></trkpt><trkpt lat="42.96929" lon="10.807915"><ele>22.0</ele><time>2026-05-02T17:40:22.788Z</time></trkpt><trkpt lat="42.9692833" lon="10.8076633"><ele>22.0</ele><time>2026-05-02T17:40:23.789Z</time></trkpt><trkpt lat="42.9692967" lon="10.8074117"><ele>22.0</ele><time>2026-05-02T17:40:24.789Z</time></trkpt><trkpt lat="42.96933" lon="10.8071583"><ele>22.666666666666664</ele><time>2026-05-02T17:40:25.789Z</time></trkpt><trkpt lat="42.9693767" lon="10.8069067"><ele>23.333333333333332</ele><time>2026-05-02T17:40:26.788Z</time></trkpt><trkpt lat="42.9694233" lon="10.8066533"><ele>24.0</ele><time>2026-05-02T17:40:27.789Z</time></trkpt><trkpt lat="42.9694633" lon="10.806415"><ele>24.333333333333336</ele><time>2026-05-02T17:40:28.789Z</time></trkpt><trkpt lat="42.9695" lon="10.80619"><ele>24.666666666666668</ele><time>2026-05-02T17:40:29.788Z</time></trkpt><trkpt lat="42.9695233" lon="10.8059733"><ele>25.0</ele><time>2026-05-02T17:40:30.789Z</time></trkpt><trkpt lat="42.969535" lon="10.8057567"><ele>25.0</ele><time>2026-05-02T17:40:31.789Z</time></trkpt><trkpt lat="42.969525" lon="10.805535"><ele>25.0</ele><time>2026-05-02T17:40:32.788Z</time></trkpt><trkpt lat="42.9694967" lon="10.8053067"><ele>25.0</ele><time>2026-05-02T17:40:33.786Z</time></trkpt><trkpt lat="42.969455" lon="10.805085"><ele>25.0</ele><time>2026-05-02T17:40:34.79Z</time></trkpt><trkpt lat="42.9694017" lon="10.8048783"><ele>25.0</ele><time>2026-05-02T17:40:35.79Z</time></trkpt><trkpt lat="42.96935" lon="10.8046967"><ele>25.0</ele><time>2026-05-02T17:40:36.785Z</time></trkpt><trkpt lat="42.9693117" lon="10.80454"><ele>25.0</ele><time>2026-05-02T17:40:37.788Z</time></trkpt><trkpt lat="42.9692817" lon="10.8044"><ele>25.000000000000004</ele><time>2026-05-02T17:40:38.789Z</time></trkpt><trkpt lat="42.9692533" lon="10.804275"><ele>25.0</ele><time>2026-05-02T17:40:39.788Z</time></trkpt><trkpt lat="42.969215" lon="10.8041667"><ele>25.0</ele><time>2026-05-02T17:40:40.788Z</time></trkpt><trkpt lat="42.969155" lon="10.8040833"><ele>25.0</ele><time>2026-05-02T17:40:41.789Z</time></trkpt><trkpt lat="42.9690817" lon="10.804035"><ele>25.000000000000004</ele><time>2026-05-02T17:40:42.788Z</time></trkpt><trkpt lat="42.968995" lon="10.8040317"><ele>25.0</ele><time>2026-05-02T17:40:43.789Z</time></trkpt><trkpt lat="42.9688917" lon="10.804075"><ele>24.75</ele><time>2026-05-02T17:40:44.789Z</time></trkpt><trkpt lat="42.9687667" lon="10.8041183"><ele>24.5</ele><time>2026-05-02T17:40:45.788Z</time></trkpt><trkpt lat="42.9686233" lon="10.8041183"><ele>24.25</ele><time>2026-05-02T17:40:46.789Z</time></trkpt><trkpt lat="42.9684567" lon="10.80408"><ele>24.0</ele><time>2026-05-02T17:40:47.788Z</time></trkpt><trkpt lat="42.9682717" lon="10.8040117"><ele>23.333333333333332</ele><time>2026-05-02T17:40:48.788Z</time></trkpt><trkpt lat="42.9680683" lon="10.8039233"><ele>22.666666666666664</ele><time>2026-05-02T17:40:49.789Z</time></trkpt><trkpt lat="42.967855" lon="10.8038167"><ele>22.0</ele><time>2026-05-02T17:40:50.789Z</time></trkpt><trkpt lat="42.96763" lon="10.8036783"><ele>22.0</ele><time>2026-05-02T17:40:51.789Z</time></trkpt><trkpt lat="42.967405" lon="10.8035133"><ele>22.0</ele><time>2026-05-02T17:40:52.789Z</time></trkpt><trkpt lat="42.9671783" lon="10.803325"><ele>22.0</ele><time>2026-05-02T17:40:53.789Z</time></trkpt><trkpt lat="42.9669517" lon="10.8031167"><ele>22.0</ele><time>2026-05-02T17:40:54.789Z</time></trkpt><trkpt lat="42.96672" lon="10.8029033"><ele>21.5</ele><time>2026-05-02T17:40:55.788Z</time></trkpt><trkpt lat="42.9664833" lon="10.8026883"><ele>21.0</ele><time>2026-05-02T17:40:56.789Z</time></trkpt><trkpt lat="42.9662483" lon="10.8024783"><ele>21.0</ele><time>2026-05-02T17:40:57.788Z</time></trkpt><trkpt lat="42.96602" lon="10.802275"><ele>21.0</ele><time>2026-05-02T17:40:58.789Z</time></trkpt><trkpt lat="42.9657967" lon="10.8020683"><ele>21.0</ele><time>2026-05-02T17:40:59.788Z</time></trkpt><trkpt lat="42.9655767" lon="10.8018667"><ele>21.0</ele><time>2026-05-02T17:41:00.788Z</time></trkpt><trkpt lat="42.965355" lon="10.8016683"><ele>21.0</ele><time>2026-05-02T17:41:01.788Z</time></trkpt><trkpt lat="42.96514" lon="10.80147"><ele>21.0</ele><time>2026-05-02T17:41:02.788Z</time></trkpt><trkpt lat="42.9649267" lon="10.8012767"><ele>21.0</ele><time>2026-05-02T17:41:03.789Z</time></trkpt><trkpt lat="42.96471" lon="10.8010833"><ele>21.0</ele><time>2026-05-02T17:41:04.788Z</time></trkpt><trkpt lat="42.964495" lon="10.8008917"><ele>21.0</ele><time>2026-05-02T17:41:05.79Z</time></trkpt><trkpt lat="42.96428" lon="10.8007"><ele>21.0</ele><time>2026-05-02T17:41:06.788Z</time></trkpt><trkpt lat="42.964065" lon="10.80051"><ele>21.0</ele><time>2026-05-02T17:41:07.788Z</time></trkpt><trkpt lat="42.96385" lon="10.8003183"><ele>21.0</ele><time>2026-05-02T17:41:08.788Z</time></trkpt><trkpt lat="42.963635" lon="10.8001267"><ele>21.0</ele><time>2026-05-02T17:41:09.788Z</time></trkpt><trkpt lat="42.9634233" lon="10.799935"><ele>21.0</ele><time>2026-05-02T17:41:10.789Z</time></trkpt><trkpt lat="42.9632133" lon="10.7997417"><ele>21.0</ele><time>2026-05-02T17:41:11.791Z</time></trkpt><trkpt lat="42.9630067" lon="10.79955"><ele>21.0</ele><time>2026-05-02T17:41:12.788Z</time></trkpt><trkpt lat="42.9627967" lon="10.7993583"><ele>21.0</ele><time>2026-05-02T17:41:13.789Z</time></trkpt><trkpt lat="42.9625867" lon="10.7991667"><ele>21.0</ele><time>2026-05-02T17:41:14.788Z</time></trkpt><trkpt lat="42.9623767" lon="10.798975"><ele>20.5</ele><time>2026-05-02T17:41:15.789Z</time></trkpt><trkpt lat="42.9621683" lon="10.798785"><ele>20.0</ele><time>2026-05-02T17:41:16.788Z</time></trkpt><trkpt lat="42.9619583" lon="10.7985933"><ele>21.0</ele><time>2026-05-02T17:41:17.789Z</time></trkpt><trkpt lat="42.96175" lon="10.798405"><ele>22.0</ele><time>2026-05-02T17:41:18.788Z</time></trkpt><trkpt lat="42.96154" lon="10.7982183"><ele>22.0</ele><time>2026-05-02T17:41:19.788Z</time></trkpt><trkpt lat="42.9613317" lon="10.79803"><ele>22.0</ele><time>2026-05-02T17:41:20.789Z</time></trkpt><trkpt lat="42.9611267" lon="10.7978433"><ele>23.0</ele><time>2026-05-02T17:41:21.788Z</time></trkpt><trkpt lat="42.960925" lon="10.7976617"><ele>24.0</ele><time>2026-05-02T17:41:22.789Z</time></trkpt><trkpt lat="42.96073" lon="10.7974833"><ele>24.0</ele><time>2026-05-02T17:41:23.789Z</time></trkpt><trkpt lat="42.9605383" lon="10.7973083"><ele>24.0</ele><time>2026-05-02T17:41:24.789Z</time></trkpt><trkpt lat="42.9603467" lon="10.7971367"><ele>24.0</ele><time>2026-05-02T17:41:25.785Z</time></trkpt><trkpt lat="42.96016" lon="10.7969667"><ele>24.0</ele><time>2026-05-02T17:41:26.788Z</time></trkpt><trkpt lat="42.95997" lon="10.796795"><ele>26.0</ele><time>2026-05-02T17:41:27.79Z</time></trkpt><trkpt lat="42.95978" lon="10.7966217"><ele>28.0</ele><time>2026-05-02T17:41:28.788Z</time></trkpt><trkpt lat="42.95959" lon="10.796445"><ele>28.0</ele><time>2026-05-02T17:41:29.789Z</time></trkpt><trkpt lat="42.9594033" lon="10.79627"><ele>28.0</ele><time>2026-05-02T17:41:30.788Z</time></trkpt><trkpt lat="42.9592167" lon="10.7961"><ele>29.0</ele><time>2026-05-02T17:41:31.789Z</time></trkpt><trkpt lat="42.9590333" lon="10.7959317"><ele>30.0</ele><time>2026-05-02T17:41:32.789Z</time></trkpt><trkpt lat="42.9588533" lon="10.7957667"><ele>31.0</ele><time>2026-05-02T17:41:33.789Z</time></trkpt><trkpt lat="42.9586733" lon="10.7956033"><ele>31.0</ele><time>2026-05-02T17:41:34.789Z</time></trkpt><trkpt lat="42.9584933" lon="10.7954383"><ele>31.0</ele><time>2026-05-02T17:41:35.789Z</time></trkpt><trkpt lat="42.958315" lon="10.7952717"><ele>31.0</ele><time>2026-05-02T17:41:36.785Z</time></trkpt><trkpt lat="42.9581367" lon="10.7951067"><ele>31.333333333333336</ele><time>2026-05-02T17:41:37.788Z</time></trkpt><trkpt lat="42.9579617" lon="10.7949417"><ele>31.666666666666664</ele><time>2026-05-02T17:41:38.788Z</time></trkpt><trkpt lat="42.957785" lon="10.794775"><ele>32.0</ele><time>2026-05-02T17:41:39.789Z</time></trkpt><trkpt lat="42.9576067" lon="10.7946067"><ele>32.0</ele><time>2026-05-02T17:41:40.789Z</time></trkpt><trkpt lat="42.9574283" lon="10.79444"><ele>32.0</ele><time>2026-05-02T17:41:41.79Z</time></trkpt><trkpt lat="42.9572483" lon="10.79427"><ele>32.0</ele><time>2026-05-02T17:41:42.788Z</time></trkpt><trkpt lat="42.9570667" lon="10.7940983"><ele>32.0</ele><time>2026-05-02T17:41:43.79Z</time></trkpt><trkpt lat="42.9568883" lon="10.7939267"><ele>32.0</ele><time>2026-05-02T17:41:44.788Z</time></trkpt><trkpt lat="42.9567067" lon="10.793755"><ele>32.0</ele><time>2026-05-02T17:41:45.789Z</time></trkpt><trkpt lat="42.9565233" lon="10.7935833"><ele>32.33333333333333</ele><time>2026-05-02T17:41:46.788Z</time></trkpt><trkpt lat="42.9563417" lon="10.7934117"><ele>32.666666666666664</ele><time>2026-05-02T17:41:47.79Z</time></trkpt><trkpt lat="42.9561617" lon="10.7932417"><ele>33.0</ele><time>2026-05-02T17:41:48.788Z</time></trkpt><trkpt lat="42.9559817" lon="10.793075"><ele>32.666666666666664</ele><time>2026-05-02T17:41:49.789Z</time></trkpt><trkpt lat="42.9557983" lon="10.7929067"><ele>32.33333333333333</ele><time>2026-05-02T17:41:50.789Z</time></trkpt><trkpt lat="42.955615" lon="10.79274"><ele>32.0</ele><time>2026-05-02T17:41:51.789Z</time></trkpt><trkpt lat="42.95543" lon="10.7925717"><ele>32.0</ele><time>2026-05-02T17:41:52.79Z</time></trkpt><trkpt lat="42.955245" lon="10.7924"><ele>32.0</ele><time>2026-05-02T17:41:53.789Z</time></trkpt><trkpt lat="42.9550583" lon="10.7922283"><ele>32.0</ele><time>2026-05-02T17:41:54.789Z</time></trkpt><trkpt lat="42.9548667" lon="10.7920533"><ele>30.5</ele><time>2026-05-02T17:41:55.788Z</time></trkpt><trkpt lat="42.9546783" lon="10.7918783"><ele>29.0</ele><time>2026-05-02T17:41:56.788Z</time></trkpt><trkpt lat="42.954485" lon="10.7917017"><ele>29.0</ele><time>2026-05-02T17:41:57.785Z</time></trkpt><trkpt lat="42.9542917" lon="10.7915233"><ele>29.0</ele><time>2026-05-02T17:41:58.79Z</time></trkpt><trkpt lat="42.9540983" lon="10.791345"><ele>27.5</ele><time>2026-05-02T17:41:59.789Z</time></trkpt><trkpt lat="42.9539017" lon="10.791165"><ele>26.0</ele><time>2026-05-02T17:42:00.79Z</time></trkpt><trkpt lat="42.9537033" lon="10.790985"><ele>26.0</ele><time>2026-05-02T17:42:01.789Z</time></trkpt><trkpt lat="42.953505" lon="10.7908067"><ele>26.0</ele><time>2026-05-02T17:42:02.788Z</time></trkpt><trkpt lat="42.9533133" lon="10.7906267"><ele>26.5</ele><time>2026-05-02T17:42:03.789Z</time></trkpt><trkpt lat="42.9531167" lon="10.7904467"><ele>27.0</ele><time>2026-05-02T17:42:04.788Z</time></trkpt><trkpt lat="42.9529167" lon="10.790265"><ele>27.0</ele><time>2026-05-02T17:42:05.789Z</time></trkpt><trkpt lat="42.9527167" lon="10.7900817"><ele>27.0</ele><time>2026-05-02T17:42:06.788Z</time></trkpt><trkpt lat="42.952515" lon="10.7898983"><ele>27.0</ele><time>2026-05-02T17:42:07.79Z</time></trkpt><trkpt lat="42.952315" lon="10.7897083"><ele>27.0</ele><time>2026-05-02T17:42:08.788Z</time></trkpt><trkpt lat="42.9521167" lon="10.78951"><ele>27.0</ele><time>2026-05-02T17:42:09.789Z</time></trkpt><trkpt lat="42.9519267" lon="10.789305"><ele>27.0</ele><time>2026-05-02T17:42:10.789Z</time></trkpt><trkpt lat="42.9517467" lon="10.7890867"><ele>26.0</ele><time>2026-05-02T17:42:11.789Z</time></trkpt><trkpt lat="42.9515783" lon="10.7888533"><ele>25.0</ele><time>2026-05-02T17:42:12.789Z</time></trkpt><trkpt lat="42.9514267" lon="10.7886067"><ele>24.0</ele><time>2026-05-02T17:42:13.789Z</time></trkpt><trkpt lat="42.9512883" lon="10.788345"><ele>23.0</ele><time>2026-05-02T17:42:14.79Z</time></trkpt><trkpt lat="42.95116" lon="10.78807"><ele>23.0</ele><time>2026-05-02T17:42:15.789Z</time></trkpt><trkpt lat="42.9510467" lon="10.787785"><ele>23.0</ele><time>2026-05-02T17:42:16.788Z</time></trkpt><trkpt lat="42.9509467" lon="10.78749"><ele>24.0</ele><time>2026-05-02T17:42:17.79Z</time></trkpt><trkpt lat="42.95086" lon="10.7871917"><ele>25.0</ele><time>2026-05-02T17:42:18.788Z</time></trkpt><trkpt lat="42.9507767" lon="10.7868933"><ele>25.0</ele><time>2026-05-02T17:42:19.789Z</time></trkpt><trkpt lat="42.9506983" lon="10.786595"><ele>25.0</ele><time>2026-05-02T17:42:20.788Z</time></trkpt><trkpt lat="42.9506233" lon="10.7862967"><ele>25.5</ele><time>2026-05-02T17:42:21.789Z</time></trkpt><trkpt lat="42.950545" lon="10.7859967"><ele>26.0</ele><time>2026-05-02T17:42:22.788Z</time></trkpt><trkpt lat="42.950455" lon="10.78568"><ele>26.0</ele><time>2026-05-02T17:42:23.789Z</time></trkpt><trkpt lat="42.9503583" lon="10.7853483"><ele>26.0</ele><time>2026-05-02T17:42:24.789Z</time></trkpt><trkpt lat="42.9502667" lon="10.7850033"><ele>26.0</ele><time>2026-05-02T17:42:25.788Z</time></trkpt><trkpt lat="42.9501817" lon="10.784645"><ele>26.0</ele><time>2026-05-02T17:42:26.789Z</time></trkpt><trkpt lat="42.950095" lon="10.784275"><ele>27.5</ele><time>2026-05-02T17:42:27.788Z</time></trkpt><trkpt lat="42.9500067" lon="10.7839"><ele>29.0</ele><time>2026-05-02T17:42:28.788Z</time></trkpt><trkpt lat="42.9499167" lon="10.78353"><ele>28.5</ele><time>2026-05-02T17:42:29.79Z</time></trkpt><trkpt lat="42.949825" lon="10.7831717"><ele>28.0</ele><time>2026-05-02T17:42:30.788Z</time></trkpt><trkpt lat="42.949725" lon="10.78283"><ele>29.5</ele><time>2026-05-02T17:42:31.788Z</time></trkpt><trkpt lat="42.9496167" lon="10.78251"><ele>31.0</ele><time>2026-05-02T17:42:32.789Z</time></trkpt><trkpt lat="42.9494883" lon="10.7822133"><ele>31.0</ele><time>2026-05-02T17:42:33.789Z</time></trkpt><trkpt lat="42.949345" lon="10.781935"><ele>31.0</ele><time>2026-05-02T17:42:34.788Z</time></trkpt><trkpt lat="42.9491833" lon="10.781685"><ele>32.0</ele><time>2026-05-02T17:42:35.789Z</time></trkpt><trkpt lat="42.949" lon="10.7814617"><ele>33.0</ele><time>2026-05-02T17:42:36.788Z</time></trkpt><trkpt lat="42.9487983" lon="10.7812633"><ele>33.0</ele><time>2026-05-02T17:42:37.79Z</time></trkpt><trkpt lat="42.9485767" lon="10.78109"><ele>33.0</ele><time>2026-05-02T17:42:38.789Z</time></trkpt><trkpt lat="42.9483333" lon="10.78095"><ele>32.0</ele><time>2026-05-02T17:42:39.789Z</time></trkpt><trkpt lat="42.9480783" lon="10.7808383"><ele>31.0</ele><time>2026-05-02T17:42:40.789Z</time></trkpt><trkpt lat="42.94781" lon="10.780755"><ele>30.5</ele><time>2026-05-02T17:42:41.79Z</time></trkpt><trkpt lat="42.947535" lon="10.7806883"><ele>30.0</ele><time>2026-05-02T17:42:42.789Z</time></trkpt><trkpt lat="42.9472483" lon="10.7806267"><ele>30.0</ele><time>2026-05-02T17:42:43.789Z</time></trkpt><trkpt lat="42.9469567" lon="10.780565"><ele>30.0</ele><time>2026-05-02T17:42:44.789Z</time></trkpt><trkpt lat="42.9466683" lon="10.7805033"><ele>30.5</ele><time>2026-05-02T17:42:45.788Z</time></trkpt><trkpt lat="42.9463867" lon="10.7804433"><ele>31.0</ele><time>2026-05-02T17:42:46.789Z</time></trkpt><trkpt lat="42.9461117" lon="10.7803833"><ele>30.5</ele><time>2026-05-02T17:42:47.789Z</time></trkpt><trkpt lat="42.9458483" lon="10.7803267"><ele>30.0</ele><time>2026-05-02T17:42:48.789Z</time></trkpt><trkpt lat="42.94559" lon="10.780275"><ele>30.0</ele><time>2026-05-02T17:42:49.789Z</time></trkpt><trkpt lat="42.9453467" lon="10.7802167"><ele>30.0</ele><time>2026-05-02T17:42:50.788Z</time></trkpt><trkpt lat="42.9451117" lon="10.78016"><ele>30.0</ele><time>2026-05-02T17:42:51.789Z</time></trkpt><trkpt lat="42.944885" lon="10.7801033"><ele>30.0</ele><time>2026-05-02T17:42:52.789Z</time></trkpt><trkpt lat="42.9446583" lon="10.7800483"><ele>30.0</ele><time>2026-05-02T17:42:53.789Z</time></trkpt><trkpt lat="42.94444" lon="10.7799933"><ele>30.0</ele><time>2026-05-02T17:42:54.785Z</time></trkpt><trkpt lat="42.9442217" lon="10.7799417"><ele>30.0</ele><time>2026-05-02T17:42:55.79Z</time></trkpt><trkpt lat="42.94401" lon="10.77989"><ele>29.666666666666664</ele><time>2026-05-02T17:42:56.79Z</time></trkpt><trkpt lat="42.9437983" lon="10.7798417"><ele>29.333333333333332</ele><time>2026-05-02T17:42:57.789Z</time></trkpt><trkpt lat="42.9435867" lon="10.7797967"><ele>29.0</ele><time>2026-05-02T17:42:58.788Z</time></trkpt><trkpt lat="42.9433717" lon="10.77976"><ele>29.0</ele><time>2026-05-02T17:42:59.789Z</time></trkpt><trkpt lat="42.9431617" lon="10.7797367"><ele>29.0</ele><time>2026-05-02T17:43:00.788Z</time></trkpt><trkpt lat="42.94295" lon="10.77973"><ele>29.0</ele><time>2026-05-02T17:43:01.789Z</time></trkpt><trkpt lat="42.942735" lon="10.7797367"><ele>29.5</ele><time>2026-05-02T17:43:02.789Z</time></trkpt><trkpt lat="42.9425117" lon="10.7797533"><ele>30.0</ele><time>2026-05-02T17:43:03.789Z</time></trkpt><trkpt lat="42.9422783" lon="10.7797733"><ele>30.0</ele><time>2026-05-02T17:43:04.789Z</time></trkpt><trkpt lat="42.94204" lon="10.7797933"><ele>30.0</ele><time>2026-05-02T17:43:05.789Z</time></trkpt><trkpt lat="42.9417967" lon="10.779815"><ele>29.0</ele><time>2026-05-02T17:43:06.789Z</time></trkpt><trkpt lat="42.941555" lon="10.7798333"><ele>28.0</ele><time>2026-05-02T17:43:07.789Z</time></trkpt><trkpt lat="42.9413133" lon="10.7798517"><ele>28.0</ele><time>2026-05-02T17:43:08.789Z</time></trkpt><trkpt lat="42.94107" lon="10.7798733"><ele>28.0</ele><time>2026-05-02T17:43:09.79Z</time></trkpt><trkpt lat="42.940825" lon="10.7798933"><ele>29.0</ele><time>2026-05-02T17:43:10.789Z</time></trkpt><trkpt lat="42.9405817" lon="10.7799083"><ele>30.0</ele><time>2026-05-02T17:43:11.79Z</time></trkpt><trkpt lat="42.9403417" lon="10.7799183"><ele>30.0</ele><time>2026-05-02T17:43:12.788Z</time></trkpt><trkpt lat="42.9401017" lon="10.7799217"><ele>30.0</ele><time>2026-05-02T17:43:13.79Z</time></trkpt><trkpt lat="42.9398667" lon="10.7799083"><ele>30.0</ele><time>2026-05-02T17:43:14.789Z</time></trkpt><trkpt lat="42.9396367" lon="10.77988"><ele>30.0</ele><time>2026-05-02T17:43:15.789Z</time></trkpt><trkpt lat="42.9394117" lon="10.7798317"><ele>29.666666666666664</ele><time>2026-05-02T17:43:16.789Z</time></trkpt><trkpt lat="42.939195" lon="10.7797633"><ele>29.333333333333332</ele><time>2026-05-02T17:43:17.789Z</time></trkpt><trkpt lat="42.9389833" lon="10.77968"><ele>29.0</ele><time>2026-05-02T17:43:18.788Z</time></trkpt><trkpt lat="42.9387767" lon="10.7795817"><ele>29.0</ele><time>2026-05-02T17:43:19.788Z</time></trkpt><trkpt lat="42.9385783" lon="10.7794667"><ele>29.0</ele><time>2026-05-02T17:43:20.789Z</time></trkpt><trkpt lat="42.93839" lon="10.7793367"><ele>29.0</ele><time>2026-05-02T17:43:21.79Z</time></trkpt><trkpt lat="42.9382117" lon="10.7792033"><ele>28.333333333333332</ele><time>2026-05-02T17:43:22.789Z</time></trkpt><trkpt lat="42.938055" lon="10.77907"><ele>27.666666666666664</ele><time>2026-05-02T17:43:23.789Z</time></trkpt><trkpt lat="42.9379133" lon="10.778935"><ele>27.0</ele><time>2026-05-02T17:43:24.789Z</time></trkpt><trkpt lat="42.9377833" lon="10.7787983"><ele>27.0</ele><time>2026-05-02T17:43:25.788Z</time></trkpt><trkpt lat="42.9376583" lon="10.7786517"><ele>27.0</ele><time>2026-05-02T17:43:26.789Z</time></trkpt><trkpt lat="42.937535" lon="10.7785033"><ele>27.0</ele><time>2026-05-02T17:43:27.79Z</time></trkpt><trkpt lat="42.93742" lon="10.7783517"><ele>26.666666666666664</ele><time>2026-05-02T17:43:28.789Z</time></trkpt><trkpt lat="42.9373067" lon="10.778195"><ele>26.333333333333332</ele><time>2026-05-02T17:43:29.789Z</time></trkpt><trkpt lat="42.93719" lon="10.7780367"><ele>26.0</ele><time>2026-05-02T17:43:30.789Z</time></trkpt><trkpt lat="42.93707" lon="10.7778817"><ele>26.0</ele><time>2026-05-02T17:43:31.789Z</time></trkpt><trkpt lat="42.9369533" lon="10.7777267"><ele>26.0</ele><time>2026-05-02T17:43:32.788Z</time></trkpt><trkpt lat="42.9368383" lon="10.777575"><ele>26.0</ele><time>2026-05-02T17:43:33.789Z</time></trkpt><trkpt lat="42.9367317" lon="10.7774333"><ele>26.0</ele><time>2026-05-02T17:43:34.789Z</time></trkpt><trkpt lat="42.9366283" lon="10.7773"><ele>26.0</ele><time>2026-05-02T17:43:35.79Z</time></trkpt><trkpt lat="42.9365333" lon="10.7771817"><ele>26.0</ele><time>2026-05-02T17:43:36.79Z</time></trkpt><trkpt lat="42.9364567" lon="10.77708"><ele>26.0</ele><time>2026-05-02T17:43:37.789Z</time></trkpt><trkpt lat="42.93639" lon="10.77698"><ele>26.0</ele><time>2026-05-02T17:43:38.789Z</time></trkpt><trkpt lat="42.9363317" lon="10.77687"><ele>26.0</ele><time>2026-05-02T17:43:39.789Z</time></trkpt><trkpt lat="42.936285" lon="10.7767517"><ele>26.0</ele><time>2026-05-02T17:43:40.786Z</time></trkpt><trkpt lat="42.93624" lon="10.7766383"><ele>26.0</ele><time>2026-05-02T17:43:41.786Z</time></trkpt><trkpt lat="42.9361967" lon="10.7765333"><ele>26.0</ele><time>2026-05-02T17:43:42.79Z</time></trkpt><trkpt lat="42.93614" lon="10.7764383"><ele>26.0</ele><time>2026-05-02T17:43:43.789Z</time></trkpt><trkpt lat="42.936075" lon="10.7763667"><ele>26.0</ele><time>2026-05-02T17:43:44.789Z</time></trkpt><trkpt lat="42.9359383" lon="10.7763167"><ele>26.0</ele><time>2026-05-02T17:43:46.789Z</time></trkpt><trkpt lat="42.935855" lon="10.7763517"><ele>26.0</ele><time>2026-05-02T17:43:47.79Z</time></trkpt><trkpt lat="42.9357683" lon="10.776395"><ele>26.0</ele><time>2026-05-02T17:43:48.79Z</time></trkpt><trkpt lat="42.9356733" lon="10.7764267"><ele>26.0</ele><time>2026-05-02T17:43:49.789Z</time></trkpt><trkpt lat="42.9355717" lon="10.776425"><ele>26.0</ele><time>2026-05-02T17:43:50.789Z</time></trkpt><trkpt lat="42.9354733" lon="10.7763867"><ele>26.0</ele><time>2026-05-02T17:43:51.789Z</time></trkpt><trkpt lat="42.9353817" lon="10.7763017"><ele>26.0</ele><time>2026-05-02T17:43:52.789Z</time></trkpt><trkpt lat="42.9352933" lon="10.7762067"><ele>26.0</ele><time>2026-05-02T17:43:53.789Z</time></trkpt><trkpt lat="42.9351917" lon="10.7761"><ele>26.0</ele><time>2026-05-02T17:43:54.789Z</time></trkpt><trkpt lat="42.935095" lon="10.77599"><ele>26.0</ele><time>2026-05-02T17:43:55.79Z</time></trkpt><trkpt lat="42.9349967" lon="10.7758783"><ele>26.0</ele><time>2026-05-02T17:43:56.789Z</time></trkpt><trkpt lat="42.93489" lon="10.77577"><ele>26.0</ele><time>2026-05-02T17:43:57.785Z</time></trkpt><trkpt lat="42.934785" lon="10.7756633"><ele>26.0</ele><time>2026-05-02T17:43:58.787Z</time></trkpt><trkpt lat="42.9346917" lon="10.7755633"><ele>26.0</ele><time>2026-05-02T17:43:59.789Z</time></trkpt><trkpt lat="42.9346017" lon="10.7754717"><ele>26.0</ele><time>2026-05-02T17:44:00.785Z</time></trkpt><trkpt lat="42.9345133" lon="10.7753817"><ele>26.0</ele><time>2026-05-02T17:44:01.785Z</time></trkpt><trkpt lat="42.9344333" lon="10.7752933"><ele>26.0</ele><time>2026-05-02T17:44:02.79Z</time></trkpt><trkpt lat="42.9343533" lon="10.7752117"><ele>25.6</ele><time>2026-05-02T17:44:03.785Z</time></trkpt><trkpt lat="42.9342833" lon="10.775135"><ele>25.200000000000003</ele><time>2026-05-02T17:44:04.789Z</time></trkpt><trkpt lat="42.93422" lon="10.7750683"><ele>24.799999999999997</ele><time>2026-05-02T17:44:05.79Z</time></trkpt><trkpt lat="42.9341667" lon="10.7750067"><ele>24.4</ele><time>2026-05-02T17:44:06.788Z</time></trkpt><trkpt lat="42.934085" lon="10.7748933"><ele>24.0</ele><time>2026-05-02T17:44:08.788Z</time></trkpt><trkpt lat="42.93401" lon="10.77478"><ele>23.857142857142854</ele><time>2026-05-02T17:44:10.791Z</time></trkpt><trkpt lat="42.9339517" lon="10.7747383"><ele>23.714285714285715</ele><time>2026-05-02T17:44:11.789Z</time></trkpt><trkpt lat="42.933895" lon="10.7746983"><ele>23.57142857142857</ele><time>2026-05-02T17:44:12.789Z</time></trkpt><trkpt lat="42.9338383" lon="10.7746483"><ele>23.428571428571427</ele><time>2026-05-02T17:44:13.789Z</time></trkpt><trkpt lat="42.9337833" lon="10.774585"><ele>23.285714285714285</ele><time>2026-05-02T17:44:14.789Z</time></trkpt><trkpt lat="42.9337167" lon="10.77452"><ele>23.142857142857142</ele><time>2026-05-02T17:44:15.789Z</time></trkpt><trkpt lat="42.9336467" lon="10.7744517"><ele>23.0</ele><time>2026-05-02T17:44:16.789Z</time></trkpt><trkpt lat="42.9335783" lon="10.7743817"><ele>22.599999999999998</ele><time>2026-05-02T17:44:17.791Z</time></trkpt><trkpt lat="42.9335017" lon="10.7743133"><ele>22.2</ele><time>2026-05-02T17:44:18.789Z</time></trkpt><trkpt lat="42.9334333" lon="10.7742367"><ele>21.8</ele><time>2026-05-02T17:44:19.787Z</time></trkpt><trkpt lat="42.9333533" lon="10.7741583"><ele>21.4</ele><time>2026-05-02T17:44:20.789Z</time></trkpt><trkpt lat="42.9332683" lon="10.7740783"><ele>21.0</ele><time>2026-05-02T17:44:21.789Z</time></trkpt><trkpt lat="42.93319" lon="10.773985"><ele>21.0</ele><time>2026-05-02T17:44:22.788Z</time></trkpt><trkpt lat="42.933105" lon="10.7738867"><ele>21.0</ele><time>2026-05-02T17:44:23.789Z</time></trkpt><trkpt lat="42.9330183" lon="10.77379"><ele>21.0</ele><time>2026-05-02T17:44:24.788Z</time></trkpt><trkpt lat="42.9329333" lon="10.7736883"><ele>21.0</ele><time>2026-05-02T17:44:25.789Z</time></trkpt><trkpt lat="42.932845" lon="10.7735883"><ele>21.0</ele><time>2026-05-02T17:44:26.786Z</time></trkpt><trkpt lat="42.9327533" lon="10.77349"><ele>21.0</ele><time>2026-05-02T17:44:27.79Z</time></trkpt><trkpt lat="42.93266" lon="10.7733933"><ele>21.0</ele><time>2026-05-02T17:44:28.79Z</time></trkpt><trkpt lat="42.932565" lon="10.7732967"><ele>21.0</ele><time>2026-05-02T17:44:29.786Z</time></trkpt><trkpt lat="42.9324683" lon="10.7731983"><ele>20.5</ele><time>2026-05-02T17:44:30.789Z</time></trkpt><trkpt lat="42.9323733" lon="10.7730983"><ele>20.0</ele><time>2026-05-02T17:44:31.786Z</time></trkpt><trkpt lat="42.9322783" lon="10.7730017"><ele>19.5</ele><time>2026-05-02T17:44:32.787Z</time></trkpt><trkpt lat="42.9321883" lon="10.772905"><ele>19.0</ele><time>2026-05-02T17:44:33.789Z</time></trkpt><trkpt lat="42.9321017" lon="10.7728117"><ele>19.0</ele><time>2026-05-02T17:44:34.786Z</time></trkpt><trkpt lat="42.93202" lon="10.77272"><ele>19.0</ele><time>2026-05-02T17:44:35.79Z</time></trkpt><trkpt lat="42.9319333" lon="10.7726283"><ele>19.0</ele><time>2026-05-02T17:44:36.789Z</time></trkpt><trkpt lat="42.93185" lon="10.7725317"><ele>19.0</ele><time>2026-05-02T17:44:37.789Z</time></trkpt><trkpt lat="42.93176" lon="10.7724333"><ele>19.0</ele><time>2026-05-02T17:44:38.79Z</time></trkpt><trkpt lat="42.9316667" lon="10.77233"><ele>19.25</ele><time>2026-05-02T17:44:39.789Z</time></trkpt><trkpt lat="42.9315733" lon="10.772225"><ele>19.5</ele><time>2026-05-02T17:44:40.789Z</time></trkpt><trkpt lat="42.93148" lon="10.7721217"><ele>19.75</ele><time>2026-05-02T17:44:41.789Z</time></trkpt><trkpt lat="42.9313867" lon="10.7720267"><ele>20.0</ele><time>2026-05-02T17:44:42.79Z</time></trkpt><trkpt lat="42.93131" lon="10.771935"><ele>19.8</ele><time>2026-05-02T17:44:43.789Z</time></trkpt><trkpt lat="42.9312283" lon="10.77185"><ele>19.6</ele><time>2026-05-02T17:44:44.79Z</time></trkpt><trkpt lat="42.931155" lon="10.77177"><ele>19.4</ele><time>2026-05-02T17:44:45.789Z</time></trkpt><trkpt lat="42.9310767" lon="10.7716983"><ele>19.2</ele><time>2026-05-02T17:44:46.789Z</time></trkpt><trkpt lat="42.931005" lon="10.77163"><ele>19.0</ele><time>2026-05-02T17:44:47.791Z</time></trkpt><trkpt lat="42.9309367" lon="10.771565"><ele>19.0</ele><time>2026-05-02T17:44:48.79Z</time></trkpt><trkpt lat="42.9308817" lon="10.771495"><ele>19.0</ele><time>2026-05-02T17:44:49.789Z</time></trkpt><trkpt lat="42.9308483" lon="10.7714067"><ele>19.0</ele><time>2026-05-02T17:44:50.789Z</time></trkpt><trkpt lat="42.9308133" lon="10.771325"><ele>19.0</ele><time>2026-05-02T17:44:51.789Z</time></trkpt><trkpt lat="42.9307717" lon="10.771245"><ele>19.0</ele><time>2026-05-02T17:44:52.789Z</time></trkpt><trkpt lat="42.93071" lon="10.771185"><ele>19.0</ele><time>2026-05-02T17:44:53.789Z</time></trkpt><trkpt lat="42.9306367" lon="10.7711433"><ele>19.0</ele><time>2026-05-02T17:44:54.789Z</time></trkpt><trkpt lat="42.9305483" lon="10.7710967"><ele>19.0</ele><time>2026-05-02T17:44:55.789Z</time></trkpt><trkpt lat="42.9304583" lon="10.771025"><ele>19.0</ele><time>2026-05-02T17:44:56.789Z</time></trkpt><trkpt lat="42.93037" lon="10.7709317"><ele>19.0</ele><time>2026-05-02T17:44:57.789Z</time></trkpt><trkpt lat="42.9302783" lon="10.7708283"><ele>19.0</ele><time>2026-05-02T17:44:58.786Z</time></trkpt><trkpt lat="42.9301767" lon="10.7707217"><ele>19.0</ele><time>2026-05-02T17:44:59.787Z</time></trkpt><trkpt lat="42.9300717" lon="10.7706117"><ele>19.0</ele><time>2026-05-02T17:45:00.785Z</time></trkpt><trkpt lat="42.9299717" lon="10.7705017"><ele>19.0</ele><time>2026-05-02T17:45:01.788Z</time></trkpt><trkpt lat="42.9298767" lon="10.770395"><ele>19.0</ele><time>2026-05-02T17:45:02.788Z</time></trkpt><trkpt lat="42.9297817" lon="10.7702967"><ele>18.8</ele><time>2026-05-02T17:45:03.789Z</time></trkpt><trkpt lat="42.92969" lon="10.770205"><ele>18.599999999999998</ele><time>2026-05-02T17:45:04.789Z</time></trkpt><trkpt lat="42.9296117" lon="10.7701167"><ele>18.4</ele><time>2026-05-02T17:45:05.79Z</time></trkpt><trkpt lat="42.9295317" lon="10.7700267"><ele>18.2</ele><time>2026-05-02T17:45:06.79Z</time></trkpt><trkpt lat="42.92945" lon="10.7699367"><ele>18.0</ele><time>2026-05-02T17:45:07.789Z</time></trkpt><trkpt lat="42.92936" lon="10.7698367"><ele>17.75</ele><time>2026-05-02T17:45:08.79Z</time></trkpt><trkpt lat="42.9292633" lon="10.7697333"><ele>17.5</ele><time>2026-05-02T17:45:09.789Z</time></trkpt><trkpt lat="42.9291533" lon="10.76962"><ele>17.25</ele><time>2026-05-02T17:45:10.789Z</time></trkpt><trkpt lat="42.929045" lon="10.7695017"><ele>17.0</ele><time>2026-05-02T17:45:11.787Z</time></trkpt><trkpt lat="42.9289283" lon="10.76938"><ele>16.25</ele><time>2026-05-02T17:45:12.789Z</time></trkpt><trkpt lat="42.928805" lon="10.76926"><ele>15.5</ele><time>2026-05-02T17:45:13.789Z</time></trkpt><trkpt lat="42.9286883" lon="10.7691467"><ele>14.75</ele><time>2026-05-02T17:45:14.789Z</time></trkpt><trkpt lat="42.928585" lon="10.769035"><ele>14.0</ele><time>2026-05-02T17:45:15.789Z</time></trkpt><trkpt lat="42.928485" lon="10.7689267"><ele>14.25</ele><time>2026-05-02T17:45:16.79Z</time></trkpt><trkpt lat="42.9283783" lon="10.7688267"><ele>14.5</ele><time>2026-05-02T17:45:17.789Z</time></trkpt><trkpt lat="42.9282817" lon="10.7687233"><ele>14.75</ele><time>2026-05-02T17:45:18.789Z</time></trkpt><trkpt lat="42.9281883" lon="10.7686183"><ele>15.0</ele><time>2026-05-02T17:45:19.787Z</time></trkpt><trkpt lat="42.9280967" lon="10.7685183"><ele>14.6</ele><time>2026-05-02T17:45:20.789Z</time></trkpt><trkpt lat="42.9280133" lon="10.768415"><ele>14.2</ele><time>2026-05-02T17:45:21.786Z</time></trkpt><trkpt lat="42.9279683" lon="10.7682983"><ele>13.8</ele><time>2026-05-02T17:45:22.789Z</time></trkpt><trkpt lat="42.92793" lon="10.7681817"><ele>13.4</ele><time>2026-05-02T17:45:23.79Z</time></trkpt><trkpt lat="42.9278917" lon="10.76807"><ele>13.0</ele><time>2026-05-02T17:45:24.789Z</time></trkpt><trkpt lat="42.9278517" lon="10.7679633"><ele>13.0</ele><time>2026-05-02T17:45:25.789Z</time></trkpt><trkpt lat="42.9278017" lon="10.76786"><ele>13.0</ele><time>2026-05-02T17:45:26.787Z</time></trkpt><trkpt lat="42.9277383" lon="10.7677717"><ele>13.0</ele><time>2026-05-02T17:45:27.787Z</time></trkpt><trkpt lat="42.9276533" lon="10.7677"><ele>13.0</ele><time>2026-05-02T17:45:28.786Z</time></trkpt><trkpt lat="42.92755" lon="10.76765"><ele>13.0</ele><time>2026-05-02T17:45:29.788Z</time></trkpt><trkpt lat="42.92744" lon="10.7676083"><ele>12.5</ele><time>2026-05-02T17:45:30.789Z</time></trkpt><trkpt lat="42.9273233" lon="10.7675633"><ele>12.0</ele><time>2026-05-02T17:45:31.786Z</time></trkpt><trkpt lat="42.9272067" lon="10.7675033"><ele>11.5</ele><time>2026-05-02T17:45:32.786Z</time></trkpt><trkpt lat="42.9271" lon="10.7674133"><ele>11.0</ele><time>2026-05-02T17:45:33.786Z</time></trkpt><trkpt lat="42.927" lon="10.76731"><ele>11.0</ele><time>2026-05-02T17:45:34.786Z</time></trkpt><trkpt lat="42.926915" lon="10.767215"><ele>11.0</ele><time>2026-05-02T17:45:35.789Z</time></trkpt><trkpt lat="42.926845" lon="10.7671367"><ele>11.0</ele><time>2026-05-02T17:45:36.789Z</time></trkpt><trkpt lat="42.9267833" lon="10.7670733"><ele>11.0</ele><time>2026-05-02T17:45:37.789Z</time></trkpt><trkpt lat="42.9267367" lon="10.7670067"><ele>11.0</ele><time>2026-05-02T17:45:38.789Z</time></trkpt><trkpt lat="42.9266783" lon="10.76695"><ele>11.0</ele><time>2026-05-02T17:45:39.79Z</time></trkpt><trkpt lat="42.9266067" lon="10.7669017"><ele>11.200000000000001</ele><time>2026-05-02T17:45:40.789Z</time></trkpt><trkpt lat="42.92653" lon="10.7668583"><ele>11.4</ele><time>2026-05-02T17:45:41.789Z</time></trkpt><trkpt lat="42.92645" lon="10.766815"><ele>11.6</ele><time>2026-05-02T17:45:42.789Z</time></trkpt><trkpt lat="42.9263683" lon="10.76676"><ele>11.8</ele><time>2026-05-02T17:45:43.786Z</time></trkpt><trkpt lat="42.926285" lon="10.766695"><ele>12.0</ele><time>2026-05-02T17:45:44.786Z</time></trkpt><trkpt lat="42.92621" lon="10.76661"><ele>12.0</ele><time>2026-05-02T17:45:45.79Z</time></trkpt><trkpt lat="42.9261317" lon="10.7665233"><ele>12.0</ele><time>2026-05-02T17:45:46.787Z</time></trkpt><trkpt lat="42.9260567" lon="10.76643"><ele>12.0</ele><time>2026-05-02T17:45:47.787Z</time></trkpt><trkpt lat="42.9259883" lon="10.76633"><ele>12.0</ele><time>2026-05-02T17:45:48.787Z</time></trkpt><trkpt lat="42.92592" lon="10.76623"><ele>12.0</ele><time>2026-05-02T17:45:49.789Z</time></trkpt><trkpt lat="42.9258533" lon="10.7661217"><ele>11.8</ele><time>2026-05-02T17:45:50.789Z</time></trkpt><trkpt lat="42.92579" lon="10.7660067"><ele>11.6</ele><time>2026-05-02T17:45:51.79Z</time></trkpt><trkpt lat="42.92573" lon="10.7658933"><ele>11.4</ele><time>2026-05-02T17:45:52.789Z</time></trkpt><trkpt lat="42.92567" lon="10.76578"><ele>11.200000000000001</ele><time>2026-05-02T17:45:53.789Z</time></trkpt><trkpt lat="42.92561" lon="10.76566"><ele>11.0</ele><time>2026-05-02T17:45:54.789Z</time></trkpt><trkpt lat="42.9255483" lon="10.765535"><ele>11.0</ele><time>2026-05-02T17:45:55.79Z</time></trkpt><trkpt lat="42.9254867" lon="10.7654117"><ele>11.0</ele><time>2026-05-02T17:45:56.788Z</time></trkpt><trkpt lat="42.92543" lon="10.7652983"><ele>11.0</ele><time>2026-05-02T17:45:57.786Z</time></trkpt><trkpt lat="42.92538" lon="10.765195"><ele>11.0</ele><time>2026-05-02T17:45:58.79Z</time></trkpt><trkpt lat="42.925335" lon="10.7651083"><ele>11.0</ele><time>2026-05-02T17:45:59.789Z</time></trkpt><trkpt lat="42.9252967" lon="10.7650317"><ele>11.0</ele><time>2026-05-02T17:46:00.789Z</time></trkpt><trkpt lat="42.9252367" lon="10.764915"><ele>10.8</ele><time>2026-05-02T17:46:02.787Z</time></trkpt><trkpt lat="42.9252" lon="10.7648283"><ele>10.600000000000001</ele><time>2026-05-02T17:46:04.79Z</time></trkpt><trkpt lat="42.9251717" lon="10.764735"><ele>10.4</ele><time>2026-05-02T17:46:06.789Z</time></trkpt><trkpt lat="42.9251517" lon="10.7646183"><ele>10.2</ele><time>2026-05-02T17:46:08.786Z</time></trkpt><trkpt lat="42.9251033" lon="10.76451"><ele>10.0</ele><time>2026-05-02T17:46:10.787Z</time></trkpt><trkpt lat="42.9249983" lon="10.7643983"><ele>10.0</ele><time>2026-05-02T17:46:12.791Z</time></trkpt><trkpt lat="42.92494" lon="10.7643317"><ele>10.0</ele><time>2026-05-02T17:46:13.787Z</time></trkpt><trkpt lat="42.92489" lon="10.76427"><ele>10.0</ele><time>2026-05-02T17:46:14.789Z</time></trkpt><trkpt lat="42.9248433" lon="10.7642033"><ele>10.0</ele><time>2026-05-02T17:46:15.786Z</time></trkpt><trkpt lat="42.9248067" lon="10.7641267"><ele>10.0</ele><time>2026-05-02T17:46:16.787Z</time></trkpt><trkpt lat="42.9247783" lon="10.76404"><ele>10.0</ele><time>2026-05-02T17:46:17.786Z</time></trkpt><trkpt lat="42.9247567" lon="10.7639483"><ele>10.0</ele><time>2026-05-02T17:46:18.786Z</time></trkpt><trkpt lat="42.9247367" lon="10.7638467"><ele>10.0</ele><time>2026-05-02T17:46:19.787Z</time></trkpt><trkpt lat="42.9247133" lon="10.763745"><ele>10.0</ele><time>2026-05-02T17:46:20.789Z</time></trkpt><trkpt lat="42.924685" lon="10.7636433"><ele>10.0</ele><time>2026-05-02T17:46:21.79Z</time></trkpt><trkpt lat="42.9246483" lon="10.763545"><ele>10.0</ele><time>2026-05-02T17:46:22.789Z</time></trkpt><trkpt lat="42.9246117" lon="10.76346"><ele>10.0</ele><time>2026-05-02T17:46:23.789Z</time></trkpt><trkpt lat="42.924575" lon="10.7633817"><ele>10.0</ele><time>2026-05-02T17:46:24.789Z</time></trkpt><trkpt lat="42.9245367" lon="10.763295"><ele>9.666666666666668</ele><time>2026-05-02T17:46:25.79Z</time></trkpt><trkpt lat="42.9244917" lon="10.7632033"><ele>9.333333333333334</ele><time>2026-05-02T17:46:26.789Z</time></trkpt><trkpt lat="42.9244483" lon="10.76311"><ele>9.0</ele><time>2026-05-02T17:46:27.785Z</time></trkpt><trkpt lat="42.924405" lon="10.7630217"><ele>8.666666666666666</ele><time>2026-05-02T17:46:28.787Z</time></trkpt><trkpt lat="42.9243633" lon="10.7629417"><ele>8.333333333333332</ele><time>2026-05-02T17:46:29.787Z</time></trkpt><trkpt lat="42.924325" lon="10.7628633"><ele>8.0</ele><time>2026-05-02T17:46:30.787Z</time></trkpt><trkpt lat="42.9242867" lon="10.7627817"><ele>7.999999999999999</ele><time>2026-05-02T17:46:31.788Z</time></trkpt><trkpt lat="42.924255" lon="10.762705"><ele>8.0</ele><time>2026-05-02T17:46:32.789Z</time></trkpt><trkpt lat="42.9242283" lon="10.7626267"><ele>8.0</ele><time>2026-05-02T17:46:33.789Z</time></trkpt><trkpt lat="42.924195" lon="10.7624833"><ele>8.0</ele><time>2026-05-02T17:46:35.786Z</time></trkpt><trkpt lat="42.9241533" lon="10.762385"><ele>7.999999999999999</ele><time>2026-05-02T17:46:37.785Z</time></trkpt><trkpt lat="42.9240683" lon="10.762295"><ele>8.0</ele><time>2026-05-02T17:46:39.788Z</time></trkpt><trkpt lat="42.9240217" lon="10.7622267"><ele>8.166666666666666</ele><time>2026-05-02T17:46:40.788Z</time></trkpt><trkpt lat="42.923975" lon="10.762145"><ele>8.333333333333332</ele><time>2026-05-02T17:46:41.785Z</time></trkpt><trkpt lat="42.9239317" lon="10.7620617"><ele>8.5</ele><time>2026-05-02T17:46:42.785Z</time></trkpt><trkpt lat="42.9238867" lon="10.761975"><ele>8.666666666666666</ele><time>2026-05-02T17:46:43.785Z</time></trkpt><trkpt lat="42.9238417" lon="10.7618817"><ele>8.833333333333334</ele><time>2026-05-02T17:46:44.788Z</time></trkpt><trkpt lat="42.9237933" lon="10.761785"><ele>9.0</ele><time>2026-05-02T17:46:45.787Z</time></trkpt><trkpt lat="42.923745" lon="10.7616833"><ele>9.0</ele><time>2026-05-02T17:46:46.789Z</time></trkpt><trkpt lat="42.9236967" lon="10.76158"><ele>9.0</ele><time>2026-05-02T17:46:47.788Z</time></trkpt><trkpt lat="42.9236483" lon="10.761475"><ele>9.0</ele><time>2026-05-02T17:46:48.789Z</time></trkpt><trkpt lat="42.9236033" lon="10.7613817"><ele>9.0</ele><time>2026-05-02T17:46:49.79Z</time></trkpt><trkpt lat="42.9235617" lon="10.7612917"><ele>9.0</ele><time>2026-05-02T17:46:50.785Z</time></trkpt><trkpt lat="42.9235217" lon="10.7612083"><ele>9.0</ele><time>2026-05-02T17:46:51.786Z</time></trkpt><trkpt lat="42.9234883" lon="10.7611317"><ele>9.0</ele><time>2026-05-02T17:46:52.787Z</time></trkpt><trkpt lat="42.9234333" lon="10.7610067"><ele>9.0</ele><time>2026-05-02T17:46:54.786Z</time></trkpt><trkpt lat="42.9234033" lon="10.7609117"><ele>9.0</ele><time>2026-05-02T17:46:56.786Z</time></trkpt><trkpt lat="42.9233633" lon="10.760805"><ele>9.0</ele><time>2026-05-02T17:46:59.785Z</time></trkpt><trkpt lat="42.9232967" lon="10.7606883"><ele>9.0</ele><time>2026-05-02T17:47:01.786Z</time></trkpt><trkpt lat="42.923245" lon="10.7605983"><ele>9.0</ele><time>2026-05-02T17:47:02.786Z</time></trkpt><trkpt lat="42.9231867" lon="10.7604967"><ele>9.0</ele><time>2026-05-02T17:47:03.789Z</time></trkpt><trkpt lat="42.9231283" lon="10.760395"><ele>9.0</ele><time>2026-05-02T17:47:04.788Z</time></trkpt><trkpt lat="42.9230733" lon="10.760295"><ele>9.0</ele><time>2026-05-02T17:47:05.786Z</time></trkpt><trkpt lat="42.9230217" lon="10.7601967"><ele>9.0</ele><time>2026-05-02T17:47:06.786Z</time></trkpt><trkpt lat="42.9229717" lon="10.7600983"><ele>9.0</ele><time>2026-05-02T17:47:07.789Z</time></trkpt><trkpt lat="42.9229317" lon="10.7600033"><ele>9.0</ele><time>2026-05-02T17:47:08.789Z</time></trkpt><trkpt lat="42.9228867" lon="10.7599117"><ele>9.0</ele><time>2026-05-02T17:47:09.789Z</time></trkpt><trkpt lat="42.9228467" lon="10.7598267"><ele>9.0</ele><time>2026-05-02T17:47:10.785Z</time></trkpt><trkpt lat="42.9227817" lon="10.7596983"><ele>9.0</ele><time>2026-05-02T17:47:12.785Z</time></trkpt><trkpt lat="42.92272" lon="10.7595883"><ele>9.0</ele><time>2026-05-02T17:47:14.789Z</time></trkpt><trkpt lat="42.9226617" lon="10.759515"><ele>9.0</ele><time>2026-05-02T17:47:16.785Z</time></trkpt><trkpt lat="42.9225917" lon="10.7594917"><ele>9.0</ele><time>2026-05-02T17:47:18.789Z</time></trkpt><trkpt lat="42.92248" lon="10.7595233"><ele>9.0</ele><time>2026-05-02T17:47:20.789Z</time></trkpt><trkpt lat="42.9224017" lon="10.7595417"><ele>9.0</ele><time>2026-05-02T17:47:21.785Z</time></trkpt><trkpt lat="42.9223183" lon="10.7595667"><ele>9.0</ele><time>2026-05-02T17:47:22.786Z</time></trkpt><trkpt lat="42.9221317" lon="10.7596533"><ele>9.333333333333334</ele><time>2026-05-02T17:47:24.787Z</time></trkpt><trkpt lat="42.9220483" lon="10.7596883"><ele>9.666666666666666</ele><time>2026-05-02T17:47:25.787Z</time></trkpt><trkpt lat="42.921975" lon="10.75973"><ele>10.0</ele><time>2026-05-02T17:47:26.787Z</time></trkpt><trkpt lat="42.921885" lon="10.7597817"><ele>10.333333333333332</ele><time>2026-05-02T17:47:27.786Z</time></trkpt><trkpt lat="42.9218117" lon="10.7598183"><ele>10.666666666666666</ele><time>2026-05-02T17:47:28.789Z</time></trkpt><trkpt lat="42.9217483" lon="10.7598467"><ele>11.0</ele><time>2026-05-02T17:47:29.786Z</time></trkpt><trkpt lat="42.9216467" lon="10.7598883"><ele>11.0</ele><time>2026-05-02T17:47:31.787Z</time></trkpt><trkpt lat="42.9215683" lon="10.7598983"><ele>11.0</ele><time>2026-05-02T17:47:33.788Z</time></trkpt><trkpt lat="42.921505" lon="10.7597917"><ele>11.0</ele><time>2026-05-02T17:47:35.786Z</time></trkpt><trkpt lat="42.9214767" lon="10.7596383"><ele>11.0</ele><time>2026-05-02T17:47:36.786Z</time></trkpt><trkpt lat="42.9214683" lon="10.7594617"><ele>11.0</ele><time>2026-05-02T17:47:37.786Z</time></trkpt><trkpt lat="42.9214167" lon="10.7591917"><ele>11.5</ele><time>2026-05-02T17:47:39.786Z</time></trkpt><trkpt lat="42.9213933" lon="10.7590683"><ele>12.0</ele><time>2026-05-02T17:47:40.789Z</time></trkpt><trkpt lat="42.9213583" lon="10.75897"><ele>12.5</ele><time>2026-05-02T17:47:41.786Z</time></trkpt><trkpt lat="42.92133" lon="10.7588767"><ele>13.0</ele><time>2026-05-02T17:47:42.786Z</time></trkpt><trkpt lat="42.9212983" lon="10.7587767"><ele>13.500000000000002</ele><time>2026-05-02T17:47:43.789Z</time></trkpt><trkpt lat="42.9212617" lon="10.7586717"><ele>14.0</ele><time>2026-05-02T17:47:44.786Z</time></trkpt><trkpt lat="42.9212333" lon="10.7585633"><ele>13.500000000000002</ele><time>2026-05-02T17:47:45.79Z</time></trkpt><trkpt lat="42.9212067" lon="10.758465"><ele>13.0</ele><time>2026-05-02T17:47:46.788Z</time></trkpt><trkpt lat="42.9211817" lon="10.7583683"><ele>12.5</ele><time>2026-05-02T17:47:47.786Z</time></trkpt><trkpt lat="42.9211617" lon="10.7582767"><ele>12.0</ele><time>2026-05-02T17:47:48.785Z</time></trkpt><trkpt lat="42.9211367" lon="10.7581917"><ele>11.5</ele><time>2026-05-02T17:47:49.786Z</time></trkpt><trkpt lat="42.9211067" lon="10.758115"><ele>11.0</ele><time>2026-05-02T17:47:50.787Z</time></trkpt><trkpt lat="42.9210633" lon="10.7579683"><ele>11.0</ele><time>2026-05-02T17:47:52.787Z</time></trkpt><trkpt lat="42.9210367" lon="10.7578433"><ele>11.0</ele><time>2026-05-02T17:47:54.786Z</time></trkpt><trkpt lat="42.9210133" lon="10.7577617"><ele>11.0</ele><time>2026-05-02T17:47:56.788Z</time></trkpt><trkpt lat="42.9209867" lon="10.7576783"><ele>11.0</ele><time>2026-05-02T17:47:59.79Z</time></trkpt><trkpt lat="42.92095" lon="10.7575533"><ele>11.0</ele><time>2026-05-02T17:48:05.788Z</time></trkpt><trkpt lat="42.9209283" lon="10.7574083"><ele>11.0</ele><time>2026-05-02T17:48:07.789Z</time></trkpt><trkpt lat="42.9209183" lon="10.75732"><ele>10.833333333333332</ele><time>2026-05-02T17:48:08.785Z</time></trkpt><trkpt lat="42.9209067" lon="10.7572317"><ele>10.666666666666666</ele><time>2026-05-02T17:48:09.785Z</time></trkpt><trkpt lat="42.9208867" lon="10.7571467"><ele>10.5</ele><time>2026-05-02T17:48:10.789Z</time></trkpt><trkpt lat="42.9208367" lon="10.757"><ele>10.333333333333334</ele><time>2026-05-02T17:48:12.789Z</time></trkpt><trkpt lat="42.9207917" lon="10.7568833"><ele>10.166666666666668</ele><time>2026-05-02T17:48:14.789Z</time></trkpt><trkpt lat="42.9207383" lon="10.7568"><ele>10.0</ele><time>2026-05-02T17:48:16.789Z</time></trkpt><trkpt lat="42.9206733" lon="10.7567233"><ele>6.0</ele><time>2026-05-02T17:48:18.79Z</time></trkpt><trkpt lat="42.9206183" lon="10.75668"><ele>6.0</ele><time>2026-05-02T17:48:21.788Z</time></trkpt></trkseg></trk></gpx>